<?xml version="1.0" encoding="UTF-8"?>
<gpx version="1.1" creator="https://www.youtrack.es" xsi:schemaLocation="http://www.topografix.com/GPX/1/1 http://www.topografix.com/GPX/1/1/gpx.xsd http://www.garmin.com/xmlschemas/GpxExtensions/v3 http://www.garmin.com/xmlschemas/GpxExtensionsv3.xsd http://www.garmin.com/xmlschemas/TrackPointExtension/v1 http://www.garmin.com/xmlschemas/TrackPointExtensionv1.xsd" xmlns:gpxtpx="http://www.garmin.com/xmlschemas/TrackPointExtension/v1" xmlns:gpxx="http://www.garmin.com/xmlschemas/GpxExtensions/v3" xmlns:xsi="http://www.w3.org/2001/XMLSchema-instance">
  <metadata>
    <link href="https://www.youtrack.es">
      <text>YouTrack.es</text>
    </link>
    <time>2026-05-10T23:08:49Z</time>
  </metadata>
  <trk>
    <src>https://www.youtrack.es</src>
    <link href="https://www.youtrack.es/ruta/16349-eric-jones">
      <text>YouTrack.es</text>
    </link>
    <trkseg>
      <trkpt lat="39.191268" lon="-0.440383">
        <ele>67.579737</ele>
        <time>2020-08-02T05:39:49.793Z</time>
      </trkpt>
      <trkpt lat="39.191354" lon="-0.440476">
        <ele>67.579737</ele>
        <time>2020-08-02T05:40:16.802Z</time>
      </trkpt>
      <trkpt lat="39.191419" lon="-0.440583">
        <ele>67.579737</ele>
        <time>2020-08-02T05:40:19.789Z</time>
      </trkpt>
      <trkpt lat="39.191440" lon="-0.440702">
        <ele>67.579737</ele>
        <time>2020-08-02T05:40:21.805Z</time>
      </trkpt>
      <trkpt lat="39.191478" lon="-0.440818">
        <ele>67.579737</ele>
        <time>2020-08-02T05:40:23.793Z</time>
      </trkpt>
      <trkpt lat="39.191557" lon="-0.440891">
        <ele>67.579737</ele>
        <time>2020-08-02T05:40:26.804Z</time>
      </trkpt>
      <trkpt lat="39.191630" lon="-0.440980">
        <ele>67.579737</ele>
        <time>2020-08-02T05:40:29.805Z</time>
      </trkpt>
      <trkpt lat="39.191698" lon="-0.441069">
        <ele>67.579737</ele>
        <time>2020-08-02T05:40:33.803Z</time>
      </trkpt>
      <trkpt lat="39.191625" lon="-0.441170">
        <ele>67.579737</ele>
        <time>2020-08-02T05:40:42.802Z</time>
      </trkpt>
      <trkpt lat="39.191501" lon="-0.441204">
        <ele>67.673138</ele>
        <time>2020-08-02T05:40:45.807Z</time>
      </trkpt>
      <trkpt lat="39.191408" lon="-0.441243">
        <ele>67.909017</ele>
        <time>2020-08-02T05:40:47.810Z</time>
      </trkpt>
      <trkpt lat="39.191332" lon="-0.441329">
        <ele>68.152853</ele>
        <time>2020-08-02T05:40:48.805Z</time>
      </trkpt>
      <trkpt lat="39.191239" lon="-0.441355">
        <ele>68.382386</ele>
        <time>2020-08-02T05:40:50.797Z</time>
      </trkpt>
      <trkpt lat="39.191248" lon="-0.441480">
        <ele>68.617080</ele>
        <time>2020-08-02T05:40:51.805Z</time>
      </trkpt>
      <trkpt lat="39.191151" lon="-0.441528">
        <ele>68.867674</ele>
        <time>2020-08-02T05:40:53.803Z</time>
      </trkpt>
      <trkpt lat="39.191052" lon="-0.441524">
        <ele>69.106592</ele>
        <time>2020-08-02T05:40:54.808Z</time>
      </trkpt>
      <trkpt lat="39.190941" lon="-0.441549">
        <ele>69.378386</ele>
        <time>2020-08-02T05:40:56.790Z</time>
      </trkpt>
      <trkpt lat="39.190681" lon="-0.441445">
        <ele>70.034986</ele>
        <time>2020-08-02T05:40:58.805Z</time>
      </trkpt>
      <trkpt lat="39.190265" lon="-0.442102">
        <ele>71.621037</ele>
        <time>2020-08-02T05:41:02.805Z</time>
      </trkpt>
      <trkpt lat="39.190185" lon="-0.442001">
        <ele>71.891020</ele>
        <time>2020-08-02T05:41:04.818Z</time>
      </trkpt>
      <trkpt lat="39.190191" lon="-0.441785">
        <ele>71.469262</ele>
        <time>2020-08-02T05:41:05.813Z</time>
      </trkpt>
      <trkpt lat="39.190281" lon="-0.441697">
        <ele>71.144664</ele>
        <time>2020-08-02T05:41:06.793Z</time>
      </trkpt>
      <trkpt lat="39.190367" lon="-0.441491">
        <ele>70.623381</ele>
        <time>2020-08-02T05:41:07.804Z</time>
      </trkpt>
      <trkpt lat="39.190474" lon="-0.441442">
        <ele>70.297013</ele>
        <time>2020-08-02T05:41:08.806Z</time>
      </trkpt>
      <trkpt lat="39.190603" lon="-0.441521">
        <ele>69.886557</ele>
        <time>2020-08-02T05:41:10.794Z</time>
      </trkpt>
      <trkpt lat="39.190507" lon="-0.441528">
        <ele>69.610167</ele>
        <time>2020-08-02T05:41:12.806Z</time>
      </trkpt>
      <trkpt lat="39.190419" lon="-0.441554">
        <ele>69.350666</ele>
        <time>2020-08-02T05:41:14.800Z</time>
      </trkpt>
      <trkpt lat="39.190322" lon="-0.441643">
        <ele>69.008529</ele>
        <time>2020-08-02T05:41:17.818Z</time>
      </trkpt>
      <trkpt lat="39.190201" lon="-0.441718">
        <ele>68.622664</ele>
        <time>2020-08-02T05:41:20.798Z</time>
      </trkpt>
      <trkpt lat="39.190093" lon="-0.441800">
        <ele>68.262457</ele>
        <time>2020-08-02T05:41:23.796Z</time>
      </trkpt>
      <trkpt lat="39.189988" lon="-0.441858">
        <ele>67.934140</ele>
        <time>2020-08-02T05:41:26.813Z</time>
      </trkpt>
      <trkpt lat="39.189879" lon="-0.441886">
        <ele>67.614672</ele>
        <time>2020-08-02T05:41:29.817Z</time>
      </trkpt>
      <trkpt lat="39.189768" lon="-0.441895">
        <ele>67.294976</ele>
        <time>2020-08-02T05:41:32.812Z</time>
      </trkpt>
      <trkpt lat="39.189651" lon="-0.441899">
        <ele>66.958544</ele>
        <time>2020-08-02T05:41:35.808Z</time>
      </trkpt>
      <trkpt lat="39.189522" lon="-0.441890">
        <ele>66.664258</ele>
        <time>2020-08-02T05:41:38.795Z</time>
      </trkpt>
      <trkpt lat="39.189407" lon="-0.441846">
        <ele>66.484560</ele>
        <time>2020-08-02T05:41:41.795Z</time>
      </trkpt>
      <trkpt lat="39.189320" lon="-0.441799">
        <ele>66.343261</ele>
        <time>2020-08-02T05:41:44.812Z</time>
      </trkpt>
      <trkpt lat="39.189241" lon="-0.441716">
        <ele>66.190635</ele>
        <time>2020-08-02T05:41:46.813Z</time>
      </trkpt>
      <trkpt lat="39.189155" lon="-0.441626">
        <ele>66.024744</ele>
        <time>2020-08-02T05:41:48.792Z</time>
      </trkpt>
      <trkpt lat="39.189076" lon="-0.441513">
        <ele>65.848046</ele>
        <time>2020-08-02T05:41:51.804Z</time>
      </trkpt>
      <trkpt lat="39.189015" lon="-0.441419">
        <ele>65.705694</ele>
        <time>2020-08-02T05:41:54.810Z</time>
      </trkpt>
      <trkpt lat="39.188948" lon="-0.441320">
        <ele>65.553088</ele>
        <time>2020-08-02T05:41:57.784Z</time>
      </trkpt>
      <trkpt lat="39.188866" lon="-0.441232">
        <ele>65.393302</ele>
        <time>2020-08-02T05:42:00.800Z</time>
      </trkpt>
      <trkpt lat="39.188763" lon="-0.441143">
        <ele>65.207588</ele>
        <time>2020-08-02T05:42:03.806Z</time>
      </trkpt>
      <trkpt lat="39.188671" lon="-0.441040">
        <ele>65.025107</ele>
        <time>2020-08-02T05:42:06.801Z</time>
      </trkpt>
      <trkpt lat="39.188595" lon="-0.440934">
        <ele>64.857441</ele>
        <time>2020-08-02T05:42:09.799Z</time>
      </trkpt>
      <trkpt lat="39.188532" lon="-0.440847">
        <ele>64.719192</ele>
        <time>2020-08-02T05:42:12.808Z</time>
      </trkpt>
      <trkpt lat="39.188468" lon="-0.440751">
        <ele>64.572161</ele>
        <time>2020-08-02T05:42:15.812Z</time>
      </trkpt>
      <trkpt lat="39.188395" lon="-0.440645">
        <ele>64.407513</ele>
        <time>2020-08-02T05:42:18.816Z</time>
      </trkpt>
      <trkpt lat="39.188322" lon="-0.440525">
        <ele>64.230384</ele>
        <time>2020-08-02T05:42:21.814Z</time>
      </trkpt>
      <trkpt lat="39.188257" lon="-0.440403">
        <ele>64.058483</ele>
        <time>2020-08-02T05:42:24.809Z</time>
      </trkpt>
      <trkpt lat="39.188196" lon="-0.440278">
        <ele>64.393793</ele>
        <time>2020-08-02T05:42:27.795Z</time>
      </trkpt>
      <trkpt lat="39.188132" lon="-0.440166">
        <ele>64.723725</ele>
        <time>2020-08-02T05:42:30.783Z</time>
      </trkpt>
      <trkpt lat="39.188057" lon="-0.440049">
        <ele>65.083727</ele>
        <time>2020-08-02T05:42:33.808Z</time>
      </trkpt>
      <trkpt lat="39.187961" lon="-0.439956">
        <ele>65.450977</ele>
        <time>2020-08-02T05:42:36.811Z</time>
      </trkpt>
      <trkpt lat="39.187858" lon="-0.439879">
        <ele>65.815143</ele>
        <time>2020-08-02T05:42:39.798Z</time>
      </trkpt>
      <trkpt lat="39.187738" lon="-0.439884">
        <ele>66.182434</ele>
        <time>2020-08-02T05:42:42.800Z</time>
      </trkpt>
      <trkpt lat="39.187644" lon="-0.439925">
        <ele>66.485983</ele>
        <time>2020-08-02T05:42:44.806Z</time>
      </trkpt>
      <trkpt lat="39.187559" lon="-0.439996">
        <ele>66.795751</ele>
        <time>2020-08-02T05:42:46.799Z</time>
      </trkpt>
      <trkpt lat="39.187479" lon="-0.440082">
        <ele>67.114303</ele>
        <time>2020-08-02T05:42:48.803Z</time>
      </trkpt>
      <trkpt lat="39.187413" lon="-0.440171">
        <ele>67.406362</ele>
        <time>2020-08-02T05:42:50.812Z</time>
      </trkpt>
      <trkpt lat="39.187349" lon="-0.440263">
        <ele>67.699480</ele>
        <time>2020-08-02T05:42:52.819Z</time>
      </trkpt>
      <trkpt lat="39.187279" lon="-0.440343">
        <ele>67.985554</ele>
        <time>2020-08-02T05:42:54.787Z</time>
      </trkpt>
      <trkpt lat="39.187202" lon="-0.440412">
        <ele>68.272352</ele>
        <time>2020-08-02T05:42:56.800Z</time>
      </trkpt>
      <trkpt lat="39.187105" lon="-0.440520">
        <ele>68.664310</ele>
        <time>2020-08-02T05:42:59.808Z</time>
      </trkpt>
      <trkpt lat="39.187029" lon="-0.440632">
        <ele>69.017268</ele>
        <time>2020-08-02T05:43:02.806Z</time>
      </trkpt>
      <trkpt lat="39.186956" lon="-0.440731">
        <ele>69.341266</ele>
        <time>2020-08-02T05:43:05.807Z</time>
      </trkpt>
      <trkpt lat="39.186875" lon="-0.440835">
        <ele>69.653259</ele>
        <time>2020-08-02T05:43:08.816Z</time>
      </trkpt>
      <trkpt lat="39.186780" lon="-0.440912">
        <ele>69.900850</ele>
        <time>2020-08-02T05:43:11.801Z</time>
      </trkpt>
      <trkpt lat="39.186685" lon="-0.440975">
        <ele>70.136576</ele>
        <time>2020-08-02T05:43:14.803Z</time>
      </trkpt>
      <trkpt lat="39.186586" lon="-0.441053">
        <ele>70.392573</ele>
        <time>2020-08-02T05:43:17.802Z</time>
      </trkpt>
      <trkpt lat="39.186488" lon="-0.441128">
        <ele>70.644033</ele>
        <time>2020-08-02T05:43:22.120Z</time>
      </trkpt>
      <trkpt lat="39.186384" lon="-0.441215">
        <ele>70.917571</ele>
        <time>2020-08-02T05:43:23.809Z</time>
      </trkpt>
      <trkpt lat="39.186274" lon="-0.441305">
        <ele>71.205025</ele>
        <time>2020-08-02T05:43:26.806Z</time>
      </trkpt>
      <trkpt lat="39.186145" lon="-0.441338">
        <ele>71.495253</ele>
        <time>2020-08-02T05:43:29.802Z</time>
      </trkpt>
      <trkpt lat="39.186021" lon="-0.441282">
        <ele>71.785185</ele>
        <time>2020-08-02T05:43:32.811Z</time>
      </trkpt>
      <trkpt lat="39.185948" lon="-0.441130">
        <ele>72.091052</ele>
        <time>2020-08-02T05:43:34.811Z</time>
      </trkpt>
      <trkpt lat="39.185874" lon="-0.441043">
        <ele>72.311996</ele>
        <time>2020-08-02T05:43:36.801Z</time>
      </trkpt>
      <trkpt lat="39.185797" lon="-0.440953">
        <ele>72.541290</ele>
        <time>2020-08-02T05:43:38.804Z</time>
      </trkpt>
      <trkpt lat="39.185716" lon="-0.440832">
        <ele>72.814773</ele>
        <time>2020-08-02T05:43:40.807Z</time>
      </trkpt>
      <trkpt lat="39.185640" lon="-0.440725">
        <ele>73.063027</ele>
        <time>2020-08-02T05:43:42.803Z</time>
      </trkpt>
      <trkpt lat="39.185560" lon="-0.440633">
        <ele>73.299533</ele>
        <time>2020-08-02T05:43:44.792Z</time>
      </trkpt>
      <trkpt lat="39.185495" lon="-0.440524">
        <ele>73.518023</ele>
        <time>2020-08-02T05:43:46.792Z</time>
      </trkpt>
      <trkpt lat="39.185417" lon="-0.440434">
        <ele>73.341632</ele>
        <time>2020-08-02T05:43:48.809Z</time>
      </trkpt>
      <trkpt lat="39.185340" lon="-0.440340">
        <ele>73.162943</ele>
        <time>2020-08-02T05:43:50.810Z</time>
      </trkpt>
      <trkpt lat="39.185287" lon="-0.440223">
        <ele>72.985886</ele>
        <time>2020-08-02T05:43:52.808Z</time>
      </trkpt>
      <trkpt lat="39.185237" lon="-0.440122">
        <ele>72.829307</ele>
        <time>2020-08-02T05:43:54.798Z</time>
      </trkpt>
      <trkpt lat="39.185179" lon="-0.440003">
        <ele>72.645645</ele>
        <time>2020-08-02T05:43:56.809Z</time>
      </trkpt>
      <trkpt lat="39.185113" lon="-0.439861">
        <ele>72.429316</ele>
        <time>2020-08-02T05:43:59.803Z</time>
      </trkpt>
      <trkpt lat="39.185054" lon="-0.439756">
        <ele>72.259873</ele>
        <time>2020-08-02T05:44:01.803Z</time>
      </trkpt>
      <trkpt lat="39.185003" lon="-0.439660">
        <ele>72.107811</ele>
        <time>2020-08-02T05:44:03.791Z</time>
      </trkpt>
      <trkpt lat="39.184939" lon="-0.439565">
        <ele>71.943360</ele>
        <time>2020-08-02T05:44:05.816Z</time>
      </trkpt>
      <trkpt lat="39.184895" lon="-0.439424">
        <ele>71.744767</ele>
        <time>2020-08-02T05:44:08.804Z</time>
      </trkpt>
      <trkpt lat="39.184823" lon="-0.439296">
        <ele>71.538131</ele>
        <time>2020-08-02T05:44:11.804Z</time>
      </trkpt>
      <trkpt lat="39.184759" lon="-0.439166">
        <ele>71.336916</ele>
        <time>2020-08-02T05:44:14.801Z</time>
      </trkpt>
      <trkpt lat="39.184695" lon="-0.439013">
        <ele>71.109761</ele>
        <time>2020-08-02T05:44:17.809Z</time>
      </trkpt>
      <trkpt lat="39.184665" lon="-0.438887">
        <ele>70.937544</ele>
        <time>2020-08-02T05:44:19.802Z</time>
      </trkpt>
      <trkpt lat="39.184629" lon="-0.438726">
        <ele>70.718611</ele>
        <time>2020-08-02T05:44:22.805Z</time>
      </trkpt>
      <trkpt lat="39.184605" lon="-0.438613">
        <ele>70.565528</ele>
        <time>2020-08-02T05:44:24.841Z</time>
      </trkpt>
      <trkpt lat="39.184570" lon="-0.438491">
        <ele>70.377440</ele>
        <time>2020-08-02T05:44:26.791Z</time>
      </trkpt>
      <trkpt lat="39.184547" lon="-0.438369">
        <ele>70.183020</ele>
        <time>2020-08-02T05:44:28.804Z</time>
      </trkpt>
      <trkpt lat="39.184537" lon="-0.438241">
        <ele>69.983813</ele>
        <time>2020-08-02T05:44:30.795Z</time>
      </trkpt>
      <trkpt lat="39.184503" lon="-0.438090">
        <ele>69.740330</ele>
        <time>2020-08-02T05:44:33.802Z</time>
      </trkpt>
      <trkpt lat="39.184479" lon="-0.437978">
        <ele>69.560397</ele>
        <time>2020-08-02T05:44:35.801Z</time>
      </trkpt>
      <trkpt lat="39.184438" lon="-0.437818">
        <ele>69.299455</ele>
        <time>2020-08-02T05:44:38.810Z</time>
      </trkpt>
      <trkpt lat="39.184419" lon="-0.437700">
        <ele>69.112835</ele>
        <time>2020-08-02T05:44:40.785Z</time>
      </trkpt>
      <trkpt lat="39.184407" lon="-0.437557">
        <ele>68.890111</ele>
        <time>2020-08-02T05:44:42.813Z</time>
      </trkpt>
      <trkpt lat="39.184376" lon="-0.437446">
        <ele>68.707415</ele>
        <time>2020-08-02T05:44:44.799Z</time>
      </trkpt>
      <trkpt lat="39.184346" lon="-0.437298">
        <ele>68.470536</ele>
        <time>2020-08-02T05:44:47.818Z</time>
      </trkpt>
      <trkpt lat="39.184324" lon="-0.437172">
        <ele>68.270540</ele>
        <time>2020-08-02T05:44:49.797Z</time>
      </trkpt>
      <trkpt lat="39.184269" lon="-0.437061">
        <ele>68.066543</ele>
        <time>2020-08-02T05:44:51.798Z</time>
      </trkpt>
      <trkpt lat="39.184250" lon="-0.436920">
        <ele>67.844934</ele>
        <time>2020-08-02T05:44:54.796Z</time>
      </trkpt>
      <trkpt lat="39.184197" lon="-0.436765">
        <ele>67.582605</ele>
        <time>2020-08-02T05:44:57.800Z</time>
      </trkpt>
      <trkpt lat="39.184152" lon="-0.436613">
        <ele>67.330655</ele>
        <time>2020-08-02T05:45:00.807Z</time>
      </trkpt>
      <trkpt lat="39.184054" lon="-0.436525">
        <ele>67.092124</ele>
        <time>2020-08-02T05:45:03.776Z</time>
      </trkpt>
      <trkpt lat="39.183926" lon="-0.436555">
        <ele>66.901044</ele>
        <time>2020-08-02T05:45:06.795Z</time>
      </trkpt>
      <trkpt lat="39.183782" lon="-0.436575">
        <ele>66.904402</ele>
        <time>2020-08-02T05:45:09.805Z</time>
      </trkpt>
      <trkpt lat="39.183674" lon="-0.436557">
        <ele>66.906927</ele>
        <time>2020-08-02T05:45:11.804Z</time>
      </trkpt>
      <trkpt lat="39.183583" lon="-0.436536">
        <ele>66.909071</ele>
        <time>2020-08-02T05:45:13.812Z</time>
      </trkpt>
      <trkpt lat="39.183456" lon="-0.436555">
        <ele>66.912035</ele>
        <time>2020-08-02T05:45:16.805Z</time>
      </trkpt>
      <trkpt lat="39.183358" lon="-0.436554">
        <ele>66.914307</ele>
        <time>2020-08-02T05:45:18.805Z</time>
      </trkpt>
      <trkpt lat="39.183254" lon="-0.436571">
        <ele>66.916737</ele>
        <time>2020-08-02T05:45:20.792Z</time>
      </trkpt>
      <trkpt lat="39.183119" lon="-0.436590">
        <ele>66.919886</ele>
        <time>2020-08-02T05:45:23.803Z</time>
      </trkpt>
      <trkpt lat="39.183020" lon="-0.436593">
        <ele>66.922182</ele>
        <time>2020-08-02T05:45:25.795Z</time>
      </trkpt>
      <trkpt lat="39.182922" lon="-0.436636">
        <ele>66.924582</ele>
        <time>2020-08-02T05:45:27.816Z</time>
      </trkpt>
      <trkpt lat="39.182835" lon="-0.436685">
        <ele>66.926783</ele>
        <time>2020-08-02T05:45:29.795Z</time>
      </trkpt>
      <trkpt lat="39.182732" lon="-0.436677">
        <ele>66.929175</ele>
        <time>2020-08-02T05:45:31.805Z</time>
      </trkpt>
      <trkpt lat="39.182599" lon="-0.436733">
        <ele>66.932419</ele>
        <time>2020-08-02T05:45:34.805Z</time>
      </trkpt>
      <trkpt lat="39.182509" lon="-0.436767">
        <ele>66.934593</ele>
        <time>2020-08-02T05:45:36.822Z</time>
      </trkpt>
      <trkpt lat="39.182380" lon="-0.436795">
        <ele>66.937626</ele>
        <time>2020-08-02T05:45:39.804Z</time>
      </trkpt>
      <trkpt lat="39.182296" lon="-0.436845">
        <ele>66.939771</ele>
        <time>2020-08-02T05:45:41.804Z</time>
      </trkpt>
      <trkpt lat="39.182156" lon="-0.436883">
        <ele>67.000086</ele>
        <time>2020-08-02T05:45:44.806Z</time>
      </trkpt>
      <trkpt lat="39.182013" lon="-0.436919">
        <ele>67.173650</ele>
        <time>2020-08-02T05:45:47.801Z</time>
      </trkpt>
      <trkpt lat="39.181926" lon="-0.436958">
        <ele>67.283368</ele>
        <time>2020-08-02T05:45:49.797Z</time>
      </trkpt>
      <trkpt lat="39.181834" lon="-0.436991">
        <ele>67.397122</ele>
        <time>2020-08-02T05:45:51.815Z</time>
      </trkpt>
      <trkpt lat="39.181741" lon="-0.437013">
        <ele>67.509757</ele>
        <time>2020-08-02T05:45:53.793Z</time>
      </trkpt>
      <trkpt lat="39.181653" lon="-0.437040">
        <ele>67.617512</ele>
        <time>2020-08-02T05:45:55.809Z</time>
      </trkpt>
      <trkpt lat="39.181540" lon="-0.437080">
        <ele>67.757101</ele>
        <time>2020-08-02T05:45:57.806Z</time>
      </trkpt>
      <trkpt lat="39.181440" lon="-0.437156">
        <ele>67.895362</ele>
        <time>2020-08-02T05:46:00.813Z</time>
      </trkpt>
      <trkpt lat="39.181346" lon="-0.437209">
        <ele>68.017569</ele>
        <time>2020-08-02T05:46:02.796Z</time>
      </trkpt>
      <trkpt lat="39.181227" lon="-0.437212">
        <ele>68.159356</ele>
        <time>2020-08-02T05:46:04.810Z</time>
      </trkpt>
      <trkpt lat="39.181162" lon="-0.437292">
        <ele>68.266375</ele>
        <time>2020-08-02T05:46:06.801Z</time>
      </trkpt>
      <trkpt lat="39.181070" lon="-0.437335">
        <ele>68.382942</ele>
        <time>2020-08-02T05:46:08.794Z</time>
      </trkpt>
      <trkpt lat="39.180936" lon="-0.437394">
        <ele>68.551613</ele>
        <time>2020-08-02T05:46:11.809Z</time>
      </trkpt>
      <trkpt lat="39.180828" lon="-0.437505">
        <ele>68.716108</ele>
        <time>2020-08-02T05:46:14.802Z</time>
      </trkpt>
      <trkpt lat="39.180750" lon="-0.437588">
        <ele>68.836557</ele>
        <time>2020-08-02T05:46:16.806Z</time>
      </trkpt>
      <trkpt lat="39.180671" lon="-0.437658">
        <ele>68.950728</ele>
        <time>2020-08-02T05:46:18.805Z</time>
      </trkpt>
      <trkpt lat="39.180574" lon="-0.437763">
        <ele>69.100346</ele>
        <time>2020-08-02T05:46:21.808Z</time>
      </trkpt>
      <trkpt lat="39.180490" lon="-0.437842">
        <ele>69.215236</ele>
        <time>2020-08-02T05:46:23.796Z</time>
      </trkpt>
      <trkpt lat="39.180406" lon="-0.437903">
        <ele>69.321773</ele>
        <time>2020-08-02T05:46:25.805Z</time>
      </trkpt>
      <trkpt lat="39.180330" lon="-0.438031">
        <ele>69.459906</ele>
        <time>2020-08-02T05:46:28.805Z</time>
      </trkpt>
      <trkpt lat="39.180245" lon="-0.438099">
        <ele>69.570447</ele>
        <time>2020-08-02T05:46:30.788Z</time>
      </trkpt>
      <trkpt lat="39.180167" lon="-0.438164">
        <ele>69.673077</ele>
        <time>2020-08-02T05:46:32.803Z</time>
      </trkpt>
      <trkpt lat="39.180084" lon="-0.438273">
        <ele>69.803979</ele>
        <time>2020-08-02T05:46:34.806Z</time>
      </trkpt>
      <trkpt lat="39.179996" lon="-0.438339">
        <ele>69.916480</ele>
        <time>2020-08-02T05:46:36.805Z</time>
      </trkpt>
      <trkpt lat="39.179909" lon="-0.438411">
        <ele>70.030720</ele>
        <time>2020-08-02T05:46:38.805Z</time>
      </trkpt>
      <trkpt lat="39.179849" lon="-0.438503">
        <ele>70.133724</ele>
        <time>2020-08-02T05:46:40.793Z</time>
      </trkpt>
      <trkpt lat="39.179785" lon="-0.438594">
        <ele>70.238992</ele>
        <time>2020-08-02T05:46:42.805Z</time>
      </trkpt>
      <trkpt lat="39.179693" lon="-0.438718">
        <ele>70.386046</ele>
        <time>2020-08-02T05:46:45.810Z</time>
      </trkpt>
      <trkpt lat="39.179625" lon="-0.438811">
        <ele>70.495575</ele>
        <time>2020-08-02T05:46:47.789Z</time>
      </trkpt>
      <trkpt lat="39.179540" lon="-0.438912">
        <ele>70.623296</ele>
        <time>2020-08-02T05:46:49.783Z</time>
      </trkpt>
      <trkpt lat="39.179463" lon="-0.438981">
        <ele>70.726915</ele>
        <time>2020-08-02T05:46:51.806Z</time>
      </trkpt>
      <trkpt lat="39.179381" lon="-0.439046">
        <ele>70.833285</ele>
        <time>2020-08-02T05:46:53.804Z</time>
      </trkpt>
      <trkpt lat="39.179327" lon="-0.439144">
        <ele>70.936296</ele>
        <time>2020-08-02T05:46:55.800Z</time>
      </trkpt>
      <trkpt lat="39.179238" lon="-0.439273">
        <ele>71.083813</ele>
        <time>2020-08-02T05:46:58.798Z</time>
      </trkpt>
      <trkpt lat="39.179157" lon="-0.439344">
        <ele>71.188024</ele>
        <time>2020-08-02T05:47:00.804Z</time>
      </trkpt>
      <trkpt lat="39.179055" lon="-0.439440">
        <ele>71.322384</ele>
        <time>2020-08-02T05:47:03.813Z</time>
      </trkpt>
      <trkpt lat="39.178962" lon="-0.439497">
        <ele>71.431951</ele>
        <time>2020-08-02T05:47:05.805Z</time>
      </trkpt>
      <trkpt lat="39.178883" lon="-0.439568">
        <ele>71.534408</ele>
        <time>2020-08-02T05:47:07.787Z</time>
      </trkpt>
      <trkpt lat="39.178797" lon="-0.439623">
        <ele>71.636554</ele>
        <time>2020-08-02T05:47:09.808Z</time>
      </trkpt>
      <trkpt lat="39.178658" lon="-0.439689">
        <ele>71.794171</ele>
        <time>2020-08-02T05:47:12.808Z</time>
      </trkpt>
      <trkpt lat="39.178547" lon="-0.439735">
        <ele>71.918237</ele>
        <time>2020-08-02T05:47:14.798Z</time>
      </trkpt>
      <trkpt lat="39.178449" lon="-0.439763">
        <ele>72.025050</ele>
        <time>2020-08-02T05:47:16.804Z</time>
      </trkpt>
      <trkpt lat="39.178346" lon="-0.439801">
        <ele>72.139051</ele>
        <time>2020-08-02T05:47:18.811Z</time>
      </trkpt>
      <trkpt lat="39.178240" lon="-0.439840">
        <ele>72.256349</ele>
        <time>2020-08-02T05:47:20.815Z</time>
      </trkpt>
      <trkpt lat="39.178133" lon="-0.439852">
        <ele>72.370642</ele>
        <time>2020-08-02T05:47:22.798Z</time>
      </trkpt>
      <trkpt lat="39.178045" lon="-0.439892">
        <ele>72.469930</ele>
        <time>2020-08-02T05:47:24.808Z</time>
      </trkpt>
      <trkpt lat="39.177942" lon="-0.439912">
        <ele>72.580771</ele>
        <time>2020-08-02T05:47:26.805Z</time>
      </trkpt>
      <trkpt lat="39.177849" lon="-0.439903">
        <ele>72.680015</ele>
        <time>2020-08-02T05:47:28.802Z</time>
      </trkpt>
      <trkpt lat="39.177736" lon="-0.439901">
        <ele>72.800275</ele>
        <time>2020-08-02T05:47:30.807Z</time>
      </trkpt>
      <trkpt lat="39.177605" lon="-0.439915">
        <ele>72.940155</ele>
        <time>2020-08-02T05:47:33.810Z</time>
      </trkpt>
      <trkpt lat="39.177487" lon="-0.439938">
        <ele>72.974415</ele>
        <time>2020-08-02T05:47:36.806Z</time>
      </trkpt>
      <trkpt lat="39.177360" lon="-0.439952">
        <ele>72.954031</ele>
        <time>2020-08-02T05:47:39.804Z</time>
      </trkpt>
      <trkpt lat="39.177214" lon="-0.439973">
        <ele>72.930538</ele>
        <time>2020-08-02T05:47:42.802Z</time>
      </trkpt>
      <trkpt lat="39.177106" lon="-0.439997">
        <ele>72.913012</ele>
        <time>2020-08-02T05:47:44.804Z</time>
      </trkpt>
      <trkpt lat="39.177011" lon="-0.440034">
        <ele>72.897142</ele>
        <time>2020-08-02T05:47:47.801Z</time>
      </trkpt>
      <trkpt lat="39.176911" lon="-0.440108">
        <ele>72.878705</ele>
        <time>2020-08-02T05:47:49.793Z</time>
      </trkpt>
      <trkpt lat="39.176820" lon="-0.440180">
        <ele>72.861633</ele>
        <time>2020-08-02T05:47:52.805Z</time>
      </trkpt>
      <trkpt lat="39.176700" lon="-0.440234">
        <ele>72.841308</ele>
        <time>2020-08-02T05:47:55.804Z</time>
      </trkpt>
      <trkpt lat="39.176598" lon="-0.440261">
        <ele>72.824656</ele>
        <time>2020-08-02T05:47:57.811Z</time>
      </trkpt>
      <trkpt lat="39.176509" lon="-0.440315">
        <ele>72.808927</ele>
        <time>2020-08-02T05:47:59.794Z</time>
      </trkpt>
      <trkpt lat="39.176420" lon="-0.440345">
        <ele>72.794216</ele>
        <time>2020-08-02T05:48:01.798Z</time>
      </trkpt>
      <trkpt lat="39.176323" lon="-0.440373">
        <ele>72.778320</ele>
        <time>2020-08-02T05:48:03.805Z</time>
      </trkpt>
      <trkpt lat="39.176231" lon="-0.440411">
        <ele>72.762872</ele>
        <time>2020-08-02T05:48:05.794Z</time>
      </trkpt>
      <trkpt lat="39.176122" lon="-0.440431">
        <ele>72.745265</ele>
        <time>2020-08-02T05:48:07.795Z</time>
      </trkpt>
      <trkpt lat="39.175997" lon="-0.440498">
        <ele>72.723617</ele>
        <time>2020-08-02T05:48:10.803Z</time>
      </trkpt>
      <trkpt lat="39.175892" lon="-0.440506">
        <ele>72.706796</ele>
        <time>2020-08-02T05:48:12.802Z</time>
      </trkpt>
      <trkpt lat="39.175762" lon="-0.440552">
        <ele>72.667762</ele>
        <time>2020-08-02T05:48:15.806Z</time>
      </trkpt>
      <trkpt lat="39.175655" lon="-0.440588">
        <ele>72.627435</ele>
        <time>2020-08-02T05:48:17.806Z</time>
      </trkpt>
      <trkpt lat="39.175534" lon="-0.440672">
        <ele>72.577324</ele>
        <time>2020-08-02T05:48:20.800Z</time>
      </trkpt>
      <trkpt lat="39.175446" lon="-0.440713">
        <ele>72.543202</ele>
        <time>2020-08-02T05:48:22.786Z</time>
      </trkpt>
      <trkpt lat="39.175359" lon="-0.440749">
        <ele>72.509882</ele>
        <time>2020-08-02T05:48:24.810Z</time>
      </trkpt>
      <trkpt lat="39.175236" lon="-0.440808">
        <ele>72.462025</ele>
        <time>2020-08-02T05:48:27.791Z</time>
      </trkpt>
      <trkpt lat="39.175142" lon="-0.440837">
        <ele>72.426778</ele>
        <time>2020-08-02T05:48:29.788Z</time>
      </trkpt>
      <trkpt lat="39.175035" lon="-0.440910">
        <ele>72.382635</ele>
        <time>2020-08-02T05:48:32.803Z</time>
      </trkpt>
      <trkpt lat="39.174945" lon="-0.440958">
        <ele>72.347118</ele>
        <time>2020-08-02T05:48:34.789Z</time>
      </trkpt>
      <trkpt lat="39.174828" lon="-0.441030">
        <ele>72.299843</ele>
        <time>2020-08-02T05:48:37.804Z</time>
      </trkpt>
      <trkpt lat="39.174725" lon="-0.441067">
        <ele>72.260851</ele>
        <time>2020-08-02T05:48:39.803Z</time>
      </trkpt>
      <trkpt lat="39.174611" lon="-0.441135">
        <ele>72.215047</ele>
        <time>2020-08-02T05:48:42.800Z</time>
      </trkpt>
      <trkpt lat="39.174520" lon="-0.441183">
        <ele>72.179194</ele>
        <time>2020-08-02T05:48:44.791Z</time>
      </trkpt>
      <trkpt lat="39.174390" lon="-0.441228">
        <ele>72.130107</ele>
        <time>2020-08-02T05:48:47.794Z</time>
      </trkpt>
      <trkpt lat="39.174293" lon="-0.441269">
        <ele>72.092882</ele>
        <time>2020-08-02T05:48:49.802Z</time>
      </trkpt>
      <trkpt lat="39.174195" lon="-0.441264">
        <ele>72.057115</ele>
        <time>2020-08-02T05:48:51.803Z</time>
      </trkpt>
      <trkpt lat="39.174090" lon="-0.441313">
        <ele>72.029818</ele>
        <time>2020-08-02T05:48:54.790Z</time>
      </trkpt>
      <trkpt lat="39.174001" lon="-0.441341">
        <ele>72.013300</ele>
        <time>2020-08-02T05:48:56.794Z</time>
      </trkpt>
      <trkpt lat="39.173906" lon="-0.441386">
        <ele>71.995051</ele>
        <time>2020-08-02T05:48:58.791Z</time>
      </trkpt>
      <trkpt lat="39.173817" lon="-0.441426">
        <ele>71.978057</ele>
        <time>2020-08-02T05:49:00.810Z</time>
      </trkpt>
      <trkpt lat="39.173719" lon="-0.441472">
        <ele>71.959252</ele>
        <time>2020-08-02T05:49:03.806Z</time>
      </trkpt>
      <trkpt lat="39.173757" lon="-0.441631">
        <ele>71.935993</ele>
        <time>2020-08-02T05:49:06.781Z</time>
      </trkpt>
      <trkpt lat="39.173794" lon="-0.441783">
        <ele>71.913723</ele>
        <time>2020-08-02T05:49:09.809Z</time>
      </trkpt>
      <trkpt lat="39.173791" lon="-0.441912">
        <ele>71.895682</ele>
        <time>2020-08-02T05:49:12.799Z</time>
      </trkpt>
      <trkpt lat="39.173788" lon="-0.442043">
        <ele>71.877362</ele>
        <time>2020-08-02T05:49:15.810Z</time>
      </trkpt>
      <trkpt lat="39.173796" lon="-0.442161">
        <ele>71.860804</ele>
        <time>2020-08-02T05:49:18.795Z</time>
      </trkpt>
      <trkpt lat="39.173735" lon="-0.442294">
        <ele>71.839202</ele>
        <time>2020-08-02T05:49:22.800Z</time>
      </trkpt>
      <trkpt lat="39.173620" lon="-0.442356">
        <ele>71.816727</ele>
        <time>2020-08-02T05:49:25.808Z</time>
      </trkpt>
      <trkpt lat="39.173494" lon="-0.442384">
        <ele>71.793672</ele>
        <time>2020-08-02T05:49:28.811Z</time>
      </trkpt>
      <trkpt lat="39.173374" lon="-0.442413">
        <ele>71.771658</ele>
        <time>2020-08-02T05:49:31.798Z</time>
      </trkpt>
      <trkpt lat="39.173253" lon="-0.442441">
        <ele>71.749491</ele>
        <time>2020-08-02T05:49:34.811Z</time>
      </trkpt>
      <trkpt lat="39.173126" lon="-0.442456">
        <ele>71.726495</ele>
        <time>2020-08-02T05:49:37.817Z</time>
      </trkpt>
      <trkpt lat="39.172992" lon="-0.442477">
        <ele>71.685114</ele>
        <time>2020-08-02T05:49:40.798Z</time>
      </trkpt>
      <trkpt lat="39.172899" lon="-0.442500">
        <ele>71.650368</ele>
        <time>2020-08-02T05:49:42.801Z</time>
      </trkpt>
      <trkpt lat="39.172808" lon="-0.442528">
        <ele>71.616041</ele>
        <time>2020-08-02T05:49:44.801Z</time>
      </trkpt>
      <trkpt lat="39.172674" lon="-0.442570">
        <ele>71.565442</ele>
        <time>2020-08-02T05:49:47.782Z</time>
      </trkpt>
      <trkpt lat="39.172581" lon="-0.442594">
        <ele>71.530641</ele>
        <time>2020-08-02T05:49:49.806Z</time>
      </trkpt>
      <trkpt lat="39.172452" lon="-0.442638">
        <ele>71.481681</ele>
        <time>2020-08-02T05:49:52.808Z</time>
      </trkpt>
      <trkpt lat="39.172322" lon="-0.442677">
        <ele>71.432707</ele>
        <time>2020-08-02T05:49:55.806Z</time>
      </trkpt>
      <trkpt lat="39.172188" lon="-0.442670">
        <ele>71.383498</ele>
        <time>2020-08-02T05:49:58.807Z</time>
      </trkpt>
      <trkpt lat="39.172068" lon="-0.442716">
        <ele>71.337564</ele>
        <time>2020-08-02T05:50:01.808Z</time>
      </trkpt>
      <trkpt lat="39.171974" lon="-0.442721">
        <ele>71.303043</ele>
        <time>2020-08-02T05:50:03.808Z</time>
      </trkpt>
      <trkpt lat="39.171884" lon="-0.442695">
        <ele>71.269202</ele>
        <time>2020-08-02T05:50:05.801Z</time>
      </trkpt>
      <trkpt lat="39.171771" lon="-0.442690">
        <ele>71.227715</ele>
        <time>2020-08-02T05:50:08.803Z</time>
      </trkpt>
      <trkpt lat="39.171661" lon="-0.442734">
        <ele>71.185456</ele>
        <time>2020-08-02T05:50:11.795Z</time>
      </trkpt>
      <trkpt lat="39.171558" lon="-0.442788">
        <ele>71.144660</ele>
        <time>2020-08-02T05:50:14.810Z</time>
      </trkpt>
      <trkpt lat="39.171449" lon="-0.442837">
        <ele>71.102306</ele>
        <time>2020-08-02T05:50:17.805Z</time>
      </trkpt>
      <trkpt lat="39.171326" lon="-0.442865">
        <ele>71.053297</ele>
        <time>2020-08-02T05:50:20.805Z</time>
      </trkpt>
      <trkpt lat="39.171204" lon="-0.442877">
        <ele>70.942689</ele>
        <time>2020-08-02T05:50:23.806Z</time>
      </trkpt>
      <trkpt lat="39.171083" lon="-0.442890">
        <ele>70.832927</ele>
        <time>2020-08-02T05:50:26.792Z</time>
      </trkpt>
      <trkpt lat="39.170959" lon="-0.442901">
        <ele>70.720567</ele>
        <time>2020-08-02T05:50:29.799Z</time>
      </trkpt>
      <trkpt lat="39.170872" lon="-0.442949">
        <ele>70.635027</ele>
        <time>2020-08-02T05:50:31.789Z</time>
      </trkpt>
      <trkpt lat="39.170845" lon="-0.443094">
        <ele>70.530516</ele>
        <time>2020-08-02T05:50:33.788Z</time>
      </trkpt>
      <trkpt lat="39.170835" lon="-0.443240">
        <ele>70.427795</ele>
        <time>2020-08-02T05:50:36.809Z</time>
      </trkpt>
      <trkpt lat="39.170844" lon="-0.443377">
        <ele>70.331437</ele>
        <time>2020-08-02T05:50:38.841Z</time>
      </trkpt>
      <trkpt lat="39.170854" lon="-0.443507">
        <ele>70.239881</ele>
        <time>2020-08-02T05:50:40.798Z</time>
      </trkpt>
      <trkpt lat="39.170870" lon="-0.443644">
        <ele>70.142783</ele>
        <time>2020-08-02T05:50:42.792Z</time>
      </trkpt>
      <trkpt lat="39.170887" lon="-0.443759">
        <ele>70.060735</ele>
        <time>2020-08-02T05:50:44.797Z</time>
      </trkpt>
      <trkpt lat="39.170906" lon="-0.443872">
        <ele>69.979699</ele>
        <time>2020-08-02T05:50:46.807Z</time>
      </trkpt>
      <trkpt lat="39.170931" lon="-0.443984">
        <ele>69.898017</ele>
        <time>2020-08-02T05:50:48.785Z</time>
      </trkpt>
      <trkpt lat="39.170960" lon="-0.444122">
        <ele>69.797811</ele>
        <time>2020-08-02T05:50:50.803Z</time>
      </trkpt>
      <trkpt lat="39.171046" lon="-0.444251">
        <ele>69.678574</ele>
        <time>2020-08-02T05:50:53.808Z</time>
      </trkpt>
      <trkpt lat="39.171144" lon="-0.444278">
        <ele>69.587984</ele>
        <time>2020-08-02T05:50:55.806Z</time>
      </trkpt>
      <trkpt lat="39.171201" lon="-0.444371">
        <ele>69.504899</ele>
        <time>2020-08-02T05:50:57.805Z</time>
      </trkpt>
      <trkpt lat="39.171235" lon="-0.444491">
        <ele>69.437025</ele>
        <time>2020-08-02T05:50:59.808Z</time>
      </trkpt>
      <trkpt lat="39.171254" lon="-0.444614">
        <ele>69.459034</ele>
        <time>2020-08-02T05:51:01.796Z</time>
      </trkpt>
      <trkpt lat="39.171209" lon="-0.444755">
        <ele>69.485791</ele>
        <time>2020-08-02T05:51:04.787Z</time>
      </trkpt>
      <trkpt lat="39.171153" lon="-0.444851">
        <ele>69.506874</ele>
        <time>2020-08-02T05:51:06.798Z</time>
      </trkpt>
      <trkpt lat="39.171062" lon="-0.444929">
        <ele>69.531606</ele>
        <time>2020-08-02T05:51:08.790Z</time>
      </trkpt>
      <trkpt lat="39.170938" lon="-0.444935">
        <ele>69.559693</ele>
        <time>2020-08-02T05:51:11.797Z</time>
      </trkpt>
      <trkpt lat="39.170825" lon="-0.444910">
        <ele>69.585645</ele>
        <time>2020-08-02T05:51:14.800Z</time>
      </trkpt>
      <trkpt lat="39.170725" lon="-0.444944">
        <ele>69.609053</ele>
        <time>2020-08-02T05:51:16.811Z</time>
      </trkpt>
      <trkpt lat="39.170625" lon="-0.444950">
        <ele>69.631713</ele>
        <time>2020-08-02T05:51:18.789Z</time>
      </trkpt>
      <trkpt lat="39.170527" lon="-0.444960">
        <ele>69.653965</ele>
        <time>2020-08-02T05:51:20.815Z</time>
      </trkpt>
      <trkpt lat="39.170438" lon="-0.444988">
        <ele>69.674701</ele>
        <time>2020-08-02T05:51:22.812Z</time>
      </trkpt>
      <trkpt lat="39.170346" lon="-0.445027">
        <ele>69.696622</ele>
        <time>2020-08-02T05:51:24.807Z</time>
      </trkpt>
      <trkpt lat="39.170248" lon="-0.445060">
        <ele>69.719548</ele>
        <time>2020-08-02T05:51:26.808Z</time>
      </trkpt>
      <trkpt lat="39.170113" lon="-0.445081">
        <ele>69.750327</ele>
        <time>2020-08-02T05:51:29.803Z</time>
      </trkpt>
      <trkpt lat="39.169977" lon="-0.445095">
        <ele>69.781209</ele>
        <time>2020-08-02T05:51:32.802Z</time>
      </trkpt>
      <trkpt lat="39.169856" lon="-0.445112">
        <ele>69.808760</ele>
        <time>2020-08-02T05:51:35.811Z</time>
      </trkpt>
      <trkpt lat="39.169765" lon="-0.445132">
        <ele>69.829655</ele>
        <time>2020-08-02T05:51:37.788Z</time>
      </trkpt>
      <trkpt lat="39.169664" lon="-0.445150">
        <ele>69.805167</ele>
        <time>2020-08-02T05:51:39.805Z</time>
      </trkpt>
      <trkpt lat="39.169573" lon="-0.445176">
        <ele>69.748575</ele>
        <time>2020-08-02T05:51:41.792Z</time>
      </trkpt>
      <trkpt lat="39.169478" lon="-0.445201">
        <ele>69.689706</ele>
        <time>2020-08-02T05:51:43.803Z</time>
      </trkpt>
      <trkpt lat="39.169383" lon="-0.445230">
        <ele>69.630432</ele>
        <time>2020-08-02T05:51:45.805Z</time>
      </trkpt>
      <trkpt lat="39.169260" lon="-0.445265">
        <ele>69.553954</ele>
        <time>2020-08-02T05:51:48.793Z</time>
      </trkpt>
      <trkpt lat="39.169165" lon="-0.445295">
        <ele>69.494570</ele>
        <time>2020-08-02T05:51:50.806Z</time>
      </trkpt>
      <trkpt lat="39.169035" lon="-0.445317">
        <ele>69.414961</ele>
        <time>2020-08-02T05:51:53.807Z</time>
      </trkpt>
      <trkpt lat="39.168947" lon="-0.445343">
        <ele>69.360147</ele>
        <time>2020-08-02T05:51:55.809Z</time>
      </trkpt>
      <trkpt lat="39.168857" lon="-0.445376">
        <ele>69.303336</ele>
        <time>2020-08-02T05:51:57.803Z</time>
      </trkpt>
      <trkpt lat="39.168725" lon="-0.445394">
        <ele>69.222743</ele>
        <time>2020-08-02T05:52:00.806Z</time>
      </trkpt>
      <trkpt lat="39.168601" lon="-0.445435">
        <ele>69.145020</ele>
        <time>2020-08-02T05:52:03.802Z</time>
      </trkpt>
      <trkpt lat="39.168478" lon="-0.445474">
        <ele>69.068115</ele>
        <time>2020-08-02T05:52:06.819Z</time>
      </trkpt>
      <trkpt lat="39.168386" lon="-0.445474">
        <ele>69.012256</ele>
        <time>2020-08-02T05:52:08.806Z</time>
      </trkpt>
      <trkpt lat="39.168252" lon="-0.445491">
        <ele>68.930502</ele>
        <time>2020-08-02T05:52:11.805Z</time>
      </trkpt>
      <trkpt lat="39.168160" lon="-0.445515">
        <ele>68.873512</ele>
        <time>2020-08-02T05:52:13.808Z</time>
      </trkpt>
      <trkpt lat="39.168036" lon="-0.445543">
        <ele>68.797078</ele>
        <time>2020-08-02T05:52:16.809Z</time>
      </trkpt>
      <trkpt lat="39.167909" lon="-0.445542">
        <ele>68.598450</ele>
        <time>2020-08-02T05:52:19.794Z</time>
      </trkpt>
      <trkpt lat="39.167778" lon="-0.445563">
        <ele>68.167584</ele>
        <time>2020-08-02T05:52:22.799Z</time>
      </trkpt>
      <trkpt lat="39.167647" lon="-0.445571">
        <ele>67.739529</ele>
        <time>2020-08-02T05:52:25.808Z</time>
      </trkpt>
      <trkpt lat="39.167512" lon="-0.445578">
        <ele>67.298541</ele>
        <time>2020-08-02T05:52:28.803Z</time>
      </trkpt>
      <trkpt lat="39.167389" lon="-0.445603">
        <ele>66.892123</ele>
        <time>2020-08-02T05:52:31.810Z</time>
      </trkpt>
      <trkpt lat="39.167270" lon="-0.445633">
        <ele>66.496364</ele>
        <time>2020-08-02T05:52:34.805Z</time>
      </trkpt>
      <trkpt lat="39.167149" lon="-0.445627">
        <ele>66.101136</ele>
        <time>2020-08-02T05:52:37.799Z</time>
      </trkpt>
      <trkpt lat="39.167022" lon="-0.445625">
        <ele>65.686585</ele>
        <time>2020-08-02T05:52:40.796Z</time>
      </trkpt>
      <trkpt lat="39.166925" lon="-0.445620">
        <ele>65.369730</ele>
        <time>2020-08-02T05:52:42.807Z</time>
      </trkpt>
      <trkpt lat="39.166827" lon="-0.445617">
        <ele>65.049774</ele>
        <time>2020-08-02T05:52:44.808Z</time>
      </trkpt>
      <trkpt lat="39.166691" lon="-0.445615">
        <ele>64.605849</ele>
        <time>2020-08-02T05:52:47.803Z</time>
      </trkpt>
      <trkpt lat="39.166561" lon="-0.445599">
        <ele>64.179610</ele>
        <time>2020-08-02T05:52:50.804Z</time>
      </trkpt>
      <trkpt lat="39.166462" lon="-0.445573">
        <ele>63.849849</ele>
        <time>2020-08-02T05:52:52.799Z</time>
      </trkpt>
      <trkpt lat="39.166353" lon="-0.445558">
        <ele>63.492061</ele>
        <time>2020-08-02T05:52:54.799Z</time>
      </trkpt>
      <trkpt lat="39.166262" lon="-0.445556">
        <ele>63.194999</ele>
        <time>2020-08-02T05:52:56.807Z</time>
      </trkpt>
      <trkpt lat="39.166124" lon="-0.445517">
        <ele>63.005885</ele>
        <time>2020-08-02T05:52:59.802Z</time>
      </trkpt>
      <trkpt lat="39.166034" lon="-0.445489">
        <ele>63.277729</ele>
        <time>2020-08-02T05:53:01.808Z</time>
      </trkpt>
      <trkpt lat="39.165894" lon="-0.445478">
        <ele>63.689569</ele>
        <time>2020-08-02T05:53:04.801Z</time>
      </trkpt>
      <trkpt lat="39.165800" lon="-0.445464">
        <ele>63.967412</ele>
        <time>2020-08-02T05:53:06.812Z</time>
      </trkpt>
      <trkpt lat="39.165705" lon="-0.445451">
        <ele>64.247924</ele>
        <time>2020-08-02T05:53:08.802Z</time>
      </trkpt>
      <trkpt lat="39.165564" lon="-0.445482">
        <ele>64.667910</ele>
        <time>2020-08-02T05:53:11.800Z</time>
      </trkpt>
      <trkpt lat="39.165445" lon="-0.445488">
        <ele>65.017593</ele>
        <time>2020-08-02T05:53:14.801Z</time>
      </trkpt>
      <trkpt lat="39.165314" lon="-0.445492">
        <ele>65.402352</ele>
        <time>2020-08-02T05:53:17.799Z</time>
      </trkpt>
      <trkpt lat="39.165215" lon="-0.445462">
        <ele>65.700958</ele>
        <time>2020-08-02T05:53:19.802Z</time>
      </trkpt>
      <trkpt lat="39.165122" lon="-0.445480">
        <ele>65.977089</ele>
        <time>2020-08-02T05:53:21.811Z</time>
      </trkpt>
      <trkpt lat="39.164997" lon="-0.445476">
        <ele>66.344236</ele>
        <time>2020-08-02T05:53:24.805Z</time>
      </trkpt>
      <trkpt lat="39.164898" lon="-0.445439">
        <ele>66.646885</ele>
        <time>2020-08-02T05:53:26.804Z</time>
      </trkpt>
      <trkpt lat="39.164786" lon="-0.445436">
        <ele>66.975818</ele>
        <time>2020-08-02T05:53:28.795Z</time>
      </trkpt>
      <trkpt lat="39.164672" lon="-0.445380">
        <ele>67.334009</ele>
        <time>2020-08-02T05:53:30.805Z</time>
      </trkpt>
      <trkpt lat="39.164540" lon="-0.445380">
        <ele>67.721597</ele>
        <time>2020-08-02T05:53:33.811Z</time>
      </trkpt>
      <trkpt lat="39.164441" lon="-0.445383">
        <ele>68.012368</ele>
        <time>2020-08-02T05:53:36.799Z</time>
      </trkpt>
      <trkpt lat="39.164301" lon="-0.445362">
        <ele>68.354998</ele>
        <time>2020-08-02T05:53:39.799Z</time>
      </trkpt>
      <trkpt lat="39.164206" lon="-0.445386">
        <ele>68.563664</ele>
        <time>2020-08-02T05:53:41.802Z</time>
      </trkpt>
      <trkpt lat="39.164097" lon="-0.445382">
        <ele>68.798710</ele>
        <time>2020-08-02T05:53:43.792Z</time>
      </trkpt>
      <trkpt lat="39.163997" lon="-0.445410">
        <ele>69.019283</ele>
        <time>2020-08-02T05:53:45.801Z</time>
      </trkpt>
      <trkpt lat="39.163969" lon="-0.445533">
        <ele>69.233525</ele>
        <time>2020-08-02T05:53:47.785Z</time>
      </trkpt>
      <trkpt lat="39.163906" lon="-0.445675">
        <ele>69.506951</ele>
        <time>2020-08-02T05:53:50.803Z</time>
      </trkpt>
      <trkpt lat="39.163837" lon="-0.445804">
        <ele>69.768869</ele>
        <time>2020-08-02T05:53:53.795Z</time>
      </trkpt>
      <trkpt lat="39.163771" lon="-0.445887">
        <ele>69.967567</ele>
        <time>2020-08-02T05:53:55.806Z</time>
      </trkpt>
      <trkpt lat="39.163676" lon="-0.446001">
        <ele>70.247267</ele>
        <time>2020-08-02T05:53:58.792Z</time>
      </trkpt>
      <trkpt lat="39.163560" lon="-0.446073">
        <ele>70.524755</ele>
        <time>2020-08-02T05:54:01.803Z</time>
      </trkpt>
      <trkpt lat="39.163463" lon="-0.446101">
        <ele>70.739013</ele>
        <time>2020-08-02T05:54:03.796Z</time>
      </trkpt>
      <trkpt lat="39.163320" lon="-0.446109">
        <ele>71.047542</ele>
        <time>2020-08-02T05:54:06.808Z</time>
      </trkpt>
      <trkpt lat="39.163197" lon="-0.446056">
        <ele>71.327076</ele>
        <time>2020-08-02T05:54:09.805Z</time>
      </trkpt>
      <trkpt lat="39.163091" lon="-0.445991">
        <ele>71.580071</ele>
        <time>2020-08-02T05:54:12.801Z</time>
      </trkpt>
      <trkpt lat="39.163009" lon="-0.445892">
        <ele>71.822182</ele>
        <time>2020-08-02T05:54:14.799Z</time>
      </trkpt>
      <trkpt lat="39.162941" lon="-0.445804">
        <ele>72.029823</ele>
        <time>2020-08-02T05:54:17.804Z</time>
      </trkpt>
      <trkpt lat="39.162912" lon="-0.445687">
        <ele>71.880439</ele>
        <time>2020-08-02T05:54:19.801Z</time>
      </trkpt>
      <trkpt lat="39.162898" lon="-0.445568">
        <ele>71.724381</ele>
        <time>2020-08-02T05:54:21.815Z</time>
      </trkpt>
      <trkpt lat="39.162893" lon="-0.445416">
        <ele>71.527126</ele>
        <time>2020-08-02T05:54:23.812Z</time>
      </trkpt>
      <trkpt lat="39.162863" lon="-0.445272">
        <ele>71.333798</ele>
        <time>2020-08-02T05:54:25.791Z</time>
      </trkpt>
      <trkpt lat="39.162785" lon="-0.445167">
        <ele>71.145260</ele>
        <time>2020-08-02T05:54:27.842Z</time>
      </trkpt>
      <trkpt lat="39.162688" lon="-0.445073">
        <ele>70.942369</ele>
        <time>2020-08-02T05:54:29.811Z</time>
      </trkpt>
      <trkpt lat="39.162580" lon="-0.445019">
        <ele>70.748672</ele>
        <time>2020-08-02T05:54:31.794Z</time>
      </trkpt>
      <trkpt lat="39.162488" lon="-0.444958">
        <ele>70.575687</ele>
        <time>2020-08-02T05:54:33.810Z</time>
      </trkpt>
      <trkpt lat="39.162388" lon="-0.444902">
        <ele>70.393382</ele>
        <time>2020-08-02T05:54:35.809Z</time>
      </trkpt>
      <trkpt lat="39.162263" lon="-0.444863">
        <ele>70.178325</ele>
        <time>2020-08-02T05:54:38.809Z</time>
      </trkpt>
      <trkpt lat="39.162164" lon="-0.444837">
        <ele>70.009377</ele>
        <time>2020-08-02T05:54:40.812Z</time>
      </trkpt>
      <trkpt lat="39.162043" lon="-0.444835">
        <ele>69.807021</ele>
        <time>2020-08-02T05:54:43.799Z</time>
      </trkpt>
      <trkpt lat="39.161944" lon="-0.444836">
        <ele>69.641466</ele>
        <time>2020-08-02T05:54:45.804Z</time>
      </trkpt>
      <trkpt lat="39.161836" lon="-0.444827">
        <ele>69.460489</ele>
        <time>2020-08-02T05:54:47.803Z</time>
      </trkpt>
      <trkpt lat="39.161697" lon="-0.444829">
        <ele>69.228035</ele>
        <time>2020-08-02T05:54:50.792Z</time>
      </trkpt>
      <trkpt lat="39.161582" lon="-0.444825">
        <ele>69.035660</ele>
        <time>2020-08-02T05:54:52.804Z</time>
      </trkpt>
      <trkpt lat="39.161475" lon="-0.444787">
        <ele>69.097116</ele>
        <time>2020-08-02T05:54:54.801Z</time>
      </trkpt>
      <trkpt lat="39.161380" lon="-0.444768">
        <ele>69.160004</ele>
        <time>2020-08-02T05:54:56.811Z</time>
      </trkpt>
      <trkpt lat="39.161291" lon="-0.444791">
        <ele>69.219381</ele>
        <time>2020-08-02T05:54:58.804Z</time>
      </trkpt>
      <trkpt lat="39.161149" lon="-0.444807">
        <ele>69.312625</ele>
        <time>2020-08-02T05:55:01.803Z</time>
      </trkpt>
      <trkpt lat="39.161020" lon="-0.444825">
        <ele>69.397503</ele>
        <time>2020-08-02T05:55:04.801Z</time>
      </trkpt>
      <trkpt lat="39.160923" lon="-0.444862">
        <ele>69.463674</ele>
        <time>2020-08-02T05:55:06.812Z</time>
      </trkpt>
      <trkpt lat="39.160806" lon="-0.444921">
        <ele>69.545852</ele>
        <time>2020-08-02T05:55:09.812Z</time>
      </trkpt>
      <trkpt lat="39.160717" lon="-0.444962">
        <ele>69.607675</ele>
        <time>2020-08-02T05:55:11.812Z</time>
      </trkpt>
      <trkpt lat="39.160618" lon="-0.444990">
        <ele>69.673975</ele>
        <time>2020-08-02T05:55:13.810Z</time>
      </trkpt>
      <trkpt lat="39.160511" lon="-0.445014">
        <ele>69.745021</ele>
        <time>2020-08-02T05:55:15.809Z</time>
      </trkpt>
      <trkpt lat="39.160409" lon="-0.445023">
        <ele>69.811900</ele>
        <time>2020-08-02T05:55:17.811Z</time>
      </trkpt>
      <trkpt lat="39.160312" lon="-0.445053">
        <ele>69.877153</ele>
        <time>2020-08-02T05:55:19.809Z</time>
      </trkpt>
      <trkpt lat="39.160173" lon="-0.445057">
        <ele>69.968103</ele>
        <time>2020-08-02T05:55:22.813Z</time>
      </trkpt>
      <trkpt lat="39.160087" lon="-0.445094">
        <ele>70.027408</ele>
        <time>2020-08-02T05:55:24.805Z</time>
      </trkpt>
      <trkpt lat="39.159970" lon="-0.445102">
        <ele>70.104052</ele>
        <time>2020-08-02T05:55:27.815Z</time>
      </trkpt>
      <trkpt lat="39.159830" lon="-0.445121">
        <ele>70.196139</ele>
        <time>2020-08-02T05:55:30.805Z</time>
      </trkpt>
      <trkpt lat="39.159698" lon="-0.445154">
        <ele>70.495354</ele>
        <time>2020-08-02T05:55:33.812Z</time>
      </trkpt>
      <trkpt lat="39.159571" lon="-0.445145">
        <ele>70.798680</ele>
        <time>2020-08-02T05:55:36.808Z</time>
      </trkpt>
      <trkpt lat="39.159475" lon="-0.445174">
        <ele>71.033817</ele>
        <time>2020-08-02T05:55:38.814Z</time>
      </trkpt>
      <trkpt lat="39.159341" lon="-0.445179">
        <ele>71.353513</ele>
        <time>2020-08-02T05:55:41.806Z</time>
      </trkpt>
      <trkpt lat="39.159251" lon="-0.445180">
        <ele>71.568153</ele>
        <time>2020-08-02T05:55:43.810Z</time>
      </trkpt>
      <trkpt lat="39.159158" lon="-0.445179">
        <ele>71.789947</ele>
        <time>2020-08-02T05:55:45.799Z</time>
      </trkpt>
      <trkpt lat="39.159059" lon="-0.445169">
        <ele>72.026765</ele>
        <time>2020-08-02T05:55:47.814Z</time>
      </trkpt>
      <trkpt lat="39.158943" lon="-0.445223">
        <ele>72.320871</ele>
        <time>2020-08-02T05:55:50.816Z</time>
      </trkpt>
      <trkpt lat="39.158838" lon="-0.445248">
        <ele>72.575506</ele>
        <time>2020-08-02T05:55:53.806Z</time>
      </trkpt>
      <trkpt lat="39.158716" lon="-0.445274">
        <ele>72.870397</ele>
        <time>2020-08-02T05:55:56.807Z</time>
      </trkpt>
      <trkpt lat="39.158627" lon="-0.445304">
        <ele>73.089774</ele>
        <time>2020-08-02T05:55:59.822Z</time>
      </trkpt>
      <trkpt lat="39.158517" lon="-0.445342">
        <ele>73.361350</ele>
        <time>2020-08-02T05:56:02.803Z</time>
      </trkpt>
      <trkpt lat="39.158393" lon="-0.445374">
        <ele>73.662927</ele>
        <time>2020-08-02T05:56:05.819Z</time>
      </trkpt>
      <trkpt lat="39.158273" lon="-0.445394">
        <ele>73.951482</ele>
        <time>2020-08-02T05:56:08.812Z</time>
      </trkpt>
      <trkpt lat="39.158171" lon="-0.445410">
        <ele>74.196524</ele>
        <time>2020-08-02T05:56:11.802Z</time>
      </trkpt>
      <trkpt lat="39.158056" lon="-0.445420">
        <ele>74.471398</ele>
        <time>2020-08-02T05:56:14.805Z</time>
      </trkpt>
      <trkpt lat="39.157963" lon="-0.445395">
        <ele>74.449614</ele>
        <time>2020-08-02T05:56:16.799Z</time>
      </trkpt>
      <trkpt lat="39.157853" lon="-0.445349">
        <ele>74.390190</ele>
        <time>2020-08-02T05:56:18.815Z</time>
      </trkpt>
      <trkpt lat="39.157749" lon="-0.445311">
        <ele>74.334643</ele>
        <time>2020-08-02T05:56:20.826Z</time>
      </trkpt>
      <trkpt lat="39.157653" lon="-0.445286">
        <ele>74.284315</ele>
        <time>2020-08-02T05:56:22.796Z</time>
      </trkpt>
      <trkpt lat="39.157559" lon="-0.445276">
        <ele>74.235847</ele>
        <time>2020-08-02T05:56:24.812Z</time>
      </trkpt>
      <trkpt lat="39.157469" lon="-0.445283">
        <ele>74.189513</ele>
        <time>2020-08-02T05:56:26.803Z</time>
      </trkpt>
      <trkpt lat="39.157377" lon="-0.445292">
        <ele>74.142101</ele>
        <time>2020-08-02T05:56:28.793Z</time>
      </trkpt>
      <trkpt lat="39.157250" lon="-0.445288">
        <ele>74.076819</ele>
        <time>2020-08-02T05:56:31.800Z</time>
      </trkpt>
      <trkpt lat="39.157122" lon="-0.445284">
        <ele>74.011023</ele>
        <time>2020-08-02T05:56:34.814Z</time>
      </trkpt>
      <trkpt lat="39.157007" lon="-0.445300">
        <ele>73.951584</ele>
        <time>2020-08-02T05:56:37.802Z</time>
      </trkpt>
      <trkpt lat="39.156888" lon="-0.445325">
        <ele>73.889627</ele>
        <time>2020-08-02T05:56:40.789Z</time>
      </trkpt>
      <trkpt lat="39.156767" lon="-0.445374">
        <ele>73.824454</ele>
        <time>2020-08-02T05:56:43.786Z</time>
      </trkpt>
      <trkpt lat="39.156654" lon="-0.445407">
        <ele>73.764916</ele>
        <time>2020-08-02T05:56:46.801Z</time>
      </trkpt>
      <trkpt lat="39.156542" lon="-0.445446">
        <ele>73.705300</ele>
        <time>2020-08-02T05:56:49.803Z</time>
      </trkpt>
      <trkpt lat="39.156425" lon="-0.445498">
        <ele>73.641706</ele>
        <time>2020-08-02T05:56:52.804Z</time>
      </trkpt>
      <trkpt lat="39.156317" lon="-0.445574">
        <ele>73.578482</ele>
        <time>2020-08-02T05:56:55.795Z</time>
      </trkpt>
      <trkpt lat="39.156236" lon="-0.445686">
        <ele>73.332339</ele>
        <time>2020-08-02T05:56:57.808Z</time>
      </trkpt>
      <trkpt lat="39.156109" lon="-0.445722">
        <ele>73.027191</ele>
        <time>2020-08-02T05:57:00.805Z</time>
      </trkpt>
      <trkpt lat="39.155997" lon="-0.445783">
        <ele>72.741879</ele>
        <time>2020-08-02T05:57:03.802Z</time>
      </trkpt>
      <trkpt lat="39.155880" lon="-0.445844">
        <ele>72.445723</ele>
        <time>2020-08-02T05:57:06.799Z</time>
      </trkpt>
      <trkpt lat="39.155785" lon="-0.445889">
        <ele>72.208221</ele>
        <time>2020-08-02T05:57:08.808Z</time>
      </trkpt>
      <trkpt lat="39.155671" lon="-0.445965">
        <ele>71.907062</ele>
        <time>2020-08-02T05:57:11.810Z</time>
      </trkpt>
      <trkpt lat="39.155560" lon="-0.446022">
        <ele>71.626684</ele>
        <time>2020-08-02T05:57:14.796Z</time>
      </trkpt>
      <trkpt lat="39.155456" lon="-0.446067">
        <ele>71.369254</ele>
        <time>2020-08-02T05:57:17.799Z</time>
      </trkpt>
      <trkpt lat="39.155352" lon="-0.446126">
        <ele>71.102623</ele>
        <time>2020-08-02T05:57:20.804Z</time>
      </trkpt>
      <trkpt lat="39.155245" lon="-0.446192">
        <ele>70.824279</ele>
        <time>2020-08-02T05:57:23.815Z</time>
      </trkpt>
      <trkpt lat="39.155155" lon="-0.446285">
        <ele>70.553635</ele>
        <time>2020-08-02T05:57:26.801Z</time>
      </trkpt>
      <trkpt lat="39.155045" lon="-0.446315">
        <ele>70.289786</ele>
        <time>2020-08-02T05:57:29.795Z</time>
      </trkpt>
      <trkpt lat="39.154959" lon="-0.446236">
        <ele>70.042001</ele>
        <time>2020-08-02T05:57:32.802Z</time>
      </trkpt>
      <trkpt lat="39.154921" lon="-0.446108">
        <ele>69.792587</ele>
        <time>2020-08-02T05:57:35.790Z</time>
      </trkpt>
      <trkpt lat="39.154867" lon="-0.446003">
        <ele>69.563310</ele>
        <time>2020-08-02T05:57:38.793Z</time>
      </trkpt>
      <trkpt lat="39.154784" lon="-0.445911">
        <ele>69.330565</ele>
        <time>2020-08-02T05:57:41.807Z</time>
      </trkpt>
      <trkpt lat="39.154687" lon="-0.445807">
        <ele>69.204478</ele>
        <time>2020-08-02T05:57:44.814Z</time>
      </trkpt>
      <trkpt lat="39.154590" lon="-0.445724">
        <ele>69.088122</ele>
        <time>2020-08-02T05:57:47.809Z</time>
      </trkpt>
      <trkpt lat="39.154502" lon="-0.445643">
        <ele>68.980056</ele>
        <time>2020-08-02T05:57:50.798Z</time>
      </trkpt>
      <trkpt lat="39.154398" lon="-0.445531">
        <ele>68.844625</ele>
        <time>2020-08-02T05:57:53.809Z</time>
      </trkpt>
      <trkpt lat="39.154333" lon="-0.445445">
        <ele>68.751543</ele>
        <time>2020-08-02T05:57:55.795Z</time>
      </trkpt>
      <trkpt lat="39.154259" lon="-0.445376">
        <ele>68.660268</ele>
        <time>2020-08-02T05:57:57.804Z</time>
      </trkpt>
      <trkpt lat="39.154164" lon="-0.445395">
        <ele>68.564178</ele>
        <time>2020-08-02T05:58:00.805Z</time>
      </trkpt>
      <trkpt lat="39.154112" lon="-0.445512">
        <ele>68.459654</ele>
        <time>2020-08-02T05:58:03.801Z</time>
      </trkpt>
      <trkpt lat="39.154060" lon="-0.445625">
        <ele>68.357808</ele>
        <time>2020-08-02T05:58:06.799Z</time>
      </trkpt>
      <trkpt lat="39.154006" lon="-0.445767">
        <ele>68.235223</ele>
        <time>2020-08-02T05:58:09.808Z</time>
      </trkpt>
      <trkpt lat="39.153930" lon="-0.445897">
        <ele>68.109035</ele>
        <time>2020-08-02T05:58:12.814Z</time>
      </trkpt>
      <trkpt lat="39.153845" lon="-0.446012">
        <ele>67.985896</ele>
        <time>2020-08-02T05:58:15.788Z</time>
      </trkpt>
      <trkpt lat="39.153736" lon="-0.446087">
        <ele>67.862409</ele>
        <time>2020-08-02T05:58:18.806Z</time>
      </trkpt>
      <trkpt lat="39.153625" lon="-0.446155">
        <ele>67.739578</ele>
        <time>2020-08-02T05:58:21.811Z</time>
      </trkpt>
      <trkpt lat="39.153526" lon="-0.446254">
        <ele>67.614358</ele>
        <time>2020-08-02T05:58:24.815Z</time>
      </trkpt>
      <trkpt lat="39.153446" lon="-0.446310">
        <ele>67.550212</ele>
        <time>2020-08-02T05:58:26.806Z</time>
      </trkpt>
      <trkpt lat="39.153346" lon="-0.446359">
        <ele>67.548524</ele>
        <time>2020-08-02T05:58:28.805Z</time>
      </trkpt>
      <trkpt lat="39.153215" lon="-0.446321">
        <ele>67.546405</ele>
        <time>2020-08-02T05:58:31.799Z</time>
      </trkpt>
      <trkpt lat="39.153130" lon="-0.446239">
        <ele>67.544730</ele>
        <time>2020-08-02T05:58:33.793Z</time>
      </trkpt>
      <trkpt lat="39.153049" lon="-0.446099">
        <ele>67.542592</ele>
        <time>2020-08-02T05:58:36.801Z</time>
      </trkpt>
      <trkpt lat="39.153021" lon="-0.445951">
        <ele>67.540728</ele>
        <time>2020-08-02T05:58:38.803Z</time>
      </trkpt>
      <trkpt lat="39.152955" lon="-0.445871">
        <ele>67.539299</ele>
        <time>2020-08-02T05:58:40.800Z</time>
      </trkpt>
      <trkpt lat="39.152882" lon="-0.445798">
        <ele>67.537841</ele>
        <time>2020-08-02T05:58:42.808Z</time>
      </trkpt>
      <trkpt lat="39.152735" lon="-0.445816">
        <ele>67.535510</ele>
        <time>2020-08-02T05:58:45.807Z</time>
      </trkpt>
      <trkpt lat="39.152640" lon="-0.445823">
        <ele>67.534009</ele>
        <time>2020-08-02T05:58:47.795Z</time>
      </trkpt>
      <trkpt lat="39.152557" lon="-0.445775">
        <ele>67.532573</ele>
        <time>2020-08-02T05:58:49.804Z</time>
      </trkpt>
      <trkpt lat="39.152473" lon="-0.445653">
        <ele>67.530577</ele>
        <time>2020-08-02T05:58:51.789Z</time>
      </trkpt>
      <trkpt lat="39.152386" lon="-0.445597">
        <ele>67.529042</ele>
        <time>2020-08-02T05:58:53.800Z</time>
      </trkpt>
      <trkpt lat="39.152315" lon="-0.445511">
        <ele>67.527505</ele>
        <time>2020-08-02T05:58:55.810Z</time>
      </trkpt>
      <trkpt lat="39.152219" lon="-0.445412">
        <ele>67.525565</ele>
        <time>2020-08-02T05:58:57.796Z</time>
      </trkpt>
      <trkpt lat="39.152144" lon="-0.445306">
        <ele>67.523809</ele>
        <time>2020-08-02T05:58:59.793Z</time>
      </trkpt>
      <trkpt lat="39.152049" lon="-0.445247">
        <ele>67.504923</ele>
        <time>2020-08-02T05:59:02.808Z</time>
      </trkpt>
      <trkpt lat="39.151965" lon="-0.445182">
        <ele>67.267909</ele>
        <time>2020-08-02T05:59:04.801Z</time>
      </trkpt>
      <trkpt lat="39.151859" lon="-0.445125">
        <ele>66.990046</ele>
        <time>2020-08-02T05:59:06.800Z</time>
      </trkpt>
      <trkpt lat="39.151788" lon="-0.445046">
        <ele>66.763160</ele>
        <time>2020-08-02T05:59:08.811Z</time>
      </trkpt>
      <trkpt lat="39.151709" lon="-0.444928">
        <ele>66.470676</ele>
        <time>2020-08-02T05:59:10.813Z</time>
      </trkpt>
      <trkpt lat="39.151603" lon="-0.444829">
        <ele>66.154019</ele>
        <time>2020-08-02T05:59:13.815Z</time>
      </trkpt>
      <trkpt lat="39.151505" lon="-0.444726">
        <ele>65.848137</ele>
        <time>2020-08-02T05:59:16.804Z</time>
      </trkpt>
      <trkpt lat="39.151423" lon="-0.444629">
        <ele>65.578915</ele>
        <time>2020-08-02T05:59:18.806Z</time>
      </trkpt>
      <trkpt lat="39.151346" lon="-0.444569">
        <ele>65.361248</ele>
        <time>2020-08-02T05:59:20.810Z</time>
      </trkpt>
      <trkpt lat="39.151276" lon="-0.444478">
        <ele>65.120763</ele>
        <time>2020-08-02T05:59:22.810Z</time>
      </trkpt>
      <trkpt lat="39.151195" lon="-0.444426">
        <ele>64.901847</ele>
        <time>2020-08-02T05:59:24.808Z</time>
      </trkpt>
      <trkpt lat="39.151077" lon="-0.444386">
        <ele>64.606656</ele>
        <time>2020-08-02T05:59:27.802Z</time>
      </trkpt>
      <trkpt lat="39.151006" lon="-0.444286">
        <ele>64.352274</ele>
        <time>2020-08-02T05:59:29.807Z</time>
      </trkpt>
      <trkpt lat="39.150898" lon="-0.444178">
        <ele>64.021614</ele>
        <time>2020-08-02T05:59:32.803Z</time>
      </trkpt>
      <trkpt lat="39.150821" lon="-0.444097">
        <ele>63.781193</ele>
        <time>2020-08-02T05:59:35.793Z</time>
      </trkpt>
      <trkpt lat="39.150751" lon="-0.443947">
        <ele>63.452730</ele>
        <time>2020-08-02T05:59:38.801Z</time>
      </trkpt>
      <trkpt lat="39.150693" lon="-0.443847">
        <ele>63.218435</ele>
        <time>2020-08-02T05:59:40.812Z</time>
      </trkpt>
      <trkpt lat="39.150628" lon="-0.443721">
        <ele>62.470619</ele>
        <time>2020-08-02T05:59:43.800Z</time>
      </trkpt>
      <trkpt lat="39.150547" lon="-0.443597">
        <ele>61.568715</ele>
        <time>2020-08-02T05:59:46.825Z</time>
      </trkpt>
      <trkpt lat="39.150477" lon="-0.443503">
        <ele>60.843748</ele>
        <time>2020-08-02T05:59:48.808Z</time>
      </trkpt>
      <trkpt lat="39.150448" lon="-0.443387">
        <ele>60.165750</ele>
        <time>2020-08-02T05:59:51.814Z</time>
      </trkpt>
      <trkpt lat="39.150389" lon="-0.443288">
        <ele>59.471184</ele>
        <time>2020-08-02T05:59:53.812Z</time>
      </trkpt>
      <trkpt lat="39.150319" lon="-0.443174">
        <ele>58.662288</ele>
        <time>2020-08-02T05:59:56.798Z</time>
      </trkpt>
      <trkpt lat="39.150275" lon="-0.443058">
        <ele>57.943937</ele>
        <time>2020-08-02T05:59:58.803Z</time>
      </trkpt>
      <trkpt lat="39.150215" lon="-0.442960">
        <ele>57.249350</ele>
        <time>2020-08-02T06:00:00.814Z</time>
      </trkpt>
      <trkpt lat="39.150165" lon="-0.442824">
        <ele>56.412080</ele>
        <time>2020-08-02T06:00:02.811Z</time>
      </trkpt>
      <trkpt lat="39.150100" lon="-0.442734">
        <ele>55.727924</ele>
        <time>2020-08-02T06:00:04.815Z</time>
      </trkpt>
      <trkpt lat="39.150049" lon="-0.442623">
        <ele>55.010201</ele>
        <time>2020-08-02T06:00:06.799Z</time>
      </trkpt>
      <trkpt lat="39.149974" lon="-0.442504">
        <ele>54.157162</ele>
        <time>2020-08-02T06:00:09.806Z</time>
      </trkpt>
      <trkpt lat="39.149936" lon="-0.442381">
        <ele>53.420623</ele>
        <time>2020-08-02T06:00:11.808Z</time>
      </trkpt>
      <trkpt lat="39.149859" lon="-0.442284">
        <ele>52.648442</ele>
        <time>2020-08-02T06:00:13.800Z</time>
      </trkpt>
      <trkpt lat="39.149804" lon="-0.442164">
        <ele>51.873017</ele>
        <time>2020-08-02T06:00:15.803Z</time>
      </trkpt>
      <trkpt lat="39.149769" lon="-0.442043">
        <ele>51.154602</ele>
        <time>2020-08-02T06:00:17.809Z</time>
      </trkpt>
      <trkpt lat="39.149709" lon="-0.441942">
        <ele>50.446837</ele>
        <time>2020-08-02T06:00:19.810Z</time>
      </trkpt>
      <trkpt lat="39.149655" lon="-0.441804">
        <ele>50.724757</ele>
        <time>2020-08-02T06:00:21.810Z</time>
      </trkpt>
      <trkpt lat="39.149607" lon="-0.441699">
        <ele>51.179112</ele>
        <time>2020-08-02T06:00:23.809Z</time>
      </trkpt>
      <trkpt lat="39.149566" lon="-0.441581">
        <ele>51.661115</ele>
        <time>2020-08-02T06:00:25.813Z</time>
      </trkpt>
      <trkpt lat="39.149491" lon="-0.441462">
        <ele>52.232736</ele>
        <time>2020-08-02T06:00:27.805Z</time>
      </trkpt>
      <trkpt lat="39.149425" lon="-0.441355">
        <ele>52.742386</ele>
        <time>2020-08-02T06:00:29.804Z</time>
      </trkpt>
      <trkpt lat="39.149346" lon="-0.441264">
        <ele>53.251578</ele>
        <time>2020-08-02T06:00:31.785Z</time>
      </trkpt>
      <trkpt lat="39.149227" lon="-0.441164">
        <ele>53.934338</ele>
        <time>2020-08-02T06:00:33.825Z</time>
      </trkpt>
      <trkpt lat="39.149172" lon="-0.441063">
        <ele>54.394391</ele>
        <time>2020-08-02T06:00:35.788Z</time>
      </trkpt>
      <trkpt lat="39.149123" lon="-0.440963">
        <ele>54.835342</ele>
        <time>2020-08-02T06:00:37.808Z</time>
      </trkpt>
      <trkpt lat="39.149056" lon="-0.440875">
        <ele>55.295052</ele>
        <time>2020-08-02T06:00:38.813Z</time>
      </trkpt>
      <trkpt lat="39.149003" lon="-0.440763">
        <ele>55.784150</ele>
        <time>2020-08-02T06:00:40.801Z</time>
      </trkpt>
      <trkpt lat="39.148971" lon="-0.440609">
        <ele>56.378474</ele>
        <time>2020-08-02T06:00:42.809Z</time>
      </trkpt>
      <trkpt lat="39.148929" lon="-0.440500">
        <ele>56.832191</ele>
        <time>2020-08-02T06:00:44.825Z</time>
      </trkpt>
      <trkpt lat="39.148850" lon="-0.440428">
        <ele>57.297208</ele>
        <time>2020-08-02T06:00:46.824Z</time>
      </trkpt>
      <trkpt lat="39.148758" lon="-0.440345">
        <ele>57.836929</ele>
        <time>2020-08-02T06:00:48.812Z</time>
      </trkpt>
      <trkpt lat="39.148681" lon="-0.440240">
        <ele>58.375632</ele>
        <time>2020-08-02T06:00:50.797Z</time>
      </trkpt>
      <trkpt lat="39.148625" lon="-0.440107">
        <ele>58.933397</ele>
        <time>2020-08-02T06:00:52.805Z</time>
      </trkpt>
      <trkpt lat="39.148596" lon="-0.439995">
        <ele>59.264264</ele>
        <time>2020-08-02T06:00:54.816Z</time>
      </trkpt>
      <trkpt lat="39.148454" lon="-0.439991">
        <ele>59.777468</ele>
        <time>2020-08-02T06:00:56.802Z</time>
      </trkpt>
      <trkpt lat="39.148375" lon="-0.440048">
        <ele>60.104562</ele>
        <time>2020-08-02T06:00:59.785Z</time>
      </trkpt>
      <trkpt lat="39.148296" lon="-0.440134">
        <ele>60.478129</ele>
        <time>2020-08-02T06:01:03.801Z</time>
      </trkpt>
      <trkpt lat="39.148185" lon="-0.440234">
        <ele>60.967391</ele>
        <time>2020-08-02T06:01:06.806Z</time>
      </trkpt>
      <trkpt lat="39.148087" lon="-0.440323">
        <ele>61.400497</ele>
        <time>2020-08-02T06:01:09.801Z</time>
      </trkpt>
      <trkpt lat="39.148005" lon="-0.440421">
        <ele>61.804472</ele>
        <time>2020-08-02T06:01:12.816Z</time>
      </trkpt>
      <trkpt lat="39.147988" lon="-0.440575">
        <ele>62.240351</ele>
        <time>2020-08-02T06:01:16.784Z</time>
      </trkpt>
      <trkpt lat="39.148004" lon="-0.440721">
        <ele>62.653528</ele>
        <time>2020-08-02T06:01:20.804Z</time>
      </trkpt>
      <trkpt lat="39.147996" lon="-0.440844">
        <ele>62.999401</ele>
        <time>2020-08-02T06:01:23.804Z</time>
      </trkpt>
      <trkpt lat="39.148001" lon="-0.441007">
        <ele>63.456507</ele>
        <time>2020-08-02T06:01:26.804Z</time>
      </trkpt>
      <trkpt lat="39.147959" lon="-0.441174">
        <ele>63.948456</ele>
        <time>2020-08-02T06:01:29.798Z</time>
      </trkpt>
      <trkpt lat="39.147870" lon="-0.441292">
        <ele>64.409699</ele>
        <time>2020-08-02T06:01:32.808Z</time>
      </trkpt>
      <trkpt lat="39.147761" lon="-0.441332">
        <ele>64.819182</ele>
        <time>2020-08-02T06:01:34.806Z</time>
      </trkpt>
      <trkpt lat="39.147645" lon="-0.441346">
        <ele>65.240150</ele>
        <time>2020-08-02T06:01:36.812Z</time>
      </trkpt>
      <trkpt lat="39.147545" lon="-0.441294">
        <ele>65.336071</ele>
        <time>2020-08-02T06:01:38.810Z</time>
      </trkpt>
      <trkpt lat="39.147467" lon="-0.441190">
        <ele>65.192187</ele>
        <time>2020-08-02T06:01:40.810Z</time>
      </trkpt>
      <trkpt lat="39.147414" lon="-0.441078">
        <ele>65.061703</ele>
        <time>2020-08-02T06:01:42.805Z</time>
      </trkpt>
      <trkpt lat="39.147322" lon="-0.440972">
        <ele>64.903487</ele>
        <time>2020-08-02T06:01:44.801Z</time>
      </trkpt>
      <trkpt lat="39.147224" lon="-0.440909">
        <ele>64.763062</ele>
        <time>2020-08-02T06:01:46.808Z</time>
      </trkpt>
      <trkpt lat="39.147123" lon="-0.440875">
        <ele>64.629201</ele>
        <time>2020-08-02T06:01:48.799Z</time>
      </trkpt>
      <trkpt lat="39.147038" lon="-0.440811">
        <ele>64.502976</ele>
        <time>2020-08-02T06:01:50.802Z</time>
      </trkpt>
      <trkpt lat="39.146956" lon="-0.440713">
        <ele>64.359600</ele>
        <time>2020-08-02T06:01:52.806Z</time>
      </trkpt>
      <trkpt lat="39.146864" lon="-0.440661">
        <ele>64.230785</ele>
        <time>2020-08-02T06:01:54.820Z</time>
      </trkpt>
      <trkpt lat="39.146749" lon="-0.440616">
        <ele>64.076670</ele>
        <time>2020-08-02T06:01:57.806Z</time>
      </trkpt>
      <trkpt lat="39.146654" lon="-0.440537">
        <ele>63.931707</ele>
        <time>2020-08-02T06:02:00.799Z</time>
      </trkpt>
      <trkpt lat="39.146574" lon="-0.440475">
        <ele>63.812012</ele>
        <time>2020-08-02T06:02:02.814Z</time>
      </trkpt>
      <trkpt lat="39.146474" lon="-0.440380">
        <ele>63.652728</ele>
        <time>2020-08-02T06:02:05.802Z</time>
      </trkpt>
      <trkpt lat="39.146364" lon="-0.440297">
        <ele>63.489289</ele>
        <time>2020-08-02T06:02:08.804Z</time>
      </trkpt>
      <trkpt lat="39.146259" lon="-0.440122">
        <ele>63.269241</ele>
        <time>2020-08-02T06:02:11.804Z</time>
      </trkpt>
      <trkpt lat="39.146158" lon="-0.440016">
        <ele>63.119057</ele>
        <time>2020-08-02T06:02:14.809Z</time>
      </trkpt>
      <trkpt lat="39.146058" lon="-0.440027">
        <ele>63.503508</ele>
        <time>2020-08-02T06:02:17.809Z</time>
      </trkpt>
      <trkpt lat="39.145979" lon="-0.439965">
        <ele>63.857771</ele>
        <time>2020-08-02T06:02:19.806Z</time>
      </trkpt>
      <trkpt lat="39.145919" lon="-0.439851">
        <ele>64.267064</ele>
        <time>2020-08-02T06:02:21.807Z</time>
      </trkpt>
      <trkpt lat="39.145826" lon="-0.439729">
        <ele>64.775267</ele>
        <time>2020-08-02T06:02:24.807Z</time>
      </trkpt>
      <trkpt lat="39.145725" lon="-0.439635">
        <ele>65.252412</ele>
        <time>2020-08-02T06:02:27.806Z</time>
      </trkpt>
      <trkpt lat="39.145624" lon="-0.439574">
        <ele>65.679640</ele>
        <time>2020-08-02T06:02:30.788Z</time>
      </trkpt>
      <trkpt lat="39.145531" lon="-0.439510">
        <ele>66.083447</ele>
        <time>2020-08-02T06:02:33.793Z</time>
      </trkpt>
      <trkpt lat="39.145445" lon="-0.439445">
        <ele>66.465302</ele>
        <time>2020-08-02T06:02:42.802Z</time>
      </trkpt>
      <trkpt lat="39.145383" lon="-0.439355">
        <ele>66.822923</ele>
        <time>2020-08-02T06:02:52.780Z</time>
      </trkpt>
      <trkpt lat="39.145308" lon="-0.439266">
        <ele>67.213367</ele>
        <time>2020-08-02T06:02:55.807Z</time>
      </trkpt>
      <trkpt lat="39.145235" lon="-0.439168">
        <ele>67.617046</ele>
        <time>2020-08-02T06:02:58.809Z</time>
      </trkpt>
      <trkpt lat="39.145181" lon="-0.439075">
        <ele>67.962186</ele>
        <time>2020-08-02T06:03:01.801Z</time>
      </trkpt>
      <trkpt lat="39.145105" lon="-0.438946">
        <ele>68.443458</ele>
        <time>2020-08-02T06:03:04.808Z</time>
      </trkpt>
      <trkpt lat="39.145042" lon="-0.438836">
        <ele>68.849698</ele>
        <time>2020-08-02T06:03:07.792Z</time>
      </trkpt>
      <trkpt lat="39.144966" lon="-0.438723">
        <ele>69.294052</ele>
        <time>2020-08-02T06:03:10.818Z</time>
      </trkpt>
      <trkpt lat="39.144875" lon="-0.438642">
        <ele>69.717628</ele>
        <time>2020-08-02T06:03:13.814Z</time>
      </trkpt>
      <trkpt lat="39.144796" lon="-0.438540">
        <ele>70.010405</ele>
        <time>2020-08-02T06:03:15.805Z</time>
      </trkpt>
      <trkpt lat="39.144737" lon="-0.438432">
        <ele>70.047341</ele>
        <time>2020-08-02T06:03:17.806Z</time>
      </trkpt>
      <trkpt lat="39.144681" lon="-0.438293">
        <ele>70.091135</ele>
        <time>2020-08-02T06:03:19.803Z</time>
      </trkpt>
      <trkpt lat="39.144595" lon="-0.438194">
        <ele>70.132698</ele>
        <time>2020-08-02T06:03:21.802Z</time>
      </trkpt>
      <trkpt lat="39.144513" lon="-0.438079">
        <ele>70.176375</ele>
        <time>2020-08-02T06:03:24.809Z</time>
      </trkpt>
      <trkpt lat="39.144466" lon="-0.437959">
        <ele>70.213963</ele>
        <time>2020-08-02T06:03:26.811Z</time>
      </trkpt>
      <trkpt lat="39.144406" lon="-0.437848">
        <ele>70.251792</ele>
        <time>2020-08-02T06:03:28.810Z</time>
      </trkpt>
      <trkpt lat="39.144282" lon="-0.437816">
        <ele>70.297382</ele>
        <time>2020-08-02T06:03:31.793Z</time>
      </trkpt>
      <trkpt lat="39.144195" lon="-0.437865">
        <ele>70.331608</ele>
        <time>2020-08-02T06:03:32.803Z</time>
      </trkpt>
      <trkpt lat="39.144077" lon="-0.437917">
        <ele>70.376564</ele>
        <time>2020-08-02T06:03:34.808Z</time>
      </trkpt>
      <trkpt lat="39.143950" lon="-0.437961">
        <ele>70.423973</ele>
        <time>2020-08-02T06:03:36.802Z</time>
      </trkpt>
      <trkpt lat="39.143826" lon="-0.438003">
        <ele>70.470193</ele>
        <time>2020-08-02T06:03:38.803Z</time>
      </trkpt>
      <trkpt lat="39.143700" lon="-0.438048">
        <ele>70.517327</ele>
        <time>2020-08-02T06:03:40.806Z</time>
      </trkpt>
      <trkpt lat="39.143563" lon="-0.438066">
        <ele>70.566973</ele>
        <time>2020-08-02T06:03:42.818Z</time>
      </trkpt>
      <trkpt lat="39.143429" lon="-0.438103">
        <ele>70.616377</ele>
        <time>2020-08-02T06:03:44.805Z</time>
      </trkpt>
      <trkpt lat="39.143323" lon="-0.438139">
        <ele>70.693383</ele>
        <time>2020-08-02T06:03:46.809Z</time>
      </trkpt>
      <trkpt lat="39.143219" lon="-0.438166">
        <ele>70.860397</ele>
        <time>2020-08-02T06:03:48.796Z</time>
      </trkpt>
      <trkpt lat="39.143091" lon="-0.438221">
        <ele>71.072804</ele>
        <time>2020-08-02T06:03:50.810Z</time>
      </trkpt>
      <trkpt lat="39.142967" lon="-0.438234">
        <ele>71.268662</ele>
        <time>2020-08-02T06:03:52.804Z</time>
      </trkpt>
      <trkpt lat="39.142858" lon="-0.438296">
        <ele>71.456218</ele>
        <time>2020-08-02T06:03:54.799Z</time>
      </trkpt>
      <trkpt lat="39.142742" lon="-0.438343">
        <ele>71.647643</ele>
        <time>2020-08-02T06:03:56.812Z</time>
      </trkpt>
      <trkpt lat="39.142650" lon="-0.438375">
        <ele>71.797657</ele>
        <time>2020-08-02T06:03:58.806Z</time>
      </trkpt>
      <trkpt lat="39.142531" lon="-0.438434">
        <ele>71.998373</ele>
        <time>2020-08-02T06:04:01.804Z</time>
      </trkpt>
      <trkpt lat="39.142429" lon="-0.438454">
        <ele>72.160799</ele>
        <time>2020-08-02T06:04:03.808Z</time>
      </trkpt>
      <trkpt lat="39.142324" lon="-0.438493">
        <ele>72.332823</ele>
        <time>2020-08-02T06:04:05.806Z</time>
      </trkpt>
      <trkpt lat="39.142215" lon="-0.438526">
        <ele>72.509090</ele>
        <time>2020-08-02T06:04:07.809Z</time>
      </trkpt>
      <trkpt lat="39.142098" lon="-0.438594">
        <ele>72.711133</ele>
        <time>2020-08-02T06:04:09.790Z</time>
      </trkpt>
      <trkpt lat="39.142014" lon="-0.438665">
        <ele>72.869257</ele>
        <time>2020-08-02T06:04:11.807Z</time>
      </trkpt>
      <trkpt lat="39.141937" lon="-0.438755">
        <ele>73.032875</ele>
        <time>2020-08-02T06:04:13.801Z</time>
      </trkpt>
      <trkpt lat="39.141851" lon="-0.438830">
        <ele>73.196328</ele>
        <time>2020-08-02T06:04:15.805Z</time>
      </trkpt>
      <trkpt lat="39.141778" lon="-0.438929">
        <ele>73.363120</ele>
        <time>2020-08-02T06:04:17.810Z</time>
      </trkpt>
      <trkpt lat="39.141700" lon="-0.439029">
        <ele>73.399139</ele>
        <time>2020-08-02T06:04:19.793Z</time>
      </trkpt>
      <trkpt lat="39.141632" lon="-0.439128">
        <ele>73.190951</ele>
        <time>2020-08-02T06:04:21.800Z</time>
      </trkpt>
      <trkpt lat="39.141556" lon="-0.439193">
        <ele>73.005832</ele>
        <time>2020-08-02T06:04:23.813Z</time>
      </trkpt>
      <trkpt lat="39.141480" lon="-0.439324">
        <ele>72.748286</ele>
        <time>2020-08-02T06:04:26.813Z</time>
      </trkpt>
      <trkpt lat="39.141399" lon="-0.439403">
        <ele>72.542131</ele>
        <time>2020-08-02T06:04:28.804Z</time>
      </trkpt>
      <trkpt lat="39.141315" lon="-0.439475">
        <ele>72.337388</ele>
        <time>2020-08-02T06:04:30.799Z</time>
      </trkpt>
      <trkpt lat="39.141234" lon="-0.439570">
        <ele>72.115127</ele>
        <time>2020-08-02T06:04:32.789Z</time>
      </trkpt>
      <trkpt lat="39.141154" lon="-0.439689">
        <ele>71.867204</ele>
        <time>2020-08-02T06:04:34.803Z</time>
      </trkpt>
      <trkpt lat="39.141015" lon="-0.439819">
        <ele>71.518649</ele>
        <time>2020-08-02T06:04:37.802Z</time>
      </trkpt>
      <trkpt lat="39.140935" lon="-0.439892">
        <ele>71.319710</ele>
        <time>2020-08-02T06:04:39.802Z</time>
      </trkpt>
      <trkpt lat="39.140815" lon="-0.440002">
        <ele>71.020847</ele>
        <time>2020-08-02T06:04:42.795Z</time>
      </trkpt>
      <trkpt lat="39.140751" lon="-0.440141">
        <ele>70.766363</ele>
        <time>2020-08-02T06:04:45.800Z</time>
      </trkpt>
      <trkpt lat="39.140620" lon="-0.440178">
        <ele>70.494152</ele>
        <time>2020-08-02T06:04:48.788Z</time>
      </trkpt>
      <trkpt lat="39.140583" lon="-0.440336">
        <ele>70.234319</ele>
        <time>2020-08-02T06:04:50.801Z</time>
      </trkpt>
      <trkpt lat="39.140512" lon="-0.440410">
        <ele>70.049004</ele>
        <time>2020-08-02T06:04:52.790Z</time>
      </trkpt>
      <trkpt lat="39.140417" lon="-0.440498">
        <ele>69.807322</ele>
        <time>2020-08-02T06:04:55.810Z</time>
      </trkpt>
      <trkpt lat="39.140323" lon="-0.440566">
        <ele>69.521836</ele>
        <time>2020-08-02T06:04:57.811Z</time>
      </trkpt>
      <trkpt lat="39.140234" lon="-0.440635">
        <ele>69.246769</ele>
        <time>2020-08-02T06:04:59.801Z</time>
      </trkpt>
      <trkpt lat="39.140135" lon="-0.440696">
        <ele>68.956147</ele>
        <time>2020-08-02T06:05:01.802Z</time>
      </trkpt>
      <trkpt lat="39.140037" lon="-0.440736">
        <ele>68.683881</ele>
        <time>2020-08-02T06:05:03.808Z</time>
      </trkpt>
      <trkpt lat="39.139927" lon="-0.440807">
        <ele>68.358058</ele>
        <time>2020-08-02T06:05:05.800Z</time>
      </trkpt>
      <trkpt lat="39.139815" lon="-0.440897">
        <ele>68.008507</ele>
        <time>2020-08-02T06:05:07.796Z</time>
      </trkpt>
      <trkpt lat="39.139719" lon="-0.440958">
        <ele>67.725033</ele>
        <time>2020-08-02T06:05:09.809Z</time>
      </trkpt>
      <trkpt lat="39.139637" lon="-0.441028">
        <ele>67.464550</ele>
        <time>2020-08-02T06:05:11.806Z</time>
      </trkpt>
      <trkpt lat="39.139550" lon="-0.441101">
        <ele>67.189615</ele>
        <time>2020-08-02T06:05:13.801Z</time>
      </trkpt>
      <trkpt lat="39.139445" lon="-0.441203">
        <ele>66.841400</ele>
        <time>2020-08-02T06:05:16.800Z</time>
      </trkpt>
      <trkpt lat="39.139334" lon="-0.441244">
        <ele>66.535571</ele>
        <time>2020-08-02T06:05:18.802Z</time>
      </trkpt>
      <trkpt lat="39.139234" lon="-0.441289">
        <ele>66.255035</ele>
        <time>2020-08-02T06:05:20.810Z</time>
      </trkpt>
      <trkpt lat="39.139110" lon="-0.441378">
        <ele>65.879139</ele>
        <time>2020-08-02T06:05:23.804Z</time>
      </trkpt>
      <trkpt lat="39.139000" lon="-0.441429">
        <ele>65.569520</ele>
        <time>2020-08-02T06:05:25.808Z</time>
      </trkpt>
      <trkpt lat="39.138890" lon="-0.441476">
        <ele>65.262584</ele>
        <time>2020-08-02T06:05:27.797Z</time>
      </trkpt>
      <trkpt lat="39.138823" lon="-0.441570">
        <ele>65.078853</ele>
        <time>2020-08-02T06:05:29.800Z</time>
      </trkpt>
      <trkpt lat="39.138738" lon="-0.441641">
        <ele>65.155079</ele>
        <time>2020-08-02T06:05:31.794Z</time>
      </trkpt>
      <trkpt lat="39.138652" lon="-0.441721">
        <ele>65.234893</ele>
        <time>2020-08-02T06:05:33.805Z</time>
      </trkpt>
      <trkpt lat="39.138554" lon="-0.441773">
        <ele>65.314653</ele>
        <time>2020-08-02T06:05:35.812Z</time>
      </trkpt>
      <trkpt lat="39.138442" lon="-0.441826">
        <ele>65.404445</ele>
        <time>2020-08-02T06:05:37.805Z</time>
      </trkpt>
      <trkpt lat="39.138330" lon="-0.441855">
        <ele>65.490422</ele>
        <time>2020-08-02T06:05:39.809Z</time>
      </trkpt>
      <trkpt lat="39.138236" lon="-0.441911">
        <ele>65.568356</ele>
        <time>2020-08-02T06:05:41.811Z</time>
      </trkpt>
      <trkpt lat="39.138137" lon="-0.441959">
        <ele>65.647961</ele>
        <time>2020-08-02T06:05:43.792Z</time>
      </trkpt>
      <trkpt lat="39.138039" lon="-0.442003">
        <ele>65.726062</ele>
        <time>2020-08-02T06:05:45.812Z</time>
      </trkpt>
      <trkpt lat="39.137954" lon="-0.442073">
        <ele>65.801972</ele>
        <time>2020-08-02T06:05:47.808Z</time>
      </trkpt>
      <trkpt lat="39.137872" lon="-0.442142">
        <ele>65.875669</ele>
        <time>2020-08-02T06:05:49.781Z</time>
      </trkpt>
      <trkpt lat="39.137774" lon="-0.442210">
        <ele>65.959429</ele>
        <time>2020-08-02T06:05:51.808Z</time>
      </trkpt>
      <trkpt lat="39.137663" lon="-0.442255">
        <ele>66.047004</ele>
        <time>2020-08-02T06:05:53.806Z</time>
      </trkpt>
      <trkpt lat="39.137565" lon="-0.442306">
        <ele>66.126543</ele>
        <time>2020-08-02T06:05:55.795Z</time>
      </trkpt>
      <trkpt lat="39.137460" lon="-0.442355">
        <ele>66.210586</ele>
        <time>2020-08-02T06:05:57.820Z</time>
      </trkpt>
      <trkpt lat="39.137383" lon="-0.442426">
        <ele>66.281834</ele>
        <time>2020-08-02T06:05:59.808Z</time>
      </trkpt>
      <trkpt lat="39.137284" lon="-0.442479">
        <ele>66.362512</ele>
        <time>2020-08-02T06:06:01.801Z</time>
      </trkpt>
      <trkpt lat="39.137195" lon="-0.442616">
        <ele>66.492207</ele>
        <time>2020-08-02T06:06:04.802Z</time>
      </trkpt>
      <trkpt lat="39.137108" lon="-0.442681">
        <ele>66.605059</ele>
        <time>2020-08-02T06:06:06.798Z</time>
      </trkpt>
      <trkpt lat="39.137007" lon="-0.442731">
        <ele>66.726483</ele>
        <time>2020-08-02T06:06:08.817Z</time>
      </trkpt>
      <trkpt lat="39.136888" lon="-0.442767">
        <ele>66.863667</ele>
        <time>2020-08-02T06:06:10.803Z</time>
      </trkpt>
      <trkpt lat="39.136796" lon="-0.442811">
        <ele>66.973796</ele>
        <time>2020-08-02T06:06:12.792Z</time>
      </trkpt>
      <trkpt lat="39.136689" lon="-0.442871">
        <ele>67.104752</ele>
        <time>2020-08-02T06:06:14.820Z</time>
      </trkpt>
      <trkpt lat="39.136593" lon="-0.442933">
        <ele>67.225257</ele>
        <time>2020-08-02T06:06:16.809Z</time>
      </trkpt>
      <trkpt lat="39.136482" lon="-0.442977">
        <ele>67.355590</ele>
        <time>2020-08-02T06:06:18.815Z</time>
      </trkpt>
      <trkpt lat="39.136367" lon="-0.443019">
        <ele>67.489736</ele>
        <time>2020-08-02T06:06:20.821Z</time>
      </trkpt>
      <trkpt lat="39.136262" lon="-0.443055">
        <ele>67.611676</ele>
        <time>2020-08-02T06:06:22.813Z</time>
      </trkpt>
      <trkpt lat="39.136177" lon="-0.443111">
        <ele>67.718808</ele>
        <time>2020-08-02T06:06:24.808Z</time>
      </trkpt>
      <trkpt lat="39.136096" lon="-0.443172">
        <ele>67.824089</ele>
        <time>2020-08-02T06:06:26.804Z</time>
      </trkpt>
      <trkpt lat="39.136020" lon="-0.443242">
        <ele>67.928917</ele>
        <time>2020-08-02T06:06:28.831Z</time>
      </trkpt>
      <trkpt lat="39.135933" lon="-0.443309">
        <ele>68.042652</ele>
        <time>2020-08-02T06:06:30.795Z</time>
      </trkpt>
      <trkpt lat="39.135845" lon="-0.443380">
        <ele>68.159162</ele>
        <time>2020-08-02T06:06:32.777Z</time>
      </trkpt>
      <trkpt lat="39.135790" lon="-0.443475">
        <ele>68.262360</ele>
        <time>2020-08-02T06:06:34.812Z</time>
      </trkpt>
      <trkpt lat="39.135698" lon="-0.443538">
        <ele>68.379275</ele>
        <time>2020-08-02T06:06:36.810Z</time>
      </trkpt>
      <trkpt lat="39.135598" lon="-0.443600">
        <ele>68.440940</ele>
        <time>2020-08-02T06:06:38.814Z</time>
      </trkpt>
      <trkpt lat="39.135500" lon="-0.443651">
        <ele>68.452981</ele>
        <time>2020-08-02T06:06:40.813Z</time>
      </trkpt>
      <trkpt lat="39.135419" lon="-0.443720">
        <ele>68.464042</ele>
        <time>2020-08-02T06:06:42.811Z</time>
      </trkpt>
      <trkpt lat="39.135337" lon="-0.443793">
        <ele>68.475395</ele>
        <time>2020-08-02T06:06:44.802Z</time>
      </trkpt>
      <trkpt lat="39.135239" lon="-0.443844">
        <ele>68.487436</ele>
        <time>2020-08-02T06:06:46.802Z</time>
      </trkpt>
      <trkpt lat="39.135189" lon="-0.443954">
        <ele>68.498703</ele>
        <time>2020-08-02T06:06:48.799Z</time>
      </trkpt>
      <trkpt lat="39.135090" lon="-0.444022">
        <ele>68.511483</ele>
        <time>2020-08-02T06:06:50.810Z</time>
      </trkpt>
      <trkpt lat="39.135011" lon="-0.444096">
        <ele>68.522608</ele>
        <time>2020-08-02T06:06:52.805Z</time>
      </trkpt>
      <trkpt lat="39.134926" lon="-0.444179">
        <ele>68.534757</ele>
        <time>2020-08-02T06:06:54.797Z</time>
      </trkpt>
      <trkpt lat="39.134835" lon="-0.444256">
        <ele>68.547158</ele>
        <time>2020-08-02T06:06:56.803Z</time>
      </trkpt>
      <trkpt lat="39.134729" lon="-0.444326">
        <ele>68.560727</ele>
        <time>2020-08-02T06:06:58.803Z</time>
      </trkpt>
      <trkpt lat="39.134637" lon="-0.444406">
        <ele>68.573370</ele>
        <time>2020-08-02T06:07:00.805Z</time>
      </trkpt>
      <trkpt lat="39.134566" lon="-0.444512">
        <ele>68.585747</ele>
        <time>2020-08-02T06:07:02.813Z</time>
      </trkpt>
      <trkpt lat="39.134464" lon="-0.444583">
        <ele>68.598954</ele>
        <time>2020-08-02T06:07:04.812Z</time>
      </trkpt>
      <trkpt lat="39.134381" lon="-0.444647">
        <ele>68.609973</ele>
        <time>2020-08-02T06:07:06.806Z</time>
      </trkpt>
      <trkpt lat="39.134281" lon="-0.444715">
        <ele>68.622854</ele>
        <time>2020-08-02T06:07:08.814Z</time>
      </trkpt>
      <trkpt lat="39.134196" lon="-0.444807">
        <ele>68.635498</ele>
        <time>2020-08-02T06:07:10.810Z</time>
      </trkpt>
      <trkpt lat="39.134102" lon="-0.444891">
        <ele>68.752057</ele>
        <time>2020-08-02T06:07:12.808Z</time>
      </trkpt>
      <trkpt lat="39.134011" lon="-0.444953">
        <ele>68.888049</ele>
        <time>2020-08-02T06:07:14.806Z</time>
      </trkpt>
      <trkpt lat="39.133918" lon="-0.445028">
        <ele>69.032986</ele>
        <time>2020-08-02T06:07:16.808Z</time>
      </trkpt>
      <trkpt lat="39.133834" lon="-0.445112">
        <ele>69.173446</ele>
        <time>2020-08-02T06:07:18.800Z</time>
      </trkpt>
      <trkpt lat="39.133720" lon="-0.445179">
        <ele>69.338982</ele>
        <time>2020-08-02T06:07:20.803Z</time>
      </trkpt>
      <trkpt lat="39.133624" lon="-0.445267">
        <ele>69.494618</ele>
        <time>2020-08-02T06:07:22.813Z</time>
      </trkpt>
      <trkpt lat="39.133539" lon="-0.445353">
        <ele>69.637380</ele>
        <time>2020-08-02T06:07:24.810Z</time>
      </trkpt>
      <trkpt lat="39.133466" lon="-0.445448">
        <ele>69.774429</ele>
        <time>2020-08-02T06:07:26.807Z</time>
      </trkpt>
      <trkpt lat="39.133401" lon="-0.445538">
        <ele>69.900459</ele>
        <time>2020-08-02T06:07:28.803Z</time>
      </trkpt>
      <trkpt lat="39.133316" lon="-0.445615">
        <ele>70.037719</ele>
        <time>2020-08-02T06:07:30.804Z</time>
      </trkpt>
      <trkpt lat="39.133223" lon="-0.445674">
        <ele>70.174668</ele>
        <time>2020-08-02T06:07:32.785Z</time>
      </trkpt>
      <trkpt lat="39.133140" lon="-0.445753">
        <ele>70.310982</ele>
        <time>2020-08-02T06:07:34.806Z</time>
      </trkpt>
      <trkpt lat="39.133078" lon="-0.445846">
        <ele>70.436660</ele>
        <time>2020-08-02T06:07:36.805Z</time>
      </trkpt>
      <trkpt lat="39.133001" lon="-0.445940">
        <ele>70.576772</ele>
        <time>2020-08-02T06:07:38.805Z</time>
      </trkpt>
      <trkpt lat="39.132904" lon="-0.446069">
        <ele>70.760905</ele>
        <time>2020-08-02T06:07:41.790Z</time>
      </trkpt>
      <trkpt lat="39.132796" lon="-0.446115">
        <ele>70.911186</ele>
        <time>2020-08-02T06:07:43.802Z</time>
      </trkpt>
      <trkpt lat="39.132712" lon="-0.446189">
        <ele>71.025338</ele>
        <time>2020-08-02T06:07:45.799Z</time>
      </trkpt>
      <trkpt lat="39.132622" lon="-0.446256">
        <ele>71.071042</ele>
        <time>2020-08-02T06:07:47.804Z</time>
      </trkpt>
      <trkpt lat="39.132539" lon="-0.446330">
        <ele>71.115421</ele>
        <time>2020-08-02T06:07:49.802Z</time>
      </trkpt>
      <trkpt lat="39.132457" lon="-0.446391">
        <ele>71.157055</ele>
        <time>2020-08-02T06:07:51.809Z</time>
      </trkpt>
      <trkpt lat="39.132358" lon="-0.446506">
        <ele>71.215658</ele>
        <time>2020-08-02T06:07:54.802Z</time>
      </trkpt>
      <trkpt lat="39.132278" lon="-0.446574">
        <ele>71.257798</ele>
        <time>2020-08-02T06:07:56.792Z</time>
      </trkpt>
      <trkpt lat="39.132160" lon="-0.446656">
        <ele>71.316749</ele>
        <time>2020-08-02T06:07:59.809Z</time>
      </trkpt>
      <trkpt lat="39.132072" lon="-0.446777">
        <ele>71.373330</ele>
        <time>2020-08-02T06:08:02.800Z</time>
      </trkpt>
      <trkpt lat="39.131964" lon="-0.446879">
        <ele>71.432206</ele>
        <time>2020-08-02T06:08:05.803Z</time>
      </trkpt>
      <trkpt lat="39.131884" lon="-0.446941">
        <ele>71.473255</ele>
        <time>2020-08-02T06:08:07.807Z</time>
      </trkpt>
      <trkpt lat="39.131817" lon="-0.447024">
        <ele>71.514118</ele>
        <time>2020-08-02T06:08:09.806Z</time>
      </trkpt>
      <trkpt lat="39.131733" lon="-0.447088">
        <ele>71.557028</ele>
        <time>2020-08-02T06:08:11.810Z</time>
      </trkpt>
      <trkpt lat="39.131668" lon="-0.447170">
        <ele>71.597022</ele>
        <time>2020-08-02T06:08:13.810Z</time>
      </trkpt>
      <trkpt lat="39.131572" lon="-0.447217">
        <ele>71.642181</ele>
        <time>2020-08-02T06:08:15.799Z</time>
      </trkpt>
      <trkpt lat="39.131466" lon="-0.447269">
        <ele>71.692057</ele>
        <time>2020-08-02T06:08:17.802Z</time>
      </trkpt>
      <trkpt lat="39.131387" lon="-0.447328">
        <ele>71.732208</ele>
        <time>2020-08-02T06:08:19.802Z</time>
      </trkpt>
      <trkpt lat="39.131296" lon="-0.447429">
        <ele>71.785015</ele>
        <time>2020-08-02T06:08:22.803Z</time>
      </trkpt>
      <trkpt lat="39.131199" lon="-0.447474">
        <ele>71.677541</ele>
        <time>2020-08-02T06:08:24.792Z</time>
      </trkpt>
      <trkpt lat="39.131096" lon="-0.447517">
        <ele>71.423810</ele>
        <time>2020-08-02T06:08:26.797Z</time>
      </trkpt>
      <trkpt lat="39.131015" lon="-0.447573">
        <ele>71.208404</ele>
        <time>2020-08-02T06:08:28.791Z</time>
      </trkpt>
      <trkpt lat="39.130927" lon="-0.447640">
        <ele>70.968887</ele>
        <time>2020-08-02T06:08:30.812Z</time>
      </trkpt>
      <trkpt lat="39.130820" lon="-0.447678">
        <ele>70.708781</ele>
        <time>2020-08-02T06:08:32.790Z</time>
      </trkpt>
      <trkpt lat="39.130720" lon="-0.447734">
        <ele>70.453266</ele>
        <time>2020-08-02T06:08:34.802Z</time>
      </trkpt>
      <trkpt lat="39.130612" lon="-0.447771">
        <ele>70.191373</ele>
        <time>2020-08-02T06:08:36.815Z</time>
      </trkpt>
      <trkpt lat="39.130522" lon="-0.447819">
        <ele>69.963113</ele>
        <time>2020-08-02T06:08:38.802Z</time>
      </trkpt>
      <trkpt lat="39.130438" lon="-0.447871">
        <ele>69.744730</ele>
        <time>2020-08-02T06:08:40.802Z</time>
      </trkpt>
      <trkpt lat="39.130346" lon="-0.447983">
        <ele>69.448176</ele>
        <time>2020-08-02T06:08:43.794Z</time>
      </trkpt>
      <trkpt lat="39.130276" lon="-0.448065">
        <ele>69.226511</ele>
        <time>2020-08-02T06:08:45.811Z</time>
      </trkpt>
      <trkpt lat="39.130203" lon="-0.448157">
        <ele>68.987258</ele>
        <time>2020-08-02T06:08:47.807Z</time>
      </trkpt>
      <trkpt lat="39.130143" lon="-0.448255">
        <ele>68.760292</ele>
        <time>2020-08-02T06:08:49.788Z</time>
      </trkpt>
      <trkpt lat="39.130077" lon="-0.448340">
        <ele>68.541653</ele>
        <time>2020-08-02T06:08:51.806Z</time>
      </trkpt>
      <trkpt lat="39.130089" lon="-0.448506">
        <ele>68.238565</ele>
        <time>2020-08-02T06:08:54.794Z</time>
      </trkpt>
      <trkpt lat="39.130092" lon="-0.448685">
        <ele>67.913075</ele>
        <time>2020-08-02T06:08:57.806Z</time>
      </trkpt>
      <trkpt lat="39.130061" lon="-0.448839">
        <ele>67.623837</ele>
        <time>2020-08-02T06:09:00.797Z</time>
      </trkpt>
      <trkpt lat="39.130020" lon="-0.448958">
        <ele>67.859741</ele>
        <time>2020-08-02T06:09:02.797Z</time>
      </trkpt>
      <trkpt lat="39.129995" lon="-0.449084">
        <ele>68.171583</ele>
        <time>2020-08-02T06:09:04.801Z</time>
      </trkpt>
      <trkpt lat="39.130024" lon="-0.449221">
        <ele>68.512085</ele>
        <time>2020-08-02T06:09:06.805Z</time>
      </trkpt>
      <trkpt lat="39.130045" lon="-0.449337">
        <ele>68.797697</ele>
        <time>2020-08-02T06:09:08.810Z</time>
      </trkpt>
      <trkpt lat="39.130040" lon="-0.449488">
        <ele>69.160087</ele>
        <time>2020-08-02T06:09:11.805Z</time>
      </trkpt>
      <trkpt lat="39.130033" lon="-0.449621">
        <ele>69.479720</ele>
        <time>2020-08-02T06:09:14.800Z</time>
      </trkpt>
      <trkpt lat="39.130015" lon="-0.449760">
        <ele>69.817619</ele>
        <time>2020-08-02T06:09:18.806Z</time>
      </trkpt>
      <trkpt lat="39.130020" lon="-0.449902">
        <ele>70.158449</ele>
        <time>2020-08-02T06:09:21.798Z</time>
      </trkpt>
      <trkpt lat="39.130011" lon="-0.450039">
        <ele>70.488116</ele>
        <time>2020-08-02T06:09:24.806Z</time>
      </trkpt>
      <trkpt lat="39.129994" lon="-0.450177">
        <ele>70.823151</ele>
        <time>2020-08-02T06:09:27.811Z</time>
      </trkpt>
      <trkpt lat="39.129974" lon="-0.450309">
        <ele>71.145635</ele>
        <time>2020-08-02T06:09:30.796Z</time>
      </trkpt>
      <trkpt lat="39.129967" lon="-0.450432">
        <ele>71.441351</ele>
        <time>2020-08-02T06:09:33.793Z</time>
      </trkpt>
      <trkpt lat="39.129962" lon="-0.450554">
        <ele>71.734284</ele>
        <time>2020-08-02T06:09:36.803Z</time>
      </trkpt>
      <trkpt lat="39.129964" lon="-0.450670">
        <ele>72.012491</ele>
        <time>2020-08-02T06:09:39.811Z</time>
      </trkpt>
      <trkpt lat="39.129958" lon="-0.450786">
        <ele>72.291247</ele>
        <time>2020-08-02T06:09:42.811Z</time>
      </trkpt>
      <trkpt lat="39.129945" lon="-0.450915">
        <ele>72.603156</ele>
        <time>2020-08-02T06:09:45.800Z</time>
      </trkpt>
      <trkpt lat="39.129938" lon="-0.451055">
        <ele>72.939538</ele>
        <time>2020-08-02T06:09:48.802Z</time>
      </trkpt>
      <trkpt lat="39.129917" lon="-0.451189">
        <ele>73.390717</ele>
        <time>2020-08-02T06:09:51.813Z</time>
      </trkpt>
      <trkpt lat="39.129883" lon="-0.451335">
        <ele>74.142445</ele>
        <time>2020-08-02T06:09:54.811Z</time>
      </trkpt>
      <trkpt lat="39.129862" lon="-0.451448">
        <ele>74.715461</ele>
        <time>2020-08-02T06:09:56.802Z</time>
      </trkpt>
      <trkpt lat="39.129837" lon="-0.451581">
        <ele>75.390318</ele>
        <time>2020-08-02T06:09:59.801Z</time>
      </trkpt>
      <trkpt lat="39.129817" lon="-0.451708">
        <ele>76.029381</ele>
        <time>2020-08-02T06:10:02.789Z</time>
      </trkpt>
      <trkpt lat="39.129792" lon="-0.451862">
        <ele>76.805268</ele>
        <time>2020-08-02T06:10:05.804Z</time>
      </trkpt>
      <trkpt lat="39.129769" lon="-0.452008">
        <ele>77.539950</ele>
        <time>2020-08-02T06:10:08.802Z</time>
      </trkpt>
      <trkpt lat="39.129743" lon="-0.452145">
        <ele>78.235477</ele>
        <time>2020-08-02T06:10:11.802Z</time>
      </trkpt>
      <trkpt lat="39.129720" lon="-0.452270">
        <ele>78.869007</ele>
        <time>2020-08-02T06:10:14.785Z</time>
      </trkpt>
      <trkpt lat="39.129683" lon="-0.452402">
        <ele>79.561146</ele>
        <time>2020-08-02T06:10:17.810Z</time>
      </trkpt>
      <trkpt lat="39.129631" lon="-0.452538">
        <ele>80.308863</ele>
        <time>2020-08-02T06:10:20.801Z</time>
      </trkpt>
      <trkpt lat="39.129591" lon="-0.452660">
        <ele>80.962028</ele>
        <time>2020-08-02T06:10:23.806Z</time>
      </trkpt>
      <trkpt lat="39.129556" lon="-0.452769">
        <ele>81.543783</ele>
        <time>2020-08-02T06:10:26.800Z</time>
      </trkpt>
      <trkpt lat="39.129522" lon="-0.452891">
        <ele>82.183065</ele>
        <time>2020-08-02T06:10:30.809Z</time>
      </trkpt>
      <trkpt lat="39.129481" lon="-0.452999">
        <ele>82.776017</ele>
        <time>2020-08-02T06:10:35.817Z</time>
      </trkpt>
      <trkpt lat="39.129422" lon="-0.453093">
        <ele>83.372308</ele>
        <time>2020-08-02T06:10:40.806Z</time>
      </trkpt>
      <trkpt lat="39.129371" lon="-0.453214">
        <ele>84.051404</ele>
        <time>2020-08-02T06:10:45.803Z</time>
      </trkpt>
      <trkpt lat="39.129315" lon="-0.453345">
        <ele>84.562809</ele>
        <time>2020-08-02T06:10:49.807Z</time>
      </trkpt>
      <trkpt lat="39.129244" lon="-0.453476">
        <ele>84.477521</ele>
        <time>2020-08-02T06:10:52.812Z</time>
      </trkpt>
      <trkpt lat="39.129165" lon="-0.453556">
        <ele>84.408405</ele>
        <time>2020-08-02T06:10:54.795Z</time>
      </trkpt>
      <trkpt lat="39.129107" lon="-0.453660">
        <ele>84.340046</ele>
        <time>2020-08-02T06:10:56.792Z</time>
      </trkpt>
      <trkpt lat="39.129023" lon="-0.453755">
        <ele>84.263167</ele>
        <time>2020-08-02T06:10:58.865Z</time>
      </trkpt>
      <trkpt lat="39.128965" lon="-0.453876">
        <ele>84.187256</ele>
        <time>2020-08-02T06:11:00.801Z</time>
      </trkpt>
      <trkpt lat="39.128887" lon="-0.453976">
        <ele>84.111572</ele>
        <time>2020-08-02T06:11:02.802Z</time>
      </trkpt>
      <trkpt lat="39.128811" lon="-0.454074">
        <ele>84.037616</ele>
        <time>2020-08-02T06:11:04.810Z</time>
      </trkpt>
      <trkpt lat="39.128707" lon="-0.454174">
        <ele>83.948353</ele>
        <time>2020-08-02T06:11:06.799Z</time>
      </trkpt>
      <trkpt lat="39.128589" lon="-0.454277">
        <ele>83.850310</ele>
        <time>2020-08-02T06:11:08.801Z</time>
      </trkpt>
      <trkpt lat="39.128451" lon="-0.454401">
        <ele>83.734579</ele>
        <time>2020-08-02T06:11:10.811Z</time>
      </trkpt>
      <trkpt lat="39.128316" lon="-0.454512">
        <ele>83.624416</ele>
        <time>2020-08-02T06:11:12.800Z</time>
      </trkpt>
      <trkpt lat="39.128175" lon="-0.454621">
        <ele>83.511303</ele>
        <time>2020-08-02T06:11:14.800Z</time>
      </trkpt>
      <trkpt lat="39.128027" lon="-0.454717">
        <ele>83.397317</ele>
        <time>2020-08-02T06:11:16.804Z</time>
      </trkpt>
      <trkpt lat="39.127875" lon="-0.454812">
        <ele>83.153922</ele>
        <time>2020-08-02T06:11:18.798Z</time>
      </trkpt>
      <trkpt lat="39.127796" lon="-0.454876">
        <ele>82.966684</ele>
        <time>2020-08-02T06:11:19.801Z</time>
      </trkpt>
      <trkpt lat="39.127707" lon="-0.454912">
        <ele>82.779499</ele>
        <time>2020-08-02T06:11:20.815Z</time>
      </trkpt>
      <trkpt lat="39.127612" lon="-0.454962">
        <ele>82.573582</ele>
        <time>2020-08-02T06:11:21.802Z</time>
      </trkpt>
      <trkpt lat="39.127448" lon="-0.455050">
        <ele>82.217106</ele>
        <time>2020-08-02T06:11:23.818Z</time>
      </trkpt>
      <trkpt lat="39.127282" lon="-0.455109">
        <ele>81.871558</ele>
        <time>2020-08-02T06:11:25.812Z</time>
      </trkpt>
      <trkpt lat="39.127195" lon="-0.455143">
        <ele>81.689126</ele>
        <time>2020-08-02T06:11:26.810Z</time>
      </trkpt>
      <trkpt lat="39.127044" lon="-0.455230">
        <ele>81.357221</ele>
        <time>2020-08-02T06:11:28.805Z</time>
      </trkpt>
      <trkpt lat="39.126940" lon="-0.455233">
        <ele>81.148468</ele>
        <time>2020-08-02T06:11:29.813Z</time>
      </trkpt>
      <trkpt lat="39.126852" lon="-0.455266">
        <ele>80.964556</ele>
        <time>2020-08-02T06:11:30.803Z</time>
      </trkpt>
      <trkpt lat="39.126761" lon="-0.455282">
        <ele>80.780252</ele>
        <time>2020-08-02T06:11:31.808Z</time>
      </trkpt>
      <trkpt lat="39.126607" lon="-0.455331">
        <ele>80.461941</ele>
        <time>2020-08-02T06:11:33.804Z</time>
      </trkpt>
      <trkpt lat="39.126453" lon="-0.455386">
        <ele>80.141263</ele>
        <time>2020-08-02T06:11:35.802Z</time>
      </trkpt>
      <trkpt lat="39.126278" lon="-0.455422">
        <ele>79.785641</ele>
        <time>2020-08-02T06:11:37.812Z</time>
      </trkpt>
      <trkpt lat="39.126111" lon="-0.455463">
        <ele>79.447389</ele>
        <time>2020-08-02T06:11:39.806Z</time>
      </trkpt>
      <trkpt lat="39.125951" lon="-0.455468">
        <ele>79.129385</ele>
        <time>2020-08-02T06:11:41.808Z</time>
      </trkpt>
      <trkpt lat="39.125794" lon="-0.455494">
        <ele>78.814872</ele>
        <time>2020-08-02T06:11:43.805Z</time>
      </trkpt>
      <trkpt lat="39.125662" lon="-0.455546">
        <ele>78.540622</ele>
        <time>2020-08-02T06:11:45.806Z</time>
      </trkpt>
      <trkpt lat="39.125528" lon="-0.455582">
        <ele>78.268651</ele>
        <time>2020-08-02T06:11:47.830Z</time>
      </trkpt>
      <trkpt lat="39.125404" lon="-0.455626">
        <ele>78.013107</ele>
        <time>2020-08-02T06:11:49.815Z</time>
      </trkpt>
      <trkpt lat="39.125279" lon="-0.455645">
        <ele>77.763019</ele>
        <time>2020-08-02T06:11:51.806Z</time>
      </trkpt>
      <trkpt lat="39.125144" lon="-0.455674">
        <ele>77.491083</ele>
        <time>2020-08-02T06:11:53.807Z</time>
      </trkpt>
      <trkpt lat="39.125028" lon="-0.455723">
        <ele>77.248538</ele>
        <time>2020-08-02T06:11:55.811Z</time>
      </trkpt>
      <trkpt lat="39.124902" lon="-0.455761">
        <ele>76.991423</ele>
        <time>2020-08-02T06:11:57.803Z</time>
      </trkpt>
      <trkpt lat="39.124789" lon="-0.455800">
        <ele>76.758990</ele>
        <time>2020-08-02T06:11:59.805Z</time>
      </trkpt>
      <trkpt lat="39.124686" lon="-0.455838">
        <ele>76.546119</ele>
        <time>2020-08-02T06:12:01.798Z</time>
      </trkpt>
      <trkpt lat="39.124583" lon="-0.455899">
        <ele>76.320898</ele>
        <time>2020-08-02T06:12:03.811Z</time>
      </trkpt>
      <trkpt lat="39.124475" lon="-0.455956">
        <ele>76.201177</ele>
        <time>2020-08-02T06:12:05.800Z</time>
      </trkpt>
      <trkpt lat="39.124382" lon="-0.456023">
        <ele>76.305031</ele>
        <time>2020-08-02T06:12:07.795Z</time>
      </trkpt>
      <trkpt lat="39.124297" lon="-0.456074">
        <ele>76.396425</ele>
        <time>2020-08-02T06:12:09.791Z</time>
      </trkpt>
      <trkpt lat="39.124179" lon="-0.456153">
        <ele>76.526040</ele>
        <time>2020-08-02T06:12:12.805Z</time>
      </trkpt>
      <trkpt lat="39.124059" lon="-0.456217">
        <ele>76.652633</ele>
        <time>2020-08-02T06:12:14.783Z</time>
      </trkpt>
      <trkpt lat="39.123955" lon="-0.456285">
        <ele>76.766308</ele>
        <time>2020-08-02T06:12:16.809Z</time>
      </trkpt>
      <trkpt lat="39.123870" lon="-0.456364">
        <ele>76.868458</ele>
        <time>2020-08-02T06:12:18.810Z</time>
      </trkpt>
      <trkpt lat="39.123758" lon="-0.456422">
        <ele>76.986117</ele>
        <time>2020-08-02T06:12:20.804Z</time>
      </trkpt>
      <trkpt lat="39.123658" lon="-0.456466">
        <ele>77.089119</ele>
        <time>2020-08-02T06:12:22.787Z</time>
      </trkpt>
      <trkpt lat="39.123554" lon="-0.456527">
        <ele>77.200500</ele>
        <time>2020-08-02T06:12:24.801Z</time>
      </trkpt>
      <trkpt lat="39.123462" lon="-0.456589">
        <ele>77.301698</ele>
        <time>2020-08-02T06:12:26.799Z</time>
      </trkpt>
      <trkpt lat="39.123380" lon="-0.456660">
        <ele>77.397991</ele>
        <time>2020-08-02T06:12:28.794Z</time>
      </trkpt>
      <trkpt lat="39.123282" lon="-0.456707">
        <ele>77.499919</ele>
        <time>2020-08-02T06:12:30.798Z</time>
      </trkpt>
      <trkpt lat="39.123204" lon="-0.456776">
        <ele>77.592136</ele>
        <time>2020-08-02T06:12:32.813Z</time>
      </trkpt>
      <trkpt lat="39.123110" lon="-0.456857">
        <ele>77.702356</ele>
        <time>2020-08-02T06:12:34.805Z</time>
      </trkpt>
      <trkpt lat="39.123013" lon="-0.456929">
        <ele>77.811468</ele>
        <time>2020-08-02T06:12:36.801Z</time>
      </trkpt>
      <trkpt lat="39.122924" lon="-0.456990">
        <ele>77.909727</ele>
        <time>2020-08-02T06:12:38.800Z</time>
      </trkpt>
      <trkpt lat="39.122835" lon="-0.457068">
        <ele>77.789398</ele>
        <time>2020-08-02T06:12:40.807Z</time>
      </trkpt>
      <trkpt lat="39.122723" lon="-0.457138">
        <ele>77.629168</ele>
        <time>2020-08-02T06:12:42.806Z</time>
      </trkpt>
      <trkpt lat="39.122640" lon="-0.457213">
        <ele>77.498685</ele>
        <time>2020-08-02T06:12:44.811Z</time>
      </trkpt>
      <trkpt lat="39.122564" lon="-0.457288">
        <ele>77.375473</ele>
        <time>2020-08-02T06:12:46.801Z</time>
      </trkpt>
      <trkpt lat="39.122462" lon="-0.457337">
        <ele>77.235347</ele>
        <time>2020-08-02T06:12:48.801Z</time>
      </trkpt>
      <trkpt lat="39.122350" lon="-0.457410">
        <ele>77.073788</ele>
        <time>2020-08-02T06:12:50.804Z</time>
      </trkpt>
      <trkpt lat="39.122247" lon="-0.457467">
        <ele>76.929495</ele>
        <time>2020-08-02T06:12:52.806Z</time>
      </trkpt>
      <trkpt lat="39.122146" lon="-0.457527">
        <ele>76.786336</ele>
        <time>2020-08-02T06:12:54.791Z</time>
      </trkpt>
      <trkpt lat="39.122055" lon="-0.457586">
        <ele>76.655209</ele>
        <time>2020-08-02T06:12:56.815Z</time>
      </trkpt>
      <trkpt lat="39.121957" lon="-0.457663">
        <ele>76.507466</ele>
        <time>2020-08-02T06:12:58.805Z</time>
      </trkpt>
      <trkpt lat="39.121872" lon="-0.457739">
        <ele>76.374300</ele>
        <time>2020-08-02T06:13:00.801Z</time>
      </trkpt>
      <trkpt lat="39.121768" lon="-0.457804">
        <ele>76.225515</ele>
        <time>2020-08-02T06:13:02.812Z</time>
      </trkpt>
      <trkpt lat="39.121677" lon="-0.457873">
        <ele>76.089607</ele>
        <time>2020-08-02T06:13:04.803Z</time>
      </trkpt>
      <trkpt lat="39.121574" lon="-0.457934">
        <ele>75.943691</ele>
        <time>2020-08-02T06:13:06.820Z</time>
      </trkpt>
      <trkpt lat="39.121484" lon="-0.458036">
        <ele>75.789422</ele>
        <time>2020-08-02T06:13:08.799Z</time>
      </trkpt>
      <trkpt lat="39.121405" lon="-0.458177">
        <ele>75.615725</ele>
        <time>2020-08-02T06:13:11.803Z</time>
      </trkpt>
      <trkpt lat="39.121316" lon="-0.458242">
        <ele>75.410198</ele>
        <time>2020-08-02T06:13:13.802Z</time>
      </trkpt>
      <trkpt lat="39.121240" lon="-0.458313">
        <ele>75.213864</ele>
        <time>2020-08-02T06:13:15.801Z</time>
      </trkpt>
      <trkpt lat="39.121128" lon="-0.458359">
        <ele>74.967986</ele>
        <time>2020-08-02T06:13:17.809Z</time>
      </trkpt>
      <trkpt lat="39.121018" lon="-0.458434">
        <ele>74.707690</ele>
        <time>2020-08-02T06:13:19.798Z</time>
      </trkpt>
      <trkpt lat="39.120930" lon="-0.458503">
        <ele>74.492237</ele>
        <time>2020-08-02T06:13:21.802Z</time>
      </trkpt>
      <trkpt lat="39.120835" lon="-0.458556">
        <ele>74.275708</ele>
        <time>2020-08-02T06:13:23.803Z</time>
      </trkpt>
      <trkpt lat="39.120718" lon="-0.458601">
        <ele>74.020314</ele>
        <time>2020-08-02T06:13:25.809Z</time>
      </trkpt>
      <trkpt lat="39.120617" lon="-0.458682">
        <ele>73.771496</ele>
        <time>2020-08-02T06:13:27.799Z</time>
      </trkpt>
      <trkpt lat="39.120504" lon="-0.458737">
        <ele>73.518841</ele>
        <time>2020-08-02T06:13:29.799Z</time>
      </trkpt>
      <trkpt lat="39.120393" lon="-0.458795">
        <ele>73.268308</ele>
        <time>2020-08-02T06:13:31.809Z</time>
      </trkpt>
      <trkpt lat="39.120302" lon="-0.458865">
        <ele>73.046641</ele>
        <time>2020-08-02T06:13:33.804Z</time>
      </trkpt>
      <trkpt lat="39.120202" lon="-0.458924">
        <ele>72.816597</ele>
        <time>2020-08-02T06:13:35.803Z</time>
      </trkpt>
      <trkpt lat="39.120128" lon="-0.459008">
        <ele>72.610342</ele>
        <time>2020-08-02T06:13:37.807Z</time>
      </trkpt>
      <trkpt lat="39.120032" lon="-0.459077">
        <ele>72.380428</ele>
        <time>2020-08-02T06:13:39.801Z</time>
      </trkpt>
      <trkpt lat="39.119932" lon="-0.459163">
        <ele>72.128971</ele>
        <time>2020-08-02T06:13:41.806Z</time>
      </trkpt>
      <trkpt lat="39.119835" lon="-0.459246">
        <ele>71.885435</ele>
        <time>2020-08-02T06:13:43.799Z</time>
      </trkpt>
      <trkpt lat="39.119736" lon="-0.459326">
        <ele>71.854098</ele>
        <time>2020-08-02T06:13:45.796Z</time>
      </trkpt>
      <trkpt lat="39.119663" lon="-0.459426">
        <ele>71.869939</ele>
        <time>2020-08-02T06:13:47.807Z</time>
      </trkpt>
      <trkpt lat="39.119569" lon="-0.459501">
        <ele>71.886379</ele>
        <time>2020-08-02T06:13:49.810Z</time>
      </trkpt>
      <trkpt lat="39.119484" lon="-0.459605">
        <ele>71.903807</ele>
        <time>2020-08-02T06:13:52.809Z</time>
      </trkpt>
      <trkpt lat="39.119392" lon="-0.459610">
        <ele>71.917501</ele>
        <time>2020-08-02T06:13:53.801Z</time>
      </trkpt>
      <trkpt lat="39.119301" lon="-0.459678">
        <ele>71.933143</ele>
        <time>2020-08-02T06:13:55.805Z</time>
      </trkpt>
      <trkpt lat="39.119223" lon="-0.459740">
        <ele>71.946770</ele>
        <time>2020-08-02T06:13:57.798Z</time>
      </trkpt>
      <trkpt lat="39.119119" lon="-0.459829">
        <ele>71.965335</ele>
        <time>2020-08-02T06:13:59.811Z</time>
      </trkpt>
      <trkpt lat="39.119035" lon="-0.459941">
        <ele>71.983307</ele>
        <time>2020-08-02T06:14:02.807Z</time>
      </trkpt>
      <trkpt lat="39.118933" lon="-0.459994">
        <ele>71.999661</ele>
        <time>2020-08-02T06:14:04.807Z</time>
      </trkpt>
      <trkpt lat="39.118865" lon="-0.460093">
        <ele>72.014916</ele>
        <time>2020-08-02T06:14:06.807Z</time>
      </trkpt>
      <trkpt lat="39.118724" lon="-0.460113">
        <ele>72.036011</ele>
        <time>2020-08-02T06:14:08.809Z</time>
      </trkpt>
      <trkpt lat="39.118630" lon="-0.460199">
        <ele>72.053153</ele>
        <time>2020-08-02T06:14:11.804Z</time>
      </trkpt>
      <trkpt lat="39.118476" lon="-0.460240">
        <ele>72.076537</ele>
        <time>2020-08-02T06:14:13.802Z</time>
      </trkpt>
      <trkpt lat="39.118363" lon="-0.460332">
        <ele>72.096413</ele>
        <time>2020-08-02T06:14:15.803Z</time>
      </trkpt>
      <trkpt lat="39.118235" lon="-0.460390">
        <ele>72.109056</ele>
        <time>2020-08-02T06:14:17.806Z</time>
      </trkpt>
      <trkpt lat="39.118090" lon="-0.460456">
        <ele>72.113120</ele>
        <time>2020-08-02T06:14:19.805Z</time>
      </trkpt>
      <trkpt lat="39.117917" lon="-0.460450">
        <ele>72.117694</ele>
        <time>2020-08-02T06:14:22.805Z</time>
      </trkpt>
      <trkpt lat="39.117861" lon="-0.460541">
        <ele>72.120076</ele>
        <time>2020-08-02T06:14:24.804Z</time>
      </trkpt>
      <trkpt lat="39.117857" lon="-0.460695">
        <ele>72.123235</ele>
        <time>2020-08-02T06:14:26.778Z</time>
      </trkpt>
      <trkpt lat="39.117766" lon="-0.460799">
        <ele>72.126450</ele>
        <time>2020-08-02T06:14:28.800Z</time>
      </trkpt>
      <trkpt lat="39.117673" lon="-0.460864">
        <ele>72.129246</ele>
        <time>2020-08-02T06:14:30.807Z</time>
      </trkpt>
      <trkpt lat="39.117577" lon="-0.461008">
        <ele>72.133139</ele>
        <time>2020-08-02T06:14:33.809Z</time>
      </trkpt>
      <trkpt lat="39.117463" lon="-0.461061">
        <ele>72.136341</ele>
        <time>2020-08-02T06:14:35.800Z</time>
      </trkpt>
      <trkpt lat="39.117359" lon="-0.461127">
        <ele>72.139405</ele>
        <time>2020-08-02T06:14:37.802Z</time>
      </trkpt>
      <trkpt lat="39.117253" lon="-0.461165">
        <ele>72.142313</ele>
        <time>2020-08-02T06:14:39.800Z</time>
      </trkpt>
      <trkpt lat="39.117186" lon="-0.461273">
        <ele>72.145148</ele>
        <time>2020-08-02T06:14:41.800Z</time>
      </trkpt>
      <trkpt lat="39.117110" lon="-0.461353">
        <ele>72.147742</ele>
        <time>2020-08-02T06:14:43.791Z</time>
      </trkpt>
      <trkpt lat="39.116991" lon="-0.461409">
        <ele>72.151090</ele>
        <time>2020-08-02T06:14:45.811Z</time>
      </trkpt>
      <trkpt lat="39.116880" lon="-0.461503">
        <ele>72.154600</ele>
        <time>2020-08-02T06:14:48.808Z</time>
      </trkpt>
      <trkpt lat="39.116793" lon="-0.461557">
        <ele>72.116505</ele>
        <time>2020-08-02T06:14:50.796Z</time>
      </trkpt>
      <trkpt lat="39.116698" lon="-0.461611">
        <ele>72.068273</ele>
        <time>2020-08-02T06:14:52.812Z</time>
      </trkpt>
      <trkpt lat="39.116593" lon="-0.461663">
        <ele>72.016020</ele>
        <time>2020-08-02T06:14:54.805Z</time>
      </trkpt>
      <trkpt lat="39.116491" lon="-0.461733">
        <ele>71.962340</ele>
        <time>2020-08-02T06:14:56.783Z</time>
      </trkpt>
      <trkpt lat="39.116414" lon="-0.461828">
        <ele>71.912824</ele>
        <time>2020-08-02T06:14:58.794Z</time>
      </trkpt>
      <trkpt lat="39.116321" lon="-0.461910">
        <ele>71.860481</ele>
        <time>2020-08-02T06:15:00.800Z</time>
      </trkpt>
      <trkpt lat="39.116236" lon="-0.461967">
        <ele>71.815971</ele>
        <time>2020-08-02T06:15:02.812Z</time>
      </trkpt>
      <trkpt lat="39.116138" lon="-0.462016">
        <ele>71.767141</ele>
        <time>2020-08-02T06:15:04.804Z</time>
      </trkpt>
      <trkpt lat="39.116040" lon="-0.462076">
        <ele>71.716742</ele>
        <time>2020-08-02T06:15:06.799Z</time>
      </trkpt>
      <trkpt lat="39.115960" lon="-0.462132">
        <ele>71.674452</ele>
        <time>2020-08-02T06:15:08.803Z</time>
      </trkpt>
      <trkpt lat="39.115827" lon="-0.462209">
        <ele>71.606722</ele>
        <time>2020-08-02T06:15:11.806Z</time>
      </trkpt>
      <trkpt lat="39.115730" lon="-0.462271">
        <ele>71.556426</ele>
        <time>2020-08-02T06:15:13.813Z</time>
      </trkpt>
      <trkpt lat="39.115635" lon="-0.462319">
        <ele>71.509025</ele>
        <time>2020-08-02T06:15:15.811Z</time>
      </trkpt>
      <trkpt lat="39.115553" lon="-0.462369">
        <ele>71.466886</ele>
        <time>2020-08-02T06:15:17.805Z</time>
      </trkpt>
      <trkpt lat="39.115460" lon="-0.462404">
        <ele>71.421880</ele>
        <time>2020-08-02T06:15:19.804Z</time>
      </trkpt>
      <trkpt lat="39.115358" lon="-0.462516">
        <ele>71.359634</ele>
        <time>2020-08-02T06:15:22.807Z</time>
      </trkpt>
      <trkpt lat="39.115280" lon="-0.462609">
        <ele>71.346957</ele>
        <time>2020-08-02T06:15:24.798Z</time>
      </trkpt>
      <trkpt lat="39.115241" lon="-0.462716">
        <ele>71.474982</ele>
        <time>2020-08-02T06:15:26.798Z</time>
      </trkpt>
      <trkpt lat="39.115252" lon="-0.462879">
        <ele>71.652169</ele>
        <time>2020-08-02T06:15:29.791Z</time>
      </trkpt>
      <trkpt lat="39.115218" lon="-0.463024">
        <ele>71.816210</ele>
        <time>2020-08-02T06:15:32.812Z</time>
      </trkpt>
      <trkpt lat="39.115079" lon="-0.463062">
        <ele>72.014539</ele>
        <time>2020-08-02T06:15:34.802Z</time>
      </trkpt>
      <trkpt lat="39.114957" lon="-0.463100">
        <ele>72.189724</ele>
        <time>2020-08-02T06:15:36.811Z</time>
      </trkpt>
      <trkpt lat="39.114885" lon="-0.462995">
        <ele>72.341479</ele>
        <time>2020-08-02T06:15:38.816Z</time>
      </trkpt>
      <trkpt lat="39.114767" lon="-0.462968">
        <ele>72.508755</ele>
        <time>2020-08-02T06:15:41.800Z</time>
      </trkpt>
      <trkpt lat="39.114671" lon="-0.462935">
        <ele>72.647432</ele>
        <time>2020-08-02T06:15:46.793Z</time>
      </trkpt>
      <trkpt lat="39.114646" lon="-0.463064">
        <ele>72.791426</ele>
        <time>2020-08-02T06:15:59.790Z</time>
      </trkpt>
      <trkpt lat="39.114550" lon="-0.463067">
        <ele>72.925459</ele>
        <time>2020-08-02T06:16:02.797Z</time>
      </trkpt>
      <trkpt lat="39.114442" lon="-0.463072">
        <ele>73.076299</ele>
        <time>2020-08-02T06:16:07.793Z</time>
      </trkpt>
      <trkpt lat="39.114357" lon="-0.463144">
        <ele>73.218269</ele>
        <time>2020-08-02T06:16:11.806Z</time>
      </trkpt>
      <trkpt lat="39.114283" lon="-0.463212">
        <ele>73.345120</ele>
        <time>2020-08-02T06:16:14.803Z</time>
      </trkpt>
      <trkpt lat="39.114193" lon="-0.463265">
        <ele>73.483231</ele>
        <time>2020-08-02T06:16:17.806Z</time>
      </trkpt>
      <trkpt lat="39.114111" lon="-0.463329">
        <ele>73.617035</ele>
        <time>2020-08-02T06:16:20.810Z</time>
      </trkpt>
      <trkpt lat="39.114026" lon="-0.463411">
        <ele>73.765229</ele>
        <time>2020-08-02T06:16:24.806Z</time>
      </trkpt>
      <trkpt lat="39.113935" lon="-0.463470">
        <ele>73.829734</ele>
        <time>2020-08-02T06:16:27.802Z</time>
      </trkpt>
      <trkpt lat="39.113822" lon="-0.463531">
        <ele>73.829312</ele>
        <time>2020-08-02T06:16:30.810Z</time>
      </trkpt>
      <trkpt lat="39.113719" lon="-0.463583">
        <ele>73.828931</ele>
        <time>2020-08-02T06:16:33.803Z</time>
      </trkpt>
      <trkpt lat="39.113626" lon="-0.463640">
        <ele>73.828576</ele>
        <time>2020-08-02T06:16:36.807Z</time>
      </trkpt>
      <trkpt lat="39.113545" lon="-0.463698">
        <ele>73.828256</ele>
        <time>2020-08-02T06:16:39.812Z</time>
      </trkpt>
      <trkpt lat="39.113438" lon="-0.463778">
        <ele>73.827830</ele>
        <time>2020-08-02T06:16:43.806Z</time>
      </trkpt>
      <trkpt lat="39.113353" lon="-0.463850">
        <ele>73.827479</ele>
        <time>2020-08-02T06:16:46.807Z</time>
      </trkpt>
      <trkpt lat="39.113265" lon="-0.463933">
        <ele>73.827104</ele>
        <time>2020-08-02T06:16:49.817Z</time>
      </trkpt>
      <trkpt lat="39.113170" lon="-0.464014">
        <ele>73.826711</ele>
        <time>2020-08-02T06:16:52.797Z</time>
      </trkpt>
      <trkpt lat="39.113080" lon="-0.464104">
        <ele>73.826319</ele>
        <time>2020-08-02T06:16:56.801Z</time>
      </trkpt>
      <trkpt lat="39.112996" lon="-0.464164">
        <ele>73.825988</ele>
        <time>2020-08-02T06:16:59.798Z</time>
      </trkpt>
      <trkpt lat="39.112892" lon="-0.464254">
        <ele>73.825556</ele>
        <time>2020-08-02T06:17:02.807Z</time>
      </trkpt>
      <trkpt lat="39.112778" lon="-0.464334">
        <ele>73.825108</ele>
        <time>2020-08-02T06:17:05.808Z</time>
      </trkpt>
      <trkpt lat="39.112659" lon="-0.464416">
        <ele>73.824643</ele>
        <time>2020-08-02T06:17:08.808Z</time>
      </trkpt>
      <trkpt lat="39.112544" lon="-0.464494">
        <ele>73.824196</ele>
        <time>2020-08-02T06:17:11.808Z</time>
      </trkpt>
      <trkpt lat="39.112445" lon="-0.464582">
        <ele>73.823781</ele>
        <time>2020-08-02T06:17:14.803Z</time>
      </trkpt>
      <trkpt lat="39.112360" lon="-0.464635">
        <ele>73.784627</ele>
        <time>2020-08-02T06:17:16.802Z</time>
      </trkpt>
      <trkpt lat="39.112238" lon="-0.464719">
        <ele>73.715838</ele>
        <time>2020-08-02T06:17:19.807Z</time>
      </trkpt>
      <trkpt lat="39.112145" lon="-0.464768">
        <ele>73.665871</ele>
        <time>2020-08-02T06:17:21.803Z</time>
      </trkpt>
      <trkpt lat="39.112054" lon="-0.464827">
        <ele>73.615211</ele>
        <time>2020-08-02T06:17:23.806Z</time>
      </trkpt>
      <trkpt lat="39.111959" lon="-0.464878">
        <ele>73.564031</ele>
        <time>2020-08-02T06:17:25.815Z</time>
      </trkpt>
      <trkpt lat="39.111877" lon="-0.464939">
        <ele>73.516944</ele>
        <time>2020-08-02T06:17:27.808Z</time>
      </trkpt>
      <trkpt lat="39.111761" lon="-0.465044">
        <ele>73.446448</ele>
        <time>2020-08-02T06:17:30.811Z</time>
      </trkpt>
      <trkpt lat="39.111655" lon="-0.465088">
        <ele>73.391065</ele>
        <time>2020-08-02T06:17:32.806Z</time>
      </trkpt>
      <trkpt lat="39.111561" lon="-0.465144">
        <ele>73.339564</ele>
        <time>2020-08-02T06:17:34.806Z</time>
      </trkpt>
      <trkpt lat="39.111461" lon="-0.465215">
        <ele>73.282785</ele>
        <time>2020-08-02T06:17:36.811Z</time>
      </trkpt>
      <trkpt lat="39.111351" lon="-0.465275">
        <ele>73.223382</ele>
        <time>2020-08-02T06:17:38.803Z</time>
      </trkpt>
      <trkpt lat="39.111262" lon="-0.465339">
        <ele>73.172696</ele>
        <time>2020-08-02T06:17:40.803Z</time>
      </trkpt>
      <trkpt lat="39.111156" lon="-0.465424">
        <ele>73.110609</ele>
        <time>2020-08-02T06:17:43.810Z</time>
      </trkpt>
      <trkpt lat="39.111067" lon="-0.465478">
        <ele>73.061688</ele>
        <time>2020-08-02T06:17:45.804Z</time>
      </trkpt>
      <trkpt lat="39.110969" lon="-0.465546">
        <ele>73.006335</ele>
        <time>2020-08-02T06:17:47.798Z</time>
      </trkpt>
      <trkpt lat="39.110858" lon="-0.465617">
        <ele>72.944707</ele>
        <time>2020-08-02T06:17:49.802Z</time>
      </trkpt>
      <trkpt lat="39.110757" lon="-0.465677">
        <ele>73.035488</ele>
        <time>2020-08-02T06:17:51.798Z</time>
      </trkpt>
      <trkpt lat="39.110684" lon="-0.465763">
        <ele>73.166738</ele>
        <time>2020-08-02T06:17:53.805Z</time>
      </trkpt>
      <trkpt lat="39.110604" lon="-0.465821">
        <ele>73.288547</ele>
        <time>2020-08-02T06:17:55.807Z</time>
      </trkpt>
      <trkpt lat="39.110514" lon="-0.465875">
        <ele>73.420290</ele>
        <time>2020-08-02T06:17:57.793Z</time>
      </trkpt>
      <trkpt lat="39.110422" lon="-0.465932">
        <ele>73.555753</ele>
        <time>2020-08-02T06:17:59.787Z</time>
      </trkpt>
      <trkpt lat="39.110309" lon="-0.465999">
        <ele>73.720818</ele>
        <time>2020-08-02T06:18:02.806Z</time>
      </trkpt>
      <trkpt lat="39.110191" lon="-0.466046">
        <ele>73.884718</ele>
        <time>2020-08-02T06:18:04.811Z</time>
      </trkpt>
      <trkpt lat="39.110105" lon="-0.466122">
        <ele>74.023097</ele>
        <time>2020-08-02T06:18:06.800Z</time>
      </trkpt>
      <trkpt lat="39.110009" lon="-0.466166">
        <ele>74.158310</ele>
        <time>2020-08-02T06:18:08.810Z</time>
      </trkpt>
      <trkpt lat="39.109893" lon="-0.466178">
        <ele>74.312743</ele>
        <time>2020-08-02T06:18:10.801Z</time>
      </trkpt>
      <trkpt lat="39.109800" lon="-0.466212">
        <ele>74.441028</ele>
        <time>2020-08-02T06:18:12.806Z</time>
      </trkpt>
      <trkpt lat="39.109695" lon="-0.466234">
        <ele>74.582197</ele>
        <time>2020-08-02T06:18:14.809Z</time>
      </trkpt>
      <trkpt lat="39.109576" lon="-0.466283">
        <ele>74.747980</ele>
        <time>2020-08-02T06:18:17.787Z</time>
      </trkpt>
      <trkpt lat="39.109442" lon="-0.466326">
        <ele>74.931233</ele>
        <time>2020-08-02T06:18:20.798Z</time>
      </trkpt>
      <trkpt lat="39.109333" lon="-0.466383">
        <ele>75.087336</ele>
        <time>2020-08-02T06:18:23.815Z</time>
      </trkpt>
      <trkpt lat="39.109244" lon="-0.466434">
        <ele>75.216592</ele>
        <time>2020-08-02T06:18:25.808Z</time>
      </trkpt>
      <trkpt lat="39.109140" lon="-0.466446">
        <ele>75.321814</ele>
        <time>2020-08-02T06:18:27.803Z</time>
      </trkpt>
      <trkpt lat="39.109046" lon="-0.466494">
        <ele>75.341433</ele>
        <time>2020-08-02T06:18:29.802Z</time>
      </trkpt>
      <trkpt lat="39.108918" lon="-0.466512">
        <ele>75.366416</ele>
        <time>2020-08-02T06:18:32.801Z</time>
      </trkpt>
      <trkpt lat="39.108814" lon="-0.466552">
        <ele>75.387475</ele>
        <time>2020-08-02T06:18:34.809Z</time>
      </trkpt>
      <trkpt lat="39.108686" lon="-0.466614">
        <ele>75.414008</ele>
        <time>2020-08-02T06:18:37.796Z</time>
      </trkpt>
      <trkpt lat="39.108581" lon="-0.466625">
        <ele>75.434448</ele>
        <time>2020-08-02T06:18:39.807Z</time>
      </trkpt>
      <trkpt lat="39.108479" lon="-0.466619">
        <ele>75.454260</ele>
        <time>2020-08-02T06:18:41.810Z</time>
      </trkpt>
      <trkpt lat="39.108386" lon="-0.466626">
        <ele>75.472336</ele>
        <time>2020-08-02T06:18:43.816Z</time>
      </trkpt>
      <trkpt lat="39.108259" lon="-0.466668">
        <ele>75.497776</ele>
        <time>2020-08-02T06:18:46.812Z</time>
      </trkpt>
      <trkpt lat="39.108155" lon="-0.466667">
        <ele>75.517956</ele>
        <time>2020-08-02T06:18:48.802Z</time>
      </trkpt>
      <trkpt lat="39.108066" lon="-0.466708">
        <ele>75.536295</ele>
        <time>2020-08-02T06:18:50.804Z</time>
      </trkpt>
      <trkpt lat="39.107933" lon="-0.466735">
        <ele>75.562420</ele>
        <time>2020-08-02T06:18:53.800Z</time>
      </trkpt>
      <trkpt lat="39.107836" lon="-0.466770">
        <ele>75.581965</ele>
        <time>2020-08-02T06:18:55.802Z</time>
      </trkpt>
      <trkpt lat="39.107745" lon="-0.466790">
        <ele>75.599877</ele>
        <time>2020-08-02T06:18:57.800Z</time>
      </trkpt>
      <trkpt lat="39.107648" lon="-0.466815">
        <ele>75.619071</ele>
        <time>2020-08-02T06:18:59.804Z</time>
      </trkpt>
      <trkpt lat="39.107525" lon="-0.466826">
        <ele>75.642994</ele>
        <time>2020-08-02T06:19:02.811Z</time>
      </trkpt>
      <trkpt lat="39.107392" lon="-0.466856">
        <ele>75.639218</ele>
        <time>2020-08-02T06:19:05.795Z</time>
      </trkpt>
      <trkpt lat="39.107285" lon="-0.466868">
        <ele>75.507455</ele>
        <time>2020-08-02T06:19:08.810Z</time>
      </trkpt>
      <trkpt lat="39.107164" lon="-0.466885">
        <ele>75.358133</ele>
        <time>2020-08-02T06:19:11.804Z</time>
      </trkpt>
      <trkpt lat="39.107071" lon="-0.466890">
        <ele>75.243942</ele>
        <time>2020-08-02T06:19:13.802Z</time>
      </trkpt>
      <trkpt lat="39.106959" lon="-0.466891">
        <ele>75.106538</ele>
        <time>2020-08-02T06:19:15.804Z</time>
      </trkpt>
      <trkpt lat="39.106860" lon="-0.466905">
        <ele>74.984356</ele>
        <time>2020-08-02T06:19:17.808Z</time>
      </trkpt>
      <trkpt lat="39.106724" lon="-0.466896">
        <ele>74.817292</ele>
        <time>2020-08-02T06:19:20.791Z</time>
      </trkpt>
      <trkpt lat="39.106624" lon="-0.466932">
        <ele>74.689916</ele>
        <time>2020-08-02T06:19:22.808Z</time>
      </trkpt>
      <trkpt lat="39.106528" lon="-0.466923">
        <ele>74.571832</ele>
        <time>2020-08-02T06:19:24.812Z</time>
      </trkpt>
      <trkpt lat="39.106436" lon="-0.466944">
        <ele>74.457210</ele>
        <time>2020-08-02T06:19:26.813Z</time>
      </trkpt>
      <trkpt lat="39.106346" lon="-0.466943">
        <ele>74.346795</ele>
        <time>2020-08-02T06:19:28.809Z</time>
      </trkpt>
      <trkpt lat="39.106253" lon="-0.466965">
        <ele>74.230796</ele>
        <time>2020-08-02T06:19:30.820Z</time>
      </trkpt>
      <trkpt lat="39.106164" lon="-0.466947">
        <ele>74.120275</ele>
        <time>2020-08-02T06:19:32.791Z</time>
      </trkpt>
      <trkpt lat="39.106042" lon="-0.466979">
        <ele>73.967538</ele>
        <time>2020-08-02T06:19:35.803Z</time>
      </trkpt>
      <trkpt lat="39.105948" lon="-0.467011">
        <ele>73.848263</ele>
        <time>2020-08-02T06:19:37.809Z</time>
      </trkpt>
      <trkpt lat="39.105852" lon="-0.467011">
        <ele>73.730491</ele>
        <time>2020-08-02T06:19:39.805Z</time>
      </trkpt>
      <trkpt lat="39.105750" lon="-0.467010">
        <ele>73.605354</ele>
        <time>2020-08-02T06:19:41.800Z</time>
      </trkpt>
      <trkpt lat="39.105644" lon="-0.467028">
        <ele>73.474190</ele>
        <time>2020-08-02T06:19:43.806Z</time>
      </trkpt>
      <trkpt lat="39.105545" lon="-0.467056">
        <ele>73.444939</ele>
        <time>2020-08-02T06:19:45.811Z</time>
      </trkpt>
      <trkpt lat="39.105418" lon="-0.467119">
        <ele>73.424057</ele>
        <time>2020-08-02T06:19:48.789Z</time>
      </trkpt>
      <trkpt lat="39.105293" lon="-0.467178">
        <ele>73.403629</ele>
        <time>2020-08-02T06:19:51.803Z</time>
      </trkpt>
      <trkpt lat="39.105163" lon="-0.467193">
        <ele>73.383601</ele>
        <time>2020-08-02T06:19:54.811Z</time>
      </trkpt>
      <trkpt lat="39.105082" lon="-0.467264">
        <ele>73.368569</ele>
        <time>2020-08-02T06:19:56.813Z</time>
      </trkpt>
      <trkpt lat="39.104953" lon="-0.467324">
        <ele>73.347524</ele>
        <time>2020-08-02T06:19:59.819Z</time>
      </trkpt>
      <trkpt lat="39.104840" lon="-0.467396">
        <ele>73.328180</ele>
        <time>2020-08-02T06:20:02.802Z</time>
      </trkpt>
      <trkpt lat="39.104739" lon="-0.467433">
        <ele>73.312068</ele>
        <time>2020-08-02T06:20:04.791Z</time>
      </trkpt>
      <trkpt lat="39.104644" lon="-0.467460">
        <ele>73.297140</ele>
        <time>2020-08-02T06:20:06.805Z</time>
      </trkpt>
      <trkpt lat="39.104536" lon="-0.467513">
        <ele>73.279406</ele>
        <time>2020-08-02T06:20:08.806Z</time>
      </trkpt>
      <trkpt lat="39.104407" lon="-0.467591">
        <ele>73.257541</ele>
        <time>2020-08-02T06:20:11.813Z</time>
      </trkpt>
      <trkpt lat="39.104281" lon="-0.467637">
        <ele>73.237445</ele>
        <time>2020-08-02T06:20:14.805Z</time>
      </trkpt>
      <trkpt lat="39.104196" lon="-0.467685">
        <ele>73.223204</ele>
        <time>2020-08-02T06:20:16.793Z</time>
      </trkpt>
      <trkpt lat="39.104074" lon="-0.467733">
        <ele>73.203630</ele>
        <time>2020-08-02T06:20:19.809Z</time>
      </trkpt>
      <trkpt lat="39.103934" lon="-0.467792">
        <ele>73.210046</ele>
        <time>2020-08-02T06:20:22.807Z</time>
      </trkpt>
      <trkpt lat="39.103830" lon="-0.467875">
        <ele>73.553371</ele>
        <time>2020-08-02T06:20:25.783Z</time>
      </trkpt>
      <trkpt lat="39.103714" lon="-0.467947">
        <ele>73.914729</ele>
        <time>2020-08-02T06:20:28.787Z</time>
      </trkpt>
      <trkpt lat="39.103590" lon="-0.468041">
        <ele>74.318493</ele>
        <time>2020-08-02T06:20:31.805Z</time>
      </trkpt>
      <trkpt lat="39.103499" lon="-0.468094">
        <ele>74.598764</ele>
        <time>2020-08-02T06:20:33.789Z</time>
      </trkpt>
      <trkpt lat="39.103419" lon="-0.468188">
        <ele>74.902612</ele>
        <time>2020-08-02T06:20:36.804Z</time>
      </trkpt>
      <trkpt lat="39.103349" lon="-0.468267">
        <ele>75.163762</ele>
        <time>2020-08-02T06:20:38.805Z</time>
      </trkpt>
      <trkpt lat="39.103273" lon="-0.468375">
        <ele>75.481289</ele>
        <time>2020-08-02T06:20:40.796Z</time>
      </trkpt>
      <trkpt lat="39.103205" lon="-0.468508">
        <ele>75.828171</ele>
        <time>2020-08-02T06:20:43.811Z</time>
      </trkpt>
      <trkpt lat="39.103091" lon="-0.468606">
        <ele>76.212778</ele>
        <time>2020-08-02T06:20:46.808Z</time>
      </trkpt>
      <trkpt lat="39.102997" lon="-0.468729">
        <ele>76.588760</ele>
        <time>2020-08-02T06:20:49.794Z</time>
      </trkpt>
      <trkpt lat="39.102880" lon="-0.468757">
        <ele>76.922742</ele>
        <time>2020-08-02T06:20:51.805Z</time>
      </trkpt>
      <trkpt lat="39.102775" lon="-0.468758">
        <ele>77.217440</ele>
        <time>2020-08-02T06:20:53.809Z</time>
      </trkpt>
      <trkpt lat="39.102679" lon="-0.468807">
        <ele>77.507236</ele>
        <time>2020-08-02T06:20:55.803Z</time>
      </trkpt>
      <trkpt lat="39.102582" lon="-0.468830">
        <ele>77.784043</ele>
        <time>2020-08-02T06:20:57.793Z</time>
      </trkpt>
      <trkpt lat="39.102463" lon="-0.468918">
        <ele>78.169110</ele>
        <time>2020-08-02T06:21:00.804Z</time>
      </trkpt>
      <trkpt lat="39.102360" lon="-0.468961">
        <ele>78.216269</ele>
        <time>2020-08-02T06:21:02.795Z</time>
      </trkpt>
      <trkpt lat="39.102237" lon="-0.469042">
        <ele>78.193445</ele>
        <time>2020-08-02T06:21:05.811Z</time>
      </trkpt>
      <trkpt lat="39.102165" lon="-0.469154">
        <ele>78.174796</ele>
        <time>2020-08-02T06:21:08.814Z</time>
      </trkpt>
      <trkpt lat="39.102026" lon="-0.469209">
        <ele>78.150769</ele>
        <time>2020-08-02T06:21:12.807Z</time>
      </trkpt>
      <trkpt lat="39.101947" lon="-0.469289">
        <ele>78.134167</ele>
        <time>2020-08-02T06:21:14.807Z</time>
      </trkpt>
      <trkpt lat="39.101806" lon="-0.469330">
        <ele>78.110283</ele>
        <time>2020-08-02T06:21:16.810Z</time>
      </trkpt>
      <trkpt lat="39.101744" lon="-0.469456">
        <ele>78.091152</ele>
        <time>2020-08-02T06:21:19.804Z</time>
      </trkpt>
      <trkpt lat="39.101652" lon="-0.469539">
        <ele>78.072595</ele>
        <time>2020-08-02T06:21:21.806Z</time>
      </trkpt>
      <trkpt lat="39.101543" lon="-0.469645">
        <ele>78.050031</ele>
        <time>2020-08-02T06:21:24.798Z</time>
      </trkpt>
      <trkpt lat="39.101451" lon="-0.469807">
        <ele>78.024290</ele>
        <time>2020-08-02T06:21:27.810Z</time>
      </trkpt>
      <trkpt lat="39.101350" lon="-0.469893">
        <ele>78.004287</ele>
        <time>2020-08-02T06:21:31.783Z</time>
      </trkpt>
      <trkpt lat="39.101278" lon="-0.470004">
        <ele>77.985737</ele>
        <time>2020-08-02T06:21:33.808Z</time>
      </trkpt>
      <trkpt lat="39.101171" lon="-0.470035">
        <ele>77.967615</ele>
        <time>2020-08-02T06:21:36.798Z</time>
      </trkpt>
      <trkpt lat="39.101063" lon="-0.470103">
        <ele>77.947753</ele>
        <time>2020-08-02T06:21:39.811Z</time>
      </trkpt>
      <trkpt lat="39.100984" lon="-0.470175">
        <ele>77.922986</ele>
        <time>2020-08-02T06:21:41.799Z</time>
      </trkpt>
      <trkpt lat="39.100882" lon="-0.470235">
        <ele>77.801346</ele>
        <time>2020-08-02T06:21:43.807Z</time>
      </trkpt>
      <trkpt lat="39.100793" lon="-0.470339">
        <ele>77.671006</ele>
        <time>2020-08-02T06:21:46.798Z</time>
      </trkpt>
      <trkpt lat="39.100713" lon="-0.470475">
        <ele>77.527333</ele>
        <time>2020-08-02T06:21:49.793Z</time>
      </trkpt>
      <trkpt lat="39.100616" lon="-0.470556">
        <ele>77.401938</ele>
        <time>2020-08-02T06:21:51.811Z</time>
      </trkpt>
      <trkpt lat="39.100489" lon="-0.470647">
        <ele>77.244293</ele>
        <time>2020-08-02T06:21:54.811Z</time>
      </trkpt>
      <trkpt lat="39.100400" lon="-0.470701">
        <ele>77.137572</ele>
        <time>2020-08-02T06:21:57.799Z</time>
      </trkpt>
      <trkpt lat="39.100284" lon="-0.470768">
        <ele>76.999665</ele>
        <time>2020-08-02T06:21:59.788Z</time>
      </trkpt>
      <trkpt lat="39.100215" lon="-0.470889">
        <ele>76.873250</ele>
        <time>2020-08-02T06:22:02.801Z</time>
      </trkpt>
      <trkpt lat="39.100180" lon="-0.471031">
        <ele>76.747815</ele>
        <time>2020-08-02T06:22:05.797Z</time>
      </trkpt>
      <trkpt lat="39.100099" lon="-0.471135">
        <ele>76.623767</ele>
        <time>2020-08-02T06:22:08.804Z</time>
      </trkpt>
      <trkpt lat="39.100053" lon="-0.471259">
        <ele>76.508057</ele>
        <time>2020-08-02T06:22:10.804Z</time>
      </trkpt>
      <trkpt lat="39.099953" lon="-0.471401">
        <ele>76.346621</ele>
        <time>2020-08-02T06:22:14.815Z</time>
      </trkpt>
      <trkpt lat="39.099852" lon="-0.471471">
        <ele>76.222207</ele>
        <time>2020-08-02T06:22:17.811Z</time>
      </trkpt>
      <trkpt lat="39.099756" lon="-0.471582">
        <ele>76.082280</ele>
        <time>2020-08-02T06:22:20.803Z</time>
      </trkpt>
      <trkpt lat="39.099723" lon="-0.471709">
        <ele>75.973742</ele>
        <time>2020-08-02T06:22:23.799Z</time>
      </trkpt>
      <trkpt lat="39.099659" lon="-0.471841">
        <ele>75.886775</ele>
        <time>2020-08-02T06:22:27.807Z</time>
      </trkpt>
      <trkpt lat="39.099574" lon="-0.471931">
        <ele>75.807564</ele>
        <time>2020-08-02T06:22:30.809Z</time>
      </trkpt>
      <trkpt lat="39.099475" lon="-0.472021">
        <ele>75.720331</ele>
        <time>2020-08-02T06:22:33.811Z</time>
      </trkpt>
      <trkpt lat="39.099373" lon="-0.472105">
        <ele>75.633174</ele>
        <time>2020-08-02T06:22:36.805Z</time>
      </trkpt>
      <trkpt lat="39.099267" lon="-0.472202">
        <ele>75.539567</ele>
        <time>2020-08-02T06:22:39.799Z</time>
      </trkpt>
      <trkpt lat="39.099195" lon="-0.472275">
        <ele>75.473603</ele>
        <time>2020-08-02T06:22:41.808Z</time>
      </trkpt>
      <trkpt lat="39.099118" lon="-0.472343">
        <ele>75.406393</ele>
        <time>2020-08-02T06:22:43.808Z</time>
      </trkpt>
      <trkpt lat="39.099027" lon="-0.472456">
        <ele>75.315401</ele>
        <time>2020-08-02T06:22:46.813Z</time>
      </trkpt>
      <trkpt lat="39.098945" lon="-0.472578">
        <ele>75.225220</ele>
        <time>2020-08-02T06:22:49.805Z</time>
      </trkpt>
      <trkpt lat="39.098861" lon="-0.472700">
        <ele>75.134089</ele>
        <time>2020-08-02T06:22:52.809Z</time>
      </trkpt>
      <trkpt lat="39.098772" lon="-0.472806">
        <ele>75.046829</ele>
        <time>2020-08-02T06:22:55.803Z</time>
      </trkpt>
      <trkpt lat="39.098654" lon="-0.472902">
        <ele>74.946353</ele>
        <time>2020-08-02T06:22:58.804Z</time>
      </trkpt>
      <trkpt lat="39.098562" lon="-0.473032">
        <ele>74.848046</ele>
        <time>2020-08-02T06:23:01.805Z</time>
      </trkpt>
      <trkpt lat="39.098492" lon="-0.473114">
        <ele>74.779932</ele>
        <time>2020-08-02T06:23:03.807Z</time>
      </trkpt>
      <trkpt lat="39.098391" lon="-0.473219">
        <ele>74.685852</ele>
        <time>2020-08-02T06:23:06.806Z</time>
      </trkpt>
      <trkpt lat="39.098283" lon="-0.473335">
        <ele>74.466186</ele>
        <time>2020-08-02T06:23:09.800Z</time>
      </trkpt>
      <trkpt lat="39.098210" lon="-0.473430">
        <ele>74.304089</ele>
        <time>2020-08-02T06:23:11.797Z</time>
      </trkpt>
      <trkpt lat="39.098125" lon="-0.473503">
        <ele>74.144495</ele>
        <time>2020-08-02T06:23:13.785Z</time>
      </trkpt>
      <trkpt lat="39.098044" lon="-0.473556">
        <ele>74.002563</ele>
        <time>2020-08-02T06:23:15.805Z</time>
      </trkpt>
      <trkpt lat="39.097978" lon="-0.473644">
        <ele>73.854181</ele>
        <time>2020-08-02T06:23:17.808Z</time>
      </trkpt>
      <trkpt lat="39.097876" lon="-0.473751">
        <ele>73.648688</ele>
        <time>2020-08-02T06:23:20.808Z</time>
      </trkpt>
      <trkpt lat="39.097765" lon="-0.473828">
        <ele>73.451733</ele>
        <time>2020-08-02T06:23:22.808Z</time>
      </trkpt>
      <trkpt lat="39.097689" lon="-0.473947">
        <ele>73.264870</ele>
        <time>2020-08-02T06:23:25.811Z</time>
      </trkpt>
      <trkpt lat="39.097599" lon="-0.474070">
        <ele>73.059898</ele>
        <time>2020-08-02T06:23:28.808Z</time>
      </trkpt>
      <trkpt lat="39.097532" lon="-0.474206">
        <ele>72.864580</ele>
        <time>2020-08-02T06:23:31.797Z</time>
      </trkpt>
      <trkpt lat="39.097416" lon="-0.474300">
        <ele>72.650487</ele>
        <time>2020-08-02T06:23:33.802Z</time>
      </trkpt>
      <trkpt lat="39.097336" lon="-0.474382">
        <ele>72.490777</ele>
        <time>2020-08-02T06:23:36.806Z</time>
      </trkpt>
      <trkpt lat="39.097206" lon="-0.474447">
        <ele>72.272916</ele>
        <time>2020-08-02T06:23:39.811Z</time>
      </trkpt>
      <trkpt lat="39.097156" lon="-0.474546">
        <ele>72.129698</ele>
        <time>2020-08-02T06:23:41.812Z</time>
      </trkpt>
      <trkpt lat="39.097064" lon="-0.474652">
        <ele>71.936879</ele>
        <time>2020-08-02T06:23:44.810Z</time>
      </trkpt>
      <trkpt lat="39.096978" lon="-0.474769">
        <ele>71.901224</ele>
        <time>2020-08-02T06:23:47.802Z</time>
      </trkpt>
      <trkpt lat="39.096892" lon="-0.474851">
        <ele>71.931200</ele>
        <time>2020-08-02T06:23:50.796Z</time>
      </trkpt>
      <trkpt lat="39.096819" lon="-0.474918">
        <ele>71.956313</ele>
        <time>2020-08-02T06:23:52.802Z</time>
      </trkpt>
      <trkpt lat="39.096727" lon="-0.475021">
        <ele>71.990461</ele>
        <time>2020-08-02T06:23:55.817Z</time>
      </trkpt>
      <trkpt lat="39.096642" lon="-0.475153">
        <ele>72.027758</ele>
        <time>2020-08-02T06:23:58.814Z</time>
      </trkpt>
      <trkpt lat="39.096565" lon="-0.475279">
        <ele>72.062631</ele>
        <time>2020-08-02T06:24:01.808Z</time>
      </trkpt>
      <trkpt lat="39.096487" lon="-0.475408">
        <ele>72.098191</ele>
        <time>2020-08-02T06:24:04.807Z</time>
      </trkpt>
      <trkpt lat="39.096387" lon="-0.475522">
        <ele>72.135602</ele>
        <time>2020-08-02T06:24:07.815Z</time>
      </trkpt>
      <trkpt lat="39.096323" lon="-0.475603">
        <ele>72.160737</ele>
        <time>2020-08-02T06:24:09.808Z</time>
      </trkpt>
      <trkpt lat="39.096234" lon="-0.475726">
        <ele>72.197305</ele>
        <time>2020-08-02T06:24:12.813Z</time>
      </trkpt>
      <trkpt lat="39.096149" lon="-0.475825">
        <ele>72.229409</ele>
        <time>2020-08-02T06:24:14.804Z</time>
      </trkpt>
      <trkpt lat="39.096072" lon="-0.475944">
        <ele>72.263100</ele>
        <time>2020-08-02T06:24:17.805Z</time>
      </trkpt>
      <trkpt lat="39.095983" lon="-0.476016">
        <ele>72.292544</ele>
        <time>2020-08-02T06:24:20.805Z</time>
      </trkpt>
      <trkpt lat="39.095908" lon="-0.476126">
        <ele>72.324384</ele>
        <time>2020-08-02T06:24:23.799Z</time>
      </trkpt>
      <trkpt lat="39.095821" lon="-0.476247">
        <ele>72.360252</ele>
        <time>2020-08-02T06:24:26.811Z</time>
      </trkpt>
      <trkpt lat="39.095749" lon="-0.476364">
        <ele>72.338305</ele>
        <time>2020-08-02T06:24:29.819Z</time>
      </trkpt>
      <trkpt lat="39.095669" lon="-0.476462">
        <ele>72.226944</ele>
        <time>2020-08-02T06:24:32.803Z</time>
      </trkpt>
      <trkpt lat="39.095585" lon="-0.476546">
        <ele>72.119673</ele>
        <time>2020-08-02T06:24:35.795Z</time>
      </trkpt>
      <trkpt lat="39.095504" lon="-0.476637">
        <ele>72.011257</ele>
        <time>2020-08-02T06:24:38.817Z</time>
      </trkpt>
      <trkpt lat="39.095406" lon="-0.476742">
        <ele>71.882674</ele>
        <time>2020-08-02T06:24:41.808Z</time>
      </trkpt>
      <trkpt lat="39.095329" lon="-0.476806">
        <ele>71.790233</ele>
        <time>2020-08-02T06:24:43.811Z</time>
      </trkpt>
      <trkpt lat="39.095226" lon="-0.476903">
        <ele>71.661526</ele>
        <time>2020-08-02T06:24:46.798Z</time>
      </trkpt>
      <trkpt lat="39.095153" lon="-0.477011">
        <ele>71.549391</ele>
        <time>2020-08-02T06:24:49.803Z</time>
      </trkpt>
      <trkpt lat="39.095078" lon="-0.477077">
        <ele>71.457765</ele>
        <time>2020-08-02T06:24:51.817Z</time>
      </trkpt>
      <trkpt lat="39.095002" lon="-0.477155">
        <ele>71.359742</ele>
        <time>2020-08-02T06:24:53.802Z</time>
      </trkpt>
      <trkpt lat="39.094918" lon="-0.477272">
        <ele>71.234949</ele>
        <time>2020-08-02T06:24:56.824Z</time>
      </trkpt>
      <trkpt lat="39.094847" lon="-0.477350">
        <ele>71.140819</ele>
        <time>2020-08-02T06:24:58.807Z</time>
      </trkpt>
      <trkpt lat="39.094763" lon="-0.477422">
        <ele>71.039038</ele>
        <time>2020-08-02T06:25:00.808Z</time>
      </trkpt>
      <trkpt lat="39.094684" lon="-0.477496">
        <ele>70.940504</ele>
        <time>2020-08-02T06:25:02.802Z</time>
      </trkpt>
      <trkpt lat="39.094617" lon="-0.477581">
        <ele>70.845646</ele>
        <time>2020-08-02T06:25:04.811Z</time>
      </trkpt>
      <trkpt lat="39.094562" lon="-0.477674">
        <ele>70.754098</ele>
        <time>2020-08-02T06:25:06.809Z</time>
      </trkpt>
      <trkpt lat="39.094469" lon="-0.477780">
        <ele>70.628834</ele>
        <time>2020-08-02T06:25:09.803Z</time>
      </trkpt>
      <trkpt lat="39.094400" lon="-0.477903">
        <ele>70.728525</ele>
        <time>2020-08-02T06:25:12.812Z</time>
      </trkpt>
      <trkpt lat="39.094314" lon="-0.478030">
        <ele>71.108506</ele>
        <time>2020-08-02T06:25:15.805Z</time>
      </trkpt>
      <trkpt lat="39.094238" lon="-0.478109">
        <ele>71.392159</ele>
        <time>2020-08-02T06:25:17.800Z</time>
      </trkpt>
      <trkpt lat="39.094169" lon="-0.478206">
        <ele>71.688800</ele>
        <time>2020-08-02T06:25:19.799Z</time>
      </trkpt>
      <trkpt lat="39.094088" lon="-0.478295">
        <ele>71.998027</ele>
        <time>2020-08-02T06:25:22.809Z</time>
      </trkpt>
      <trkpt lat="39.094027" lon="-0.478385">
        <ele>72.267411</ele>
        <time>2020-08-02T06:25:25.809Z</time>
      </trkpt>
      <trkpt lat="39.093947" lon="-0.478439">
        <ele>72.529755</ele>
        <time>2020-08-02T06:25:28.800Z</time>
      </trkpt>
      <trkpt lat="39.093861" lon="-0.478527">
        <ele>72.848766</ele>
        <time>2020-08-02T06:25:31.803Z</time>
      </trkpt>
      <trkpt lat="39.093769" lon="-0.478621">
        <ele>73.189839</ele>
        <time>2020-08-02T06:25:34.815Z</time>
      </trkpt>
      <trkpt lat="39.093678" lon="-0.478729">
        <ele>73.549227</ele>
        <time>2020-08-02T06:25:37.792Z</time>
      </trkpt>
      <trkpt lat="39.093607" lon="-0.478846">
        <ele>73.884061</ele>
        <time>2020-08-02T06:25:39.799Z</time>
      </trkpt>
      <trkpt lat="39.093539" lon="-0.478972">
        <ele>74.230053</ele>
        <time>2020-08-02T06:25:42.801Z</time>
      </trkpt>
      <trkpt lat="39.093455" lon="-0.479089">
        <ele>74.589381</ele>
        <time>2020-08-02T06:25:46.788Z</time>
      </trkpt>
      <trkpt lat="39.093373" lon="-0.479167">
        <ele>74.885457</ele>
        <time>2020-08-02T06:25:49.786Z</time>
      </trkpt>
      <trkpt lat="39.093285" lon="-0.479281">
        <ele>75.247948</ele>
        <time>2020-08-02T06:25:52.806Z</time>
      </trkpt>
      <trkpt lat="39.093190" lon="-0.479371">
        <ele>75.590474</ele>
        <time>2020-08-02T06:25:55.801Z</time>
      </trkpt>
      <trkpt lat="39.093098" lon="-0.479471">
        <ele>75.686050</ele>
        <time>2020-08-02T06:25:58.811Z</time>
      </trkpt>
      <trkpt lat="39.093013" lon="-0.479592">
        <ele>75.426702</ele>
        <time>2020-08-02T06:26:01.818Z</time>
      </trkpt>
      <trkpt lat="39.092932" lon="-0.479707">
        <ele>75.179918</ele>
        <time>2020-08-02T06:26:04.815Z</time>
      </trkpt>
      <trkpt lat="39.092869" lon="-0.479809">
        <ele>74.972766</ele>
        <time>2020-08-02T06:26:07.801Z</time>
      </trkpt>
      <trkpt lat="39.092816" lon="-0.479915">
        <ele>74.772391</ele>
        <time>2020-08-02T06:26:10.811Z</time>
      </trkpt>
      <trkpt lat="39.092741" lon="-0.480016">
        <ele>74.550260</ele>
        <time>2020-08-02T06:26:13.806Z</time>
      </trkpt>
      <trkpt lat="39.092652" lon="-0.480095">
        <ele>74.328975</ele>
        <time>2020-08-02T06:26:16.823Z</time>
      </trkpt>
      <trkpt lat="39.092556" lon="-0.480176">
        <ele>74.094019</ele>
        <time>2020-08-02T06:26:19.809Z</time>
      </trkpt>
      <trkpt lat="39.092479" lon="-0.480278">
        <ele>73.867901</ele>
        <time>2020-08-02T06:26:22.813Z</time>
      </trkpt>
      <trkpt lat="39.092432" lon="-0.480413">
        <ele>73.632774</ele>
        <time>2020-08-02T06:26:25.814Z</time>
      </trkpt>
      <trkpt lat="39.092377" lon="-0.480548">
        <ele>73.390482</ele>
        <time>2020-08-02T06:26:28.813Z</time>
      </trkpt>
      <trkpt lat="39.092332" lon="-0.480685">
        <ele>73.154078</ele>
        <time>2020-08-02T06:26:31.807Z</time>
      </trkpt>
      <trkpt lat="39.092241" lon="-0.480792">
        <ele>72.901831</ele>
        <time>2020-08-02T06:26:34.808Z</time>
      </trkpt>
      <trkpt lat="39.092119" lon="-0.480859">
        <ele>72.630291</ele>
        <time>2020-08-02T06:26:37.805Z</time>
      </trkpt>
      <trkpt lat="39.091995" lon="-0.480912">
        <ele>72.362796</ele>
        <time>2020-08-02T06:26:39.785Z</time>
      </trkpt>
      <trkpt lat="39.091888" lon="-0.480944">
        <ele>72.137889</ele>
        <time>2020-08-02T06:26:41.792Z</time>
      </trkpt>
      <trkpt lat="39.091802" lon="-0.481015">
        <ele>72.161052</ele>
        <time>2020-08-02T06:26:43.803Z</time>
      </trkpt>
      <trkpt lat="39.091700" lon="-0.481148">
        <ele>72.248203</ele>
        <time>2020-08-02T06:26:46.794Z</time>
      </trkpt>
      <trkpt lat="39.091615" lon="-0.481219">
        <ele>72.309038</ele>
        <time>2020-08-02T06:26:49.802Z</time>
      </trkpt>
      <trkpt lat="39.091515" lon="-0.481281">
        <ele>72.375684</ele>
        <time>2020-08-02T06:26:52.809Z</time>
      </trkpt>
      <trkpt lat="39.091391" lon="-0.481356">
        <ele>72.457949</ele>
        <time>2020-08-02T06:26:55.800Z</time>
      </trkpt>
      <trkpt lat="39.091326" lon="-0.481489">
        <ele>72.531208</ele>
        <time>2020-08-02T06:26:58.814Z</time>
      </trkpt>
      <trkpt lat="39.091230" lon="-0.481616">
        <ele>72.613839</ele>
        <time>2020-08-02T06:27:01.798Z</time>
      </trkpt>
      <trkpt lat="39.091139" lon="-0.481685">
        <ele>72.677250</ele>
        <time>2020-08-02T06:27:03.805Z</time>
      </trkpt>
      <trkpt lat="39.091058" lon="-0.481813">
        <ele>72.754230</ele>
        <time>2020-08-02T06:27:06.813Z</time>
      </trkpt>
      <trkpt lat="39.090962" lon="-0.481919">
        <ele>72.830157</ele>
        <time>2020-08-02T06:27:09.808Z</time>
      </trkpt>
      <trkpt lat="39.090869" lon="-0.481992">
        <ele>72.895557</ele>
        <time>2020-08-02T06:27:11.809Z</time>
      </trkpt>
      <trkpt lat="39.090756" lon="-0.482077">
        <ele>72.974138</ele>
        <time>2020-08-02T06:27:14.808Z</time>
      </trkpt>
      <trkpt lat="39.090718" lon="-0.482192">
        <ele>73.032396</ele>
        <time>2020-08-02T06:27:16.837Z</time>
      </trkpt>
      <trkpt lat="39.090659" lon="-0.482288">
        <ele>73.089473</ele>
        <time>2020-08-02T06:27:18.799Z</time>
      </trkpt>
      <trkpt lat="39.090571" lon="-0.482369">
        <ele>73.154422</ele>
        <time>2020-08-02T06:27:20.815Z</time>
      </trkpt>
      <trkpt lat="39.090521" lon="-0.482469">
        <ele>73.345697</ele>
        <time>2020-08-02T06:27:22.814Z</time>
      </trkpt>
      <trkpt lat="39.090479" lon="-0.482584">
        <ele>73.782208</ele>
        <time>2020-08-02T06:27:24.811Z</time>
      </trkpt>
      <trkpt lat="39.090375" lon="-0.482700">
        <ele>74.390908</ele>
        <time>2020-08-02T06:27:27.803Z</time>
      </trkpt>
      <trkpt lat="39.090283" lon="-0.482789">
        <ele>74.899997</ele>
        <time>2020-08-02T06:27:30.803Z</time>
      </trkpt>
      <trkpt lat="39.090196" lon="-0.482854">
        <ele>75.345023</ele>
        <time>2020-08-02T06:27:32.812Z</time>
      </trkpt>
      <trkpt lat="39.090133" lon="-0.482941">
        <ele>75.753681</ele>
        <time>2020-08-02T06:27:34.795Z</time>
      </trkpt>
      <trkpt lat="39.090028" lon="-0.483050">
        <ele>76.350365</ele>
        <time>2020-08-02T06:27:37.805Z</time>
      </trkpt>
      <trkpt lat="39.089965" lon="-0.483163">
        <ele>76.828216</ele>
        <time>2020-08-02T06:27:40.808Z</time>
      </trkpt>
      <trkpt lat="39.089868" lon="-0.483263">
        <ele>77.377944</ele>
        <time>2020-08-02T06:27:43.796Z</time>
      </trkpt>
      <trkpt lat="39.089785" lon="-0.483383">
        <ele>77.929994</ele>
        <time>2020-08-02T06:27:46.809Z</time>
      </trkpt>
      <trkpt lat="39.089711" lon="-0.483497">
        <ele>78.440415</ele>
        <time>2020-08-02T06:27:49.799Z</time>
      </trkpt>
      <trkpt lat="39.089614" lon="-0.483620">
        <ele>79.042664</ele>
        <time>2020-08-02T06:27:52.805Z</time>
      </trkpt>
      <trkpt lat="39.089516" lon="-0.483719">
        <ele>79.593729</ele>
        <time>2020-08-02T06:27:55.806Z</time>
      </trkpt>
      <trkpt lat="39.089429" lon="-0.483770">
        <ele>80.016685</ele>
        <time>2020-08-02T06:27:57.804Z</time>
      </trkpt>
      <trkpt lat="39.089338" lon="-0.483884">
        <ele>80.578340</ele>
        <time>2020-08-02T06:28:00.812Z</time>
      </trkpt>
      <trkpt lat="39.089251" lon="-0.483988">
        <ele>81.103506</ele>
        <time>2020-08-02T06:28:03.805Z</time>
      </trkpt>
      <trkpt lat="39.089181" lon="-0.484067">
        <ele>81.286854</ele>
        <time>2020-08-02T06:28:06.796Z</time>
      </trkpt>
      <trkpt lat="39.089084" lon="-0.484162">
        <ele>81.491005</ele>
        <time>2020-08-02T06:28:09.809Z</time>
      </trkpt>
      <trkpt lat="39.088995" lon="-0.484249">
        <ele>81.678188</ele>
        <time>2020-08-02T06:28:11.808Z</time>
      </trkpt>
      <trkpt lat="39.088912" lon="-0.484372">
        <ele>81.890146</ele>
        <time>2020-08-02T06:28:14.799Z</time>
      </trkpt>
      <trkpt lat="39.088884" lon="-0.484484">
        <ele>82.043169</ele>
        <time>2020-08-02T06:28:16.804Z</time>
      </trkpt>
      <trkpt lat="39.088792" lon="-0.484627">
        <ele>82.284716</ele>
        <time>2020-08-02T06:28:19.802Z</time>
      </trkpt>
      <trkpt lat="39.088706" lon="-0.484713">
        <ele>82.467121</ele>
        <time>2020-08-02T06:28:22.798Z</time>
      </trkpt>
      <trkpt lat="39.088607" lon="-0.484818">
        <ele>82.681971</ele>
        <time>2020-08-02T06:28:25.798Z</time>
      </trkpt>
      <trkpt lat="39.088550" lon="-0.484941">
        <ele>82.868271</ele>
        <time>2020-08-02T06:28:28.805Z</time>
      </trkpt>
      <trkpt lat="39.088463" lon="-0.485033">
        <ele>83.056854</ele>
        <time>2020-08-02T06:28:31.812Z</time>
      </trkpt>
      <trkpt lat="39.088388" lon="-0.485123">
        <ele>83.228581</ele>
        <time>2020-08-02T06:28:34.806Z</time>
      </trkpt>
      <trkpt lat="39.088289" lon="-0.485219">
        <ele>83.436190</ele>
        <time>2020-08-02T06:28:37.800Z</time>
      </trkpt>
      <trkpt lat="39.088196" lon="-0.485305">
        <ele>83.627995</ele>
        <time>2020-08-02T06:28:40.809Z</time>
      </trkpt>
      <trkpt lat="39.088118" lon="-0.485405">
        <ele>83.812365</ele>
        <time>2020-08-02T06:28:43.807Z</time>
      </trkpt>
      <trkpt lat="39.088021" lon="-0.485486">
        <ele>84.006041</ele>
        <time>2020-08-02T06:28:46.802Z</time>
      </trkpt>
      <trkpt lat="39.087922" lon="-0.485570">
        <ele>84.165119</ele>
        <time>2020-08-02T06:28:49.808Z</time>
      </trkpt>
      <trkpt lat="39.087834" lon="-0.485638">
        <ele>84.180310</ele>
        <time>2020-08-02T06:28:52.801Z</time>
      </trkpt>
      <trkpt lat="39.087758" lon="-0.485703">
        <ele>84.193814</ele>
        <time>2020-08-02T06:28:55.809Z</time>
      </trkpt>
      <trkpt lat="39.087674" lon="-0.485783">
        <ele>84.209278</ele>
        <time>2020-08-02T06:28:59.806Z</time>
      </trkpt>
      <trkpt lat="39.087600" lon="-0.485855">
        <ele>84.223006</ele>
        <time>2020-08-02T06:29:03.800Z</time>
      </trkpt>
      <trkpt lat="39.087505" lon="-0.485938">
        <ele>84.239998</ele>
        <time>2020-08-02T06:29:08.810Z</time>
      </trkpt>
      <trkpt lat="39.087427" lon="-0.486008">
        <ele>84.254071</ele>
        <time>2020-08-02T06:29:11.805Z</time>
      </trkpt>
      <trkpt lat="39.087356" lon="-0.486100">
        <ele>84.268978</ele>
        <time>2020-08-02T06:29:14.800Z</time>
      </trkpt>
      <trkpt lat="39.087274" lon="-0.486191">
        <ele>84.285000</ele>
        <time>2020-08-02T06:29:17.802Z</time>
      </trkpt>
      <trkpt lat="39.087180" lon="-0.486289">
        <ele>84.302901</ele>
        <time>2020-08-02T06:29:20.799Z</time>
      </trkpt>
      <trkpt lat="39.087106" lon="-0.486416">
        <ele>84.321148</ele>
        <time>2020-08-02T06:29:23.792Z</time>
      </trkpt>
      <trkpt lat="39.087018" lon="-0.486517">
        <ele>84.338595</ele>
        <time>2020-08-02T06:29:26.804Z</time>
      </trkpt>
      <trkpt lat="39.086908" lon="-0.486610">
        <ele>84.358073</ele>
        <time>2020-08-02T06:29:29.820Z</time>
      </trkpt>
      <trkpt lat="39.086805" lon="-0.486699">
        <ele>84.376432</ele>
        <time>2020-08-02T06:29:32.825Z</time>
      </trkpt>
      <trkpt lat="39.086710" lon="-0.486765">
        <ele>84.392411</ele>
        <time>2020-08-02T06:29:35.803Z</time>
      </trkpt>
      <trkpt lat="39.086625" lon="-0.486810">
        <ele>84.406015</ele>
        <time>2020-08-02T06:29:38.805Z</time>
      </trkpt>
      <trkpt lat="39.086548" lon="-0.486891">
        <ele>84.420731</ele>
        <time>2020-08-02T06:29:41.807Z</time>
      </trkpt>
      <trkpt lat="39.086453" lon="-0.486971">
        <ele>84.340143</ele>
        <time>2020-08-02T06:29:44.798Z</time>
      </trkpt>
      <trkpt lat="39.086337" lon="-0.487033">
        <ele>84.177255</ele>
        <time>2020-08-02T06:29:47.793Z</time>
      </trkpt>
      <trkpt lat="39.086248" lon="-0.487072">
        <ele>84.055327</ele>
        <time>2020-08-02T06:29:49.807Z</time>
      </trkpt>
      <trkpt lat="39.086155" lon="-0.487090">
        <ele>83.933351</ele>
        <time>2020-08-02T06:29:51.812Z</time>
      </trkpt>
      <trkpt lat="39.086041" lon="-0.487102">
        <ele>83.784998</ele>
        <time>2020-08-02T06:29:54.786Z</time>
      </trkpt>
      <trkpt lat="39.085928" lon="-0.487162">
        <ele>83.626476</ele>
        <time>2020-08-02T06:29:57.815Z</time>
      </trkpt>
      <trkpt lat="39.085858" lon="-0.487270">
        <ele>83.484826</ele>
        <time>2020-08-02T06:30:00.812Z</time>
      </trkpt>
      <trkpt lat="39.085833" lon="-0.487411">
        <ele>83.339218</ele>
        <time>2020-08-02T06:30:03.804Z</time>
      </trkpt>
      <trkpt lat="39.085724" lon="-0.487382">
        <ele>83.194861</ele>
        <time>2020-08-02T06:30:10.799Z</time>
      </trkpt>
      <trkpt lat="39.085611" lon="-0.487352">
        <ele>83.045219</ele>
        <time>2020-08-02T06:30:13.793Z</time>
      </trkpt>
      <trkpt lat="39.085527" lon="-0.487394">
        <ele>82.928352</ele>
        <time>2020-08-02T06:30:15.788Z</time>
      </trkpt>
      <trkpt lat="39.085443" lon="-0.487437">
        <ele>82.811117</ele>
        <time>2020-08-02T06:30:17.783Z</time>
      </trkpt>
      <trkpt lat="39.085299" lon="-0.487500">
        <ele>82.613872</ele>
        <time>2020-08-02T06:30:20.805Z</time>
      </trkpt>
      <trkpt lat="39.085216" lon="-0.487554">
        <ele>82.493271</ele>
        <time>2020-08-02T06:30:22.801Z</time>
      </trkpt>
      <trkpt lat="39.085118" lon="-0.487602">
        <ele>82.357288</ele>
        <time>2020-08-02T06:30:24.803Z</time>
      </trkpt>
      <trkpt lat="39.085021" lon="-0.487627">
        <ele>82.228984</ele>
        <time>2020-08-02T06:30:26.798Z</time>
      </trkpt>
      <trkpt lat="39.084917" lon="-0.487664">
        <ele>82.087596</ele>
        <time>2020-08-02T06:30:28.807Z</time>
      </trkpt>
      <trkpt lat="39.084827" lon="-0.487684">
        <ele>81.938701</ele>
        <time>2020-08-02T06:30:30.806Z</time>
      </trkpt>
      <trkpt lat="39.084727" lon="-0.487695">
        <ele>81.775076</ele>
        <time>2020-08-02T06:30:32.803Z</time>
      </trkpt>
      <trkpt lat="39.084616" lon="-0.487701">
        <ele>81.593952</ele>
        <time>2020-08-02T06:30:35.807Z</time>
      </trkpt>
      <trkpt lat="39.084503" lon="-0.487717">
        <ele>81.408617</ele>
        <time>2020-08-02T06:30:38.803Z</time>
      </trkpt>
      <trkpt lat="39.084391" lon="-0.487728">
        <ele>81.225492</ele>
        <time>2020-08-02T06:30:41.808Z</time>
      </trkpt>
      <trkpt lat="39.084281" lon="-0.487729">
        <ele>81.046153</ele>
        <time>2020-08-02T06:30:45.805Z</time>
      </trkpt>
      <trkpt lat="39.084179" lon="-0.487758">
        <ele>80.875860</ele>
        <time>2020-08-02T06:30:48.801Z</time>
      </trkpt>
      <trkpt lat="39.084066" lon="-0.487772">
        <ele>80.690785</ele>
        <time>2020-08-02T06:30:51.818Z</time>
      </trkpt>
      <trkpt lat="39.083944" lon="-0.487761">
        <ele>80.491400</ele>
        <time>2020-08-02T06:30:54.800Z</time>
      </trkpt>
      <trkpt lat="39.083833" lon="-0.487763">
        <ele>80.310417</ele>
        <time>2020-08-02T06:30:56.798Z</time>
      </trkpt>
      <trkpt lat="39.083732" lon="-0.487777">
        <ele>80.144805</ele>
        <time>2020-08-02T06:30:58.808Z</time>
      </trkpt>
      <trkpt lat="39.083595" lon="-0.487799">
        <ele>79.919724</ele>
        <time>2020-08-02T06:31:01.800Z</time>
      </trkpt>
      <trkpt lat="39.083548" lon="-0.487692">
        <ele>79.764139</ele>
        <time>2020-08-02T06:31:02.809Z</time>
      </trkpt>
      <trkpt lat="39.083426" lon="-0.487672">
        <ele>79.563637</ele>
        <time>2020-08-02T06:31:04.804Z</time>
      </trkpt>
      <trkpt lat="39.083316" lon="-0.487646">
        <ele>79.381309</ele>
        <time>2020-08-02T06:31:06.807Z</time>
      </trkpt>
      <trkpt lat="39.083218" lon="-0.487582">
        <ele>79.202182</ele>
        <time>2020-08-02T06:31:08.816Z</time>
      </trkpt>
      <trkpt lat="39.083084" lon="-0.487518">
        <ele>79.007269</ele>
        <time>2020-08-02T06:31:11.794Z</time>
      </trkpt>
      <trkpt lat="39.083034" lon="-0.487627">
        <ele>78.878632</ele>
        <time>2020-08-02T06:31:12.815Z</time>
      </trkpt>
      <trkpt lat="39.082970" lon="-0.487495">
        <ele>78.720506</ele>
        <time>2020-08-02T06:31:13.791Z</time>
      </trkpt>
      <trkpt lat="39.082860" lon="-0.487490">
        <ele>78.576438</ele>
        <time>2020-08-02T06:31:16.807Z</time>
      </trkpt>
      <trkpt lat="39.082786" lon="-0.487650">
        <ele>78.387208</ele>
        <time>2020-08-02T06:31:18.806Z</time>
      </trkpt>
      <trkpt lat="39.082688" lon="-0.487630">
        <ele>78.257336</ele>
        <time>2020-08-02T06:31:21.810Z</time>
      </trkpt>
      <trkpt lat="39.082564" lon="-0.487624">
        <ele>78.094918</ele>
        <time>2020-08-02T06:31:24.812Z</time>
      </trkpt>
      <trkpt lat="39.082450" lon="-0.487625">
        <ele>77.945700</ele>
        <time>2020-08-02T06:31:27.805Z</time>
      </trkpt>
      <trkpt lat="39.082348" lon="-0.487633">
        <ele>77.811946</ele>
        <time>2020-08-02T06:31:30.806Z</time>
      </trkpt>
      <trkpt lat="39.082245" lon="-0.487683">
        <ele>77.667875</ele>
        <time>2020-08-02T06:31:33.808Z</time>
      </trkpt>
      <trkpt lat="39.082147" lon="-0.487692">
        <ele>77.539278</ele>
        <time>2020-08-02T06:31:36.805Z</time>
      </trkpt>
      <trkpt lat="39.082036" lon="-0.487626">
        <ele>77.379261</ele>
        <time>2020-08-02T06:31:39.818Z</time>
      </trkpt>
      <trkpt lat="39.081944" lon="-0.487516">
        <ele>77.214970</ele>
        <time>2020-08-02T06:31:42.794Z</time>
      </trkpt>
      <trkpt lat="39.081836" lon="-0.487402">
        <ele>77.032217</ele>
        <time>2020-08-02T06:31:45.818Z</time>
      </trkpt>
      <trkpt lat="39.081756" lon="-0.487322">
        <ele>76.899660</ele>
        <time>2020-08-02T06:31:47.814Z</time>
      </trkpt>
      <trkpt lat="39.081630" lon="-0.487262">
        <ele>76.628238</ele>
        <time>2020-08-02T06:31:50.803Z</time>
      </trkpt>
      <trkpt lat="39.081541" lon="-0.487194">
        <ele>76.339148</ele>
        <time>2020-08-02T06:31:52.800Z</time>
      </trkpt>
      <trkpt lat="39.081437" lon="-0.487112">
        <ele>75.998494</ele>
        <time>2020-08-02T06:31:54.815Z</time>
      </trkpt>
      <trkpt lat="39.081316" lon="-0.487042">
        <ele>75.627924</ele>
        <time>2020-08-02T06:31:57.806Z</time>
      </trkpt>
      <trkpt lat="39.081221" lon="-0.486968">
        <ele>75.317768</ele>
        <time>2020-08-02T06:32:00.803Z</time>
      </trkpt>
      <trkpt lat="39.081118" lon="-0.486894">
        <ele>74.988283</ele>
        <time>2020-08-02T06:32:03.800Z</time>
      </trkpt>
      <trkpt lat="39.081022" lon="-0.486816">
        <ele>74.671191</ele>
        <time>2020-08-02T06:32:05.801Z</time>
      </trkpt>
      <trkpt lat="39.080904" lon="-0.486761">
        <ele>74.320609</ele>
        <time>2020-08-02T06:32:08.786Z</time>
      </trkpt>
      <trkpt lat="39.080815" lon="-0.486725">
        <ele>74.059993</ele>
        <time>2020-08-02T06:32:10.792Z</time>
      </trkpt>
      <trkpt lat="39.080683" lon="-0.486650">
        <ele>73.656937</ele>
        <time>2020-08-02T06:32:13.799Z</time>
      </trkpt>
      <trkpt lat="39.080568" lon="-0.486565">
        <ele>73.286525</ele>
        <time>2020-08-02T06:32:16.796Z</time>
      </trkpt>
      <trkpt lat="39.080462" lon="-0.486509">
        <ele>72.966448</ele>
        <time>2020-08-02T06:32:18.803Z</time>
      </trkpt>
      <trkpt lat="39.080348" lon="-0.486438">
        <ele>72.612688</ele>
        <time>2020-08-02T06:32:22.816Z</time>
      </trkpt>
      <trkpt lat="39.080252" lon="-0.486362">
        <ele>72.297888</ele>
        <time>2020-08-02T06:32:25.808Z</time>
      </trkpt>
      <trkpt lat="39.080145" lon="-0.486385">
        <ele>71.994820</ele>
        <time>2020-08-02T06:32:28.800Z</time>
      </trkpt>
      <trkpt lat="39.080049" lon="-0.486343">
        <ele>71.820336</ele>
        <time>2020-08-02T06:32:31.791Z</time>
      </trkpt>
      <trkpt lat="39.079952" lon="-0.486321">
        <ele>71.963731</ele>
        <time>2020-08-02T06:32:34.798Z</time>
      </trkpt>
      <trkpt lat="39.079838" lon="-0.486263">
        <ele>72.142180</ele>
        <time>2020-08-02T06:32:37.811Z</time>
      </trkpt>
      <trkpt lat="39.079732" lon="-0.486185">
        <ele>72.319909</ele>
        <time>2020-08-02T06:32:40.805Z</time>
      </trkpt>
      <trkpt lat="39.079623" lon="-0.486134">
        <ele>72.488746</ele>
        <time>2020-08-02T06:32:43.801Z</time>
      </trkpt>
      <trkpt lat="39.079513" lon="-0.486057">
        <ele>72.671012</ele>
        <time>2020-08-02T06:32:46.792Z</time>
      </trkpt>
      <trkpt lat="39.079416" lon="-0.485973">
        <ele>72.841179</ele>
        <time>2020-08-02T06:32:49.798Z</time>
      </trkpt>
      <trkpt lat="39.079335" lon="-0.485875">
        <ele>73.002964</ele>
        <time>2020-08-02T06:32:52.807Z</time>
      </trkpt>
      <trkpt lat="39.079251" lon="-0.485797">
        <ele>73.153720</ele>
        <time>2020-08-02T06:32:55.807Z</time>
      </trkpt>
      <trkpt lat="39.079161" lon="-0.485722">
        <ele>73.309779</ele>
        <time>2020-08-02T06:32:58.795Z</time>
      </trkpt>
      <trkpt lat="39.079075" lon="-0.485644">
        <ele>73.462907</ele>
        <time>2020-08-02T06:33:01.807Z</time>
      </trkpt>
      <trkpt lat="39.078985" lon="-0.485554">
        <ele>73.628785</ele>
        <time>2020-08-02T06:33:04.807Z</time>
      </trkpt>
      <trkpt lat="39.078885" lon="-0.485464">
        <ele>73.806388</ele>
        <time>2020-08-02T06:33:07.821Z</time>
      </trkpt>
      <trkpt lat="39.078779" lon="-0.485390">
        <ele>73.981920</ele>
        <time>2020-08-02T06:33:10.800Z</time>
      </trkpt>
      <trkpt lat="39.078681" lon="-0.485311">
        <ele>74.150232</ele>
        <time>2020-08-02T06:33:13.811Z</time>
      </trkpt>
      <trkpt lat="39.078581" lon="-0.485228">
        <ele>74.323426</ele>
        <time>2020-08-02T06:33:16.792Z</time>
      </trkpt>
      <trkpt lat="39.078453" lon="-0.485159">
        <ele>74.357727</ele>
        <time>2020-08-02T06:33:19.806Z</time>
      </trkpt>
      <trkpt lat="39.078364" lon="-0.485111">
        <ele>74.307762</ele>
        <time>2020-08-02T06:33:21.806Z</time>
      </trkpt>
      <trkpt lat="39.078247" lon="-0.485064">
        <ele>74.244294</ele>
        <time>2020-08-02T06:33:24.816Z</time>
      </trkpt>
      <trkpt lat="39.078128" lon="-0.485020">
        <ele>74.180181</ele>
        <time>2020-08-02T06:33:27.805Z</time>
      </trkpt>
      <trkpt lat="39.078009" lon="-0.484972">
        <ele>74.115605</ele>
        <time>2020-08-02T06:33:30.814Z</time>
      </trkpt>
      <trkpt lat="39.077908" lon="-0.484900">
        <ele>74.055827</ele>
        <time>2020-08-02T06:33:33.807Z</time>
      </trkpt>
      <trkpt lat="39.077792" lon="-0.484848">
        <ele>73.992222</ele>
        <time>2020-08-02T06:33:36.813Z</time>
      </trkpt>
      <trkpt lat="39.077700" lon="-0.484767">
        <ele>73.934514</ele>
        <time>2020-08-02T06:33:39.807Z</time>
      </trkpt>
      <trkpt lat="39.077594" lon="-0.484674">
        <ele>73.868099</ele>
        <time>2020-08-02T06:33:42.801Z</time>
      </trkpt>
      <trkpt lat="39.077495" lon="-0.484606">
        <ele>73.809998</ele>
        <time>2020-08-02T06:33:44.862Z</time>
      </trkpt>
      <trkpt lat="39.077391" lon="-0.484558">
        <ele>73.752788</ele>
        <time>2020-08-02T06:33:47.807Z</time>
      </trkpt>
      <trkpt lat="39.077269" lon="-0.484527">
        <ele>73.688392</ele>
        <time>2020-08-02T06:33:50.793Z</time>
      </trkpt>
      <trkpt lat="39.077153" lon="-0.484480">
        <ele>73.625419</ele>
        <time>2020-08-02T06:33:53.804Z</time>
      </trkpt>
      <trkpt lat="39.077024" lon="-0.484445">
        <ele>73.557150</ele>
        <time>2020-08-02T06:33:56.808Z</time>
      </trkpt>
      <trkpt lat="39.076899" lon="-0.484392">
        <ele>73.489001</ele>
        <time>2020-08-02T06:33:59.805Z</time>
      </trkpt>
      <trkpt lat="39.076795" lon="-0.484299">
        <ele>73.372677</ele>
        <time>2020-08-02T06:34:02.783Z</time>
      </trkpt>
      <trkpt lat="39.076712" lon="-0.484222">
        <ele>73.262316</ele>
        <time>2020-08-02T06:34:04.811Z</time>
      </trkpt>
      <trkpt lat="39.076617" lon="-0.484170">
        <ele>73.150945</ele>
        <time>2020-08-02T06:34:07.807Z</time>
      </trkpt>
      <trkpt lat="39.076520" lon="-0.484155">
        <ele>73.045534</ele>
        <time>2020-08-02T06:34:10.793Z</time>
      </trkpt>
      <trkpt lat="39.076422" lon="-0.484201">
        <ele>72.932995</ele>
        <time>2020-08-02T06:34:13.807Z</time>
      </trkpt>
      <trkpt lat="39.076313" lon="-0.484249">
        <ele>72.808706</ele>
        <time>2020-08-02T06:34:16.810Z</time>
      </trkpt>
      <trkpt lat="39.076220" lon="-0.484219">
        <ele>72.705264</ele>
        <time>2020-08-02T06:34:19.798Z</time>
      </trkpt>
      <trkpt lat="39.076166" lon="-0.484068">
        <ele>72.566010</ele>
        <time>2020-08-02T06:34:22.792Z</time>
      </trkpt>
      <trkpt lat="39.076142" lon="-0.483955">
        <ele>72.467882</ele>
        <time>2020-08-02T06:34:24.791Z</time>
      </trkpt>
      <trkpt lat="39.076120" lon="-0.483792">
        <ele>72.329304</ele>
        <time>2020-08-02T06:34:27.809Z</time>
      </trkpt>
      <trkpt lat="39.076078" lon="-0.483636">
        <ele>72.191002</ele>
        <time>2020-08-02T06:34:30.803Z</time>
      </trkpt>
      <trkpt lat="39.075981" lon="-0.483559">
        <ele>72.068066</ele>
        <time>2020-08-02T06:34:33.796Z</time>
      </trkpt>
      <trkpt lat="39.075872" lon="-0.483488">
        <ele>71.936278</ele>
        <time>2020-08-02T06:34:36.806Z</time>
      </trkpt>
      <trkpt lat="39.075768" lon="-0.483418">
        <ele>71.809671</ele>
        <time>2020-08-02T06:34:39.801Z</time>
      </trkpt>
      <trkpt lat="39.075669" lon="-0.483345">
        <ele>71.686591</ele>
        <time>2020-08-02T06:34:42.806Z</time>
      </trkpt>
      <trkpt lat="39.075560" lon="-0.483275">
        <ele>71.555179</ele>
        <time>2020-08-02T06:34:45.812Z</time>
      </trkpt>
      <trkpt lat="39.075461" lon="-0.483201">
        <ele>71.566296</ele>
        <time>2020-08-02T06:34:48.801Z</time>
      </trkpt>
      <trkpt lat="39.075372" lon="-0.483136">
        <ele>71.607632</ele>
        <time>2020-08-02T06:34:51.808Z</time>
      </trkpt>
      <trkpt lat="39.075269" lon="-0.483093">
        <ele>71.651377</ele>
        <time>2020-08-02T06:34:54.801Z</time>
      </trkpt>
      <trkpt lat="39.075142" lon="-0.483043">
        <ele>71.705030</ele>
        <time>2020-08-02T06:34:57.801Z</time>
      </trkpt>
      <trkpt lat="39.075033" lon="-0.482984">
        <ele>71.752799</ele>
        <time>2020-08-02T06:35:00.805Z</time>
      </trkpt>
      <trkpt lat="39.074928" lon="-0.482900">
        <ele>71.802737</ele>
        <time>2020-08-02T06:35:03.805Z</time>
      </trkpt>
      <trkpt lat="39.074826" lon="-0.482812">
        <ele>71.852336</ele>
        <time>2020-08-02T06:35:06.815Z</time>
      </trkpt>
      <trkpt lat="39.074739" lon="-0.482772">
        <ele>71.889658</ele>
        <time>2020-08-02T06:35:08.795Z</time>
      </trkpt>
      <trkpt lat="39.074622" lon="-0.482690">
        <ele>71.943472</ele>
        <time>2020-08-02T06:35:11.815Z</time>
      </trkpt>
      <trkpt lat="39.074526" lon="-0.482631">
        <ele>71.986446</ele>
        <time>2020-08-02T06:35:13.812Z</time>
      </trkpt>
      <trkpt lat="39.074422" lon="-0.482562">
        <ele>72.033711</ele>
        <time>2020-08-02T06:35:16.802Z</time>
      </trkpt>
      <trkpt lat="39.074314" lon="-0.482480">
        <ele>72.084361</ele>
        <time>2020-08-02T06:35:19.805Z</time>
      </trkpt>
      <trkpt lat="39.074195" lon="-0.482419">
        <ele>72.136106</ele>
        <time>2020-08-02T06:35:22.802Z</time>
      </trkpt>
      <trkpt lat="39.074076" lon="-0.482353">
        <ele>72.188452</ele>
        <time>2020-08-02T06:35:25.831Z</time>
      </trkpt>
      <trkpt lat="39.073979" lon="-0.482289">
        <ele>72.232484</ele>
        <time>2020-08-02T06:35:28.805Z</time>
      </trkpt>
      <trkpt lat="39.073868" lon="-0.482215">
        <ele>72.214551</ele>
        <time>2020-08-02T06:35:31.816Z</time>
      </trkpt>
      <trkpt lat="39.073764" lon="-0.482198">
        <ele>72.148230</ele>
        <time>2020-08-02T06:35:34.795Z</time>
      </trkpt>
      <trkpt lat="39.073662" lon="-0.482124">
        <ele>72.074172</ele>
        <time>2020-08-02T06:35:37.799Z</time>
      </trkpt>
      <trkpt lat="39.073561" lon="-0.482087">
        <ele>72.007743</ele>
        <time>2020-08-02T06:35:39.796Z</time>
      </trkpt>
      <trkpt lat="39.073469" lon="-0.482037">
        <ele>71.944573</ele>
        <time>2020-08-02T06:35:41.805Z</time>
      </trkpt>
      <trkpt lat="39.073375" lon="-0.481985">
        <ele>71.879854</ele>
        <time>2020-08-02T06:35:43.818Z</time>
      </trkpt>
      <trkpt lat="39.073275" lon="-0.482012">
        <ele>71.815217</ele>
        <time>2020-08-02T06:35:45.800Z</time>
      </trkpt>
      <trkpt lat="39.073185" lon="-0.481968">
        <ele>71.754318</ele>
        <time>2020-08-02T06:35:47.792Z</time>
      </trkpt>
      <trkpt lat="39.073090" lon="-0.481909">
        <ele>71.687598</ele>
        <time>2020-08-02T06:35:49.796Z</time>
      </trkpt>
      <trkpt lat="39.072991" lon="-0.481876">
        <ele>71.622905</ele>
        <time>2020-08-02T06:35:51.807Z</time>
      </trkpt>
      <trkpt lat="39.072885" lon="-0.481829">
        <ele>71.551985</ele>
        <time>2020-08-02T06:35:53.795Z</time>
      </trkpt>
      <trkpt lat="39.072793" lon="-0.481824">
        <ele>71.493732</ele>
        <time>2020-08-02T06:35:55.803Z</time>
      </trkpt>
      <trkpt lat="39.072683" lon="-0.481796">
        <ele>71.422797</ele>
        <time>2020-08-02T06:35:58.812Z</time>
      </trkpt>
      <trkpt lat="39.072588" lon="-0.481846">
        <ele>71.357875</ele>
        <time>2020-08-02T06:36:01.801Z</time>
      </trkpt>
      <trkpt lat="39.072474" lon="-0.481816">
        <ele>71.284266</ele>
        <time>2020-08-02T06:36:04.799Z</time>
      </trkpt>
      <trkpt lat="39.072356" lon="-0.481784">
        <ele>71.207979</ele>
        <time>2020-08-02T06:36:07.804Z</time>
      </trkpt>
      <trkpt lat="39.072259" lon="-0.481750">
        <ele>71.144383</ele>
        <time>2020-08-02T06:36:10.811Z</time>
      </trkpt>
      <trkpt lat="39.072153" lon="-0.481724">
        <ele>71.072294</ele>
        <time>2020-08-02T06:36:13.807Z</time>
      </trkpt>
      <trkpt lat="39.072038" lon="-0.481712">
        <ele>70.992705</ele>
        <time>2020-08-02T06:36:16.807Z</time>
      </trkpt>
      <trkpt lat="39.071926" lon="-0.481726">
        <ele>70.915083</ele>
        <time>2020-08-02T06:36:19.790Z</time>
      </trkpt>
      <trkpt lat="39.071827" lon="-0.481772">
        <ele>70.842483</ele>
        <time>2020-08-02T06:36:22.791Z</time>
      </trkpt>
      <trkpt lat="39.071734" lon="-0.481823">
        <ele>70.772758</ele>
        <time>2020-08-02T06:36:25.806Z</time>
      </trkpt>
      <trkpt lat="39.071611" lon="-0.481874">
        <ele>70.683623</ele>
        <time>2020-08-02T06:36:28.803Z</time>
      </trkpt>
      <trkpt lat="39.071538" lon="-0.481942">
        <ele>70.621478</ele>
        <time>2020-08-02T06:36:30.808Z</time>
      </trkpt>
      <trkpt lat="39.071421" lon="-0.481977">
        <ele>70.538622</ele>
        <time>2020-08-02T06:36:33.802Z</time>
      </trkpt>
      <trkpt lat="39.071306" lon="-0.481958">
        <ele>70.458643</ele>
        <time>2020-08-02T06:36:36.794Z</time>
      </trkpt>
      <trkpt lat="39.071209" lon="-0.481884">
        <ele>70.380875</ele>
        <time>2020-08-02T06:36:39.793Z</time>
      </trkpt>
      <trkpt lat="39.071128" lon="-0.481809">
        <ele>70.312061</ele>
        <time>2020-08-02T06:36:41.785Z</time>
      </trkpt>
      <trkpt lat="39.071016" lon="-0.481781">
        <ele>70.233360</ele>
        <time>2020-08-02T06:36:43.813Z</time>
      </trkpt>
      <trkpt lat="39.070932" lon="-0.481726">
        <ele>70.168358</ele>
        <time>2020-08-02T06:36:45.792Z</time>
      </trkpt>
      <trkpt lat="39.070832" lon="-0.481691">
        <ele>70.096875</ele>
        <time>2020-08-02T06:36:47.805Z</time>
      </trkpt>
      <trkpt lat="39.070722" lon="-0.481747">
        <ele>70.015284</ele>
        <time>2020-08-02T06:36:49.809Z</time>
      </trkpt>
      <trkpt lat="39.070630" lon="-0.481765">
        <ele>69.951093</ele>
        <time>2020-08-02T06:36:51.790Z</time>
      </trkpt>
      <trkpt lat="39.070501" lon="-0.481810">
        <ele>69.945612</ele>
        <time>2020-08-02T06:36:54.809Z</time>
      </trkpt>
      <trkpt lat="39.070411" lon="-0.481852">
        <ele>70.183958</ele>
        <time>2020-08-02T06:36:56.812Z</time>
      </trkpt>
      <trkpt lat="39.070327" lon="-0.481902">
        <ele>70.414364</ele>
        <time>2020-08-02T06:36:58.806Z</time>
      </trkpt>
      <trkpt lat="39.070233" lon="-0.481924">
        <ele>70.652248</ele>
        <time>2020-08-02T06:37:00.822Z</time>
      </trkpt>
      <trkpt lat="39.070144" lon="-0.481957">
        <ele>70.882849</ele>
        <time>2020-08-02T06:37:02.785Z</time>
      </trkpt>
      <trkpt lat="39.070044" lon="-0.482012">
        <ele>71.153590</ele>
        <time>2020-08-02T06:37:05.814Z</time>
      </trkpt>
      <trkpt lat="39.069919" lon="-0.482046">
        <ele>71.471693</ele>
        <time>2020-08-02T06:37:08.816Z</time>
      </trkpt>
      <trkpt lat="39.069818" lon="-0.482073">
        <ele>71.728534</ele>
        <time>2020-08-02T06:37:11.809Z</time>
      </trkpt>
      <trkpt lat="39.069727" lon="-0.482123">
        <ele>71.974870</ele>
        <time>2020-08-02T06:37:13.809Z</time>
      </trkpt>
      <trkpt lat="39.069606" lon="-0.482197">
        <ele>72.308386</ele>
        <time>2020-08-02T06:37:16.805Z</time>
      </trkpt>
      <trkpt lat="39.069495" lon="-0.482253">
        <ele>72.605211</ele>
        <time>2020-08-02T06:37:18.808Z</time>
      </trkpt>
      <trkpt lat="39.069409" lon="-0.482323">
        <ele>72.858517</ele>
        <time>2020-08-02T06:37:20.804Z</time>
      </trkpt>
      <trkpt lat="39.069294" lon="-0.482388">
        <ele>73.171213</ele>
        <time>2020-08-02T06:37:23.791Z</time>
      </trkpt>
      <trkpt lat="39.069180" lon="-0.482440">
        <ele>73.472337</ele>
        <time>2020-08-02T06:37:26.801Z</time>
      </trkpt>
      <trkpt lat="39.069065" lon="-0.482462">
        <ele>73.761818</ele>
        <time>2020-08-02T06:37:29.809Z</time>
      </trkpt>
      <trkpt lat="39.068956" lon="-0.482498">
        <ele>74.041999</ele>
        <time>2020-08-02T06:37:32.805Z</time>
      </trkpt>
      <trkpt lat="39.068837" lon="-0.482558">
        <ele>74.360899</ele>
        <time>2020-08-02T06:37:35.809Z</time>
      </trkpt>
      <trkpt lat="39.068733" lon="-0.482605">
        <ele>74.683626</ele>
        <time>2020-08-02T06:37:38.803Z</time>
      </trkpt>
      <trkpt lat="39.068616" lon="-0.482647">
        <ele>75.039275</ele>
        <time>2020-08-02T06:37:41.808Z</time>
      </trkpt>
      <trkpt lat="39.068506" lon="-0.482722">
        <ele>75.403715</ele>
        <time>2020-08-02T06:37:43.805Z</time>
      </trkpt>
      <trkpt lat="39.068388" lon="-0.482772">
        <ele>75.767452</ele>
        <time>2020-08-02T06:37:47.802Z</time>
      </trkpt>
      <trkpt lat="39.068272" lon="-0.482819">
        <ele>76.123525</ele>
        <time>2020-08-02T06:37:50.803Z</time>
      </trkpt>
      <trkpt lat="39.068175" lon="-0.482861">
        <ele>76.423174</ele>
        <time>2020-08-02T06:37:52.808Z</time>
      </trkpt>
      <trkpt lat="39.068068" lon="-0.482897">
        <ele>76.746997</ele>
        <time>2020-08-02T06:37:55.806Z</time>
      </trkpt>
      <trkpt lat="39.067980" lon="-0.482934">
        <ele>77.018055</ele>
        <time>2020-08-02T06:37:57.795Z</time>
      </trkpt>
      <trkpt lat="39.067845" lon="-0.482964">
        <ele>77.419194</ele>
        <time>2020-08-02T06:38:00.804Z</time>
      </trkpt>
      <trkpt lat="39.067722" lon="-0.483013">
        <ele>77.796189</ele>
        <time>2020-08-02T06:38:03.780Z</time>
      </trkpt>
      <trkpt lat="39.067631" lon="-0.483053">
        <ele>78.077739</ele>
        <time>2020-08-02T06:38:05.809Z</time>
      </trkpt>
      <trkpt lat="39.067530" lon="-0.483073">
        <ele>78.376955</ele>
        <time>2020-08-02T06:38:07.809Z</time>
      </trkpt>
      <trkpt lat="39.067425" lon="-0.483095">
        <ele>78.688451</ele>
        <time>2020-08-02T06:38:09.812Z</time>
      </trkpt>
      <trkpt lat="39.067295" lon="-0.483129">
        <ele>79.076877</ele>
        <time>2020-08-02T06:38:12.794Z</time>
      </trkpt>
      <trkpt lat="39.067193" lon="-0.483121">
        <ele>79.376100</ele>
        <time>2020-08-02T06:38:14.803Z</time>
      </trkpt>
      <trkpt lat="39.067094" lon="-0.483146">
        <ele>79.618933</ele>
        <time>2020-08-02T06:38:17.804Z</time>
      </trkpt>
      <trkpt lat="39.067005" lon="-0.483180">
        <ele>79.597081</ele>
        <time>2020-08-02T06:38:19.804Z</time>
      </trkpt>
      <trkpt lat="39.066873" lon="-0.483252">
        <ele>79.563340</ele>
        <time>2020-08-02T06:38:22.797Z</time>
      </trkpt>
      <trkpt lat="39.066751" lon="-0.483288">
        <ele>79.533879</ele>
        <time>2020-08-02T06:38:25.808Z</time>
      </trkpt>
      <trkpt lat="39.066646" lon="-0.483299">
        <ele>79.509082</ele>
        <time>2020-08-02T06:38:27.806Z</time>
      </trkpt>
      <trkpt lat="39.066563" lon="-0.483366">
        <ele>79.486025</ele>
        <time>2020-08-02T06:38:29.790Z</time>
      </trkpt>
      <trkpt lat="39.066466" lon="-0.483363">
        <ele>79.463186</ele>
        <time>2020-08-02T06:38:31.793Z</time>
      </trkpt>
      <trkpt lat="39.066362" lon="-0.483410">
        <ele>79.437243</ele>
        <time>2020-08-02T06:38:33.803Z</time>
      </trkpt>
      <trkpt lat="39.066229" lon="-0.483459">
        <ele>79.404682</ele>
        <time>2020-08-02T06:38:36.803Z</time>
      </trkpt>
      <trkpt lat="39.066118" lon="-0.483491">
        <ele>79.377908</ele>
        <time>2020-08-02T06:38:38.835Z</time>
      </trkpt>
      <trkpt lat="39.066022" lon="-0.483556">
        <ele>79.352379</ele>
        <time>2020-08-02T06:38:41.802Z</time>
      </trkpt>
      <trkpt lat="39.065919" lon="-0.483626">
        <ele>79.324966</ele>
        <time>2020-08-02T06:38:44.808Z</time>
      </trkpt>
      <trkpt lat="39.065841" lon="-0.483686">
        <ele>79.303581</ele>
        <time>2020-08-02T06:38:46.792Z</time>
      </trkpt>
      <trkpt lat="39.065747" lon="-0.483776">
        <ele>79.276011</ele>
        <time>2020-08-02T06:38:49.800Z</time>
      </trkpt>
      <trkpt lat="39.065640" lon="-0.483847">
        <ele>79.247679</ele>
        <time>2020-08-02T06:38:52.809Z</time>
      </trkpt>
      <trkpt lat="39.065526" lon="-0.483944">
        <ele>79.215519</ele>
        <time>2020-08-02T06:38:55.803Z</time>
      </trkpt>
      <trkpt lat="39.065432" lon="-0.484033">
        <ele>79.195654</ele>
        <time>2020-08-02T06:38:58.806Z</time>
      </trkpt>
      <trkpt lat="39.065327" lon="-0.484124">
        <ele>79.185685</ele>
        <time>2020-08-02T06:39:01.803Z</time>
      </trkpt>
      <trkpt lat="39.065200" lon="-0.484163">
        <ele>79.175400</ele>
        <time>2020-08-02T06:39:04.801Z</time>
      </trkpt>
      <trkpt lat="39.065105" lon="-0.484258">
        <ele>79.165926</ele>
        <time>2020-08-02T06:39:07.813Z</time>
      </trkpt>
      <trkpt lat="39.065018" lon="-0.484311">
        <ele>79.158345</ele>
        <time>2020-08-02T06:39:09.806Z</time>
      </trkpt>
      <trkpt lat="39.064928" lon="-0.484360">
        <ele>79.150648</ele>
        <time>2020-08-02T06:39:12.799Z</time>
      </trkpt>
      <trkpt lat="39.064809" lon="-0.484430">
        <ele>79.140343</ele>
        <time>2020-08-02T06:39:15.805Z</time>
      </trkpt>
      <trkpt lat="39.064681" lon="-0.484484">
        <ele>79.129733</ele>
        <time>2020-08-02T06:39:18.814Z</time>
      </trkpt>
      <trkpt lat="39.064594" lon="-0.484552">
        <ele>79.121717</ele>
        <time>2020-08-02T06:39:20.808Z</time>
      </trkpt>
      <trkpt lat="39.064460" lon="-0.484609">
        <ele>79.110601</ele>
        <time>2020-08-02T06:39:23.785Z</time>
      </trkpt>
      <trkpt lat="39.064361" lon="-0.484682">
        <ele>79.101615</ele>
        <time>2020-08-02T06:39:25.791Z</time>
      </trkpt>
      <trkpt lat="39.064264" lon="-0.484733">
        <ele>79.093362</ele>
        <time>2020-08-02T06:39:27.810Z</time>
      </trkpt>
      <trkpt lat="39.064167" lon="-0.484747">
        <ele>79.085674</ele>
        <time>2020-08-02T06:39:29.808Z</time>
      </trkpt>
      <trkpt lat="39.064079" lon="-0.484815">
        <ele>79.077590</ele>
        <time>2020-08-02T06:39:32.793Z</time>
      </trkpt>
      <trkpt lat="39.063994" lon="-0.484889">
        <ele>79.069508</ele>
        <time>2020-08-02T06:39:34.784Z</time>
      </trkpt>
      <trkpt lat="39.063907" lon="-0.484951">
        <ele>79.061676</ele>
        <time>2020-08-02T06:39:36.804Z</time>
      </trkpt>
      <trkpt lat="39.063778" lon="-0.485002">
        <ele>79.223189</ele>
        <time>2020-08-02T06:39:39.802Z</time>
      </trkpt>
      <trkpt lat="39.063675" lon="-0.485074">
        <ele>79.449478</ele>
        <time>2020-08-02T06:39:41.810Z</time>
      </trkpt>
      <trkpt lat="39.063535" lon="-0.485115">
        <ele>79.726705</ele>
        <time>2020-08-02T06:39:44.802Z</time>
      </trkpt>
      <trkpt lat="39.063425" lon="-0.485214">
        <ele>79.985827</ele>
        <time>2020-08-02T06:39:48.796Z</time>
      </trkpt>
      <trkpt lat="39.063286" lon="-0.485256">
        <ele>80.261510</ele>
        <time>2020-08-02T06:39:50.805Z</time>
      </trkpt>
      <trkpt lat="39.063175" lon="-0.485320">
        <ele>80.496339</ele>
        <time>2020-08-02T06:39:53.806Z</time>
      </trkpt>
      <trkpt lat="39.063089" lon="-0.485370">
        <ele>80.678533</ele>
        <time>2020-08-02T06:39:55.808Z</time>
      </trkpt>
      <trkpt lat="39.062994" lon="-0.485398">
        <ele>80.866711</ele>
        <time>2020-08-02T06:39:57.804Z</time>
      </trkpt>
      <trkpt lat="39.062865" lon="-0.485443">
        <ele>81.124773</ele>
        <time>2020-08-02T06:40:00.800Z</time>
      </trkpt>
      <trkpt lat="39.062763" lon="-0.485521">
        <ele>81.353827</ele>
        <time>2020-08-02T06:40:03.800Z</time>
      </trkpt>
      <trkpt lat="39.062670" lon="-0.485555">
        <ele>81.540497</ele>
        <time>2020-08-02T06:40:05.809Z</time>
      </trkpt>
      <trkpt lat="39.062562" lon="-0.485605">
        <ele>81.762099</ele>
        <time>2020-08-02T06:40:08.801Z</time>
      </trkpt>
      <trkpt lat="39.062473" lon="-0.485682">
        <ele>81.969125</ele>
        <time>2020-08-02T06:40:11.798Z</time>
      </trkpt>
      <trkpt lat="39.062354" lon="-0.485740">
        <ele>82.214807</ele>
        <time>2020-08-02T06:40:14.806Z</time>
      </trkpt>
      <trkpt lat="39.062248" lon="-0.485830">
        <ele>82.459959</ele>
        <time>2020-08-02T06:40:17.805Z</time>
      </trkpt>
      <trkpt lat="39.062137" lon="-0.485846">
        <ele>82.510789</ele>
        <time>2020-08-02T06:40:19.807Z</time>
      </trkpt>
      <trkpt lat="39.062013" lon="-0.485934">
        <ele>82.473003</ele>
        <time>2020-08-02T06:40:22.808Z</time>
      </trkpt>
      <trkpt lat="39.061922" lon="-0.485991">
        <ele>82.445997</ele>
        <time>2020-08-02T06:40:24.802Z</time>
      </trkpt>
      <trkpt lat="39.061797" lon="-0.486036">
        <ele>82.411358</ele>
        <time>2020-08-02T06:40:27.792Z</time>
      </trkpt>
      <trkpt lat="39.061684" lon="-0.486115">
        <ele>82.377044</ele>
        <time>2020-08-02T06:40:30.803Z</time>
      </trkpt>
      <trkpt lat="39.061570" lon="-0.486164">
        <ele>82.344969</ele>
        <time>2020-08-02T06:40:32.808Z</time>
      </trkpt>
      <trkpt lat="39.061473" lon="-0.486215">
        <ele>82.317008</ele>
        <time>2020-08-02T06:40:34.803Z</time>
      </trkpt>
      <trkpt lat="39.061378" lon="-0.486277">
        <ele>82.288584</ele>
        <time>2020-08-02T06:40:36.804Z</time>
      </trkpt>
      <trkpt lat="39.061313" lon="-0.486361">
        <ele>82.264009</ele>
        <time>2020-08-02T06:40:38.813Z</time>
      </trkpt>
      <trkpt lat="39.061242" lon="-0.486474">
        <ele>82.233886</ele>
        <time>2020-08-02T06:40:41.801Z</time>
      </trkpt>
      <trkpt lat="39.061173" lon="-0.486553">
        <ele>82.209247</ele>
        <time>2020-08-02T06:40:43.801Z</time>
      </trkpt>
      <trkpt lat="39.061088" lon="-0.486601">
        <ele>82.184477</ele>
        <time>2020-08-02T06:40:45.809Z</time>
      </trkpt>
      <trkpt lat="39.060997" lon="-0.486699">
        <ele>82.152818</ele>
        <time>2020-08-02T06:40:48.809Z</time>
      </trkpt>
      <trkpt lat="39.060906" lon="-0.486819">
        <ele>82.118059</ele>
        <time>2020-08-02T06:40:51.800Z</time>
      </trkpt>
      <trkpt lat="39.060813" lon="-0.486913">
        <ele>82.086508</ele>
        <time>2020-08-02T06:40:54.804Z</time>
      </trkpt>
      <trkpt lat="39.060727" lon="-0.487014">
        <ele>82.055446</ele>
        <time>2020-08-02T06:40:57.793Z</time>
      </trkpt>
      <trkpt lat="39.060644" lon="-0.487131">
        <ele>82.032305</ele>
        <time>2020-08-02T06:41:00.805Z</time>
      </trkpt>
      <trkpt lat="39.060552" lon="-0.487231">
        <ele>82.011237</ele>
        <time>2020-08-02T06:41:03.790Z</time>
      </trkpt>
      <trkpt lat="39.060451" lon="-0.487331">
        <ele>81.988942</ele>
        <time>2020-08-02T06:41:06.804Z</time>
      </trkpt>
      <trkpt lat="39.060365" lon="-0.487379">
        <ele>81.972539</ele>
        <time>2020-08-02T06:41:08.809Z</time>
      </trkpt>
      <trkpt lat="39.060278" lon="-0.487445">
        <ele>81.954869</ele>
        <time>2020-08-02T06:41:10.796Z</time>
      </trkpt>
      <trkpt lat="39.060203" lon="-0.487509">
        <ele>81.939124</ele>
        <time>2020-08-02T06:41:12.785Z</time>
      </trkpt>
      <trkpt lat="39.060110" lon="-0.487640">
        <ele>81.915004</ele>
        <time>2020-08-02T06:41:15.807Z</time>
      </trkpt>
      <trkpt lat="39.060013" lon="-0.487735">
        <ele>81.893678</ele>
        <time>2020-08-02T06:41:18.817Z</time>
      </trkpt>
      <trkpt lat="39.059930" lon="-0.487860">
        <ele>81.871329</ele>
        <time>2020-08-02T06:41:21.797Z</time>
      </trkpt>
      <trkpt lat="39.059851" lon="-0.487923">
        <ele>81.855068</ele>
        <time>2020-08-02T06:41:23.787Z</time>
      </trkpt>
      <trkpt lat="39.059747" lon="-0.488021">
        <ele>81.832516</ele>
        <time>2020-08-02T06:41:26.794Z</time>
      </trkpt>
      <trkpt lat="39.059663" lon="-0.488135">
        <ele>81.811160</ele>
        <time>2020-08-02T06:41:29.802Z</time>
      </trkpt>
      <trkpt lat="39.059552" lon="-0.488203">
        <ele>81.789649</ele>
        <time>2020-08-02T06:41:32.815Z</time>
      </trkpt>
      <trkpt lat="39.059470" lon="-0.488257">
        <ele>81.773532</ele>
        <time>2020-08-02T06:41:34.807Z</time>
      </trkpt>
      <trkpt lat="39.059364" lon="-0.488283">
        <ele>81.754648</ele>
        <time>2020-08-02T06:41:36.807Z</time>
      </trkpt>
      <trkpt lat="39.059275" lon="-0.488331">
        <ele>81.737762</ele>
        <time>2020-08-02T06:41:38.806Z</time>
      </trkpt>
      <trkpt lat="39.059192" lon="-0.488377">
        <ele>81.995039</ele>
        <time>2020-08-02T06:41:40.810Z</time>
      </trkpt>
      <trkpt lat="39.059092" lon="-0.488460">
        <ele>82.378458</ele>
        <time>2020-08-02T06:41:43.796Z</time>
      </trkpt>
      <trkpt lat="39.058995" lon="-0.488549">
        <ele>82.762299</ele>
        <time>2020-08-02T06:41:46.806Z</time>
      </trkpt>
      <trkpt lat="39.058900" lon="-0.488638">
        <ele>83.140909</ele>
        <time>2020-08-02T06:41:49.802Z</time>
      </trkpt>
      <trkpt lat="39.058793" lon="-0.488730">
        <ele>83.555546</ele>
        <time>2020-08-02T06:41:52.800Z</time>
      </trkpt>
      <trkpt lat="39.058677" lon="-0.488790">
        <ele>83.958421</ele>
        <time>2020-08-02T06:41:55.804Z</time>
      </trkpt>
      <trkpt lat="39.058568" lon="-0.488845">
        <ele>84.335712</ele>
        <time>2020-08-02T06:41:58.814Z</time>
      </trkpt>
      <trkpt lat="39.058466" lon="-0.488910">
        <ele>84.702485</ele>
        <time>2020-08-02T06:42:01.808Z</time>
      </trkpt>
      <trkpt lat="39.058370" lon="-0.488957">
        <ele>85.033480</ele>
        <time>2020-08-02T06:42:04.789Z</time>
      </trkpt>
      <trkpt lat="39.058268" lon="-0.489014">
        <ele>85.391824</ele>
        <time>2020-08-02T06:42:07.802Z</time>
      </trkpt>
      <trkpt lat="39.058162" lon="-0.489089">
        <ele>85.781609</ele>
        <time>2020-08-02T06:42:10.806Z</time>
      </trkpt>
      <trkpt lat="39.058054" lon="-0.489168">
        <ele>86.181904</ele>
        <time>2020-08-02T06:42:13.803Z</time>
      </trkpt>
      <trkpt lat="39.057932" lon="-0.489223">
        <ele>86.598485</ele>
        <time>2020-08-02T06:42:16.801Z</time>
      </trkpt>
      <trkpt lat="39.057817" lon="-0.489266">
        <ele>86.984417</ele>
        <time>2020-08-02T06:42:19.798Z</time>
      </trkpt>
      <trkpt lat="39.057706" lon="-0.489301">
        <ele>87.352719</ele>
        <time>2020-08-02T06:42:22.812Z</time>
      </trkpt>
      <trkpt lat="39.057591" lon="-0.489341">
        <ele>87.721160</ele>
        <time>2020-08-02T06:42:25.798Z</time>
      </trkpt>
      <trkpt lat="39.057491" lon="-0.489413">
        <ele>88.062386</ele>
        <time>2020-08-02T06:42:28.810Z</time>
      </trkpt>
      <trkpt lat="39.057395" lon="-0.489509">
        <ele>88.424390</ele>
        <time>2020-08-02T06:42:31.804Z</time>
      </trkpt>
      <trkpt lat="39.057288" lon="-0.489608">
        <ele>88.816798</ele>
        <time>2020-08-02T06:42:34.813Z</time>
      </trkpt>
      <trkpt lat="39.057177" lon="-0.489703">
        <ele>89.213748</ele>
        <time>2020-08-02T06:42:37.803Z</time>
      </trkpt>
      <trkpt lat="39.057059" lon="-0.489771">
        <ele>89.598779</ele>
        <time>2020-08-02T06:42:40.814Z</time>
      </trkpt>
      <trkpt lat="39.056977" lon="-0.489827">
        <ele>89.875222</ele>
        <time>2020-08-02T06:42:42.799Z</time>
      </trkpt>
      <trkpt lat="39.056891" lon="-0.489872">
        <ele>90.151698</ele>
        <time>2020-08-02T06:42:44.788Z</time>
      </trkpt>
      <trkpt lat="39.056811" lon="-0.489942">
        <ele>90.439764</ele>
        <time>2020-08-02T06:42:47.808Z</time>
      </trkpt>
      <trkpt lat="39.056730" lon="-0.490070">
        <ele>90.821651</ele>
        <time>2020-08-02T06:42:50.804Z</time>
      </trkpt>
      <trkpt lat="39.056657" lon="-0.490200">
        <ele>91.192688</ele>
        <time>2020-08-02T06:42:53.795Z</time>
      </trkpt>
      <trkpt lat="39.056563" lon="-0.490321">
        <ele>91.588536</ele>
        <time>2020-08-02T06:42:56.799Z</time>
      </trkpt>
      <trkpt lat="39.056492" lon="-0.490470">
        <ele>91.992849</ele>
        <time>2020-08-02T06:42:59.791Z</time>
      </trkpt>
      <trkpt lat="39.056452" lon="-0.490588">
        <ele>92.290628</ele>
        <time>2020-08-02T06:43:01.802Z</time>
      </trkpt>
      <trkpt lat="39.056399" lon="-0.490711">
        <ele>92.615962</ele>
        <time>2020-08-02T06:43:03.793Z</time>
      </trkpt>
      <trkpt lat="39.056291" lon="-0.490815">
        <ele>92.868106</ele>
        <time>2020-08-02T06:43:06.790Z</time>
      </trkpt>
      <trkpt lat="39.056177" lon="-0.490861">
        <ele>92.807811</ele>
        <time>2020-08-02T06:43:09.805Z</time>
      </trkpt>
      <trkpt lat="39.056068" lon="-0.490946">
        <ele>92.743498</ele>
        <time>2020-08-02T06:43:12.805Z</time>
      </trkpt>
      <trkpt lat="39.056012" lon="-0.491086">
        <ele>92.681777</ele>
        <time>2020-08-02T06:43:15.803Z</time>
      </trkpt>
      <trkpt lat="39.055938" lon="-0.491166">
        <ele>92.633013</ele>
        <time>2020-08-02T06:43:17.803Z</time>
      </trkpt>
      <trkpt lat="39.055846" lon="-0.491212">
        <ele>92.583203</ele>
        <time>2020-08-02T06:43:19.801Z</time>
      </trkpt>
      <trkpt lat="39.055772" lon="-0.491292">
        <ele>92.534439</ele>
        <time>2020-08-02T06:43:21.804Z</time>
      </trkpt>
      <trkpt lat="39.055718" lon="-0.491423">
        <ele>92.476311</ele>
        <time>2020-08-02T06:43:24.798Z</time>
      </trkpt>
      <trkpt lat="39.055699" lon="-0.491294">
        <ele>92.424852</ele>
        <time>2020-08-02T06:43:31.786Z</time>
      </trkpt>
      <trkpt lat="39.055766" lon="-0.491166">
        <ele>92.364353</ele>
        <time>2020-08-02T06:43:34.808Z</time>
      </trkpt>
      <trkpt lat="39.055813" lon="-0.491060">
        <ele>92.316514</ele>
        <time>2020-08-02T06:43:36.809Z</time>
      </trkpt>
      <trkpt lat="39.055853" lon="-0.490926">
        <ele>92.260250</ele>
        <time>2020-08-02T06:43:38.808Z</time>
      </trkpt>
      <trkpt lat="39.055906" lon="-0.490763">
        <ele>92.190992</ele>
        <time>2020-08-02T06:43:41.806Z</time>
      </trkpt>
      <trkpt lat="39.055927" lon="-0.490612">
        <ele>92.130871</ele>
        <time>2020-08-02T06:43:44.796Z</time>
      </trkpt>
      <trkpt lat="39.055828" lon="-0.490501">
        <ele>92.064620</ele>
        <time>2020-08-02T06:43:47.779Z</time>
      </trkpt>
      <trkpt lat="39.055740" lon="-0.490532">
        <ele>92.018574</ele>
        <time>2020-08-02T06:43:49.790Z</time>
      </trkpt>
      <trkpt lat="39.055654" lon="-0.490593">
        <ele>91.949709</ele>
        <time>2020-08-02T06:43:51.786Z</time>
      </trkpt>
      <trkpt lat="39.055572" lon="-0.490654">
        <ele>91.830699</ele>
        <time>2020-08-02T06:43:53.789Z</time>
      </trkpt>
      <trkpt lat="39.055504" lon="-0.490730">
        <ele>91.717544</ele>
        <time>2020-08-02T06:43:55.792Z</time>
      </trkpt>
      <trkpt lat="39.055411" lon="-0.490813">
        <ele>91.575344</ele>
        <time>2020-08-02T06:43:58.802Z</time>
      </trkpt>
      <trkpt lat="39.055317" lon="-0.490908">
        <ele>91.425176</ele>
        <time>2020-08-02T06:44:01.802Z</time>
      </trkpt>
      <trkpt lat="39.055263" lon="-0.491003">
        <ele>91.310282</ele>
        <time>2020-08-02T06:44:03.794Z</time>
      </trkpt>
      <trkpt lat="39.055173" lon="-0.491087">
        <ele>91.170593</ele>
        <time>2020-08-02T06:44:06.808Z</time>
      </trkpt>
      <trkpt lat="39.055090" lon="-0.491158">
        <ele>91.045368</ele>
        <time>2020-08-02T06:44:09.799Z</time>
      </trkpt>
      <trkpt lat="39.054980" lon="-0.491235">
        <ele>90.888024</ele>
        <time>2020-08-02T06:44:12.804Z</time>
      </trkpt>
      <trkpt lat="39.054881" lon="-0.491323">
        <ele>90.736846</ele>
        <time>2020-08-02T06:44:15.811Z</time>
      </trkpt>
      <trkpt lat="39.054808" lon="-0.491424">
        <ele>90.602192</ele>
        <time>2020-08-02T06:44:18.803Z</time>
      </trkpt>
      <trkpt lat="39.054726" lon="-0.491526">
        <ele>90.458915</ele>
        <time>2020-08-02T06:44:21.805Z</time>
      </trkpt>
      <trkpt lat="39.054630" lon="-0.491599">
        <ele>90.318805</ele>
        <time>2020-08-02T06:44:23.843Z</time>
      </trkpt>
      <trkpt lat="39.054536" lon="-0.491704">
        <ele>90.162422</ele>
        <time>2020-08-02T06:44:27.798Z</time>
      </trkpt>
      <trkpt lat="39.054416" lon="-0.491769">
        <ele>89.998816</ele>
        <time>2020-08-02T06:44:30.800Z</time>
      </trkpt>
      <trkpt lat="39.054306" lon="-0.491842">
        <ele>89.843298</ele>
        <time>2020-08-02T06:44:33.783Z</time>
      </trkpt>
      <trkpt lat="39.054203" lon="-0.491930">
        <ele>89.701368</ele>
        <time>2020-08-02T06:44:36.801Z</time>
      </trkpt>
      <trkpt lat="39.054115" lon="-0.492038">
        <ele>89.609548</ele>
        <time>2020-08-02T06:44:39.806Z</time>
      </trkpt>
      <trkpt lat="39.054015" lon="-0.492108">
        <ele>89.523577</ele>
        <time>2020-08-02T06:44:41.808Z</time>
      </trkpt>
      <trkpt lat="39.053907" lon="-0.492120">
        <ele>89.441699</ele>
        <time>2020-08-02T06:44:44.792Z</time>
      </trkpt>
      <trkpt lat="39.053811" lon="-0.492153">
        <ele>89.366649</ele>
        <time>2020-08-02T06:44:46.808Z</time>
      </trkpt>
      <trkpt lat="39.053714" lon="-0.492255">
        <ele>89.272058</ele>
        <time>2020-08-02T06:44:49.799Z</time>
      </trkpt>
      <trkpt lat="39.053638" lon="-0.492330">
        <ele>89.199735</ele>
        <time>2020-08-02T06:44:52.805Z</time>
      </trkpt>
      <trkpt lat="39.053543" lon="-0.492422">
        <ele>89.109953</ele>
        <time>2020-08-02T06:44:55.809Z</time>
      </trkpt>
      <trkpt lat="39.053474" lon="-0.492507">
        <ele>89.037828</ele>
        <time>2020-08-02T06:44:58.802Z</time>
      </trkpt>
      <trkpt lat="39.053402" lon="-0.492598">
        <ele>88.961627</ele>
        <time>2020-08-02T06:45:01.803Z</time>
      </trkpt>
      <trkpt lat="39.053324" lon="-0.492684">
        <ele>88.884067</ele>
        <time>2020-08-02T06:45:04.791Z</time>
      </trkpt>
      <trkpt lat="39.053224" lon="-0.492745">
        <ele>88.800488</ele>
        <time>2020-08-02T06:45:07.811Z</time>
      </trkpt>
      <trkpt lat="39.053147" lon="-0.492854">
        <ele>88.714058</ele>
        <time>2020-08-02T06:45:10.806Z</time>
      </trkpt>
      <trkpt lat="39.053080" lon="-0.492965">
        <ele>88.631595</ele>
        <time>2020-08-02T06:45:13.808Z</time>
      </trkpt>
      <trkpt lat="39.052986" lon="-0.493062">
        <ele>88.540610</ele>
        <time>2020-08-02T06:45:16.812Z</time>
      </trkpt>
      <trkpt lat="39.052906" lon="-0.493127">
        <ele>88.469162</ele>
        <time>2020-08-02T06:45:18.807Z</time>
      </trkpt>
      <trkpt lat="39.052782" lon="-0.493152">
        <ele>88.374360</ele>
        <time>2020-08-02T06:45:20.812Z</time>
      </trkpt>
      <trkpt lat="39.052693" lon="-0.493220">
        <ele>88.300615</ele>
        <time>2020-08-02T06:45:22.810Z</time>
      </trkpt>
      <trkpt lat="39.052600" lon="-0.493286">
        <ele>88.225715</ele>
        <time>2020-08-02T06:45:24.802Z</time>
      </trkpt>
      <trkpt lat="39.052498" lon="-0.493404">
        <ele>88.128999</ele>
        <time>2020-08-02T06:45:27.806Z</time>
      </trkpt>
      <trkpt lat="39.052421" lon="-0.493490">
        <ele>88.057104</ele>
        <time>2020-08-02T06:45:29.781Z</time>
      </trkpt>
      <trkpt lat="39.052332" lon="-0.493526">
        <ele>87.991304</ele>
        <time>2020-08-02T06:45:31.815Z</time>
      </trkpt>
      <trkpt lat="39.052264" lon="-0.493611">
        <ele>87.924458</ele>
        <time>2020-08-02T06:45:33.779Z</time>
      </trkpt>
      <trkpt lat="39.052153" lon="-0.493669">
        <ele>87.839964</ele>
        <time>2020-08-02T06:45:36.806Z</time>
      </trkpt>
      <trkpt lat="39.052041" lon="-0.493649">
        <ele>87.760208</ele>
        <time>2020-08-02T06:45:39.798Z</time>
      </trkpt>
      <trkpt lat="39.051937" lon="-0.493753">
        <ele>87.667330</ele>
        <time>2020-08-02T06:45:42.780Z</time>
      </trkpt>
      <trkpt lat="39.051765" lon="-0.493727">
        <ele>87.545176</ele>
        <time>2020-08-02T06:45:45.791Z</time>
      </trkpt>
      <trkpt lat="39.051652" lon="-0.493801">
        <ele>87.455756</ele>
        <time>2020-08-02T06:45:48.806Z</time>
      </trkpt>
      <trkpt lat="39.051558" lon="-0.493884">
        <ele>87.375363</ele>
        <time>2020-08-02T06:45:51.806Z</time>
      </trkpt>
      <trkpt lat="39.051562" lon="-0.494007">
        <ele>87.307929</ele>
        <time>2020-08-02T06:45:53.824Z</time>
      </trkpt>
      <trkpt lat="39.051452" lon="-0.494005">
        <ele>87.230333</ele>
        <time>2020-08-02T06:45:55.789Z</time>
      </trkpt>
      <trkpt lat="39.051353" lon="-0.493971">
        <ele>87.158062</ele>
        <time>2020-08-02T06:45:56.777Z</time>
      </trkpt>
      <trkpt lat="39.051233" lon="-0.494034">
        <ele>87.112279</ele>
        <time>2020-08-02T06:45:59.808Z</time>
      </trkpt>
      <trkpt lat="39.051142" lon="-0.494106">
        <ele>87.161127</ele>
        <time>2020-08-02T06:46:01.803Z</time>
      </trkpt>
      <trkpt lat="39.050883" lon="-0.494130">
        <ele>87.279886</ele>
        <time>2020-08-02T06:46:11.811Z</time>
      </trkpt>
      <trkpt lat="39.050804" lon="-0.494056">
        <ele>87.324565</ele>
        <time>2020-08-02T06:46:13.800Z</time>
      </trkpt>
      <trkpt lat="39.050800" lon="-0.494180">
        <ele>87.368645</ele>
        <time>2020-08-02T06:46:14.796Z</time>
      </trkpt>
      <trkpt lat="39.050633" lon="-0.494160">
        <ele>87.445351</ele>
        <time>2020-08-02T06:46:19.796Z</time>
      </trkpt>
      <trkpt lat="39.050599" lon="-0.494421">
        <ele>87.539347</ele>
        <time>2020-08-02T06:46:21.796Z</time>
      </trkpt>
      <trkpt lat="39.050501" lon="-0.494448">
        <ele>87.585181</ele>
        <time>2020-08-02T06:46:24.801Z</time>
      </trkpt>
      <trkpt lat="39.050390" lon="-0.494399">
        <ele>87.638847</ele>
        <time>2020-08-02T06:46:27.808Z</time>
      </trkpt>
      <trkpt lat="39.050305" lon="-0.494290">
        <ele>87.693711</ele>
        <time>2020-08-02T06:46:30.806Z</time>
      </trkpt>
      <trkpt lat="39.050260" lon="-0.494155">
        <ele>87.745890</ele>
        <time>2020-08-02T06:46:33.808Z</time>
      </trkpt>
      <trkpt lat="39.050230" lon="-0.494015">
        <ele>87.797473</ele>
        <time>2020-08-02T06:46:36.791Z</time>
      </trkpt>
      <trkpt lat="39.050205" lon="-0.493892">
        <ele>87.842631</ele>
        <time>2020-08-02T06:46:42.803Z</time>
      </trkpt>
      <trkpt lat="39.050035" lon="-0.494093">
        <ele>87.912107</ele>
        <time>2020-08-02T06:46:45.774Z</time>
      </trkpt>
      <trkpt lat="39.049927" lon="-0.494056">
        <ele>87.904198</ele>
        <time>2020-08-02T06:46:48.788Z</time>
      </trkpt>
      <trkpt lat="39.049831" lon="-0.494065">
        <ele>87.897386</ele>
        <time>2020-08-02T06:46:51.806Z</time>
      </trkpt>
      <trkpt lat="39.049716" lon="-0.494090">
        <ele>87.889132</ele>
        <time>2020-08-02T06:46:54.806Z</time>
      </trkpt>
      <trkpt lat="39.049613" lon="-0.494086">
        <ele>87.881840</ele>
        <time>2020-08-02T06:46:56.810Z</time>
      </trkpt>
      <trkpt lat="39.049543" lon="-0.493998">
        <ele>87.874916</ele>
        <time>2020-08-02T06:46:57.805Z</time>
      </trkpt>
      <trkpt lat="39.049461" lon="-0.494056">
        <ele>87.868295</ele>
        <time>2020-08-02T06:47:00.808Z</time>
      </trkpt>
      <trkpt lat="39.049341" lon="-0.494054">
        <ele>87.859802</ele>
        <time>2020-08-02T06:47:02.796Z</time>
      </trkpt>
      <trkpt lat="39.049214" lon="-0.494037">
        <ele>87.850766</ele>
        <time>2020-08-02T06:47:04.795Z</time>
      </trkpt>
      <trkpt lat="39.049086" lon="-0.494002">
        <ele>87.841505</ele>
        <time>2020-08-02T06:47:06.801Z</time>
      </trkpt>
      <trkpt lat="39.048982" lon="-0.493972">
        <ele>87.833963</ele>
        <time>2020-08-02T06:47:08.809Z</time>
      </trkpt>
      <trkpt lat="39.048846" lon="-0.493967">
        <ele>87.824334</ele>
        <time>2020-08-02T06:47:12.796Z</time>
      </trkpt>
      <trkpt lat="39.048749" lon="-0.493852">
        <ele>87.815003</ele>
        <time>2020-08-02T06:47:14.798Z</time>
      </trkpt>
      <trkpt lat="39.048631" lon="-0.493743">
        <ele>87.804726</ele>
        <time>2020-08-02T06:47:16.787Z</time>
      </trkpt>
      <trkpt lat="39.048520" lon="-0.493767">
        <ele>87.796760</ele>
        <time>2020-08-02T06:47:18.807Z</time>
      </trkpt>
      <trkpt lat="39.048433" lon="-0.493694">
        <ele>87.791800</ele>
        <time>2020-08-02T06:47:20.812Z</time>
      </trkpt>
      <trkpt lat="39.048336" lon="-0.493601">
        <ele>87.868357</ele>
        <time>2020-08-02T06:47:22.800Z</time>
      </trkpt>
      <trkpt lat="39.048237" lon="-0.493534">
        <ele>87.939158</ele>
        <time>2020-08-02T06:47:24.811Z</time>
      </trkpt>
      <trkpt lat="39.048179" lon="-0.493420">
        <ele>88.006159</ele>
        <time>2020-08-02T06:47:26.802Z</time>
      </trkpt>
      <trkpt lat="39.048082" lon="-0.493418">
        <ele>88.067572</ele>
        <time>2020-08-02T06:47:28.799Z</time>
      </trkpt>
      <trkpt lat="39.047957" lon="-0.493387">
        <ele>88.148157</ele>
        <time>2020-08-02T06:47:31.800Z</time>
      </trkpt>
      <trkpt lat="39.047863" lon="-0.493338">
        <ele>88.212354</ele>
        <time>2020-08-02T06:47:34.829Z</time>
      </trkpt>
      <trkpt lat="39.047769" lon="-0.493317">
        <ele>88.272749</ele>
        <time>2020-08-02T06:47:38.791Z</time>
      </trkpt>
      <trkpt lat="39.047672" lon="-0.493395">
        <ele>88.345145</ele>
        <time>2020-08-02T06:47:42.818Z</time>
      </trkpt>
      <trkpt lat="39.047567" lon="-0.493404">
        <ele>88.411761</ele>
        <time>2020-08-02T06:47:46.797Z</time>
      </trkpt>
      <trkpt lat="39.047469" lon="-0.493394">
        <ele>88.473994</ele>
        <time>2020-08-02T06:47:50.794Z</time>
      </trkpt>
      <trkpt lat="39.047381" lon="-0.493191">
        <ele>88.588291</ele>
        <time>2020-08-02T06:47:51.799Z</time>
      </trkpt>
      <trkpt lat="39.047205" lon="-0.493339">
        <ele>88.721361</ele>
        <time>2020-08-02T06:47:54.802Z</time>
      </trkpt>
      <trkpt lat="39.047104" lon="-0.493358">
        <ele>88.785977</ele>
        <time>2020-08-02T06:47:56.796Z</time>
      </trkpt>
      <trkpt lat="39.047042" lon="-0.493203">
        <ele>88.871695</ele>
        <time>2020-08-02T06:47:59.799Z</time>
      </trkpt>
      <trkpt lat="39.047049" lon="-0.493075">
        <ele>89.001784</ele>
        <time>2020-08-02T06:48:02.792Z</time>
      </trkpt>
      <trkpt lat="39.047151" lon="-0.493018">
        <ele>89.796424</ele>
        <time>2020-08-02T06:48:04.790Z</time>
      </trkpt>
      <trkpt lat="39.047232" lon="-0.492931">
        <ele>90.550251</ele>
        <time>2020-08-02T06:48:06.793Z</time>
      </trkpt>
      <trkpt lat="39.047330" lon="-0.492883">
        <ele>91.299573</ele>
        <time>2020-08-02T06:48:10.795Z</time>
      </trkpt>
      <trkpt lat="39.047453" lon="-0.492895">
        <ele>92.181120</ele>
        <time>2020-08-02T06:48:13.806Z</time>
      </trkpt>
      <trkpt lat="39.047542" lon="-0.492940">
        <ele>92.864444</ele>
        <time>2020-08-02T06:48:15.785Z</time>
      </trkpt>
      <trkpt lat="39.047632" lon="-0.492974">
        <ele>93.534746</ele>
        <time>2020-08-02T06:48:17.777Z</time>
      </trkpt>
      <trkpt lat="39.047722" lon="-0.492994">
        <ele>94.187445</ele>
        <time>2020-08-02T06:48:20.807Z</time>
      </trkpt>
      <trkpt lat="39.047679" lon="-0.492878">
        <ele>94.900845</ele>
        <time>2020-08-02T06:48:28.801Z</time>
      </trkpt>
      <trkpt lat="39.047563" lon="-0.492834">
        <ele>95.765068</ele>
        <time>2020-08-02T06:48:31.790Z</time>
      </trkpt>
      <trkpt lat="39.047449" lon="-0.492750">
        <ele>96.703741</ele>
        <time>2020-08-02T06:48:34.802Z</time>
      </trkpt>
      <trkpt lat="39.047351" lon="-0.492641">
        <ele>97.629214</ele>
        <time>2020-08-02T06:48:36.798Z</time>
      </trkpt>
      <trkpt lat="39.047243" lon="-0.492534">
        <ele>98.603075</ele>
        <time>2020-08-02T06:48:39.801Z</time>
      </trkpt>
      <trkpt lat="39.047127" lon="-0.492456">
        <ele>99.538307</ele>
        <time>2020-08-02T06:48:42.804Z</time>
      </trkpt>
      <trkpt lat="39.047023" lon="-0.492426">
        <ele>100.299973</ele>
        <time>2020-08-02T06:48:45.807Z</time>
      </trkpt>
      <trkpt lat="39.046913" lon="-0.492333">
        <ele>101.240410</ele>
        <time>2020-08-02T06:48:48.803Z</time>
      </trkpt>
      <trkpt lat="39.046808" lon="-0.492256">
        <ele>102.100818</ele>
        <time>2020-08-02T06:48:51.839Z</time>
      </trkpt>
      <trkpt lat="39.046690" lon="-0.492180">
        <ele>103.034498</ele>
        <time>2020-08-02T06:48:54.807Z</time>
      </trkpt>
      <trkpt lat="39.046598" lon="-0.492109">
        <ele>103.793529</ele>
        <time>2020-08-02T06:48:57.790Z</time>
      </trkpt>
      <trkpt lat="39.046500" lon="-0.492093">
        <ele>104.492590</ele>
        <time>2020-08-02T06:49:00.798Z</time>
      </trkpt>
      <trkpt lat="39.046406" lon="-0.492016">
        <ele>105.280995</ele>
        <time>2020-08-02T06:49:03.801Z</time>
      </trkpt>
      <trkpt lat="39.046311" lon="-0.491949">
        <ele>106.047513</ele>
        <time>2020-08-02T06:49:06.804Z</time>
      </trkpt>
      <trkpt lat="39.046213" lon="-0.491878">
        <ele>106.843265</ele>
        <time>2020-08-02T06:49:09.792Z</time>
      </trkpt>
      <trkpt lat="39.046124" lon="-0.491838">
        <ele>107.510349</ele>
        <time>2020-08-02T06:49:12.807Z</time>
      </trkpt>
      <trkpt lat="39.046023" lon="-0.491777">
        <ele>108.299808</ele>
        <time>2020-08-02T06:49:16.799Z</time>
      </trkpt>
      <trkpt lat="39.045935" lon="-0.491749">
        <ele>108.941282</ele>
        <time>2020-08-02T06:49:20.806Z</time>
      </trkpt>
      <trkpt lat="39.045849" lon="-0.491670">
        <ele>109.688876</ele>
        <time>2020-08-02T06:49:25.802Z</time>
      </trkpt>
      <trkpt lat="39.045779" lon="-0.491585">
        <ele>110.369774</ele>
        <time>2020-08-02T06:49:29.816Z</time>
      </trkpt>
      <trkpt lat="39.045696" lon="-0.491540">
        <ele>111.007079</ele>
        <time>2020-08-02T06:49:33.835Z</time>
      </trkpt>
      <trkpt lat="39.045590" lon="-0.491477">
        <ele>111.833257</ele>
        <time>2020-08-02T06:49:37.801Z</time>
      </trkpt>
      <trkpt lat="39.045487" lon="-0.491437">
        <ele>112.594580</ele>
        <time>2020-08-02T06:49:41.807Z</time>
      </trkpt>
      <trkpt lat="39.045379" lon="-0.491388">
        <ele>113.404914</ele>
        <time>2020-08-02T06:49:45.805Z</time>
      </trkpt>
      <trkpt lat="39.045272" lon="-0.491330">
        <ele>114.226475</ele>
        <time>2020-08-02T06:49:49.810Z</time>
      </trkpt>
      <trkpt lat="39.045167" lon="-0.491257">
        <ele>114.477737</ele>
        <time>2020-08-02T06:49:53.801Z</time>
      </trkpt>
      <trkpt lat="39.045076" lon="-0.491155">
        <ele>114.427511</ele>
        <time>2020-08-02T06:49:56.803Z</time>
      </trkpt>
      <trkpt lat="39.044971" lon="-0.491058">
        <ele>114.373713</ele>
        <time>2020-08-02T06:49:59.809Z</time>
      </trkpt>
      <trkpt lat="39.044903" lon="-0.490978">
        <ele>114.335368</ele>
        <time>2020-08-02T06:50:01.807Z</time>
      </trkpt>
      <trkpt lat="39.044828" lon="-0.490908">
        <ele>114.296806</ele>
        <time>2020-08-02T06:50:03.792Z</time>
      </trkpt>
      <trkpt lat="39.044733" lon="-0.490813">
        <ele>114.246732</ele>
        <time>2020-08-02T06:50:06.808Z</time>
      </trkpt>
      <trkpt lat="39.044626" lon="-0.490720">
        <ele>114.192989</ele>
        <time>2020-08-02T06:50:09.781Z</time>
      </trkpt>
      <trkpt lat="39.044546" lon="-0.490658">
        <ele>114.154118</ele>
        <time>2020-08-02T06:50:11.800Z</time>
      </trkpt>
      <trkpt lat="39.044466" lon="-0.490592">
        <ele>114.114565</ele>
        <time>2020-08-02T06:50:13.780Z</time>
      </trkpt>
      <trkpt lat="39.044355" lon="-0.490530">
        <ele>114.064195</ele>
        <time>2020-08-02T06:50:15.807Z</time>
      </trkpt>
      <trkpt lat="39.044256" lon="-0.490467">
        <ele>114.018223</ele>
        <time>2020-08-02T06:50:18.801Z</time>
      </trkpt>
      <trkpt lat="39.044154" lon="-0.490397">
        <ele>113.970106</ele>
        <time>2020-08-02T06:50:21.832Z</time>
      </trkpt>
      <trkpt lat="39.044068" lon="-0.490352">
        <ele>113.931461</ele>
        <time>2020-08-02T06:50:24.805Z</time>
      </trkpt>
      <trkpt lat="39.043960" lon="-0.490272">
        <ele>113.879592</ele>
        <time>2020-08-02T06:50:27.799Z</time>
      </trkpt>
      <trkpt lat="39.043856" lon="-0.490201">
        <ele>113.830588</ele>
        <time>2020-08-02T06:50:30.803Z</time>
      </trkpt>
      <trkpt lat="39.043799" lon="-0.490102">
        <ele>113.790743</ele>
        <time>2020-08-02T06:50:33.794Z</time>
      </trkpt>
      <trkpt lat="39.043741" lon="-0.490000">
        <ele>113.706773</ele>
        <time>2020-08-02T06:50:36.806Z</time>
      </trkpt>
      <trkpt lat="39.043646" lon="-0.489989">
        <ele>113.525138</ele>
        <time>2020-08-02T06:50:43.808Z</time>
      </trkpt>
      <trkpt lat="39.043537" lon="-0.489964">
        <ele>113.314307</ele>
        <time>2020-08-02T06:50:49.806Z</time>
      </trkpt>
      <trkpt lat="39.043413" lon="-0.489946">
        <ele>113.076684</ele>
        <time>2020-08-02T06:50:53.811Z</time>
      </trkpt>
      <trkpt lat="39.043289" lon="-0.489881">
        <ele>112.821737</ele>
        <time>2020-08-02T06:50:56.812Z</time>
      </trkpt>
      <trkpt lat="39.043201" lon="-0.489815">
        <ele>112.627806</ele>
        <time>2020-08-02T06:50:58.802Z</time>
      </trkpt>
      <trkpt lat="39.043108" lon="-0.489758">
        <ele>112.431669</ele>
        <time>2020-08-02T06:51:00.809Z</time>
      </trkpt>
      <trkpt lat="39.043039" lon="-0.489663">
        <ele>112.239301</ele>
        <time>2020-08-02T06:51:02.785Z</time>
      </trkpt>
      <trkpt lat="39.042955" lon="-0.489589">
        <ele>112.045485</ele>
        <time>2020-08-02T06:51:04.797Z</time>
      </trkpt>
      <trkpt lat="39.042864" lon="-0.489502">
        <ele>111.829650</ele>
        <time>2020-08-02T06:51:07.814Z</time>
      </trkpt>
      <trkpt lat="39.042794" lon="-0.489377">
        <ele>111.601732</ele>
        <time>2020-08-02T06:51:10.802Z</time>
      </trkpt>
      <trkpt lat="39.042686" lon="-0.489302">
        <ele>111.368066</ele>
        <time>2020-08-02T06:51:13.803Z</time>
      </trkpt>
      <trkpt lat="39.042583" lon="-0.489189">
        <ele>111.110381</ele>
        <time>2020-08-02T06:51:16.806Z</time>
      </trkpt>
      <trkpt lat="39.042501" lon="-0.489104">
        <ele>110.909915</ele>
        <time>2020-08-02T06:51:18.797Z</time>
      </trkpt>
      <trkpt lat="39.042404" lon="-0.489010">
        <ele>110.678729</ele>
        <time>2020-08-02T06:51:21.811Z</time>
      </trkpt>
      <trkpt lat="39.042329" lon="-0.488900">
        <ele>110.462246</ele>
        <time>2020-08-02T06:51:23.800Z</time>
      </trkpt>
      <trkpt lat="39.042254" lon="-0.488818">
        <ele>110.169966</ele>
        <time>2020-08-02T06:51:25.807Z</time>
      </trkpt>
      <trkpt lat="39.042159" lon="-0.488703">
        <ele>109.501306</ele>
        <time>2020-08-02T06:51:28.808Z</time>
      </trkpt>
      <trkpt lat="39.042053" lon="-0.488621">
        <ele>108.867174</ele>
        <time>2020-08-02T06:51:31.805Z</time>
      </trkpt>
      <trkpt lat="39.041954" lon="-0.488508">
        <ele>108.188734</ele>
        <time>2020-08-02T06:51:34.806Z</time>
      </trkpt>
      <trkpt lat="39.041862" lon="-0.488446">
        <ele>107.656243</ele>
        <time>2020-08-02T06:51:37.780Z</time>
      </trkpt>
      <trkpt lat="39.041763" lon="-0.488339">
        <ele>106.993414</ele>
        <time>2020-08-02T06:51:40.801Z</time>
      </trkpt>
      <trkpt lat="39.041663" lon="-0.488242">
        <ele>106.351375</ele>
        <time>2020-08-02T06:51:43.800Z</time>
      </trkpt>
      <trkpt lat="39.041563" lon="-0.488155">
        <ele>105.732483</ele>
        <time>2020-08-02T06:51:46.805Z</time>
      </trkpt>
      <trkpt lat="39.041464" lon="-0.488077">
        <ele>105.137303</ele>
        <time>2020-08-02T06:51:49.800Z</time>
      </trkpt>
      <trkpt lat="39.041359" lon="-0.487990">
        <ele>104.497005</ele>
        <time>2020-08-02T06:51:52.803Z</time>
      </trkpt>
      <trkpt lat="39.041262" lon="-0.487920">
        <ele>103.926787</ele>
        <time>2020-08-02T06:51:55.782Z</time>
      </trkpt>
      <trkpt lat="39.041164" lon="-0.487831">
        <ele>103.311807</ele>
        <time>2020-08-02T06:51:58.805Z</time>
      </trkpt>
      <trkpt lat="39.041062" lon="-0.487772">
        <ele>102.738393</ele>
        <time>2020-08-02T06:52:01.803Z</time>
      </trkpt>
      <trkpt lat="39.040955" lon="-0.487709">
        <ele>102.135048</ele>
        <time>2020-08-02T06:52:04.804Z</time>
      </trkpt>
      <trkpt lat="39.040848" lon="-0.487636">
        <ele>101.514082</ele>
        <time>2020-08-02T06:52:07.801Z</time>
      </trkpt>
      <trkpt lat="39.040742" lon="-0.487539">
        <ele>101.008936</ele>
        <time>2020-08-02T06:52:10.804Z</time>
      </trkpt>
      <trkpt lat="39.040675" lon="-0.487433">
        <ele>100.795242</ele>
        <time>2020-08-02T06:52:12.807Z</time>
      </trkpt>
      <trkpt lat="39.040593" lon="-0.487380">
        <ele>100.610526</ele>
        <time>2020-08-02T06:52:14.809Z</time>
      </trkpt>
      <trkpt lat="39.040480" lon="-0.487318">
        <ele>100.363240</ele>
        <time>2020-08-02T06:52:17.802Z</time>
      </trkpt>
      <trkpt lat="39.040404" lon="-0.487237">
        <ele>100.164616</ele>
        <time>2020-08-02T06:52:19.813Z</time>
      </trkpt>
      <trkpt lat="39.040300" lon="-0.487141">
        <ele>99.906993</ele>
        <time>2020-08-02T06:52:22.812Z</time>
      </trkpt>
      <trkpt lat="39.040207" lon="-0.487064">
        <ele>99.684394</ele>
        <time>2020-08-02T06:52:25.807Z</time>
      </trkpt>
      <trkpt lat="39.040111" lon="-0.486960">
        <ele>99.431813</ele>
        <time>2020-08-02T06:52:28.797Z</time>
      </trkpt>
      <trkpt lat="39.040007" lon="-0.486866">
        <ele>99.175999</ele>
        <time>2020-08-02T06:52:31.787Z</time>
      </trkpt>
      <trkpt lat="39.039902" lon="-0.486783">
        <ele>98.927951</ele>
        <time>2020-08-02T06:52:34.807Z</time>
      </trkpt>
      <trkpt lat="39.039803" lon="-0.486702">
        <ele>98.691806</ele>
        <time>2020-08-02T06:52:37.832Z</time>
      </trkpt>
      <trkpt lat="39.039700" lon="-0.486612">
        <ele>98.441202</ele>
        <time>2020-08-02T06:52:40.812Z</time>
      </trkpt>
      <trkpt lat="39.039605" lon="-0.486624">
        <ele>98.249030</ele>
        <time>2020-08-02T06:52:42.811Z</time>
      </trkpt>
      <trkpt lat="39.039496" lon="-0.486571">
        <ele>98.014465</ele>
        <time>2020-08-02T06:52:45.787Z</time>
      </trkpt>
      <trkpt lat="39.039421" lon="-0.486505">
        <ele>97.831575</ele>
        <time>2020-08-02T06:52:47.809Z</time>
      </trkpt>
      <trkpt lat="39.039345" lon="-0.486437">
        <ele>97.645254</ele>
        <time>2020-08-02T06:52:49.808Z</time>
      </trkpt>
      <trkpt lat="39.039239" lon="-0.486383">
        <ele>97.424902</ele>
        <time>2020-08-02T06:52:52.814Z</time>
      </trkpt>
      <trkpt lat="39.039135" lon="-0.486297">
        <ele>97.205732</ele>
        <time>2020-08-02T06:52:55.807Z</time>
      </trkpt>
      <trkpt lat="39.039038" lon="-0.486238">
        <ele>97.015506</ele>
        <time>2020-08-02T06:52:58.797Z</time>
      </trkpt>
      <trkpt lat="39.038951" lon="-0.486201">
        <ele>96.853043</ele>
        <time>2020-08-02T06:53:01.806Z</time>
      </trkpt>
      <trkpt lat="39.038847" lon="-0.486145">
        <ele>96.653155</ele>
        <time>2020-08-02T06:53:05.811Z</time>
      </trkpt>
      <trkpt lat="39.038764" lon="-0.486074">
        <ele>96.476458</ele>
        <time>2020-08-02T06:53:08.792Z</time>
      </trkpt>
      <trkpt lat="39.038665" lon="-0.486014">
        <ele>96.282438</ele>
        <time>2020-08-02T06:53:11.806Z</time>
      </trkpt>
      <trkpt lat="39.038554" lon="-0.485932">
        <ele>96.055517</ele>
        <time>2020-08-02T06:53:14.814Z</time>
      </trkpt>
      <trkpt lat="39.038456" lon="-0.485866">
        <ele>95.859409</ele>
        <time>2020-08-02T06:53:17.805Z</time>
      </trkpt>
      <trkpt lat="39.038361" lon="-0.485797">
        <ele>95.666001</ele>
        <time>2020-08-02T06:53:20.789Z</time>
      </trkpt>
      <trkpt lat="39.038273" lon="-0.485713">
        <ele>95.471754</ele>
        <time>2020-08-02T06:53:23.810Z</time>
      </trkpt>
      <trkpt lat="39.038177" lon="-0.485624">
        <ele>95.261989</ele>
        <time>2020-08-02T06:53:26.805Z</time>
      </trkpt>
      <trkpt lat="39.038086" lon="-0.485535">
        <ele>95.059353</ele>
        <time>2020-08-02T06:53:29.799Z</time>
      </trkpt>
      <trkpt lat="39.037993" lon="-0.485431">
        <ele>94.840928</ele>
        <time>2020-08-02T06:53:32.779Z</time>
      </trkpt>
      <trkpt lat="39.037884" lon="-0.485345">
        <ele>94.614246</ele>
        <time>2020-08-02T06:53:35.824Z</time>
      </trkpt>
      <trkpt lat="39.037782" lon="-0.485253">
        <ele>94.393415</ele>
        <time>2020-08-02T06:53:38.782Z</time>
      </trkpt>
      <trkpt lat="39.037676" lon="-0.485173">
        <ele>94.291949</ele>
        <time>2020-08-02T06:53:41.805Z</time>
      </trkpt>
      <trkpt lat="39.037616" lon="-0.485028">
        <ele>94.272061</ele>
        <time>2020-08-02T06:53:44.802Z</time>
      </trkpt>
      <trkpt lat="39.037534" lon="-0.484954">
        <ele>94.256455</ele>
        <time>2020-08-02T06:53:46.807Z</time>
      </trkpt>
      <trkpt lat="39.037423" lon="-0.484895">
        <ele>94.237739</ele>
        <time>2020-08-02T06:53:49.783Z</time>
      </trkpt>
      <trkpt lat="39.037321" lon="-0.484908">
        <ele>94.221765</ele>
        <time>2020-08-02T06:53:51.801Z</time>
      </trkpt>
      <trkpt lat="39.037217" lon="-0.484881">
        <ele>94.205230</ele>
        <time>2020-08-02T06:53:53.809Z</time>
      </trkpt>
      <trkpt lat="39.037120" lon="-0.484829">
        <ele>94.188855</ele>
        <time>2020-08-02T06:53:55.818Z</time>
      </trkpt>
      <trkpt lat="39.037004" lon="-0.484803">
        <ele>94.170504</ele>
        <time>2020-08-02T06:53:57.803Z</time>
      </trkpt>
      <trkpt lat="39.036906" lon="-0.484767">
        <ele>94.154622</ele>
        <time>2020-08-02T06:53:59.801Z</time>
      </trkpt>
      <trkpt lat="39.036787" lon="-0.484680">
        <ele>94.133294</ele>
        <time>2020-08-02T06:54:02.797Z</time>
      </trkpt>
      <trkpt lat="39.036709" lon="-0.484589">
        <ele>94.116889</ele>
        <time>2020-08-02T06:54:06.808Z</time>
      </trkpt>
      <trkpt lat="39.036615" lon="-0.484494">
        <ele>94.098264</ele>
        <time>2020-08-02T06:54:09.798Z</time>
      </trkpt>
      <trkpt lat="39.036523" lon="-0.484426">
        <ele>94.081731</ele>
        <time>2020-08-02T06:54:12.788Z</time>
      </trkpt>
      <trkpt lat="39.036403" lon="-0.484354">
        <ele>94.061098</ele>
        <time>2020-08-02T06:54:15.796Z</time>
      </trkpt>
      <trkpt lat="39.036283" lon="-0.484320">
        <ele>94.041949</ele>
        <time>2020-08-02T06:54:18.806Z</time>
      </trkpt>
      <trkpt lat="39.036165" lon="-0.484272">
        <ele>94.022998</ele>
        <time>2020-08-02T06:54:21.793Z</time>
      </trkpt>
      <trkpt lat="39.036030" lon="-0.484208">
        <ele>94.040814</ele>
        <time>2020-08-02T06:54:24.798Z</time>
      </trkpt>
      <trkpt lat="39.035938" lon="-0.484099">
        <ele>94.056298</ele>
        <time>2020-08-02T06:54:27.806Z</time>
      </trkpt>
      <trkpt lat="39.035822" lon="-0.484004">
        <ele>94.073323</ele>
        <time>2020-08-02T06:54:30.772Z</time>
      </trkpt>
      <trkpt lat="39.035722" lon="-0.483960">
        <ele>94.086411</ele>
        <time>2020-08-02T06:54:32.803Z</time>
      </trkpt>
      <trkpt lat="39.035627" lon="-0.483971">
        <ele>94.098223</ele>
        <time>2020-08-02T06:54:34.809Z</time>
      </trkpt>
      <trkpt lat="39.035522" lon="-0.483938">
        <ele>94.111608</ele>
        <time>2020-08-02T06:54:37.803Z</time>
      </trkpt>
      <trkpt lat="39.035402" lon="-0.483894">
        <ele>94.127060</ele>
        <time>2020-08-02T06:54:40.806Z</time>
      </trkpt>
      <trkpt lat="39.035333" lon="-0.483817">
        <ele>94.138368</ele>
        <time>2020-08-02T06:54:42.804Z</time>
      </trkpt>
      <trkpt lat="39.035232" lon="-0.483810">
        <ele>94.150894</ele>
        <time>2020-08-02T06:54:44.800Z</time>
      </trkpt>
      <trkpt lat="39.035138" lon="-0.483762">
        <ele>94.163417</ele>
        <time>2020-08-02T06:54:46.807Z</time>
      </trkpt>
      <trkpt lat="39.035033" lon="-0.483694">
        <ele>94.177973</ele>
        <time>2020-08-02T06:54:49.802Z</time>
      </trkpt>
      <trkpt lat="39.034931" lon="-0.483645">
        <ele>94.191455</ele>
        <time>2020-08-02T06:54:51.806Z</time>
      </trkpt>
      <trkpt lat="39.034844" lon="-0.483585">
        <ele>94.203678</ele>
        <time>2020-08-02T06:54:54.797Z</time>
      </trkpt>
      <trkpt lat="39.034734" lon="-0.483530">
        <ele>94.218292</ele>
        <time>2020-08-02T06:54:58.810Z</time>
      </trkpt>
      <trkpt lat="39.034647" lon="-0.483480">
        <ele>94.230091</ele>
        <time>2020-08-02T06:55:01.803Z</time>
      </trkpt>
      <trkpt lat="39.034564" lon="-0.483404">
        <ele>94.242704</ele>
        <time>2020-08-02T06:55:04.806Z</time>
      </trkpt>
      <trkpt lat="39.034498" lon="-0.483316">
        <ele>94.274265</ele>
        <time>2020-08-02T06:55:07.789Z</time>
      </trkpt>
      <trkpt lat="39.034408" lon="-0.483225">
        <ele>94.320035</ele>
        <time>2020-08-02T06:55:11.793Z</time>
      </trkpt>
      <trkpt lat="39.034299" lon="-0.483172">
        <ele>94.366635</ele>
        <time>2020-08-02T06:55:14.801Z</time>
      </trkpt>
      <trkpt lat="39.034213" lon="-0.483135">
        <ele>94.402900</ele>
        <time>2020-08-02T06:55:17.808Z</time>
      </trkpt>
      <trkpt lat="39.033962" lon="-0.482724">
        <ele>94.565321</ele>
        <time>2020-08-02T06:55:54.802Z</time>
      </trkpt>
      <trkpt lat="39.033908" lon="-0.482588">
        <ele>94.612771</ele>
        <time>2020-08-02T06:55:57.803Z</time>
      </trkpt>
      <trkpt lat="39.033859" lon="-0.482479">
        <ele>94.651896</ele>
        <time>2020-08-02T06:56:01.804Z</time>
      </trkpt>
      <trkpt lat="39.033788" lon="-0.482398">
        <ele>94.689838</ele>
        <time>2020-08-02T06:56:05.804Z</time>
      </trkpt>
      <trkpt lat="39.033717" lon="-0.482293">
        <ele>94.733086</ele>
        <time>2020-08-02T06:56:09.806Z</time>
      </trkpt>
      <trkpt lat="39.033637" lon="-0.482202">
        <ele>94.775782</ele>
        <time>2020-08-02T06:56:13.802Z</time>
      </trkpt>
      <trkpt lat="39.033555" lon="-0.482116">
        <ele>94.818083</ele>
        <time>2020-08-02T06:56:22.791Z</time>
      </trkpt>
      <trkpt lat="39.033470" lon="-0.482020">
        <ele>94.863307</ele>
        <time>2020-08-02T06:56:27.804Z</time>
      </trkpt>
      <trkpt lat="39.033414" lon="-0.481888">
        <ele>94.910032</ele>
        <time>2020-08-02T06:56:31.787Z</time>
      </trkpt>
      <trkpt lat="39.033357" lon="-0.481781">
        <ele>94.950340</ele>
        <time>2020-08-02T06:56:34.814Z</time>
      </trkpt>
      <trkpt lat="39.033301" lon="-0.481689">
        <ele>95.343762</ele>
        <time>2020-08-02T06:56:37.796Z</time>
      </trkpt>
      <trkpt lat="39.033236" lon="-0.481590">
        <ele>96.046779</ele>
        <time>2020-08-02T06:56:41.798Z</time>
      </trkpt>
      <trkpt lat="39.033148" lon="-0.481525">
        <ele>96.755134</ele>
        <time>2020-08-02T06:56:45.806Z</time>
      </trkpt>
      <trkpt lat="39.033063" lon="-0.481458">
        <ele>97.451001</ele>
        <time>2020-08-02T06:56:49.811Z</time>
      </trkpt>
      <trkpt lat="39.032990" lon="-0.481378">
        <ele>98.120342</ele>
        <time>2020-08-02T06:56:53.806Z</time>
      </trkpt>
      <trkpt lat="39.032920" lon="-0.481293">
        <ele>98.792183</ele>
        <time>2020-08-02T06:56:58.802Z</time>
      </trkpt>
      <trkpt lat="39.032818" lon="-0.481277">
        <ele>99.509603</ele>
        <time>2020-08-02T06:57:04.790Z</time>
      </trkpt>
      <trkpt lat="39.032724" lon="-0.481221">
        <ele>100.232768</ele>
        <time>2020-08-02T06:57:10.795Z</time>
      </trkpt>
      <trkpt lat="39.032626" lon="-0.481204">
        <ele>100.923176</ele>
        <time>2020-08-02T06:57:15.788Z</time>
      </trkpt>
      <trkpt lat="39.032532" lon="-0.481219">
        <ele>101.584496</ele>
        <time>2020-08-02T06:57:18.793Z</time>
      </trkpt>
      <trkpt lat="39.032415" lon="-0.481251">
        <ele>102.419609</ele>
        <time>2020-08-02T06:57:50.806Z</time>
      </trkpt>
      <trkpt lat="39.032297" lon="-0.481319">
        <ele>103.322250</ele>
        <time>2020-08-02T06:57:53.811Z</time>
      </trkpt>
      <trkpt lat="39.032209" lon="-0.481354">
        <ele>103.965310</ele>
        <time>2020-08-02T06:57:55.808Z</time>
      </trkpt>
      <trkpt lat="39.032082" lon="-0.481405">
        <ele>104.894149</ele>
        <time>2020-08-02T06:57:58.804Z</time>
      </trkpt>
      <trkpt lat="39.031995" lon="-0.481456">
        <ele>105.561585</ele>
        <time>2020-08-02T06:58:00.801Z</time>
      </trkpt>
      <trkpt lat="39.031877" lon="-0.481542">
        <ele>106.508315</ele>
        <time>2020-08-02T06:58:03.815Z</time>
      </trkpt>
      <trkpt lat="39.031742" lon="-0.481593">
        <ele>107.490616</ele>
        <time>2020-08-02T06:58:06.801Z</time>
      </trkpt>
      <trkpt lat="39.031629" lon="-0.481645">
        <ele>106.928755</ele>
        <time>2020-08-02T06:58:09.803Z</time>
      </trkpt>
      <trkpt lat="39.031540" lon="-0.481674">
        <ele>106.456031</ele>
        <time>2020-08-02T06:58:39.596Z</time>
      </trkpt>
      <trkpt lat="39.031441" lon="-0.481758">
        <ele>105.845502</ele>
        <time>2020-08-02T06:58:43.602Z</time>
      </trkpt>
      <trkpt lat="39.031339" lon="-0.481811">
        <ele>105.279121</ele>
        <time>2020-08-02T06:58:46.590Z</time>
      </trkpt>
      <trkpt lat="39.031253" lon="-0.481855">
        <ele>104.802605</ele>
        <time>2020-08-02T06:58:48.598Z</time>
      </trkpt>
      <trkpt lat="39.031149" lon="-0.481882">
        <ele>104.256315</ele>
        <time>2020-08-02T06:58:50.597Z</time>
      </trkpt>
      <trkpt lat="39.031059" lon="-0.481918">
        <ele>103.771037</ele>
        <time>2020-08-02T06:58:52.566Z</time>
      </trkpt>
      <trkpt lat="39.030967" lon="-0.481972">
        <ele>103.250400</ele>
        <time>2020-08-02T06:58:54.583Z</time>
      </trkpt>
      <trkpt lat="39.030857" lon="-0.482012">
        <ele>102.661833</ele>
        <time>2020-08-02T06:58:56.598Z</time>
      </trkpt>
      <trkpt lat="39.030766" lon="-0.482080">
        <ele>102.120041</ele>
        <time>2020-08-02T06:58:58.594Z</time>
      </trkpt>
      <trkpt lat="39.030674" lon="-0.482101">
        <ele>101.638932</ele>
        <time>2020-08-02T06:59:00.582Z</time>
      </trkpt>
      <trkpt lat="39.030595" lon="-0.482159">
        <ele>101.170646</ele>
        <time>2020-08-02T06:59:02.592Z</time>
      </trkpt>
      <trkpt lat="39.030489" lon="-0.482184">
        <ele>100.615754</ele>
        <time>2020-08-02T06:59:04.592Z</time>
      </trkpt>
      <trkpt lat="39.030388" lon="-0.482223">
        <ele>100.072800</ele>
        <time>2020-08-02T06:59:06.601Z</time>
      </trkpt>
      <trkpt lat="39.030296" lon="-0.482253">
        <ele>99.584119</ele>
        <time>2020-08-02T06:59:08.598Z</time>
      </trkpt>
      <trkpt lat="39.030176" lon="-0.482250">
        <ele>98.966107</ele>
        <time>2020-08-02T06:59:10.592Z</time>
      </trkpt>
      <trkpt lat="39.030046" lon="-0.482225">
        <ele>98.289293</ele>
        <time>2020-08-02T06:59:12.577Z</time>
      </trkpt>
      <trkpt lat="39.029923" lon="-0.482222">
        <ele>98.431987</ele>
        <time>2020-08-02T06:59:14.593Z</time>
      </trkpt>
      <trkpt lat="39.029801" lon="-0.482223">
        <ele>98.608907</ele>
        <time>2020-08-02T06:59:16.605Z</time>
      </trkpt>
      <trkpt lat="39.029627" lon="-0.482194">
        <ele>98.863338</ele>
        <time>2020-08-02T06:59:18.601Z</time>
      </trkpt>
      <trkpt lat="39.029477" lon="-0.482145">
        <ele>99.087753</ele>
        <time>2020-08-02T06:59:20.595Z</time>
      </trkpt>
      <trkpt lat="39.029363" lon="-0.482156">
        <ele>99.253533</ele>
        <time>2020-08-02T06:59:22.594Z</time>
      </trkpt>
      <trkpt lat="39.029258" lon="-0.482105">
        <ele>99.416276</ele>
        <time>2020-08-02T06:59:23.598Z</time>
      </trkpt>
      <trkpt lat="39.029134" lon="-0.482134">
        <ele>99.599036</ele>
        <time>2020-08-02T06:59:25.609Z</time>
      </trkpt>
      <trkpt lat="39.029001" lon="-0.482230">
        <ele>99.820155</ele>
        <time>2020-08-02T06:59:27.613Z</time>
      </trkpt>
      <trkpt lat="39.028923" lon="-0.482376">
        <ele>100.019766</ele>
        <time>2020-08-02T06:59:29.584Z</time>
      </trkpt>
      <trkpt lat="39.028867" lon="-0.482574">
        <ele>100.257139</ele>
        <time>2020-08-02T06:59:31.592Z</time>
      </trkpt>
      <trkpt lat="39.028821" lon="-0.482745">
        <ele>100.460995</ele>
        <time>2020-08-02T06:59:33.603Z</time>
      </trkpt>
      <trkpt lat="39.028756" lon="-0.482899">
        <ele>100.658431</ele>
        <time>2020-08-02T06:59:35.582Z</time>
      </trkpt>
      <trkpt lat="39.028711" lon="-0.483052">
        <ele>100.842727</ele>
        <time>2020-08-02T06:59:37.594Z</time>
      </trkpt>
      <trkpt lat="39.028654" lon="-0.483202">
        <ele>101.204247</ele>
        <time>2020-08-02T06:59:39.602Z</time>
      </trkpt>
      <trkpt lat="39.028626" lon="-0.483325">
        <ele>101.504036</ele>
        <time>2020-08-02T06:59:41.571Z</time>
      </trkpt>
      <trkpt lat="39.028575" lon="-0.483468">
        <ele>101.872070</ele>
        <time>2020-08-02T06:59:44.590Z</time>
      </trkpt>
      <trkpt lat="39.028553" lon="-0.483594">
        <ele>102.174130</ele>
        <time>2020-08-02T06:59:46.624Z</time>
      </trkpt>
      <trkpt lat="39.028512" lon="-0.483700">
        <ele>102.451092</ele>
        <time>2020-08-02T06:59:48.588Z</time>
      </trkpt>
      <trkpt lat="39.028450" lon="-0.483854">
        <ele>102.856790</ele>
        <time>2020-08-02T06:59:51.580Z</time>
      </trkpt>
      <trkpt lat="39.028418" lon="-0.484011">
        <ele>103.236436</ele>
        <time>2020-08-02T06:59:54.587Z</time>
      </trkpt>
      <trkpt lat="39.028364" lon="-0.484168">
        <ele>103.638036</ele>
        <time>2020-08-02T06:59:57.578Z</time>
      </trkpt>
      <trkpt lat="39.028316" lon="-0.484319">
        <ele>104.019644</ele>
        <time>2020-08-02T07:00:00.601Z</time>
      </trkpt>
      <trkpt lat="39.028307" lon="-0.484442">
        <ele>104.308609</ele>
        <time>2020-08-02T07:00:02.585Z</time>
      </trkpt>
      <trkpt lat="39.028284" lon="-0.484557">
        <ele>104.586361</ele>
        <time>2020-08-02T07:00:04.591Z</time>
      </trkpt>
      <trkpt lat="39.028235" lon="-0.484687">
        <ele>104.924328</ele>
        <time>2020-08-02T07:00:07.593Z</time>
      </trkpt>
      <trkpt lat="39.028238" lon="-0.484810">
        <ele>105.212163</ele>
        <time>2020-08-02T07:00:09.617Z</time>
      </trkpt>
      <trkpt lat="39.028217" lon="-0.484965">
        <ele>105.580174</ele>
        <time>2020-08-02T07:00:12.600Z</time>
      </trkpt>
      <trkpt lat="39.028241" lon="-0.485085">
        <ele>105.870003</ele>
        <time>2020-08-02T07:00:14.599Z</time>
      </trkpt>
      <trkpt lat="39.028231" lon="-0.485219">
        <ele>106.184867</ele>
        <time>2020-08-02T07:00:16.592Z</time>
      </trkpt>
      <trkpt lat="39.028232" lon="-0.485350">
        <ele>106.662504</ele>
        <time>2020-08-02T07:00:18.632Z</time>
      </trkpt>
      <trkpt lat="39.028241" lon="-0.485475">
        <ele>107.200104</ele>
        <time>2020-08-02T07:00:20.572Z</time>
      </trkpt>
      <trkpt lat="39.028284" lon="-0.485587">
        <ele>107.735116</ele>
        <time>2020-08-02T07:00:22.590Z</time>
      </trkpt>
      <trkpt lat="39.028316" lon="-0.485726">
        <ele>108.355965</ele>
        <time>2020-08-02T07:00:25.588Z</time>
      </trkpt>
      <trkpt lat="39.028336" lon="-0.485889">
        <ele>109.062656</ele>
        <time>2020-08-02T07:00:28.578Z</time>
      </trkpt>
      <trkpt lat="39.028315" lon="-0.486011">
        <ele>109.597785</ele>
        <time>2020-08-02T07:00:30.592Z</time>
      </trkpt>
      <trkpt lat="39.028304" lon="-0.486159">
        <ele>110.234480</ele>
        <time>2020-08-02T07:00:33.589Z</time>
      </trkpt>
      <trkpt lat="39.028313" lon="-0.486317">
        <ele>110.912922</ele>
        <time>2020-08-02T07:00:36.596Z</time>
      </trkpt>
      <trkpt lat="39.028327" lon="-0.486459">
        <ele>111.525907</ele>
        <time>2020-08-02T07:00:39.593Z</time>
      </trkpt>
      <trkpt lat="39.028322" lon="-0.486579">
        <ele>112.040538</ele>
        <time>2020-08-02T07:00:41.587Z</time>
      </trkpt>
      <trkpt lat="39.028347" lon="-0.486712">
        <ele>112.626539</ele>
        <time>2020-08-02T07:00:44.598Z</time>
      </trkpt>
      <trkpt lat="39.028332" lon="-0.486838">
        <ele>113.172425</ele>
        <time>2020-08-02T07:00:46.575Z</time>
      </trkpt>
      <trkpt lat="39.028335" lon="-0.486990">
        <ele>113.823566</ele>
        <time>2020-08-02T07:00:49.580Z</time>
      </trkpt>
      <trkpt lat="39.028328" lon="-0.487134">
        <ele>114.441443</ele>
        <time>2020-08-02T07:00:52.581Z</time>
      </trkpt>
      <trkpt lat="39.028323" lon="-0.487268">
        <ele>115.015951</ele>
        <time>2020-08-02T07:00:55.655Z</time>
      </trkpt>
      <trkpt lat="39.028342" lon="-0.487408">
        <ele>115.624573</ele>
        <time>2020-08-02T07:00:58.595Z</time>
      </trkpt>
      <trkpt lat="39.028361" lon="-0.487543">
        <ele>116.206154</ele>
        <time>2020-08-02T07:01:02.590Z</time>
      </trkpt>
      <trkpt lat="39.028371" lon="-0.487664">
        <ele>116.458360</ele>
        <time>2020-08-02T07:01:05.590Z</time>
      </trkpt>
      <trkpt lat="39.028383" lon="-0.487785">
        <ele>116.711186</ele>
        <time>2020-08-02T07:01:08.587Z</time>
      </trkpt>
      <trkpt lat="39.028391" lon="-0.487904">
        <ele>116.958753</ele>
        <time>2020-08-02T07:01:11.594Z</time>
      </trkpt>
      <trkpt lat="39.028403" lon="-0.488052">
        <ele>117.267172</ele>
        <time>2020-08-02T07:01:15.585Z</time>
      </trkpt>
      <trkpt lat="39.028419" lon="-0.488193">
        <ele>117.562517</ele>
        <time>2020-08-02T07:01:19.592Z</time>
      </trkpt>
      <trkpt lat="39.028430" lon="-0.488313">
        <ele>117.812961</ele>
        <time>2020-08-02T07:01:22.577Z</time>
      </trkpt>
      <trkpt lat="39.028435" lon="-0.488442">
        <ele>118.080665</ele>
        <time>2020-08-02T07:01:25.604Z</time>
      </trkpt>
      <trkpt lat="39.028431" lon="-0.488575">
        <ele>118.356534</ele>
        <time>2020-08-02T07:01:28.596Z</time>
      </trkpt>
      <trkpt lat="39.028436" lon="-0.488717">
        <ele>118.651152</ele>
        <time>2020-08-02T07:01:31.592Z</time>
      </trkpt>
      <trkpt lat="39.028464" lon="-0.488847">
        <ele>118.930762</ele>
        <time>2020-08-02T07:01:34.613Z</time>
      </trkpt>
      <trkpt lat="39.028493" lon="-0.488975">
        <ele>119.207113</ele>
        <time>2020-08-02T07:01:37.593Z</time>
      </trkpt>
      <trkpt lat="39.028471" lon="-0.489108">
        <ele>119.488956</ele>
        <time>2020-08-02T07:01:40.587Z</time>
      </trkpt>
      <trkpt lat="39.028400" lon="-0.489201">
        <ele>119.759215</ele>
        <time>2020-08-02T07:01:43.603Z</time>
      </trkpt>
      <trkpt lat="39.028300" lon="-0.489241">
        <ele>120.038606</ele>
        <time>2020-08-02T07:01:46.594Z</time>
      </trkpt>
      <trkpt lat="39.028201" lon="-0.489280">
        <ele>120.314837</ele>
        <time>2020-08-02T07:01:49.593Z</time>
      </trkpt>
      <trkpt lat="39.028100" lon="-0.489329">
        <ele>120.602816</ele>
        <time>2020-08-02T07:01:52.575Z</time>
      </trkpt>
      <trkpt lat="39.028001" lon="-0.489378">
        <ele>120.885807</ele>
        <time>2020-08-02T07:01:55.585Z</time>
      </trkpt>
      <trkpt lat="39.027912" lon="-0.489421">
        <ele>120.982483</ele>
        <time>2020-08-02T07:01:58.598Z</time>
      </trkpt>
      <trkpt lat="39.027825" lon="-0.489469">
        <ele>120.951819</ele>
        <time>2020-08-02T07:02:01.579Z</time>
      </trkpt>
      <trkpt lat="39.027730" lon="-0.489543">
        <ele>120.915848</ele>
        <time>2020-08-02T07:02:04.600Z</time>
      </trkpt>
      <trkpt lat="39.027635" lon="-0.489602">
        <ele>120.881677</ele>
        <time>2020-08-02T07:02:07.581Z</time>
      </trkpt>
      <trkpt lat="39.027534" lon="-0.489642">
        <ele>120.847444</ele>
        <time>2020-08-02T07:02:10.599Z</time>
      </trkpt>
      <trkpt lat="39.027433" lon="-0.489672">
        <ele>120.813865</ele>
        <time>2020-08-02T07:02:13.581Z</time>
      </trkpt>
      <trkpt lat="39.027330" lon="-0.489719">
        <ele>120.778463</ele>
        <time>2020-08-02T07:02:16.601Z</time>
      </trkpt>
      <trkpt lat="39.027244" lon="-0.489768">
        <ele>120.747996</ele>
        <time>2020-08-02T07:02:19.595Z</time>
      </trkpt>
      <trkpt lat="39.027157" lon="-0.489824">
        <ele>120.716485</ele>
        <time>2020-08-02T07:02:22.597Z</time>
      </trkpt>
      <trkpt lat="39.027069" lon="-0.489878">
        <ele>120.684903</ele>
        <time>2020-08-02T07:02:25.592Z</time>
      </trkpt>
      <trkpt lat="39.026980" lon="-0.489921">
        <ele>120.654107</ele>
        <time>2020-08-02T07:02:28.595Z</time>
      </trkpt>
      <trkpt lat="39.026891" lon="-0.489993">
        <ele>120.620054</ele>
        <time>2020-08-02T07:02:32.572Z</time>
      </trkpt>
      <trkpt lat="39.026825" lon="-0.490077">
        <ele>120.589987</ele>
        <time>2020-08-02T07:02:35.606Z</time>
      </trkpt>
      <trkpt lat="39.026746" lon="-0.490171">
        <ele>120.555136</ele>
        <time>2020-08-02T07:02:38.577Z</time>
      </trkpt>
      <trkpt lat="39.026678" lon="-0.490262">
        <ele>120.523359</ele>
        <time>2020-08-02T07:02:41.599Z</time>
      </trkpt>
      <trkpt lat="39.026594" lon="-0.490361">
        <ele>120.486464</ele>
        <time>2020-08-02T07:02:44.594Z</time>
      </trkpt>
      <trkpt lat="39.026506" lon="-0.490453">
        <ele>120.449738</ele>
        <time>2020-08-02T07:02:47.588Z</time>
      </trkpt>
      <trkpt lat="39.026426" lon="-0.490571">
        <ele>120.442636</ele>
        <time>2020-08-02T07:02:50.593Z</time>
      </trkpt>
      <trkpt lat="39.026347" lon="-0.490688">
        <ele>120.598331</ele>
        <time>2020-08-02T07:02:53.571Z</time>
      </trkpt>
      <trkpt lat="39.026269" lon="-0.490792">
        <ele>120.743521</ele>
        <time>2020-08-02T07:02:56.586Z</time>
      </trkpt>
      <trkpt lat="39.026204" lon="-0.490888">
        <ele>120.871423</ele>
        <time>2020-08-02T07:02:59.588Z</time>
      </trkpt>
      <trkpt lat="39.026133" lon="-0.490989">
        <ele>121.008231</ele>
        <time>2020-08-02T07:03:02.603Z</time>
      </trkpt>
      <trkpt lat="39.026058" lon="-0.491069">
        <ele>121.134161</ele>
        <time>2020-08-02T07:03:05.592Z</time>
      </trkpt>
      <trkpt lat="39.025982" lon="-0.491150">
        <ele>121.261728</ele>
        <time>2020-08-02T07:03:08.591Z</time>
      </trkpt>
      <trkpt lat="39.025909" lon="-0.491241">
        <ele>121.393109</ele>
        <time>2020-08-02T07:03:11.599Z</time>
      </trkpt>
      <trkpt lat="39.025849" lon="-0.491331">
        <ele>121.512225</ele>
        <time>2020-08-02T07:03:14.589Z</time>
      </trkpt>
      <trkpt lat="39.025769" lon="-0.491410">
        <ele>121.642584</ele>
        <time>2020-08-02T07:03:17.595Z</time>
      </trkpt>
      <trkpt lat="39.025679" lon="-0.491504">
        <ele>121.792426</ele>
        <time>2020-08-02T07:03:20.599Z</time>
      </trkpt>
      <trkpt lat="39.025579" lon="-0.491578">
        <ele>121.941554</ele>
        <time>2020-08-02T07:03:23.593Z</time>
      </trkpt>
      <trkpt lat="39.025480" lon="-0.491630">
        <ele>122.079794</ele>
        <time>2020-08-02T07:03:26.607Z</time>
      </trkpt>
      <trkpt lat="39.025376" lon="-0.491692">
        <ele>122.227972</ele>
        <time>2020-08-02T07:03:29.601Z</time>
      </trkpt>
      <trkpt lat="39.025268" lon="-0.491746">
        <ele>122.377765</ele>
        <time>2020-08-02T07:03:32.588Z</time>
      </trkpt>
      <trkpt lat="39.025157" lon="-0.491789">
        <ele>122.527631</ele>
        <time>2020-08-02T07:03:35.592Z</time>
      </trkpt>
      <trkpt lat="39.025049" lon="-0.491877">
        <ele>122.692884</ele>
        <time>2020-08-02T07:03:38.577Z</time>
      </trkpt>
      <trkpt lat="39.024939" lon="-0.491933">
        <ele>122.762488</ele>
        <time>2020-08-02T07:03:41.588Z</time>
      </trkpt>
      <trkpt lat="39.024845" lon="-0.492021">
        <ele>122.791907</ele>
        <time>2020-08-02T07:03:44.604Z</time>
      </trkpt>
      <trkpt lat="39.024724" lon="-0.492002">
        <ele>122.822760</ele>
        <time>2020-08-02T07:03:46.595Z</time>
      </trkpt>
      <trkpt lat="39.024611" lon="-0.491969">
        <ele>122.852087</ele>
        <time>2020-08-02T07:03:48.600Z</time>
      </trkpt>
      <trkpt lat="39.024469" lon="-0.491915">
        <ele>122.889564</ele>
        <time>2020-08-02T07:03:50.580Z</time>
      </trkpt>
      <trkpt lat="39.024338" lon="-0.491855">
        <ele>122.924757</ele>
        <time>2020-08-02T07:03:52.590Z</time>
      </trkpt>
      <trkpt lat="39.024211" lon="-0.491796">
        <ele>122.958931</ele>
        <time>2020-08-02T07:03:54.590Z</time>
      </trkpt>
      <trkpt lat="39.024067" lon="-0.491727">
        <ele>122.997821</ele>
        <time>2020-08-02T07:03:56.598Z</time>
      </trkpt>
      <trkpt lat="39.023911" lon="-0.491646">
        <ele>123.040397</ele>
        <time>2020-08-02T07:03:58.610Z</time>
      </trkpt>
      <trkpt lat="39.023827" lon="-0.491603">
        <ele>123.063277</ele>
        <time>2020-08-02T07:03:59.601Z</time>
      </trkpt>
      <trkpt lat="39.023667" lon="-0.491588">
        <ele>123.103881</ele>
        <time>2020-08-02T07:04:01.593Z</time>
      </trkpt>
      <trkpt lat="39.023504" lon="-0.491622">
        <ele>123.145676</ele>
        <time>2020-08-02T07:04:03.594Z</time>
      </trkpt>
      <trkpt lat="39.023408" lon="-0.491646">
        <ele>123.170428</ele>
        <time>2020-08-02T07:04:04.601Z</time>
      </trkpt>
      <trkpt lat="39.023317" lon="-0.491688">
        <ele>123.194896</ele>
        <time>2020-08-02T07:04:05.594Z</time>
      </trkpt>
      <trkpt lat="39.023221" lon="-0.491710">
        <ele>123.143932</ele>
        <time>2020-08-02T07:04:06.599Z</time>
      </trkpt>
      <trkpt lat="39.023129" lon="-0.491735">
        <ele>123.086374</ele>
        <time>2020-08-02T07:04:07.585Z</time>
      </trkpt>
      <trkpt lat="39.023030" lon="-0.491768">
        <ele>123.023772</ele>
        <time>2020-08-02T07:04:08.591Z</time>
      </trkpt>
      <trkpt lat="39.022928" lon="-0.491796">
        <ele>122.959930</ele>
        <time>2020-08-02T07:04:09.596Z</time>
      </trkpt>
      <trkpt lat="39.022821" lon="-0.491816">
        <ele>122.893743</ele>
        <time>2020-08-02T07:04:10.607Z</time>
      </trkpt>
      <trkpt lat="39.022727" lon="-0.491866">
        <ele>122.831482</ele>
        <time>2020-08-02T07:04:11.593Z</time>
      </trkpt>
      <trkpt lat="39.022619" lon="-0.491885">
        <ele>122.764756</ele>
        <time>2020-08-02T07:04:12.595Z</time>
      </trkpt>
      <trkpt lat="39.022519" lon="-0.491924">
        <ele>122.700793</ele>
        <time>2020-08-02T07:04:13.580Z</time>
      </trkpt>
      <trkpt lat="39.022410" lon="-0.491933">
        <ele>122.633933</ele>
        <time>2020-08-02T07:04:14.591Z</time>
      </trkpt>
      <trkpt lat="39.022305" lon="-0.491948">
        <ele>122.569263</ele>
        <time>2020-08-02T07:04:15.588Z</time>
      </trkpt>
      <trkpt lat="39.022204" lon="-0.491970">
        <ele>122.506557</ele>
        <time>2020-08-02T07:04:16.586Z</time>
      </trkpt>
      <trkpt lat="39.022101" lon="-0.491991">
        <ele>122.442720</ele>
        <time>2020-08-02T07:04:17.595Z</time>
      </trkpt>
      <trkpt lat="39.022000" lon="-0.492027">
        <ele>122.378567</ele>
        <time>2020-08-02T07:04:18.589Z</time>
      </trkpt>
      <trkpt lat="39.021906" lon="-0.492055">
        <ele>122.319505</ele>
        <time>2020-08-02T07:04:19.592Z</time>
      </trkpt>
      <trkpt lat="39.021805" lon="-0.492108">
        <ele>122.252738</ele>
        <time>2020-08-02T07:04:20.588Z</time>
      </trkpt>
      <trkpt lat="39.021718" lon="-0.492163">
        <ele>122.193404</ele>
        <time>2020-08-02T07:04:21.590Z</time>
      </trkpt>
      <trkpt lat="39.021632" lon="-0.492211">
        <ele>122.136024</ele>
        <time>2020-08-02T07:04:22.586Z</time>
      </trkpt>
      <trkpt lat="39.021547" lon="-0.492276">
        <ele>121.945014</ele>
        <time>2020-08-02T07:04:23.583Z</time>
      </trkpt>
      <trkpt lat="39.021465" lon="-0.492336">
        <ele>121.527109</ele>
        <time>2020-08-02T07:04:24.577Z</time>
      </trkpt>
      <trkpt lat="39.021316" lon="-0.492447">
        <ele>120.764359</ele>
        <time>2020-08-02T07:04:26.590Z</time>
      </trkpt>
      <trkpt lat="39.021174" lon="-0.492569">
        <ele>120.007941</ele>
        <time>2020-08-02T07:04:28.594Z</time>
      </trkpt>
      <trkpt lat="39.021051" lon="-0.492665">
        <ele>119.370622</ele>
        <time>2020-08-02T07:04:30.587Z</time>
      </trkpt>
      <trkpt lat="39.020943" lon="-0.492776">
        <ele>118.758292</ele>
        <time>2020-08-02T07:04:32.604Z</time>
      </trkpt>
      <trkpt lat="39.020834" lon="-0.492875">
        <ele>118.167234</ele>
        <time>2020-08-02T07:04:34.597Z</time>
      </trkpt>
      <trkpt lat="39.020736" lon="-0.492947">
        <ele>117.667285</ele>
        <time>2020-08-02T07:04:36.590Z</time>
      </trkpt>
      <trkpt lat="39.020648" lon="-0.492993">
        <ele>117.246470</ele>
        <time>2020-08-02T07:04:38.584Z</time>
      </trkpt>
      <trkpt lat="39.020573" lon="-0.493060">
        <ele>116.841987</ele>
        <time>2020-08-02T07:04:40.593Z</time>
      </trkpt>
      <trkpt lat="39.020456" lon="-0.493143">
        <ele>116.250093</ele>
        <time>2020-08-02T07:04:43.588Z</time>
      </trkpt>
      <trkpt lat="39.020358" lon="-0.493233">
        <ele>115.716708</ele>
        <time>2020-08-02T07:04:46.589Z</time>
      </trkpt>
      <trkpt lat="39.020220" lon="-0.493291">
        <ele>115.073521</ele>
        <time>2020-08-02T07:04:49.589Z</time>
      </trkpt>
      <trkpt lat="39.020132" lon="-0.493382">
        <ele>114.573387</ele>
        <time>2020-08-02T07:04:52.600Z</time>
      </trkpt>
      <trkpt lat="39.020055" lon="-0.493456">
        <ele>114.147629</ele>
        <time>2020-08-02T07:04:54.589Z</time>
      </trkpt>
      <trkpt lat="39.019934" lon="-0.493536">
        <ele>114.048654</ele>
        <time>2020-08-02T07:04:57.599Z</time>
      </trkpt>
      <trkpt lat="39.019824" lon="-0.493594">
        <ele>113.977430</ele>
        <time>2020-08-02T07:05:00.594Z</time>
      </trkpt>
      <trkpt lat="39.019696" lon="-0.493620">
        <ele>113.899788</ele>
        <time>2020-08-02T07:05:03.597Z</time>
      </trkpt>
      <trkpt lat="39.019591" lon="-0.493692">
        <ele>113.828505</ele>
        <time>2020-08-02T07:05:06.598Z</time>
      </trkpt>
      <trkpt lat="39.019498" lon="-0.493728">
        <ele>113.770318</ele>
        <time>2020-08-02T07:05:08.599Z</time>
      </trkpt>
      <trkpt lat="39.019410" lon="-0.493758">
        <ele>113.715773</ele>
        <time>2020-08-02T07:05:10.598Z</time>
      </trkpt>
      <trkpt lat="39.019310" lon="-0.493808">
        <ele>113.651495</ele>
        <time>2020-08-02T07:05:12.590Z</time>
      </trkpt>
      <trkpt lat="39.019217" lon="-0.493824">
        <ele>113.595277</ele>
        <time>2020-08-02T07:05:14.589Z</time>
      </trkpt>
      <trkpt lat="39.019102" lon="-0.493871">
        <ele>113.522983</ele>
        <time>2020-08-02T07:05:16.601Z</time>
      </trkpt>
      <trkpt lat="39.018966" lon="-0.493900">
        <ele>113.440386</ele>
        <time>2020-08-02T07:05:19.585Z</time>
      </trkpt>
      <trkpt lat="39.018852" lon="-0.493927">
        <ele>113.370935</ele>
        <time>2020-08-02T07:05:22.592Z</time>
      </trkpt>
      <trkpt lat="39.018748" lon="-0.493920">
        <ele>113.308537</ele>
        <time>2020-08-02T07:05:24.583Z</time>
      </trkpt>
      <trkpt lat="39.018627" lon="-0.493939">
        <ele>113.235500</ele>
        <time>2020-08-02T07:05:27.594Z</time>
      </trkpt>
      <trkpt lat="39.018481" lon="-0.493880">
        <ele>113.143812</ele>
        <time>2020-08-02T07:05:29.587Z</time>
      </trkpt>
      <trkpt lat="39.018385" lon="-0.493979">
        <ele>113.070107</ele>
        <time>2020-08-02T07:05:32.586Z</time>
      </trkpt>
      <trkpt lat="39.018295" lon="-0.494101">
        <ele>113.103314</ele>
        <time>2020-08-02T07:05:35.590Z</time>
      </trkpt>
      <trkpt lat="39.018193" lon="-0.494100">
        <ele>113.159805</ele>
        <time>2020-08-02T07:05:37.581Z</time>
      </trkpt>
      <trkpt lat="39.018068" lon="-0.494155">
        <ele>113.232966</ele>
        <time>2020-08-02T07:05:40.597Z</time>
      </trkpt>
      <trkpt lat="39.017970" lon="-0.494204">
        <ele>113.291192</ele>
        <time>2020-08-02T07:05:42.598Z</time>
      </trkpt>
      <trkpt lat="39.017857" lon="-0.494204">
        <ele>113.353774</ele>
        <time>2020-08-02T07:05:44.594Z</time>
      </trkpt>
      <trkpt lat="39.017766" lon="-0.494255">
        <ele>113.408742</ele>
        <time>2020-08-02T07:05:46.591Z</time>
      </trkpt>
      <trkpt lat="39.017662" lon="-0.494264">
        <ele>113.466470</ele>
        <time>2020-08-02T07:05:48.601Z</time>
      </trkpt>
      <trkpt lat="39.017572" lon="-0.494307">
        <ele>113.519637</ele>
        <time>2020-08-02T07:05:50.598Z</time>
      </trkpt>
      <trkpt lat="39.017477" lon="-0.494323">
        <ele>113.572699</ele>
        <time>2020-08-02T07:05:52.586Z</time>
      </trkpt>
      <trkpt lat="39.017344" lon="-0.494398">
        <ele>113.653117</ele>
        <time>2020-08-02T07:05:55.594Z</time>
      </trkpt>
      <trkpt lat="39.017231" lon="-0.494466">
        <ele>113.722201</ele>
        <time>2020-08-02T07:05:58.601Z</time>
      </trkpt>
      <trkpt lat="39.017138" lon="-0.494493">
        <ele>113.775001</ele>
        <time>2020-08-02T07:06:00.591Z</time>
      </trkpt>
      <trkpt lat="39.016999" lon="-0.494528">
        <ele>113.853441</ele>
        <time>2020-08-02T07:06:03.594Z</time>
      </trkpt>
      <trkpt lat="39.016855" lon="-0.494553">
        <ele>113.933914</ele>
        <time>2020-08-02T07:06:06.600Z</time>
      </trkpt>
      <trkpt lat="39.016730" lon="-0.494541">
        <ele>114.003334</ele>
        <time>2020-08-02T07:06:08.598Z</time>
      </trkpt>
      <trkpt lat="39.016620" lon="-0.494612">
        <ele>114.198236</ele>
        <time>2020-08-02T07:06:10.592Z</time>
      </trkpt>
      <trkpt lat="39.016525" lon="-0.494630">
        <ele>114.514594</ele>
        <time>2020-08-02T07:06:12.592Z</time>
      </trkpt>
      <trkpt lat="39.016394" lon="-0.494644">
        <ele>114.947668</ele>
        <time>2020-08-02T07:06:15.603Z</time>
      </trkpt>
      <trkpt lat="39.016317" lon="-0.494705">
        <ele>115.245555</ele>
        <time>2020-08-02T07:06:17.596Z</time>
      </trkpt>
      <trkpt lat="39.016200" lon="-0.494697">
        <ele>115.631563</ele>
        <time>2020-08-02T07:06:19.583Z</time>
      </trkpt>
      <trkpt lat="39.016071" lon="-0.494652">
        <ele>116.071897</ele>
        <time>2020-08-02T07:06:22.593Z</time>
      </trkpt>
      <trkpt lat="39.015967" lon="-0.494628">
        <ele>116.419997</ele>
        <time>2020-08-02T07:06:24.603Z</time>
      </trkpt>
      <trkpt lat="39.015853" lon="-0.494743">
        <ele>116.897195</ele>
        <time>2020-08-02T07:06:28.602Z</time>
      </trkpt>
      <trkpt lat="39.015774" lon="-0.494802">
        <ele>117.198112</ele>
        <time>2020-08-02T07:06:30.595Z</time>
      </trkpt>
      <trkpt lat="39.015673" lon="-0.494807">
        <ele>117.531110</ele>
        <time>2020-08-02T07:06:32.590Z</time>
      </trkpt>
      <trkpt lat="39.015532" lon="-0.494844">
        <ele>118.005202</ele>
        <time>2020-08-02T07:06:35.592Z</time>
      </trkpt>
      <trkpt lat="39.015418" lon="-0.494898">
        <ele>118.405413</ele>
        <time>2020-08-02T07:06:38.575Z</time>
      </trkpt>
      <trkpt lat="39.015323" lon="-0.494924">
        <ele>118.725395</ele>
        <time>2020-08-02T07:06:40.598Z</time>
      </trkpt>
      <trkpt lat="39.015196" lon="-0.494957">
        <ele>119.152248</ele>
        <time>2020-08-02T07:06:43.592Z</time>
      </trkpt>
      <trkpt lat="39.015083" lon="-0.495012">
        <ele>119.550267</ele>
        <time>2020-08-02T07:06:46.598Z</time>
      </trkpt>
      <trkpt lat="39.014972" lon="-0.495075">
        <ele>119.949945</ele>
        <time>2020-08-02T07:06:49.595Z</time>
      </trkpt>
      <trkpt lat="39.014870" lon="-0.495162">
        <ele>119.688773</ele>
        <time>2020-08-02T07:06:52.609Z</time>
      </trkpt>
      <trkpt lat="39.014779" lon="-0.495175">
        <ele>119.465089</ele>
        <time>2020-08-02T07:06:54.606Z</time>
      </trkpt>
      <trkpt lat="39.014680" lon="-0.495251">
        <ele>119.183469</ele>
        <time>2020-08-02T07:06:57.595Z</time>
      </trkpt>
      <trkpt lat="39.014577" lon="-0.495311">
        <ele>118.907259</ele>
        <time>2020-08-02T07:07:00.594Z</time>
      </trkpt>
      <trkpt lat="39.014475" lon="-0.495376">
        <ele>118.629193</ele>
        <time>2020-08-02T07:07:03.599Z</time>
      </trkpt>
      <trkpt lat="39.014348" lon="-0.495424">
        <ele>118.305822</ele>
        <time>2020-08-02T07:07:06.597Z</time>
      </trkpt>
      <trkpt lat="39.014226" lon="-0.495477">
        <ele>117.991246</ele>
        <time>2020-08-02T07:07:08.600Z</time>
      </trkpt>
      <trkpt lat="39.014129" lon="-0.495544">
        <ele>117.722298</ele>
        <time>2020-08-02T07:07:11.615Z</time>
      </trkpt>
      <trkpt lat="39.014011" lon="-0.495603">
        <ele>117.413026</ele>
        <time>2020-08-02T07:07:14.613Z</time>
      </trkpt>
      <trkpt lat="39.013906" lon="-0.495621">
        <ele>117.154238</ele>
        <time>2020-08-02T07:07:16.609Z</time>
      </trkpt>
      <trkpt lat="39.013783" lon="-0.495674">
        <ele>116.837347</ele>
        <time>2020-08-02T07:07:19.593Z</time>
      </trkpt>
      <trkpt lat="39.013680" lon="-0.495700">
        <ele>116.580917</ele>
        <time>2020-08-02T07:07:21.594Z</time>
      </trkpt>
      <trkpt lat="39.013577" lon="-0.495699">
        <ele>116.329275</ele>
        <time>2020-08-02T07:07:23.595Z</time>
      </trkpt>
      <trkpt lat="39.013440" lon="-0.495755">
        <ele>115.978100</ele>
        <time>2020-08-02T07:07:26.587Z</time>
      </trkpt>
      <trkpt lat="39.013316" lon="-0.495807">
        <ele>115.659484</ele>
        <time>2020-08-02T07:07:29.597Z</time>
      </trkpt>
      <trkpt lat="39.013201" lon="-0.495841">
        <ele>115.787330</ele>
        <time>2020-08-02T07:07:32.597Z</time>
      </trkpt>
      <trkpt lat="39.013113" lon="-0.495881">
        <ele>116.019390</ele>
        <time>2020-08-02T07:07:34.594Z</time>
      </trkpt>
      <trkpt lat="39.012995" lon="-0.495943">
        <ele>116.336308</ele>
        <time>2020-08-02T07:07:37.580Z</time>
      </trkpt>
      <trkpt lat="39.012878" lon="-0.496013">
        <ele>116.657129</ele>
        <time>2020-08-02T07:07:40.597Z</time>
      </trkpt>
      <trkpt lat="39.012738" lon="-0.496037">
        <ele>117.008315</ele>
        <time>2020-08-02T07:07:43.594Z</time>
      </trkpt>
      <trkpt lat="39.012650" lon="-0.496076">
        <ele>117.239739</ele>
        <time>2020-08-02T07:07:45.581Z</time>
      </trkpt>
      <trkpt lat="39.012566" lon="-0.496122">
        <ele>117.466728</ele>
        <time>2020-08-02T07:07:47.591Z</time>
      </trkpt>
      <trkpt lat="39.012468" lon="-0.496159">
        <ele>117.720675</ele>
        <time>2020-08-02T07:07:49.595Z</time>
      </trkpt>
      <trkpt lat="39.012331" lon="-0.496200">
        <ele>118.070416</ele>
        <time>2020-08-02T07:07:52.595Z</time>
      </trkpt>
      <trkpt lat="39.012207" lon="-0.496208">
        <ele>118.379131</ele>
        <time>2020-08-02T07:07:55.593Z</time>
      </trkpt>
      <trkpt lat="39.012112" lon="-0.496218">
        <ele>118.616138</ele>
        <time>2020-08-02T07:07:57.590Z</time>
      </trkpt>
      <trkpt lat="39.012009" lon="-0.496311">
        <ele>118.928993</ele>
        <time>2020-08-02T07:08:00.599Z</time>
      </trkpt>
      <trkpt lat="39.011899" lon="-0.496377">
        <ele>119.230774</ele>
        <time>2020-08-02T07:08:03.601Z</time>
      </trkpt>
      <trkpt lat="39.011797" lon="-0.496384">
        <ele>119.484758</ele>
        <time>2020-08-02T07:08:05.591Z</time>
      </trkpt>
      <trkpt lat="39.011663" lon="-0.496462">
        <ele>119.850447</ele>
        <time>2020-08-02T07:08:08.594Z</time>
      </trkpt>
      <trkpt lat="39.011555" lon="-0.496544">
        <ele>120.221116</ele>
        <time>2020-08-02T07:08:11.589Z</time>
      </trkpt>
      <trkpt lat="39.011426" lon="-0.496606">
        <ele>120.742778</ele>
        <time>2020-08-02T07:08:14.591Z</time>
      </trkpt>
      <trkpt lat="39.011329" lon="-0.496638">
        <ele>121.122127</ele>
        <time>2020-08-02T07:08:16.595Z</time>
      </trkpt>
      <trkpt lat="39.011203" lon="-0.496675">
        <ele>121.611725</ele>
        <time>2020-08-02T07:08:19.595Z</time>
      </trkpt>
      <trkpt lat="39.011082" lon="-0.496744">
        <ele>122.113097</ele>
        <time>2020-08-02T07:08:22.597Z</time>
      </trkpt>
      <trkpt lat="39.010998" lon="-0.496831">
        <ele>122.521569</ele>
        <time>2020-08-02T07:08:25.600Z</time>
      </trkpt>
      <trkpt lat="39.010902" lon="-0.496854">
        <ele>122.891498</ele>
        <time>2020-08-02T07:08:27.596Z</time>
      </trkpt>
      <trkpt lat="39.010798" lon="-0.496884">
        <ele>123.295260</ele>
        <time>2020-08-02T07:08:29.592Z</time>
      </trkpt>
      <trkpt lat="39.010676" lon="-0.496988">
        <ele>123.849632</ele>
        <time>2020-08-02T07:08:32.596Z</time>
      </trkpt>
      <trkpt lat="39.010558" lon="-0.497020">
        <ele>124.306473</ele>
        <time>2020-08-02T07:08:35.595Z</time>
      </trkpt>
      <trkpt lat="39.010443" lon="-0.497063">
        <ele>124.760147</ele>
        <time>2020-08-02T07:08:39.598Z</time>
      </trkpt>
      <trkpt lat="39.010346" lon="-0.497070">
        <ele>125.128193</ele>
        <time>2020-08-02T07:08:42.583Z</time>
      </trkpt>
      <trkpt lat="39.010231" lon="-0.497101">
        <ele>125.573306</ele>
        <time>2020-08-02T07:08:46.593Z</time>
      </trkpt>
      <trkpt lat="39.010142" lon="-0.497130">
        <ele>125.921107</ele>
        <time>2020-08-02T07:08:51.593Z</time>
      </trkpt>
      <trkpt lat="39.009868" lon="-0.497212">
        <ele>126.913141</ele>
        <time>2020-08-02T07:10:26.599Z</time>
      </trkpt>
      <trkpt lat="39.009753" lon="-0.497241">
        <ele>127.091533</ele>
        <time>2020-08-02T07:10:30.601Z</time>
      </trkpt>
      <trkpt lat="39.009661" lon="-0.497281">
        <ele>127.239361</ele>
        <time>2020-08-02T07:10:34.589Z</time>
      </trkpt>
      <trkpt lat="39.009566" lon="-0.497325">
        <ele>127.393059</ele>
        <time>2020-08-02T07:10:38.584Z</time>
      </trkpt>
      <trkpt lat="39.009459" lon="-0.497339">
        <ele>127.556784</ele>
        <time>2020-08-02T07:10:42.588Z</time>
      </trkpt>
      <trkpt lat="39.009351" lon="-0.497357">
        <ele>127.722564</ele>
        <time>2020-08-02T07:10:47.591Z</time>
      </trkpt>
      <trkpt lat="39.009252" lon="-0.497370">
        <ele>127.874054</ele>
        <time>2020-08-02T07:10:52.572Z</time>
      </trkpt>
      <trkpt lat="39.009144" lon="-0.497404">
        <ele>128.043309</ele>
        <time>2020-08-02T07:10:57.584Z</time>
      </trkpt>
      <trkpt lat="39.009049" lon="-0.497427">
        <ele>128.190463</ele>
        <time>2020-08-02T07:11:01.595Z</time>
      </trkpt>
      <trkpt lat="39.008942" lon="-0.497459">
        <ele>128.357689</ele>
        <time>2020-08-02T07:11:05.583Z</time>
      </trkpt>
      <trkpt lat="39.008846" lon="-0.497466">
        <ele>128.504063</ele>
        <time>2020-08-02T07:11:08.608Z</time>
      </trkpt>
      <trkpt lat="39.008755" lon="-0.497478">
        <ele>128.643317</ele>
        <time>2020-08-02T07:11:11.594Z</time>
      </trkpt>
      <trkpt lat="39.008645" lon="-0.497506">
        <ele>128.814013</ele>
        <time>2020-08-02T07:11:15.593Z</time>
      </trkpt>
      <trkpt lat="39.008537" lon="-0.497520">
        <ele>128.979253</ele>
        <time>2020-08-02T07:11:18.594Z</time>
      </trkpt>
      <trkpt lat="39.008413" lon="-0.497544">
        <ele>129.170140</ele>
        <time>2020-08-02T07:11:20.596Z</time>
      </trkpt>
      <trkpt lat="39.008306" lon="-0.497556">
        <ele>129.333643</ele>
        <time>2020-08-02T07:11:22.600Z</time>
      </trkpt>
      <trkpt lat="39.008213" lon="-0.497610">
        <ele>129.488959</ele>
        <time>2020-08-02T07:11:24.595Z</time>
      </trkpt>
      <trkpt lat="39.008080" lon="-0.497578">
        <ele>129.542599</ele>
        <time>2020-08-02T07:11:26.590Z</time>
      </trkpt>
      <trkpt lat="39.007926" lon="-0.497583">
        <ele>129.393894</ele>
        <time>2020-08-02T07:11:28.581Z</time>
      </trkpt>
      <trkpt lat="39.007772" lon="-0.497641">
        <ele>129.239000</ele>
        <time>2020-08-02T07:11:30.606Z</time>
      </trkpt>
      <trkpt lat="39.007614" lon="-0.497718">
        <ele>129.075910</ele>
        <time>2020-08-02T07:11:32.606Z</time>
      </trkpt>
      <trkpt lat="39.007531" lon="-0.497776">
        <ele>128.984739</ele>
        <time>2020-08-02T07:11:33.602Z</time>
      </trkpt>
      <trkpt lat="39.007452" lon="-0.497847">
        <ele>128.891724</ele>
        <time>2020-08-02T07:11:34.602Z</time>
      </trkpt>
      <trkpt lat="39.007309" lon="-0.497965">
        <ele>128.727743</ele>
        <time>2020-08-02T07:11:36.608Z</time>
      </trkpt>
      <trkpt lat="39.007221" lon="-0.498023">
        <ele>128.632303</ele>
        <time>2020-08-02T07:11:37.597Z</time>
      </trkpt>
      <trkpt lat="39.007142" lon="-0.498084">
        <ele>128.543369</ele>
        <time>2020-08-02T07:11:38.577Z</time>
      </trkpt>
      <trkpt lat="39.007056" lon="-0.498133">
        <ele>128.452579</ele>
        <time>2020-08-02T07:11:39.584Z</time>
      </trkpt>
      <trkpt lat="39.006958" lon="-0.498187">
        <ele>128.349671</ele>
        <time>2020-08-02T07:11:40.621Z</time>
      </trkpt>
      <trkpt lat="39.006883" lon="-0.498253">
        <ele>128.261964</ele>
        <time>2020-08-02T07:11:41.591Z</time>
      </trkpt>
      <trkpt lat="39.006781" lon="-0.498299">
        <ele>128.157631</ele>
        <time>2020-08-02T07:11:42.618Z</time>
      </trkpt>
      <trkpt lat="39.006694" lon="-0.498354">
        <ele>128.064062</ele>
        <time>2020-08-02T07:11:43.597Z</time>
      </trkpt>
      <trkpt lat="39.006518" lon="-0.498428">
        <ele>127.885329</ele>
        <time>2020-08-02T07:11:45.592Z</time>
      </trkpt>
      <trkpt lat="39.006410" lon="-0.498443">
        <ele>127.711694</ele>
        <time>2020-08-02T07:11:46.599Z</time>
      </trkpt>
      <trkpt lat="39.006323" lon="-0.498479">
        <ele>127.552089</ele>
        <time>2020-08-02T07:11:47.604Z</time>
      </trkpt>
      <trkpt lat="39.006233" lon="-0.498518">
        <ele>127.386234</ele>
        <time>2020-08-02T07:11:48.575Z</time>
      </trkpt>
      <trkpt lat="39.006084" lon="-0.498551">
        <ele>127.122184</ele>
        <time>2020-08-02T07:11:50.595Z</time>
      </trkpt>
      <trkpt lat="39.005992" lon="-0.498550">
        <ele>126.961502</ele>
        <time>2020-08-02T07:11:51.596Z</time>
      </trkpt>
      <trkpt lat="39.005838" lon="-0.498574">
        <ele>126.690580</ele>
        <time>2020-08-02T07:11:53.592Z</time>
      </trkpt>
      <trkpt lat="39.005700" lon="-0.498647">
        <ele>126.429998</ele>
        <time>2020-08-02T07:11:55.593Z</time>
      </trkpt>
      <trkpt lat="39.005592" lon="-0.498668">
        <ele>126.239238</ele>
        <time>2020-08-02T07:11:56.600Z</time>
      </trkpt>
      <trkpt lat="39.005473" lon="-0.498683">
        <ele>126.030413</ele>
        <time>2020-08-02T07:11:58.592Z</time>
      </trkpt>
      <trkpt lat="39.005345" lon="-0.498683">
        <ele>125.806864</ele>
        <time>2020-08-02T07:12:00.595Z</time>
      </trkpt>
      <trkpt lat="39.005200" lon="-0.498681">
        <ele>125.553611</ele>
        <time>2020-08-02T07:12:02.598Z</time>
      </trkpt>
      <trkpt lat="39.005078" lon="-0.498694">
        <ele>125.339812</ele>
        <time>2020-08-02T07:12:04.593Z</time>
      </trkpt>
      <trkpt lat="39.004970" lon="-0.498718">
        <ele>125.148401</ele>
        <time>2020-08-02T07:12:06.588Z</time>
      </trkpt>
      <trkpt lat="39.004865" lon="-0.498751">
        <ele>124.959631</ele>
        <time>2020-08-02T07:12:08.592Z</time>
      </trkpt>
      <trkpt lat="39.004745" lon="-0.498767">
        <ele>124.748932</ele>
        <time>2020-08-02T07:12:10.589Z</time>
      </trkpt>
      <trkpt lat="39.004638" lon="-0.498804">
        <ele>124.421531</ele>
        <time>2020-08-02T07:12:12.593Z</time>
      </trkpt>
      <trkpt lat="39.004517" lon="-0.498819">
        <ele>124.040765</ele>
        <time>2020-08-02T07:12:14.599Z</time>
      </trkpt>
      <trkpt lat="39.004402" lon="-0.498843">
        <ele>123.675842</ele>
        <time>2020-08-02T07:12:16.594Z</time>
      </trkpt>
      <trkpt lat="39.004300" lon="-0.498896">
        <ele>123.331282</ele>
        <time>2020-08-02T07:12:18.598Z</time>
      </trkpt>
      <trkpt lat="39.004168" lon="-0.498994">
        <ele>122.853938</ele>
        <time>2020-08-02T07:12:21.582Z</time>
      </trkpt>
      <trkpt lat="39.004067" lon="-0.499057">
        <ele>122.502366</ele>
        <time>2020-08-02T07:12:23.599Z</time>
      </trkpt>
      <trkpt lat="39.003959" lon="-0.499092">
        <ele>122.153513</ele>
        <time>2020-08-02T07:12:25.580Z</time>
      </trkpt>
      <trkpt lat="39.003828" lon="-0.499109">
        <ele>121.741097</ele>
        <time>2020-08-02T07:12:27.599Z</time>
      </trkpt>
      <trkpt lat="39.003676" lon="-0.499093">
        <ele>121.263394</ele>
        <time>2020-08-02T07:12:29.590Z</time>
      </trkpt>
      <trkpt lat="39.003551" lon="-0.499094">
        <ele>120.871847</ele>
        <time>2020-08-02T07:12:31.592Z</time>
      </trkpt>
      <trkpt lat="39.003416" lon="-0.499075">
        <ele>120.446462</ele>
        <time>2020-08-02T07:12:33.602Z</time>
      </trkpt>
      <trkpt lat="39.003288" lon="-0.499099">
        <ele>120.041291</ele>
        <time>2020-08-02T07:12:35.604Z</time>
      </trkpt>
      <trkpt lat="39.003141" lon="-0.499076">
        <ele>119.577449</ele>
        <time>2020-08-02T07:12:37.583Z</time>
      </trkpt>
      <trkpt lat="39.003011" lon="-0.499064">
        <ele>119.169201</ele>
        <time>2020-08-02T07:12:39.600Z</time>
      </trkpt>
      <trkpt lat="39.002889" lon="-0.499093">
        <ele>119.438729</ele>
        <time>2020-08-02T07:12:41.593Z</time>
      </trkpt>
      <trkpt lat="39.002743" lon="-0.499095">
        <ele>119.953424</ele>
        <time>2020-08-02T07:12:43.606Z</time>
      </trkpt>
      <trkpt lat="39.002632" lon="-0.499095">
        <ele>120.344712</ele>
        <time>2020-08-02T07:12:45.584Z</time>
      </trkpt>
      <trkpt lat="39.002518" lon="-0.499136">
        <ele>120.761975</ele>
        <time>2020-08-02T07:12:47.587Z</time>
      </trkpt>
      <trkpt lat="39.002401" lon="-0.499148">
        <ele>121.175721</ele>
        <time>2020-08-02T07:12:49.585Z</time>
      </trkpt>
      <trkpt lat="39.002304" lon="-0.499230">
        <ele>121.584843</ele>
        <time>2020-08-02T07:12:51.590Z</time>
      </trkpt>
      <trkpt lat="39.002198" lon="-0.499239">
        <ele>121.959317</ele>
        <time>2020-08-02T07:12:53.596Z</time>
      </trkpt>
      <trkpt lat="39.002068" lon="-0.499241">
        <ele>122.417615</ele>
        <time>2020-08-02T07:12:55.595Z</time>
      </trkpt>
      <trkpt lat="39.001950" lon="-0.499179">
        <ele>122.866918</ele>
        <time>2020-08-02T07:12:57.606Z</time>
      </trkpt>
      <trkpt lat="39.001859" lon="-0.499178">
        <ele>123.187715</ele>
        <time>2020-08-02T07:12:59.592Z</time>
      </trkpt>
      <trkpt lat="39.001773" lon="-0.499141">
        <ele>123.507370</ele>
        <time>2020-08-02T07:13:01.590Z</time>
      </trkpt>
      <trkpt lat="39.001690" lon="-0.499086">
        <ele>123.836471</ele>
        <time>2020-08-02T07:13:03.573Z</time>
      </trkpt>
      <trkpt lat="39.001554" lon="-0.499004">
        <ele>124.365905</ele>
        <time>2020-08-02T07:13:06.604Z</time>
      </trkpt>
      <trkpt lat="39.001447" lon="-0.498961">
        <ele>124.761058</ele>
        <time>2020-08-02T07:13:09.594Z</time>
      </trkpt>
      <trkpt lat="39.001340" lon="-0.498903">
        <ele>125.170345</ele>
        <time>2020-08-02T07:13:12.599Z</time>
      </trkpt>
      <trkpt lat="39.001212" lon="-0.498818">
        <ele>125.552337</ele>
        <time>2020-08-02T07:13:15.596Z</time>
      </trkpt>
      <trkpt lat="39.001128" lon="-0.498772">
        <ele>125.710580</ele>
        <time>2020-08-02T07:13:17.598Z</time>
      </trkpt>
      <trkpt lat="39.001033" lon="-0.498764">
        <ele>125.875606</ele>
        <time>2020-08-02T07:13:19.590Z</time>
      </trkpt>
      <trkpt lat="39.000911" lon="-0.498706">
        <ele>126.101054</ele>
        <time>2020-08-02T07:13:22.606Z</time>
      </trkpt>
      <trkpt lat="39.000792" lon="-0.498645">
        <ele>126.323094</ele>
        <time>2020-08-02T07:13:25.601Z</time>
      </trkpt>
      <trkpt lat="39.000678" lon="-0.498604">
        <ele>126.528276</ele>
        <time>2020-08-02T07:13:28.592Z</time>
      </trkpt>
      <trkpt lat="39.000547" lon="-0.498544">
        <ele>126.769308</ele>
        <time>2020-08-02T07:13:31.598Z</time>
      </trkpt>
      <trkpt lat="39.000407" lon="-0.498506">
        <ele>127.017325</ele>
        <time>2020-08-02T07:13:34.605Z</time>
      </trkpt>
      <trkpt lat="39.000308" lon="-0.498494">
        <ele>127.189692</ele>
        <time>2020-08-02T07:13:36.605Z</time>
      </trkpt>
      <trkpt lat="39.000202" lon="-0.498479">
        <ele>127.374541</ele>
        <time>2020-08-02T07:13:38.588Z</time>
      </trkpt>
      <trkpt lat="39.000099" lon="-0.498463">
        <ele>127.554378</ele>
        <time>2020-08-02T07:13:40.593Z</time>
      </trkpt>
      <trkpt lat="38.999978" lon="-0.498463">
        <ele>127.764121</ele>
        <time>2020-08-02T07:13:43.588Z</time>
      </trkpt>
      <trkpt lat="38.999874" lon="-0.498462">
        <ele>127.944400</ele>
        <time>2020-08-02T07:13:45.596Z</time>
      </trkpt>
      <trkpt lat="38.999782" lon="-0.498459">
        <ele>128.103925</ele>
        <time>2020-08-02T07:13:47.605Z</time>
      </trkpt>
      <trkpt lat="38.999660" lon="-0.498448">
        <ele>128.315919</ele>
        <time>2020-08-02T07:13:50.596Z</time>
      </trkpt>
      <trkpt lat="38.999562" lon="-0.498433">
        <ele>128.486991</ele>
        <time>2020-08-02T07:13:52.591Z</time>
      </trkpt>
      <trkpt lat="38.999462" lon="-0.498454">
        <ele>128.611376</ele>
        <time>2020-08-02T07:13:54.600Z</time>
      </trkpt>
      <trkpt lat="38.999328" lon="-0.498472">
        <ele>128.740090</ele>
        <time>2020-08-02T07:13:57.579Z</time>
      </trkpt>
      <trkpt lat="38.999231" lon="-0.498471">
        <ele>128.832764</ele>
        <time>2020-08-02T07:13:59.569Z</time>
      </trkpt>
      <trkpt lat="38.999100" lon="-0.498447">
        <ele>128.959179</ele>
        <time>2020-08-02T07:14:02.593Z</time>
      </trkpt>
      <trkpt lat="38.998968" lon="-0.498415">
        <ele>129.087506</ele>
        <time>2020-08-02T07:14:05.591Z</time>
      </trkpt>
      <trkpt lat="38.998866" lon="-0.498425">
        <ele>129.185236</ele>
        <time>2020-08-02T07:14:08.580Z</time>
      </trkpt>
      <trkpt lat="38.998773" lon="-0.498404">
        <ele>129.275443</ele>
        <time>2020-08-02T07:14:11.583Z</time>
      </trkpt>
      <trkpt lat="38.998658" lon="-0.498400">
        <ele>129.385350</ele>
        <time>2020-08-02T07:14:15.595Z</time>
      </trkpt>
      <trkpt lat="38.998561" lon="-0.498399">
        <ele>129.478024</ele>
        <time>2020-08-02T07:14:19.585Z</time>
      </trkpt>
      <trkpt lat="38.998470" lon="-0.498405">
        <ele>129.565076</ele>
        <time>2020-08-02T07:14:24.576Z</time>
      </trkpt>
      <trkpt lat="38.998356" lon="-0.498428">
        <ele>129.675318</ele>
        <time>2020-08-02T07:14:31.588Z</time>
      </trkpt>
      <trkpt lat="38.998259" lon="-0.498443">
        <ele>129.768656</ele>
        <time>2020-08-02T07:14:34.610Z</time>
      </trkpt>
      <trkpt lat="38.998156" lon="-0.498440">
        <ele>129.867084</ele>
        <time>2020-08-02T07:14:37.579Z</time>
      </trkpt>
      <trkpt lat="38.998042" lon="-0.498450">
        <ele>129.976248</ele>
        <time>2020-08-02T07:14:40.593Z</time>
      </trkpt>
      <trkpt lat="38.997925" lon="-0.498473">
        <ele>130.089323</ele>
        <time>2020-08-02T07:14:43.590Z</time>
      </trkpt>
      <trkpt lat="38.997821" lon="-0.498504">
        <ele>130.191312</ele>
        <time>2020-08-02T07:14:46.591Z</time>
      </trkpt>
      <trkpt lat="38.997777" lon="-0.498638">
        <ele>130.225302</ele>
        <time>2020-08-02T07:14:48.589Z</time>
      </trkpt>
      <trkpt lat="38.997723" lon="-0.498741">
        <ele>130.107524</ele>
        <time>2020-08-02T07:14:50.585Z</time>
      </trkpt>
      <trkpt lat="38.997682" lon="-0.498882">
        <ele>129.964814</ele>
        <time>2020-08-02T07:14:52.604Z</time>
      </trkpt>
      <trkpt lat="38.997646" lon="-0.499001">
        <ele>129.843763</ele>
        <time>2020-08-02T07:14:54.590Z</time>
      </trkpt>
      <trkpt lat="38.997630" lon="-0.499176">
        <ele>129.676728</ele>
        <time>2020-08-02T07:14:56.606Z</time>
      </trkpt>
      <trkpt lat="38.997566" lon="-0.499313">
        <ele>129.525203</ele>
        <time>2020-08-02T07:14:58.585Z</time>
      </trkpt>
      <trkpt lat="38.997544" lon="-0.499465">
        <ele>129.378637</ele>
        <time>2020-08-02T07:15:00.582Z</time>
      </trkpt>
      <trkpt lat="38.997495" lon="-0.499638">
        <ele>129.204089</ele>
        <time>2020-08-02T07:15:02.589Z</time>
      </trkpt>
      <trkpt lat="38.997464" lon="-0.499754">
        <ele>129.087808</ele>
        <time>2020-08-02T07:15:03.591Z</time>
      </trkpt>
      <trkpt lat="38.997432" lon="-0.499941">
        <ele>128.906294</ele>
        <time>2020-08-02T07:15:05.570Z</time>
      </trkpt>
      <trkpt lat="38.997413" lon="-0.500095">
        <ele>128.758481</ele>
        <time>2020-08-02T07:15:07.595Z</time>
      </trkpt>
      <trkpt lat="38.997397" lon="-0.500221">
        <ele>128.637455</ele>
        <time>2020-08-02T07:15:09.608Z</time>
      </trkpt>
      <trkpt lat="38.997352" lon="-0.500389">
        <ele>128.469006</ele>
        <time>2020-08-02T07:15:11.591Z</time>
      </trkpt>
      <trkpt lat="38.997301" lon="-0.500491">
        <ele>128.354032</ele>
        <time>2020-08-02T07:15:12.588Z</time>
      </trkpt>
      <trkpt lat="38.997269" lon="-0.500668">
        <ele>128.181764</ele>
        <time>2020-08-02T07:15:14.577Z</time>
      </trkpt>
      <trkpt lat="38.997249" lon="-0.500822">
        <ele>128.130012</ele>
        <time>2020-08-02T07:15:16.585Z</time>
      </trkpt>
      <trkpt lat="38.997224" lon="-0.500984">
        <ele>128.358167</ele>
        <time>2020-08-02T07:15:18.600Z</time>
      </trkpt>
      <trkpt lat="38.997159" lon="-0.501114">
        <ele>128.571704</ele>
        <time>2020-08-02T07:15:20.594Z</time>
      </trkpt>
      <trkpt lat="38.997113" lon="-0.501228">
        <ele>128.749145</ele>
        <time>2020-08-02T07:15:22.584Z</time>
      </trkpt>
      <trkpt lat="38.997021" lon="-0.501355">
        <ele>128.988976</ele>
        <time>2020-08-02T07:15:24.597Z</time>
      </trkpt>
      <trkpt lat="38.996966" lon="-0.501446">
        <ele>129.148223</ele>
        <time>2020-08-02T07:15:26.603Z</time>
      </trkpt>
      <trkpt lat="38.996887" lon="-0.501584">
        <ele>129.384991</ele>
        <time>2020-08-02T07:15:29.584Z</time>
      </trkpt>
      <trkpt lat="38.996842" lon="-0.501692">
        <ele>129.554271</ele>
        <time>2020-08-02T07:15:31.572Z</time>
      </trkpt>
      <trkpt lat="38.996789" lon="-0.501794">
        <ele>129.723766</ele>
        <time>2020-08-02T07:15:33.592Z</time>
      </trkpt>
      <trkpt lat="38.996810" lon="-0.501925">
        <ele>129.908540</ele>
        <time>2020-08-02T07:15:35.578Z</time>
      </trkpt>
      <trkpt lat="38.996820" lon="-0.502055">
        <ele>130.089000</ele>
        <time>2020-08-02T07:15:37.575Z</time>
      </trkpt>
      <trkpt lat="38.996787" lon="-0.502223">
        <ele>130.328375</ele>
        <time>2020-08-02T07:15:40.590Z</time>
      </trkpt>
      <trkpt lat="38.996742" lon="-0.502382">
        <ele>130.562129</ele>
        <time>2020-08-02T07:15:42.582Z</time>
      </trkpt>
      <trkpt lat="38.996658" lon="-0.502515">
        <ele>130.798874</ele>
        <time>2020-08-02T07:15:45.593Z</time>
      </trkpt>
      <trkpt lat="38.996553" lon="-0.502542">
        <ele>130.989198</ele>
        <time>2020-08-02T07:15:47.595Z</time>
      </trkpt>
      <trkpt lat="38.996445" lon="-0.502631">
        <ele>131.217159</ele>
        <time>2020-08-02T07:15:49.583Z</time>
      </trkpt>
      <trkpt lat="38.996399" lon="-0.502745">
        <ele>131.393851</ele>
        <time>2020-08-02T07:15:51.593Z</time>
      </trkpt>
      <trkpt lat="38.996293" lon="-0.502842">
        <ele>131.623662</ele>
        <time>2020-08-02T07:15:53.593Z</time>
      </trkpt>
      <trkpt lat="38.996222" lon="-0.502976">
        <ele>131.846351</ele>
        <time>2020-08-02T07:15:56.603Z</time>
      </trkpt>
      <trkpt lat="38.996167" lon="-0.503117">
        <ele>132.062977</ele>
        <time>2020-08-02T07:15:59.581Z</time>
      </trkpt>
      <trkpt lat="38.996124" lon="-0.503233">
        <ele>132.239448</ele>
        <time>2020-08-02T07:16:01.597Z</time>
      </trkpt>
      <trkpt lat="38.996159" lon="-0.503361">
        <ele>132.425768</ele>
        <time>2020-08-02T07:16:05.580Z</time>
      </trkpt>
      <trkpt lat="38.996059" lon="-0.503411">
        <ele>132.615316</ele>
        <time>2020-08-02T07:17:02.591Z</time>
      </trkpt>
      <trkpt lat="38.995988" lon="-0.503542">
        <ele>132.834614</ele>
        <time>2020-08-02T07:17:05.591Z</time>
      </trkpt>
      <trkpt lat="38.995913" lon="-0.503662">
        <ele>133.046058</ele>
        <time>2020-08-02T07:17:08.586Z</time>
      </trkpt>
      <trkpt lat="38.995841" lon="-0.503776">
        <ele>133.247764</ele>
        <time>2020-08-02T07:17:11.591Z</time>
      </trkpt>
      <trkpt lat="38.995775" lon="-0.503908">
        <ele>133.463285</ele>
        <time>2020-08-02T07:17:14.585Z</time>
      </trkpt>
      <trkpt lat="38.995722" lon="-0.504037">
        <ele>133.663645</ele>
        <time>2020-08-02T07:17:17.591Z</time>
      </trkpt>
      <trkpt lat="38.995652" lon="-0.504157">
        <ele>133.869670</ele>
        <time>2020-08-02T07:17:20.596Z</time>
      </trkpt>
      <trkpt lat="38.995574" lon="-0.504282">
        <ele>134.089787</ele>
        <time>2020-08-02T07:17:23.591Z</time>
      </trkpt>
      <trkpt lat="38.995523" lon="-0.504379">
        <ele>134.250595</ele>
        <time>2020-08-02T07:17:25.594Z</time>
      </trkpt>
      <trkpt lat="38.995447" lon="-0.504500">
        <ele>134.461347</ele>
        <time>2020-08-02T07:17:28.614Z</time>
      </trkpt>
      <trkpt lat="38.995397" lon="-0.504643">
        <ele>134.639146</ele>
        <time>2020-08-02T07:17:31.591Z</time>
      </trkpt>
      <trkpt lat="38.995332" lon="-0.504776">
        <ele>134.817292</ele>
        <time>2020-08-02T07:17:34.582Z</time>
      </trkpt>
      <trkpt lat="38.995297" lon="-0.504886">
        <ele>134.952067</ele>
        <time>2020-08-02T07:17:36.602Z</time>
      </trkpt>
      <trkpt lat="38.995216" lon="-0.505005">
        <ele>135.131434</ele>
        <time>2020-08-02T07:17:39.584Z</time>
      </trkpt>
      <trkpt lat="38.995135" lon="-0.505099">
        <ele>135.290574</ele>
        <time>2020-08-02T07:17:42.584Z</time>
      </trkpt>
      <trkpt lat="38.995052" lon="-0.505183">
        <ele>135.444637</ele>
        <time>2020-08-02T07:17:45.586Z</time>
      </trkpt>
      <trkpt lat="38.994997" lon="-0.505285">
        <ele>135.585405</ele>
        <time>2020-08-02T07:17:48.587Z</time>
      </trkpt>
      <trkpt lat="38.994934" lon="-0.505404">
        <ele>135.748669</ele>
        <time>2020-08-02T07:17:51.597Z</time>
      </trkpt>
      <trkpt lat="38.994872" lon="-0.505534">
        <ele>135.921616</ele>
        <time>2020-08-02T07:17:54.593Z</time>
      </trkpt>
      <trkpt lat="38.994816" lon="-0.505658">
        <ele>136.084233</ele>
        <time>2020-08-02T07:17:57.590Z</time>
      </trkpt>
      <trkpt lat="38.994761" lon="-0.505786">
        <ele>136.250077</ele>
        <time>2020-08-02T07:18:00.594Z</time>
      </trkpt>
      <trkpt lat="38.994704" lon="-0.505936">
        <ele>136.439403</ele>
        <time>2020-08-02T07:18:03.585Z</time>
      </trkpt>
      <trkpt lat="38.994659" lon="-0.506042">
        <ele>136.576359</ele>
        <time>2020-08-02T07:18:05.595Z</time>
      </trkpt>
      <trkpt lat="38.994641" lon="-0.506205">
        <ele>136.763041</ele>
        <time>2020-08-02T07:18:07.588Z</time>
      </trkpt>
      <trkpt lat="38.994583" lon="-0.506353">
        <ele>136.950985</ele>
        <time>2020-08-02T07:18:10.599Z</time>
      </trkpt>
      <trkpt lat="38.994493" lon="-0.506487">
        <ele>137.102600</ele>
        <time>2020-08-02T07:18:13.600Z</time>
      </trkpt>
      <trkpt lat="38.994413" lon="-0.506586">
        <ele>137.164870</ele>
        <time>2020-08-02T07:18:15.596Z</time>
      </trkpt>
      <trkpt lat="38.994359" lon="-0.506717">
        <ele>137.229524</ele>
        <time>2020-08-02T07:18:17.594Z</time>
      </trkpt>
      <trkpt lat="38.994298" lon="-0.506847">
        <ele>137.295736</ele>
        <time>2020-08-02T07:18:19.605Z</time>
      </trkpt>
      <trkpt lat="38.994255" lon="-0.506981">
        <ele>137.358947</ele>
        <time>2020-08-02T07:18:22.593Z</time>
      </trkpt>
      <trkpt lat="38.994194" lon="-0.507098">
        <ele>137.420376</ele>
        <time>2020-08-02T07:18:24.602Z</time>
      </trkpt>
      <trkpt lat="38.994149" lon="-0.507251">
        <ele>137.491703</ele>
        <time>2020-08-02T07:18:27.588Z</time>
      </trkpt>
      <trkpt lat="38.994062" lon="-0.507403">
        <ele>137.574011</ele>
        <time>2020-08-02T07:18:30.601Z</time>
      </trkpt>
      <trkpt lat="38.994015" lon="-0.507524">
        <ele>137.632991</ele>
        <time>2020-08-02T07:18:32.584Z</time>
      </trkpt>
      <trkpt lat="38.993944" lon="-0.507680">
        <ele>137.711815</ele>
        <time>2020-08-02T07:18:35.594Z</time>
      </trkpt>
      <trkpt lat="38.993884" lon="-0.507815">
        <ele>137.779622</ele>
        <time>2020-08-02T07:18:37.597Z</time>
      </trkpt>
      <trkpt lat="38.993834" lon="-0.507915">
        <ele>137.831468</ele>
        <time>2020-08-02T07:18:39.593Z</time>
      </trkpt>
      <trkpt lat="38.993763" lon="-0.508036">
        <ele>137.897573</ele>
        <time>2020-08-02T07:18:42.591Z</time>
      </trkpt>
      <trkpt lat="38.993710" lon="-0.508141">
        <ele>137.952164</ele>
        <time>2020-08-02T07:18:44.588Z</time>
      </trkpt>
      <trkpt lat="38.993633" lon="-0.508262">
        <ele>138.020351</ele>
        <time>2020-08-02T07:18:47.581Z</time>
      </trkpt>
      <trkpt lat="38.993567" lon="-0.508372">
        <ele>138.080763</ele>
        <time>2020-08-02T07:18:49.594Z</time>
      </trkpt>
      <trkpt lat="38.993520" lon="-0.508501">
        <ele>137.827809</ele>
        <time>2020-08-02T07:18:51.597Z</time>
      </trkpt>
      <trkpt lat="38.993481" lon="-0.508626">
        <ele>137.588658</ele>
        <time>2020-08-02T07:18:54.601Z</time>
      </trkpt>
      <trkpt lat="38.993435" lon="-0.508786">
        <ele>137.285768</ele>
        <time>2020-08-02T07:18:57.588Z</time>
      </trkpt>
      <trkpt lat="38.993387" lon="-0.508889">
        <ele>137.072538</ele>
        <time>2020-08-02T07:18:59.590Z</time>
      </trkpt>
      <trkpt lat="38.993314" lon="-0.509019">
        <ele>136.787784</ele>
        <time>2020-08-02T07:19:02.584Z</time>
      </trkpt>
      <trkpt lat="38.993256" lon="-0.509132">
        <ele>136.547351</ele>
        <time>2020-08-02T07:19:05.602Z</time>
      </trkpt>
      <trkpt lat="38.993188" lon="-0.509245">
        <ele>136.293613</ele>
        <time>2020-08-02T07:19:08.595Z</time>
      </trkpt>
      <trkpt lat="38.993120" lon="-0.509357">
        <ele>136.041276</ele>
        <time>2020-08-02T07:19:11.589Z</time>
      </trkpt>
      <trkpt lat="38.993035" lon="-0.509458">
        <ele>135.776962</ele>
        <time>2020-08-02T07:19:14.590Z</time>
      </trkpt>
      <trkpt lat="38.992980" lon="-0.509584">
        <ele>135.520382</ele>
        <time>2020-08-02T07:19:17.591Z</time>
      </trkpt>
      <trkpt lat="38.992923" lon="-0.509678">
        <ele>135.308699</ele>
        <time>2020-08-02T07:19:20.599Z</time>
      </trkpt>
      <trkpt lat="38.992840" lon="-0.509742">
        <ele>135.087649</ele>
        <time>2020-08-02T07:19:25.586Z</time>
      </trkpt>
      <trkpt lat="38.992767" lon="-0.509865">
        <ele>134.812872</ele>
        <time>2020-08-02T07:19:44.582Z</time>
      </trkpt>
      <trkpt lat="38.992701" lon="-0.509978">
        <ele>134.561903</ele>
        <time>2020-08-02T07:19:47.584Z</time>
      </trkpt>
      <trkpt lat="38.992624" lon="-0.510107">
        <ele>134.273112</ele>
        <time>2020-08-02T07:19:50.595Z</time>
      </trkpt>
      <trkpt lat="38.992525" lon="-0.510203">
        <ele>133.989916</ele>
        <time>2020-08-02T07:19:52.595Z</time>
      </trkpt>
      <trkpt lat="38.992440" lon="-0.510317">
        <ele>134.211989</ele>
        <time>2020-08-02T07:19:54.601Z</time>
      </trkpt>
      <trkpt lat="38.992341" lon="-0.510416">
        <ele>134.473664</ele>
        <time>2020-08-02T07:19:56.583Z</time>
      </trkpt>
      <trkpt lat="38.992231" lon="-0.510527">
        <ele>134.765411</ele>
        <time>2020-08-02T07:19:58.579Z</time>
      </trkpt>
      <trkpt lat="38.992116" lon="-0.510645">
        <ele>135.072387</ele>
        <time>2020-08-02T07:20:00.586Z</time>
      </trkpt>
      <trkpt lat="38.991715" lon="-0.511144">
        <ele>136.236637</ele>
        <time>2020-08-02T07:20:08.590Z</time>
      </trkpt>
      <trkpt lat="38.991622" lon="-0.511296">
        <ele>136.550417</ele>
        <time>2020-08-02T07:20:10.584Z</time>
      </trkpt>
      <trkpt lat="38.991615" lon="-0.511418">
        <ele>136.748846</ele>
        <time>2020-08-02T07:20:12.595Z</time>
      </trkpt>
      <trkpt lat="38.991592" lon="-0.511541">
        <ele>136.954052</ele>
        <time>2020-08-02T07:20:14.591Z</time>
      </trkpt>
      <trkpt lat="38.991548" lon="-0.511651">
        <ele>137.154720</ele>
        <time>2020-08-02T07:20:16.593Z</time>
      </trkpt>
      <trkpt lat="38.991451" lon="-0.511752">
        <ele>137.415142</ele>
        <time>2020-08-02T07:20:19.587Z</time>
      </trkpt>
      <trkpt lat="38.991413" lon="-0.511878">
        <ele>137.634368</ele>
        <time>2020-08-02T07:20:21.580Z</time>
      </trkpt>
      <trkpt lat="38.991326" lon="-0.511975">
        <ele>138.022891</ele>
        <time>2020-08-02T07:20:24.593Z</time>
      </trkpt>
      <trkpt lat="38.991223" lon="-0.512055">
        <ele>138.524031</ele>
        <time>2020-08-02T07:20:27.588Z</time>
      </trkpt>
      <trkpt lat="38.991146" lon="-0.512131">
        <ele>138.928265</ele>
        <time>2020-08-02T07:20:31.580Z</time>
      </trkpt>
      <trkpt lat="38.991085" lon="-0.512231">
        <ele>139.339810</ele>
        <time>2020-08-02T07:20:34.591Z</time>
      </trkpt>
      <trkpt lat="38.991017" lon="-0.512318">
        <ele>139.739256</ele>
        <time>2020-08-02T07:20:37.592Z</time>
      </trkpt>
      <trkpt lat="38.990927" lon="-0.512421">
        <ele>140.240980</ele>
        <time>2020-08-02T07:20:41.587Z</time>
      </trkpt>
      <trkpt lat="38.990836" lon="-0.512506">
        <ele>140.709380</ele>
        <time>2020-08-02T07:20:45.589Z</time>
      </trkpt>
      <trkpt lat="38.990756" lon="-0.512610">
        <ele>141.183092</ele>
        <time>2020-08-02T07:20:49.602Z</time>
      </trkpt>
      <trkpt lat="38.990770" lon="-0.512750">
        <ele>141.640073</ele>
        <time>2020-08-02T07:20:52.571Z</time>
      </trkpt>
      <trkpt lat="38.990798" lon="-0.512870">
        <ele>142.045698</ele>
        <time>2020-08-02T07:20:54.572Z</time>
      </trkpt>
      <trkpt lat="38.990837" lon="-0.512992">
        <ele>142.472770</ele>
        <time>2020-08-02T07:20:55.591Z</time>
      </trkpt>
      <trkpt lat="38.990824" lon="-0.513127">
        <ele>142.913169</ele>
        <time>2020-08-02T07:20:57.582Z</time>
      </trkpt>
      <trkpt lat="38.990745" lon="-0.513232">
        <ele>143.386281</ele>
        <time>2020-08-02T07:21:00.574Z</time>
      </trkpt>
      <trkpt lat="38.990669" lon="-0.513313">
        <ele>143.797352</ele>
        <time>2020-08-02T07:21:03.573Z</time>
      </trkpt>
      <trkpt lat="38.990590" lon="-0.513378">
        <ele>144.187945</ele>
        <time>2020-08-02T07:21:06.578Z</time>
      </trkpt>
      <trkpt lat="38.990482" lon="-0.513369">
        <ele>144.638740</ele>
        <time>2020-08-02T07:21:09.606Z</time>
      </trkpt>
      <trkpt lat="38.990397" lon="-0.513328">
        <ele>145.016854</ele>
        <time>2020-08-02T07:21:11.598Z</time>
      </trkpt>
      <trkpt lat="38.990291" lon="-0.513238">
        <ele>145.842833</ele>
        <time>2020-08-02T07:21:14.577Z</time>
      </trkpt>
      <trkpt lat="38.990224" lon="-0.513129">
        <ele>146.699802</ele>
        <time>2020-08-02T07:21:17.588Z</time>
      </trkpt>
      <trkpt lat="38.990137" lon="-0.513032">
        <ele>147.613187</ele>
        <time>2020-08-02T07:21:21.580Z</time>
      </trkpt>
      <trkpt lat="38.990031" lon="-0.512977">
        <ele>148.520011</ele>
        <time>2020-08-02T07:21:26.594Z</time>
      </trkpt>
      <trkpt lat="38.989921" lon="-0.512919">
        <ele>149.463203</ele>
        <time>2020-08-02T07:21:30.577Z</time>
      </trkpt>
      <trkpt lat="38.989824" lon="-0.512871">
        <ele>150.287765</ele>
        <time>2020-08-02T07:21:33.595Z</time>
      </trkpt>
      <trkpt lat="38.989721" lon="-0.512831">
        <ele>151.141387</ele>
        <time>2020-08-02T07:21:37.591Z</time>
      </trkpt>
      <trkpt lat="38.989611" lon="-0.512802">
        <ele>152.032265</ele>
        <time>2020-08-02T07:21:40.587Z</time>
      </trkpt>
      <trkpt lat="38.989502" lon="-0.512750">
        <ele>152.954613</ele>
        <time>2020-08-02T07:21:44.591Z</time>
      </trkpt>
      <trkpt lat="38.989409" lon="-0.512714">
        <ele>153.725152</ele>
        <time>2020-08-02T07:21:47.583Z</time>
      </trkpt>
      <trkpt lat="38.989301" lon="-0.512697">
        <ele>154.588416</ele>
        <time>2020-08-02T07:21:50.580Z</time>
      </trkpt>
      <trkpt lat="38.989214" lon="-0.512658">
        <ele>155.319376</ele>
        <time>2020-08-02T07:21:54.583Z</time>
      </trkpt>
      <trkpt lat="38.989118" lon="-0.512626">
        <ele>156.106191</ele>
        <time>2020-08-02T07:21:58.597Z</time>
      </trkpt>
      <trkpt lat="38.989026" lon="-0.512603">
        <ele>156.849774</ele>
        <time>2020-08-02T07:22:03.593Z</time>
      </trkpt>
      <trkpt lat="38.988777" lon="-0.512661">
        <ele>158.857464</ele>
        <time>2020-08-02T07:23:42.584Z</time>
      </trkpt>
      <trkpt lat="38.988694" lon="-0.512766">
        <ele>159.662269</ele>
        <time>2020-08-02T07:23:45.596Z</time>
      </trkpt>
      <trkpt lat="38.988679" lon="-0.512882">
        <ele>160.093474</ele>
        <time>2020-08-02T07:23:50.581Z</time>
      </trkpt>
      <trkpt lat="38.988629" lon="-0.512728">
        <ele>160.705459</ele>
        <time>2020-08-02T07:38:39.591Z</time>
      </trkpt>
      <trkpt lat="38.988384" lon="-0.512716">
        <ele>161.862119</ele>
        <time>2020-08-02T07:49:26.586Z</time>
      </trkpt>
      <trkpt lat="38.988268" lon="-0.513007">
        <ele>163.061332</ele>
        <time>2020-08-02T07:50:47.586Z</time>
      </trkpt>
      <trkpt lat="38.988280" lon="-0.513129">
        <ele>163.512262</ele>
        <time>2020-08-02T07:50:51.583Z</time>
      </trkpt>
      <trkpt lat="38.988280" lon="-0.513257">
        <ele>163.981626</ele>
        <time>2020-08-02T07:50:55.579Z</time>
      </trkpt>
      <trkpt lat="38.988305" lon="-0.513389">
        <ele>164.479819</ele>
        <time>2020-08-02T07:50:58.590Z</time>
      </trkpt>
      <trkpt lat="38.988329" lon="-0.513551">
        <ele>165.084551</ele>
        <time>2020-08-02T07:51:01.592Z</time>
      </trkpt>
      <trkpt lat="38.988365" lon="-0.513658">
        <ele>165.512089</ele>
        <time>2020-08-02T07:51:03.576Z</time>
      </trkpt>
      <trkpt lat="38.988415" lon="-0.513800">
        <ele>166.083725</ele>
        <time>2020-08-02T07:51:06.578Z</time>
      </trkpt>
      <trkpt lat="38.988440" lon="-0.513954">
        <ele>166.660612</ele>
        <time>2020-08-02T07:51:09.585Z</time>
      </trkpt>
      <trkpt lat="38.988467" lon="-0.514076">
        <ele>167.125754</ele>
        <time>2020-08-02T07:51:12.593Z</time>
      </trkpt>
      <trkpt lat="38.988500" lon="-0.514211">
        <ele>167.644687</ele>
        <time>2020-08-02T07:51:17.588Z</time>
      </trkpt>
      <trkpt lat="38.988533" lon="-0.514330">
        <ele>167.976594</ele>
        <time>2020-08-02T07:51:21.565Z</time>
      </trkpt>
      <trkpt lat="38.988570" lon="-0.514460">
        <ele>167.988431</ele>
        <time>2020-08-02T07:51:25.591Z</time>
      </trkpt>
      <trkpt lat="38.988647" lon="-0.514575">
        <ele>168.001408</ele>
        <time>2020-08-02T07:51:30.590Z</time>
      </trkpt>
      <trkpt lat="38.988716" lon="-0.514701">
        <ele>168.014586</ele>
        <time>2020-08-02T07:51:34.590Z</time>
      </trkpt>
      <trkpt lat="38.988752" lon="-0.514817">
        <ele>168.025265</ele>
        <time>2020-08-02T07:51:37.595Z</time>
      </trkpt>
      <trkpt lat="38.988796" lon="-0.514931">
        <ele>168.036147</ele>
        <time>2020-08-02T07:51:40.593Z</time>
      </trkpt>
      <trkpt lat="38.988853" lon="-0.515065">
        <ele>168.049208</ele>
        <time>2020-08-02T07:51:43.590Z</time>
      </trkpt>
      <trkpt lat="38.988886" lon="-0.515173">
        <ele>168.059129</ele>
        <time>2020-08-02T07:51:45.592Z</time>
      </trkpt>
      <trkpt lat="38.988944" lon="-0.515276">
        <ele>168.070004</ele>
        <time>2020-08-02T07:51:47.602Z</time>
      </trkpt>
      <trkpt lat="38.988960" lon="-0.515407">
        <ele>168.081341</ele>
        <time>2020-08-02T07:51:49.594Z</time>
      </trkpt>
      <trkpt lat="38.988946" lon="-0.515533">
        <ele>168.092224</ele>
        <time>2020-08-02T07:51:51.593Z</time>
      </trkpt>
      <trkpt lat="38.988933" lon="-0.515657">
        <ele>168.102921</ele>
        <time>2020-08-02T07:51:53.583Z</time>
      </trkpt>
      <trkpt lat="38.988934" lon="-0.515809">
        <ele>168.115917</ele>
        <time>2020-08-02T07:51:56.596Z</time>
      </trkpt>
      <trkpt lat="38.988954" lon="-0.515971">
        <ele>168.129942</ele>
        <time>2020-08-02T07:51:59.593Z</time>
      </trkpt>
      <trkpt lat="38.989014" lon="-0.516110">
        <ele>168.143536</ele>
        <time>2020-08-02T07:52:02.592Z</time>
      </trkpt>
      <trkpt lat="38.989035" lon="-0.516223">
        <ele>168.153469</ele>
        <time>2020-08-02T07:52:05.599Z</time>
      </trkpt>
      <trkpt lat="38.989087" lon="-0.516336">
        <ele>168.164697</ele>
        <time>2020-08-02T07:52:08.584Z</time>
      </trkpt>
      <trkpt lat="38.989140" lon="-0.516462">
        <ele>168.254522</ele>
        <time>2020-08-02T07:52:11.592Z</time>
      </trkpt>
      <trkpt lat="38.989168" lon="-0.516582">
        <ele>168.412547</ele>
        <time>2020-08-02T07:52:13.577Z</time>
      </trkpt>
      <trkpt lat="38.989169" lon="-0.516716">
        <ele>168.581564</ele>
        <time>2020-08-02T07:52:14.597Z</time>
      </trkpt>
      <trkpt lat="38.989181" lon="-0.516855">
        <ele>168.757958</ele>
        <time>2020-08-02T07:52:16.570Z</time>
      </trkpt>
      <trkpt lat="38.989201" lon="-0.516981">
        <ele>168.920157</ele>
        <time>2020-08-02T07:52:18.595Z</time>
      </trkpt>
      <trkpt lat="38.989234" lon="-0.517089">
        <ele>169.066521</ele>
        <time>2020-08-02T07:52:21.590Z</time>
      </trkpt>
      <trkpt lat="38.989250" lon="-0.517257">
        <ele>169.279998</ele>
        <time>2020-08-02T07:52:25.584Z</time>
      </trkpt>
      <trkpt lat="38.989248" lon="-0.517430">
        <ele>169.498221</ele>
        <time>2020-08-02T07:52:28.589Z</time>
      </trkpt>
      <trkpt lat="38.989279" lon="-0.517558">
        <ele>169.667318</ele>
        <time>2020-08-02T07:52:31.576Z</time>
      </trkpt>
      <trkpt lat="38.989318" lon="-0.517687">
        <ele>169.841896</ele>
        <time>2020-08-02T07:52:34.592Z</time>
      </trkpt>
      <trkpt lat="38.989309" lon="-0.517846">
        <ele>170.042967</ele>
        <time>2020-08-02T07:52:37.603Z</time>
      </trkpt>
      <trkpt lat="38.989296" lon="-0.517967">
        <ele>170.197031</ele>
        <time>2020-08-02T07:52:39.593Z</time>
      </trkpt>
      <trkpt lat="38.989301" lon="-0.518106">
        <ele>170.372534</ele>
        <time>2020-08-02T07:52:42.593Z</time>
      </trkpt>
      <trkpt lat="38.989274" lon="-0.518258">
        <ele>170.569189</ele>
        <time>2020-08-02T07:52:45.590Z</time>
      </trkpt>
      <trkpt lat="38.989269" lon="-0.518405">
        <ele>170.754772</ele>
        <time>2020-08-02T07:52:48.580Z</time>
      </trkpt>
      <trkpt lat="38.989263" lon="-0.518558">
        <ele>170.947991</ele>
        <time>2020-08-02T07:52:51.591Z</time>
      </trkpt>
      <trkpt lat="38.989185" lon="-0.518637">
        <ele>171.070738</ele>
        <time>2020-08-02T07:53:01.577Z</time>
      </trkpt>
      <trkpt lat="38.989090" lon="-0.518606">
        <ele>170.910877</ele>
        <time>2020-08-02T07:53:06.578Z</time>
      </trkpt>
      <trkpt lat="38.989016" lon="-0.518533">
        <ele>170.758777</ele>
        <time>2020-08-02T07:53:18.594Z</time>
      </trkpt>
      <trkpt lat="38.988971" lon="-0.518641">
        <ele>170.603421</ele>
        <time>2020-08-02T07:53:31.576Z</time>
      </trkpt>
      <trkpt lat="38.989067" lon="-0.518641">
        <ele>170.446835</ele>
        <time>2020-08-02T07:53:39.573Z</time>
      </trkpt>
      <trkpt lat="38.989138" lon="-0.518558">
        <ele>170.290360</ele>
        <time>2020-08-02T07:53:43.578Z</time>
      </trkpt>
      <trkpt lat="38.989217" lon="-0.518491">
        <ele>170.136025</ele>
        <time>2020-08-02T07:53:51.590Z</time>
      </trkpt>
      <trkpt lat="38.989290" lon="-0.518406">
        <ele>169.975430</ele>
        <time>2020-08-02T07:54:00.586Z</time>
      </trkpt>
      <trkpt lat="38.989330" lon="-0.518301">
        <ele>169.827183</ele>
        <time>2020-08-02T07:54:08.582Z</time>
      </trkpt>
      <trkpt lat="38.989308" lon="-0.518175">
        <ele>169.663459</ele>
        <time>2020-08-02T07:54:19.580Z</time>
      </trkpt>
      <trkpt lat="38.989280" lon="-0.517726">
        <ele>169.092389</ele>
        <time>2020-08-02T08:08:57.783Z</time>
      </trkpt>
      <trkpt lat="38.989311" lon="-0.517603">
        <ele>168.928457</ele>
        <time>2020-08-02T08:09:02.788Z</time>
      </trkpt>
      <trkpt lat="38.989282" lon="-0.517362">
        <ele>168.619277</ele>
        <time>2020-08-02T08:09:03.759Z</time>
      </trkpt>
      <trkpt lat="38.989284" lon="-0.517245">
        <ele>168.470909</ele>
        <time>2020-08-02T08:09:09.778Z</time>
      </trkpt>
      <trkpt lat="38.989301" lon="-0.517121">
        <ele>168.311275</ele>
        <time>2020-08-02T08:09:14.755Z</time>
      </trkpt>
      <trkpt lat="38.989239" lon="-0.517005">
        <ele>168.172103</ele>
        <time>2020-08-02T08:09:19.772Z</time>
      </trkpt>
      <trkpt lat="38.989041" lon="-0.516742">
        <ele>168.488149</ele>
        <time>2020-08-02T08:09:25.801Z</time>
      </trkpt>
      <trkpt lat="38.989121" lon="-0.516686">
        <ele>168.589290</ele>
        <time>2020-08-02T08:09:29.766Z</time>
      </trkpt>
      <trkpt lat="38.989202" lon="-0.516631">
        <ele>168.691002</ele>
        <time>2020-08-02T08:09:34.778Z</time>
      </trkpt>
      <trkpt lat="38.989237" lon="-0.516516">
        <ele>168.797605</ele>
        <time>2020-08-02T08:09:40.776Z</time>
      </trkpt>
      <trkpt lat="38.989163" lon="-0.516445">
        <ele>168.900120</ele>
        <time>2020-08-02T08:09:45.772Z</time>
      </trkpt>
      <trkpt lat="38.989103" lon="-0.516359">
        <ele>168.999871</ele>
        <time>2020-08-02T08:09:51.772Z</time>
      </trkpt>
      <trkpt lat="38.989008" lon="-0.516309">
        <ele>169.113858</ele>
        <time>2020-08-02T08:09:57.773Z</time>
      </trkpt>
      <trkpt lat="38.988953" lon="-0.516210">
        <ele>169.218896</ele>
        <time>2020-08-02T08:10:06.777Z</time>
      </trkpt>
      <trkpt lat="38.988896" lon="-0.516107">
        <ele>169.328036</ele>
        <time>2020-08-02T08:10:16.767Z</time>
      </trkpt>
      <trkpt lat="38.988731" lon="-0.515947">
        <ele>169.557491</ele>
        <time>2020-08-02T08:10:22.765Z</time>
      </trkpt>
      <trkpt lat="38.988837" lon="-0.515872">
        <ele>169.691834</ele>
        <time>2020-08-02T08:10:27.769Z</time>
      </trkpt>
      <trkpt lat="38.988903" lon="-0.515785">
        <ele>169.796771</ele>
        <time>2020-08-02T08:10:31.759Z</time>
      </trkpt>
      <trkpt lat="38.988987" lon="-0.515690">
        <ele>169.920973</ele>
        <time>2020-08-02T08:10:37.761Z</time>
      </trkpt>
      <trkpt lat="38.988634" lon="-0.515719">
        <ele>169.978076</ele>
        <time>2020-08-02T08:11:55.779Z</time>
      </trkpt>
      <trkpt lat="38.988538" lon="-0.515744">
        <ele>169.858855</ele>
        <time>2020-08-02T08:12:02.777Z</time>
      </trkpt>
      <trkpt lat="38.988470" lon="-0.515819">
        <ele>169.749833</ele>
        <time>2020-08-02T08:12:06.771Z</time>
      </trkpt>
      <trkpt lat="38.988392" lon="-0.515889">
        <ele>169.634075</ele>
        <time>2020-08-02T08:12:11.785Z</time>
      </trkpt>
      <trkpt lat="38.988299" lon="-0.515921">
        <ele>169.516897</ele>
        <time>2020-08-02T08:12:18.776Z</time>
      </trkpt>
      <trkpt lat="38.988204" lon="-0.515890">
        <ele>169.397602</ele>
        <time>2020-08-02T08:12:25.811Z</time>
      </trkpt>
      <trkpt lat="38.988139" lon="-0.515799">
        <ele>169.280674</ele>
        <time>2020-08-02T08:12:31.778Z</time>
      </trkpt>
      <trkpt lat="38.988086" lon="-0.515687">
        <ele>169.156618</ele>
        <time>2020-08-02T08:12:39.779Z</time>
      </trkpt>
      <trkpt lat="38.988056" lon="-0.515560">
        <ele>169.031037</ele>
        <time>2020-08-02T08:12:46.776Z</time>
      </trkpt>
      <trkpt lat="38.988080" lon="-0.515425">
        <ele>168.900015</ele>
        <time>2020-08-02T08:12:49.756Z</time>
      </trkpt>
      <trkpt lat="38.988200" lon="-0.515707">
        <ele>168.595849</ele>
        <time>2020-08-02T08:39:20.770Z</time>
      </trkpt>
      <trkpt lat="38.988254" lon="-0.515833">
        <ele>168.459721</ele>
        <time>2020-08-02T08:39:23.763Z</time>
      </trkpt>
      <trkpt lat="38.988292" lon="-0.515957">
        <ele>168.333616</ele>
        <time>2020-08-02T08:39:27.756Z</time>
      </trkpt>
      <trkpt lat="38.988386" lon="-0.515973">
        <ele>168.218202</ele>
        <time>2020-08-02T08:39:31.762Z</time>
      </trkpt>
      <trkpt lat="38.988475" lon="-0.516008">
        <ele>168.104923</ele>
        <time>2020-08-02T08:39:39.768Z</time>
      </trkpt>
      <trkpt lat="38.988568" lon="-0.515991">
        <ele>167.990587</ele>
        <time>2020-08-02T08:39:43.768Z</time>
      </trkpt>
      <trkpt lat="38.988661" lon="-0.516037">
        <ele>167.887619</ele>
        <time>2020-08-02T08:39:47.754Z</time>
      </trkpt>
      <trkpt lat="38.988722" lon="-0.516154">
        <ele>167.780017</ele>
        <time>2020-08-02T08:39:52.779Z</time>
      </trkpt>
      <trkpt lat="38.988821" lon="-0.516151">
        <ele>167.682710</ele>
        <time>2020-08-02T08:39:56.787Z</time>
      </trkpt>
      <trkpt lat="38.988943" lon="-0.516566">
        <ele>167.343834</ele>
        <time>2020-08-02T08:46:03.762Z</time>
      </trkpt>
      <trkpt lat="38.988939" lon="-0.516689">
        <ele>167.249809</ele>
        <time>2020-08-02T08:46:05.759Z</time>
      </trkpt>
      <trkpt lat="38.988989" lon="-0.516837">
        <ele>167.126556</ele>
        <time>2020-08-02T08:46:07.759Z</time>
      </trkpt>
      <trkpt lat="38.989024" lon="-0.516956">
        <ele>167.029378</ele>
        <time>2020-08-02T08:46:10.766Z</time>
      </trkpt>
      <trkpt lat="38.989088" lon="-0.517047">
        <ele>166.935647</ele>
        <time>2020-08-02T08:46:12.774Z</time>
      </trkpt>
      <trkpt lat="38.989105" lon="-0.517168">
        <ele>166.841734</ele>
        <time>2020-08-02T08:46:16.782Z</time>
      </trkpt>
      <trkpt lat="38.989117" lon="-0.517303">
        <ele>166.737954</ele>
        <time>2020-08-02T08:46:20.750Z</time>
      </trkpt>
      <trkpt lat="38.989122" lon="-0.517428">
        <ele>166.642358</ele>
        <time>2020-08-02T08:46:23.775Z</time>
      </trkpt>
      <trkpt lat="38.989126" lon="-0.517550">
        <ele>166.549096</ele>
        <time>2020-08-02T08:46:26.765Z</time>
      </trkpt>
      <trkpt lat="38.989143" lon="-0.517678">
        <ele>166.449917</ele>
        <time>2020-08-02T08:46:29.760Z</time>
      </trkpt>
      <trkpt lat="38.989165" lon="-0.517802">
        <ele>166.352775</ele>
        <time>2020-08-02T08:46:32.764Z</time>
      </trkpt>
      <trkpt lat="38.989187" lon="-0.517948">
        <ele>166.239189</ele>
        <time>2020-08-02T08:46:35.758Z</time>
      </trkpt>
      <trkpt lat="38.989191" lon="-0.518114">
        <ele>166.152265</ele>
        <time>2020-08-02T08:46:38.759Z</time>
      </trkpt>
      <trkpt lat="38.989196" lon="-0.518274">
        <ele>166.087692</ele>
        <time>2020-08-02T08:46:41.770Z</time>
      </trkpt>
      <trkpt lat="38.989187" lon="-0.518424">
        <ele>166.027025</ele>
        <time>2020-08-02T08:46:44.766Z</time>
      </trkpt>
      <trkpt lat="38.989184" lon="-0.518579">
        <ele>165.964501</ele>
        <time>2020-08-02T08:46:47.764Z</time>
      </trkpt>
      <trkpt lat="38.989161" lon="-0.518726">
        <ele>165.904034</ele>
        <time>2020-08-02T08:46:50.760Z</time>
      </trkpt>
      <trkpt lat="38.989141" lon="-0.518849">
        <ele>165.853360</ele>
        <time>2020-08-02T08:46:53.758Z</time>
      </trkpt>
      <trkpt lat="38.989145" lon="-0.518966">
        <ele>165.806134</ele>
        <time>2020-08-02T08:46:58.766Z</time>
      </trkpt>
      <trkpt lat="38.989145" lon="-0.519083">
        <ele>165.758954</ele>
        <time>2020-08-02T08:47:05.759Z</time>
      </trkpt>
      <trkpt lat="38.989053" lon="-0.519077">
        <ele>165.711162</ele>
        <time>2020-08-02T08:47:11.766Z</time>
      </trkpt>
      <trkpt lat="38.988952" lon="-0.519105">
        <ele>165.657560</ele>
        <time>2020-08-02T08:47:17.767Z</time>
      </trkpt>
      <trkpt lat="38.988839" lon="-0.519132">
        <ele>165.597932</ele>
        <time>2020-08-02T08:47:22.769Z</time>
      </trkpt>
      <trkpt lat="38.988748" lon="-0.519167">
        <ele>165.548656</ele>
        <time>2020-08-02T08:47:25.760Z</time>
      </trkpt>
      <trkpt lat="38.988645" lon="-0.519173">
        <ele>165.495164</ele>
        <time>2020-08-02T08:47:29.761Z</time>
      </trkpt>
      <trkpt lat="38.988556" lon="-0.519153">
        <ele>165.448291</ele>
        <time>2020-08-02T08:47:34.761Z</time>
      </trkpt>
      <trkpt lat="38.988452" lon="-0.519143">
        <ele>165.394184</ele>
        <time>2020-08-02T08:47:40.765Z</time>
      </trkpt>
      <trkpt lat="38.988480" lon="-0.519264">
        <ele>165.343274</ele>
        <time>2020-08-02T08:47:48.775Z</time>
      </trkpt>
      <trkpt lat="38.988482" lon="-0.519381">
        <ele>165.296081</ele>
        <time>2020-08-02T08:47:53.751Z</time>
      </trkpt>
      <trkpt lat="38.988395" lon="-0.519436">
        <ele>165.268588</ele>
        <time>2020-08-02T08:48:08.758Z</time>
      </trkpt>
      <trkpt lat="38.988514" lon="-0.518942">
        <ele>165.324519</ele>
        <time>2020-08-02T08:48:54.854Z</time>
      </trkpt>
      <trkpt lat="38.988501" lon="-0.519087">
        <ele>165.340305</ele>
        <time>2020-08-02T08:49:03.764Z</time>
      </trkpt>
      <trkpt lat="38.988401" lon="-0.519249">
        <ele>165.362677</ele>
        <time>2020-08-02T08:49:50.763Z</time>
      </trkpt>
      <trkpt lat="38.988306" lon="-0.519267">
        <ele>165.376038</ele>
        <time>2020-08-02T08:50:15.763Z</time>
      </trkpt>
      <trkpt lat="38.988271" lon="-0.519154">
        <ele>165.389193</ele>
        <time>2020-08-02T08:50:29.762Z</time>
      </trkpt>
      <trkpt lat="38.988231" lon="-0.519040">
        <ele>165.402719</ele>
        <time>2020-08-02T08:50:39.763Z</time>
      </trkpt>
      <trkpt lat="38.988595" lon="-0.519022">
        <ele>165.453402</ele>
        <time>2020-08-02T10:00:46.537Z</time>
      </trkpt>
      <trkpt lat="38.988690" lon="-0.519066">
        <ele>165.467451</ele>
        <time>2020-08-02T10:00:50.538Z</time>
      </trkpt>
      <trkpt lat="38.988779" lon="-0.519094">
        <ele>165.480199</ele>
        <time>2020-08-02T10:00:56.525Z</time>
      </trkpt>
      <trkpt lat="38.988908" lon="-0.519126">
        <ele>165.498478</ele>
        <time>2020-08-02T10:00:59.527Z</time>
      </trkpt>
      <trkpt lat="38.989013" lon="-0.519179">
        <ele>165.516743</ele>
        <time>2020-08-02T10:01:02.535Z</time>
      </trkpt>
      <trkpt lat="38.989111" lon="-0.519194">
        <ele>165.768719</ele>
        <time>2020-08-02T10:01:07.527Z</time>
      </trkpt>
      <trkpt lat="38.989176" lon="-0.519287">
        <ele>166.016919</ele>
        <time>2020-08-02T10:01:12.529Z</time>
      </trkpt>
      <trkpt lat="38.989260" lon="-0.519188">
        <ele>166.307771</ele>
        <time>2020-08-02T10:01:25.541Z</time>
      </trkpt>
      <trkpt lat="38.989267" lon="-0.519310">
        <ele>166.550538</ele>
        <time>2020-08-02T10:01:35.520Z</time>
      </trkpt>
      <trkpt lat="38.989314" lon="-0.518905">
        <ele>167.363166</ele>
        <time>2020-08-02T10:02:58.545Z</time>
      </trkpt>
      <trkpt lat="38.989375" lon="-0.518653">
        <ele>167.886948</ele>
        <time>2020-08-02T10:03:01.524Z</time>
      </trkpt>
      <trkpt lat="38.989380" lon="-0.518537">
        <ele>168.117503</ele>
        <time>2020-08-02T10:03:13.528Z</time>
      </trkpt>
      <trkpt lat="38.989388" lon="-0.518418">
        <ele>168.354538</ele>
        <time>2020-08-02T10:03:18.537Z</time>
      </trkpt>
      <trkpt lat="38.989385" lon="-0.518291">
        <ele>168.606685</ele>
        <time>2020-08-02T10:03:27.534Z</time>
      </trkpt>
      <trkpt lat="38.989518" lon="-0.518731">
        <ele>169.543565</ele>
        <time>2020-08-02T10:41:56.509Z</time>
      </trkpt>
      <trkpt lat="38.989576" lon="-0.518934">
        <ele>169.972770</ele>
        <time>2020-08-02T10:41:57.521Z</time>
      </trkpt>
      <trkpt lat="38.989411" lon="-0.519209">
        <ele>169.254911</ele>
        <time>2020-08-02T10:42:03.523Z</time>
      </trkpt>
      <trkpt lat="38.989382" lon="-0.519344">
        <ele>168.829235</ele>
        <time>2020-08-02T10:42:09.515Z</time>
      </trkpt>
      <trkpt lat="38.989353" lon="-0.519461">
        <ele>168.456004</ele>
        <time>2020-08-02T10:42:12.524Z</time>
      </trkpt>
      <trkpt lat="38.989509" lon="-0.519610">
        <ele>167.696301</ele>
        <time>2020-08-02T10:42:14.511Z</time>
      </trkpt>
      <trkpt lat="38.989478" lon="-0.519764">
        <ele>167.212820</ele>
        <time>2020-08-02T10:42:17.523Z</time>
      </trkpt>
      <trkpt lat="38.989494" lon="-0.519888">
        <ele>166.830800</ele>
        <time>2020-08-02T10:42:20.498Z</time>
      </trkpt>
      <trkpt lat="38.989488" lon="-0.520008">
        <ele>166.465341</ele>
        <time>2020-08-02T10:42:23.512Z</time>
      </trkpt>
      <trkpt lat="38.989505" lon="-0.520139">
        <ele>166.061693</ele>
        <time>2020-08-02T10:42:26.508Z</time>
      </trkpt>
      <trkpt lat="38.989421" lon="-0.520267">
        <ele>165.552558</ele>
        <time>2020-08-02T10:42:29.505Z</time>
      </trkpt>
      <trkpt lat="38.989379" lon="-0.520377">
        <ele>165.180085</ele>
        <time>2020-08-02T10:42:32.509Z</time>
      </trkpt>
      <trkpt lat="38.989354" lon="-0.520492">
        <ele>164.817162</ele>
        <time>2020-08-02T10:42:35.516Z</time>
      </trkpt>
      <trkpt lat="38.989348" lon="-0.520627">
        <ele>164.406197</ele>
        <time>2020-08-02T10:42:39.507Z</time>
      </trkpt>
      <trkpt lat="38.989171" lon="-0.520794">
        <ele>163.547939</ele>
        <time>2020-08-02T10:42:44.517Z</time>
      </trkpt>
      <trkpt lat="38.989210" lon="-0.520902">
        <ele>163.186007</ele>
        <time>2020-08-02T10:42:52.509Z</time>
      </trkpt>
      <trkpt lat="38.989139" lon="-0.521181">
        <ele>163.273272</ele>
        <time>2020-08-02T10:42:58.510Z</time>
      </trkpt>
      <trkpt lat="38.989150" lon="-0.521445">
        <ele>163.479394</ele>
        <time>2020-08-02T10:43:04.529Z</time>
      </trkpt>
      <trkpt lat="38.989203" lon="-0.521685">
        <ele>163.673916</ele>
        <time>2020-08-02T10:43:10.505Z</time>
      </trkpt>
      <trkpt lat="38.989256" lon="-0.521907">
        <ele>163.854978</ele>
        <time>2020-08-02T10:43:15.505Z</time>
      </trkpt>
      <trkpt lat="38.989420" lon="-0.521950">
        <ele>164.022862</ele>
        <time>2020-08-02T10:43:21.523Z</time>
      </trkpt>
      <trkpt lat="38.989618" lon="-0.521937">
        <ele>164.221728</ele>
        <time>2020-08-02T10:43:26.514Z</time>
      </trkpt>
      <trkpt lat="38.989730" lon="-0.521966">
        <ele>164.336324</ele>
        <time>2020-08-02T10:43:30.508Z</time>
      </trkpt>
      <trkpt lat="38.989819" lon="-0.521900">
        <ele>164.439365</ele>
        <time>2020-08-02T10:43:34.504Z</time>
      </trkpt>
      <trkpt lat="38.989813" lon="-0.521775">
        <ele>164.537005</ele>
        <time>2020-08-02T10:43:37.521Z</time>
      </trkpt>
      <trkpt lat="38.989784" lon="-0.521635">
        <ele>164.649965</ele>
        <time>2020-08-02T10:43:40.515Z</time>
      </trkpt>
      <trkpt lat="38.989857" lon="-0.521541">
        <ele>164.753563</ele>
        <time>2020-08-02T10:43:43.516Z</time>
      </trkpt>
      <trkpt lat="38.989943" lon="-0.521489">
        <ele>164.848879</ele>
        <time>2020-08-02T10:43:46.506Z</time>
      </trkpt>
      <trkpt lat="38.990068" lon="-0.521435">
        <ele>164.878445</ele>
        <time>2020-08-02T10:43:49.522Z</time>
      </trkpt>
      <trkpt lat="38.990272" lon="-0.521436">
        <ele>164.880391</ele>
        <time>2020-08-02T10:43:51.522Z</time>
      </trkpt>
      <trkpt lat="38.990385" lon="-0.521483">
        <ele>164.881524</ele>
        <time>2020-08-02T10:43:53.511Z</time>
      </trkpt>
      <trkpt lat="38.990473" lon="-0.521410">
        <ele>164.882522</ele>
        <time>2020-08-02T10:43:59.513Z</time>
      </trkpt>
      <trkpt lat="38.990466" lon="-0.521529">
        <ele>164.883407</ele>
        <time>2020-08-02T10:44:19.523Z</time>
      </trkpt>
      <trkpt lat="38.990885" lon="-0.521653">
        <ele>164.887508</ele>
        <time>2020-08-02T10:44:44.508Z</time>
      </trkpt>
      <trkpt lat="38.991009" lon="-0.521677">
        <ele>164.888704</ele>
        <time>2020-08-02T10:44:46.516Z</time>
      </trkpt>
      <trkpt lat="38.991133" lon="-0.521730">
        <ele>164.889950</ele>
        <time>2020-08-02T10:44:48.530Z</time>
      </trkpt>
      <trkpt lat="38.991269" lon="-0.521772">
        <ele>164.891284</ele>
        <time>2020-08-02T10:44:50.558Z</time>
      </trkpt>
      <trkpt lat="38.991382" lon="-0.521808">
        <ele>164.892395</ele>
        <time>2020-08-02T10:44:53.518Z</time>
      </trkpt>
      <trkpt lat="38.991448" lon="-0.521889">
        <ele>164.893265</ele>
        <time>2020-08-02T10:45:07.514Z</time>
      </trkpt>
      <trkpt lat="38.991537" lon="-0.521941">
        <ele>164.894197</ele>
        <time>2020-08-02T10:45:10.509Z</time>
      </trkpt>
      <trkpt lat="38.991631" lon="-0.521967">
        <ele>164.894615</ele>
        <time>2020-08-02T10:45:12.512Z</time>
      </trkpt>
      <trkpt lat="38.991724" lon="-0.521984">
        <ele>164.894615</ele>
        <time>2020-08-02T10:45:14.507Z</time>
      </trkpt>
      <trkpt lat="38.991862" lon="-0.521986">
        <ele>164.894615</ele>
        <time>2020-08-02T10:45:16.505Z</time>
      </trkpt>
      <trkpt lat="38.991962" lon="-0.522002">
        <ele>164.894615</ele>
        <time>2020-08-02T10:45:18.506Z</time>
      </trkpt>
      <trkpt lat="38.992071" lon="-0.522049">
        <ele>164.894615</ele>
        <time>2020-08-02T10:45:20.517Z</time>
      </trkpt>
      <trkpt lat="38.992176" lon="-0.522076">
        <ele>164.894615</ele>
        <time>2020-08-02T10:45:22.511Z</time>
      </trkpt>
      <trkpt lat="38.992284" lon="-0.522074">
        <ele>164.894615</ele>
        <time>2020-08-02T10:45:24.521Z</time>
      </trkpt>
      <trkpt lat="38.992388" lon="-0.522102">
        <ele>164.894615</ele>
        <time>2020-08-02T10:45:26.527Z</time>
      </trkpt>
      <trkpt lat="38.992488" lon="-0.522138">
        <ele>164.894615</ele>
        <time>2020-08-02T10:45:28.533Z</time>
      </trkpt>
      <trkpt lat="38.992584" lon="-0.522172">
        <ele>164.894615</ele>
        <time>2020-08-02T10:45:30.517Z</time>
      </trkpt>
      <trkpt lat="38.992677" lon="-0.522204">
        <ele>164.894615</ele>
        <time>2020-08-02T10:45:32.525Z</time>
      </trkpt>
      <trkpt lat="38.992772" lon="-0.522160">
        <ele>164.894615</ele>
        <time>2020-08-02T10:45:37.507Z</time>
      </trkpt>
      <trkpt lat="38.992768" lon="-0.522291">
        <ele>164.894615</ele>
        <time>2020-08-02T10:45:43.508Z</time>
      </trkpt>
      <trkpt lat="38.992742" lon="-0.522591">
        <ele>164.894615</ele>
        <time>2020-08-02T10:46:54.514Z</time>
      </trkpt>
      <trkpt lat="38.992686" lon="-0.522685">
        <ele>164.894615</ele>
        <time>2020-08-02T10:47:03.513Z</time>
      </trkpt>
      <trkpt lat="38.992634" lon="-0.522788">
        <ele>164.894615</ele>
        <time>2020-08-02T10:47:11.510Z</time>
      </trkpt>
      <trkpt lat="38.992604" lon="-0.522908">
        <ele>164.894615</ele>
        <time>2020-08-02T10:47:19.515Z</time>
      </trkpt>
      <trkpt lat="38.992559" lon="-0.523005">
        <ele>164.894615</ele>
        <time>2020-08-02T10:47:30.324Z</time>
      </trkpt>
      <trkpt lat="38.873547" lon="-0.758088">
        <ele>394.962382</ele>
        <time>2020-08-03T07:29:25.008Z</time>
      </trkpt>
      <trkpt lat="38.873356" lon="-0.758166">
        <ele>394.962382</ele>
        <time>2020-08-03T07:30:01.367Z</time>
      </trkpt>
      <trkpt lat="38.873268" lon="-0.758252">
        <ele>394.962382</ele>
        <time>2020-08-03T07:30:05.373Z</time>
      </trkpt>
      <trkpt lat="38.873189" lon="-0.758354">
        <ele>394.962382</ele>
        <time>2020-08-03T07:30:09.383Z</time>
      </trkpt>
      <trkpt lat="38.873119" lon="-0.758447">
        <ele>394.962382</ele>
        <time>2020-08-03T07:30:13.375Z</time>
      </trkpt>
      <trkpt lat="38.873037" lon="-0.758548">
        <ele>394.962382</ele>
        <time>2020-08-03T07:30:17.376Z</time>
      </trkpt>
      <trkpt lat="38.872944" lon="-0.758641">
        <ele>394.962382</ele>
        <time>2020-08-03T07:30:20.373Z</time>
      </trkpt>
      <trkpt lat="38.872855" lon="-0.758737">
        <ele>394.962382</ele>
        <time>2020-08-03T07:30:23.371Z</time>
      </trkpt>
      <trkpt lat="38.872771" lon="-0.758825">
        <ele>394.941550</ele>
        <time>2020-08-03T07:30:26.359Z</time>
      </trkpt>
      <trkpt lat="38.872682" lon="-0.758905">
        <ele>394.913433</ele>
        <time>2020-08-03T07:30:29.366Z</time>
      </trkpt>
      <trkpt lat="38.872589" lon="-0.758988">
        <ele>394.884120</ele>
        <time>2020-08-03T07:30:32.387Z</time>
      </trkpt>
      <trkpt lat="38.872492" lon="-0.759077">
        <ele>394.853266</ele>
        <time>2020-08-03T07:30:35.385Z</time>
      </trkpt>
      <trkpt lat="38.872397" lon="-0.759142">
        <ele>394.825405</ele>
        <time>2020-08-03T07:30:38.369Z</time>
      </trkpt>
      <trkpt lat="38.872329" lon="-0.759225">
        <ele>394.801125</ele>
        <time>2020-08-03T07:30:42.372Z</time>
      </trkpt>
      <trkpt lat="38.872231" lon="-0.759186">
        <ele>394.774569</ele>
        <time>2020-08-03T07:30:47.355Z</time>
      </trkpt>
      <trkpt lat="38.872158" lon="-0.759062">
        <ele>394.743242</ele>
        <time>2020-08-03T07:30:50.362Z</time>
      </trkpt>
      <trkpt lat="38.872099" lon="-0.758953">
        <ele>394.716489</ele>
        <time>2020-08-03T07:30:52.381Z</time>
      </trkpt>
      <trkpt lat="38.872026" lon="-0.758850">
        <ele>394.688421</ele>
        <time>2020-08-03T07:30:54.370Z</time>
      </trkpt>
      <trkpt lat="38.871955" lon="-0.758729">
        <ele>394.657888</ele>
        <time>2020-08-03T07:30:56.373Z</time>
      </trkpt>
      <trkpt lat="38.871869" lon="-0.758592">
        <ele>394.622424</ele>
        <time>2020-08-03T07:30:58.387Z</time>
      </trkpt>
      <trkpt lat="38.871791" lon="-0.758469">
        <ele>394.590455</ele>
        <time>2020-08-03T07:31:00.382Z</time>
      </trkpt>
      <trkpt lat="38.871709" lon="-0.758357">
        <ele>394.559473</ele>
        <time>2020-08-03T07:31:02.380Z</time>
      </trkpt>
      <trkpt lat="38.871641" lon="-0.758256">
        <ele>394.532565</ele>
        <time>2020-08-03T07:31:04.386Z</time>
      </trkpt>
      <trkpt lat="38.871555" lon="-0.758144">
        <ele>394.500865</ele>
        <time>2020-08-03T07:31:06.365Z</time>
      </trkpt>
      <trkpt lat="38.871461" lon="-0.758033">
        <ele>393.494004</ele>
        <time>2020-08-03T07:31:08.388Z</time>
      </trkpt>
      <trkpt lat="38.871358" lon="-0.757982">
        <ele>392.506452</ele>
        <time>2020-08-03T07:31:10.356Z</time>
      </trkpt>
      <trkpt lat="38.871244" lon="-0.757890">
        <ele>391.301990</ele>
        <time>2020-08-03T07:31:12.369Z</time>
      </trkpt>
      <trkpt lat="38.871141" lon="-0.757815">
        <ele>390.242763</ele>
        <time>2020-08-03T07:31:14.374Z</time>
      </trkpt>
      <trkpt lat="38.871037" lon="-0.757734">
        <ele>389.154675</ele>
        <time>2020-08-03T07:31:16.375Z</time>
      </trkpt>
      <trkpt lat="38.870938" lon="-0.757642">
        <ele>388.061503</ele>
        <time>2020-08-03T07:31:18.372Z</time>
      </trkpt>
      <trkpt lat="38.870829" lon="-0.757517">
        <ele>386.754254</ele>
        <time>2020-08-03T07:31:20.378Z</time>
      </trkpt>
      <trkpt lat="38.870708" lon="-0.757398">
        <ele>385.390887</ele>
        <time>2020-08-03T07:31:22.369Z</time>
      </trkpt>
      <trkpt lat="38.870575" lon="-0.757221">
        <ele>383.677529</ele>
        <time>2020-08-03T07:31:24.373Z</time>
      </trkpt>
      <trkpt lat="38.870510" lon="-0.757109">
        <ele>382.704546</ele>
        <time>2020-08-03T07:31:25.372Z</time>
      </trkpt>
      <trkpt lat="38.870468" lon="-0.756903">
        <ele>381.221338</ele>
        <time>2020-08-03T07:31:27.371Z</time>
      </trkpt>
      <trkpt lat="38.870454" lon="-0.756776">
        <ele>380.327937</ele>
        <time>2020-08-03T07:31:28.386Z</time>
      </trkpt>
      <trkpt lat="38.870472" lon="-0.756625">
        <ele>379.263939</ele>
        <time>2020-08-03T07:31:29.364Z</time>
      </trkpt>
      <trkpt lat="38.870546" lon="-0.756516">
        <ele>378.385839</ele>
        <time>2020-08-03T07:31:30.382Z</time>
      </trkpt>
      <trkpt lat="38.870602" lon="-0.756408">
        <ele>378.264434</ele>
        <time>2020-08-03T07:31:31.365Z</time>
      </trkpt>
      <trkpt lat="38.870673" lon="-0.756236">
        <ele>378.082288</ele>
        <time>2020-08-03T07:31:33.362Z</time>
      </trkpt>
      <trkpt lat="38.870698" lon="-0.756079">
        <ele>377.932355</ele>
        <time>2020-08-03T07:31:35.376Z</time>
      </trkpt>
      <trkpt lat="38.870637" lon="-0.755919">
        <ele>377.765672</ele>
        <time>2020-08-03T07:31:37.379Z</time>
      </trkpt>
      <trkpt lat="38.870462" lon="-0.755860">
        <ele>377.548247</ele>
        <time>2020-08-03T07:31:39.389Z</time>
      </trkpt>
      <trkpt lat="38.870373" lon="-0.755838">
        <ele>377.439331</ele>
        <time>2020-08-03T07:31:40.358Z</time>
      </trkpt>
      <trkpt lat="38.870244" lon="-0.755952">
        <ele>377.251160</ele>
        <time>2020-08-03T07:31:42.363Z</time>
      </trkpt>
      <trkpt lat="38.870190" lon="-0.756056">
        <ele>377.134202</ele>
        <time>2020-08-03T07:31:44.413Z</time>
      </trkpt>
      <trkpt lat="38.870095" lon="-0.756183">
        <ele>376.969422</ele>
        <time>2020-08-03T07:31:47.369Z</time>
      </trkpt>
      <trkpt lat="38.870004" lon="-0.756247">
        <ele>376.844745</ele>
        <time>2020-08-03T07:31:49.382Z</time>
      </trkpt>
      <trkpt lat="38.869968" lon="-0.756402">
        <ele>376.693407</ele>
        <time>2020-08-03T07:31:52.369Z</time>
      </trkpt>
      <trkpt lat="38.869954" lon="-0.756526">
        <ele>376.576176</ele>
        <time>2020-08-03T07:31:55.385Z</time>
      </trkpt>
      <trkpt lat="38.869929" lon="-0.756676">
        <ele>376.432653</ele>
        <time>2020-08-03T07:31:58.383Z</time>
      </trkpt>
      <trkpt lat="38.869894" lon="-0.756820">
        <ele>376.291510</ele>
        <time>2020-08-03T07:32:01.374Z</time>
      </trkpt>
      <trkpt lat="38.869873" lon="-0.756982">
        <ele>376.545879</ele>
        <time>2020-08-03T07:32:04.385Z</time>
      </trkpt>
      <trkpt lat="38.869877" lon="-0.757150">
        <ele>376.990719</ele>
        <time>2020-08-03T07:32:07.373Z</time>
      </trkpt>
      <trkpt lat="38.869904" lon="-0.757301">
        <ele>377.400763</ele>
        <time>2020-08-03T07:32:10.368Z</time>
      </trkpt>
      <trkpt lat="38.869939" lon="-0.757412">
        <ele>377.717715</ele>
        <time>2020-08-03T07:32:13.370Z</time>
      </trkpt>
      <trkpt lat="38.869990" lon="-0.757543">
        <ele>378.105350</ele>
        <time>2020-08-03T07:32:17.368Z</time>
      </trkpt>
      <trkpt lat="38.870032" lon="-0.757652">
        <ele>378.427227</ele>
        <time>2020-08-03T07:32:20.385Z</time>
      </trkpt>
      <trkpt lat="38.870069" lon="-0.757759">
        <ele>378.737089</ele>
        <time>2020-08-03T07:32:23.384Z</time>
      </trkpt>
      <trkpt lat="38.870109" lon="-0.757900">
        <ele>379.134262</ele>
        <time>2020-08-03T07:32:27.373Z</time>
      </trkpt>
      <trkpt lat="38.870145" lon="-0.758034">
        <ele>379.509428</ele>
        <time>2020-08-03T07:32:31.377Z</time>
      </trkpt>
      <trkpt lat="38.870188" lon="-0.758165">
        <ele>379.885687</ele>
        <time>2020-08-03T07:32:35.385Z</time>
      </trkpt>
      <trkpt lat="38.870226" lon="-0.758308">
        <ele>380.285589</ele>
        <time>2020-08-03T07:32:39.377Z</time>
      </trkpt>
      <trkpt lat="38.870252" lon="-0.758428">
        <ele>380.615250</ele>
        <time>2020-08-03T07:32:44.382Z</time>
      </trkpt>
      <trkpt lat="38.870263" lon="-0.758543">
        <ele>380.921898</ele>
        <time>2020-08-03T07:32:51.369Z</time>
      </trkpt>
      <trkpt lat="38.870276" lon="-0.758662">
        <ele>381.239929</ele>
        <time>2020-08-03T07:32:55.393Z</time>
      </trkpt>
      <trkpt lat="38.870263" lon="-0.758783">
        <ele>381.563203</ele>
        <time>2020-08-03T07:32:58.368Z</time>
      </trkpt>
      <trkpt lat="38.870232" lon="-0.758899">
        <ele>381.887791</ele>
        <time>2020-08-03T07:33:01.368Z</time>
      </trkpt>
      <trkpt lat="38.870181" lon="-0.759009">
        <ele>382.226628</ele>
        <time>2020-08-03T07:33:04.368Z</time>
      </trkpt>
      <trkpt lat="38.870135" lon="-0.759121">
        <ele>382.445518</ele>
        <time>2020-08-03T07:33:07.368Z</time>
      </trkpt>
      <trkpt lat="38.870091" lon="-0.759230">
        <ele>382.584551</ele>
        <time>2020-08-03T07:33:10.357Z</time>
      </trkpt>
      <trkpt lat="38.870031" lon="-0.759349">
        <ele>382.745094</ele>
        <time>2020-08-03T07:33:14.359Z</time>
      </trkpt>
      <trkpt lat="38.869967" lon="-0.759481">
        <ele>382.921184</ele>
        <time>2020-08-03T07:33:18.361Z</time>
      </trkpt>
      <trkpt lat="38.869917" lon="-0.759579">
        <ele>383.053862</ele>
        <time>2020-08-03T07:33:21.378Z</time>
      </trkpt>
      <trkpt lat="38.869864" lon="-0.759688">
        <ele>383.199386</ele>
        <time>2020-08-03T07:33:25.364Z</time>
      </trkpt>
      <trkpt lat="38.869814" lon="-0.759799">
        <ele>383.344602</ele>
        <time>2020-08-03T07:33:29.384Z</time>
      </trkpt>
      <trkpt lat="38.869761" lon="-0.759922">
        <ele>383.503795</ele>
        <time>2020-08-03T07:33:33.374Z</time>
      </trkpt>
      <trkpt lat="38.869706" lon="-0.760045">
        <ele>383.664416</ele>
        <time>2020-08-03T07:33:37.380Z</time>
      </trkpt>
      <trkpt lat="38.869650" lon="-0.760178">
        <ele>383.835637</ele>
        <time>2020-08-03T07:33:41.371Z</time>
      </trkpt>
      <trkpt lat="38.869594" lon="-0.760314">
        <ele>384.009853</ele>
        <time>2020-08-03T07:33:45.366Z</time>
      </trkpt>
      <trkpt lat="38.869547" lon="-0.760424">
        <ele>384.151941</ele>
        <time>2020-08-03T07:33:48.384Z</time>
      </trkpt>
      <trkpt lat="38.869498" lon="-0.760548">
        <ele>384.309408</ele>
        <time>2020-08-03T07:33:51.356Z</time>
      </trkpt>
      <trkpt lat="38.869446" lon="-0.760672">
        <ele>384.468898</ele>
        <time>2020-08-03T07:33:54.367Z</time>
      </trkpt>
      <trkpt lat="38.869388" lon="-0.760787">
        <ele>384.624059</ele>
        <time>2020-08-03T07:33:57.368Z</time>
      </trkpt>
      <trkpt lat="38.869340" lon="-0.760892">
        <ele>384.761941</ele>
        <time>2020-08-03T07:34:00.378Z</time>
      </trkpt>
      <trkpt lat="38.869299" lon="-0.761001">
        <ele>384.899022</ele>
        <time>2020-08-03T07:34:03.360Z</time>
      </trkpt>
      <trkpt lat="38.869259" lon="-0.761121">
        <ele>385.109492</ele>
        <time>2020-08-03T07:34:06.369Z</time>
      </trkpt>
      <trkpt lat="38.869207" lon="-0.761232">
        <ele>385.383420</ele>
        <time>2020-08-03T07:34:09.372Z</time>
      </trkpt>
      <trkpt lat="38.869152" lon="-0.761338">
        <ele>385.652778</ele>
        <time>2020-08-03T07:34:12.373Z</time>
      </trkpt>
      <trkpt lat="38.869098" lon="-0.761441">
        <ele>385.915353</ele>
        <time>2020-08-03T07:34:15.373Z</time>
      </trkpt>
      <trkpt lat="38.869042" lon="-0.761542">
        <ele>386.177544</ele>
        <time>2020-08-03T07:34:18.380Z</time>
      </trkpt>
      <trkpt lat="38.868992" lon="-0.761647">
        <ele>386.437809</ele>
        <time>2020-08-03T07:34:21.384Z</time>
      </trkpt>
      <trkpt lat="38.868944" lon="-0.761747">
        <ele>386.686221</ele>
        <time>2020-08-03T07:34:24.370Z</time>
      </trkpt>
      <trkpt lat="38.868880" lon="-0.761875">
        <ele>387.007892</ele>
        <time>2020-08-03T07:34:28.381Z</time>
      </trkpt>
      <trkpt lat="38.868837" lon="-0.761979">
        <ele>387.256893</ele>
        <time>2020-08-03T07:34:31.390Z</time>
      </trkpt>
      <trkpt lat="38.868792" lon="-0.762090">
        <ele>387.521523</ele>
        <time>2020-08-03T07:34:35.367Z</time>
      </trkpt>
      <trkpt lat="38.868723" lon="-0.762201">
        <ele>387.821874</ele>
        <time>2020-08-03T07:34:40.376Z</time>
      </trkpt>
      <trkpt lat="38.868650" lon="-0.762288">
        <ele>388.092340</ele>
        <time>2020-08-03T07:34:44.381Z</time>
      </trkpt>
      <trkpt lat="38.868562" lon="-0.762384">
        <ele>388.405916</ele>
        <time>2020-08-03T07:34:48.371Z</time>
      </trkpt>
      <trkpt lat="38.868480" lon="-0.762442">
        <ele>388.660160</ele>
        <time>2020-08-03T07:34:51.357Z</time>
      </trkpt>
      <trkpt lat="38.868393" lon="-0.762515">
        <ele>388.942399</ele>
        <time>2020-08-03T07:34:54.370Z</time>
      </trkpt>
      <trkpt lat="38.868272" lon="-0.762601">
        <ele>389.317986</ele>
        <time>2020-08-03T07:34:57.368Z</time>
      </trkpt>
      <trkpt lat="38.868186" lon="-0.762677">
        <ele>389.601503</ele>
        <time>2020-08-03T07:34:59.383Z</time>
      </trkpt>
      <trkpt lat="38.868086" lon="-0.762755">
        <ele>389.868661</ele>
        <time>2020-08-03T07:35:01.369Z</time>
      </trkpt>
      <trkpt lat="38.868003" lon="-0.762855">
        <ele>389.915740</ele>
        <time>2020-08-03T07:35:03.391Z</time>
      </trkpt>
      <trkpt lat="38.867898" lon="-0.762921">
        <ele>389.964100</ele>
        <time>2020-08-03T07:35:05.368Z</time>
      </trkpt>
      <trkpt lat="38.867788" lon="-0.762990">
        <ele>390.014742</ele>
        <time>2020-08-03T07:35:07.359Z</time>
      </trkpt>
      <trkpt lat="38.867695" lon="-0.763081">
        <ele>390.063109</ele>
        <time>2020-08-03T07:35:09.373Z</time>
      </trkpt>
      <trkpt lat="38.867593" lon="-0.763164">
        <ele>390.113061</ele>
        <time>2020-08-03T07:35:11.388Z</time>
      </trkpt>
      <trkpt lat="38.867468" lon="-0.763237">
        <ele>390.169866</ele>
        <time>2020-08-03T07:35:13.364Z</time>
      </trkpt>
      <trkpt lat="38.867347" lon="-0.763301">
        <ele>390.224001</ele>
        <time>2020-08-03T07:35:15.365Z</time>
      </trkpt>
      <trkpt lat="38.867216" lon="-0.763392">
        <ele>390.285613</ele>
        <time>2020-08-03T07:35:17.368Z</time>
      </trkpt>
      <trkpt lat="38.867080" lon="-0.763498">
        <ele>390.351424</ele>
        <time>2020-08-03T07:35:19.367Z</time>
      </trkpt>
      <trkpt lat="38.866955" lon="-0.763648">
        <ele>390.422193</ele>
        <time>2020-08-03T07:35:21.367Z</time>
      </trkpt>
      <trkpt lat="38.866843" lon="-0.763791">
        <ele>390.487526</ele>
        <time>2020-08-03T07:35:23.367Z</time>
      </trkpt>
      <trkpt lat="38.866725" lon="-0.763935">
        <ele>390.554862</ele>
        <time>2020-08-03T07:35:25.382Z</time>
      </trkpt>
      <trkpt lat="38.866614" lon="-0.764101">
        <ele>390.495957</ele>
        <time>2020-08-03T07:35:27.382Z</time>
      </trkpt>
      <trkpt lat="38.866568" lon="-0.764310">
        <ele>390.148743</ele>
        <time>2020-08-03T07:35:29.362Z</time>
      </trkpt>
      <trkpt lat="38.866572" lon="-0.764519">
        <ele>389.814521</ele>
        <time>2020-08-03T07:35:31.370Z</time>
      </trkpt>
      <trkpt lat="38.866558" lon="-0.764633">
        <ele>389.630020</ele>
        <time>2020-08-03T07:35:32.365Z</time>
      </trkpt>
      <trkpt lat="38.866544" lon="-0.764818">
        <ele>389.332872</ele>
        <time>2020-08-03T07:35:34.363Z</time>
      </trkpt>
      <trkpt lat="38.866561" lon="-0.764993">
        <ele>389.050937</ele>
        <time>2020-08-03T07:35:36.380Z</time>
      </trkpt>
      <trkpt lat="38.866550" lon="-0.765178">
        <ele>388.754322</ele>
        <time>2020-08-03T07:35:38.365Z</time>
      </trkpt>
      <trkpt lat="38.866558" lon="-0.765360">
        <ele>388.462901</ele>
        <time>2020-08-03T07:35:40.379Z</time>
      </trkpt>
      <trkpt lat="38.866564" lon="-0.765521">
        <ele>388.205221</ele>
        <time>2020-08-03T07:35:42.370Z</time>
      </trkpt>
      <trkpt lat="38.866572" lon="-0.765686">
        <ele>387.940930</ele>
        <time>2020-08-03T07:35:44.367Z</time>
      </trkpt>
      <trkpt lat="38.866586" lon="-0.765815">
        <ele>387.732708</ele>
        <time>2020-08-03T07:35:46.383Z</time>
      </trkpt>
      <trkpt lat="38.866575" lon="-0.765935">
        <ele>387.539543</ele>
        <time>2020-08-03T07:35:48.372Z</time>
      </trkpt>
      <trkpt lat="38.866568" lon="-0.766090">
        <ele>387.291334</ele>
        <time>2020-08-03T07:35:51.378Z</time>
      </trkpt>
      <trkpt lat="38.866571" lon="-0.766211">
        <ele>387.097797</ele>
        <time>2020-08-03T07:35:54.357Z</time>
      </trkpt>
      <trkpt lat="38.866564" lon="-0.766355">
        <ele>387.033683</ele>
        <time>2020-08-03T07:36:00.382Z</time>
      </trkpt>
      <trkpt lat="38.866558" lon="-0.766479">
        <ele>387.596006</ele>
        <time>2020-08-03T07:36:03.368Z</time>
      </trkpt>
      <trkpt lat="38.866546" lon="-0.766614">
        <ele>388.211003</ele>
        <time>2020-08-03T07:36:06.362Z</time>
      </trkpt>
      <trkpt lat="38.866536" lon="-0.766750">
        <ele>388.829296</ele>
        <time>2020-08-03T07:36:09.362Z</time>
      </trkpt>
      <trkpt lat="38.866523" lon="-0.766893">
        <ele>389.480930</ele>
        <time>2020-08-03T07:36:12.372Z</time>
      </trkpt>
      <trkpt lat="38.866515" lon="-0.767035">
        <ele>390.125322</ele>
        <time>2020-08-03T07:36:15.371Z</time>
      </trkpt>
      <trkpt lat="38.866494" lon="-0.767188">
        <ele>390.828498</ele>
        <time>2020-08-03T07:36:18.358Z</time>
      </trkpt>
      <trkpt lat="38.866470" lon="-0.767342">
        <ele>391.539348</ele>
        <time>2020-08-03T07:36:21.368Z</time>
      </trkpt>
      <trkpt lat="38.866470" lon="-0.767458">
        <ele>392.064380</ele>
        <time>2020-08-03T07:36:23.376Z</time>
      </trkpt>
      <trkpt lat="38.866477" lon="-0.767587">
        <ele>392.649668</ele>
        <time>2020-08-03T07:36:25.368Z</time>
      </trkpt>
      <trkpt lat="38.866473" lon="-0.767705">
        <ele>393.184258</ele>
        <time>2020-08-03T07:36:27.366Z</time>
      </trkpt>
      <trkpt lat="38.866461" lon="-0.767854">
        <ele>393.862251</ele>
        <time>2020-08-03T07:36:30.381Z</time>
      </trkpt>
      <trkpt lat="38.866446" lon="-0.768011">
        <ele>394.578185</ele>
        <time>2020-08-03T07:36:33.383Z</time>
      </trkpt>
      <trkpt lat="38.866451" lon="-0.768168">
        <ele>395.289383</ele>
        <time>2020-08-03T07:36:36.371Z</time>
      </trkpt>
      <trkpt lat="38.866443" lon="-0.768323">
        <ele>395.992474</ele>
        <time>2020-08-03T07:36:39.382Z</time>
      </trkpt>
      <trkpt lat="38.866440" lon="-0.768473">
        <ele>396.671619</ele>
        <time>2020-08-03T07:36:42.376Z</time>
      </trkpt>
      <trkpt lat="38.866432" lon="-0.768619">
        <ele>397.334070</ele>
        <time>2020-08-03T07:36:45.374Z</time>
      </trkpt>
      <trkpt lat="38.866383" lon="-0.768784">
        <ele>397.503377</ele>
        <time>2020-08-03T07:36:48.373Z</time>
      </trkpt>
      <trkpt lat="38.866375" lon="-0.768903">
        <ele>397.599988</ele>
        <time>2020-08-03T07:36:50.370Z</time>
      </trkpt>
      <trkpt lat="38.866352" lon="-0.769032">
        <ele>397.707031</ele>
        <time>2020-08-03T07:36:52.365Z</time>
      </trkpt>
      <trkpt lat="38.866318" lon="-0.769156">
        <ele>397.813367</ele>
        <time>2020-08-03T07:36:54.371Z</time>
      </trkpt>
      <trkpt lat="38.866300" lon="-0.769276">
        <ele>397.912214</ele>
        <time>2020-08-03T07:36:56.379Z</time>
      </trkpt>
      <trkpt lat="38.866272" lon="-0.769396">
        <ele>398.013542</ele>
        <time>2020-08-03T07:36:58.376Z</time>
      </trkpt>
      <trkpt lat="38.866241" lon="-0.769520">
        <ele>398.118883</ele>
        <time>2020-08-03T07:37:00.365Z</time>
      </trkpt>
      <trkpt lat="38.866187" lon="-0.769613">
        <ele>398.212721</ele>
        <time>2020-08-03T07:37:02.364Z</time>
      </trkpt>
      <trkpt lat="38.866068" lon="-0.769684">
        <ele>398.349031</ele>
        <time>2020-08-03T07:37:05.376Z</time>
      </trkpt>
      <trkpt lat="38.865980" lon="-0.769736">
        <ele>398.449661</ele>
        <time>2020-08-03T07:37:07.360Z</time>
      </trkpt>
      <trkpt lat="38.865896" lon="-0.769784">
        <ele>398.545172</ele>
        <time>2020-08-03T07:37:09.361Z</time>
      </trkpt>
      <trkpt lat="38.865813" lon="-0.769834">
        <ele>398.640409</ele>
        <time>2020-08-03T07:37:11.362Z</time>
      </trkpt>
      <trkpt lat="38.865695" lon="-0.769898">
        <ele>398.773475</ele>
        <time>2020-08-03T07:37:14.371Z</time>
      </trkpt>
      <trkpt lat="38.865593" lon="-0.769984">
        <ele>398.900230</ele>
        <time>2020-08-03T07:37:17.380Z</time>
      </trkpt>
      <trkpt lat="38.865498" lon="-0.770068">
        <ele>399.020047</ele>
        <time>2020-08-03T07:37:20.373Z</time>
      </trkpt>
      <trkpt lat="38.865407" lon="-0.770077">
        <ele>399.114862</ele>
        <time>2020-08-03T07:37:22.403Z</time>
      </trkpt>
      <trkpt lat="38.865298" lon="-0.770121">
        <ele>399.233557</ele>
        <time>2020-08-03T07:37:25.376Z</time>
      </trkpt>
      <trkpt lat="38.865212" lon="-0.770168">
        <ele>399.328756</ele>
        <time>2020-08-03T07:37:28.381Z</time>
      </trkpt>
      <trkpt lat="38.865096" lon="-0.770197">
        <ele>399.449098</ele>
        <time>2020-08-03T07:37:32.371Z</time>
      </trkpt>
      <trkpt lat="38.864997" lon="-0.770246">
        <ele>399.557139</ele>
        <time>2020-08-03T07:37:36.379Z</time>
      </trkpt>
      <trkpt lat="38.864909" lon="-0.770291">
        <ele>399.653593</ele>
        <time>2020-08-03T07:37:40.367Z</time>
      </trkpt>
      <trkpt lat="38.864826" lon="-0.770354">
        <ele>399.751771</ele>
        <time>2020-08-03T07:37:45.368Z</time>
      </trkpt>
      <trkpt lat="38.864718" lon="-0.770376">
        <ele>399.863124</ele>
        <time>2020-08-03T07:37:50.366Z</time>
      </trkpt>
      <trkpt lat="38.864614" lon="-0.770412">
        <ele>399.972808</ele>
        <time>2020-08-03T07:37:55.371Z</time>
      </trkpt>
      <trkpt lat="38.864517" lon="-0.770435">
        <ele>400.073254</ele>
        <time>2020-08-03T07:37:59.368Z</time>
      </trkpt>
      <trkpt lat="38.864405" lon="-0.770462">
        <ele>400.189297</ele>
        <time>2020-08-03T07:38:03.372Z</time>
      </trkpt>
      <trkpt lat="38.864299" lon="-0.770482">
        <ele>400.298398</ele>
        <time>2020-08-03T07:38:07.367Z</time>
      </trkpt>
      <trkpt lat="38.864209" lon="-0.770502">
        <ele>400.391408</ele>
        <time>2020-08-03T07:38:10.368Z</time>
      </trkpt>
      <trkpt lat="38.864092" lon="-0.770524">
        <ele>400.511821</ele>
        <time>2020-08-03T07:38:14.374Z</time>
      </trkpt>
      <trkpt lat="38.863975" lon="-0.770547">
        <ele>400.632352</ele>
        <time>2020-08-03T07:38:18.373Z</time>
      </trkpt>
      <trkpt lat="38.863875" lon="-0.770556">
        <ele>400.734433</ele>
        <time>2020-08-03T07:38:22.364Z</time>
      </trkpt>
      <trkpt lat="38.863961" lon="-0.770493">
        <ele>400.835254</ele>
        <time>2020-08-03T07:38:39.365Z</time>
      </trkpt>
      <trkpt lat="38.864068" lon="-0.770461">
        <ele>400.947129</ele>
        <time>2020-08-03T07:38:43.384Z</time>
      </trkpt>
      <trkpt lat="38.864154" lon="-0.770422">
        <ele>401.040003</ele>
        <time>2020-08-03T07:38:46.369Z</time>
      </trkpt>
      <trkpt lat="38.864248" lon="-0.770411">
        <ele>400.799619</ele>
        <time>2020-08-03T07:38:49.369Z</time>
      </trkpt>
      <trkpt lat="38.864344" lon="-0.770383">
        <ele>400.416080</ele>
        <time>2020-08-03T07:38:52.380Z</time>
      </trkpt>
      <trkpt lat="38.864446" lon="-0.770370">
        <ele>400.016738</ele>
        <time>2020-08-03T07:38:55.369Z</time>
      </trkpt>
      <trkpt lat="38.864560" lon="-0.770346">
        <ele>399.566668</ele>
        <time>2020-08-03T07:38:58.373Z</time>
      </trkpt>
      <trkpt lat="38.864701" lon="-0.770325">
        <ele>399.013653</ele>
        <time>2020-08-03T07:39:01.386Z</time>
      </trkpt>
      <trkpt lat="38.864810" lon="-0.770312">
        <ele>398.587164</ele>
        <time>2020-08-03T07:39:04.371Z</time>
      </trkpt>
      <trkpt lat="38.864737" lon="-0.770559">
        <ele>397.785722</ele>
        <time>2020-08-03T07:41:00.353Z</time>
      </trkpt>
      <trkpt lat="38.864647" lon="-0.770657">
        <ele>397.326019</ele>
        <time>2020-08-03T07:41:03.367Z</time>
      </trkpt>
      <trkpt lat="38.864550" lon="-0.770761">
        <ele>396.833730</ele>
        <time>2020-08-03T07:41:06.371Z</time>
      </trkpt>
      <trkpt lat="38.864455" lon="-0.770876">
        <ele>396.325115</ele>
        <time>2020-08-03T07:41:09.372Z</time>
      </trkpt>
      <trkpt lat="38.864371" lon="-0.771009">
        <ele>395.805614</ele>
        <time>2020-08-03T07:41:12.362Z</time>
      </trkpt>
      <trkpt lat="38.864308" lon="-0.771123">
        <ele>395.381540</ele>
        <time>2020-08-03T07:41:14.367Z</time>
      </trkpt>
      <trkpt lat="38.864224" lon="-0.771179">
        <ele>395.012813</ele>
        <time>2020-08-03T07:41:16.382Z</time>
      </trkpt>
      <trkpt lat="38.864154" lon="-0.771260">
        <ele>394.645726</ele>
        <time>2020-08-03T07:41:18.371Z</time>
      </trkpt>
      <trkpt lat="38.864092" lon="-0.771377">
        <ele>394.216402</ele>
        <time>2020-08-03T07:41:20.359Z</time>
      </trkpt>
      <trkpt lat="38.863983" lon="-0.771455">
        <ele>394.137300</ele>
        <time>2020-08-03T07:41:23.362Z</time>
      </trkpt>
      <trkpt lat="38.863860" lon="-0.771524">
        <ele>394.262037</ele>
        <time>2020-08-03T07:41:26.352Z</time>
      </trkpt>
      <trkpt lat="38.863758" lon="-0.771622">
        <ele>394.380419</ele>
        <time>2020-08-03T07:41:29.363Z</time>
      </trkpt>
      <trkpt lat="38.863674" lon="-0.771699">
        <ele>394.476328</ele>
        <time>2020-08-03T07:41:31.360Z</time>
      </trkpt>
      <trkpt lat="38.863579" lon="-0.771755">
        <ele>394.573470</ele>
        <time>2020-08-03T07:41:33.363Z</time>
      </trkpt>
      <trkpt lat="38.863469" lon="-0.771813">
        <ele>394.683976</ele>
        <time>2020-08-03T07:41:35.371Z</time>
      </trkpt>
      <trkpt lat="38.863355" lon="-0.771849">
        <ele>394.793076</ele>
        <time>2020-08-03T07:41:37.367Z</time>
      </trkpt>
      <trkpt lat="38.863254" lon="-0.771932">
        <ele>394.904509</ele>
        <time>2020-08-03T07:41:39.362Z</time>
      </trkpt>
      <trkpt lat="38.863135" lon="-0.771981">
        <ele>395.020645</ele>
        <time>2020-08-03T07:41:41.367Z</time>
      </trkpt>
      <trkpt lat="38.863028" lon="-0.772038">
        <ele>395.128299</ele>
        <time>2020-08-03T07:41:43.348Z</time>
      </trkpt>
      <trkpt lat="38.862928" lon="-0.772075">
        <ele>395.225012</ele>
        <time>2020-08-03T07:41:45.372Z</time>
      </trkpt>
      <trkpt lat="38.862835" lon="-0.772097">
        <ele>395.312893</ele>
        <time>2020-08-03T07:41:48.347Z</time>
      </trkpt>
      <trkpt lat="38.862729" lon="-0.772131">
        <ele>395.414429</ele>
        <time>2020-08-03T07:41:51.373Z</time>
      </trkpt>
      <trkpt lat="38.862649" lon="-0.772218">
        <ele>395.511849</ele>
        <time>2020-08-03T07:41:54.397Z</time>
      </trkpt>
      <trkpt lat="38.862546" lon="-0.772252">
        <ele>395.610682</ele>
        <time>2020-08-03T07:41:56.360Z</time>
      </trkpt>
      <trkpt lat="38.862452" lon="-0.772343">
        <ele>395.720078</ele>
        <time>2020-08-03T07:41:58.369Z</time>
      </trkpt>
      <trkpt lat="38.862362" lon="-0.772444">
        <ele>395.869734</ele>
        <time>2020-08-03T07:42:00.370Z</time>
      </trkpt>
      <trkpt lat="38.862259" lon="-0.772529">
        <ele>396.027104</ele>
        <time>2020-08-03T07:42:02.378Z</time>
      </trkpt>
      <trkpt lat="38.862157" lon="-0.772610">
        <ele>396.181252</ele>
        <time>2020-08-03T07:42:04.376Z</time>
      </trkpt>
      <trkpt lat="38.862078" lon="-0.772705">
        <ele>396.320363</ele>
        <time>2020-08-03T07:42:06.378Z</time>
      </trkpt>
      <trkpt lat="38.861990" lon="-0.772768">
        <ele>396.449863</ele>
        <time>2020-08-03T07:42:08.371Z</time>
      </trkpt>
      <trkpt lat="38.861935" lon="-0.772864">
        <ele>396.569152</ele>
        <time>2020-08-03T07:42:10.362Z</time>
      </trkpt>
      <trkpt lat="38.861845" lon="-0.772926">
        <ele>396.700428</ele>
        <time>2020-08-03T07:42:12.372Z</time>
      </trkpt>
      <trkpt lat="38.861753" lon="-0.773045">
        <ele>396.868266</ele>
        <time>2020-08-03T07:42:15.368Z</time>
      </trkpt>
      <trkpt lat="38.861671" lon="-0.773155">
        <ele>397.020681</ele>
        <time>2020-08-03T07:42:18.365Z</time>
      </trkpt>
      <trkpt lat="38.861589" lon="-0.773238">
        <ele>397.154884</ele>
        <time>2020-08-03T07:42:22.365Z</time>
      </trkpt>
      <trkpt lat="38.861594" lon="-0.773361">
        <ele>397.278159</ele>
        <time>2020-08-03T07:42:36.365Z</time>
      </trkpt>
      <trkpt lat="38.861518" lon="-0.773440">
        <ele>397.403837</ele>
        <time>2020-08-03T07:42:45.352Z</time>
      </trkpt>
      <trkpt lat="38.861424" lon="-0.773451">
        <ele>397.525162</ele>
        <time>2020-08-03T07:43:11.385Z</time>
      </trkpt>
      <trkpt lat="38.861322" lon="-0.773447">
        <ele>397.656331</ele>
        <time>2020-08-03T07:43:16.372Z</time>
      </trkpt>
      <trkpt lat="38.861218" lon="-0.773466">
        <ele>397.791356</ele>
        <time>2020-08-03T07:43:21.372Z</time>
      </trkpt>
      <trkpt lat="38.861107" lon="-0.773472">
        <ele>397.934158</ele>
        <time>2020-08-03T07:43:25.363Z</time>
      </trkpt>
      <trkpt lat="38.861011" lon="-0.773492">
        <ele>398.041047</ele>
        <time>2020-08-03T07:43:29.376Z</time>
      </trkpt>
      <trkpt lat="38.860922" lon="-0.773518">
        <ele>398.031812</ele>
        <time>2020-08-03T07:43:33.373Z</time>
      </trkpt>
      <trkpt lat="38.860833" lon="-0.773582">
        <ele>398.021491</ele>
        <time>2020-08-03T07:43:37.361Z</time>
      </trkpt>
      <trkpt lat="38.860748" lon="-0.773654">
        <ele>398.011188</ele>
        <time>2020-08-03T07:43:41.362Z</time>
      </trkpt>
      <trkpt lat="38.860667" lon="-0.773732">
        <ele>398.000945</ele>
        <time>2020-08-03T07:43:45.367Z</time>
      </trkpt>
      <trkpt lat="38.860596" lon="-0.773820">
        <ele>397.990961</ele>
        <time>2020-08-03T07:43:49.370Z</time>
      </trkpt>
      <trkpt lat="38.860501" lon="-0.773886">
        <ele>397.980032</ele>
        <time>2020-08-03T07:43:53.360Z</time>
      </trkpt>
      <trkpt lat="38.860405" lon="-0.773876">
        <ele>397.970287</ele>
        <time>2020-08-03T07:43:56.372Z</time>
      </trkpt>
      <trkpt lat="38.860322" lon="-0.773931">
        <ele>397.960837</ele>
        <time>2020-08-03T07:43:59.360Z</time>
      </trkpt>
      <trkpt lat="38.860269" lon="-0.774032">
        <ele>397.951241</ele>
        <time>2020-08-03T07:44:02.381Z</time>
      </trkpt>
      <trkpt lat="38.860245" lon="-0.774164">
        <ele>397.940561</ele>
        <time>2020-08-03T07:44:05.352Z</time>
      </trkpt>
      <trkpt lat="38.860220" lon="-0.774308">
        <ele>397.928937</ele>
        <time>2020-08-03T07:44:08.366Z</time>
      </trkpt>
      <trkpt lat="38.860187" lon="-0.774446">
        <ele>397.917564</ele>
        <time>2020-08-03T07:44:11.362Z</time>
      </trkpt>
      <trkpt lat="38.860120" lon="-0.774537">
        <ele>397.907696</ele>
        <time>2020-08-03T07:44:14.364Z</time>
      </trkpt>
      <trkpt lat="38.860029" lon="-0.774574">
        <ele>397.898039</ele>
        <time>2020-08-03T07:44:17.364Z</time>
      </trkpt>
      <trkpt lat="38.859938" lon="-0.774610">
        <ele>397.888404</ele>
        <time>2020-08-03T07:44:20.367Z</time>
      </trkpt>
      <trkpt lat="38.859852" lon="-0.774656">
        <ele>397.878978</ele>
        <time>2020-08-03T07:44:23.364Z</time>
      </trkpt>
      <trkpt lat="38.859780" lon="-0.774733">
        <ele>397.869498</ele>
        <time>2020-08-03T07:44:26.365Z</time>
      </trkpt>
      <trkpt lat="38.859677" lon="-0.774804">
        <ele>398.000720</ele>
        <time>2020-08-03T07:44:30.363Z</time>
      </trkpt>
      <trkpt lat="38.859577" lon="-0.774863">
        <ele>398.577074</ele>
        <time>2020-08-03T07:44:34.365Z</time>
      </trkpt>
      <trkpt lat="38.859488" lon="-0.774955">
        <ele>399.175434</ele>
        <time>2020-08-03T07:44:38.367Z</time>
      </trkpt>
      <trkpt lat="38.859410" lon="-0.775059">
        <ele>399.764302</ele>
        <time>2020-08-03T07:44:42.379Z</time>
      </trkpt>
      <trkpt lat="38.859331" lon="-0.775160">
        <ele>400.348120</ele>
        <time>2020-08-03T07:44:46.363Z</time>
      </trkpt>
      <trkpt lat="38.859247" lon="-0.775246">
        <ele>400.910745</ele>
        <time>2020-08-03T07:44:50.365Z</time>
      </trkpt>
      <trkpt lat="38.859167" lon="-0.775335">
        <ele>401.465078</ele>
        <time>2020-08-03T07:44:54.367Z</time>
      </trkpt>
      <trkpt lat="38.859082" lon="-0.775408">
        <ele>402.000620</ele>
        <time>2020-08-03T07:44:58.361Z</time>
      </trkpt>
      <trkpt lat="38.858988" lon="-0.775481">
        <ele>402.575940</ele>
        <time>2020-08-03T07:45:02.367Z</time>
      </trkpt>
      <trkpt lat="38.858898" lon="-0.775555">
        <ele>403.135628</ele>
        <time>2020-08-03T07:45:06.370Z</time>
      </trkpt>
      <trkpt lat="38.858822" lon="-0.775656">
        <ele>403.708421</ele>
        <time>2020-08-03T07:45:11.362Z</time>
      </trkpt>
      <trkpt lat="38.858728" lon="-0.775721">
        <ele>404.267556</ele>
        <time>2020-08-03T07:45:16.368Z</time>
      </trkpt>
      <trkpt lat="38.858646" lon="-0.775786">
        <ele>404.772237</ele>
        <time>2020-08-03T07:45:20.362Z</time>
      </trkpt>
      <trkpt lat="38.858572" lon="-0.775854">
        <ele>405.248795</ele>
        <time>2020-08-03T07:45:24.384Z</time>
      </trkpt>
      <trkpt lat="38.858478" lon="-0.775927">
        <ele>405.824116</ele>
        <time>2020-08-03T07:45:29.365Z</time>
      </trkpt>
      <trkpt lat="38.858416" lon="-0.776025">
        <ele>406.339064</ele>
        <time>2020-08-03T07:45:34.366Z</time>
      </trkpt>
      <trkpt lat="38.858353" lon="-0.776113">
        <ele>406.826573</ele>
        <time>2020-08-03T07:45:52.378Z</time>
      </trkpt>
      <trkpt lat="38.858259" lon="-0.776115">
        <ele>407.320275</ele>
        <time>2020-08-03T07:46:08.383Z</time>
      </trkpt>
      <trkpt lat="38.858162" lon="-0.776139">
        <ele>407.855478</ele>
        <time>2020-08-03T07:46:12.381Z</time>
      </trkpt>
      <trkpt lat="38.858073" lon="-0.776172">
        <ele>408.357370</ele>
        <time>2020-08-03T07:46:28.367Z</time>
      </trkpt>
      <trkpt lat="38.857990" lon="-0.776237">
        <ele>408.884079</ele>
        <time>2020-08-03T07:46:36.366Z</time>
      </trkpt>
      <trkpt lat="38.857907" lon="-0.776285">
        <ele>409.377261</ele>
        <time>2020-08-03T07:46:44.370Z</time>
      </trkpt>
      <trkpt lat="38.857818" lon="-0.776321">
        <ele>409.882810</ele>
        <time>2020-08-03T07:46:54.351Z</time>
      </trkpt>
      <trkpt lat="38.857727" lon="-0.776373">
        <ele>410.422449</ele>
        <time>2020-08-03T07:47:03.360Z</time>
      </trkpt>
      <trkpt lat="38.857629" lon="-0.776400">
        <ele>410.965487</ele>
        <time>2020-08-03T07:47:13.365Z</time>
      </trkpt>
      <trkpt lat="38.857536" lon="-0.776432">
        <ele>411.487127</ele>
        <time>2020-08-03T07:47:22.372Z</time>
      </trkpt>
      <trkpt lat="38.857445" lon="-0.776447">
        <ele>411.984203</ele>
        <time>2020-08-03T07:47:32.371Z</time>
      </trkpt>
      <trkpt lat="38.857350" lon="-0.776494">
        <ele>412.535781</ele>
        <time>2020-08-03T07:47:42.383Z</time>
      </trkpt>
      <trkpt lat="38.857264" lon="-0.776539">
        <ele>413.038917</ele>
        <time>2020-08-03T07:47:52.363Z</time>
      </trkpt>
      <trkpt lat="38.857201" lon="-0.776624">
        <ele>413.534003</ele>
        <time>2020-08-03T07:48:01.366Z</time>
      </trkpt>
      <trkpt lat="38.857151" lon="-0.776724">
        <ele>414.035385</ele>
        <time>2020-08-03T07:48:08.354Z</time>
      </trkpt>
      <trkpt lat="38.857092" lon="-0.776813">
        <ele>414.528512</ele>
        <time>2020-08-03T07:48:20.367Z</time>
      </trkpt>
      <trkpt lat="38.857022" lon="-0.776898">
        <ele>415.050469</ele>
        <time>2020-08-03T07:48:28.369Z</time>
      </trkpt>
      <trkpt lat="38.856933" lon="-0.776943">
        <ele>415.568694</ele>
        <time>2020-08-03T07:48:40.354Z</time>
      </trkpt>
      <trkpt lat="38.856869" lon="-0.777027">
        <ele>416.064508</ele>
        <time>2020-08-03T07:48:49.359Z</time>
      </trkpt>
      <trkpt lat="38.856799" lon="-0.777106">
        <ele>416.569408</ele>
        <time>2020-08-03T07:48:58.361Z</time>
      </trkpt>
      <trkpt lat="38.856760" lon="-0.777218">
        <ele>417.088960</ele>
        <time>2020-08-03T07:49:11.372Z</time>
      </trkpt>
      <trkpt lat="38.856678" lon="-0.777291">
        <ele>417.646431</ele>
        <time>2020-08-03T07:49:33.373Z</time>
      </trkpt>
      <trkpt lat="38.856595" lon="-0.777342">
        <ele>418.160517</ele>
        <time>2020-08-03T07:49:39.390Z</time>
      </trkpt>
      <trkpt lat="38.856525" lon="-0.777417">
        <ele>418.669869</ele>
        <time>2020-08-03T07:49:45.363Z</time>
      </trkpt>
      <trkpt lat="38.856490" lon="-0.777536">
        <ele>419.223316</ele>
        <time>2020-08-03T07:49:54.363Z</time>
      </trkpt>
      <trkpt lat="38.856437" lon="-0.777637">
        <ele>419.753211</ele>
        <time>2020-08-03T07:50:06.372Z</time>
      </trkpt>
      <trkpt lat="38.856366" lon="-0.777726">
        <ele>420.307561</ele>
        <time>2020-08-03T07:50:17.362Z</time>
      </trkpt>
      <trkpt lat="38.856274" lon="-0.777768">
        <ele>420.853094</ele>
        <time>2020-08-03T07:50:29.375Z</time>
      </trkpt>
      <trkpt lat="38.856182" lon="-0.777779">
        <ele>421.369336</ele>
        <time>2020-08-03T07:51:10.370Z</time>
      </trkpt>
      <trkpt lat="38.856153" lon="-0.777891">
        <ele>421.882862</ele>
        <time>2020-08-03T07:51:49.366Z</time>
      </trkpt>
      <trkpt lat="38.856098" lon="-0.777982">
        <ele>422.384048</ele>
        <time>2020-08-03T07:52:08.360Z</time>
      </trkpt>
      <trkpt lat="38.856024" lon="-0.778052">
        <ele>422.897562</ele>
        <time>2020-08-03T07:52:20.365Z</time>
      </trkpt>
      <trkpt lat="38.855953" lon="-0.778126">
        <ele>423.408465</ele>
        <time>2020-08-03T07:52:38.362Z</time>
      </trkpt>
      <trkpt lat="38.855869" lon="-0.778200">
        <ele>423.977608</ele>
        <time>2020-08-03T07:52:45.358Z</time>
      </trkpt>
      <trkpt lat="38.855819" lon="-0.778305">
        <ele>424.513093</ele>
        <time>2020-08-03T07:52:54.368Z</time>
      </trkpt>
      <trkpt lat="38.855760" lon="-0.778406">
        <ele>425.062428</ele>
        <time>2020-08-03T07:53:34.370Z</time>
      </trkpt>
      <trkpt lat="38.855705" lon="-0.778509">
        <ele>425.605806</ele>
        <time>2020-08-03T07:53:53.359Z</time>
      </trkpt>
      <trkpt lat="38.855635" lon="-0.778596">
        <ele>426.150087</ele>
        <time>2020-08-03T07:54:02.370Z</time>
      </trkpt>
      <trkpt lat="38.855548" lon="-0.778646">
        <ele>426.682629</ele>
        <time>2020-08-03T07:54:11.376Z</time>
      </trkpt>
      <trkpt lat="38.855475" lon="-0.778725">
        <ele>427.033043</ele>
        <time>2020-08-03T07:54:23.377Z</time>
      </trkpt>
      <trkpt lat="38.855424" lon="-0.778827">
        <ele>426.878284</ele>
        <time>2020-08-03T07:54:34.364Z</time>
      </trkpt>
      <trkpt lat="38.855356" lon="-0.778918">
        <ele>426.717264</ele>
        <time>2020-08-03T07:54:44.359Z</time>
      </trkpt>
      <trkpt lat="38.855300" lon="-0.779015">
        <ele>426.563100</ele>
        <time>2020-08-03T07:54:53.358Z</time>
      </trkpt>
      <trkpt lat="38.855251" lon="-0.779121">
        <ele>426.405718</ele>
        <time>2020-08-03T07:55:02.357Z</time>
      </trkpt>
      <trkpt lat="38.855190" lon="-0.779207">
        <ele>426.257200</ele>
        <time>2020-08-03T07:55:12.365Z</time>
      </trkpt>
      <trkpt lat="38.855103" lon="-0.779255">
        <ele>426.101956</ele>
        <time>2020-08-03T07:55:24.352Z</time>
      </trkpt>
      <trkpt lat="38.855019" lon="-0.779310">
        <ele>425.947369</ele>
        <time>2020-08-03T07:55:36.348Z</time>
      </trkpt>
      <trkpt lat="38.854932" lon="-0.779363">
        <ele>425.789495</ele>
        <time>2020-08-03T07:55:45.358Z</time>
      </trkpt>
      <trkpt lat="38.854843" lon="-0.779388">
        <ele>425.640130</ele>
        <time>2020-08-03T07:57:07.367Z</time>
      </trkpt>
      <trkpt lat="38.854757" lon="-0.779347">
        <ele>425.489729</ele>
        <time>2020-08-03T07:57:16.363Z</time>
      </trkpt>
      <trkpt lat="38.854681" lon="-0.779272">
        <ele>425.332583</ele>
        <time>2020-08-03T07:57:27.364Z</time>
      </trkpt>
      <trkpt lat="38.854592" lon="-0.779220">
        <ele>425.172274</ele>
        <time>2020-08-03T07:57:54.359Z</time>
      </trkpt>
      <trkpt lat="38.854498" lon="-0.779147">
        <ele>424.992170</ele>
        <time>2020-08-03T07:58:00.351Z</time>
      </trkpt>
      <trkpt lat="38.854403" lon="-0.779097">
        <ele>424.823843</ele>
        <time>2020-08-03T07:58:05.350Z</time>
      </trkpt>
      <trkpt lat="38.854305" lon="-0.779036">
        <ele>424.645291</ele>
        <time>2020-08-03T07:58:11.359Z</time>
      </trkpt>
      <trkpt lat="38.854217" lon="-0.778980">
        <ele>424.484271</ele>
        <time>2020-08-03T07:58:16.360Z</time>
      </trkpt>
      <trkpt lat="38.854130" lon="-0.778913">
        <ele>424.317950</ele>
        <time>2020-08-03T07:58:21.371Z</time>
      </trkpt>
      <trkpt lat="38.854042" lon="-0.778852">
        <ele>424.153996</ele>
        <time>2020-08-03T07:58:26.363Z</time>
      </trkpt>
      <trkpt lat="38.853957" lon="-0.778781">
        <ele>424.882057</ele>
        <time>2020-08-03T07:58:31.358Z</time>
      </trkpt>
      <trkpt lat="38.853858" lon="-0.778721">
        <ele>425.866294</ele>
        <time>2020-08-03T07:58:36.367Z</time>
      </trkpt>
      <trkpt lat="38.853767" lon="-0.778678">
        <ele>426.738085</ele>
        <time>2020-08-03T07:58:41.349Z</time>
      </trkpt>
      <trkpt lat="38.853662" lon="-0.778646">
        <ele>427.708334</ele>
        <time>2020-08-03T07:58:46.367Z</time>
      </trkpt>
      <trkpt lat="38.853580" lon="-0.778589">
        <ele>428.546662</ele>
        <time>2020-08-03T07:58:51.357Z</time>
      </trkpt>
      <trkpt lat="38.853476" lon="-0.778557">
        <ele>429.508166</ele>
        <time>2020-08-03T07:58:57.350Z</time>
      </trkpt>
      <trkpt lat="38.853380" lon="-0.778505">
        <ele>430.444922</ele>
        <time>2020-08-03T07:59:03.373Z</time>
      </trkpt>
      <trkpt lat="38.853287" lon="-0.778437">
        <ele>431.407109</ele>
        <time>2020-08-03T07:59:09.348Z</time>
      </trkpt>
      <trkpt lat="38.853177" lon="-0.778413">
        <ele>432.410263</ele>
        <time>2020-08-03T07:59:15.360Z</time>
      </trkpt>
      <trkpt lat="38.853082" lon="-0.778359">
        <ele>433.344323</ele>
        <time>2020-08-03T07:59:20.351Z</time>
      </trkpt>
      <trkpt lat="38.852993" lon="-0.778314">
        <ele>434.204294</ele>
        <time>2020-08-03T07:59:25.355Z</time>
      </trkpt>
      <trkpt lat="38.852899" lon="-0.778261">
        <ele>435.127304</ele>
        <time>2020-08-03T07:59:30.364Z</time>
      </trkpt>
      <trkpt lat="38.852807" lon="-0.778211">
        <ele>436.025484</ele>
        <time>2020-08-03T07:59:35.363Z</time>
      </trkpt>
      <trkpt lat="38.852722" lon="-0.778161">
        <ele>436.866065</ele>
        <time>2020-08-03T07:59:40.364Z</time>
      </trkpt>
      <trkpt lat="38.852639" lon="-0.778101">
        <ele>437.722419</ele>
        <time>2020-08-03T07:59:45.351Z</time>
      </trkpt>
      <trkpt lat="38.852548" lon="-0.778098">
        <ele>438.540845</ele>
        <time>2020-08-03T07:59:51.365Z</time>
      </trkpt>
      <trkpt lat="38.852462" lon="-0.778046">
        <ele>439.395480</ele>
        <time>2020-08-03T07:59:57.362Z</time>
      </trkpt>
      <trkpt lat="38.852367" lon="-0.777991">
        <ele>440.397551</ele>
        <time>2020-08-03T08:00:03.358Z</time>
      </trkpt>
      <trkpt lat="38.852268" lon="-0.777969">
        <ele>442.953652</ele>
        <time>2020-08-03T08:00:09.358Z</time>
      </trkpt>
      <trkpt lat="38.852177" lon="-0.777921">
        <ele>445.456503</ele>
        <time>2020-08-03T08:00:14.175Z</time>
      </trkpt>
      <trkpt lat="38.852076" lon="-0.777880">
        <ele>448.151391</ele>
        <time>2020-08-03T08:00:19.154Z</time>
      </trkpt>
      <trkpt lat="38.851988" lon="-0.777857">
        <ele>450.436109</ele>
        <time>2020-08-03T08:00:23.162Z</time>
      </trkpt>
      <trkpt lat="38.851891" lon="-0.777832">
        <ele>452.953107</ele>
        <time>2020-08-03T08:00:28.177Z</time>
      </trkpt>
      <trkpt lat="38.851798" lon="-0.777861">
        <ele>455.387890</ele>
        <time>2020-08-03T08:00:33.156Z</time>
      </trkpt>
      <trkpt lat="38.851707" lon="-0.777920">
        <ele>457.981401</ele>
        <time>2020-08-03T08:00:38.177Z</time>
      </trkpt>
      <trkpt lat="38.851616" lon="-0.777979">
        <ele>460.574913</ele>
        <time>2020-08-03T08:00:43.193Z</time>
      </trkpt>
      <trkpt lat="38.851526" lon="-0.778047">
        <ele>463.231572</ele>
        <time>2020-08-03T08:00:49.166Z</time>
      </trkpt>
      <trkpt lat="38.851456" lon="-0.778133">
        <ele>465.696282</ele>
        <time>2020-08-03T08:00:55.190Z</time>
      </trkpt>
      <trkpt lat="38.851374" lon="-0.778219">
        <ele>468.389863</ele>
        <time>2020-08-03T08:01:01.163Z</time>
      </trkpt>
      <trkpt lat="38.851275" lon="-0.778262">
        <ele>471.048714</ele>
        <time>2020-08-03T08:01:07.165Z</time>
      </trkpt>
      <trkpt lat="38.851192" lon="-0.778321">
        <ele>473.462291</ele>
        <time>2020-08-03T08:01:12.166Z</time>
      </trkpt>
      <trkpt lat="38.851116" lon="-0.778408">
        <ele>476.052604</ele>
        <time>2020-08-03T08:01:17.173Z</time>
      </trkpt>
      <trkpt lat="38.851026" lon="-0.778494">
        <ele>478.906728</ele>
        <time>2020-08-03T08:01:22.171Z</time>
      </trkpt>
      <trkpt lat="38.850928" lon="-0.778556">
        <ele>481.686140</ele>
        <time>2020-08-03T08:01:27.159Z</time>
      </trkpt>
      <trkpt lat="38.850830" lon="-0.778611">
        <ele>484.407102</ele>
        <time>2020-08-03T08:01:32.167Z</time>
      </trkpt>
      <trkpt lat="38.850740" lon="-0.778619">
        <ele>486.163506</ele>
        <time>2020-08-03T08:01:36.162Z</time>
      </trkpt>
      <trkpt lat="38.850639" lon="-0.778608">
        <ele>486.592000</ele>
        <time>2020-08-03T08:01:41.155Z</time>
      </trkpt>
      <trkpt lat="38.850539" lon="-0.778545">
        <ele>487.062872</ele>
        <time>2020-08-03T08:01:46.166Z</time>
      </trkpt>
      <trkpt lat="38.850452" lon="-0.778469">
        <ele>487.507690</ele>
        <time>2020-08-03T08:01:50.173Z</time>
      </trkpt>
      <trkpt lat="38.850371" lon="-0.778400">
        <ele>487.918602</ele>
        <time>2020-08-03T08:01:54.168Z</time>
      </trkpt>
      <trkpt lat="38.850283" lon="-0.778351">
        <ele>488.324079</ele>
        <time>2020-08-03T08:01:58.163Z</time>
      </trkpt>
      <trkpt lat="38.850192" lon="-0.778335">
        <ele>488.712355</ele>
        <time>2020-08-03T08:02:02.170Z</time>
      </trkpt>
      <trkpt lat="38.850101" lon="-0.778308">
        <ele>489.107178</ele>
        <time>2020-08-03T08:02:06.157Z</time>
      </trkpt>
      <trkpt lat="38.850014" lon="-0.778229">
        <ele>489.557627</ele>
        <time>2020-08-03T08:02:11.168Z</time>
      </trkpt>
      <trkpt lat="38.849927" lon="-0.778166">
        <ele>489.979857</ele>
        <time>2020-08-03T08:02:16.169Z</time>
      </trkpt>
      <trkpt lat="38.849842" lon="-0.778108">
        <ele>490.386765</ele>
        <time>2020-08-03T08:02:21.173Z</time>
      </trkpt>
      <trkpt lat="38.849745" lon="-0.778066">
        <ele>490.819502</ele>
        <time>2020-08-03T08:02:26.176Z</time>
      </trkpt>
      <trkpt lat="38.849647" lon="-0.778006">
        <ele>491.278464</ele>
        <time>2020-08-03T08:02:31.168Z</time>
      </trkpt>
      <trkpt lat="38.849562" lon="-0.777941">
        <ele>491.696682</ele>
        <time>2020-08-03T08:02:36.165Z</time>
      </trkpt>
      <trkpt lat="38.849469" lon="-0.777880">
        <ele>492.138147</ele>
        <time>2020-08-03T08:02:41.174Z</time>
      </trkpt>
      <trkpt lat="38.849375" lon="-0.777812">
        <ele>492.594239</ele>
        <time>2020-08-03T08:02:47.177Z</time>
      </trkpt>
      <trkpt lat="38.849292" lon="-0.777746">
        <ele>493.006941</ele>
        <time>2020-08-03T08:02:52.154Z</time>
      </trkpt>
      <trkpt lat="38.849197" lon="-0.777685">
        <ele>493.455951</ele>
        <time>2020-08-03T08:02:57.167Z</time>
      </trkpt>
      <trkpt lat="38.849093" lon="-0.777650">
        <ele>493.836997</ele>
        <time>2020-08-03T08:03:02.180Z</time>
      </trkpt>
      <trkpt lat="38.848994" lon="-0.777609">
        <ele>494.147981</ele>
        <time>2020-08-03T08:03:07.160Z</time>
      </trkpt>
      <trkpt lat="38.848904" lon="-0.777554">
        <ele>494.445964</ele>
        <time>2020-08-03T08:03:12.188Z</time>
      </trkpt>
      <trkpt lat="38.848812" lon="-0.777500">
        <ele>494.748381</ele>
        <time>2020-08-03T08:03:17.178Z</time>
      </trkpt>
      <trkpt lat="38.848724" lon="-0.777464">
        <ele>495.024495</ele>
        <time>2020-08-03T08:03:21.176Z</time>
      </trkpt>
      <trkpt lat="38.848634" lon="-0.777444">
        <ele>495.297559</ele>
        <time>2020-08-03T08:03:25.164Z</time>
      </trkpt>
      <trkpt lat="38.848540" lon="-0.777463">
        <ele>495.582041</ele>
        <time>2020-08-03T08:03:29.177Z</time>
      </trkpt>
      <trkpt lat="38.848451" lon="-0.777504">
        <ele>495.864722</ele>
        <time>2020-08-03T08:03:33.164Z</time>
      </trkpt>
      <trkpt lat="38.848373" lon="-0.777577">
        <ele>496.153280</ele>
        <time>2020-08-03T08:03:37.187Z</time>
      </trkpt>
      <trkpt lat="38.848293" lon="-0.777654">
        <ele>496.452183</ele>
        <time>2020-08-03T08:03:41.189Z</time>
      </trkpt>
      <trkpt lat="38.848222" lon="-0.777735">
        <ele>496.736124</ele>
        <time>2020-08-03T08:03:45.169Z</time>
      </trkpt>
      <trkpt lat="38.848136" lon="-0.777811">
        <ele>497.048238</ele>
        <time>2020-08-03T08:03:49.173Z</time>
      </trkpt>
      <trkpt lat="38.848052" lon="-0.777892">
        <ele>497.362296</ele>
        <time>2020-08-03T08:03:53.167Z</time>
      </trkpt>
      <trkpt lat="38.847971" lon="-0.777968">
        <ele>497.662217</ele>
        <time>2020-08-03T08:03:57.178Z</time>
      </trkpt>
      <trkpt lat="38.847892" lon="-0.778034">
        <ele>497.943988</ele>
        <time>2020-08-03T08:04:01.160Z</time>
      </trkpt>
      <trkpt lat="38.847800" lon="-0.778104">
        <ele>498.263694</ele>
        <time>2020-08-03T08:04:06.169Z</time>
      </trkpt>
      <trkpt lat="38.847715" lon="-0.778174">
        <ele>498.565586</ele>
        <time>2020-08-03T08:04:10.182Z</time>
      </trkpt>
      <trkpt lat="38.847636" lon="-0.778234">
        <ele>498.839988</ele>
        <time>2020-08-03T08:04:14.175Z</time>
      </trkpt>
      <trkpt lat="38.847557" lon="-0.778301">
        <ele>499.188911</ele>
        <time>2020-08-03T08:04:19.156Z</time>
      </trkpt>
      <trkpt lat="38.847460" lon="-0.778368">
        <ele>499.769786</ele>
        <time>2020-08-03T08:04:24.176Z</time>
      </trkpt>
      <trkpt lat="38.847381" lon="-0.778448">
        <ele>500.300393</ele>
        <time>2020-08-03T08:04:27.163Z</time>
      </trkpt>
      <trkpt lat="38.847293" lon="-0.778518">
        <ele>500.846324</ele>
        <time>2020-08-03T08:04:30.170Z</time>
      </trkpt>
      <trkpt lat="38.847211" lon="-0.778576">
        <ele>501.340046</ele>
        <time>2020-08-03T08:04:33.173Z</time>
      </trkpt>
      <trkpt lat="38.847118" lon="-0.778630">
        <ele>501.878322</ele>
        <time>2020-08-03T08:04:37.177Z</time>
      </trkpt>
      <trkpt lat="38.847037" lon="-0.778691">
        <ele>502.373550</ele>
        <time>2020-08-03T08:04:41.171Z</time>
      </trkpt>
      <trkpt lat="38.846942" lon="-0.778760">
        <ele>502.949158</ele>
        <time>2020-08-03T08:04:46.169Z</time>
      </trkpt>
      <trkpt lat="38.846868" lon="-0.778836">
        <ele>503.448900</ele>
        <time>2020-08-03T08:04:50.176Z</time>
      </trkpt>
      <trkpt lat="38.846791" lon="-0.778897">
        <ele>503.926051</ele>
        <time>2020-08-03T08:04:54.170Z</time>
      </trkpt>
      <trkpt lat="38.846707" lon="-0.778954">
        <ele>504.427105</ele>
        <time>2020-08-03T08:04:59.171Z</time>
      </trkpt>
      <trkpt lat="38.846639" lon="-0.779039">
        <ele>504.927597</ele>
        <time>2020-08-03T08:05:04.170Z</time>
      </trkpt>
      <trkpt lat="38.846552" lon="-0.779098">
        <ele>505.446477</ele>
        <time>2020-08-03T08:05:09.165Z</time>
      </trkpt>
      <trkpt lat="38.846470" lon="-0.779184">
        <ele>506.004853</ele>
        <time>2020-08-03T08:05:14.173Z</time>
      </trkpt>
      <trkpt lat="38.846382" lon="-0.779245">
        <ele>506.532255</ele>
        <time>2020-08-03T08:05:19.168Z</time>
      </trkpt>
      <trkpt lat="38.846294" lon="-0.779283">
        <ele>507.021887</ele>
        <time>2020-08-03T08:05:23.169Z</time>
      </trkpt>
      <trkpt lat="38.846200" lon="-0.779365">
        <ele>507.621209</ele>
        <time>2020-08-03T08:05:28.173Z</time>
      </trkpt>
      <trkpt lat="38.846113" lon="-0.779426">
        <ele>508.143977</ele>
        <time>2020-08-03T08:05:32.163Z</time>
      </trkpt>
      <trkpt lat="38.846019" lon="-0.779477">
        <ele>508.494811</ele>
        <time>2020-08-03T08:05:36.175Z</time>
      </trkpt>
      <trkpt lat="38.845921" lon="-0.779552">
        <ele>508.390924</ele>
        <time>2020-08-03T08:05:40.175Z</time>
      </trkpt>
      <trkpt lat="38.845836" lon="-0.779605">
        <ele>508.304879</ele>
        <time>2020-08-03T08:05:43.170Z</time>
      </trkpt>
      <trkpt lat="38.845747" lon="-0.779704">
        <ele>508.197653</ele>
        <time>2020-08-03T08:05:47.167Z</time>
      </trkpt>
      <trkpt lat="38.845679" lon="-0.779782">
        <ele>508.114622</ele>
        <time>2020-08-03T08:05:50.174Z</time>
      </trkpt>
      <trkpt lat="38.845619" lon="-0.779872">
        <ele>508.030604</ele>
        <time>2020-08-03T08:05:53.178Z</time>
      </trkpt>
      <trkpt lat="38.845571" lon="-0.779972">
        <ele>507.947297</ele>
        <time>2020-08-03T08:05:56.173Z</time>
      </trkpt>
      <trkpt lat="38.845524" lon="-0.780111">
        <ele>507.839828</ele>
        <time>2020-08-03T08:06:00.160Z</time>
      </trkpt>
      <trkpt lat="38.845474" lon="-0.780246">
        <ele>507.733812</ele>
        <time>2020-08-03T08:06:04.171Z</time>
      </trkpt>
      <trkpt lat="38.845436" lon="-0.780359">
        <ele>507.646520</ele>
        <time>2020-08-03T08:06:07.187Z</time>
      </trkpt>
      <trkpt lat="38.845391" lon="-0.780474">
        <ele>507.555247</ele>
        <time>2020-08-03T08:06:10.171Z</time>
      </trkpt>
      <trkpt lat="38.845355" lon="-0.780596">
        <ele>507.462722</ele>
        <time>2020-08-03T08:06:13.178Z</time>
      </trkpt>
      <trkpt lat="38.845311" lon="-0.780705">
        <ele>507.375653</ele>
        <time>2020-08-03T08:06:16.172Z</time>
      </trkpt>
      <trkpt lat="38.845267" lon="-0.780810">
        <ele>507.291092</ele>
        <time>2020-08-03T08:06:19.177Z</time>
      </trkpt>
      <trkpt lat="38.845224" lon="-0.780915">
        <ele>507.206959</ele>
        <time>2020-08-03T08:06:22.173Z</time>
      </trkpt>
      <trkpt lat="38.845183" lon="-0.781060">
        <ele>507.097556</ele>
        <time>2020-08-03T08:06:26.170Z</time>
      </trkpt>
      <trkpt lat="38.845159" lon="-0.781178">
        <ele>507.011063</ele>
        <time>2020-08-03T08:06:29.174Z</time>
      </trkpt>
      <trkpt lat="38.845122" lon="-0.781293">
        <ele>506.922820</ele>
        <time>2020-08-03T08:06:32.178Z</time>
      </trkpt>
      <trkpt lat="38.845093" lon="-0.781419">
        <ele>507.072596</ele>
        <time>2020-08-03T08:06:35.182Z</time>
      </trkpt>
      <trkpt lat="38.845063" lon="-0.781562">
        <ele>507.432116</ele>
        <time>2020-08-03T08:06:38.173Z</time>
      </trkpt>
      <trkpt lat="38.845031" lon="-0.781715">
        <ele>507.816698</ele>
        <time>2020-08-03T08:06:41.176Z</time>
      </trkpt>
      <trkpt lat="38.845000" lon="-0.781862">
        <ele>508.186405</ele>
        <time>2020-08-03T08:06:44.171Z</time>
      </trkpt>
      <trkpt lat="38.844965" lon="-0.781999">
        <ele>508.536422</ele>
        <time>2020-08-03T08:06:47.168Z</time>
      </trkpt>
      <trkpt lat="38.844942" lon="-0.782119">
        <ele>508.836426</ele>
        <time>2020-08-03T08:06:50.173Z</time>
      </trkpt>
      <trkpt lat="38.844910" lon="-0.782243">
        <ele>509.153542</ele>
        <time>2020-08-03T08:06:53.168Z</time>
      </trkpt>
      <trkpt lat="38.844876" lon="-0.782379">
        <ele>509.500288</ele>
        <time>2020-08-03T08:06:56.176Z</time>
      </trkpt>
      <trkpt lat="38.844868" lon="-0.782524">
        <ele>509.853173</ele>
        <time>2020-08-03T08:06:59.175Z</time>
      </trkpt>
      <trkpt lat="38.844838" lon="-0.782682">
        <ele>510.247968</ele>
        <time>2020-08-03T08:07:02.172Z</time>
      </trkpt>
      <trkpt lat="38.844818" lon="-0.782796">
        <ele>510.531650</ele>
        <time>2020-08-03T08:07:04.171Z</time>
      </trkpt>
      <trkpt lat="38.844788" lon="-0.782917">
        <ele>510.839915</ele>
        <time>2020-08-03T08:07:06.181Z</time>
      </trkpt>
      <trkpt lat="38.844768" lon="-0.783043">
        <ele>511.152081</ele>
        <time>2020-08-03T08:07:08.179Z</time>
      </trkpt>
      <trkpt lat="38.844741" lon="-0.783155">
        <ele>511.436700</ele>
        <time>2020-08-03T08:07:10.170Z</time>
      </trkpt>
      <trkpt lat="38.844716" lon="-0.783266">
        <ele>511.717205</ele>
        <time>2020-08-03T08:07:12.173Z</time>
      </trkpt>
      <trkpt lat="38.844681" lon="-0.783381">
        <ele>512.016938</ele>
        <time>2020-08-03T08:07:14.172Z</time>
      </trkpt>
      <trkpt lat="38.844650" lon="-0.783506">
        <ele>512.335402</ele>
        <time>2020-08-03T08:07:16.169Z</time>
      </trkpt>
      <trkpt lat="38.844626" lon="-0.783641">
        <ele>512.519974</ele>
        <time>2020-08-03T08:07:18.165Z</time>
      </trkpt>
      <trkpt lat="38.844613" lon="-0.783765">
        <ele>512.568994</ele>
        <time>2020-08-03T08:07:20.171Z</time>
      </trkpt>
      <trkpt lat="38.844588" lon="-0.783897">
        <ele>512.622218</ele>
        <time>2020-08-03T08:07:22.178Z</time>
      </trkpt>
      <trkpt lat="38.844578" lon="-0.784033">
        <ele>512.675739</ele>
        <time>2020-08-03T08:07:24.172Z</time>
      </trkpt>
      <trkpt lat="38.844550" lon="-0.784160">
        <ele>512.727452</ele>
        <time>2020-08-03T08:07:26.174Z</time>
      </trkpt>
      <trkpt lat="38.844513" lon="-0.784284">
        <ele>512.779478</ele>
        <time>2020-08-03T08:07:28.197Z</time>
      </trkpt>
      <trkpt lat="38.844478" lon="-0.784449">
        <ele>512.846479</ele>
        <time>2020-08-03T08:07:31.169Z</time>
      </trkpt>
      <trkpt lat="38.844456" lon="-0.784571">
        <ele>512.895542</ele>
        <time>2020-08-03T08:07:33.177Z</time>
      </trkpt>
      <trkpt lat="38.844426" lon="-0.784699">
        <ele>512.947913</ele>
        <time>2020-08-03T08:07:35.167Z</time>
      </trkpt>
      <trkpt lat="38.844391" lon="-0.784818">
        <ele>512.997750</ele>
        <time>2020-08-03T08:07:37.175Z</time>
      </trkpt>
      <trkpt lat="38.844366" lon="-0.784938">
        <ele>513.046419</ele>
        <time>2020-08-03T08:07:39.170Z</time>
      </trkpt>
      <trkpt lat="38.844336" lon="-0.785052">
        <ele>513.093564</ele>
        <time>2020-08-03T08:07:41.168Z</time>
      </trkpt>
      <trkpt lat="38.844316" lon="-0.785180">
        <ele>513.144713</ele>
        <time>2020-08-03T08:07:43.171Z</time>
      </trkpt>
      <trkpt lat="38.844288" lon="-0.785295">
        <ele>513.191920</ele>
        <time>2020-08-03T08:07:45.160Z</time>
      </trkpt>
      <trkpt lat="38.844243" lon="-0.785465">
        <ele>513.262266</ele>
        <time>2020-08-03T08:07:48.164Z</time>
      </trkpt>
      <trkpt lat="38.844220" lon="-0.785586">
        <ele>513.311065</ele>
        <time>2020-08-03T08:07:50.180Z</time>
      </trkpt>
      <trkpt lat="38.844185" lon="-0.785697">
        <ele>513.357983</ele>
        <time>2020-08-03T08:07:52.179Z</time>
      </trkpt>
      <trkpt lat="38.844146" lon="-0.785813">
        <ele>513.480157</ele>
        <time>2020-08-03T08:07:54.171Z</time>
      </trkpt>
      <trkpt lat="38.844085" lon="-0.785911">
        <ele>513.829667</ele>
        <time>2020-08-03T08:07:56.167Z</time>
      </trkpt>
      <trkpt lat="38.843993" lon="-0.785988">
        <ele>514.222504</ele>
        <time>2020-08-03T08:07:58.159Z</time>
      </trkpt>
      <trkpt lat="38.843889" lon="-0.786019">
        <ele>514.604413</ele>
        <time>2020-08-03T08:08:00.167Z</time>
      </trkpt>
      <trkpt lat="38.843779" lon="-0.786004">
        <ele>515.000104</ele>
        <time>2020-08-03T08:08:02.169Z</time>
      </trkpt>
      <trkpt lat="38.843675" lon="-0.785966">
        <ele>515.386891</ele>
        <time>2020-08-03T08:08:04.176Z</time>
      </trkpt>
      <trkpt lat="38.843576" lon="-0.785947">
        <ele>515.744955</ele>
        <time>2020-08-03T08:08:06.173Z</time>
      </trkpt>
      <trkpt lat="38.843481" lon="-0.785925">
        <ele>516.090260</ele>
        <time>2020-08-03T08:08:08.176Z</time>
      </trkpt>
      <trkpt lat="38.843359" lon="-0.785869">
        <ele>516.553713</ele>
        <time>2020-08-03T08:08:11.165Z</time>
      </trkpt>
      <trkpt lat="38.843238" lon="-0.785786">
        <ele>517.044438</ele>
        <time>2020-08-03T08:08:14.180Z</time>
      </trkpt>
      <trkpt lat="38.843171" lon="-0.785707">
        <ele>517.369833</ele>
        <time>2020-08-03T08:08:16.160Z</time>
      </trkpt>
      <trkpt lat="38.843087" lon="-0.785586">
        <ele>517.821419</ele>
        <time>2020-08-03T08:08:19.169Z</time>
      </trkpt>
      <trkpt lat="38.843014" lon="-0.785468">
        <ele>518.241261</ele>
        <time>2020-08-03T08:08:22.173Z</time>
      </trkpt>
      <trkpt lat="38.842938" lon="-0.785333">
        <ele>518.705342</ele>
        <time>2020-08-03T08:08:25.169Z</time>
      </trkpt>
      <trkpt lat="38.842856" lon="-0.785212">
        <ele>519.152201</ele>
        <time>2020-08-03T08:08:28.171Z</time>
      </trkpt>
      <trkpt lat="38.842823" lon="-0.785081">
        <ele>519.535791</ele>
        <time>2020-08-03T08:08:31.168Z</time>
      </trkpt>
      <trkpt lat="38.842772" lon="-0.784982">
        <ele>519.857004</ele>
        <time>2020-08-03T08:08:34.167Z</time>
      </trkpt>
      <trkpt lat="38.842751" lon="-0.784867">
        <ele>520.101815</ele>
        <time>2020-08-03T08:08:37.157Z</time>
      </trkpt>
      <trkpt lat="38.842731" lon="-0.784722">
        <ele>520.407016</ele>
        <time>2020-08-03T08:08:41.168Z</time>
      </trkpt>
      <trkpt lat="38.842713" lon="-0.784567">
        <ele>520.731819</ele>
        <time>2020-08-03T08:08:45.184Z</time>
      </trkpt>
      <trkpt lat="38.842709" lon="-0.784437">
        <ele>521.001466</ele>
        <time>2020-08-03T08:08:48.168Z</time>
      </trkpt>
      <trkpt lat="38.842713" lon="-0.784299">
        <ele>521.287681</ele>
        <time>2020-08-03T08:08:51.168Z</time>
      </trkpt>
      <trkpt lat="38.842727" lon="-0.784162">
        <ele>521.574059</ele>
        <time>2020-08-03T08:08:54.170Z</time>
      </trkpt>
      <trkpt lat="38.842733" lon="-0.784039">
        <ele>521.829487</ele>
        <time>2020-08-03T08:08:57.170Z</time>
      </trkpt>
      <trkpt lat="38.842726" lon="-0.783897">
        <ele>522.124384</ele>
        <time>2020-08-03T08:09:01.177Z</time>
      </trkpt>
      <trkpt lat="38.842721" lon="-0.783754">
        <ele>522.421063</ele>
        <time>2020-08-03T08:09:05.208Z</time>
      </trkpt>
      <trkpt lat="38.842712" lon="-0.783640">
        <ele>522.658549</ele>
        <time>2020-08-03T08:09:08.184Z</time>
      </trkpt>
      <trkpt lat="38.842696" lon="-0.783492">
        <ele>522.968233</ele>
        <time>2020-08-03T08:09:12.166Z</time>
      </trkpt>
      <trkpt lat="38.842681" lon="-0.783355">
        <ele>523.254969</ele>
        <time>2020-08-03T08:09:16.177Z</time>
      </trkpt>
      <trkpt lat="38.842680" lon="-0.783223">
        <ele>523.528564</ele>
        <time>2020-08-03T08:09:20.166Z</time>
      </trkpt>
      <trkpt lat="38.842666" lon="-0.783086">
        <ele>523.814943</ele>
        <time>2020-08-03T08:09:24.155Z</time>
      </trkpt>
      <trkpt lat="38.842651" lon="-0.782960">
        <ele>524.079122</ele>
        <time>2020-08-03T08:09:28.167Z</time>
      </trkpt>
      <trkpt lat="38.842603" lon="-0.782840">
        <ele>524.358714</ele>
        <time>2020-08-03T08:09:32.167Z</time>
      </trkpt>
      <trkpt lat="38.842524" lon="-0.782757">
        <ele>524.626367</ele>
        <time>2020-08-03T08:09:36.162Z</time>
      </trkpt>
      <trkpt lat="38.842419" lon="-0.782704">
        <ele>524.845035</ele>
        <time>2020-08-03T08:09:40.158Z</time>
      </trkpt>
      <trkpt lat="38.842313" lon="-0.782652">
        <ele>525.064965</ele>
        <time>2020-08-03T08:09:44.201Z</time>
      </trkpt>
      <trkpt lat="38.842203" lon="-0.782619">
        <ele>525.283904</ele>
        <time>2020-08-03T08:09:48.169Z</time>
      </trkpt>
      <trkpt lat="38.842100" lon="-0.782617">
        <ele>525.483556</ele>
        <time>2020-08-03T08:09:52.164Z</time>
      </trkpt>
      <trkpt lat="38.842013" lon="-0.782671">
        <ele>525.670846</ele>
        <time>2020-08-03T08:09:56.162Z</time>
      </trkpt>
      <trkpt lat="38.841930" lon="-0.782758">
        <ele>525.878516</ele>
        <time>2020-08-03T08:10:00.163Z</time>
      </trkpt>
      <trkpt lat="38.841853" lon="-0.782861">
        <ele>526.094034</ele>
        <time>2020-08-03T08:10:04.179Z</time>
      </trkpt>
      <trkpt lat="38.841773" lon="-0.782961">
        <ele>526.310435</ele>
        <time>2020-08-03T08:10:08.173Z</time>
      </trkpt>
      <trkpt lat="38.841686" lon="-0.783056">
        <ele>526.531793</ele>
        <time>2020-08-03T08:10:12.172Z</time>
      </trkpt>
      <trkpt lat="38.841607" lon="-0.783143">
        <ele>526.733517</ele>
        <time>2020-08-03T08:10:16.178Z</time>
      </trkpt>
      <trkpt lat="38.841516" lon="-0.783236">
        <ele>526.958943</ele>
        <time>2020-08-03T08:10:20.166Z</time>
      </trkpt>
      <trkpt lat="38.841448" lon="-0.783345">
        <ele>527.169763</ele>
        <time>2020-08-03T08:10:24.162Z</time>
      </trkpt>
      <trkpt lat="38.841367" lon="-0.783438">
        <ele>527.380371</ele>
        <time>2020-08-03T08:10:28.167Z</time>
      </trkpt>
      <trkpt lat="38.841278" lon="-0.783537">
        <ele>527.608603</ele>
        <time>2020-08-03T08:10:32.169Z</time>
      </trkpt>
      <trkpt lat="38.841210" lon="-0.783622">
        <ele>527.792545</ele>
        <time>2020-08-03T08:10:35.172Z</time>
      </trkpt>
      <trkpt lat="38.841141" lon="-0.783700">
        <ele>527.970728</ele>
        <time>2020-08-03T08:10:38.175Z</time>
      </trkpt>
      <trkpt lat="38.841052" lon="-0.783799">
        <ele>528.334642</ele>
        <time>2020-08-03T08:10:42.178Z</time>
      </trkpt>
      <trkpt lat="38.840969" lon="-0.783889">
        <ele>528.839040</ele>
        <time>2020-08-03T08:10:46.182Z</time>
      </trkpt>
      <trkpt lat="38.840886" lon="-0.783979">
        <ele>529.343437</ele>
        <time>2020-08-03T08:10:50.184Z</time>
      </trkpt>
      <trkpt lat="38.840835" lon="-0.784086">
        <ele>529.797070</ele>
        <time>2020-08-03T08:10:54.160Z</time>
      </trkpt>
      <trkpt lat="38.840775" lon="-0.784179">
        <ele>530.233764</ele>
        <time>2020-08-03T08:10:58.191Z</time>
      </trkpt>
      <trkpt lat="38.840694" lon="-0.784274">
        <ele>530.743120</ele>
        <time>2020-08-03T08:11:03.173Z</time>
      </trkpt>
      <trkpt lat="38.840614" lon="-0.784376">
        <ele>531.266576</ele>
        <time>2020-08-03T08:11:08.162Z</time>
      </trkpt>
      <trkpt lat="38.840528" lon="-0.784450">
        <ele>531.747234</ele>
        <time>2020-08-03T08:11:12.173Z</time>
      </trkpt>
      <trkpt lat="38.840452" lon="-0.784532">
        <ele>532.208139</ele>
        <time>2020-08-03T08:11:16.176Z</time>
      </trkpt>
      <trkpt lat="38.840367" lon="-0.784614">
        <ele>532.701765</ele>
        <time>2020-08-03T08:11:21.169Z</time>
      </trkpt>
      <trkpt lat="38.840293" lon="-0.784685">
        <ele>533.130669</ele>
        <time>2020-08-03T08:11:25.222Z</time>
      </trkpt>
      <trkpt lat="38.840218" lon="-0.784763">
        <ele>533.578786</ele>
        <time>2020-08-03T08:11:29.187Z</time>
      </trkpt>
      <trkpt lat="38.840133" lon="-0.784856">
        <ele>534.097285</ele>
        <time>2020-08-03T08:11:34.162Z</time>
      </trkpt>
      <trkpt lat="38.840040" lon="-0.784936">
        <ele>534.617021</ele>
        <time>2020-08-03T08:11:39.178Z</time>
      </trkpt>
      <trkpt lat="38.839988" lon="-0.785050">
        <ele>535.094763</ele>
        <time>2020-08-03T08:11:44.175Z</time>
      </trkpt>
      <trkpt lat="38.839913" lon="-0.785141">
        <ele>535.573867</ele>
        <time>2020-08-03T08:11:49.193Z</time>
      </trkpt>
      <trkpt lat="38.839836" lon="-0.785212">
        <ele>536.014007</ele>
        <time>2020-08-03T08:11:53.171Z</time>
      </trkpt>
      <trkpt lat="38.839759" lon="-0.785305">
        <ele>536.150889</ele>
        <time>2020-08-03T08:11:58.168Z</time>
      </trkpt>
      <trkpt lat="38.839675" lon="-0.785395">
        <ele>533.229818</ele>
        <time>2020-08-03T08:12:03.170Z</time>
      </trkpt>
      <trkpt lat="38.839588" lon="-0.785486">
        <ele>530.233717</ele>
        <time>2020-08-03T08:12:08.173Z</time>
      </trkpt>
      <trkpt lat="38.839521" lon="-0.785577">
        <ele>527.629657</ele>
        <time>2020-08-03T08:12:12.168Z</time>
      </trkpt>
      <trkpt lat="38.839475" lon="-0.785689">
        <ele>524.996559</ele>
        <time>2020-08-03T08:12:16.176Z</time>
      </trkpt>
      <trkpt lat="38.839439" lon="-0.785800">
        <ele>522.496109</ele>
        <time>2020-08-03T08:12:20.162Z</time>
      </trkpt>
      <trkpt lat="38.839414" lon="-0.785931">
        <ele>519.691274</ele>
        <time>2020-08-03T08:12:24.187Z</time>
      </trkpt>
      <trkpt lat="38.839395" lon="-0.786057">
        <ele>517.022342</ele>
        <time>2020-08-03T08:12:28.177Z</time>
      </trkpt>
      <trkpt lat="38.839378" lon="-0.786178">
        <ele>514.465435</ele>
        <time>2020-08-03T08:12:32.171Z</time>
      </trkpt>
      <trkpt lat="38.839359" lon="-0.786293">
        <ele>512.020700</ele>
        <time>2020-08-03T08:12:36.175Z</time>
      </trkpt>
      <trkpt lat="38.839338" lon="-0.786405">
        <ele>509.625028</ele>
        <time>2020-08-03T08:12:40.205Z</time>
      </trkpt>
      <trkpt lat="38.839318" lon="-0.786518">
        <ele>507.215188</ele>
        <time>2020-08-03T08:12:44.219Z</time>
      </trkpt>
      <trkpt lat="38.839295" lon="-0.786636">
        <ele>504.685605</ele>
        <time>2020-08-03T08:12:48.173Z</time>
      </trkpt>
      <trkpt lat="38.839269" lon="-0.786761">
        <ele>501.995028</ele>
        <time>2020-08-03T08:12:52.175Z</time>
      </trkpt>
      <trkpt lat="38.839248" lon="-0.786892">
        <ele>499.213666</ele>
        <time>2020-08-03T08:12:56.177Z</time>
      </trkpt>
      <trkpt lat="38.839225" lon="-0.787028">
        <ele>496.319525</ele>
        <time>2020-08-03T08:13:00.171Z</time>
      </trkpt>
      <trkpt lat="38.839205" lon="-0.787151">
        <ele>493.706485</ele>
        <time>2020-08-03T08:13:04.173Z</time>
      </trkpt>
      <trkpt lat="38.839184" lon="-0.787272">
        <ele>491.128470</ele>
        <time>2020-08-03T08:13:08.176Z</time>
      </trkpt>
      <trkpt lat="38.839163" lon="-0.787395">
        <ele>488.509843</ele>
        <time>2020-08-03T08:13:12.178Z</time>
      </trkpt>
      <trkpt lat="38.839146" lon="-0.787520">
        <ele>491.593523</ele>
        <time>2020-08-03T08:13:16.187Z</time>
      </trkpt>
      <trkpt lat="38.839106" lon="-0.787633">
        <ele>494.782747</ele>
        <time>2020-08-03T08:13:20.175Z</time>
      </trkpt>
      <trkpt lat="38.839044" lon="-0.787746">
        <ele>498.334229</ele>
        <time>2020-08-03T08:13:25.197Z</time>
      </trkpt>
      <trkpt lat="38.838976" lon="-0.787850">
        <ele>501.823133</ele>
        <time>2020-08-03T08:13:30.180Z</time>
      </trkpt>
      <trkpt lat="38.838908" lon="-0.787935">
        <ele>504.953896</ele>
        <time>2020-08-03T08:13:34.187Z</time>
      </trkpt>
      <trkpt lat="38.838832" lon="-0.787997">
        <ele>507.924271</ele>
        <time>2020-08-03T08:13:38.174Z</time>
      </trkpt>
      <trkpt lat="38.838738" lon="-0.788030">
        <ele>511.138939</ele>
        <time>2020-08-03T08:13:43.158Z</time>
      </trkpt>
      <trkpt lat="38.838630" lon="-0.788052">
        <ele>514.746159</ele>
        <time>2020-08-03T08:13:48.160Z</time>
      </trkpt>
      <trkpt lat="38.838526" lon="-0.788020">
        <ele>518.274016</ele>
        <time>2020-08-03T08:13:53.157Z</time>
      </trkpt>
      <trkpt lat="38.838446" lon="-0.787951">
        <ele>521.453259</ele>
        <time>2020-08-03T08:13:57.161Z</time>
      </trkpt>
      <trkpt lat="38.838349" lon="-0.787878">
        <ele>525.162291</ele>
        <time>2020-08-03T08:14:01.167Z</time>
      </trkpt>
      <trkpt lat="38.838262" lon="-0.787822">
        <ele>528.372718</ele>
        <time>2020-08-03T08:14:04.168Z</time>
      </trkpt>
      <trkpt lat="38.838174" lon="-0.787772">
        <ele>531.547206</ele>
        <time>2020-08-03T08:14:07.192Z</time>
      </trkpt>
      <trkpt lat="38.838071" lon="-0.787780">
        <ele>534.951133</ele>
        <time>2020-08-03T08:14:10.170Z</time>
      </trkpt>
      <trkpt lat="38.837980" lon="-0.787861">
        <ele>538.603924</ele>
        <time>2020-08-03T08:14:13.165Z</time>
      </trkpt>
      <trkpt lat="38.837914" lon="-0.787978">
        <ele>542.315776</ele>
        <time>2020-08-03T08:14:17.606Z</time>
      </trkpt>
      <trkpt lat="38.837849" lon="-0.788102">
        <ele>546.156231</ele>
        <time>2020-08-03T08:14:20.605Z</time>
      </trkpt>
      <trkpt lat="38.837781" lon="-0.788225">
        <ele>547.740287</ele>
        <time>2020-08-03T08:14:23.612Z</time>
      </trkpt>
      <trkpt lat="38.837701" lon="-0.788367">
        <ele>547.694024</ele>
        <time>2020-08-03T08:14:26.604Z</time>
      </trkpt>
      <trkpt lat="38.837647" lon="-0.788462">
        <ele>547.662977</ele>
        <time>2020-08-03T08:14:28.629Z</time>
      </trkpt>
      <trkpt lat="38.837588" lon="-0.788624">
        <ele>547.615768</ele>
        <time>2020-08-03T08:14:31.618Z</time>
      </trkpt>
      <trkpt lat="38.837585" lon="-0.788745">
        <ele>547.583810</ele>
        <time>2020-08-03T08:14:33.617Z</time>
      </trkpt>
      <trkpt lat="38.837600" lon="-0.788887">
        <ele>547.545981</ele>
        <time>2020-08-03T08:14:35.654Z</time>
      </trkpt>
      <trkpt lat="38.837637" lon="-0.789032">
        <ele>547.505701</ele>
        <time>2020-08-03T08:14:37.627Z</time>
      </trkpt>
      <trkpt lat="38.837660" lon="-0.789193">
        <ele>547.462491</ele>
        <time>2020-08-03T08:14:39.616Z</time>
      </trkpt>
      <trkpt lat="38.837683" lon="-0.789364">
        <ele>547.416681</ele>
        <time>2020-08-03T08:14:41.614Z</time>
      </trkpt>
      <trkpt lat="38.837707" lon="-0.789537">
        <ele>547.370293</ele>
        <time>2020-08-03T08:14:43.615Z</time>
      </trkpt>
      <trkpt lat="38.837718" lon="-0.789730">
        <ele>547.319208</ele>
        <time>2020-08-03T08:14:45.606Z</time>
      </trkpt>
      <trkpt lat="38.837750" lon="-0.789937">
        <ele>547.263497</ele>
        <time>2020-08-03T08:14:47.690Z</time>
      </trkpt>
      <trkpt lat="38.837780" lon="-0.790137">
        <ele>547.209730</ele>
        <time>2020-08-03T08:14:49.681Z</time>
      </trkpt>
      <trkpt lat="38.837803" lon="-0.790361">
        <ele>547.115422</ele>
        <time>2020-08-03T08:14:51.625Z</time>
      </trkpt>
      <trkpt lat="38.837816" lon="-0.790476">
        <ele>546.814013</ele>
        <time>2020-08-03T08:14:52.624Z</time>
      </trkpt>
      <trkpt lat="38.837833" lon="-0.790590">
        <ele>546.512953</ele>
        <time>2020-08-03T08:14:53.614Z</time>
      </trkpt>
      <trkpt lat="38.837876" lon="-0.790811">
        <ele>545.922117</ele>
        <time>2020-08-03T08:14:55.645Z</time>
      </trkpt>
      <trkpt lat="38.837887" lon="-0.790940">
        <ele>545.585522</ele>
        <time>2020-08-03T08:14:56.637Z</time>
      </trkpt>
      <trkpt lat="38.837903" lon="-0.791066">
        <ele>545.254392</ele>
        <time>2020-08-03T08:14:57.623Z</time>
      </trkpt>
      <trkpt lat="38.837918" lon="-0.791190">
        <ele>544.928910</ele>
        <time>2020-08-03T08:14:58.619Z</time>
      </trkpt>
      <trkpt lat="38.837929" lon="-0.791318">
        <ele>544.594893</ele>
        <time>2020-08-03T08:14:59.613Z</time>
      </trkpt>
      <trkpt lat="38.837928" lon="-0.791439">
        <ele>544.281029</ele>
        <time>2020-08-03T08:15:00.620Z</time>
      </trkpt>
      <trkpt lat="38.837911" lon="-0.791669">
        <ele>543.681783</ele>
        <time>2020-08-03T08:15:02.614Z</time>
      </trkpt>
      <trkpt lat="38.837893" lon="-0.791787">
        <ele>543.369904</ele>
        <time>2020-08-03T08:15:03.610Z</time>
      </trkpt>
      <trkpt lat="38.837861" lon="-0.791913">
        <ele>543.026157</ele>
        <time>2020-08-03T08:15:04.628Z</time>
      </trkpt>
      <trkpt lat="38.837834" lon="-0.792034">
        <ele>542.699686</ele>
        <time>2020-08-03T08:15:05.616Z</time>
      </trkpt>
      <trkpt lat="38.837791" lon="-0.792264">
        <ele>542.086175</ele>
        <time>2020-08-03T08:15:07.620Z</time>
      </trkpt>
      <trkpt lat="38.837767" lon="-0.792391">
        <ele>541.747210</ele>
        <time>2020-08-03T08:15:08.619Z</time>
      </trkpt>
      <trkpt lat="38.837740" lon="-0.792517">
        <ele>541.408253</ele>
        <time>2020-08-03T08:15:09.662Z</time>
      </trkpt>
      <trkpt lat="38.837713" lon="-0.792642">
        <ele>541.208870</ele>
        <time>2020-08-03T08:15:10.619Z</time>
      </trkpt>
      <trkpt lat="38.837682" lon="-0.792774">
        <ele>541.379236</ele>
        <time>2020-08-03T08:15:11.600Z</time>
      </trkpt>
      <trkpt lat="38.837652" lon="-0.792896">
        <ele>541.537326</ele>
        <time>2020-08-03T08:15:12.618Z</time>
      </trkpt>
      <trkpt lat="38.837625" lon="-0.793019">
        <ele>541.695238</ele>
        <time>2020-08-03T08:15:13.609Z</time>
      </trkpt>
      <trkpt lat="38.837598" lon="-0.793143">
        <ele>541.854340</ele>
        <time>2020-08-03T08:15:14.615Z</time>
      </trkpt>
      <trkpt lat="38.837574" lon="-0.793265">
        <ele>542.009830</ele>
        <time>2020-08-03T08:15:15.636Z</time>
      </trkpt>
      <trkpt lat="38.837550" lon="-0.793384">
        <ele>542.161728</ele>
        <time>2020-08-03T08:15:16.622Z</time>
      </trkpt>
      <trkpt lat="38.837524" lon="-0.793504">
        <ele>542.315643</ele>
        <time>2020-08-03T08:15:17.619Z</time>
      </trkpt>
      <trkpt lat="38.837500" lon="-0.793626">
        <ele>542.471133</ele>
        <time>2020-08-03T08:15:18.616Z</time>
      </trkpt>
      <trkpt lat="38.837471" lon="-0.793743">
        <ele>542.622854</ele>
        <time>2020-08-03T08:15:19.638Z</time>
      </trkpt>
      <trkpt lat="38.837449" lon="-0.793864">
        <ele>542.776394</ele>
        <time>2020-08-03T08:15:20.627Z</time>
      </trkpt>
      <trkpt lat="38.837402" lon="-0.794085">
        <ele>543.059481</ele>
        <time>2020-08-03T08:15:22.620Z</time>
      </trkpt>
      <trkpt lat="38.837349" lon="-0.794300">
        <ele>543.338146</ele>
        <time>2020-08-03T08:15:24.620Z</time>
      </trkpt>
      <trkpt lat="38.837278" lon="-0.794506">
        <ele>543.616509</ele>
        <time>2020-08-03T08:15:26.625Z</time>
      </trkpt>
      <trkpt lat="38.837191" lon="-0.794658">
        <ele>543.849594</ele>
        <time>2020-08-03T08:15:28.617Z</time>
      </trkpt>
      <trkpt lat="38.837053" lon="-0.794769">
        <ele>544.252888</ele>
        <time>2020-08-03T08:15:30.615Z</time>
      </trkpt>
      <trkpt lat="38.836917" lon="-0.794847">
        <ele>544.870214</ele>
        <time>2020-08-03T08:15:32.614Z</time>
      </trkpt>
      <trkpt lat="38.836774" lon="-0.794914">
        <ele>545.501098</ele>
        <time>2020-08-03T08:15:34.619Z</time>
      </trkpt>
      <trkpt lat="38.836634" lon="-0.794988">
        <ele>546.128568</ele>
        <time>2020-08-03T08:15:36.610Z</time>
      </trkpt>
      <trkpt lat="38.836506" lon="-0.795057">
        <ele>546.703919</ele>
        <time>2020-08-03T08:15:38.619Z</time>
      </trkpt>
      <trkpt lat="38.836379" lon="-0.795128">
        <ele>547.277998</ele>
        <time>2020-08-03T08:15:40.621Z</time>
      </trkpt>
      <trkpt lat="38.836244" lon="-0.795165">
        <ele>547.850100</ele>
        <time>2020-08-03T08:15:42.619Z</time>
      </trkpt>
      <trkpt lat="38.836124" lon="-0.795227">
        <ele>548.386193</ele>
        <time>2020-08-03T08:15:44.627Z</time>
      </trkpt>
      <trkpt lat="38.836007" lon="-0.795284">
        <ele>548.904829</ele>
        <time>2020-08-03T08:15:46.647Z</time>
      </trkpt>
      <trkpt lat="38.835889" lon="-0.795313">
        <ele>549.402748</ele>
        <time>2020-08-03T08:15:48.615Z</time>
      </trkpt>
      <trkpt lat="38.835783" lon="-0.795353">
        <ele>549.860640</ele>
        <time>2020-08-03T08:15:50.617Z</time>
      </trkpt>
      <trkpt lat="38.835666" lon="-0.795425">
        <ele>550.398366</ele>
        <time>2020-08-03T08:15:53.615Z</time>
      </trkpt>
      <trkpt lat="38.835539" lon="-0.795480">
        <ele>550.953846</ele>
        <time>2020-08-03T08:15:56.616Z</time>
      </trkpt>
      <trkpt lat="38.835420" lon="-0.795523">
        <ele>551.466193</ele>
        <time>2020-08-03T08:15:59.609Z</time>
      </trkpt>
      <trkpt lat="38.835334" lon="-0.795579">
        <ele>551.537773</ele>
        <time>2020-08-03T08:16:02.616Z</time>
      </trkpt>
      <trkpt lat="38.835256" lon="-0.795649">
        <ele>551.603357</ele>
        <time>2020-08-03T08:16:05.610Z</time>
      </trkpt>
      <trkpt lat="38.835177" lon="-0.795723">
        <ele>551.670750</ele>
        <time>2020-08-03T08:16:08.633Z</time>
      </trkpt>
      <trkpt lat="38.835100" lon="-0.795810">
        <ele>551.741437</ele>
        <time>2020-08-03T08:16:11.606Z</time>
      </trkpt>
      <trkpt lat="38.835020" lon="-0.795903">
        <ele>551.815812</ele>
        <time>2020-08-03T08:16:14.634Z</time>
      </trkpt>
      <trkpt lat="38.834938" lon="-0.795992">
        <ele>551.889810</ele>
        <time>2020-08-03T08:16:17.621Z</time>
      </trkpt>
      <trkpt lat="38.834856" lon="-0.796094">
        <ele>551.968494</ele>
        <time>2020-08-03T08:16:20.617Z</time>
      </trkpt>
      <trkpt lat="38.834779" lon="-0.796196">
        <ele>552.044741</ele>
        <time>2020-08-03T08:16:23.599Z</time>
      </trkpt>
      <trkpt lat="38.834696" lon="-0.796289">
        <ele>552.120662</ele>
        <time>2020-08-03T08:16:26.614Z</time>
      </trkpt>
      <trkpt lat="38.834618" lon="-0.796396">
        <ele>552.199328</ele>
        <time>2020-08-03T08:16:29.619Z</time>
      </trkpt>
      <trkpt lat="38.834532" lon="-0.796491">
        <ele>552.277514</ele>
        <time>2020-08-03T08:16:32.616Z</time>
      </trkpt>
      <trkpt lat="38.834441" lon="-0.796590">
        <ele>552.359714</ele>
        <time>2020-08-03T08:16:35.613Z</time>
      </trkpt>
      <trkpt lat="38.834347" lon="-0.796691">
        <ele>552.444187</ele>
        <time>2020-08-03T08:16:38.620Z</time>
      </trkpt>
      <trkpt lat="38.834252" lon="-0.796786">
        <ele>552.527173</ele>
        <time>2020-08-03T08:16:41.617Z</time>
      </trkpt>
      <trkpt lat="38.834161" lon="-0.796905">
        <ele>552.616690</ele>
        <time>2020-08-03T08:16:44.625Z</time>
      </trkpt>
      <trkpt lat="38.834117" lon="-0.797009">
        <ele>552.680221</ele>
        <time>2020-08-03T08:16:46.625Z</time>
      </trkpt>
      <trkpt lat="38.834064" lon="-0.797107">
        <ele>552.629199</ele>
        <time>2020-08-03T08:16:48.620Z</time>
      </trkpt>
      <trkpt lat="38.834013" lon="-0.797210">
        <ele>552.462206</ele>
        <time>2020-08-03T08:16:50.621Z</time>
      </trkpt>
      <trkpt lat="38.833976" lon="-0.797326">
        <ele>552.290697</ele>
        <time>2020-08-03T08:16:52.615Z</time>
      </trkpt>
      <trkpt lat="38.833941" lon="-0.797458">
        <ele>552.099910</ele>
        <time>2020-08-03T08:16:54.618Z</time>
      </trkpt>
      <trkpt lat="38.833916" lon="-0.797594">
        <ele>551.908715</ele>
        <time>2020-08-03T08:16:56.620Z</time>
      </trkpt>
      <trkpt lat="38.833874" lon="-0.797717">
        <ele>551.724959</ele>
        <time>2020-08-03T08:16:58.618Z</time>
      </trkpt>
      <trkpt lat="38.833836" lon="-0.797872">
        <ele>551.502622</ele>
        <time>2020-08-03T08:17:00.625Z</time>
      </trkpt>
      <trkpt lat="38.833798" lon="-0.798033">
        <ele>551.272442</ele>
        <time>2020-08-03T08:17:02.612Z</time>
      </trkpt>
      <trkpt lat="38.833758" lon="-0.798196">
        <ele>551.038609</ele>
        <time>2020-08-03T08:17:04.615Z</time>
      </trkpt>
      <trkpt lat="38.833719" lon="-0.798383">
        <ele>550.773731</ele>
        <time>2020-08-03T08:17:06.635Z</time>
      </trkpt>
      <trkpt lat="38.833674" lon="-0.798567">
        <ele>550.509853</ele>
        <time>2020-08-03T08:17:08.638Z</time>
      </trkpt>
      <trkpt lat="38.833625" lon="-0.798751">
        <ele>550.243786</ele>
        <time>2020-08-03T08:17:10.624Z</time>
      </trkpt>
      <trkpt lat="38.833601" lon="-0.798947">
        <ele>549.972312</ele>
        <time>2020-08-03T08:17:12.621Z</time>
      </trkpt>
      <trkpt lat="38.833561" lon="-0.799132">
        <ele>549.709612</ele>
        <time>2020-08-03T08:17:14.618Z</time>
      </trkpt>
      <trkpt lat="38.833524" lon="-0.799310">
        <ele>549.459260</ele>
        <time>2020-08-03T08:17:16.617Z</time>
      </trkpt>
      <trkpt lat="38.833492" lon="-0.799481">
        <ele>549.222993</ele>
        <time>2020-08-03T08:17:18.620Z</time>
      </trkpt>
      <trkpt lat="38.833460" lon="-0.799655">
        <ele>548.982804</ele>
        <time>2020-08-03T08:17:20.618Z</time>
      </trkpt>
      <trkpt lat="38.833416" lon="-0.799818">
        <ele>548.751045</ele>
        <time>2020-08-03T08:17:22.633Z</time>
      </trkpt>
      <trkpt lat="38.833383" lon="-0.799974">
        <ele>548.533875</ele>
        <time>2020-08-03T08:17:24.619Z</time>
      </trkpt>
      <trkpt lat="38.833346" lon="-0.800139">
        <ele>548.303202</ele>
        <time>2020-08-03T08:17:26.628Z</time>
      </trkpt>
      <trkpt lat="38.833303" lon="-0.800284">
        <ele>548.094761</ele>
        <time>2020-08-03T08:17:28.623Z</time>
      </trkpt>
      <trkpt lat="38.833263" lon="-0.800445">
        <ele>547.867729</ele>
        <time>2020-08-03T08:17:30.740Z</time>
      </trkpt>
      <trkpt lat="38.833245" lon="-0.800584">
        <ele>547.678425</ele>
        <time>2020-08-03T08:17:32.627Z</time>
      </trkpt>
      <trkpt lat="38.833213" lon="-0.800734">
        <ele>547.469485</ele>
        <time>2020-08-03T08:17:34.613Z</time>
      </trkpt>
      <trkpt lat="38.833174" lon="-0.800878">
        <ele>547.264667</ele>
        <time>2020-08-03T08:17:36.615Z</time>
      </trkpt>
      <trkpt lat="38.833144" lon="-0.801016">
        <ele>547.072185</ele>
        <time>2020-08-03T08:17:38.633Z</time>
      </trkpt>
      <trkpt lat="38.833105" lon="-0.801145">
        <ele>546.886283</ele>
        <time>2020-08-03T08:17:40.615Z</time>
      </trkpt>
      <trkpt lat="38.833054" lon="-0.801276">
        <ele>546.689534</ele>
        <time>2020-08-03T08:17:42.628Z</time>
      </trkpt>
      <trkpt lat="38.832992" lon="-0.801382">
        <ele>546.511451</ele>
        <time>2020-08-03T08:17:44.609Z</time>
      </trkpt>
      <trkpt lat="38.832911" lon="-0.801527">
        <ele>543.421822</ele>
        <time>2020-08-03T08:17:47.663Z</time>
      </trkpt>
      <trkpt lat="38.832846" lon="-0.801633">
        <ele>540.350677</ele>
        <time>2020-08-03T08:17:49.631Z</time>
      </trkpt>
      <trkpt lat="38.832784" lon="-0.801733">
        <ele>537.441048</ele>
        <time>2020-08-03T08:17:51.617Z</time>
      </trkpt>
      <trkpt lat="38.832716" lon="-0.801825">
        <ele>534.553822</ele>
        <time>2020-08-03T08:17:53.621Z</time>
      </trkpt>
      <trkpt lat="38.832633" lon="-0.801954">
        <ele>530.744807</ele>
        <time>2020-08-03T08:17:55.641Z</time>
      </trkpt>
      <trkpt lat="38.832546" lon="-0.802096">
        <ele>526.631985</ele>
        <time>2020-08-03T08:17:58.619Z</time>
      </trkpt>
      <trkpt lat="38.832482" lon="-0.802186">
        <ele>523.857731</ele>
        <time>2020-08-03T08:18:00.626Z</time>
      </trkpt>
      <trkpt lat="38.832416" lon="-0.802265">
        <ele>521.220484</ele>
        <time>2020-08-03T08:18:02.617Z</time>
      </trkpt>
      <trkpt lat="38.832319" lon="-0.802360">
        <ele>517.654847</ele>
        <time>2020-08-03T08:18:05.609Z</time>
      </trkpt>
      <trkpt lat="38.832219" lon="-0.802489">
        <ele>513.511683</ele>
        <time>2020-08-03T08:18:08.625Z</time>
      </trkpt>
      <trkpt lat="38.832154" lon="-0.802582">
        <ele>510.667173</ele>
        <time>2020-08-03T08:18:10.641Z</time>
      </trkpt>
      <trkpt lat="38.832045" lon="-0.802666">
        <ele>506.951714</ele>
        <time>2020-08-03T08:18:13.638Z</time>
      </trkpt>
      <trkpt lat="38.831939" lon="-0.802713">
        <ele>503.674276</ele>
        <time>2020-08-03T08:18:16.644Z</time>
      </trkpt>
      <trkpt lat="38.831852" lon="-0.802743">
        <ele>501.041565</ele>
        <time>2020-08-03T08:18:19.623Z</time>
      </trkpt>
      <trkpt lat="38.831757" lon="-0.802752">
        <ele>498.257635</ele>
        <time>2020-08-03T08:18:23.639Z</time>
      </trkpt>
      <trkpt lat="38.831655" lon="-0.802758">
        <ele>495.273553</ele>
        <time>2020-08-03T08:18:28.635Z</time>
      </trkpt>
      <trkpt lat="38.831562" lon="-0.802786">
        <ele>495.192500</ele>
        <time>2020-08-03T08:18:33.621Z</time>
      </trkpt>
      <trkpt lat="38.831466" lon="-0.802823">
        <ele>497.922023</ele>
        <time>2020-08-03T08:18:39.618Z</time>
      </trkpt>
      <trkpt lat="38.831358" lon="-0.802857">
        <ele>500.950189</ele>
        <time>2020-08-03T08:18:44.612Z</time>
      </trkpt>
      <trkpt lat="38.831269" lon="-0.802876">
        <ele>503.407091</ele>
        <time>2020-08-03T08:18:48.626Z</time>
      </trkpt>
      <trkpt lat="38.831176" lon="-0.802910">
        <ele>506.040337</ele>
        <time>2020-08-03T08:18:52.624Z</time>
      </trkpt>
      <trkpt lat="38.831070" lon="-0.802946">
        <ele>509.026204</ele>
        <time>2020-08-03T08:18:57.620Z</time>
      </trkpt>
      <trkpt lat="38.830982" lon="-0.802987">
        <ele>511.575543</ele>
        <time>2020-08-03T08:19:01.617Z</time>
      </trkpt>
      <trkpt lat="38.830891" lon="-0.803027">
        <ele>514.194874</ele>
        <time>2020-08-03T08:19:05.625Z</time>
      </trkpt>
      <trkpt lat="38.830799" lon="-0.803076">
        <ele>516.907264</ele>
        <time>2020-08-03T08:19:09.621Z</time>
      </trkpt>
      <trkpt lat="38.830732" lon="-0.803157">
        <ele>519.413537</ele>
        <time>2020-08-03T08:19:13.617Z</time>
      </trkpt>
      <trkpt lat="38.830670" lon="-0.803242">
        <ele>521.883742</ele>
        <time>2020-08-03T08:19:17.611Z</time>
      </trkpt>
      <trkpt lat="38.830624" lon="-0.803352">
        <ele>524.532196</ele>
        <time>2020-08-03T08:19:21.616Z</time>
      </trkpt>
      <trkpt lat="38.830571" lon="-0.803452">
        <ele>527.097969</ele>
        <time>2020-08-03T08:19:25.619Z</time>
      </trkpt>
      <trkpt lat="38.830512" lon="-0.803551">
        <ele>529.742204</ele>
        <time>2020-08-03T08:19:29.615Z</time>
      </trkpt>
      <trkpt lat="38.830456" lon="-0.803674">
        <ele>532.764426</ele>
        <time>2020-08-03T08:19:33.617Z</time>
      </trkpt>
      <trkpt lat="38.830398" lon="-0.803788">
        <ele>535.652857</ele>
        <time>2020-08-03T08:19:37.620Z</time>
      </trkpt>
      <trkpt lat="38.830340" lon="-0.803889">
        <ele>538.314668</ele>
        <time>2020-08-03T08:19:41.627Z</time>
      </trkpt>
      <trkpt lat="38.830287" lon="-0.804013">
        <ele>541.315089</ele>
        <time>2020-08-03T08:19:45.618Z</time>
      </trkpt>
      <trkpt lat="38.830243" lon="-0.804117">
        <ele>543.396280</ele>
        <time>2020-08-03T08:19:48.618Z</time>
      </trkpt>
      <trkpt lat="38.830196" lon="-0.804224">
        <ele>544.837307</ele>
        <time>2020-08-03T08:19:51.615Z</time>
      </trkpt>
      <trkpt lat="38.830149" lon="-0.804336">
        <ele>546.329706</ele>
        <time>2020-08-03T08:19:54.621Z</time>
      </trkpt>
      <trkpt lat="38.830094" lon="-0.804459">
        <ele>547.993453</ele>
        <time>2020-08-03T08:19:57.618Z</time>
      </trkpt>
      <trkpt lat="38.830032" lon="-0.804584">
        <ele>549.731857</ele>
        <time>2020-08-03T08:20:00.619Z</time>
      </trkpt>
      <trkpt lat="38.829972" lon="-0.804706">
        <ele>551.424412</ele>
        <time>2020-08-03T08:20:03.616Z</time>
      </trkpt>
      <trkpt lat="38.829912" lon="-0.804844">
        <ele>553.278394</ele>
        <time>2020-08-03T08:20:06.623Z</time>
      </trkpt>
      <trkpt lat="38.829843" lon="-0.804977">
        <ele>555.152977</ele>
        <time>2020-08-03T08:20:09.613Z</time>
      </trkpt>
      <trkpt lat="38.829775" lon="-0.805092">
        <ele>556.846688</ele>
        <time>2020-08-03T08:20:12.620Z</time>
      </trkpt>
      <trkpt lat="38.829716" lon="-0.805209">
        <ele>558.481715</ele>
        <time>2020-08-03T08:20:15.628Z</time>
      </trkpt>
      <trkpt lat="38.829659" lon="-0.805343">
        <ele>560.272786</ele>
        <time>2020-08-03T08:20:18.615Z</time>
      </trkpt>
      <trkpt lat="38.829588" lon="-0.805470">
        <ele>562.106603</ele>
        <time>2020-08-03T08:20:21.618Z</time>
      </trkpt>
      <trkpt lat="38.829505" lon="-0.805593">
        <ele>564.015622</ele>
        <time>2020-08-03T08:20:24.615Z</time>
      </trkpt>
      <trkpt lat="38.829414" lon="-0.805699">
        <ele>565.866099</ele>
        <time>2020-08-03T08:20:27.624Z</time>
      </trkpt>
      <trkpt lat="38.829331" lon="-0.805797">
        <ele>567.564332</ele>
        <time>2020-08-03T08:20:30.623Z</time>
      </trkpt>
      <trkpt lat="38.829255" lon="-0.805889">
        <ele>569.137452</ele>
        <time>2020-08-03T08:20:33.618Z</time>
      </trkpt>
      <trkpt lat="38.829179" lon="-0.805959">
        <ele>567.853381</ele>
        <time>2020-08-03T08:20:36.630Z</time>
      </trkpt>
      <trkpt lat="38.829104" lon="-0.806047">
        <ele>562.459636</ele>
        <time>2020-08-03T08:20:40.614Z</time>
      </trkpt>
      <trkpt lat="38.829023" lon="-0.806134">
        <ele>556.853326</ele>
        <time>2020-08-03T08:20:44.621Z</time>
      </trkpt>
      <trkpt lat="38.828937" lon="-0.806215">
        <ele>551.191183</ele>
        <time>2020-08-03T08:20:48.622Z</time>
      </trkpt>
      <trkpt lat="38.828856" lon="-0.806304">
        <ele>545.531439</ele>
        <time>2020-08-03T08:20:52.609Z</time>
      </trkpt>
      <trkpt lat="38.828782" lon="-0.806391">
        <ele>540.204760</ele>
        <time>2020-08-03T08:20:56.623Z</time>
      </trkpt>
      <trkpt lat="38.828695" lon="-0.806472">
        <ele>534.499726</ele>
        <time>2020-08-03T08:21:00.670Z</time>
      </trkpt>
      <trkpt lat="38.828601" lon="-0.806533">
        <ele>528.908570</ele>
        <time>2020-08-03T08:21:04.610Z</time>
      </trkpt>
      <trkpt lat="38.828504" lon="-0.806553">
        <ele>523.693540</ele>
        <time>2020-08-03T08:21:08.621Z</time>
      </trkpt>
      <trkpt lat="38.828416" lon="-0.806511">
        <ele>518.709822</ele>
        <time>2020-08-03T08:21:13.611Z</time>
      </trkpt>
      <trkpt lat="38.828332" lon="-0.806442">
        <ele>513.416062</ele>
        <time>2020-08-03T08:21:18.629Z</time>
      </trkpt>
      <trkpt lat="38.828236" lon="-0.806371">
        <ele>507.534808</ele>
        <time>2020-08-03T08:21:23.624Z</time>
      </trkpt>
      <trkpt lat="38.828129" lon="-0.806338">
        <ele>501.693314</ele>
        <time>2020-08-03T08:21:28.608Z</time>
      </trkpt>
      <trkpt lat="38.828021" lon="-0.806316">
        <ele>495.888637</ele>
        <time>2020-08-03T08:21:33.622Z</time>
      </trkpt>
      <trkpt lat="38.827912" lon="-0.806336">
        <ele>490.043801</ele>
        <time>2020-08-03T08:21:38.619Z</time>
      </trkpt>
      <trkpt lat="38.827821" lon="-0.806392">
        <ele>484.686853</ele>
        <time>2020-08-03T08:21:43.622Z</time>
      </trkpt>
      <trkpt lat="38.827719" lon="-0.806427">
        <ele>479.082295</ele>
        <time>2020-08-03T08:21:48.604Z</time>
      </trkpt>
      <trkpt lat="38.827610" lon="-0.806443">
        <ele>475.001669</ele>
        <time>2020-08-03T08:21:53.626Z</time>
      </trkpt>
      <trkpt lat="38.827519" lon="-0.806455">
        <ele>477.109746</ele>
        <time>2020-08-03T08:21:57.621Z</time>
      </trkpt>
      <trkpt lat="38.827429" lon="-0.806471">
        <ele>479.203537</ele>
        <time>2020-08-03T08:22:01.619Z</time>
      </trkpt>
      <trkpt lat="38.827322" lon="-0.806499">
        <ele>481.720003</ele>
        <time>2020-08-03T08:22:06.623Z</time>
      </trkpt>
      <trkpt lat="38.827215" lon="-0.806536">
        <ele>484.273656</ele>
        <time>2020-08-03T08:22:11.623Z</time>
      </trkpt>
      <trkpt lat="38.827110" lon="-0.806556">
        <ele>486.719811</ele>
        <time>2020-08-03T08:22:16.619Z</time>
      </trkpt>
      <trkpt lat="38.827007" lon="-0.806586">
        <ele>489.153720</ele>
        <time>2020-08-03T08:22:21.619Z</time>
      </trkpt>
      <trkpt lat="38.826918" lon="-0.806611">
        <ele>491.253204</ele>
        <time>2020-08-03T08:22:25.619Z</time>
      </trkpt>
      <trkpt lat="38.826829" lon="-0.806638">
        <ele>493.360656</ele>
        <time>2020-08-03T08:22:29.618Z</time>
      </trkpt>
      <trkpt lat="38.826735" lon="-0.806693">
        <ele>495.741255</ele>
        <time>2020-08-03T08:22:33.606Z</time>
      </trkpt>
      <trkpt lat="38.826647" lon="-0.806750">
        <ele>498.012720</ele>
        <time>2020-08-03T08:22:37.621Z</time>
      </trkpt>
      <trkpt lat="38.826550" lon="-0.806827">
        <ele>500.640932</ele>
        <time>2020-08-03T08:22:42.618Z</time>
      </trkpt>
      <trkpt lat="38.826469" lon="-0.806890">
        <ele>502.823450</ele>
        <time>2020-08-03T08:22:46.620Z</time>
      </trkpt>
      <trkpt lat="38.826394" lon="-0.806959">
        <ele>504.949853</ele>
        <time>2020-08-03T08:22:50.627Z</time>
      </trkpt>
      <trkpt lat="38.826307" lon="-0.807035">
        <ele>507.374947</ele>
        <time>2020-08-03T08:22:54.626Z</time>
      </trkpt>
      <trkpt lat="38.826216" lon="-0.807110">
        <ele>509.867039</ele>
        <time>2020-08-03T08:22:58.625Z</time>
      </trkpt>
      <trkpt lat="38.826142" lon="-0.807191">
        <ele>512.108159</ele>
        <time>2020-08-03T08:23:02.620Z</time>
      </trkpt>
      <trkpt lat="38.826068" lon="-0.807260">
        <ele>514.215878</ele>
        <time>2020-08-03T08:23:06.619Z</time>
      </trkpt>
      <trkpt lat="38.825989" lon="-0.807358">
        <ele>517.285152</ele>
        <time>2020-08-03T08:23:11.623Z</time>
      </trkpt>
      <trkpt lat="38.825906" lon="-0.807449">
        <ele>521.439653</ele>
        <time>2020-08-03T08:23:16.641Z</time>
      </trkpt>
      <trkpt lat="38.825827" lon="-0.807540">
        <ele>525.479605</ele>
        <time>2020-08-03T08:23:20.621Z</time>
      </trkpt>
      <trkpt lat="38.825737" lon="-0.807629">
        <ele>529.803683</ele>
        <time>2020-08-03T08:23:24.616Z</time>
      </trkpt>
      <trkpt lat="38.825669" lon="-0.807704">
        <ele>533.215975</ele>
        <time>2020-08-03T08:23:27.635Z</time>
      </trkpt>
      <trkpt lat="38.825592" lon="-0.807786">
        <ele>537.023914</ele>
        <time>2020-08-03T08:23:30.619Z</time>
      </trkpt>
      <trkpt lat="38.825510" lon="-0.807887">
        <ele>541.349304</ele>
        <time>2020-08-03T08:23:33.617Z</time>
      </trkpt>
      <trkpt lat="38.825435" lon="-0.808005">
        <ele>545.864863</ele>
        <time>2020-08-03T08:23:36.614Z</time>
      </trkpt>
      <trkpt lat="38.825377" lon="-0.808138">
        <ele>550.384290</ele>
        <time>2020-08-03T08:23:39.619Z</time>
      </trkpt>
      <trkpt lat="38.825334" lon="-0.808275">
        <ele>554.763807</ele>
        <time>2020-08-03T08:23:42.615Z</time>
      </trkpt>
      <trkpt lat="38.825269" lon="-0.808366">
        <ele>558.424540</ele>
        <time>2020-08-03T08:23:44.618Z</time>
      </trkpt>
      <trkpt lat="38.825215" lon="-0.808466">
        <ele>562.032327</ele>
        <time>2020-08-03T08:23:46.621Z</time>
      </trkpt>
      <trkpt lat="38.825149" lon="-0.808573">
        <ele>566.079064</ele>
        <time>2020-08-03T08:23:48.613Z</time>
      </trkpt>
      <trkpt lat="38.825086" lon="-0.808683">
        <ele>570.127256</ele>
        <time>2020-08-03T08:23:50.614Z</time>
      </trkpt>
      <trkpt lat="38.825022" lon="-0.808785">
        <ele>574.010645</ele>
        <time>2020-08-03T08:23:52.625Z</time>
      </trkpt>
      <trkpt lat="38.824956" lon="-0.808888">
        <ele>577.965085</ele>
        <time>2020-08-03T08:23:54.624Z</time>
      </trkpt>
      <trkpt lat="38.824873" lon="-0.808992">
        <ele>582.379708</ele>
        <time>2020-08-03T08:23:56.620Z</time>
      </trkpt>
      <trkpt lat="38.824799" lon="-0.809088">
        <ele>584.371889</ele>
        <time>2020-08-03T08:23:58.617Z</time>
      </trkpt>
      <trkpt lat="38.824724" lon="-0.809241">
        <ele>584.351125</ele>
        <time>2020-08-03T08:24:01.623Z</time>
      </trkpt>
      <trkpt lat="38.824645" lon="-0.809385">
        <ele>584.330896</ele>
        <time>2020-08-03T08:24:04.620Z</time>
      </trkpt>
      <trkpt lat="38.824574" lon="-0.809491">
        <ele>584.314839</ele>
        <time>2020-08-03T08:24:06.614Z</time>
      </trkpt>
      <trkpt lat="38.824511" lon="-0.809596">
        <ele>584.299616</ele>
        <time>2020-08-03T08:24:08.612Z</time>
      </trkpt>
      <trkpt lat="38.824447" lon="-0.809702">
        <ele>584.284212</ele>
        <time>2020-08-03T08:24:10.621Z</time>
      </trkpt>
      <trkpt lat="38.824378" lon="-0.809809">
        <ele>584.268258</ele>
        <time>2020-08-03T08:24:12.621Z</time>
      </trkpt>
      <trkpt lat="38.824319" lon="-0.809901">
        <ele>584.254571</ele>
        <time>2020-08-03T08:24:14.626Z</time>
      </trkpt>
      <trkpt lat="38.824267" lon="-0.810022">
        <ele>584.238698</ele>
        <time>2020-08-03T08:24:16.617Z</time>
      </trkpt>
      <trkpt lat="38.824200" lon="-0.810138">
        <ele>584.222111</ele>
        <time>2020-08-03T08:24:18.620Z</time>
      </trkpt>
      <trkpt lat="38.824126" lon="-0.810252">
        <ele>584.205067</ele>
        <time>2020-08-03T08:24:20.617Z</time>
      </trkpt>
      <trkpt lat="38.824058" lon="-0.810365">
        <ele>584.188666</ele>
        <time>2020-08-03T08:24:22.611Z</time>
      </trkpt>
      <trkpt lat="38.823982" lon="-0.810491">
        <ele>584.170363</ele>
        <time>2020-08-03T08:24:24.621Z</time>
      </trkpt>
      <trkpt lat="38.823913" lon="-0.810617">
        <ele>584.152672</ele>
        <time>2020-08-03T08:24:26.613Z</time>
      </trkpt>
      <trkpt lat="38.823841" lon="-0.810738">
        <ele>584.135184</ele>
        <time>2020-08-03T08:24:28.618Z</time>
      </trkpt>
      <trkpt lat="38.823746" lon="-0.810863">
        <ele>584.115125</ele>
        <time>2020-08-03T08:24:30.606Z</time>
      </trkpt>
      <trkpt lat="38.823679" lon="-0.810979">
        <ele>584.305166</ele>
        <time>2020-08-03T08:24:32.626Z</time>
      </trkpt>
      <trkpt lat="38.823605" lon="-0.811116">
        <ele>584.534397</ele>
        <time>2020-08-03T08:24:34.614Z</time>
      </trkpt>
      <trkpt lat="38.823537" lon="-0.811229">
        <ele>584.730734</ele>
        <time>2020-08-03T08:24:36.616Z</time>
      </trkpt>
      <trkpt lat="38.823471" lon="-0.811353">
        <ele>584.937235</ele>
        <time>2020-08-03T08:24:38.621Z</time>
      </trkpt>
      <trkpt lat="38.823399" lon="-0.811466">
        <ele>585.137965</ele>
        <time>2020-08-03T08:24:40.623Z</time>
      </trkpt>
      <trkpt lat="38.823331" lon="-0.811562">
        <ele>585.316376</ele>
        <time>2020-08-03T08:24:42.616Z</time>
      </trkpt>
      <trkpt lat="38.823289" lon="-0.811668">
        <ele>585.479900</ele>
        <time>2020-08-03T08:24:44.615Z</time>
      </trkpt>
      <trkpt lat="38.823235" lon="-0.811765">
        <ele>585.643835</ele>
        <time>2020-08-03T08:24:46.617Z</time>
      </trkpt>
      <trkpt lat="38.823165" lon="-0.811899">
        <ele>585.865681</ele>
        <time>2020-08-03T08:24:49.613Z</time>
      </trkpt>
      <trkpt lat="38.823089" lon="-0.812011">
        <ele>586.069916</ele>
        <time>2020-08-03T08:24:52.619Z</time>
      </trkpt>
      <trkpt lat="38.823017" lon="-0.812132">
        <ele>586.279278</ele>
        <time>2020-08-03T08:24:55.611Z</time>
      </trkpt>
      <trkpt lat="38.822945" lon="-0.812237">
        <ele>586.471620</ele>
        <time>2020-08-03T08:24:58.614Z</time>
      </trkpt>
      <trkpt lat="38.822874" lon="-0.812337">
        <ele>586.657663</ele>
        <time>2020-08-03T08:25:01.614Z</time>
      </trkpt>
      <trkpt lat="38.822805" lon="-0.812438">
        <ele>586.842378</ele>
        <time>2020-08-03T08:25:04.622Z</time>
      </trkpt>
      <trkpt lat="38.822741" lon="-0.812538">
        <ele>587.020333</ele>
        <time>2020-08-03T08:25:07.615Z</time>
      </trkpt>
      <trkpt lat="38.822684" lon="-0.812644">
        <ele>587.197440</ele>
        <time>2020-08-03T08:25:10.612Z</time>
      </trkpt>
      <trkpt lat="38.822621" lon="-0.812756">
        <ele>587.316423</ele>
        <time>2020-08-03T08:25:13.631Z</time>
      </trkpt>
      <trkpt lat="38.822548" lon="-0.812872">
        <ele>587.373504</ele>
        <time>2020-08-03T08:25:16.622Z</time>
      </trkpt>
      <trkpt lat="38.822480" lon="-0.813006">
        <ele>587.434721</ele>
        <time>2020-08-03T08:25:19.620Z</time>
      </trkpt>
      <trkpt lat="38.822416" lon="-0.813115">
        <ele>587.486969</ele>
        <time>2020-08-03T08:25:21.619Z</time>
      </trkpt>
      <trkpt lat="38.822357" lon="-0.813219">
        <ele>587.536216</ele>
        <time>2020-08-03T08:25:23.615Z</time>
      </trkpt>
      <trkpt lat="38.822279" lon="-0.813341">
        <ele>587.596630</ele>
        <time>2020-08-03T08:25:25.629Z</time>
      </trkpt>
      <trkpt lat="38.822220" lon="-0.813471">
        <ele>587.654222</ele>
        <time>2020-08-03T08:25:27.620Z</time>
      </trkpt>
      <trkpt lat="38.822130" lon="-0.813611">
        <ele>587.723703</ele>
        <time>2020-08-03T08:25:29.614Z</time>
      </trkpt>
      <trkpt lat="38.822045" lon="-0.813755">
        <ele>587.792861</ele>
        <time>2020-08-03T08:25:31.616Z</time>
      </trkpt>
      <trkpt lat="38.821952" lon="-0.813904">
        <ele>587.865945</ele>
        <time>2020-08-03T08:25:33.633Z</time>
      </trkpt>
      <trkpt lat="38.821861" lon="-0.814043">
        <ele>587.935446</ele>
        <time>2020-08-03T08:25:35.613Z</time>
      </trkpt>
      <trkpt lat="38.821773" lon="-0.814190">
        <ele>588.006411</ele>
        <time>2020-08-03T08:25:37.614Z</time>
      </trkpt>
      <trkpt lat="38.821676" lon="-0.814346">
        <ele>588.082816</ele>
        <time>2020-08-03T08:25:39.641Z</time>
      </trkpt>
      <trkpt lat="38.821586" lon="-0.814499">
        <ele>588.156204</ele>
        <time>2020-08-03T08:25:41.620Z</time>
      </trkpt>
      <trkpt lat="38.821500" lon="-0.814639">
        <ele>585.494987</ele>
        <time>2020-08-03T08:25:43.616Z</time>
      </trkpt>
      <trkpt lat="38.821407" lon="-0.814765">
        <ele>582.051033</ele>
        <time>2020-08-03T08:25:45.625Z</time>
      </trkpt>
      <trkpt lat="38.821322" lon="-0.814897">
        <ele>578.652995</ele>
        <time>2020-08-03T08:25:47.625Z</time>
      </trkpt>
      <trkpt lat="38.821244" lon="-0.815020">
        <ele>575.506095</ele>
        <time>2020-08-03T08:25:49.630Z</time>
      </trkpt>
      <trkpt lat="38.821160" lon="-0.815106">
        <ele>572.769531</ele>
        <time>2020-08-03T08:25:51.617Z</time>
      </trkpt>
      <trkpt lat="38.821081" lon="-0.815195">
        <ele>570.092433</ele>
        <time>2020-08-03T08:25:53.618Z</time>
      </trkpt>
      <trkpt lat="38.821005" lon="-0.815264">
        <ele>567.721554</ele>
        <time>2020-08-03T08:25:55.620Z</time>
      </trkpt>
      <trkpt lat="38.820916" lon="-0.815329">
        <ele>565.113613</ele>
        <time>2020-08-03T08:25:57.654Z</time>
      </trkpt>
      <trkpt lat="38.820840" lon="-0.815400">
        <ele>562.719596</ele>
        <time>2020-08-03T08:25:59.655Z</time>
      </trkpt>
      <trkpt lat="38.820734" lon="-0.815486">
        <ele>559.525833</ele>
        <time>2020-08-03T08:26:02.626Z</time>
      </trkpt>
      <trkpt lat="38.820617" lon="-0.815562">
        <ele>556.186165</ele>
        <time>2020-08-03T08:26:05.619Z</time>
      </trkpt>
      <trkpt lat="38.820518" lon="-0.815648">
        <ele>553.141606</ele>
        <time>2020-08-03T08:26:08.637Z</time>
      </trkpt>
      <trkpt lat="38.820415" lon="-0.815730">
        <ele>550.054721</ele>
        <time>2020-08-03T08:26:11.605Z</time>
      </trkpt>
      <trkpt lat="38.820319" lon="-0.815816">
        <ele>547.073126</ele>
        <time>2020-08-03T08:26:14.623Z</time>
      </trkpt>
      <trkpt lat="38.820212" lon="-0.815886">
        <ele>544.014442</ele>
        <time>2020-08-03T08:26:17.629Z</time>
      </trkpt>
      <trkpt lat="38.820086" lon="-0.815974">
        <ele>544.601195</ele>
        <time>2020-08-03T08:26:20.613Z</time>
      </trkpt>
      <trkpt lat="38.819985" lon="-0.816041">
        <ele>547.834492</ele>
        <time>2020-08-03T08:26:22.625Z</time>
      </trkpt>
      <trkpt lat="38.819882" lon="-0.816122">
        <ele>551.269816</ele>
        <time>2020-08-03T08:26:24.644Z</time>
      </trkpt>
      <trkpt lat="38.819774" lon="-0.816194">
        <ele>554.730838</ele>
        <time>2020-08-03T08:26:26.625Z</time>
      </trkpt>
      <trkpt lat="38.819653" lon="-0.816293">
        <ele>558.811665</ele>
        <time>2020-08-03T08:26:28.626Z</time>
      </trkpt>
      <trkpt lat="38.819526" lon="-0.816394">
        <ele>563.060549</ele>
        <time>2020-08-03T08:26:30.622Z</time>
      </trkpt>
      <trkpt lat="38.819391" lon="-0.816498">
        <ele>567.538289</ele>
        <time>2020-08-03T08:26:32.624Z</time>
      </trkpt>
      <trkpt lat="38.819250" lon="-0.816608">
        <ele>572.230827</ele>
        <time>2020-08-03T08:26:34.626Z</time>
      </trkpt>
      <trkpt lat="38.819098" lon="-0.816721">
        <ele>577.226333</ele>
        <time>2020-08-03T08:26:36.652Z</time>
      </trkpt>
      <trkpt lat="38.818937" lon="-0.816835">
        <ele>582.455567</ele>
        <time>2020-08-03T08:26:38.637Z</time>
      </trkpt>
      <trkpt lat="38.818858" lon="-0.816899">
        <ele>585.112364</ele>
        <time>2020-08-03T08:26:39.635Z</time>
      </trkpt>
      <trkpt lat="38.818772" lon="-0.816955">
        <ele>587.854879</ele>
        <time>2020-08-03T08:26:40.637Z</time>
      </trkpt>
      <trkpt lat="38.818599" lon="-0.817060">
        <ele>593.297197</ele>
        <time>2020-08-03T08:26:42.082Z</time>
      </trkpt>
      <trkpt lat="38.818426" lon="-0.817155">
        <ele>594.241242</ele>
        <time>2020-08-03T08:26:44.066Z</time>
      </trkpt>
      <trkpt lat="38.818293" lon="-0.817273">
        <ele>594.890998</ele>
        <time>2020-08-03T08:26:46.072Z</time>
      </trkpt>
      <trkpt lat="38.818146" lon="-0.817388">
        <ele>595.582834</ele>
        <time>2020-08-03T08:26:48.061Z</time>
      </trkpt>
      <trkpt lat="38.818062" lon="-0.817440">
        <ele>595.957618</ele>
        <time>2020-08-03T08:26:49.069Z</time>
      </trkpt>
      <trkpt lat="38.817914" lon="-0.817539">
        <ele>596.628314</ele>
        <time>2020-08-03T08:26:51.116Z</time>
      </trkpt>
      <trkpt lat="38.817776" lon="-0.817654">
        <ele>597.289536</ele>
        <time>2020-08-03T08:26:53.065Z</time>
      </trkpt>
      <trkpt lat="38.817653" lon="-0.817756">
        <ele>597.878036</ele>
        <time>2020-08-03T08:26:55.074Z</time>
      </trkpt>
      <trkpt lat="38.817532" lon="-0.817864">
        <ele>598.470322</ele>
        <time>2020-08-03T08:26:57.073Z</time>
      </trkpt>
      <trkpt lat="38.817419" lon="-0.817989">
        <ele>599.069827</ele>
        <time>2020-08-03T08:26:59.069Z</time>
      </trkpt>
      <trkpt lat="38.817293" lon="-0.818069">
        <ele>599.634752</ele>
        <time>2020-08-03T08:27:01.073Z</time>
      </trkpt>
      <trkpt lat="38.817162" lon="-0.818166">
        <ele>600.242530</ele>
        <time>2020-08-03T08:27:03.056Z</time>
      </trkpt>
      <trkpt lat="38.817042" lon="-0.818256">
        <ele>600.683283</ele>
        <time>2020-08-03T08:27:05.060Z</time>
      </trkpt>
      <trkpt lat="38.816918" lon="-0.818350">
        <ele>600.064641</ele>
        <time>2020-08-03T08:27:07.063Z</time>
      </trkpt>
      <trkpt lat="38.816811" lon="-0.818449">
        <ele>599.498016</ele>
        <time>2020-08-03T08:27:09.069Z</time>
      </trkpt>
      <trkpt lat="38.816696" lon="-0.818528">
        <ele>598.937698</ele>
        <time>2020-08-03T08:27:11.076Z</time>
      </trkpt>
      <trkpt lat="38.816593" lon="-0.818621">
        <ele>598.396718</ele>
        <time>2020-08-03T08:27:13.061Z</time>
      </trkpt>
      <trkpt lat="38.816491" lon="-0.818697">
        <ele>597.890071</ele>
        <time>2020-08-03T08:27:15.070Z</time>
      </trkpt>
      <trkpt lat="38.816382" lon="-0.818773">
        <ele>597.357205</ele>
        <time>2020-08-03T08:27:17.066Z</time>
      </trkpt>
      <trkpt lat="38.816281" lon="-0.818843">
        <ele>596.864120</ele>
        <time>2020-08-03T08:27:19.066Z</time>
      </trkpt>
      <trkpt lat="38.816186" lon="-0.818921">
        <ele>596.379667</ele>
        <time>2020-08-03T08:27:21.062Z</time>
      </trkpt>
      <trkpt lat="38.816091" lon="-0.818993">
        <ele>595.905733</ele>
        <time>2020-08-03T08:27:23.066Z</time>
      </trkpt>
      <trkpt lat="38.815994" lon="-0.819056">
        <ele>595.438734</ele>
        <time>2020-08-03T08:27:25.070Z</time>
      </trkpt>
      <trkpt lat="38.815925" lon="-0.819133">
        <ele>595.045954</ele>
        <time>2020-08-03T08:27:27.062Z</time>
      </trkpt>
      <trkpt lat="38.815848" lon="-0.819213">
        <ele>594.620389</ele>
        <time>2020-08-03T08:27:29.067Z</time>
      </trkpt>
      <trkpt lat="38.815762" lon="-0.819289">
        <ele>594.171851</ele>
        <time>2020-08-03T08:27:31.074Z</time>
      </trkpt>
      <trkpt lat="38.815658" lon="-0.819400">
        <ele>593.590802</ele>
        <time>2020-08-03T08:27:34.064Z</time>
      </trkpt>
      <trkpt lat="38.815582" lon="-0.819471">
        <ele>593.186997</ele>
        <time>2020-08-03T08:27:36.068Z</time>
      </trkpt>
      <trkpt lat="38.815504" lon="-0.819559">
        <ele>593.038795</ele>
        <time>2020-08-03T08:27:38.071Z</time>
      </trkpt>
      <trkpt lat="38.815423" lon="-0.819636">
        <ele>593.071772</ele>
        <time>2020-08-03T08:27:40.073Z</time>
      </trkpt>
      <trkpt lat="38.815317" lon="-0.819737">
        <ele>593.114962</ele>
        <time>2020-08-03T08:27:43.062Z</time>
      </trkpt>
      <trkpt lat="38.815237" lon="-0.819848">
        <ele>593.153505</ele>
        <time>2020-08-03T08:27:45.073Z</time>
      </trkpt>
      <trkpt lat="38.815166" lon="-0.819957">
        <ele>593.189720</ele>
        <time>2020-08-03T08:27:47.074Z</time>
      </trkpt>
      <trkpt lat="38.815087" lon="-0.820051">
        <ele>593.224964</ele>
        <time>2020-08-03T08:27:49.070Z</time>
      </trkpt>
      <trkpt lat="38.815028" lon="-0.820153">
        <ele>593.257346</ele>
        <time>2020-08-03T08:27:51.084Z</time>
      </trkpt>
      <trkpt lat="38.814938" lon="-0.820245">
        <ele>593.294988</ele>
        <time>2020-08-03T08:27:53.068Z</time>
      </trkpt>
      <trkpt lat="38.814854" lon="-0.820361">
        <ele>593.335355</ele>
        <time>2020-08-03T08:27:55.067Z</time>
      </trkpt>
      <trkpt lat="38.814770" lon="-0.820466">
        <ele>593.373717</ele>
        <time>2020-08-03T08:27:57.074Z</time>
      </trkpt>
      <trkpt lat="38.814681" lon="-0.820577">
        <ele>593.414317</ele>
        <time>2020-08-03T08:27:59.058Z</time>
      </trkpt>
      <trkpt lat="38.814587" lon="-0.820694">
        <ele>593.457156</ele>
        <time>2020-08-03T08:28:01.068Z</time>
      </trkpt>
      <trkpt lat="38.814489" lon="-0.820811">
        <ele>593.500944</ele>
        <time>2020-08-03T08:28:03.071Z</time>
      </trkpt>
      <trkpt lat="38.814386" lon="-0.820930">
        <ele>593.546283</ele>
        <time>2020-08-03T08:28:05.064Z</time>
      </trkpt>
      <trkpt lat="38.814292" lon="-0.821049">
        <ele>593.589479</ele>
        <time>2020-08-03T08:28:07.073Z</time>
      </trkpt>
      <trkpt lat="38.814203" lon="-0.821156">
        <ele>593.703191</ele>
        <time>2020-08-03T08:28:09.077Z</time>
      </trkpt>
      <trkpt lat="38.814122" lon="-0.821251">
        <ele>593.853138</ele>
        <time>2020-08-03T08:28:11.072Z</time>
      </trkpt>
      <trkpt lat="38.814040" lon="-0.821337">
        <ele>593.997851</ele>
        <time>2020-08-03T08:28:13.068Z</time>
      </trkpt>
      <trkpt lat="38.813959" lon="-0.821445">
        <ele>594.157463</ele>
        <time>2020-08-03T08:28:15.066Z</time>
      </trkpt>
      <trkpt lat="38.813878" lon="-0.821546">
        <ele>594.311792</ele>
        <time>2020-08-03T08:28:17.068Z</time>
      </trkpt>
      <trkpt lat="38.813800" lon="-0.821636">
        <ele>594.455127</ele>
        <time>2020-08-03T08:28:19.064Z</time>
      </trkpt>
      <trkpt lat="38.813716" lon="-0.821731">
        <ele>594.608126</ele>
        <time>2020-08-03T08:28:21.069Z</time>
      </trkpt>
      <trkpt lat="38.813635" lon="-0.821816">
        <ele>594.751107</ele>
        <time>2020-08-03T08:28:23.073Z</time>
      </trkpt>
      <trkpt lat="38.813555" lon="-0.821906">
        <ele>594.896485</ele>
        <time>2020-08-03T08:28:25.064Z</time>
      </trkpt>
      <trkpt lat="38.813476" lon="-0.822003">
        <ele>595.045891</ele>
        <time>2020-08-03T08:28:27.071Z</time>
      </trkpt>
      <trkpt lat="38.813400" lon="-0.822092">
        <ele>595.186485</ele>
        <time>2020-08-03T08:28:29.075Z</time>
      </trkpt>
      <trkpt lat="38.813323" lon="-0.822177">
        <ele>595.325278</ele>
        <time>2020-08-03T08:28:31.066Z</time>
      </trkpt>
      <trkpt lat="38.813261" lon="-0.822267">
        <ele>595.453192</ele>
        <time>2020-08-03T08:28:33.060Z</time>
      </trkpt>
      <trkpt lat="38.813191" lon="-0.822361">
        <ele>595.591642</ele>
        <time>2020-08-03T08:28:35.058Z</time>
      </trkpt>
      <trkpt lat="38.813121" lon="-0.822456">
        <ele>595.730863</ele>
        <time>2020-08-03T08:28:37.068Z</time>
      </trkpt>
      <trkpt lat="38.813023" lon="-0.822567">
        <ele>595.909480</ele>
        <time>2020-08-03T08:28:40.066Z</time>
      </trkpt>
      <trkpt lat="38.812935" lon="-0.822689">
        <ele>596.049813</ele>
        <time>2020-08-03T08:28:43.083Z</time>
      </trkpt>
      <trkpt lat="38.812863" lon="-0.822791">
        <ele>595.956957</ele>
        <time>2020-08-03T08:28:46.062Z</time>
      </trkpt>
      <trkpt lat="38.812791" lon="-0.822897">
        <ele>595.862085</ele>
        <time>2020-08-03T08:28:49.070Z</time>
      </trkpt>
      <trkpt lat="38.812722" lon="-0.823014">
        <ele>595.763088</ele>
        <time>2020-08-03T08:28:52.061Z</time>
      </trkpt>
      <trkpt lat="38.812659" lon="-0.823123">
        <ele>595.671526</ele>
        <time>2020-08-03T08:28:55.073Z</time>
      </trkpt>
      <trkpt lat="38.812641" lon="-0.823239">
        <ele>595.591727</ele>
        <time>2020-08-03T08:28:58.057Z</time>
      </trkpt>
      <trkpt lat="38.812755" lon="-0.823349">
        <ele>595.468233</ele>
        <time>2020-08-03T08:32:04.062Z</time>
      </trkpt>
      <trkpt lat="38.812856" lon="-0.823406">
        <ele>595.372700</ele>
        <time>2020-08-03T08:32:07.073Z</time>
      </trkpt>
      <trkpt lat="38.812967" lon="-0.823471">
        <ele>595.267058</ele>
        <time>2020-08-03T08:32:10.061Z</time>
      </trkpt>
      <trkpt lat="38.813084" lon="-0.823548">
        <ele>595.153210</ele>
        <time>2020-08-03T08:32:13.072Z</time>
      </trkpt>
      <trkpt lat="38.813168" lon="-0.823591">
        <ele>595.074906</ele>
        <time>2020-08-03T08:32:15.050Z</time>
      </trkpt>
      <trkpt lat="38.813251" lon="-0.823644">
        <ele>594.994636</ele>
        <time>2020-08-03T08:32:17.059Z</time>
      </trkpt>
      <trkpt lat="38.813339" lon="-0.823705">
        <ele>594.908037</ele>
        <time>2020-08-03T08:32:19.064Z</time>
      </trkpt>
      <trkpt lat="38.813426" lon="-0.823762">
        <ele>594.823460</ele>
        <time>2020-08-03T08:32:21.069Z</time>
      </trkpt>
      <trkpt lat="38.813508" lon="-0.823835">
        <ele>594.737050</ele>
        <time>2020-08-03T08:32:23.068Z</time>
      </trkpt>
      <trkpt lat="38.813588" lon="-0.823898">
        <ele>594.655781</ele>
        <time>2020-08-03T08:32:25.066Z</time>
      </trkpt>
      <trkpt lat="38.813697" lon="-0.824003">
        <ele>594.537775</ele>
        <time>2020-08-03T08:32:28.066Z</time>
      </trkpt>
      <trkpt lat="38.813794" lon="-0.824080">
        <ele>594.546060</ele>
        <time>2020-08-03T08:32:30.076Z</time>
      </trkpt>
      <trkpt lat="38.813910" lon="-0.824122">
        <ele>594.606795</ele>
        <time>2020-08-03T08:32:32.067Z</time>
      </trkpt>
      <trkpt lat="38.814009" lon="-0.824195">
        <ele>594.664328</ele>
        <time>2020-08-03T08:32:34.063Z</time>
      </trkpt>
      <trkpt lat="38.814132" lon="-0.824282">
        <ele>594.735098</ele>
        <time>2020-08-03T08:32:36.082Z</time>
      </trkpt>
      <trkpt lat="38.814285" lon="-0.824382">
        <ele>594.821617</ele>
        <time>2020-08-03T08:32:38.068Z</time>
      </trkpt>
      <trkpt lat="38.814438" lon="-0.824500">
        <ele>594.911563</ele>
        <time>2020-08-03T08:32:40.067Z</time>
      </trkpt>
      <trkpt lat="38.814524" lon="-0.824551">
        <ele>594.959301</ele>
        <time>2020-08-03T08:32:41.070Z</time>
      </trkpt>
      <trkpt lat="38.814681" lon="-0.824636">
        <ele>595.045165</ele>
        <time>2020-08-03T08:32:43.075Z</time>
      </trkpt>
      <trkpt lat="38.814833" lon="-0.824735">
        <ele>595.131056</ele>
        <time>2020-08-03T08:32:45.077Z</time>
      </trkpt>
      <trkpt lat="38.814931" lon="-0.824777">
        <ele>595.183119</ele>
        <time>2020-08-03T08:32:46.067Z</time>
      </trkpt>
      <trkpt lat="38.815059" lon="-0.824898">
        <ele>595.263226</ele>
        <time>2020-08-03T08:32:48.057Z</time>
      </trkpt>
      <trkpt lat="38.815173" lon="-0.825011">
        <ele>595.335809</ele>
        <time>2020-08-03T08:32:50.078Z</time>
      </trkpt>
      <trkpt lat="38.815293" lon="-0.825117">
        <ele>595.409215</ele>
        <time>2020-08-03T08:32:52.083Z</time>
      </trkpt>
      <trkpt lat="38.815406" lon="-0.825213">
        <ele>595.289349</ele>
        <time>2020-08-03T08:32:54.062Z</time>
      </trkpt>
      <trkpt lat="38.815493" lon="-0.825311">
        <ele>595.177476</ele>
        <time>2020-08-03T08:32:56.069Z</time>
      </trkpt>
      <trkpt lat="38.815512" lon="-0.825433">
        <ele>595.083790</ele>
        <time>2020-08-03T08:32:58.057Z</time>
      </trkpt>
      <trkpt lat="38.815463" lon="-0.825571">
        <ele>594.969591</ele>
        <time>2020-08-03T08:33:00.052Z</time>
      </trkpt>
      <trkpt lat="38.815397" lon="-0.825730">
        <ele>594.833929</ele>
        <time>2020-08-03T08:33:02.059Z</time>
      </trkpt>
      <trkpt lat="38.815335" lon="-0.825903">
        <ele>594.690537</ele>
        <time>2020-08-03T08:33:04.081Z</time>
      </trkpt>
      <trkpt lat="38.815297" lon="-0.826049">
        <ele>594.574623</ele>
        <time>2020-08-03T08:33:06.064Z</time>
      </trkpt>
      <trkpt lat="38.815246" lon="-0.826205">
        <ele>594.447230</ele>
        <time>2020-08-03T08:33:08.054Z</time>
      </trkpt>
      <trkpt lat="38.815222" lon="-0.826344">
        <ele>594.340020</ele>
        <time>2020-08-03T08:33:10.060Z</time>
      </trkpt>
      <trkpt lat="38.815171" lon="-0.826494">
        <ele>594.216780</ele>
        <time>2020-08-03T08:33:12.063Z</time>
      </trkpt>
      <trkpt lat="38.815117" lon="-0.826661">
        <ele>594.080626</ele>
        <time>2020-08-03T08:33:14.064Z</time>
      </trkpt>
      <trkpt lat="38.815072" lon="-0.826824">
        <ele>593.950405</ele>
        <time>2020-08-03T08:33:16.080Z</time>
      </trkpt>
      <trkpt lat="38.815037" lon="-0.826968">
        <ele>593.836816</ele>
        <time>2020-08-03T08:33:18.072Z</time>
      </trkpt>
      <trkpt lat="38.815004" lon="-0.827142">
        <ele>593.701963</ele>
        <time>2020-08-03T08:33:20.053Z</time>
      </trkpt>
      <trkpt lat="38.814978" lon="-0.827287">
        <ele>593.252574</ele>
        <time>2020-08-03T08:33:22.087Z</time>
      </trkpt>
      <trkpt lat="38.814945" lon="-0.827402">
        <ele>592.793207</ele>
        <time>2020-08-03T08:33:24.074Z</time>
      </trkpt>
      <trkpt lat="38.814899" lon="-0.827553">
        <ele>592.185480</ele>
        <time>2020-08-03T08:33:26.067Z</time>
      </trkpt>
      <trkpt lat="38.814854" lon="-0.827721">
        <ele>591.519581</ele>
        <time>2020-08-03T08:33:28.065Z</time>
      </trkpt>
      <trkpt lat="38.814799" lon="-0.827888">
        <ele>590.839980</ele>
        <time>2020-08-03T08:33:30.064Z</time>
      </trkpt>
      <trkpt lat="38.814770" lon="-0.828048">
        <ele>590.224226</ele>
        <time>2020-08-03T08:33:32.075Z</time>
      </trkpt>
      <trkpt lat="38.814729" lon="-0.828214">
        <ele>589.571481</ele>
        <time>2020-08-03T08:33:34.075Z</time>
      </trkpt>
      <trkpt lat="38.814688" lon="-0.828393">
        <ele>588.872130</ele>
        <time>2020-08-03T08:33:36.066Z</time>
      </trkpt>
      <trkpt lat="38.814640" lon="-0.828568">
        <ele>588.176705</ele>
        <time>2020-08-03T08:33:38.073Z</time>
      </trkpt>
      <trkpt lat="38.814607" lon="-0.828732">
        <ele>587.541801</ele>
        <time>2020-08-03T08:33:40.057Z</time>
      </trkpt>
      <trkpt lat="38.814557" lon="-0.828920">
        <ele>586.797182</ele>
        <time>2020-08-03T08:33:42.067Z</time>
      </trkpt>
      <trkpt lat="38.814491" lon="-0.829130">
        <ele>585.948396</ele>
        <time>2020-08-03T08:33:44.065Z</time>
      </trkpt>
      <trkpt lat="38.814451" lon="-0.829318">
        <ele>585.217897</ele>
        <time>2020-08-03T08:33:46.066Z</time>
      </trkpt>
      <trkpt lat="38.814413" lon="-0.829423">
        <ele>585.145240</ele>
        <time>2020-08-03T08:33:47.081Z</time>
      </trkpt>
      <trkpt lat="38.814374" lon="-0.829533">
        <ele>585.379766</ele>
        <time>2020-08-03T08:33:48.074Z</time>
      </trkpt>
      <trkpt lat="38.814319" lon="-0.829722">
        <ele>585.771284</ele>
        <time>2020-08-03T08:33:50.074Z</time>
      </trkpt>
      <trkpt lat="38.814281" lon="-0.829903">
        <ele>586.135059</ele>
        <time>2020-08-03T08:33:52.064Z</time>
      </trkpt>
      <trkpt lat="38.814247" lon="-0.830010">
        <ele>586.359306</ele>
        <time>2020-08-03T08:33:53.071Z</time>
      </trkpt>
      <trkpt lat="38.814206" lon="-0.830207">
        <ele>586.755007</ele>
        <time>2020-08-03T08:33:55.060Z</time>
      </trkpt>
      <trkpt lat="38.814209" lon="-0.830393">
        <ele>587.116037</ele>
        <time>2020-08-03T08:33:57.070Z</time>
      </trkpt>
      <trkpt lat="38.814223" lon="-0.830570">
        <ele>587.461288</ele>
        <time>2020-08-03T08:33:59.059Z</time>
      </trkpt>
      <trkpt lat="38.814276" lon="-0.830713">
        <ele>587.768589</ele>
        <time>2020-08-03T08:34:01.047Z</time>
      </trkpt>
      <trkpt lat="38.814291" lon="-0.830883">
        <ele>588.100600</ele>
        <time>2020-08-03T08:34:03.070Z</time>
      </trkpt>
      <trkpt lat="38.814283" lon="-0.831049">
        <ele>588.423355</ele>
        <time>2020-08-03T08:34:05.072Z</time>
      </trkpt>
      <trkpt lat="38.814285" lon="-0.831208">
        <ele>588.731951</ele>
        <time>2020-08-03T08:34:07.049Z</time>
      </trkpt>
      <trkpt lat="38.814304" lon="-0.831353">
        <ele>589.017289</ele>
        <time>2020-08-03T08:34:09.062Z</time>
      </trkpt>
      <trkpt lat="38.814296" lon="-0.831502">
        <ele>589.307124</ele>
        <time>2020-08-03T08:34:11.095Z</time>
      </trkpt>
      <trkpt lat="38.814279" lon="-0.831660">
        <ele>589.419446</ele>
        <time>2020-08-03T08:34:13.066Z</time>
      </trkpt>
      <trkpt lat="38.814247" lon="-0.831819">
        <ele>589.191756</ele>
        <time>2020-08-03T08:34:15.063Z</time>
      </trkpt>
      <trkpt lat="38.814192" lon="-0.831989">
        <ele>588.936538</ele>
        <time>2020-08-03T08:34:17.060Z</time>
      </trkpt>
      <trkpt lat="38.814167" lon="-0.832150">
        <ele>588.708921</ele>
        <time>2020-08-03T08:34:19.062Z</time>
      </trkpt>
      <trkpt lat="38.814141" lon="-0.832315">
        <ele>588.475515</ele>
        <time>2020-08-03T08:34:21.082Z</time>
      </trkpt>
      <trkpt lat="38.814077" lon="-0.832501">
        <ele>588.193598</ele>
        <time>2020-08-03T08:34:23.077Z</time>
      </trkpt>
      <trkpt lat="38.814015" lon="-0.832707">
        <ele>587.887410</ele>
        <time>2020-08-03T08:34:25.053Z</time>
      </trkpt>
      <trkpt lat="38.813981" lon="-0.832896">
        <ele>587.618465</ele>
        <time>2020-08-03T08:34:27.070Z</time>
      </trkpt>
      <trkpt lat="38.813922" lon="-0.833069">
        <ele>587.356629</ele>
        <time>2020-08-03T08:34:29.064Z</time>
      </trkpt>
      <trkpt lat="38.813880" lon="-0.833249">
        <ele>587.096106</ele>
        <time>2020-08-03T08:34:31.063Z</time>
      </trkpt>
      <trkpt lat="38.813859" lon="-0.833433">
        <ele>586.838265</ele>
        <time>2020-08-03T08:34:33.061Z</time>
      </trkpt>
      <trkpt lat="38.813891" lon="-0.833635">
        <ele>586.552459</ele>
        <time>2020-08-03T08:34:35.049Z</time>
      </trkpt>
      <trkpt lat="38.813891" lon="-0.833841">
        <ele>586.189152</ele>
        <time>2020-08-03T08:34:37.041Z</time>
      </trkpt>
      <trkpt lat="38.813903" lon="-0.834027">
        <ele>585.342764</ele>
        <time>2020-08-03T08:34:39.078Z</time>
      </trkpt>
      <trkpt lat="38.813897" lon="-0.834226">
        <ele>584.439632</ele>
        <time>2020-08-03T08:34:41.064Z</time>
      </trkpt>
      <trkpt lat="38.813875" lon="-0.834417">
        <ele>583.564042</ele>
        <time>2020-08-03T08:34:43.080Z</time>
      </trkpt>
      <trkpt lat="38.813826" lon="-0.834578">
        <ele>582.780194</ele>
        <time>2020-08-03T08:34:45.056Z</time>
      </trkpt>
      <trkpt lat="38.813795" lon="-0.834753">
        <ele>581.966325</ele>
        <time>2020-08-03T08:34:47.081Z</time>
      </trkpt>
      <trkpt lat="38.813804" lon="-0.834959">
        <ele>581.030655</ele>
        <time>2020-08-03T08:34:49.059Z</time>
      </trkpt>
      <trkpt lat="38.813803" lon="-0.835168">
        <ele>580.082830</ele>
        <time>2020-08-03T08:34:51.062Z</time>
      </trkpt>
      <trkpt lat="38.813789" lon="-0.835394">
        <ele>579.054694</ele>
        <time>2020-08-03T08:34:53.063Z</time>
      </trkpt>
      <trkpt lat="38.813769" lon="-0.835520">
        <ele>578.471553</ele>
        <time>2020-08-03T08:34:54.067Z</time>
      </trkpt>
      <trkpt lat="38.813749" lon="-0.835635">
        <ele>577.937199</ele>
        <time>2020-08-03T08:34:55.079Z</time>
      </trkpt>
      <trkpt lat="38.813727" lon="-0.835752">
        <ele>577.391377</ele>
        <time>2020-08-03T08:34:56.067Z</time>
      </trkpt>
      <trkpt lat="38.813702" lon="-0.835868">
        <ele>576.845569</ele>
        <time>2020-08-03T08:34:57.067Z</time>
      </trkpt>
      <trkpt lat="38.813671" lon="-0.835978">
        <ele>576.315097</ele>
        <time>2020-08-03T08:34:58.058Z</time>
      </trkpt>
      <trkpt lat="38.813631" lon="-0.836186">
        <ele>575.756384</ele>
        <time>2020-08-03T08:35:00.060Z</time>
      </trkpt>
      <trkpt lat="38.813587" lon="-0.836399">
        <ele>575.600439</ele>
        <time>2020-08-03T08:35:02.058Z</time>
      </trkpt>
      <trkpt lat="38.813527" lon="-0.836594">
        <ele>575.452070</ele>
        <time>2020-08-03T08:35:04.070Z</time>
      </trkpt>
      <trkpt lat="38.813471" lon="-0.836784">
        <ele>575.308311</ele>
        <time>2020-08-03T08:35:06.053Z</time>
      </trkpt>
      <trkpt lat="38.813428" lon="-0.837004">
        <ele>575.147796</ele>
        <time>2020-08-03T08:35:08.061Z</time>
      </trkpt>
      <trkpt lat="38.813405" lon="-0.837129">
        <ele>575.056902</ele>
        <time>2020-08-03T08:35:09.069Z</time>
      </trkpt>
      <trkpt lat="38.813385" lon="-0.837253">
        <ele>574.967288</ele>
        <time>2020-08-03T08:35:10.065Z</time>
      </trkpt>
      <trkpt lat="38.813363" lon="-0.837377">
        <ele>574.877289</ele>
        <time>2020-08-03T08:35:11.067Z</time>
      </trkpt>
      <trkpt lat="38.813362" lon="-0.837517">
        <ele>574.778208</ele>
        <time>2020-08-03T08:35:12.062Z</time>
      </trkpt>
      <trkpt lat="38.813355" lon="-0.837644">
        <ele>574.688107</ele>
        <time>2020-08-03T08:35:13.065Z</time>
      </trkpt>
      <trkpt lat="38.813380" lon="-0.837877">
        <ele>574.521659</ele>
        <time>2020-08-03T08:35:15.074Z</time>
      </trkpt>
      <trkpt lat="38.813393" lon="-0.838005">
        <ele>574.430308</ele>
        <time>2020-08-03T08:35:16.061Z</time>
      </trkpt>
      <trkpt lat="38.813404" lon="-0.838135">
        <ele>574.337768</ele>
        <time>2020-08-03T08:35:17.070Z</time>
      </trkpt>
      <trkpt lat="38.813420" lon="-0.838265">
        <ele>574.244627</ele>
        <time>2020-08-03T08:35:18.071Z</time>
      </trkpt>
      <trkpt lat="38.813428" lon="-0.838385">
        <ele>574.355180</ele>
        <time>2020-08-03T08:35:19.056Z</time>
      </trkpt>
      <trkpt lat="38.813434" lon="-0.838509">
        <ele>574.700441</ele>
        <time>2020-08-03T08:35:20.060Z</time>
      </trkpt>
      <trkpt lat="38.813437" lon="-0.838628">
        <ele>575.031317</ele>
        <time>2020-08-03T08:35:21.082Z</time>
      </trkpt>
      <trkpt lat="38.813468" lon="-0.838843">
        <ele>575.638949</ele>
        <time>2020-08-03T08:35:23.069Z</time>
      </trkpt>
      <trkpt lat="38.813463" lon="-0.838962">
        <ele>575.970132</ele>
        <time>2020-08-03T08:35:24.072Z</time>
      </trkpt>
      <trkpt lat="38.813465" lon="-0.839185">
        <ele>576.589893</ele>
        <time>2020-08-03T08:35:26.053Z</time>
      </trkpt>
      <trkpt lat="38.813498" lon="-0.839396">
        <ele>577.187960</ele>
        <time>2020-08-03T08:35:28.070Z</time>
      </trkpt>
      <trkpt lat="38.813536" lon="-0.839587">
        <ele>577.735780</ele>
        <time>2020-08-03T08:35:30.069Z</time>
      </trkpt>
      <trkpt lat="38.813547" lon="-0.839706">
        <ele>578.068801</ele>
        <time>2020-08-03T08:35:31.066Z</time>
      </trkpt>
      <trkpt lat="38.813563" lon="-0.839917">
        <ele>578.657943</ele>
        <time>2020-08-03T08:35:33.066Z</time>
      </trkpt>
      <trkpt lat="38.813565" lon="-0.840043">
        <ele>579.008170</ele>
        <time>2020-08-03T08:35:34.063Z</time>
      </trkpt>
      <trkpt lat="38.813570" lon="-0.840165">
        <ele>579.347678</ele>
        <time>2020-08-03T08:35:35.069Z</time>
      </trkpt>
      <trkpt lat="38.813579" lon="-0.840287">
        <ele>579.688233</ele>
        <time>2020-08-03T08:35:36.064Z</time>
      </trkpt>
      <trkpt lat="38.813601" lon="-0.840415">
        <ele>580.052497</ele>
        <time>2020-08-03T08:35:37.077Z</time>
      </trkpt>
      <trkpt lat="38.813618" lon="-0.840542">
        <ele>580.410602</ele>
        <time>2020-08-03T08:35:38.059Z</time>
      </trkpt>
      <trkpt lat="38.813645" lon="-0.840667">
        <ele>580.291978</ele>
        <time>2020-08-03T08:35:39.075Z</time>
      </trkpt>
      <trkpt lat="38.813657" lon="-0.840798">
        <ele>579.540062</ele>
        <time>2020-08-03T08:35:40.072Z</time>
      </trkpt>
      <trkpt lat="38.813719" lon="-0.840977">
        <ele>578.423389</ele>
        <time>2020-08-03T08:35:42.068Z</time>
      </trkpt>
      <trkpt lat="38.813766" lon="-0.841150">
        <ele>577.378969</ele>
        <time>2020-08-03T08:35:44.075Z</time>
      </trkpt>
      <trkpt lat="38.813812" lon="-0.841322">
        <ele>576.342328</ele>
        <time>2020-08-03T08:35:46.070Z</time>
      </trkpt>
      <trkpt lat="38.813821" lon="-0.841502">
        <ele>575.314120</ele>
        <time>2020-08-03T08:35:48.076Z</time>
      </trkpt>
      <trkpt lat="38.813859" lon="-0.841681">
        <ele>574.256530</ele>
        <time>2020-08-03T08:35:50.069Z</time>
      </trkpt>
      <trkpt lat="38.813924" lon="-0.841848">
        <ele>573.192377</ele>
        <time>2020-08-03T08:35:52.059Z</time>
      </trkpt>
      <trkpt lat="38.813936" lon="-0.842085">
        <ele>571.838502</ele>
        <time>2020-08-03T08:35:54.071Z</time>
      </trkpt>
      <trkpt lat="38.813953" lon="-0.842210">
        <ele>571.115163</ele>
        <time>2020-08-03T08:35:55.067Z</time>
      </trkpt>
      <trkpt lat="38.813960" lon="-0.842333">
        <ele>570.412130</ele>
        <time>2020-08-03T08:35:56.064Z</time>
      </trkpt>
      <trkpt lat="38.813965" lon="-0.842472">
        <ele>569.618913</ele>
        <time>2020-08-03T08:35:57.071Z</time>
      </trkpt>
      <trkpt lat="38.813983" lon="-0.842598">
        <ele>568.888674</ele>
        <time>2020-08-03T08:35:58.066Z</time>
      </trkpt>
      <trkpt lat="38.813985" lon="-0.842729">
        <ele>568.141762</ele>
        <time>2020-08-03T08:35:59.067Z</time>
      </trkpt>
      <trkpt lat="38.813989" lon="-0.842878">
        <ele>567.531527</ele>
        <time>2020-08-03T08:36:00.069Z</time>
      </trkpt>
      <trkpt lat="38.813972" lon="-0.843021">
        <ele>567.917138</ele>
        <time>2020-08-03T08:36:01.066Z</time>
      </trkpt>
      <trkpt lat="38.813974" lon="-0.843145">
        <ele>568.247760</ele>
        <time>2020-08-03T08:36:02.079Z</time>
      </trkpt>
      <trkpt lat="38.813965" lon="-0.843278">
        <ele>568.603637</ele>
        <time>2020-08-03T08:36:03.078Z</time>
      </trkpt>
      <trkpt lat="38.813953" lon="-0.843411">
        <ele>568.960549</ele>
        <time>2020-08-03T08:36:04.073Z</time>
      </trkpt>
      <trkpt lat="38.813956" lon="-0.843534">
        <ele>569.288595</ele>
        <time>2020-08-03T08:36:05.070Z</time>
      </trkpt>
      <trkpt lat="38.813947" lon="-0.843671">
        <ele>569.655097</ele>
        <time>2020-08-03T08:36:06.058Z</time>
      </trkpt>
      <trkpt lat="38.813929" lon="-0.843808">
        <ele>570.025458</ele>
        <time>2020-08-03T08:36:07.073Z</time>
      </trkpt>
      <trkpt lat="38.813918" lon="-0.843933">
        <ele>570.360793</ele>
        <time>2020-08-03T08:36:08.063Z</time>
      </trkpt>
      <trkpt lat="38.813911" lon="-0.844058">
        <ele>570.694870</ele>
        <time>2020-08-03T08:36:09.065Z</time>
      </trkpt>
      <trkpt lat="38.813904" lon="-0.844280">
        <ele>571.287148</ele>
        <time>2020-08-03T08:36:11.082Z</time>
      </trkpt>
      <trkpt lat="38.813880" lon="-0.844439">
        <ele>571.718880</ele>
        <time>2020-08-03T08:36:13.075Z</time>
      </trkpt>
      <trkpt lat="38.813813" lon="-0.844544">
        <ele>572.080663</ele>
        <time>2020-08-03T08:36:15.060Z</time>
      </trkpt>
      <trkpt lat="38.813712" lon="-0.844602">
        <ele>572.459217</ele>
        <time>2020-08-03T08:36:17.056Z</time>
      </trkpt>
      <trkpt lat="38.813635" lon="-0.844694">
        <ele>572.819137</ele>
        <time>2020-08-03T08:36:19.069Z</time>
      </trkpt>
      <trkpt lat="38.813549" lon="-0.844816">
        <ele>573.257698</ele>
        <time>2020-08-03T08:36:22.055Z</time>
      </trkpt>
      <trkpt lat="38.813472" lon="-0.844937">
        <ele>573.644157</ele>
        <time>2020-08-03T08:36:26.066Z</time>
      </trkpt>
      <trkpt lat="38.813394" lon="-0.845060">
        <ele>573.873291</ele>
        <time>2020-08-03T08:36:30.063Z</time>
      </trkpt>
      <trkpt lat="38.813340" lon="-0.845155">
        <ele>574.043194</ele>
        <time>2020-08-03T08:36:33.069Z</time>
      </trkpt>
      <trkpt lat="38.813281" lon="-0.845293">
        <ele>574.270625</ele>
        <time>2020-08-03T08:36:37.071Z</time>
      </trkpt>
      <trkpt lat="38.813231" lon="-0.845434">
        <ele>574.494454</ele>
        <time>2020-08-03T08:36:40.081Z</time>
      </trkpt>
      <trkpt lat="38.813176" lon="-0.845583">
        <ele>574.732672</ele>
        <time>2020-08-03T08:36:43.068Z</time>
      </trkpt>
      <trkpt lat="38.813155" lon="-0.845717">
        <ele>574.930160</ele>
        <time>2020-08-03T08:36:45.072Z</time>
      </trkpt>
      <trkpt lat="38.813120" lon="-0.845843">
        <ele>575.123433</ele>
        <time>2020-08-03T08:36:47.054Z</time>
      </trkpt>
      <trkpt lat="38.813113" lon="-0.845987">
        <ele>575.331897</ele>
        <time>2020-08-03T08:36:49.065Z</time>
      </trkpt>
      <trkpt lat="38.813111" lon="-0.846117">
        <ele>575.519764</ele>
        <time>2020-08-03T08:36:51.064Z</time>
      </trkpt>
      <trkpt lat="38.813091" lon="-0.846258">
        <ele>575.726837</ele>
        <time>2020-08-03T08:36:53.075Z</time>
      </trkpt>
      <trkpt lat="38.813071" lon="-0.846414">
        <ele>575.955264</ele>
        <time>2020-08-03T08:36:55.071Z</time>
      </trkpt>
      <trkpt lat="38.813025" lon="-0.846604">
        <ele>576.242733</ele>
        <time>2020-08-03T08:36:57.071Z</time>
      </trkpt>
      <trkpt lat="38.812988" lon="-0.846785">
        <ele>576.513102</ele>
        <time>2020-08-03T08:36:59.067Z</time>
      </trkpt>
      <trkpt lat="38.812977" lon="-0.846948">
        <ele>576.749495</ele>
        <time>2020-08-03T08:37:01.067Z</time>
      </trkpt>
      <trkpt lat="38.812955" lon="-0.847141">
        <ele>576.869612</ele>
        <time>2020-08-03T08:37:03.062Z</time>
      </trkpt>
      <trkpt lat="38.812947" lon="-0.847321">
        <ele>576.648450</ele>
        <time>2020-08-03T08:37:05.051Z</time>
      </trkpt>
      <trkpt lat="38.812936" lon="-0.847506">
        <ele>576.420854</ele>
        <time>2020-08-03T08:37:07.071Z</time>
      </trkpt>
      <trkpt lat="38.812932" lon="-0.847696">
        <ele>576.187699</ele>
        <time>2020-08-03T08:37:09.067Z</time>
      </trkpt>
      <trkpt lat="38.812927" lon="-0.847908">
        <ele>575.927523</ele>
        <time>2020-08-03T08:37:11.073Z</time>
      </trkpt>
      <trkpt lat="38.812922" lon="-0.848117">
        <ele>575.671025</ele>
        <time>2020-08-03T08:37:13.075Z</time>
      </trkpt>
      <trkpt lat="38.812918" lon="-0.848313">
        <ele>575.430513</ele>
        <time>2020-08-03T08:37:15.070Z</time>
      </trkpt>
      <trkpt lat="38.812868" lon="-0.848510">
        <ele>575.176359</ele>
        <time>2020-08-03T08:37:17.084Z</time>
      </trkpt>
      <trkpt lat="38.812780" lon="-0.848712">
        <ele>574.892470</ele>
        <time>2020-08-03T08:37:19.072Z</time>
      </trkpt>
      <trkpt lat="38.812725" lon="-0.848818">
        <ele>574.736250</ele>
        <time>2020-08-03T08:37:20.053Z</time>
      </trkpt>
      <trkpt lat="38.812666" lon="-0.848938">
        <ele>574.562193</ele>
        <time>2020-08-03T08:37:21.054Z</time>
      </trkpt>
      <trkpt lat="38.812615" lon="-0.849065">
        <ele>574.386931</ele>
        <time>2020-08-03T08:37:22.067Z</time>
      </trkpt>
      <trkpt lat="38.812572" lon="-0.849183">
        <ele>574.227135</ele>
        <time>2020-08-03T08:37:23.052Z</time>
      </trkpt>
      <trkpt lat="38.812522" lon="-0.849303">
        <ele>573.236380</ele>
        <time>2020-08-03T08:37:24.061Z</time>
      </trkpt>
      <trkpt lat="38.812485" lon="-0.849538">
        <ele>568.288616</ele>
        <time>2020-08-03T08:37:26.065Z</time>
      </trkpt>
      <trkpt lat="38.812473" lon="-0.849672">
        <ele>565.505023</ele>
        <time>2020-08-03T08:37:27.060Z</time>
      </trkpt>
      <trkpt lat="38.812479" lon="-0.849816">
        <ele>562.529015</ele>
        <time>2020-08-03T08:37:28.061Z</time>
      </trkpt>
      <trkpt lat="38.812464" lon="-0.849960">
        <ele>559.530815</ele>
        <time>2020-08-03T08:37:29.081Z</time>
      </trkpt>
      <trkpt lat="38.812445" lon="-0.850099">
        <ele>556.618435</ele>
        <time>2020-08-03T08:37:30.060Z</time>
      </trkpt>
      <trkpt lat="38.812423" lon="-0.850217">
        <ele>554.114501</ele>
        <time>2020-08-03T08:37:31.067Z</time>
      </trkpt>
      <trkpt lat="38.812385" lon="-0.850329">
        <ele>551.593518</ele>
        <time>2020-08-03T08:37:32.051Z</time>
      </trkpt>
      <trkpt lat="38.812351" lon="-0.850532">
        <ele>547.308465</ele>
        <time>2020-08-03T08:37:34.062Z</time>
      </trkpt>
      <trkpt lat="38.812285" lon="-0.850676">
        <ele>543.860716</ele>
        <time>2020-08-03T08:37:36.073Z</time>
      </trkpt>
      <trkpt lat="38.812161" lon="-0.850718">
        <ele>540.464108</ele>
        <time>2020-08-03T08:37:38.060Z</time>
      </trkpt>
      <trkpt lat="38.812066" lon="-0.850716">
        <ele>537.947684</ele>
        <time>2020-08-03T08:37:39.048Z</time>
      </trkpt>
      <trkpt lat="38.811973" lon="-0.850711">
        <ele>535.482408</ele>
        <time>2020-08-03T08:37:40.064Z</time>
      </trkpt>
      <trkpt lat="38.811821" lon="-0.850762">
        <ele>531.321359</ele>
        <time>2020-08-03T08:37:42.067Z</time>
      </trkpt>
      <trkpt lat="38.811659" lon="-0.850851">
        <ele>526.654161</ele>
        <time>2020-08-03T08:37:44.045Z</time>
      </trkpt>
      <trkpt lat="38.811472" lon="-0.850888">
        <ele>528.829665</ele>
        <time>2020-08-03T08:37:46.076Z</time>
      </trkpt>
      <trkpt lat="38.811307" lon="-0.850932">
        <ele>531.004662</ele>
        <time>2020-08-03T08:37:48.048Z</time>
      </trkpt>
      <trkpt lat="38.811195" lon="-0.851038">
        <ele>532.800711</ele>
        <time>2020-08-03T08:37:50.086Z</time>
      </trkpt>
      <trkpt lat="38.811109" lon="-0.851156">
        <ele>534.425567</ele>
        <time>2020-08-03T08:37:51.670Z</time>
      </trkpt>
      <trkpt lat="38.811018" lon="-0.851293">
        <ele>536.235976</ele>
        <time>2020-08-03T08:37:53.697Z</time>
      </trkpt>
      <trkpt lat="38.810979" lon="-0.851429">
        <ele>537.693362</ele>
        <time>2020-08-03T08:37:55.664Z</time>
      </trkpt>
      <trkpt lat="38.810978" lon="-0.851562">
        <ele>539.030963</ele>
        <time>2020-08-03T08:37:57.660Z</time>
      </trkpt>
      <trkpt lat="38.810987" lon="-0.851678">
        <ele>540.203306</ele>
        <time>2020-08-03T08:37:59.655Z</time>
      </trkpt>
      <trkpt lat="38.811081" lon="-0.851730">
        <ele>541.524392</ele>
        <time>2020-08-03T08:38:03.668Z</time>
      </trkpt>
      <trkpt lat="38.811163" lon="-0.851837">
        <ele>543.033667</ele>
        <time>2020-08-03T08:38:07.677Z</time>
      </trkpt>
      <trkpt lat="38.811206" lon="-0.851946">
        <ele>544.262318</ele>
        <time>2020-08-03T08:38:10.675Z</time>
      </trkpt>
      <trkpt lat="38.811275" lon="-0.852072">
        <ele>545.811081</ele>
        <time>2020-08-03T08:38:14.670Z</time>
      </trkpt>
      <trkpt lat="38.811324" lon="-0.852174">
        <ele>547.016132</ele>
        <time>2020-08-03T08:38:17.673Z</time>
      </trkpt>
      <trkpt lat="38.811360" lon="-0.852285">
        <ele>548.225249</ele>
        <time>2020-08-03T08:38:20.671Z</time>
      </trkpt>
      <trkpt lat="38.811390" lon="-0.852399">
        <ele>549.435320</ele>
        <time>2020-08-03T08:38:23.677Z</time>
      </trkpt>
      <trkpt lat="38.811435" lon="-0.852507">
        <ele>550.443336</ele>
        <time>2020-08-03T08:38:26.710Z</time>
      </trkpt>
      <trkpt lat="38.811456" lon="-0.852620">
        <ele>551.344596</ele>
        <time>2020-08-03T08:38:29.687Z</time>
      </trkpt>
      <trkpt lat="38.811479" lon="-0.852748">
        <ele>552.363702</ele>
        <time>2020-08-03T08:38:32.677Z</time>
      </trkpt>
      <trkpt lat="38.811501" lon="-0.852874">
        <ele>553.365470</ele>
        <time>2020-08-03T08:38:35.706Z</time>
      </trkpt>
      <trkpt lat="38.811523" lon="-0.853008">
        <ele>554.427887</ele>
        <time>2020-08-03T08:38:38.665Z</time>
      </trkpt>
      <trkpt lat="38.811538" lon="-0.853148">
        <ele>555.524248</ele>
        <time>2020-08-03T08:38:41.675Z</time>
      </trkpt>
      <trkpt lat="38.811539" lon="-0.853298">
        <ele>556.688013</ele>
        <time>2020-08-03T08:38:44.679Z</time>
      </trkpt>
      <trkpt lat="38.811534" lon="-0.853462">
        <ele>557.961323</ele>
        <time>2020-08-03T08:38:47.679Z</time>
      </trkpt>
      <trkpt lat="38.811524" lon="-0.853584">
        <ele>558.913039</ele>
        <time>2020-08-03T08:38:49.673Z</time>
      </trkpt>
      <trkpt lat="38.811512" lon="-0.853707">
        <ele>559.874742</ele>
        <time>2020-08-03T08:38:51.683Z</time>
      </trkpt>
      <trkpt lat="38.811496" lon="-0.853831">
        <ele>560.849854</ele>
        <time>2020-08-03T08:38:53.673Z</time>
      </trkpt>
      <trkpt lat="38.811449" lon="-0.853975">
        <ele>562.061075</ele>
        <time>2020-08-03T08:38:55.684Z</time>
      </trkpt>
      <trkpt lat="38.811419" lon="-0.854123">
        <ele>563.247497</ele>
        <time>2020-08-03T08:38:57.677Z</time>
      </trkpt>
      <trkpt lat="38.811405" lon="-0.854263">
        <ele>564.342548</ele>
        <time>2020-08-03T08:38:59.684Z</time>
      </trkpt>
      <trkpt lat="38.811388" lon="-0.854405">
        <ele>565.457134</ele>
        <time>2020-08-03T08:39:01.665Z</time>
      </trkpt>
      <trkpt lat="38.811350" lon="-0.854573">
        <ele>566.814308</ele>
        <time>2020-08-03T08:39:03.670Z</time>
      </trkpt>
      <trkpt lat="38.811314" lon="-0.854735">
        <ele>566.435364</ele>
        <time>2020-08-03T08:39:05.684Z</time>
      </trkpt>
      <trkpt lat="38.811286" lon="-0.854870">
        <ele>564.036903</ele>
        <time>2020-08-03T08:39:07.697Z</time>
      </trkpt>
      <trkpt lat="38.811244" lon="-0.855014">
        <ele>561.397108</ele>
        <time>2020-08-03T08:39:09.677Z</time>
      </trkpt>
      <trkpt lat="38.811245" lon="-0.855140">
        <ele>559.233751</ele>
        <time>2020-08-03T08:39:11.679Z</time>
      </trkpt>
      <trkpt lat="38.811227" lon="-0.855268">
        <ele>557.000668</ele>
        <time>2020-08-03T08:39:13.666Z</time>
      </trkpt>
      <trkpt lat="38.811247" lon="-0.855383">
        <ele>554.977699</ele>
        <time>2020-08-03T08:39:15.693Z</time>
      </trkpt>
      <trkpt lat="38.811272" lon="-0.855498">
        <ele>552.927912</ele>
        <time>2020-08-03T08:39:17.673Z</time>
      </trkpt>
      <trkpt lat="38.811283" lon="-0.855625">
        <ele>550.734071</ele>
        <time>2020-08-03T08:39:19.693Z</time>
      </trkpt>
      <trkpt lat="38.811276" lon="-0.855763">
        <ele>548.359789</ele>
        <time>2020-08-03T08:39:21.683Z</time>
      </trkpt>
      <trkpt lat="38.811288" lon="-0.855960">
        <ele>544.967256</ele>
        <time>2020-08-03T08:39:24.677Z</time>
      </trkpt>
      <trkpt lat="38.811287" lon="-0.856092">
        <ele>542.700894</ele>
        <time>2020-08-03T08:39:26.678Z</time>
      </trkpt>
      <trkpt lat="38.811287" lon="-0.856224">
        <ele>540.434639</ele>
        <time>2020-08-03T08:39:28.685Z</time>
      </trkpt>
      <trkpt lat="38.811298" lon="-0.856346">
        <ele>538.326094</ele>
        <time>2020-08-03T08:39:30.684Z</time>
      </trkpt>
      <trkpt lat="38.811293" lon="-0.856472">
        <ele>536.160047</ele>
        <time>2020-08-03T08:39:32.674Z</time>
      </trkpt>
      <trkpt lat="38.811272" lon="-0.856613">
        <ele>533.695452</ele>
        <time>2020-08-03T08:39:34.677Z</time>
      </trkpt>
      <trkpt lat="38.811248" lon="-0.856741">
        <ele>531.435144</ele>
        <time>2020-08-03T08:39:36.666Z</time>
      </trkpt>
      <trkpt lat="38.811246" lon="-0.856873">
        <ele>529.168460</ele>
        <time>2020-08-03T08:39:38.674Z</time>
      </trkpt>
      <trkpt lat="38.811222" lon="-0.857001">
        <ele>527.971255</ele>
        <time>2020-08-03T08:39:40.679Z</time>
      </trkpt>
      <trkpt lat="38.811212" lon="-0.857124">
        <ele>527.980506</ele>
        <time>2020-08-03T08:39:42.681Z</time>
      </trkpt>
      <trkpt lat="38.811202" lon="-0.857250">
        <ele>527.989981</ele>
        <time>2020-08-03T08:39:44.680Z</time>
      </trkpt>
      <trkpt lat="38.811180" lon="-0.857385">
        <ele>528.000299</ele>
        <time>2020-08-03T08:39:46.673Z</time>
      </trkpt>
      <trkpt lat="38.811178" lon="-0.857530">
        <ele>528.011147</ele>
        <time>2020-08-03T08:39:48.677Z</time>
      </trkpt>
      <trkpt lat="38.811177" lon="-0.857680">
        <ele>528.022369</ele>
        <time>2020-08-03T08:39:50.685Z</time>
      </trkpt>
      <trkpt lat="38.811170" lon="-0.857825">
        <ele>528.033237</ele>
        <time>2020-08-03T08:39:52.684Z</time>
      </trkpt>
      <trkpt lat="38.811179" lon="-0.857960">
        <ele>528.043373</ele>
        <time>2020-08-03T08:39:54.704Z</time>
      </trkpt>
      <trkpt lat="38.811168" lon="-0.858097">
        <ele>528.053676</ele>
        <time>2020-08-03T08:39:56.665Z</time>
      </trkpt>
      <trkpt lat="38.811171" lon="-0.858240">
        <ele>528.064377</ele>
        <time>2020-08-03T08:39:58.676Z</time>
      </trkpt>
      <trkpt lat="38.811178" lon="-0.858364">
        <ele>528.073678</ele>
        <time>2020-08-03T08:40:00.679Z</time>
      </trkpt>
      <trkpt lat="38.811224" lon="-0.858534">
        <ele>528.087140</ele>
        <time>2020-08-03T08:40:03.688Z</time>
      </trkpt>
      <trkpt lat="38.811244" lon="-0.858665">
        <ele>528.097126</ele>
        <time>2020-08-03T08:40:05.686Z</time>
      </trkpt>
      <trkpt lat="38.811258" lon="-0.858789">
        <ele>528.106500</ele>
        <time>2020-08-03T08:40:07.681Z</time>
      </trkpt>
      <trkpt lat="38.811271" lon="-0.858915">
        <ele>528.116008</ele>
        <time>2020-08-03T08:40:09.680Z</time>
      </trkpt>
      <trkpt lat="38.811276" lon="-0.859039">
        <ele>528.125296</ele>
        <time>2020-08-03T08:40:11.659Z</time>
      </trkpt>
      <trkpt lat="38.811283" lon="-0.859165">
        <ele>528.134746</ele>
        <time>2020-08-03T08:40:13.681Z</time>
      </trkpt>
      <trkpt lat="38.811301" lon="-0.859324">
        <ele>528.423677</ele>
        <time>2020-08-03T08:40:16.673Z</time>
      </trkpt>
      <trkpt lat="38.811304" lon="-0.859460">
        <ele>528.812428</ele>
        <time>2020-08-03T08:40:18.679Z</time>
      </trkpt>
      <trkpt lat="38.811310" lon="-0.859620">
        <ele>529.270129</ele>
        <time>2020-08-03T08:40:21.674Z</time>
      </trkpt>
      <trkpt lat="38.811313" lon="-0.859780">
        <ele>529.727432</ele>
        <time>2020-08-03T08:40:24.676Z</time>
      </trkpt>
      <trkpt lat="38.811309" lon="-0.859913">
        <ele>530.107739</ele>
        <time>2020-08-03T08:40:27.698Z</time>
      </trkpt>
      <trkpt lat="38.811280" lon="-0.860048">
        <ele>530.507867</ele>
        <time>2020-08-03T08:40:30.677Z</time>
      </trkpt>
      <trkpt lat="38.811243" lon="-0.860172">
        <ele>530.887264</ele>
        <time>2020-08-03T08:40:34.671Z</time>
      </trkpt>
      <trkpt lat="38.811215" lon="-0.860311">
        <ele>531.297489</ele>
        <time>2020-08-03T08:40:38.660Z</time>
      </trkpt>
      <trkpt lat="38.811229" lon="-0.860427">
        <ele>531.632891</ele>
        <time>2020-08-03T08:40:42.670Z</time>
      </trkpt>
      <trkpt lat="38.811374" lon="-0.860468">
        <ele>532.177348</ele>
        <time>2020-08-03T08:42:19.682Z</time>
      </trkpt>
      <trkpt lat="38.811483" lon="-0.860551">
        <ele>532.642106</ele>
        <time>2020-08-03T08:42:23.684Z</time>
      </trkpt>
      <trkpt lat="38.811589" lon="-0.860632">
        <ele>533.094487</ele>
        <time>2020-08-03T08:42:26.678Z</time>
      </trkpt>
      <trkpt lat="38.811713" lon="-0.860716">
        <ele>533.608644</ele>
        <time>2020-08-03T08:42:29.677Z</time>
      </trkpt>
      <trkpt lat="38.811791" lon="-0.860788">
        <ele>533.960966</ele>
        <time>2020-08-03T08:42:31.673Z</time>
      </trkpt>
      <trkpt lat="38.811882" lon="-0.860850">
        <ele>534.338765</ele>
        <time>2020-08-03T08:42:33.679Z</time>
      </trkpt>
      <trkpt lat="38.811954" lon="-0.860948">
        <ele>534.723622</ele>
        <time>2020-08-03T08:42:35.679Z</time>
      </trkpt>
      <trkpt lat="38.812021" lon="-0.861040">
        <ele>534.646429</ele>
        <time>2020-08-03T08:42:37.696Z</time>
      </trkpt>
      <trkpt lat="38.812100" lon="-0.861157">
        <ele>534.534282</ele>
        <time>2020-08-03T08:42:39.686Z</time>
      </trkpt>
      <trkpt lat="38.812170" lon="-0.861313">
        <ele>534.403879</ele>
        <time>2020-08-03T08:42:41.695Z</time>
      </trkpt>
      <trkpt lat="38.812229" lon="-0.861500">
        <ele>534.257734</ele>
        <time>2020-08-03T08:42:43.676Z</time>
      </trkpt>
      <trkpt lat="38.812266" lon="-0.861666">
        <ele>534.132662</ele>
        <time>2020-08-03T08:42:45.679Z</time>
      </trkpt>
      <trkpt lat="38.812304" lon="-0.861836">
        <ele>534.004549</ele>
        <time>2020-08-03T08:42:47.676Z</time>
      </trkpt>
      <trkpt lat="38.812332" lon="-0.862008">
        <ele>533.877264</ele>
        <time>2020-08-03T08:42:49.681Z</time>
      </trkpt>
      <trkpt lat="38.812361" lon="-0.862175">
        <ele>533.753323</ele>
        <time>2020-08-03T08:42:51.707Z</time>
      </trkpt>
      <trkpt lat="38.812387" lon="-0.862357">
        <ele>533.619286</ele>
        <time>2020-08-03T08:42:53.674Z</time>
      </trkpt>
      <trkpt lat="38.812396" lon="-0.862545">
        <ele>533.482844</ele>
        <time>2020-08-03T08:42:55.685Z</time>
      </trkpt>
      <trkpt lat="38.812437" lon="-0.862720">
        <ele>533.350470</ele>
        <time>2020-08-03T08:42:57.699Z</time>
      </trkpt>
      <trkpt lat="38.812457" lon="-0.862913">
        <ele>533.209432</ele>
        <time>2020-08-03T08:42:59.682Z</time>
      </trkpt>
      <trkpt lat="38.812476" lon="-0.863083">
        <ele>533.085026</ele>
        <time>2020-08-03T08:43:01.676Z</time>
      </trkpt>
      <trkpt lat="38.812478" lon="-0.863261">
        <ele>532.991883</ele>
        <time>2020-08-03T08:43:03.678Z</time>
      </trkpt>
      <trkpt lat="38.812510" lon="-0.863425">
        <ele>532.910548</ele>
        <time>2020-08-03T08:43:05.682Z</time>
      </trkpt>
      <trkpt lat="38.812544" lon="-0.863590">
        <ele>532.828440</ele>
        <time>2020-08-03T08:43:07.682Z</time>
      </trkpt>
      <trkpt lat="38.812549" lon="-0.863763">
        <ele>532.745155</ele>
        <time>2020-08-03T08:43:09.675Z</time>
      </trkpt>
      <trkpt lat="38.812554" lon="-0.863948">
        <ele>532.656100</ele>
        <time>2020-08-03T08:43:11.679Z</time>
      </trkpt>
      <trkpt lat="38.812552" lon="-0.864131">
        <ele>532.568053</ele>
        <time>2020-08-03T08:43:13.678Z</time>
      </trkpt>
      <trkpt lat="38.812542" lon="-0.864294">
        <ele>532.489393</ele>
        <time>2020-08-03T08:43:15.679Z</time>
      </trkpt>
      <trkpt lat="38.812562" lon="-0.864435">
        <ele>532.420445</ele>
        <time>2020-08-03T08:43:17.689Z</time>
      </trkpt>
      <trkpt lat="38.812564" lon="-0.864603">
        <ele>532.339612</ele>
        <time>2020-08-03T08:43:19.677Z</time>
      </trkpt>
      <trkpt lat="38.812603" lon="-0.864738">
        <ele>532.270346</ele>
        <time>2020-08-03T08:43:21.672Z</time>
      </trkpt>
      <trkpt lat="38.812625" lon="-0.864864">
        <ele>532.208226</ele>
        <time>2020-08-03T08:43:23.677Z</time>
      </trkpt>
      <trkpt lat="38.812648" lon="-0.864992">
        <ele>532.145030</ele>
        <time>2020-08-03T08:43:25.677Z</time>
      </trkpt>
      <trkpt lat="38.812665" lon="-0.865112">
        <ele>532.086354</ele>
        <time>2020-08-03T08:43:27.665Z</time>
      </trkpt>
      <trkpt lat="38.812672" lon="-0.865263">
        <ele>532.013581</ele>
        <time>2020-08-03T08:43:29.677Z</time>
      </trkpt>
      <trkpt lat="38.812674" lon="-0.865404">
        <ele>531.942788</ele>
        <time>2020-08-03T08:43:31.679Z</time>
      </trkpt>
      <trkpt lat="38.812698" lon="-0.865537">
        <ele>531.847111</ele>
        <time>2020-08-03T08:43:33.681Z</time>
      </trkpt>
      <trkpt lat="38.812707" lon="-0.865673">
        <ele>531.751455</ele>
        <time>2020-08-03T08:43:35.675Z</time>
      </trkpt>
      <trkpt lat="38.812718" lon="-0.865806">
        <ele>531.657722</ele>
        <time>2020-08-03T08:43:37.683Z</time>
      </trkpt>
      <trkpt lat="38.812738" lon="-0.865921">
        <ele>531.575143</ele>
        <time>2020-08-03T08:43:39.675Z</time>
      </trkpt>
      <trkpt lat="38.812746" lon="-0.866060">
        <ele>531.477463</ele>
        <time>2020-08-03T08:43:41.679Z</time>
      </trkpt>
      <trkpt lat="38.812753" lon="-0.866197">
        <ele>531.381244</ele>
        <time>2020-08-03T08:43:43.677Z</time>
      </trkpt>
      <trkpt lat="38.812766" lon="-0.866312">
        <ele>531.299805</ele>
        <time>2020-08-03T08:43:45.705Z</time>
      </trkpt>
      <trkpt lat="38.812774" lon="-0.866440">
        <ele>531.209811</ele>
        <time>2020-08-03T08:43:47.682Z</time>
      </trkpt>
      <trkpt lat="38.812780" lon="-0.866555">
        <ele>531.129035</ele>
        <time>2020-08-03T08:43:49.664Z</time>
      </trkpt>
      <trkpt lat="38.812795" lon="-0.866719">
        <ele>531.013310</ele>
        <time>2020-08-03T08:43:52.666Z</time>
      </trkpt>
      <trkpt lat="38.812830" lon="-0.866879">
        <ele>530.896843</ele>
        <time>2020-08-03T08:43:55.679Z</time>
      </trkpt>
      <trkpt lat="38.812830" lon="-0.867002">
        <ele>530.810641</ele>
        <time>2020-08-03T08:43:57.676Z</time>
      </trkpt>
      <trkpt lat="38.812847" lon="-0.867169">
        <ele>530.692609</ele>
        <time>2020-08-03T08:44:00.679Z</time>
      </trkpt>
      <trkpt lat="38.812882" lon="-0.867314">
        <ele>530.586225</ele>
        <time>2020-08-03T08:44:03.669Z</time>
      </trkpt>
      <trkpt lat="38.812899" lon="-0.867483">
        <ele>530.466802</ele>
        <time>2020-08-03T08:44:06.677Z</time>
      </trkpt>
      <trkpt lat="38.812937" lon="-0.867631">
        <ele>530.357594</ele>
        <time>2020-08-03T08:44:09.673Z</time>
      </trkpt>
      <trkpt lat="38.812976" lon="-0.867789">
        <ele>530.276802</ele>
        <time>2020-08-03T08:44:12.677Z</time>
      </trkpt>
      <trkpt lat="38.813021" lon="-0.867939">
        <ele>530.206981</ele>
        <time>2020-08-03T08:44:15.676Z</time>
      </trkpt>
      <trkpt lat="38.813053" lon="-0.868048">
        <ele>530.156383</ele>
        <time>2020-08-03T08:44:17.672Z</time>
      </trkpt>
      <trkpt lat="38.813090" lon="-0.868209">
        <ele>530.083468</ele>
        <time>2020-08-03T08:44:20.692Z</time>
      </trkpt>
      <trkpt lat="38.813144" lon="-0.868308">
        <ele>530.030973</ele>
        <time>2020-08-03T08:44:22.675Z</time>
      </trkpt>
      <trkpt lat="38.813163" lon="-0.868436">
        <ele>529.974372</ele>
        <time>2020-08-03T08:44:24.677Z</time>
      </trkpt>
      <trkpt lat="38.813173" lon="-0.868571">
        <ele>529.915465</ele>
        <time>2020-08-03T08:44:26.679Z</time>
      </trkpt>
      <trkpt lat="38.813239" lon="-0.868665">
        <ele>529.860500</ele>
        <time>2020-08-03T08:44:29.673Z</time>
      </trkpt>
      <trkpt lat="38.813310" lon="-0.868761">
        <ele>529.803005</ele>
        <time>2020-08-03T08:44:32.688Z</time>
      </trkpt>
      <trkpt lat="38.813390" lon="-0.868882">
        <ele>529.734072</ele>
        <time>2020-08-03T08:44:35.695Z</time>
      </trkpt>
      <trkpt lat="38.813464" lon="-0.869006">
        <ele>529.666225</ele>
        <time>2020-08-03T08:44:38.671Z</time>
      </trkpt>
      <trkpt lat="38.813527" lon="-0.869163">
        <ele>529.589514</ele>
        <time>2020-08-03T08:44:41.675Z</time>
      </trkpt>
      <trkpt lat="38.813575" lon="-0.869266">
        <ele>529.537380</ele>
        <time>2020-08-03T08:44:43.685Z</time>
      </trkpt>
      <trkpt lat="38.813630" lon="-0.869375">
        <ele>529.480971</ele>
        <time>2020-08-03T08:44:45.674Z</time>
      </trkpt>
      <trkpt lat="38.813697" lon="-0.869521">
        <ele>529.407369</ele>
        <time>2020-08-03T08:44:47.704Z</time>
      </trkpt>
      <trkpt lat="38.813758" lon="-0.869648">
        <ele>529.342562</ele>
        <time>2020-08-03T08:44:49.673Z</time>
      </trkpt>
      <trkpt lat="38.813824" lon="-0.869768">
        <ele>529.279471</ele>
        <time>2020-08-03T08:44:51.698Z</time>
      </trkpt>
      <trkpt lat="38.813885" lon="-0.869896">
        <ele>529.215171</ele>
        <time>2020-08-03T08:44:53.674Z</time>
      </trkpt>
      <trkpt lat="38.813954" lon="-0.870011">
        <ele>529.152971</ele>
        <time>2020-08-03T08:44:55.663Z</time>
      </trkpt>
      <trkpt lat="38.814036" lon="-0.870144">
        <ele>529.080290</ele>
        <time>2020-08-03T08:44:57.682Z</time>
      </trkpt>
      <trkpt lat="38.814107" lon="-0.870282">
        <ele>529.009423</ele>
        <time>2020-08-03T08:44:59.675Z</time>
      </trkpt>
      <trkpt lat="38.814181" lon="-0.870422">
        <ele>528.936925</ele>
        <time>2020-08-03T08:45:01.681Z</time>
      </trkpt>
      <trkpt lat="38.814248" lon="-0.870564">
        <ele>528.865785</ele>
        <time>2020-08-03T08:45:03.678Z</time>
      </trkpt>
      <trkpt lat="38.814323" lon="-0.870696">
        <ele>528.795775</ele>
        <time>2020-08-03T08:45:05.676Z</time>
      </trkpt>
      <trkpt lat="38.814386" lon="-0.870858">
        <ele>528.718185</ele>
        <time>2020-08-03T08:45:07.684Z</time>
      </trkpt>
      <trkpt lat="38.814465" lon="-0.870998">
        <ele>528.644109</ele>
        <time>2020-08-03T08:45:09.688Z</time>
      </trkpt>
      <trkpt lat="38.814531" lon="-0.871149">
        <ele>528.569914</ele>
        <time>2020-08-03T08:45:11.679Z</time>
      </trkpt>
      <trkpt lat="38.814611" lon="-0.871305">
        <ele>528.489882</ele>
        <time>2020-08-03T08:45:13.674Z</time>
      </trkpt>
      <trkpt lat="38.814684" lon="-0.871467">
        <ele>528.409685</ele>
        <time>2020-08-03T08:45:15.681Z</time>
      </trkpt>
      <trkpt lat="38.814739" lon="-0.871645">
        <ele>528.313354</ele>
        <time>2020-08-03T08:45:17.681Z</time>
      </trkpt>
      <trkpt lat="38.814794" lon="-0.871803">
        <ele>528.168053</ele>
        <time>2020-08-03T08:45:19.682Z</time>
      </trkpt>
      <trkpt lat="38.814856" lon="-0.871932">
        <ele>528.040791</ele>
        <time>2020-08-03T08:45:21.679Z</time>
      </trkpt>
      <trkpt lat="38.814933" lon="-0.872089">
        <ele>527.885027</ele>
        <time>2020-08-03T08:45:23.686Z</time>
      </trkpt>
      <trkpt lat="38.815027" lon="-0.872241">
        <ele>527.722089</ele>
        <time>2020-08-03T08:45:25.694Z</time>
      </trkpt>
      <trkpt lat="38.815096" lon="-0.872405">
        <ele>527.565596</ele>
        <time>2020-08-03T08:45:27.684Z</time>
      </trkpt>
      <trkpt lat="38.815164" lon="-0.872564">
        <ele>527.413306</ele>
        <time>2020-08-03T08:45:29.674Z</time>
      </trkpt>
      <trkpt lat="38.815242" lon="-0.872734">
        <ele>527.247658</ele>
        <time>2020-08-03T08:45:31.681Z</time>
      </trkpt>
      <trkpt lat="38.815318" lon="-0.872896">
        <ele>527.088885</ele>
        <time>2020-08-03T08:45:33.680Z</time>
      </trkpt>
      <trkpt lat="38.815411" lon="-0.873065">
        <ele>526.915165</ele>
        <time>2020-08-03T08:45:35.666Z</time>
      </trkpt>
      <trkpt lat="38.815489" lon="-0.873250">
        <ele>526.738550</ele>
        <time>2020-08-03T08:45:37.679Z</time>
      </trkpt>
      <trkpt lat="38.815584" lon="-0.873441">
        <ele>526.548291</ele>
        <time>2020-08-03T08:45:39.678Z</time>
      </trkpt>
      <trkpt lat="38.815673" lon="-0.873619">
        <ele>526.360294</ele>
        <time>2020-08-03T08:45:41.686Z</time>
      </trkpt>
      <trkpt lat="38.815750" lon="-0.873798">
        <ele>526.135348</ele>
        <time>2020-08-03T08:45:43.667Z</time>
      </trkpt>
      <trkpt lat="38.815836" lon="-0.873972">
        <ele>525.908657</ele>
        <time>2020-08-03T08:45:45.672Z</time>
      </trkpt>
      <trkpt lat="38.815916" lon="-0.874157">
        <ele>525.675885</ele>
        <time>2020-08-03T08:45:47.683Z</time>
      </trkpt>
      <trkpt lat="38.816001" lon="-0.874320">
        <ele>525.460105</ele>
        <time>2020-08-03T08:45:49.683Z</time>
      </trkpt>
      <trkpt lat="38.816086" lon="-0.874489">
        <ele>525.238809</ele>
        <time>2020-08-03T08:45:51.675Z</time>
      </trkpt>
      <trkpt lat="38.816155" lon="-0.874650">
        <ele>525.036659</ele>
        <time>2020-08-03T08:45:53.674Z</time>
      </trkpt>
      <trkpt lat="38.816235" lon="-0.874803">
        <ele>524.833949</ele>
        <time>2020-08-03T08:45:55.678Z</time>
      </trkpt>
      <trkpt lat="38.816309" lon="-0.874954">
        <ele>524.637700</ele>
        <time>2020-08-03T08:45:57.680Z</time>
      </trkpt>
      <trkpt lat="38.816400" lon="-0.875087">
        <ele>524.442974</ele>
        <time>2020-08-03T08:45:59.670Z</time>
      </trkpt>
      <trkpt lat="38.816471" lon="-0.875225">
        <ele>524.261042</ele>
        <time>2020-08-03T08:46:01.681Z</time>
      </trkpt>
      <trkpt lat="38.816530" lon="-0.875379">
        <ele>524.072248</ele>
        <time>2020-08-03T08:46:03.678Z</time>
      </trkpt>
      <trkpt lat="38.816593" lon="-0.875516">
        <ele>523.897236</ele>
        <time>2020-08-03T08:46:05.684Z</time>
      </trkpt>
      <trkpt lat="38.816662" lon="-0.875661">
        <ele>524.102032</ele>
        <time>2020-08-03T08:46:07.672Z</time>
      </trkpt>
      <trkpt lat="38.816736" lon="-0.875796">
        <ele>524.381274</ele>
        <time>2020-08-03T08:46:09.667Z</time>
      </trkpt>
      <trkpt lat="38.816801" lon="-0.875916">
        <ele>524.628522</ele>
        <time>2020-08-03T08:46:11.660Z</time>
      </trkpt>
      <trkpt lat="38.816867" lon="-0.876040">
        <ele>524.882573</ele>
        <time>2020-08-03T08:46:13.679Z</time>
      </trkpt>
      <trkpt lat="38.816918" lon="-0.876145">
        <ele>525.091895</ele>
        <time>2020-08-03T08:46:15.676Z</time>
      </trkpt>
      <trkpt lat="38.816991" lon="-0.876265">
        <ele>525.349453</ele>
        <time>2020-08-03T08:46:17.659Z</time>
      </trkpt>
      <trkpt lat="38.817021" lon="-0.876376">
        <ele>525.548213</ele>
        <time>2020-08-03T08:46:19.679Z</time>
      </trkpt>
      <trkpt lat="38.817002" lon="-0.876495">
        <ele>525.753714</ele>
        <time>2020-08-03T08:46:21.654Z</time>
      </trkpt>
      <trkpt lat="38.816919" lon="-0.876625">
        <ele>526.038047</ele>
        <time>2020-08-03T08:46:24.655Z</time>
      </trkpt>
      <trkpt lat="38.816840" lon="-0.876682">
        <ele>526.234823</ele>
        <time>2020-08-03T08:46:26.672Z</time>
      </trkpt>
      <trkpt lat="38.816741" lon="-0.876775">
        <ele>526.501205</ele>
        <time>2020-08-03T08:46:29.675Z</time>
      </trkpt>
      <trkpt lat="38.816659" lon="-0.876843">
        <ele>526.713180</ele>
        <time>2020-08-03T08:46:31.665Z</time>
      </trkpt>
      <trkpt lat="38.816558" lon="-0.876947">
        <ele>526.994334</ele>
        <time>2020-08-03T08:46:34.676Z</time>
      </trkpt>
      <trkpt lat="38.816484" lon="-0.877020">
        <ele>527.196985</ele>
        <time>2020-08-03T08:46:36.693Z</time>
      </trkpt>
      <trkpt lat="38.816413" lon="-0.877093">
        <ele>527.394513</ele>
        <time>2020-08-03T08:46:38.680Z</time>
      </trkpt>
      <trkpt lat="38.816337" lon="-0.877158">
        <ele>527.592812</ele>
        <time>2020-08-03T08:46:40.674Z</time>
      </trkpt>
      <trkpt lat="38.816227" lon="-0.877252">
        <ele>527.879372</ele>
        <time>2020-08-03T08:46:43.664Z</time>
      </trkpt>
      <trkpt lat="38.816119" lon="-0.877335">
        <ele>528.151756</ele>
        <time>2020-08-03T08:46:46.669Z</time>
      </trkpt>
      <trkpt lat="38.816011" lon="-0.877415">
        <ele>528.421576</ele>
        <time>2020-08-03T08:46:49.675Z</time>
      </trkpt>
      <trkpt lat="38.815910" lon="-0.877493">
        <ele>528.676635</ele>
        <time>2020-08-03T08:46:52.679Z</time>
      </trkpt>
      <trkpt lat="38.815806" lon="-0.877573">
        <ele>528.938995</ele>
        <time>2020-08-03T08:46:55.674Z</time>
      </trkpt>
      <trkpt lat="38.815700" lon="-0.877659">
        <ele>529.210345</ele>
        <time>2020-08-03T08:46:58.677Z</time>
      </trkpt>
      <trkpt lat="38.815594" lon="-0.877745">
        <ele>529.481694</ele>
        <time>2020-08-03T08:47:01.663Z</time>
      </trkpt>
      <trkpt lat="38.815490" lon="-0.877827">
        <ele>529.745804</ele>
        <time>2020-08-03T08:47:04.685Z</time>
      </trkpt>
      <trkpt lat="38.815395" lon="-0.877894">
        <ele>529.980357</ele>
        <time>2020-08-03T08:47:07.690Z</time>
      </trkpt>
      <trkpt lat="38.815302" lon="-0.877962">
        <ele>530.211958</ele>
        <time>2020-08-03T08:47:10.680Z</time>
      </trkpt>
      <trkpt lat="38.815215" lon="-0.878023">
        <ele>530.426470</ele>
        <time>2020-08-03T08:47:13.675Z</time>
      </trkpt>
      <trkpt lat="38.815124" lon="-0.878087">
        <ele>530.651003</ele>
        <time>2020-08-03T08:47:16.664Z</time>
      </trkpt>
      <trkpt lat="38.815034" lon="-0.878143">
        <ele>530.867425</ele>
        <time>2020-08-03T08:47:19.679Z</time>
      </trkpt>
      <trkpt lat="38.814951" lon="-0.878205">
        <ele>531.075227</ele>
        <time>2020-08-03T08:47:22.681Z</time>
      </trkpt>
      <trkpt lat="38.814870" lon="-0.878285">
        <ele>531.296385</ele>
        <time>2020-08-03T08:47:25.683Z</time>
      </trkpt>
      <trkpt lat="38.814785" lon="-0.878354">
        <ele>531.514012</ele>
        <time>2020-08-03T08:47:28.676Z</time>
      </trkpt>
      <trkpt lat="38.814694" lon="-0.878416">
        <ele>531.703141</ele>
        <time>2020-08-03T08:47:31.672Z</time>
      </trkpt>
      <trkpt lat="38.814613" lon="-0.878471">
        <ele>531.812097</ele>
        <time>2020-08-03T08:47:34.672Z</time>
      </trkpt>
      <trkpt lat="38.814514" lon="-0.878555">
        <ele>531.953205</ele>
        <time>2020-08-03T08:47:38.723Z</time>
      </trkpt>
      <trkpt lat="38.814417" lon="-0.878643">
        <ele>532.094442</ele>
        <time>2020-08-03T08:47:42.678Z</time>
      </trkpt>
      <trkpt lat="38.814327" lon="-0.878730">
        <ele>532.228409</ele>
        <time>2020-08-03T08:47:46.679Z</time>
      </trkpt>
      <trkpt lat="38.814225" lon="-0.878807">
        <ele>532.369110</ele>
        <time>2020-08-03T08:47:50.683Z</time>
      </trkpt>
      <trkpt lat="38.814149" lon="-0.878874">
        <ele>532.478738</ele>
        <time>2020-08-03T08:47:53.669Z</time>
      </trkpt>
      <trkpt lat="38.814070" lon="-0.878939">
        <ele>532.590313</ele>
        <time>2020-08-03T08:47:56.678Z</time>
      </trkpt>
      <trkpt lat="38.813994" lon="-0.879012">
        <ele>532.703181</ele>
        <time>2020-08-03T08:47:59.673Z</time>
      </trkpt>
      <trkpt lat="38.813921" lon="-0.879087">
        <ele>532.814363</ele>
        <time>2020-08-03T08:48:02.682Z</time>
      </trkpt>
      <trkpt lat="38.813839" lon="-0.879160">
        <ele>532.933020</ele>
        <time>2020-08-03T08:48:05.676Z</time>
      </trkpt>
      <trkpt lat="38.813755" lon="-0.879220">
        <ele>533.047321</ele>
        <time>2020-08-03T08:48:08.671Z</time>
      </trkpt>
      <trkpt lat="38.813654" lon="-0.879276">
        <ele>533.178136</ele>
        <time>2020-08-03T08:48:12.687Z</time>
      </trkpt>
      <trkpt lat="38.813565" lon="-0.879308">
        <ele>533.288030</ele>
        <time>2020-08-03T08:48:16.678Z</time>
      </trkpt>
      <trkpt lat="38.813480" lon="-0.879381">
        <ele>533.409635</ele>
        <time>2020-08-03T08:48:20.676Z</time>
      </trkpt>
      <trkpt lat="38.813412" lon="-0.879459">
        <ele>533.518073</ele>
        <time>2020-08-03T08:48:23.722Z</time>
      </trkpt>
      <trkpt lat="38.813321" lon="-0.879540">
        <ele>533.649747</ele>
        <time>2020-08-03T08:48:27.678Z</time>
      </trkpt>
      <trkpt lat="38.813232" lon="-0.879601">
        <ele>533.769712</ele>
        <time>2020-08-03T08:48:31.670Z</time>
      </trkpt>
      <trkpt lat="38.813139" lon="-0.879671">
        <ele>533.909027</ele>
        <time>2020-08-03T08:48:35.681Z</time>
      </trkpt>
      <trkpt lat="38.813036" lon="-0.879727">
        <ele>534.057215</ele>
        <time>2020-08-03T08:48:39.677Z</time>
      </trkpt>
      <trkpt lat="38.812934" lon="-0.879781">
        <ele>534.203384</ele>
        <time>2020-08-03T08:48:43.679Z</time>
      </trkpt>
      <trkpt lat="38.812851" lon="-0.879857">
        <ele>534.338456</ele>
        <time>2020-08-03T08:48:47.672Z</time>
      </trkpt>
      <trkpt lat="38.812770" lon="-0.879937">
        <ele>534.473857</ele>
        <time>2020-08-03T08:48:51.680Z</time>
      </trkpt>
      <trkpt lat="38.812674" lon="-0.880002">
        <ele>534.617647</ele>
        <time>2020-08-03T08:48:55.692Z</time>
      </trkpt>
      <trkpt lat="38.812580" lon="-0.880079">
        <ele>534.765377</ele>
        <time>2020-08-03T08:48:59.678Z</time>
      </trkpt>
      <trkpt lat="38.812483" lon="-0.880141">
        <ele>534.908933</ele>
        <time>2020-08-03T08:49:03.680Z</time>
      </trkpt>
      <trkpt lat="38.812388" lon="-0.880196">
        <ele>535.046996</ele>
        <time>2020-08-03T08:49:07.669Z</time>
      </trkpt>
      <trkpt lat="38.812299" lon="-0.880251">
        <ele>535.177856</ele>
        <time>2020-08-03T08:49:11.660Z</time>
      </trkpt>
      <trkpt lat="38.812212" lon="-0.880316">
        <ele>535.311217</ele>
        <time>2020-08-03T08:49:15.681Z</time>
      </trkpt>
      <trkpt lat="38.812125" lon="-0.880380">
        <ele>535.444061</ele>
        <time>2020-08-03T08:49:19.674Z</time>
      </trkpt>
      <trkpt lat="38.812036" lon="-0.880438">
        <ele>535.576294</ele>
        <time>2020-08-03T08:49:23.674Z</time>
      </trkpt>
      <trkpt lat="38.811932" lon="-0.880487">
        <ele>535.723059</ele>
        <time>2020-08-03T08:49:27.675Z</time>
      </trkpt>
      <trkpt lat="38.811840" lon="-0.880556">
        <ele>535.864222</ele>
        <time>2020-08-03T08:49:31.683Z</time>
      </trkpt>
      <trkpt lat="38.811759" lon="-0.880621">
        <ele>535.990777</ele>
        <time>2020-08-03T08:49:35.670Z</time>
      </trkpt>
      <trkpt lat="38.811671" lon="-0.880694">
        <ele>536.129588</ele>
        <time>2020-08-03T08:49:39.678Z</time>
      </trkpt>
      <trkpt lat="38.811575" lon="-0.880728">
        <ele>536.332989</ele>
        <time>2020-08-03T08:49:43.680Z</time>
      </trkpt>
      <trkpt lat="38.811461" lon="-0.880762">
        <ele>536.629553</ele>
        <time>2020-08-03T08:49:47.688Z</time>
      </trkpt>
      <trkpt lat="38.811350" lon="-0.880792">
        <ele>536.916988</ele>
        <time>2020-08-03T08:49:51.678Z</time>
      </trkpt>
      <trkpt lat="38.811234" lon="-0.880818">
        <ele>537.215371</ele>
        <time>2020-08-03T08:49:55.688Z</time>
      </trkpt>
      <trkpt lat="38.811116" lon="-0.880843">
        <ele>537.518420</ele>
        <time>2020-08-03T08:49:59.669Z</time>
      </trkpt>
      <trkpt lat="38.811026" lon="-0.880864">
        <ele>537.750211</ele>
        <time>2020-08-03T08:50:02.676Z</time>
      </trkpt>
      <trkpt lat="38.810931" lon="-0.880874">
        <ele>537.991741</ele>
        <time>2020-08-03T08:50:05.679Z</time>
      </trkpt>
      <trkpt lat="38.810836" lon="-0.880887">
        <ele>538.233828</ele>
        <time>2020-08-03T08:50:08.683Z</time>
      </trkpt>
      <trkpt lat="38.810741" lon="-0.880903">
        <ele>538.476614</ele>
        <time>2020-08-03T08:50:11.677Z</time>
      </trkpt>
      <trkpt lat="38.810648" lon="-0.880918">
        <ele>538.714122</ele>
        <time>2020-08-03T08:50:14.672Z</time>
      </trkpt>
      <trkpt lat="38.810530" lon="-0.880935">
        <ele>539.015002</ele>
        <time>2020-08-03T08:50:18.675Z</time>
      </trkpt>
      <trkpt lat="38.810420" lon="-0.880964">
        <ele>539.299553</ele>
        <time>2020-08-03T08:50:22.679Z</time>
      </trkpt>
      <trkpt lat="38.810306" lon="-0.881006">
        <ele>539.600087</ele>
        <time>2020-08-03T08:50:26.679Z</time>
      </trkpt>
      <trkpt lat="38.810213" lon="-0.881071">
        <ele>539.868424</ele>
        <time>2020-08-03T08:50:30.679Z</time>
      </trkpt>
      <trkpt lat="38.810132" lon="-0.881122">
        <ele>540.097043</ele>
        <time>2020-08-03T08:50:33.677Z</time>
      </trkpt>
      <trkpt lat="38.810026" lon="-0.881178">
        <ele>540.387507</ele>
        <time>2020-08-03T08:50:37.679Z</time>
      </trkpt>
      <trkpt lat="38.809941" lon="-0.881230">
        <ele>540.626111</ele>
        <time>2020-08-03T08:50:41.676Z</time>
      </trkpt>
      <trkpt lat="38.809863" lon="-0.881298">
        <ele>540.787358</ele>
        <time>2020-08-03T08:50:45.679Z</time>
      </trkpt>
      <trkpt lat="38.809770" lon="-0.881389">
        <ele>540.898367</ele>
        <time>2020-08-03T08:50:49.668Z</time>
      </trkpt>
      <trkpt lat="38.809642" lon="-0.881476">
        <ele>541.035854</ele>
        <time>2020-08-03T08:50:52.676Z</time>
      </trkpt>
      <trkpt lat="38.809537" lon="-0.881519">
        <ele>541.140472</ele>
        <time>2020-08-03T08:50:54.676Z</time>
      </trkpt>
      <trkpt lat="38.809426" lon="-0.881578">
        <ele>541.254514</ele>
        <time>2020-08-03T08:50:57.665Z</time>
      </trkpt>
      <trkpt lat="38.809348" lon="-0.881652">
        <ele>541.346587</ele>
        <time>2020-08-03T08:51:09.676Z</time>
      </trkpt>
      <trkpt lat="38.809263" lon="-0.881705">
        <ele>541.436289</ele>
        <time>2020-08-03T08:51:18.676Z</time>
      </trkpt>
      <trkpt lat="38.809170" lon="-0.881744">
        <ele>541.529159</ele>
        <time>2020-08-03T08:51:28.675Z</time>
      </trkpt>
      <trkpt lat="38.809068" lon="-0.881780">
        <ele>541.629573</ele>
        <time>2020-08-03T08:51:40.674Z</time>
      </trkpt>
      <trkpt lat="38.808980" lon="-0.881814">
        <ele>541.716807</ele>
        <time>2020-08-03T08:51:46.682Z</time>
      </trkpt>
      <trkpt lat="38.808906" lon="-0.881896">
        <ele>541.809610</ele>
        <time>2020-08-03T08:51:53.668Z</time>
      </trkpt>
      <trkpt lat="38.808683" lon="-0.882071">
        <ele>542.057724</ele>
        <time>2020-08-03T08:54:13.673Z</time>
      </trkpt>
      <trkpt lat="38.808593" lon="-0.882137">
        <ele>542.156117</ele>
        <time>2020-08-03T08:54:19.681Z</time>
      </trkpt>
      <trkpt lat="38.808511" lon="-0.882188">
        <ele>542.242611</ele>
        <time>2020-08-03T08:54:25.686Z</time>
      </trkpt>
      <trkpt lat="38.808438" lon="-0.882272">
        <ele>542.335679</ele>
        <time>2020-08-03T08:54:32.674Z</time>
      </trkpt>
      <trkpt lat="38.808357" lon="-0.882334">
        <ele>542.425203</ele>
        <time>2020-08-03T08:54:40.678Z</time>
      </trkpt>
      <trkpt lat="38.808271" lon="-0.882389">
        <ele>542.581866</ele>
        <time>2020-08-03T08:54:48.676Z</time>
      </trkpt>
      <trkpt lat="38.808193" lon="-0.882449">
        <ele>542.750906</ele>
        <time>2020-08-03T08:54:55.676Z</time>
      </trkpt>
      <trkpt lat="38.808132" lon="-0.882540">
        <ele>542.924776</ele>
        <time>2020-08-03T08:55:04.685Z</time>
      </trkpt>
      <trkpt lat="38.808088" lon="-0.882649">
        <ele>543.102587</ele>
        <time>2020-08-03T08:55:13.679Z</time>
      </trkpt>
      <trkpt lat="38.808050" lon="-0.882761">
        <ele>543.279527</ele>
        <time>2020-08-03T08:55:22.681Z</time>
      </trkpt>
      <trkpt lat="38.808016" lon="-0.882872">
        <ele>543.452284</ele>
        <time>2020-08-03T08:55:32.668Z</time>
      </trkpt>
      <trkpt lat="38.807915" lon="-0.883158">
        <ele>543.907105</ele>
        <time>2020-08-03T08:56:22.670Z</time>
      </trkpt>
      <trkpt lat="38.807952" lon="-0.883270">
        <ele>544.083311</ele>
        <time>2020-08-03T08:56:35.674Z</time>
      </trkpt>
      <trkpt lat="38.808044" lon="-0.883303">
        <ele>544.260877</ele>
        <time>2020-08-03T08:56:51.681Z</time>
      </trkpt>
      <trkpt lat="38.808143" lon="-0.883312">
        <ele>544.445361</ele>
        <time>2020-08-03T08:57:02.663Z</time>
      </trkpt>
      <trkpt lat="38.808237" lon="-0.883270">
        <ele>544.630377</ele>
        <time>2020-08-03T08:57:30.680Z</time>
      </trkpt>
      <trkpt lat="38.808342" lon="-0.883256">
        <ele>544.826603</ele>
        <time>2020-08-03T08:57:43.677Z</time>
      </trkpt>
      <trkpt lat="38.808426" lon="-0.883212">
        <ele>544.995250</ele>
        <time>2020-08-03T08:57:47.673Z</time>
      </trkpt>
      <trkpt lat="38.808519" lon="-0.883170">
        <ele>545.178512</ele>
        <time>2020-08-03T08:57:54.682Z</time>
      </trkpt>
      <trkpt lat="38.808616" lon="-0.883172">
        <ele>545.358840</ele>
        <time>2020-08-03T08:58:03.679Z</time>
      </trkpt>
      <trkpt lat="38.808639" lon="-0.883057">
        <ele>545.530813</ele>
        <time>2020-08-03T08:58:29.680Z</time>
      </trkpt>
      <trkpt lat="38.808506" lon="-0.883180">
        <ele>545.759283</ele>
        <time>2020-08-03T09:02:22.675Z</time>
      </trkpt>
      <trkpt lat="38.808407" lon="-0.883199">
        <ele>545.623565</ele>
        <time>2020-08-03T09:02:27.679Z</time>
      </trkpt>
      <trkpt lat="38.808313" lon="-0.883196">
        <ele>545.496079</ele>
        <time>2020-08-03T09:02:33.672Z</time>
      </trkpt>
      <trkpt lat="38.808221" lon="-0.883180">
        <ele>545.370204</ele>
        <time>2020-08-03T09:02:48.686Z</time>
      </trkpt>
      <trkpt lat="38.808422" lon="-0.883112">
        <ele>545.088374</ele>
        <time>2020-08-03T09:17:22.683Z</time>
      </trkpt>
      <trkpt lat="38.808511" lon="-0.883074">
        <ele>544.961203</ele>
        <time>2020-08-03T09:17:28.696Z</time>
      </trkpt>
      <trkpt lat="38.808609" lon="-0.883091">
        <ele>544.827125</ele>
        <time>2020-08-03T09:17:34.667Z</time>
      </trkpt>
      <trkpt lat="38.808704" lon="-0.883144">
        <ele>544.686677</ele>
        <time>2020-08-03T09:17:43.679Z</time>
      </trkpt>
      <trkpt lat="38.808791" lon="-0.883206">
        <ele>544.551754</ele>
        <time>2020-08-03T09:18:04.653Z</time>
      </trkpt>
      <trkpt lat="38.808890" lon="-0.883251">
        <ele>544.409357</ele>
        <time>2020-08-03T09:18:10.674Z</time>
      </trkpt>
      <trkpt lat="38.808953" lon="-0.883336">
        <ele>544.285419</ele>
        <time>2020-08-03T09:18:14.683Z</time>
      </trkpt>
      <trkpt lat="38.809010" lon="-0.883458">
        <ele>544.135133</ele>
        <time>2020-08-03T09:18:18.686Z</time>
      </trkpt>
      <trkpt lat="38.809098" lon="-0.883538">
        <ele>543.988917</ele>
        <time>2020-08-03T09:18:22.675Z</time>
      </trkpt>
      <trkpt lat="38.809183" lon="-0.883595">
        <ele>543.858888</ele>
        <time>2020-08-03T09:18:25.671Z</time>
      </trkpt>
      <trkpt lat="38.809268" lon="-0.883658">
        <ele>543.725803</ele>
        <time>2020-08-03T09:18:28.681Z</time>
      </trkpt>
      <trkpt lat="38.809358" lon="-0.883700">
        <ele>543.595962</ele>
        <time>2020-08-03T09:18:31.681Z</time>
      </trkpt>
      <trkpt lat="38.809445" lon="-0.883738">
        <ele>543.471361</ele>
        <time>2020-08-03T09:18:34.683Z</time>
      </trkpt>
      <trkpt lat="38.809535" lon="-0.883778">
        <ele>543.334933</ele>
        <time>2020-08-03T09:18:37.672Z</time>
      </trkpt>
      <trkpt lat="38.809657" lon="-0.883839">
        <ele>543.035148</ele>
        <time>2020-08-03T09:18:40.672Z</time>
      </trkpt>
      <trkpt lat="38.809782" lon="-0.883899">
        <ele>542.729582</ele>
        <time>2020-08-03T09:18:42.683Z</time>
      </trkpt>
      <trkpt lat="38.809898" lon="-0.883954">
        <ele>542.446440</ele>
        <time>2020-08-03T09:18:44.679Z</time>
      </trkpt>
      <trkpt lat="38.809995" lon="-0.884033">
        <ele>542.183399</ele>
        <time>2020-08-03T09:18:46.674Z</time>
      </trkpt>
      <trkpt lat="38.810114" lon="-0.884098">
        <ele>541.887283</ele>
        <time>2020-08-03T09:18:48.692Z</time>
      </trkpt>
      <trkpt lat="38.810273" lon="-0.884144">
        <ele>541.514099</ele>
        <time>2020-08-03T09:18:50.671Z</time>
      </trkpt>
      <trkpt lat="38.810428" lon="-0.884242">
        <ele>541.118477</ele>
        <time>2020-08-03T09:18:52.673Z</time>
      </trkpt>
      <trkpt lat="38.810507" lon="-0.884300">
        <ele>540.910090</ele>
        <time>2020-08-03T09:18:53.670Z</time>
      </trkpt>
      <trkpt lat="38.810584" lon="-0.884362">
        <ele>540.701962</ele>
        <time>2020-08-03T09:18:54.676Z</time>
      </trkpt>
      <trkpt lat="38.810676" lon="-0.884401">
        <ele>540.480124</ele>
        <time>2020-08-03T09:18:55.668Z</time>
      </trkpt>
      <trkpt lat="38.810772" lon="-0.884424">
        <ele>540.256524</ele>
        <time>2020-08-03T09:18:56.691Z</time>
      </trkpt>
      <trkpt lat="38.810944" lon="-0.884514">
        <ele>539.831235</ele>
        <time>2020-08-03T09:18:58.673Z</time>
      </trkpt>
      <trkpt lat="38.811126" lon="-0.884575">
        <ele>539.400549</ele>
        <time>2020-08-03T09:19:00.677Z</time>
      </trkpt>
      <trkpt lat="38.811218" lon="-0.884605">
        <ele>539.233926</ele>
        <time>2020-08-03T09:19:01.662Z</time>
      </trkpt>
      <trkpt lat="38.811314" lon="-0.884614">
        <ele>539.230901</ele>
        <time>2020-08-03T09:19:02.674Z</time>
      </trkpt>
      <trkpt lat="38.811486" lon="-0.884629">
        <ele>539.225484</ele>
        <time>2020-08-03T09:19:04.675Z</time>
      </trkpt>
      <trkpt lat="38.811634" lon="-0.884638">
        <ele>539.220829</ele>
        <time>2020-08-03T09:19:06.672Z</time>
      </trkpt>
      <trkpt lat="38.811733" lon="-0.884630">
        <ele>539.217712</ele>
        <time>2020-08-03T09:19:09.681Z</time>
      </trkpt>
      <trkpt lat="38.811840" lon="-0.884663">
        <ele>539.214254</ele>
        <time>2020-08-03T09:19:30.672Z</time>
      </trkpt>
      <trkpt lat="38.811935" lon="-0.884744">
        <ele>539.210670</ele>
        <time>2020-08-03T09:19:34.677Z</time>
      </trkpt>
      <trkpt lat="38.812007" lon="-0.884817">
        <ele>539.207786</ele>
        <time>2020-08-03T09:19:37.679Z</time>
      </trkpt>
      <trkpt lat="38.812095" lon="-0.884919">
        <ele>539.204060</ele>
        <time>2020-08-03T09:19:40.672Z</time>
      </trkpt>
      <trkpt lat="38.812164" lon="-0.885038">
        <ele>539.200429</ele>
        <time>2020-08-03T09:19:42.687Z</time>
      </trkpt>
      <trkpt lat="38.812245" lon="-0.885132">
        <ele>539.196997</ele>
        <time>2020-08-03T09:19:44.683Z</time>
      </trkpt>
      <trkpt lat="38.812343" lon="-0.885224">
        <ele>539.193182</ele>
        <time>2020-08-03T09:19:46.675Z</time>
      </trkpt>
      <trkpt lat="38.812433" lon="-0.885329">
        <ele>539.189360</ele>
        <time>2020-08-03T09:19:48.676Z</time>
      </trkpt>
      <trkpt lat="38.812540" lon="-0.885416">
        <ele>539.185380</ele>
        <time>2020-08-03T09:19:50.683Z</time>
      </trkpt>
      <trkpt lat="38.812647" lon="-0.885513">
        <ele>539.181263</ele>
        <time>2020-08-03T09:19:52.678Z</time>
      </trkpt>
      <trkpt lat="38.812759" lon="-0.885590">
        <ele>539.137666</ele>
        <time>2020-08-03T09:19:54.674Z</time>
      </trkpt>
      <trkpt lat="38.812874" lon="-0.885666">
        <ele>538.942688</ele>
        <time>2020-08-03T09:19:56.667Z</time>
      </trkpt>
      <trkpt lat="38.813004" lon="-0.885742">
        <ele>538.727360</ele>
        <time>2020-08-03T09:19:58.674Z</time>
      </trkpt>
      <trkpt lat="38.813139" lon="-0.885819">
        <ele>538.504676</ele>
        <time>2020-08-03T09:20:00.676Z</time>
      </trkpt>
      <trkpt lat="38.813257" lon="-0.885893">
        <ele>538.306710</ele>
        <time>2020-08-03T09:20:02.676Z</time>
      </trkpt>
      <trkpt lat="38.813370" lon="-0.885968">
        <ele>538.114950</ele>
        <time>2020-08-03T09:20:04.677Z</time>
      </trkpt>
      <trkpt lat="38.813479" lon="-0.886037">
        <ele>537.931749</ele>
        <time>2020-08-03T09:20:06.680Z</time>
      </trkpt>
      <trkpt lat="38.813607" lon="-0.886090">
        <ele>537.729015</ele>
        <time>2020-08-03T09:20:08.681Z</time>
      </trkpt>
      <trkpt lat="38.813713" lon="-0.886158">
        <ele>537.550388</ele>
        <time>2020-08-03T09:20:10.673Z</time>
      </trkpt>
      <trkpt lat="38.813837" lon="-0.886231">
        <ele>537.344750</ele>
        <time>2020-08-03T09:20:12.674Z</time>
      </trkpt>
      <trkpt lat="38.813965" lon="-0.886315">
        <ele>537.128049</ele>
        <time>2020-08-03T09:20:14.667Z</time>
      </trkpt>
      <trkpt lat="38.814109" lon="-0.886387">
        <ele>536.895100</ele>
        <time>2020-08-03T09:20:16.674Z</time>
      </trkpt>
      <trkpt lat="38.814243" lon="-0.886464">
        <ele>536.673793</ele>
        <time>2020-08-03T09:20:18.672Z</time>
      </trkpt>
      <trkpt lat="38.814379" lon="-0.886542">
        <ele>536.446941</ele>
        <time>2020-08-03T09:20:20.676Z</time>
      </trkpt>
      <trkpt lat="38.814497" lon="-0.886635">
        <ele>536.210880</ele>
        <time>2020-08-03T09:20:22.672Z</time>
      </trkpt>
      <trkpt lat="38.814621" lon="-0.886725">
        <ele>535.968030</ele>
        <time>2020-08-03T09:20:24.663Z</time>
      </trkpt>
      <trkpt lat="38.814766" lon="-0.886805">
        <ele>535.698971</ele>
        <time>2020-08-03T09:20:26.674Z</time>
      </trkpt>
      <trkpt lat="38.814868" lon="-0.886888">
        <ele>535.493083</ele>
        <time>2020-08-03T09:20:28.687Z</time>
      </trkpt>
      <trkpt lat="38.815022" lon="-0.886983">
        <ele>535.201802</ele>
        <time>2020-08-03T09:20:30.663Z</time>
      </trkpt>
      <trkpt lat="38.815163" lon="-0.887077">
        <ele>534.930940</ele>
        <time>2020-08-03T09:20:32.673Z</time>
      </trkpt>
      <trkpt lat="38.815261" lon="-0.887187">
        <ele>534.708997</ele>
        <time>2020-08-03T09:20:34.673Z</time>
      </trkpt>
      <trkpt lat="38.815396" lon="-0.887245">
        <ele>534.466305</ele>
        <time>2020-08-03T09:20:36.669Z</time>
      </trkpt>
      <trkpt lat="38.815533" lon="-0.887304">
        <ele>534.219959</ele>
        <time>2020-08-03T09:20:38.670Z</time>
      </trkpt>
      <trkpt lat="38.815657" lon="-0.887311">
        <ele>534.008367</ele>
        <time>2020-08-03T09:20:40.681Z</time>
      </trkpt>
      <trkpt lat="38.815791" lon="-0.887265">
        <ele>533.771903</ele>
        <time>2020-08-03T09:20:42.677Z</time>
      </trkpt>
      <trkpt lat="38.815912" lon="-0.887186">
        <ele>533.540473</ele>
        <time>2020-08-03T09:20:44.682Z</time>
      </trkpt>
      <trkpt lat="38.816020" lon="-0.887101">
        <ele>533.404520</ele>
        <time>2020-08-03T09:20:46.675Z</time>
      </trkpt>
      <trkpt lat="38.816120" lon="-0.886999">
        <ele>533.415358</ele>
        <time>2020-08-03T09:20:48.671Z</time>
      </trkpt>
      <trkpt lat="38.816196" lon="-0.886885">
        <ele>533.425277</ele>
        <time>2020-08-03T09:20:50.659Z</time>
      </trkpt>
      <trkpt lat="38.816266" lon="-0.886766">
        <ele>533.435134</ele>
        <time>2020-08-03T09:20:52.677Z</time>
      </trkpt>
      <trkpt lat="38.816321" lon="-0.886643">
        <ele>533.444509</ele>
        <time>2020-08-03T09:20:54.668Z</time>
      </trkpt>
      <trkpt lat="38.816383" lon="-0.886518">
        <ele>533.454305</ele>
        <time>2020-08-03T09:20:56.665Z</time>
      </trkpt>
      <trkpt lat="38.816472" lon="-0.886406">
        <ele>533.464880</ele>
        <time>2020-08-03T09:20:58.673Z</time>
      </trkpt>
      <trkpt lat="38.816564" lon="-0.886305">
        <ele>533.475152</ele>
        <time>2020-08-03T09:21:00.675Z</time>
      </trkpt>
      <trkpt lat="38.816655" lon="-0.886254">
        <ele>533.483577</ele>
        <time>2020-08-03T09:21:02.672Z</time>
      </trkpt>
      <trkpt lat="38.816773" lon="-0.886208">
        <ele>533.494041</ele>
        <time>2020-08-03T09:21:04.672Z</time>
      </trkpt>
      <trkpt lat="38.816875" lon="-0.886210">
        <ele>533.502696</ele>
        <time>2020-08-03T09:21:06.669Z</time>
      </trkpt>
      <trkpt lat="38.816967" lon="-0.886236">
        <ele>533.510689</ele>
        <time>2020-08-03T09:21:08.666Z</time>
      </trkpt>
      <trkpt lat="38.817071" lon="-0.886291">
        <ele>533.520232</ele>
        <time>2020-08-03T09:21:10.659Z</time>
      </trkpt>
      <trkpt lat="38.817159" lon="-0.886407">
        <ele>533.530935</ele>
        <time>2020-08-03T09:21:13.678Z</time>
      </trkpt>
      <trkpt lat="38.817215" lon="-0.886505">
        <ele>533.538969</ele>
        <time>2020-08-03T09:21:15.662Z</time>
      </trkpt>
      <trkpt lat="38.817231" lon="-0.886621">
        <ele>533.546757</ele>
        <time>2020-08-03T09:21:17.669Z</time>
      </trkpt>
      <trkpt lat="38.817220" lon="-0.886745">
        <ele>533.568615</ele>
        <time>2020-08-03T09:21:19.673Z</time>
      </trkpt>
      <trkpt lat="38.817205" lon="-0.886860">
        <ele>533.638990</ele>
        <time>2020-08-03T09:21:21.675Z</time>
      </trkpt>
      <trkpt lat="38.817154" lon="-0.886984">
        <ele>533.723618</ele>
        <time>2020-08-03T09:21:23.672Z</time>
      </trkpt>
      <trkpt lat="38.817166" lon="-0.887149">
        <ele>533.823637</ele>
        <time>2020-08-03T09:21:26.656Z</time>
      </trkpt>
      <trkpt lat="38.817191" lon="-0.887264">
        <ele>533.895697</ele>
        <time>2020-08-03T09:21:28.675Z</time>
      </trkpt>
      <trkpt lat="38.817199" lon="-0.887381">
        <ele>533.966585</ele>
        <time>2020-08-03T09:21:30.689Z</time>
      </trkpt>
      <trkpt lat="38.817160" lon="-0.887538">
        <ele>534.066042</ele>
        <time>2020-08-03T09:21:33.671Z</time>
      </trkpt>
      <trkpt lat="38.817105" lon="-0.887637">
        <ele>534.139428</ele>
        <time>2020-08-03T09:21:35.675Z</time>
      </trkpt>
      <trkpt lat="38.816997" lon="-0.887730">
        <ele>534.240174</ele>
        <time>2020-08-03T09:21:38.664Z</time>
      </trkpt>
      <trkpt lat="38.816891" lon="-0.887772">
        <ele>534.326109</ele>
        <time>2020-08-03T09:21:40.676Z</time>
      </trkpt>
      <trkpt lat="38.816785" lon="-0.887783">
        <ele>534.408488</ele>
        <time>2020-08-03T09:21:42.658Z</time>
      </trkpt>
      <trkpt lat="38.816684" lon="-0.887767">
        <ele>534.487320</ele>
        <time>2020-08-03T09:21:44.674Z</time>
      </trkpt>
      <trkpt lat="38.816585" lon="-0.887788">
        <ele>534.565049</ele>
        <time>2020-08-03T09:21:46.671Z</time>
      </trkpt>
      <trkpt lat="38.816475" lon="-0.887804">
        <ele>534.650804</ele>
        <time>2020-08-03T09:21:48.677Z</time>
      </trkpt>
      <trkpt lat="38.816365" lon="-0.887802">
        <ele>534.736022</ele>
        <time>2020-08-03T09:21:50.685Z</time>
      </trkpt>
      <trkpt lat="38.816276" lon="-0.887817">
        <ele>534.805557</ele>
        <time>2020-08-03T09:21:52.687Z</time>
      </trkpt>
      <trkpt lat="38.816164" lon="-0.887908">
        <ele>534.908240</ele>
        <time>2020-08-03T09:21:55.680Z</time>
      </trkpt>
      <trkpt lat="38.816088" lon="-0.887975">
        <ele>534.952751</ele>
        <time>2020-08-03T09:21:57.677Z</time>
      </trkpt>
      <trkpt lat="38.816017" lon="-0.888055">
        <ele>534.966327</ele>
        <time>2020-08-03T09:22:00.672Z</time>
      </trkpt>
      <trkpt lat="38.815937" lon="-0.888135">
        <ele>534.980899</ele>
        <time>2020-08-03T09:22:05.680Z</time>
      </trkpt>
      <trkpt lat="38.815862" lon="-0.888227">
        <ele>534.995805</ele>
        <time>2020-08-03T09:22:10.670Z</time>
      </trkpt>
      <trkpt lat="38.815806" lon="-0.888319">
        <ele>535.008876</ele>
        <time>2020-08-03T09:22:13.674Z</time>
      </trkpt>
      <trkpt lat="38.815747" lon="-0.888409">
        <ele>535.022043</ele>
        <time>2020-08-03T09:22:16.673Z</time>
      </trkpt>
      <trkpt lat="38.815674" lon="-0.888521">
        <ele>535.038391</ele>
        <time>2020-08-03T09:22:20.671Z</time>
      </trkpt>
      <trkpt lat="38.815635" lon="-0.888637">
        <ele>535.052535</ele>
        <time>2020-08-03T09:22:25.672Z</time>
      </trkpt>
      <trkpt lat="38.815580" lon="-0.888774">
        <ele>535.069789</ele>
        <time>2020-08-03T09:22:28.677Z</time>
      </trkpt>
      <trkpt lat="38.815564" lon="-0.888907">
        <ele>535.084855</ele>
        <time>2020-08-03T09:22:31.666Z</time>
      </trkpt>
      <trkpt lat="38.815601" lon="-0.889024">
        <ele>535.098991</ele>
        <time>2020-08-03T09:22:34.673Z</time>
      </trkpt>
      <trkpt lat="38.815632" lon="-0.889165">
        <ele>535.115393</ele>
        <time>2020-08-03T09:22:38.677Z</time>
      </trkpt>
      <trkpt lat="38.815616" lon="-0.889315">
        <ele>535.132343</ele>
        <time>2020-08-03T09:22:42.673Z</time>
      </trkpt>
      <trkpt lat="38.815602" lon="-0.889430">
        <ele>535.145374</ele>
        <time>2020-08-03T09:22:45.674Z</time>
      </trkpt>
      <trkpt lat="38.815651" lon="-0.889537">
        <ele>535.159268</ele>
        <time>2020-08-03T09:22:48.677Z</time>
      </trkpt>
      <trkpt lat="38.815744" lon="-0.889570">
        <ele>535.173132</ele>
        <time>2020-08-03T09:22:51.664Z</time>
      </trkpt>
      <trkpt lat="38.815848" lon="-0.889544">
        <ele>535.188356</ele>
        <time>2020-08-03T09:22:54.663Z</time>
      </trkpt>
      <trkpt lat="38.815936" lon="-0.889507">
        <ele>535.201662</ele>
        <time>2020-08-03T09:22:57.675Z</time>
      </trkpt>
      <trkpt lat="38.816035" lon="-0.889493">
        <ele>535.171593</ele>
        <time>2020-08-03T09:23:00.690Z</time>
      </trkpt>
      <trkpt lat="38.816144" lon="-0.889499">
        <ele>535.123522</ele>
        <time>2020-08-03T09:23:03.674Z</time>
      </trkpt>
      <trkpt lat="38.816265" lon="-0.889534">
        <ele>535.068871</ele>
        <time>2020-08-03T09:23:06.672Z</time>
      </trkpt>
      <trkpt lat="38.816353" lon="-0.889573">
        <ele>535.027851</ele>
        <time>2020-08-03T09:23:08.677Z</time>
      </trkpt>
      <trkpt lat="38.816479" lon="-0.889636">
        <ele>534.968270</ele>
        <time>2020-08-03T09:23:11.672Z</time>
      </trkpt>
      <trkpt lat="38.816578" lon="-0.889667">
        <ele>534.923370</ele>
        <time>2020-08-03T09:23:13.671Z</time>
      </trkpt>
      <trkpt lat="38.816672" lon="-0.889705">
        <ele>534.879947</ele>
        <time>2020-08-03T09:23:15.674Z</time>
      </trkpt>
      <trkpt lat="38.816784" lon="-0.889768">
        <ele>534.826067</ele>
        <time>2020-08-03T09:23:18.676Z</time>
      </trkpt>
      <trkpt lat="38.816889" lon="-0.889803">
        <ele>534.778269</ele>
        <time>2020-08-03T09:23:21.685Z</time>
      </trkpt>
      <trkpt lat="38.817014" lon="-0.889863">
        <ele>534.719467</ele>
        <time>2020-08-03T09:23:24.678Z</time>
      </trkpt>
      <trkpt lat="38.817134" lon="-0.889911">
        <ele>534.664085</ele>
        <time>2020-08-03T09:23:27.676Z</time>
      </trkpt>
      <trkpt lat="38.817251" lon="-0.889964">
        <ele>534.609417</ele>
        <time>2020-08-03T09:23:30.665Z</time>
      </trkpt>
      <trkpt lat="38.817365" lon="-0.890027">
        <ele>534.554729</ele>
        <time>2020-08-03T09:23:33.674Z</time>
      </trkpt>
      <trkpt lat="38.817481" lon="-0.890088">
        <ele>534.499495</ele>
        <time>2020-08-03T09:23:36.677Z</time>
      </trkpt>
      <trkpt lat="38.817611" lon="-0.890146">
        <ele>534.438853</ele>
        <time>2020-08-03T09:23:39.670Z</time>
      </trkpt>
      <trkpt lat="38.817706" lon="-0.890184">
        <ele>534.415511</ele>
        <time>2020-08-03T09:23:41.683Z</time>
      </trkpt>
      <trkpt lat="38.817801" lon="-0.890208">
        <ele>534.422686</ele>
        <time>2020-08-03T09:23:43.673Z</time>
      </trkpt>
      <trkpt lat="38.817896" lon="-0.890238">
        <ele>534.429936</ele>
        <time>2020-08-03T09:23:45.680Z</time>
      </trkpt>
      <trkpt lat="38.817982" lon="-0.890283">
        <ele>534.436818</ele>
        <time>2020-08-03T09:23:47.672Z</time>
      </trkpt>
      <trkpt lat="38.818071" lon="-0.890307">
        <ele>534.443557</ele>
        <time>2020-08-03T09:23:49.672Z</time>
      </trkpt>
      <trkpt lat="38.818157" lon="-0.890363">
        <ele>534.450703</ele>
        <time>2020-08-03T09:23:51.677Z</time>
      </trkpt>
      <trkpt lat="38.818246" lon="-0.890405">
        <ele>534.457730</ele>
        <time>2020-08-03T09:23:53.672Z</time>
      </trkpt>
      <trkpt lat="38.818365" lon="-0.890466">
        <ele>534.467225</ele>
        <time>2020-08-03T09:23:56.675Z</time>
      </trkpt>
      <trkpt lat="38.818454" lon="-0.890516">
        <ele>534.474424</ele>
        <time>2020-08-03T09:23:58.653Z</time>
      </trkpt>
      <trkpt lat="38.818588" lon="-0.890557">
        <ele>534.484632</ele>
        <time>2020-08-03T09:24:01.676Z</time>
      </trkpt>
      <trkpt lat="38.818707" lon="-0.890604">
        <ele>534.493858</ele>
        <time>2020-08-03T09:24:04.673Z</time>
      </trkpt>
      <trkpt lat="38.818823" lon="-0.890669">
        <ele>534.503237</ele>
        <time>2020-08-03T09:24:07.683Z</time>
      </trkpt>
      <trkpt lat="38.818927" lon="-0.890703">
        <ele>534.511190</ele>
        <time>2020-08-03T09:24:09.668Z</time>
      </trkpt>
      <trkpt lat="38.819029" lon="-0.890739">
        <ele>534.519029</ele>
        <time>2020-08-03T09:24:11.672Z</time>
      </trkpt>
      <trkpt lat="38.819116" lon="-0.890777">
        <ele>534.525839</ele>
        <time>2020-08-03T09:24:13.684Z</time>
      </trkpt>
      <trkpt lat="38.819204" lon="-0.890835">
        <ele>534.533169</ele>
        <time>2020-08-03T09:24:15.679Z</time>
      </trkpt>
      <trkpt lat="38.819304" lon="-0.890869">
        <ele>534.540835</ele>
        <time>2020-08-03T09:24:17.682Z</time>
      </trkpt>
      <trkpt lat="38.819440" lon="-0.890930">
        <ele>534.594232</ele>
        <time>2020-08-03T09:24:20.672Z</time>
      </trkpt>
      <trkpt lat="38.819545" lon="-0.890965">
        <ele>534.662858</ele>
        <time>2020-08-03T09:24:22.675Z</time>
      </trkpt>
      <trkpt lat="38.819639" lon="-0.890995">
        <ele>534.724132</ele>
        <time>2020-08-03T09:24:24.675Z</time>
      </trkpt>
      <trkpt lat="38.819753" lon="-0.891030">
        <ele>534.798282</ele>
        <time>2020-08-03T09:24:26.689Z</time>
      </trkpt>
      <trkpt lat="38.819868" lon="-0.891039">
        <ele>534.871165</ele>
        <time>2020-08-03T09:24:28.676Z</time>
      </trkpt>
      <trkpt lat="38.819958" lon="-0.891100">
        <ele>534.935549</ele>
        <time>2020-08-03T09:24:30.675Z</time>
      </trkpt>
      <trkpt lat="38.820080" lon="-0.891107">
        <ele>535.012803</ele>
        <time>2020-08-03T09:24:32.667Z</time>
      </trkpt>
      <trkpt lat="38.820208" lon="-0.891103">
        <ele>535.093799</ele>
        <time>2020-08-03T09:24:34.678Z</time>
      </trkpt>
      <trkpt lat="38.820351" lon="-0.891147">
        <ele>535.186822</ele>
        <time>2020-08-03T09:24:37.673Z</time>
      </trkpt>
      <trkpt lat="38.820517" lon="-0.891180">
        <ele>535.293085</ele>
        <time>2020-08-03T09:24:40.673Z</time>
      </trkpt>
      <trkpt lat="38.820678" lon="-0.891194">
        <ele>535.395166</ele>
        <time>2020-08-03T09:24:42.674Z</time>
      </trkpt>
      <trkpt lat="38.820782" lon="-0.891230">
        <ele>535.463306</ele>
        <time>2020-08-03T09:24:44.670Z</time>
      </trkpt>
      <trkpt lat="38.820930" lon="-0.891252">
        <ele>535.557555</ele>
        <time>2020-08-03T09:24:46.675Z</time>
      </trkpt>
      <trkpt lat="38.821070" lon="-0.891261">
        <ele>535.646229</ele>
        <time>2020-08-03T09:24:48.682Z</time>
      </trkpt>
      <trkpt lat="38.821217" lon="-0.891290">
        <ele>535.679142</ele>
        <time>2020-08-03T09:24:50.675Z</time>
      </trkpt>
      <trkpt lat="38.821352" lon="-0.891339">
        <ele>535.672079</ele>
        <time>2020-08-03T09:24:52.673Z</time>
      </trkpt>
      <trkpt lat="38.821489" lon="-0.891411">
        <ele>535.664627</ele>
        <time>2020-08-03T09:24:54.677Z</time>
      </trkpt>
      <trkpt lat="38.821626" lon="-0.891485">
        <ele>535.657144</ele>
        <time>2020-08-03T09:24:56.679Z</time>
      </trkpt>
      <trkpt lat="38.821747" lon="-0.891585">
        <ele>535.649899</ele>
        <time>2020-08-03T09:24:58.675Z</time>
      </trkpt>
      <trkpt lat="38.821856" lon="-0.891712">
        <ele>535.642488</ele>
        <time>2020-08-03T09:25:00.682Z</time>
      </trkpt>
      <trkpt lat="38.821951" lon="-0.891834">
        <ele>535.635723</ele>
        <time>2020-08-03T09:25:02.676Z</time>
      </trkpt>
      <trkpt lat="38.822031" lon="-0.891985">
        <ele>535.628562</ele>
        <time>2020-08-03T09:25:04.686Z</time>
      </trkpt>
      <trkpt lat="38.822113" lon="-0.892149">
        <ele>535.620919</ele>
        <time>2020-08-03T09:25:06.665Z</time>
      </trkpt>
      <trkpt lat="38.822179" lon="-0.892308">
        <ele>535.613853</ele>
        <time>2020-08-03T09:25:08.677Z</time>
      </trkpt>
      <trkpt lat="38.822242" lon="-0.892465">
        <ele>535.606926</ele>
        <time>2020-08-03T09:25:10.670Z</time>
      </trkpt>
      <trkpt lat="38.822302" lon="-0.892617">
        <ele>535.600243</ele>
        <time>2020-08-03T09:25:12.675Z</time>
      </trkpt>
      <trkpt lat="38.822366" lon="-0.892785">
        <ele>535.576022</ele>
        <time>2020-08-03T09:25:14.674Z</time>
      </trkpt>
      <trkpt lat="38.822427" lon="-0.892916">
        <ele>535.055052</ele>
        <time>2020-08-03T09:25:16.684Z</time>
      </trkpt>
      <trkpt lat="38.822496" lon="-0.893071">
        <ele>534.445659</ele>
        <time>2020-08-03T09:25:18.683Z</time>
      </trkpt>
      <trkpt lat="38.822561" lon="-0.893196">
        <ele>533.932643</ele>
        <time>2020-08-03T09:25:20.670Z</time>
      </trkpt>
      <trkpt lat="38.822633" lon="-0.893316">
        <ele>533.415611</ele>
        <time>2020-08-03T09:25:22.675Z</time>
      </trkpt>
      <trkpt lat="38.822701" lon="-0.893444">
        <ele>532.886754</ele>
        <time>2020-08-03T09:25:24.680Z</time>
      </trkpt>
      <trkpt lat="38.822767" lon="-0.893594">
        <ele>532.298696</ele>
        <time>2020-08-03T09:25:26.672Z</time>
      </trkpt>
      <trkpt lat="38.822830" lon="-0.893752">
        <ele>531.692813</ele>
        <time>2020-08-03T09:25:28.667Z</time>
      </trkpt>
      <trkpt lat="38.822895" lon="-0.893897">
        <ele>531.121754</ele>
        <time>2020-08-03T09:25:30.698Z</time>
      </trkpt>
      <trkpt lat="38.822943" lon="-0.894053">
        <ele>530.549206</ele>
        <time>2020-08-03T09:25:32.671Z</time>
      </trkpt>
      <trkpt lat="38.822986" lon="-0.894200">
        <ele>530.013204</ele>
        <time>2020-08-03T09:25:34.682Z</time>
      </trkpt>
      <trkpt lat="38.823057" lon="-0.894323">
        <ele>529.490643</ele>
        <time>2020-08-03T09:25:36.670Z</time>
      </trkpt>
      <trkpt lat="38.823113" lon="-0.894449">
        <ele>528.995465</ele>
        <time>2020-08-03T09:25:38.668Z</time>
      </trkpt>
      <trkpt lat="38.823166" lon="-0.894583">
        <ele>528.482473</ele>
        <time>2020-08-03T09:25:40.671Z</time>
      </trkpt>
      <trkpt lat="38.823207" lon="-0.894730">
        <ele>527.949489</ele>
        <time>2020-08-03T09:25:42.670Z</time>
      </trkpt>
      <trkpt lat="38.823260" lon="-0.894838">
        <ele>525.831919</ele>
        <time>2020-08-03T09:25:44.673Z</time>
      </trkpt>
      <trkpt lat="38.823337" lon="-0.894933">
        <ele>521.399050</ele>
        <time>2020-08-03T09:25:46.672Z</time>
      </trkpt>
      <trkpt lat="38.823372" lon="-0.895074">
        <ele>516.613865</ele>
        <time>2020-08-03T09:25:48.675Z</time>
      </trkpt>
      <trkpt lat="38.823424" lon="-0.895178">
        <ele>512.617946</ele>
        <time>2020-08-03T09:25:50.673Z</time>
      </trkpt>
      <trkpt lat="38.823477" lon="-0.895298">
        <ele>508.157487</ele>
        <time>2020-08-03T09:25:52.672Z</time>
      </trkpt>
      <trkpt lat="38.823545" lon="-0.895414">
        <ele>503.463315</ele>
        <time>2020-08-03T09:25:54.677Z</time>
      </trkpt>
      <trkpt lat="38.823650" lon="-0.895473">
        <ele>498.705988</ele>
        <time>2020-08-03T09:25:56.677Z</time>
      </trkpt>
      <trkpt lat="38.823730" lon="-0.895557">
        <ele>494.416137</ele>
        <time>2020-08-03T09:25:58.683Z</time>
      </trkpt>
      <trkpt lat="38.823816" lon="-0.895629">
        <ele>490.154538</ele>
        <time>2020-08-03T09:26:00.675Z</time>
      </trkpt>
      <trkpt lat="38.823916" lon="-0.895691">
        <ele>485.545205</ele>
        <time>2020-08-03T09:26:02.666Z</time>
      </trkpt>
      <trkpt lat="38.824027" lon="-0.895745">
        <ele>480.618346</ele>
        <time>2020-08-03T09:26:04.662Z</time>
      </trkpt>
      <trkpt lat="38.824107" lon="-0.895827">
        <ele>476.369157</ele>
        <time>2020-08-03T09:26:06.648Z</time>
      </trkpt>
      <trkpt lat="38.824215" lon="-0.895870">
        <ele>471.675918</ele>
        <time>2020-08-03T09:26:08.678Z</time>
      </trkpt>
      <trkpt lat="38.824288" lon="-0.895952">
        <ele>467.649680</ele>
        <time>2020-08-03T09:26:10.668Z</time>
      </trkpt>
      <trkpt lat="38.824363" lon="-0.896024">
        <ele>463.762484</ele>
        <time>2020-08-03T09:26:12.667Z</time>
      </trkpt>
      <trkpt lat="38.824420" lon="-0.896124">
        <ele>459.755899</ele>
        <time>2020-08-03T09:26:14.672Z</time>
      </trkpt>
      <trkpt lat="38.824504" lon="-0.896189">
        <ele>455.684940</ele>
        <time>2020-08-03T09:26:16.660Z</time>
      </trkpt>
      <trkpt lat="38.824582" lon="-0.896252">
        <ele>453.811631</ele>
        <time>2020-08-03T09:26:18.675Z</time>
      </trkpt>
      <trkpt lat="38.824670" lon="-0.896332">
        <ele>456.617872</ele>
        <time>2020-08-03T09:26:20.678Z</time>
      </trkpt>
      <trkpt lat="38.824744" lon="-0.896399">
        <ele>458.974472</ele>
        <time>2020-08-03T09:26:22.680Z</time>
      </trkpt>
      <trkpt lat="38.824824" lon="-0.896459">
        <ele>461.385676</ele>
        <time>2020-08-03T09:26:24.675Z</time>
      </trkpt>
      <trkpt lat="38.824927" lon="-0.896549">
        <ele>464.628197</ele>
        <time>2020-08-03T09:26:27.675Z</time>
      </trkpt>
      <trkpt lat="38.825004" lon="-0.896657">
        <ele>467.596274</ele>
        <time>2020-08-03T09:26:30.666Z</time>
      </trkpt>
      <trkpt lat="38.825043" lon="-0.896806">
        <ele>470.783017</ele>
        <time>2020-08-03T09:26:33.675Z</time>
      </trkpt>
      <trkpt lat="38.825071" lon="-0.896927">
        <ele>473.342084</ele>
        <time>2020-08-03T09:26:37.662Z</time>
      </trkpt>
      <trkpt lat="38.825067" lon="-0.897055">
        <ele>475.939226</ele>
        <time>2020-08-03T09:26:42.673Z</time>
      </trkpt>
      <trkpt lat="38.825081" lon="-0.897190">
        <ele>478.700340</ele>
        <time>2020-08-03T09:26:46.672Z</time>
      </trkpt>
      <trkpt lat="38.825103" lon="-0.897332">
        <ele>481.635604</ele>
        <time>2020-08-03T09:26:50.683Z</time>
      </trkpt>
      <trkpt lat="38.825089" lon="-0.897483">
        <ele>484.718560</ele>
        <time>2020-08-03T09:26:54.671Z</time>
      </trkpt>
      <trkpt lat="38.825072" lon="-0.897597">
        <ele>487.071740</ele>
        <time>2020-08-03T09:26:57.683Z</time>
      </trkpt>
      <trkpt lat="38.825041" lon="-0.897750">
        <ele>490.276830</ele>
        <time>2020-08-03T09:27:01.668Z</time>
      </trkpt>
      <trkpt lat="38.825002" lon="-0.897862">
        <ele>492.763999</ele>
        <time>2020-08-03T09:27:04.668Z</time>
      </trkpt>
      <trkpt lat="38.824955" lon="-0.897997">
        <ele>495.761833</ele>
        <time>2020-08-03T09:27:08.675Z</time>
      </trkpt>
      <trkpt lat="38.824899" lon="-0.898131">
        <ele>498.844726</ele>
        <time>2020-08-03T09:27:12.668Z</time>
      </trkpt>
      <trkpt lat="38.824837" lon="-0.898276">
        <ele>501.808313</ele>
        <time>2020-08-03T09:27:16.674Z</time>
      </trkpt>
      <trkpt lat="38.824791" lon="-0.898395">
        <ele>504.051356</ele>
        <time>2020-08-03T09:27:19.682Z</time>
      </trkpt>
      <trkpt lat="38.824750" lon="-0.898508">
        <ele>506.156126</ele>
        <time>2020-08-03T09:27:22.670Z</time>
      </trkpt>
      <trkpt lat="38.824698" lon="-0.898643">
        <ele>508.698979</ele>
        <time>2020-08-03T09:27:26.674Z</time>
      </trkpt>
      <trkpt lat="38.824660" lon="-0.898747">
        <ele>510.638551</ele>
        <time>2020-08-03T09:27:29.678Z</time>
      </trkpt>
      <trkpt lat="38.824606" lon="-0.898881">
        <ele>513.185903</ele>
        <time>2020-08-03T09:27:33.673Z</time>
      </trkpt>
      <trkpt lat="38.824572" lon="-0.898991">
        <ele>515.184086</ele>
        <time>2020-08-03T09:27:36.675Z</time>
      </trkpt>
      <trkpt lat="38.824527" lon="-0.899120">
        <ele>517.570627</ele>
        <time>2020-08-03T09:27:40.677Z</time>
      </trkpt>
      <trkpt lat="38.824466" lon="-0.899251">
        <ele>520.147544</ele>
        <time>2020-08-03T09:27:44.688Z</time>
      </trkpt>
      <trkpt lat="38.824410" lon="-0.899341">
        <ele>522.092384</ele>
        <time>2020-08-03T09:27:47.671Z</time>
      </trkpt>
      <trkpt lat="38.824353" lon="-0.899453">
        <ele>524.351252</ele>
        <time>2020-08-03T09:27:51.679Z</time>
      </trkpt>
      <trkpt lat="38.824295" lon="-0.899580">
        <ele>526.836931</ele>
        <time>2020-08-03T09:27:55.676Z</time>
      </trkpt>
      <trkpt lat="38.824245" lon="-0.899679">
        <ele>528.829073</ele>
        <time>2020-08-03T09:27:58.678Z</time>
      </trkpt>
      <trkpt lat="38.824202" lon="-0.899781">
        <ele>530.787326</ele>
        <time>2020-08-03T09:28:01.668Z</time>
      </trkpt>
      <trkpt lat="38.824164" lon="-0.899887">
        <ele>532.757535</ele>
        <time>2020-08-03T09:28:04.682Z</time>
      </trkpt>
      <trkpt lat="38.824124" lon="-0.900027">
        <ele>535.275396</ele>
        <time>2020-08-03T09:28:08.670Z</time>
      </trkpt>
      <trkpt lat="38.824083" lon="-0.900163">
        <ele>537.737696</ele>
        <time>2020-08-03T09:28:12.695Z</time>
      </trkpt>
      <trkpt lat="38.824041" lon="-0.900266">
        <ele>538.883688</ele>
        <time>2020-08-03T09:28:15.673Z</time>
      </trkpt>
      <trkpt lat="38.823985" lon="-0.900394">
        <ele>538.985478</ele>
        <time>2020-08-03T09:28:19.673Z</time>
      </trkpt>
      <trkpt lat="38.823939" lon="-0.900523">
        <ele>539.083849</ele>
        <time>2020-08-03T09:28:23.677Z</time>
      </trkpt>
      <trkpt lat="38.823898" lon="-0.900651">
        <ele>539.179811</ele>
        <time>2020-08-03T09:28:27.675Z</time>
      </trkpt>
      <trkpt lat="38.823871" lon="-0.900774">
        <ele>539.268419</ele>
        <time>2020-08-03T09:28:31.682Z</time>
      </trkpt>
      <trkpt lat="38.823833" lon="-0.900889">
        <ele>539.355034</ele>
        <time>2020-08-03T09:28:35.675Z</time>
      </trkpt>
      <trkpt lat="38.823805" lon="-0.901004">
        <ele>539.438577</ele>
        <time>2020-08-03T09:28:39.674Z</time>
      </trkpt>
      <trkpt lat="38.823773" lon="-0.901137">
        <ele>539.535095</ele>
        <time>2020-08-03T09:28:43.680Z</time>
      </trkpt>
      <trkpt lat="38.823732" lon="-0.901264">
        <ele>539.630417</ele>
        <time>2020-08-03T09:28:47.674Z</time>
      </trkpt>
      <trkpt lat="38.823684" lon="-0.901384">
        <ele>539.723950</ele>
        <time>2020-08-03T09:28:51.682Z</time>
      </trkpt>
      <trkpt lat="38.823642" lon="-0.901500">
        <ele>539.812645</ele>
        <time>2020-08-03T09:28:55.655Z</time>
      </trkpt>
      <trkpt lat="38.823599" lon="-0.901624">
        <ele>539.906758</ele>
        <time>2020-08-03T09:28:59.675Z</time>
      </trkpt>
      <trkpt lat="38.823560" lon="-0.901739">
        <ele>539.993725</ele>
        <time>2020-08-03T09:29:03.680Z</time>
      </trkpt>
      <trkpt lat="38.823524" lon="-0.901864">
        <ele>540.086131</ele>
        <time>2020-08-03T09:29:08.679Z</time>
      </trkpt>
      <trkpt lat="38.823499" lon="-0.902000">
        <ele>540.183022</ele>
        <time>2020-08-03T09:29:13.669Z</time>
      </trkpt>
      <trkpt lat="38.823468" lon="-0.902112">
        <ele>540.265437</ele>
        <time>2020-08-03T09:29:17.662Z</time>
      </trkpt>
      <trkpt lat="38.823431" lon="-0.902231">
        <ele>540.354279</ele>
        <time>2020-08-03T09:29:22.703Z</time>
      </trkpt>
      <trkpt lat="38.823380" lon="-0.902349">
        <ele>540.447847</ele>
        <time>2020-08-03T09:29:27.669Z</time>
      </trkpt>
      <trkpt lat="38.823334" lon="-0.902466">
        <ele>538.021264</ele>
        <time>2020-08-03T09:29:32.653Z</time>
      </trkpt>
      <trkpt lat="38.823298" lon="-0.902574">
        <ele>535.803994</ele>
        <time>2020-08-03T09:29:38.671Z</time>
      </trkpt>
      <trkpt lat="38.823241" lon="-0.902696">
        <ele>533.118879</ele>
        <time>2020-08-03T09:29:43.674Z</time>
      </trkpt>
      <trkpt lat="38.823200" lon="-0.902813">
        <ele>530.697364</ele>
        <time>2020-08-03T09:29:47.681Z</time>
      </trkpt>
      <trkpt lat="38.823158" lon="-0.902939">
        <ele>528.110545</ele>
        <time>2020-08-03T09:29:51.681Z</time>
      </trkpt>
      <trkpt lat="38.823117" lon="-0.903045">
        <ele>525.876758</ele>
        <time>2020-08-03T09:29:55.677Z</time>
      </trkpt>
      <trkpt lat="38.823077" lon="-0.903150">
        <ele>523.670610</ele>
        <time>2020-08-03T09:30:00.666Z</time>
      </trkpt>
      <trkpt lat="38.823055" lon="-0.903265">
        <ele>521.435472</ele>
        <time>2020-08-03T09:30:05.678Z</time>
      </trkpt>
      <trkpt lat="38.823021" lon="-0.903385">
        <ele>519.025303</ele>
        <time>2020-08-03T09:30:10.680Z</time>
      </trkpt>
      <trkpt lat="38.822968" lon="-0.903492">
        <ele>516.632019</ele>
        <time>2020-08-03T09:30:15.674Z</time>
      </trkpt>
      <trkpt lat="38.822914" lon="-0.903589">
        <ele>514.381727</ele>
        <time>2020-08-03T09:30:21.674Z</time>
      </trkpt>
      <trkpt lat="38.822846" lon="-0.903672">
        <ele>512.108283</ele>
        <time>2020-08-03T09:30:26.668Z</time>
      </trkpt>
      <trkpt lat="38.822793" lon="-0.903785">
        <ele>509.618682</ele>
        <time>2020-08-03T09:30:31.682Z</time>
      </trkpt>
      <trkpt lat="38.822727" lon="-0.903898">
        <ele>506.952942</ele>
        <time>2020-08-03T09:30:35.670Z</time>
      </trkpt>
      <trkpt lat="38.822644" lon="-0.903943">
        <ele>504.770031</ele>
        <time>2020-08-03T09:30:39.673Z</time>
      </trkpt>
      <trkpt lat="38.822544" lon="-0.903969">
        <ele>502.298079</ele>
        <time>2020-08-03T09:30:44.659Z</time>
      </trkpt>
      <trkpt lat="38.822458" lon="-0.904015">
        <ele>500.040841</ele>
        <time>2020-08-03T09:30:49.679Z</time>
      </trkpt>
      <trkpt lat="38.822352" lon="-0.904036">
        <ele>497.442320</ele>
        <time>2020-08-03T09:30:53.678Z</time>
      </trkpt>
      <trkpt lat="38.822245" lon="-0.904038">
        <ele>497.878816</ele>
        <time>2020-08-03T09:30:56.671Z</time>
      </trkpt>
      <trkpt lat="38.822141" lon="-0.904022">
        <ele>499.140439</ele>
        <time>2020-08-03T09:30:59.669Z</time>
      </trkpt>
      <trkpt lat="38.822047" lon="-0.904013">
        <ele>500.275794</ele>
        <time>2020-08-03T09:31:02.678Z</time>
      </trkpt>
      <trkpt lat="38.821955" lon="-0.904015">
        <ele>501.384073</ele>
        <time>2020-08-03T09:31:05.679Z</time>
      </trkpt>
      <trkpt lat="38.821840" lon="-0.904009">
        <ele>502.770366</ele>
        <time>2020-08-03T09:31:08.677Z</time>
      </trkpt>
      <trkpt lat="38.821716" lon="-0.903991">
        <ele>504.273440</ele>
        <time>2020-08-03T09:31:11.654Z</time>
      </trkpt>
      <trkpt lat="38.821625" lon="-0.903999">
        <ele>505.372083</ele>
        <time>2020-08-03T09:31:13.673Z</time>
      </trkpt>
      <trkpt lat="38.821499" lon="-0.903970">
        <ele>506.913932</ele>
        <time>2020-08-03T09:31:16.684Z</time>
      </trkpt>
      <trkpt lat="38.821391" lon="-0.903911">
        <ele>508.327693</ele>
        <time>2020-08-03T09:31:19.678Z</time>
      </trkpt>
      <trkpt lat="38.821291" lon="-0.903920">
        <ele>509.535128</ele>
        <time>2020-08-03T09:31:22.690Z</time>
      </trkpt>
      <trkpt lat="38.821171" lon="-0.903999">
        <ele>511.159536</ele>
        <time>2020-08-03T09:31:25.667Z</time>
      </trkpt>
      <trkpt lat="38.821132" lon="-0.904158">
        <ele>512.723816</ele>
        <time>2020-08-03T09:31:28.679Z</time>
      </trkpt>
      <trkpt lat="38.821105" lon="-0.904300">
        <ele>514.095479</ele>
        <time>2020-08-03T09:31:31.680Z</time>
      </trkpt>
      <trkpt lat="38.821208" lon="-0.904374">
        <ele>515.517220</ele>
        <time>2020-08-03T09:31:35.656Z</time>
      </trkpt>
      <trkpt lat="38.821306" lon="-0.904354">
        <ele>516.712437</ele>
        <time>2020-08-03T09:31:38.656Z</time>
      </trkpt>
      <trkpt lat="38.821407" lon="-0.904354">
        <ele>517.928959</ele>
        <time>2020-08-03T09:31:42.677Z</time>
      </trkpt>
      <trkpt lat="38.821513" lon="-0.904374">
        <ele>518.828046</ele>
        <time>2020-08-03T09:31:47.680Z</time>
      </trkpt>
      <trkpt lat="38.821630" lon="-0.904391">
        <ele>519.432652</ele>
        <time>2020-08-03T09:31:51.678Z</time>
      </trkpt>
      <trkpt lat="38.821722" lon="-0.904386">
        <ele>519.905475</ele>
        <time>2020-08-03T09:31:54.668Z</time>
      </trkpt>
      <trkpt lat="38.821825" lon="-0.904361">
        <ele>520.443731</ele>
        <time>2020-08-03T09:31:59.663Z</time>
      </trkpt>
      <trkpt lat="38.821932" lon="-0.904348">
        <ele>520.995608</ele>
        <time>2020-08-03T09:32:04.677Z</time>
      </trkpt>
      <trkpt lat="38.822037" lon="-0.904362">
        <ele>521.537661</ele>
        <time>2020-08-03T09:32:09.668Z</time>
      </trkpt>
      <trkpt lat="38.822130" lon="-0.904370">
        <ele>522.016267</ele>
        <time>2020-08-03T09:32:14.671Z</time>
      </trkpt>
      <trkpt lat="38.822241" lon="-0.904386">
        <ele>522.589810</ele>
        <time>2020-08-03T09:32:36.662Z</time>
      </trkpt>
      <trkpt lat="38.822352" lon="-0.904443">
        <ele>523.203692</ele>
        <time>2020-08-03T09:32:40.661Z</time>
      </trkpt>
      <trkpt lat="38.822420" lon="-0.904526">
        <ele>523.685528</ele>
        <time>2020-08-03T09:32:43.655Z</time>
      </trkpt>
      <trkpt lat="38.822467" lon="-0.904650">
        <ele>524.237177</ele>
        <time>2020-08-03T09:32:47.663Z</time>
      </trkpt>
      <trkpt lat="38.822472" lon="-0.904778">
        <ele>524.749880</ele>
        <time>2020-08-03T09:32:51.673Z</time>
      </trkpt>
      <trkpt lat="38.822453" lon="-0.904893">
        <ele>525.220164</ele>
        <time>2020-08-03T09:32:55.707Z</time>
      </trkpt>
      <trkpt lat="38.822424" lon="-0.905027">
        <ele>525.776524</ele>
        <time>2020-08-03T09:33:00.663Z</time>
      </trkpt>
      <trkpt lat="38.822369" lon="-0.905144">
        <ele>526.323180</ele>
        <time>2020-08-03T09:33:05.671Z</time>
      </trkpt>
      <trkpt lat="38.822320" lon="-0.905244">
        <ele>526.795771</ele>
        <time>2020-08-03T09:33:09.674Z</time>
      </trkpt>
      <trkpt lat="38.822282" lon="-0.905380">
        <ele>527.373767</ele>
        <time>2020-08-03T09:33:14.665Z</time>
      </trkpt>
      <trkpt lat="38.822241" lon="-0.905492">
        <ele>527.537413</ele>
        <time>2020-08-03T09:33:18.674Z</time>
      </trkpt>
      <trkpt lat="38.822185" lon="-0.905603">
        <ele>526.239554</ele>
        <time>2020-08-03T09:33:22.671Z</time>
      </trkpt>
      <trkpt lat="38.822151" lon="-0.905720">
        <ele>525.013992</ele>
        <time>2020-08-03T09:33:27.670Z</time>
      </trkpt>
      <trkpt lat="38.822114" lon="-0.905847">
        <ele>523.683266</ele>
        <time>2020-08-03T09:33:32.675Z</time>
      </trkpt>
      <trkpt lat="38.822074" lon="-0.905966">
        <ele>522.411288</ele>
        <time>2020-08-03T09:33:38.677Z</time>
      </trkpt>
      <trkpt lat="38.822042" lon="-0.906096">
        <ele>521.073248</ele>
        <time>2020-08-03T09:33:45.654Z</time>
      </trkpt>
      <trkpt lat="38.822016" lon="-0.906210">
        <ele>519.907450</ele>
        <time>2020-08-03T09:33:50.674Z</time>
      </trkpt>
      <trkpt lat="38.821967" lon="-0.906342">
        <ele>518.472409</ele>
        <time>2020-08-03T09:33:55.665Z</time>
      </trkpt>
      <trkpt lat="38.821937" lon="-0.906453">
        <ele>517.319319</ele>
        <time>2020-08-03T09:33:59.682Z</time>
      </trkpt>
      <trkpt lat="38.821914" lon="-0.906588">
        <ele>515.963061</ele>
        <time>2020-08-03T09:34:04.679Z</time>
      </trkpt>
      <trkpt lat="38.821909" lon="-0.906725">
        <ele>514.617008</ele>
        <time>2020-08-03T09:34:09.676Z</time>
      </trkpt>
      <trkpt lat="38.821888" lon="-0.906854">
        <ele>513.323604</ele>
        <time>2020-08-03T09:34:14.673Z</time>
      </trkpt>
      <trkpt lat="38.821853" lon="-0.906974">
        <ele>512.066047</ele>
        <time>2020-08-03T09:34:18.677Z</time>
      </trkpt>
      <trkpt lat="38.821837" lon="-0.907094">
        <ele>510.871191</ele>
        <time>2020-08-03T09:34:22.677Z</time>
      </trkpt>
      <trkpt lat="38.821815" lon="-0.907222">
        <ele>509.584735</ele>
        <time>2020-08-03T09:34:27.683Z</time>
      </trkpt>
      <trkpt lat="38.821805" lon="-0.907341">
        <ele>508.410042</ele>
        <time>2020-08-03T09:34:32.682Z</time>
      </trkpt>
      <trkpt lat="38.821778" lon="-0.907453">
        <ele>507.259404</ele>
        <time>2020-08-03T09:34:37.658Z</time>
      </trkpt>
      <trkpt lat="38.821751" lon="-0.907574">
        <ele>506.024108</ele>
        <time>2020-08-03T09:34:42.676Z</time>
      </trkpt>
      <trkpt lat="38.821724" lon="-0.907699">
        <ele>505.104113</ele>
        <time>2020-08-03T09:34:48.684Z</time>
      </trkpt>
      <trkpt lat="38.821704" lon="-0.907811">
        <ele>505.070302</ele>
        <time>2020-08-03T09:34:53.680Z</time>
      </trkpt>
      <trkpt lat="38.821657" lon="-0.907936">
        <ele>505.029461</ele>
        <time>2020-08-03T09:35:00.660Z</time>
      </trkpt>
      <trkpt lat="38.821617" lon="-0.908064">
        <ele>504.988880</ele>
        <time>2020-08-03T09:35:09.655Z</time>
      </trkpt>
      <trkpt lat="38.821558" lon="-0.908155">
        <ele>504.954044</ele>
        <time>2020-08-03T09:35:14.658Z</time>
      </trkpt>
      <trkpt lat="38.821506" lon="-0.908267">
        <ele>504.915680</ele>
        <time>2020-08-03T09:35:20.662Z</time>
      </trkpt>
      <trkpt lat="38.821447" lon="-0.908362">
        <ele>504.879931</ele>
        <time>2020-08-03T09:35:40.677Z</time>
      </trkpt>
      <trkpt lat="38.821433" lon="-0.908479">
        <ele>504.845100</ele>
        <time>2020-08-03T09:36:02.669Z</time>
      </trkpt>
      <trkpt lat="38.821396" lon="-0.908598">
        <ele>504.807399</ele>
        <time>2020-08-03T09:36:22.678Z</time>
      </trkpt>
      <trkpt lat="38.821389" lon="-0.908718">
        <ele>504.771989</ele>
        <time>2020-08-03T09:36:30.682Z</time>
      </trkpt>
      <trkpt lat="38.821399" lon="-0.908843">
        <ele>504.735014</ele>
        <time>2020-08-03T09:36:37.681Z</time>
      </trkpt>
      <trkpt lat="38.821411" lon="-0.908962">
        <ele>504.699706</ele>
        <time>2020-08-03T09:36:44.668Z</time>
      </trkpt>
      <trkpt lat="38.821424" lon="-0.909080">
        <ele>504.664639</ele>
        <time>2020-08-03T09:36:51.670Z</time>
      </trkpt>
      <trkpt lat="38.821415" lon="-0.909197">
        <ele>504.630044</ele>
        <time>2020-08-03T09:36:58.676Z</time>
      </trkpt>
      <trkpt lat="38.821419" lon="-0.909317">
        <ele>504.594701</ele>
        <time>2020-08-03T09:37:05.678Z</time>
      </trkpt>
      <trkpt lat="38.821431" lon="-0.909436">
        <ele>504.559393</ele>
        <time>2020-08-03T09:37:14.665Z</time>
      </trkpt>
      <trkpt lat="38.821454" lon="-0.909554">
        <ele>504.523601</ele>
        <time>2020-08-03T09:37:23.674Z</time>
      </trkpt>
      <trkpt lat="38.821458" lon="-0.909673">
        <ele>504.488553</ele>
        <time>2020-08-03T09:37:31.654Z</time>
      </trkpt>
      <trkpt lat="38.821468" lon="-0.909790">
        <ele>504.453918</ele>
        <time>2020-08-03T09:37:40.675Z</time>
      </trkpt>
      <trkpt lat="38.821453" lon="-0.909917">
        <ele>503.682751</ele>
        <time>2020-08-03T09:37:57.673Z</time>
      </trkpt>
      <trkpt lat="38.821441" lon="-0.910037">
        <ele>502.314508</ele>
        <time>2020-08-03T09:38:13.672Z</time>
      </trkpt>
      <trkpt lat="38.821456" lon="-0.910154">
        <ele>500.973531</ele>
        <time>2020-08-03T09:38:19.669Z</time>
      </trkpt>
      <trkpt lat="38.821457" lon="-0.910287">
        <ele>499.469331</ele>
        <time>2020-08-03T09:38:25.673Z</time>
      </trkpt>
      <trkpt lat="38.821471" lon="-0.910409">
        <ele>498.074717</ele>
        <time>2020-08-03T09:38:30.668Z</time>
      </trkpt>
      <trkpt lat="38.821497" lon="-0.910545">
        <ele>496.491032</ele>
        <time>2020-08-03T09:38:37.673Z</time>
      </trkpt>
      <trkpt lat="38.821483" lon="-0.910665">
        <ele>495.118791</ele>
        <time>2020-08-03T09:38:42.663Z</time>
      </trkpt>
      <trkpt lat="38.821495" lon="-0.910801">
        <ele>493.570902</ele>
        <time>2020-08-03T09:38:48.674Z</time>
      </trkpt>
      <trkpt lat="38.821479" lon="-0.910920">
        <ele>492.205209</ele>
        <time>2020-08-03T09:39:35.673Z</time>
      </trkpt>
      <trkpt lat="38.821474" lon="-0.911045">
        <ele>490.789691</ele>
        <time>2020-08-03T09:39:43.676Z</time>
      </trkpt>
      <trkpt lat="38.821447" lon="-0.911161">
        <ele>489.420525</ele>
        <time>2020-08-03T09:39:50.667Z</time>
      </trkpt>
      <trkpt lat="38.821465" lon="-0.911277">
        <ele>488.082886</ele>
        <time>2020-08-03T09:39:58.669Z</time>
      </trkpt>
      <trkpt lat="38.821467" lon="-0.911398">
        <ele>486.714159</ele>
        <time>2020-08-03T09:40:06.679Z</time>
      </trkpt>
      <trkpt lat="38.821443" lon="-0.911513">
        <ele>485.367744</ele>
        <time>2020-08-03T09:40:13.673Z</time>
      </trkpt>
      <trkpt lat="38.821442" lon="-0.911639">
        <ele>483.942705</ele>
        <time>2020-08-03T09:40:23.665Z</time>
      </trkpt>
      <trkpt lat="38.821413" lon="-0.911752">
        <ele>482.597213</ele>
        <time>2020-08-03T09:40:31.670Z</time>
      </trkpt>
      <trkpt lat="38.821383" lon="-0.911868">
        <ele>481.214950</ele>
        <time>2020-08-03T09:40:50.682Z</time>
      </trkpt>
      <trkpt lat="38.821367" lon="-0.911986">
        <ele>479.860398</ele>
        <time>2020-08-03T09:40:59.680Z</time>
      </trkpt>
      <trkpt lat="38.821357" lon="-0.912102">
        <ele>478.540517</ele>
        <time>2020-08-03T09:41:08.681Z</time>
      </trkpt>
      <trkpt lat="38.821336" lon="-0.912214">
        <ele>483.690241</ele>
        <time>2020-08-03T09:41:23.672Z</time>
      </trkpt>
      <trkpt lat="38.821294" lon="-0.912345">
        <ele>491.577271</ele>
        <time>2020-08-03T09:41:28.655Z</time>
      </trkpt>
      <trkpt lat="38.821247" lon="-0.912448">
        <ele>498.223135</ele>
        <time>2020-08-03T09:41:33.662Z</time>
      </trkpt>
      <trkpt lat="38.821232" lon="-0.912565">
        <ele>504.824892</ele>
        <time>2020-08-03T09:41:38.662Z</time>
      </trkpt>
      <trkpt lat="38.821220" lon="-0.912685">
        <ele>511.560883</ele>
        <time>2020-08-03T09:41:43.662Z</time>
      </trkpt>
      <trkpt lat="38.821229" lon="-0.912803">
        <ele>518.162118</ele>
        <time>2020-08-03T09:41:49.665Z</time>
      </trkpt>
      <trkpt lat="38.821210" lon="-0.912941">
        <ele>525.964526</ele>
        <time>2020-08-03T09:41:56.670Z</time>
      </trkpt>
      <trkpt lat="38.821215" lon="-0.913071">
        <ele>533.211288</ele>
        <time>2020-08-03T09:42:02.707Z</time>
      </trkpt>
      <trkpt lat="38.821226" lon="-0.913191">
        <ele>539.938555</ele>
        <time>2020-08-03T09:42:08.664Z</time>
      </trkpt>
      <trkpt lat="38.821184" lon="-0.913305">
        <ele>546.959555</ele>
        <time>2020-08-03T09:42:13.658Z</time>
      </trkpt>
      <trkpt lat="38.821132" lon="-0.913400">
        <ele>553.423708</ele>
        <time>2020-08-03T09:42:37.669Z</time>
      </trkpt>
      <trkpt lat="38.821187" lon="-0.913504">
        <ele>560.422026</ele>
        <time>2020-08-03T09:42:46.675Z</time>
      </trkpt>
      <trkpt lat="38.821182" lon="-0.913628">
        <ele>567.335158</ele>
        <time>2020-08-03T09:42:55.673Z</time>
      </trkpt>
      <trkpt lat="38.821269" lon="-0.913661">
        <ele>573.818162</ele>
        <time>2020-08-03T09:43:15.658Z</time>
      </trkpt>
      <trkpt lat="38.821328" lon="-0.913776">
        <ele>581.484492</ele>
        <time>2020-08-03T09:43:20.665Z</time>
      </trkpt>
      <trkpt lat="38.821393" lon="-0.913880">
        <ele>588.907730</ele>
        <time>2020-08-03T09:43:25.651Z</time>
      </trkpt>
      <trkpt lat="38.821484" lon="-0.913950">
        <ele>596.489216</ele>
        <time>2020-08-03T09:43:30.672Z</time>
      </trkpt>
      <trkpt lat="38.821567" lon="-0.914003">
        <ele>603.114049</ele>
        <time>2020-08-03T09:43:34.708Z</time>
      </trkpt>
      <trkpt lat="38.821620" lon="-0.914105">
        <ele>607.895210</ele>
        <time>2020-08-03T09:43:42.694Z</time>
      </trkpt>
      <trkpt lat="38.821681" lon="-0.914212">
        <ele>610.373209</ele>
        <time>2020-08-03T09:43:50.692Z</time>
      </trkpt>
      <trkpt lat="38.821702" lon="-0.914333">
        <ele>612.690091</ele>
        <time>2020-08-03T09:43:57.694Z</time>
      </trkpt>
      <trkpt lat="38.821721" lon="-0.914456">
        <ele>615.033669</ele>
        <time>2020-08-03T09:44:03.700Z</time>
      </trkpt>
      <trkpt lat="38.821749" lon="-0.914574">
        <ele>617.339068</ele>
        <time>2020-08-03T09:44:10.709Z</time>
      </trkpt>
      <trkpt lat="38.821782" lon="-0.914685">
        <ele>619.559529</ele>
        <time>2020-08-03T09:44:17.712Z</time>
      </trkpt>
      <trkpt lat="38.821809" lon="-0.914797">
        <ele>621.750686</ele>
        <time>2020-08-03T09:44:23.713Z</time>
      </trkpt>
      <trkpt lat="38.821850" lon="-0.914917">
        <ele>624.199626</ele>
        <time>2020-08-03T09:44:30.704Z</time>
      </trkpt>
      <trkpt lat="38.821931" lon="-0.914992">
        <ele>626.595546</ele>
        <time>2020-08-03T09:44:37.748Z</time>
      </trkpt>
      <trkpt lat="38.821982" lon="-0.915099">
        <ele>628.939885</ele>
        <time>2020-08-03T09:44:44.715Z</time>
      </trkpt>
      <trkpt lat="38.822067" lon="-0.915553">
        <ele>637.666522</ele>
        <time>2020-08-03T09:46:04.701Z</time>
      </trkpt>
      <trkpt lat="38.822089" lon="-0.915684">
        <ele>640.171091</ele>
        <time>2020-08-03T09:46:09.699Z</time>
      </trkpt>
      <trkpt lat="38.822119" lon="-0.915798">
        <ele>642.419962</ele>
        <time>2020-08-03T09:46:14.699Z</time>
      </trkpt>
      <trkpt lat="38.822158" lon="-0.915925">
        <ele>644.971262</ele>
        <time>2020-08-03T09:46:20.694Z</time>
      </trkpt>
      <trkpt lat="38.822213" lon="-0.916027">
        <ele>647.289641</ele>
        <time>2020-08-03T09:46:26.703Z</time>
      </trkpt>
      <trkpt lat="38.822260" lon="-0.916135">
        <ele>649.601656</ele>
        <time>2020-08-03T09:46:32.726Z</time>
      </trkpt>
      <trkpt lat="38.822287" lon="-0.916270">
        <ele>650.528710</ele>
        <time>2020-08-03T09:46:38.713Z</time>
      </trkpt>
      <trkpt lat="38.822303" lon="-0.916395">
        <ele>651.088503</ele>
        <time>2020-08-03T09:46:44.717Z</time>
      </trkpt>
      <trkpt lat="38.822340" lon="-0.916506">
        <ele>651.622032</ele>
        <time>2020-08-03T09:46:50.708Z</time>
      </trkpt>
      <trkpt lat="38.822376" lon="-0.916625">
        <ele>652.186158</ele>
        <time>2020-08-03T09:46:56.714Z</time>
      </trkpt>
      <trkpt lat="38.822436" lon="-0.916720">
        <ele>652.726588</ele>
        <time>2020-08-03T09:47:02.709Z</time>
      </trkpt>
      <trkpt lat="38.822474" lon="-0.916838">
        <ele>653.290831</ele>
        <time>2020-08-03T09:47:09.707Z</time>
      </trkpt>
      <trkpt lat="38.822519" lon="-0.916953">
        <ele>653.859524</ele>
        <time>2020-08-03T09:47:15.708Z</time>
      </trkpt>
      <trkpt lat="38.822557" lon="-0.917074">
        <ele>654.436041</ele>
        <time>2020-08-03T09:47:21.691Z</time>
      </trkpt>
      <trkpt lat="38.822572" lon="-0.917195">
        <ele>654.977476</ele>
        <time>2020-08-03T09:47:26.708Z</time>
      </trkpt>
      <trkpt lat="38.822592" lon="-0.917328">
        <ele>655.576062</ele>
        <time>2020-08-03T09:47:33.696Z</time>
      </trkpt>
      <trkpt lat="38.822606" lon="-0.917450">
        <ele>656.121006</ele>
        <time>2020-08-03T09:47:40.703Z</time>
      </trkpt>
      <trkpt lat="38.822604" lon="-0.917576">
        <ele>656.677926</ele>
        <time>2020-08-03T09:47:47.703Z</time>
      </trkpt>
      <trkpt lat="38.822611" lon="-0.917693">
        <ele>657.196481</ele>
        <time>2020-08-03T09:47:53.716Z</time>
      </trkpt>
      <trkpt lat="38.822666" lon="-0.917800">
        <ele>657.762962</ele>
        <time>2020-08-03T09:48:00.700Z</time>
      </trkpt>
      <trkpt lat="38.822670" lon="-0.917921">
        <ele>658.298151</ele>
        <time>2020-08-03T09:48:05.723Z</time>
      </trkpt>
      <trkpt lat="38.822693" lon="-0.918053">
        <ele>658.895880</ele>
        <time>2020-08-03T09:48:11.708Z</time>
      </trkpt>
      <trkpt lat="38.822704" lon="-0.918174">
        <ele>659.434215</ele>
        <time>2020-08-03T09:48:16.708Z</time>
      </trkpt>
      <trkpt lat="38.822732" lon="-0.918307">
        <ele>660.043032</ele>
        <time>2020-08-03T09:48:22.713Z</time>
      </trkpt>
      <trkpt lat="38.822763" lon="-0.918431">
        <ele>661.137348</ele>
        <time>2020-08-03T09:48:28.713Z</time>
      </trkpt>
      <trkpt lat="38.822790" lon="-0.918542">
        <ele>662.305796</ele>
        <time>2020-08-03T09:48:33.715Z</time>
      </trkpt>
      <trkpt lat="38.822807" lon="-0.918675">
        <ele>663.660074</ele>
        <time>2020-08-03T09:48:38.712Z</time>
      </trkpt>
      <trkpt lat="38.822807" lon="-0.918810">
        <ele>665.016581</ele>
        <time>2020-08-03T09:48:42.708Z</time>
      </trkpt>
      <trkpt lat="38.822832" lon="-0.918948">
        <ele>666.440227</ele>
        <time>2020-08-03T09:48:46.701Z</time>
      </trkpt>
      <trkpt lat="38.822864" lon="-0.919094">
        <ele>667.964213</ele>
        <time>2020-08-03T09:48:50.712Z</time>
      </trkpt>
      <trkpt lat="38.822880" lon="-0.919215">
        <ele>669.197432</ele>
        <time>2020-08-03T09:48:53.716Z</time>
      </trkpt>
      <trkpt lat="38.822900" lon="-0.919328">
        <ele>670.361809</ele>
        <time>2020-08-03T09:48:56.714Z</time>
      </trkpt>
      <trkpt lat="38.822917" lon="-0.919453">
        <ele>671.636826</ele>
        <time>2020-08-03T09:48:59.715Z</time>
      </trkpt>
      <trkpt lat="38.822945" lon="-0.919581">
        <ele>672.972731</ele>
        <time>2020-08-03T09:49:02.718Z</time>
      </trkpt>
      <trkpt lat="38.822973" lon="-0.919710">
        <ele>674.318311</ele>
        <time>2020-08-03T09:49:05.716Z</time>
      </trkpt>
      <trkpt lat="38.823016" lon="-0.919825">
        <ele>675.600045</ele>
        <time>2020-08-03T09:49:08.712Z</time>
      </trkpt>
      <trkpt lat="38.823035" lon="-0.919942">
        <ele>676.800949</ele>
        <time>2020-08-03T09:49:11.715Z</time>
      </trkpt>
      <trkpt lat="38.823042" lon="-0.920090">
        <ele>678.290816</ele>
        <time>2020-08-03T09:49:15.709Z</time>
      </trkpt>
      <trkpt lat="38.823070" lon="-0.920228">
        <ele>679.723716</ele>
        <time>2020-08-03T09:49:19.700Z</time>
      </trkpt>
      <trkpt lat="38.823101" lon="-0.920353">
        <ele>681.041837</ele>
        <time>2020-08-03T09:49:23.712Z</time>
      </trkpt>
      <trkpt lat="38.823137" lon="-0.920467">
        <ele>682.277850</ele>
        <time>2020-08-03T09:49:27.705Z</time>
      </trkpt>
      <trkpt lat="38.823169" lon="-0.920583">
        <ele>683.172621</ele>
        <time>2020-08-03T09:49:31.715Z</time>
      </trkpt>
      <trkpt lat="38.823200" lon="-0.920707">
        <ele>680.236052</ele>
        <time>2020-08-03T09:49:35.712Z</time>
      </trkpt>
      <trkpt lat="38.823229" lon="-0.920833">
        <ele>677.273429</ele>
        <time>2020-08-03T09:49:39.714Z</time>
      </trkpt>
      <trkpt lat="38.823272" lon="-0.920939">
        <ele>674.578577</ele>
        <time>2020-08-03T09:49:43.700Z</time>
      </trkpt>
      <trkpt lat="38.823302" lon="-0.921057">
        <ele>671.779649</ele>
        <time>2020-08-03T09:49:47.710Z</time>
      </trkpt>
      <trkpt lat="38.823349" lon="-0.921182">
        <ele>668.649873</ele>
        <time>2020-08-03T09:49:52.715Z</time>
      </trkpt>
      <trkpt lat="38.823383" lon="-0.921315">
        <ele>665.493473</ele>
        <time>2020-08-03T09:49:57.710Z</time>
      </trkpt>
      <trkpt lat="38.823429" lon="-0.921421">
        <ele>662.757441</ele>
        <time>2020-08-03T09:50:02.716Z</time>
      </trkpt>
      <trkpt lat="38.823481" lon="-0.921544">
        <ele>659.601820</ele>
        <time>2020-08-03T09:50:07.697Z</time>
      </trkpt>
      <trkpt lat="38.823547" lon="-0.921646">
        <ele>656.611951</ele>
        <time>2020-08-03T09:50:12.696Z</time>
      </trkpt>
      <trkpt lat="38.823587" lon="-0.921766">
        <ele>653.668757</ele>
        <time>2020-08-03T09:50:17.703Z</time>
      </trkpt>
      <trkpt lat="38.823618" lon="-0.921885">
        <ele>650.839350</ele>
        <time>2020-08-03T09:50:22.717Z</time>
      </trkpt>
      <trkpt lat="38.823655" lon="-0.922003">
        <ele>647.971105</ele>
        <time>2020-08-03T09:50:27.695Z</time>
      </trkpt>
      <trkpt lat="38.823709" lon="-0.922120">
        <ele>644.904626</ele>
        <time>2020-08-03T09:50:32.715Z</time>
      </trkpt>
      <trkpt lat="38.823752" lon="-0.922240">
        <ele>641.926212</ele>
        <time>2020-08-03T09:50:38.710Z</time>
      </trkpt>
      <trkpt lat="38.823774" lon="-0.922360">
        <ele>639.146385</ele>
        <time>2020-08-03T09:50:43.714Z</time>
      </trkpt>
      <trkpt lat="38.823781" lon="-0.922482">
        <ele>636.387920</ele>
        <time>2020-08-03T09:50:48.720Z</time>
      </trkpt>
      <trkpt lat="38.823799" lon="-0.922623">
        <ele>633.166069</ele>
        <time>2020-08-03T09:50:54.706Z</time>
      </trkpt>
      <trkpt lat="38.823818" lon="-0.922749">
        <ele>632.340330</ele>
        <time>2020-08-03T09:50:59.723Z</time>
      </trkpt>
      <trkpt lat="38.823811" lon="-0.922873">
        <ele>634.916789</ele>
        <time>2020-08-03T09:51:04.716Z</time>
      </trkpt>
      <trkpt lat="38.823811" lon="-0.922989">
        <ele>637.320723</ele>
        <time>2020-08-03T09:51:09.718Z</time>
      </trkpt>
      <trkpt lat="38.823804" lon="-0.923126">
        <ele>640.165951</ele>
        <time>2020-08-03T09:51:14.715Z</time>
      </trkpt>
      <trkpt lat="38.823796" lon="-0.923258">
        <ele>642.909727</ele>
        <time>2020-08-03T09:51:19.704Z</time>
      </trkpt>
      <trkpt lat="38.823804" lon="-0.923397">
        <ele>645.798153</ele>
        <time>2020-08-03T09:51:24.712Z</time>
      </trkpt>
      <trkpt lat="38.823794" lon="-0.923526">
        <ele>648.484695</ele>
        <time>2020-08-03T09:51:29.707Z</time>
      </trkpt>
      <trkpt lat="38.823777" lon="-0.923653">
        <ele>651.155154</ele>
        <time>2020-08-03T09:51:33.713Z</time>
      </trkpt>
      <trkpt lat="38.823791" lon="-0.923801">
        <ele>654.244769</ele>
        <time>2020-08-03T09:51:37.708Z</time>
      </trkpt>
      <trkpt lat="38.823804" lon="-0.923934">
        <ele>657.022612</ele>
        <time>2020-08-03T09:51:41.707Z</time>
      </trkpt>
      <trkpt lat="38.823836" lon="-0.924055">
        <ele>659.670698</ele>
        <time>2020-08-03T09:51:45.715Z</time>
      </trkpt>
      <trkpt lat="38.823866" lon="-0.924191">
        <ele>662.599898</ele>
        <time>2020-08-03T09:51:49.719Z</time>
      </trkpt>
      <trkpt lat="38.823883" lon="-0.924318">
        <ele>665.270354</ele>
        <time>2020-08-03T09:51:52.709Z</time>
      </trkpt>
      <trkpt lat="38.823885" lon="-0.924454">
        <ele>668.089258</ele>
        <time>2020-08-03T09:51:55.705Z</time>
      </trkpt>
      <trkpt lat="38.823900" lon="-0.924583">
        <ele>670.792207</ele>
        <time>2020-08-03T09:51:58.721Z</time>
      </trkpt>
      <trkpt lat="38.823919" lon="-0.924709">
        <ele>673.451835</ele>
        <time>2020-08-03T09:52:01.714Z</time>
      </trkpt>
      <trkpt lat="38.823927" lon="-0.924843">
        <ele>676.236930</ele>
        <time>2020-08-03T09:52:04.699Z</time>
      </trkpt>
      <trkpt lat="38.823927" lon="-0.924966">
        <ele>678.785925</ele>
        <time>2020-08-03T09:52:07.712Z</time>
      </trkpt>
      <trkpt lat="38.823931" lon="-0.925081">
        <ele>680.063578</ele>
        <time>2020-08-03T09:52:10.728Z</time>
      </trkpt>
      <trkpt lat="38.823946" lon="-0.925203">
        <ele>681.189096</ele>
        <time>2020-08-03T09:52:13.711Z</time>
      </trkpt>
      <trkpt lat="38.823955" lon="-0.925349">
        <ele>682.523720</ele>
        <time>2020-08-03T09:52:17.712Z</time>
      </trkpt>
      <trkpt lat="38.823970" lon="-0.925480">
        <ele>683.730318</ele>
        <time>2020-08-03T09:52:21.717Z</time>
      </trkpt>
      <trkpt lat="38.823983" lon="-0.925621">
        <ele>685.024185</ele>
        <time>2020-08-03T09:52:25.705Z</time>
      </trkpt>
      <trkpt lat="38.823993" lon="-0.925759">
        <ele>686.287176</ele>
        <time>2020-08-03T09:52:29.714Z</time>
      </trkpt>
      <trkpt lat="38.824021" lon="-0.925906">
        <ele>687.666209</ele>
        <time>2020-08-03T09:52:33.711Z</time>
      </trkpt>
      <trkpt lat="38.824041" lon="-0.926053">
        <ele>689.026059</ele>
        <time>2020-08-03T09:52:37.701Z</time>
      </trkpt>
      <trkpt lat="38.824051" lon="-0.926186">
        <ele>690.243688</ele>
        <time>2020-08-03T09:52:41.704Z</time>
      </trkpt>
      <trkpt lat="38.824058" lon="-0.926315">
        <ele>691.422082</ele>
        <time>2020-08-03T09:52:45.709Z</time>
      </trkpt>
      <trkpt lat="38.824071" lon="-0.926439">
        <ele>692.562250</ele>
        <time>2020-08-03T09:52:49.706Z</time>
      </trkpt>
      <trkpt lat="38.824083" lon="-0.926567">
        <ele>693.737098</ele>
        <time>2020-08-03T09:52:53.715Z</time>
      </trkpt>
      <trkpt lat="38.824103" lon="-0.926703">
        <ele>694.998319</ele>
        <time>2020-08-03T09:52:57.717Z</time>
      </trkpt>
      <trkpt lat="38.824114" lon="-0.926843">
        <ele>696.280577</ele>
        <time>2020-08-03T09:53:01.697Z</time>
      </trkpt>
      <trkpt lat="38.824127" lon="-0.926977">
        <ele>697.511117</ele>
        <time>2020-08-03T09:53:05.713Z</time>
      </trkpt>
      <trkpt lat="38.824125" lon="-0.927111">
        <ele>698.732450</ele>
        <time>2020-08-03T09:53:09.714Z</time>
      </trkpt>
      <trkpt lat="38.824120" lon="-0.927248">
        <ele>699.982267</ele>
        <time>2020-08-03T09:53:13.708Z</time>
      </trkpt>
      <trkpt lat="38.824149" lon="-0.927372">
        <ele>700.226417</ele>
        <time>2020-08-03T09:53:17.712Z</time>
      </trkpt>
      <trkpt lat="38.824168" lon="-0.927518">
        <ele>700.217489</ele>
        <time>2020-08-03T09:53:22.714Z</time>
      </trkpt>
      <trkpt lat="38.824173" lon="-0.927669">
        <ele>700.208373</ele>
        <time>2020-08-03T09:53:26.707Z</time>
      </trkpt>
      <trkpt lat="38.824176" lon="-0.927819">
        <ele>700.199322</ele>
        <time>2020-08-03T09:53:30.699Z</time>
      </trkpt>
      <trkpt lat="38.824184" lon="-0.927938">
        <ele>700.192118</ele>
        <time>2020-08-03T09:53:33.696Z</time>
      </trkpt>
      <trkpt lat="38.824191" lon="-0.928061">
        <ele>700.184679</ele>
        <time>2020-08-03T09:53:36.711Z</time>
      </trkpt>
      <trkpt lat="38.824197" lon="-0.928196">
        <ele>700.176523</ele>
        <time>2020-08-03T09:53:39.702Z</time>
      </trkpt>
      <trkpt lat="38.824190" lon="-0.928339">
        <ele>700.167880</ele>
        <time>2020-08-03T09:53:42.701Z</time>
      </trkpt>
      <trkpt lat="38.824180" lon="-0.928489">
        <ele>700.158800</ele>
        <time>2020-08-03T09:53:45.721Z</time>
      </trkpt>
      <trkpt lat="38.824187" lon="-0.928642">
        <ele>700.149555</ele>
        <time>2020-08-03T09:53:48.710Z</time>
      </trkpt>
      <trkpt lat="38.824200" lon="-0.928796">
        <ele>700.140212</ele>
        <time>2020-08-03T09:53:51.709Z</time>
      </trkpt>
      <trkpt lat="38.824205" lon="-0.928979">
        <ele>700.129167</ele>
        <time>2020-08-03T09:53:54.698Z</time>
      </trkpt>
      <trkpt lat="38.824212" lon="-0.929102">
        <ele>700.121728</ele>
        <time>2020-08-03T09:53:56.711Z</time>
      </trkpt>
      <trkpt lat="38.824203" lon="-0.929229">
        <ele>700.114036</ele>
        <time>2020-08-03T09:53:58.713Z</time>
      </trkpt>
      <trkpt lat="38.824217" lon="-0.929359">
        <ele>700.106121</ele>
        <time>2020-08-03T09:54:00.717Z</time>
      </trkpt>
      <trkpt lat="38.824227" lon="-0.929500">
        <ele>700.097581</ele>
        <time>2020-08-03T09:54:02.712Z</time>
      </trkpt>
      <trkpt lat="38.824230" lon="-0.929627">
        <ele>700.126428</ele>
        <time>2020-08-03T09:54:04.702Z</time>
      </trkpt>
      <trkpt lat="38.824238" lon="-0.929776">
        <ele>700.214210</ele>
        <time>2020-08-03T09:54:06.709Z</time>
      </trkpt>
      <trkpt lat="38.824239" lon="-0.929913">
        <ele>700.294734</ele>
        <time>2020-08-03T09:54:08.721Z</time>
      </trkpt>
      <trkpt lat="38.824222" lon="-0.930074">
        <ele>700.390226</ele>
        <time>2020-08-03T09:54:10.712Z</time>
      </trkpt>
      <trkpt lat="38.824220" lon="-0.930198">
        <ele>700.463122</ele>
        <time>2020-08-03T09:54:12.720Z</time>
      </trkpt>
      <trkpt lat="38.824239" lon="-0.930321">
        <ele>700.536822</ele>
        <time>2020-08-03T09:54:14.704Z</time>
      </trkpt>
      <trkpt lat="38.824280" lon="-0.930479">
        <ele>700.634701</ele>
        <time>2020-08-03T09:54:17.718Z</time>
      </trkpt>
      <trkpt lat="38.824268" lon="-0.930617">
        <ele>700.716313</ele>
        <time>2020-08-03T09:54:19.708Z</time>
      </trkpt>
      <trkpt lat="38.824280" lon="-0.930777">
        <ele>700.810787</ele>
        <time>2020-08-03T09:54:22.706Z</time>
      </trkpt>
      <trkpt lat="38.824262" lon="-0.930890">
        <ele>700.878576</ele>
        <time>2020-08-03T09:54:24.714Z</time>
      </trkpt>
      <trkpt lat="38.824271" lon="-0.931036">
        <ele>700.964655</ele>
        <time>2020-08-03T09:54:27.699Z</time>
      </trkpt>
      <trkpt lat="38.824277" lon="-0.931155">
        <ele>701.034742</ele>
        <time>2020-08-03T09:54:29.697Z</time>
      </trkpt>
      <trkpt lat="38.824276" lon="-0.931326">
        <ele>701.135249</ele>
        <time>2020-08-03T09:54:32.711Z</time>
      </trkpt>
      <trkpt lat="38.824280" lon="-0.931489">
        <ele>701.231099</ele>
        <time>2020-08-03T09:54:35.710Z</time>
      </trkpt>
      <trkpt lat="38.824285" lon="-0.931647">
        <ele>701.324039</ele>
        <time>2020-08-03T09:54:38.713Z</time>
      </trkpt>
      <trkpt lat="38.824285" lon="-0.931763">
        <ele>701.392217</ele>
        <time>2020-08-03T09:54:40.706Z</time>
      </trkpt>
      <trkpt lat="38.824302" lon="-0.931880">
        <ele>701.461004</ele>
        <time>2020-08-03T09:54:42.748Z</time>
      </trkpt>
      <trkpt lat="38.824323" lon="-0.932001">
        <ele>701.526750</ele>
        <time>2020-08-03T09:54:44.706Z</time>
      </trkpt>
      <trkpt lat="38.824332" lon="-0.932122">
        <ele>701.591215</ele>
        <time>2020-08-03T09:54:46.710Z</time>
      </trkpt>
      <trkpt lat="38.824339" lon="-0.932247">
        <ele>701.657680</ele>
        <time>2020-08-03T09:54:48.710Z</time>
      </trkpt>
      <trkpt lat="38.824343" lon="-0.932376">
        <ele>701.726150</ele>
        <time>2020-08-03T09:54:50.704Z</time>
      </trkpt>
      <trkpt lat="38.824353" lon="-0.932541">
        <ele>701.813923</ele>
        <time>2020-08-03T09:54:53.714Z</time>
      </trkpt>
      <trkpt lat="38.824358" lon="-0.932660">
        <ele>701.877127</ele>
        <time>2020-08-03T09:54:55.713Z</time>
      </trkpt>
      <trkpt lat="38.824343" lon="-0.932828">
        <ele>701.966809</ele>
        <time>2020-08-03T09:54:58.712Z</time>
      </trkpt>
      <trkpt lat="38.824345" lon="-0.932988">
        <ele>702.051677</ele>
        <time>2020-08-03T09:55:01.712Z</time>
      </trkpt>
      <trkpt lat="38.824344" lon="-0.933167">
        <ele>702.146613</ele>
        <time>2020-08-03T09:55:04.707Z</time>
      </trkpt>
      <trkpt lat="38.824352" lon="-0.933339">
        <ele>702.237996</ele>
        <time>2020-08-03T09:55:07.702Z</time>
      </trkpt>
      <trkpt lat="38.824370" lon="-0.933458">
        <ele>702.302287</ele>
        <time>2020-08-03T09:55:09.712Z</time>
      </trkpt>
      <trkpt lat="38.824367" lon="-0.933594">
        <ele>702.374444</ele>
        <time>2020-08-03T09:55:11.712Z</time>
      </trkpt>
      <trkpt lat="38.824374" lon="-0.933729">
        <ele>702.446200</ele>
        <time>2020-08-03T09:55:13.708Z</time>
      </trkpt>
      <trkpt lat="38.824388" lon="-0.933862">
        <ele>702.517378</ele>
        <time>2020-08-03T09:55:15.707Z</time>
      </trkpt>
      <trkpt lat="38.824408" lon="-0.934002">
        <ele>702.592866</ele>
        <time>2020-08-03T09:55:17.711Z</time>
      </trkpt>
      <trkpt lat="38.824429" lon="-0.934135">
        <ele>702.664837</ele>
        <time>2020-08-03T09:55:19.703Z</time>
      </trkpt>
      <trkpt lat="38.824470" lon="-0.934302">
        <ele>702.676896</ele>
        <time>2020-08-03T09:55:21.713Z</time>
      </trkpt>
      <trkpt lat="38.824497" lon="-0.934461">
        <ele>702.679212</ele>
        <time>2020-08-03T09:55:23.718Z</time>
      </trkpt>
      <trkpt lat="38.824537" lon="-0.934613">
        <ele>702.681497</ele>
        <time>2020-08-03T09:55:25.716Z</time>
      </trkpt>
      <trkpt lat="38.824569" lon="-0.934761">
        <ele>702.683683</ele>
        <time>2020-08-03T09:55:27.715Z</time>
      </trkpt>
      <trkpt lat="38.824573" lon="-0.934904">
        <ele>702.685721</ele>
        <time>2020-08-03T09:55:29.700Z</time>
      </trkpt>
      <trkpt lat="38.824583" lon="-0.935057">
        <ele>702.687907</ele>
        <time>2020-08-03T09:55:32.713Z</time>
      </trkpt>
      <trkpt lat="38.824596" lon="-0.935188">
        <ele>702.689787</ele>
        <time>2020-08-03T09:55:36.718Z</time>
      </trkpt>
      <trkpt lat="38.824610" lon="-0.935511">
        <ele>702.694393</ele>
        <time>2020-08-03T09:59:36.712Z</time>
      </trkpt>
      <trkpt lat="38.824615" lon="-0.935683">
        <ele>702.696843</ele>
        <time>2020-08-03T09:59:39.713Z</time>
      </trkpt>
      <trkpt lat="38.824596" lon="-0.935856">
        <ele>702.699331</ele>
        <time>2020-08-03T09:59:42.712Z</time>
      </trkpt>
      <trkpt lat="38.824608" lon="-0.935987">
        <ele>702.701208</ele>
        <time>2020-08-03T09:59:44.701Z</time>
      </trkpt>
      <trkpt lat="38.824614" lon="-0.936105">
        <ele>702.702892</ele>
        <time>2020-08-03T09:59:46.706Z</time>
      </trkpt>
      <trkpt lat="38.824617" lon="-0.936221">
        <ele>702.704544</ele>
        <time>2020-08-03T09:59:48.705Z</time>
      </trkpt>
      <trkpt lat="38.824611" lon="-0.936355">
        <ele>702.706455</ele>
        <time>2020-08-03T09:59:50.722Z</time>
      </trkpt>
      <trkpt lat="38.824619" lon="-0.936503">
        <ele>702.727373</ele>
        <time>2020-08-03T09:59:52.701Z</time>
      </trkpt>
      <trkpt lat="38.824625" lon="-0.936663">
        <ele>702.771242</ele>
        <time>2020-08-03T09:59:54.727Z</time>
      </trkpt>
      <trkpt lat="38.824650" lon="-0.936849">
        <ele>702.822934</ele>
        <time>2020-08-03T09:59:57.702Z</time>
      </trkpt>
      <trkpt lat="38.824681" lon="-0.937002">
        <ele>702.866230</ele>
        <time>2020-08-03T09:59:59.693Z</time>
      </trkpt>
      <trkpt lat="38.824681" lon="-0.937146">
        <ele>702.905667</ele>
        <time>2020-08-03T10:00:01.698Z</time>
      </trkpt>
      <trkpt lat="38.824680" lon="-0.937270">
        <ele>702.939628</ele>
        <time>2020-08-03T10:00:03.754Z</time>
      </trkpt>
      <trkpt lat="38.824684" lon="-0.937402">
        <ele>702.975806</ele>
        <time>2020-08-03T10:00:05.718Z</time>
      </trkpt>
      <trkpt lat="38.824695" lon="-0.937541">
        <ele>703.014069</ele>
        <time>2020-08-03T10:00:07.703Z</time>
      </trkpt>
      <trkpt lat="38.824704" lon="-0.937673">
        <ele>703.050358</ele>
        <time>2020-08-03T10:00:09.719Z</time>
      </trkpt>
      <trkpt lat="38.824718" lon="-0.937805">
        <ele>703.086842</ele>
        <time>2020-08-03T10:00:11.710Z</time>
      </trkpt>
      <trkpt lat="38.824733" lon="-0.937934">
        <ele>703.122562</ele>
        <time>2020-08-03T10:00:13.714Z</time>
      </trkpt>
      <trkpt lat="38.824741" lon="-0.938070">
        <ele>703.159914</ele>
        <time>2020-08-03T10:00:15.699Z</time>
      </trkpt>
      <trkpt lat="38.824763" lon="-0.938186">
        <ele>703.192610</ele>
        <time>2020-08-03T10:00:17.697Z</time>
      </trkpt>
      <trkpt lat="38.824785" lon="-0.938309">
        <ele>703.227172</ele>
        <time>2020-08-03T10:00:19.705Z</time>
      </trkpt>
      <trkpt lat="38.824796" lon="-0.938458">
        <ele>703.268161</ele>
        <time>2020-08-03T10:00:21.705Z</time>
      </trkpt>
      <trkpt lat="38.824844" lon="-0.938604">
        <ele>703.311560</ele>
        <time>2020-08-03T10:00:24.715Z</time>
      </trkpt>
      <trkpt lat="38.824874" lon="-0.938765">
        <ele>703.390462</ele>
        <time>2020-08-03T10:00:27.704Z</time>
      </trkpt>
      <trkpt lat="38.824916" lon="-0.938921">
        <ele>703.524500</ele>
        <time>2020-08-03T10:00:30.717Z</time>
      </trkpt>
      <trkpt lat="38.824953" lon="-0.939035">
        <ele>703.624791</ele>
        <time>2020-08-03T10:00:32.715Z</time>
      </trkpt>
      <trkpt lat="38.824971" lon="-0.939220">
        <ele>703.776194</ele>
        <time>2020-08-03T10:00:35.717Z</time>
      </trkpt>
      <trkpt lat="38.825004" lon="-0.939381">
        <ele>703.911390</ele>
        <time>2020-08-03T10:00:38.714Z</time>
      </trkpt>
      <trkpt lat="38.825012" lon="-0.939503">
        <ele>704.010815</ele>
        <time>2020-08-03T10:00:40.710Z</time>
      </trkpt>
      <trkpt lat="38.825033" lon="-0.939623">
        <ele>704.110694</ele>
        <time>2020-08-03T10:00:42.715Z</time>
      </trkpt>
      <trkpt lat="38.825060" lon="-0.939743">
        <ele>704.212127</ele>
        <time>2020-08-03T10:00:44.712Z</time>
      </trkpt>
      <trkpt lat="38.825080" lon="-0.939874">
        <ele>704.320534</ele>
        <time>2020-08-03T10:00:46.703Z</time>
      </trkpt>
      <trkpt lat="38.825100" lon="-0.939997">
        <ele>704.422573</ele>
        <time>2020-08-03T10:00:48.705Z</time>
      </trkpt>
      <trkpt lat="38.825137" lon="-0.940151">
        <ele>704.553447</ele>
        <time>2020-08-03T10:00:51.704Z</time>
      </trkpt>
      <trkpt lat="38.825175" lon="-0.940301">
        <ele>704.681538</ele>
        <time>2020-08-03T10:00:55.723Z</time>
      </trkpt>
      <trkpt lat="38.825199" lon="-0.940447">
        <ele>704.802713</ele>
        <time>2020-08-03T10:00:58.714Z</time>
      </trkpt>
      <trkpt lat="38.825231" lon="-0.940591">
        <ele>704.924318</ele>
        <time>2020-08-03T10:01:01.707Z</time>
      </trkpt>
      <trkpt lat="38.825261" lon="-0.940737">
        <ele>705.046937</ele>
        <time>2020-08-03T10:01:04.727Z</time>
      </trkpt>
      <trkpt lat="38.825295" lon="-0.940893">
        <ele>705.178487</ele>
        <time>2020-08-03T10:01:07.727Z</time>
      </trkpt>
      <trkpt lat="38.825324" lon="-0.941035">
        <ele>705.236837</ele>
        <time>2020-08-03T10:01:10.710Z</time>
      </trkpt>
      <trkpt lat="38.825345" lon="-0.941158">
        <ele>705.264107</ele>
        <time>2020-08-03T10:01:13.727Z</time>
      </trkpt>
      <trkpt lat="38.825369" lon="-0.941269">
        <ele>705.289055</ele>
        <time>2020-08-03T10:01:16.714Z</time>
      </trkpt>
      <trkpt lat="38.825395" lon="-0.941389">
        <ele>705.316030</ele>
        <time>2020-08-03T10:01:19.729Z</time>
      </trkpt>
      <trkpt lat="38.825418" lon="-0.941527">
        <ele>705.346593</ele>
        <time>2020-08-03T10:01:22.727Z</time>
      </trkpt>
      <trkpt lat="38.825448" lon="-0.941677">
        <ele>705.380132</ele>
        <time>2020-08-03T10:01:25.718Z</time>
      </trkpt>
      <trkpt lat="38.825486" lon="-0.941790">
        <ele>705.406788</ele>
        <time>2020-08-03T10:01:27.723Z</time>
      </trkpt>
      <trkpt lat="38.825518" lon="-0.941915">
        <ele>705.435283</ele>
        <time>2020-08-03T10:01:29.727Z</time>
      </trkpt>
      <trkpt lat="38.825540" lon="-0.942039">
        <ele>705.462825</ele>
        <time>2020-08-03T10:01:31.724Z</time>
      </trkpt>
      <trkpt lat="38.825554" lon="-0.942182">
        <ele>705.494038</ele>
        <time>2020-08-03T10:01:33.721Z</time>
      </trkpt>
      <trkpt lat="38.825583" lon="-0.942321">
        <ele>705.525203</ele>
        <time>2020-08-03T10:01:35.730Z</time>
      </trkpt>
      <trkpt lat="38.825602" lon="-0.942473">
        <ele>705.558542</ele>
        <time>2020-08-03T10:01:37.738Z</time>
      </trkpt>
      <trkpt lat="38.825628" lon="-0.942623">
        <ele>705.591822</ele>
        <time>2020-08-03T10:01:39.728Z</time>
      </trkpt>
      <trkpt lat="38.825694" lon="-0.942759">
        <ele>705.626523</ele>
        <time>2020-08-03T10:01:41.735Z</time>
      </trkpt>
      <trkpt lat="38.825765" lon="-0.942869">
        <ele>705.657460</ele>
        <time>2020-08-03T10:01:43.724Z</time>
      </trkpt>
      <trkpt lat="38.825729" lon="-0.942980">
        <ele>705.683499</ele>
        <time>2020-08-03T10:01:44.717Z</time>
      </trkpt>
      <trkpt lat="38.825706" lon="-0.943212">
        <ele>705.696843</ele>
        <time>2020-08-03T10:01:47.725Z</time>
      </trkpt>
      <trkpt lat="38.825751" lon="-0.943347">
        <ele>705.667620</ele>
        <time>2020-08-03T10:01:50.736Z</time>
      </trkpt>
      <trkpt lat="38.825774" lon="-0.943481">
        <ele>705.640311</ele>
        <time>2020-08-03T10:01:52.724Z</time>
      </trkpt>
      <trkpt lat="38.825798" lon="-0.943592">
        <ele>705.617385</ele>
        <time>2020-08-03T10:01:54.728Z</time>
      </trkpt>
      <trkpt lat="38.825817" lon="-0.943747">
        <ele>705.586158</ele>
        <time>2020-08-03T10:01:57.723Z</time>
      </trkpt>
      <trkpt lat="38.825868" lon="-0.943875">
        <ele>705.557545</ele>
        <time>2020-08-03T10:02:00.737Z</time>
      </trkpt>
      <trkpt lat="38.825913" lon="-0.944038">
        <ele>705.523128</ele>
        <time>2020-08-03T10:02:03.728Z</time>
      </trkpt>
      <trkpt lat="38.825925" lon="-0.944154">
        <ele>705.499839</ele>
        <time>2020-08-03T10:02:05.739Z</time>
      </trkpt>
      <trkpt lat="38.825942" lon="-0.944286">
        <ele>705.473212</ele>
        <time>2020-08-03T10:02:07.714Z</time>
      </trkpt>
      <trkpt lat="38.825958" lon="-0.944435">
        <ele>705.443278</ele>
        <time>2020-08-03T10:02:09.727Z</time>
      </trkpt>
      <trkpt lat="38.825960" lon="-0.944591">
        <ele>705.412226</ele>
        <time>2020-08-03T10:02:11.732Z</time>
      </trkpt>
      <trkpt lat="38.826013" lon="-0.944687">
        <ele>705.388809</ele>
        <time>2020-08-03T10:02:13.728Z</time>
      </trkpt>
      <trkpt lat="38.826061" lon="-0.944809">
        <ele>705.361608</ele>
        <time>2020-08-03T10:02:15.714Z</time>
      </trkpt>
      <trkpt lat="38.826086" lon="-0.944965">
        <ele>705.329911</ele>
        <time>2020-08-03T10:02:17.728Z</time>
      </trkpt>
      <trkpt lat="38.826122" lon="-0.945102">
        <ele>705.301136</ele>
        <time>2020-08-03T10:02:19.717Z</time>
      </trkpt>
      <trkpt lat="38.826144" lon="-0.945269">
        <ele>705.267428</ele>
        <time>2020-08-03T10:02:21.734Z</time>
      </trkpt>
      <trkpt lat="38.826197" lon="-0.945385">
        <ele>705.247421</ele>
        <time>2020-08-03T10:02:23.729Z</time>
      </trkpt>
      <trkpt lat="38.826230" lon="-0.945559">
        <ele>705.228324</ele>
        <time>2020-08-03T10:02:25.724Z</time>
      </trkpt>
      <trkpt lat="38.826278" lon="-0.945727">
        <ele>705.209241</ele>
        <time>2020-08-03T10:02:27.731Z</time>
      </trkpt>
      <trkpt lat="38.826304" lon="-0.945895">
        <ele>705.190975</ele>
        <time>2020-08-03T10:02:29.739Z</time>
      </trkpt>
      <trkpt lat="38.826320" lon="-0.946084">
        <ele>705.170701</ele>
        <time>2020-08-03T10:02:31.733Z</time>
      </trkpt>
      <trkpt lat="38.826342" lon="-0.946248">
        <ele>705.152955</ele>
        <time>2020-08-03T10:02:33.722Z</time>
      </trkpt>
      <trkpt lat="38.826366" lon="-0.946407">
        <ele>705.135683</ele>
        <time>2020-08-03T10:02:35.720Z</time>
      </trkpt>
      <trkpt lat="38.826406" lon="-0.946571">
        <ele>705.117357</ele>
        <time>2020-08-03T10:02:37.711Z</time>
      </trkpt>
      <trkpt lat="38.826435" lon="-0.946729">
        <ele>705.100046</ele>
        <time>2020-08-03T10:02:39.720Z</time>
      </trkpt>
      <trkpt lat="38.826459" lon="-0.946877">
        <ele>705.083925</ele>
        <time>2020-08-03T10:02:41.729Z</time>
      </trkpt>
      <trkpt lat="38.826477" lon="-0.947025">
        <ele>705.067951</ele>
        <time>2020-08-03T10:02:43.719Z</time>
      </trkpt>
      <trkpt lat="38.826500" lon="-0.947162">
        <ele>705.053006</ele>
        <time>2020-08-03T10:02:45.718Z</time>
      </trkpt>
      <trkpt lat="38.826545" lon="-0.947263">
        <ele>705.040598</ele>
        <time>2020-08-03T10:02:47.728Z</time>
      </trkpt>
      <trkpt lat="38.826567" lon="-0.947393">
        <ele>705.026411</ele>
        <time>2020-08-03T10:02:49.722Z</time>
      </trkpt>
      <trkpt lat="38.826590" lon="-0.947511">
        <ele>705.013440</ele>
        <time>2020-08-03T10:02:51.721Z</time>
      </trkpt>
      <trkpt lat="38.826612" lon="-0.947634">
        <ele>705.057093</ele>
        <time>2020-08-03T10:02:53.716Z</time>
      </trkpt>
      <trkpt lat="38.826624" lon="-0.947761">
        <ele>705.129741</ele>
        <time>2020-08-03T10:02:55.716Z</time>
      </trkpt>
      <trkpt lat="38.826658" lon="-0.947899">
        <ele>705.211933</ele>
        <time>2020-08-03T10:02:58.728Z</time>
      </trkpt>
      <trkpt lat="38.826681" lon="-0.948016">
        <ele>705.280457</ele>
        <time>2020-08-03T10:03:00.725Z</time>
      </trkpt>
      <trkpt lat="38.826714" lon="-0.948183">
        <ele>705.378295</ele>
        <time>2020-08-03T10:03:03.720Z</time>
      </trkpt>
      <trkpt lat="38.826745" lon="-0.948336">
        <ele>705.468070</ele>
        <time>2020-08-03T10:03:06.733Z</time>
      </trkpt>
      <trkpt lat="38.826760" lon="-0.948453">
        <ele>705.535405</ele>
        <time>2020-08-03T10:03:08.714Z</time>
      </trkpt>
      <trkpt lat="38.826783" lon="-0.948569">
        <ele>705.603378</ele>
        <time>2020-08-03T10:03:10.723Z</time>
      </trkpt>
      <trkpt lat="38.826827" lon="-0.948727">
        <ele>705.698662</ele>
        <time>2020-08-03T10:03:13.716Z</time>
      </trkpt>
      <trkpt lat="38.826845" lon="-0.948855">
        <ele>705.772524</ele>
        <time>2020-08-03T10:03:15.714Z</time>
      </trkpt>
      <trkpt lat="38.826926" lon="-0.948967">
        <ele>705.859307</ele>
        <time>2020-08-03T10:03:18.726Z</time>
      </trkpt>
      <trkpt lat="38.826937" lon="-0.949130">
        <ele>705.952216</ele>
        <time>2020-08-03T10:03:21.733Z</time>
      </trkpt>
      <trkpt lat="38.826946" lon="-0.949255">
        <ele>706.023503</ele>
        <time>2020-08-03T10:03:23.729Z</time>
      </trkpt>
      <trkpt lat="38.826941" lon="-0.949390">
        <ele>706.100252</ele>
        <time>2020-08-03T10:03:25.728Z</time>
      </trkpt>
      <trkpt lat="38.826981" lon="-0.949535">
        <ele>706.187603</ele>
        <time>2020-08-03T10:03:28.717Z</time>
      </trkpt>
      <trkpt lat="38.827006" lon="-0.949661">
        <ele>706.261439</ele>
        <time>2020-08-03T10:03:31.717Z</time>
      </trkpt>
      <trkpt lat="38.827025" lon="-0.949791">
        <ele>706.416821</ele>
        <time>2020-08-03T10:03:34.738Z</time>
      </trkpt>
      <trkpt lat="38.827047" lon="-0.949915">
        <ele>706.841485</ele>
        <time>2020-08-03T10:03:37.725Z</time>
      </trkpt>
      <trkpt lat="38.827058" lon="-0.950046">
        <ele>707.281454</ele>
        <time>2020-08-03T10:03:40.708Z</time>
      </trkpt>
      <trkpt lat="38.827079" lon="-0.950194">
        <ele>707.783787</ele>
        <time>2020-08-03T10:03:43.729Z</time>
      </trkpt>
      <trkpt lat="38.827097" lon="-0.950345">
        <ele>708.293875</ele>
        <time>2020-08-03T10:03:46.727Z</time>
      </trkpt>
      <trkpt lat="38.827115" lon="-0.950480">
        <ele>708.751222</ele>
        <time>2020-08-03T10:03:49.714Z</time>
      </trkpt>
      <trkpt lat="38.827130" lon="-0.950624">
        <ele>709.236347</ele>
        <time>2020-08-03T10:03:52.730Z</time>
      </trkpt>
      <trkpt lat="38.827159" lon="-0.950765">
        <ele>709.723306</ele>
        <time>2020-08-03T10:03:55.730Z</time>
      </trkpt>
      <trkpt lat="38.827189" lon="-0.950915">
        <ele>710.240428</ele>
        <time>2020-08-03T10:03:58.710Z</time>
      </trkpt>
      <trkpt lat="38.827216" lon="-0.951071">
        <ele>710.774044</ele>
        <time>2020-08-03T10:04:01.727Z</time>
      </trkpt>
      <trkpt lat="38.827247" lon="-0.951218">
        <ele>711.282573</ele>
        <time>2020-08-03T10:04:04.734Z</time>
      </trkpt>
      <trkpt lat="38.827278" lon="-0.951377">
        <ele>711.829879</ele>
        <time>2020-08-03T10:04:07.737Z</time>
      </trkpt>
      <trkpt lat="38.827308" lon="-0.951535">
        <ele>712.372916</ele>
        <time>2020-08-03T10:04:10.735Z</time>
      </trkpt>
      <trkpt lat="38.827342" lon="-0.951673">
        <ele>712.856220</ele>
        <time>2020-08-03T10:04:13.734Z</time>
      </trkpt>
      <trkpt lat="38.827371" lon="-0.951803">
        <ele>713.307761</ele>
        <time>2020-08-03T10:04:16.729Z</time>
      </trkpt>
      <trkpt lat="38.827396" lon="-0.951937">
        <ele>713.767865</ele>
        <time>2020-08-03T10:04:19.738Z</time>
      </trkpt>
      <trkpt lat="38.827419" lon="-0.952076">
        <ele>714.071076</ele>
        <time>2020-08-03T10:04:22.733Z</time>
      </trkpt>
      <trkpt lat="38.827445" lon="-0.952205">
        <ele>714.157782</ele>
        <time>2020-08-03T10:04:25.733Z</time>
      </trkpt>
      <trkpt lat="38.827471" lon="-0.952331">
        <ele>714.242599</ele>
        <time>2020-08-03T10:04:28.737Z</time>
      </trkpt>
      <trkpt lat="38.827496" lon="-0.952455">
        <ele>714.325945</ele>
        <time>2020-08-03T10:04:31.763Z</time>
      </trkpt>
      <trkpt lat="38.827532" lon="-0.952570">
        <ele>714.406593</ele>
        <time>2020-08-03T10:04:34.722Z</time>
      </trkpt>
      <trkpt lat="38.827561" lon="-0.952689">
        <ele>714.487727</ele>
        <time>2020-08-03T10:04:37.724Z</time>
      </trkpt>
      <trkpt lat="38.827586" lon="-0.952824">
        <ele>714.578021</ele>
        <time>2020-08-03T10:04:40.728Z</time>
      </trkpt>
      <trkpt lat="38.827612" lon="-0.952958">
        <ele>714.667880</ele>
        <time>2020-08-03T10:04:43.732Z</time>
      </trkpt>
      <trkpt lat="38.827647" lon="-0.953090">
        <ele>714.758612</ele>
        <time>2020-08-03T10:04:46.727Z</time>
      </trkpt>
      <trkpt lat="38.827688" lon="-0.953237">
        <ele>714.860212</ele>
        <time>2020-08-03T10:04:49.727Z</time>
      </trkpt>
      <trkpt lat="38.827730" lon="-0.953386">
        <ele>714.963319</ele>
        <time>2020-08-03T10:04:52.722Z</time>
      </trkpt>
      <trkpt lat="38.827771" lon="-0.953528">
        <ele>715.061862</ele>
        <time>2020-08-03T10:04:55.732Z</time>
      </trkpt>
      <trkpt lat="38.827799" lon="-0.953677">
        <ele>715.161598</ele>
        <time>2020-08-03T10:04:58.717Z</time>
      </trkpt>
      <trkpt lat="38.827832" lon="-0.953813">
        <ele>715.254288</ele>
        <time>2020-08-03T10:05:01.732Z</time>
      </trkpt>
      <trkpt lat="38.827863" lon="-0.953948">
        <ele>715.345870</ele>
        <time>2020-08-03T10:05:04.724Z</time>
      </trkpt>
      <trkpt lat="38.827900" lon="-0.954078">
        <ele>715.435931</ele>
        <time>2020-08-03T10:05:07.731Z</time>
      </trkpt>
      <trkpt lat="38.827940" lon="-0.954199">
        <ele>715.521462</ele>
        <time>2020-08-03T10:05:10.732Z</time>
      </trkpt>
      <trkpt lat="38.827986" lon="-0.954313">
        <ele>715.563287</ele>
        <time>2020-08-03T10:05:13.732Z</time>
      </trkpt>
      <trkpt lat="38.828027" lon="-0.954430">
        <ele>715.599079</ele>
        <time>2020-08-03T10:05:16.725Z</time>
      </trkpt>
      <trkpt lat="38.828057" lon="-0.954553">
        <ele>715.635036</ele>
        <time>2020-08-03T10:05:19.719Z</time>
      </trkpt>
      <trkpt lat="38.828091" lon="-0.954672">
        <ele>715.670397</ele>
        <time>2020-08-03T10:05:22.729Z</time>
      </trkpt>
      <trkpt lat="38.828135" lon="-0.954795">
        <ele>715.708157</ele>
        <time>2020-08-03T10:05:25.719Z</time>
      </trkpt>
      <trkpt lat="38.828174" lon="-0.954916">
        <ele>715.744689</ele>
        <time>2020-08-03T10:05:28.710Z</time>
      </trkpt>
      <trkpt lat="38.828210" lon="-0.955052">
        <ele>715.784761</ele>
        <time>2020-08-03T10:05:31.721Z</time>
      </trkpt>
      <trkpt lat="38.828262" lon="-0.955186">
        <ele>715.826526</ele>
        <time>2020-08-03T10:05:34.733Z</time>
      </trkpt>
      <trkpt lat="38.828309" lon="-0.955327">
        <ele>715.869312</ele>
        <time>2020-08-03T10:05:37.727Z</time>
      </trkpt>
      <trkpt lat="38.828348" lon="-0.955467">
        <ele>715.910792</ele>
        <time>2020-08-03T10:05:40.735Z</time>
      </trkpt>
      <trkpt lat="38.828390" lon="-0.955597">
        <ele>715.950054</ele>
        <time>2020-08-03T10:05:43.724Z</time>
      </trkpt>
      <trkpt lat="38.828436" lon="-0.955735">
        <ele>715.991930</ele>
        <time>2020-08-03T10:05:46.729Z</time>
      </trkpt>
      <trkpt lat="38.828475" lon="-0.955875">
        <ele>716.033409</ele>
        <time>2020-08-03T10:05:49.733Z</time>
      </trkpt>
      <trkpt lat="38.828517" lon="-0.956012">
        <ele>716.074483</ele>
        <time>2020-08-03T10:05:52.731Z</time>
      </trkpt>
      <trkpt lat="38.828563" lon="-0.956151">
        <ele>716.116615</ele>
        <time>2020-08-03T10:05:55.729Z</time>
      </trkpt>
      <trkpt lat="38.828605" lon="-0.956303">
        <ele>716.161609</ele>
        <time>2020-08-03T10:05:58.732Z</time>
      </trkpt>
      <trkpt lat="38.828642" lon="-0.956454">
        <ele>716.153613</ele>
        <time>2020-08-03T10:06:01.715Z</time>
      </trkpt>
      <trkpt lat="38.828680" lon="-0.956602">
        <ele>716.120661</ele>
        <time>2020-08-03T10:06:04.731Z</time>
      </trkpt>
      <trkpt lat="38.828717" lon="-0.956713">
        <ele>716.095131</ele>
        <time>2020-08-03T10:06:06.734Z</time>
      </trkpt>
      <trkpt lat="38.828755" lon="-0.956851">
        <ele>716.064181</ele>
        <time>2020-08-03T10:06:08.722Z</time>
      </trkpt>
      <trkpt lat="38.828791" lon="-0.957010">
        <ele>716.029168</ele>
        <time>2020-08-03T10:06:10.722Z</time>
      </trkpt>
      <trkpt lat="38.828837" lon="-0.957188">
        <ele>715.989512</ele>
        <time>2020-08-03T10:06:12.719Z</time>
      </trkpt>
      <trkpt lat="38.828892" lon="-0.957368">
        <ele>715.948626</ele>
        <time>2020-08-03T10:06:14.736Z</time>
      </trkpt>
      <trkpt lat="38.828934" lon="-0.957539">
        <ele>715.910713</ele>
        <time>2020-08-03T10:06:16.713Z</time>
      </trkpt>
      <trkpt lat="38.828980" lon="-0.957690">
        <ele>715.876428</ele>
        <time>2020-08-03T10:06:18.733Z</time>
      </trkpt>
      <trkpt lat="38.829013" lon="-0.957823">
        <ele>715.846913</ele>
        <time>2020-08-03T10:06:20.723Z</time>
      </trkpt>
      <trkpt lat="38.829051" lon="-0.957980">
        <ele>715.812149</ele>
        <time>2020-08-03T10:06:23.711Z</time>
      </trkpt>
      <trkpt lat="38.829088" lon="-0.958136">
        <ele>715.777666</ele>
        <time>2020-08-03T10:06:26.712Z</time>
      </trkpt>
      <trkpt lat="38.829150" lon="-0.958273">
        <ele>715.744163</ele>
        <time>2020-08-03T10:06:29.732Z</time>
      </trkpt>
      <trkpt lat="38.829189" lon="-0.958379">
        <ele>715.719375</ele>
        <time>2020-08-03T10:06:31.731Z</time>
      </trkpt>
      <trkpt lat="38.829213" lon="-0.958502">
        <ele>715.692563</ele>
        <time>2020-08-03T10:06:33.728Z</time>
      </trkpt>
      <trkpt lat="38.829261" lon="-0.958640">
        <ele>715.529686</ele>
        <time>2020-08-03T10:06:35.731Z</time>
      </trkpt>
      <trkpt lat="38.829283" lon="-0.958762">
        <ele>715.376103</ele>
        <time>2020-08-03T10:06:37.730Z</time>
      </trkpt>
      <trkpt lat="38.829315" lon="-0.958896">
        <ele>715.204212</ele>
        <time>2020-08-03T10:06:39.737Z</time>
      </trkpt>
      <trkpt lat="38.829353" lon="-0.959005">
        <ele>715.057754</ele>
        <time>2020-08-03T10:06:41.737Z</time>
      </trkpt>
      <trkpt lat="38.829390" lon="-0.959140">
        <ele>714.882237</ele>
        <time>2020-08-03T10:06:43.721Z</time>
      </trkpt>
      <trkpt lat="38.829430" lon="-0.959272">
        <ele>714.708530</ele>
        <time>2020-08-03T10:06:45.717Z</time>
      </trkpt>
      <trkpt lat="38.829463" lon="-0.959423">
        <ele>714.516188</ele>
        <time>2020-08-03T10:06:47.697Z</time>
      </trkpt>
      <trkpt lat="38.829499" lon="-0.959543">
        <ele>714.358480</ele>
        <time>2020-08-03T10:06:49.714Z</time>
      </trkpt>
      <trkpt lat="38.829542" lon="-0.959708">
        <ele>714.145094</ele>
        <time>2020-08-03T10:06:51.712Z</time>
      </trkpt>
      <trkpt lat="38.829588" lon="-0.959860">
        <ele>713.945103</ele>
        <time>2020-08-03T10:06:53.723Z</time>
      </trkpt>
      <trkpt lat="38.829647" lon="-0.960012">
        <ele>713.736826</ele>
        <time>2020-08-03T10:06:55.720Z</time>
      </trkpt>
      <trkpt lat="38.829704" lon="-0.960155">
        <ele>713.539820</ele>
        <time>2020-08-03T10:06:57.715Z</time>
      </trkpt>
      <trkpt lat="38.829748" lon="-0.960308">
        <ele>713.339798</ele>
        <time>2020-08-03T10:06:59.723Z</time>
      </trkpt>
      <trkpt lat="38.829778" lon="-0.960502">
        <ele>713.097228</ele>
        <time>2020-08-03T10:07:01.731Z</time>
      </trkpt>
      <trkpt lat="38.829832" lon="-0.960701">
        <ele>712.862983</ele>
        <time>2020-08-03T10:07:03.726Z</time>
      </trkpt>
      <trkpt lat="38.829880" lon="-0.960877">
        <ele>712.952099</ele>
        <time>2020-08-03T10:07:05.719Z</time>
      </trkpt>
      <trkpt lat="38.829936" lon="-0.961059">
        <ele>713.045616</ele>
        <time>2020-08-03T10:07:07.714Z</time>
      </trkpt>
      <trkpt lat="38.829983" lon="-0.961230">
        <ele>713.132274</ele>
        <time>2020-08-03T10:07:09.725Z</time>
      </trkpt>
      <trkpt lat="38.830042" lon="-0.961396">
        <ele>713.219472</ele>
        <time>2020-08-03T10:07:11.729Z</time>
      </trkpt>
      <trkpt lat="38.830076" lon="-0.961537">
        <ele>713.290010</ele>
        <time>2020-08-03T10:07:13.723Z</time>
      </trkpt>
      <trkpt lat="38.830107" lon="-0.961683">
        <ele>713.362329</ele>
        <time>2020-08-03T10:07:15.722Z</time>
      </trkpt>
      <trkpt lat="38.830128" lon="-0.961838">
        <ele>713.437515</ele>
        <time>2020-08-03T10:07:17.720Z</time>
      </trkpt>
      <trkpt lat="38.830154" lon="-0.961986">
        <ele>713.510020</ele>
        <time>2020-08-03T10:07:19.732Z</time>
      </trkpt>
      <trkpt lat="38.830178" lon="-0.962130">
        <ele>713.580395</ele>
        <time>2020-08-03T10:07:21.732Z</time>
      </trkpt>
      <trkpt lat="38.830218" lon="-0.962260">
        <ele>713.647192</ele>
        <time>2020-08-03T10:07:23.725Z</time>
      </trkpt>
      <trkpt lat="38.830259" lon="-0.962393">
        <ele>713.715548</ele>
        <time>2020-08-03T10:07:25.725Z</time>
      </trkpt>
      <trkpt lat="38.830305" lon="-0.962530">
        <ele>713.786842</ele>
        <time>2020-08-03T10:07:27.730Z</time>
      </trkpt>
      <trkpt lat="38.830349" lon="-0.962664">
        <ele>713.856337</ele>
        <time>2020-08-03T10:07:29.733Z</time>
      </trkpt>
      <trkpt lat="38.830392" lon="-0.962792">
        <ele>713.922953</ele>
        <time>2020-08-03T10:07:31.724Z</time>
      </trkpt>
      <trkpt lat="38.830448" lon="-0.962931">
        <ele>713.927280</ele>
        <time>2020-08-03T10:07:33.733Z</time>
      </trkpt>
      <trkpt lat="38.830475" lon="-0.963059">
        <ele>713.873541</ele>
        <time>2020-08-03T10:07:35.738Z</time>
      </trkpt>
      <trkpt lat="38.830515" lon="-0.963189">
        <ele>713.816898</ele>
        <time>2020-08-03T10:07:37.732Z</time>
      </trkpt>
      <trkpt lat="38.830549" lon="-0.963302">
        <ele>713.767808</ele>
        <time>2020-08-03T10:07:39.719Z</time>
      </trkpt>
      <trkpt lat="38.830594" lon="-0.963452">
        <ele>713.702669</ele>
        <time>2020-08-03T10:07:42.727Z</time>
      </trkpt>
      <trkpt lat="38.830633" lon="-0.963592">
        <ele>713.642416</ele>
        <time>2020-08-03T10:07:45.736Z</time>
      </trkpt>
      <trkpt lat="38.830687" lon="-0.963725">
        <ele>713.581637</ele>
        <time>2020-08-03T10:07:48.765Z</time>
      </trkpt>
      <trkpt lat="38.830729" lon="-0.963859">
        <ele>713.523104</ele>
        <time>2020-08-03T10:07:51.707Z</time>
      </trkpt>
      <trkpt lat="38.830773" lon="-0.964015">
        <ele>713.455869</ele>
        <time>2020-08-03T10:07:54.729Z</time>
      </trkpt>
      <trkpt lat="38.830801" lon="-0.964138">
        <ele>713.403940</ele>
        <time>2020-08-03T10:07:56.728Z</time>
      </trkpt>
      <trkpt lat="38.830827" lon="-0.964257">
        <ele>713.353855</ele>
        <time>2020-08-03T10:07:58.735Z</time>
      </trkpt>
      <trkpt lat="38.830871" lon="-0.964408">
        <ele>713.288522</ele>
        <time>2020-08-03T10:08:01.736Z</time>
      </trkpt>
      <trkpt lat="38.830896" lon="-0.964539">
        <ele>713.233865</ele>
        <time>2020-08-03T10:08:03.735Z</time>
      </trkpt>
      <trkpt lat="38.830926" lon="-0.964664">
        <ele>713.180860</ele>
        <time>2020-08-03T10:08:05.723Z</time>
      </trkpt>
      <trkpt lat="38.830964" lon="-0.964818">
        <ele>713.115396</ele>
        <time>2020-08-03T10:08:08.727Z</time>
      </trkpt>
      <trkpt lat="38.831027" lon="-0.964968">
        <ele>713.046337</ele>
        <time>2020-08-03T10:08:11.721Z</time>
      </trkpt>
      <trkpt lat="38.831068" lon="-0.965089">
        <ele>713.011419</ele>
        <time>2020-08-03T10:08:13.740Z</time>
      </trkpt>
      <trkpt lat="38.831115" lon="-0.965208">
        <ele>712.989637</ele>
        <time>2020-08-03T10:08:15.729Z</time>
      </trkpt>
      <trkpt lat="38.831156" lon="-0.965330">
        <ele>712.967944</ele>
        <time>2020-08-03T10:08:17.732Z</time>
      </trkpt>
      <trkpt lat="38.831187" lon="-0.965448">
        <ele>712.947613</ele>
        <time>2020-08-03T10:08:19.727Z</time>
      </trkpt>
      <trkpt lat="38.831242" lon="-0.965568">
        <ele>712.924883</ele>
        <time>2020-08-03T10:08:21.717Z</time>
      </trkpt>
      <trkpt lat="38.831279" lon="-0.965699">
        <ele>712.902133</ele>
        <time>2020-08-03T10:08:23.717Z</time>
      </trkpt>
      <trkpt lat="38.831317" lon="-0.965813">
        <ele>712.881889</ele>
        <time>2020-08-03T10:08:25.730Z</time>
      </trkpt>
      <trkpt lat="38.831362" lon="-0.965948">
        <ele>712.857916</ele>
        <time>2020-08-03T10:08:27.724Z</time>
      </trkpt>
      <trkpt lat="38.831409" lon="-0.966075">
        <ele>712.834961</ele>
        <time>2020-08-03T10:08:29.721Z</time>
      </trkpt>
      <trkpt lat="38.831459" lon="-0.966246">
        <ele>712.805142</ele>
        <time>2020-08-03T10:08:31.730Z</time>
      </trkpt>
      <trkpt lat="38.831508" lon="-0.966395">
        <ele>712.778737</ele>
        <time>2020-08-03T10:08:33.728Z</time>
      </trkpt>
      <trkpt lat="38.831565" lon="-0.966556">
        <ele>712.749865</ele>
        <time>2020-08-03T10:08:35.727Z</time>
      </trkpt>
      <trkpt lat="38.831625" lon="-0.966735">
        <ele>712.718051</ele>
        <time>2020-08-03T10:08:37.729Z</time>
      </trkpt>
      <trkpt lat="38.831673" lon="-0.966910">
        <ele>712.687761</ele>
        <time>2020-08-03T10:08:39.741Z</time>
      </trkpt>
      <trkpt lat="38.831724" lon="-0.967067">
        <ele>712.659990</ele>
        <time>2020-08-03T10:08:41.740Z</time>
      </trkpt>
      <trkpt lat="38.831760" lon="-0.967241">
        <ele>712.591022</ele>
        <time>2020-08-03T10:08:43.720Z</time>
      </trkpt>
      <trkpt lat="38.831799" lon="-0.967412">
        <ele>712.491660</ele>
        <time>2020-08-03T10:08:45.731Z</time>
      </trkpt>
      <trkpt lat="38.831841" lon="-0.967579">
        <ele>712.393799</ele>
        <time>2020-08-03T10:08:47.728Z</time>
      </trkpt>
      <trkpt lat="38.831896" lon="-0.967745">
        <ele>712.293203</ele>
        <time>2020-08-03T10:08:49.727Z</time>
      </trkpt>
      <trkpt lat="38.831929" lon="-0.967898">
        <ele>712.204672</ele>
        <time>2020-08-03T10:08:51.703Z</time>
      </trkpt>
      <trkpt lat="38.831971" lon="-0.968069">
        <ele>712.104685</ele>
        <time>2020-08-03T10:08:53.735Z</time>
      </trkpt>
      <trkpt lat="38.832015" lon="-0.968232">
        <ele>712.008485</ele>
        <time>2020-08-03T10:08:55.718Z</time>
      </trkpt>
      <trkpt lat="38.832061" lon="-0.968393">
        <ele>711.912855</ele>
        <time>2020-08-03T10:08:57.728Z</time>
      </trkpt>
      <trkpt lat="38.832102" lon="-0.968565">
        <ele>711.812548</ele>
        <time>2020-08-03T10:08:59.737Z</time>
      </trkpt>
      <trkpt lat="38.832158" lon="-0.968715">
        <ele>711.719790</ele>
        <time>2020-08-03T10:09:01.727Z</time>
      </trkpt>
      <trkpt lat="38.832207" lon="-0.968866">
        <ele>711.628571</ele>
        <time>2020-08-03T10:09:03.737Z</time>
      </trkpt>
      <trkpt lat="38.832256" lon="-0.969026">
        <ele>711.532699</ele>
        <time>2020-08-03T10:09:05.735Z</time>
      </trkpt>
      <trkpt lat="38.832297" lon="-0.969174">
        <ele>711.445103</ele>
        <time>2020-08-03T10:09:07.735Z</time>
      </trkpt>
      <trkpt lat="38.832339" lon="-0.969345">
        <ele>711.347747</ele>
        <time>2020-08-03T10:09:09.727Z</time>
      </trkpt>
      <trkpt lat="38.832407" lon="-0.969492">
        <ele>711.269981</ele>
        <time>2020-08-03T10:09:11.728Z</time>
      </trkpt>
      <trkpt lat="38.832456" lon="-0.969670">
        <ele>711.184108</ele>
        <time>2020-08-03T10:09:13.728Z</time>
      </trkpt>
      <trkpt lat="38.832513" lon="-0.969832">
        <ele>711.103252</ele>
        <time>2020-08-03T10:09:15.722Z</time>
      </trkpt>
      <trkpt lat="38.832561" lon="-0.970001">
        <ele>711.021430</ele>
        <time>2020-08-03T10:09:17.729Z</time>
      </trkpt>
      <trkpt lat="38.832612" lon="-0.970189">
        <ele>710.930878</ele>
        <time>2020-08-03T10:09:19.730Z</time>
      </trkpt>
      <trkpt lat="38.832663" lon="-0.970378">
        <ele>710.839897</ele>
        <time>2020-08-03T10:09:21.730Z</time>
      </trkpt>
      <trkpt lat="38.832713" lon="-0.970537">
        <ele>710.761903</ele>
        <time>2020-08-03T10:09:23.721Z</time>
      </trkpt>
      <trkpt lat="38.832771" lon="-0.970728">
        <ele>710.668657</ele>
        <time>2020-08-03T10:09:25.729Z</time>
      </trkpt>
      <trkpt lat="38.832825" lon="-0.970899">
        <ele>710.584727</ele>
        <time>2020-08-03T10:09:27.721Z</time>
      </trkpt>
      <trkpt lat="38.832880" lon="-0.971071">
        <ele>710.500155</ele>
        <time>2020-08-03T10:09:29.729Z</time>
      </trkpt>
      <trkpt lat="38.832951" lon="-0.971218">
        <ele>710.421481</ele>
        <time>2020-08-03T10:09:31.716Z</time>
      </trkpt>
      <trkpt lat="38.833001" lon="-0.971388">
        <ele>710.338826</ele>
        <time>2020-08-03T10:09:33.734Z</time>
      </trkpt>
      <trkpt lat="38.833045" lon="-0.971570">
        <ele>710.288729</ele>
        <time>2020-08-03T10:09:35.711Z</time>
      </trkpt>
      <trkpt lat="38.833088" lon="-0.971736">
        <ele>710.260250</ele>
        <time>2020-08-03T10:09:37.740Z</time>
      </trkpt>
      <trkpt lat="38.833141" lon="-0.971889">
        <ele>710.232991</ele>
        <time>2020-08-03T10:09:39.738Z</time>
      </trkpt>
      <trkpt lat="38.833195" lon="-0.972034">
        <ele>710.206826</ele>
        <time>2020-08-03T10:09:41.733Z</time>
      </trkpt>
      <trkpt lat="38.833238" lon="-0.972193">
        <ele>710.179426</ele>
        <time>2020-08-03T10:09:43.728Z</time>
      </trkpt>
      <trkpt lat="38.833267" lon="-0.972359">
        <ele>710.151730</ele>
        <time>2020-08-03T10:09:45.733Z</time>
      </trkpt>
      <trkpt lat="38.833312" lon="-0.972512">
        <ele>710.125106</ele>
        <time>2020-08-03T10:09:47.735Z</time>
      </trkpt>
      <trkpt lat="38.833353" lon="-0.972672">
        <ele>710.097686</ele>
        <time>2020-08-03T10:09:49.716Z</time>
      </trkpt>
      <trkpt lat="38.833408" lon="-0.972824">
        <ele>710.070402</ele>
        <time>2020-08-03T10:09:51.734Z</time>
      </trkpt>
      <trkpt lat="38.833442" lon="-0.972997">
        <ele>710.041355</ele>
        <time>2020-08-03T10:09:53.737Z</time>
      </trkpt>
      <trkpt lat="38.833478" lon="-0.973172">
        <ele>710.011889</ele>
        <time>2020-08-03T10:09:55.722Z</time>
      </trkpt>
      <trkpt lat="38.833514" lon="-0.973341">
        <ele>709.983367</ele>
        <time>2020-08-03T10:09:57.731Z</time>
      </trkpt>
      <trkpt lat="38.833565" lon="-0.973513">
        <ele>709.953406</ele>
        <time>2020-08-03T10:09:59.725Z</time>
      </trkpt>
      <trkpt lat="38.833614" lon="-0.973668">
        <ele>709.911831</ele>
        <time>2020-08-03T10:10:01.730Z</time>
      </trkpt>
      <trkpt lat="38.833674" lon="-0.973828">
        <ele>709.824133</ele>
        <time>2020-08-03T10:10:03.725Z</time>
      </trkpt>
      <trkpt lat="38.833731" lon="-0.974008">
        <ele>709.728171</ele>
        <time>2020-08-03T10:10:05.713Z</time>
      </trkpt>
      <trkpt lat="38.833798" lon="-0.974182">
        <ele>709.632312</ele>
        <time>2020-08-03T10:10:07.727Z</time>
      </trkpt>
      <trkpt lat="38.833850" lon="-0.974359">
        <ele>709.538887</ele>
        <time>2020-08-03T10:10:09.723Z</time>
      </trkpt>
      <trkpt lat="38.833900" lon="-0.974541">
        <ele>709.443577</ele>
        <time>2020-08-03T10:10:11.715Z</time>
      </trkpt>
      <trkpt lat="38.833955" lon="-0.974726">
        <ele>709.345783</ele>
        <time>2020-08-03T10:10:13.722Z</time>
      </trkpt>
      <trkpt lat="38.834003" lon="-0.974913">
        <ele>709.248545</ele>
        <time>2020-08-03T10:10:15.721Z</time>
      </trkpt>
      <trkpt lat="38.834067" lon="-0.975109">
        <ele>709.143586</ele>
        <time>2020-08-03T10:10:17.723Z</time>
      </trkpt>
      <trkpt lat="38.834131" lon="-0.975281">
        <ele>709.049448</ele>
        <time>2020-08-03T10:10:19.722Z</time>
      </trkpt>
      <trkpt lat="38.834208" lon="-0.975470">
        <ele>708.944111</ele>
        <time>2020-08-03T10:10:21.715Z</time>
      </trkpt>
      <trkpt lat="38.834269" lon="-0.975669">
        <ele>708.838496</ele>
        <time>2020-08-03T10:10:23.734Z</time>
      </trkpt>
      <trkpt lat="38.834326" lon="-0.975834">
        <ele>708.726605</ele>
        <time>2020-08-03T10:10:25.728Z</time>
      </trkpt>
      <trkpt lat="38.834385" lon="-0.976005">
        <ele>708.585964</ele>
        <time>2020-08-03T10:10:27.735Z</time>
      </trkpt>
      <trkpt lat="38.834444" lon="-0.976180">
        <ele>708.442567</ele>
        <time>2020-08-03T10:10:29.729Z</time>
      </trkpt>
      <trkpt lat="38.834496" lon="-0.976357">
        <ele>708.300312</ele>
        <time>2020-08-03T10:10:31.727Z</time>
      </trkpt>
      <trkpt lat="38.834545" lon="-0.976531">
        <ele>708.161176</ele>
        <time>2020-08-03T10:10:33.730Z</time>
      </trkpt>
      <trkpt lat="38.834590" lon="-0.976695">
        <ele>708.030421</ele>
        <time>2020-08-03T10:10:35.730Z</time>
      </trkpt>
      <trkpt lat="38.834629" lon="-0.976852">
        <ele>707.906500</ele>
        <time>2020-08-03T10:10:37.732Z</time>
      </trkpt>
      <trkpt lat="38.834656" lon="-0.977022">
        <ele>707.776030</ele>
        <time>2020-08-03T10:10:39.729Z</time>
      </trkpt>
      <trkpt lat="38.834697" lon="-0.977178">
        <ele>707.652222</ele>
        <time>2020-08-03T10:10:41.731Z</time>
      </trkpt>
      <trkpt lat="38.834741" lon="-0.977342">
        <ele>707.521784</ele>
        <time>2020-08-03T10:10:43.727Z</time>
      </trkpt>
      <trkpt lat="38.834795" lon="-0.977500">
        <ele>707.392036</ele>
        <time>2020-08-03T10:10:45.725Z</time>
      </trkpt>
      <trkpt lat="38.834849" lon="-0.977642">
        <ele>707.273207</ele>
        <time>2020-08-03T10:10:47.727Z</time>
      </trkpt>
      <trkpt lat="38.834892" lon="-0.977764">
        <ele>707.172510</ele>
        <time>2020-08-03T10:10:49.730Z</time>
      </trkpt>
      <trkpt lat="38.834950" lon="-0.977892">
        <ele>707.061153</ele>
        <time>2020-08-03T10:10:51.731Z</time>
      </trkpt>
      <trkpt lat="38.835008" lon="-0.978010">
        <ele>706.921858</ele>
        <time>2020-08-03T10:10:53.722Z</time>
      </trkpt>
      <trkpt lat="38.835066" lon="-0.978125">
        <ele>706.783517</ele>
        <time>2020-08-03T10:10:55.713Z</time>
      </trkpt>
      <trkpt lat="38.835109" lon="-0.978241">
        <ele>706.653796</ele>
        <time>2020-08-03T10:10:57.726Z</time>
      </trkpt>
      <trkpt lat="38.835146" lon="-0.978364">
        <ele>706.520654</ele>
        <time>2020-08-03T10:10:59.731Z</time>
      </trkpt>
      <trkpt lat="38.835177" lon="-0.978511">
        <ele>706.366873</ele>
        <time>2020-08-03T10:11:02.734Z</time>
      </trkpt>
      <trkpt lat="38.835238" lon="-0.978631">
        <ele>706.222180</ele>
        <time>2020-08-03T10:11:06.713Z</time>
      </trkpt>
      <trkpt lat="38.835315" lon="-0.978708">
        <ele>706.095653</ele>
        <time>2020-08-03T10:11:09.716Z</time>
      </trkpt>
      <trkpt lat="38.835273" lon="-0.978866">
        <ele>705.927074</ele>
        <time>2020-08-03T10:11:11.713Z</time>
      </trkpt>
      <trkpt lat="38.835306" lon="-0.978997">
        <ele>705.788048</ele>
        <time>2020-08-03T10:11:14.712Z</time>
      </trkpt>
      <trkpt lat="38.835323" lon="-0.979141">
        <ele>705.640980</ele>
        <time>2020-08-03T10:11:17.716Z</time>
      </trkpt>
      <trkpt lat="38.835337" lon="-0.979307">
        <ele>705.472378</ele>
        <time>2020-08-03T10:11:20.720Z</time>
      </trkpt>
      <trkpt lat="38.835358" lon="-0.979447">
        <ele>705.328412</ele>
        <time>2020-08-03T10:11:23.731Z</time>
      </trkpt>
      <trkpt lat="38.835382" lon="-0.979575">
        <ele>705.195469</ele>
        <time>2020-08-03T10:11:26.722Z</time>
      </trkpt>
      <trkpt lat="38.835407" lon="-0.979700">
        <ele>705.065153</ele>
        <time>2020-08-03T10:11:29.728Z</time>
      </trkpt>
      <trkpt lat="38.835461" lon="-0.979812">
        <ele>704.932146</ele>
        <time>2020-08-03T10:11:32.728Z</time>
      </trkpt>
      <trkpt lat="38.835504" lon="-0.979920">
        <ele>704.809671</ele>
        <time>2020-08-03T10:11:35.723Z</time>
      </trkpt>
      <trkpt lat="38.835533" lon="-0.980051">
        <ele>704.850334</ele>
        <time>2020-08-03T10:11:39.717Z</time>
      </trkpt>
      <trkpt lat="38.835491" lon="-0.980183">
        <ele>705.193052</ele>
        <time>2020-08-03T10:11:43.714Z</time>
      </trkpt>
      <trkpt lat="38.835418" lon="-0.980277">
        <ele>705.512090</ele>
        <time>2020-08-03T10:11:46.707Z</time>
      </trkpt>
      <trkpt lat="38.835328" lon="-0.980352">
        <ele>705.843177</ele>
        <time>2020-08-03T10:11:49.731Z</time>
      </trkpt>
      <trkpt lat="38.835231" lon="-0.980417">
        <ele>706.180807</ele>
        <time>2020-08-03T10:11:53.721Z</time>
      </trkpt>
      <trkpt lat="38.835141" lon="-0.980446">
        <ele>706.467129</ele>
        <time>2020-08-03T10:11:58.713Z</time>
      </trkpt>
      <trkpt lat="38.835066" lon="-0.980355">
        <ele>706.785559</ele>
        <time>2020-08-03T10:12:05.708Z</time>
      </trkpt>
      <trkpt lat="38.835050" lon="-0.980225">
        <ele>707.101901</ele>
        <time>2020-08-03T10:12:11.732Z</time>
      </trkpt>
      <trkpt lat="38.834999" lon="-0.980124">
        <ele>707.391207</ele>
        <time>2020-08-03T10:12:17.707Z</time>
      </trkpt>
      <trkpt lat="38.834933" lon="-0.980034">
        <ele>707.688309</ele>
        <time>2020-08-03T10:12:21.730Z</time>
      </trkpt>
      <trkpt lat="38.834882" lon="-0.979932">
        <ele>707.979635</ele>
        <time>2020-08-03T10:12:27.736Z</time>
      </trkpt>
      <trkpt lat="38.834876" lon="-0.979788">
        <ele>708.326246</ele>
        <time>2020-08-03T10:12:32.724Z</time>
      </trkpt>
      <trkpt lat="38.834852" lon="-0.979661">
        <ele>708.640356</ele>
        <time>2020-08-03T10:12:37.726Z</time>
      </trkpt>
      <trkpt lat="38.834822" lon="-0.979534">
        <ele>708.959339</ele>
        <time>2020-08-03T10:12:42.726Z</time>
      </trkpt>
      <trkpt lat="38.834769" lon="-0.979411">
        <ele>709.297198</ele>
        <time>2020-08-03T10:12:47.705Z</time>
      </trkpt>
      <trkpt lat="38.834707" lon="-0.979321">
        <ele>709.585981</ele>
        <time>2020-08-03T10:12:52.716Z</time>
      </trkpt>
      <trkpt lat="38.834674" lon="-0.979204">
        <ele>709.885069</ele>
        <time>2020-08-03T10:12:59.731Z</time>
      </trkpt>
      <trkpt lat="38.834672" lon="-0.979057">
        <ele>710.238450</ele>
        <time>2020-08-03T10:13:04.736Z</time>
      </trkpt>
      <trkpt lat="38.834722" lon="-0.978946">
        <ele>710.414539</ele>
        <time>2020-08-03T10:13:07.720Z</time>
      </trkpt>
      <trkpt lat="38.834765" lon="-0.978835">
        <ele>710.567684</ele>
        <time>2020-08-03T10:13:12.736Z</time>
      </trkpt>
      <trkpt lat="38.834826" lon="-0.978724">
        <ele>710.735497</ele>
        <time>2020-08-03T10:13:17.726Z</time>
      </trkpt>
      <trkpt lat="38.834887" lon="-0.978617">
        <ele>710.899297</ele>
        <time>2020-08-03T10:13:22.728Z</time>
      </trkpt>
      <trkpt lat="38.834974" lon="-0.978548">
        <ele>711.061477</ele>
        <time>2020-08-03T10:13:27.719Z</time>
      </trkpt>
      <trkpt lat="38.835031" lon="-0.978454">
        <ele>711.208636</ele>
        <time>2020-08-03T10:13:32.712Z</time>
      </trkpt>
      <trkpt lat="38.835124" lon="-0.978444">
        <ele>711.356641</ele>
        <time>2020-08-03T10:13:40.720Z</time>
      </trkpt>
      <trkpt lat="38.835190" lon="-0.978528">
        <ele>711.504030</ele>
        <time>2020-08-03T10:13:46.734Z</time>
      </trkpt>
      <trkpt lat="38.835129" lon="-0.978443">
        <ele>711.646804</ele>
        <time>2020-08-03T10:14:02.720Z</time>
      </trkpt>
      <trkpt lat="38.835036" lon="-0.978440">
        <ele>711.794338</ele>
        <time>2020-08-03T10:14:15.724Z</time>
      </trkpt>
      <trkpt lat="38.835246" lon="-0.978543">
        <ele>712.150855</ele>
        <time>2020-08-03T10:19:08.717Z</time>
      </trkpt>
      <trkpt lat="38.835324" lon="-0.978479">
        <ele>712.297663</ele>
        <time>2020-08-03T10:19:11.711Z</time>
      </trkpt>
      <trkpt lat="38.835414" lon="-0.978389">
        <ele>712.478585</ele>
        <time>2020-08-03T10:19:14.708Z</time>
      </trkpt>
      <trkpt lat="38.835517" lon="-0.978331">
        <ele>712.656956</ele>
        <time>2020-08-03T10:19:17.723Z</time>
      </trkpt>
      <trkpt lat="38.835599" lon="-0.978269">
        <ele>712.807878</ele>
        <time>2020-08-03T10:19:20.718Z</time>
      </trkpt>
      <trkpt lat="38.835691" lon="-0.978184">
        <ele>712.987636</ele>
        <time>2020-08-03T10:19:23.721Z</time>
      </trkpt>
      <trkpt lat="38.835771" lon="-0.978076">
        <ele>713.115665</ele>
        <time>2020-08-03T10:19:26.727Z</time>
      </trkpt>
      <trkpt lat="38.835834" lon="-0.977946">
        <ele>713.066124</ele>
        <time>2020-08-03T10:19:29.728Z</time>
      </trkpt>
      <trkpt lat="38.835876" lon="-0.977808">
        <ele>713.018184</ele>
        <time>2020-08-03T10:19:32.724Z</time>
      </trkpt>
      <trkpt lat="38.835875" lon="-0.977686">
        <ele>712.978706</ele>
        <time>2020-08-03T10:19:37.726Z</time>
      </trkpt>
      <trkpt lat="38.835480" lon="-0.977962">
        <ele>712.791896</ele>
        <time>2020-08-03T10:20:19.709Z</time>
      </trkpt>
      <trkpt lat="38.835423" lon="-0.978088">
        <ele>712.744749</ele>
        <time>2020-08-03T10:20:21.721Z</time>
      </trkpt>
      <trkpt lat="38.835427" lon="-0.978253">
        <ele>712.691334</ele>
        <time>2020-08-03T10:20:24.715Z</time>
      </trkpt>
      <trkpt lat="38.835475" lon="-0.978407">
        <ele>712.637662</ele>
        <time>2020-08-03T10:20:27.723Z</time>
      </trkpt>
      <trkpt lat="38.835524" lon="-0.978549">
        <ele>712.587408</ele>
        <time>2020-08-03T10:20:30.726Z</time>
      </trkpt>
      <trkpt lat="38.835584" lon="-0.978674">
        <ele>712.539899</ele>
        <time>2020-08-03T10:20:33.720Z</time>
      </trkpt>
      <trkpt lat="38.835639" lon="-0.978805">
        <ele>712.491746</ele>
        <time>2020-08-03T10:20:36.729Z</time>
      </trkpt>
      <trkpt lat="38.835677" lon="-0.978933">
        <ele>712.447423</ele>
        <time>2020-08-03T10:20:39.712Z</time>
      </trkpt>
      <trkpt lat="38.835705" lon="-0.979062">
        <ele>712.404092</ele>
        <time>2020-08-03T10:20:42.709Z</time>
      </trkpt>
      <trkpt lat="38.835751" lon="-0.979177">
        <ele>712.374292</ele>
        <time>2020-08-03T10:20:45.718Z</time>
      </trkpt>
      <trkpt lat="38.835795" lon="-0.979303">
        <ele>712.359648</ele>
        <time>2020-08-03T10:20:48.738Z</time>
      </trkpt>
      <trkpt lat="38.835842" lon="-0.979440">
        <ele>712.343773</ele>
        <time>2020-08-03T10:20:51.731Z</time>
      </trkpt>
      <trkpt lat="38.835885" lon="-0.979564">
        <ele>712.329378</ele>
        <time>2020-08-03T10:20:54.718Z</time>
      </trkpt>
      <trkpt lat="38.835912" lon="-0.979702">
        <ele>712.314289</ele>
        <time>2020-08-03T10:20:57.717Z</time>
      </trkpt>
      <trkpt lat="38.835954" lon="-0.979845">
        <ele>712.298081</ele>
        <time>2020-08-03T10:21:00.726Z</time>
      </trkpt>
      <trkpt lat="38.836012" lon="-0.979983">
        <ele>712.281452</ele>
        <time>2020-08-03T10:21:03.733Z</time>
      </trkpt>
      <trkpt lat="38.836063" lon="-0.980122">
        <ele>712.265158</ele>
        <time>2020-08-03T10:21:06.715Z</time>
      </trkpt>
      <trkpt lat="38.836099" lon="-0.980256">
        <ele>712.250126</ele>
        <time>2020-08-03T10:21:09.712Z</time>
      </trkpt>
      <trkpt lat="38.836133" lon="-0.980394">
        <ele>712.234776</ele>
        <time>2020-08-03T10:21:12.751Z</time>
      </trkpt>
      <trkpt lat="38.836167" lon="-0.980538">
        <ele>712.218819</ele>
        <time>2020-08-03T10:21:15.718Z</time>
      </trkpt>
      <trkpt lat="38.836210" lon="-0.980690">
        <ele>712.201669</ele>
        <time>2020-08-03T10:21:18.732Z</time>
      </trkpt>
      <trkpt lat="38.836248" lon="-0.980847">
        <ele>712.184235</ele>
        <time>2020-08-03T10:21:21.723Z</time>
      </trkpt>
      <trkpt lat="38.836296" lon="-0.980987">
        <ele>712.168013</ele>
        <time>2020-08-03T10:21:24.724Z</time>
      </trkpt>
      <trkpt lat="38.836350" lon="-0.981111">
        <ele>712.152947</ele>
        <time>2020-08-03T10:21:27.713Z</time>
      </trkpt>
      <trkpt lat="38.836405" lon="-0.981255">
        <ele>712.135939</ele>
        <time>2020-08-03T10:21:30.715Z</time>
      </trkpt>
      <trkpt lat="38.836455" lon="-0.981399">
        <ele>711.661309</ele>
        <time>2020-08-03T10:21:33.735Z</time>
      </trkpt>
      <trkpt lat="38.836505" lon="-0.981542">
        <ele>711.170735</ele>
        <time>2020-08-03T10:21:36.732Z</time>
      </trkpt>
      <trkpt lat="38.836540" lon="-0.981696">
        <ele>710.668659</ele>
        <time>2020-08-03T10:21:39.722Z</time>
      </trkpt>
      <trkpt lat="38.836571" lon="-0.981852">
        <ele>710.164782</ele>
        <time>2020-08-03T10:21:42.723Z</time>
      </trkpt>
      <trkpt lat="38.836603" lon="-0.981966">
        <ele>709.785532</ele>
        <time>2020-08-03T10:21:44.734Z</time>
      </trkpt>
      <trkpt lat="38.836641" lon="-0.982094">
        <ele>709.356817</ele>
        <time>2020-08-03T10:21:46.725Z</time>
      </trkpt>
      <trkpt lat="38.836683" lon="-0.982221">
        <ele>708.925001</ele>
        <time>2020-08-03T10:21:48.720Z</time>
      </trkpt>
      <trkpt lat="38.836717" lon="-0.982332">
        <ele>708.551706</ele>
        <time>2020-08-03T10:21:50.722Z</time>
      </trkpt>
      <trkpt lat="38.836761" lon="-0.982456">
        <ele>708.125249</ele>
        <time>2020-08-03T10:21:52.722Z</time>
      </trkpt>
      <trkpt lat="38.836802" lon="-0.982570">
        <ele>707.732265</ele>
        <time>2020-08-03T10:21:54.716Z</time>
      </trkpt>
      <trkpt lat="38.836846" lon="-0.982689">
        <ele>707.319998</ele>
        <time>2020-08-03T10:21:56.726Z</time>
      </trkpt>
      <trkpt lat="38.836873" lon="-0.982800">
        <ele>706.956054</ele>
        <time>2020-08-03T10:21:58.716Z</time>
      </trkpt>
      <trkpt lat="38.836872" lon="-0.982932">
        <ele>706.542912</ele>
        <time>2020-08-03T10:22:00.716Z</time>
      </trkpt>
      <trkpt lat="38.836922" lon="-0.983071">
        <ele>706.063733</ele>
        <time>2020-08-03T10:22:03.729Z</time>
      </trkpt>
      <trkpt lat="38.836961" lon="-0.983186">
        <ele>705.671183</ele>
        <time>2020-08-03T10:22:05.729Z</time>
      </trkpt>
      <trkpt lat="38.836999" lon="-0.983297">
        <ele>705.291713</ele>
        <time>2020-08-03T10:22:07.722Z</time>
      </trkpt>
      <trkpt lat="38.837039" lon="-0.983407">
        <ele>704.911777</ele>
        <time>2020-08-03T10:22:09.722Z</time>
      </trkpt>
      <trkpt lat="38.837079" lon="-0.983513">
        <ele>704.943334</ele>
        <time>2020-08-03T10:22:11.709Z</time>
      </trkpt>
      <trkpt lat="38.837138" lon="-0.983670">
        <ele>704.995484</ele>
        <time>2020-08-03T10:22:14.720Z</time>
      </trkpt>
      <trkpt lat="38.837189" lon="-0.983817">
        <ele>705.043628</ele>
        <time>2020-08-03T10:22:17.720Z</time>
      </trkpt>
      <trkpt lat="38.837203" lon="-0.983932">
        <ele>705.078450</ele>
        <time>2020-08-03T10:22:19.707Z</time>
      </trkpt>
      <trkpt lat="38.837241" lon="-0.984056">
        <ele>705.118316</ele>
        <time>2020-08-03T10:22:22.714Z</time>
      </trkpt>
      <trkpt lat="38.837274" lon="-0.984181">
        <ele>705.157802</ele>
        <time>2020-08-03T10:22:25.732Z</time>
      </trkpt>
      <trkpt lat="38.837326" lon="-0.984319">
        <ele>705.203665</ele>
        <time>2020-08-03T10:22:28.711Z</time>
      </trkpt>
      <trkpt lat="38.837372" lon="-0.984453">
        <ele>705.247474</ele>
        <time>2020-08-03T10:22:31.728Z</time>
      </trkpt>
      <trkpt lat="38.837420" lon="-0.984582">
        <ele>705.290245</ele>
        <time>2020-08-03T10:22:34.719Z</time>
      </trkpt>
      <trkpt lat="38.837470" lon="-0.984710">
        <ele>705.333084</ele>
        <time>2020-08-03T10:22:37.718Z</time>
      </trkpt>
      <trkpt lat="38.837521" lon="-0.984844">
        <ele>705.377703</ele>
        <time>2020-08-03T10:22:40.729Z</time>
      </trkpt>
      <trkpt lat="38.837571" lon="-0.984983">
        <ele>705.423508</ele>
        <time>2020-08-03T10:22:43.719Z</time>
      </trkpt>
      <trkpt lat="38.837618" lon="-0.985125">
        <ele>705.469667</ele>
        <time>2020-08-03T10:22:46.713Z</time>
      </trkpt>
      <trkpt lat="38.837669" lon="-0.985259">
        <ele>705.514285</ele>
        <time>2020-08-03T10:22:49.727Z</time>
      </trkpt>
      <trkpt lat="38.837724" lon="-0.985392">
        <ele>705.559335</ele>
        <time>2020-08-03T10:22:52.719Z</time>
      </trkpt>
      <trkpt lat="38.837774" lon="-0.985524">
        <ele>705.612698</ele>
        <time>2020-08-03T10:22:55.724Z</time>
      </trkpt>
      <trkpt lat="38.837829" lon="-0.985656">
        <ele>705.763172</ele>
        <time>2020-08-03T10:22:58.731Z</time>
      </trkpt>
      <trkpt lat="38.837871" lon="-0.985806">
        <ele>705.923395</ele>
        <time>2020-08-03T10:23:01.722Z</time>
      </trkpt>
      <trkpt lat="38.837918" lon="-0.985936">
        <ele>706.067457</ele>
        <time>2020-08-03T10:23:04.722Z</time>
      </trkpt>
      <trkpt lat="38.837967" lon="-0.986053">
        <ele>706.200984</ele>
        <time>2020-08-03T10:23:07.730Z</time>
      </trkpt>
      <trkpt lat="38.838017" lon="-0.986192">
        <ele>706.354883</ele>
        <time>2020-08-03T10:23:10.730Z</time>
      </trkpt>
      <trkpt lat="38.838071" lon="-0.986336">
        <ele>706.515529</ele>
        <time>2020-08-03T10:23:13.723Z</time>
      </trkpt>
      <trkpt lat="38.838126" lon="-0.986470">
        <ele>706.667778</ele>
        <time>2020-08-03T10:23:16.708Z</time>
      </trkpt>
      <trkpt lat="38.838181" lon="-0.986602">
        <ele>706.818252</ele>
        <time>2020-08-03T10:23:19.716Z</time>
      </trkpt>
      <trkpt lat="38.838230" lon="-0.986745">
        <ele>706.975285</ele>
        <time>2020-08-03T10:23:22.715Z</time>
      </trkpt>
      <trkpt lat="38.838278" lon="-0.986899">
        <ele>707.142015</ele>
        <time>2020-08-03T10:23:25.713Z</time>
      </trkpt>
      <trkpt lat="38.838336" lon="-0.987031">
        <ele>707.294353</ele>
        <time>2020-08-03T10:23:28.723Z</time>
      </trkpt>
      <trkpt lat="38.838389" lon="-0.987166">
        <ele>707.446313</ele>
        <time>2020-08-03T10:23:31.703Z</time>
      </trkpt>
      <trkpt lat="38.838427" lon="-0.987304">
        <ele>707.593439</ele>
        <time>2020-08-03T10:23:34.711Z</time>
      </trkpt>
      <trkpt lat="38.838475" lon="-0.987437">
        <ele>707.740779</ele>
        <time>2020-08-03T10:23:37.720Z</time>
      </trkpt>
      <trkpt lat="38.838527" lon="-0.987578">
        <ele>707.897591</ele>
        <time>2020-08-03T10:23:40.711Z</time>
      </trkpt>
      <trkpt lat="38.838577" lon="-0.987719">
        <ele>707.984487</ele>
        <time>2020-08-03T10:23:43.712Z</time>
      </trkpt>
      <trkpt lat="38.838626" lon="-0.987857">
        <ele>708.058028</ele>
        <time>2020-08-03T10:23:46.713Z</time>
      </trkpt>
      <trkpt lat="38.838675" lon="-0.987991">
        <ele>708.129809</ele>
        <time>2020-08-03T10:23:49.724Z</time>
      </trkpt>
      <trkpt lat="38.838733" lon="-0.988133">
        <ele>708.207558</ele>
        <time>2020-08-03T10:23:52.753Z</time>
      </trkpt>
      <trkpt lat="38.838798" lon="-0.988267">
        <ele>708.284105</ele>
        <time>2020-08-03T10:23:55.727Z</time>
      </trkpt>
      <trkpt lat="38.838849" lon="-0.988404">
        <ele>708.357733</ele>
        <time>2020-08-03T10:23:58.720Z</time>
      </trkpt>
      <trkpt lat="38.838896" lon="-0.988542">
        <ele>708.430767</ele>
        <time>2020-08-03T10:24:01.728Z</time>
      </trkpt>
      <trkpt lat="38.838948" lon="-0.988681">
        <ele>708.505539</ele>
        <time>2020-08-03T10:24:04.723Z</time>
      </trkpt>
      <trkpt lat="38.839001" lon="-0.988809">
        <ele>708.575831</ele>
        <time>2020-08-03T10:24:07.742Z</time>
      </trkpt>
      <trkpt lat="38.839058" lon="-0.988945">
        <ele>708.650718</ele>
        <time>2020-08-03T10:24:10.728Z</time>
      </trkpt>
      <trkpt lat="38.839132" lon="-0.989092">
        <ele>708.735589</ele>
        <time>2020-08-03T10:24:13.714Z</time>
      </trkpt>
      <trkpt lat="38.839168" lon="-0.989203">
        <ele>708.793892</ele>
        <time>2020-08-03T10:24:15.732Z</time>
      </trkpt>
      <trkpt lat="38.839228" lon="-0.989339">
        <ele>708.869682</ele>
        <time>2020-08-03T10:24:18.731Z</time>
      </trkpt>
      <trkpt lat="38.839262" lon="-0.989496">
        <ele>708.948699</ele>
        <time>2020-08-03T10:24:21.718Z</time>
      </trkpt>
      <trkpt lat="38.839291" lon="-0.989607">
        <ele>709.005470</ele>
        <time>2020-08-03T10:24:23.717Z</time>
      </trkpt>
      <trkpt lat="38.839328" lon="-0.989718">
        <ele>709.080695</ele>
        <time>2020-08-03T10:24:25.712Z</time>
      </trkpt>
      <trkpt lat="38.839402" lon="-0.989839">
        <ele>709.207226</ele>
        <time>2020-08-03T10:24:28.730Z</time>
      </trkpt>
      <trkpt lat="38.839471" lon="-0.989948">
        <ele>709.322749</ele>
        <time>2020-08-03T10:24:31.715Z</time>
      </trkpt>
      <trkpt lat="38.839520" lon="-0.990098">
        <ele>709.456531</ele>
        <time>2020-08-03T10:24:34.713Z</time>
      </trkpt>
      <trkpt lat="38.839533" lon="-0.990228">
        <ele>709.564330</ele>
        <time>2020-08-03T10:24:37.713Z</time>
      </trkpt>
      <trkpt lat="38.839561" lon="-0.990339">
        <ele>709.660293</ele>
        <time>2020-08-03T10:24:40.731Z</time>
      </trkpt>
      <trkpt lat="38.839605" lon="-0.990463">
        <ele>709.772365</ele>
        <time>2020-08-03T10:24:43.731Z</time>
      </trkpt>
      <trkpt lat="38.839638" lon="-0.990607">
        <ele>709.895821</ele>
        <time>2020-08-03T10:24:47.730Z</time>
      </trkpt>
      <trkpt lat="38.839689" lon="-0.990721">
        <ele>710.003948</ele>
        <time>2020-08-03T10:24:51.733Z</time>
      </trkpt>
      <trkpt lat="38.839762" lon="-0.990820">
        <ele>710.116072</ele>
        <time>2020-08-03T10:24:55.708Z</time>
      </trkpt>
      <trkpt lat="38.839831" lon="-0.990903">
        <ele>710.215915</ele>
        <time>2020-08-03T10:24:59.740Z</time>
      </trkpt>
      <trkpt lat="38.839886" lon="-0.991033">
        <ele>710.337591</ele>
        <time>2020-08-03T10:25:03.725Z</time>
      </trkpt>
      <trkpt lat="38.839920" lon="-0.991146">
        <ele>710.437224</ele>
        <time>2020-08-03T10:25:06.729Z</time>
      </trkpt>
      <trkpt lat="38.839970" lon="-0.991282">
        <ele>710.560914</ele>
        <time>2020-08-03T10:25:09.724Z</time>
      </trkpt>
      <trkpt lat="38.840018" lon="-0.991411">
        <ele>710.678498</ele>
        <time>2020-08-03T10:25:12.723Z</time>
      </trkpt>
      <trkpt lat="38.840060" lon="-0.991531">
        <ele>710.786701</ele>
        <time>2020-08-03T10:25:15.731Z</time>
      </trkpt>
      <trkpt lat="38.840112" lon="-0.991671">
        <ele>710.914268</ele>
        <time>2020-08-03T10:25:19.711Z</time>
      </trkpt>
      <trkpt lat="38.840158" lon="-0.991782">
        <ele>711.011306</ele>
        <time>2020-08-03T10:25:22.727Z</time>
      </trkpt>
      <trkpt lat="38.840204" lon="-0.991903">
        <ele>711.113040</ele>
        <time>2020-08-03T10:25:26.717Z</time>
      </trkpt>
      <trkpt lat="38.840256" lon="-0.992040">
        <ele>711.228191</ele>
        <time>2020-08-03T10:25:30.731Z</time>
      </trkpt>
      <trkpt lat="38.840297" lon="-0.992146">
        <ele>711.317614</ele>
        <time>2020-08-03T10:25:33.717Z</time>
      </trkpt>
      <trkpt lat="38.840335" lon="-0.992253">
        <ele>711.406468</ele>
        <time>2020-08-03T10:25:36.731Z</time>
      </trkpt>
      <trkpt lat="38.840379" lon="-0.992372">
        <ele>711.505998</ele>
        <time>2020-08-03T10:25:40.718Z</time>
      </trkpt>
      <trkpt lat="38.840413" lon="-0.992478">
        <ele>711.592615</ele>
        <time>2020-08-03T10:25:44.718Z</time>
      </trkpt>
      <trkpt lat="38.840462" lon="-0.992598">
        <ele>711.694988</ele>
        <time>2020-08-03T10:25:48.715Z</time>
      </trkpt>
      <trkpt lat="38.840509" lon="-0.992738">
        <ele>711.810176</ele>
        <time>2020-08-03T10:25:52.732Z</time>
      </trkpt>
      <trkpt lat="38.840543" lon="-0.992852">
        <ele>711.902410</ele>
        <time>2020-08-03T10:25:55.724Z</time>
      </trkpt>
      <trkpt lat="38.840594" lon="-0.992958">
        <ele>711.996549</ele>
        <time>2020-08-03T10:25:58.720Z</time>
      </trkpt>
      <trkpt lat="38.840638" lon="-0.993073">
        <ele>712.093357</ele>
        <time>2020-08-03T10:26:01.712Z</time>
      </trkpt>
      <trkpt lat="38.840680" lon="-0.993188">
        <ele>712.189326</ele>
        <time>2020-08-03T10:26:04.733Z</time>
      </trkpt>
      <trkpt lat="38.840715" lon="-0.993304">
        <ele>712.283319</ele>
        <time>2020-08-03T10:26:07.718Z</time>
      </trkpt>
      <trkpt lat="38.840753" lon="-0.993429">
        <ele>712.384704</ele>
        <time>2020-08-03T10:26:10.724Z</time>
      </trkpt>
      <trkpt lat="38.840797" lon="-0.993554">
        <ele>712.488348</ele>
        <time>2020-08-03T10:26:13.724Z</time>
      </trkpt>
      <trkpt lat="38.840840" lon="-0.993688">
        <ele>712.597851</ele>
        <time>2020-08-03T10:26:16.713Z</time>
      </trkpt>
      <trkpt lat="38.840892" lon="-0.993822">
        <ele>712.672188</ele>
        <time>2020-08-03T10:26:19.713Z</time>
      </trkpt>
      <trkpt lat="38.840952" lon="-0.993959">
        <ele>712.619507</ele>
        <time>2020-08-03T10:26:22.716Z</time>
      </trkpt>
      <trkpt lat="38.841009" lon="-0.994090">
        <ele>712.569212</ele>
        <time>2020-08-03T10:26:25.727Z</time>
      </trkpt>
      <trkpt lat="38.841069" lon="-0.994237">
        <ele>712.513585</ele>
        <time>2020-08-03T10:26:28.713Z</time>
      </trkpt>
      <trkpt lat="38.841119" lon="-0.994371">
        <ele>712.463784</ele>
        <time>2020-08-03T10:26:31.719Z</time>
      </trkpt>
      <trkpt lat="38.841174" lon="-0.994507">
        <ele>712.412421</ele>
        <time>2020-08-03T10:26:34.723Z</time>
      </trkpt>
      <trkpt lat="38.841229" lon="-0.994645">
        <ele>712.360463</ele>
        <time>2020-08-03T10:26:37.718Z</time>
      </trkpt>
      <trkpt lat="38.841284" lon="-0.994778">
        <ele>712.309991</ele>
        <time>2020-08-03T10:26:40.716Z</time>
      </trkpt>
      <trkpt lat="38.841336" lon="-0.994926">
        <ele>712.255571</ele>
        <time>2020-08-03T10:26:43.720Z</time>
      </trkpt>
      <trkpt lat="38.841393" lon="-0.995070">
        <ele>712.201430</ele>
        <time>2020-08-03T10:26:46.713Z</time>
      </trkpt>
      <trkpt lat="38.841451" lon="-0.995219">
        <ele>712.145599</ele>
        <time>2020-08-03T10:26:49.718Z</time>
      </trkpt>
      <trkpt lat="38.841479" lon="-0.995337">
        <ele>712.104254</ele>
        <time>2020-08-03T10:26:51.736Z</time>
      </trkpt>
      <trkpt lat="38.841513" lon="-0.995446">
        <ele>712.064899</ele>
        <time>2020-08-03T10:26:53.730Z</time>
      </trkpt>
      <trkpt lat="38.841566" lon="-0.995601">
        <ele>712.008160</ele>
        <time>2020-08-03T10:26:56.730Z</time>
      </trkpt>
      <trkpt lat="38.841625" lon="-0.995734">
        <ele>711.956859</ele>
        <time>2020-08-03T10:26:59.710Z</time>
      </trkpt>
      <trkpt lat="38.841688" lon="-0.995868">
        <ele>711.908675</ele>
        <time>2020-08-03T10:27:02.719Z</time>
      </trkpt>
      <trkpt lat="38.841745" lon="-0.996002">
        <ele>711.895912</ele>
        <time>2020-08-03T10:27:05.722Z</time>
      </trkpt>
      <trkpt lat="38.841799" lon="-0.996144">
        <ele>711.882703</ele>
        <time>2020-08-03T10:27:08.733Z</time>
      </trkpt>
      <trkpt lat="38.841844" lon="-0.996260">
        <ele>711.871871</ele>
        <time>2020-08-03T10:27:10.720Z</time>
      </trkpt>
      <trkpt lat="38.841880" lon="-0.996367">
        <ele>711.862128</ele>
        <time>2020-08-03T10:27:12.717Z</time>
      </trkpt>
      <trkpt lat="38.841942" lon="-0.996510">
        <ele>711.848447</ele>
        <time>2020-08-03T10:27:15.709Z</time>
      </trkpt>
      <trkpt lat="38.841992" lon="-0.996642">
        <ele>711.836178</ele>
        <time>2020-08-03T10:27:18.720Z</time>
      </trkpt>
      <trkpt lat="38.842050" lon="-0.996739">
        <ele>711.825956</ele>
        <time>2020-08-03T10:27:20.702Z</time>
      </trkpt>
      <trkpt lat="38.842105" lon="-0.996884">
        <ele>711.812475</ele>
        <time>2020-08-03T10:27:23.721Z</time>
      </trkpt>
      <trkpt lat="38.842201" lon="-0.997003">
        <ele>711.798154</ele>
        <time>2020-08-03T10:27:26.734Z</time>
      </trkpt>
      <trkpt lat="38.842277" lon="-0.997092">
        <ele>711.787114</ele>
        <time>2020-08-03T10:27:29.719Z</time>
      </trkpt>
      <trkpt lat="38.842370" lon="-0.997162">
        <ele>711.775545</ele>
        <time>2020-08-03T10:27:32.725Z</time>
      </trkpt>
      <trkpt lat="38.842466" lon="-0.997277">
        <ele>711.761454</ele>
        <time>2020-08-03T10:27:35.711Z</time>
      </trkpt>
      <trkpt lat="38.842562" lon="-0.997322">
        <ele>711.750486</ele>
        <time>2020-08-03T10:27:38.732Z</time>
      </trkpt>
      <trkpt lat="38.842661" lon="-0.997402">
        <ele>711.737932</ele>
        <time>2020-08-03T10:27:42.718Z</time>
      </trkpt>
      <trkpt lat="38.842726" lon="-0.997481">
        <ele>711.728327</ele>
        <time>2020-08-03T10:27:45.720Z</time>
      </trkpt>
      <trkpt lat="38.842796" lon="-0.997585">
        <ele>711.717363</ele>
        <time>2020-08-03T10:27:48.729Z</time>
      </trkpt>
      <trkpt lat="38.842867" lon="-0.997709">
        <ele>711.734151</ele>
        <time>2020-08-03T10:27:51.714Z</time>
      </trkpt>
      <trkpt lat="38.842948" lon="-0.997836">
        <ele>711.752055</ele>
        <time>2020-08-03T10:27:54.710Z</time>
      </trkpt>
      <trkpt lat="38.843035" lon="-0.997950">
        <ele>711.769464</ele>
        <time>2020-08-03T10:27:57.732Z</time>
      </trkpt>
      <trkpt lat="38.843134" lon="-0.998057">
        <ele>711.787587</ele>
        <time>2020-08-03T10:28:00.721Z</time>
      </trkpt>
      <trkpt lat="38.843231" lon="-0.998184">
        <ele>711.806989</ele>
        <time>2020-08-03T10:28:03.720Z</time>
      </trkpt>
      <trkpt lat="38.843320" lon="-0.998298">
        <ele>711.824596</ele>
        <time>2020-08-03T10:28:06.723Z</time>
      </trkpt>
      <trkpt lat="38.843394" lon="-0.998402">
        <ele>711.839961</ele>
        <time>2020-08-03T10:28:09.712Z</time>
      </trkpt>
      <trkpt lat="38.843485" lon="-0.998530">
        <ele>711.858864</ele>
        <time>2020-08-03T10:28:12.721Z</time>
      </trkpt>
      <trkpt lat="38.843547" lon="-0.998633">
        <ele>711.873063</ele>
        <time>2020-08-03T10:28:15.723Z</time>
      </trkpt>
      <trkpt lat="38.843600" lon="-0.998758">
        <ele>711.888587</ele>
        <time>2020-08-03T10:28:19.709Z</time>
      </trkpt>
      <trkpt lat="38.843647" lon="-0.998857">
        <ele>711.901234</ele>
        <time>2020-08-03T10:28:22.710Z</time>
      </trkpt>
      <trkpt lat="38.843711" lon="-0.998944">
        <ele>711.914287</ele>
        <time>2020-08-03T10:28:25.713Z</time>
      </trkpt>
      <trkpt lat="38.843778" lon="-0.999044">
        <ele>711.928675</ele>
        <time>2020-08-03T10:28:28.710Z</time>
      </trkpt>
      <trkpt lat="38.843857" lon="-0.999139">
        <ele>711.943834</ele>
        <time>2020-08-03T10:28:31.721Z</time>
      </trkpt>
      <trkpt lat="38.843946" lon="-0.999206">
        <ele>711.958282</ele>
        <time>2020-08-03T10:28:34.710Z</time>
      </trkpt>
      <trkpt lat="38.844043" lon="-0.999269">
        <ele>711.956302</ele>
        <time>2020-08-03T10:28:37.704Z</time>
      </trkpt>
      <trkpt lat="38.844099" lon="-0.999365">
        <ele>711.919892</ele>
        <time>2020-08-03T10:28:40.712Z</time>
      </trkpt>
      <trkpt lat="38.844091" lon="-0.999481">
        <ele>711.884541</ele>
        <time>2020-08-03T10:28:44.722Z</time>
      </trkpt>
      <trkpt lat="38.844183" lon="-0.999800">
        <ele>711.781277</ele>
        <time>2020-08-03T10:33:40.968Z</time>
      </trkpt>
      <trkpt lat="38.844253" lon="-0.999925">
        <ele>711.734541</ele>
        <time>2020-08-03T10:33:44.984Z</time>
      </trkpt>
      <trkpt lat="38.844303" lon="-1.000023">
        <ele>711.698977</ele>
        <time>2020-08-03T10:33:47.961Z</time>
      </trkpt>
      <trkpt lat="38.844361" lon="-1.000113">
        <ele>711.663516</ele>
        <time>2020-08-03T10:33:50.966Z</time>
      </trkpt>
      <trkpt lat="38.844414" lon="-1.000215">
        <ele>711.626294</ele>
        <time>2020-08-03T10:33:53.974Z</time>
      </trkpt>
      <trkpt lat="38.844477" lon="-1.000311">
        <ele>711.588186</ele>
        <time>2020-08-03T10:33:56.971Z</time>
      </trkpt>
      <trkpt lat="38.844541" lon="-1.000423">
        <ele>711.546018</ele>
        <time>2020-08-03T10:33:59.983Z</time>
      </trkpt>
      <trkpt lat="38.844610" lon="-1.000539">
        <ele>711.501709</ele>
        <time>2020-08-03T10:34:02.972Z</time>
      </trkpt>
      <trkpt lat="38.844683" lon="-1.000645">
        <ele>711.458756</ele>
        <time>2020-08-03T10:34:05.968Z</time>
      </trkpt>
      <trkpt lat="38.844748" lon="-1.000748">
        <ele>711.418514</ele>
        <time>2020-08-03T10:34:08.963Z</time>
      </trkpt>
      <trkpt lat="38.844808" lon="-1.000844">
        <ele>711.381149</ele>
        <time>2020-08-03T10:34:11.963Z</time>
      </trkpt>
      <trkpt lat="38.844865" lon="-1.000968">
        <ele>711.337440</ele>
        <time>2020-08-03T10:34:15.969Z</time>
      </trkpt>
      <trkpt lat="38.844920" lon="-1.001078">
        <ele>711.297759</ele>
        <time>2020-08-03T10:34:19.970Z</time>
      </trkpt>
      <trkpt lat="38.844980" lon="-1.001207">
        <ele>711.275519</ele>
        <time>2020-08-03T10:34:23.965Z</time>
      </trkpt>
      <trkpt lat="38.845047" lon="-1.001340">
        <ele>711.298687</ele>
        <time>2020-08-03T10:34:27.966Z</time>
      </trkpt>
      <trkpt lat="38.845107" lon="-1.001426">
        <ele>711.315575</ele>
        <time>2020-08-03T10:34:30.972Z</time>
      </trkpt>
      <trkpt lat="38.845166" lon="-1.001516">
        <ele>711.332782</ele>
        <time>2020-08-03T10:34:33.999Z</time>
      </trkpt>
      <trkpt lat="38.845216" lon="-1.001630">
        <ele>711.351919</ele>
        <time>2020-08-03T10:34:36.972Z</time>
      </trkpt>
      <trkpt lat="38.845259" lon="-1.001736">
        <ele>711.369401</ele>
        <time>2020-08-03T10:34:39.954Z</time>
      </trkpt>
      <trkpt lat="38.845314" lon="-1.001837">
        <ele>711.387427</ele>
        <time>2020-08-03T10:34:42.982Z</time>
      </trkpt>
      <trkpt lat="38.845370" lon="-1.001933">
        <ele>711.404971</ele>
        <time>2020-08-03T10:34:45.967Z</time>
      </trkpt>
      <trkpt lat="38.845422" lon="-1.002053">
        <ele>711.425057</ele>
        <time>2020-08-03T10:34:49.965Z</time>
      </trkpt>
      <trkpt lat="38.845473" lon="-1.002183">
        <ele>711.446349</ele>
        <time>2020-08-03T10:34:53.956Z</time>
      </trkpt>
      <trkpt lat="38.845524" lon="-1.002300">
        <ele>711.465960</ele>
        <time>2020-08-03T10:34:57.962Z</time>
      </trkpt>
      <trkpt lat="38.845570" lon="-1.002432">
        <ele>711.487112</ele>
        <time>2020-08-03T10:35:01.965Z</time>
      </trkpt>
      <trkpt lat="38.845610" lon="-1.002545">
        <ele>711.505268</ele>
        <time>2020-08-03T10:35:04.972Z</time>
      </trkpt>
      <trkpt lat="38.845657" lon="-1.002680">
        <ele>711.526897</ele>
        <time>2020-08-03T10:35:07.973Z</time>
      </trkpt>
      <trkpt lat="38.845691" lon="-1.002800">
        <ele>711.545575</ele>
        <time>2020-08-03T10:35:10.972Z</time>
      </trkpt>
      <trkpt lat="38.845726" lon="-1.002930">
        <ele>711.565694</ele>
        <time>2020-08-03T10:35:14.966Z</time>
      </trkpt>
      <trkpt lat="38.845752" lon="-1.003055">
        <ele>711.584619</ele>
        <time>2020-08-03T10:35:26.977Z</time>
      </trkpt>
      <trkpt lat="38.845784" lon="-1.003171">
        <ele>711.602619</ele>
        <time>2020-08-03T10:35:30.978Z</time>
      </trkpt>
      <trkpt lat="38.845834" lon="-1.003314">
        <ele>711.684918</ele>
        <time>2020-08-03T10:35:34.970Z</time>
      </trkpt>
      <trkpt lat="38.845870" lon="-1.003437">
        <ele>711.761671</ele>
        <time>2020-08-03T10:35:37.969Z</time>
      </trkpt>
      <trkpt lat="38.845904" lon="-1.003551">
        <ele>711.832976</ele>
        <time>2020-08-03T10:35:40.969Z</time>
      </trkpt>
      <trkpt lat="38.845936" lon="-1.003697">
        <ele>711.921571</ele>
        <time>2020-08-03T10:35:44.975Z</time>
      </trkpt>
      <trkpt lat="38.845961" lon="-1.003811">
        <ele>711.990751</ele>
        <time>2020-08-03T10:35:47.962Z</time>
      </trkpt>
      <trkpt lat="38.845993" lon="-1.003933">
        <ele>712.065946</ele>
        <time>2020-08-03T10:35:51.967Z</time>
      </trkpt>
      <trkpt lat="38.846049" lon="-1.004033">
        <ele>712.137891</ele>
        <time>2020-08-03T10:36:04.972Z</time>
      </trkpt>
      <trkpt lat="38.846096" lon="-1.004172">
        <ele>712.226405</ele>
        <time>2020-08-03T10:36:20.959Z</time>
      </trkpt>
      <trkpt lat="38.846143" lon="-1.004320">
        <ele>712.319766</ele>
        <time>2020-08-03T10:36:23.977Z</time>
      </trkpt>
      <trkpt lat="38.846182" lon="-1.004459">
        <ele>712.406067</ele>
        <time>2020-08-03T10:36:26.983Z</time>
      </trkpt>
      <trkpt lat="38.846223" lon="-1.004577">
        <ele>712.481541</ele>
        <time>2020-08-03T10:36:29.962Z</time>
      </trkpt>
      <trkpt lat="38.846291" lon="-1.004748">
        <ele>712.593692</ele>
        <time>2020-08-03T10:36:32.967Z</time>
      </trkpt>
      <trkpt lat="38.846310" lon="-1.004877">
        <ele>712.670380</ele>
        <time>2020-08-03T10:36:34.969Z</time>
      </trkpt>
      <trkpt lat="38.846356" lon="-1.005027">
        <ele>712.764545</ele>
        <time>2020-08-03T10:36:37.968Z</time>
      </trkpt>
      <trkpt lat="38.846390" lon="-1.005148">
        <ele>712.839683</ele>
        <time>2020-08-03T10:36:39.962Z</time>
      </trkpt>
      <trkpt lat="38.846412" lon="-1.005260">
        <ele>712.907153</ele>
        <time>2020-08-03T10:36:41.973Z</time>
      </trkpt>
      <trkpt lat="38.846445" lon="-1.005369">
        <ele>712.947771</ele>
        <time>2020-08-03T10:36:43.966Z</time>
      </trkpt>
      <trkpt lat="38.846476" lon="-1.005515">
        <ele>712.918336</ele>
        <time>2020-08-03T10:36:46.960Z</time>
      </trkpt>
      <trkpt lat="38.846518" lon="-1.005675">
        <ele>712.885494</ele>
        <time>2020-08-03T10:36:49.961Z</time>
      </trkpt>
      <trkpt lat="38.846531" lon="-1.005794">
        <ele>712.862120</ele>
        <time>2020-08-03T10:36:51.975Z</time>
      </trkpt>
      <trkpt lat="38.846576" lon="-1.005953">
        <ele>712.829215</ele>
        <time>2020-08-03T10:36:54.961Z</time>
      </trkpt>
      <trkpt lat="38.846599" lon="-1.006066">
        <ele>712.806497</ele>
        <time>2020-08-03T10:36:56.960Z</time>
      </trkpt>
      <trkpt lat="38.846616" lon="-1.006186">
        <ele>712.782772</ele>
        <time>2020-08-03T10:36:58.971Z</time>
      </trkpt>
      <trkpt lat="38.846645" lon="-1.006355">
        <ele>712.749112</ele>
        <time>2020-08-03T10:37:01.965Z</time>
      </trkpt>
      <trkpt lat="38.846689" lon="-1.006512">
        <ele>712.716657</ele>
        <time>2020-08-03T10:37:04.963Z</time>
      </trkpt>
      <trkpt lat="38.846724" lon="-1.006622">
        <ele>712.693544</ele>
        <time>2020-08-03T10:37:06.962Z</time>
      </trkpt>
      <trkpt lat="38.846771" lon="-1.006761">
        <ele>712.664069</ele>
        <time>2020-08-03T10:37:09.967Z</time>
      </trkpt>
      <trkpt lat="38.846827" lon="-1.006893">
        <ele>712.634832</ele>
        <time>2020-08-03T10:37:12.971Z</time>
      </trkpt>
      <trkpt lat="38.846861" lon="-1.007009">
        <ele>712.610724</ele>
        <time>2020-08-03T10:37:15.979Z</time>
      </trkpt>
      <trkpt lat="38.846912" lon="-1.007148">
        <ele>712.580837</ele>
        <time>2020-08-03T10:37:18.969Z</time>
      </trkpt>
      <trkpt lat="38.846953" lon="-1.007291">
        <ele>712.551197</ele>
        <time>2020-08-03T10:37:21.954Z</time>
      </trkpt>
      <trkpt lat="38.846987" lon="-1.007433">
        <ele>712.522301</ele>
        <time>2020-08-03T10:37:24.961Z</time>
      </trkpt>
      <trkpt lat="38.847025" lon="-1.007581">
        <ele>712.626317</ele>
        <time>2020-08-03T10:37:27.965Z</time>
      </trkpt>
      <trkpt lat="38.847071" lon="-1.007724">
        <ele>712.895824</ele>
        <time>2020-08-03T10:37:30.974Z</time>
      </trkpt>
      <trkpt lat="38.847117" lon="-1.007865">
        <ele>713.162114</ele>
        <time>2020-08-03T10:37:33.967Z</time>
      </trkpt>
      <trkpt lat="38.847145" lon="-1.008015">
        <ele>713.430803</ele>
        <time>2020-08-03T10:37:36.969Z</time>
      </trkpt>
      <trkpt lat="38.847177" lon="-1.008167">
        <ele>713.705079</ele>
        <time>2020-08-03T10:37:39.963Z</time>
      </trkpt>
      <trkpt lat="38.847218" lon="-1.008312">
        <ele>713.973789</ele>
        <time>2020-08-03T10:37:42.965Z</time>
      </trkpt>
      <trkpt lat="38.847275" lon="-1.008458">
        <ele>714.258275</ele>
        <time>2020-08-03T10:37:45.970Z</time>
      </trkpt>
      <trkpt lat="38.847313" lon="-1.008578">
        <ele>714.483924</ele>
        <time>2020-08-03T10:37:47.972Z</time>
      </trkpt>
      <trkpt lat="38.847335" lon="-1.008696">
        <ele>714.695278</ele>
        <time>2020-08-03T10:37:49.967Z</time>
      </trkpt>
      <trkpt lat="38.847372" lon="-1.008810">
        <ele>714.910411</ele>
        <time>2020-08-03T10:37:51.967Z</time>
      </trkpt>
      <trkpt lat="38.847404" lon="-1.008948">
        <ele>715.161225</ele>
        <time>2020-08-03T10:37:53.962Z</time>
      </trkpt>
      <trkpt lat="38.847446" lon="-1.009068">
        <ele>715.390393</ele>
        <time>2020-08-03T10:37:55.965Z</time>
      </trkpt>
      <trkpt lat="38.847480" lon="-1.009189">
        <ele>715.614464</ele>
        <time>2020-08-03T10:37:57.976Z</time>
      </trkpt>
      <trkpt lat="38.847540" lon="-1.009314">
        <ele>715.870236</ele>
        <time>2020-08-03T10:37:59.970Z</time>
      </trkpt>
      <trkpt lat="38.847584" lon="-1.009427">
        <ele>716.090303</ele>
        <time>2020-08-03T10:38:01.960Z</time>
      </trkpt>
      <trkpt lat="38.847639" lon="-1.009522">
        <ele>716.296499</ele>
        <time>2020-08-03T10:38:03.967Z</time>
      </trkpt>
      <trkpt lat="38.847664" lon="-1.009660">
        <ele>716.522431</ele>
        <time>2020-08-03T10:38:05.976Z</time>
      </trkpt>
      <trkpt lat="38.847722" lon="-1.009783">
        <ele>716.423056</ele>
        <time>2020-08-03T10:38:07.965Z</time>
      </trkpt>
      <trkpt lat="38.847791" lon="-1.009885">
        <ele>716.329683</ele>
        <time>2020-08-03T10:38:09.980Z</time>
      </trkpt>
      <trkpt lat="38.847832" lon="-1.010009">
        <ele>716.236581</ele>
        <time>2020-08-03T10:38:11.977Z</time>
      </trkpt>
      <trkpt lat="38.847894" lon="-1.010109">
        <ele>716.148244</ele>
        <time>2020-08-03T10:38:13.965Z</time>
      </trkpt>
      <trkpt lat="38.847947" lon="-1.010206">
        <ele>716.066353</ele>
        <time>2020-08-03T10:38:15.962Z</time>
      </trkpt>
      <trkpt lat="38.848024" lon="-1.010336">
        <ele>715.953477</ele>
        <time>2020-08-03T10:38:18.966Z</time>
      </trkpt>
      <trkpt lat="38.848087" lon="-1.010433">
        <ele>715.866186</ele>
        <time>2020-08-03T10:38:20.968Z</time>
      </trkpt>
      <trkpt lat="38.848179" lon="-1.010541">
        <ele>715.755569</ele>
        <time>2020-08-03T10:38:23.967Z</time>
      </trkpt>
      <trkpt lat="38.848267" lon="-1.010663">
        <ele>715.640645</ele>
        <time>2020-08-03T10:38:26.966Z</time>
      </trkpt>
      <trkpt lat="38.848369" lon="-1.010771">
        <ele>715.523325</ele>
        <time>2020-08-03T10:38:29.960Z</time>
      </trkpt>
      <trkpt lat="38.848442" lon="-1.010850">
        <ele>715.438606</ele>
        <time>2020-08-03T10:38:31.972Z</time>
      </trkpt>
      <trkpt lat="38.848524" lon="-1.010962">
        <ele>715.332369</ele>
        <time>2020-08-03T10:38:35.953Z</time>
      </trkpt>
      <trkpt lat="38.848584" lon="-1.011058">
        <ele>715.247300</ele>
        <time>2020-08-03T10:38:38.974Z</time>
      </trkpt>
      <trkpt lat="38.848647" lon="-1.011149">
        <ele>715.163152</ele>
        <time>2020-08-03T10:38:40.963Z</time>
      </trkpt>
      <trkpt lat="38.848714" lon="-1.011225">
        <ele>715.083819</ele>
        <time>2020-08-03T10:38:42.951Z</time>
      </trkpt>
      <trkpt lat="38.848785" lon="-1.011324">
        <ele>714.990809</ele>
        <time>2020-08-03T10:38:44.980Z</time>
      </trkpt>
      <trkpt lat="38.848875" lon="-1.011440">
        <ele>715.158692</ele>
        <time>2020-08-03T10:38:47.962Z</time>
      </trkpt>
      <trkpt lat="38.848945" lon="-1.011557">
        <ele>715.581544</ele>
        <time>2020-08-03T10:38:50.966Z</time>
      </trkpt>
      <trkpt lat="38.849012" lon="-1.011655">
        <ele>715.955285</ele>
        <time>2020-08-03T10:38:53.965Z</time>
      </trkpt>
      <trkpt lat="38.849099" lon="-1.011776">
        <ele>716.427270</ele>
        <time>2020-08-03T10:38:56.974Z</time>
      </trkpt>
      <trkpt lat="38.849169" lon="-1.011855">
        <ele>716.770234</ele>
        <time>2020-08-03T10:38:59.966Z</time>
      </trkpt>
      <trkpt lat="38.849247" lon="-1.011943">
        <ele>717.152339</ele>
        <time>2020-08-03T10:39:02.971Z</time>
      </trkpt>
      <trkpt lat="38.849322" lon="-1.012041">
        <ele>717.546124</ele>
        <time>2020-08-03T10:39:05.969Z</time>
      </trkpt>
      <trkpt lat="38.849398" lon="-1.012130">
        <ele>717.924657</ele>
        <time>2020-08-03T10:39:08.972Z</time>
      </trkpt>
      <trkpt lat="38.849465" lon="-1.012222">
        <ele>718.285653</ele>
        <time>2020-08-03T10:39:11.969Z</time>
      </trkpt>
      <trkpt lat="38.849537" lon="-1.012321">
        <ele>718.673869</ele>
        <time>2020-08-03T10:39:14.971Z</time>
      </trkpt>
      <trkpt lat="38.849605" lon="-1.012415">
        <ele>719.041566</ele>
        <time>2020-08-03T10:39:17.968Z</time>
      </trkpt>
      <trkpt lat="38.849675" lon="-1.012509">
        <ele>719.414311</ele>
        <time>2020-08-03T10:39:20.973Z</time>
      </trkpt>
      <trkpt lat="38.849746" lon="-1.012610">
        <ele>719.804261</ele>
        <time>2020-08-03T10:39:23.959Z</time>
      </trkpt>
      <trkpt lat="38.849813" lon="-1.012690">
        <ele>720.140955</ele>
        <time>2020-08-03T10:39:26.964Z</time>
      </trkpt>
      <trkpt lat="38.849901" lon="-1.012800">
        <ele>720.592912</ele>
        <time>2020-08-03T10:39:30.961Z</time>
      </trkpt>
      <trkpt lat="38.849971" lon="-1.012901">
        <ele>720.980404</ele>
        <time>2020-08-03T10:39:33.969Z</time>
      </trkpt>
      <trkpt lat="38.850042" lon="-1.012983">
        <ele>721.331830</ele>
        <time>2020-08-03T10:39:36.975Z</time>
      </trkpt>
      <trkpt lat="38.850111" lon="-1.013068">
        <ele>721.726313</ele>
        <time>2020-08-03T10:39:39.958Z</time>
      </trkpt>
      <trkpt lat="38.850179" lon="-1.013167">
        <ele>722.226400</ele>
        <time>2020-08-03T10:39:42.969Z</time>
      </trkpt>
      <trkpt lat="38.850254" lon="-1.013251">
        <ele>722.710525</ele>
        <time>2020-08-03T10:39:45.966Z</time>
      </trkpt>
      <trkpt lat="38.850318" lon="-1.013337">
        <ele>723.161163</ele>
        <time>2020-08-03T10:39:48.965Z</time>
      </trkpt>
      <trkpt lat="38.850374" lon="-1.013427">
        <ele>723.597583</ele>
        <time>2020-08-03T10:39:51.974Z</time>
      </trkpt>
      <trkpt lat="38.850441" lon="-1.013531">
        <ele>724.108913</ele>
        <time>2020-08-03T10:39:54.969Z</time>
      </trkpt>
      <trkpt lat="38.850501" lon="-1.013628">
        <ele>724.578198</ele>
        <time>2020-08-03T10:39:57.976Z</time>
      </trkpt>
      <trkpt lat="38.850559" lon="-1.013723">
        <ele>725.035507</ele>
        <time>2020-08-03T10:40:00.968Z</time>
      </trkpt>
      <trkpt lat="38.850615" lon="-1.013834">
        <ele>725.536547</ele>
        <time>2020-08-03T10:40:03.974Z</time>
      </trkpt>
      <trkpt lat="38.850670" lon="-1.013945">
        <ele>726.034959</ele>
        <time>2020-08-03T10:40:06.970Z</time>
      </trkpt>
      <trkpt lat="38.850729" lon="-1.014046">
        <ele>726.513266</ele>
        <time>2020-08-03T10:40:09.973Z</time>
      </trkpt>
      <trkpt lat="38.850781" lon="-1.014151">
        <ele>726.984666</ele>
        <time>2020-08-03T10:40:12.960Z</time>
      </trkpt>
      <trkpt lat="38.850836" lon="-1.014262">
        <ele>727.483076</ele>
        <time>2020-08-03T10:40:15.967Z</time>
      </trkpt>
      <trkpt lat="38.850897" lon="-1.014386">
        <ele>728.038709</ele>
        <time>2020-08-03T10:40:19.972Z</time>
      </trkpt>
      <trkpt lat="38.850949" lon="-1.014520">
        <ele>728.605887</ele>
        <time>2020-08-03T10:40:23.962Z</time>
      </trkpt>
      <trkpt lat="38.850985" lon="-1.014625">
        <ele>729.040511</ele>
        <time>2020-08-03T10:40:26.972Z</time>
      </trkpt>
      <trkpt lat="38.851021" lon="-1.014741">
        <ele>729.513572</ele>
        <time>2020-08-03T10:40:29.959Z</time>
      </trkpt>
      <trkpt lat="38.851062" lon="-1.014869">
        <ele>730.037900</ele>
        <time>2020-08-03T10:40:32.959Z</time>
      </trkpt>
      <trkpt lat="38.851099" lon="-1.014992">
        <ele>730.296645</ele>
        <time>2020-08-03T10:40:35.962Z</time>
      </trkpt>
      <trkpt lat="38.851134" lon="-1.015137">
        <ele>730.286286</ele>
        <time>2020-08-03T10:40:38.960Z</time>
      </trkpt>
      <trkpt lat="38.851174" lon="-1.015277">
        <ele>730.276110</ele>
        <time>2020-08-03T10:40:41.973Z</time>
      </trkpt>
      <trkpt lat="38.851223" lon="-1.015406">
        <ele>730.266317</ele>
        <time>2020-08-03T10:40:44.962Z</time>
      </trkpt>
      <trkpt lat="38.851253" lon="-1.015543">
        <ele>730.256606</ele>
        <time>2020-08-03T10:40:47.961Z</time>
      </trkpt>
      <trkpt lat="38.851276" lon="-1.015679">
        <ele>730.247110</ele>
        <time>2020-08-03T10:40:50.964Z</time>
      </trkpt>
      <trkpt lat="38.851316" lon="-1.015800">
        <ele>730.238140</ele>
        <time>2020-08-03T10:40:53.980Z</time>
      </trkpt>
      <trkpt lat="38.851342" lon="-1.015940">
        <ele>730.228319</ele>
        <time>2020-08-03T10:40:56.962Z</time>
      </trkpt>
      <trkpt lat="38.851359" lon="-1.016095">
        <ele>730.217638</ele>
        <time>2020-08-03T10:40:59.963Z</time>
      </trkpt>
      <trkpt lat="38.851372" lon="-1.016253">
        <ele>730.206797</ele>
        <time>2020-08-03T10:41:02.973Z</time>
      </trkpt>
      <trkpt lat="38.851369" lon="-1.016419">
        <ele>730.195467</ele>
        <time>2020-08-03T10:41:05.970Z</time>
      </trkpt>
      <trkpt lat="38.851365" lon="-1.016585">
        <ele>730.184134</ele>
        <time>2020-08-03T10:41:08.975Z</time>
      </trkpt>
      <trkpt lat="38.851381" lon="-1.016747">
        <ele>730.172991</ele>
        <time>2020-08-03T10:41:11.967Z</time>
      </trkpt>
      <trkpt lat="38.851429" lon="-1.016876">
        <ele>730.163236</ele>
        <time>2020-08-03T10:41:14.960Z</time>
      </trkpt>
      <trkpt lat="38.851655" lon="-1.017080">
        <ele>730.169885</ele>
        <time>2020-08-03T10:42:13.974Z</time>
      </trkpt>
      <trkpt lat="38.851889" lon="-1.017370">
        <ele>730.346892</ele>
        <time>2020-08-03T10:43:06.964Z</time>
      </trkpt>
      <trkpt lat="38.851991" lon="-1.017463">
        <ele>730.414980</ele>
        <time>2020-08-03T10:43:09.961Z</time>
      </trkpt>
      <trkpt lat="38.852093" lon="-1.017526">
        <ele>730.476586</ele>
        <time>2020-08-03T10:43:12.976Z</time>
      </trkpt>
      <trkpt lat="38.852198" lon="-1.017569">
        <ele>730.536572</ele>
        <time>2020-08-03T10:43:15.970Z</time>
      </trkpt>
      <trkpt lat="38.852309" lon="-1.017617">
        <ele>730.600321</ele>
        <time>2020-08-03T10:43:19.963Z</time>
      </trkpt>
      <trkpt lat="38.852416" lon="-1.017652">
        <ele>730.660419</ele>
        <time>2020-08-03T10:43:23.965Z</time>
      </trkpt>
      <trkpt lat="38.852522" lon="-1.017678">
        <ele>730.719157</ele>
        <time>2020-08-03T10:43:27.967Z</time>
      </trkpt>
      <trkpt lat="38.852614" lon="-1.017692">
        <ele>730.769581</ele>
        <time>2020-08-03T10:43:30.962Z</time>
      </trkpt>
      <trkpt lat="38.852710" lon="-1.017717">
        <ele>730.822896</ele>
        <time>2020-08-03T10:43:33.958Z</time>
      </trkpt>
      <trkpt lat="38.852805" lon="-1.017721">
        <ele>730.874631</ele>
        <time>2020-08-03T10:43:36.976Z</time>
      </trkpt>
      <trkpt lat="38.852916" lon="-1.017729">
        <ele>730.935142</ele>
        <time>2020-08-03T10:43:40.962Z</time>
      </trkpt>
      <trkpt lat="38.853019" lon="-1.017747">
        <ele>730.991720</ele>
        <time>2020-08-03T10:43:44.977Z</time>
      </trkpt>
      <trkpt lat="38.853125" lon="-1.017773">
        <ele>731.050457</ele>
        <time>2020-08-03T10:43:48.969Z</time>
      </trkpt>
      <trkpt lat="38.853221" lon="-1.017795">
        <ele>731.103534</ele>
        <time>2020-08-03T10:43:52.958Z</time>
      </trkpt>
      <trkpt lat="38.853322" lon="-1.017814">
        <ele>731.284986</ele>
        <time>2020-08-03T10:43:56.965Z</time>
      </trkpt>
      <trkpt lat="38.853420" lon="-1.017841">
        <ele>731.526112</ele>
        <time>2020-08-03T10:44:00.970Z</time>
      </trkpt>
      <trkpt lat="38.853508" lon="-1.017869">
        <ele>731.744218</ele>
        <time>2020-08-03T10:44:04.960Z</time>
      </trkpt>
      <trkpt lat="38.853598" lon="-1.017893">
        <ele>731.965352</ele>
        <time>2020-08-03T10:44:08.961Z</time>
      </trkpt>
      <trkpt lat="38.853688" lon="-1.017920">
        <ele>732.187697</ele>
        <time>2020-08-03T10:44:12.965Z</time>
      </trkpt>
      <trkpt lat="38.853786" lon="-1.017936">
        <ele>732.425355</ele>
        <time>2020-08-03T10:44:16.964Z</time>
      </trkpt>
      <trkpt lat="38.853877" lon="-1.017966">
        <ele>732.651375</ele>
        <time>2020-08-03T10:44:21.957Z</time>
      </trkpt>
      <trkpt lat="38.853964" lon="-1.018035">
        <ele>732.897375</ele>
        <time>2020-08-03T10:44:26.976Z</time>
      </trkpt>
      <trkpt lat="38.854043" lon="-1.018123">
        <ele>733.148969</ele>
        <time>2020-08-03T10:44:31.971Z</time>
      </trkpt>
      <trkpt lat="38.854100" lon="-1.018222">
        <ele>733.379626</ele>
        <time>2020-08-03T10:44:36.977Z</time>
      </trkpt>
      <trkpt lat="38.854116" lon="-1.018342">
        <ele>733.607711</ele>
        <time>2020-08-03T10:44:42.960Z</time>
      </trkpt>
      <trkpt lat="38.854083" lon="-1.018234">
        <ele>733.825061</ele>
        <time>2020-08-03T10:44:56.960Z</time>
      </trkpt>
      <trkpt lat="38.854015" lon="-1.018316">
        <ele>734.049474</ele>
        <time>2020-08-03T10:45:02.962Z</time>
      </trkpt>
      <trkpt lat="38.854012" lon="-1.018457">
        <ele>734.313728</ele>
        <time>2020-08-03T10:45:06.965Z</time>
      </trkpt>
      <trkpt lat="38.853986" lon="-1.018581">
        <ele>734.554309</ele>
        <time>2020-08-03T10:45:10.975Z</time>
      </trkpt>
      <trkpt lat="38.853971" lon="-1.018702">
        <ele>734.783850</ele>
        <time>2020-08-03T10:45:13.965Z</time>
      </trkpt>
      <trkpt lat="38.853954" lon="-1.018815">
        <ele>734.999464</ele>
        <time>2020-08-03T10:45:16.963Z</time>
      </trkpt>
      <trkpt lat="38.853934" lon="-1.018970">
        <ele>735.293808</ele>
        <time>2020-08-03T10:45:19.958Z</time>
      </trkpt>
      <trkpt lat="38.853920" lon="-1.019130">
        <ele>735.475070</ele>
        <time>2020-08-03T10:45:22.968Z</time>
      </trkpt>
      <trkpt lat="38.853893" lon="-1.019283">
        <ele>735.526874</ele>
        <time>2020-08-03T10:45:25.967Z</time>
      </trkpt>
      <trkpt lat="38.853868" lon="-1.019417">
        <ele>735.572375</ele>
        <time>2020-08-03T10:45:28.980Z</time>
      </trkpt>
      <trkpt lat="38.853857" lon="-1.019533">
        <ele>735.610963</ele>
        <time>2020-08-03T10:45:31.962Z</time>
      </trkpt>
      <trkpt lat="38.853848" lon="-1.019658">
        <ele>735.652416</ele>
        <time>2020-08-03T10:45:35.960Z</time>
      </trkpt>
      <trkpt lat="38.853835" lon="-1.019774">
        <ele>735.691115</ele>
        <time>2020-08-03T10:45:39.971Z</time>
      </trkpt>
      <trkpt lat="38.853810" lon="-1.019900">
        <ele>735.734052</ele>
        <time>2020-08-03T10:45:43.960Z</time>
      </trkpt>
      <trkpt lat="38.853755" lon="-1.020022">
        <ele>735.780602</ele>
        <time>2020-08-03T10:45:47.968Z</time>
      </trkpt>
      <trkpt lat="38.853702" lon="-1.020143">
        <ele>735.826445</ele>
        <time>2020-08-03T10:45:51.977Z</time>
      </trkpt>
      <trkpt lat="38.853632" lon="-1.020245">
        <ele>735.871339</ele>
        <time>2020-08-03T10:45:55.965Z</time>
      </trkpt>
      <trkpt lat="38.853555" lon="-1.020315">
        <ele>735.911344</ele>
        <time>2020-08-03T10:45:59.959Z</time>
      </trkpt>
      <trkpt lat="38.853467" lon="-1.020382">
        <ele>735.954725</ele>
        <time>2020-08-03T10:46:03.974Z</time>
      </trkpt>
      <trkpt lat="38.853380" lon="-1.020455">
        <ele>735.998793</ele>
        <time>2020-08-03T10:46:07.961Z</time>
      </trkpt>
      <trkpt lat="38.853297" lon="-1.020516">
        <ele>736.039345</ele>
        <time>2020-08-03T10:46:11.965Z</time>
      </trkpt>
      <trkpt lat="38.853188" lon="-1.020576">
        <ele>736.089632</ele>
        <time>2020-08-03T10:46:15.964Z</time>
      </trkpt>
      <trkpt lat="38.853102" lon="-1.020631">
        <ele>736.130372</ele>
        <time>2020-08-03T10:46:18.973Z</time>
      </trkpt>
      <trkpt lat="38.852985" lon="-1.020700">
        <ele>736.184966</ele>
        <time>2020-08-03T10:46:21.967Z</time>
      </trkpt>
      <trkpt lat="38.852882" lon="-1.020775">
        <ele>736.046763</ele>
        <time>2020-08-03T10:46:23.965Z</time>
      </trkpt>
      <trkpt lat="38.852783" lon="-1.020849">
        <ele>735.700464</ele>
        <time>2020-08-03T10:46:25.971Z</time>
      </trkpt>
      <trkpt lat="38.852657" lon="-1.020931">
        <ele>735.273429</ele>
        <time>2020-08-03T10:46:27.969Z</time>
      </trkpt>
      <trkpt lat="38.852528" lon="-1.021022">
        <ele>734.828479</ele>
        <time>2020-08-03T10:46:29.958Z</time>
      </trkpt>
      <trkpt lat="38.852372" lon="-1.021113">
        <ele>734.310496</ele>
        <time>2020-08-03T10:46:31.962Z</time>
      </trkpt>
      <trkpt lat="38.852241" lon="-1.021207">
        <ele>733.856834</ele>
        <time>2020-08-03T10:46:33.988Z</time>
      </trkpt>
      <trkpt lat="38.852072" lon="-1.021256">
        <ele>733.333071</ele>
        <time>2020-08-03T10:46:35.977Z</time>
      </trkpt>
      <trkpt lat="38.851931" lon="-1.021307">
        <ele>732.890228</ele>
        <time>2020-08-03T10:46:37.957Z</time>
      </trkpt>
      <trkpt lat="38.851806" lon="-1.021372">
        <ele>732.482533</ele>
        <time>2020-08-03T10:46:40.010Z</time>
      </trkpt>
      <trkpt lat="38.851720" lon="-1.021409">
        <ele>732.208343</ele>
        <time>2020-08-03T10:46:41.968Z</time>
      </trkpt>
      <trkpt lat="38.851654" lon="-1.021542">
        <ele>731.837055</ele>
        <time>2020-08-03T10:46:44.963Z</time>
      </trkpt>
      <trkpt lat="38.851681" lon="-1.021654">
        <ele>731.561030</ele>
        <time>2020-08-03T10:46:46.969Z</time>
      </trkpt>
      <trkpt lat="38.851706" lon="-1.021777">
        <ele>731.261752</ele>
        <time>2020-08-03T10:46:49.960Z</time>
      </trkpt>
      <trkpt lat="38.851746" lon="-1.021924">
        <ele>730.895153</ele>
        <time>2020-08-03T10:46:52.971Z</time>
      </trkpt>
      <trkpt lat="38.851777" lon="-1.022091">
        <ele>730.869755</ele>
        <time>2020-08-03T10:46:55.974Z</time>
      </trkpt>
      <trkpt lat="38.851826" lon="-1.022228">
        <ele>730.988917</ele>
        <time>2020-08-03T10:46:58.961Z</time>
      </trkpt>
      <trkpt lat="38.851885" lon="-1.022359">
        <ele>731.108531</ele>
        <time>2020-08-03T10:47:01.968Z</time>
      </trkpt>
      <trkpt lat="38.851935" lon="-1.022509">
        <ele>731.237497</ele>
        <time>2020-08-03T10:47:04.952Z</time>
      </trkpt>
      <trkpt lat="38.851971" lon="-1.022663">
        <ele>731.364587</ele>
        <time>2020-08-03T10:47:07.961Z</time>
      </trkpt>
      <trkpt lat="38.852012" lon="-1.022810">
        <ele>731.488006</ele>
        <time>2020-08-03T10:47:10.973Z</time>
      </trkpt>
      <trkpt lat="38.852053" lon="-1.022951">
        <ele>731.606970</ele>
        <time>2020-08-03T10:47:13.992Z</time>
      </trkpt>
      <trkpt lat="38.852074" lon="-1.023099">
        <ele>731.725877</ele>
        <time>2020-08-03T10:47:16.960Z</time>
      </trkpt>
      <trkpt lat="38.852101" lon="-1.023243">
        <ele>731.842950</ele>
        <time>2020-08-03T10:47:19.973Z</time>
      </trkpt>
      <trkpt lat="38.852146" lon="-1.023384">
        <ele>731.963394</ele>
        <time>2020-08-03T10:47:22.951Z</time>
      </trkpt>
      <trkpt lat="38.852193" lon="-1.023512">
        <ele>732.075249</ele>
        <time>2020-08-03T10:47:25.957Z</time>
      </trkpt>
      <trkpt lat="38.852233" lon="-1.023633">
        <ele>732.179150</ele>
        <time>2020-08-03T10:47:28.977Z</time>
      </trkpt>
      <trkpt lat="38.852277" lon="-1.023755">
        <ele>732.285419</ele>
        <time>2020-08-03T10:47:31.950Z</time>
      </trkpt>
      <trkpt lat="38.852321" lon="-1.023868">
        <ele>732.385278</ele>
        <time>2020-08-03T10:47:34.973Z</time>
      </trkpt>
      <trkpt lat="38.852359" lon="-1.023989">
        <ele>732.488402</ele>
        <time>2020-08-03T10:47:37.956Z</time>
      </trkpt>
      <trkpt lat="38.852474" lon="-1.024378">
        <ele>732.254440</ele>
        <time>2020-08-03T10:48:31.970Z</time>
      </trkpt>
      <trkpt lat="38.852520" lon="-1.024502">
        <ele>732.081662</ele>
        <time>2020-08-03T10:48:34.963Z</time>
      </trkpt>
      <trkpt lat="38.852571" lon="-1.024646">
        <ele>731.882666</ele>
        <time>2020-08-03T10:48:37.953Z</time>
      </trkpt>
      <trkpt lat="38.852615" lon="-1.024826">
        <ele>731.645345</ele>
        <time>2020-08-03T10:48:40.967Z</time>
      </trkpt>
      <trkpt lat="38.852636" lon="-1.024954">
        <ele>731.480795</ele>
        <time>2020-08-03T10:48:42.959Z</time>
      </trkpt>
      <trkpt lat="38.852674" lon="-1.025074">
        <ele>731.317840</ele>
        <time>2020-08-03T10:48:44.960Z</time>
      </trkpt>
      <trkpt lat="38.852716" lon="-1.025203">
        <ele>731.141955</ele>
        <time>2020-08-03T10:48:46.963Z</time>
      </trkpt>
      <trkpt lat="38.852766" lon="-1.025321">
        <ele>730.972969</ele>
        <time>2020-08-03T10:48:48.958Z</time>
      </trkpt>
      <trkpt lat="38.852789" lon="-1.025463">
        <ele>730.790520</ele>
        <time>2020-08-03T10:48:50.966Z</time>
      </trkpt>
      <trkpt lat="38.852855" lon="-1.025622">
        <ele>730.563870</ele>
        <time>2020-08-03T10:48:53.960Z</time>
      </trkpt>
      <trkpt lat="38.852910" lon="-1.025743">
        <ele>730.387629</ele>
        <time>2020-08-03T10:48:55.965Z</time>
      </trkpt>
      <trkpt lat="38.852944" lon="-1.025879">
        <ele>730.207951</ele>
        <time>2020-08-03T10:48:57.970Z</time>
      </trkpt>
      <trkpt lat="38.852979" lon="-1.026014">
        <ele>730.028967</ele>
        <time>2020-08-03T10:48:59.965Z</time>
      </trkpt>
      <trkpt lat="38.853007" lon="-1.026138">
        <ele>729.866559</ele>
        <time>2020-08-03T10:49:01.972Z</time>
      </trkpt>
      <trkpt lat="38.853041" lon="-1.026251">
        <ele>729.714172</ele>
        <time>2020-08-03T10:49:03.967Z</time>
      </trkpt>
      <trkpt lat="38.853068" lon="-1.026396">
        <ele>729.639645</ele>
        <time>2020-08-03T10:49:05.969Z</time>
      </trkpt>
      <trkpt lat="38.853116" lon="-1.026538">
        <ele>729.575828</ele>
        <time>2020-08-03T10:49:07.962Z</time>
      </trkpt>
      <trkpt lat="38.853157" lon="-1.026671">
        <ele>729.516858</ele>
        <time>2020-08-03T10:49:09.965Z</time>
      </trkpt>
      <trkpt lat="38.853204" lon="-1.026809">
        <ele>729.454763</ele>
        <time>2020-08-03T10:49:11.981Z</time>
      </trkpt>
      <trkpt lat="38.853245" lon="-1.026942">
        <ele>729.395793</ele>
        <time>2020-08-03T10:49:13.964Z</time>
      </trkpt>
      <trkpt lat="38.853287" lon="-1.027089">
        <ele>729.331242</ele>
        <time>2020-08-03T10:49:15.955Z</time>
      </trkpt>
      <trkpt lat="38.853322" lon="-1.027240">
        <ele>729.266292</ele>
        <time>2020-08-03T10:49:17.962Z</time>
      </trkpt>
      <trkpt lat="38.853341" lon="-1.027399">
        <ele>729.199976</ele>
        <time>2020-08-03T10:49:19.968Z</time>
      </trkpt>
      <trkpt lat="38.853372" lon="-1.027536">
        <ele>729.141161</ele>
        <time>2020-08-03T10:49:21.966Z</time>
      </trkpt>
      <trkpt lat="38.853400" lon="-1.027703">
        <ele>729.070736</ele>
        <time>2020-08-03T10:49:23.962Z</time>
      </trkpt>
      <trkpt lat="38.853427" lon="-1.027841">
        <ele>729.012077</ele>
        <time>2020-08-03T10:49:25.961Z</time>
      </trkpt>
      <trkpt lat="38.853481" lon="-1.027956">
        <ele>728.956716</ele>
        <time>2020-08-03T10:49:27.971Z</time>
      </trkpt>
      <trkpt lat="38.853525" lon="-1.028099">
        <ele>728.893328</ele>
        <time>2020-08-03T10:49:29.961Z</time>
      </trkpt>
      <trkpt lat="38.853569" lon="-1.028253">
        <ele>728.825703</ele>
        <time>2020-08-03T10:49:31.972Z</time>
      </trkpt>
      <trkpt lat="38.853627" lon="-1.028384">
        <ele>728.763579</ele>
        <time>2020-08-03T10:49:33.958Z</time>
      </trkpt>
      <trkpt lat="38.853695" lon="-1.028517">
        <ele>728.842843</ele>
        <time>2020-08-03T10:49:35.971Z</time>
      </trkpt>
      <trkpt lat="38.853756" lon="-1.028669">
        <ele>729.001381</ele>
        <time>2020-08-03T10:49:37.962Z</time>
      </trkpt>
      <trkpt lat="38.853848" lon="-1.028772">
        <ele>729.146696</ele>
        <time>2020-08-03T10:49:39.963Z</time>
      </trkpt>
      <trkpt lat="38.853927" lon="-1.028913">
        <ele>729.307742</ele>
        <time>2020-08-03T10:49:41.958Z</time>
      </trkpt>
      <trkpt lat="38.854000" lon="-1.029044">
        <ele>729.457090</ele>
        <time>2020-08-03T10:49:43.971Z</time>
      </trkpt>
      <trkpt lat="38.854073" lon="-1.029188">
        <ele>729.616395</ele>
        <time>2020-08-03T10:49:45.961Z</time>
      </trkpt>
      <trkpt lat="38.854146" lon="-1.029324">
        <ele>729.769536</ele>
        <time>2020-08-03T10:49:47.963Z</time>
      </trkpt>
      <trkpt lat="38.854228" lon="-1.029433">
        <ele>729.910048</ele>
        <time>2020-08-03T10:49:49.960Z</time>
      </trkpt>
      <trkpt lat="38.854308" lon="-1.029529">
        <ele>730.040407</ele>
        <time>2020-08-03T10:49:51.961Z</time>
      </trkpt>
      <trkpt lat="38.854383" lon="-1.029652">
        <ele>730.185243</ele>
        <time>2020-08-03T10:49:53.968Z</time>
      </trkpt>
      <trkpt lat="38.854467" lon="-1.029765">
        <ele>730.330079</ele>
        <time>2020-08-03T10:49:55.971Z</time>
      </trkpt>
      <trkpt lat="38.854557" lon="-1.029884">
        <ele>730.483876</ele>
        <time>2020-08-03T10:49:57.965Z</time>
      </trkpt>
      <trkpt lat="38.854620" lon="-1.030019">
        <ele>730.629792</ele>
        <time>2020-08-03T10:49:59.959Z</time>
      </trkpt>
      <trkpt lat="38.854689" lon="-1.030138">
        <ele>730.767345</ele>
        <time>2020-08-03T10:50:01.969Z</time>
      </trkpt>
      <trkpt lat="38.854746" lon="-1.030285">
        <ele>730.878738</ele>
        <time>2020-08-03T10:50:03.959Z</time>
      </trkpt>
      <trkpt lat="38.854816" lon="-1.030405">
        <ele>730.858379</ele>
        <time>2020-08-03T10:50:05.971Z</time>
      </trkpt>
      <trkpt lat="38.854886" lon="-1.030507">
        <ele>730.839918</ele>
        <time>2020-08-03T10:50:08.000Z</time>
      </trkpt>
      <trkpt lat="38.854950" lon="-1.030613">
        <ele>730.821706</ele>
        <time>2020-08-03T10:50:09.965Z</time>
      </trkpt>
      <trkpt lat="38.855032" lon="-1.030732">
        <ele>730.800130</ele>
        <time>2020-08-03T10:50:11.972Z</time>
      </trkpt>
      <trkpt lat="38.855109" lon="-1.030838">
        <ele>730.780447</ele>
        <time>2020-08-03T10:50:13.965Z</time>
      </trkpt>
      <trkpt lat="38.855176" lon="-1.030947">
        <ele>730.761591</ele>
        <time>2020-08-03T10:50:15.963Z</time>
      </trkpt>
      <trkpt lat="38.855192" lon="-1.031065">
        <ele>730.745328</ele>
        <time>2020-08-03T10:50:16.973Z</time>
      </trkpt>
      <trkpt lat="38.855242" lon="-1.031194">
        <ele>730.725762</ele>
        <time>2020-08-03T10:50:18.961Z</time>
      </trkpt>
      <trkpt lat="38.855284" lon="-1.031328">
        <ele>730.706148</ele>
        <time>2020-08-03T10:50:20.978Z</time>
      </trkpt>
      <trkpt lat="38.855325" lon="-1.031487">
        <ele>730.683406</ele>
        <time>2020-08-03T10:50:22.964Z</time>
      </trkpt>
      <trkpt lat="38.855368" lon="-1.031620">
        <ele>730.663852</ele>
        <time>2020-08-03T10:50:24.959Z</time>
      </trkpt>
      <trkpt lat="38.855387" lon="-1.031754">
        <ele>730.645358</ele>
        <time>2020-08-03T10:50:26.968Z</time>
      </trkpt>
      <trkpt lat="38.855412" lon="-1.031899">
        <ele>730.625192</ele>
        <time>2020-08-03T10:50:28.959Z</time>
      </trkpt>
      <trkpt lat="38.855456" lon="-1.032025">
        <ele>730.606442</ele>
        <time>2020-08-03T10:50:30.951Z</time>
      </trkpt>
      <trkpt lat="38.855503" lon="-1.032158">
        <ele>730.586610</ele>
        <time>2020-08-03T10:50:33.000Z</time>
      </trkpt>
      <trkpt lat="38.855549" lon="-1.032294">
        <ele>730.570941</ele>
        <time>2020-08-03T10:50:34.960Z</time>
      </trkpt>
      <trkpt lat="38.855592" lon="-1.032409">
        <ele>730.573655</ele>
        <time>2020-08-03T10:50:36.964Z</time>
      </trkpt>
      <trkpt lat="38.855621" lon="-1.032537">
        <ele>730.576491</ele>
        <time>2020-08-03T10:50:38.966Z</time>
      </trkpt>
      <trkpt lat="38.855635" lon="-1.032670">
        <ele>730.579346</ele>
        <time>2020-08-03T10:50:40.961Z</time>
      </trkpt>
      <trkpt lat="38.855676" lon="-1.032778">
        <ele>730.581902</ele>
        <time>2020-08-03T10:50:42.966Z</time>
      </trkpt>
      <trkpt lat="38.855742" lon="-1.032908">
        <ele>730.585204</ele>
        <time>2020-08-03T10:50:45.965Z</time>
      </trkpt>
      <trkpt lat="38.855759" lon="-1.033033">
        <ele>730.587903</ele>
        <time>2020-08-03T10:50:47.964Z</time>
      </trkpt>
      <trkpt lat="38.855811" lon="-1.033181">
        <ele>730.591357</ele>
        <time>2020-08-03T10:50:50.964Z</time>
      </trkpt>
      <trkpt lat="38.855859" lon="-1.033308">
        <ele>730.594361</ele>
        <time>2020-08-03T10:50:53.962Z</time>
      </trkpt>
      <trkpt lat="38.855905" lon="-1.033457">
        <ele>730.597771</ele>
        <time>2020-08-03T10:50:56.962Z</time>
      </trkpt>
      <trkpt lat="38.855955" lon="-1.033603">
        <ele>730.601164</ele>
        <time>2020-08-03T10:50:59.958Z</time>
      </trkpt>
      <trkpt lat="38.856009" lon="-1.033741">
        <ele>730.604449</ele>
        <time>2020-08-03T10:51:02.967Z</time>
      </trkpt>
      <trkpt lat="38.856062" lon="-1.033882">
        <ele>730.607780</ele>
        <time>2020-08-03T10:51:05.967Z</time>
      </trkpt>
      <trkpt lat="38.856122" lon="-1.034033">
        <ele>730.611387</ele>
        <time>2020-08-03T10:51:08.962Z</time>
      </trkpt>
      <trkpt lat="38.856175" lon="-1.034171">
        <ele>730.614660</ele>
        <time>2020-08-03T10:51:11.969Z</time>
      </trkpt>
      <trkpt lat="38.856254" lon="-1.034326">
        <ele>730.618601</ele>
        <time>2020-08-03T10:51:14.963Z</time>
      </trkpt>
      <trkpt lat="38.856286" lon="-1.034503">
        <ele>730.729412</ele>
        <time>2020-08-03T10:51:17.974Z</time>
      </trkpt>
      <trkpt lat="38.856344" lon="-1.034611">
        <ele>730.831934</ele>
        <time>2020-08-03T10:51:19.972Z</time>
      </trkpt>
      <trkpt lat="38.856386" lon="-1.034771">
        <ele>730.963881</ele>
        <time>2020-08-03T10:51:22.966Z</time>
      </trkpt>
      <trkpt lat="38.856438" lon="-1.034929">
        <ele>731.097926</ele>
        <time>2020-08-03T10:51:25.971Z</time>
      </trkpt>
      <trkpt lat="38.856462" lon="-1.035057">
        <ele>731.200812</ele>
        <time>2020-08-03T10:51:27.964Z</time>
      </trkpt>
      <trkpt lat="38.856494" lon="-1.035169">
        <ele>731.294041</ele>
        <time>2020-08-03T10:51:29.967Z</time>
      </trkpt>
      <trkpt lat="38.856545" lon="-1.035312">
        <ele>731.416952</ele>
        <time>2020-08-03T10:51:32.963Z</time>
      </trkpt>
      <trkpt lat="38.856581" lon="-1.035443">
        <ele>731.525511</ele>
        <time>2020-08-03T10:51:34.963Z</time>
      </trkpt>
      <trkpt lat="38.856613" lon="-1.035576">
        <ele>731.634294</ele>
        <time>2020-08-03T10:51:36.961Z</time>
      </trkpt>
      <trkpt lat="38.856645" lon="-1.035702">
        <ele>731.737862</ele>
        <time>2020-08-03T10:51:38.958Z</time>
      </trkpt>
      <trkpt lat="38.856676" lon="-1.035815">
        <ele>731.831486</ele>
        <time>2020-08-03T10:51:40.963Z</time>
      </trkpt>
      <trkpt lat="38.856715" lon="-1.035947">
        <ele>731.941814</ele>
        <time>2020-08-03T10:51:43.976Z</time>
      </trkpt>
      <trkpt lat="38.856738" lon="-1.036126">
        <ele>732.083587</ele>
        <time>2020-08-03T10:51:46.961Z</time>
      </trkpt>
      <trkpt lat="38.856748" lon="-1.036256">
        <ele>732.185671</ele>
        <time>2020-08-03T10:51:48.963Z</time>
      </trkpt>
      <trkpt lat="38.856749" lon="-1.036416">
        <ele>732.310708</ele>
        <time>2020-08-03T10:51:51.959Z</time>
      </trkpt>
      <trkpt lat="38.856793" lon="-1.036542">
        <ele>732.418619</ele>
        <time>2020-08-03T10:51:55.964Z</time>
      </trkpt>
      <trkpt lat="38.856771" lon="-1.036667">
        <ele>732.299582</ele>
        <time>2020-08-03T10:51:57.967Z</time>
      </trkpt>
      <trkpt lat="38.856763" lon="-1.036830">
        <ele>732.130606</ele>
        <time>2020-08-03T10:52:00.978Z</time>
      </trkpt>
      <trkpt lat="38.856762" lon="-1.036988">
        <ele>731.967132</ele>
        <time>2020-08-03T10:52:03.965Z</time>
      </trkpt>
      <trkpt lat="38.856759" lon="-1.037143">
        <ele>731.806717</ele>
        <time>2020-08-03T10:52:06.958Z</time>
      </trkpt>
      <trkpt lat="38.856753" lon="-1.037304">
        <ele>731.639954</ele>
        <time>2020-08-03T10:52:09.964Z</time>
      </trkpt>
      <trkpt lat="38.856751" lon="-1.037470">
        <ele>731.468187</ele>
        <time>2020-08-03T10:52:12.971Z</time>
      </trkpt>
      <trkpt lat="38.856748" lon="-1.037587">
        <ele>731.347072</ele>
        <time>2020-08-03T10:52:14.963Z</time>
      </trkpt>
      <trkpt lat="38.856741" lon="-1.037703">
        <ele>731.226697</ele>
        <time>2020-08-03T10:52:16.968Z</time>
      </trkpt>
      <trkpt lat="38.856746" lon="-1.037873">
        <ele>731.050687</ele>
        <time>2020-08-03T10:52:19.959Z</time>
      </trkpt>
      <trkpt lat="38.856756" lon="-1.038036">
        <ele>730.881523</ele>
        <time>2020-08-03T10:52:22.956Z</time>
      </trkpt>
      <trkpt lat="38.856772" lon="-1.038186">
        <ele>730.724882</ele>
        <time>2020-08-03T10:52:25.962Z</time>
      </trkpt>
      <trkpt lat="38.856794" lon="-1.038329">
        <ele>730.574072</ele>
        <time>2020-08-03T10:52:28.971Z</time>
      </trkpt>
      <trkpt lat="38.856815" lon="-1.038480">
        <ele>730.415374</ele>
        <time>2020-08-03T10:52:31.970Z</time>
      </trkpt>
      <trkpt lat="38.856824" lon="-1.038638">
        <ele>730.251468</ele>
        <time>2020-08-03T10:52:34.954Z</time>
      </trkpt>
      <trkpt lat="38.856837" lon="-1.038795">
        <ele>730.088119</ele>
        <time>2020-08-03T10:52:37.964Z</time>
      </trkpt>
      <trkpt lat="38.856849" lon="-1.038948">
        <ele>730.079252</ele>
        <time>2020-08-03T10:52:40.968Z</time>
      </trkpt>
      <trkpt lat="38.856856" lon="-1.039118">
        <ele>730.153387</ele>
        <time>2020-08-03T10:52:43.963Z</time>
      </trkpt>
      <trkpt lat="38.856866" lon="-1.039287">
        <ele>730.227196</ele>
        <time>2020-08-03T10:52:46.961Z</time>
      </trkpt>
      <trkpt lat="38.856884" lon="-1.039447">
        <ele>730.297596</ele>
        <time>2020-08-03T10:52:49.966Z</time>
      </trkpt>
      <trkpt lat="38.856904" lon="-1.039603">
        <ele>730.366445</ele>
        <time>2020-08-03T10:52:52.965Z</time>
      </trkpt>
      <trkpt lat="38.856901" lon="-1.039791">
        <ele>730.448333</ele>
        <time>2020-08-03T10:52:55.964Z</time>
      </trkpt>
      <trkpt lat="38.856902" lon="-1.039910">
        <ele>730.500158</ele>
        <time>2020-08-03T10:52:57.968Z</time>
      </trkpt>
      <trkpt lat="38.856913" lon="-1.040036">
        <ele>730.555372</ele>
        <time>2020-08-03T10:52:59.963Z</time>
      </trkpt>
      <trkpt lat="38.856944" lon="-1.040194">
        <ele>730.626328</ele>
        <time>2020-08-03T10:53:02.961Z</time>
      </trkpt>
      <trkpt lat="38.856968" lon="-1.040358">
        <ele>730.698997</ele>
        <time>2020-08-03T10:53:05.964Z</time>
      </trkpt>
      <trkpt lat="38.856979" lon="-1.040477">
        <ele>730.751183</ele>
        <time>2020-08-03T10:53:07.970Z</time>
      </trkpt>
      <trkpt lat="38.857001" lon="-1.040647">
        <ele>730.826230</ele>
        <time>2020-08-03T10:53:10.991Z</time>
      </trkpt>
      <trkpt lat="38.857027" lon="-1.040815">
        <ele>730.900821</ele>
        <time>2020-08-03T10:53:13.970Z</time>
      </trkpt>
      <trkpt lat="38.857058" lon="-1.040972">
        <ele>730.971355</ele>
        <time>2020-08-03T10:53:16.965Z</time>
      </trkpt>
      <trkpt lat="38.857078" lon="-1.041102">
        <ele>731.029061</ele>
        <time>2020-08-03T10:53:18.962Z</time>
      </trkpt>
      <trkpt lat="38.857102" lon="-1.041217">
        <ele>731.092335</ele>
        <time>2020-08-03T10:53:20.965Z</time>
      </trkpt>
      <trkpt lat="38.857125" lon="-1.041332">
        <ele>731.158698</ele>
        <time>2020-08-03T10:53:22.963Z</time>
      </trkpt>
      <trkpt lat="38.857156" lon="-1.041507">
        <ele>731.259010</ele>
        <time>2020-08-03T10:53:25.976Z</time>
      </trkpt>
      <trkpt lat="38.857177" lon="-1.041676">
        <ele>731.354665</ele>
        <time>2020-08-03T10:53:28.967Z</time>
      </trkpt>
      <trkpt lat="38.857204" lon="-1.041847">
        <ele>731.452187</ele>
        <time>2020-08-03T10:53:31.964Z</time>
      </trkpt>
      <trkpt lat="38.857226" lon="-1.041977">
        <ele>731.526544</ele>
        <time>2020-08-03T10:53:33.964Z</time>
      </trkpt>
      <trkpt lat="38.857253" lon="-1.042093">
        <ele>731.594215</ele>
        <time>2020-08-03T10:53:35.964Z</time>
      </trkpt>
      <trkpt lat="38.857271" lon="-1.042211">
        <ele>731.661422</ele>
        <time>2020-08-03T10:53:37.983Z</time>
      </trkpt>
      <trkpt lat="38.857297" lon="-1.042337">
        <ele>731.734278</ele>
        <time>2020-08-03T10:53:39.969Z</time>
      </trkpt>
      <trkpt lat="38.857310" lon="-1.042458">
        <ele>731.802549</ele>
        <time>2020-08-03T10:53:41.964Z</time>
      </trkpt>
      <trkpt lat="38.857324" lon="-1.042573">
        <ele>731.867607</ele>
        <time>2020-08-03T10:53:43.964Z</time>
      </trkpt>
      <trkpt lat="38.857344" lon="-1.042686">
        <ele>731.932377</ele>
        <time>2020-08-03T10:53:45.968Z</time>
      </trkpt>
      <trkpt lat="38.857361" lon="-1.042809">
        <ele>732.002200</ele>
        <time>2020-08-03T10:53:47.981Z</time>
      </trkpt>
      <trkpt lat="38.857389" lon="-1.042931">
        <ele>732.073290</ele>
        <time>2020-08-03T10:53:49.958Z</time>
      </trkpt>
      <trkpt lat="38.857416" lon="-1.043099">
        <ele>732.169169</ele>
        <time>2020-08-03T10:53:52.969Z</time>
      </trkpt>
      <trkpt lat="38.857433" lon="-1.043217">
        <ele>732.236242</ele>
        <time>2020-08-03T10:53:54.963Z</time>
      </trkpt>
      <trkpt lat="38.857454" lon="-1.043336">
        <ele>732.304441</ele>
        <time>2020-08-03T10:53:56.963Z</time>
      </trkpt>
      <trkpt lat="38.857481" lon="-1.043447">
        <ele>732.292550</ele>
        <time>2020-08-03T10:53:58.980Z</time>
      </trkpt>
      <trkpt lat="38.857507" lon="-1.043566">
        <ele>732.221239</ele>
        <time>2020-08-03T10:54:00.992Z</time>
      </trkpt>
      <trkpt lat="38.857527" lon="-1.043696">
        <ele>732.144784</ele>
        <time>2020-08-03T10:54:02.961Z</time>
      </trkpt>
      <trkpt lat="38.857540" lon="-1.043821">
        <ele>732.072022</ele>
        <time>2020-08-03T10:54:04.982Z</time>
      </trkpt>
      <trkpt lat="38.857552" lon="-1.043944">
        <ele>732.000501</ele>
        <time>2020-08-03T10:54:06.962Z</time>
      </trkpt>
      <trkpt lat="38.857575" lon="-1.044063">
        <ele>731.929758</ele>
        <time>2020-08-03T10:54:08.965Z</time>
      </trkpt>
      <trkpt lat="38.857599" lon="-1.044183">
        <ele>731.858275</ele>
        <time>2020-08-03T10:54:10.969Z</time>
      </trkpt>
      <trkpt lat="38.857615" lon="-1.044311">
        <ele>731.783478</ele>
        <time>2020-08-03T10:54:12.967Z</time>
      </trkpt>
      <trkpt lat="38.857641" lon="-1.044429">
        <ele>731.712723</ele>
        <time>2020-08-03T10:54:14.963Z</time>
      </trkpt>
      <trkpt lat="38.857665" lon="-1.044561">
        <ele>731.634515</ele>
        <time>2020-08-03T10:54:16.975Z</time>
      </trkpt>
      <trkpt lat="38.857693" lon="-1.044681">
        <ele>731.562237</ele>
        <time>2020-08-03T10:54:18.962Z</time>
      </trkpt>
      <trkpt lat="38.857707" lon="-1.044804">
        <ele>731.490516</ele>
        <time>2020-08-03T10:54:20.957Z</time>
      </trkpt>
      <trkpt lat="38.857729" lon="-1.044937">
        <ele>731.412068</ele>
        <time>2020-08-03T10:54:22.965Z</time>
      </trkpt>
      <trkpt lat="38.857759" lon="-1.045062">
        <ele>731.336599</ele>
        <time>2020-08-03T10:54:24.959Z</time>
      </trkpt>
      <trkpt lat="38.857778" lon="-1.045185">
        <ele>731.264250</ele>
        <time>2020-08-03T10:54:26.965Z</time>
      </trkpt>
      <trkpt lat="38.857807" lon="-1.045316">
        <ele>731.185672</ele>
        <time>2020-08-03T10:54:28.983Z</time>
      </trkpt>
      <trkpt lat="38.857828" lon="-1.045441">
        <ele>731.111892</ele>
        <time>2020-08-03T10:54:30.966Z</time>
      </trkpt>
      <trkpt lat="38.857853" lon="-1.045564">
        <ele>731.038548</ele>
        <time>2020-08-03T10:54:32.975Z</time>
      </trkpt>
      <trkpt lat="38.857883" lon="-1.045693">
        <ele>731.004553</ele>
        <time>2020-08-03T10:54:34.966Z</time>
      </trkpt>
      <trkpt lat="38.857903" lon="-1.045825">
        <ele>731.015999</ele>
        <time>2020-08-03T10:54:36.957Z</time>
      </trkpt>
      <trkpt lat="38.857933" lon="-1.045960">
        <ele>731.027949</ele>
        <time>2020-08-03T10:54:38.966Z</time>
      </trkpt>
      <trkpt lat="38.857959" lon="-1.046078">
        <ele>731.038387</ele>
        <time>2020-08-03T10:54:40.951Z</time>
      </trkpt>
      <trkpt lat="38.857991" lon="-1.046206">
        <ele>731.049830</ele>
        <time>2020-08-03T10:54:42.968Z</time>
      </trkpt>
      <trkpt lat="38.858026" lon="-1.046324">
        <ele>731.060577</ele>
        <time>2020-08-03T10:54:44.965Z</time>
      </trkpt>
      <trkpt lat="38.858049" lon="-1.046470">
        <ele>731.073256</ele>
        <time>2020-08-03T10:54:46.966Z</time>
      </trkpt>
      <trkpt lat="38.858082" lon="-1.046601">
        <ele>731.084975</ele>
        <time>2020-08-03T10:54:48.961Z</time>
      </trkpt>
      <trkpt lat="38.858123" lon="-1.046733">
        <ele>731.097072</ele>
        <time>2020-08-03T10:54:50.974Z</time>
      </trkpt>
      <trkpt lat="38.858147" lon="-1.046877">
        <ele>731.109606</ele>
        <time>2020-08-03T10:54:52.965Z</time>
      </trkpt>
      <trkpt lat="38.858169" lon="-1.047021">
        <ele>731.122097</ele>
        <time>2020-08-03T10:54:54.972Z</time>
      </trkpt>
      <trkpt lat="38.858202" lon="-1.047134">
        <ele>731.132369</ele>
        <time>2020-08-03T10:54:56.970Z</time>
      </trkpt>
      <trkpt lat="38.858221" lon="-1.047270">
        <ele>731.144130</ele>
        <time>2020-08-03T10:54:58.961Z</time>
      </trkpt>
      <trkpt lat="38.858241" lon="-1.047409">
        <ele>731.156161</ele>
        <time>2020-08-03T10:55:00.967Z</time>
      </trkpt>
      <trkpt lat="38.858302" lon="-1.047547">
        <ele>731.169668</ele>
        <time>2020-08-03T10:55:02.989Z</time>
      </trkpt>
      <trkpt lat="38.858341" lon="-1.047684">
        <ele>731.182083</ele>
        <time>2020-08-03T10:55:04.963Z</time>
      </trkpt>
      <trkpt lat="38.858386" lon="-1.047826">
        <ele>731.195132</ele>
        <time>2020-08-03T10:55:06.966Z</time>
      </trkpt>
      <trkpt lat="38.858431" lon="-1.047959">
        <ele>731.328534</ele>
        <time>2020-08-03T10:55:08.970Z</time>
      </trkpt>
      <trkpt lat="38.858490" lon="-1.048093">
        <ele>731.474531</ele>
        <time>2020-08-03T10:55:10.966Z</time>
      </trkpt>
      <trkpt lat="38.858541" lon="-1.048191">
        <ele>731.586322</ele>
        <time>2020-08-03T10:55:12.969Z</time>
      </trkpt>
      <trkpt lat="38.858594" lon="-1.048317">
        <ele>731.722143</ele>
        <time>2020-08-03T10:55:14.963Z</time>
      </trkpt>
      <trkpt lat="38.858637" lon="-1.048434">
        <ele>731.844847</ele>
        <time>2020-08-03T10:55:16.963Z</time>
      </trkpt>
      <trkpt lat="38.858697" lon="-1.048545">
        <ele>731.972999</ele>
        <time>2020-08-03T10:55:18.964Z</time>
      </trkpt>
      <trkpt lat="38.858756" lon="-1.048660">
        <ele>732.103612</ele>
        <time>2020-08-03T10:55:20.972Z</time>
      </trkpt>
      <trkpt lat="38.858814" lon="-1.048773">
        <ele>732.231970</ele>
        <time>2020-08-03T10:55:22.968Z</time>
      </trkpt>
      <trkpt lat="38.858857" lon="-1.048904">
        <ele>732.366800</ele>
        <time>2020-08-03T10:55:24.979Z</time>
      </trkpt>
      <trkpt lat="38.858901" lon="-1.049028">
        <ele>732.496038</ele>
        <time>2020-08-03T10:55:26.971Z</time>
      </trkpt>
      <trkpt lat="38.858949" lon="-1.049141">
        <ele>732.618118</ele>
        <time>2020-08-03T10:55:28.967Z</time>
      </trkpt>
      <trkpt lat="38.859011" lon="-1.049281">
        <ele>732.770867</ele>
        <time>2020-08-03T10:55:31.965Z</time>
      </trkpt>
      <trkpt lat="38.859085" lon="-1.049430">
        <ele>732.938476</ele>
        <time>2020-08-03T10:55:34.968Z</time>
      </trkpt>
      <trkpt lat="38.859125" lon="-1.049542">
        <ele>733.055337</ele>
        <time>2020-08-03T10:55:36.966Z</time>
      </trkpt>
      <trkpt lat="38.859175" lon="-1.049659">
        <ele>733.181914</ele>
        <time>2020-08-03T10:55:38.965Z</time>
      </trkpt>
      <trkpt lat="38.859205" lon="-1.049773">
        <ele>733.296040</ele>
        <time>2020-08-03T10:55:40.966Z</time>
      </trkpt>
      <trkpt lat="38.859245" lon="-1.049893">
        <ele>733.292482</ele>
        <time>2020-08-03T10:55:42.961Z</time>
      </trkpt>
      <trkpt lat="38.859285" lon="-1.050023">
        <ele>732.922964</ele>
        <time>2020-08-03T10:55:44.968Z</time>
      </trkpt>
      <trkpt lat="38.859329" lon="-1.050151">
        <ele>732.553086</ele>
        <time>2020-08-03T10:55:46.961Z</time>
      </trkpt>
      <trkpt lat="38.859376" lon="-1.050276">
        <ele>732.186137</ele>
        <time>2020-08-03T10:55:48.961Z</time>
      </trkpt>
      <trkpt lat="38.859425" lon="-1.050386">
        <ele>731.851129</ele>
        <time>2020-08-03T10:55:50.969Z</time>
      </trkpt>
      <trkpt lat="38.859471" lon="-1.050500">
        <ele>731.511707</ele>
        <time>2020-08-03T10:55:52.955Z</time>
      </trkpt>
      <trkpt lat="38.859516" lon="-1.050617">
        <ele>731.166741</ele>
        <time>2020-08-03T10:55:54.968Z</time>
      </trkpt>
      <trkpt lat="38.859562" lon="-1.050731">
        <ele>730.827319</ele>
        <time>2020-08-03T10:55:56.959Z</time>
      </trkpt>
      <trkpt lat="38.859621" lon="-1.050820">
        <ele>730.518332</ele>
        <time>2020-08-03T10:55:58.962Z</time>
      </trkpt>
      <trkpt lat="38.859657" lon="-1.050939">
        <ele>730.180845</ele>
        <time>2020-08-03T10:56:00.969Z</time>
      </trkpt>
      <trkpt lat="38.859737" lon="-1.051052">
        <ele>729.777119</ele>
        <time>2020-08-03T10:56:03.960Z</time>
      </trkpt>
      <trkpt lat="38.859802" lon="-1.051182">
        <ele>729.368714</ele>
        <time>2020-08-03T10:56:07.963Z</time>
      </trkpt>
      <trkpt lat="38.859784" lon="-1.051301">
        <ele>729.048254</ele>
        <time>2020-08-03T10:56:11.983Z</time>
      </trkpt>
      <trkpt lat="38.859537" lon="-1.051447">
        <ele>728.125162</ele>
        <time>2020-08-03T11:02:51.344Z</time>
      </trkpt>
      <trkpt lat="38.859458" lon="-1.051523">
        <ele>727.790060</ele>
        <time>2020-08-03T11:02:57.347Z</time>
      </trkpt>
      <trkpt lat="38.859366" lon="-1.051582">
        <ele>727.440954</ele>
        <time>2020-08-03T11:03:04.327Z</time>
      </trkpt>
      <trkpt lat="38.859276" lon="-1.051638">
        <ele>727.203405</ele>
        <time>2020-08-03T11:03:11.342Z</time>
      </trkpt>
      <trkpt lat="38.859191" lon="-1.051683">
        <ele>727.069462</ele>
        <time>2020-08-03T11:03:17.340Z</time>
      </trkpt>
      <trkpt lat="38.858981" lon="-1.051829">
        <ele>726.721567</ele>
        <time>2020-08-03T11:04:33.333Z</time>
      </trkpt>
      <trkpt lat="38.858897" lon="-1.051890">
        <ele>726.580980</ele>
        <time>2020-08-03T11:04:39.328Z</time>
      </trkpt>
      <trkpt lat="38.858820" lon="-1.051951">
        <ele>726.449175</ele>
        <time>2020-08-03T11:04:45.328Z</time>
      </trkpt>
      <trkpt lat="38.858737" lon="-1.052014">
        <ele>726.308714</ele>
        <time>2020-08-03T11:04:58.329Z</time>
      </trkpt>
      <trkpt lat="38.858645" lon="-1.052044">
        <ele>726.170430</ele>
        <time>2020-08-03T11:05:05.329Z</time>
      </trkpt>
      <trkpt lat="38.858554" lon="-1.052058">
        <ele>726.036908</ele>
        <time>2020-08-03T11:05:14.335Z</time>
      </trkpt>
      <trkpt lat="38.858454" lon="-1.052105">
        <ele>725.881773</ele>
        <time>2020-08-03T11:05:21.330Z</time>
      </trkpt>
      <trkpt lat="38.858366" lon="-1.052177">
        <ele>725.729760</ele>
        <time>2020-08-03T11:05:26.329Z</time>
      </trkpt>
      <trkpt lat="38.858289" lon="-1.052266">
        <ele>725.578837</ele>
        <time>2020-08-03T11:05:30.319Z</time>
      </trkpt>
      <trkpt lat="38.858220" lon="-1.052352">
        <ele>725.438753</ele>
        <time>2020-08-03T11:05:34.332Z</time>
      </trkpt>
      <trkpt lat="38.858144" lon="-1.052288">
        <ele>725.306350</ele>
        <time>2020-08-03T11:05:43.321Z</time>
      </trkpt>
      <trkpt lat="38.858234" lon="-1.052331">
        <ele>725.166453</ele>
        <time>2020-08-03T11:05:53.329Z</time>
      </trkpt>
      <trkpt lat="38.857893" lon="-1.052489">
        <ele>724.688589</ele>
        <time>2020-08-03T11:08:04.326Z</time>
      </trkpt>
      <trkpt lat="38.857808" lon="-1.052563">
        <ele>724.890823</ele>
        <time>2020-08-03T11:08:07.327Z</time>
      </trkpt>
      <trkpt lat="38.857740" lon="-1.052641">
        <ele>725.070380</ele>
        <time>2020-08-03T11:08:10.321Z</time>
      </trkpt>
      <trkpt lat="38.857661" lon="-1.052721">
        <ele>725.268510</ele>
        <time>2020-08-03T11:08:13.325Z</time>
      </trkpt>
      <trkpt lat="38.857566" lon="-1.052769">
        <ele>725.469556</ele>
        <time>2020-08-03T11:08:16.327Z</time>
      </trkpt>
      <trkpt lat="38.857449" lon="-1.052810">
        <ele>725.708393</ele>
        <time>2020-08-03T11:08:19.328Z</time>
      </trkpt>
      <trkpt lat="38.857339" lon="-1.052861">
        <ele>725.938705</ele>
        <time>2020-08-03T11:08:22.326Z</time>
      </trkpt>
      <trkpt lat="38.857245" lon="-1.052913">
        <ele>726.140268</ele>
        <time>2020-08-03T11:08:25.336Z</time>
      </trkpt>
      <trkpt lat="38.857144" lon="-1.052967">
        <ele>726.355721</ele>
        <time>2020-08-03T11:08:28.334Z</time>
      </trkpt>
      <trkpt lat="38.857046" lon="-1.053024">
        <ele>726.567588</ele>
        <time>2020-08-03T11:08:31.324Z</time>
      </trkpt>
      <trkpt lat="38.856947" lon="-1.053086">
        <ele>726.784501</ele>
        <time>2020-08-03T11:08:34.328Z</time>
      </trkpt>
      <trkpt lat="38.856850" lon="-1.053145">
        <ele>726.995870</ele>
        <time>2020-08-03T11:08:37.340Z</time>
      </trkpt>
      <trkpt lat="38.856763" lon="-1.053201">
        <ele>727.187521</ele>
        <time>2020-08-03T11:08:40.326Z</time>
      </trkpt>
      <trkpt lat="38.856686" lon="-1.053268">
        <ele>727.370691</ele>
        <time>2020-08-03T11:08:43.351Z</time>
      </trkpt>
      <trkpt lat="38.856608" lon="-1.053344">
        <ele>727.563510</ele>
        <time>2020-08-03T11:08:46.337Z</time>
      </trkpt>
      <trkpt lat="38.856516" lon="-1.053396">
        <ele>727.761462</ele>
        <time>2020-08-03T11:08:49.337Z</time>
      </trkpt>
      <trkpt lat="38.856451" lon="-1.053496">
        <ele>727.961221</ele>
        <time>2020-08-03T11:08:53.328Z</time>
      </trkpt>
      <trkpt lat="38.856498" lon="-1.053625">
        <ele>728.179632</ele>
        <time>2020-08-03T11:08:57.311Z</time>
      </trkpt>
      <trkpt lat="38.856529" lon="-1.053749">
        <ele>728.083815</ele>
        <time>2020-08-03T11:09:01.332Z</time>
      </trkpt>
      <trkpt lat="38.856566" lon="-1.053867">
        <ele>727.954148</ele>
        <time>2020-08-03T11:09:05.315Z</time>
      </trkpt>
      <trkpt lat="38.856624" lon="-1.054013">
        <ele>727.787077</ele>
        <time>2020-08-03T11:09:08.329Z</time>
      </trkpt>
      <trkpt lat="38.856689" lon="-1.054151">
        <ele>727.622678</ele>
        <time>2020-08-03T11:09:11.331Z</time>
      </trkpt>
      <trkpt lat="38.856757" lon="-1.054280">
        <ele>727.463889</ele>
        <time>2020-08-03T11:09:14.335Z</time>
      </trkpt>
      <trkpt lat="38.856821" lon="-1.054392">
        <ele>727.322284</ele>
        <time>2020-08-03T11:09:17.323Z</time>
      </trkpt>
      <trkpt lat="38.856879" lon="-1.054510">
        <ele>727.180046</ele>
        <time>2020-08-03T11:09:20.332Z</time>
      </trkpt>
      <trkpt lat="38.856937" lon="-1.054635">
        <ele>727.031724</ele>
        <time>2020-08-03T11:09:23.321Z</time>
      </trkpt>
      <trkpt lat="38.857000" lon="-1.054760">
        <ele>726.879949</ele>
        <time>2020-08-03T11:09:26.319Z</time>
      </trkpt>
      <trkpt lat="38.857052" lon="-1.054880">
        <ele>726.739966</ele>
        <time>2020-08-03T11:09:29.312Z</time>
      </trkpt>
      <trkpt lat="38.857106" lon="-1.055000">
        <ele>726.598691</ele>
        <time>2020-08-03T11:09:32.327Z</time>
      </trkpt>
      <trkpt lat="38.857163" lon="-1.055117">
        <ele>726.458012</ele>
        <time>2020-08-03T11:09:35.324Z</time>
      </trkpt>
      <trkpt lat="38.857212" lon="-1.055246">
        <ele>726.311709</ele>
        <time>2020-08-03T11:09:38.323Z</time>
      </trkpt>
      <trkpt lat="38.857253" lon="-1.055365">
        <ele>726.179067</ele>
        <time>2020-08-03T11:09:41.321Z</time>
      </trkpt>
      <trkpt lat="38.857302" lon="-1.055474">
        <ele>726.050775</ele>
        <time>2020-08-03T11:09:44.327Z</time>
      </trkpt>
      <trkpt lat="38.857344" lon="-1.055616">
        <ele>725.895941</ele>
        <time>2020-08-03T11:09:47.327Z</time>
      </trkpt>
      <trkpt lat="38.857407" lon="-1.055756">
        <ele>725.622780</ele>
        <time>2020-08-03T11:09:50.327Z</time>
      </trkpt>
      <trkpt lat="38.857475" lon="-1.055909">
        <ele>725.275904</ele>
        <time>2020-08-03T11:09:53.321Z</time>
      </trkpt>
      <trkpt lat="38.857518" lon="-1.056011">
        <ele>725.047521</ele>
        <time>2020-08-03T11:09:55.325Z</time>
      </trkpt>
      <trkpt lat="38.857582" lon="-1.056135">
        <ele>724.754601</ele>
        <time>2020-08-03T11:09:58.326Z</time>
      </trkpt>
      <trkpt lat="38.857641" lon="-1.056236">
        <ele>724.505992</ele>
        <time>2020-08-03T11:10:01.327Z</time>
      </trkpt>
      <trkpt lat="38.857701" lon="-1.056356">
        <ele>724.225196</ele>
        <time>2020-08-03T11:10:04.331Z</time>
      </trkpt>
      <trkpt lat="38.857752" lon="-1.056484">
        <ele>723.942085</ele>
        <time>2020-08-03T11:10:07.327Z</time>
      </trkpt>
      <trkpt lat="38.857808" lon="-1.056619">
        <ele>723.640905</ele>
        <time>2020-08-03T11:10:10.328Z</time>
      </trkpt>
      <trkpt lat="38.857869" lon="-1.056753">
        <ele>723.335280</ele>
        <time>2020-08-03T11:10:13.324Z</time>
      </trkpt>
      <trkpt lat="38.857918" lon="-1.056878">
        <ele>723.059727</ele>
        <time>2020-08-03T11:10:16.324Z</time>
      </trkpt>
      <trkpt lat="38.857971" lon="-1.057008">
        <ele>722.770795</ele>
        <time>2020-08-03T11:10:19.330Z</time>
      </trkpt>
      <trkpt lat="38.858034" lon="-1.057143">
        <ele>722.460900</ele>
        <time>2020-08-03T11:10:22.320Z</time>
      </trkpt>
      <trkpt lat="38.858091" lon="-1.057271">
        <ele>722.170566</ele>
        <time>2020-08-03T11:10:25.323Z</time>
      </trkpt>
      <trkpt lat="38.858145" lon="-1.057384">
        <ele>721.909512</ele>
        <time>2020-08-03T11:10:28.324Z</time>
      </trkpt>
      <trkpt lat="38.858205" lon="-1.057506">
        <ele>721.625395</ele>
        <time>2020-08-03T11:10:31.324Z</time>
      </trkpt>
      <trkpt lat="38.858261" lon="-1.057633">
        <ele>721.338023</ele>
        <time>2020-08-03T11:10:34.323Z</time>
      </trkpt>
      <trkpt lat="38.858314" lon="-1.057759">
        <ele>721.296775</ele>
        <time>2020-08-03T11:10:37.323Z</time>
      </trkpt>
      <trkpt lat="38.858367" lon="-1.057876">
        <ele>721.293904</ele>
        <time>2020-08-03T11:10:40.327Z</time>
      </trkpt>
      <trkpt lat="38.858417" lon="-1.057991">
        <ele>721.291110</ele>
        <time>2020-08-03T11:10:43.333Z</time>
      </trkpt>
      <trkpt lat="38.858462" lon="-1.058119">
        <ele>721.288130</ele>
        <time>2020-08-03T11:10:46.329Z</time>
      </trkpt>
      <trkpt lat="38.858506" lon="-1.058243">
        <ele>721.285239</ele>
        <time>2020-08-03T11:10:49.318Z</time>
      </trkpt>
      <trkpt lat="38.858556" lon="-1.058353">
        <ele>721.282537</ele>
        <time>2020-08-03T11:10:52.312Z</time>
      </trkpt>
      <trkpt lat="38.858611" lon="-1.058479">
        <ele>721.279473</ele>
        <time>2020-08-03T11:10:55.331Z</time>
      </trkpt>
      <trkpt lat="38.858659" lon="-1.058615">
        <ele>721.276305</ele>
        <time>2020-08-03T11:10:58.327Z</time>
      </trkpt>
      <trkpt lat="38.858710" lon="-1.058750">
        <ele>721.273122</ele>
        <time>2020-08-03T11:11:01.331Z</time>
      </trkpt>
      <trkpt lat="38.858765" lon="-1.058880">
        <ele>721.269983</ele>
        <time>2020-08-03T11:11:04.325Z</time>
      </trkpt>
      <trkpt lat="38.858825" lon="-1.059016">
        <ele>721.266667</ele>
        <time>2020-08-03T11:11:07.327Z</time>
      </trkpt>
      <trkpt lat="38.858881" lon="-1.059152">
        <ele>721.263403</ele>
        <time>2020-08-03T11:11:10.326Z</time>
      </trkpt>
      <trkpt lat="38.858938" lon="-1.059291">
        <ele>721.260070</ele>
        <time>2020-08-03T11:11:13.324Z</time>
      </trkpt>
      <trkpt lat="38.859011" lon="-1.059407">
        <ele>721.256906</ele>
        <time>2020-08-03T11:11:16.324Z</time>
      </trkpt>
      <trkpt lat="38.859076" lon="-1.059524">
        <ele>721.253857</ele>
        <time>2020-08-03T11:11:19.324Z</time>
      </trkpt>
      <trkpt lat="38.859133" lon="-1.059655">
        <ele>721.250674</ele>
        <time>2020-08-03T11:11:22.332Z</time>
      </trkpt>
      <trkpt lat="38.859183" lon="-1.059787">
        <ele>721.048092</ele>
        <time>2020-08-03T11:11:25.323Z</time>
      </trkpt>
      <trkpt lat="38.859237" lon="-1.059914">
        <ele>720.829070</ele>
        <time>2020-08-03T11:11:28.325Z</time>
      </trkpt>
      <trkpt lat="38.859297" lon="-1.060024">
        <ele>720.625786</ele>
        <time>2020-08-03T11:11:31.325Z</time>
      </trkpt>
      <trkpt lat="38.859359" lon="-1.060142">
        <ele>720.410321</ele>
        <time>2020-08-03T11:11:34.324Z</time>
      </trkpt>
      <trkpt lat="38.859418" lon="-1.060279">
        <ele>720.173353</ele>
        <time>2020-08-03T11:11:37.327Z</time>
      </trkpt>
      <trkpt lat="38.859480" lon="-1.060421">
        <ele>719.926936</ele>
        <time>2020-08-03T11:11:40.327Z</time>
      </trkpt>
      <trkpt lat="38.859545" lon="-1.060564">
        <ele>719.676310</ele>
        <time>2020-08-03T11:11:43.322Z</time>
      </trkpt>
      <trkpt lat="38.859605" lon="-1.060706">
        <ele>719.431771</ele>
        <time>2020-08-03T11:11:46.326Z</time>
      </trkpt>
      <trkpt lat="38.859661" lon="-1.060852">
        <ele>719.185428</ele>
        <time>2020-08-03T11:11:49.322Z</time>
      </trkpt>
      <trkpt lat="38.859704" lon="-1.060986">
        <ele>718.966055</ele>
        <time>2020-08-03T11:11:52.321Z</time>
      </trkpt>
      <trkpt lat="38.859746" lon="-1.061119">
        <ele>718.748819</ele>
        <time>2020-08-03T11:11:55.328Z</time>
      </trkpt>
      <trkpt lat="38.859789" lon="-1.061243">
        <ele>718.543360</ele>
        <time>2020-08-03T11:11:58.330Z</time>
      </trkpt>
      <trkpt lat="38.859832" lon="-1.061366">
        <ele>718.339283</ele>
        <time>2020-08-03T11:12:01.327Z</time>
      </trkpt>
      <trkpt lat="38.859884" lon="-1.061499">
        <ele>718.114021</ele>
        <time>2020-08-03T11:12:04.330Z</time>
      </trkpt>
      <trkpt lat="38.859938" lon="-1.061627">
        <ele>717.893671</ele>
        <time>2020-08-03T11:12:07.325Z</time>
      </trkpt>
      <trkpt lat="38.859982" lon="-1.061750">
        <ele>717.807803</ele>
        <time>2020-08-03T11:12:10.324Z</time>
      </trkpt>
      <trkpt lat="38.860027" lon="-1.061871">
        <ele>717.974345</ele>
        <time>2020-08-03T11:12:13.337Z</time>
      </trkpt>
      <trkpt lat="38.860073" lon="-1.061982">
        <ele>718.130514</ele>
        <time>2020-08-03T11:12:16.333Z</time>
      </trkpt>
      <trkpt lat="38.860124" lon="-1.062088">
        <ele>718.285269</ele>
        <time>2020-08-03T11:12:19.339Z</time>
      </trkpt>
      <trkpt lat="38.860167" lon="-1.062199">
        <ele>718.439248</ele>
        <time>2020-08-03T11:12:22.322Z</time>
      </trkpt>
      <trkpt lat="38.860215" lon="-1.062315">
        <ele>718.602397</ele>
        <time>2020-08-03T11:12:25.312Z</time>
      </trkpt>
      <trkpt lat="38.860270" lon="-1.062425">
        <ele>718.764756</ele>
        <time>2020-08-03T11:12:28.334Z</time>
      </trkpt>
      <trkpt lat="38.860325" lon="-1.062557">
        <ele>718.950693</ele>
        <time>2020-08-03T11:12:31.329Z</time>
      </trkpt>
      <trkpt lat="38.860376" lon="-1.062687">
        <ele>719.131486</ele>
        <time>2020-08-03T11:12:34.332Z</time>
      </trkpt>
      <trkpt lat="38.860420" lon="-1.062818">
        <ele>719.308676</ele>
        <time>2020-08-03T11:12:37.324Z</time>
      </trkpt>
      <trkpt lat="38.860472" lon="-1.062941">
        <ele>719.482504</ele>
        <time>2020-08-03T11:12:40.323Z</time>
      </trkpt>
      <trkpt lat="38.860525" lon="-1.063047">
        <ele>719.638958</ele>
        <time>2020-08-03T11:12:43.313Z</time>
      </trkpt>
      <trkpt lat="38.860573" lon="-1.063164">
        <ele>719.803205</ele>
        <time>2020-08-03T11:12:46.330Z</time>
      </trkpt>
      <trkpt lat="38.860621" lon="-1.063290">
        <ele>719.977418</ele>
        <time>2020-08-03T11:12:49.333Z</time>
      </trkpt>
      <trkpt lat="38.860670" lon="-1.063411">
        <ele>720.146806</ele>
        <time>2020-08-03T11:12:52.334Z</time>
      </trkpt>
      <trkpt lat="38.860722" lon="-1.063516">
        <ele>720.301355</ele>
        <time>2020-08-03T11:12:55.322Z</time>
      </trkpt>
      <trkpt lat="38.860781" lon="-1.063639">
        <ele>720.480777</ele>
        <time>2020-08-03T11:12:59.320Z</time>
      </trkpt>
      <trkpt lat="38.860839" lon="-1.063746">
        <ele>720.617685</ele>
        <time>2020-08-03T11:13:03.318Z</time>
      </trkpt>
      <trkpt lat="38.860877" lon="-1.063874">
        <ele>720.571880</ele>
        <time>2020-08-03T11:13:07.324Z</time>
      </trkpt>
      <trkpt lat="38.860926" lon="-1.064010">
        <ele>720.521773</ele>
        <time>2020-08-03T11:13:11.324Z</time>
      </trkpt>
      <trkpt lat="38.860992" lon="-1.064132">
        <ele>720.472100</ele>
        <time>2020-08-03T11:13:15.319Z</time>
      </trkpt>
      <trkpt lat="38.861043" lon="-1.064252">
        <ele>720.426388</ele>
        <time>2020-08-03T11:13:19.323Z</time>
      </trkpt>
      <trkpt lat="38.861086" lon="-1.064369">
        <ele>720.383128</ele>
        <time>2020-08-03T11:13:22.317Z</time>
      </trkpt>
      <trkpt lat="38.861140" lon="-1.064494">
        <ele>720.335330</ele>
        <time>2020-08-03T11:13:25.324Z</time>
      </trkpt>
      <trkpt lat="38.861207" lon="-1.064623">
        <ele>720.283481</ele>
        <time>2020-08-03T11:13:28.314Z</time>
      </trkpt>
      <trkpt lat="38.861246" lon="-1.064746">
        <ele>720.239074</ele>
        <time>2020-08-03T11:13:31.314Z</time>
      </trkpt>
      <trkpt lat="38.861275" lon="-1.064861">
        <ele>720.198655</ele>
        <time>2020-08-03T11:13:34.313Z</time>
      </trkpt>
      <trkpt lat="38.861320" lon="-1.064975">
        <ele>720.155918</ele>
        <time>2020-08-03T11:13:37.320Z</time>
      </trkpt>
      <trkpt lat="38.861371" lon="-1.065089">
        <ele>720.111956</ele>
        <time>2020-08-03T11:13:40.317Z</time>
      </trkpt>
      <trkpt lat="38.861438" lon="-1.065200">
        <ele>720.064996</ele>
        <time>2020-08-03T11:13:43.315Z</time>
      </trkpt>
      <trkpt lat="38.861515" lon="-1.065317">
        <ele>720.013773</ele>
        <time>2020-08-03T11:13:46.332Z</time>
      </trkpt>
      <trkpt lat="38.861597" lon="-1.065426">
        <ele>719.963095</ele>
        <time>2020-08-03T11:13:49.309Z</time>
      </trkpt>
      <trkpt lat="38.861667" lon="-1.065547">
        <ele>719.912692</ele>
        <time>2020-08-03T11:13:52.317Z</time>
      </trkpt>
      <trkpt lat="38.861723" lon="-1.065662">
        <ele>719.867339</ele>
        <time>2020-08-03T11:13:55.333Z</time>
      </trkpt>
      <trkpt lat="38.861779" lon="-1.065768">
        <ele>720.153011</ele>
        <time>2020-08-03T11:13:58.321Z</time>
      </trkpt>
      <trkpt lat="38.861853" lon="-1.065858">
        <ele>720.659745</ele>
        <time>2020-08-03T11:14:01.325Z</time>
      </trkpt>
      <trkpt lat="38.861943" lon="-1.065831">
        <ele>721.119274</ele>
        <time>2020-08-03T11:14:04.308Z</time>
      </trkpt>
      <trkpt lat="38.861995" lon="-1.065697">
        <ele>721.698912</ele>
        <time>2020-08-03T11:14:07.309Z</time>
      </trkpt>
      <trkpt lat="38.862033" lon="-1.065551">
        <ele>722.294893</ele>
        <time>2020-08-03T11:14:10.329Z</time>
      </trkpt>
      <trkpt lat="38.862079" lon="-1.065415">
        <ele>722.868946</ele>
        <time>2020-08-03T11:14:13.330Z</time>
      </trkpt>
      <trkpt lat="38.862143" lon="-1.065326">
        <ele>723.337968</ele>
        <time>2020-08-03T11:14:16.321Z</time>
      </trkpt>
      <trkpt lat="38.862234" lon="-1.065355">
        <ele>723.804143</ele>
        <time>2020-08-03T11:14:19.307Z</time>
      </trkpt>
      <trkpt lat="38.862309" lon="-1.065472">
        <ele>724.390856</ele>
        <time>2020-08-03T11:14:22.323Z</time>
      </trkpt>
      <trkpt lat="38.862376" lon="-1.065607">
        <ele>725.010643</ele>
        <time>2020-08-03T11:14:25.325Z</time>
      </trkpt>
      <trkpt lat="38.862445" lon="-1.065737">
        <ele>725.619741</ele>
        <time>2020-08-03T11:14:28.310Z</time>
      </trkpt>
      <trkpt lat="38.862518" lon="-1.065852">
        <ele>726.194161</ele>
        <time>2020-08-03T11:14:31.325Z</time>
      </trkpt>
      <trkpt lat="38.862602" lon="-1.065980">
        <ele>726.842235</ele>
        <time>2020-08-03T11:14:34.332Z</time>
      </trkpt>
      <trkpt lat="38.862684" lon="-1.066107">
        <ele>727.480960</ele>
        <time>2020-08-03T11:14:37.323Z</time>
      </trkpt>
      <trkpt lat="38.862767" lon="-1.066223">
        <ele>728.090866</ele>
        <time>2020-08-03T11:14:40.324Z</time>
      </trkpt>
      <trkpt lat="38.862847" lon="-1.066336">
        <ele>728.682134</ele>
        <time>2020-08-03T11:14:43.327Z</time>
      </trkpt>
      <trkpt lat="38.862919" lon="-1.066451">
        <ele>728.648434</ele>
        <time>2020-08-03T11:14:46.321Z</time>
      </trkpt>
      <trkpt lat="38.863021" lon="-1.066601">
        <ele>728.405241</ele>
        <time>2020-08-03T11:14:50.324Z</time>
      </trkpt>
      <trkpt lat="38.863120" lon="-1.066701">
        <ele>728.207708</ele>
        <time>2020-08-03T11:14:53.319Z</time>
      </trkpt>
      <trkpt lat="38.863210" lon="-1.066812">
        <ele>728.012014</ele>
        <time>2020-08-03T11:14:56.327Z</time>
      </trkpt>
      <trkpt lat="38.863281" lon="-1.066894">
        <ele>727.862261</ele>
        <time>2020-08-03T11:14:58.325Z</time>
      </trkpt>
      <trkpt lat="38.863389" lon="-1.067011">
        <ele>727.640670</ele>
        <time>2020-08-03T11:15:01.312Z</time>
      </trkpt>
      <trkpt lat="38.863463" lon="-1.067120">
        <ele>727.464074</ele>
        <time>2020-08-03T11:15:03.325Z</time>
      </trkpt>
      <trkpt lat="38.863547" lon="-1.067243">
        <ele>727.264284</ele>
        <time>2020-08-03T11:15:08.324Z</time>
      </trkpt>
      <trkpt lat="38.863633" lon="-1.067331">
        <ele>727.091833</ele>
        <time>2020-08-03T11:15:10.329Z</time>
      </trkpt>
      <trkpt lat="38.863689" lon="-1.067444">
        <ele>726.928265</ele>
        <time>2020-08-03T11:15:13.323Z</time>
      </trkpt>
      <trkpt lat="38.863784" lon="-1.067536">
        <ele>726.741664</ele>
        <time>2020-08-03T11:15:16.336Z</time>
      </trkpt>
      <trkpt lat="38.863861" lon="-1.067654">
        <ele>726.553657</ele>
        <time>2020-08-03T11:15:19.321Z</time>
      </trkpt>
      <trkpt lat="38.863931" lon="-1.067785">
        <ele>726.359640</ele>
        <time>2020-08-03T11:15:22.327Z</time>
      </trkpt>
      <trkpt lat="38.863999" lon="-1.067915">
        <ele>726.168395</ele>
        <time>2020-08-03T11:15:25.330Z</time>
      </trkpt>
      <trkpt lat="38.864070" lon="-1.068054">
        <ele>725.974835</ele>
        <time>2020-08-03T11:15:28.355Z</time>
      </trkpt>
      <trkpt lat="38.864148" lon="-1.068178">
        <ele>726.032901</ele>
        <time>2020-08-03T11:15:31.332Z</time>
      </trkpt>
      <trkpt lat="38.864230" lon="-1.068293">
        <ele>726.089701</ele>
        <time>2020-08-03T11:15:34.328Z</time>
      </trkpt>
      <trkpt lat="38.864310" lon="-1.068405">
        <ele>726.145064</ele>
        <time>2020-08-03T11:15:37.316Z</time>
      </trkpt>
      <trkpt lat="38.864396" lon="-1.068531">
        <ele>726.206097</ele>
        <time>2020-08-03T11:15:40.321Z</time>
      </trkpt>
      <trkpt lat="38.864478" lon="-1.068656">
        <ele>726.265634</ele>
        <time>2020-08-03T11:15:43.323Z</time>
      </trkpt>
      <trkpt lat="38.864569" lon="-1.068781">
        <ele>726.327968</ele>
        <time>2020-08-03T11:15:46.328Z</time>
      </trkpt>
      <trkpt lat="38.864664" lon="-1.068889">
        <ele>726.387320</ele>
        <time>2020-08-03T11:15:49.321Z</time>
      </trkpt>
      <trkpt lat="38.864750" lon="-1.068999">
        <ele>726.444101</ele>
        <time>2020-08-03T11:15:52.327Z</time>
      </trkpt>
      <trkpt lat="38.864812" lon="-1.069123">
        <ele>726.497779</ele>
        <time>2020-08-03T11:15:55.331Z</time>
      </trkpt>
      <trkpt lat="38.864863" lon="-1.069259">
        <ele>726.552763</ele>
        <time>2020-08-03T11:15:58.310Z</time>
      </trkpt>
      <trkpt lat="38.864899" lon="-1.069429">
        <ele>726.616936</ele>
        <time>2020-08-03T11:16:01.326Z</time>
      </trkpt>
      <trkpt lat="38.864945" lon="-1.069607">
        <ele>726.685250</ele>
        <time>2020-08-03T11:16:04.332Z</time>
      </trkpt>
      <trkpt lat="38.864996" lon="-1.069731">
        <ele>726.736332</ele>
        <time>2020-08-03T11:16:06.307Z</time>
      </trkpt>
      <trkpt lat="38.865046" lon="-1.069862">
        <ele>726.789473</ele>
        <time>2020-08-03T11:16:08.356Z</time>
      </trkpt>
      <trkpt lat="38.865083" lon="-1.069995">
        <ele>726.870332</ele>
        <time>2020-08-03T11:16:10.322Z</time>
      </trkpt>
      <trkpt lat="38.865113" lon="-1.070112">
        <ele>726.964403</ele>
        <time>2020-08-03T11:16:12.314Z</time>
      </trkpt>
      <trkpt lat="38.865151" lon="-1.070216">
        <ele>727.052136</ele>
        <time>2020-08-03T11:16:14.334Z</time>
      </trkpt>
      <trkpt lat="38.865183" lon="-1.070328">
        <ele>727.143245</ele>
        <time>2020-08-03T11:16:16.318Z</time>
      </trkpt>
      <trkpt lat="38.865257" lon="-1.070453">
        <ele>727.263164</ele>
        <time>2020-08-03T11:16:19.323Z</time>
      </trkpt>
      <trkpt lat="38.865285" lon="-1.070566">
        <ele>727.353725</ele>
        <time>2020-08-03T11:16:21.324Z</time>
      </trkpt>
      <trkpt lat="38.865356" lon="-1.070699">
        <ele>727.476874</ele>
        <time>2020-08-03T11:16:24.322Z</time>
      </trkpt>
      <trkpt lat="38.865401" lon="-1.070855">
        <ele>727.603921</ele>
        <time>2020-08-03T11:16:27.316Z</time>
      </trkpt>
      <trkpt lat="38.865449" lon="-1.071016">
        <ele>727.735578</ele>
        <time>2020-08-03T11:16:30.325Z</time>
      </trkpt>
      <trkpt lat="38.865499" lon="-1.071164">
        <ele>727.858783</ele>
        <time>2020-08-03T11:16:33.328Z</time>
      </trkpt>
      <trkpt lat="38.865527" lon="-1.071275">
        <ele>727.947889</ele>
        <time>2020-08-03T11:16:35.330Z</time>
      </trkpt>
      <trkpt lat="38.865554" lon="-1.071387">
        <ele>728.037427</ele>
        <time>2020-08-03T11:16:37.323Z</time>
      </trkpt>
      <trkpt lat="38.865604" lon="-1.071531">
        <ele>728.157836</ele>
        <time>2020-08-03T11:16:40.328Z</time>
      </trkpt>
      <trkpt lat="38.865659" lon="-1.071662">
        <ele>728.271495</ele>
        <time>2020-08-03T11:16:43.323Z</time>
      </trkpt>
      <trkpt lat="38.865697" lon="-1.071798">
        <ele>728.381840</ele>
        <time>2020-08-03T11:16:46.322Z</time>
      </trkpt>
      <trkpt lat="38.865709" lon="-1.071983">
        <ele>728.523609</ele>
        <time>2020-08-03T11:16:49.325Z</time>
      </trkpt>
      <trkpt lat="38.865708" lon="-1.072142">
        <ele>728.441163</ele>
        <time>2020-08-03T11:16:52.321Z</time>
      </trkpt>
      <trkpt lat="38.865709" lon="-1.072258">
        <ele>728.259441</ele>
        <time>2020-08-03T11:16:54.322Z</time>
      </trkpt>
      <trkpt lat="38.865737" lon="-1.072376">
        <ele>728.066204</ele>
        <time>2020-08-03T11:16:56.322Z</time>
      </trkpt>
      <trkpt lat="38.865745" lon="-1.072504">
        <ele>727.865050</ele>
        <time>2020-08-03T11:16:58.324Z</time>
      </trkpt>
      <trkpt lat="38.865766" lon="-1.072638">
        <ele>727.650933</ele>
        <time>2020-08-03T11:17:00.334Z</time>
      </trkpt>
      <trkpt lat="38.865770" lon="-1.072770">
        <ele>727.444003</ele>
        <time>2020-08-03T11:17:02.331Z</time>
      </trkpt>
      <trkpt lat="38.865775" lon="-1.072913">
        <ele>727.219771</ele>
        <time>2020-08-03T11:17:04.312Z</time>
      </trkpt>
      <trkpt lat="38.865773" lon="-1.073041">
        <ele>727.019223</ele>
        <time>2020-08-03T11:17:06.314Z</time>
      </trkpt>
      <trkpt lat="38.865790" lon="-1.073170">
        <ele>726.814274</ele>
        <time>2020-08-03T11:17:08.327Z</time>
      </trkpt>
      <trkpt lat="38.865801" lon="-1.073299">
        <ele>726.610991</ele>
        <time>2020-08-03T11:17:10.317Z</time>
      </trkpt>
      <trkpt lat="38.865797" lon="-1.073421">
        <ele>726.419712</ele>
        <time>2020-08-03T11:17:12.327Z</time>
      </trkpt>
      <trkpt lat="38.865808" lon="-1.073550">
        <ele>726.216429</ele>
        <time>2020-08-03T11:17:14.329Z</time>
      </trkpt>
      <trkpt lat="38.865820" lon="-1.073692">
        <ele>725.992684</ele>
        <time>2020-08-03T11:17:16.332Z</time>
      </trkpt>
      <trkpt lat="38.865816" lon="-1.073829">
        <ele>725.777926</ele>
        <time>2020-08-03T11:17:18.330Z</time>
      </trkpt>
      <trkpt lat="38.865823" lon="-1.073956">
        <ele>725.578487</ele>
        <time>2020-08-03T11:17:20.327Z</time>
      </trkpt>
      <trkpt lat="38.865834" lon="-1.074083">
        <ele>725.378318</ele>
        <time>2020-08-03T11:17:22.341Z</time>
      </trkpt>
      <trkpt lat="38.865843" lon="-1.074229">
        <ele>725.148897</ele>
        <time>2020-08-03T11:17:24.315Z</time>
      </trkpt>
      <trkpt lat="38.865855" lon="-1.074359">
        <ele>724.954542</ele>
        <time>2020-08-03T11:17:26.321Z</time>
      </trkpt>
      <trkpt lat="38.865854" lon="-1.074513">
        <ele>724.877176</ele>
        <time>2020-08-03T11:17:28.329Z</time>
      </trkpt>
      <trkpt lat="38.865849" lon="-1.074657">
        <ele>724.804765</ele>
        <time>2020-08-03T11:17:30.327Z</time>
      </trkpt>
      <trkpt lat="38.865871" lon="-1.074798">
        <ele>724.732524</ele>
        <time>2020-08-03T11:17:32.325Z</time>
      </trkpt>
      <trkpt lat="38.865880" lon="-1.074950">
        <ele>724.655945</ele>
        <time>2020-08-03T11:17:34.324Z</time>
      </trkpt>
      <trkpt lat="38.865903" lon="-1.075117">
        <ele>724.570749</ele>
        <time>2020-08-03T11:17:36.330Z</time>
      </trkpt>
      <trkpt lat="38.865911" lon="-1.075272">
        <ele>724.492713</ele>
        <time>2020-08-03T11:17:38.326Z</time>
      </trkpt>
      <trkpt lat="38.865912" lon="-1.075438">
        <ele>724.409319</ele>
        <time>2020-08-03T11:17:40.342Z</time>
      </trkpt>
      <trkpt lat="38.865923" lon="-1.075601">
        <ele>724.327128</ele>
        <time>2020-08-03T11:17:42.324Z</time>
      </trkpt>
      <trkpt lat="38.865934" lon="-1.075763">
        <ele>724.245437</ele>
        <time>2020-08-03T11:17:44.318Z</time>
      </trkpt>
      <trkpt lat="38.865957" lon="-1.075916">
        <ele>724.167157</ele>
        <time>2020-08-03T11:17:46.320Z</time>
      </trkpt>
      <trkpt lat="38.865997" lon="-1.076081">
        <ele>724.080344</ele>
        <time>2020-08-03T11:17:48.324Z</time>
      </trkpt>
      <trkpt lat="38.866014" lon="-1.076241">
        <ele>723.999222</ele>
        <time>2020-08-03T11:17:50.327Z</time>
      </trkpt>
      <trkpt lat="38.866025" lon="-1.076389">
        <ele>723.924535</ele>
        <time>2020-08-03T11:17:52.307Z</time>
      </trkpt>
      <trkpt lat="38.866037" lon="-1.076530">
        <ele>723.853281</ele>
        <time>2020-08-03T11:17:54.324Z</time>
      </trkpt>
      <trkpt lat="38.866037" lon="-1.076673">
        <ele>723.873907</ele>
        <time>2020-08-03T11:17:56.334Z</time>
      </trkpt>
      <trkpt lat="38.866056" lon="-1.076813">
        <ele>724.175777</ele>
        <time>2020-08-03T11:17:58.326Z</time>
      </trkpt>
      <trkpt lat="38.866089" lon="-1.076945">
        <ele>724.470268</ele>
        <time>2020-08-03T11:18:00.325Z</time>
      </trkpt>
      <trkpt lat="38.866120" lon="-1.077083">
        <ele>724.775362</ele>
        <time>2020-08-03T11:18:02.328Z</time>
      </trkpt>
      <trkpt lat="38.866165" lon="-1.077214">
        <ele>725.079508</ele>
        <time>2020-08-03T11:18:04.338Z</time>
      </trkpt>
      <trkpt lat="38.866210" lon="-1.077344">
        <ele>725.381712</ele>
        <time>2020-08-03T11:18:06.322Z</time>
      </trkpt>
      <trkpt lat="38.866264" lon="-1.077489">
        <ele>725.723137</ele>
        <time>2020-08-03T11:18:08.323Z</time>
      </trkpt>
      <trkpt lat="38.866299" lon="-1.077661">
        <ele>726.100767</ele>
        <time>2020-08-03T11:18:11.326Z</time>
      </trkpt>
      <trkpt lat="38.866342" lon="-1.077774">
        <ele>726.367932</ele>
        <time>2020-08-03T11:18:13.325Z</time>
      </trkpt>
      <trkpt lat="38.866380" lon="-1.077914">
        <ele>726.682868</ele>
        <time>2020-08-03T11:18:15.336Z</time>
      </trkpt>
      <trkpt lat="38.866446" lon="-1.078034">
        <ele>726.994951</ele>
        <time>2020-08-03T11:18:17.337Z</time>
      </trkpt>
      <trkpt lat="38.866498" lon="-1.078152">
        <ele>727.282965</ele>
        <time>2020-08-03T11:18:19.331Z</time>
      </trkpt>
      <trkpt lat="38.866571" lon="-1.078277">
        <ele>727.614875</ele>
        <time>2020-08-03T11:18:21.339Z</time>
      </trkpt>
      <trkpt lat="38.866637" lon="-1.078406">
        <ele>727.942758</ele>
        <time>2020-08-03T11:18:23.334Z</time>
      </trkpt>
      <trkpt lat="38.866692" lon="-1.078548">
        <ele>728.279650</ele>
        <time>2020-08-03T11:18:25.333Z</time>
      </trkpt>
      <trkpt lat="38.866744" lon="-1.078679">
        <ele>728.591991</ele>
        <time>2020-08-03T11:18:27.328Z</time>
      </trkpt>
      <trkpt lat="38.866792" lon="-1.078810">
        <ele>728.616626</ele>
        <time>2020-08-03T11:18:29.326Z</time>
      </trkpt>
      <trkpt lat="38.866852" lon="-1.078948">
        <ele>728.461295</ele>
        <time>2020-08-03T11:18:31.313Z</time>
      </trkpt>
      <trkpt lat="38.866911" lon="-1.079090">
        <ele>728.303119</ele>
        <time>2020-08-03T11:18:33.329Z</time>
      </trkpt>
      <trkpt lat="38.866980" lon="-1.079209">
        <ele>728.157306</ele>
        <time>2020-08-03T11:18:35.327Z</time>
      </trkpt>
      <trkpt lat="38.867036" lon="-1.079339">
        <ele>728.011300</ele>
        <time>2020-08-03T11:18:37.326Z</time>
      </trkpt>
      <trkpt lat="38.867089" lon="-1.079478">
        <ele>727.859198</ele>
        <time>2020-08-03T11:18:39.326Z</time>
      </trkpt>
      <trkpt lat="38.867155" lon="-1.079624">
        <ele>727.693288</ele>
        <time>2020-08-03T11:18:41.331Z</time>
      </trkpt>
      <trkpt lat="38.867220" lon="-1.079762">
        <ele>727.534785</ele>
        <time>2020-08-03T11:18:43.327Z</time>
      </trkpt>
      <trkpt lat="38.867267" lon="-1.079910">
        <ele>727.377707</ele>
        <time>2020-08-03T11:18:45.328Z</time>
      </trkpt>
      <trkpt lat="38.867339" lon="-1.080036">
        <ele>727.224112</ele>
        <time>2020-08-03T11:18:47.328Z</time>
      </trkpt>
      <trkpt lat="38.867402" lon="-1.080182">
        <ele>727.060070</ele>
        <time>2020-08-03T11:18:49.327Z</time>
      </trkpt>
      <trkpt lat="38.867467" lon="-1.080309">
        <ele>726.910712</ele>
        <time>2020-08-03T11:18:51.328Z</time>
      </trkpt>
      <trkpt lat="38.867528" lon="-1.080434">
        <ele>726.765736</ele>
        <time>2020-08-03T11:18:53.327Z</time>
      </trkpt>
      <trkpt lat="38.867615" lon="-1.080547">
        <ele>726.609562</ele>
        <time>2020-08-03T11:18:55.320Z</time>
      </trkpt>
      <trkpt lat="38.867676" lon="-1.080686">
        <ele>726.452758</ele>
        <time>2020-08-03T11:18:57.324Z</time>
      </trkpt>
      <trkpt lat="38.867735" lon="-1.080845">
        <ele>726.080643</ele>
        <time>2020-08-03T11:18:59.380Z</time>
      </trkpt>
      <trkpt lat="38.867801" lon="-1.080982">
        <ele>725.720626</ele>
        <time>2020-08-03T11:19:01.326Z</time>
      </trkpt>
      <trkpt lat="38.867881" lon="-1.081125">
        <ele>725.327129</ele>
        <time>2020-08-03T11:19:03.325Z</time>
      </trkpt>
      <trkpt lat="38.867953" lon="-1.081250">
        <ele>724.979664</ele>
        <time>2020-08-03T11:19:05.332Z</time>
      </trkpt>
      <trkpt lat="38.868022" lon="-1.081371">
        <ele>724.644501</ele>
        <time>2020-08-03T11:19:07.336Z</time>
      </trkpt>
      <trkpt lat="38.868082" lon="-1.081497">
        <ele>724.314445</ele>
        <time>2020-08-03T11:19:09.330Z</time>
      </trkpt>
      <trkpt lat="38.868153" lon="-1.081632">
        <ele>723.950388</ele>
        <time>2020-08-03T11:19:11.333Z</time>
      </trkpt>
      <trkpt lat="38.868203" lon="-1.081783">
        <ele>723.583704</ele>
        <time>2020-08-03T11:19:13.333Z</time>
      </trkpt>
      <trkpt lat="38.868265" lon="-1.081899">
        <ele>723.269281</ele>
        <time>2020-08-03T11:19:15.325Z</time>
      </trkpt>
      <trkpt lat="38.868326" lon="-1.082041">
        <ele>722.906864</ele>
        <time>2020-08-03T11:19:17.321Z</time>
      </trkpt>
      <trkpt lat="38.868391" lon="-1.082195">
        <ele>722.515410</ele>
        <time>2020-08-03T11:19:19.334Z</time>
      </trkpt>
      <trkpt lat="38.868459" lon="-1.082306">
        <ele>722.199786</ele>
        <time>2020-08-03T11:19:21.334Z</time>
      </trkpt>
      <trkpt lat="38.868540" lon="-1.082420">
        <ele>721.854900</ele>
        <time>2020-08-03T11:19:23.323Z</time>
      </trkpt>
      <trkpt lat="38.868600" lon="-1.082539">
        <ele>721.538085</ele>
        <time>2020-08-03T11:19:25.337Z</time>
      </trkpt>
      <trkpt lat="38.868661" lon="-1.082686">
        <ele>721.321461</ele>
        <time>2020-08-03T11:19:27.327Z</time>
      </trkpt>
      <trkpt lat="38.868722" lon="-1.082817">
        <ele>721.473322</ele>
        <time>2020-08-03T11:19:29.348Z</time>
      </trkpt>
      <trkpt lat="38.868789" lon="-1.082950">
        <ele>721.630924</ele>
        <time>2020-08-03T11:19:31.328Z</time>
      </trkpt>
      <trkpt lat="38.868834" lon="-1.083083">
        <ele>721.775199</ele>
        <time>2020-08-03T11:19:33.316Z</time>
      </trkpt>
      <trkpt lat="38.868900" lon="-1.083221">
        <ele>721.936328</ele>
        <time>2020-08-03T11:19:35.323Z</time>
      </trkpt>
      <trkpt lat="38.868962" lon="-1.083342">
        <ele>722.080440</ele>
        <time>2020-08-03T11:19:37.326Z</time>
      </trkpt>
      <trkpt lat="38.869033" lon="-1.083451">
        <ele>722.221829</ele>
        <time>2020-08-03T11:19:39.322Z</time>
      </trkpt>
      <trkpt lat="38.869095" lon="-1.083577">
        <ele>722.370122</ele>
        <time>2020-08-03T11:19:41.328Z</time>
      </trkpt>
      <trkpt lat="38.869150" lon="-1.083712">
        <ele>722.521708</ele>
        <time>2020-08-03T11:19:43.320Z</time>
      </trkpt>
      <trkpt lat="38.869201" lon="-1.083840">
        <ele>722.664760</ele>
        <time>2020-08-03T11:19:45.333Z</time>
      </trkpt>
      <trkpt lat="38.869255" lon="-1.083963">
        <ele>722.805245</ele>
        <time>2020-08-03T11:19:47.332Z</time>
      </trkpt>
      <trkpt lat="38.869309" lon="-1.084085">
        <ele>722.944864</ele>
        <time>2020-08-03T11:19:49.327Z</time>
      </trkpt>
      <trkpt lat="38.869357" lon="-1.084193">
        <ele>723.068585</ele>
        <time>2020-08-03T11:19:51.327Z</time>
      </trkpt>
      <trkpt lat="38.869422" lon="-1.084302">
        <ele>723.205181</ele>
        <time>2020-08-03T11:19:53.344Z</time>
      </trkpt>
      <trkpt lat="38.869494" lon="-1.084413">
        <ele>723.348916</ele>
        <time>2020-08-03T11:19:55.316Z</time>
      </trkpt>
      <trkpt lat="38.869555" lon="-1.084511">
        <ele>723.473743</ele>
        <time>2020-08-03T11:19:57.333Z</time>
      </trkpt>
      <trkpt lat="38.869595" lon="-1.084616">
        <ele>723.562629</ele>
        <time>2020-08-03T11:19:59.332Z</time>
      </trkpt>
      <trkpt lat="38.869627" lon="-1.084737">
        <ele>723.498018</ele>
        <time>2020-08-03T11:20:01.326Z</time>
      </trkpt>
      <trkpt lat="38.869680" lon="-1.084841">
        <ele>723.435172</ele>
        <time>2020-08-03T11:20:03.324Z</time>
      </trkpt>
      <trkpt lat="38.869715" lon="-1.084963">
        <ele>723.369435</ele>
        <time>2020-08-03T11:20:05.333Z</time>
      </trkpt>
      <trkpt lat="38.869759" lon="-1.085064">
        <ele>723.310918</ele>
        <time>2020-08-03T11:20:07.341Z</time>
      </trkpt>
      <trkpt lat="38.869813" lon="-1.085186">
        <ele>723.239963</ele>
        <time>2020-08-03T11:20:09.324Z</time>
      </trkpt>
      <trkpt lat="38.869858" lon="-1.085301">
        <ele>723.174889</ele>
        <time>2020-08-03T11:20:11.324Z</time>
      </trkpt>
      <trkpt lat="38.869908" lon="-1.085428">
        <ele>723.102935</ele>
        <time>2020-08-03T11:20:13.324Z</time>
      </trkpt>
      <trkpt lat="38.869934" lon="-1.085540">
        <ele>723.043844</ele>
        <time>2020-08-03T11:20:15.331Z</time>
      </trkpt>
      <trkpt lat="38.869985" lon="-1.085663">
        <ele>722.973386</ele>
        <time>2020-08-03T11:20:17.323Z</time>
      </trkpt>
      <trkpt lat="38.870028" lon="-1.085805">
        <ele>722.896351</ele>
        <time>2020-08-03T11:20:19.335Z</time>
      </trkpt>
      <trkpt lat="38.870088" lon="-1.085949">
        <ele>722.813774</ele>
        <time>2020-08-03T11:20:21.330Z</time>
      </trkpt>
      <trkpt lat="38.870140" lon="-1.086091">
        <ele>722.734434</ele>
        <time>2020-08-03T11:20:23.322Z</time>
      </trkpt>
      <trkpt lat="38.870218" lon="-1.086202">
        <ele>722.658834</ele>
        <time>2020-08-03T11:20:25.319Z</time>
      </trkpt>
      <trkpt lat="38.870247" lon="-1.086321">
        <ele>722.595789</ele>
        <time>2020-08-03T11:20:27.327Z</time>
      </trkpt>
      <trkpt lat="38.870282" lon="-1.086447">
        <ele>722.528151</ele>
        <time>2020-08-03T11:20:29.347Z</time>
      </trkpt>
      <trkpt lat="38.870339" lon="-1.086562">
        <ele>722.459224</ele>
        <time>2020-08-03T11:20:31.325Z</time>
      </trkpt>
      <trkpt lat="38.870365" lon="-1.086686">
        <ele>722.408345</ele>
        <time>2020-08-03T11:20:33.334Z</time>
      </trkpt>
      <trkpt lat="38.870410" lon="-1.086786">
        <ele>722.435956</ele>
        <time>2020-08-03T11:20:35.327Z</time>
      </trkpt>
      <trkpt lat="38.870465" lon="-1.086879">
        <ele>722.463874</ele>
        <time>2020-08-03T11:20:37.323Z</time>
      </trkpt>
      <trkpt lat="38.870503" lon="-1.087009">
        <ele>722.497069</ele>
        <time>2020-08-03T11:20:39.330Z</time>
      </trkpt>
      <trkpt lat="38.870533" lon="-1.087133">
        <ele>722.528109</ele>
        <time>2020-08-03T11:20:41.312Z</time>
      </trkpt>
      <trkpt lat="38.870561" lon="-1.087285">
        <ele>722.565448</ele>
        <time>2020-08-03T11:20:43.324Z</time>
      </trkpt>
      <trkpt lat="38.870610" lon="-1.087422">
        <ele>722.601489</ele>
        <time>2020-08-03T11:20:45.318Z</time>
      </trkpt>
      <trkpt lat="38.870657" lon="-1.087569">
        <ele>722.639477</ele>
        <time>2020-08-03T11:20:47.313Z</time>
      </trkpt>
      <trkpt lat="38.870692" lon="-1.087692">
        <ele>722.670783</ele>
        <time>2020-08-03T11:20:49.323Z</time>
      </trkpt>
      <trkpt lat="38.870679" lon="-1.087828">
        <ele>722.703538</ele>
        <time>2020-08-03T11:20:51.313Z</time>
      </trkpt>
      <trkpt lat="38.870733" lon="-1.087943">
        <ele>722.735641</ele>
        <time>2020-08-03T11:20:53.337Z</time>
      </trkpt>
      <trkpt lat="38.870758" lon="-1.088112">
        <ele>722.776764</ele>
        <time>2020-08-03T11:20:56.326Z</time>
      </trkpt>
      <trkpt lat="38.870790" lon="-1.088242">
        <ele>722.809357</ele>
        <time>2020-08-03T11:20:59.327Z</time>
      </trkpt>
      <trkpt lat="38.870851" lon="-1.088368">
        <ele>722.844825</ele>
        <time>2020-08-03T11:21:02.331Z</time>
      </trkpt>
      <trkpt lat="38.870911" lon="-1.088499">
        <ele>722.881158</ele>
        <time>2020-08-03T11:21:05.323Z</time>
      </trkpt>
      <trkpt lat="38.870963" lon="-1.088634">
        <ele>722.917163</ele>
        <time>2020-08-03T11:21:08.318Z</time>
      </trkpt>
      <trkpt lat="38.870989" lon="-1.088756">
        <ele>722.947400</ele>
        <time>2020-08-03T11:21:11.334Z</time>
      </trkpt>
      <trkpt lat="38.870987" lon="-1.088876">
        <ele>722.956091</ele>
        <time>2020-08-03T11:21:15.329Z</time>
      </trkpt>
      <trkpt lat="38.870946" lon="-1.089012">
        <ele>722.956091</ele>
        <time>2020-08-03T11:21:20.327Z</time>
      </trkpt>
      <trkpt lat="38.870856" lon="-1.089032">
        <ele>722.956091</ele>
        <time>2020-08-03T11:21:23.323Z</time>
      </trkpt>
      <trkpt lat="38.870762" lon="-1.089009">
        <ele>722.956091</ele>
        <time>2020-08-03T11:21:26.311Z</time>
      </trkpt>
      <trkpt lat="38.870655" lon="-1.088992">
        <ele>722.956091</ele>
        <time>2020-08-03T11:21:29.316Z</time>
      </trkpt>
      <trkpt lat="38.870550" lon="-1.088973">
        <ele>722.956091</ele>
        <time>2020-08-03T11:21:32.324Z</time>
      </trkpt>
      <trkpt lat="38.870436" lon="-1.088952">
        <ele>722.956091</ele>
        <time>2020-08-03T11:21:36.318Z</time>
      </trkpt>
      <trkpt lat="38.870333" lon="-1.088924">
        <ele>722.956091</ele>
        <time>2020-08-03T11:21:39.328Z</time>
      </trkpt>
      <trkpt lat="38.870223" lon="-1.088933">
        <ele>722.956091</ele>
        <time>2020-08-03T11:21:43.323Z</time>
      </trkpt>
      <trkpt lat="38.870135" lon="-1.088962">
        <ele>722.956091</ele>
        <time>2020-08-03T11:21:47.330Z</time>
      </trkpt>
      <trkpt lat="38.870108" lon="-1.088944">
        <ele>722.956091</ele>
        <time>2020-08-03T11:22:33.174Z</time>
      </trkpt>
      <trkpt lat="38.874301" lon="-1.160565">
        <ele>796.161342</ele>
        <time>2020-08-04T05:44:57.339Z</time>
      </trkpt>
      <trkpt lat="38.874500" lon="-1.160485">
        <ele>796.161342</ele>
        <time>2020-08-04T05:46:28.978Z</time>
      </trkpt>
      <trkpt lat="38.874586" lon="-1.160449">
        <ele>796.161342</ele>
        <time>2020-08-04T05:46:32.974Z</time>
      </trkpt>
      <trkpt lat="38.874707" lon="-1.160438">
        <ele>796.161342</ele>
        <time>2020-08-04T05:46:36.991Z</time>
      </trkpt>
      <trkpt lat="38.874813" lon="-1.160454">
        <ele>796.161342</ele>
        <time>2020-08-04T05:46:40.983Z</time>
      </trkpt>
      <trkpt lat="38.874898" lon="-1.160520">
        <ele>796.161342</ele>
        <time>2020-08-04T05:46:45.965Z</time>
      </trkpt>
      <trkpt lat="38.874863" lon="-1.160630">
        <ele>796.161342</ele>
        <time>2020-08-04T05:46:50.976Z</time>
      </trkpt>
      <trkpt lat="38.874790" lon="-1.160733">
        <ele>796.161342</ele>
        <time>2020-08-04T05:46:57.960Z</time>
      </trkpt>
      <trkpt lat="38.874764" lon="-1.160850">
        <ele>796.193575</ele>
        <time>2020-08-04T05:47:02.983Z</time>
      </trkpt>
      <trkpt lat="38.874748" lon="-1.160984">
        <ele>796.343561</ele>
        <time>2020-08-04T05:47:07.977Z</time>
      </trkpt>
      <trkpt lat="38.874709" lon="-1.161089">
        <ele>796.472272</ele>
        <time>2020-08-04T05:47:11.980Z</time>
      </trkpt>
      <trkpt lat="38.874711" lon="-1.161218">
        <ele>796.615021</ele>
        <time>2020-08-04T05:47:16.974Z</time>
      </trkpt>
      <trkpt lat="38.874735" lon="-1.161330">
        <ele>796.743542</ele>
        <time>2020-08-04T05:47:20.978Z</time>
      </trkpt>
      <trkpt lat="38.875008" lon="-1.161525">
        <ele>797.187455</ele>
        <time>2020-08-04T05:47:58.982Z</time>
      </trkpt>
      <trkpt lat="38.875064" lon="-1.161629">
        <ele>797.327356</ele>
        <time>2020-08-04T05:48:02.976Z</time>
      </trkpt>
      <trkpt lat="38.875092" lon="-1.161739">
        <ele>797.455395</ele>
        <time>2020-08-04T05:48:06.980Z</time>
      </trkpt>
      <trkpt lat="38.875105" lon="-1.161854">
        <ele>797.583960</ele>
        <time>2020-08-04T05:48:10.970Z</time>
      </trkpt>
      <trkpt lat="38.875108" lon="-1.161978">
        <ele>797.721214</ele>
        <time>2020-08-04T05:48:14.982Z</time>
      </trkpt>
      <trkpt lat="38.875105" lon="-1.162107">
        <ele>797.863998</ele>
        <time>2020-08-04T05:48:19.981Z</time>
      </trkpt>
      <trkpt lat="38.875107" lon="-1.162223">
        <ele>797.992366</ele>
        <time>2020-08-04T05:48:24.982Z</time>
      </trkpt>
      <trkpt lat="38.875090" lon="-1.162362">
        <ele>798.148036</ele>
        <time>2020-08-04T05:48:29.980Z</time>
      </trkpt>
      <trkpt lat="38.875084" lon="-1.162497">
        <ele>798.297637</ele>
        <time>2020-08-04T05:48:33.979Z</time>
      </trkpt>
      <trkpt lat="38.875080" lon="-1.162622">
        <ele>798.436048</ele>
        <time>2020-08-04T05:48:37.966Z</time>
      </trkpt>
      <trkpt lat="38.875058" lon="-1.162747">
        <ele>798.577832</ele>
        <time>2020-08-04T05:48:40.977Z</time>
      </trkpt>
      <trkpt lat="38.875048" lon="-1.162864">
        <ele>798.708054</ele>
        <time>2020-08-04T05:48:44.983Z</time>
      </trkpt>
      <trkpt lat="38.875008" lon="-1.162979">
        <ele>798.463537</ele>
        <time>2020-08-04T05:48:50.975Z</time>
      </trkpt>
      <trkpt lat="38.874993" lon="-1.163120">
        <ele>798.156063</ele>
        <time>2020-08-04T05:48:54.975Z</time>
      </trkpt>
      <trkpt lat="38.874989" lon="-1.163245">
        <ele>797.885761</ele>
        <time>2020-08-04T05:48:57.972Z</time>
      </trkpt>
      <trkpt lat="38.875004" lon="-1.163376">
        <ele>797.599679</ele>
        <time>2020-08-04T05:49:00.979Z</time>
      </trkpt>
      <trkpt lat="38.875020" lon="-1.163603">
        <ele>797.107219</ele>
        <time>2020-08-04T05:49:03.981Z</time>
      </trkpt>
      <trkpt lat="38.875041" lon="-1.163738">
        <ele>796.809774</ele>
        <time>2020-08-04T05:49:07.976Z</time>
      </trkpt>
      <trkpt lat="38.874995" lon="-1.163861">
        <ele>796.514949</ele>
        <time>2020-08-04T05:49:10.977Z</time>
      </trkpt>
      <trkpt lat="38.874949" lon="-1.163990">
        <ele>796.208387</ele>
        <time>2020-08-04T05:49:13.978Z</time>
      </trkpt>
      <trkpt lat="38.874866" lon="-1.164105">
        <ele>795.869572</ele>
        <time>2020-08-04T05:49:16.968Z</time>
      </trkpt>
      <trkpt lat="38.874778" lon="-1.164212">
        <ele>795.533282</ele>
        <time>2020-08-04T05:49:20.985Z</time>
      </trkpt>
      <trkpt lat="38.874693" lon="-1.164304">
        <ele>795.224803</ele>
        <time>2020-08-04T05:49:23.986Z</time>
      </trkpt>
      <trkpt lat="38.874621" lon="-1.164407">
        <ele>794.925718</ele>
        <time>2020-08-04T05:49:26.979Z</time>
      </trkpt>
      <trkpt lat="38.874588" lon="-1.164538">
        <ele>794.628231</ele>
        <time>2020-08-04T05:49:29.976Z</time>
      </trkpt>
      <trkpt lat="38.874599" lon="-1.164685">
        <ele>794.309159</ele>
        <time>2020-08-04T05:49:32.983Z</time>
      </trkpt>
      <trkpt lat="38.874600" lon="-1.164820">
        <ele>794.017464</ele>
        <time>2020-08-04T05:49:34.981Z</time>
      </trkpt>
      <trkpt lat="38.874614" lon="-1.164961">
        <ele>793.729171</ele>
        <time>2020-08-04T05:49:37.979Z</time>
      </trkpt>
      <trkpt lat="38.874576" lon="-1.165079">
        <ele>793.791526</ele>
        <time>2020-08-04T05:49:40.973Z</time>
      </trkpt>
      <trkpt lat="38.874503" lon="-1.165177">
        <ele>793.857756</ele>
        <time>2020-08-04T05:49:43.977Z</time>
      </trkpt>
      <trkpt lat="38.874452" lon="-1.165277">
        <ele>793.916131</ele>
        <time>2020-08-04T05:49:45.980Z</time>
      </trkpt>
      <trkpt lat="38.874395" lon="-1.165389">
        <ele>793.981470</ele>
        <time>2020-08-04T05:49:48.976Z</time>
      </trkpt>
      <trkpt lat="38.874353" lon="-1.165500">
        <ele>794.041734</ele>
        <time>2020-08-04T05:49:51.981Z</time>
      </trkpt>
      <trkpt lat="38.874300" lon="-1.165615">
        <ele>794.106991</ele>
        <time>2020-08-04T05:49:54.967Z</time>
      </trkpt>
      <trkpt lat="38.874253" lon="-1.165724">
        <ele>794.167835</ele>
        <time>2020-08-04T05:49:57.975Z</time>
      </trkpt>
      <trkpt lat="38.874220" lon="-1.165837">
        <ele>794.226768</ele>
        <time>2020-08-04T05:50:00.973Z</time>
      </trkpt>
      <trkpt lat="38.874166" lon="-1.165930">
        <ele>794.283420</ele>
        <time>2020-08-04T05:50:03.985Z</time>
      </trkpt>
      <trkpt lat="38.874110" lon="-1.166059">
        <ele>794.355542</ele>
        <time>2020-08-04T05:50:07.966Z</time>
      </trkpt>
      <trkpt lat="38.874070" lon="-1.166175">
        <ele>794.417493</ele>
        <time>2020-08-04T05:50:10.974Z</time>
      </trkpt>
      <trkpt lat="38.874022" lon="-1.166293">
        <ele>794.482505</ele>
        <time>2020-08-04T05:50:13.974Z</time>
      </trkpt>
      <trkpt lat="38.873976" lon="-1.166465">
        <ele>794.571311</ele>
        <time>2020-08-04T05:50:16.980Z</time>
      </trkpt>
      <trkpt lat="38.873924" lon="-1.166584">
        <ele>794.637947</ele>
        <time>2020-08-04T05:50:18.984Z</time>
      </trkpt>
      <trkpt lat="38.873853" lon="-1.166701">
        <ele>794.710385</ele>
        <time>2020-08-04T05:50:20.978Z</time>
      </trkpt>
      <trkpt lat="38.873815" lon="-1.166833">
        <ele>794.779107</ele>
        <time>2020-08-04T05:50:22.981Z</time>
      </trkpt>
      <trkpt lat="38.873757" lon="-1.166993">
        <ele>794.830813</ele>
        <time>2020-08-04T05:50:25.983Z</time>
      </trkpt>
      <trkpt lat="38.873735" lon="-1.167107">
        <ele>794.715419</ele>
        <time>2020-08-04T05:50:31.976Z</time>
      </trkpt>
      <trkpt lat="38.873687" lon="-1.167206">
        <ele>794.600831</ele>
        <time>2020-08-04T05:50:44.980Z</time>
      </trkpt>
      <trkpt lat="38.873551" lon="-1.167465">
        <ele>794.293892</ele>
        <time>2020-08-04T05:51:17.963Z</time>
      </trkpt>
      <trkpt lat="38.873478" lon="-1.167551">
        <ele>794.168885</ele>
        <time>2020-08-04T05:51:23.981Z</time>
      </trkpt>
      <trkpt lat="38.873433" lon="-1.167654">
        <ele>794.052842</ele>
        <time>2020-08-04T05:51:30.983Z</time>
      </trkpt>
      <trkpt lat="38.873423" lon="-1.167776">
        <ele>793.932314</ele>
        <time>2020-08-04T05:51:40.977Z</time>
      </trkpt>
      <trkpt lat="38.873426" lon="-1.167897">
        <ele>793.813370</ele>
        <time>2020-08-04T05:51:48.968Z</time>
      </trkpt>
      <trkpt lat="38.873408" lon="-1.168020">
        <ele>793.690405</ele>
        <time>2020-08-04T05:51:54.980Z</time>
      </trkpt>
      <trkpt lat="38.873348" lon="-1.168112">
        <ele>793.572491</ele>
        <time>2020-08-04T05:51:57.976Z</time>
      </trkpt>
      <trkpt lat="38.873301" lon="-1.168243">
        <ele>793.430773</ele>
        <time>2020-08-04T05:52:01.971Z</time>
      </trkpt>
      <trkpt lat="38.873248" lon="-1.168360">
        <ele>793.297776</ele>
        <time>2020-08-04T05:52:06.974Z</time>
      </trkpt>
      <trkpt lat="38.873186" lon="-1.168456">
        <ele>793.175226</ele>
        <time>2020-08-04T05:52:10.989Z</time>
      </trkpt>
      <trkpt lat="38.873133" lon="-1.168556">
        <ele>793.056370</ele>
        <time>2020-08-04T05:52:14.979Z</time>
      </trkpt>
      <trkpt lat="38.873077" lon="-1.168680">
        <ele>792.915525</ele>
        <time>2020-08-04T05:52:18.969Z</time>
      </trkpt>
      <trkpt lat="38.872976" lon="-1.168981">
        <ele>792.593490</ele>
        <time>2020-08-04T05:54:04.959Z</time>
      </trkpt>
      <trkpt lat="38.872745" lon="-1.169197">
        <ele>793.083382</ele>
        <time>2020-08-04T05:55:01.977Z</time>
      </trkpt>
      <trkpt lat="38.872723" lon="-1.169317">
        <ele>793.255694</ele>
        <time>2020-08-04T05:55:11.978Z</time>
      </trkpt>
      <trkpt lat="38.872683" lon="-1.169430">
        <ele>793.429194</ele>
        <time>2020-08-04T05:55:20.973Z</time>
      </trkpt>
      <trkpt lat="38.872668" lon="-1.169549">
        <ele>793.597687</ele>
        <time>2020-08-04T05:55:31.973Z</time>
      </trkpt>
      <trkpt lat="38.872434" lon="-1.169726">
        <ele>794.085216</ele>
        <time>2020-08-04T05:56:32.967Z</time>
      </trkpt>
      <trkpt lat="38.872371" lon="-1.169837">
        <ele>794.277212</ele>
        <time>2020-08-04T05:56:37.972Z</time>
      </trkpt>
      <trkpt lat="38.872284" lon="-1.169917">
        <ele>794.469301</ele>
        <time>2020-08-04T05:56:41.972Z</time>
      </trkpt>
      <trkpt lat="38.872199" lon="-1.170006">
        <ele>794.666180</ele>
        <time>2020-08-04T05:56:45.986Z</time>
      </trkpt>
      <trkpt lat="38.872132" lon="-1.170084">
        <ele>794.828519</ele>
        <time>2020-08-04T05:56:48.974Z</time>
      </trkpt>
      <trkpt lat="38.872059" lon="-1.170160">
        <ele>794.997219</ele>
        <time>2020-08-04T05:56:51.977Z</time>
      </trkpt>
      <trkpt lat="38.872045" lon="-1.170297">
        <ele>795.190348</ele>
        <time>2020-08-04T05:56:55.978Z</time>
      </trkpt>
      <trkpt lat="38.872097" lon="-1.170432">
        <ele>795.400871</ele>
        <time>2020-08-04T05:56:59.982Z</time>
      </trkpt>
      <trkpt lat="38.872066" lon="-1.170599">
        <ele>795.640833</ele>
        <time>2020-08-04T05:57:02.977Z</time>
      </trkpt>
      <trkpt lat="38.871987" lon="-1.170690">
        <ele>795.787259</ele>
        <time>2020-08-04T05:57:04.975Z</time>
      </trkpt>
      <trkpt lat="38.871915" lon="-1.170767">
        <ele>795.550228</ele>
        <time>2020-08-04T05:57:06.962Z</time>
      </trkpt>
      <trkpt lat="38.871856" lon="-1.170864">
        <ele>795.307773</ele>
        <time>2020-08-04T05:57:17.975Z</time>
      </trkpt>
      <trkpt lat="38.871772" lon="-1.170932">
        <ele>795.056571</ele>
        <time>2020-08-04T05:57:27.974Z</time>
      </trkpt>
      <trkpt lat="38.871701" lon="-1.171021">
        <ele>794.805580</ele>
        <time>2020-08-04T05:57:38.976Z</time>
      </trkpt>
      <trkpt lat="38.871655" lon="-1.171124">
        <ele>794.571692</ele>
        <time>2020-08-04T05:57:46.973Z</time>
      </trkpt>
      <trkpt lat="38.871602" lon="-1.171222">
        <ele>794.336660</ele>
        <time>2020-08-04T05:58:06.984Z</time>
      </trkpt>
      <trkpt lat="38.871549" lon="-1.171362">
        <ele>794.030030</ele>
        <time>2020-08-04T05:58:09.978Z</time>
      </trkpt>
      <trkpt lat="38.871520" lon="-1.171509">
        <ele>793.731333</ele>
        <time>2020-08-04T05:58:11.980Z</time>
      </trkpt>
      <trkpt lat="38.871451" lon="-1.171614">
        <ele>793.460691</ele>
        <time>2020-08-04T05:58:13.975Z</time>
      </trkpt>
      <trkpt lat="38.871331" lon="-1.171703">
        <ele>793.110120</ele>
        <time>2020-08-04T05:58:16.981Z</time>
      </trkpt>
      <trkpt lat="38.871275" lon="-1.171820">
        <ele>792.839598</ele>
        <time>2020-08-04T05:58:20.959Z</time>
      </trkpt>
      <trkpt lat="38.871244" lon="-1.171998">
        <ele>792.480325</ele>
        <time>2020-08-04T05:58:23.964Z</time>
      </trkpt>
      <trkpt lat="38.871218" lon="-1.172158">
        <ele>792.158380</ele>
        <time>2020-08-04T05:58:26.980Z</time>
      </trkpt>
      <trkpt lat="38.871147" lon="-1.172243">
        <ele>791.912826</ele>
        <time>2020-08-04T05:58:28.976Z</time>
      </trkpt>
      <trkpt lat="38.871060" lon="-1.172324">
        <ele>791.640978</ele>
        <time>2020-08-04T05:58:30.987Z</time>
      </trkpt>
      <trkpt lat="38.871009" lon="-1.172422">
        <ele>791.408794</ele>
        <time>2020-08-04T05:58:32.976Z</time>
      </trkpt>
      <trkpt lat="38.870927" lon="-1.172481">
        <ele>791.259390</ele>
        <time>2020-08-04T05:58:34.985Z</time>
      </trkpt>
      <trkpt lat="38.870825" lon="-1.172561">
        <ele>791.248871</ele>
        <time>2020-08-04T05:58:37.974Z</time>
      </trkpt>
      <trkpt lat="38.870710" lon="-1.172631">
        <ele>791.237671</ele>
        <time>2020-08-04T05:58:40.972Z</time>
      </trkpt>
      <trkpt lat="38.870620" lon="-1.172730">
        <ele>791.227241</ele>
        <time>2020-08-04T05:58:43.975Z</time>
      </trkpt>
      <trkpt lat="38.870525" lon="-1.172840">
        <ele>791.215984</ele>
        <time>2020-08-04T05:58:46.964Z</time>
      </trkpt>
      <trkpt lat="38.870467" lon="-1.172969">
        <ele>791.205776</ele>
        <time>2020-08-04T05:58:49.980Z</time>
      </trkpt>
      <trkpt lat="38.870395" lon="-1.173048">
        <ele>791.197441</ele>
        <time>2020-08-04T05:58:52.970Z</time>
      </trkpt>
      <trkpt lat="38.870317" lon="-1.173119">
        <ele>791.189027</ele>
        <time>2020-08-04T05:58:54.973Z</time>
      </trkpt>
      <trkpt lat="38.870265" lon="-1.173219">
        <ele>791.180787</ele>
        <time>2020-08-04T05:58:56.977Z</time>
      </trkpt>
      <trkpt lat="38.870198" lon="-1.173304">
        <ele>791.172498</ele>
        <time>2020-08-04T05:58:58.975Z</time>
      </trkpt>
      <trkpt lat="38.870156" lon="-1.173426">
        <ele>791.163357</ele>
        <time>2020-08-04T05:59:01.976Z</time>
      </trkpt>
      <trkpt lat="38.870125" lon="-1.173545">
        <ele>791.154758</ele>
        <time>2020-08-04T05:59:05.970Z</time>
      </trkpt>
      <trkpt lat="38.870108" lon="-1.173673">
        <ele>791.145860</ele>
        <time>2020-08-04T05:59:10.957Z</time>
      </trkpt>
      <trkpt lat="38.870084" lon="-1.173784">
        <ele>791.137966</ele>
        <time>2020-08-04T05:59:14.974Z</time>
      </trkpt>
      <trkpt lat="38.870070" lon="-1.173926">
        <ele>791.128158</ele>
        <time>2020-08-04T05:59:19.972Z</time>
      </trkpt>
      <trkpt lat="38.870044" lon="-1.174059">
        <ele>791.118761</ele>
        <time>2020-08-04T05:59:23.979Z</time>
      </trkpt>
      <trkpt lat="38.869995" lon="-1.174171">
        <ele>791.109957</ele>
        <time>2020-08-04T05:59:27.982Z</time>
      </trkpt>
      <trkpt lat="38.869948" lon="-1.174300">
        <ele>791.144906</ele>
        <time>2020-08-04T05:59:31.986Z</time>
      </trkpt>
      <trkpt lat="38.869905" lon="-1.174429">
        <ele>791.240881</ele>
        <time>2020-08-04T05:59:35.979Z</time>
      </trkpt>
      <trkpt lat="38.869866" lon="-1.174558">
        <ele>791.335527</ele>
        <time>2020-08-04T05:59:39.981Z</time>
      </trkpt>
      <trkpt lat="38.869842" lon="-1.174679">
        <ele>791.420927</ele>
        <time>2020-08-04T05:59:43.978Z</time>
      </trkpt>
      <trkpt lat="38.869818" lon="-1.174816">
        <ele>791.516969</ele>
        <time>2020-08-04T05:59:47.971Z</time>
      </trkpt>
      <trkpt lat="38.869772" lon="-1.174933">
        <ele>791.606615</ele>
        <time>2020-08-04T05:59:52.972Z</time>
      </trkpt>
      <trkpt lat="38.869702" lon="-1.175010">
        <ele>791.687575</ele>
        <time>2020-08-04T05:59:56.976Z</time>
      </trkpt>
      <trkpt lat="38.869642" lon="-1.175126">
        <ele>791.782825</ele>
        <time>2020-08-04T06:00:00.976Z</time>
      </trkpt>
      <trkpt lat="38.869593" lon="-1.175277">
        <ele>791.894711</ele>
        <time>2020-08-04T06:00:03.974Z</time>
      </trkpt>
      <trkpt lat="38.869561" lon="-1.175411">
        <ele>791.990574</ele>
        <time>2020-08-04T06:00:05.967Z</time>
      </trkpt>
      <trkpt lat="38.869503" lon="-1.175538">
        <ele>792.091275</ele>
        <time>2020-08-04T06:00:07.983Z</time>
      </trkpt>
      <trkpt lat="38.869430" lon="-1.175639">
        <ele>792.185530</ele>
        <time>2020-08-04T06:00:09.967Z</time>
      </trkpt>
      <trkpt lat="38.869373" lon="-1.175775">
        <ele>792.291168</ele>
        <time>2020-08-04T06:00:11.970Z</time>
      </trkpt>
      <trkpt lat="38.869332" lon="-1.175888">
        <ele>792.376434</ele>
        <time>2020-08-04T06:00:13.972Z</time>
      </trkpt>
      <trkpt lat="38.869276" lon="-1.175994">
        <ele>792.464046</ele>
        <time>2020-08-04T06:00:17.980Z</time>
      </trkpt>
      <trkpt lat="38.869274" lon="-1.176128">
        <ele>792.555712</ele>
        <time>2020-08-04T06:00:26.966Z</time>
      </trkpt>
      <trkpt lat="38.869198" lon="-1.176216">
        <ele>792.645599</ele>
        <time>2020-08-04T06:00:30.974Z</time>
      </trkpt>
      <trkpt lat="38.869139" lon="-1.176308">
        <ele>792.664220</ele>
        <time>2020-08-04T06:00:33.975Z</time>
      </trkpt>
      <trkpt lat="38.869073" lon="-1.176429">
        <ele>792.616862</ele>
        <time>2020-08-04T06:00:36.973Z</time>
      </trkpt>
      <trkpt lat="38.869036" lon="-1.176537">
        <ele>792.579039</ele>
        <time>2020-08-04T06:00:38.980Z</time>
      </trkpt>
      <trkpt lat="38.868989" lon="-1.176655">
        <ele>792.536551</ele>
        <time>2020-08-04T06:00:40.972Z</time>
      </trkpt>
      <trkpt lat="38.868951" lon="-1.176760">
        <ele>792.499435</ele>
        <time>2020-08-04T06:00:42.977Z</time>
      </trkpt>
      <trkpt lat="38.868921" lon="-1.176872">
        <ele>792.461467</ele>
        <time>2020-08-04T06:00:44.971Z</time>
      </trkpt>
      <trkpt lat="38.868902" lon="-1.177036">
        <ele>792.408318</ele>
        <time>2020-08-04T06:00:47.973Z</time>
      </trkpt>
      <trkpt lat="38.868846" lon="-1.177189">
        <ele>792.354124</ele>
        <time>2020-08-04T06:00:50.982Z</time>
      </trkpt>
      <trkpt lat="38.868812" lon="-1.177342">
        <ele>792.303121</ele>
        <time>2020-08-04T06:00:53.976Z</time>
      </trkpt>
      <trkpt lat="38.868764" lon="-1.177494">
        <ele>792.250541</ele>
        <time>2020-08-04T06:00:56.973Z</time>
      </trkpt>
      <trkpt lat="38.868730" lon="-1.177658">
        <ele>792.196138</ele>
        <time>2020-08-04T06:00:59.962Z</time>
      </trkpt>
      <trkpt lat="38.868671" lon="-1.177781">
        <ele>792.149828</ele>
        <time>2020-08-04T06:01:02.980Z</time>
      </trkpt>
      <trkpt lat="38.868630" lon="-1.177917">
        <ele>792.103078</ele>
        <time>2020-08-04T06:01:05.971Z</time>
      </trkpt>
      <trkpt lat="38.868599" lon="-1.178055">
        <ele>792.057037</ele>
        <time>2020-08-04T06:01:08.993Z</time>
      </trkpt>
      <trkpt lat="38.868531" lon="-1.178206">
        <ele>792.001120</ele>
        <time>2020-08-04T06:01:11.976Z</time>
      </trkpt>
      <trkpt lat="38.868486" lon="-1.178341">
        <ele>791.954046</ele>
        <time>2020-08-04T06:01:14.978Z</time>
      </trkpt>
      <trkpt lat="38.868426" lon="-1.178485">
        <ele>791.908556</ele>
        <time>2020-08-04T06:01:17.974Z</time>
      </trkpt>
      <trkpt lat="38.868363" lon="-1.178636">
        <ele>791.862600</ele>
        <time>2020-08-04T06:01:20.975Z</time>
      </trkpt>
      <trkpt lat="38.868326" lon="-1.178743">
        <ele>791.831192</ele>
        <time>2020-08-04T06:01:22.972Z</time>
      </trkpt>
      <trkpt lat="38.868271" lon="-1.178863">
        <ele>791.793838</ele>
        <time>2020-08-04T06:01:24.981Z</time>
      </trkpt>
      <trkpt lat="38.868208" lon="-1.178953">
        <ele>791.761372</ele>
        <time>2020-08-04T06:01:26.970Z</time>
      </trkpt>
      <trkpt lat="38.868166" lon="-1.179099">
        <ele>791.719618</ele>
        <time>2020-08-04T06:01:29.979Z</time>
      </trkpt>
      <trkpt lat="38.868123" lon="-1.179208">
        <ele>791.686839</ele>
        <time>2020-08-04T06:01:31.981Z</time>
      </trkpt>
      <trkpt lat="38.868070" lon="-1.179342">
        <ele>791.646520</ele>
        <time>2020-08-04T06:01:34.974Z</time>
      </trkpt>
      <trkpt lat="38.867991" lon="-1.179466">
        <ele>791.603539</ele>
        <time>2020-08-04T06:01:37.973Z</time>
      </trkpt>
      <trkpt lat="38.867888" lon="-1.179595">
        <ele>791.553971</ele>
        <time>2020-08-04T06:01:40.979Z</time>
      </trkpt>
      <trkpt lat="38.867837" lon="-1.179712">
        <ele>791.518001</ele>
        <time>2020-08-04T06:01:42.966Z</time>
      </trkpt>
      <trkpt lat="38.867760" lon="-1.179802">
        <ele>791.482130</ele>
        <time>2020-08-04T06:01:44.974Z</time>
      </trkpt>
      <trkpt lat="38.867673" lon="-1.179923">
        <ele>791.437947</ele>
        <time>2020-08-04T06:01:47.973Z</time>
      </trkpt>
      <trkpt lat="38.867636" lon="-1.180036">
        <ele>791.405062</ele>
        <time>2020-08-04T06:01:49.977Z</time>
      </trkpt>
      <trkpt lat="38.867555" lon="-1.180104">
        <ele>791.371721</ele>
        <time>2020-08-04T06:01:51.984Z</time>
      </trkpt>
      <trkpt lat="38.867487" lon="-1.180234">
        <ele>791.329708</ele>
        <time>2020-08-04T06:01:54.973Z</time>
      </trkpt>
      <trkpt lat="38.867422" lon="-1.180319">
        <ele>791.282836</ele>
        <time>2020-08-04T06:01:56.985Z</time>
      </trkpt>
      <trkpt lat="38.867315" lon="-1.180407">
        <ele>791.214246</ele>
        <time>2020-08-04T06:01:59.975Z</time>
      </trkpt>
      <trkpt lat="38.867237" lon="-1.180497">
        <ele>791.157642</ele>
        <time>2020-08-04T06:02:01.985Z</time>
      </trkpt>
      <trkpt lat="38.867148" lon="-1.180609">
        <ele>791.090379</ele>
        <time>2020-08-04T06:02:04.975Z</time>
      </trkpt>
      <trkpt lat="38.867062" lon="-1.180727">
        <ele>791.022443</ele>
        <time>2020-08-04T06:02:07.975Z</time>
      </trkpt>
      <trkpt lat="38.866984" lon="-1.180848">
        <ele>790.956416</ele>
        <time>2020-08-04T06:02:10.985Z</time>
      </trkpt>
      <trkpt lat="38.866902" lon="-1.180965">
        <ele>790.890251</ele>
        <time>2020-08-04T06:02:13.954Z</time>
      </trkpt>
      <trkpt lat="38.866819" lon="-1.181074">
        <ele>790.826168</ele>
        <time>2020-08-04T06:02:16.965Z</time>
      </trkpt>
      <trkpt lat="38.866738" lon="-1.181174">
        <ele>790.765516</ele>
        <time>2020-08-04T06:02:19.972Z</time>
      </trkpt>
      <trkpt lat="38.866654" lon="-1.181271">
        <ele>790.704537</ele>
        <time>2020-08-04T06:02:22.954Z</time>
      </trkpt>
      <trkpt lat="38.866575" lon="-1.181400">
        <ele>790.635553</ele>
        <time>2020-08-04T06:02:25.975Z</time>
      </trkpt>
      <trkpt lat="38.866487" lon="-1.181525">
        <ele>790.564721</ele>
        <time>2020-08-04T06:02:28.978Z</time>
      </trkpt>
      <trkpt lat="38.866422" lon="-1.181606">
        <ele>790.515830</ele>
        <time>2020-08-04T06:02:30.984Z</time>
      </trkpt>
      <trkpt lat="38.866345" lon="-1.181679">
        <ele>790.464165</ele>
        <time>2020-08-04T06:02:32.974Z</time>
      </trkpt>
      <trkpt lat="38.866226" lon="-1.181777">
        <ele>790.387853</ele>
        <time>2020-08-04T06:02:35.979Z</time>
      </trkpt>
      <trkpt lat="38.866140" lon="-1.181923">
        <ele>790.356437</ele>
        <time>2020-08-04T06:02:38.982Z</time>
      </trkpt>
      <trkpt lat="38.866056" lon="-1.182002">
        <ele>790.360896</ele>
        <time>2020-08-04T06:02:41.974Z</time>
      </trkpt>
      <trkpt lat="38.866010" lon="-1.182104">
        <ele>790.364828</ele>
        <time>2020-08-04T06:02:43.994Z</time>
      </trkpt>
      <trkpt lat="38.865938" lon="-1.182226">
        <ele>790.369934</ele>
        <time>2020-08-04T06:02:46.978Z</time>
      </trkpt>
      <trkpt lat="38.865866" lon="-1.182342">
        <ele>790.374882</ele>
        <time>2020-08-04T06:02:49.975Z</time>
      </trkpt>
      <trkpt lat="38.865791" lon="-1.182451">
        <ele>790.379734</ele>
        <time>2020-08-04T06:02:52.978Z</time>
      </trkpt>
      <trkpt lat="38.865702" lon="-1.182541">
        <ele>790.384586</ele>
        <time>2020-08-04T06:02:55.978Z</time>
      </trkpt>
      <trkpt lat="38.865616" lon="-1.182637">
        <ele>790.389467</ele>
        <time>2020-08-04T06:02:58.979Z</time>
      </trkpt>
      <trkpt lat="38.865535" lon="-1.182721">
        <ele>790.393927</ele>
        <time>2020-08-04T06:03:01.992Z</time>
      </trkpt>
      <trkpt lat="38.865440" lon="-1.182795">
        <ele>790.398687</ele>
        <time>2020-08-04T06:03:04.975Z</time>
      </trkpt>
      <trkpt lat="38.865335" lon="-1.182879">
        <ele>790.403986</ele>
        <time>2020-08-04T06:03:07.978Z</time>
      </trkpt>
      <trkpt lat="38.865232" lon="-1.182966">
        <ele>790.409267</ele>
        <time>2020-08-04T06:03:10.974Z</time>
      </trkpt>
      <trkpt lat="38.865127" lon="-1.183039">
        <ele>790.414381</ele>
        <time>2020-08-04T06:03:13.975Z</time>
      </trkpt>
      <trkpt lat="38.865037" lon="-1.183109">
        <ele>790.418889</ele>
        <time>2020-08-04T06:03:16.977Z</time>
      </trkpt>
      <trkpt lat="38.864937" lon="-1.183176">
        <ele>790.423720</ele>
        <time>2020-08-04T06:03:19.970Z</time>
      </trkpt>
      <trkpt lat="38.864856" lon="-1.183267">
        <ele>790.428330</ele>
        <time>2020-08-04T06:03:22.978Z</time>
      </trkpt>
      <trkpt lat="38.864738" lon="-1.183331">
        <ele>790.510912</ele>
        <time>2020-08-04T06:03:25.968Z</time>
      </trkpt>
      <trkpt lat="38.864631" lon="-1.183402">
        <ele>790.624179</ele>
        <time>2020-08-04T06:03:28.980Z</time>
      </trkpt>
      <trkpt lat="38.864532" lon="-1.183491">
        <ele>790.737828</ele>
        <time>2020-08-04T06:03:31.973Z</time>
      </trkpt>
      <trkpt lat="38.864421" lon="-1.183579">
        <ele>790.860506</ele>
        <time>2020-08-04T06:03:34.976Z</time>
      </trkpt>
      <trkpt lat="38.864344" lon="-1.183667">
        <ele>790.957442</ele>
        <time>2020-08-04T06:03:37.973Z</time>
      </trkpt>
      <trkpt lat="38.864295" lon="-1.183782">
        <ele>791.053438</ele>
        <time>2020-08-04T06:03:40.969Z</time>
      </trkpt>
      <trkpt lat="38.864224" lon="-1.183890">
        <ele>791.156943</ele>
        <time>2020-08-04T06:03:43.978Z</time>
      </trkpt>
      <trkpt lat="38.864135" lon="-1.183992">
        <ele>791.269125</ele>
        <time>2020-08-04T06:03:46.971Z</time>
      </trkpt>
      <trkpt lat="38.864038" lon="-1.184083">
        <ele>791.382096</ele>
        <time>2020-08-04T06:03:49.975Z</time>
      </trkpt>
      <trkpt lat="38.863943" lon="-1.184183">
        <ele>791.497615</ele>
        <time>2020-08-04T06:03:52.971Z</time>
      </trkpt>
      <trkpt lat="38.863876" lon="-1.184305">
        <ele>791.606939</ele>
        <time>2020-08-04T06:03:55.972Z</time>
      </trkpt>
      <trkpt lat="38.863826" lon="-1.184435">
        <ele>791.713116</ele>
        <time>2020-08-04T06:03:58.976Z</time>
      </trkpt>
      <trkpt lat="38.863785" lon="-1.184568">
        <ele>791.817864</ele>
        <time>2020-08-04T06:04:01.984Z</time>
      </trkpt>
      <trkpt lat="38.863736" lon="-1.184704">
        <ele>791.927600</ele>
        <time>2020-08-04T06:04:04.977Z</time>
      </trkpt>
      <trkpt lat="38.863698" lon="-1.184828">
        <ele>792.025182</ele>
        <time>2020-08-04T06:04:07.975Z</time>
      </trkpt>
      <trkpt lat="38.863658" lon="-1.184952">
        <ele>792.119363</ele>
        <time>2020-08-04T06:04:10.971Z</time>
      </trkpt>
      <trkpt lat="38.863612" lon="-1.185069">
        <ele>791.993338</ele>
        <time>2020-08-04T06:04:13.977Z</time>
      </trkpt>
      <trkpt lat="38.863584" lon="-1.185198">
        <ele>791.864573</ele>
        <time>2020-08-04T06:04:16.960Z</time>
      </trkpt>
      <trkpt lat="38.863543" lon="-1.185327">
        <ele>791.730602</ele>
        <time>2020-08-04T06:04:19.983Z</time>
      </trkpt>
      <trkpt lat="38.863490" lon="-1.185449">
        <ele>791.596274</ele>
        <time>2020-08-04T06:04:22.979Z</time>
      </trkpt>
      <trkpt lat="38.863453" lon="-1.185576">
        <ele>791.465893</ele>
        <time>2020-08-04T06:04:25.969Z</time>
      </trkpt>
      <trkpt lat="38.863416" lon="-1.185701">
        <ele>791.337312</ele>
        <time>2020-08-04T06:04:28.978Z</time>
      </trkpt>
      <trkpt lat="38.863369" lon="-1.185825">
        <ele>791.204708</ele>
        <time>2020-08-04T06:04:31.975Z</time>
      </trkpt>
      <trkpt lat="38.863318" lon="-1.185955">
        <ele>791.064741</ele>
        <time>2020-08-04T06:04:34.986Z</time>
      </trkpt>
      <trkpt lat="38.863273" lon="-1.186085">
        <ele>790.927948</ele>
        <time>2020-08-04T06:04:37.974Z</time>
      </trkpt>
      <trkpt lat="38.863227" lon="-1.186209">
        <ele>790.795879</ele>
        <time>2020-08-04T06:04:40.976Z</time>
      </trkpt>
      <trkpt lat="38.863188" lon="-1.186337">
        <ele>790.663717</ele>
        <time>2020-08-04T06:04:43.981Z</time>
      </trkpt>
      <trkpt lat="38.863154" lon="-1.186456">
        <ele>790.541836</ele>
        <time>2020-08-04T06:04:46.976Z</time>
      </trkpt>
      <trkpt lat="38.863108" lon="-1.186579">
        <ele>790.410634</ele>
        <time>2020-08-04T06:04:49.983Z</time>
      </trkpt>
      <trkpt lat="38.863061" lon="-1.186693">
        <ele>790.286603</ele>
        <time>2020-08-04T06:04:52.977Z</time>
      </trkpt>
      <trkpt lat="38.863018" lon="-1.186811">
        <ele>790.161333</ele>
        <time>2020-08-04T06:04:55.978Z</time>
      </trkpt>
      <trkpt lat="38.862991" lon="-1.186926">
        <ele>790.045840</ele>
        <time>2020-08-04T06:04:58.976Z</time>
      </trkpt>
      <trkpt lat="38.862972" lon="-1.187051">
        <ele>789.923381</ele>
        <time>2020-08-04T06:05:01.976Z</time>
      </trkpt>
      <trkpt lat="38.862934" lon="-1.187187">
        <ele>789.977642</ele>
        <time>2020-08-04T06:05:04.981Z</time>
      </trkpt>
      <trkpt lat="38.862905" lon="-1.187330">
        <ele>790.071860</ele>
        <time>2020-08-04T06:05:07.970Z</time>
      </trkpt>
      <trkpt lat="38.862869" lon="-1.187475">
        <ele>790.168897</ele>
        <time>2020-08-04T06:05:10.977Z</time>
      </trkpt>
      <trkpt lat="38.862836" lon="-1.187618">
        <ele>790.263992</ele>
        <time>2020-08-04T06:05:13.986Z</time>
      </trkpt>
      <trkpt lat="38.862817" lon="-1.187766">
        <ele>790.359630</ele>
        <time>2020-08-04T06:05:16.972Z</time>
      </trkpt>
      <trkpt lat="38.862804" lon="-1.187918">
        <ele>790.457127</ele>
        <time>2020-08-04T06:05:19.975Z</time>
      </trkpt>
      <trkpt lat="38.862804" lon="-1.188070">
        <ele>790.554042</ele>
        <time>2020-08-04T06:05:22.985Z</time>
      </trkpt>
      <trkpt lat="38.862803" lon="-1.188226">
        <ele>790.653510</ele>
        <time>2020-08-04T06:05:25.977Z</time>
      </trkpt>
      <trkpt lat="38.862812" lon="-1.188376">
        <ele>790.749432</ele>
        <time>2020-08-04T06:05:28.981Z</time>
      </trkpt>
      <trkpt lat="38.862813" lon="-1.188524">
        <ele>790.843800</ele>
        <time>2020-08-04T06:05:31.976Z</time>
      </trkpt>
      <trkpt lat="38.862816" lon="-1.188669">
        <ele>790.936284</ele>
        <time>2020-08-04T06:05:34.987Z</time>
      </trkpt>
      <trkpt lat="38.862825" lon="-1.188807">
        <ele>791.024580</ele>
        <time>2020-08-04T06:05:37.974Z</time>
      </trkpt>
      <trkpt lat="38.862823" lon="-1.188936">
        <ele>791.106845</ele>
        <time>2020-08-04T06:05:40.977Z</time>
      </trkpt>
      <trkpt lat="38.862831" lon="-1.189091">
        <ele>791.205889</ele>
        <time>2020-08-04T06:05:44.973Z</time>
      </trkpt>
      <trkpt lat="38.862847" lon="-1.189221">
        <ele>791.289806</ele>
        <time>2020-08-04T06:05:47.984Z</time>
      </trkpt>
      <trkpt lat="38.862861" lon="-1.189359">
        <ele>791.382451</ele>
        <time>2020-08-04T06:05:50.982Z</time>
      </trkpt>
      <trkpt lat="38.862873" lon="-1.189516">
        <ele>791.560011</ele>
        <time>2020-08-04T06:05:53.979Z</time>
      </trkpt>
      <trkpt lat="38.862886" lon="-1.189670">
        <ele>791.734361</ele>
        <time>2020-08-04T06:05:56.976Z</time>
      </trkpt>
      <trkpt lat="38.862900" lon="-1.189815">
        <ele>791.898815</ele>
        <time>2020-08-04T06:05:59.980Z</time>
      </trkpt>
      <trkpt lat="38.862916" lon="-1.189965">
        <ele>792.069224</ele>
        <time>2020-08-04T06:06:02.980Z</time>
      </trkpt>
      <trkpt lat="38.862929" lon="-1.190095">
        <ele>792.216747</ele>
        <time>2020-08-04T06:06:05.976Z</time>
      </trkpt>
      <trkpt lat="38.862939" lon="-1.190244">
        <ele>792.385075</ele>
        <time>2020-08-04T06:06:08.977Z</time>
      </trkpt>
      <trkpt lat="38.862959" lon="-1.190397">
        <ele>792.559693</ele>
        <time>2020-08-04T06:06:11.993Z</time>
      </trkpt>
      <trkpt lat="38.862982" lon="-1.190548">
        <ele>792.732872</ele>
        <time>2020-08-04T06:06:14.979Z</time>
      </trkpt>
      <trkpt lat="38.862980" lon="-1.190700">
        <ele>792.903979</ele>
        <time>2020-08-04T06:06:17.979Z</time>
      </trkpt>
      <trkpt lat="38.862953" lon="-1.190855">
        <ele>793.082751</ele>
        <time>2020-08-04T06:06:20.963Z</time>
      </trkpt>
      <trkpt lat="38.862907" lon="-1.191015">
        <ele>793.274722</ele>
        <time>2020-08-04T06:06:23.980Z</time>
      </trkpt>
      <trkpt lat="38.862860" lon="-1.191170">
        <ele>793.461943</ele>
        <time>2020-08-04T06:06:26.968Z</time>
      </trkpt>
      <trkpt lat="38.862841" lon="-1.191286">
        <ele>793.595364</ele>
        <time>2020-08-04T06:06:28.974Z</time>
      </trkpt>
      <trkpt lat="38.862802" lon="-1.191445">
        <ele>793.782995</ele>
        <time>2020-08-04T06:06:31.977Z</time>
      </trkpt>
      <trkpt lat="38.862752" lon="-1.191563">
        <ele>793.934202</ele>
        <time>2020-08-04T06:06:34.975Z</time>
      </trkpt>
      <trkpt lat="38.862677" lon="-1.191702">
        <ele>794.004145</ele>
        <time>2020-08-04T06:06:37.982Z</time>
      </trkpt>
      <trkpt lat="38.862647" lon="-1.191858">
        <ele>794.040953</ele>
        <time>2020-08-04T06:06:40.973Z</time>
      </trkpt>
      <trkpt lat="38.862630" lon="-1.192010">
        <ele>794.076129</ele>
        <time>2020-08-04T06:06:43.980Z</time>
      </trkpt>
      <trkpt lat="38.862596" lon="-1.192161">
        <ele>794.112135</ele>
        <time>2020-08-04T06:06:46.982Z</time>
      </trkpt>
      <trkpt lat="38.862568" lon="-1.192301">
        <ele>794.145246</ele>
        <time>2020-08-04T06:06:49.981Z</time>
      </trkpt>
      <trkpt lat="38.862540" lon="-1.192438">
        <ele>794.177691</ele>
        <time>2020-08-04T06:06:52.972Z</time>
      </trkpt>
      <trkpt lat="38.862502" lon="-1.192579">
        <ele>794.211870</ele>
        <time>2020-08-04T06:06:55.974Z</time>
      </trkpt>
      <trkpt lat="38.862461" lon="-1.192722">
        <ele>794.246777</ele>
        <time>2020-08-04T06:06:58.970Z</time>
      </trkpt>
      <trkpt lat="38.862425" lon="-1.192879">
        <ele>794.284268</ele>
        <time>2020-08-04T06:07:01.987Z</time>
      </trkpt>
      <trkpt lat="38.862392" lon="-1.193026">
        <ele>794.319313</ele>
        <time>2020-08-04T06:07:04.974Z</time>
      </trkpt>
      <trkpt lat="38.862362" lon="-1.193168">
        <ele>794.353016</ele>
        <time>2020-08-04T06:07:07.974Z</time>
      </trkpt>
      <trkpt lat="38.862326" lon="-1.193308">
        <ele>794.386790</ele>
        <time>2020-08-04T06:07:10.975Z</time>
      </trkpt>
      <trkpt lat="38.862301" lon="-1.193462">
        <ele>794.422825</ele>
        <time>2020-08-04T06:07:13.974Z</time>
      </trkpt>
      <trkpt lat="38.862281" lon="-1.193600">
        <ele>794.454979</ele>
        <time>2020-08-04T06:07:16.970Z</time>
      </trkpt>
      <trkpt lat="38.862268" lon="-1.193732">
        <ele>794.485457</ele>
        <time>2020-08-04T06:07:19.972Z</time>
      </trkpt>
      <trkpt lat="38.862243" lon="-1.193871">
        <ele>794.527777</ele>
        <time>2020-08-04T06:07:22.977Z</time>
      </trkpt>
      <trkpt lat="38.862224" lon="-1.194002">
        <ele>794.577138</ele>
        <time>2020-08-04T06:07:25.974Z</time>
      </trkpt>
      <trkpt lat="38.862209" lon="-1.194133">
        <ele>794.626187</ele>
        <time>2020-08-04T06:07:28.976Z</time>
      </trkpt>
      <trkpt lat="38.862198" lon="-1.194269">
        <ele>794.676837</ele>
        <time>2020-08-04T06:07:31.991Z</time>
      </trkpt>
      <trkpt lat="38.862190" lon="-1.194388">
        <ele>794.721082</ele>
        <time>2020-08-04T06:07:34.972Z</time>
      </trkpt>
      <trkpt lat="38.862181" lon="-1.194519">
        <ele>794.769798</ele>
        <time>2020-08-04T06:07:37.987Z</time>
      </trkpt>
      <trkpt lat="38.862184" lon="-1.194667">
        <ele>794.824641</ele>
        <time>2020-08-04T06:07:40.978Z</time>
      </trkpt>
      <trkpt lat="38.862183" lon="-1.194809">
        <ele>794.877244</ele>
        <time>2020-08-04T06:07:43.972Z</time>
      </trkpt>
      <trkpt lat="38.862177" lon="-1.194952">
        <ele>794.930293</ele>
        <time>2020-08-04T06:07:46.974Z</time>
      </trkpt>
      <trkpt lat="38.862167" lon="-1.195077">
        <ele>794.976841</ele>
        <time>2020-08-04T06:07:49.976Z</time>
      </trkpt>
      <trkpt lat="38.862136" lon="-1.195192">
        <ele>795.021922</ele>
        <time>2020-08-04T06:07:52.981Z</time>
      </trkpt>
      <trkpt lat="38.862089" lon="-1.195299">
        <ele>795.067430</ele>
        <time>2020-08-04T06:07:55.974Z</time>
      </trkpt>
      <trkpt lat="38.862011" lon="-1.195410">
        <ele>795.122816</ele>
        <time>2020-08-04T06:07:59.975Z</time>
      </trkpt>
      <trkpt lat="38.861927" lon="-1.195493">
        <ele>795.173237</ele>
        <time>2020-08-04T06:08:03.980Z</time>
      </trkpt>
      <trkpt lat="38.861838" lon="-1.195568">
        <ele>795.223879</ele>
        <time>2020-08-04T06:08:07.984Z</time>
      </trkpt>
      <trkpt lat="38.861766" lon="-1.195660">
        <ele>795.272198</ele>
        <time>2020-08-04T06:08:11.979Z</time>
      </trkpt>
      <trkpt lat="38.861710" lon="-1.195797">
        <ele>795.329515</ele>
        <time>2020-08-04T06:08:15.966Z</time>
      </trkpt>
      <trkpt lat="38.861658" lon="-1.195933">
        <ele>795.425431</ele>
        <time>2020-08-04T06:08:18.974Z</time>
      </trkpt>
      <trkpt lat="38.861634" lon="-1.196088">
        <ele>795.568836</ele>
        <time>2020-08-04T06:08:21.978Z</time>
      </trkpt>
      <trkpt lat="38.861657" lon="-1.196211">
        <ele>795.683622</ele>
        <time>2020-08-04T06:08:23.964Z</time>
      </trkpt>
      <trkpt lat="38.861655" lon="-1.196402">
        <ele>795.856956</ele>
        <time>2020-08-04T06:08:26.978Z</time>
      </trkpt>
      <trkpt lat="38.861716" lon="-1.196491">
        <ele>795.964547</ele>
        <time>2020-08-04T06:08:29.979Z</time>
      </trkpt>
      <trkpt lat="38.861729" lon="-1.196637">
        <ele>796.097894</ele>
        <time>2020-08-04T06:08:32.975Z</time>
      </trkpt>
      <trkpt lat="38.861721" lon="-1.196780">
        <ele>796.227990</ele>
        <time>2020-08-04T06:08:36.973Z</time>
      </trkpt>
      <trkpt lat="38.861659" lon="-1.196924">
        <ele>796.377305</ele>
        <time>2020-08-04T06:08:39.987Z</time>
      </trkpt>
      <trkpt lat="38.861582" lon="-1.197028">
        <ele>796.507529</ele>
        <time>2020-08-04T06:08:42.986Z</time>
      </trkpt>
      <trkpt lat="38.861493" lon="-1.197123">
        <ele>796.642394</ele>
        <time>2020-08-04T06:08:45.984Z</time>
      </trkpt>
      <trkpt lat="38.861447" lon="-1.197248">
        <ele>796.767852</ele>
        <time>2020-08-04T06:08:48.972Z</time>
      </trkpt>
      <trkpt lat="38.861345" lon="-1.197345">
        <ele>796.915761</ele>
        <time>2020-08-04T06:08:51.977Z</time>
      </trkpt>
      <trkpt lat="38.861234" lon="-1.197390">
        <ele>797.051408</ele>
        <time>2020-08-04T06:08:54.980Z</time>
      </trkpt>
      <trkpt lat="38.861138" lon="-1.197420">
        <ele>797.166548</ele>
        <time>2020-08-04T06:08:57.979Z</time>
      </trkpt>
      <trkpt lat="38.861043" lon="-1.197504">
        <ele>797.300960</ele>
        <time>2020-08-04T06:09:01.972Z</time>
      </trkpt>
      <trkpt lat="38.860954" lon="-1.197594">
        <ele>797.432972</ele>
        <time>2020-08-04T06:09:05.975Z</time>
      </trkpt>
      <trkpt lat="38.860881" lon="-1.197667">
        <ele>797.566248</ele>
        <time>2020-08-04T06:09:08.964Z</time>
      </trkpt>
      <trkpt lat="38.860799" lon="-1.197749">
        <ele>797.722992</ele>
        <time>2020-08-04T06:09:12.968Z</time>
      </trkpt>
      <trkpt lat="38.860735" lon="-1.197853">
        <ele>797.878666</ele>
        <time>2020-08-04T06:09:16.982Z</time>
      </trkpt>
      <trkpt lat="38.860660" lon="-1.197956">
        <ele>798.044276</ele>
        <time>2020-08-04T06:09:20.982Z</time>
      </trkpt>
      <trkpt lat="38.860576" lon="-1.198027">
        <ele>798.195942</ele>
        <time>2020-08-04T06:09:24.977Z</time>
      </trkpt>
      <trkpt lat="38.860489" lon="-1.198094">
        <ele>798.348940</ele>
        <time>2020-08-04T06:09:28.978Z</time>
      </trkpt>
      <trkpt lat="38.860409" lon="-1.198169">
        <ele>798.498325</ele>
        <time>2020-08-04T06:09:32.982Z</time>
      </trkpt>
      <trkpt lat="38.860341" lon="-1.198252">
        <ele>798.639815</ele>
        <time>2020-08-04T06:09:36.975Z</time>
      </trkpt>
      <trkpt lat="38.860270" lon="-1.198340">
        <ele>798.788634</ele>
        <time>2020-08-04T06:09:40.978Z</time>
      </trkpt>
      <trkpt lat="38.860213" lon="-1.198435">
        <ele>798.929481</ele>
        <time>2020-08-04T06:09:44.988Z</time>
      </trkpt>
      <trkpt lat="38.860146" lon="-1.198548">
        <ele>799.096281</ele>
        <time>2020-08-04T06:09:48.973Z</time>
      </trkpt>
      <trkpt lat="38.860058" lon="-1.198652">
        <ele>799.276649</ele>
        <time>2020-08-04T06:09:52.975Z</time>
      </trkpt>
      <trkpt lat="38.859996" lon="-1.198741">
        <ele>799.416894</ele>
        <time>2020-08-04T06:09:55.957Z</time>
      </trkpt>
      <trkpt lat="38.859930" lon="-1.198846">
        <ele>799.575369</ele>
        <time>2020-08-04T06:09:58.974Z</time>
      </trkpt>
      <trkpt lat="38.859864" lon="-1.198966">
        <ele>799.747907</ele>
        <time>2020-08-04T06:10:01.972Z</time>
      </trkpt>
      <trkpt lat="38.859809" lon="-1.199061">
        <ele>799.886934</ele>
        <time>2020-08-04T06:10:03.971Z</time>
      </trkpt>
      <trkpt lat="38.859743" lon="-1.199170">
        <ele>800.049092</ele>
        <time>2020-08-04T06:10:05.980Z</time>
      </trkpt>
      <trkpt lat="38.859672" lon="-1.199325">
        <ele>800.217937</ele>
        <time>2020-08-04T06:10:08.974Z</time>
      </trkpt>
      <trkpt lat="38.859571" lon="-1.199392">
        <ele>800.311578</ele>
        <time>2020-08-04T06:10:10.974Z</time>
      </trkpt>
      <trkpt lat="38.859518" lon="-1.199501">
        <ele>800.394004</ele>
        <time>2020-08-04T06:10:12.973Z</time>
      </trkpt>
      <trkpt lat="38.859452" lon="-1.199618">
        <ele>800.486674</ele>
        <time>2020-08-04T06:10:14.978Z</time>
      </trkpt>
      <trkpt lat="38.859403" lon="-1.199733">
        <ele>800.570759</ele>
        <time>2020-08-04T06:10:16.980Z</time>
      </trkpt>
      <trkpt lat="38.859345" lon="-1.199862">
        <ele>800.666306</ele>
        <time>2020-08-04T06:10:18.962Z</time>
      </trkpt>
      <trkpt lat="38.859283" lon="-1.199957">
        <ele>800.745813</ele>
        <time>2020-08-04T06:10:20.968Z</time>
      </trkpt>
      <trkpt lat="38.859193" lon="-1.200061">
        <ele>800.845543</ele>
        <time>2020-08-04T06:10:22.981Z</time>
      </trkpt>
      <trkpt lat="38.859133" lon="-1.200176">
        <ele>800.934334</ele>
        <time>2020-08-04T06:10:24.976Z</time>
      </trkpt>
      <trkpt lat="38.859062" lon="-1.200265">
        <ele>801.016062</ele>
        <time>2020-08-04T06:10:26.980Z</time>
      </trkpt>
      <trkpt lat="38.859003" lon="-1.200368">
        <ele>801.098080</ele>
        <time>2020-08-04T06:10:28.979Z</time>
      </trkpt>
      <trkpt lat="38.858923" lon="-1.200484">
        <ele>801.197472</ele>
        <time>2020-08-04T06:10:30.976Z</time>
      </trkpt>
      <trkpt lat="38.858871" lon="-1.200607">
        <ele>801.287246</ele>
        <time>2020-08-04T06:10:32.988Z</time>
      </trkpt>
      <trkpt lat="38.858814" lon="-1.200705">
        <ele>801.365705</ele>
        <time>2020-08-04T06:10:34.983Z</time>
      </trkpt>
      <trkpt lat="38.858774" lon="-1.200848">
        <ele>801.463169</ele>
        <time>2020-08-04T06:10:37.977Z</time>
      </trkpt>
      <trkpt lat="38.858737" lon="-1.200965">
        <ele>801.544169</ele>
        <time>2020-08-04T06:10:39.974Z</time>
      </trkpt>
      <trkpt lat="38.858702" lon="-1.201097">
        <ele>801.633612</ele>
        <time>2020-08-04T06:10:41.983Z</time>
      </trkpt>
      <trkpt lat="38.858661" lon="-1.201215">
        <ele>801.918093</ele>
        <time>2020-08-04T06:10:43.981Z</time>
      </trkpt>
      <trkpt lat="38.858631" lon="-1.201346">
        <ele>802.265618</ele>
        <time>2020-08-04T06:10:45.980Z</time>
      </trkpt>
      <trkpt lat="38.858600" lon="-1.201476">
        <ele>802.611645</ele>
        <time>2020-08-04T06:10:47.977Z</time>
      </trkpt>
      <trkpt lat="38.858571" lon="-1.201607">
        <ele>802.958263</ele>
        <time>2020-08-04T06:10:49.975Z</time>
      </trkpt>
      <trkpt lat="38.858539" lon="-1.201762">
        <ele>803.366380</ele>
        <time>2020-08-04T06:10:51.981Z</time>
      </trkpt>
      <trkpt lat="38.858512" lon="-1.201912">
        <ele>803.758210</ele>
        <time>2020-08-04T06:10:53.980Z</time>
      </trkpt>
      <trkpt lat="38.858462" lon="-1.202049">
        <ele>804.143284</ele>
        <time>2020-08-04T06:10:55.974Z</time>
      </trkpt>
      <trkpt lat="38.858434" lon="-1.202207">
        <ele>804.555690</ele>
        <time>2020-08-04T06:10:58.442Z</time>
      </trkpt>
      <trkpt lat="38.858380" lon="-1.202339">
        <ele>804.935182</ele>
        <time>2020-08-04T06:11:00.446Z</time>
      </trkpt>
      <trkpt lat="38.858327" lon="-1.202500">
        <ele>805.380053</ele>
        <time>2020-08-04T06:11:02.433Z</time>
      </trkpt>
      <trkpt lat="38.858256" lon="-1.202625">
        <ele>805.773831</ele>
        <time>2020-08-04T06:11:04.443Z</time>
      </trkpt>
      <trkpt lat="38.858177" lon="-1.202751">
        <ele>806.185542</ele>
        <time>2020-08-04T06:11:06.443Z</time>
      </trkpt>
      <trkpt lat="38.858090" lon="-1.202890">
        <ele>806.639423</ele>
        <time>2020-08-04T06:11:08.449Z</time>
      </trkpt>
      <trkpt lat="38.858010" lon="-1.203024">
        <ele>807.069165</ele>
        <time>2020-08-04T06:11:10.438Z</time>
      </trkpt>
      <trkpt lat="38.857940" lon="-1.203110">
        <ele>807.385791</ele>
        <time>2020-08-04T06:11:11.449Z</time>
      </trkpt>
      <trkpt lat="38.857861" lon="-1.203209">
        <ele>807.518115</ele>
        <time>2020-08-04T06:11:13.462Z</time>
      </trkpt>
      <trkpt lat="38.857819" lon="-1.203348">
        <ele>807.502332</ele>
        <time>2020-08-04T06:11:15.442Z</time>
      </trkpt>
      <trkpt lat="38.857746" lon="-1.203496">
        <ele>807.483786</ele>
        <time>2020-08-04T06:11:17.445Z</time>
      </trkpt>
      <trkpt lat="38.857731" lon="-1.203641">
        <ele>807.468302</ele>
        <time>2020-08-04T06:11:19.440Z</time>
      </trkpt>
      <trkpt lat="38.857722" lon="-1.203797">
        <ele>807.451743</ele>
        <time>2020-08-04T06:11:21.435Z</time>
      </trkpt>
      <trkpt lat="38.857691" lon="-1.203968">
        <ele>807.433157</ele>
        <time>2020-08-04T06:11:23.441Z</time>
      </trkpt>
      <trkpt lat="38.857691" lon="-1.204118">
        <ele>807.417278</ele>
        <time>2020-08-04T06:11:25.443Z</time>
      </trkpt>
      <trkpt lat="38.857718" lon="-1.204240">
        <ele>807.403852</ele>
        <time>2020-08-04T06:11:27.424Z</time>
      </trkpt>
      <trkpt lat="38.857721" lon="-1.204359">
        <ele>807.391248</ele>
        <time>2020-08-04T06:11:29.448Z</time>
      </trkpt>
      <trkpt lat="38.857724" lon="-1.204491">
        <ele>807.377269</ele>
        <time>2020-08-04T06:11:31.442Z</time>
      </trkpt>
      <trkpt lat="38.857737" lon="-1.204654">
        <ele>807.359924</ele>
        <time>2020-08-04T06:11:33.442Z</time>
      </trkpt>
      <trkpt lat="38.857721" lon="-1.204830">
        <ele>807.341166</ele>
        <time>2020-08-04T06:11:35.441Z</time>
      </trkpt>
      <trkpt lat="38.857729" lon="-1.204986">
        <ele>807.324617</ele>
        <time>2020-08-04T06:11:37.445Z</time>
      </trkpt>
      <trkpt lat="38.857727" lon="-1.205105">
        <ele>807.312017</ele>
        <time>2020-08-04T06:11:39.442Z</time>
      </trkpt>
      <trkpt lat="38.857724" lon="-1.205292">
        <ele>807.292217</ele>
        <time>2020-08-04T06:11:42.440Z</time>
      </trkpt>
      <trkpt lat="38.857710" lon="-1.205407">
        <ele>807.274881</ele>
        <time>2020-08-04T06:11:44.444Z</time>
      </trkpt>
      <trkpt lat="38.857631" lon="-1.205544">
        <ele>807.224882</ele>
        <time>2020-08-04T06:11:46.445Z</time>
      </trkpt>
      <trkpt lat="38.857580" lon="-1.205646">
        <ele>807.189330</ele>
        <time>2020-08-04T06:11:48.441Z</time>
      </trkpt>
      <trkpt lat="38.857471" lon="-1.205721">
        <ele>807.142754</ele>
        <time>2020-08-04T06:11:50.438Z</time>
      </trkpt>
      <trkpt lat="38.857377" lon="-1.205798">
        <ele>807.100760</ele>
        <time>2020-08-04T06:11:52.425Z</time>
      </trkpt>
      <trkpt lat="38.857300" lon="-1.205904">
        <ele>807.058244</ele>
        <time>2020-08-04T06:11:54.440Z</time>
      </trkpt>
      <trkpt lat="38.857231" lon="-1.206026">
        <ele>807.014020</ele>
        <time>2020-08-04T06:11:56.443Z</time>
      </trkpt>
      <trkpt lat="38.857204" lon="-1.206177">
        <ele>806.968580</ele>
        <time>2020-08-04T06:11:58.442Z</time>
      </trkpt>
      <trkpt lat="38.857202" lon="-1.206345">
        <ele>806.919300</ele>
        <time>2020-08-04T06:12:00.437Z</time>
      </trkpt>
      <trkpt lat="38.857214" lon="-1.206476">
        <ele>806.880614</ele>
        <time>2020-08-04T06:12:02.423Z</time>
      </trkpt>
      <trkpt lat="38.857211" lon="-1.206599">
        <ele>806.844520</ele>
        <time>2020-08-04T06:12:04.441Z</time>
      </trkpt>
      <trkpt lat="38.857248" lon="-1.206735">
        <ele>806.802268</ele>
        <time>2020-08-04T06:12:06.446Z</time>
      </trkpt>
      <trkpt lat="38.857222" lon="-1.206873">
        <ele>806.760625</ele>
        <time>2020-08-04T06:12:08.437Z</time>
      </trkpt>
      <trkpt lat="38.857132" lon="-1.207003">
        <ele>806.709607</ele>
        <time>2020-08-04T06:12:11.440Z</time>
      </trkpt>
      <trkpt lat="38.857037" lon="-1.207081">
        <ele>806.667138</ele>
        <time>2020-08-04T06:12:13.446Z</time>
      </trkpt>
      <trkpt lat="38.856934" lon="-1.207180">
        <ele>806.618681</ele>
        <time>2020-08-04T06:12:16.441Z</time>
      </trkpt>
      <trkpt lat="38.856854" lon="-1.207256">
        <ele>806.802007</ele>
        <time>2020-08-04T06:12:19.446Z</time>
      </trkpt>
      <trkpt lat="38.856762" lon="-1.207295">
        <ele>807.100098</ele>
        <time>2020-08-04T06:12:22.434Z</time>
      </trkpt>
      <trkpt lat="38.856680" lon="-1.207380">
        <ele>807.424336</ele>
        <time>2020-08-04T06:12:26.440Z</time>
      </trkpt>
      <trkpt lat="38.856605" lon="-1.207456">
        <ele>807.718289</ele>
        <time>2020-08-04T06:12:30.449Z</time>
      </trkpt>
      <trkpt lat="38.856530" lon="-1.207543">
        <ele>808.029258</ele>
        <time>2020-08-04T06:12:35.448Z</time>
      </trkpt>
      <trkpt lat="38.856445" lon="-1.207613">
        <ele>808.339945</ele>
        <time>2020-08-04T06:12:40.440Z</time>
      </trkpt>
      <trkpt lat="38.856379" lon="-1.207717">
        <ele>808.661393</ele>
        <time>2020-08-04T06:12:44.440Z</time>
      </trkpt>
      <trkpt lat="38.856302" lon="-1.207799">
        <ele>808.969173</ele>
        <time>2020-08-04T06:12:49.446Z</time>
      </trkpt>
      <trkpt lat="38.856245" lon="-1.207901">
        <ele>809.269979</ele>
        <time>2020-08-04T06:12:55.431Z</time>
      </trkpt>
      <trkpt lat="38.856167" lon="-1.207991">
        <ele>809.592617</ele>
        <time>2020-08-04T06:13:02.446Z</time>
      </trkpt>
      <trkpt lat="38.856102" lon="-1.208073">
        <ele>809.872970</ele>
        <time>2020-08-04T06:13:06.449Z</time>
      </trkpt>
      <trkpt lat="38.856039" lon="-1.208175">
        <ele>810.184900</ele>
        <time>2020-08-04T06:13:11.440Z</time>
      </trkpt>
      <trkpt lat="38.855977" lon="-1.208270">
        <ele>810.481886</ele>
        <time>2020-08-04T06:13:16.448Z</time>
      </trkpt>
      <trkpt lat="38.855937" lon="-1.208381">
        <ele>810.774937</ele>
        <time>2020-08-04T06:13:20.447Z</time>
      </trkpt>
      <trkpt lat="38.855908" lon="-1.208524">
        <ele>811.128991</ele>
        <time>2020-08-04T06:13:24.454Z</time>
      </trkpt>
      <trkpt lat="38.855894" lon="-1.208643">
        <ele>811.417349</ele>
        <time>2020-08-04T06:13:27.446Z</time>
      </trkpt>
      <trkpt lat="38.855886" lon="-1.208775">
        <ele>811.734577</ele>
        <time>2020-08-04T06:13:30.437Z</time>
      </trkpt>
      <trkpt lat="38.855878" lon="-1.208908">
        <ele>812.054193</ele>
        <time>2020-08-04T06:13:33.439Z</time>
      </trkpt>
      <trkpt lat="38.855877" lon="-1.209032">
        <ele>812.344637</ele>
        <time>2020-08-04T06:13:36.445Z</time>
      </trkpt>
      <trkpt lat="38.855866" lon="-1.209151">
        <ele>812.622720</ele>
        <time>2020-08-04T06:13:39.456Z</time>
      </trkpt>
      <trkpt lat="38.855835" lon="-1.209260">
        <ele>812.892000</ele>
        <time>2020-08-04T06:13:42.445Z</time>
      </trkpt>
      <trkpt lat="38.855784" lon="-1.209360">
        <ele>813.169391</ele>
        <time>2020-08-04T06:13:45.439Z</time>
      </trkpt>
      <trkpt lat="38.855716" lon="-1.209436">
        <ele>813.438025</ele>
        <time>2020-08-04T06:13:48.448Z</time>
      </trkpt>
      <trkpt lat="38.855624" lon="-1.209532">
        <ele>813.791277</ele>
        <time>2020-08-04T06:13:52.440Z</time>
      </trkpt>
      <trkpt lat="38.855531" lon="-1.209626">
        <ele>814.143958</ele>
        <time>2020-08-04T06:13:56.441Z</time>
      </trkpt>
      <trkpt lat="38.855444" lon="-1.209728">
        <ele>814.495009</ele>
        <time>2020-08-04T06:14:00.444Z</time>
      </trkpt>
      <trkpt lat="38.855369" lon="-1.209794">
        <ele>814.765945</ele>
        <time>2020-08-04T06:14:03.446Z</time>
      </trkpt>
      <trkpt lat="38.855278" lon="-1.209885">
        <ele>815.109642</ele>
        <time>2020-08-04T06:14:07.463Z</time>
      </trkpt>
      <trkpt lat="38.855192" lon="-1.209976">
        <ele>815.441710</ele>
        <time>2020-08-04T06:14:11.440Z</time>
      </trkpt>
      <trkpt lat="38.855128" lon="-1.210065">
        <ele>815.722827</ele>
        <time>2020-08-04T06:14:15.439Z</time>
      </trkpt>
      <trkpt lat="38.855041" lon="-1.210165">
        <ele>816.070767</ele>
        <time>2020-08-04T06:14:20.433Z</time>
      </trkpt>
      <trkpt lat="38.854964" lon="-1.210251">
        <ele>816.374867</ele>
        <time>2020-08-04T06:14:24.447Z</time>
      </trkpt>
      <trkpt lat="38.854890" lon="-1.210346">
        <ele>816.686678</ele>
        <time>2020-08-04T06:14:28.442Z</time>
      </trkpt>
      <trkpt lat="38.854812" lon="-1.210428">
        <ele>816.987069</ele>
        <time>2020-08-04T06:14:32.447Z</time>
      </trkpt>
      <trkpt lat="38.854740" lon="-1.210531">
        <ele>817.308260</ele>
        <time>2020-08-04T06:14:37.447Z</time>
      </trkpt>
      <trkpt lat="38.854667" lon="-1.210609">
        <ele>817.493313</ele>
        <time>2020-08-04T06:14:41.440Z</time>
      </trkpt>
      <trkpt lat="38.854591" lon="-1.210683">
        <ele>817.475238</ele>
        <time>2020-08-04T06:14:46.445Z</time>
      </trkpt>
      <trkpt lat="38.854506" lon="-1.210767">
        <ele>817.454911</ele>
        <time>2020-08-04T06:14:52.443Z</time>
      </trkpt>
      <trkpt lat="38.854442" lon="-1.210869">
        <ele>817.435580</ele>
        <time>2020-08-04T06:14:57.444Z</time>
      </trkpt>
      <trkpt lat="38.854360" lon="-1.210969">
        <ele>817.414148</ele>
        <time>2020-08-04T06:15:02.446Z</time>
      </trkpt>
      <trkpt lat="38.854271" lon="-1.211049">
        <ele>817.393560</ele>
        <time>2020-08-04T06:15:06.458Z</time>
      </trkpt>
      <trkpt lat="38.854185" lon="-1.211132">
        <ele>817.373172</ele>
        <time>2020-08-04T06:15:10.453Z</time>
      </trkpt>
      <trkpt lat="38.854112" lon="-1.211218">
        <ele>817.354398</ele>
        <time>2020-08-04T06:15:15.425Z</time>
      </trkpt>
      <trkpt lat="38.854139" lon="-1.211337">
        <ele>817.336105</ele>
        <time>2020-08-04T06:15:23.442Z</time>
      </trkpt>
      <trkpt lat="38.854208" lon="-1.211432">
        <ele>817.316933</ele>
        <time>2020-08-04T06:15:26.427Z</time>
      </trkpt>
      <trkpt lat="38.854292" lon="-1.211515">
        <ele>817.296847</ele>
        <time>2020-08-04T06:15:28.445Z</time>
      </trkpt>
      <trkpt lat="38.854358" lon="-1.211605">
        <ele>817.278602</ele>
        <time>2020-08-04T06:15:30.449Z</time>
      </trkpt>
      <trkpt lat="38.854434" lon="-1.211709">
        <ele>817.257554</ele>
        <time>2020-08-04T06:15:32.446Z</time>
      </trkpt>
      <trkpt lat="38.854515" lon="-1.211821">
        <ele>817.234996</ele>
        <time>2020-08-04T06:15:34.436Z</time>
      </trkpt>
      <trkpt lat="38.854601" lon="-1.211935">
        <ele>817.211572</ele>
        <time>2020-08-04T06:15:36.437Z</time>
      </trkpt>
      <trkpt lat="38.854693" lon="-1.212065">
        <ele>817.185648</ele>
        <time>2020-08-04T06:15:38.438Z</time>
      </trkpt>
      <trkpt lat="38.854791" lon="-1.212197">
        <ele>817.158733</ele>
        <time>2020-08-04T06:15:40.440Z</time>
      </trkpt>
      <trkpt lat="38.854887" lon="-1.212337">
        <ele>816.703069</ele>
        <time>2020-08-04T06:15:42.431Z</time>
      </trkpt>
      <trkpt lat="38.854976" lon="-1.212469">
        <ele>816.270215</ele>
        <time>2020-08-04T06:15:44.441Z</time>
      </trkpt>
      <trkpt lat="38.855084" lon="-1.212613">
        <ele>815.774582</ele>
        <time>2020-08-04T06:15:46.439Z</time>
      </trkpt>
      <trkpt lat="38.855181" lon="-1.212758">
        <ele>815.300690</ele>
        <time>2020-08-04T06:15:48.445Z</time>
      </trkpt>
      <trkpt lat="38.855296" lon="-1.212894">
        <ele>814.802991</ele>
        <time>2020-08-04T06:15:50.437Z</time>
      </trkpt>
      <trkpt lat="38.855405" lon="-1.213047">
        <ele>814.288912</ele>
        <time>2020-08-04T06:15:52.457Z</time>
      </trkpt>
      <trkpt lat="38.855523" lon="-1.213216">
        <ele>813.726199</ele>
        <time>2020-08-04T06:15:54.437Z</time>
      </trkpt>
      <trkpt lat="38.855647" lon="-1.213392">
        <ele>813.137809</ele>
        <time>2020-08-04T06:15:56.443Z</time>
      </trkpt>
      <trkpt lat="38.855714" lon="-1.213486">
        <ele>812.821900</ele>
        <time>2020-08-04T06:15:57.441Z</time>
      </trkpt>
      <trkpt lat="38.855784" lon="-1.213567">
        <ele>812.521930</ele>
        <time>2020-08-04T06:15:58.449Z</time>
      </trkpt>
      <trkpt lat="38.855855" lon="-1.213655">
        <ele>812.207794</ele>
        <time>2020-08-04T06:15:59.429Z</time>
      </trkpt>
      <trkpt lat="38.855926" lon="-1.213745">
        <ele>811.890194</ele>
        <time>2020-08-04T06:16:00.453Z</time>
      </trkpt>
      <trkpt lat="38.855995" lon="-1.213839">
        <ele>811.569953</ele>
        <time>2020-08-04T06:16:01.452Z</time>
      </trkpt>
      <trkpt lat="38.856061" lon="-1.213943">
        <ele>811.453353</ele>
        <time>2020-08-04T06:16:02.445Z</time>
      </trkpt>
      <trkpt lat="38.856121" lon="-1.214050">
        <ele>811.488575</ele>
        <time>2020-08-04T06:16:03.450Z</time>
      </trkpt>
      <trkpt lat="38.856188" lon="-1.214137">
        <ele>811.521260</ele>
        <time>2020-08-04T06:16:04.443Z</time>
      </trkpt>
      <trkpt lat="38.856248" lon="-1.214235">
        <ele>811.554560</ele>
        <time>2020-08-04T06:16:05.445Z</time>
      </trkpt>
      <trkpt lat="38.856377" lon="-1.214396">
        <ele>811.616267</ele>
        <time>2020-08-04T06:16:07.450Z</time>
      </trkpt>
      <trkpt lat="38.856437" lon="-1.214492">
        <ele>811.649149</ele>
        <time>2020-08-04T06:16:08.443Z</time>
      </trkpt>
      <trkpt lat="38.856504" lon="-1.214581">
        <ele>811.682216</ele>
        <time>2020-08-04T06:16:09.445Z</time>
      </trkpt>
      <trkpt lat="38.856578" lon="-1.214654">
        <ele>811.714225</ele>
        <time>2020-08-04T06:16:10.437Z</time>
      </trkpt>
      <trkpt lat="38.856646" lon="-1.214742">
        <ele>811.747341</ele>
        <time>2020-08-04T06:16:11.445Z</time>
      </trkpt>
      <trkpt lat="38.856768" lon="-1.214899">
        <ele>811.806588</ele>
        <time>2020-08-04T06:16:13.446Z</time>
      </trkpt>
      <trkpt lat="38.856880" lon="-1.215055">
        <ele>811.863267</ele>
        <time>2020-08-04T06:16:15.433Z</time>
      </trkpt>
      <trkpt lat="38.856985" lon="-1.215208">
        <ele>811.917743</ele>
        <time>2020-08-04T06:16:17.449Z</time>
      </trkpt>
      <trkpt lat="38.857096" lon="-1.215363">
        <ele>811.973993</ele>
        <time>2020-08-04T06:16:19.444Z</time>
      </trkpt>
      <trkpt lat="38.857189" lon="-1.215518">
        <ele>812.026262</ele>
        <time>2020-08-04T06:16:21.440Z</time>
      </trkpt>
      <trkpt lat="38.857286" lon="-1.215652">
        <ele>812.063203</ele>
        <time>2020-08-04T06:16:23.446Z</time>
      </trkpt>
      <trkpt lat="38.857381" lon="-1.215781">
        <ele>812.088704</ele>
        <time>2020-08-04T06:16:25.448Z</time>
      </trkpt>
      <trkpt lat="38.857467" lon="-1.215925">
        <ele>812.114767</ele>
        <time>2020-08-04T06:16:27.443Z</time>
      </trkpt>
      <trkpt lat="38.857551" lon="-1.216059">
        <ele>812.139474</ele>
        <time>2020-08-04T06:16:29.444Z</time>
      </trkpt>
      <trkpt lat="38.857631" lon="-1.216180">
        <ele>812.162271</ele>
        <time>2020-08-04T06:16:31.445Z</time>
      </trkpt>
      <trkpt lat="38.857725" lon="-1.216287">
        <ele>812.185439</ele>
        <time>2020-08-04T06:16:33.442Z</time>
      </trkpt>
      <trkpt lat="38.857817" lon="-1.216400">
        <ele>812.208919</ele>
        <time>2020-08-04T06:16:35.433Z</time>
      </trkpt>
      <trkpt lat="38.857904" lon="-1.216518">
        <ele>812.232257</ele>
        <time>2020-08-04T06:16:37.438Z</time>
      </trkpt>
      <trkpt lat="38.857989" lon="-1.216646">
        <ele>812.256418</ele>
        <time>2020-08-04T06:16:39.439Z</time>
      </trkpt>
      <trkpt lat="38.858074" lon="-1.216775">
        <ele>812.280687</ele>
        <time>2020-08-04T06:16:41.441Z</time>
      </trkpt>
      <trkpt lat="38.858162" lon="-1.216879">
        <ele>812.302745</ele>
        <time>2020-08-04T06:16:43.445Z</time>
      </trkpt>
      <trkpt lat="38.858246" lon="-1.217009">
        <ele>812.327006</ele>
        <time>2020-08-04T06:16:45.432Z</time>
      </trkpt>
      <trkpt lat="38.858328" lon="-1.217124">
        <ele>812.349401</ele>
        <time>2020-08-04T06:16:47.433Z</time>
      </trkpt>
      <trkpt lat="38.858412" lon="-1.217222">
        <ele>812.370332</ele>
        <time>2020-08-04T06:16:49.436Z</time>
      </trkpt>
      <trkpt lat="38.858503" lon="-1.217336">
        <ele>812.406755</ele>
        <time>2020-08-04T06:16:51.444Z</time>
      </trkpt>
      <trkpt lat="38.858599" lon="-1.217456">
        <ele>812.456682</ele>
        <time>2020-08-04T06:16:53.444Z</time>
      </trkpt>
      <trkpt lat="38.858684" lon="-1.217580">
        <ele>812.504623</ele>
        <time>2020-08-04T06:16:55.423Z</time>
      </trkpt>
      <trkpt lat="38.858763" lon="-1.217698">
        <ele>812.549782</ele>
        <time>2020-08-04T06:16:57.448Z</time>
      </trkpt>
      <trkpt lat="38.858843" lon="-1.217820">
        <ele>812.596068</ele>
        <time>2020-08-04T06:16:59.449Z</time>
      </trkpt>
      <trkpt lat="38.858918" lon="-1.217939">
        <ele>812.640495</ele>
        <time>2020-08-04T06:17:01.442Z</time>
      </trkpt>
      <trkpt lat="38.858991" lon="-1.218042">
        <ele>812.680912</ele>
        <time>2020-08-04T06:17:03.451Z</time>
      </trkpt>
      <trkpt lat="38.859072" lon="-1.218151">
        <ele>812.724636</ele>
        <time>2020-08-04T06:17:05.441Z</time>
      </trkpt>
      <trkpt lat="38.859145" lon="-1.218269">
        <ele>812.768371</ele>
        <time>2020-08-04T06:17:07.440Z</time>
      </trkpt>
      <trkpt lat="38.859231" lon="-1.218378">
        <ele>812.813402</ele>
        <time>2020-08-04T06:17:09.439Z</time>
      </trkpt>
      <trkpt lat="38.859316" lon="-1.218463">
        <ele>812.853550</ele>
        <time>2020-08-04T06:17:11.438Z</time>
      </trkpt>
      <trkpt lat="38.859394" lon="-1.218575">
        <ele>812.897154</ele>
        <time>2020-08-04T06:17:13.447Z</time>
      </trkpt>
      <trkpt lat="38.859470" lon="-1.218690">
        <ele>812.940926</ele>
        <time>2020-08-04T06:17:15.446Z</time>
      </trkpt>
      <trkpt lat="38.859548" lon="-1.218755">
        <ele>812.975578</ele>
        <time>2020-08-04T06:17:17.438Z</time>
      </trkpt>
      <trkpt lat="38.859607" lon="-1.218869">
        <ele>813.015301</ele>
        <time>2020-08-04T06:17:19.443Z</time>
      </trkpt>
      <trkpt lat="38.859694" lon="-1.218993">
        <ele>813.103388</ele>
        <time>2020-08-04T06:17:22.439Z</time>
      </trkpt>
      <trkpt lat="38.859779" lon="-1.219115">
        <ele>813.303234</ele>
        <time>2020-08-04T06:17:25.443Z</time>
      </trkpt>
      <trkpt lat="38.859855" lon="-1.219228">
        <ele>813.485511</ele>
        <time>2020-08-04T06:17:28.447Z</time>
      </trkpt>
      <trkpt lat="38.859951" lon="-1.219341">
        <ele>813.689667</ele>
        <time>2020-08-04T06:17:31.447Z</time>
      </trkpt>
      <trkpt lat="38.860037" lon="-1.219449">
        <ele>813.878239</ele>
        <time>2020-08-04T06:17:34.444Z</time>
      </trkpt>
      <trkpt lat="38.860109" lon="-1.219560">
        <ele>814.054598</ele>
        <time>2020-08-04T06:17:37.442Z</time>
      </trkpt>
      <trkpt lat="38.860177" lon="-1.219655">
        <ele>814.212122</ele>
        <time>2020-08-04T06:17:40.449Z</time>
      </trkpt>
      <trkpt lat="38.860238" lon="-1.219770">
        <ele>814.381986</ele>
        <time>2020-08-04T06:17:43.437Z</time>
      </trkpt>
      <trkpt lat="38.860296" lon="-1.219883">
        <ele>814.547203</ele>
        <time>2020-08-04T06:17:46.450Z</time>
      </trkpt>
      <trkpt lat="38.860371" lon="-1.219989">
        <ele>814.722043</ele>
        <time>2020-08-04T06:17:49.445Z</time>
      </trkpt>
      <trkpt lat="38.860453" lon="-1.220116">
        <ele>814.923443</ele>
        <time>2020-08-04T06:17:52.446Z</time>
      </trkpt>
      <trkpt lat="38.860538" lon="-1.220241">
        <ele>815.126031</ele>
        <time>2020-08-04T06:17:55.446Z</time>
      </trkpt>
      <trkpt lat="38.860631" lon="-1.220360">
        <ele>815.331846</ele>
        <time>2020-08-04T06:17:58.451Z</time>
      </trkpt>
      <trkpt lat="38.860722" lon="-1.220484">
        <ele>815.539852</ele>
        <time>2020-08-04T06:18:01.448Z</time>
      </trkpt>
      <trkpt lat="38.860798" lon="-1.220621">
        <ele>815.745195</ele>
        <time>2020-08-04T06:18:04.442Z</time>
      </trkpt>
      <trkpt lat="38.860894" lon="-1.220728">
        <ele>815.835837</ele>
        <time>2020-08-04T06:18:07.441Z</time>
      </trkpt>
      <trkpt lat="38.860984" lon="-1.220841">
        <ele>815.740831</ele>
        <time>2020-08-04T06:18:10.453Z</time>
      </trkpt>
      <trkpt lat="38.861078" lon="-1.220943">
        <ele>815.647941</ele>
        <time>2020-08-04T06:18:13.441Z</time>
      </trkpt>
      <trkpt lat="38.861181" lon="-1.221040">
        <ele>815.551531</ele>
        <time>2020-08-04T06:18:16.446Z</time>
      </trkpt>
      <trkpt lat="38.861287" lon="-1.221130">
        <ele>815.455615</ele>
        <time>2020-08-04T06:18:19.450Z</time>
      </trkpt>
      <trkpt lat="38.861361" lon="-1.221205">
        <ele>815.384459</ele>
        <time>2020-08-04T06:18:21.446Z</time>
      </trkpt>
      <trkpt lat="38.861446" lon="-1.221273">
        <ele>815.308869</ele>
        <time>2020-08-04T06:18:23.446Z</time>
      </trkpt>
      <trkpt lat="38.861562" lon="-1.221337">
        <ele>815.213572</ele>
        <time>2020-08-04T06:18:26.444Z</time>
      </trkpt>
      <trkpt lat="38.861638" lon="-1.221415">
        <ele>815.140137</ele>
        <time>2020-08-04T06:18:28.450Z</time>
      </trkpt>
      <trkpt lat="38.861724" lon="-1.221468">
        <ele>815.068135</ele>
        <time>2020-08-04T06:18:30.441Z</time>
      </trkpt>
      <trkpt lat="38.861808" lon="-1.221538">
        <ele>814.992552</ele>
        <time>2020-08-04T06:18:32.445Z</time>
      </trkpt>
      <trkpt lat="38.861902" lon="-1.221617">
        <ele>814.907756</ele>
        <time>2020-08-04T06:18:34.446Z</time>
      </trkpt>
      <trkpt lat="38.862006" lon="-1.221663">
        <ele>814.824729</ele>
        <time>2020-08-04T06:18:36.441Z</time>
      </trkpt>
      <trkpt lat="38.862122" lon="-1.221677">
        <ele>814.736785</ele>
        <time>2020-08-04T06:18:38.446Z</time>
      </trkpt>
      <trkpt lat="38.862218" lon="-1.221773">
        <ele>814.644945</ele>
        <time>2020-08-04T06:18:40.437Z</time>
      </trkpt>
      <trkpt lat="38.862293" lon="-1.221858">
        <ele>814.569442</ele>
        <time>2020-08-04T06:18:42.441Z</time>
      </trkpt>
      <trkpt lat="38.862392" lon="-1.221934">
        <ele>814.525055</ele>
        <time>2020-08-04T06:18:44.441Z</time>
      </trkpt>
      <trkpt lat="38.862486" lon="-1.222029">
        <ele>814.558618</ele>
        <time>2020-08-04T06:18:46.443Z</time>
      </trkpt>
      <trkpt lat="38.862583" lon="-1.222130">
        <ele>814.593656</ele>
        <time>2020-08-04T06:18:48.455Z</time>
      </trkpt>
      <trkpt lat="38.862679" lon="-1.222227">
        <ele>814.627930</ele>
        <time>2020-08-04T06:18:50.442Z</time>
      </trkpt>
      <trkpt lat="38.862783" lon="-1.222319">
        <ele>814.663363</ele>
        <time>2020-08-04T06:18:52.441Z</time>
      </trkpt>
      <trkpt lat="38.862878" lon="-1.222434">
        <ele>814.699994</ele>
        <time>2020-08-04T06:18:54.445Z</time>
      </trkpt>
      <trkpt lat="38.862972" lon="-1.222562">
        <ele>814.738435</ele>
        <time>2020-08-04T06:18:56.432Z</time>
      </trkpt>
      <trkpt lat="38.863047" lon="-1.222706">
        <ele>814.776285</ele>
        <time>2020-08-04T06:18:58.444Z</time>
      </trkpt>
      <trkpt lat="38.863130" lon="-1.222806">
        <ele>814.808217</ele>
        <time>2020-08-04T06:19:00.456Z</time>
      </trkpt>
      <trkpt lat="38.863204" lon="-1.222938">
        <ele>814.843753</ele>
        <time>2020-08-04T06:19:02.456Z</time>
      </trkpt>
      <trkpt lat="38.863272" lon="-1.223058">
        <ele>814.876179</ele>
        <time>2020-08-04T06:19:04.443Z</time>
      </trkpt>
      <trkpt lat="38.863369" lon="-1.223178">
        <ele>814.913969</ele>
        <time>2020-08-04T06:19:06.444Z</time>
      </trkpt>
      <trkpt lat="38.863444" lon="-1.223304">
        <ele>814.948619</ele>
        <time>2020-08-04T06:19:08.440Z</time>
      </trkpt>
      <trkpt lat="38.863534" lon="-1.223430">
        <ele>814.985975</ele>
        <time>2020-08-04T06:19:10.442Z</time>
      </trkpt>
      <trkpt lat="38.863619" lon="-1.223546">
        <ele>815.021252</ele>
        <time>2020-08-04T06:19:12.451Z</time>
      </trkpt>
      <trkpt lat="38.863690" lon="-1.223663">
        <ele>815.059566</ele>
        <time>2020-08-04T06:19:14.440Z</time>
      </trkpt>
      <trkpt lat="38.863765" lon="-1.223776">
        <ele>815.097918</ele>
        <time>2020-08-04T06:19:16.449Z</time>
      </trkpt>
      <trkpt lat="38.863835" lon="-1.223897">
        <ele>815.136853</ele>
        <time>2020-08-04T06:19:18.444Z</time>
      </trkpt>
      <trkpt lat="38.863905" lon="-1.224003">
        <ele>815.172753</ele>
        <time>2020-08-04T06:19:20.447Z</time>
      </trkpt>
      <trkpt lat="38.863983" lon="-1.224097">
        <ele>815.208235</ele>
        <time>2020-08-04T06:19:22.451Z</time>
      </trkpt>
      <trkpt lat="38.864059" lon="-1.224202">
        <ele>815.245263</ele>
        <time>2020-08-04T06:19:24.439Z</time>
      </trkpt>
      <trkpt lat="38.864133" lon="-1.224290">
        <ele>815.278718</ele>
        <time>2020-08-04T06:19:26.440Z</time>
      </trkpt>
      <trkpt lat="38.864211" lon="-1.224389">
        <ele>815.315095</ele>
        <time>2020-08-04T06:19:28.440Z</time>
      </trkpt>
      <trkpt lat="38.864283" lon="-1.224483">
        <ele>815.349153</ele>
        <time>2020-08-04T06:19:30.451Z</time>
      </trkpt>
      <trkpt lat="38.864363" lon="-1.224575">
        <ele>815.384775</ele>
        <time>2020-08-04T06:19:32.440Z</time>
      </trkpt>
      <trkpt lat="38.864435" lon="-1.224659">
        <ele>815.417042</ele>
        <time>2020-08-04T06:19:34.448Z</time>
      </trkpt>
      <trkpt lat="38.864507" lon="-1.224752">
        <ele>815.450916</ele>
        <time>2020-08-04T06:19:36.442Z</time>
      </trkpt>
      <trkpt lat="38.864577" lon="-1.224846">
        <ele>815.484512</ele>
        <time>2020-08-04T06:19:38.445Z</time>
      </trkpt>
      <trkpt lat="38.864651" lon="-1.224943">
        <ele>815.519587</ele>
        <time>2020-08-04T06:19:40.437Z</time>
      </trkpt>
      <trkpt lat="38.864739" lon="-1.225033">
        <ele>815.556903</ele>
        <time>2020-08-04T06:19:42.444Z</time>
      </trkpt>
      <trkpt lat="38.864812" lon="-1.225122">
        <ele>815.590292</ele>
        <time>2020-08-04T06:19:44.457Z</time>
      </trkpt>
      <trkpt lat="38.864891" lon="-1.225203">
        <ele>815.583236</ele>
        <time>2020-08-04T06:19:46.448Z</time>
      </trkpt>
      <trkpt lat="38.864969" lon="-1.225301">
        <ele>815.456388</ele>
        <time>2020-08-04T06:19:48.438Z</time>
      </trkpt>
      <trkpt lat="38.865054" lon="-1.225402">
        <ele>815.321773</ele>
        <time>2020-08-04T06:19:50.448Z</time>
      </trkpt>
      <trkpt lat="38.865119" lon="-1.225504">
        <ele>815.202469</ele>
        <time>2020-08-04T06:19:52.451Z</time>
      </trkpt>
      <trkpt lat="38.865196" lon="-1.225609">
        <ele>815.071913</ele>
        <time>2020-08-04T06:19:54.442Z</time>
      </trkpt>
      <trkpt lat="38.865259" lon="-1.225728">
        <ele>814.941661</ele>
        <time>2020-08-04T06:19:56.430Z</time>
      </trkpt>
      <trkpt lat="38.865331" lon="-1.225810">
        <ele>814.829793</ele>
        <time>2020-08-04T06:19:58.444Z</time>
      </trkpt>
      <trkpt lat="38.865420" lon="-1.225886">
        <ele>814.705550</ele>
        <time>2020-08-04T06:20:00.446Z</time>
      </trkpt>
      <trkpt lat="38.865495" lon="-1.225976">
        <ele>814.586228</ele>
        <time>2020-08-04T06:20:02.447Z</time>
      </trkpt>
      <trkpt lat="38.865574" lon="-1.226082">
        <ele>814.453415</ele>
        <time>2020-08-04T06:20:04.453Z</time>
      </trkpt>
      <trkpt lat="38.865642" lon="-1.226200">
        <ele>814.320538</ele>
        <time>2020-08-04T06:20:06.444Z</time>
      </trkpt>
      <trkpt lat="38.865717" lon="-1.226279">
        <ele>814.207779</ele>
        <time>2020-08-04T06:20:08.436Z</time>
      </trkpt>
      <trkpt lat="38.865811" lon="-1.226353">
        <ele>814.079611</ele>
        <time>2020-08-04T06:20:10.444Z</time>
      </trkpt>
      <trkpt lat="38.865912" lon="-1.226431">
        <ele>813.942607</ele>
        <time>2020-08-04T06:20:12.436Z</time>
      </trkpt>
      <trkpt lat="38.866010" lon="-1.226494">
        <ele>813.815209</ele>
        <time>2020-08-04T06:20:14.448Z</time>
      </trkpt>
      <trkpt lat="38.866120" lon="-1.226540">
        <ele>813.680728</ele>
        <time>2020-08-04T06:20:16.442Z</time>
      </trkpt>
      <trkpt lat="38.866219" lon="-1.226594">
        <ele>813.555692</ele>
        <time>2020-08-04T06:20:18.443Z</time>
      </trkpt>
      <trkpt lat="38.866307" lon="-1.226633">
        <ele>813.558775</ele>
        <time>2020-08-04T06:20:20.441Z</time>
      </trkpt>
      <trkpt lat="38.866403" lon="-1.226696">
        <ele>813.615937</ele>
        <time>2020-08-04T06:20:22.448Z</time>
      </trkpt>
      <trkpt lat="38.866489" lon="-1.226744">
        <ele>813.665656</ele>
        <time>2020-08-04T06:20:24.443Z</time>
      </trkpt>
      <trkpt lat="38.866590" lon="-1.226789">
        <ele>813.722340</ele>
        <time>2020-08-04T06:20:26.440Z</time>
      </trkpt>
      <trkpt lat="38.866682" lon="-1.226861">
        <ele>813.779463</ele>
        <time>2020-08-04T06:20:28.444Z</time>
      </trkpt>
      <trkpt lat="38.866781" lon="-1.226901">
        <ele>813.834492</ele>
        <time>2020-08-04T06:20:30.451Z</time>
      </trkpt>
      <trkpt lat="38.866867" lon="-1.226977">
        <ele>813.889843</ele>
        <time>2020-08-04T06:20:32.450Z</time>
      </trkpt>
      <trkpt lat="38.866978" lon="-1.227044">
        <ele>813.954873</ele>
        <time>2020-08-04T06:20:35.449Z</time>
      </trkpt>
      <trkpt lat="38.867074" lon="-1.227111">
        <ele>814.012805</ele>
        <time>2020-08-04T06:20:38.453Z</time>
      </trkpt>
      <trkpt lat="38.867173" lon="-1.227193">
        <ele>814.075266</ele>
        <time>2020-08-04T06:20:41.450Z</time>
      </trkpt>
      <trkpt lat="38.867290" lon="-1.227266">
        <ele>814.144236</ele>
        <time>2020-08-04T06:20:44.442Z</time>
      </trkpt>
      <trkpt lat="38.867402" lon="-1.227361">
        <ele>814.215403</ele>
        <time>2020-08-04T06:20:47.441Z</time>
      </trkpt>
      <trkpt lat="38.867486" lon="-1.227433">
        <ele>814.268949</ele>
        <time>2020-08-04T06:20:49.452Z</time>
      </trkpt>
      <trkpt lat="38.867565" lon="-1.227506">
        <ele>814.320552</ele>
        <time>2020-08-04T06:20:51.445Z</time>
      </trkpt>
      <trkpt lat="38.867653" lon="-1.227564">
        <ele>814.372997</ele>
        <time>2020-08-04T06:20:53.448Z</time>
      </trkpt>
      <trkpt lat="38.867747" lon="-1.227627">
        <ele>814.429216</ele>
        <time>2020-08-04T06:20:55.450Z</time>
      </trkpt>
      <trkpt lat="38.867828" lon="-1.227706">
        <ele>814.494492</ele>
        <time>2020-08-04T06:20:57.449Z</time>
      </trkpt>
      <trkpt lat="38.867910" lon="-1.227787">
        <ele>814.661585</ele>
        <time>2020-08-04T06:20:59.459Z</time>
      </trkpt>
      <trkpt lat="38.867989" lon="-1.227878">
        <ele>814.832992</ele>
        <time>2020-08-04T06:21:01.445Z</time>
      </trkpt>
      <trkpt lat="38.868077" lon="-1.227938">
        <ele>814.993920</ele>
        <time>2020-08-04T06:21:03.451Z</time>
      </trkpt>
      <trkpt lat="38.868196" lon="-1.228028">
        <ele>815.216984</ele>
        <time>2020-08-04T06:21:06.440Z</time>
      </trkpt>
      <trkpt lat="38.868285" lon="-1.228084">
        <ele>815.377066</ele>
        <time>2020-08-04T06:21:08.444Z</time>
      </trkpt>
      <trkpt lat="38.868370" lon="-1.228150">
        <ele>815.537501</ele>
        <time>2020-08-04T06:21:10.445Z</time>
      </trkpt>
      <trkpt lat="38.868501" lon="-1.228208">
        <ele>815.761318</ele>
        <time>2020-08-04T06:21:13.438Z</time>
      </trkpt>
      <trkpt lat="38.868592" lon="-1.228257">
        <ele>815.920701</ele>
        <time>2020-08-04T06:21:15.444Z</time>
      </trkpt>
      <trkpt lat="38.868679" lon="-1.228298">
        <ele>816.070388</ele>
        <time>2020-08-04T06:21:17.445Z</time>
      </trkpt>
      <trkpt lat="38.868767" lon="-1.228345">
        <ele>816.224330</ele>
        <time>2020-08-04T06:21:19.446Z</time>
      </trkpt>
      <trkpt lat="38.868900" lon="-1.228394">
        <ele>816.447822</ele>
        <time>2020-08-04T06:21:22.437Z</time>
      </trkpt>
      <trkpt lat="38.868990" lon="-1.228425">
        <ele>816.598331</ele>
        <time>2020-08-04T06:21:24.441Z</time>
      </trkpt>
      <trkpt lat="38.869087" lon="-1.228458">
        <ele>816.760413</ele>
        <time>2020-08-04T06:21:26.448Z</time>
      </trkpt>
      <trkpt lat="38.869187" lon="-1.228491">
        <ele>816.927184</ele>
        <time>2020-08-04T06:21:28.438Z</time>
      </trkpt>
      <trkpt lat="38.869276" lon="-1.228527">
        <ele>817.077902</ele>
        <time>2020-08-04T06:21:30.446Z</time>
      </trkpt>
      <trkpt lat="38.869397" lon="-1.228575">
        <ele>817.282457</ele>
        <time>2020-08-04T06:21:33.452Z</time>
      </trkpt>
      <trkpt lat="38.869513" lon="-1.228618">
        <ele>817.443940</ele>
        <time>2020-08-04T06:21:36.445Z</time>
      </trkpt>
      <trkpt lat="38.869618" lon="-1.228662">
        <ele>817.559114</ele>
        <time>2020-08-04T06:21:39.442Z</time>
      </trkpt>
      <trkpt lat="38.869733" lon="-1.228687">
        <ele>817.680742</ele>
        <time>2020-08-04T06:21:43.447Z</time>
      </trkpt>
      <trkpt lat="38.869826" lon="-1.228700">
        <ele>817.778296</ele>
        <time>2020-08-04T06:21:47.443Z</time>
      </trkpt>
      <trkpt lat="38.869922" lon="-1.228740">
        <ele>817.883541</ele>
        <time>2020-08-04T06:21:51.445Z</time>
      </trkpt>
      <trkpt lat="38.870012" lon="-1.228757">
        <ele>817.978402</ele>
        <time>2020-08-04T06:21:55.453Z</time>
      </trkpt>
      <trkpt lat="38.870104" lon="-1.228826">
        <ele>818.089499</ele>
        <time>2020-08-04T06:22:00.450Z</time>
      </trkpt>
      <trkpt lat="38.870189" lon="-1.228868">
        <ele>818.184470</ele>
        <time>2020-08-04T06:22:04.438Z</time>
      </trkpt>
      <trkpt lat="38.870274" lon="-1.228912">
        <ele>818.280036</ele>
        <time>2020-08-04T06:22:08.443Z</time>
      </trkpt>
      <trkpt lat="38.870378" lon="-1.228962">
        <ele>818.395836</ele>
        <time>2020-08-04T06:22:13.445Z</time>
      </trkpt>
      <trkpt lat="38.870487" lon="-1.229000">
        <ele>818.513614</ele>
        <time>2020-08-04T06:22:18.445Z</time>
      </trkpt>
      <trkpt lat="38.870588" lon="-1.229041">
        <ele>818.624072</ele>
        <time>2020-08-04T06:22:23.441Z</time>
      </trkpt>
      <trkpt lat="38.870683" lon="-1.229087">
        <ele>818.729944</ele>
        <time>2020-08-04T06:22:28.456Z</time>
      </trkpt>
      <trkpt lat="38.870785" lon="-1.229131">
        <ele>818.842149</ele>
        <time>2020-08-04T06:22:33.443Z</time>
      </trkpt>
      <trkpt lat="38.870878" lon="-1.229167">
        <ele>818.943438</ele>
        <time>2020-08-04T06:22:46.437Z</time>
      </trkpt>
      <trkpt lat="38.870976" lon="-1.229153">
        <ele>819.046263</ele>
        <time>2020-08-04T06:22:51.436Z</time>
      </trkpt>
      <trkpt lat="38.871078" lon="-1.229138">
        <ele>819.153324</ele>
        <time>2020-08-04T06:22:55.450Z</time>
      </trkpt>
      <trkpt lat="38.871172" lon="-1.229131">
        <ele>819.251512</ele>
        <time>2020-08-04T06:22:59.445Z</time>
      </trkpt>
      <trkpt lat="38.871278" lon="-1.229102">
        <ele>819.212734</ele>
        <time>2020-08-04T06:23:03.444Z</time>
      </trkpt>
      <trkpt lat="38.871389" lon="-1.229086">
        <ele>819.162484</ele>
        <time>2020-08-04T06:23:06.441Z</time>
      </trkpt>
      <trkpt lat="38.871519" lon="-1.229066">
        <ele>819.103581</ele>
        <time>2020-08-04T06:23:09.440Z</time>
      </trkpt>
      <trkpt lat="38.871618" lon="-1.229024">
        <ele>819.056676</ele>
        <time>2020-08-04T06:23:11.443Z</time>
      </trkpt>
      <trkpt lat="38.871727" lon="-1.228998">
        <ele>819.006800</ele>
        <time>2020-08-04T06:23:13.448Z</time>
      </trkpt>
      <trkpt lat="38.871839" lon="-1.228981">
        <ele>818.956063</ele>
        <time>2020-08-04T06:23:15.453Z</time>
      </trkpt>
      <trkpt lat="38.871946" lon="-1.228968">
        <ele>818.907711</ele>
        <time>2020-08-04T06:23:17.448Z</time>
      </trkpt>
      <trkpt lat="38.872055" lon="-1.228944">
        <ele>818.857958</ele>
        <time>2020-08-04T06:23:19.446Z</time>
      </trkpt>
      <trkpt lat="38.872153" lon="-1.228921">
        <ele>818.813140</ele>
        <time>2020-08-04T06:23:21.446Z</time>
      </trkpt>
      <trkpt lat="38.872253" lon="-1.228914">
        <ele>818.768085</ele>
        <time>2020-08-04T06:23:23.448Z</time>
      </trkpt>
      <trkpt lat="38.872368" lon="-1.228906">
        <ele>818.716272</ele>
        <time>2020-08-04T06:23:25.445Z</time>
      </trkpt>
      <trkpt lat="38.872476" lon="-1.228920">
        <ele>818.667438</ele>
        <time>2020-08-04T06:23:27.444Z</time>
      </trkpt>
      <trkpt lat="38.872575" lon="-1.228938">
        <ele>818.622456</ele>
        <time>2020-08-04T06:23:29.443Z</time>
      </trkpt>
      <trkpt lat="38.872671" lon="-1.228960">
        <ele>818.578585</ele>
        <time>2020-08-04T06:23:31.452Z</time>
      </trkpt>
      <trkpt lat="38.872766" lon="-1.229004">
        <ele>818.533153</ele>
        <time>2020-08-04T06:23:33.453Z</time>
      </trkpt>
      <trkpt lat="38.872860" lon="-1.229062">
        <ele>818.486237</ele>
        <time>2020-08-04T06:23:35.435Z</time>
      </trkpt>
      <trkpt lat="38.872962" lon="-1.229120">
        <ele>818.469863</ele>
        <time>2020-08-04T06:23:37.436Z</time>
      </trkpt>
      <trkpt lat="38.873052" lon="-1.229192">
        <ele>818.543862</ele>
        <time>2020-08-04T06:23:39.443Z</time>
      </trkpt>
      <trkpt lat="38.873150" lon="-1.229235">
        <ele>818.616137</ele>
        <time>2020-08-04T06:23:41.448Z</time>
      </trkpt>
      <trkpt lat="38.873287" lon="-1.229287">
        <ele>818.715838</ele>
        <time>2020-08-04T06:23:44.441Z</time>
      </trkpt>
      <trkpt lat="38.873385" lon="-1.229340">
        <ele>818.790049</ele>
        <time>2020-08-04T06:23:46.442Z</time>
      </trkpt>
      <trkpt lat="38.873487" lon="-1.229407">
        <ele>818.870004</ele>
        <time>2020-08-04T06:23:48.441Z</time>
      </trkpt>
      <trkpt lat="38.873583" lon="-1.229477">
        <ele>818.947047</ele>
        <time>2020-08-04T06:23:50.444Z</time>
      </trkpt>
      <trkpt lat="38.873667" lon="-1.229561">
        <ele>819.021343</ele>
        <time>2020-08-04T06:23:52.445Z</time>
      </trkpt>
      <trkpt lat="38.873756" lon="-1.229653">
        <ele>819.101073</ele>
        <time>2020-08-04T06:23:54.451Z</time>
      </trkpt>
      <trkpt lat="38.873832" lon="-1.229737">
        <ele>819.171048</ele>
        <time>2020-08-04T06:23:56.449Z</time>
      </trkpt>
      <trkpt lat="38.873927" lon="-1.229832">
        <ele>819.255073</ele>
        <time>2020-08-04T06:23:58.443Z</time>
      </trkpt>
      <trkpt lat="38.874008" lon="-1.229928">
        <ele>819.331992</ele>
        <time>2020-08-04T06:24:00.457Z</time>
      </trkpt>
      <trkpt lat="38.874096" lon="-1.230029">
        <ele>819.414354</ele>
        <time>2020-08-04T06:24:02.450Z</time>
      </trkpt>
      <trkpt lat="38.874183" lon="-1.230118">
        <ele>819.491976</ele>
        <time>2020-08-04T06:24:04.448Z</time>
      </trkpt>
      <trkpt lat="38.874266" lon="-1.230202">
        <ele>819.565722</ele>
        <time>2020-08-04T06:24:06.442Z</time>
      </trkpt>
      <trkpt lat="38.874345" lon="-1.230300">
        <ele>819.642372</ele>
        <time>2020-08-04T06:24:08.438Z</time>
      </trkpt>
      <trkpt lat="38.874432" lon="-1.230365">
        <ele>819.691968</ele>
        <time>2020-08-04T06:24:10.440Z</time>
      </trkpt>
      <trkpt lat="38.874511" lon="-1.230430">
        <ele>819.588822</ele>
        <time>2020-08-04T06:24:12.437Z</time>
      </trkpt>
      <trkpt lat="38.874615" lon="-1.230522">
        <ele>819.449988</ele>
        <time>2020-08-04T06:24:15.442Z</time>
      </trkpt>
      <trkpt lat="38.874685" lon="-1.230597">
        <ele>819.349768</ele>
        <time>2020-08-04T06:24:17.453Z</time>
      </trkpt>
      <trkpt lat="38.874750" lon="-1.230691">
        <ele>819.242156</ele>
        <time>2020-08-04T06:24:19.449Z</time>
      </trkpt>
      <trkpt lat="38.874854" lon="-1.230801">
        <ele>819.094039</ele>
        <time>2020-08-04T06:24:22.446Z</time>
      </trkpt>
      <trkpt lat="38.874939" lon="-1.230916">
        <ele>818.958311</ele>
        <time>2020-08-04T06:24:25.449Z</time>
      </trkpt>
      <trkpt lat="38.875057" lon="-1.231011">
        <ele>818.805201</ele>
        <time>2020-08-04T06:24:28.452Z</time>
      </trkpt>
      <trkpt lat="38.875130" lon="-1.231100">
        <ele>818.694546</ele>
        <time>2020-08-04T06:24:30.455Z</time>
      </trkpt>
      <trkpt lat="38.875200" lon="-1.231181">
        <ele>818.590963</ele>
        <time>2020-08-04T06:24:32.447Z</time>
      </trkpt>
      <trkpt lat="38.875281" lon="-1.231257">
        <ele>818.480680</ele>
        <time>2020-08-04T06:24:34.441Z</time>
      </trkpt>
      <trkpt lat="38.875350" lon="-1.231343">
        <ele>818.374977</ele>
        <time>2020-08-04T06:24:36.441Z</time>
      </trkpt>
      <trkpt lat="38.875425" lon="-1.231410">
        <ele>818.274538</ele>
        <time>2020-08-04T06:24:38.440Z</time>
      </trkpt>
      <trkpt lat="38.875499" lon="-1.231495">
        <ele>818.165395</ele>
        <time>2020-08-04T06:24:40.448Z</time>
      </trkpt>
      <trkpt lat="38.875574" lon="-1.231577">
        <ele>818.057111</ele>
        <time>2020-08-04T06:24:42.448Z</time>
      </trkpt>
      <trkpt lat="38.875669" lon="-1.231639">
        <ele>817.939957</ele>
        <time>2020-08-04T06:24:44.459Z</time>
      </trkpt>
      <trkpt lat="38.875753" lon="-1.231693">
        <ele>817.836684</ele>
        <time>2020-08-04T06:24:46.438Z</time>
      </trkpt>
      <trkpt lat="38.875843" lon="-1.231727">
        <ele>817.733544</ele>
        <time>2020-08-04T06:24:48.456Z</time>
      </trkpt>
      <trkpt lat="38.875964" lon="-1.231775">
        <ele>817.670821</ele>
        <time>2020-08-04T06:24:51.451Z</time>
      </trkpt>
      <trkpt lat="38.876054" lon="-1.231813">
        <ele>817.626673</ele>
        <time>2020-08-04T06:24:53.439Z</time>
      </trkpt>
      <trkpt lat="38.876141" lon="-1.231851">
        <ele>817.583851</ele>
        <time>2020-08-04T06:24:55.449Z</time>
      </trkpt>
      <trkpt lat="38.876247" lon="-1.231873">
        <ele>817.533814</ele>
        <time>2020-08-04T06:24:58.447Z</time>
      </trkpt>
      <trkpt lat="38.876343" lon="-1.231905">
        <ele>817.487596</ele>
        <time>2020-08-04T06:25:01.444Z</time>
      </trkpt>
      <trkpt lat="38.876441" lon="-1.231952">
        <ele>817.438849</ele>
        <time>2020-08-04T06:25:04.442Z</time>
      </trkpt>
      <trkpt lat="38.876546" lon="-1.231995">
        <ele>817.387492</ele>
        <time>2020-08-04T06:25:07.453Z</time>
      </trkpt>
      <trkpt lat="38.876647" lon="-1.232063">
        <ele>817.334353</ele>
        <time>2020-08-04T06:25:10.441Z</time>
      </trkpt>
      <trkpt lat="38.876724" lon="-1.232154">
        <ele>817.285594</ele>
        <time>2020-08-04T06:25:13.446Z</time>
      </trkpt>
      <trkpt lat="38.876784" lon="-1.232262">
        <ele>817.237460</ele>
        <time>2020-08-04T06:25:16.442Z</time>
      </trkpt>
      <trkpt lat="38.876832" lon="-1.232379">
        <ele>817.189482</ele>
        <time>2020-08-04T06:25:19.439Z</time>
      </trkpt>
      <trkpt lat="38.876889" lon="-1.232490">
        <ele>817.141241</ele>
        <time>2020-08-04T06:25:22.438Z</time>
      </trkpt>
      <trkpt lat="38.876930" lon="-1.232635">
        <ele>817.085276</ele>
        <time>2020-08-04T06:25:25.440Z</time>
      </trkpt>
      <trkpt lat="38.876959" lon="-1.232795">
        <ele>817.025679</ele>
        <time>2020-08-04T06:25:28.442Z</time>
      </trkpt>
      <trkpt lat="38.877011" lon="-1.232952">
        <ele>816.963781</ele>
        <time>2020-08-04T06:25:31.448Z</time>
      </trkpt>
      <trkpt lat="38.877062" lon="-1.233053">
        <ele>816.920108</ele>
        <time>2020-08-04T06:25:33.444Z</time>
      </trkpt>
      <trkpt lat="38.877077" lon="-1.233174">
        <ele>816.952071</ele>
        <time>2020-08-04T06:25:35.449Z</time>
      </trkpt>
      <trkpt lat="38.877121" lon="-1.233309">
        <ele>817.204579</ele>
        <time>2020-08-04T06:25:38.452Z</time>
      </trkpt>
      <trkpt lat="38.877194" lon="-1.233434">
        <ele>817.474183</ele>
        <time>2020-08-04T06:25:41.448Z</time>
      </trkpt>
      <trkpt lat="38.877245" lon="-1.233558">
        <ele>817.716145</ele>
        <time>2020-08-04T06:25:44.441Z</time>
      </trkpt>
      <trkpt lat="38.877294" lon="-1.233687">
        <ele>817.963792</ele>
        <time>2020-08-04T06:25:47.459Z</time>
      </trkpt>
      <trkpt lat="38.877337" lon="-1.233803">
        <ele>818.185460</ele>
        <time>2020-08-04T06:25:50.449Z</time>
      </trkpt>
      <trkpt lat="38.877370" lon="-1.233933">
        <ele>818.421374</ele>
        <time>2020-08-04T06:25:53.447Z</time>
      </trkpt>
      <trkpt lat="38.877405" lon="-1.234074">
        <ele>818.676711</ele>
        <time>2020-08-04T06:25:56.444Z</time>
      </trkpt>
      <trkpt lat="38.877453" lon="-1.234211">
        <ele>818.935915</ele>
        <time>2020-08-04T06:25:59.463Z</time>
      </trkpt>
      <trkpt lat="38.877501" lon="-1.234331">
        <ele>819.168684</ele>
        <time>2020-08-04T06:26:02.437Z</time>
      </trkpt>
      <trkpt lat="38.877548" lon="-1.234455">
        <ele>819.406634</ele>
        <time>2020-08-04T06:26:05.439Z</time>
      </trkpt>
      <trkpt lat="38.877586" lon="-1.234581">
        <ele>819.639766</ele>
        <time>2020-08-04T06:26:08.445Z</time>
      </trkpt>
      <trkpt lat="38.877619" lon="-1.234715">
        <ele>819.882250</ele>
        <time>2020-08-04T06:26:11.459Z</time>
      </trkpt>
      <trkpt lat="38.877667" lon="-1.234835">
        <ele>820.115019</ele>
        <time>2020-08-04T06:26:14.446Z</time>
      </trkpt>
      <trkpt lat="38.877708" lon="-1.234969">
        <ele>820.363426</ele>
        <time>2020-08-04T06:26:17.444Z</time>
      </trkpt>
      <trkpt lat="38.877744" lon="-1.235108">
        <ele>820.616168</ele>
        <time>2020-08-04T06:26:20.447Z</time>
      </trkpt>
      <trkpt lat="38.877788" lon="-1.235234">
        <ele>820.854426</ele>
        <time>2020-08-04T06:26:23.446Z</time>
      </trkpt>
      <trkpt lat="38.877830" lon="-1.235353">
        <ele>820.933550</ele>
        <time>2020-08-04T06:26:26.446Z</time>
      </trkpt>
      <trkpt lat="38.877859" lon="-1.235489">
        <ele>821.002956</ele>
        <time>2020-08-04T06:26:29.441Z</time>
      </trkpt>
      <trkpt lat="38.877888" lon="-1.235616">
        <ele>821.068100</ele>
        <time>2020-08-04T06:26:32.445Z</time>
      </trkpt>
      <trkpt lat="38.877918" lon="-1.235749">
        <ele>821.136256</ele>
        <time>2020-08-04T06:26:35.453Z</time>
      </trkpt>
      <trkpt lat="38.877943" lon="-1.235890">
        <ele>821.207435</ele>
        <time>2020-08-04T06:26:38.445Z</time>
      </trkpt>
      <trkpt lat="38.877982" lon="-1.236013">
        <ele>821.272805</ele>
        <time>2020-08-04T06:26:41.446Z</time>
      </trkpt>
      <trkpt lat="38.878026" lon="-1.236132">
        <ele>821.337649</ele>
        <time>2020-08-04T06:26:44.445Z</time>
      </trkpt>
      <trkpt lat="38.878060" lon="-1.236262">
        <ele>821.405150</ele>
        <time>2020-08-04T06:26:47.445Z</time>
      </trkpt>
      <trkpt lat="38.878081" lon="-1.236413">
        <ele>821.480650</ele>
        <time>2020-08-04T06:26:50.435Z</time>
      </trkpt>
      <trkpt lat="38.878107" lon="-1.236556">
        <ele>821.552929</ele>
        <time>2020-08-04T06:26:53.443Z</time>
      </trkpt>
      <trkpt lat="38.878144" lon="-1.236687">
        <ele>821.621521</ele>
        <time>2020-08-04T06:26:56.446Z</time>
      </trkpt>
      <trkpt lat="38.878191" lon="-1.236818">
        <ele>821.692518</ele>
        <time>2020-08-04T06:26:59.441Z</time>
      </trkpt>
      <trkpt lat="38.878215" lon="-1.236974">
        <ele>821.770787</ele>
        <time>2020-08-04T06:27:02.439Z</time>
      </trkpt>
      <trkpt lat="38.878260" lon="-1.237112">
        <ele>821.844429</ele>
        <time>2020-08-04T06:27:05.443Z</time>
      </trkpt>
      <trkpt lat="38.878289" lon="-1.237262">
        <ele>821.920503</ele>
        <time>2020-08-04T06:27:08.450Z</time>
      </trkpt>
      <trkpt lat="38.878321" lon="-1.237415">
        <ele>821.998480</ele>
        <time>2020-08-04T06:27:11.446Z</time>
      </trkpt>
      <trkpt lat="38.878361" lon="-1.237559">
        <ele>821.997117</ele>
        <time>2020-08-04T06:27:14.439Z</time>
      </trkpt>
      <trkpt lat="38.878395" lon="-1.237710">
        <ele>821.977892</ele>
        <time>2020-08-04T06:27:17.443Z</time>
      </trkpt>
      <trkpt lat="38.878431" lon="-1.237854">
        <ele>821.959394</ele>
        <time>2020-08-04T06:27:20.447Z</time>
      </trkpt>
      <trkpt lat="38.878443" lon="-1.237968">
        <ele>821.945324</ele>
        <time>2020-08-04T06:27:22.446Z</time>
      </trkpt>
      <trkpt lat="38.878456" lon="-1.238090">
        <ele>821.930263</ele>
        <time>2020-08-04T06:27:24.440Z</time>
      </trkpt>
      <trkpt lat="38.878479" lon="-1.238253">
        <ele>821.910002</ele>
        <time>2020-08-04T06:27:27.440Z</time>
      </trkpt>
      <trkpt lat="38.878501" lon="-1.238365">
        <ele>821.895875</ele>
        <time>2020-08-04T06:27:29.461Z</time>
      </trkpt>
      <trkpt lat="38.878523" lon="-1.238485">
        <ele>821.880796</ele>
        <time>2020-08-04T06:27:31.443Z</time>
      </trkpt>
      <trkpt lat="38.878567" lon="-1.238590">
        <ele>821.866212</ele>
        <time>2020-08-04T06:27:33.449Z</time>
      </trkpt>
      <trkpt lat="38.878573" lon="-1.238721">
        <ele>821.850162</ele>
        <time>2020-08-04T06:27:35.437Z</time>
      </trkpt>
      <trkpt lat="38.878580" lon="-1.238872">
        <ele>821.831661</ele>
        <time>2020-08-04T06:27:37.441Z</time>
      </trkpt>
      <trkpt lat="38.878621" lon="-1.238985">
        <ele>821.816413</ele>
        <time>2020-08-04T06:27:39.442Z</time>
      </trkpt>
      <trkpt lat="38.878643" lon="-1.239148">
        <ele>821.796179</ele>
        <time>2020-08-04T06:27:41.446Z</time>
      </trkpt>
      <trkpt lat="38.878666" lon="-1.239293">
        <ele>821.778081</ele>
        <time>2020-08-04T06:27:43.448Z</time>
      </trkpt>
      <trkpt lat="38.878697" lon="-1.239402">
        <ele>821.763887</ele>
        <time>2020-08-04T06:27:45.443Z</time>
      </trkpt>
      <trkpt lat="38.878705" lon="-1.239535">
        <ele>821.747572</ele>
        <time>2020-08-04T06:27:47.446Z</time>
      </trkpt>
      <trkpt lat="38.878760" lon="-1.239639">
        <ele>821.732195</ele>
        <time>2020-08-04T06:27:49.440Z</time>
      </trkpt>
      <trkpt lat="38.878746" lon="-1.239840">
        <ele>821.772200</ele>
        <time>2020-08-04T06:27:51.441Z</time>
      </trkpt>
      <trkpt lat="38.878787" lon="-1.239961">
        <ele>821.802944</ele>
        <time>2020-08-04T06:27:53.441Z</time>
      </trkpt>
      <trkpt lat="38.878793" lon="-1.240092">
        <ele>821.833517</ele>
        <time>2020-08-04T06:27:55.450Z</time>
      </trkpt>
      <trkpt lat="38.878828" lon="-1.240208">
        <ele>821.862500</ele>
        <time>2020-08-04T06:27:57.449Z</time>
      </trkpt>
      <trkpt lat="38.878875" lon="-1.240320">
        <ele>821.892143</ele>
        <time>2020-08-04T06:27:59.447Z</time>
      </trkpt>
      <trkpt lat="38.878903" lon="-1.240439">
        <ele>821.921106</ele>
        <time>2020-08-04T06:28:01.443Z</time>
      </trkpt>
      <trkpt lat="38.878939" lon="-1.240595">
        <ele>821.959013</ele>
        <time>2020-08-04T06:28:04.446Z</time>
      </trkpt>
      <trkpt lat="38.878944" lon="-1.240724">
        <ele>821.989103</ele>
        <time>2020-08-04T06:28:06.444Z</time>
      </trkpt>
      <trkpt lat="38.878971" lon="-1.240844">
        <ele>822.018205</ele>
        <time>2020-08-04T06:28:08.446Z</time>
      </trkpt>
      <trkpt lat="38.878991" lon="-1.240987">
        <ele>822.052053</ele>
        <time>2020-08-04T06:28:10.445Z</time>
      </trkpt>
      <trkpt lat="38.879002" lon="-1.241135">
        <ele>822.086690</ele>
        <time>2020-08-04T06:28:12.443Z</time>
      </trkpt>
      <trkpt lat="38.879017" lon="-1.241279">
        <ele>822.120537</ele>
        <time>2020-08-04T06:28:14.440Z</time>
      </trkpt>
      <trkpt lat="38.879010" lon="-1.241450">
        <ele>822.160430</ele>
        <time>2020-08-04T06:28:16.439Z</time>
      </trkpt>
      <trkpt lat="38.879039" lon="-1.241603">
        <ele>822.197117</ele>
        <time>2020-08-04T06:28:18.444Z</time>
      </trkpt>
      <trkpt lat="38.879081" lon="-1.241743">
        <ele>822.232071</ele>
        <time>2020-08-04T06:28:20.440Z</time>
      </trkpt>
      <trkpt lat="38.879114" lon="-1.241892">
        <ele>822.268171</ele>
        <time>2020-08-04T06:28:22.443Z</time>
      </trkpt>
      <trkpt lat="38.879127" lon="-1.242042">
        <ele>822.306651</ele>
        <time>2020-08-04T06:28:24.453Z</time>
      </trkpt>
      <trkpt lat="38.879150" lon="-1.242215">
        <ele>822.351398</ele>
        <time>2020-08-04T06:28:26.437Z</time>
      </trkpt>
      <trkpt lat="38.879206" lon="-1.242317">
        <ele>822.383221</ele>
        <time>2020-08-04T06:28:28.438Z</time>
      </trkpt>
      <trkpt lat="38.879249" lon="-1.242421">
        <ele>822.413244</ele>
        <time>2020-08-04T06:28:30.444Z</time>
      </trkpt>
      <trkpt lat="38.879241" lon="-1.242564">
        <ele>822.449797</ele>
        <time>2020-08-04T06:28:32.431Z</time>
      </trkpt>
      <trkpt lat="38.879241" lon="-1.242721">
        <ele>822.489826</ele>
        <time>2020-08-04T06:28:35.451Z</time>
      </trkpt>
      <trkpt lat="38.879283" lon="-1.242845">
        <ele>822.524304</ele>
        <time>2020-08-04T06:28:38.446Z</time>
      </trkpt>
      <trkpt lat="38.879333" lon="-1.242945">
        <ele>822.554606</ele>
        <time>2020-08-04T06:28:40.451Z</time>
      </trkpt>
      <trkpt lat="38.879349" lon="-1.243089">
        <ele>822.591692</ele>
        <time>2020-08-04T06:28:43.454Z</time>
      </trkpt>
      <trkpt lat="38.879394" lon="-1.243230">
        <ele>822.630545</ele>
        <time>2020-08-04T06:28:46.444Z</time>
      </trkpt>
      <trkpt lat="38.879442" lon="-1.243370">
        <ele>822.669548</ele>
        <time>2020-08-04T06:28:49.434Z</time>
      </trkpt>
      <trkpt lat="38.879475" lon="-1.243501">
        <ele>822.704652</ele>
        <time>2020-08-04T06:28:53.446Z</time>
      </trkpt>
      <trkpt lat="38.879471" lon="-1.243647">
        <ele>822.741899</ele>
        <time>2020-08-04T06:28:57.441Z</time>
      </trkpt>
      <trkpt lat="38.879423" lon="-1.243798">
        <ele>822.783484</ele>
        <time>2020-08-04T06:29:00.446Z</time>
      </trkpt>
      <trkpt lat="38.879365" lon="-1.243956">
        <ele>822.828022</ele>
        <time>2020-08-04T06:29:02.445Z</time>
      </trkpt>
      <trkpt lat="38.879348" lon="-1.244101">
        <ele>822.890814</ele>
        <time>2020-08-04T06:29:05.451Z</time>
      </trkpt>
      <trkpt lat="38.879352" lon="-1.244260">
        <ele>823.056001</ele>
        <time>2020-08-04T06:29:08.449Z</time>
      </trkpt>
      <trkpt lat="38.879366" lon="-1.244419">
        <ele>823.222154</ele>
        <time>2020-08-04T06:29:11.448Z</time>
      </trkpt>
      <trkpt lat="38.879397" lon="-1.244565">
        <ele>823.379293</ele>
        <time>2020-08-04T06:29:14.445Z</time>
      </trkpt>
      <trkpt lat="38.879422" lon="-1.244714">
        <ele>823.537563</ele>
        <time>2020-08-04T06:29:17.443Z</time>
      </trkpt>
      <trkpt lat="38.879435" lon="-1.244868">
        <ele>823.698409</ele>
        <time>2020-08-04T06:29:20.448Z</time>
      </trkpt>
      <trkpt lat="38.879471" lon="-1.245012">
        <ele>823.855455</ele>
        <time>2020-08-04T06:29:23.448Z</time>
      </trkpt>
      <trkpt lat="38.879521" lon="-1.245164">
        <ele>824.026799</ele>
        <time>2020-08-04T06:29:26.443Z</time>
      </trkpt>
      <trkpt lat="38.879550" lon="-1.245334">
        <ele>824.207509</ele>
        <time>2020-08-04T06:29:29.447Z</time>
      </trkpt>
      <trkpt lat="38.879536" lon="-1.245463">
        <ele>824.342754</ele>
        <time>2020-08-04T06:29:31.453Z</time>
      </trkpt>
      <trkpt lat="38.879560" lon="-1.245620">
        <ele>824.508891</ele>
        <time>2020-08-04T06:29:34.433Z</time>
      </trkpt>
      <trkpt lat="38.879611" lon="-1.245725">
        <ele>824.637401</ele>
        <time>2020-08-04T06:29:37.443Z</time>
      </trkpt>
      <trkpt lat="38.879640" lon="-1.245853">
        <ele>824.775826</ele>
        <time>2020-08-04T06:29:40.438Z</time>
      </trkpt>
      <trkpt lat="38.879649" lon="-1.245968">
        <ele>824.895839</ele>
        <time>2020-08-04T06:29:43.454Z</time>
      </trkpt>
      <trkpt lat="38.879678" lon="-1.246110">
        <ele>825.048277</ele>
        <time>2020-08-04T06:29:47.433Z</time>
      </trkpt>
      <trkpt lat="38.879689" lon="-1.246260">
        <ele>825.204721</ele>
        <time>2020-08-04T06:29:51.437Z</time>
      </trkpt>
      <trkpt lat="38.879696" lon="-1.246383">
        <ele>825.428056</ele>
        <time>2020-08-04T06:29:54.433Z</time>
      </trkpt>
      <trkpt lat="38.879710" lon="-1.246499">
        <ele>825.701739</ele>
        <time>2020-08-04T06:29:57.455Z</time>
      </trkpt>
      <trkpt lat="38.879711" lon="-1.246637">
        <ele>826.023498</ele>
        <time>2020-08-04T06:30:01.441Z</time>
      </trkpt>
      <trkpt lat="38.879737" lon="-1.246753">
        <ele>826.304937</ele>
        <time>2020-08-04T06:30:04.436Z</time>
      </trkpt>
      <trkpt lat="38.879794" lon="-1.246876">
        <ele>826.638675</ele>
        <time>2020-08-04T06:30:07.440Z</time>
      </trkpt>
      <trkpt lat="38.879852" lon="-1.247019">
        <ele>827.014615</ele>
        <time>2020-08-04T06:30:10.449Z</time>
      </trkpt>
      <trkpt lat="38.879906" lon="-1.247165">
        <ele>827.391478</ele>
        <time>2020-08-04T06:30:13.451Z</time>
      </trkpt>
      <trkpt lat="38.879937" lon="-1.247322">
        <ele>827.769111</ele>
        <time>2020-08-04T06:30:16.437Z</time>
      </trkpt>
      <trkpt lat="38.879954" lon="-1.247463">
        <ele>828.101768</ele>
        <time>2020-08-04T06:30:19.439Z</time>
      </trkpt>
      <trkpt lat="38.879964" lon="-1.247595">
        <ele>828.410977</ele>
        <time>2020-08-04T06:30:21.436Z</time>
      </trkpt>
      <trkpt lat="38.880020" lon="-1.247738">
        <ele>828.784187</ele>
        <time>2020-08-04T06:30:24.443Z</time>
      </trkpt>
      <trkpt lat="38.880054" lon="-1.247870">
        <ele>829.108350</ele>
        <time>2020-08-04T06:30:27.434Z</time>
      </trkpt>
      <trkpt lat="38.880078" lon="-1.247984">
        <ele>829.383686</ele>
        <time>2020-08-04T06:30:30.446Z</time>
      </trkpt>
      <trkpt lat="38.880096" lon="-1.248099">
        <ele>829.657171</ele>
        <time>2020-08-04T06:30:33.440Z</time>
      </trkpt>
      <trkpt lat="38.880098" lon="-1.248240">
        <ele>829.985963</ele>
        <time>2020-08-04T06:30:37.443Z</time>
      </trkpt>
      <trkpt lat="38.880112" lon="-1.248390">
        <ele>830.338188</ele>
        <time>2020-08-04T06:30:41.450Z</time>
      </trkpt>
      <trkpt lat="38.880135" lon="-1.248533">
        <ele>830.653515</ele>
        <time>2020-08-04T06:30:45.444Z</time>
      </trkpt>
      <trkpt lat="38.880152" lon="-1.248650">
        <ele>830.734516</ele>
        <time>2020-08-04T06:30:48.442Z</time>
      </trkpt>
      <trkpt lat="38.880171" lon="-1.248764">
        <ele>830.813857</ele>
        <time>2020-08-04T06:30:51.432Z</time>
      </trkpt>
      <trkpt lat="38.880184" lon="-1.248881">
        <ele>830.894290</ele>
        <time>2020-08-04T06:30:54.442Z</time>
      </trkpt>
      <trkpt lat="38.880200" lon="-1.249027">
        <ele>830.994631</ele>
        <time>2020-08-04T06:30:58.444Z</time>
      </trkpt>
      <trkpt lat="38.880214" lon="-1.249141">
        <ele>831.073174</ele>
        <time>2020-08-04T06:31:01.441Z</time>
      </trkpt>
      <trkpt lat="38.880228" lon="-1.249284">
        <ele>831.171260</ele>
        <time>2020-08-04T06:31:05.434Z</time>
      </trkpt>
      <trkpt lat="38.880245" lon="-1.249416">
        <ele>831.262314</ele>
        <time>2020-08-04T06:31:09.434Z</time>
      </trkpt>
      <trkpt lat="38.880255" lon="-1.249547">
        <ele>831.351895</ele>
        <time>2020-08-04T06:31:13.453Z</time>
      </trkpt>
      <trkpt lat="38.880285" lon="-1.249665">
        <ele>831.436375</ele>
        <time>2020-08-04T06:31:17.446Z</time>
      </trkpt>
      <trkpt lat="38.880318" lon="-1.249808">
        <ele>831.537880</ele>
        <time>2020-08-04T06:31:21.437Z</time>
      </trkpt>
      <trkpt lat="38.880362" lon="-1.249921">
        <ele>831.623867</ele>
        <time>2020-08-04T06:31:24.435Z</time>
      </trkpt>
      <trkpt lat="38.880386" lon="-1.250058">
        <ele>831.719435</ele>
        <time>2020-08-04T06:31:26.434Z</time>
      </trkpt>
      <trkpt lat="38.880425" lon="-1.250174">
        <ele>831.805427</ele>
        <time>2020-08-04T06:31:28.444Z</time>
      </trkpt>
      <trkpt lat="38.880454" lon="-1.250309">
        <ele>831.900736</ele>
        <time>2020-08-04T06:31:30.447Z</time>
      </trkpt>
      <trkpt lat="38.880454" lon="-1.250470">
        <ele>832.010305</ele>
        <time>2020-08-04T06:31:32.450Z</time>
      </trkpt>
      <trkpt lat="38.880444" lon="-1.250590">
        <ele>832.092438</ele>
        <time>2020-08-04T06:31:34.440Z</time>
      </trkpt>
      <trkpt lat="38.880437" lon="-1.250714">
        <ele>832.177048</ele>
        <time>2020-08-04T06:31:36.449Z</time>
      </trkpt>
      <trkpt lat="38.880404" lon="-1.250858">
        <ele>832.485742</ele>
        <time>2020-08-04T06:31:38.444Z</time>
      </trkpt>
      <trkpt lat="38.880390" lon="-1.251000">
        <ele>832.899446</ele>
        <time>2020-08-04T06:31:41.446Z</time>
      </trkpt>
      <trkpt lat="38.880393" lon="-1.251135">
        <ele>833.289798</ele>
        <time>2020-08-04T06:31:44.441Z</time>
      </trkpt>
      <trkpt lat="38.880377" lon="-1.251277">
        <ele>833.704501</ele>
        <time>2020-08-04T06:31:47.446Z</time>
      </trkpt>
      <trkpt lat="38.880358" lon="-1.251399">
        <ele>834.064107</ele>
        <time>2020-08-04T06:31:50.443Z</time>
      </trkpt>
      <trkpt lat="38.880328" lon="-1.251546">
        <ele>834.503343</ele>
        <time>2020-08-04T06:31:54.451Z</time>
      </trkpt>
      <trkpt lat="38.880291" lon="-1.251692">
        <ele>834.947128</ele>
        <time>2020-08-04T06:31:58.450Z</time>
      </trkpt>
      <trkpt lat="38.880261" lon="-1.251806">
        <ele>835.294943</ele>
        <time>2020-08-04T06:32:01.448Z</time>
      </trkpt>
      <trkpt lat="38.880220" lon="-1.251942">
        <ele>835.716475</ele>
        <time>2020-08-04T06:32:05.438Z</time>
      </trkpt>
      <trkpt lat="38.880184" lon="-1.252074">
        <ele>836.120734</ele>
        <time>2020-08-04T06:32:09.439Z</time>
      </trkpt>
      <trkpt lat="38.880162" lon="-1.252193">
        <ele>836.474250</ele>
        <time>2020-08-04T06:32:13.450Z</time>
      </trkpt>
      <trkpt lat="38.880147" lon="-1.252310">
        <ele>836.816974</ele>
        <time>2020-08-04T06:32:17.441Z</time>
      </trkpt>
      <trkpt lat="38.880110" lon="-1.252446">
        <ele>837.233373</ele>
        <time>2020-08-04T06:32:21.434Z</time>
      </trkpt>
      <trkpt lat="38.880069" lon="-1.252574">
        <ele>837.633430</ele>
        <time>2020-08-04T06:32:24.434Z</time>
      </trkpt>
      <trkpt lat="38.880033" lon="-1.252680">
        <ele>837.967693</ele>
        <time>2020-08-04T06:32:26.435Z</time>
      </trkpt>
      <trkpt lat="38.880005" lon="-1.252803">
        <ele>838.338093</ele>
        <time>2020-08-04T06:32:28.443Z</time>
      </trkpt>
      <trkpt lat="38.879959" lon="-1.252934">
        <ele>838.753465</ele>
        <time>2020-08-04T06:32:30.446Z</time>
      </trkpt>
      <trkpt lat="38.879920" lon="-1.253070">
        <ele>838.895997</ele>
        <time>2020-08-04T06:32:32.446Z</time>
      </trkpt>
      <trkpt lat="38.879883" lon="-1.253188">
        <ele>838.898971</ele>
        <time>2020-08-04T06:32:34.449Z</time>
      </trkpt>
      <trkpt lat="38.879849" lon="-1.253310">
        <ele>838.902000</ele>
        <time>2020-08-04T06:32:36.444Z</time>
      </trkpt>
      <trkpt lat="38.879814" lon="-1.253440">
        <ele>838.905216</ele>
        <time>2020-08-04T06:32:38.440Z</time>
      </trkpt>
      <trkpt lat="38.879773" lon="-1.253549">
        <ele>838.908046</ele>
        <time>2020-08-04T06:32:40.444Z</time>
      </trkpt>
      <trkpt lat="38.879722" lon="-1.253667">
        <ele>838.911201</ele>
        <time>2020-08-04T06:32:42.446Z</time>
      </trkpt>
      <trkpt lat="38.879676" lon="-1.253818">
        <ele>838.914992</ele>
        <time>2020-08-04T06:32:45.430Z</time>
      </trkpt>
      <trkpt lat="38.879626" lon="-1.253959">
        <ele>838.918614</ele>
        <time>2020-08-04T06:32:48.446Z</time>
      </trkpt>
      <trkpt lat="38.879583" lon="-1.254104">
        <ele>838.922242</ele>
        <time>2020-08-04T06:32:51.442Z</time>
      </trkpt>
      <trkpt lat="38.879531" lon="-1.254256">
        <ele>838.926124</ele>
        <time>2020-08-04T06:32:54.443Z</time>
      </trkpt>
      <trkpt lat="38.879490" lon="-1.254380">
        <ele>838.929273</ele>
        <time>2020-08-04T06:32:57.443Z</time>
      </trkpt>
      <trkpt lat="38.879431" lon="-1.254505">
        <ele>838.932691</ele>
        <time>2020-08-04T06:33:00.445Z</time>
      </trkpt>
      <trkpt lat="38.879378" lon="-1.254625">
        <ele>838.935916</ele>
        <time>2020-08-04T06:33:03.450Z</time>
      </trkpt>
      <trkpt lat="38.879345" lon="-1.254739">
        <ele>838.938760</ele>
        <time>2020-08-04T06:33:06.445Z</time>
      </trkpt>
      <trkpt lat="38.879312" lon="-1.254875">
        <ele>838.942090</ele>
        <time>2020-08-04T06:33:10.446Z</time>
      </trkpt>
      <trkpt lat="38.879273" lon="-1.254998">
        <ele>838.945195</ele>
        <time>2020-08-04T06:33:14.449Z</time>
      </trkpt>
      <trkpt lat="38.879227" lon="-1.255144">
        <ele>839.082700</ele>
        <time>2020-08-04T06:33:18.451Z</time>
      </trkpt>
      <trkpt lat="38.879199" lon="-1.255257">
        <ele>839.417247</ele>
        <time>2020-08-04T06:33:21.432Z</time>
      </trkpt>
      <trkpt lat="38.879160" lon="-1.255388">
        <ele>839.812919</ele>
        <time>2020-08-04T06:33:25.460Z</time>
      </trkpt>
      <trkpt lat="38.879119" lon="-1.255525">
        <ele>840.226991</ele>
        <time>2020-08-04T06:33:29.437Z</time>
      </trkpt>
      <trkpt lat="38.879072" lon="-1.255657">
        <ele>840.636486</ele>
        <time>2020-08-04T06:33:33.437Z</time>
      </trkpt>
      <trkpt lat="38.879028" lon="-1.255766">
        <ele>840.982873</ele>
        <time>2020-08-04T06:33:36.442Z</time>
      </trkpt>
      <trkpt lat="38.878991" lon="-1.255903">
        <ele>841.391968</ele>
        <time>2020-08-04T06:33:40.434Z</time>
      </trkpt>
      <trkpt lat="38.878958" lon="-1.256011">
        <ele>841.719281</ele>
        <time>2020-08-04T06:33:43.439Z</time>
      </trkpt>
      <trkpt lat="38.878923" lon="-1.256126">
        <ele>842.067626</ele>
        <time>2020-08-04T06:33:46.443Z</time>
      </trkpt>
      <trkpt lat="38.878890" lon="-1.256238">
        <ele>842.405469</ele>
        <time>2020-08-04T06:33:49.448Z</time>
      </trkpt>
      <trkpt lat="38.878855" lon="-1.256358">
        <ele>842.766988</ele>
        <time>2020-08-04T06:33:52.440Z</time>
      </trkpt>
      <trkpt lat="38.878804" lon="-1.256523">
        <ele>843.267827</ele>
        <time>2020-08-04T06:33:55.440Z</time>
      </trkpt>
      <trkpt lat="38.878766" lon="-1.256636">
        <ele>843.615089</ele>
        <time>2020-08-04T06:33:57.440Z</time>
      </trkpt>
      <trkpt lat="38.878718" lon="-1.256768">
        <ele>844.026105</ele>
        <time>2020-08-04T06:33:59.446Z</time>
      </trkpt>
      <trkpt lat="38.878671" lon="-1.256894">
        <ele>844.420271</ele>
        <time>2020-08-04T06:34:01.441Z</time>
      </trkpt>
      <trkpt lat="38.878622" lon="-1.257011">
        <ele>844.795080</ele>
        <time>2020-08-04T06:34:03.446Z</time>
      </trkpt>
      <trkpt lat="38.878605" lon="-1.257140">
        <ele>845.164188</ele>
        <time>2020-08-04T06:34:05.440Z</time>
      </trkpt>
      <trkpt lat="38.878588" lon="-1.257264">
        <ele>845.434452</ele>
        <time>2020-08-04T06:34:07.440Z</time>
      </trkpt>
      <trkpt lat="38.878552" lon="-1.257375">
        <ele>845.234601</ele>
        <time>2020-08-04T06:34:09.434Z</time>
      </trkpt>
      <trkpt lat="38.878486" lon="-1.257526">
        <ele>844.946790</ele>
        <time>2020-08-04T06:34:12.449Z</time>
      </trkpt>
      <trkpt lat="38.878453" lon="-1.257682">
        <ele>844.678117</ele>
        <time>2020-08-04T06:34:15.446Z</time>
      </trkpt>
      <trkpt lat="38.878417" lon="-1.257789">
        <ele>844.484386</ele>
        <time>2020-08-04T06:34:17.438Z</time>
      </trkpt>
      <trkpt lat="38.878362" lon="-1.257945">
        <ele>844.199765</ele>
        <time>2020-08-04T06:34:20.449Z</time>
      </trkpt>
      <trkpt lat="38.878299" lon="-1.258108">
        <ele>843.897309</ele>
        <time>2020-08-04T06:34:22.445Z</time>
      </trkpt>
      <trkpt lat="38.878255" lon="-1.258282">
        <ele>843.593247</ele>
        <time>2020-08-04T06:34:24.447Z</time>
      </trkpt>
      <trkpt lat="38.878206" lon="-1.258439">
        <ele>843.312125</ele>
        <time>2020-08-04T06:34:26.456Z</time>
      </trkpt>
      <trkpt lat="38.878157" lon="-1.258598">
        <ele>843.027914</ele>
        <time>2020-08-04T06:34:28.451Z</time>
      </trkpt>
      <trkpt lat="38.878113" lon="-1.258752">
        <ele>842.755272</ele>
        <time>2020-08-04T06:34:30.444Z</time>
      </trkpt>
      <trkpt lat="38.878063" lon="-1.258900">
        <ele>842.487132</ele>
        <time>2020-08-04T06:34:32.442Z</time>
      </trkpt>
      <trkpt lat="38.878013" lon="-1.259061">
        <ele>842.199044</ele>
        <time>2020-08-04T06:34:34.457Z</time>
      </trkpt>
      <trkpt lat="38.877964" lon="-1.259216">
        <ele>841.921003</ele>
        <time>2020-08-04T06:34:36.449Z</time>
      </trkpt>
      <trkpt lat="38.877886" lon="-1.259377">
        <ele>841.590188</ele>
        <time>2020-08-04T06:34:38.450Z</time>
      </trkpt>
      <trkpt lat="38.877842" lon="-1.259532">
        <ele>841.102988</ele>
        <time>2020-08-04T06:34:40.451Z</time>
      </trkpt>
      <trkpt lat="38.877781" lon="-1.259695">
        <ele>840.568916</ele>
        <time>2020-08-04T06:34:42.450Z</time>
      </trkpt>
      <trkpt lat="38.877727" lon="-1.259859">
        <ele>840.043082</ele>
        <time>2020-08-04T06:34:44.440Z</time>
      </trkpt>
      <trkpt lat="38.877658" lon="-1.260034">
        <ele>839.463800</ele>
        <time>2020-08-04T06:34:46.435Z</time>
      </trkpt>
      <trkpt lat="38.877591" lon="-1.260217">
        <ele>838.866615</ele>
        <time>2020-08-04T06:34:48.447Z</time>
      </trkpt>
      <trkpt lat="38.877527" lon="-1.260401">
        <ele>838.271488</ele>
        <time>2020-08-04T06:34:50.441Z</time>
      </trkpt>
      <trkpt lat="38.877454" lon="-1.260581">
        <ele>837.672137</ele>
        <time>2020-08-04T06:34:52.440Z</time>
      </trkpt>
      <trkpt lat="38.877382" lon="-1.260755">
        <ele>837.090232</ele>
        <time>2020-08-04T06:34:54.444Z</time>
      </trkpt>
      <trkpt lat="38.877293" lon="-1.260963">
        <ele>836.389334</ele>
        <time>2020-08-04T06:34:56.451Z</time>
      </trkpt>
      <trkpt lat="38.877221" lon="-1.261143">
        <ele>835.791725</ele>
        <time>2020-08-04T06:34:58.433Z</time>
      </trkpt>
      <trkpt lat="38.877137" lon="-1.261319">
        <ele>835.182089</ele>
        <time>2020-08-04T06:35:00.442Z</time>
      </trkpt>
      <trkpt lat="38.877063" lon="-1.261500">
        <ele>834.794299</ele>
        <time>2020-08-04T06:35:02.448Z</time>
      </trkpt>
      <trkpt lat="38.876987" lon="-1.261661">
        <ele>834.772284</ele>
        <time>2020-08-04T06:35:04.446Z</time>
      </trkpt>
      <trkpt lat="38.876926" lon="-1.261838">
        <ele>834.749652</ele>
        <time>2020-08-04T06:35:06.438Z</time>
      </trkpt>
      <trkpt lat="38.876879" lon="-1.262025">
        <ele>834.726677</ele>
        <time>2020-08-04T06:35:08.442Z</time>
      </trkpt>
      <trkpt lat="38.876819" lon="-1.262216">
        <ele>834.702595</ele>
        <time>2020-08-04T06:35:10.437Z</time>
      </trkpt>
      <trkpt lat="38.876802" lon="-1.262365">
        <ele>834.684988</ele>
        <time>2020-08-04T06:35:12.438Z</time>
      </trkpt>
      <trkpt lat="38.876756" lon="-1.262516">
        <ele>834.666029</ele>
        <time>2020-08-04T06:35:14.448Z</time>
      </trkpt>
      <trkpt lat="38.876678" lon="-1.262625">
        <ele>834.648719</ele>
        <time>2020-08-04T06:35:16.453Z</time>
      </trkpt>
      <trkpt lat="38.876659" lon="-1.262794">
        <ele>834.628754</ele>
        <time>2020-08-04T06:35:19.442Z</time>
      </trkpt>
      <trkpt lat="38.876627" lon="-1.262924">
        <ele>834.612813</ele>
        <time>2020-08-04T06:35:22.436Z</time>
      </trkpt>
      <trkpt lat="38.876580" lon="-1.263053">
        <ele>834.596160</ele>
        <time>2020-08-04T06:35:25.450Z</time>
      </trkpt>
      <trkpt lat="38.876542" lon="-1.263181">
        <ele>834.580142</ele>
        <time>2020-08-04T06:35:28.438Z</time>
      </trkpt>
      <trkpt lat="38.876504" lon="-1.263324">
        <ele>834.562475</ele>
        <time>2020-08-04T06:35:32.446Z</time>
      </trkpt>
      <trkpt lat="38.876469" lon="-1.263464">
        <ele>834.545283</ele>
        <time>2020-08-04T06:35:36.448Z</time>
      </trkpt>
      <trkpt lat="38.876443" lon="-1.263575">
        <ele>834.557787</ele>
        <time>2020-08-04T06:35:39.440Z</time>
      </trkpt>
      <trkpt lat="38.876397" lon="-1.263691">
        <ele>834.839427</ele>
        <time>2020-08-04T06:35:43.449Z</time>
      </trkpt>
      <trkpt lat="38.876378" lon="-1.263814">
        <ele>835.110718</ele>
        <time>2020-08-04T06:35:47.439Z</time>
      </trkpt>
      <trkpt lat="38.876361" lon="-1.263946">
        <ele>835.400173</ele>
        <time>2020-08-04T06:35:51.444Z</time>
      </trkpt>
      <trkpt lat="38.876324" lon="-1.264089">
        <ele>835.726184</ele>
        <time>2020-08-04T06:35:55.445Z</time>
      </trkpt>
      <trkpt lat="38.876290" lon="-1.264197">
        <ele>835.978217</ele>
        <time>2020-08-04T06:35:58.446Z</time>
      </trkpt>
      <trkpt lat="38.876249" lon="-1.264325">
        <ele>836.277661</ele>
        <time>2020-08-04T06:36:02.451Z</time>
      </trkpt>
      <trkpt lat="38.876230" lon="-1.264442">
        <ele>836.536232</ele>
        <time>2020-08-04T06:36:06.443Z</time>
      </trkpt>
      <trkpt lat="38.876216" lon="-1.264561">
        <ele>836.796604</ele>
        <time>2020-08-04T06:36:11.438Z</time>
      </trkpt>
      <trkpt lat="38.876204" lon="-1.264697">
        <ele>837.092716</ele>
        <time>2020-08-04T06:36:16.448Z</time>
      </trkpt>
      <trkpt lat="38.876194" lon="-1.264820">
        <ele>837.360267</ele>
        <time>2020-08-04T06:36:20.440Z</time>
      </trkpt>
      <trkpt lat="38.876170" lon="-1.264952">
        <ele>837.653526</ele>
        <time>2020-08-04T06:36:24.442Z</time>
      </trkpt>
      <trkpt lat="38.876157" lon="-1.265083">
        <ele>837.939231</ele>
        <time>2020-08-04T06:36:28.444Z</time>
      </trkpt>
      <trkpt lat="38.876144" lon="-1.265216">
        <ele>838.229228</ele>
        <time>2020-08-04T06:36:32.454Z</time>
      </trkpt>
      <trkpt lat="38.876132" lon="-1.265352">
        <ele>838.525340</ele>
        <time>2020-08-04T06:36:37.446Z</time>
      </trkpt>
      <trkpt lat="38.876101" lon="-1.265474">
        <ele>838.802984</ele>
        <time>2020-08-04T06:36:41.450Z</time>
      </trkpt>
      <trkpt lat="38.876081" lon="-1.265607">
        <ele>839.096041</ele>
        <time>2020-08-04T06:36:46.442Z</time>
      </trkpt>
      <trkpt lat="38.876035" lon="-1.265724">
        <ele>839.379612</ele>
        <time>2020-08-04T06:36:50.438Z</time>
      </trkpt>
      <trkpt lat="38.876017" lon="-1.265852">
        <ele>839.526487</ele>
        <time>2020-08-04T06:36:54.441Z</time>
      </trkpt>
      <trkpt lat="38.876027" lon="-1.265984">
        <ele>839.515495</ele>
        <time>2020-08-04T06:37:07.447Z</time>
      </trkpt>
      <trkpt lat="38.876029" lon="-1.266125">
        <ele>839.503807</ele>
        <time>2020-08-04T06:37:12.443Z</time>
      </trkpt>
      <trkpt lat="38.876037" lon="-1.266256">
        <ele>839.492917</ele>
        <time>2020-08-04T06:37:16.447Z</time>
      </trkpt>
      <trkpt lat="38.876048" lon="-1.266386">
        <ele>839.482079</ele>
        <time>2020-08-04T06:37:19.448Z</time>
      </trkpt>
      <trkpt lat="38.876048" lon="-1.266545">
        <ele>839.468901</ele>
        <time>2020-08-04T06:37:22.449Z</time>
      </trkpt>
      <trkpt lat="38.876058" lon="-1.266666">
        <ele>839.458816</ele>
        <time>2020-08-04T06:37:24.440Z</time>
      </trkpt>
      <trkpt lat="38.876061" lon="-1.266790">
        <ele>839.448534</ele>
        <time>2020-08-04T06:37:26.450Z</time>
      </trkpt>
      <trkpt lat="38.876029" lon="-1.266946">
        <ele>839.435164</ele>
        <time>2020-08-04T06:37:28.454Z</time>
      </trkpt>
      <trkpt lat="38.876021" lon="-1.267066">
        <ele>839.425182</ele>
        <time>2020-08-04T06:37:30.437Z</time>
      </trkpt>
      <trkpt lat="38.876003" lon="-1.267195">
        <ele>839.414320</ele>
        <time>2020-08-04T06:37:32.454Z</time>
      </trkpt>
      <trkpt lat="38.875985" lon="-1.267326">
        <ele>839.403295</ele>
        <time>2020-08-04T06:37:34.448Z</time>
      </trkpt>
      <trkpt lat="38.875988" lon="-1.267497">
        <ele>839.389119</ele>
        <time>2020-08-04T06:37:37.448Z</time>
      </trkpt>
      <trkpt lat="38.875999" lon="-1.267672">
        <ele>839.374568</ele>
        <time>2020-08-04T06:37:40.441Z</time>
      </trkpt>
      <trkpt lat="38.876009" lon="-1.267848">
        <ele>839.359942</ele>
        <time>2020-08-04T06:37:43.452Z</time>
      </trkpt>
      <trkpt lat="38.876029" lon="-1.267972">
        <ele>839.349447</ele>
        <time>2020-08-04T06:37:45.440Z</time>
      </trkpt>
      <trkpt lat="38.876020" lon="-1.268123">
        <ele>839.325139</ele>
        <time>2020-08-04T06:37:47.444Z</time>
      </trkpt>
      <trkpt lat="38.876008" lon="-1.268282">
        <ele>839.261230</ele>
        <time>2020-08-04T06:37:49.444Z</time>
      </trkpt>
      <trkpt lat="38.875985" lon="-1.268415">
        <ele>839.206724</ele>
        <time>2020-08-04T06:37:51.442Z</time>
      </trkpt>
      <trkpt lat="38.875969" lon="-1.268566">
        <ele>839.145756</ele>
        <time>2020-08-04T06:37:53.444Z</time>
      </trkpt>
      <trkpt lat="38.875935" lon="-1.268697">
        <ele>839.090511</ele>
        <time>2020-08-04T06:37:55.447Z</time>
      </trkpt>
      <trkpt lat="38.875931" lon="-1.268836">
        <ele>839.034863</ele>
        <time>2020-08-04T06:37:57.442Z</time>
      </trkpt>
      <trkpt lat="38.875915" lon="-1.268965">
        <ele>838.982603</ele>
        <time>2020-08-04T06:37:59.452Z</time>
      </trkpt>
      <trkpt lat="38.875909" lon="-1.269108">
        <ele>838.925310</ele>
        <time>2020-08-04T06:38:01.447Z</time>
      </trkpt>
      <trkpt lat="38.875919" lon="-1.269240">
        <ele>838.872251</ele>
        <time>2020-08-04T06:38:03.451Z</time>
      </trkpt>
      <trkpt lat="38.875913" lon="-1.269400">
        <ele>838.808166</ele>
        <time>2020-08-04T06:38:05.440Z</time>
      </trkpt>
      <trkpt lat="38.875937" lon="-1.269528">
        <ele>838.755493</ele>
        <time>2020-08-04T06:38:07.451Z</time>
      </trkpt>
      <trkpt lat="38.875912" lon="-1.269693">
        <ele>838.688242</ele>
        <time>2020-08-04T06:38:09.457Z</time>
      </trkpt>
      <trkpt lat="38.875889" lon="-1.269852">
        <ele>838.623542</ele>
        <time>2020-08-04T06:38:11.443Z</time>
      </trkpt>
      <trkpt lat="38.875879" lon="-1.269990">
        <ele>838.568094</ele>
        <time>2020-08-04T06:38:13.453Z</time>
      </trkpt>
      <trkpt lat="38.875852" lon="-1.270133">
        <ele>838.509225</ele>
        <time>2020-08-04T06:38:15.444Z</time>
      </trkpt>
      <trkpt lat="38.875861" lon="-1.270256">
        <ele>838.459800</ele>
        <time>2020-08-04T06:38:17.436Z</time>
      </trkpt>
      <trkpt lat="38.875839" lon="-1.270403">
        <ele>838.512845</ele>
        <time>2020-08-04T06:38:19.436Z</time>
      </trkpt>
      <trkpt lat="38.875836" lon="-1.270535">
        <ele>838.839019</ele>
        <time>2020-08-04T06:38:21.443Z</time>
      </trkpt>
      <trkpt lat="38.875845" lon="-1.270654">
        <ele>839.134328</ele>
        <time>2020-08-04T06:38:23.442Z</time>
      </trkpt>
      <trkpt lat="38.875845" lon="-1.270777">
        <ele>839.438134</ele>
        <time>2020-08-04T06:38:25.436Z</time>
      </trkpt>
      <trkpt lat="38.875827" lon="-1.270894">
        <ele>839.732708</ele>
        <time>2020-08-04T06:38:27.437Z</time>
      </trkpt>
      <trkpt lat="38.875819" lon="-1.271028">
        <ele>840.064655</ele>
        <time>2020-08-04T06:38:29.439Z</time>
      </trkpt>
      <trkpt lat="38.875818" lon="-1.271160">
        <ele>840.390706</ele>
        <time>2020-08-04T06:38:31.442Z</time>
      </trkpt>
      <trkpt lat="38.875810" lon="-1.271330">
        <ele>840.811367</ele>
        <time>2020-08-04T06:38:34.445Z</time>
      </trkpt>
      <trkpt lat="38.875786" lon="-1.271446">
        <ele>841.107828</ele>
        <time>2020-08-04T06:38:36.445Z</time>
      </trkpt>
      <trkpt lat="38.875785" lon="-1.271598">
        <ele>841.483276</ele>
        <time>2020-08-04T06:38:39.462Z</time>
      </trkpt>
      <trkpt lat="38.875783" lon="-1.271747">
        <ele>841.851356</ele>
        <time>2020-08-04T06:38:42.450Z</time>
      </trkpt>
      <trkpt lat="38.875786" lon="-1.271894">
        <ele>842.214566</ele>
        <time>2020-08-04T06:38:45.445Z</time>
      </trkpt>
      <trkpt lat="38.875800" lon="-1.272036">
        <ele>842.568102</ele>
        <time>2020-08-04T06:38:48.440Z</time>
      </trkpt>
      <trkpt lat="38.875793" lon="-1.272182">
        <ele>842.929400</ele>
        <time>2020-08-04T06:38:51.444Z</time>
      </trkpt>
      <trkpt lat="38.875790" lon="-1.272313">
        <ele>843.253106</ele>
        <time>2020-08-04T06:38:54.441Z</time>
      </trkpt>
      <trkpt lat="38.875775" lon="-1.272470">
        <ele>843.643800</ele>
        <time>2020-08-04T06:38:57.438Z</time>
      </trkpt>
      <trkpt lat="38.875762" lon="-1.272615">
        <ele>844.004312</ele>
        <time>2020-08-04T06:39:00.453Z</time>
      </trkpt>
      <trkpt lat="38.875755" lon="-1.272759">
        <ele>844.182885</ele>
        <time>2020-08-04T06:39:03.452Z</time>
      </trkpt>
      <trkpt lat="38.875750" lon="-1.272901">
        <ele>844.272235</ele>
        <time>2020-08-04T06:39:06.446Z</time>
      </trkpt>
      <trkpt lat="38.875730" lon="-1.273058">
        <ele>844.372235</ele>
        <time>2020-08-04T06:39:09.440Z</time>
      </trkpt>
      <trkpt lat="38.875723" lon="-1.273191">
        <ele>844.456028</ele>
        <time>2020-08-04T06:39:12.448Z</time>
      </trkpt>
      <trkpt lat="38.875698" lon="-1.273342">
        <ele>844.553067</ele>
        <time>2020-08-04T06:39:15.442Z</time>
      </trkpt>
      <trkpt lat="38.875675" lon="-1.273490">
        <ele>844.647933</ele>
        <time>2020-08-04T06:39:18.441Z</time>
      </trkpt>
      <trkpt lat="38.875674" lon="-1.273619">
        <ele>844.729025</ele>
        <time>2020-08-04T06:39:21.441Z</time>
      </trkpt>
      <trkpt lat="38.875666" lon="-1.273758">
        <ele>844.816636</ele>
        <time>2020-08-04T06:39:24.444Z</time>
      </trkpt>
      <trkpt lat="38.875651" lon="-1.273901">
        <ele>844.907336</ele>
        <time>2020-08-04T06:39:27.443Z</time>
      </trkpt>
      <trkpt lat="38.875627" lon="-1.274022">
        <ele>844.985825</ele>
        <time>2020-08-04T06:39:30.454Z</time>
      </trkpt>
      <trkpt lat="38.875530" lon="-1.274073">
        <ele>845.070452</ele>
        <time>2020-08-04T06:39:33.445Z</time>
      </trkpt>
      <trkpt lat="38.875433" lon="-1.273994">
        <ele>845.163188</ele>
        <time>2020-08-04T06:39:36.444Z</time>
      </trkpt>
      <trkpt lat="38.875355" lon="-1.273879">
        <ele>845.259062</ele>
        <time>2020-08-04T06:39:39.447Z</time>
      </trkpt>
      <trkpt lat="38.875280" lon="-1.273772">
        <ele>845.349565</ele>
        <time>2020-08-04T06:39:42.443Z</time>
      </trkpt>
      <trkpt lat="38.875214" lon="-1.273655">
        <ele>845.440387</ele>
        <time>2020-08-04T06:39:45.446Z</time>
      </trkpt>
      <trkpt lat="38.875155" lon="-1.273565">
        <ele>845.514346</ele>
        <time>2020-08-04T06:39:47.441Z</time>
      </trkpt>
      <trkpt lat="38.875067" lon="-1.273469">
        <ele>845.671713</ele>
        <time>2020-08-04T06:39:49.444Z</time>
      </trkpt>
      <trkpt lat="38.875001" lon="-1.273371">
        <ele>845.910965</ele>
        <time>2020-08-04T06:39:51.443Z</time>
      </trkpt>
      <trkpt lat="38.874902" lon="-1.273240">
        <ele>846.248055</ele>
        <time>2020-08-04T06:39:54.434Z</time>
      </trkpt>
      <trkpt lat="38.874822" lon="-1.273107">
        <ele>846.558378</ele>
        <time>2020-08-04T06:39:57.442Z</time>
      </trkpt>
      <trkpt lat="38.874805" lon="-1.272973">
        <ele>846.809054</ele>
        <time>2020-08-04T06:39:59.439Z</time>
      </trkpt>
      <trkpt lat="38.874778" lon="-1.272837">
        <ele>847.068195</ele>
        <time>2020-08-04T06:40:01.456Z</time>
      </trkpt>
      <trkpt lat="38.874752" lon="-1.272712">
        <ele>847.307086</ele>
        <time>2020-08-04T06:40:03.446Z</time>
      </trkpt>
      <trkpt lat="38.874691" lon="-1.272604">
        <ele>847.553444</ele>
        <time>2020-08-04T06:40:05.436Z</time>
      </trkpt>
      <trkpt lat="38.874617" lon="-1.272524">
        <ele>847.782832</ele>
        <time>2020-08-04T06:40:07.425Z</time>
      </trkpt>
      <trkpt lat="38.874501" lon="-1.272508">
        <ele>848.059523</ele>
        <time>2020-08-04T06:40:10.433Z</time>
      </trkpt>
      <trkpt lat="38.874421" lon="-1.272585">
        <ele>848.296610</ele>
        <time>2020-08-04T06:40:13.430Z</time>
      </trkpt>
      <trkpt lat="38.874452" lon="-1.272704">
        <ele>848.528302</ele>
        <time>2020-08-04T06:40:17.431Z</time>
      </trkpt>
      <trkpt lat="38.874460" lon="-1.272819">
        <ele>848.741481</ele>
        <time>2020-08-04T06:40:21.441Z</time>
      </trkpt>
      <trkpt lat="38.874527" lon="-1.272903">
        <ele>848.963525</ele>
        <time>2020-08-04T06:44:12.765Z</time>
      </trkpt>
      <trkpt lat="38.874574" lon="-1.273002">
        <ele>849.177621</ele>
        <time>2020-08-04T06:44:17.468Z</time>
      </trkpt>
      <trkpt lat="38.874629" lon="-1.273125">
        <ele>849.439518</ele>
        <time>2020-08-04T06:44:22.454Z</time>
      </trkpt>
      <trkpt lat="38.874669" lon="-1.273234">
        <ele>849.662010</ele>
        <time>2020-08-04T06:44:25.456Z</time>
      </trkpt>
      <trkpt lat="38.874711" lon="-1.273355">
        <ele>849.774367</ele>
        <time>2020-08-04T06:44:28.461Z</time>
      </trkpt>
      <trkpt lat="38.874751" lon="-1.273473">
        <ele>849.539009</ele>
        <time>2020-08-04T06:44:31.454Z</time>
      </trkpt>
      <trkpt lat="38.874798" lon="-1.273596">
        <ele>849.288443</ele>
        <time>2020-08-04T06:44:34.443Z</time>
      </trkpt>
      <trkpt lat="38.874844" lon="-1.273703">
        <ele>849.064918</ele>
        <time>2020-08-04T06:44:37.436Z</time>
      </trkpt>
      <trkpt lat="38.874906" lon="-1.273827">
        <ele>848.795417</ele>
        <time>2020-08-04T06:44:41.440Z</time>
      </trkpt>
      <trkpt lat="38.874949" lon="-1.273934">
        <ele>848.575212</ele>
        <time>2020-08-04T06:44:45.416Z</time>
      </trkpt>
      <trkpt lat="38.874984" lon="-1.274076">
        <ele>848.302830</ele>
        <time>2020-08-04T06:45:06.434Z</time>
      </trkpt>
      <trkpt lat="38.875024" lon="-1.274180">
        <ele>848.090700</ele>
        <time>2020-08-04T06:45:09.436Z</time>
      </trkpt>
      <trkpt lat="38.875065" lon="-1.274295">
        <ele>847.859394</ele>
        <time>2020-08-04T06:45:12.447Z</time>
      </trkpt>
      <trkpt lat="38.875119" lon="-1.274429">
        <ele>847.583463</ele>
        <time>2020-08-04T06:45:15.446Z</time>
      </trkpt>
      <trkpt lat="38.875169" lon="-1.274571">
        <ele>847.298460</ele>
        <time>2020-08-04T06:45:18.443Z</time>
      </trkpt>
      <trkpt lat="38.875211" lon="-1.274708">
        <ele>847.029202</ele>
        <time>2020-08-04T06:45:21.440Z</time>
      </trkpt>
      <trkpt lat="38.875254" lon="-1.274845">
        <ele>846.759073</ele>
        <time>2020-08-04T06:45:24.450Z</time>
      </trkpt>
      <trkpt lat="38.875304" lon="-1.274974">
        <ele>846.495550</ele>
        <time>2020-08-04T06:45:27.447Z</time>
      </trkpt>
      <trkpt lat="38.875361" lon="-1.275088">
        <ele>846.247784</ele>
        <time>2020-08-04T06:45:30.447Z</time>
      </trkpt>
      <trkpt lat="38.875420" lon="-1.275205">
        <ele>845.992862</ele>
        <time>2020-08-04T06:45:33.436Z</time>
      </trkpt>
      <trkpt lat="38.875475" lon="-1.275332">
        <ele>845.727100</ele>
        <time>2020-08-04T06:45:36.439Z</time>
      </trkpt>
      <trkpt lat="38.875531" lon="-1.275470">
        <ele>845.442413</ele>
        <time>2020-08-04T06:45:39.447Z</time>
      </trkpt>
      <trkpt lat="38.875567" lon="-1.275608">
        <ele>845.176106</ele>
        <time>2020-08-04T06:45:42.443Z</time>
      </trkpt>
      <trkpt lat="38.875573" lon="-1.275758">
        <ele>844.901279</ele>
        <time>2020-08-04T06:45:45.438Z</time>
      </trkpt>
      <trkpt lat="38.875574" lon="-1.275929">
        <ele>844.588381</ele>
        <time>2020-08-04T06:45:48.440Z</time>
      </trkpt>
      <trkpt lat="38.875536" lon="-1.276081">
        <ele>844.296268</ele>
        <time>2020-08-04T06:45:50.446Z</time>
      </trkpt>
      <trkpt lat="38.875525" lon="-1.276245">
        <ele>843.995074</ele>
        <time>2020-08-04T06:45:53.439Z</time>
      </trkpt>
      <trkpt lat="38.875512" lon="-1.276395">
        <ele>843.718914</ele>
        <time>2020-08-04T06:45:56.441Z</time>
      </trkpt>
      <trkpt lat="38.875493" lon="-1.276533">
        <ele>843.462487</ele>
        <time>2020-08-04T06:45:59.436Z</time>
      </trkpt>
      <trkpt lat="38.875478" lon="-1.276683">
        <ele>843.185767</ele>
        <time>2020-08-04T06:46:02.437Z</time>
      </trkpt>
      <trkpt lat="38.875466" lon="-1.276837">
        <ele>842.902575</ele>
        <time>2020-08-04T06:46:05.442Z</time>
      </trkpt>
      <trkpt lat="38.875451" lon="-1.276987">
        <ele>842.625855</ele>
        <time>2020-08-04T06:46:08.447Z</time>
      </trkpt>
      <trkpt lat="38.875436" lon="-1.277133">
        <ele>842.356392</ele>
        <time>2020-08-04T06:46:11.441Z</time>
      </trkpt>
      <trkpt lat="38.875437" lon="-1.277265">
        <ele>842.114851</ele>
        <time>2020-08-04T06:46:14.440Z</time>
      </trkpt>
      <trkpt lat="38.875445" lon="-1.277398">
        <ele>841.870767</ele>
        <time>2020-08-04T06:46:17.440Z</time>
      </trkpt>
      <trkpt lat="38.875452" lon="-1.277554">
        <ele>841.584849</ele>
        <time>2020-08-04T06:46:21.460Z</time>
      </trkpt>
      <trkpt lat="38.875448" lon="-1.277675">
        <ele>841.378918</ele>
        <time>2020-08-04T06:46:24.453Z</time>
      </trkpt>
      <trkpt lat="38.875451" lon="-1.277826">
        <ele>841.279049</ele>
        <time>2020-08-04T06:46:28.435Z</time>
      </trkpt>
      <trkpt lat="38.875439" lon="-1.277956">
        <ele>841.192495</ele>
        <time>2020-08-04T06:46:31.437Z</time>
      </trkpt>
      <trkpt lat="38.875421" lon="-1.278082">
        <ele>841.107797</ele>
        <time>2020-08-04T06:46:34.437Z</time>
      </trkpt>
      <trkpt lat="38.875410" lon="-1.278213">
        <ele>841.020682</ele>
        <time>2020-08-04T06:46:37.438Z</time>
      </trkpt>
      <trkpt lat="38.875403" lon="-1.278343">
        <ele>840.934525</ele>
        <time>2020-08-04T06:46:40.428Z</time>
      </trkpt>
      <trkpt lat="38.875396" lon="-1.278475">
        <ele>840.847049</ele>
        <time>2020-08-04T06:46:43.448Z</time>
      </trkpt>
      <trkpt lat="38.875396" lon="-1.278620">
        <ele>840.751180</ele>
        <time>2020-08-04T06:46:46.443Z</time>
      </trkpt>
      <trkpt lat="38.875400" lon="-1.278768">
        <ele>840.653268</ele>
        <time>2020-08-04T06:46:49.443Z</time>
      </trkpt>
      <trkpt lat="38.875399" lon="-1.278924">
        <ele>840.550123</ele>
        <time>2020-08-04T06:46:52.441Z</time>
      </trkpt>
      <trkpt lat="38.875400" lon="-1.279077">
        <ele>840.448961</ele>
        <time>2020-08-04T06:46:55.445Z</time>
      </trkpt>
      <trkpt lat="38.875394" lon="-1.279221">
        <ele>840.353616</ele>
        <time>2020-08-04T06:46:58.443Z</time>
      </trkpt>
      <trkpt lat="38.875394" lon="-1.279357">
        <ele>840.263698</ele>
        <time>2020-08-04T06:47:01.450Z</time>
      </trkpt>
      <trkpt lat="38.875385" lon="-1.279509">
        <ele>840.162910</ele>
        <time>2020-08-04T06:47:04.441Z</time>
      </trkpt>
      <trkpt lat="38.875373" lon="-1.279658">
        <ele>840.063871</ele>
        <time>2020-08-04T06:47:07.443Z</time>
      </trkpt>
      <trkpt lat="38.875363" lon="-1.279798">
        <ele>839.970918</ele>
        <time>2020-08-04T06:47:10.446Z</time>
      </trkpt>
      <trkpt lat="38.875363" lon="-1.279942">
        <ele>839.875710</ele>
        <time>2020-08-04T06:47:13.447Z</time>
      </trkpt>
      <trkpt lat="38.875365" lon="-1.280082">
        <ele>839.945683</ele>
        <time>2020-08-04T06:47:16.443Z</time>
      </trkpt>
      <trkpt lat="38.875363" lon="-1.280238">
        <ele>840.059956</ele>
        <time>2020-08-04T06:47:19.430Z</time>
      </trkpt>
      <trkpt lat="38.875347" lon="-1.280406">
        <ele>840.183920</ele>
        <time>2020-08-04T06:47:22.434Z</time>
      </trkpt>
      <trkpt lat="38.875325" lon="-1.280575">
        <ele>840.309418</ele>
        <time>2020-08-04T06:47:25.433Z</time>
      </trkpt>
      <trkpt lat="38.875311" lon="-1.280690">
        <ele>840.394670</ele>
        <time>2020-08-04T06:47:27.440Z</time>
      </trkpt>
      <trkpt lat="38.875307" lon="-1.280838">
        <ele>840.503134</ele>
        <time>2020-08-04T06:47:30.437Z</time>
      </trkpt>
      <trkpt lat="38.875306" lon="-1.280983">
        <ele>840.609339</ele>
        <time>2020-08-04T06:47:33.441Z</time>
      </trkpt>
      <trkpt lat="38.875287" lon="-1.281125">
        <ele>840.714868</ele>
        <time>2020-08-04T06:47:36.456Z</time>
      </trkpt>
      <trkpt lat="38.875266" lon="-1.281274">
        <ele>840.825773</ele>
        <time>2020-08-04T06:47:39.446Z</time>
      </trkpt>
      <trkpt lat="38.875252" lon="-1.281414">
        <ele>840.929154</ele>
        <time>2020-08-04T06:47:42.442Z</time>
      </trkpt>
      <trkpt lat="38.875239" lon="-1.281559">
        <ele>841.036058</ele>
        <time>2020-08-04T06:47:45.445Z</time>
      </trkpt>
      <trkpt lat="38.875229" lon="-1.281689">
        <ele>841.131736</ele>
        <time>2020-08-04T06:47:48.444Z</time>
      </trkpt>
      <trkpt lat="38.875228" lon="-1.281814">
        <ele>841.223294</ele>
        <time>2020-08-04T06:47:51.446Z</time>
      </trkpt>
      <trkpt lat="38.875223" lon="-1.281940">
        <ele>841.315699</ele>
        <time>2020-08-04T06:47:54.446Z</time>
      </trkpt>
      <trkpt lat="38.875216" lon="-1.282076">
        <ele>841.415526</ele>
        <time>2020-08-04T06:47:57.435Z</time>
      </trkpt>
      <trkpt lat="38.875208" lon="-1.282215">
        <ele>841.517610</ele>
        <time>2020-08-04T06:48:00.432Z</time>
      </trkpt>
      <trkpt lat="38.875205" lon="-1.282358">
        <ele>841.506397</ele>
        <time>2020-08-04T06:48:03.441Z</time>
      </trkpt>
      <trkpt lat="38.875200" lon="-1.282503">
        <ele>841.436504</ele>
        <time>2020-08-04T06:48:06.439Z</time>
      </trkpt>
      <trkpt lat="38.875198" lon="-1.282633">
        <ele>841.373890</ele>
        <time>2020-08-04T06:48:09.436Z</time>
      </trkpt>
      <trkpt lat="38.875193" lon="-1.282761">
        <ele>841.312173</ele>
        <time>2020-08-04T06:48:12.443Z</time>
      </trkpt>
      <trkpt lat="38.875185" lon="-1.282911">
        <ele>841.239771</ele>
        <time>2020-08-04T06:48:15.445Z</time>
      </trkpt>
      <trkpt lat="38.875172" lon="-1.283028">
        <ele>841.182859</ele>
        <time>2020-08-04T06:48:17.426Z</time>
      </trkpt>
      <trkpt lat="38.875165" lon="-1.283189">
        <ele>841.105208</ele>
        <time>2020-08-04T06:48:19.430Z</time>
      </trkpt>
      <trkpt lat="38.875154" lon="-1.283320">
        <ele>841.041759</ele>
        <time>2020-08-04T06:48:21.441Z</time>
      </trkpt>
      <trkpt lat="38.875156" lon="-1.283447">
        <ele>840.980590</ele>
        <time>2020-08-04T06:48:23.424Z</time>
      </trkpt>
      <trkpt lat="38.875140" lon="-1.283584">
        <ele>840.913879</ele>
        <time>2020-08-04T06:48:25.453Z</time>
      </trkpt>
      <trkpt lat="38.875119" lon="-1.283702">
        <ele>840.855590</ele>
        <time>2020-08-04T06:48:27.445Z</time>
      </trkpt>
      <trkpt lat="38.875094" lon="-1.283844">
        <ele>840.785483</ele>
        <time>2020-08-04T06:48:29.441Z</time>
      </trkpt>
      <trkpt lat="38.875078" lon="-1.283978">
        <ele>840.720200</ele>
        <time>2020-08-04T06:48:31.438Z</time>
      </trkpt>
      <trkpt lat="38.875073" lon="-1.284099">
        <ele>840.661850</ele>
        <time>2020-08-04T06:48:33.438Z</time>
      </trkpt>
      <trkpt lat="38.875053" lon="-1.284219">
        <ele>840.602755</ele>
        <time>2020-08-04T06:48:35.431Z</time>
      </trkpt>
      <trkpt lat="38.875055" lon="-1.284357">
        <ele>840.536289</ele>
        <time>2020-08-04T06:48:38.452Z</time>
      </trkpt>
      <trkpt lat="38.875032" lon="-1.284475">
        <ele>840.477712</ele>
        <time>2020-08-04T06:48:40.447Z</time>
      </trkpt>
      <trkpt lat="38.875024" lon="-1.284598">
        <ele>840.591503</ele>
        <time>2020-08-04T06:48:42.426Z</time>
      </trkpt>
      <trkpt lat="38.875036" lon="-1.284771">
        <ele>841.179303</ele>
        <time>2020-08-04T06:48:45.437Z</time>
      </trkpt>
      <trkpt lat="38.875031" lon="-1.284893">
        <ele>841.592757</ele>
        <time>2020-08-04T06:48:47.443Z</time>
      </trkpt>
      <trkpt lat="38.875030" lon="-1.285010">
        <ele>841.988741</ele>
        <time>2020-08-04T06:48:49.446Z</time>
      </trkpt>
      <trkpt lat="38.875008" lon="-1.285168">
        <ele>842.531942</ele>
        <time>2020-08-04T06:48:52.448Z</time>
      </trkpt>
      <trkpt lat="38.874995" lon="-1.285306">
        <ele>843.002380</ele>
        <time>2020-08-04T06:48:55.437Z</time>
      </trkpt>
      <trkpt lat="38.875004" lon="-1.285433">
        <ele>843.433960</ele>
        <time>2020-08-04T06:48:58.439Z</time>
      </trkpt>
      <trkpt lat="38.874986" lon="-1.285576">
        <ele>843.924197</ele>
        <time>2020-08-04T06:49:01.421Z</time>
      </trkpt>
      <trkpt lat="38.874981" lon="-1.285708">
        <ele>844.371451</ele>
        <time>2020-08-04T06:49:04.446Z</time>
      </trkpt>
      <trkpt lat="38.874975" lon="-1.285837">
        <ele>844.808802</ele>
        <time>2020-08-04T06:49:07.434Z</time>
      </trkpt>
      <trkpt lat="38.874963" lon="-1.285965">
        <ele>845.245119</ele>
        <time>2020-08-04T06:49:10.450Z</time>
      </trkpt>
      <trkpt lat="38.874966" lon="-1.286082">
        <ele>845.641295</ele>
        <time>2020-08-04T06:49:13.439Z</time>
      </trkpt>
      <trkpt lat="38.874966" lon="-1.286201">
        <ele>846.044025</ele>
        <time>2020-08-04T06:49:16.441Z</time>
      </trkpt>
      <trkpt lat="38.874959" lon="-1.286324">
        <ele>846.461402</ele>
        <time>2020-08-04T06:49:19.440Z</time>
      </trkpt>
      <trkpt lat="38.874945" lon="-1.286461">
        <ele>846.929026</ele>
        <time>2020-08-04T06:49:22.450Z</time>
      </trkpt>
      <trkpt lat="38.874928" lon="-1.286594">
        <ele>847.385162</ele>
        <time>2020-08-04T06:49:25.442Z</time>
      </trkpt>
      <trkpt lat="38.874904" lon="-1.286725">
        <ele>847.840614</ele>
        <time>2020-08-04T06:49:28.443Z</time>
      </trkpt>
      <trkpt lat="38.874883" lon="-1.286859">
        <ele>848.261938</ele>
        <time>2020-08-04T06:49:31.440Z</time>
      </trkpt>
      <trkpt lat="38.874853" lon="-1.286990">
        <ele>848.295472</ele>
        <time>2020-08-04T06:49:34.436Z</time>
      </trkpt>
      <trkpt lat="38.874835" lon="-1.287119">
        <ele>848.327656</ele>
        <time>2020-08-04T06:49:37.451Z</time>
      </trkpt>
      <trkpt lat="38.874819" lon="-1.287248">
        <ele>848.359736</ele>
        <time>2020-08-04T06:49:40.436Z</time>
      </trkpt>
      <trkpt lat="38.874799" lon="-1.287373">
        <ele>848.391075</ele>
        <time>2020-08-04T06:49:43.443Z</time>
      </trkpt>
      <trkpt lat="38.874772" lon="-1.287496">
        <ele>848.422459</ele>
        <time>2020-08-04T06:49:46.448Z</time>
      </trkpt>
      <trkpt lat="38.874755" lon="-1.287630">
        <ele>848.455800</ele>
        <time>2020-08-04T06:49:49.433Z</time>
      </trkpt>
      <trkpt lat="38.874722" lon="-1.287748">
        <ele>848.486592</ele>
        <time>2020-08-04T06:49:52.441Z</time>
      </trkpt>
      <trkpt lat="38.874687" lon="-1.287876">
        <ele>848.519908</ele>
        <time>2020-08-04T06:49:55.436Z</time>
      </trkpt>
      <trkpt lat="38.874655" lon="-1.288010">
        <ele>848.554329</ele>
        <time>2020-08-04T06:49:58.447Z</time>
      </trkpt>
      <trkpt lat="38.874613" lon="-1.288149">
        <ele>848.590946</ele>
        <time>2020-08-04T06:50:01.442Z</time>
      </trkpt>
      <trkpt lat="38.874578" lon="-1.288290">
        <ele>848.627290</ele>
        <time>2020-08-04T06:50:04.441Z</time>
      </trkpt>
      <trkpt lat="38.874534" lon="-1.288427">
        <ele>848.663685</ele>
        <time>2020-08-04T06:50:07.441Z</time>
      </trkpt>
      <trkpt lat="38.874485" lon="-1.288558">
        <ele>848.699377</ele>
        <time>2020-08-04T06:50:10.458Z</time>
      </trkpt>
      <trkpt lat="38.874447" lon="-1.288685">
        <ele>848.732790</ele>
        <time>2020-08-04T06:50:13.445Z</time>
      </trkpt>
      <trkpt lat="38.874409" lon="-1.288816">
        <ele>848.767121</ele>
        <time>2020-08-04T06:50:16.442Z</time>
      </trkpt>
      <trkpt lat="38.874356" lon="-1.288941">
        <ele>848.802076</ele>
        <time>2020-08-04T06:50:19.445Z</time>
      </trkpt>
      <trkpt lat="38.874296" lon="-1.289055">
        <ele>848.798828</ele>
        <time>2020-08-04T06:50:22.434Z</time>
      </trkpt>
      <trkpt lat="38.874269" lon="-1.289179">
        <ele>848.710799</ele>
        <time>2020-08-04T06:50:25.445Z</time>
      </trkpt>
      <trkpt lat="38.874241" lon="-1.289309">
        <ele>848.618582</ele>
        <time>2020-08-04T06:50:28.446Z</time>
      </trkpt>
      <trkpt lat="38.874202" lon="-1.289428">
        <ele>848.530309</ele>
        <time>2020-08-04T06:50:31.450Z</time>
      </trkpt>
      <trkpt lat="38.874165" lon="-1.289554">
        <ele>848.438242</ele>
        <time>2020-08-04T06:50:34.451Z</time>
      </trkpt>
      <trkpt lat="38.874125" lon="-1.289678">
        <ele>848.346476</ele>
        <time>2020-08-04T06:50:37.443Z</time>
      </trkpt>
      <trkpt lat="38.874086" lon="-1.289802">
        <ele>848.255043</ele>
        <time>2020-08-04T06:50:40.455Z</time>
      </trkpt>
      <trkpt lat="38.874051" lon="-1.289913">
        <ele>848.173167</ele>
        <time>2020-08-04T06:50:43.453Z</time>
      </trkpt>
      <trkpt lat="38.874016" lon="-1.290021">
        <ele>848.093188</ele>
        <time>2020-08-04T06:50:46.452Z</time>
      </trkpt>
      <trkpt lat="38.873971" lon="-1.290157">
        <ele>847.992158</ele>
        <time>2020-08-04T06:50:50.446Z</time>
      </trkpt>
      <trkpt lat="38.873923" lon="-1.290293">
        <ele>847.890069</ele>
        <time>2020-08-04T06:50:54.447Z</time>
      </trkpt>
      <trkpt lat="38.873884" lon="-1.290402">
        <ele>847.808054</ele>
        <time>2020-08-04T06:50:57.443Z</time>
      </trkpt>
      <trkpt lat="38.873828" lon="-1.290510">
        <ele>847.719339</ele>
        <time>2020-08-04T06:51:00.448Z</time>
      </trkpt>
      <trkpt lat="38.873768" lon="-1.290639">
        <ele>847.616603</ele>
        <time>2020-08-04T06:51:03.426Z</time>
      </trkpt>
      <trkpt lat="38.873713" lon="-1.290748">
        <ele>847.527799</ele>
        <time>2020-08-04T06:51:05.440Z</time>
      </trkpt>
      <trkpt lat="38.873666" lon="-1.290852">
        <ele>847.445584</ele>
        <time>2020-08-04T06:51:07.445Z</time>
      </trkpt>
      <trkpt lat="38.873647" lon="-1.290967">
        <ele>847.365210</ele>
        <time>2020-08-04T06:51:09.432Z</time>
      </trkpt>
      <trkpt lat="38.873582" lon="-1.291078">
        <ele>847.270250</ele>
        <time>2020-08-04T06:51:11.440Z</time>
      </trkpt>
      <trkpt lat="38.873549" lon="-1.291201">
        <ele>847.516089</ele>
        <time>2020-08-04T06:51:14.444Z</time>
      </trkpt>
      <trkpt lat="38.873493" lon="-1.291333">
        <ele>847.940538</ele>
        <time>2020-08-04T06:51:18.441Z</time>
      </trkpt>
      <trkpt lat="38.873462" lon="-1.291442">
        <ele>848.268195</ele>
        <time>2020-08-04T06:51:21.438Z</time>
      </trkpt>
      <trkpt lat="38.873426" lon="-1.291577">
        <ele>848.671111</ele>
        <time>2020-08-04T06:51:24.451Z</time>
      </trkpt>
      <trkpt lat="38.873394" lon="-1.291716">
        <ele>849.080381</ele>
        <time>2020-08-04T06:51:27.440Z</time>
      </trkpt>
      <trkpt lat="38.873339" lon="-1.291847">
        <ele>849.500620</ele>
        <time>2020-08-04T06:51:30.445Z</time>
      </trkpt>
      <trkpt lat="38.873280" lon="-1.291971">
        <ele>849.910947</ele>
        <time>2020-08-04T06:51:33.444Z</time>
      </trkpt>
      <trkpt lat="38.873225" lon="-1.292082">
        <ele>850.282451</ele>
        <time>2020-08-04T06:51:36.447Z</time>
      </trkpt>
      <trkpt lat="38.873179" lon="-1.292184">
        <ele>850.615282</ele>
        <time>2020-08-04T06:51:39.460Z</time>
      </trkpt>
      <trkpt lat="38.873147" lon="-1.292330">
        <ele>851.043543</ele>
        <time>2020-08-04T06:51:43.448Z</time>
      </trkpt>
      <trkpt lat="38.873115" lon="-1.292475">
        <ele>851.469087</ele>
        <time>2020-08-04T06:51:47.448Z</time>
      </trkpt>
      <trkpt lat="38.873085" lon="-1.292590">
        <ele>851.811538</ele>
        <time>2020-08-04T06:51:50.453Z</time>
      </trkpt>
      <trkpt lat="38.873062" lon="-1.292727">
        <ele>852.207254</ele>
        <time>2020-08-04T06:51:54.445Z</time>
      </trkpt>
      <trkpt lat="38.873044" lon="-1.292856">
        <ele>852.577295</ele>
        <time>2020-08-04T06:51:58.442Z</time>
      </trkpt>
      <trkpt lat="38.873024" lon="-1.292970">
        <ele>852.907250</ele>
        <time>2020-08-04T06:52:02.445Z</time>
      </trkpt>
      <trkpt lat="38.872999" lon="-1.293086">
        <ele>853.247099</ele>
        <time>2020-08-04T06:52:06.442Z</time>
      </trkpt>
      <trkpt lat="38.872965" lon="-1.293196">
        <ele>853.581271</ele>
        <time>2020-08-04T06:52:10.434Z</time>
      </trkpt>
      <trkpt lat="38.872934" lon="-1.293309">
        <ele>853.973863</ele>
        <time>2020-08-04T06:52:14.450Z</time>
      </trkpt>
      <trkpt lat="38.872909" lon="-1.293426">
        <ele>854.440601</ele>
        <time>2020-08-04T06:52:18.447Z</time>
      </trkpt>
      <trkpt lat="38.872889" lon="-1.293542">
        <ele>854.897660</ele>
        <time>2020-08-04T06:52:22.441Z</time>
      </trkpt>
      <trkpt lat="38.872866" lon="-1.293680">
        <ele>855.440568</ele>
        <time>2020-08-04T06:52:27.447Z</time>
      </trkpt>
      <trkpt lat="38.872831" lon="-1.293793">
        <ele>855.908414</ele>
        <time>2020-08-04T06:52:31.445Z</time>
      </trkpt>
      <trkpt lat="38.872794" lon="-1.293928">
        <ele>856.458994</ele>
        <time>2020-08-04T06:52:36.469Z</time>
      </trkpt>
      <trkpt lat="38.872776" lon="-1.294062">
        <ele>856.982104</ele>
        <time>2020-08-04T06:52:41.437Z</time>
      </trkpt>
      <trkpt lat="38.872760" lon="-1.294198">
        <ele>857.511231</ele>
        <time>2020-08-04T06:52:46.444Z</time>
      </trkpt>
      <trkpt lat="38.872741" lon="-1.294328">
        <ele>858.020072</ele>
        <time>2020-08-04T06:52:50.460Z</time>
      </trkpt>
      <trkpt lat="38.872725" lon="-1.294443">
        <ele>858.469482</ele>
        <time>2020-08-04T06:52:54.446Z</time>
      </trkpt>
      <trkpt lat="38.872722" lon="-1.294581">
        <ele>859.000570</ele>
        <time>2020-08-04T06:52:59.446Z</time>
      </trkpt>
      <trkpt lat="38.872709" lon="-1.294711">
        <ele>859.504784</ele>
        <time>2020-08-04T06:53:03.440Z</time>
      </trkpt>
      <trkpt lat="38.872693" lon="-1.294831">
        <ele>859.973142</ele>
        <time>2020-08-04T06:53:07.447Z</time>
      </trkpt>
      <trkpt lat="38.872686" lon="-1.294960">
        <ele>860.470604</ele>
        <time>2020-08-04T06:53:12.441Z</time>
      </trkpt>
      <trkpt lat="38.872681" lon="-1.295079">
        <ele>860.929060</ele>
        <time>2020-08-04T06:53:16.448Z</time>
      </trkpt>
      <trkpt lat="38.872681" lon="-1.295220">
        <ele>861.471482</ele>
        <time>2020-08-04T06:53:21.443Z</time>
      </trkpt>
      <trkpt lat="38.872688" lon="-1.295369">
        <ele>862.045723</ele>
        <time>2020-08-04T06:53:25.443Z</time>
      </trkpt>
      <trkpt lat="38.872692" lon="-1.295521">
        <ele>862.630796</ele>
        <time>2020-08-04T06:53:29.443Z</time>
      </trkpt>
      <trkpt lat="38.872695" lon="-1.295652">
        <ele>862.902803</ele>
        <time>2020-08-04T06:53:33.443Z</time>
      </trkpt>
      <trkpt lat="38.872681" lon="-1.295801">
        <ele>863.199557</ele>
        <time>2020-08-04T06:53:37.439Z</time>
      </trkpt>
      <trkpt lat="38.872677" lon="-1.295919">
        <ele>863.433098</ele>
        <time>2020-08-04T06:53:40.443Z</time>
      </trkpt>
      <trkpt lat="38.872686" lon="-1.296055">
        <ele>863.702979</ele>
        <time>2020-08-04T06:53:44.442Z</time>
      </trkpt>
      <trkpt lat="38.872693" lon="-1.296188">
        <ele>863.966559</ele>
        <time>2020-08-04T06:53:48.445Z</time>
      </trkpt>
      <trkpt lat="38.872690" lon="-1.296336">
        <ele>864.259297</ele>
        <time>2020-08-04T06:53:52.446Z</time>
      </trkpt>
      <trkpt lat="38.872685" lon="-1.296475">
        <ele>864.534434</ele>
        <time>2020-08-04T06:53:56.445Z</time>
      </trkpt>
      <trkpt lat="38.872676" lon="-1.296613">
        <ele>864.808256</ele>
        <time>2020-08-04T06:54:00.442Z</time>
      </trkpt>
      <trkpt lat="38.872671" lon="-1.296752">
        <ele>865.083392</ele>
        <time>2020-08-04T06:54:04.434Z</time>
      </trkpt>
      <trkpt lat="38.872660" lon="-1.296886">
        <ele>865.349818</ele>
        <time>2020-08-04T06:54:08.445Z</time>
      </trkpt>
      <trkpt lat="38.872668" lon="-1.297025">
        <ele>865.625411</ele>
        <time>2020-08-04T06:54:12.445Z</time>
      </trkpt>
      <trkpt lat="38.872667" lon="-1.297175">
        <ele>865.922016</ele>
        <time>2020-08-04T06:54:16.445Z</time>
      </trkpt>
      <trkpt lat="38.872662" lon="-1.297295">
        <ele>866.159630</ele>
        <time>2020-08-04T06:54:19.442Z</time>
      </trkpt>
      <trkpt lat="38.872653" lon="-1.297432">
        <ele>866.431482</ele>
        <time>2020-08-04T06:54:23.435Z</time>
      </trkpt>
      <trkpt lat="38.872660" lon="-1.297564">
        <ele>866.693089</ele>
        <time>2020-08-04T06:54:27.451Z</time>
      </trkpt>
      <trkpt lat="38.872668" lon="-1.297690">
        <ele>866.943055</ele>
        <time>2020-08-04T06:54:31.446Z</time>
      </trkpt>
      <trkpt lat="38.872671" lon="-1.297811">
        <ele>867.182428</ele>
        <time>2020-08-04T06:54:35.439Z</time>
      </trkpt>
      <trkpt lat="38.872678" lon="-1.297938">
        <ele>866.960987</ele>
        <time>2020-08-04T06:54:39.439Z</time>
      </trkpt>
      <trkpt lat="38.872694" lon="-1.298061">
        <ele>866.648827</ele>
        <time>2020-08-04T06:54:43.454Z</time>
      </trkpt>
      <trkpt lat="38.872693" lon="-1.298189">
        <ele>866.328402</ele>
        <time>2020-08-04T06:54:47.451Z</time>
      </trkpt>
      <trkpt lat="38.872682" lon="-1.298311">
        <ele>866.020971</ele>
        <time>2020-08-04T06:54:51.443Z</time>
      </trkpt>
      <trkpt lat="38.872681" lon="-1.298439">
        <ele>865.700547</ele>
        <time>2020-08-04T06:54:55.439Z</time>
      </trkpt>
      <trkpt lat="38.872683" lon="-1.298574">
        <ele>865.362555</ele>
        <time>2020-08-04T06:54:59.449Z</time>
      </trkpt>
      <trkpt lat="38.872696" lon="-1.298700">
        <ele>865.044395</ele>
        <time>2020-08-04T06:55:03.456Z</time>
      </trkpt>
      <trkpt lat="38.872707" lon="-1.298829">
        <ele>864.719552</ele>
        <time>2020-08-04T06:55:08.444Z</time>
      </trkpt>
      <trkpt lat="38.872693" lon="-1.298943">
        <ele>864.430660</ele>
        <time>2020-08-04T06:55:12.442Z</time>
      </trkpt>
      <trkpt lat="38.872685" lon="-1.299079">
        <ele>864.089256</ele>
        <time>2020-08-04T06:55:17.446Z</time>
      </trkpt>
      <trkpt lat="38.872694" lon="-1.299225">
        <ele>863.722646</ele>
        <time>2020-08-04T06:55:22.438Z</time>
      </trkpt>
      <trkpt lat="38.872702" lon="-1.299348">
        <ele>863.413681</ele>
        <time>2020-08-04T06:55:26.451Z</time>
      </trkpt>
      <trkpt lat="38.872707" lon="-1.299482">
        <ele>863.077868</ele>
        <time>2020-08-04T06:55:30.443Z</time>
      </trkpt>
      <trkpt lat="38.872719" lon="-1.299624">
        <ele>862.720327</ele>
        <time>2020-08-04T06:55:34.438Z</time>
      </trkpt>
      <trkpt lat="38.872730" lon="-1.299782">
        <ele>862.323245</ele>
        <time>2020-08-04T06:55:38.454Z</time>
      </trkpt>
      <trkpt lat="38.872731" lon="-1.299929">
        <ele>861.955262</ele>
        <time>2020-08-04T06:55:41.452Z</time>
      </trkpt>
      <trkpt lat="38.872731" lon="-1.300084">
        <ele>861.567267</ele>
        <time>2020-08-04T06:55:43.441Z</time>
      </trkpt>
      <trkpt lat="38.872737" lon="-1.300248">
        <ele>861.455459</ele>
        <time>2020-08-04T06:55:46.459Z</time>
      </trkpt>
      <trkpt lat="38.872721" lon="-1.300413">
        <ele>861.474607</ele>
        <time>2020-08-04T06:55:49.445Z</time>
      </trkpt>
      <trkpt lat="38.872718" lon="-1.300576">
        <ele>861.493383</ele>
        <time>2020-08-04T06:55:52.444Z</time>
      </trkpt>
      <trkpt lat="38.872713" lon="-1.300743">
        <ele>861.512629</ele>
        <time>2020-08-04T06:55:55.437Z</time>
      </trkpt>
      <trkpt lat="38.872708" lon="-1.300860">
        <ele>861.526123</ele>
        <time>2020-08-04T06:55:57.447Z</time>
      </trkpt>
      <trkpt lat="38.872706" lon="-1.300976">
        <ele>861.539485</ele>
        <time>2020-08-04T06:55:59.443Z</time>
      </trkpt>
      <trkpt lat="38.872708" lon="-1.301148">
        <ele>861.559295</ele>
        <time>2020-08-04T06:56:02.443Z</time>
      </trkpt>
      <trkpt lat="38.872707" lon="-1.301291">
        <ele>861.575763</ele>
        <time>2020-08-04T06:56:04.440Z</time>
      </trkpt>
      <trkpt lat="38.872718" lon="-1.301463">
        <ele>861.595637</ele>
        <time>2020-08-04T06:56:07.444Z</time>
      </trkpt>
      <trkpt lat="38.872719" lon="-1.301606">
        <ele>861.612106</ele>
        <time>2020-08-04T06:56:10.449Z</time>
      </trkpt>
      <trkpt lat="38.872717" lon="-1.301748">
        <ele>861.628461</ele>
        <time>2020-08-04T06:56:13.447Z</time>
      </trkpt>
      <trkpt lat="38.872707" lon="-1.301873">
        <ele>861.642932</ele>
        <time>2020-08-04T06:56:16.446Z</time>
      </trkpt>
      <trkpt lat="38.872698" lon="-1.302020">
        <ele>861.659913</ele>
        <time>2020-08-04T06:56:19.452Z</time>
      </trkpt>
      <trkpt lat="38.872686" lon="-1.302161">
        <ele>861.676247</ele>
        <time>2020-08-04T06:56:22.445Z</time>
      </trkpt>
      <trkpt lat="38.872694" lon="-1.302307">
        <ele>861.693102</ele>
        <time>2020-08-04T06:56:25.448Z</time>
      </trkpt>
      <trkpt lat="38.872694" lon="-1.302461">
        <ele>861.763180</ele>
        <time>2020-08-04T06:56:28.451Z</time>
      </trkpt>
      <trkpt lat="38.872688" lon="-1.302608">
        <ele>862.137137</ele>
        <time>2020-08-04T06:56:31.447Z</time>
      </trkpt>
      <trkpt lat="38.872682" lon="-1.302751">
        <ele>862.500947</ele>
        <time>2020-08-04T06:56:34.457Z</time>
      </trkpt>
      <trkpt lat="38.872691" lon="-1.302901">
        <ele>862.883143</ele>
        <time>2020-08-04T06:56:37.446Z</time>
      </trkpt>
      <trkpt lat="38.872698" lon="-1.303061">
        <ele>863.290255</ele>
        <time>2020-08-04T06:56:40.447Z</time>
      </trkpt>
      <trkpt lat="38.872694" lon="-1.303200">
        <ele>863.643617</ele>
        <time>2020-08-04T06:56:43.452Z</time>
      </trkpt>
      <trkpt lat="38.872698" lon="-1.303328">
        <ele>863.969055</ele>
        <time>2020-08-04T06:56:46.440Z</time>
      </trkpt>
      <trkpt lat="38.872700" lon="-1.303470">
        <ele>864.329857</ele>
        <time>2020-08-04T06:56:49.442Z</time>
      </trkpt>
      <trkpt lat="38.872688" lon="-1.303627">
        <ele>864.730623</ele>
        <time>2020-08-04T06:56:52.450Z</time>
      </trkpt>
      <trkpt lat="38.872680" lon="-1.303756">
        <ele>865.059378</ele>
        <time>2020-08-04T06:56:55.446Z</time>
      </trkpt>
      <trkpt lat="38.872691" lon="-1.303879">
        <ele>865.373907</ele>
        <time>2020-08-04T06:56:58.445Z</time>
      </trkpt>
      <trkpt lat="38.872711" lon="-1.304000">
        <ele>865.688151</ele>
        <time>2020-08-04T06:57:02.436Z</time>
      </trkpt>
      <trkpt lat="38.872721" lon="-1.304122">
        <ele>865.999798</ele>
        <time>2020-08-04T06:57:06.444Z</time>
      </trkpt>
      <trkpt lat="38.872721" lon="-1.304252">
        <ele>866.330055</ele>
        <time>2020-08-04T06:57:10.438Z</time>
      </trkpt>
      <trkpt lat="38.872719" lon="-1.304392">
        <ele>866.685776</ele>
        <time>2020-08-04T06:57:14.445Z</time>
      </trkpt>
      <trkpt lat="38.872720" lon="-1.304527">
        <ele>867.028751</ele>
        <time>2020-08-04T06:57:18.446Z</time>
      </trkpt>
      <trkpt lat="38.872718" lon="-1.304648">
        <ele>867.336213</ele>
        <time>2020-08-04T06:57:22.441Z</time>
      </trkpt>
      <trkpt lat="38.872716" lon="-1.304785">
        <ele>867.663280</ele>
        <time>2020-08-04T06:57:27.444Z</time>
      </trkpt>
      <trkpt lat="38.872716" lon="-1.304910">
        <ele>867.918325</ele>
        <time>2020-08-04T06:57:31.445Z</time>
      </trkpt>
      <trkpt lat="38.872719" lon="-1.305038">
        <ele>868.179610</ele>
        <time>2020-08-04T06:57:35.433Z</time>
      </trkpt>
      <trkpt lat="38.872717" lon="-1.305157">
        <ele>868.422471</ele>
        <time>2020-08-04T06:57:39.444Z</time>
      </trkpt>
      <trkpt lat="38.872709" lon="-1.305274">
        <ele>868.662112</ele>
        <time>2020-08-04T06:57:43.444Z</time>
      </trkpt>
      <trkpt lat="38.872694" lon="-1.305396">
        <ele>868.914122</ele>
        <time>2020-08-04T06:57:47.449Z</time>
      </trkpt>
      <trkpt lat="38.872676" lon="-1.305517">
        <ele>869.165473</ele>
        <time>2020-08-04T06:57:51.440Z</time>
      </trkpt>
      <trkpt lat="38.872675" lon="-1.305654">
        <ele>869.445015</ele>
        <time>2020-08-04T06:57:56.443Z</time>
      </trkpt>
      <trkpt lat="38.872679" lon="-1.305797">
        <ele>869.736976</ele>
        <time>2020-08-04T06:58:01.446Z</time>
      </trkpt>
      <trkpt lat="38.872683" lon="-1.305935">
        <ele>870.018742</ele>
        <time>2020-08-04T06:58:06.447Z</time>
      </trkpt>
      <trkpt lat="38.872684" lon="-1.306055">
        <ele>870.263600</ele>
        <time>2020-08-04T06:58:10.443Z</time>
      </trkpt>
      <trkpt lat="38.872681" lon="-1.306174">
        <ele>870.506531</ele>
        <time>2020-08-04T06:58:14.443Z</time>
      </trkpt>
      <trkpt lat="38.872677" lon="-1.306308">
        <ele>870.780141</ele>
        <time>2020-08-04T06:58:18.448Z</time>
      </trkpt>
      <trkpt lat="38.872686" lon="-1.306424">
        <ele>871.017996</ele>
        <time>2020-08-04T06:58:22.451Z</time>
      </trkpt>
      <trkpt lat="38.872683" lon="-1.306566">
        <ele>871.307834</ele>
        <time>2020-08-04T06:58:27.446Z</time>
      </trkpt>
      <trkpt lat="38.872681" lon="-1.306700">
        <ele>871.581294</ele>
        <time>2020-08-04T06:58:32.432Z</time>
      </trkpt>
      <trkpt lat="38.872674" lon="-1.306844">
        <ele>871.875679</ele>
        <time>2020-08-04T06:58:36.442Z</time>
      </trkpt>
      <trkpt lat="38.872674" lon="-1.306963">
        <ele>872.118483</ele>
        <time>2020-08-04T06:58:40.448Z</time>
      </trkpt>
      <trkpt lat="38.872695" lon="-1.307086">
        <ele>872.426429</ele>
        <time>2020-08-04T06:58:44.444Z</time>
      </trkpt>
      <trkpt lat="38.872698" lon="-1.307224">
        <ele>872.878861</ele>
        <time>2020-08-04T06:58:49.455Z</time>
      </trkpt>
      <trkpt lat="38.872692" lon="-1.307352">
        <ele>873.299105</ele>
        <time>2020-08-04T06:58:54.428Z</time>
      </trkpt>
      <trkpt lat="38.872698" lon="-1.307477">
        <ele>873.709536</ele>
        <time>2020-08-04T06:58:59.443Z</time>
      </trkpt>
      <trkpt lat="38.872705" lon="-1.307615">
        <ele>874.162752</ele>
        <time>2020-08-04T06:59:03.444Z</time>
      </trkpt>
      <trkpt lat="38.872697" lon="-1.307735">
        <ele>874.557457</ele>
        <time>2020-08-04T06:59:06.439Z</time>
      </trkpt>
      <trkpt lat="38.872696" lon="-1.307855">
        <ele>874.950746</ele>
        <time>2020-08-04T06:59:09.444Z</time>
      </trkpt>
      <trkpt lat="38.872687" lon="-1.308004">
        <ele>875.440520</ele>
        <time>2020-08-04T06:59:13.442Z</time>
      </trkpt>
      <trkpt lat="38.872689" lon="-1.308132">
        <ele>875.860089</ele>
        <time>2020-08-04T06:59:17.447Z</time>
      </trkpt>
      <trkpt lat="38.872708" lon="-1.308248">
        <ele>876.248569</ele>
        <time>2020-08-04T06:59:21.440Z</time>
      </trkpt>
      <trkpt lat="38.872720" lon="-1.308391">
        <ele>876.719926</ele>
        <time>2020-08-04T06:59:26.443Z</time>
      </trkpt>
      <trkpt lat="38.872752" lon="-1.308516">
        <ele>877.151156</ele>
        <time>2020-08-04T06:59:31.436Z</time>
      </trkpt>
      <trkpt lat="38.872777" lon="-1.308656">
        <ele>877.621881</ele>
        <time>2020-08-04T06:59:36.437Z</time>
      </trkpt>
      <trkpt lat="38.872804" lon="-1.308784">
        <ele>878.056489</ele>
        <time>2020-08-04T06:59:40.446Z</time>
      </trkpt>
      <trkpt lat="38.872821" lon="-1.308909">
        <ele>878.472344</ele>
        <time>2020-08-04T06:59:45.446Z</time>
      </trkpt>
      <trkpt lat="38.872856" lon="-1.309041">
        <ele>878.929337</ele>
        <time>2020-08-04T06:59:50.456Z</time>
      </trkpt>
      <trkpt lat="38.872892" lon="-1.309171">
        <ele>879.381523</ele>
        <time>2020-08-04T06:59:55.441Z</time>
      </trkpt>
      <trkpt lat="38.872927" lon="-1.309298">
        <ele>879.823036</ele>
        <time>2020-08-04T07:00:00.444Z</time>
      </trkpt>
      <trkpt lat="38.872964" lon="-1.309427">
        <ele>880.115952</ele>
        <time>2020-08-04T07:00:05.433Z</time>
      </trkpt>
      <trkpt lat="38.873017" lon="-1.309551">
        <ele>880.401774</ele>
        <time>2020-08-04T07:00:10.444Z</time>
      </trkpt>
      <trkpt lat="38.873031" lon="-1.309667">
        <ele>880.638956</ele>
        <time>2020-08-04T07:00:14.452Z</time>
      </trkpt>
      <trkpt lat="38.873048" lon="-1.309795">
        <ele>880.901321</ele>
        <time>2020-08-04T07:00:18.444Z</time>
      </trkpt>
      <trkpt lat="38.873072" lon="-1.309922">
        <ele>881.165381</ele>
        <time>2020-08-04T07:00:22.447Z</time>
      </trkpt>
      <trkpt lat="38.873120" lon="-1.310035">
        <ele>881.425476</ele>
        <time>2020-08-04T07:00:26.439Z</time>
      </trkpt>
      <trkpt lat="38.873171" lon="-1.310153">
        <ele>881.698175</ele>
        <time>2020-08-04T07:00:30.443Z</time>
      </trkpt>
      <trkpt lat="38.873203" lon="-1.310261">
        <ele>881.931662</ele>
        <time>2020-08-04T07:00:33.449Z</time>
      </trkpt>
      <trkpt lat="38.873240" lon="-1.310397">
        <ele>882.222750</ele>
        <time>2020-08-04T07:00:37.443Z</time>
      </trkpt>
      <trkpt lat="38.873289" lon="-1.310511">
        <ele>882.485864</ele>
        <time>2020-08-04T07:00:41.449Z</time>
      </trkpt>
      <trkpt lat="38.873331" lon="-1.310631">
        <ele>882.751702</ele>
        <time>2020-08-04T07:00:45.446Z</time>
      </trkpt>
      <trkpt lat="38.873390" lon="-1.310763">
        <ele>883.059242</ele>
        <time>2020-08-04T07:00:49.441Z</time>
      </trkpt>
      <trkpt lat="38.873435" lon="-1.310864">
        <ele>883.294371</ele>
        <time>2020-08-04T07:00:52.444Z</time>
      </trkpt>
      <trkpt lat="38.873497" lon="-1.310986">
        <ele>883.588745</ele>
        <time>2020-08-04T07:00:56.449Z</time>
      </trkpt>
      <trkpt lat="38.873539" lon="-1.311121">
        <ele>883.882489</ele>
        <time>2020-08-04T07:01:00.447Z</time>
      </trkpt>
      <trkpt lat="38.873580" lon="-1.311251">
        <ele>884.165891</ele>
        <time>2020-08-04T07:01:04.441Z</time>
      </trkpt>
      <trkpt lat="38.873630" lon="-1.311374">
        <ele>884.446254</ele>
        <time>2020-08-04T07:01:08.445Z</time>
      </trkpt>
      <trkpt lat="38.873674" lon="-1.311478">
        <ele>884.971954</ele>
        <time>2020-08-04T07:01:11.440Z</time>
      </trkpt>
      <trkpt lat="38.873736" lon="-1.311597">
        <ele>885.796540</ele>
        <time>2020-08-04T07:01:15.446Z</time>
      </trkpt>
      <trkpt lat="38.873801" lon="-1.311712">
        <ele>886.614920</ele>
        <time>2020-08-04T07:01:19.444Z</time>
      </trkpt>
      <trkpt lat="38.873852" lon="-1.311821">
        <ele>887.347258</ele>
        <time>2020-08-04T07:01:23.451Z</time>
      </trkpt>
      <trkpt lat="38.873894" lon="-1.311948">
        <ele>888.141863</ele>
        <time>2020-08-04T07:01:27.439Z</time>
      </trkpt>
      <trkpt lat="38.873967" lon="-1.312062">
        <ele>888.991896</ele>
        <time>2020-08-04T07:01:31.443Z</time>
      </trkpt>
      <trkpt lat="38.874027" lon="-1.312169">
        <ele>889.751271</ele>
        <time>2020-08-04T07:01:34.436Z</time>
      </trkpt>
      <trkpt lat="38.874071" lon="-1.312293">
        <ele>890.536022</ele>
        <time>2020-08-04T07:01:37.443Z</time>
      </trkpt>
      <trkpt lat="38.874114" lon="-1.312417">
        <ele>891.317734</ele>
        <time>2020-08-04T07:01:40.441Z</time>
      </trkpt>
      <trkpt lat="38.874178" lon="-1.312544">
        <ele>892.188933</ele>
        <time>2020-08-04T07:01:43.444Z</time>
      </trkpt>
      <trkpt lat="38.874255" lon="-1.312678">
        <ele>893.148029</ele>
        <time>2020-08-04T07:01:46.445Z</time>
      </trkpt>
      <trkpt lat="38.874314" lon="-1.312765">
        <ele>893.812458</ele>
        <time>2020-08-04T07:01:48.445Z</time>
      </trkpt>
      <trkpt lat="38.874369" lon="-1.312864">
        <ele>894.512840</ele>
        <time>2020-08-04T07:01:50.445Z</time>
      </trkpt>
      <trkpt lat="38.874425" lon="-1.312964">
        <ele>895.222211</ele>
        <time>2020-08-04T07:01:52.457Z</time>
      </trkpt>
      <trkpt lat="38.874482" lon="-1.313063">
        <ele>895.931287</ele>
        <time>2020-08-04T07:01:54.445Z</time>
      </trkpt>
      <trkpt lat="38.874525" lon="-1.313187">
        <ele>896.712996</ele>
        <time>2020-08-04T07:01:56.452Z</time>
      </trkpt>
      <trkpt lat="38.874565" lon="-1.313291">
        <ele>897.380996</ele>
        <time>2020-08-04T07:01:58.442Z</time>
      </trkpt>
      <trkpt lat="38.874625" lon="-1.313424">
        <ele>898.006009</ele>
        <time>2020-08-04T07:02:01.447Z</time>
      </trkpt>
      <trkpt lat="38.874679" lon="-1.313584">
        <ele>898.404376</ele>
        <time>2020-08-04T07:02:04.446Z</time>
      </trkpt>
      <trkpt lat="38.874743" lon="-1.313697">
        <ele>898.723592</ele>
        <time>2020-08-04T07:02:07.444Z</time>
      </trkpt>
      <trkpt lat="38.874826" lon="-1.313854">
        <ele>899.157113</ele>
        <time>2020-08-04T07:02:10.445Z</time>
      </trkpt>
      <trkpt lat="38.874878" lon="-1.313966">
        <ele>899.455005</ele>
        <time>2020-08-04T07:02:12.455Z</time>
      </trkpt>
      <trkpt lat="38.874927" lon="-1.314085">
        <ele>899.762525</ele>
        <time>2020-08-04T07:02:14.453Z</time>
      </trkpt>
      <trkpt lat="38.874989" lon="-1.314238">
        <ele>900.156545</ele>
        <time>2020-08-04T07:02:17.453Z</time>
      </trkpt>
      <trkpt lat="38.875053" lon="-1.314390">
        <ele>900.551298</ele>
        <time>2020-08-04T07:02:20.444Z</time>
      </trkpt>
      <trkpt lat="38.875114" lon="-1.314524">
        <ele>900.905892</ele>
        <time>2020-08-04T07:02:23.442Z</time>
      </trkpt>
      <trkpt lat="38.875169" lon="-1.314663">
        <ele>901.262077</ele>
        <time>2020-08-04T07:02:26.443Z</time>
      </trkpt>
      <trkpt lat="38.875212" lon="-1.314771">
        <ele>901.539179</ele>
        <time>2020-08-04T07:02:28.431Z</time>
      </trkpt>
      <trkpt lat="38.875298" lon="-1.314892">
        <ele>901.913450</ele>
        <time>2020-08-04T07:02:31.450Z</time>
      </trkpt>
      <trkpt lat="38.875349" lon="-1.315024">
        <ele>902.250077</ele>
        <time>2020-08-04T07:02:34.438Z</time>
      </trkpt>
      <trkpt lat="38.875401" lon="-1.315176">
        <ele>902.629344</ele>
        <time>2020-08-04T07:02:37.445Z</time>
      </trkpt>
      <trkpt lat="38.875428" lon="-1.315325">
        <ele>902.978811</ele>
        <time>2020-08-04T07:02:39.440Z</time>
      </trkpt>
      <trkpt lat="38.875458" lon="-1.315439">
        <ele>903.313759</ele>
        <time>2020-08-04T07:02:41.444Z</time>
      </trkpt>
      <trkpt lat="38.875506" lon="-1.315571">
        <ele>903.788217</ele>
        <time>2020-08-04T07:02:44.440Z</time>
      </trkpt>
      <trkpt lat="38.875535" lon="-1.315702">
        <ele>904.231749</ele>
        <time>2020-08-04T07:06:43.441Z</time>
      </trkpt>
      <trkpt lat="38.875546" lon="-1.315859">
        <ele>904.745107</ele>
        <time>2020-08-04T07:06:46.436Z</time>
      </trkpt>
      <trkpt lat="38.875530" lon="-1.315990">
        <ele>905.176944</ele>
        <time>2020-08-04T07:06:48.442Z</time>
      </trkpt>
      <trkpt lat="38.875523" lon="-1.316107">
        <ele>905.559094</ele>
        <time>2020-08-04T07:06:50.430Z</time>
      </trkpt>
      <trkpt lat="38.875507" lon="-1.316259">
        <ele>906.058607</ele>
        <time>2020-08-04T07:06:53.436Z</time>
      </trkpt>
      <trkpt lat="38.875478" lon="-1.316402">
        <ele>906.539847</ele>
        <time>2020-08-04T07:06:56.443Z</time>
      </trkpt>
      <trkpt lat="38.875456" lon="-1.316538">
        <ele>906.992210</ele>
        <time>2020-08-04T07:06:59.445Z</time>
      </trkpt>
      <trkpt lat="38.875431" lon="-1.316670">
        <ele>907.434624</ele>
        <time>2020-08-04T07:07:02.442Z</time>
      </trkpt>
      <trkpt lat="38.875405" lon="-1.316785">
        <ele>907.824611</ele>
        <time>2020-08-04T07:07:05.442Z</time>
      </trkpt>
      <trkpt lat="38.875393" lon="-1.316901">
        <ele>908.205702</ele>
        <time>2020-08-04T07:07:08.443Z</time>
      </trkpt>
      <trkpt lat="38.875398" lon="-1.317017">
        <ele>908.584051</ele>
        <time>2020-08-04T07:07:11.446Z</time>
      </trkpt>
      <trkpt lat="38.875387" lon="-1.317141">
        <ele>908.990487</ele>
        <time>2020-08-04T07:07:14.445Z</time>
      </trkpt>
      <trkpt lat="38.875361" lon="-1.317278">
        <ele>909.449713</ele>
        <time>2020-08-04T07:07:17.449Z</time>
      </trkpt>
      <trkpt lat="38.875335" lon="-1.317403">
        <ele>909.871072</ele>
        <time>2020-08-04T07:07:20.442Z</time>
      </trkpt>
      <trkpt lat="38.875299" lon="-1.317529">
        <ele>910.308171</ele>
        <time>2020-08-04T07:07:23.444Z</time>
      </trkpt>
      <trkpt lat="38.875243" lon="-1.317639">
        <ele>910.560689</ele>
        <time>2020-08-04T07:07:26.444Z</time>
      </trkpt>
      <trkpt lat="38.875180" lon="-1.317761">
        <ele>910.197231</ele>
        <time>2020-08-04T07:07:29.444Z</time>
      </trkpt>
      <trkpt lat="38.875117" lon="-1.317882">
        <ele>909.835839</ele>
        <time>2020-08-04T07:07:32.444Z</time>
      </trkpt>
      <trkpt lat="38.875046" lon="-1.317989">
        <ele>909.486795</ele>
        <time>2020-08-04T07:07:35.442Z</time>
      </trkpt>
      <trkpt lat="38.874989" lon="-1.318108">
        <ele>909.139918</ele>
        <time>2020-08-04T07:07:39.439Z</time>
      </trkpt>
      <trkpt lat="38.874965" lon="-1.318248">
        <ele>908.784018</ele>
        <time>2020-08-04T07:07:43.436Z</time>
      </trkpt>
      <trkpt lat="38.874962" lon="-1.318390">
        <ele>908.431350</ele>
        <time>2020-08-04T07:07:47.441Z</time>
      </trkpt>
      <trkpt lat="38.874955" lon="-1.318517">
        <ele>908.115262</ele>
        <time>2020-08-04T07:07:50.447Z</time>
      </trkpt>
      <trkpt lat="38.874940" lon="-1.318653">
        <ele>907.774247</ele>
        <time>2020-08-04T07:07:52.438Z</time>
      </trkpt>
      <trkpt lat="38.874924" lon="-1.318781">
        <ele>907.452396</ele>
        <time>2020-08-04T07:07:54.437Z</time>
      </trkpt>
      <trkpt lat="38.874926" lon="-1.318902">
        <ele>907.151925</ele>
        <time>2020-08-04T07:07:56.446Z</time>
      </trkpt>
      <trkpt lat="38.874921" lon="-1.319051">
        <ele>906.781664</ele>
        <time>2020-08-04T07:07:59.441Z</time>
      </trkpt>
      <trkpt lat="38.874885" lon="-1.319159">
        <ele>906.489992</ele>
        <time>2020-08-04T07:08:02.443Z</time>
      </trkpt>
      <trkpt lat="38.874851" lon="-1.319304">
        <ele>906.114031</ele>
        <time>2020-08-04T07:08:06.453Z</time>
      </trkpt>
      <trkpt lat="38.874813" lon="-1.319449">
        <ele>905.734195</ele>
        <time>2020-08-04T07:08:10.439Z</time>
      </trkpt>
      <trkpt lat="38.874817" lon="-1.319591">
        <ele>905.381425</ele>
        <time>2020-08-04T07:08:14.446Z</time>
      </trkpt>
      <trkpt lat="38.874811" lon="-1.319711">
        <ele>905.082890</ele>
        <time>2020-08-04T07:08:17.448Z</time>
      </trkpt>
      <trkpt lat="38.874795" lon="-1.319843">
        <ele>904.772872</ele>
        <time>2020-08-04T07:08:20.444Z</time>
      </trkpt>
      <trkpt lat="38.874767" lon="-1.319972">
        <ele>904.488503</ele>
        <time>2020-08-04T07:08:23.458Z</time>
      </trkpt>
      <trkpt lat="38.874752" lon="-1.320091">
        <ele>904.232525</ele>
        <time>2020-08-04T07:08:26.452Z</time>
      </trkpt>
      <trkpt lat="38.874707" lon="-1.320214">
        <ele>903.943942</ele>
        <time>2020-08-04T07:08:29.429Z</time>
      </trkpt>
      <trkpt lat="38.874635" lon="-1.320362">
        <ele>903.573362</ele>
        <time>2020-08-04T07:08:32.446Z</time>
      </trkpt>
      <trkpt lat="38.874577" lon="-1.320454">
        <ele>903.321987</ele>
        <time>2020-08-04T07:08:34.454Z</time>
      </trkpt>
      <trkpt lat="38.874528" lon="-1.320587">
        <ele>903.009544</ele>
        <time>2020-08-04T07:08:36.445Z</time>
      </trkpt>
      <trkpt lat="38.874498" lon="-1.320727">
        <ele>902.701208</ele>
        <time>2020-08-04T07:08:38.440Z</time>
      </trkpt>
      <trkpt lat="38.874509" lon="-1.320868">
        <ele>902.400305</ele>
        <time>2020-08-04T07:08:40.444Z</time>
      </trkpt>
      <trkpt lat="38.874536" lon="-1.320997">
        <ele>902.116655</ele>
        <time>2020-08-04T07:08:42.434Z</time>
      </trkpt>
      <trkpt lat="38.874512" lon="-1.321120">
        <ele>901.847395</ele>
        <time>2020-08-04T07:08:44.453Z</time>
      </trkpt>
      <trkpt lat="38.874530" lon="-1.321263">
        <ele>901.539801</ele>
        <time>2020-08-04T07:08:47.431Z</time>
      </trkpt>
      <trkpt lat="38.874546" lon="-1.321411">
        <ele>901.222518</ele>
        <time>2020-08-04T07:08:50.445Z</time>
      </trkpt>
      <trkpt lat="38.874537" lon="-1.321526">
        <ele>900.977093</ele>
        <time>2020-08-04T07:08:52.449Z</time>
      </trkpt>
      <trkpt lat="38.874534" lon="-1.321647">
        <ele>900.720028</ele>
        <time>2020-08-04T07:08:55.423Z</time>
      </trkpt>
      <trkpt lat="38.874548" lon="-1.321777">
        <ele>900.441353</ele>
        <time>2020-08-04T07:08:58.445Z</time>
      </trkpt>
      <trkpt lat="38.874562" lon="-1.321899">
        <ele>900.179496</ele>
        <time>2020-08-04T07:09:01.442Z</time>
      </trkpt>
      <trkpt lat="38.874580" lon="-1.322014">
        <ele>900.102459</ele>
        <time>2020-08-04T07:09:04.440Z</time>
      </trkpt>
      <trkpt lat="38.874575" lon="-1.322132">
        <ele>900.520293</ele>
        <time>2020-08-04T07:09:07.430Z</time>
      </trkpt>
      <trkpt lat="38.874553" lon="-1.322263">
        <ele>900.994128</ele>
        <time>2020-08-04T07:09:11.443Z</time>
      </trkpt>
      <trkpt lat="38.874546" lon="-1.322402">
        <ele>901.486622</ele>
        <time>2020-08-04T07:09:16.431Z</time>
      </trkpt>
      <trkpt lat="38.874531" lon="-1.322519">
        <ele>901.905875</ele>
        <time>2020-08-04T07:09:20.425Z</time>
      </trkpt>
      <trkpt lat="38.874519" lon="-1.322659">
        <ele>902.403869</ele>
        <time>2020-08-04T07:09:25.444Z</time>
      </trkpt>
      <trkpt lat="38.874483" lon="-1.322786">
        <ele>902.881746</ele>
        <time>2020-08-04T07:09:30.434Z</time>
      </trkpt>
      <trkpt lat="38.874424" lon="-1.322918">
        <ele>903.419914</ele>
        <time>2020-08-04T07:09:34.439Z</time>
      </trkpt>
      <trkpt lat="38.874383" lon="-1.323038">
        <ele>903.883264</ele>
        <time>2020-08-04T07:09:37.455Z</time>
      </trkpt>
      <trkpt lat="38.874344" lon="-1.323153">
        <ele>904.326778</ele>
        <time>2020-08-04T07:09:40.448Z</time>
      </trkpt>
      <trkpt lat="38.874300" lon="-1.323273">
        <ele>904.795770</ele>
        <time>2020-08-04T07:09:43.445Z</time>
      </trkpt>
      <trkpt lat="38.874269" lon="-1.323384">
        <ele>905.212726</ele>
        <time>2020-08-04T07:09:46.444Z</time>
      </trkpt>
      <trkpt lat="38.874216" lon="-1.323501">
        <ele>905.691341</ele>
        <time>2020-08-04T07:09:49.450Z</time>
      </trkpt>
      <trkpt lat="38.874146" lon="-1.323619">
        <ele>906.215878</ele>
        <time>2020-08-04T07:09:51.446Z</time>
      </trkpt>
      <trkpt lat="38.874103" lon="-1.323725">
        <ele>906.638495</ele>
        <time>2020-08-04T07:09:53.446Z</time>
      </trkpt>
      <trkpt lat="38.874043" lon="-1.323881">
        <ele>907.253712</ele>
        <time>2020-08-04T07:09:56.444Z</time>
      </trkpt>
      <trkpt lat="38.874024" lon="-1.323995">
        <ele>907.665922</ele>
        <time>2020-08-04T07:09:58.436Z</time>
      </trkpt>
      <trkpt lat="38.873970" lon="-1.324104">
        <ele>908.122734</ele>
        <time>2020-08-04T07:10:00.445Z</time>
      </trkpt>
      <trkpt lat="38.873949" lon="-1.324217">
        <ele>908.214060</ele>
        <time>2020-08-04T07:10:02.437Z</time>
      </trkpt>
      <trkpt lat="38.873909" lon="-1.324352">
        <ele>908.283635</ele>
        <time>2020-08-04T07:10:04.442Z</time>
      </trkpt>
      <trkpt lat="38.873875" lon="-1.324481">
        <ele>908.349234</ele>
        <time>2020-08-04T07:10:06.444Z</time>
      </trkpt>
      <trkpt lat="38.873838" lon="-1.324606">
        <ele>908.413647</ele>
        <time>2020-08-04T07:10:08.444Z</time>
      </trkpt>
      <trkpt lat="38.873799" lon="-1.324752">
        <ele>908.487994</ele>
        <time>2020-08-04T07:10:12.463Z</time>
      </trkpt>
      <trkpt lat="38.873773" lon="-1.324895">
        <ele>908.558726</ele>
        <time>2020-08-04T07:10:15.438Z</time>
      </trkpt>
      <trkpt lat="38.873745" lon="-1.325047">
        <ele>908.633961</ele>
        <time>2020-08-04T07:10:19.453Z</time>
      </trkpt>
      <trkpt lat="38.873686" lon="-1.325168">
        <ele>908.702730</ele>
        <time>2020-08-04T07:10:23.447Z</time>
      </trkpt>
      <trkpt lat="38.873619" lon="-1.325277">
        <ele>908.769623</ele>
        <time>2020-08-04T07:10:27.446Z</time>
      </trkpt>
      <trkpt lat="38.873564" lon="-1.325393">
        <ele>908.835042</ele>
        <time>2020-08-04T07:10:31.448Z</time>
      </trkpt>
      <trkpt lat="38.873505" lon="-1.325499">
        <ele>908.897805</ele>
        <time>2020-08-04T07:10:35.438Z</time>
      </trkpt>
      <trkpt lat="38.873454" lon="-1.325606">
        <ele>908.958235</ele>
        <time>2020-08-04T07:10:39.449Z</time>
      </trkpt>
      <trkpt lat="38.873416" lon="-1.325732">
        <ele>909.023320</ele>
        <time>2020-08-04T07:10:43.444Z</time>
      </trkpt>
      <trkpt lat="38.873411" lon="-1.325849">
        <ele>909.079760</ele>
        <time>2020-08-04T07:10:47.445Z</time>
      </trkpt>
      <trkpt lat="38.873408" lon="-1.325972">
        <ele>909.139034</ele>
        <time>2020-08-04T07:10:51.444Z</time>
      </trkpt>
      <trkpt lat="38.873390" lon="-1.326088">
        <ele>909.196007</ele>
        <time>2020-08-04T07:10:55.441Z</time>
      </trkpt>
      <trkpt lat="38.873368" lon="-1.326227">
        <ele>909.264328</ele>
        <time>2020-08-04T07:10:59.442Z</time>
      </trkpt>
      <trkpt lat="38.873349" lon="-1.326344">
        <ele>908.896727</ele>
        <time>2020-08-04T07:11:02.444Z</time>
      </trkpt>
      <trkpt lat="38.873329" lon="-1.326467">
        <ele>908.390708</ele>
        <time>2020-08-04T07:11:05.425Z</time>
      </trkpt>
      <trkpt lat="38.873308" lon="-1.326606">
        <ele>907.820502</ele>
        <time>2020-08-04T07:11:09.436Z</time>
      </trkpt>
      <trkpt lat="38.873282" lon="-1.326719">
        <ele>907.345985</ele>
        <time>2020-08-04T07:11:13.434Z</time>
      </trkpt>
      <trkpt lat="38.873270" lon="-1.326840">
        <ele>906.854771</ele>
        <time>2020-08-04T07:11:17.446Z</time>
      </trkpt>
      <trkpt lat="38.873278" lon="-1.326965">
        <ele>906.349688</ele>
        <time>2020-08-04T07:11:20.440Z</time>
      </trkpt>
      <trkpt lat="38.873297" lon="-1.327082">
        <ele>905.868379</ele>
        <time>2020-08-04T07:11:23.436Z</time>
      </trkpt>
      <trkpt lat="38.873324" lon="-1.327204">
        <ele>905.357611</ele>
        <time>2020-08-04T07:11:26.446Z</time>
      </trkpt>
      <trkpt lat="38.873348" lon="-1.327329">
        <ele>904.839144</ele>
        <time>2020-08-04T07:11:29.447Z</time>
      </trkpt>
      <trkpt lat="38.873388" lon="-1.327457">
        <ele>904.283703</ele>
        <time>2020-08-04T07:11:32.438Z</time>
      </trkpt>
      <trkpt lat="38.873445" lon="-1.327587">
        <ele>903.682868</ele>
        <time>2020-08-04T07:11:35.440Z</time>
      </trkpt>
      <trkpt lat="38.873506" lon="-1.327727">
        <ele>903.036789</ele>
        <time>2020-08-04T07:11:38.444Z</time>
      </trkpt>
      <trkpt lat="38.873567" lon="-1.327850">
        <ele>902.449498</ele>
        <time>2020-08-04T07:11:41.436Z</time>
      </trkpt>
      <trkpt lat="38.873615" lon="-1.328004">
        <ele>901.781476</ele>
        <time>2020-08-04T07:11:44.445Z</time>
      </trkpt>
      <trkpt lat="38.873654" lon="-1.328113">
        <ele>901.298389</ele>
        <time>2020-08-04T07:11:46.447Z</time>
      </trkpt>
      <trkpt lat="38.873708" lon="-1.328244">
        <ele>900.701460</ele>
        <time>2020-08-04T07:11:48.441Z</time>
      </trkpt>
      <trkpt lat="38.873754" lon="-1.328362">
        <ele>900.170025</ele>
        <time>2020-08-04T07:11:50.446Z</time>
      </trkpt>
      <trkpt lat="38.873778" lon="-1.328497">
        <ele>899.784780</ele>
        <time>2020-08-04T07:11:52.448Z</time>
      </trkpt>
      <trkpt lat="38.873805" lon="-1.328639">
        <ele>899.477735</ele>
        <time>2020-08-04T07:11:54.438Z</time>
      </trkpt>
      <trkpt lat="38.873829" lon="-1.328783">
        <ele>899.168403</ele>
        <time>2020-08-04T07:11:56.446Z</time>
      </trkpt>
      <trkpt lat="38.873855" lon="-1.328938">
        <ele>898.835346</ele>
        <time>2020-08-04T07:11:58.444Z</time>
      </trkpt>
      <trkpt lat="38.873892" lon="-1.329096">
        <ele>898.488771</ele>
        <time>2020-08-04T07:12:00.458Z</time>
      </trkpt>
      <trkpt lat="38.873889" lon="-1.329315">
        <ele>898.028680</ele>
        <time>2020-08-04T07:12:02.439Z</time>
      </trkpt>
      <trkpt lat="38.873894" lon="-1.329524">
        <ele>897.589458</ele>
        <time>2020-08-04T07:12:04.441Z</time>
      </trkpt>
      <trkpt lat="38.873900" lon="-1.329703">
        <ele>897.213112</ele>
        <time>2020-08-04T07:12:06.445Z</time>
      </trkpt>
      <trkpt lat="38.873898" lon="-1.329883">
        <ele>896.834976</ele>
        <time>2020-08-04T07:12:08.431Z</time>
      </trkpt>
      <trkpt lat="38.873894" lon="-1.330089">
        <ele>896.402128</ele>
        <time>2020-08-04T07:12:10.442Z</time>
      </trkpt>
      <trkpt lat="38.873900" lon="-1.330298">
        <ele>895.962816</ele>
        <time>2020-08-04T07:12:12.442Z</time>
      </trkpt>
      <trkpt lat="38.873911" lon="-1.330517">
        <ele>895.501840</ele>
        <time>2020-08-04T07:12:14.441Z</time>
      </trkpt>
      <trkpt lat="38.873903" lon="-1.330674">
        <ele>895.171349</ele>
        <time>2020-08-04T07:12:16.439Z</time>
      </trkpt>
      <trkpt lat="38.873916" lon="-1.330875">
        <ele>895.409722</ele>
        <time>2020-08-04T07:12:18.447Z</time>
      </trkpt>
      <trkpt lat="38.873974" lon="-1.331051">
        <ele>895.722414</ele>
        <time>2020-08-04T07:12:20.444Z</time>
      </trkpt>
      <trkpt lat="38.874011" lon="-1.331236">
        <ele>896.034924</ele>
        <time>2020-08-04T07:12:22.433Z</time>
      </trkpt>
      <trkpt lat="38.874091" lon="-1.331411">
        <ele>896.366956</ele>
        <time>2020-08-04T07:12:24.443Z</time>
      </trkpt>
      <trkpt lat="38.874149" lon="-1.331593">
        <ele>896.688710</ele>
        <time>2020-08-04T07:12:26.434Z</time>
      </trkpt>
      <trkpt lat="38.874203" lon="-1.331739">
        <ele>896.953169</ele>
        <time>2020-08-04T07:12:28.440Z</time>
      </trkpt>
      <trkpt lat="38.874263" lon="-1.331911">
        <ele>897.261539</ele>
        <time>2020-08-04T07:12:30.449Z</time>
      </trkpt>
      <trkpt lat="38.874316" lon="-1.332021">
        <ele>897.473189</ele>
        <time>2020-08-04T07:12:32.434Z</time>
      </trkpt>
      <trkpt lat="38.874384" lon="-1.332142">
        <ele>897.717349</ele>
        <time>2020-08-04T07:12:34.441Z</time>
      </trkpt>
      <trkpt lat="38.874442" lon="-1.332238">
        <ele>897.916163</ele>
        <time>2020-08-04T07:12:36.438Z</time>
      </trkpt>
      <trkpt lat="38.874541" lon="-1.332330">
        <ele>898.172957</ele>
        <time>2020-08-04T07:12:39.428Z</time>
      </trkpt>
      <trkpt lat="38.874609" lon="-1.332407">
        <ele>898.363464</ele>
        <time>2020-08-04T07:12:41.450Z</time>
      </trkpt>
      <trkpt lat="38.874686" lon="-1.332515">
        <ele>898.603063</ele>
        <time>2020-08-04T07:12:43.437Z</time>
      </trkpt>
      <trkpt lat="38.874791" lon="-1.332564">
        <ele>898.837838</ele>
        <time>2020-08-04T07:12:46.445Z</time>
      </trkpt>
      <trkpt lat="38.874899" lon="-1.332601">
        <ele>899.251059</ele>
        <time>2020-08-04T07:12:49.438Z</time>
      </trkpt>
      <trkpt lat="38.874916" lon="-1.332734">
        <ele>899.698929</ele>
        <time>2020-08-04T07:12:53.454Z</time>
      </trkpt>
      <trkpt lat="38.874933" lon="-1.332861">
        <ele>900.127137</ele>
        <time>2020-08-04T07:12:57.439Z</time>
      </trkpt>
      <trkpt lat="38.874996" lon="-1.332730">
        <ele>900.638802</ele>
        <time>2020-08-04T07:13:33.441Z</time>
      </trkpt>
      <trkpt lat="38.875116" lon="-1.332655">
        <ele>901.208413</ele>
        <time>2020-08-04T07:13:36.438Z</time>
      </trkpt>
      <trkpt lat="38.875208" lon="-1.332651">
        <ele>901.601322</ele>
        <time>2020-08-04T07:13:38.440Z</time>
      </trkpt>
      <trkpt lat="38.875298" lon="-1.332674">
        <ele>901.992999</ele>
        <time>2020-08-04T07:13:40.427Z</time>
      </trkpt>
      <trkpt lat="38.875388" lon="-1.332769">
        <ele>902.490213</ele>
        <time>2020-08-04T07:13:43.427Z</time>
      </trkpt>
      <trkpt lat="38.875426" lon="-1.332893">
        <ele>902.933031</ele>
        <time>2020-08-04T07:13:46.444Z</time>
      </trkpt>
      <trkpt lat="38.875400" lon="-1.333033">
        <ele>903.411295</ele>
        <time>2020-08-04T07:13:49.443Z</time>
      </trkpt>
      <trkpt lat="38.875320" lon="-1.333148">
        <ele>903.923766</ele>
        <time>2020-08-04T07:13:52.441Z</time>
      </trkpt>
      <trkpt lat="38.875242" lon="-1.333207">
        <ele>904.310131</ele>
        <time>2020-08-04T07:13:55.449Z</time>
      </trkpt>
      <trkpt lat="38.875145" lon="-1.333236">
        <ele>904.735224</ele>
        <time>2020-08-04T07:13:59.442Z</time>
      </trkpt>
      <trkpt lat="38.875027" lon="-1.333255">
        <ele>905.242826</ele>
        <time>2020-08-04T07:14:03.457Z</time>
      </trkpt>
      <trkpt lat="38.874932" lon="-1.333321">
        <ele>905.703825</ele>
        <time>2020-08-04T07:14:06.437Z</time>
      </trkpt>
      <trkpt lat="38.874858" lon="-1.333448">
        <ele>906.230951</ele>
        <time>2020-08-04T07:14:09.432Z</time>
      </trkpt>
      <trkpt lat="38.874821" lon="-1.333604">
        <ele>906.723768</ele>
        <time>2020-08-04T07:14:12.441Z</time>
      </trkpt>
      <trkpt lat="38.874829" lon="-1.333751">
        <ele>907.090740</ele>
        <time>2020-08-04T07:14:15.436Z</time>
      </trkpt>
      <trkpt lat="38.874836" lon="-1.333869">
        <ele>907.385452</ele>
        <time>2020-08-04T07:14:18.453Z</time>
      </trkpt>
      <trkpt lat="38.874854" lon="-1.334004">
        <ele>907.726542</ele>
        <time>2020-08-04T07:14:23.446Z</time>
      </trkpt>
      <trkpt lat="38.874855" lon="-1.334147">
        <ele>908.082674</ele>
        <time>2020-08-04T07:14:27.437Z</time>
      </trkpt>
      <trkpt lat="38.874850" lon="-1.334279">
        <ele>908.411787</ele>
        <time>2020-08-04T07:14:31.443Z</time>
      </trkpt>
      <trkpt lat="38.874841" lon="-1.334420">
        <ele>908.764102</ele>
        <time>2020-08-04T07:14:35.441Z</time>
      </trkpt>
      <trkpt lat="38.874825" lon="-1.334535">
        <ele>909.055028</ele>
        <time>2020-08-04T07:14:38.438Z</time>
      </trkpt>
      <trkpt lat="38.874809" lon="-1.334682">
        <ele>909.424668</ele>
        <time>2020-08-04T07:14:42.445Z</time>
      </trkpt>
      <trkpt lat="38.874799" lon="-1.334810">
        <ele>909.745032</ele>
        <time>2020-08-04T07:14:46.444Z</time>
      </trkpt>
      <trkpt lat="38.874790" lon="-1.334940">
        <ele>910.070053</ele>
        <time>2020-08-04T07:14:50.448Z</time>
      </trkpt>
      <trkpt lat="38.874768" lon="-1.335069">
        <ele>910.398924</ele>
        <time>2020-08-04T07:14:54.442Z</time>
      </trkpt>
      <trkpt lat="38.874747" lon="-1.335184">
        <ele>910.693086</ele>
        <time>2020-08-04T07:14:57.444Z</time>
      </trkpt>
      <trkpt lat="38.874712" lon="-1.335290">
        <ele>910.979823</ele>
        <time>2020-08-04T07:15:00.443Z</time>
      </trkpt>
      <trkpt lat="38.874664" lon="-1.335409">
        <ele>911.313588</ele>
        <time>2020-08-04T07:15:03.442Z</time>
      </trkpt>
      <trkpt lat="38.874629" lon="-1.335532">
        <ele>911.639719</ele>
        <time>2020-08-04T07:15:06.456Z</time>
      </trkpt>
      <trkpt lat="38.874576" lon="-1.335665">
        <ele>912.011803</ele>
        <time>2020-08-04T07:15:09.440Z</time>
      </trkpt>
      <trkpt lat="38.874508" lon="-1.335800">
        <ele>912.292847</ele>
        <time>2020-08-04T07:15:12.441Z</time>
      </trkpt>
      <trkpt lat="38.874466" lon="-1.335925">
        <ele>912.136837</ele>
        <time>2020-08-04T07:15:14.446Z</time>
      </trkpt>
      <trkpt lat="38.874432" lon="-1.336049">
        <ele>911.986188</ele>
        <time>2020-08-04T07:15:16.444Z</time>
      </trkpt>
      <trkpt lat="38.874376" lon="-1.336157">
        <ele>911.837492</ele>
        <time>2020-08-04T07:15:18.448Z</time>
      </trkpt>
      <trkpt lat="38.874324" lon="-1.336260">
        <ele>911.696818</ele>
        <time>2020-08-04T07:15:20.451Z</time>
      </trkpt>
      <trkpt lat="38.874263" lon="-1.336375">
        <ele>911.537357</ele>
        <time>2020-08-04T07:15:22.440Z</time>
      </trkpt>
      <trkpt lat="38.874207" lon="-1.336477">
        <ele>911.394332</ele>
        <time>2020-08-04T07:15:24.443Z</time>
      </trkpt>
      <trkpt lat="38.874148" lon="-1.336581">
        <ele>911.246872</ele>
        <time>2020-08-04T07:15:26.451Z</time>
      </trkpt>
      <trkpt lat="38.874085" lon="-1.336685">
        <ele>911.095869</ele>
        <time>2020-08-04T07:15:28.454Z</time>
      </trkpt>
      <trkpt lat="38.874045" lon="-1.336813">
        <ele>910.937816</ele>
        <time>2020-08-04T07:15:30.444Z</time>
      </trkpt>
      <trkpt lat="38.874023" lon="-1.336928">
        <ele>910.802115</ele>
        <time>2020-08-04T07:15:32.454Z</time>
      </trkpt>
      <trkpt lat="38.873963" lon="-1.337041">
        <ele>910.645376</ele>
        <time>2020-08-04T07:15:34.453Z</time>
      </trkpt>
      <trkpt lat="38.873908" lon="-1.337171">
        <ele>910.475830</ele>
        <time>2020-08-04T07:15:36.454Z</time>
      </trkpt>
      <trkpt lat="38.873848" lon="-1.337288">
        <ele>910.315284</ele>
        <time>2020-08-04T07:15:38.456Z</time>
      </trkpt>
      <trkpt lat="38.873807" lon="-1.337435">
        <ele>910.136349</ele>
        <time>2020-08-04T07:15:40.444Z</time>
      </trkpt>
      <trkpt lat="38.873773" lon="-1.337559">
        <ele>909.985699</ele>
        <time>2020-08-04T07:15:42.463Z</time>
      </trkpt>
      <trkpt lat="38.873721" lon="-1.337682">
        <ele>909.825309</ele>
        <time>2020-08-04T07:15:44.448Z</time>
      </trkpt>
      <trkpt lat="38.873684" lon="-1.337793">
        <ele>909.686942</ele>
        <time>2020-08-04T07:15:46.442Z</time>
      </trkpt>
      <trkpt lat="38.873630" lon="-1.337925">
        <ele>909.976955</ele>
        <time>2020-08-04T07:15:48.439Z</time>
      </trkpt>
      <trkpt lat="38.873568" lon="-1.338047">
        <ele>910.270868</ele>
        <time>2020-08-04T07:15:50.441Z</time>
      </trkpt>
      <trkpt lat="38.873526" lon="-1.338184">
        <ele>910.567904</ele>
        <time>2020-08-04T07:15:52.439Z</time>
      </trkpt>
      <trkpt lat="38.873463" lon="-1.338313">
        <ele>910.875110</ele>
        <time>2020-08-04T07:15:54.443Z</time>
      </trkpt>
      <trkpt lat="38.873427" lon="-1.338452">
        <ele>911.170634</ele>
        <time>2020-08-04T07:15:56.448Z</time>
      </trkpt>
      <trkpt lat="38.873376" lon="-1.338581">
        <ele>911.462508</ele>
        <time>2020-08-04T07:15:58.446Z</time>
      </trkpt>
      <trkpt lat="38.873339" lon="-1.338726">
        <ele>911.770339</ele>
        <time>2020-08-04T07:16:00.447Z</time>
      </trkpt>
      <trkpt lat="38.873286" lon="-1.338876">
        <ele>912.102652</ele>
        <time>2020-08-04T07:16:02.440Z</time>
      </trkpt>
      <trkpt lat="38.873244" lon="-1.339015">
        <ele>912.403447</ele>
        <time>2020-08-04T07:16:04.443Z</time>
      </trkpt>
      <trkpt lat="38.873198" lon="-1.339146">
        <ele>912.693361</ele>
        <time>2020-08-04T07:16:06.442Z</time>
      </trkpt>
      <trkpt lat="38.873158" lon="-1.339282">
        <ele>912.986650</ele>
        <time>2020-08-04T07:16:08.438Z</time>
      </trkpt>
      <trkpt lat="38.873118" lon="-1.339405">
        <ele>913.255566</ele>
        <time>2020-08-04T07:16:10.446Z</time>
      </trkpt>
      <trkpt lat="38.873075" lon="-1.339529">
        <ele>913.529415</ele>
        <time>2020-08-04T07:16:12.447Z</time>
      </trkpt>
      <trkpt lat="38.873020" lon="-1.339661">
        <ele>913.831449</ele>
        <time>2020-08-04T07:16:14.448Z</time>
      </trkpt>
      <trkpt lat="38.872992" lon="-1.339828">
        <ele>914.176076</ele>
        <time>2020-08-04T07:16:16.445Z</time>
      </trkpt>
      <trkpt lat="38.872954" lon="-1.339979">
        <ele>914.339238</ele>
        <time>2020-08-04T07:16:18.452Z</time>
      </trkpt>
      <trkpt lat="38.872913" lon="-1.340118">
        <ele>914.330354</ele>
        <time>2020-08-04T07:16:20.449Z</time>
      </trkpt>
      <trkpt lat="38.872861" lon="-1.340246">
        <ele>914.321724</ele>
        <time>2020-08-04T07:16:22.448Z</time>
      </trkpt>
      <trkpt lat="38.872837" lon="-1.340377">
        <ele>914.313680</ele>
        <time>2020-08-04T07:16:24.456Z</time>
      </trkpt>
      <trkpt lat="38.872794" lon="-1.340508">
        <ele>914.305182</ele>
        <time>2020-08-04T07:16:26.443Z</time>
      </trkpt>
      <trkpt lat="38.872751" lon="-1.340650">
        <ele>914.296075</ele>
        <time>2020-08-04T07:16:28.443Z</time>
      </trkpt>
      <trkpt lat="38.872708" lon="-1.340775">
        <ele>914.287907</ele>
        <time>2020-08-04T07:16:30.447Z</time>
      </trkpt>
      <trkpt lat="38.872669" lon="-1.340909">
        <ele>914.279356</ele>
        <time>2020-08-04T07:16:32.444Z</time>
      </trkpt>
      <trkpt lat="38.872625" lon="-1.341023">
        <ele>914.271751</ele>
        <time>2020-08-04T07:16:34.460Z</time>
      </trkpt>
      <trkpt lat="38.872586" lon="-1.341141">
        <ele>914.264088</ele>
        <time>2020-08-04T07:16:36.432Z</time>
      </trkpt>
      <trkpt lat="38.872533" lon="-1.341258">
        <ele>914.255997</ele>
        <time>2020-08-04T07:16:38.437Z</time>
      </trkpt>
      <trkpt lat="38.872461" lon="-1.341411">
        <ele>914.245311</ele>
        <time>2020-08-04T07:16:41.441Z</time>
      </trkpt>
      <trkpt lat="38.872453" lon="-1.341563">
        <ele>914.236205</ele>
        <time>2020-08-04T07:16:44.442Z</time>
      </trkpt>
      <trkpt lat="38.872466" lon="-1.341714">
        <ele>914.227125</ele>
        <time>2020-08-04T07:16:47.446Z</time>
      </trkpt>
      <trkpt lat="38.872429" lon="-1.341831">
        <ele>914.219576</ele>
        <time>2020-08-04T07:16:49.451Z</time>
      </trkpt>
      <trkpt lat="38.872339" lon="-1.341934">
        <ele>914.210322</ele>
        <time>2020-08-04T07:16:52.435Z</time>
      </trkpt>
      <trkpt lat="38.872220" lon="-1.342019">
        <ele>914.815817</ele>
        <time>2020-08-04T07:16:55.438Z</time>
      </trkpt>
      <trkpt lat="38.872161" lon="-1.342148">
        <ele>915.756907</ele>
        <time>2020-08-04T07:16:58.428Z</time>
      </trkpt>
      <trkpt lat="38.872114" lon="-1.342296">
        <ele>916.762322</ele>
        <time>2020-08-04T07:17:01.445Z</time>
      </trkpt>
      <trkpt lat="38.872055" lon="-1.342433">
        <ele>917.747132</ele>
        <time>2020-08-04T07:17:04.449Z</time>
      </trkpt>
      <trkpt lat="38.872004" lon="-1.342560">
        <ele>918.645994</ele>
        <time>2020-08-04T07:17:07.443Z</time>
      </trkpt>
      <trkpt lat="38.871958" lon="-1.342685">
        <ele>919.515679</ele>
        <time>2020-08-04T07:17:10.452Z</time>
      </trkpt>
      <trkpt lat="38.871893" lon="-1.342826">
        <ele>920.546416</ele>
        <time>2020-08-04T07:17:13.446Z</time>
      </trkpt>
      <trkpt lat="38.871826" lon="-1.342979">
        <ele>921.650609</ele>
        <time>2020-08-04T07:17:16.441Z</time>
      </trkpt>
      <trkpt lat="38.871774" lon="-1.343129">
        <ele>922.683450</ele>
        <time>2020-08-04T07:17:19.439Z</time>
      </trkpt>
      <trkpt lat="38.871726" lon="-1.343262">
        <ele>923.605565</ele>
        <time>2020-08-04T07:17:22.451Z</time>
      </trkpt>
      <trkpt lat="38.871657" lon="-1.343384">
        <ele>924.554087</ele>
        <time>2020-08-04T07:17:25.447Z</time>
      </trkpt>
      <trkpt lat="38.871587" lon="-1.343499">
        <ele>925.472307</ele>
        <time>2020-08-04T07:17:28.443Z</time>
      </trkpt>
      <trkpt lat="38.871535" lon="-1.343601">
        <ele>926.239225</ele>
        <time>2020-08-04T07:17:31.447Z</time>
      </trkpt>
      <trkpt lat="38.871481" lon="-1.343723">
        <ele>927.121984</ele>
        <time>2020-08-04T07:17:35.441Z</time>
      </trkpt>
      <trkpt lat="38.871442" lon="-1.343843">
        <ele>927.939940</ele>
        <time>2020-08-04T07:17:41.442Z</time>
      </trkpt>
      <trkpt lat="38.871273" lon="-1.344260">
        <ele>930.047739</ele>
        <time>2020-08-04T07:18:34.460Z</time>
      </trkpt>
      <trkpt lat="38.871204" lon="-1.344391">
        <ele>930.651332</ele>
        <time>2020-08-04T07:18:37.452Z</time>
      </trkpt>
      <trkpt lat="38.871163" lon="-1.344507">
        <ele>931.137503</ele>
        <time>2020-08-04T07:18:40.446Z</time>
      </trkpt>
      <trkpt lat="38.871096" lon="-1.344605">
        <ele>931.635227</ele>
        <time>2020-08-04T07:18:43.446Z</time>
      </trkpt>
      <trkpt lat="38.871057" lon="-1.344711">
        <ele>932.082649</ele>
        <time>2020-08-04T07:18:46.448Z</time>
      </trkpt>
      <trkpt lat="38.871004" lon="-1.344819">
        <ele>932.569852</ele>
        <time>2020-08-04T07:18:49.449Z</time>
      </trkpt>
      <trkpt lat="38.870960" lon="-1.344939">
        <ele>933.076052</ele>
        <time>2020-08-04T07:18:52.444Z</time>
      </trkpt>
      <trkpt lat="38.870914" lon="-1.345055">
        <ele>933.572857</ele>
        <time>2020-08-04T07:18:55.441Z</time>
      </trkpt>
      <trkpt lat="38.870868" lon="-1.345185">
        <ele>934.117810</ele>
        <time>2020-08-04T07:18:59.444Z</time>
      </trkpt>
      <trkpt lat="38.870827" lon="-1.345325">
        <ele>934.688640</ele>
        <time>2020-08-04T07:19:03.439Z</time>
      </trkpt>
      <trkpt lat="38.870753" lon="-1.345437">
        <ele>935.249232</ele>
        <time>2020-08-04T07:19:07.449Z</time>
      </trkpt>
      <trkpt lat="38.870694" lon="-1.345525">
        <ele>935.692428</ele>
        <time>2020-08-04T07:19:10.445Z</time>
      </trkpt>
      <trkpt lat="38.870646" lon="-1.345635">
        <ele>936.173660</ele>
        <time>2020-08-04T07:19:14.459Z</time>
      </trkpt>
      <trkpt lat="38.870595" lon="-1.345744">
        <ele>936.658976</ele>
        <time>2020-08-04T07:19:20.457Z</time>
      </trkpt>
      <trkpt lat="38.870555" lon="-1.345855">
        <ele>937.125762</ele>
        <time>2020-08-04T07:19:25.441Z</time>
      </trkpt>
      <trkpt lat="38.870509" lon="-1.345964">
        <ele>937.543089</ele>
        <time>2020-08-04T07:19:28.440Z</time>
      </trkpt>
      <trkpt lat="38.870448" lon="-1.346097">
        <ele>937.399519</ele>
        <time>2020-08-04T07:19:32.447Z</time>
      </trkpt>
      <trkpt lat="38.870396" lon="-1.346214">
        <ele>937.274216</ele>
        <time>2020-08-04T07:19:35.443Z</time>
      </trkpt>
      <trkpt lat="38.870331" lon="-1.346331">
        <ele>937.140532</ele>
        <time>2020-08-04T07:19:38.431Z</time>
      </trkpt>
      <trkpt lat="38.870278" lon="-1.346436">
        <ele>937.024145</ele>
        <time>2020-08-04T07:19:41.446Z</time>
      </trkpt>
      <trkpt lat="38.870208" lon="-1.346537">
        <ele>936.898377</ele>
        <time>2020-08-04T07:19:45.452Z</time>
      </trkpt>
      <trkpt lat="38.870134" lon="-1.346644">
        <ele>936.765264</ele>
        <time>2020-08-04T07:19:50.447Z</time>
      </trkpt>
      <trkpt lat="38.870074" lon="-1.346737">
        <ele>936.652927</ele>
        <time>2020-08-04T07:19:53.439Z</time>
      </trkpt>
      <trkpt lat="38.870010" lon="-1.346841">
        <ele>936.529631</ele>
        <time>2020-08-04T07:19:56.442Z</time>
      </trkpt>
      <trkpt lat="38.869925" lon="-1.346897">
        <ele>936.415509</ele>
        <time>2020-08-04T07:20:00.438Z</time>
      </trkpt>
      <trkpt lat="38.869821" lon="-1.347295">
        <ele>936.025038</ele>
        <time>2020-08-04T07:47:11.445Z</time>
      </trkpt>
      <trkpt lat="38.869756" lon="-1.347397">
        <ele>935.902442</ele>
        <time>2020-08-04T07:47:13.435Z</time>
      </trkpt>
      <trkpt lat="38.869749" lon="-1.347517">
        <ele>935.790518</ele>
        <time>2020-08-04T07:47:16.424Z</time>
      </trkpt>
      <trkpt lat="38.869826" lon="-1.347582">
        <ele>935.680444</ele>
        <time>2020-08-04T07:47:19.434Z</time>
      </trkpt>
      <trkpt lat="38.869943" lon="-1.347603">
        <ele>935.539315</ele>
        <time>2020-08-04T07:47:23.452Z</time>
      </trkpt>
      <trkpt lat="38.870049" lon="-1.347624">
        <ele>935.411189</ele>
        <time>2020-08-04T07:47:26.433Z</time>
      </trkpt>
      <trkpt lat="38.870159" lon="-1.347655">
        <ele>935.219566</ele>
        <time>2020-08-04T07:47:29.456Z</time>
      </trkpt>
      <trkpt lat="38.870253" lon="-1.347667">
        <ele>935.056656</ele>
        <time>2020-08-04T07:47:32.442Z</time>
      </trkpt>
      <trkpt lat="38.870361" lon="-1.347696">
        <ele>934.866375</ele>
        <time>2020-08-04T07:47:36.444Z</time>
      </trkpt>
      <trkpt lat="38.870477" lon="-1.347715">
        <ele>934.664703</ele>
        <time>2020-08-04T07:47:40.443Z</time>
      </trkpt>
      <trkpt lat="38.870569" lon="-1.347714">
        <ele>934.506036</ele>
        <time>2020-08-04T07:47:43.444Z</time>
      </trkpt>
      <trkpt lat="38.870669" lon="-1.347709">
        <ele>934.333447</ele>
        <time>2020-08-04T07:47:46.441Z</time>
      </trkpt>
      <trkpt lat="38.870773" lon="-1.347697">
        <ele>934.153368</ele>
        <time>2020-08-04T07:47:49.447Z</time>
      </trkpt>
      <trkpt lat="38.870881" lon="-1.347696">
        <ele>933.967109</ele>
        <time>2020-08-04T07:47:52.452Z</time>
      </trkpt>
      <trkpt lat="38.870992" lon="-1.347706">
        <ele>933.775210</ele>
        <time>2020-08-04T07:47:55.444Z</time>
      </trkpt>
      <trkpt lat="38.871104" lon="-1.347702">
        <ele>933.581982</ele>
        <time>2020-08-04T07:47:58.446Z</time>
      </trkpt>
      <trkpt lat="38.871222" lon="-1.347706">
        <ele>933.378411</ele>
        <time>2020-08-04T07:48:01.440Z</time>
      </trkpt>
      <trkpt lat="38.871331" lon="-1.347690">
        <ele>933.189208</ele>
        <time>2020-08-04T07:48:04.449Z</time>
      </trkpt>
      <trkpt lat="38.871426" lon="-1.347673">
        <ele>933.023790</ele>
        <time>2020-08-04T07:48:07.449Z</time>
      </trkpt>
      <trkpt lat="38.871519" lon="-1.347673">
        <ele>932.863404</ele>
        <time>2020-08-04T07:48:11.443Z</time>
      </trkpt>
      <trkpt lat="38.871626" lon="-1.347667">
        <ele>932.678698</ele>
        <time>2020-08-04T07:48:17.431Z</time>
      </trkpt>
      <trkpt lat="38.871715" lon="-1.347636">
        <ele>932.519667</ele>
        <time>2020-08-04T07:48:21.433Z</time>
      </trkpt>
      <trkpt lat="38.871803" lon="-1.347606">
        <ele>932.362649</ele>
        <time>2020-08-04T07:48:25.443Z</time>
      </trkpt>
      <trkpt lat="38.871902" lon="-1.347595">
        <ele>932.208585</ele>
        <time>2020-08-04T07:48:29.446Z</time>
      </trkpt>
      <trkpt lat="38.872010" lon="-1.347589">
        <ele>932.050924</ele>
        <time>2020-08-04T07:48:33.440Z</time>
      </trkpt>
      <trkpt lat="38.872110" lon="-1.347578">
        <ele>931.904544</ele>
        <time>2020-08-04T07:48:37.455Z</time>
      </trkpt>
      <trkpt lat="38.872228" lon="-1.347575">
        <ele>931.732412</ele>
        <time>2020-08-04T07:48:41.460Z</time>
      </trkpt>
      <trkpt lat="38.872325" lon="-1.347563">
        <ele>931.590287</ele>
        <time>2020-08-04T07:48:44.448Z</time>
      </trkpt>
      <trkpt lat="38.872436" lon="-1.347553">
        <ele>931.428000</ele>
        <time>2020-08-04T07:48:48.443Z</time>
      </trkpt>
      <trkpt lat="38.872537" lon="-1.347566">
        <ele>931.279958</ele>
        <time>2020-08-04T07:48:52.451Z</time>
      </trkpt>
      <trkpt lat="38.872647" lon="-1.347565">
        <ele>931.119523</ele>
        <time>2020-08-04T07:48:56.454Z</time>
      </trkpt>
      <trkpt lat="38.872758" lon="-1.347573">
        <ele>930.957380</ele>
        <time>2020-08-04T07:49:00.445Z</time>
      </trkpt>
      <trkpt lat="38.872865" lon="-1.347586">
        <ele>930.800628</ele>
        <time>2020-08-04T07:49:04.441Z</time>
      </trkpt>
      <trkpt lat="38.872972" lon="-1.347579">
        <ele>930.644371</ele>
        <time>2020-08-04T07:49:08.443Z</time>
      </trkpt>
      <trkpt lat="38.873090" lon="-1.347570">
        <ele>930.471969</ele>
        <time>2020-08-04T07:49:12.446Z</time>
      </trkpt>
      <trkpt lat="38.873186" lon="-1.347588">
        <ele>930.330473</ele>
        <time>2020-08-04T07:49:15.439Z</time>
      </trkpt>
      <trkpt lat="38.873285" lon="-1.347577">
        <ele>930.185547</ele>
        <time>2020-08-04T07:49:19.441Z</time>
      </trkpt>
      <trkpt lat="38.873389" lon="-1.347584">
        <ele>930.033659</ele>
        <time>2020-08-04T07:49:24.441Z</time>
      </trkpt>
      <trkpt lat="38.873487" lon="-1.347640">
        <ele>929.877224</ele>
        <time>2020-08-04T07:49:30.436Z</time>
      </trkpt>
      <trkpt lat="38.873540" lon="-1.347739">
        <ele>929.740801</ele>
        <time>2020-08-04T07:49:33.442Z</time>
      </trkpt>
      <trkpt lat="38.873595" lon="-1.347846">
        <ele>929.711416</ele>
        <time>2020-08-04T07:49:36.425Z</time>
      </trkpt>
      <trkpt lat="38.873655" lon="-1.347976">
        <ele>929.774484</ele>
        <time>2020-08-04T07:49:39.450Z</time>
      </trkpt>
      <trkpt lat="38.873714" lon="-1.348104">
        <ele>929.836561</ele>
        <time>2020-08-04T07:49:41.448Z</time>
      </trkpt>
      <trkpt lat="38.873776" lon="-1.348208">
        <ele>929.891224</ele>
        <time>2020-08-04T07:49:43.447Z</time>
      </trkpt>
      <trkpt lat="38.873825" lon="-1.348333">
        <ele>929.949628</ele>
        <time>2020-08-04T07:49:45.443Z</time>
      </trkpt>
      <trkpt lat="38.873890" lon="-1.348476">
        <ele>930.018730</ele>
        <time>2020-08-04T07:49:47.434Z</time>
      </trkpt>
      <trkpt lat="38.873969" lon="-1.348598">
        <ele>930.084952</ele>
        <time>2020-08-04T07:49:49.434Z</time>
      </trkpt>
      <trkpt lat="38.874068" lon="-1.348741">
        <ele>930.164809</ele>
        <time>2020-08-04T07:49:51.426Z</time>
      </trkpt>
      <trkpt lat="38.874181" lon="-1.348868">
        <ele>930.245294</ele>
        <time>2020-08-04T07:49:53.452Z</time>
      </trkpt>
      <trkpt lat="38.874245" lon="-1.348950">
        <ele>930.293749</ele>
        <time>2020-08-04T07:49:54.445Z</time>
      </trkpt>
      <trkpt lat="38.874360" lon="-1.349110">
        <ele>930.384623</ele>
        <time>2020-08-04T07:49:56.438Z</time>
      </trkpt>
      <trkpt lat="38.874469" lon="-1.349261">
        <ele>930.470556</ele>
        <time>2020-08-04T07:49:58.449Z</time>
      </trkpt>
      <trkpt lat="38.874598" lon="-1.349422">
        <ele>930.566969</ele>
        <time>2020-08-04T07:50:00.426Z</time>
      </trkpt>
      <trkpt lat="38.874739" lon="-1.349543">
        <ele>930.635141</ele>
        <time>2020-08-04T07:50:02.446Z</time>
      </trkpt>
      <trkpt lat="38.874811" lon="-1.349611">
        <ele>930.602732</ele>
        <time>2020-08-04T07:50:03.438Z</time>
      </trkpt>
      <trkpt lat="38.874953" lon="-1.349741">
        <ele>930.539495</ele>
        <time>2020-08-04T07:50:05.434Z</time>
      </trkpt>
      <trkpt lat="38.875092" lon="-1.349867">
        <ele>930.477800</ele>
        <time>2020-08-04T07:50:07.445Z</time>
      </trkpt>
      <trkpt lat="38.875248" lon="-1.349847">
        <ele>930.420946</ele>
        <time>2020-08-04T07:50:09.444Z</time>
      </trkpt>
      <trkpt lat="38.875347" lon="-1.350039">
        <ele>930.355929</ele>
        <time>2020-08-04T07:50:11.438Z</time>
      </trkpt>
      <trkpt lat="38.875504" lon="-1.350078">
        <ele>930.297939</ele>
        <time>2020-08-04T07:50:13.446Z</time>
      </trkpt>
      <trkpt lat="38.875647" lon="-1.350118">
        <ele>930.244865</ele>
        <time>2020-08-04T07:50:15.448Z</time>
      </trkpt>
      <trkpt lat="38.875779" lon="-1.350150">
        <ele>930.196151</ele>
        <time>2020-08-04T07:50:17.441Z</time>
      </trkpt>
      <trkpt lat="38.875934" lon="-1.350107">
        <ele>930.138645</ele>
        <time>2020-08-04T07:50:19.454Z</time>
      </trkpt>
      <trkpt lat="38.876087" lon="-1.350072">
        <ele>930.082287</ele>
        <time>2020-08-04T07:50:21.434Z</time>
      </trkpt>
      <trkpt lat="38.876241" lon="-1.350068">
        <ele>930.026429</ele>
        <time>2020-08-04T07:50:23.441Z</time>
      </trkpt>
      <trkpt lat="38.876398" lon="-1.350031">
        <ele>929.913431</ele>
        <time>2020-08-04T07:50:25.445Z</time>
      </trkpt>
      <trkpt lat="38.876548" lon="-1.349974">
        <ele>929.723660</ele>
        <time>2020-08-04T07:50:27.432Z</time>
      </trkpt>
      <trkpt lat="38.876683" lon="-1.349925">
        <ele>929.553470</ele>
        <time>2020-08-04T07:50:29.442Z</time>
      </trkpt>
      <trkpt lat="38.876811" lon="-1.349906">
        <ele>929.397152</ele>
        <time>2020-08-04T07:50:31.442Z</time>
      </trkpt>
      <trkpt lat="38.876951" lon="-1.349864">
        <ele>929.222739</ele>
        <time>2020-08-04T07:50:33.442Z</time>
      </trkpt>
      <trkpt lat="38.877082" lon="-1.349825">
        <ele>929.059602</ele>
        <time>2020-08-04T07:50:35.450Z</time>
      </trkpt>
      <trkpt lat="38.877235" lon="-1.349783">
        <ele>928.869796</ele>
        <time>2020-08-04T07:50:37.459Z</time>
      </trkpt>
      <trkpt lat="38.877380" lon="-1.349731">
        <ele>928.687161</ele>
        <time>2020-08-04T07:50:39.451Z</time>
      </trkpt>
      <trkpt lat="38.877516" lon="-1.349681">
        <ele>928.515546</ele>
        <time>2020-08-04T07:50:41.451Z</time>
      </trkpt>
      <trkpt lat="38.877665" lon="-1.349656">
        <ele>928.333249</ele>
        <time>2020-08-04T07:50:43.436Z</time>
      </trkpt>
      <trkpt lat="38.877817" lon="-1.349590">
        <ele>928.138598</ele>
        <time>2020-08-04T07:50:45.442Z</time>
      </trkpt>
      <trkpt lat="38.877927" lon="-1.349524">
        <ele>927.991310</ele>
        <time>2020-08-04T07:50:47.442Z</time>
      </trkpt>
      <trkpt lat="38.878061" lon="-1.349500">
        <ele>927.827174</ele>
        <time>2020-08-04T07:50:49.437Z</time>
      </trkpt>
      <trkpt lat="38.878163" lon="-1.349434">
        <ele>927.671464</ele>
        <time>2020-08-04T07:50:51.426Z</time>
      </trkpt>
      <trkpt lat="38.878309" lon="-1.349404">
        <ele>927.466738</ele>
        <time>2020-08-04T07:50:53.452Z</time>
      </trkpt>
      <trkpt lat="38.878451" lon="-1.349327">
        <ele>927.253320</ele>
        <time>2020-08-04T07:50:55.449Z</time>
      </trkpt>
      <trkpt lat="38.878568" lon="-1.349278">
        <ele>927.082926</ele>
        <time>2020-08-04T07:50:57.440Z</time>
      </trkpt>
      <trkpt lat="38.878686" lon="-1.349251">
        <ele>926.916968</ele>
        <time>2020-08-04T07:50:59.437Z</time>
      </trkpt>
      <trkpt lat="38.878790" lon="-1.349209">
        <ele>926.766018</ele>
        <time>2020-08-04T07:51:01.443Z</time>
      </trkpt>
      <trkpt lat="38.878906" lon="-1.349185">
        <ele>926.603331</ele>
        <time>2020-08-04T07:51:03.440Z</time>
      </trkpt>
      <trkpt lat="38.879011" lon="-1.349152">
        <ele>926.453656</ele>
        <time>2020-08-04T07:51:05.449Z</time>
      </trkpt>
      <trkpt lat="38.879125" lon="-1.349122">
        <ele>926.292531</ele>
        <time>2020-08-04T07:51:07.444Z</time>
      </trkpt>
      <trkpt lat="38.879228" lon="-1.349098">
        <ele>926.147587</ele>
        <time>2020-08-04T07:51:09.448Z</time>
      </trkpt>
      <trkpt lat="38.879335" lon="-1.349074">
        <ele>925.997190</ele>
        <time>2020-08-04T07:51:11.438Z</time>
      </trkpt>
      <trkpt lat="38.879437" lon="-1.349048">
        <ele>925.853204</ele>
        <time>2020-08-04T07:51:13.443Z</time>
      </trkpt>
      <trkpt lat="38.879538" lon="-1.349015">
        <ele>925.708903</ele>
        <time>2020-08-04T07:51:15.447Z</time>
      </trkpt>
      <trkpt lat="38.879629" lon="-1.349007">
        <ele>925.582608</ele>
        <time>2020-08-04T07:51:17.441Z</time>
      </trkpt>
      <trkpt lat="38.879722" lon="-1.348992">
        <ele>925.452826</ele>
        <time>2020-08-04T07:51:19.445Z</time>
      </trkpt>
      <trkpt lat="38.879851" lon="-1.348960">
        <ele>925.294584</ele>
        <time>2020-08-04T07:51:22.435Z</time>
      </trkpt>
      <trkpt lat="38.879957" lon="-1.348931">
        <ele>925.217577</ele>
        <time>2020-08-04T07:51:24.445Z</time>
      </trkpt>
      <trkpt lat="38.880056" lon="-1.348920">
        <ele>925.146969</ele>
        <time>2020-08-04T07:51:26.450Z</time>
      </trkpt>
      <trkpt lat="38.880194" lon="-1.348907">
        <ele>925.048650</ele>
        <time>2020-08-04T07:51:29.454Z</time>
      </trkpt>
      <trkpt lat="38.880300" lon="-1.348905">
        <ele>924.973324</ele>
        <time>2020-08-04T07:51:31.450Z</time>
      </trkpt>
      <trkpt lat="38.880416" lon="-1.348902">
        <ele>924.890884</ele>
        <time>2020-08-04T07:51:33.455Z</time>
      </trkpt>
      <trkpt lat="38.880530" lon="-1.348891">
        <ele>924.809653</ele>
        <time>2020-08-04T07:51:35.445Z</time>
      </trkpt>
      <trkpt lat="38.880622" lon="-1.348879">
        <ele>924.743946</ele>
        <time>2020-08-04T07:51:37.436Z</time>
      </trkpt>
      <trkpt lat="38.880772" lon="-1.348872">
        <ele>924.637293</ele>
        <time>2020-08-04T07:51:40.440Z</time>
      </trkpt>
      <trkpt lat="38.880909" lon="-1.348868">
        <ele>924.539923</ele>
        <time>2020-08-04T07:51:43.440Z</time>
      </trkpt>
      <trkpt lat="38.881013" lon="-1.348871">
        <ele>924.466007</ele>
        <time>2020-08-04T07:51:45.441Z</time>
      </trkpt>
      <trkpt lat="38.881137" lon="-1.348888">
        <ele>924.377399</ele>
        <time>2020-08-04T07:51:48.439Z</time>
      </trkpt>
      <trkpt lat="38.881246" lon="-1.348862">
        <ele>924.298625</ele>
        <time>2020-08-04T07:51:50.437Z</time>
      </trkpt>
      <trkpt lat="38.881344" lon="-1.348878">
        <ele>924.228431</ele>
        <time>2020-08-04T07:51:52.449Z</time>
      </trkpt>
      <trkpt lat="38.881438" lon="-1.348899">
        <ele>924.160637</ele>
        <time>2020-08-04T07:51:54.444Z</time>
      </trkpt>
      <trkpt lat="38.881532" lon="-1.348904">
        <ele>924.093788</ele>
        <time>2020-08-04T07:51:56.443Z</time>
      </trkpt>
      <trkpt lat="38.881675" lon="-1.348921">
        <ele>924.202732</ele>
        <time>2020-08-04T07:51:59.448Z</time>
      </trkpt>
      <trkpt lat="38.881775" lon="-1.348948">
        <ele>924.437925</ele>
        <time>2020-08-04T07:52:01.442Z</time>
      </trkpt>
      <trkpt lat="38.881875" lon="-1.348988">
        <ele>924.678989</ele>
        <time>2020-08-04T07:52:03.432Z</time>
      </trkpt>
      <trkpt lat="38.881983" lon="-1.349013">
        <ele>924.931570</ele>
        <time>2020-08-04T07:52:05.449Z</time>
      </trkpt>
      <trkpt lat="38.882084" lon="-1.349045">
        <ele>925.171002</ele>
        <time>2020-08-04T07:52:07.441Z</time>
      </trkpt>
      <trkpt lat="38.882220" lon="-1.349066">
        <ele>925.486278</ele>
        <time>2020-08-04T07:52:10.436Z</time>
      </trkpt>
      <trkpt lat="38.882363" lon="-1.349113">
        <ele>925.826015</ele>
        <time>2020-08-04T07:52:13.435Z</time>
      </trkpt>
      <trkpt lat="38.882469" lon="-1.349125">
        <ele>926.070935</ele>
        <time>2020-08-04T07:52:15.432Z</time>
      </trkpt>
      <trkpt lat="38.882567" lon="-1.349170">
        <ele>926.310472</ele>
        <time>2020-08-04T07:52:17.444Z</time>
      </trkpt>
      <trkpt lat="38.882663" lon="-1.349170">
        <ele>926.531430</ele>
        <time>2020-08-04T07:52:19.445Z</time>
      </trkpt>
      <trkpt lat="38.882754" lon="-1.349180">
        <ele>926.741644</ele>
        <time>2020-08-04T07:52:21.444Z</time>
      </trkpt>
      <trkpt lat="38.882858" lon="-1.349197">
        <ele>926.982945</ele>
        <time>2020-08-04T07:52:23.442Z</time>
      </trkpt>
      <trkpt lat="38.882965" lon="-1.349249">
        <ele>927.246254</ele>
        <time>2020-08-04T07:52:25.454Z</time>
      </trkpt>
      <trkpt lat="38.883074" lon="-1.349248">
        <ele>927.497140</ele>
        <time>2020-08-04T07:52:27.446Z</time>
      </trkpt>
      <trkpt lat="38.883174" lon="-1.349269">
        <ele>927.730359</ele>
        <time>2020-08-04T07:52:29.441Z</time>
      </trkpt>
      <trkpt lat="38.883313" lon="-1.349293">
        <ele>928.053164</ele>
        <time>2020-08-04T07:52:32.449Z</time>
      </trkpt>
      <trkpt lat="38.883449" lon="-1.349339">
        <ele>928.296901</ele>
        <time>2020-08-04T07:52:35.444Z</time>
      </trkpt>
      <trkpt lat="38.883539" lon="-1.349353">
        <ele>928.420228</ele>
        <time>2020-08-04T07:52:37.443Z</time>
      </trkpt>
      <trkpt lat="38.883630" lon="-1.349377">
        <ele>928.546603</ele>
        <time>2020-08-04T07:52:39.445Z</time>
      </trkpt>
      <trkpt lat="38.883763" lon="-1.349409">
        <ele>928.730677</ele>
        <time>2020-08-04T07:52:42.436Z</time>
      </trkpt>
      <trkpt lat="38.883860" lon="-1.349443">
        <ele>928.867455</ele>
        <time>2020-08-04T07:52:44.452Z</time>
      </trkpt>
      <trkpt lat="38.883960" lon="-1.349476">
        <ele>929.007908</ele>
        <time>2020-08-04T07:52:46.436Z</time>
      </trkpt>
      <trkpt lat="38.884062" lon="-1.349520">
        <ele>929.154279</ele>
        <time>2020-08-04T07:52:48.449Z</time>
      </trkpt>
      <trkpt lat="38.884168" lon="-1.349544">
        <ele>929.300700</ele>
        <time>2020-08-04T07:52:50.444Z</time>
      </trkpt>
      <trkpt lat="38.884272" lon="-1.349561">
        <ele>929.443318</ele>
        <time>2020-08-04T07:52:52.433Z</time>
      </trkpt>
      <trkpt lat="38.884400" lon="-1.349540">
        <ele>929.618858</ele>
        <time>2020-08-04T07:52:54.444Z</time>
      </trkpt>
      <trkpt lat="38.884505" lon="-1.349556">
        <ele>929.762698</ele>
        <time>2020-08-04T07:52:56.451Z</time>
      </trkpt>
      <trkpt lat="38.884614" lon="-1.349565">
        <ele>929.911283</ele>
        <time>2020-08-04T07:52:58.453Z</time>
      </trkpt>
      <trkpt lat="38.884730" lon="-1.349578">
        <ele>930.069684</ele>
        <time>2020-08-04T07:53:00.447Z</time>
      </trkpt>
      <trkpt lat="38.884853" lon="-1.349575">
        <ele>930.237039</ele>
        <time>2020-08-04T07:53:02.437Z</time>
      </trkpt>
      <trkpt lat="38.884957" lon="-1.349612">
        <ele>930.383842</ele>
        <time>2020-08-04T07:53:04.426Z</time>
      </trkpt>
      <trkpt lat="38.885069" lon="-1.349631">
        <ele>930.537525</ele>
        <time>2020-08-04T07:53:06.440Z</time>
      </trkpt>
      <trkpt lat="38.885178" lon="-1.349647">
        <ele>930.727871</ele>
        <time>2020-08-04T07:53:08.431Z</time>
      </trkpt>
      <trkpt lat="38.885295" lon="-1.349678">
        <ele>931.004341</ele>
        <time>2020-08-04T07:53:10.440Z</time>
      </trkpt>
      <trkpt lat="38.885411" lon="-1.349713">
        <ele>931.280102</ele>
        <time>2020-08-04T07:53:12.432Z</time>
      </trkpt>
      <trkpt lat="38.885536" lon="-1.349736">
        <ele>931.572339</ele>
        <time>2020-08-04T07:53:14.444Z</time>
      </trkpt>
      <trkpt lat="38.885664" lon="-1.349715">
        <ele>931.870973</ele>
        <time>2020-08-04T07:53:16.443Z</time>
      </trkpt>
      <trkpt lat="38.885783" lon="-1.349741">
        <ele>932.150327</ele>
        <time>2020-08-04T07:53:18.445Z</time>
      </trkpt>
      <trkpt lat="38.885896" lon="-1.349766">
        <ele>932.415690</ele>
        <time>2020-08-04T07:53:20.448Z</time>
      </trkpt>
      <trkpt lat="38.886013" lon="-1.349799">
        <ele>932.692910</ele>
        <time>2020-08-04T07:53:22.452Z</time>
      </trkpt>
      <trkpt lat="38.886130" lon="-1.349832">
        <ele>932.970130</ele>
        <time>2020-08-04T07:53:24.451Z</time>
      </trkpt>
      <trkpt lat="38.886245" lon="-1.349860">
        <ele>933.241010</ele>
        <time>2020-08-04T07:53:26.449Z</time>
      </trkpt>
      <trkpt lat="38.886361" lon="-1.349884">
        <ele>933.512926</ele>
        <time>2020-08-04T07:53:28.452Z</time>
      </trkpt>
      <trkpt lat="38.886466" lon="-1.349901">
        <ele>933.757848</ele>
        <time>2020-08-04T07:53:30.446Z</time>
      </trkpt>
      <trkpt lat="38.886576" lon="-1.349939">
        <ele>934.021461</ele>
        <time>2020-08-04T07:53:32.448Z</time>
      </trkpt>
      <trkpt lat="38.886688" lon="-1.349998">
        <ele>934.301605</ele>
        <time>2020-08-04T07:53:34.436Z</time>
      </trkpt>
      <trkpt lat="38.886794" lon="-1.350013">
        <ele>934.548403</ele>
        <time>2020-08-04T07:53:36.440Z</time>
      </trkpt>
      <trkpt lat="38.886892" lon="-1.350047">
        <ele>934.783327</ele>
        <time>2020-08-04T07:53:38.447Z</time>
      </trkpt>
      <trkpt lat="38.886989" lon="-1.350078">
        <ele>934.989028</ele>
        <time>2020-08-04T07:53:40.437Z</time>
      </trkpt>
      <trkpt lat="38.887087" lon="-1.350111">
        <ele>935.196657</ele>
        <time>2020-08-04T07:53:42.444Z</time>
      </trkpt>
      <trkpt lat="38.887183" lon="-1.350160">
        <ele>935.408363</ele>
        <time>2020-08-04T07:53:44.441Z</time>
      </trkpt>
      <trkpt lat="38.887291" lon="-1.350189">
        <ele>935.634486</ele>
        <time>2020-08-04T07:53:46.445Z</time>
      </trkpt>
      <trkpt lat="38.887386" lon="-1.350246">
        <ele>935.849369</ele>
        <time>2020-08-04T07:53:48.440Z</time>
      </trkpt>
      <trkpt lat="38.887468" lon="-1.350301">
        <ele>936.038948</ele>
        <time>2020-08-04T07:53:50.447Z</time>
      </trkpt>
      <trkpt lat="38.887589" lon="-1.350371">
        <ele>936.310913</ele>
        <time>2020-08-04T07:53:53.449Z</time>
      </trkpt>
      <trkpt lat="38.887674" lon="-1.350434">
        <ele>936.512027</ele>
        <time>2020-08-04T07:53:55.440Z</time>
      </trkpt>
      <trkpt lat="38.887760" lon="-1.350494">
        <ele>936.712591</ele>
        <time>2020-08-04T07:53:57.441Z</time>
      </trkpt>
      <trkpt lat="38.887846" lon="-1.350555">
        <ele>936.913921</ele>
        <time>2020-08-04T07:53:59.448Z</time>
      </trkpt>
      <trkpt lat="38.887919" lon="-1.350625">
        <ele>937.100609</ele>
        <time>2020-08-04T07:54:01.440Z</time>
      </trkpt>
      <trkpt lat="38.888000" lon="-1.350687">
        <ele>937.293844</ele>
        <time>2020-08-04T07:54:03.446Z</time>
      </trkpt>
      <trkpt lat="38.888094" lon="-1.350758">
        <ele>937.517319</ele>
        <time>2020-08-04T07:54:05.444Z</time>
      </trkpt>
      <trkpt lat="38.888170" lon="-1.350826">
        <ele>937.707128</ele>
        <time>2020-08-04T07:54:07.450Z</time>
      </trkpt>
      <trkpt lat="38.888290" lon="-1.350897">
        <ele>937.977888</ele>
        <time>2020-08-04T07:54:10.443Z</time>
      </trkpt>
      <trkpt lat="38.888404" lon="-1.350978">
        <ele>938.244875</ele>
        <time>2020-08-04T07:54:13.442Z</time>
      </trkpt>
      <trkpt lat="38.888502" lon="-1.351021">
        <ele>938.457111</ele>
        <time>2020-08-04T07:54:15.446Z</time>
      </trkpt>
      <trkpt lat="38.888594" lon="-1.351073">
        <ele>938.390034</ele>
        <time>2020-08-04T07:54:17.453Z</time>
      </trkpt>
      <trkpt lat="38.888713" lon="-1.351155">
        <ele>938.260851</ele>
        <time>2020-08-04T07:54:20.444Z</time>
      </trkpt>
      <trkpt lat="38.888824" lon="-1.351215">
        <ele>938.145645</ele>
        <time>2020-08-04T07:54:22.446Z</time>
      </trkpt>
      <trkpt lat="38.888939" lon="-1.351273">
        <ele>938.027456</ele>
        <time>2020-08-04T07:54:24.445Z</time>
      </trkpt>
      <trkpt lat="38.889041" lon="-1.351343">
        <ele>937.916828</ele>
        <time>2020-08-04T07:54:26.444Z</time>
      </trkpt>
      <trkpt lat="38.889168" lon="-1.351417">
        <ele>937.783421</ele>
        <time>2020-08-04T07:54:28.442Z</time>
      </trkpt>
      <trkpt lat="38.889283" lon="-1.351518">
        <ele>937.650156</ele>
        <time>2020-08-04T07:54:30.441Z</time>
      </trkpt>
      <trkpt lat="38.889392" lon="-1.351592">
        <ele>937.532217</ele>
        <time>2020-08-04T07:54:32.447Z</time>
      </trkpt>
      <trkpt lat="38.889512" lon="-1.351679">
        <ele>937.400400</ele>
        <time>2020-08-04T07:54:34.446Z</time>
      </trkpt>
      <trkpt lat="38.889641" lon="-1.351765">
        <ele>937.261366</ele>
        <time>2020-08-04T07:54:36.454Z</time>
      </trkpt>
      <trkpt lat="38.889769" lon="-1.351832">
        <ele>937.129141</ele>
        <time>2020-08-04T07:54:38.445Z</time>
      </trkpt>
      <trkpt lat="38.889908" lon="-1.351893">
        <ele>936.988622</ele>
        <time>2020-08-04T07:54:40.438Z</time>
      </trkpt>
      <trkpt lat="38.890036" lon="-1.351953">
        <ele>936.858274</ele>
        <time>2020-08-04T07:54:42.443Z</time>
      </trkpt>
      <trkpt lat="38.890174" lon="-1.352017">
        <ele>936.831177</ele>
        <time>2020-08-04T07:54:44.449Z</time>
      </trkpt>
      <trkpt lat="38.890308" lon="-1.352089">
        <ele>937.102802</ele>
        <time>2020-08-04T07:54:46.443Z</time>
      </trkpt>
      <trkpt lat="38.890435" lon="-1.352149">
        <ele>937.355851</ele>
        <time>2020-08-04T07:54:48.442Z</time>
      </trkpt>
      <trkpt lat="38.890573" lon="-1.352186">
        <ele>937.619483</ele>
        <time>2020-08-04T07:54:50.443Z</time>
      </trkpt>
      <trkpt lat="38.890711" lon="-1.352234">
        <ele>937.886846</ele>
        <time>2020-08-04T07:54:52.448Z</time>
      </trkpt>
      <trkpt lat="38.890843" lon="-1.352275">
        <ele>938.140809</ele>
        <time>2020-08-04T07:54:54.440Z</time>
      </trkpt>
      <trkpt lat="38.890984" lon="-1.352315">
        <ele>938.410843</ele>
        <time>2020-08-04T07:54:56.440Z</time>
      </trkpt>
      <trkpt lat="38.891112" lon="-1.352358">
        <ele>938.658261</ele>
        <time>2020-08-04T07:54:58.449Z</time>
      </trkpt>
      <trkpt lat="38.891246" lon="-1.352406">
        <ele>938.918411</ele>
        <time>2020-08-04T07:55:00.440Z</time>
      </trkpt>
      <trkpt lat="38.891380" lon="-1.352425">
        <ele>939.170524</ele>
        <time>2020-08-04T07:55:02.441Z</time>
      </trkpt>
      <trkpt lat="38.891499" lon="-1.352471">
        <ele>939.402918</ele>
        <time>2020-08-04T07:55:04.442Z</time>
      </trkpt>
      <trkpt lat="38.891608" lon="-1.352504">
        <ele>939.612341</ele>
        <time>2020-08-04T07:55:06.443Z</time>
      </trkpt>
      <trkpt lat="38.891717" lon="-1.352565">
        <ele>939.834679</ele>
        <time>2020-08-04T07:55:08.442Z</time>
      </trkpt>
      <trkpt lat="38.891819" lon="-1.352617">
        <ele>940.039895</ele>
        <time>2020-08-04T07:55:10.443Z</time>
      </trkpt>
      <trkpt lat="38.891930" lon="-1.352661">
        <ele>940.255713</ele>
        <time>2020-08-04T07:55:12.452Z</time>
      </trkpt>
      <trkpt lat="38.892038" lon="-1.352697">
        <ele>940.462216</ele>
        <time>2020-08-04T07:55:14.447Z</time>
      </trkpt>
      <trkpt lat="38.892138" lon="-1.352755">
        <ele>940.665279</ele>
        <time>2020-08-04T07:55:16.434Z</time>
      </trkpt>
      <trkpt lat="38.892256" lon="-1.352806">
        <ele>940.895697</ele>
        <time>2020-08-04T07:55:18.435Z</time>
      </trkpt>
      <trkpt lat="38.892361" lon="-1.352866">
        <ele>941.108383</ele>
        <time>2020-08-04T07:55:20.437Z</time>
      </trkpt>
      <trkpt lat="38.892461" lon="-1.352923">
        <ele>941.310858</ele>
        <time>2020-08-04T07:55:22.441Z</time>
      </trkpt>
      <trkpt lat="38.892558" lon="-1.352964">
        <ele>941.499849</ele>
        <time>2020-08-04T07:55:24.440Z</time>
      </trkpt>
      <trkpt lat="38.892653" lon="-1.353013">
        <ele>941.689313</ele>
        <time>2020-08-04T07:55:26.451Z</time>
      </trkpt>
      <trkpt lat="38.892746" lon="-1.353071">
        <ele>941.880642</ele>
        <time>2020-08-04T07:55:28.446Z</time>
      </trkpt>
      <trkpt lat="38.892830" lon="-1.353132">
        <ele>942.059223</ele>
        <time>2020-08-04T07:55:30.444Z</time>
      </trkpt>
      <trkpt lat="38.892914" lon="-1.353184">
        <ele>942.231793</ele>
        <time>2020-08-04T07:55:32.438Z</time>
      </trkpt>
      <trkpt lat="38.893037" lon="-1.353261">
        <ele>942.485024</ele>
        <time>2020-08-04T07:55:35.442Z</time>
      </trkpt>
      <trkpt lat="38.893155" lon="-1.353341">
        <ele>942.731956</ele>
        <time>2020-08-04T07:55:38.444Z</time>
      </trkpt>
      <trkpt lat="38.893278" lon="-1.353427">
        <ele>942.991128</ele>
        <time>2020-08-04T07:55:41.437Z</time>
      </trkpt>
      <trkpt lat="38.893384" lon="-1.353492">
        <ele>943.208509</ele>
        <time>2020-08-04T07:55:44.443Z</time>
      </trkpt>
      <trkpt lat="38.893458" lon="-1.353562">
        <ele>943.378583</ele>
        <time>2020-08-04T07:55:46.449Z</time>
      </trkpt>
      <trkpt lat="38.893562" lon="-1.353648">
        <ele>943.405791</ele>
        <time>2020-08-04T07:55:49.440Z</time>
      </trkpt>
      <trkpt lat="38.893634" lon="-1.353720">
        <ele>943.360067</ele>
        <time>2020-08-04T07:55:51.452Z</time>
      </trkpt>
      <trkpt lat="38.893739" lon="-1.353806">
        <ele>943.297662</ele>
        <time>2020-08-04T07:55:54.446Z</time>
      </trkpt>
      <trkpt lat="38.893825" lon="-1.353885">
        <ele>943.244680</ele>
        <time>2020-08-04T07:55:57.455Z</time>
      </trkpt>
      <trkpt lat="38.893926" lon="-1.353966">
        <ele>943.185012</ele>
        <time>2020-08-04T07:56:00.439Z</time>
      </trkpt>
      <trkpt lat="38.894026" lon="-1.354042">
        <ele>943.126784</ele>
        <time>2020-08-04T07:56:03.445Z</time>
      </trkpt>
      <trkpt lat="38.894119" lon="-1.354129">
        <ele>943.069131</ele>
        <time>2020-08-04T07:56:06.443Z</time>
      </trkpt>
      <trkpt lat="38.894225" lon="-1.354208">
        <ele>943.007718</ele>
        <time>2020-08-04T07:56:09.445Z</time>
      </trkpt>
      <trkpt lat="38.894320" lon="-1.354295">
        <ele>942.949252</ele>
        <time>2020-08-04T07:56:12.442Z</time>
      </trkpt>
      <trkpt lat="38.894418" lon="-1.354375">
        <ele>942.891064</ele>
        <time>2020-08-04T07:56:15.442Z</time>
      </trkpt>
      <trkpt lat="38.894527" lon="-1.354453">
        <ele>942.828536</ele>
        <time>2020-08-04T07:56:18.441Z</time>
      </trkpt>
      <trkpt lat="38.894629" lon="-1.354544">
        <ele>942.766303</ele>
        <time>2020-08-04T07:56:21.434Z</time>
      </trkpt>
      <trkpt lat="38.894747" lon="-1.354631">
        <ele>942.698122</ele>
        <time>2020-08-04T07:56:24.443Z</time>
      </trkpt>
      <trkpt lat="38.894818" lon="-1.354712">
        <ele>942.650537</ele>
        <time>2020-08-04T07:56:26.441Z</time>
      </trkpt>
      <trkpt lat="38.894921" lon="-1.354801">
        <ele>942.588330</ele>
        <time>2020-08-04T07:56:29.444Z</time>
      </trkpt>
      <trkpt lat="38.895001" lon="-1.354871">
        <ele>942.501406</ele>
        <time>2020-08-04T07:56:31.438Z</time>
      </trkpt>
      <trkpt lat="38.895077" lon="-1.354938">
        <ele>942.219803</ele>
        <time>2020-08-04T07:56:33.445Z</time>
      </trkpt>
      <trkpt lat="38.895191" lon="-1.355035">
        <ele>941.802049</ele>
        <time>2020-08-04T07:56:36.443Z</time>
      </trkpt>
      <trkpt lat="38.895273" lon="-1.355103">
        <ele>941.503866</ele>
        <time>2020-08-04T07:56:38.446Z</time>
      </trkpt>
      <trkpt lat="38.895380" lon="-1.355185">
        <ele>941.123216</ele>
        <time>2020-08-04T07:56:40.443Z</time>
      </trkpt>
      <trkpt lat="38.895478" lon="-1.355214">
        <ele>940.815960</ele>
        <time>2020-08-04T07:56:42.447Z</time>
      </trkpt>
      <trkpt lat="38.895571" lon="-1.355268">
        <ele>940.504151</ele>
        <time>2020-08-04T07:56:44.442Z</time>
      </trkpt>
      <trkpt lat="38.895682" lon="-1.355324">
        <ele>940.139808</ele>
        <time>2020-08-04T07:56:46.440Z</time>
      </trkpt>
      <trkpt lat="38.895781" lon="-1.355385">
        <ele>939.804353</ele>
        <time>2020-08-04T07:56:48.446Z</time>
      </trkpt>
      <trkpt lat="38.895878" lon="-1.355457">
        <ele>939.462091</ele>
        <time>2020-08-04T07:56:50.437Z</time>
      </trkpt>
      <trkpt lat="38.895982" lon="-1.355502">
        <ele>939.126808</ele>
        <time>2020-08-04T07:56:52.438Z</time>
      </trkpt>
      <trkpt lat="38.896114" lon="-1.355569">
        <ele>938.693182</ele>
        <time>2020-08-04T07:56:54.448Z</time>
      </trkpt>
      <trkpt lat="38.896255" lon="-1.355659">
        <ele>938.212158</ele>
        <time>2020-08-04T07:56:56.450Z</time>
      </trkpt>
      <trkpt lat="38.896368" lon="-1.355720">
        <ele>937.837677</ele>
        <time>2020-08-04T07:56:58.450Z</time>
      </trkpt>
      <trkpt lat="38.896504" lon="-1.355772">
        <ele>937.404151</ele>
        <time>2020-08-04T07:57:00.446Z</time>
      </trkpt>
      <trkpt lat="38.896642" lon="-1.355829">
        <ele>937.003247</ele>
        <time>2020-08-04T07:57:02.440Z</time>
      </trkpt>
      <trkpt lat="38.896792" lon="-1.355857">
        <ele>936.754411</ele>
        <time>2020-08-04T07:57:04.446Z</time>
      </trkpt>
      <trkpt lat="38.896953" lon="-1.355872">
        <ele>936.489408</ele>
        <time>2020-08-04T07:57:06.461Z</time>
      </trkpt>
      <trkpt lat="38.897044" lon="-1.355877">
        <ele>936.339879</ele>
        <time>2020-08-04T07:57:07.435Z</time>
      </trkpt>
      <trkpt lat="38.897201" lon="-1.355906">
        <ele>936.079487</ele>
        <time>2020-08-04T07:57:09.441Z</time>
      </trkpt>
      <trkpt lat="38.897371" lon="-1.355927">
        <ele>935.799116</ele>
        <time>2020-08-04T07:57:11.434Z</time>
      </trkpt>
      <trkpt lat="38.897532" lon="-1.355939">
        <ele>935.534363</ele>
        <time>2020-08-04T07:57:13.440Z</time>
      </trkpt>
      <trkpt lat="38.897622" lon="-1.355933">
        <ele>935.386414</ele>
        <time>2020-08-04T07:57:14.442Z</time>
      </trkpt>
      <trkpt lat="38.897793" lon="-1.355935">
        <ele>935.105676</ele>
        <time>2020-08-04T07:57:16.436Z</time>
      </trkpt>
      <trkpt lat="38.897962" lon="-1.355945">
        <ele>934.827939</ele>
        <time>2020-08-04T07:57:18.443Z</time>
      </trkpt>
      <trkpt lat="38.898057" lon="-1.355946">
        <ele>934.671975</ele>
        <time>2020-08-04T07:57:19.438Z</time>
      </trkpt>
      <trkpt lat="38.898231" lon="-1.355935">
        <ele>934.385979</ele>
        <time>2020-08-04T07:57:21.453Z</time>
      </trkpt>
      <trkpt lat="38.898401" lon="-1.355939">
        <ele>934.106848</ele>
        <time>2020-08-04T07:57:23.448Z</time>
      </trkpt>
      <trkpt lat="38.898573" lon="-1.355918">
        <ele>933.908996</ele>
        <time>2020-08-04T07:57:25.448Z</time>
      </trkpt>
      <trkpt lat="38.898669" lon="-1.355919">
        <ele>933.800378</ele>
        <time>2020-08-04T07:57:26.432Z</time>
      </trkpt>
      <trkpt lat="38.898855" lon="-1.355901">
        <ele>933.589340</ele>
        <time>2020-08-04T07:57:28.433Z</time>
      </trkpt>
      <trkpt lat="38.898949" lon="-1.355888">
        <ele>933.482374</ele>
        <time>2020-08-04T07:57:29.441Z</time>
      </trkpt>
      <trkpt lat="38.899045" lon="-1.355874">
        <ele>933.373062</ele>
        <time>2020-08-04T07:57:30.438Z</time>
      </trkpt>
      <trkpt lat="38.899138" lon="-1.355867">
        <ele>933.267661</ele>
        <time>2020-08-04T07:57:31.443Z</time>
      </trkpt>
      <trkpt lat="38.899240" lon="-1.355863">
        <ele>933.152203</ele>
        <time>2020-08-04T07:57:32.461Z</time>
      </trkpt>
      <trkpt lat="38.899356" lon="-1.355865">
        <ele>933.020949</ele>
        <time>2020-08-04T07:57:33.458Z</time>
      </trkpt>
      <trkpt lat="38.899469" lon="-1.355856">
        <ele>932.892854</ele>
        <time>2020-08-04T07:57:34.444Z</time>
      </trkpt>
      <trkpt lat="38.899591" lon="-1.355877">
        <ele>932.753590</ele>
        <time>2020-08-04T07:57:35.448Z</time>
      </trkpt>
      <trkpt lat="38.899704" lon="-1.355889">
        <ele>932.625305</ele>
        <time>2020-08-04T07:57:36.449Z</time>
      </trkpt>
      <trkpt lat="38.899807" lon="-1.355900">
        <ele>932.508369</ele>
        <time>2020-08-04T07:57:37.447Z</time>
      </trkpt>
      <trkpt lat="38.899910" lon="-1.355912">
        <ele>932.391356</ele>
        <time>2020-08-04T07:57:38.459Z</time>
      </trkpt>
      <trkpt lat="38.900018" lon="-1.355909">
        <ele>932.269135</ele>
        <time>2020-08-04T07:57:39.458Z</time>
      </trkpt>
      <trkpt lat="38.900119" lon="-1.355930">
        <ele>932.153377</ele>
        <time>2020-08-04T07:57:40.437Z</time>
      </trkpt>
      <trkpt lat="38.900222" lon="-1.355942">
        <ele>932.034653</ele>
        <time>2020-08-04T07:57:41.442Z</time>
      </trkpt>
      <trkpt lat="38.900323" lon="-1.355964">
        <ele>931.911629</ele>
        <time>2020-08-04T07:57:42.450Z</time>
      </trkpt>
      <trkpt lat="38.900430" lon="-1.355990">
        <ele>931.780853</ele>
        <time>2020-08-04T07:57:43.434Z</time>
      </trkpt>
      <trkpt lat="38.900528" lon="-1.356012">
        <ele>931.661380</ele>
        <time>2020-08-04T07:57:44.688Z</time>
      </trkpt>
      <trkpt lat="38.900626" lon="-1.356032">
        <ele>931.542214</ele>
        <time>2020-08-04T07:57:45.681Z</time>
      </trkpt>
      <trkpt lat="38.900727" lon="-1.356052">
        <ele>931.419489</ele>
        <time>2020-08-04T07:57:46.678Z</time>
      </trkpt>
      <trkpt lat="38.900916" lon="-1.356063">
        <ele>931.192281</ele>
        <time>2020-08-04T07:57:48.685Z</time>
      </trkpt>
      <trkpt lat="38.901015" lon="-1.356081">
        <ele>931.072205</ele>
        <time>2020-08-04T07:57:49.683Z</time>
      </trkpt>
      <trkpt lat="38.901119" lon="-1.356121">
        <ele>930.941834</ele>
        <time>2020-08-04T07:57:50.676Z</time>
      </trkpt>
      <trkpt lat="38.901207" lon="-1.356155">
        <ele>930.831479</ele>
        <time>2020-08-04T07:57:51.679Z</time>
      </trkpt>
      <trkpt lat="38.901306" lon="-1.356190">
        <ele>930.708170</ele>
        <time>2020-08-04T07:57:52.684Z</time>
      </trkpt>
      <trkpt lat="38.901492" lon="-1.356234">
        <ele>930.481044</ele>
        <time>2020-08-04T07:57:54.696Z</time>
      </trkpt>
      <trkpt lat="38.901595" lon="-1.356245">
        <ele>930.356922</ele>
        <time>2020-08-04T07:57:55.681Z</time>
      </trkpt>
      <trkpt lat="38.901776" lon="-1.356292">
        <ele>930.135161</ele>
        <time>2020-08-04T07:57:57.682Z</time>
      </trkpt>
      <trkpt lat="38.901958" lon="-1.356326">
        <ele>929.914295</ele>
        <time>2020-08-04T07:57:59.683Z</time>
      </trkpt>
      <trkpt lat="38.902054" lon="-1.356359">
        <ele>929.969381</ele>
        <time>2020-08-04T07:58:00.688Z</time>
      </trkpt>
      <trkpt lat="38.902145" lon="-1.356378">
        <ele>930.035467</ele>
        <time>2020-08-04T07:58:01.679Z</time>
      </trkpt>
      <trkpt lat="38.902306" lon="-1.356416">
        <ele>930.152806</ele>
        <time>2020-08-04T07:58:03.691Z</time>
      </trkpt>
      <trkpt lat="38.902476" lon="-1.356439">
        <ele>930.275340</ele>
        <time>2020-08-04T07:58:05.697Z</time>
      </trkpt>
      <trkpt lat="38.902645" lon="-1.356488">
        <ele>930.399528</ele>
        <time>2020-08-04T07:58:07.682Z</time>
      </trkpt>
      <trkpt lat="38.902799" lon="-1.356547">
        <ele>930.514721</ele>
        <time>2020-08-04T07:58:09.689Z</time>
      </trkpt>
      <trkpt lat="38.902951" lon="-1.356613">
        <ele>930.629730</ele>
        <time>2020-08-04T07:58:11.685Z</time>
      </trkpt>
      <trkpt lat="38.903092" lon="-1.356651">
        <ele>930.733001</ele>
        <time>2020-08-04T07:58:13.680Z</time>
      </trkpt>
      <trkpt lat="38.906420" lon="-1.357515">
        <ele>932.464674</ele>
        <time>2020-08-04T07:59:13.695Z</time>
      </trkpt>
      <trkpt lat="38.906514" lon="-1.357631">
        <ele>932.495643</ele>
        <time>2020-08-04T07:59:15.682Z</time>
      </trkpt>
      <trkpt lat="38.906620" lon="-1.357557">
        <ele>932.524310</ele>
        <time>2020-08-04T07:59:17.680Z</time>
      </trkpt>
      <trkpt lat="38.906727" lon="-1.357638">
        <ele>932.553821</ele>
        <time>2020-08-04T07:59:19.684Z</time>
      </trkpt>
      <trkpt lat="38.906863" lon="-1.357642">
        <ele>932.586148</ele>
        <time>2020-08-04T07:59:22.683Z</time>
      </trkpt>
      <trkpt lat="38.906965" lon="-1.357669">
        <ele>932.610895</ele>
        <time>2020-08-04T07:59:24.682Z</time>
      </trkpt>
      <trkpt lat="38.907056" lon="-1.357723">
        <ele>932.634715</ele>
        <time>2020-08-04T07:59:26.684Z</time>
      </trkpt>
      <trkpt lat="38.907157" lon="-1.357726">
        <ele>932.658722</ele>
        <time>2020-08-04T07:59:28.686Z</time>
      </trkpt>
      <trkpt lat="38.907256" lon="-1.357742">
        <ele>932.453380</ele>
        <time>2020-08-04T07:59:30.688Z</time>
      </trkpt>
      <trkpt lat="38.907353" lon="-1.357778">
        <ele>932.155762</ele>
        <time>2020-08-04T07:59:32.686Z</time>
      </trkpt>
      <trkpt lat="38.907460" lon="-1.357821">
        <ele>931.825289</ele>
        <time>2020-08-04T07:59:34.683Z</time>
      </trkpt>
      <trkpt lat="38.907559" lon="-1.357835">
        <ele>931.531700</ele>
        <time>2020-08-04T07:59:36.685Z</time>
      </trkpt>
      <trkpt lat="38.907653" lon="-1.357846">
        <ele>931.253464</ele>
        <time>2020-08-04T07:59:38.694Z</time>
      </trkpt>
      <trkpt lat="38.907756" lon="-1.357851">
        <ele>930.949629</ele>
        <time>2020-08-04T07:59:40.673Z</time>
      </trkpt>
      <trkpt lat="38.907892" lon="-1.357884">
        <ele>930.541650</ele>
        <time>2020-08-04T07:59:43.669Z</time>
      </trkpt>
      <trkpt lat="38.907995" lon="-1.357897">
        <ele>930.236570</ele>
        <time>2020-08-04T07:59:45.680Z</time>
      </trkpt>
      <trkpt lat="38.908092" lon="-1.357919">
        <ele>929.946219</ele>
        <time>2020-08-04T07:59:47.683Z</time>
      </trkpt>
      <trkpt lat="38.908197" lon="-1.357931">
        <ele>929.635482</ele>
        <time>2020-08-04T07:59:49.672Z</time>
      </trkpt>
      <trkpt lat="38.908297" lon="-1.357931">
        <ele>929.340707</ele>
        <time>2020-08-04T07:59:51.684Z</time>
      </trkpt>
      <trkpt lat="38.908399" lon="-1.357966">
        <ele>929.029502</ele>
        <time>2020-08-04T07:59:53.678Z</time>
      </trkpt>
      <trkpt lat="38.908523" lon="-1.358004">
        <ele>928.653731</ele>
        <time>2020-08-04T07:59:55.681Z</time>
      </trkpt>
      <trkpt lat="38.908641" lon="-1.358031">
        <ele>928.300425</ele>
        <time>2020-08-04T07:59:57.682Z</time>
      </trkpt>
      <trkpt lat="38.908734" lon="-1.358074">
        <ele>928.009080</ele>
        <time>2020-08-04T07:59:59.688Z</time>
      </trkpt>
      <trkpt lat="38.908845" lon="-1.358102">
        <ele>927.675635</ele>
        <time>2020-08-04T08:00:01.686Z</time>
      </trkpt>
      <trkpt lat="38.908960" lon="-1.358142">
        <ele>927.377552</ele>
        <time>2020-08-04T08:00:03.693Z</time>
      </trkpt>
      <trkpt lat="38.909063" lon="-1.358158">
        <ele>927.488851</ele>
        <time>2020-08-04T08:00:05.688Z</time>
      </trkpt>
      <trkpt lat="38.909166" lon="-1.358193">
        <ele>927.603143</ele>
        <time>2020-08-04T08:00:07.684Z</time>
      </trkpt>
      <trkpt lat="38.909274" lon="-1.358252">
        <ele>927.729035</ele>
        <time>2020-08-04T08:00:09.685Z</time>
      </trkpt>
      <trkpt lat="38.909385" lon="-1.358282">
        <ele>927.850716</ele>
        <time>2020-08-04T08:00:11.682Z</time>
      </trkpt>
      <trkpt lat="38.909501" lon="-1.358316">
        <ele>927.978352</ele>
        <time>2020-08-04T08:00:13.688Z</time>
      </trkpt>
      <trkpt lat="38.909615" lon="-1.358353">
        <ele>928.104486</ele>
        <time>2020-08-04T08:00:15.683Z</time>
      </trkpt>
      <trkpt lat="38.909722" lon="-1.358363">
        <ele>928.219575</ele>
        <time>2020-08-04T08:00:17.684Z</time>
      </trkpt>
      <trkpt lat="38.909828" lon="-1.358374">
        <ele>928.333657</ele>
        <time>2020-08-04T08:00:19.681Z</time>
      </trkpt>
      <trkpt lat="38.909936" lon="-1.358416">
        <ele>928.454704</ele>
        <time>2020-08-04T08:00:21.674Z</time>
      </trkpt>
      <trkpt lat="38.910051" lon="-1.358439">
        <ele>928.579556</ele>
        <time>2020-08-04T08:00:23.682Z</time>
      </trkpt>
      <trkpt lat="38.910155" lon="-1.358461">
        <ele>928.692625</ele>
        <time>2020-08-04T08:00:25.682Z</time>
      </trkpt>
      <trkpt lat="38.910261" lon="-1.358475">
        <ele>928.806936</ele>
        <time>2020-08-04T08:00:27.681Z</time>
      </trkpt>
      <trkpt lat="38.910370" lon="-1.358516">
        <ele>928.928773</ele>
        <time>2020-08-04T08:00:29.685Z</time>
      </trkpt>
      <trkpt lat="38.910498" lon="-1.358558">
        <ele>929.070491</ele>
        <time>2020-08-04T08:00:31.691Z</time>
      </trkpt>
      <trkpt lat="38.910606" lon="-1.358579">
        <ele>929.187668</ele>
        <time>2020-08-04T08:00:33.682Z</time>
      </trkpt>
      <trkpt lat="38.910719" lon="-1.358595">
        <ele>929.310668</ele>
        <time>2020-08-04T08:00:35.687Z</time>
      </trkpt>
      <trkpt lat="38.910838" lon="-1.358603">
        <ele>929.446484</ele>
        <time>2020-08-04T08:00:37.676Z</time>
      </trkpt>
      <trkpt lat="38.910962" lon="-1.358633">
        <ele>929.590296</ele>
        <time>2020-08-04T08:00:39.687Z</time>
      </trkpt>
      <trkpt lat="38.911073" lon="-1.358653">
        <ele>929.718046</ele>
        <time>2020-08-04T08:00:41.681Z</time>
      </trkpt>
      <trkpt lat="38.911184" lon="-1.358687">
        <ele>929.848102</ele>
        <time>2020-08-04T08:00:43.677Z</time>
      </trkpt>
      <trkpt lat="38.911296" lon="-1.358716">
        <ele>929.978319</ele>
        <time>2020-08-04T08:00:45.683Z</time>
      </trkpt>
      <trkpt lat="38.911415" lon="-1.358764">
        <ele>930.120473</ele>
        <time>2020-08-04T08:00:47.684Z</time>
      </trkpt>
      <trkpt lat="38.911527" lon="-1.358824">
        <ele>930.258772</ele>
        <time>2020-08-04T08:00:49.675Z</time>
      </trkpt>
      <trkpt lat="38.911639" lon="-1.358842">
        <ele>930.387418</ele>
        <time>2020-08-04T08:00:51.683Z</time>
      </trkpt>
      <trkpt lat="38.911754" lon="-1.358882">
        <ele>930.523206</ele>
        <time>2020-08-04T08:00:53.678Z</time>
      </trkpt>
      <trkpt lat="38.911879" lon="-1.358916">
        <ele>930.668830</ele>
        <time>2020-08-04T08:00:55.669Z</time>
      </trkpt>
      <trkpt lat="38.911992" lon="-1.358952">
        <ele>930.801521</ele>
        <time>2020-08-04T08:00:57.691Z</time>
      </trkpt>
      <trkpt lat="38.912113" lon="-1.359003">
        <ele>930.946658</ele>
        <time>2020-08-04T08:00:59.683Z</time>
      </trkpt>
      <trkpt lat="38.912206" lon="-1.359029">
        <ele>931.055134</ele>
        <time>2020-08-04T08:01:01.688Z</time>
      </trkpt>
      <trkpt lat="38.912324" lon="-1.359054">
        <ele>931.191440</ele>
        <time>2020-08-04T08:01:03.684Z</time>
      </trkpt>
      <trkpt lat="38.912441" lon="-1.359087">
        <ele>931.327964</ele>
        <time>2020-08-04T08:01:05.686Z</time>
      </trkpt>
      <trkpt lat="38.912552" lon="-1.359104">
        <ele>931.252615</ele>
        <time>2020-08-04T08:01:07.684Z</time>
      </trkpt>
      <trkpt lat="38.912675" lon="-1.359126">
        <ele>931.138993</ele>
        <time>2020-08-04T08:01:09.682Z</time>
      </trkpt>
      <trkpt lat="38.912782" lon="-1.359174">
        <ele>931.035301</ele>
        <time>2020-08-04T08:01:11.686Z</time>
      </trkpt>
      <trkpt lat="38.912885" lon="-1.359200">
        <ele>930.939261</ele>
        <time>2020-08-04T08:01:13.686Z</time>
      </trkpt>
      <trkpt lat="38.913009" lon="-1.359254">
        <ele>930.819471</ele>
        <time>2020-08-04T08:01:15.707Z</time>
      </trkpt>
      <trkpt lat="38.913122" lon="-1.359293">
        <ele>930.712419</ele>
        <time>2020-08-04T08:01:17.685Z</time>
      </trkpt>
      <trkpt lat="38.913256" lon="-1.359306">
        <ele>930.589468</ele>
        <time>2020-08-04T08:01:20.678Z</time>
      </trkpt>
      <trkpt lat="38.913351" lon="-1.359288">
        <ele>930.501609</ele>
        <time>2020-08-04T08:01:22.680Z</time>
      </trkpt>
      <trkpt lat="38.913459" lon="-1.359340">
        <ele>930.396088</ele>
        <time>2020-08-04T08:01:24.684Z</time>
      </trkpt>
      <trkpt lat="38.913552" lon="-1.359361">
        <ele>930.309695</ele>
        <time>2020-08-04T08:01:26.681Z</time>
      </trkpt>
      <trkpt lat="38.913654" lon="-1.359392">
        <ele>930.213796</ele>
        <time>2020-08-04T08:01:28.672Z</time>
      </trkpt>
      <trkpt lat="38.913772" lon="-1.359420">
        <ele>930.104008</ele>
        <time>2020-08-04T08:01:30.678Z</time>
      </trkpt>
      <trkpt lat="38.913891" lon="-1.359454">
        <ele>929.992471</ele>
        <time>2020-08-04T08:01:32.676Z</time>
      </trkpt>
      <trkpt lat="38.914003" lon="-1.359495">
        <ele>929.885922</ele>
        <time>2020-08-04T08:01:34.689Z</time>
      </trkpt>
      <trkpt lat="38.914112" lon="-1.359526">
        <ele>929.783780</ele>
        <time>2020-08-04T08:01:36.682Z</time>
      </trkpt>
      <trkpt lat="38.914231" lon="-1.359560">
        <ele>929.691281</ele>
        <time>2020-08-04T08:01:38.686Z</time>
      </trkpt>
      <trkpt lat="38.914338" lon="-1.359588">
        <ele>929.667455</ele>
        <time>2020-08-04T08:01:40.683Z</time>
      </trkpt>
      <trkpt lat="38.914445" lon="-1.359616">
        <ele>929.643629</ele>
        <time>2020-08-04T08:01:42.682Z</time>
      </trkpt>
      <trkpt lat="38.914571" lon="-1.359629">
        <ele>929.616047</ele>
        <time>2020-08-04T08:01:44.685Z</time>
      </trkpt>
      <trkpt lat="38.914686" lon="-1.359659">
        <ele>929.590443</ele>
        <time>2020-08-04T08:01:46.683Z</time>
      </trkpt>
      <trkpt lat="38.914801" lon="-1.359666">
        <ele>929.565322</ele>
        <time>2020-08-04T08:01:48.696Z</time>
      </trkpt>
      <trkpt lat="38.914922" lon="-1.359716">
        <ele>929.537589</ele>
        <time>2020-08-04T08:01:50.681Z</time>
      </trkpt>
      <trkpt lat="38.915043" lon="-1.359756">
        <ele>929.510328</ele>
        <time>2020-08-04T08:01:52.685Z</time>
      </trkpt>
      <trkpt lat="38.915177" lon="-1.359800">
        <ele>929.480151</ele>
        <time>2020-08-04T08:01:54.680Z</time>
      </trkpt>
      <trkpt lat="38.915285" lon="-1.359826">
        <ele>929.456176</ele>
        <time>2020-08-04T08:01:56.676Z</time>
      </trkpt>
      <trkpt lat="38.915389" lon="-1.359833">
        <ele>929.433452</ele>
        <time>2020-08-04T08:01:58.682Z</time>
      </trkpt>
      <trkpt lat="38.915492" lon="-1.359854">
        <ele>929.410697</ele>
        <time>2020-08-04T08:02:00.695Z</time>
      </trkpt>
      <trkpt lat="38.915602" lon="-1.359886">
        <ele>929.386088</ele>
        <time>2020-08-04T08:02:02.687Z</time>
      </trkpt>
      <trkpt lat="38.915702" lon="-1.359896">
        <ele>929.364203</ele>
        <time>2020-08-04T08:02:04.685Z</time>
      </trkpt>
      <trkpt lat="38.915813" lon="-1.359941">
        <ele>929.338806</ele>
        <time>2020-08-04T08:02:06.685Z</time>
      </trkpt>
      <trkpt lat="38.915905" lon="-1.359971">
        <ele>929.318096</ele>
        <time>2020-08-04T08:02:08.682Z</time>
      </trkpt>
      <trkpt lat="38.916024" lon="-1.360000">
        <ele>929.343421</ele>
        <time>2020-08-04T08:02:10.695Z</time>
      </trkpt>
      <trkpt lat="38.916119" lon="-1.360024">
        <ele>929.405647</ele>
        <time>2020-08-04T08:02:12.682Z</time>
      </trkpt>
      <trkpt lat="38.916216" lon="-1.360041">
        <ele>929.468567</ele>
        <time>2020-08-04T08:02:14.676Z</time>
      </trkpt>
      <trkpt lat="38.916317" lon="-1.360068">
        <ele>929.534871</ele>
        <time>2020-08-04T08:02:16.689Z</time>
      </trkpt>
      <trkpt lat="38.916442" lon="-1.360097">
        <ele>929.616508</ele>
        <time>2020-08-04T08:02:18.687Z</time>
      </trkpt>
      <trkpt lat="38.916545" lon="-1.360137">
        <ele>929.685664</ele>
        <time>2020-08-04T08:02:20.682Z</time>
      </trkpt>
      <trkpt lat="38.916664" lon="-1.360168">
        <ele>929.763702</ele>
        <time>2020-08-04T08:02:22.691Z</time>
      </trkpt>
      <trkpt lat="38.916754" lon="-1.360189">
        <ele>929.822492</ele>
        <time>2020-08-04T08:02:24.678Z</time>
      </trkpt>
      <trkpt lat="38.916863" lon="-1.360215">
        <ele>929.893744</ele>
        <time>2020-08-04T08:02:26.689Z</time>
      </trkpt>
      <trkpt lat="38.916972" lon="-1.360242">
        <ele>929.965089</ele>
        <time>2020-08-04T08:02:28.679Z</time>
      </trkpt>
      <trkpt lat="38.917086" lon="-1.360278">
        <ele>930.040538</ele>
        <time>2020-08-04T08:02:30.685Z</time>
      </trkpt>
      <trkpt lat="38.917197" lon="-1.360281">
        <ele>930.111895</ele>
        <time>2020-08-04T08:02:32.682Z</time>
      </trkpt>
      <trkpt lat="38.917288" lon="-1.360296">
        <ele>930.170861</ele>
        <time>2020-08-04T08:02:34.680Z</time>
      </trkpt>
      <trkpt lat="38.917390" lon="-1.360334">
        <ele>930.239116</ele>
        <time>2020-08-04T08:02:36.687Z</time>
      </trkpt>
      <trkpt lat="38.917494" lon="-1.360377">
        <ele>930.309332</ele>
        <time>2020-08-04T08:02:38.681Z</time>
      </trkpt>
      <trkpt lat="38.917601" lon="-1.360414">
        <ele>930.380548</ele>
        <time>2020-08-04T08:02:40.686Z</time>
      </trkpt>
      <trkpt lat="38.917692" lon="-1.360454">
        <ele>930.442361</ele>
        <time>2020-08-04T08:02:42.685Z</time>
      </trkpt>
      <trkpt lat="38.917809" lon="-1.360473">
        <ele>930.566255</ele>
        <time>2020-08-04T08:02:45.680Z</time>
      </trkpt>
      <trkpt lat="38.917903" lon="-1.360496">
        <ele>930.679328</ele>
        <time>2020-08-04T08:02:47.687Z</time>
      </trkpt>
      <trkpt lat="38.917993" lon="-1.360517">
        <ele>930.787418</ele>
        <time>2020-08-04T08:02:49.676Z</time>
      </trkpt>
      <trkpt lat="38.918078" lon="-1.360571">
        <ele>930.899461</ele>
        <time>2020-08-04T08:02:51.674Z</time>
      </trkpt>
      <trkpt lat="38.918179" lon="-1.360618">
        <ele>931.026392</ele>
        <time>2020-08-04T08:02:53.686Z</time>
      </trkpt>
      <trkpt lat="38.918279" lon="-1.360638">
        <ele>931.145982</ele>
        <time>2020-08-04T08:02:55.682Z</time>
      </trkpt>
      <trkpt lat="38.918393" lon="-1.360680">
        <ele>931.286119</ele>
        <time>2020-08-04T08:02:58.691Z</time>
      </trkpt>
      <trkpt lat="38.918499" lon="-1.360731">
        <ele>931.419866</ele>
        <time>2020-08-04T08:03:01.680Z</time>
      </trkpt>
      <trkpt lat="38.918586" lon="-1.360766">
        <ele>931.527590</ele>
        <time>2020-08-04T08:03:03.680Z</time>
      </trkpt>
      <trkpt lat="38.918699" lon="-1.360821">
        <ele>931.670374</ele>
        <time>2020-08-04T08:03:06.681Z</time>
      </trkpt>
      <trkpt lat="38.918795" lon="-1.360881">
        <ele>931.796516</ele>
        <time>2020-08-04T08:03:08.679Z</time>
      </trkpt>
      <trkpt lat="38.918905" lon="-1.360924">
        <ele>931.932380</ele>
        <time>2020-08-04T08:03:11.682Z</time>
      </trkpt>
      <trkpt lat="38.919023" lon="-1.360970">
        <ele>932.078091</ele>
        <time>2020-08-04T08:03:14.678Z</time>
      </trkpt>
      <trkpt lat="38.919151" lon="-1.361017">
        <ele>932.235397</ele>
        <time>2020-08-04T08:03:17.681Z</time>
      </trkpt>
      <trkpt lat="38.919263" lon="-1.361072">
        <ele>932.377076</ele>
        <time>2020-08-04T08:03:20.661Z</time>
      </trkpt>
      <trkpt lat="38.919375" lon="-1.361133">
        <ele>932.520817</ele>
        <time>2020-08-04T08:03:23.677Z</time>
      </trkpt>
      <trkpt lat="38.919492" lon="-1.361191">
        <ele>932.687525</ele>
        <time>2020-08-04T08:03:26.690Z</time>
      </trkpt>
      <trkpt lat="38.919602" lon="-1.361248">
        <ele>932.859040</ele>
        <time>2020-08-04T08:03:29.683Z</time>
      </trkpt>
      <trkpt lat="38.919714" lon="-1.361298">
        <ele>933.030497</ele>
        <time>2020-08-04T08:03:32.689Z</time>
      </trkpt>
      <trkpt lat="38.919825" lon="-1.361351">
        <ele>933.201734</ele>
        <time>2020-08-04T08:03:35.676Z</time>
      </trkpt>
      <trkpt lat="38.919932" lon="-1.361394">
        <ele>933.363856</ele>
        <time>2020-08-04T08:03:38.686Z</time>
      </trkpt>
      <trkpt lat="38.920035" lon="-1.361440">
        <ele>933.521542</ele>
        <time>2020-08-04T08:03:41.682Z</time>
      </trkpt>
      <trkpt lat="38.920144" lon="-1.361495">
        <ele>933.690881</ele>
        <time>2020-08-04T08:03:44.679Z</time>
      </trkpt>
      <trkpt lat="38.920260" lon="-1.361559">
        <ele>933.873432</ele>
        <time>2020-08-04T08:03:47.685Z</time>
      </trkpt>
      <trkpt lat="38.920375" lon="-1.361615">
        <ele>934.051272</ele>
        <time>2020-08-04T08:03:50.682Z</time>
      </trkpt>
      <trkpt lat="38.920491" lon="-1.361671">
        <ele>934.230464</ele>
        <time>2020-08-04T08:03:53.682Z</time>
      </trkpt>
      <trkpt lat="38.920600" lon="-1.361716">
        <ele>934.396022</ele>
        <time>2020-08-04T08:03:56.682Z</time>
      </trkpt>
      <trkpt lat="38.920718" lon="-1.361759">
        <ele>934.573390</ele>
        <time>2020-08-04T08:03:59.677Z</time>
      </trkpt>
      <trkpt lat="38.920837" lon="-1.361813">
        <ele>934.755888</ele>
        <time>2020-08-04T08:04:02.685Z</time>
      </trkpt>
      <trkpt lat="38.920954" lon="-1.361869">
        <ele>934.936435</ele>
        <time>2020-08-04T08:04:05.682Z</time>
      </trkpt>
      <trkpt lat="38.921067" lon="-1.361929">
        <ele>935.113241</ele>
        <time>2020-08-04T08:04:08.682Z</time>
      </trkpt>
      <trkpt lat="38.921173" lon="-1.361969">
        <ele>935.258877</ele>
        <time>2020-08-04T08:04:11.679Z</time>
      </trkpt>
      <trkpt lat="38.921286" lon="-1.362019">
        <ele>935.403230</ele>
        <time>2020-08-04T08:04:14.682Z</time>
      </trkpt>
      <trkpt lat="38.921394" lon="-1.362066">
        <ele>935.540957</ele>
        <time>2020-08-04T08:04:17.678Z</time>
      </trkpt>
      <trkpt lat="38.921506" lon="-1.362113">
        <ele>935.683268</ele>
        <time>2020-08-04T08:04:20.681Z</time>
      </trkpt>
      <trkpt lat="38.921618" lon="-1.362169">
        <ele>935.828427</ele>
        <time>2020-08-04T08:04:23.689Z</time>
      </trkpt>
      <trkpt lat="38.921734" lon="-1.362225">
        <ele>935.978100</ele>
        <time>2020-08-04T08:04:26.682Z</time>
      </trkpt>
      <trkpt lat="38.921850" lon="-1.362281">
        <ele>936.127772</ele>
        <time>2020-08-04T08:04:29.679Z</time>
      </trkpt>
      <trkpt lat="38.921963" lon="-1.362338">
        <ele>936.274398</ele>
        <time>2020-08-04T08:04:32.685Z</time>
      </trkpt>
      <trkpt lat="38.922070" lon="-1.362389">
        <ele>936.412243</ele>
        <time>2020-08-04T08:04:35.676Z</time>
      </trkpt>
      <trkpt lat="38.922174" lon="-1.362436">
        <ele>936.545402</ele>
        <time>2020-08-04T08:04:38.683Z</time>
      </trkpt>
      <trkpt lat="38.922274" lon="-1.362483">
        <ele>936.674013</ele>
        <time>2020-08-04T08:04:41.680Z</time>
      </trkpt>
      <trkpt lat="38.922391" lon="-1.362509">
        <ele>936.817433</ele>
        <time>2020-08-04T08:04:44.670Z</time>
      </trkpt>
      <trkpt lat="38.922511" lon="-1.362495">
        <ele>936.962975</ele>
        <time>2020-08-04T08:04:47.689Z</time>
      </trkpt>
      <trkpt lat="38.922621" lon="-1.362447">
        <ele>937.103291</ele>
        <time>2020-08-04T08:04:50.684Z</time>
      </trkpt>
      <trkpt lat="38.922718" lon="-1.362342">
        <ele>937.256471</ele>
        <time>2020-08-04T08:04:53.714Z</time>
      </trkpt>
      <trkpt lat="38.922814" lon="-1.362232">
        <ele>937.440921</ele>
        <time>2020-08-04T08:04:56.689Z</time>
      </trkpt>
      <trkpt lat="38.922862" lon="-1.362120">
        <ele>937.628376</ele>
        <time>2020-08-04T08:04:58.683Z</time>
      </trkpt>
      <trkpt lat="38.922923" lon="-1.362009">
        <ele>937.827602</ele>
        <time>2020-08-04T08:05:00.680Z</time>
      </trkpt>
      <trkpt lat="38.922958" lon="-1.361890">
        <ele>938.014104</ele>
        <time>2020-08-04T08:05:02.684Z</time>
      </trkpt>
      <trkpt lat="38.923011" lon="-1.361776">
        <ele>938.208793</ele>
        <time>2020-08-04T08:05:04.678Z</time>
      </trkpt>
      <trkpt lat="38.923047" lon="-1.361649">
        <ele>938.406946</ele>
        <time>2020-08-04T08:05:06.681Z</time>
      </trkpt>
      <trkpt lat="38.923086" lon="-1.361530">
        <ele>938.596244</ele>
        <time>2020-08-04T08:05:08.686Z</time>
      </trkpt>
      <trkpt lat="38.923145" lon="-1.361438">
        <ele>938.771029</ele>
        <time>2020-08-04T08:05:10.673Z</time>
      </trkpt>
      <trkpt lat="38.923196" lon="-1.361334">
        <ele>938.951251</ele>
        <time>2020-08-04T08:05:12.679Z</time>
      </trkpt>
      <trkpt lat="38.923235" lon="-1.361217">
        <ele>939.137851</ele>
        <time>2020-08-04T08:05:14.680Z</time>
      </trkpt>
      <trkpt lat="38.923275" lon="-1.361108">
        <ele>939.314527</ele>
        <time>2020-08-04T08:05:16.676Z</time>
      </trkpt>
      <trkpt lat="38.923309" lon="-1.360994">
        <ele>939.493508</ele>
        <time>2020-08-04T08:05:18.668Z</time>
      </trkpt>
      <trkpt lat="38.923360" lon="-1.360843">
        <ele>939.734830</ele>
        <time>2020-08-04T08:05:21.690Z</time>
      </trkpt>
      <trkpt lat="38.923412" lon="-1.360698">
        <ele>939.968893</ele>
        <time>2020-08-04T08:05:24.688Z</time>
      </trkpt>
      <trkpt lat="38.923455" lon="-1.360523">
        <ele>940.237930</ele>
        <time>2020-08-04T08:05:27.683Z</time>
      </trkpt>
      <trkpt lat="38.923522" lon="-1.360407">
        <ele>940.449724</ele>
        <time>2020-08-04T08:05:29.688Z</time>
      </trkpt>
      <trkpt lat="38.923584" lon="-1.360312">
        <ele>940.631504</ele>
        <time>2020-08-04T08:05:31.671Z</time>
      </trkpt>
      <trkpt lat="38.923617" lon="-1.360157">
        <ele>939.472313</ele>
        <time>2020-08-04T08:05:34.680Z</time>
      </trkpt>
      <trkpt lat="38.923674" lon="-1.360067">
        <ele>937.632020</ele>
        <time>2020-08-04T08:05:36.689Z</time>
      </trkpt>
      <trkpt lat="38.923713" lon="-1.359951">
        <ele>935.628127</ele>
        <time>2020-08-04T08:05:39.684Z</time>
      </trkpt>
      <trkpt lat="38.923781" lon="-1.359833">
        <ele>933.299513</ele>
        <time>2020-08-04T08:05:42.688Z</time>
      </trkpt>
      <trkpt lat="38.923826" lon="-1.359711">
        <ele>931.158473</ele>
        <time>2020-08-04T08:05:45.684Z</time>
      </trkpt>
      <trkpt lat="38.923864" lon="-1.359583">
        <ele>928.985949</ele>
        <time>2020-08-04T08:05:48.671Z</time>
      </trkpt>
      <trkpt lat="38.923911" lon="-1.359461">
        <ele>926.827132</ele>
        <time>2020-08-04T08:05:51.684Z</time>
      </trkpt>
      <trkpt lat="38.923964" lon="-1.359353">
        <ele>924.802272</ele>
        <time>2020-08-04T08:05:54.684Z</time>
      </trkpt>
      <trkpt lat="38.924016" lon="-1.359231">
        <ele>922.596340</ele>
        <time>2020-08-04T08:05:59.700Z</time>
      </trkpt>
      <trkpt lat="38.924086" lon="-1.359119">
        <ele>920.318168</ele>
        <time>2020-08-04T08:06:03.675Z</time>
      </trkpt>
      <trkpt lat="38.924176" lon="-1.359060">
        <ele>918.258904</ele>
        <time>2020-08-04T08:06:06.682Z</time>
      </trkpt>
      <trkpt lat="38.924288" lon="-1.359055">
        <ele>915.974645</ele>
        <time>2020-08-04T08:06:10.684Z</time>
      </trkpt>
      <trkpt lat="38.924385" lon="-1.359094">
        <ele>913.903040</ele>
        <time>2020-08-04T08:06:14.677Z</time>
      </trkpt>
      <trkpt lat="38.924469" lon="-1.359151">
        <ele>911.966941</ele>
        <time>2020-08-04T08:06:18.682Z</time>
      </trkpt>
      <trkpt lat="38.924563" lon="-1.359194">
        <ele>909.933234</ele>
        <time>2020-08-04T08:06:23.682Z</time>
      </trkpt>
      <trkpt lat="38.924658" lon="-1.359228">
        <ele>907.923203</ele>
        <time>2020-08-04T08:06:27.686Z</time>
      </trkpt>
      <trkpt lat="38.924756" lon="-1.359328">
        <ele>905.372783</ele>
        <time>2020-08-04T08:06:31.683Z</time>
      </trkpt>
      <trkpt lat="38.924811" lon="-1.359434">
        <ele>903.867666</ele>
        <time>2020-08-04T08:06:33.680Z</time>
      </trkpt>
      <trkpt lat="38.924864" lon="-1.359530">
        <ele>903.309424</ele>
        <time>2020-08-04T08:06:35.683Z</time>
      </trkpt>
      <trkpt lat="38.924929" lon="-1.359659">
        <ele>902.580569</ele>
        <time>2020-08-04T08:06:37.683Z</time>
      </trkpt>
      <trkpt lat="38.924996" lon="-1.359806">
        <ele>901.772632</ele>
        <time>2020-08-04T08:06:39.693Z</time>
      </trkpt>
      <trkpt lat="38.925075" lon="-1.359955">
        <ele>900.917544</ele>
        <time>2020-08-04T08:06:41.682Z</time>
      </trkpt>
      <trkpt lat="38.925129" lon="-1.360107">
        <ele>900.125122</ele>
        <time>2020-08-04T08:06:43.692Z</time>
      </trkpt>
      <trkpt lat="38.925188" lon="-1.360246">
        <ele>899.374222</ele>
        <time>2020-08-04T08:06:45.690Z</time>
      </trkpt>
      <trkpt lat="38.925255" lon="-1.360394">
        <ele>898.562191</ele>
        <time>2020-08-04T08:06:47.687Z</time>
      </trkpt>
      <trkpt lat="38.925305" lon="-1.360544">
        <ele>897.788311</ele>
        <time>2020-08-04T08:06:49.686Z</time>
      </trkpt>
      <trkpt lat="38.925345" lon="-1.360707">
        <ele>896.977784</ele>
        <time>2020-08-04T08:06:51.683Z</time>
      </trkpt>
      <trkpt lat="38.925432" lon="-1.360832">
        <ele>896.182404</ele>
        <time>2020-08-04T08:06:53.684Z</time>
      </trkpt>
      <trkpt lat="38.925493" lon="-1.360997">
        <ele>895.316081</ele>
        <time>2020-08-04T08:06:55.687Z</time>
      </trkpt>
      <trkpt lat="38.925548" lon="-1.361121">
        <ele>894.639187</ele>
        <time>2020-08-04T08:06:57.703Z</time>
      </trkpt>
      <trkpt lat="38.925624" lon="-1.361217">
        <ele>893.989668</ele>
        <time>2020-08-04T08:06:59.686Z</time>
      </trkpt>
      <trkpt lat="38.925687" lon="-1.361352">
        <ele>893.243122</ele>
        <time>2020-08-04T08:07:01.683Z</time>
      </trkpt>
      <trkpt lat="38.925727" lon="-1.361484">
        <ele>893.149499</ele>
        <time>2020-08-04T08:07:03.685Z</time>
      </trkpt>
      <trkpt lat="38.925778" lon="-1.361606">
        <ele>893.180336</ele>
        <time>2020-08-04T08:07:05.694Z</time>
      </trkpt>
      <trkpt lat="38.925810" lon="-1.361745">
        <ele>893.212612</ele>
        <time>2020-08-04T08:07:07.690Z</time>
      </trkpt>
      <trkpt lat="38.925868" lon="-1.361851">
        <ele>893.241466</ele>
        <time>2020-08-04T08:07:09.673Z</time>
      </trkpt>
      <trkpt lat="38.925936" lon="-1.361958">
        <ele>893.272228</ele>
        <time>2020-08-04T08:07:11.692Z</time>
      </trkpt>
      <trkpt lat="38.925972" lon="-1.362071">
        <ele>893.299416</ele>
        <time>2020-08-04T08:07:13.669Z</time>
      </trkpt>
      <trkpt lat="38.926021" lon="-1.362187">
        <ele>893.328805</ele>
        <time>2020-08-04T08:07:15.677Z</time>
      </trkpt>
      <trkpt lat="38.926057" lon="-1.362307">
        <ele>893.357441</ele>
        <time>2020-08-04T08:07:17.694Z</time>
      </trkpt>
      <trkpt lat="38.926107" lon="-1.362419">
        <ele>893.386192</ele>
        <time>2020-08-04T08:07:19.689Z</time>
      </trkpt>
      <trkpt lat="38.926160" lon="-1.362524">
        <ele>893.414060</ele>
        <time>2020-08-04T08:07:21.679Z</time>
      </trkpt>
      <trkpt lat="38.926215" lon="-1.362656">
        <ele>893.447400</ele>
        <time>2020-08-04T08:07:24.676Z</time>
      </trkpt>
      <trkpt lat="38.926287" lon="-1.362855">
        <ele>893.496265</ele>
        <time>2020-08-04T08:07:28.689Z</time>
      </trkpt>
      <trkpt lat="38.926321" lon="-1.362974">
        <ele>893.524491</ele>
        <time>2020-08-04T08:07:30.693Z</time>
      </trkpt>
      <trkpt lat="38.926352" lon="-1.363083">
        <ele>893.550330</ele>
        <time>2020-08-04T08:07:32.696Z</time>
      </trkpt>
      <trkpt lat="38.926411" lon="-1.363234">
        <ele>893.587953</ele>
        <time>2020-08-04T08:07:35.698Z</time>
      </trkpt>
      <trkpt lat="38.926467" lon="-1.363377">
        <ele>893.623598</ele>
        <time>2020-08-04T08:07:38.699Z</time>
      </trkpt>
      <trkpt lat="38.926536" lon="-1.363502">
        <ele>893.856982</ele>
        <time>2020-08-04T08:07:41.694Z</time>
      </trkpt>
      <trkpt lat="38.926597" lon="-1.363631">
        <ele>894.236160</ele>
        <time>2020-08-04T08:07:44.684Z</time>
      </trkpt>
      <trkpt lat="38.926652" lon="-1.363779">
        <ele>894.648136</ele>
        <time>2020-08-04T08:07:47.692Z</time>
      </trkpt>
      <trkpt lat="38.926713" lon="-1.363906">
        <ele>895.023029</ele>
        <time>2020-08-04T08:07:50.691Z</time>
      </trkpt>
      <trkpt lat="38.926767" lon="-1.364041">
        <ele>895.404312</ele>
        <time>2020-08-04T08:07:53.691Z</time>
      </trkpt>
      <trkpt lat="38.926809" lon="-1.364176">
        <ele>895.769508</ele>
        <time>2020-08-04T08:07:56.690Z</time>
      </trkpt>
      <trkpt lat="38.926864" lon="-1.364319">
        <ele>896.170187</ele>
        <time>2020-08-04T08:07:59.687Z</time>
      </trkpt>
      <trkpt lat="38.926908" lon="-1.364469">
        <ele>896.572842</ele>
        <time>2020-08-04T08:08:02.676Z</time>
      </trkpt>
      <trkpt lat="38.926951" lon="-1.364620">
        <ele>896.976727</ele>
        <time>2020-08-04T08:08:05.700Z</time>
      </trkpt>
      <trkpt lat="38.926995" lon="-1.364778">
        <ele>897.398242</ele>
        <time>2020-08-04T08:08:08.690Z</time>
      </trkpt>
      <trkpt lat="38.927064" lon="-1.364915">
        <ele>897.808170</ele>
        <time>2020-08-04T08:08:11.684Z</time>
      </trkpt>
      <trkpt lat="38.927110" lon="-1.365064">
        <ele>898.210812</ele>
        <time>2020-08-04T08:08:14.702Z</time>
      </trkpt>
      <trkpt lat="38.927142" lon="-1.365180">
        <ele>898.519949</ele>
        <time>2020-08-04T08:08:16.690Z</time>
      </trkpt>
      <trkpt lat="38.927186" lon="-1.365288">
        <ele>898.826164</ele>
        <time>2020-08-04T08:08:18.691Z</time>
      </trkpt>
      <trkpt lat="38.927232" lon="-1.365397">
        <ele>899.137633</ele>
        <time>2020-08-04T08:08:20.687Z</time>
      </trkpt>
      <trkpt lat="38.927283" lon="-1.365499">
        <ele>899.442182</ele>
        <time>2020-08-04T08:08:22.684Z</time>
      </trkpt>
      <trkpt lat="38.927323" lon="-1.365621">
        <ele>899.613806</ele>
        <time>2020-08-04T08:08:24.691Z</time>
      </trkpt>
      <trkpt lat="38.927370" lon="-1.365726">
        <ele>899.769323</ele>
        <time>2020-08-04T08:08:26.697Z</time>
      </trkpt>
      <trkpt lat="38.927408" lon="-1.365838">
        <ele>899.926185</ele>
        <time>2020-08-04T08:08:28.676Z</time>
      </trkpt>
      <trkpt lat="38.927484" lon="-1.365979">
        <ele>900.146399</ele>
        <time>2020-08-04T08:08:31.685Z</time>
      </trkpt>
      <trkpt lat="38.927527" lon="-1.366095">
        <ele>900.311358</ele>
        <time>2020-08-04T08:08:33.693Z</time>
      </trkpt>
      <trkpt lat="38.927581" lon="-1.366190">
        <ele>900.462403</ele>
        <time>2020-08-04T08:08:35.695Z</time>
      </trkpt>
      <trkpt lat="38.927620" lon="-1.366354">
        <ele>900.682557</ele>
        <time>2020-08-04T08:08:38.673Z</time>
      </trkpt>
      <trkpt lat="38.927672" lon="-1.366458">
        <ele>900.841267</ele>
        <time>2020-08-04T08:08:40.696Z</time>
      </trkpt>
      <trkpt lat="38.927736" lon="-1.366587">
        <ele>901.037684</ele>
        <time>2020-08-04T08:08:43.682Z</time>
      </trkpt>
      <trkpt lat="38.927770" lon="-1.366706">
        <ele>901.200429</ele>
        <time>2020-08-04T08:08:45.697Z</time>
      </trkpt>
      <trkpt lat="38.927820" lon="-1.366859">
        <ele>901.413472</ele>
        <time>2020-08-04T08:08:48.694Z</time>
      </trkpt>
      <trkpt lat="38.927863" lon="-1.366973">
        <ele>901.576116</ele>
        <time>2020-08-04T08:08:51.685Z</time>
      </trkpt>
      <trkpt lat="38.927924" lon="-1.367099">
        <ele>901.766634</ele>
        <time>2020-08-04T08:08:54.679Z</time>
      </trkpt>
      <trkpt lat="38.927982" lon="-1.367247">
        <ele>901.979377</ele>
        <time>2020-08-04T08:08:57.696Z</time>
      </trkpt>
      <trkpt lat="38.928034" lon="-1.367389">
        <ele>902.180858</ele>
        <time>2020-08-04T08:09:00.687Z</time>
      </trkpt>
      <trkpt lat="38.928091" lon="-1.367526">
        <ele>902.380306</ele>
        <time>2020-08-04T08:09:03.720Z</time>
      </trkpt>
      <trkpt lat="38.928156" lon="-1.367651">
        <ele>902.894912</ele>
        <time>2020-08-04T08:09:06.675Z</time>
      </trkpt>
      <trkpt lat="38.928208" lon="-1.367781">
        <ele>903.460687</ele>
        <time>2020-08-04T08:09:09.682Z</time>
      </trkpt>
      <trkpt lat="38.928257" lon="-1.367923">
        <ele>904.061932</ele>
        <time>2020-08-04T08:09:12.691Z</time>
      </trkpt>
      <trkpt lat="38.928307" lon="-1.368065">
        <ele>904.665211</ele>
        <time>2020-08-04T08:09:15.692Z</time>
      </trkpt>
      <trkpt lat="38.928361" lon="-1.368208">
        <ele>905.280445</ele>
        <time>2020-08-04T08:09:18.678Z</time>
      </trkpt>
      <trkpt lat="38.928420" lon="-1.368334">
        <ele>905.849649</ele>
        <time>2020-08-04T08:09:21.679Z</time>
      </trkpt>
      <trkpt lat="38.928484" lon="-1.368452">
        <ele>906.406402</ele>
        <time>2020-08-04T08:09:24.690Z</time>
      </trkpt>
      <trkpt lat="38.928534" lon="-1.368576">
        <ele>906.946975</ele>
        <time>2020-08-04T08:09:27.687Z</time>
      </trkpt>
      <trkpt lat="38.928574" lon="-1.368696">
        <ele>907.452267</ele>
        <time>2020-08-04T08:09:30.692Z</time>
      </trkpt>
      <trkpt lat="38.928613" lon="-1.368805">
        <ele>907.916626</ele>
        <time>2020-08-04T08:09:33.686Z</time>
      </trkpt>
      <trkpt lat="38.928673" lon="-1.368933">
        <ele>908.495026</ele>
        <time>2020-08-04T08:09:37.714Z</time>
      </trkpt>
      <trkpt lat="38.928712" lon="-1.369039">
        <ele>908.948862</ele>
        <time>2020-08-04T08:09:40.689Z</time>
      </trkpt>
      <trkpt lat="38.928755" lon="-1.369142">
        <ele>909.401292</ele>
        <time>2020-08-04T08:09:46.689Z</time>
      </trkpt>
      <trkpt lat="38.928799" lon="-1.369276">
        <ele>909.964235</ele>
        <time>2020-08-04T08:11:42.694Z</time>
      </trkpt>
      <trkpt lat="38.928842" lon="-1.369410">
        <ele>910.525261</ele>
        <time>2020-08-04T08:11:45.700Z</time>
      </trkpt>
      <trkpt lat="38.928889" lon="-1.369561">
        <ele>911.154737</ele>
        <time>2020-08-04T08:11:48.706Z</time>
      </trkpt>
      <trkpt lat="38.928944" lon="-1.369689">
        <ele>911.503675</ele>
        <time>2020-08-04T08:11:51.684Z</time>
      </trkpt>
      <trkpt lat="38.929016" lon="-1.369825">
        <ele>911.754636</ele>
        <time>2020-08-04T08:11:54.679Z</time>
      </trkpt>
      <trkpt lat="38.929073" lon="-1.369976">
        <ele>912.010681</ele>
        <time>2020-08-04T08:11:57.688Z</time>
      </trkpt>
      <trkpt lat="38.929137" lon="-1.370097">
        <ele>912.233898</ele>
        <time>2020-08-04T08:12:00.697Z</time>
      </trkpt>
      <trkpt lat="38.929196" lon="-1.370226">
        <ele>912.462185</ele>
        <time>2020-08-04T08:12:03.692Z</time>
      </trkpt>
      <trkpt lat="38.929258" lon="-1.370360">
        <ele>912.700032</ele>
        <time>2020-08-04T08:12:06.678Z</time>
      </trkpt>
      <trkpt lat="38.929325" lon="-1.370493">
        <ele>912.941756</ele>
        <time>2020-08-04T08:12:09.684Z</time>
      </trkpt>
      <trkpt lat="38.929396" lon="-1.370631">
        <ele>913.194157</ele>
        <time>2020-08-04T08:12:12.682Z</time>
      </trkpt>
      <trkpt lat="38.929452" lon="-1.370732">
        <ele>913.383367</ele>
        <time>2020-08-04T08:12:14.681Z</time>
      </trkpt>
      <trkpt lat="38.929504" lon="-1.370835">
        <ele>913.570687</ele>
        <time>2020-08-04T08:12:16.679Z</time>
      </trkpt>
      <trkpt lat="38.929550" lon="-1.370950">
        <ele>913.767956</ele>
        <time>2020-08-04T08:12:18.676Z</time>
      </trkpt>
      <trkpt lat="38.929597" lon="-1.371068">
        <ele>913.970193</ele>
        <time>2020-08-04T08:12:20.683Z</time>
      </trkpt>
      <trkpt lat="38.929664" lon="-1.371191">
        <ele>914.199261</ele>
        <time>2020-08-04T08:12:22.689Z</time>
      </trkpt>
      <trkpt lat="38.929742" lon="-1.371308">
        <ele>914.434325</ele>
        <time>2020-08-04T08:12:24.698Z</time>
      </trkpt>
      <trkpt lat="38.929804" lon="-1.371458">
        <ele>914.693449</ele>
        <time>2020-08-04T08:12:26.698Z</time>
      </trkpt>
      <trkpt lat="38.929863" lon="-1.371588">
        <ele>915.080692</ele>
        <time>2020-08-04T08:12:28.690Z</time>
      </trkpt>
      <trkpt lat="38.929921" lon="-1.371712">
        <ele>916.344634</ele>
        <time>2020-08-04T08:12:30.684Z</time>
      </trkpt>
      <trkpt lat="38.929986" lon="-1.371801">
        <ele>917.411043</ele>
        <time>2020-08-04T08:12:32.709Z</time>
      </trkpt>
      <trkpt lat="38.930043" lon="-1.371911">
        <ele>918.565621</ele>
        <time>2020-08-04T08:12:34.701Z</time>
      </trkpt>
      <trkpt lat="38.930127" lon="-1.372007">
        <ele>919.827777</ele>
        <time>2020-08-04T08:12:37.684Z</time>
      </trkpt>
      <trkpt lat="38.930181" lon="-1.372107">
        <ele>920.891171</ele>
        <time>2020-08-04T08:12:39.679Z</time>
      </trkpt>
      <trkpt lat="38.930228" lon="-1.372210">
        <ele>921.934303</ele>
        <time>2020-08-04T08:12:41.689Z</time>
      </trkpt>
      <trkpt lat="38.930278" lon="-1.372308">
        <ele>922.958084</ele>
        <time>2020-08-04T08:12:43.695Z</time>
      </trkpt>
      <trkpt lat="38.930363" lon="-1.372433">
        <ele>924.408398</ele>
        <time>2020-08-04T08:12:46.693Z</time>
      </trkpt>
      <trkpt lat="38.930410" lon="-1.372556">
        <ele>925.605493</ele>
        <time>2020-08-04T08:12:48.681Z</time>
      </trkpt>
      <trkpt lat="38.930451" lon="-1.372676">
        <ele>926.750406</ele>
        <time>2020-08-04T08:12:50.696Z</time>
      </trkpt>
      <trkpt lat="38.930516" lon="-1.372819">
        <ele>928.197201</ele>
        <time>2020-08-04T08:12:53.698Z</time>
      </trkpt>
      <trkpt lat="38.930579" lon="-1.372944">
        <ele>929.498285</ele>
        <time>2020-08-04T08:12:56.698Z</time>
      </trkpt>
      <trkpt lat="38.930636" lon="-1.373089">
        <ele>930.917471</ele>
        <time>2020-08-04T08:12:59.683Z</time>
      </trkpt>
      <trkpt lat="38.930705" lon="-1.373217">
        <ele>932.277840</ele>
        <time>2020-08-04T08:13:02.694Z</time>
      </trkpt>
      <trkpt lat="38.930773" lon="-1.373358">
        <ele>933.727039</ele>
        <time>2020-08-04T08:13:05.689Z</time>
      </trkpt>
      <trkpt lat="38.930813" lon="-1.373478">
        <ele>934.867477</ele>
        <time>2020-08-04T08:13:07.689Z</time>
      </trkpt>
      <trkpt lat="38.930871" lon="-1.373577">
        <ele>934.721435</ele>
        <time>2020-08-04T08:13:09.688Z</time>
      </trkpt>
      <trkpt lat="38.930927" lon="-1.373716">
        <ele>934.141179</ele>
        <time>2020-08-04T08:13:12.688Z</time>
      </trkpt>
      <trkpt lat="38.930980" lon="-1.373829">
        <ele>933.652055</ele>
        <time>2020-08-04T08:13:15.687Z</time>
      </trkpt>
      <trkpt lat="38.931036" lon="-1.373938">
        <ele>933.167839</ele>
        <time>2020-08-04T08:13:18.696Z</time>
      </trkpt>
      <trkpt lat="38.931095" lon="-1.374037">
        <ele>932.705544</ele>
        <time>2020-08-04T08:13:21.697Z</time>
      </trkpt>
      <trkpt lat="38.931155" lon="-1.374140">
        <ele>932.228551</ele>
        <time>2020-08-04T08:13:24.695Z</time>
      </trkpt>
      <trkpt lat="38.931208" lon="-1.374243">
        <ele>931.770773</ele>
        <time>2020-08-04T08:13:27.698Z</time>
      </trkpt>
      <trkpt lat="38.931267" lon="-1.374356">
        <ele>931.266294</ele>
        <time>2020-08-04T08:13:30.696Z</time>
      </trkpt>
      <trkpt lat="38.931323" lon="-1.374467">
        <ele>930.775876</ele>
        <time>2020-08-04T08:13:33.696Z</time>
      </trkpt>
      <trkpt lat="38.931363" lon="-1.374592">
        <ele>930.274847</ele>
        <time>2020-08-04T08:13:36.688Z</time>
      </trkpt>
      <trkpt lat="38.931413" lon="-1.374712">
        <ele>929.770234</ele>
        <time>2020-08-04T08:13:39.680Z</time>
      </trkpt>
      <trkpt lat="38.931472" lon="-1.374819">
        <ele>929.284064</ele>
        <time>2020-08-04T08:13:42.691Z</time>
      </trkpt>
      <trkpt lat="38.931526" lon="-1.374930">
        <ele>928.798768</ele>
        <time>2020-08-04T08:13:45.688Z</time>
      </trkpt>
      <trkpt lat="38.931580" lon="-1.375049">
        <ele>928.288086</ele>
        <time>2020-08-04T08:13:48.697Z</time>
      </trkpt>
      <trkpt lat="38.931635" lon="-1.375175">
        <ele>927.752516</ele>
        <time>2020-08-04T08:13:51.688Z</time>
      </trkpt>
      <trkpt lat="38.931696" lon="-1.375299">
        <ele>927.208670</ele>
        <time>2020-08-04T08:13:54.693Z</time>
      </trkpt>
      <trkpt lat="38.931756" lon="-1.375429">
        <ele>926.648347</ele>
        <time>2020-08-04T08:13:57.693Z</time>
      </trkpt>
      <trkpt lat="38.931814" lon="-1.375567">
        <ele>927.478990</ele>
        <time>2020-08-04T08:14:00.708Z</time>
      </trkpt>
      <trkpt lat="38.931873" lon="-1.375698">
        <ele>928.679895</ele>
        <time>2020-08-04T08:14:03.691Z</time>
      </trkpt>
      <trkpt lat="38.931936" lon="-1.375811">
        <ele>929.782845</ele>
        <time>2020-08-04T08:14:06.685Z</time>
      </trkpt>
      <trkpt lat="38.931998" lon="-1.375930">
        <ele>930.919114</ele>
        <time>2020-08-04T08:14:09.693Z</time>
      </trkpt>
      <trkpt lat="38.932064" lon="-1.376054">
        <ele>932.111100</ele>
        <time>2020-08-04T08:14:12.689Z</time>
      </trkpt>
      <trkpt lat="38.932127" lon="-1.376184">
        <ele>933.326212</ele>
        <time>2020-08-04T08:14:15.692Z</time>
      </trkpt>
      <trkpt lat="38.932186" lon="-1.376309">
        <ele>934.486164</ele>
        <time>2020-08-04T08:14:18.688Z</time>
      </trkpt>
      <trkpt lat="38.932242" lon="-1.376424">
        <ele>935.562524</ele>
        <time>2020-08-04T08:14:21.693Z</time>
      </trkpt>
      <trkpt lat="38.932297" lon="-1.376553">
        <ele>936.729572</ele>
        <time>2020-08-04T08:14:24.688Z</time>
      </trkpt>
      <trkpt lat="38.932350" lon="-1.376680">
        <ele>937.872949</ele>
        <time>2020-08-04T08:14:27.703Z</time>
      </trkpt>
      <trkpt lat="38.932409" lon="-1.376815">
        <ele>939.101412</ele>
        <time>2020-08-04T08:14:30.686Z</time>
      </trkpt>
      <trkpt lat="38.932464" lon="-1.376950">
        <ele>940.310417</ele>
        <time>2020-08-04T08:14:33.680Z</time>
      </trkpt>
      <trkpt lat="38.932525" lon="-1.377088">
        <ele>941.569635</ele>
        <time>2020-08-04T08:14:36.686Z</time>
      </trkpt>
      <trkpt lat="38.932596" lon="-1.377206">
        <ele>942.753137</ele>
        <time>2020-08-04T08:14:39.691Z</time>
      </trkpt>
      <trkpt lat="38.932673" lon="-1.377331">
        <ele>944.018087</ele>
        <time>2020-08-04T08:14:42.704Z</time>
      </trkpt>
      <trkpt lat="38.932751" lon="-1.377456">
        <ele>944.441523</ele>
        <time>2020-08-04T08:14:45.684Z</time>
      </trkpt>
      <trkpt lat="38.932820" lon="-1.377560">
        <ele>943.383288</ele>
        <time>2020-08-04T08:14:48.694Z</time>
      </trkpt>
      <trkpt lat="38.932892" lon="-1.377677">
        <ele>942.228316</ele>
        <time>2020-08-04T08:14:51.675Z</time>
      </trkpt>
      <trkpt lat="38.932961" lon="-1.377792">
        <ele>941.103929</ele>
        <time>2020-08-04T08:14:54.682Z</time>
      </trkpt>
      <trkpt lat="38.933027" lon="-1.377921">
        <ele>939.908574</ele>
        <time>2020-08-04T08:14:57.692Z</time>
      </trkpt>
      <trkpt lat="38.933094" lon="-1.378056">
        <ele>938.668823</ele>
        <time>2020-08-04T08:15:00.697Z</time>
      </trkpt>
      <trkpt lat="38.933162" lon="-1.378183">
        <ele>937.475204</ele>
        <time>2020-08-04T08:15:03.688Z</time>
      </trkpt>
      <trkpt lat="38.933229" lon="-1.378311">
        <ele>936.280784</ele>
        <time>2020-08-04T08:15:06.695Z</time>
      </trkpt>
      <trkpt lat="38.933298" lon="-1.378436">
        <ele>935.094156</ele>
        <time>2020-08-04T08:15:09.686Z</time>
      </trkpt>
      <trkpt lat="38.933368" lon="-1.378566">
        <ele>933.870118</ele>
        <time>2020-08-04T08:15:12.666Z</time>
      </trkpt>
      <trkpt lat="38.933431" lon="-1.378713">
        <ele>932.570776</ele>
        <time>2020-08-04T08:15:15.689Z</time>
      </trkpt>
      <trkpt lat="38.933477" lon="-1.378815">
        <ele>931.657998</ele>
        <time>2020-08-04T08:15:17.663Z</time>
      </trkpt>
      <trkpt lat="38.933521" lon="-1.378940">
        <ele>930.595803</ele>
        <time>2020-08-04T08:15:19.694Z</time>
      </trkpt>
      <trkpt lat="38.933578" lon="-1.379049">
        <ele>929.578988</ele>
        <time>2020-08-04T08:15:21.696Z</time>
      </trkpt>
      <trkpt lat="38.933647" lon="-1.379156">
        <ele>928.502983</ele>
        <time>2020-08-04T08:15:23.680Z</time>
      </trkpt>
      <trkpt lat="38.933710" lon="-1.379246">
        <ele>927.565639</ele>
        <time>2020-08-04T08:15:25.685Z</time>
      </trkpt>
      <trkpt lat="38.933760" lon="-1.379377">
        <ele>927.608484</ele>
        <time>2020-08-04T08:15:27.694Z</time>
      </trkpt>
      <trkpt lat="38.933823" lon="-1.379501">
        <ele>929.030824</ele>
        <time>2020-08-04T08:15:29.693Z</time>
      </trkpt>
      <trkpt lat="38.933867" lon="-1.379639">
        <ele>930.463118</ele>
        <time>2020-08-04T08:15:31.685Z</time>
      </trkpt>
      <trkpt lat="38.933939" lon="-1.379717">
        <ele>931.625555</ele>
        <time>2020-08-04T08:15:33.680Z</time>
      </trkpt>
      <trkpt lat="38.933987" lon="-1.379834">
        <ele>932.895860</ele>
        <time>2020-08-04T08:15:35.673Z</time>
      </trkpt>
      <trkpt lat="38.934063" lon="-1.379931">
        <ele>934.218034</ele>
        <time>2020-08-04T08:15:37.689Z</time>
      </trkpt>
      <trkpt lat="38.934121" lon="-1.380044">
        <ele>935.518183</ele>
        <time>2020-08-04T08:15:39.685Z</time>
      </trkpt>
      <trkpt lat="38.934190" lon="-1.380158">
        <ele>936.905358</ele>
        <time>2020-08-04T08:15:41.685Z</time>
      </trkpt>
      <trkpt lat="38.934241" lon="-1.380256">
        <ele>938.037696</ele>
        <time>2020-08-04T08:15:43.703Z</time>
      </trkpt>
      <trkpt lat="38.934302" lon="-1.380379">
        <ele>939.438571</ele>
        <time>2020-08-04T08:15:45.698Z</time>
      </trkpt>
      <trkpt lat="38.934369" lon="-1.380468">
        <ele>940.627999</ele>
        <time>2020-08-04T08:15:47.693Z</time>
      </trkpt>
      <trkpt lat="38.934423" lon="-1.380576">
        <ele>941.860956</ele>
        <time>2020-08-04T08:15:49.685Z</time>
      </trkpt>
      <trkpt lat="38.934481" lon="-1.380710">
        <ele>943.333624</ele>
        <time>2020-08-04T08:15:51.694Z</time>
      </trkpt>
      <trkpt lat="38.934522" lon="-1.380848">
        <ele>944.752274</ele>
        <time>2020-08-04T08:15:53.693Z</time>
      </trkpt>
      <trkpt lat="38.934597" lon="-1.380987">
        <ele>946.376853</ele>
        <time>2020-08-04T08:15:55.693Z</time>
      </trkpt>
      <trkpt lat="38.934673" lon="-1.381114">
        <ele>947.915646</ele>
        <time>2020-08-04T08:15:57.685Z</time>
      </trkpt>
      <trkpt lat="38.934739" lon="-1.381258">
        <ele>949.262361</ele>
        <time>2020-08-04T08:15:59.683Z</time>
      </trkpt>
      <trkpt lat="38.934801" lon="-1.381400">
        <ele>949.689960</ele>
        <time>2020-08-04T08:16:01.673Z</time>
      </trkpt>
      <trkpt lat="38.934895" lon="-1.381544">
        <ele>950.183592</ele>
        <time>2020-08-04T08:16:03.684Z</time>
      </trkpt>
      <trkpt lat="38.934977" lon="-1.381712">
        <ele>950.704394</ele>
        <time>2020-08-04T08:16:05.683Z</time>
      </trkpt>
      <trkpt lat="38.935050" lon="-1.381859">
        <ele>951.162353</ele>
        <time>2020-08-04T08:16:07.688Z</time>
      </trkpt>
      <trkpt lat="38.935120" lon="-1.382017">
        <ele>951.639816</ele>
        <time>2020-08-04T08:16:09.681Z</time>
      </trkpt>
      <trkpt lat="38.935186" lon="-1.382174">
        <ele>952.108429</ele>
        <time>2020-08-04T08:16:11.701Z</time>
      </trkpt>
      <trkpt lat="38.935261" lon="-1.382327">
        <ele>952.583308</ele>
        <time>2020-08-04T08:16:13.699Z</time>
      </trkpt>
      <trkpt lat="38.935325" lon="-1.382466">
        <ele>953.007452</ele>
        <time>2020-08-04T08:16:15.680Z</time>
      </trkpt>
      <trkpt lat="38.935380" lon="-1.382596">
        <ele>953.396039</ele>
        <time>2020-08-04T08:16:17.694Z</time>
      </trkpt>
      <trkpt lat="38.935443" lon="-1.382699">
        <ele>953.740103</ele>
        <time>2020-08-04T08:16:19.680Z</time>
      </trkpt>
      <trkpt lat="38.935489" lon="-1.382821">
        <ele>954.096109</ele>
        <time>2020-08-04T08:16:21.695Z</time>
      </trkpt>
      <trkpt lat="38.935536" lon="-1.382967">
        <ele>954.511017</ele>
        <time>2020-08-04T08:16:23.685Z</time>
      </trkpt>
      <trkpt lat="38.935601" lon="-1.383101">
        <ele>954.925692</ele>
        <time>2020-08-04T08:16:25.681Z</time>
      </trkpt>
      <trkpt lat="38.935672" lon="-1.383226">
        <ele>955.356849</ele>
        <time>2020-08-04T08:16:27.679Z</time>
      </trkpt>
      <trkpt lat="38.935732" lon="-1.383358">
        <ele>955.862597</ele>
        <time>2020-08-04T08:16:29.676Z</time>
      </trkpt>
      <trkpt lat="38.935794" lon="-1.383470">
        <ele>956.317340</ele>
        <time>2020-08-04T08:16:31.698Z</time>
      </trkpt>
      <trkpt lat="38.935838" lon="-1.383589">
        <ele>956.753204</ele>
        <time>2020-08-04T08:16:33.686Z</time>
      </trkpt>
      <trkpt lat="38.935908" lon="-1.383720">
        <ele>957.278955</ele>
        <time>2020-08-04T08:16:35.690Z</time>
      </trkpt>
      <trkpt lat="38.935972" lon="-1.383807">
        <ele>957.675070</ele>
        <time>2020-08-04T08:16:37.688Z</time>
      </trkpt>
      <trkpt lat="38.936035" lon="-1.383927">
        <ele>958.153987</ele>
        <time>2020-08-04T08:16:39.712Z</time>
      </trkpt>
      <trkpt lat="38.936079" lon="-1.384030">
        <ele>958.542712</ele>
        <time>2020-08-04T08:16:41.696Z</time>
      </trkpt>
      <trkpt lat="38.936134" lon="-1.384144">
        <ele>958.986473</ele>
        <time>2020-08-04T08:16:43.700Z</time>
      </trkpt>
      <trkpt lat="38.936207" lon="-1.384245">
        <ele>959.442552</ele>
        <time>2020-08-04T08:16:45.695Z</time>
      </trkpt>
      <trkpt lat="38.936266" lon="-1.384362">
        <ele>959.903805</ele>
        <time>2020-08-04T08:16:47.690Z</time>
      </trkpt>
      <trkpt lat="38.936300" lon="-1.384496">
        <ele>960.370063</ele>
        <time>2020-08-04T08:16:49.692Z</time>
      </trkpt>
      <trkpt lat="38.936374" lon="-1.384612">
        <ele>960.866335</ele>
        <time>2020-08-04T08:16:51.685Z</time>
      </trkpt>
      <trkpt lat="38.936429" lon="-1.384718">
        <ele>961.287836</ele>
        <time>2020-08-04T08:16:53.692Z</time>
      </trkpt>
      <trkpt lat="38.936475" lon="-1.384841">
        <ele>961.739303</ele>
        <time>2020-08-04T08:16:55.699Z</time>
      </trkpt>
      <trkpt lat="38.936539" lon="-1.384970">
        <ele>962.245444</ele>
        <time>2020-08-04T08:16:57.684Z</time>
      </trkpt>
      <trkpt lat="38.936591" lon="-1.385107">
        <ele>962.749715</ele>
        <time>2020-08-04T08:16:59.694Z</time>
      </trkpt>
      <trkpt lat="38.936649" lon="-1.385229">
        <ele>963.657700</ele>
        <time>2020-08-04T08:17:01.707Z</time>
      </trkpt>
      <trkpt lat="38.936716" lon="-1.385354">
        <ele>964.808880</ele>
        <time>2020-08-04T08:17:03.696Z</time>
      </trkpt>
      <trkpt lat="38.936793" lon="-1.385510">
        <ele>966.209961</ele>
        <time>2020-08-04T08:17:06.693Z</time>
      </trkpt>
      <trkpt lat="38.936841" lon="-1.385629">
        <ele>967.226497</ele>
        <time>2020-08-04T08:17:07.903Z</time>
      </trkpt>
      <trkpt lat="38.936887" lon="-1.385755">
        <ele>968.282006</ele>
        <time>2020-08-04T08:17:09.901Z</time>
      </trkpt>
      <trkpt lat="38.936937" lon="-1.385863">
        <ele>969.235094</ele>
        <time>2020-08-04T08:17:11.901Z</time>
      </trkpt>
      <trkpt lat="38.936972" lon="-1.385972">
        <ele>970.129337</ele>
        <time>2020-08-04T08:17:13.902Z</time>
      </trkpt>
      <trkpt lat="38.937029" lon="-1.386083">
        <ele>971.137974</ele>
        <time>2020-08-04T08:17:15.900Z</time>
      </trkpt>
      <trkpt lat="38.937082" lon="-1.386176">
        <ele>972.012252</ele>
        <time>2020-08-04T08:17:17.878Z</time>
      </trkpt>
      <trkpt lat="38.937131" lon="-1.386289">
        <ele>972.993328</ele>
        <time>2020-08-04T08:17:19.902Z</time>
      </trkpt>
      <trkpt lat="38.937200" lon="-1.386422">
        <ele>974.205660</ele>
        <time>2020-08-04T08:17:22.896Z</time>
      </trkpt>
      <trkpt lat="38.937310" lon="-1.386530">
        <ele>975.555040</ele>
        <time>2020-08-04T08:17:25.901Z</time>
      </trkpt>
      <trkpt lat="38.937390" lon="-1.386668">
        <ele>976.860203</ele>
        <time>2020-08-04T08:17:28.874Z</time>
      </trkpt>
      <trkpt lat="38.937463" lon="-1.386804">
        <ele>978.113254</ele>
        <time>2020-08-04T08:17:31.869Z</time>
      </trkpt>
      <trkpt lat="38.937533" lon="-1.386918">
        <ele>979.214652</ele>
        <time>2020-08-04T08:17:34.898Z</time>
      </trkpt>
      <trkpt lat="38.937578" lon="-1.387027">
        <ele>980.150439</ele>
        <time>2020-08-04T08:17:37.897Z</time>
      </trkpt>
      <trkpt lat="38.937624" lon="-1.387140">
        <ele>980.622018</ele>
        <time>2020-08-04T08:17:41.895Z</time>
      </trkpt>
      <trkpt lat="38.937684" lon="-1.387249">
        <ele>980.913706</ele>
        <time>2020-08-04T08:17:45.879Z</time>
      </trkpt>
      <trkpt lat="38.937732" lon="-1.387352">
        <ele>981.175988</ele>
        <time>2020-08-04T08:17:48.883Z</time>
      </trkpt>
      <trkpt lat="38.937783" lon="-1.387455">
        <ele>981.442697</ele>
        <time>2020-08-04T08:17:51.887Z</time>
      </trkpt>
      <trkpt lat="38.937835" lon="-1.387550">
        <ele>981.696445</ele>
        <time>2020-08-04T08:17:54.884Z</time>
      </trkpt>
      <trkpt lat="38.937893" lon="-1.387648">
        <ele>981.965436</ele>
        <time>2020-08-04T08:17:57.890Z</time>
      </trkpt>
      <trkpt lat="38.937949" lon="-1.387753">
        <ele>982.243533</ele>
        <time>2020-08-04T08:18:00.892Z</time>
      </trkpt>
      <trkpt lat="38.938013" lon="-1.387863">
        <ele>982.543597</ele>
        <time>2020-08-04T08:18:04.893Z</time>
      </trkpt>
      <trkpt lat="38.938068" lon="-1.387992">
        <ele>982.864936</ele>
        <time>2020-08-04T08:18:08.897Z</time>
      </trkpt>
      <trkpt lat="38.938120" lon="-1.388103">
        <ele>983.147981</ele>
        <time>2020-08-04T08:18:11.892Z</time>
      </trkpt>
      <trkpt lat="38.938167" lon="-1.388236">
        <ele>983.467079</ele>
        <time>2020-08-04T08:18:14.885Z</time>
      </trkpt>
      <trkpt lat="38.938210" lon="-1.388344">
        <ele>983.732101</ele>
        <time>2020-08-04T08:18:17.884Z</time>
      </trkpt>
      <trkpt lat="38.938260" lon="-1.388449">
        <ele>984.001028</ele>
        <time>2020-08-04T08:18:20.896Z</time>
      </trkpt>
      <trkpt lat="38.938320" lon="-1.388578">
        <ele>984.329346</ele>
        <time>2020-08-04T08:18:24.897Z</time>
      </trkpt>
      <trkpt lat="38.938370" lon="-1.388693">
        <ele>984.617128</ele>
        <time>2020-08-04T08:18:27.893Z</time>
      </trkpt>
      <trkpt lat="38.938435" lon="-1.388802">
        <ele>984.917145</ele>
        <time>2020-08-04T08:18:30.890Z</time>
      </trkpt>
      <trkpt lat="38.938505" lon="-1.388907">
        <ele>985.219219</ele>
        <time>2020-08-04T08:18:33.888Z</time>
      </trkpt>
      <trkpt lat="38.938571" lon="-1.389036">
        <ele>985.496545</ele>
        <time>2020-08-04T08:18:36.885Z</time>
      </trkpt>
      <trkpt lat="38.938635" lon="-1.389166">
        <ele>985.592360</ele>
        <time>2020-08-04T08:18:39.891Z</time>
      </trkpt>
      <trkpt lat="38.938693" lon="-1.389290">
        <ele>985.682473</ele>
        <time>2020-08-04T08:18:42.892Z</time>
      </trkpt>
      <trkpt lat="38.938760" lon="-1.389437">
        <ele>985.788581</ele>
        <time>2020-08-04T08:18:45.898Z</time>
      </trkpt>
      <trkpt lat="38.938807" lon="-1.389574">
        <ele>985.881832</ele>
        <time>2020-08-04T08:18:47.893Z</time>
      </trkpt>
      <trkpt lat="38.938883" lon="-1.389687">
        <ele>985.974866</ele>
        <time>2020-08-04T08:18:50.893Z</time>
      </trkpt>
      <trkpt lat="38.938942" lon="-1.389817">
        <ele>986.068601</ele>
        <time>2020-08-04T08:18:53.898Z</time>
      </trkpt>
      <trkpt lat="38.938998" lon="-1.389950">
        <ele>986.162787</ele>
        <time>2020-08-04T08:18:56.901Z</time>
      </trkpt>
      <trkpt lat="38.939063" lon="-1.390090">
        <ele>986.264328</ele>
        <time>2020-08-04T08:18:59.898Z</time>
      </trkpt>
      <trkpt lat="38.939111" lon="-1.390214">
        <ele>986.350587</ele>
        <time>2020-08-04T08:19:01.892Z</time>
      </trkpt>
      <trkpt lat="38.939175" lon="-1.390338">
        <ele>986.443266</ele>
        <time>2020-08-04T08:19:04.887Z</time>
      </trkpt>
      <trkpt lat="38.939231" lon="-1.390446">
        <ele>986.524101</ele>
        <time>2020-08-04T08:19:07.888Z</time>
      </trkpt>
      <trkpt lat="38.939289" lon="-1.390595">
        <ele>986.627866</ele>
        <time>2020-08-04T08:19:10.890Z</time>
      </trkpt>
      <trkpt lat="38.939339" lon="-1.390721">
        <ele>986.715957</ele>
        <time>2020-08-04T08:19:13.875Z</time>
      </trkpt>
      <trkpt lat="38.939396" lon="-1.390867">
        <ele>986.817693</ele>
        <time>2020-08-04T08:19:16.892Z</time>
      </trkpt>
      <trkpt lat="38.939473" lon="-1.390989">
        <ele>986.924542</ele>
        <time>2020-08-04T08:19:19.898Z</time>
      </trkpt>
      <trkpt lat="38.939513" lon="-1.391144">
        <ele>987.356031</ele>
        <time>2020-08-04T08:19:22.885Z</time>
      </trkpt>
      <trkpt lat="38.939585" lon="-1.391277">
        <ele>987.784174</ele>
        <time>2020-08-04T08:19:25.885Z</time>
      </trkpt>
      <trkpt lat="38.939676" lon="-1.391394">
        <ele>988.221346</ele>
        <time>2020-08-04T08:19:28.886Z</time>
      </trkpt>
      <trkpt lat="38.939766" lon="-1.391515">
        <ele>988.663699</ele>
        <time>2020-08-04T08:19:31.889Z</time>
      </trkpt>
      <trkpt lat="38.939851" lon="-1.391652">
        <ele>989.126729</ele>
        <time>2020-08-04T08:19:34.890Z</time>
      </trkpt>
      <trkpt lat="38.939910" lon="-1.391744">
        <ele>989.441776</ele>
        <time>2020-08-04T08:19:36.889Z</time>
      </trkpt>
      <trkpt lat="38.939998" lon="-1.391857">
        <ele>989.864268</ele>
        <time>2020-08-04T08:19:39.888Z</time>
      </trkpt>
      <trkpt lat="38.940062" lon="-1.391973">
        <ele>990.240034</ele>
        <time>2020-08-04T08:19:42.895Z</time>
      </trkpt>
      <trkpt lat="38.940111" lon="-1.392108">
        <ele>990.633649</ele>
        <time>2020-08-04T08:19:45.874Z</time>
      </trkpt>
      <trkpt lat="38.940158" lon="-1.392228">
        <ele>990.988636</ele>
        <time>2020-08-04T08:19:48.901Z</time>
      </trkpt>
      <trkpt lat="38.940221" lon="-1.392332">
        <ele>991.336924</ele>
        <time>2020-08-04T08:19:51.882Z</time>
      </trkpt>
      <trkpt lat="38.940286" lon="-1.392436">
        <ele>991.689427</ele>
        <time>2020-08-04T08:19:54.894Z</time>
      </trkpt>
      <trkpt lat="38.940322" lon="-1.392551">
        <ele>992.016959</ele>
        <time>2020-08-04T08:19:57.889Z</time>
      </trkpt>
      <trkpt lat="38.940368" lon="-1.392659">
        <ele>992.342293</ele>
        <time>2020-08-04T08:20:00.894Z</time>
      </trkpt>
      <trkpt lat="38.940414" lon="-1.392758">
        <ele>992.646984</ele>
        <time>2020-08-04T08:20:03.877Z</time>
      </trkpt>
      <trkpt lat="38.940463" lon="-1.392873">
        <ele>992.993434</ele>
        <time>2020-08-04T08:20:06.885Z</time>
      </trkpt>
      <trkpt lat="38.940513" lon="-1.392982">
        <ele>992.571723</ele>
        <time>2020-08-04T08:20:09.882Z</time>
      </trkpt>
      <trkpt lat="38.940574" lon="-1.393086">
        <ele>992.063171</ele>
        <time>2020-08-04T08:20:12.896Z</time>
      </trkpt>
      <trkpt lat="38.940631" lon="-1.393192">
        <ele>991.560047</ele>
        <time>2020-08-04T08:20:15.890Z</time>
      </trkpt>
      <trkpt lat="38.940669" lon="-1.393305">
        <ele>991.079400</ele>
        <time>2020-08-04T08:20:18.884Z</time>
      </trkpt>
      <trkpt lat="38.940718" lon="-1.393421">
        <ele>990.564030</ele>
        <time>2020-08-04T08:20:21.894Z</time>
      </trkpt>
      <trkpt lat="38.940790" lon="-1.393537">
        <ele>989.984610</ele>
        <time>2020-08-04T08:20:25.880Z</time>
      </trkpt>
      <trkpt lat="38.940861" lon="-1.393651">
        <ele>989.414424</ele>
        <time>2020-08-04T08:20:29.897Z</time>
      </trkpt>
      <trkpt lat="38.940939" lon="-1.393765">
        <ele>988.821641</ele>
        <time>2020-08-04T08:20:33.892Z</time>
      </trkpt>
      <trkpt lat="38.940992" lon="-1.393898">
        <ele>988.238196</ele>
        <time>2020-08-04T08:20:37.898Z</time>
      </trkpt>
      <trkpt lat="38.941032" lon="-1.394012">
        <ele>987.749923</ele>
        <time>2020-08-04T08:20:40.879Z</time>
      </trkpt>
      <trkpt lat="38.941087" lon="-1.394124">
        <ele>987.232792</ele>
        <time>2020-08-04T08:20:43.886Z</time>
      </trkpt>
      <trkpt lat="38.941145" lon="-1.394231">
        <ele>986.723600</ele>
        <time>2020-08-04T08:20:46.897Z</time>
      </trkpt>
      <trkpt lat="38.941201" lon="-1.394326">
        <ele>986.258217</ele>
        <time>2020-08-04T08:20:49.875Z</time>
      </trkpt>
      <trkpt lat="38.941259" lon="-1.394422">
        <ele>985.783624</ele>
        <time>2020-08-04T08:20:52.882Z</time>
      </trkpt>
      <trkpt lat="38.941340" lon="-1.394533">
        <ele>985.189386</ele>
        <time>2020-08-04T08:20:56.895Z</time>
      </trkpt>
      <trkpt lat="38.941387" lon="-1.394634">
        <ele>984.729876</ele>
        <time>2020-08-04T08:20:59.891Z</time>
      </trkpt>
      <trkpt lat="38.941423" lon="-1.394749">
        <ele>984.245893</ele>
        <time>2020-08-04T08:21:02.891Z</time>
      </trkpt>
      <trkpt lat="38.941490" lon="-1.394875">
        <ele>983.187106</ele>
        <time>2020-08-04T08:21:06.895Z</time>
      </trkpt>
      <trkpt lat="38.941552" lon="-1.394969">
        <ele>982.058771</ele>
        <time>2020-08-04T08:21:09.890Z</time>
      </trkpt>
      <trkpt lat="38.941622" lon="-1.395069">
        <ele>980.827106</ele>
        <time>2020-08-04T08:21:12.905Z</time>
      </trkpt>
      <trkpt lat="38.941691" lon="-1.395192">
        <ele>979.438719</ele>
        <time>2020-08-04T08:21:16.887Z</time>
      </trkpt>
      <trkpt lat="38.941746" lon="-1.395286">
        <ele>978.361841</ele>
        <time>2020-08-04T08:21:19.880Z</time>
      </trkpt>
      <trkpt lat="38.941812" lon="-1.395410">
        <ele>976.986267</ele>
        <time>2020-08-04T08:21:23.885Z</time>
      </trkpt>
      <trkpt lat="38.941866" lon="-1.395525">
        <ele>975.756463</ele>
        <time>2020-08-04T08:21:27.897Z</time>
      </trkpt>
      <trkpt lat="38.941915" lon="-1.395654">
        <ele>974.442170</ele>
        <time>2020-08-04T08:21:31.891Z</time>
      </trkpt>
      <trkpt lat="38.941966" lon="-1.395776">
        <ele>973.174173</ele>
        <time>2020-08-04T08:21:35.895Z</time>
      </trkpt>
      <trkpt lat="38.942017" lon="-1.395880">
        <ele>972.048621</ele>
        <time>2020-08-04T08:21:39.894Z</time>
      </trkpt>
      <trkpt lat="38.942082" lon="-1.395972">
        <ele>970.910756</ele>
        <time>2020-08-04T08:21:43.889Z</time>
      </trkpt>
      <trkpt lat="38.942150" lon="-1.396065">
        <ele>969.742202</ele>
        <time>2020-08-04T08:21:47.883Z</time>
      </trkpt>
      <trkpt lat="38.942219" lon="-1.396166">
        <ele>968.511521</ele>
        <time>2020-08-04T08:21:51.880Z</time>
      </trkpt>
      <trkpt lat="38.942273" lon="-1.396271">
        <ele>967.359124</ele>
        <time>2020-08-04T08:21:54.892Z</time>
      </trkpt>
      <trkpt lat="38.942336" lon="-1.396396">
        <ele>965.995513</ele>
        <time>2020-08-04T08:21:58.892Z</time>
      </trkpt>
      <trkpt lat="38.942378" lon="-1.396507">
        <ele>964.865454</ele>
        <time>2020-08-04T08:22:01.886Z</time>
      </trkpt>
      <trkpt lat="38.942434" lon="-1.396612">
        <ele>963.699910</ele>
        <time>2020-08-04T08:22:05.878Z</time>
      </trkpt>
      <trkpt lat="38.942475" lon="-1.396748">
        <ele>962.934235</ele>
        <time>2020-08-04T08:22:09.902Z</time>
      </trkpt>
      <trkpt lat="38.942520" lon="-1.396882">
        <ele>963.257654</ele>
        <time>2020-08-04T08:22:13.887Z</time>
      </trkpt>
      <trkpt lat="38.942591" lon="-1.396993">
        <ele>963.576106</ele>
        <time>2020-08-04T08:22:17.900Z</time>
      </trkpt>
      <trkpt lat="38.942650" lon="-1.397105">
        <ele>963.875846</ele>
        <time>2020-08-04T08:22:21.888Z</time>
      </trkpt>
      <trkpt lat="38.942687" lon="-1.397220">
        <ele>964.151611</ele>
        <time>2020-08-04T08:22:24.891Z</time>
      </trkpt>
      <trkpt lat="38.942741" lon="-1.397332">
        <ele>964.443601</ele>
        <time>2020-08-04T08:22:28.897Z</time>
      </trkpt>
      <trkpt lat="38.942806" lon="-1.397453">
        <ele>964.769453</ele>
        <time>2020-08-04T08:22:32.891Z</time>
      </trkpt>
      <trkpt lat="38.942865" lon="-1.397567">
        <ele>965.072872</ele>
        <time>2020-08-04T08:22:36.878Z</time>
      </trkpt>
      <trkpt lat="38.942926" lon="-1.397670">
        <ele>965.359737</ele>
        <time>2020-08-04T08:22:40.892Z</time>
      </trkpt>
      <trkpt lat="38.942976" lon="-1.397801">
        <ele>965.683080</ele>
        <time>2020-08-04T08:22:44.904Z</time>
      </trkpt>
      <trkpt lat="38.943040" lon="-1.397925">
        <ele>966.012838</ele>
        <time>2020-08-04T08:22:48.897Z</time>
      </trkpt>
      <trkpt lat="38.943088" lon="-1.398028">
        <ele>966.278902</ele>
        <time>2020-08-04T08:22:51.897Z</time>
      </trkpt>
      <trkpt lat="38.943124" lon="-1.398138">
        <ele>966.543343</ele>
        <time>2020-08-04T08:22:54.891Z</time>
      </trkpt>
      <trkpt lat="38.943195" lon="-1.398251">
        <ele>966.865228</ele>
        <time>2020-08-04T08:22:58.904Z</time>
      </trkpt>
      <trkpt lat="38.943260" lon="-1.398352">
        <ele>967.155707</ele>
        <time>2020-08-04T08:23:02.891Z</time>
      </trkpt>
      <trkpt lat="38.943301" lon="-1.398459">
        <ele>967.420013</ele>
        <time>2020-08-04T08:23:05.890Z</time>
      </trkpt>
      <trkpt lat="38.943370" lon="-1.398583">
        <ele>967.757855</ele>
        <time>2020-08-04T08:23:09.893Z</time>
      </trkpt>
      <trkpt lat="38.943419" lon="-1.398704">
        <ele>967.938682</ele>
        <time>2020-08-04T08:23:13.886Z</time>
      </trkpt>
      <trkpt lat="38.943479" lon="-1.398813">
        <ele>967.915573</ele>
        <time>2020-08-04T08:23:17.911Z</time>
      </trkpt>
      <trkpt lat="38.943552" lon="-1.398916">
        <ele>967.891459</ele>
        <time>2020-08-04T08:23:21.878Z</time>
      </trkpt>
      <trkpt lat="38.943611" lon="-1.399012">
        <ele>967.870286</ele>
        <time>2020-08-04T08:23:24.898Z</time>
      </trkpt>
      <trkpt lat="38.943665" lon="-1.399105">
        <ele>967.850202</ele>
        <time>2020-08-04T08:23:27.893Z</time>
      </trkpt>
      <trkpt lat="38.943735" lon="-1.399221">
        <ele>967.824795</ele>
        <time>2020-08-04T08:23:31.899Z</time>
      </trkpt>
      <trkpt lat="38.943812" lon="-1.399335">
        <ele>967.798666</ele>
        <time>2020-08-04T08:23:35.894Z</time>
      </trkpt>
      <trkpt lat="38.943880" lon="-1.399461">
        <ele>967.772127</ele>
        <time>2020-08-04T08:23:39.918Z</time>
      </trkpt>
      <trkpt lat="38.943931" lon="-1.399572">
        <ele>967.749817</ele>
        <time>2020-08-04T08:23:42.896Z</time>
      </trkpt>
      <trkpt lat="38.943982" lon="-1.399682">
        <ele>967.727657</ele>
        <time>2020-08-04T08:23:45.905Z</time>
      </trkpt>
      <trkpt lat="38.944033" lon="-1.399799">
        <ele>967.704447</ele>
        <time>2020-08-04T08:23:48.889Z</time>
      </trkpt>
      <trkpt lat="38.944085" lon="-1.399910">
        <ele>967.682023</ele>
        <time>2020-08-04T08:23:51.893Z</time>
      </trkpt>
      <trkpt lat="38.944137" lon="-1.400006">
        <ele>967.661779</ele>
        <time>2020-08-04T08:23:54.901Z</time>
      </trkpt>
      <trkpt lat="38.944206" lon="-1.400132">
        <ele>967.635112</ele>
        <time>2020-08-04T08:23:58.905Z</time>
      </trkpt>
      <trkpt lat="38.944266" lon="-1.400228">
        <ele>967.613800</ele>
        <time>2020-08-04T08:24:01.900Z</time>
      </trkpt>
      <trkpt lat="38.944311" lon="-1.400345">
        <ele>967.591213</ele>
        <time>2020-08-04T08:24:04.902Z</time>
      </trkpt>
      <trkpt lat="38.944350" lon="-1.400465">
        <ele>967.568708</ele>
        <time>2020-08-04T08:24:07.899Z</time>
      </trkpt>
      <trkpt lat="38.944399" lon="-1.400570">
        <ele>967.547518</ele>
        <time>2020-08-04T08:24:10.895Z</time>
      </trkpt>
      <trkpt lat="38.944471" lon="-1.400684">
        <ele>967.984767</ele>
        <time>2020-08-04T08:24:14.899Z</time>
      </trkpt>
      <trkpt lat="38.944516" lon="-1.400784">
        <ele>968.332056</ele>
        <time>2020-08-04T08:24:17.904Z</time>
      </trkpt>
      <trkpt lat="38.944584" lon="-1.400891">
        <ele>968.747418</ele>
        <time>2020-08-04T08:24:21.882Z</time>
      </trkpt>
      <trkpt lat="38.944650" lon="-1.401019">
        <ele>969.209062</ele>
        <time>2020-08-04T08:24:25.896Z</time>
      </trkpt>
      <trkpt lat="38.944699" lon="-1.401122">
        <ele>969.572006</ele>
        <time>2020-08-04T08:24:28.899Z</time>
      </trkpt>
      <trkpt lat="38.944746" lon="-1.401224">
        <ele>969.928388</ele>
        <time>2020-08-04T08:24:31.897Z</time>
      </trkpt>
      <trkpt lat="38.944814" lon="-1.401347">
        <ele>970.382015</ele>
        <time>2020-08-04T08:24:35.886Z</time>
      </trkpt>
      <trkpt lat="38.944867" lon="-1.401452">
        <ele>970.758289</ele>
        <time>2020-08-04T08:24:38.908Z</time>
      </trkpt>
      <trkpt lat="38.944925" lon="-1.401550">
        <ele>971.128467</ele>
        <time>2020-08-04T08:24:41.904Z</time>
      </trkpt>
      <trkpt lat="38.944991" lon="-1.401668">
        <ele>971.565371</ele>
        <time>2020-08-04T08:24:45.905Z</time>
      </trkpt>
      <trkpt lat="38.945039" lon="-1.401770">
        <ele>971.923737</ele>
        <time>2020-08-04T08:24:48.892Z</time>
      </trkpt>
      <trkpt lat="38.945105" lon="-1.401890">
        <ele>972.365536</ele>
        <time>2020-08-04T08:24:52.898Z</time>
      </trkpt>
      <trkpt lat="38.945161" lon="-1.402019">
        <ele>972.809620</ele>
        <time>2020-08-04T08:24:56.895Z</time>
      </trkpt>
      <trkpt lat="38.945210" lon="-1.402125">
        <ele>973.180285</ele>
        <time>2020-08-04T08:24:59.893Z</time>
      </trkpt>
      <trkpt lat="38.945265" lon="-1.402226">
        <ele>973.550909</ele>
        <time>2020-08-04T08:25:02.880Z</time>
      </trkpt>
      <trkpt lat="38.945325" lon="-1.402323">
        <ele>973.923460</ele>
        <time>2020-08-04T08:25:05.900Z</time>
      </trkpt>
      <trkpt lat="38.945378" lon="-1.402421">
        <ele>974.282264</ele>
        <time>2020-08-04T08:25:08.905Z</time>
      </trkpt>
      <trkpt lat="38.945442" lon="-1.402543">
        <ele>974.975387</ele>
        <time>2020-08-04T08:25:12.914Z</time>
      </trkpt>
      <trkpt lat="38.945487" lon="-1.402651">
        <ele>975.753009</ele>
        <time>2020-08-04T08:25:15.897Z</time>
      </trkpt>
      <trkpt lat="38.945537" lon="-1.402753">
        <ele>976.518237</ele>
        <time>2020-08-04T08:25:18.904Z</time>
      </trkpt>
      <trkpt lat="38.945584" lon="-1.402889">
        <ele>977.462774</ele>
        <time>2020-08-04T08:25:22.894Z</time>
      </trkpt>
      <trkpt lat="38.945626" lon="-1.403026">
        <ele>978.397394</ele>
        <time>2020-08-04T08:25:26.896Z</time>
      </trkpt>
      <trkpt lat="38.945660" lon="-1.403139">
        <ele>979.166377</ele>
        <time>2020-08-04T08:25:29.901Z</time>
      </trkpt>
      <trkpt lat="38.945699" lon="-1.403250">
        <ele>979.939419</ele>
        <time>2020-08-04T08:25:32.896Z</time>
      </trkpt>
      <trkpt lat="38.945725" lon="-1.403367">
        <ele>980.711707</ele>
        <time>2020-08-04T08:25:35.894Z</time>
      </trkpt>
      <trkpt lat="38.945758" lon="-1.403499">
        <ele>981.591696</ele>
        <time>2020-08-04T08:25:39.888Z</time>
      </trkpt>
      <trkpt lat="38.945791" lon="-1.403639">
        <ele>982.520153</ele>
        <time>2020-08-04T08:25:43.893Z</time>
      </trkpt>
      <trkpt lat="38.945818" lon="-1.403786">
        <ele>983.478789</ele>
        <time>2020-08-04T08:25:47.895Z</time>
      </trkpt>
      <trkpt lat="38.945837" lon="-1.403899">
        <ele>984.212540</ele>
        <time>2020-08-04T08:25:50.894Z</time>
      </trkpt>
      <trkpt lat="38.945852" lon="-1.404023">
        <ele>985.008999</ele>
        <time>2020-08-04T08:25:53.906Z</time>
      </trkpt>
      <trkpt lat="38.945859" lon="-1.404155">
        <ele>985.848714</ele>
        <time>2020-08-04T08:25:56.894Z</time>
      </trkpt>
      <trkpt lat="38.945874" lon="-1.404282">
        <ele>986.663992</ele>
        <time>2020-08-04T08:25:59.893Z</time>
      </trkpt>
      <trkpt lat="38.945896" lon="-1.404407">
        <ele>987.477394</ele>
        <time>2020-08-04T08:26:02.902Z</time>
      </trkpt>
      <trkpt lat="38.945911" lon="-1.404539">
        <ele>988.324059</ele>
        <time>2020-08-04T08:26:05.886Z</time>
      </trkpt>
      <trkpt lat="38.945909" lon="-1.404672">
        <ele>989.168332</ele>
        <time>2020-08-04T08:26:08.887Z</time>
      </trkpt>
      <trkpt lat="38.945908" lon="-1.404797">
        <ele>989.326902</ele>
        <time>2020-08-04T08:26:11.897Z</time>
      </trkpt>
      <trkpt lat="38.945907" lon="-1.404932">
        <ele>989.490770</ele>
        <time>2020-08-04T08:26:14.887Z</time>
      </trkpt>
      <trkpt lat="38.945896" lon="-1.405067">
        <ele>989.655528</ele>
        <time>2020-08-04T08:26:17.891Z</time>
      </trkpt>
      <trkpt lat="38.945905" lon="-1.405226">
        <ele>989.849030</ele>
        <time>2020-08-04T08:26:21.905Z</time>
      </trkpt>
      <trkpt lat="38.945903" lon="-1.405364">
        <ele>990.016561</ele>
        <time>2020-08-04T08:26:24.895Z</time>
      </trkpt>
      <trkpt lat="38.945898" lon="-1.405501">
        <ele>990.183033</ele>
        <time>2020-08-04T08:26:27.894Z</time>
      </trkpt>
      <trkpt lat="38.945900" lon="-1.405626">
        <ele>990.334788</ele>
        <time>2020-08-04T08:26:30.886Z</time>
      </trkpt>
      <trkpt lat="38.945909" lon="-1.405757">
        <ele>990.494413</ele>
        <time>2020-08-04T08:26:33.907Z</time>
      </trkpt>
      <trkpt lat="38.945924" lon="-1.405885">
        <ele>990.651531</ele>
        <time>2020-08-04T08:26:36.888Z</time>
      </trkpt>
      <trkpt lat="38.945941" lon="-1.406013">
        <ele>990.809145</ele>
        <time>2020-08-04T08:26:39.901Z</time>
      </trkpt>
      <trkpt lat="38.945956" lon="-1.406152">
        <ele>990.979477</ele>
        <time>2020-08-04T08:26:42.900Z</time>
      </trkpt>
      <trkpt lat="38.945975" lon="-1.406283">
        <ele>991.141224</ele>
        <time>2020-08-04T08:26:45.899Z</time>
      </trkpt>
      <trkpt lat="38.945991" lon="-1.406411">
        <ele>991.298582</ele>
        <time>2020-08-04T08:26:48.905Z</time>
      </trkpt>
      <trkpt lat="38.946000" lon="-1.406545">
        <ele>991.461834</ele>
        <time>2020-08-04T08:26:51.911Z</time>
      </trkpt>
      <trkpt lat="38.946005" lon="-1.406669">
        <ele>991.612546</ele>
        <time>2020-08-04T08:26:54.907Z</time>
      </trkpt>
      <trkpt lat="38.946003" lon="-1.406796">
        <ele>991.766728</ele>
        <time>2020-08-04T08:26:57.893Z</time>
      </trkpt>
      <trkpt lat="38.946003" lon="-1.406926">
        <ele>991.924519</ele>
        <time>2020-08-04T08:27:00.889Z</time>
      </trkpt>
      <trkpt lat="38.946011" lon="-1.407060">
        <ele>992.287456</ele>
        <time>2020-08-04T08:27:03.910Z</time>
      </trkpt>
      <trkpt lat="38.946023" lon="-1.407186">
        <ele>992.738152</ele>
        <time>2020-08-04T08:27:06.884Z</time>
      </trkpt>
      <trkpt lat="38.946040" lon="-1.407312">
        <ele>993.192187</ele>
        <time>2020-08-04T08:27:09.889Z</time>
      </trkpt>
      <trkpt lat="38.946061" lon="-1.407456">
        <ele>993.712359</ele>
        <time>2020-08-04T08:27:13.908Z</time>
      </trkpt>
      <trkpt lat="38.946073" lon="-1.407588">
        <ele>994.184206</ele>
        <time>2020-08-04T08:27:16.882Z</time>
      </trkpt>
      <trkpt lat="38.946083" lon="-1.407748">
        <ele>994.754106</ele>
        <time>2020-08-04T08:27:19.909Z</time>
      </trkpt>
      <trkpt lat="38.946069" lon="-1.407917">
        <ele>995.357522</ele>
        <time>2020-08-04T08:27:22.890Z</time>
      </trkpt>
      <trkpt lat="38.946070" lon="-1.408081">
        <ele>995.939810</ele>
        <time>2020-08-04T08:27:25.894Z</time>
      </trkpt>
      <trkpt lat="38.946074" lon="-1.408208">
        <ele>996.391084</ele>
        <time>2020-08-04T08:27:28.893Z</time>
      </trkpt>
      <trkpt lat="38.946076" lon="-1.408330">
        <ele>996.824332</ele>
        <time>2020-08-04T08:27:31.880Z</time>
      </trkpt>
      <trkpt lat="38.946086" lon="-1.408474">
        <ele>997.337627</ele>
        <time>2020-08-04T08:27:34.893Z</time>
      </trkpt>
      <trkpt lat="38.946080" lon="-1.408627">
        <ele>997.881533</ele>
        <time>2020-08-04T08:27:37.892Z</time>
      </trkpt>
      <trkpt lat="38.946077" lon="-1.408761">
        <ele>998.357487</ele>
        <time>2020-08-04T08:27:40.897Z</time>
      </trkpt>
      <trkpt lat="38.946093" lon="-1.408897">
        <ele>998.845838</ele>
        <time>2020-08-04T08:27:44.887Z</time>
      </trkpt>
      <trkpt lat="38.946106" lon="-1.409017">
        <ele>999.276002</ele>
        <time>2020-08-04T08:27:47.902Z</time>
      </trkpt>
      <trkpt lat="38.946114" lon="-1.409135">
        <ele>999.696541</ele>
        <time>2020-08-04T08:27:50.899Z</time>
      </trkpt>
      <trkpt lat="38.946120" lon="-1.409261">
        <ele>1000.144732</ele>
        <time>2020-08-04T08:27:53.901Z</time>
      </trkpt>
      <trkpt lat="38.946133" lon="-1.409390">
        <ele>1000.548344</ele>
        <time>2020-08-04T08:27:56.897Z</time>
      </trkpt>
      <trkpt lat="38.946137" lon="-1.409514">
        <ele>1000.926675</ele>
        <time>2020-08-04T08:27:59.892Z</time>
      </trkpt>
      <trkpt lat="38.946144" lon="-1.409640">
        <ele>1001.311756</ele>
        <time>2020-08-04T08:28:02.882Z</time>
      </trkpt>
      <trkpt lat="38.946157" lon="-1.409769">
        <ele>1001.708292</ele>
        <time>2020-08-04T08:28:05.889Z</time>
      </trkpt>
      <trkpt lat="38.946165" lon="-1.409899">
        <ele>1002.105827</ele>
        <time>2020-08-04T08:28:08.918Z</time>
      </trkpt>
      <trkpt lat="38.946171" lon="-1.410033">
        <ele>1002.514993</ele>
        <time>2020-08-04T08:28:11.892Z</time>
      </trkpt>
      <trkpt lat="38.946174" lon="-1.410167">
        <ele>1002.923652</ele>
        <time>2020-08-04T08:28:14.881Z</time>
      </trkpt>
      <trkpt lat="38.946180" lon="-1.410298">
        <ele>1003.323689</ele>
        <time>2020-08-04T08:28:17.907Z</time>
      </trkpt>
      <trkpt lat="38.946187" lon="-1.410436">
        <ele>1003.745266</ele>
        <time>2020-08-04T08:28:20.882Z</time>
      </trkpt>
      <trkpt lat="38.946194" lon="-1.410576">
        <ele>1004.172928</ele>
        <time>2020-08-04T08:28:23.894Z</time>
      </trkpt>
      <trkpt lat="38.946207" lon="-1.410709">
        <ele>1004.581559</ele>
        <time>2020-08-04T08:28:26.898Z</time>
      </trkpt>
      <trkpt lat="38.946221" lon="-1.410841">
        <ele>1004.987676</ele>
        <time>2020-08-04T08:28:29.890Z</time>
      </trkpt>
      <trkpt lat="38.946221" lon="-1.410978">
        <ele>1005.405311</ele>
        <time>2020-08-04T08:28:32.895Z</time>
      </trkpt>
      <trkpt lat="38.946219" lon="-1.411107">
        <ele>1005.798637</ele>
        <time>2020-08-04T08:28:35.897Z</time>
      </trkpt>
      <trkpt lat="38.946220" lon="-1.411239">
        <ele>1006.201049</ele>
        <time>2020-08-04T08:28:38.898Z</time>
      </trkpt>
      <trkpt lat="38.946232" lon="-1.411365">
        <ele>1006.588020</ele>
        <time>2020-08-04T08:28:41.917Z</time>
      </trkpt>
      <trkpt lat="38.946241" lon="-1.411501">
        <ele>1007.004105</ele>
        <time>2020-08-04T08:28:44.904Z</time>
      </trkpt>
      <trkpt lat="38.946247" lon="-1.411643">
        <ele>1007.253237</ele>
        <time>2020-08-04T08:28:47.882Z</time>
      </trkpt>
      <trkpt lat="38.946260" lon="-1.411788">
        <ele>1007.272756</ele>
        <time>2020-08-04T08:28:50.890Z</time>
      </trkpt>
      <trkpt lat="38.946272" lon="-1.411933">
        <ele>1007.292255</ele>
        <time>2020-08-04T08:28:53.886Z</time>
      </trkpt>
      <trkpt lat="38.946290" lon="-1.412079">
        <ele>1007.312023</ele>
        <time>2020-08-04T08:28:56.890Z</time>
      </trkpt>
      <trkpt lat="38.946316" lon="-1.412219">
        <ele>1007.331271</ele>
        <time>2020-08-04T08:28:59.889Z</time>
      </trkpt>
      <trkpt lat="38.946360" lon="-1.412360">
        <ele>1007.351587</ele>
        <time>2020-08-04T08:29:02.886Z</time>
      </trkpt>
      <trkpt lat="38.946403" lon="-1.412509">
        <ele>1007.372840</ele>
        <time>2020-08-04T08:29:05.893Z</time>
      </trkpt>
      <trkpt lat="38.946450" lon="-1.412649">
        <ele>1007.393231</ele>
        <time>2020-08-04T08:29:08.902Z</time>
      </trkpt>
      <trkpt lat="38.946503" lon="-1.412788">
        <ele>1007.413932</ele>
        <time>2020-08-04T08:29:11.891Z</time>
      </trkpt>
      <trkpt lat="38.946553" lon="-1.412922">
        <ele>1007.433807</ele>
        <time>2020-08-04T08:29:14.905Z</time>
      </trkpt>
      <trkpt lat="38.946612" lon="-1.413053">
        <ele>1007.454050</ele>
        <time>2020-08-04T08:29:17.889Z</time>
      </trkpt>
      <trkpt lat="38.946667" lon="-1.413184">
        <ele>1007.473958</ele>
        <time>2020-08-04T08:29:20.895Z</time>
      </trkpt>
      <trkpt lat="38.946718" lon="-1.413315">
        <ele>1007.493548</ele>
        <time>2020-08-04T08:29:23.897Z</time>
      </trkpt>
      <trkpt lat="38.946769" lon="-1.413452">
        <ele>1007.513859</ele>
        <time>2020-08-04T08:29:26.885Z</time>
      </trkpt>
      <trkpt lat="38.946826" lon="-1.413589">
        <ele>1007.534636</ele>
        <time>2020-08-04T08:29:29.877Z</time>
      </trkpt>
      <trkpt lat="38.946884" lon="-1.413732">
        <ele>1007.529555</ele>
        <time>2020-08-04T08:29:32.888Z</time>
      </trkpt>
      <trkpt lat="38.946939" lon="-1.413832">
        <ele>1007.344157</ele>
        <time>2020-08-04T08:29:34.887Z</time>
      </trkpt>
      <trkpt lat="38.946983" lon="-1.413948">
        <ele>1007.148796</ele>
        <time>2020-08-04T08:29:36.916Z</time>
      </trkpt>
      <trkpt lat="38.947037" lon="-1.414062">
        <ele>1006.946746</ele>
        <time>2020-08-04T08:29:38.891Z</time>
      </trkpt>
      <trkpt lat="38.947087" lon="-1.414173">
        <ele>1006.752577</ele>
        <time>2020-08-04T08:29:40.881Z</time>
      </trkpt>
      <trkpt lat="38.947146" lon="-1.414325">
        <ele>1006.495430</ele>
        <time>2020-08-04T08:29:45.063Z</time>
      </trkpt>
      <trkpt lat="38.947213" lon="-1.414443">
        <ele>1006.274276</ele>
        <time>2020-08-04T08:29:46.901Z</time>
      </trkpt>
      <trkpt lat="38.947267" lon="-1.414582">
        <ele>1006.039081</ele>
        <time>2020-08-04T08:29:49.889Z</time>
      </trkpt>
      <trkpt lat="38.947328" lon="-1.414713">
        <ele>1005.807961</ele>
        <time>2020-08-04T08:29:52.891Z</time>
      </trkpt>
      <trkpt lat="38.947384" lon="-1.414838">
        <ele>1005.589601</ele>
        <time>2020-08-04T08:29:55.907Z</time>
      </trkpt>
      <trkpt lat="38.947432" lon="-1.414956">
        <ele>1005.388028</ele>
        <time>2020-08-04T08:29:58.907Z</time>
      </trkpt>
      <trkpt lat="38.947483" lon="-1.415073">
        <ele>1005.185005</ele>
        <time>2020-08-04T08:30:01.898Z</time>
      </trkpt>
      <trkpt lat="38.947532" lon="-1.415189">
        <ele>1004.985188</ele>
        <time>2020-08-04T08:30:04.892Z</time>
      </trkpt>
      <trkpt lat="38.947587" lon="-1.415310">
        <ele>1004.773042</ele>
        <time>2020-08-04T08:30:07.892Z</time>
      </trkpt>
      <trkpt lat="38.947684" lon="-1.415422">
        <ele>1004.519301</ele>
        <time>2020-08-04T08:30:10.894Z</time>
      </trkpt>
      <trkpt lat="38.947765" lon="-1.415490">
        <ele>1004.331022</ele>
        <time>2020-08-04T08:30:12.890Z</time>
      </trkpt>
      <trkpt lat="38.947861" lon="-1.415542">
        <ele>1004.128273</ele>
        <time>2020-08-04T08:30:14.886Z</time>
      </trkpt>
      <trkpt lat="38.947966" lon="-1.415575">
        <ele>1003.257951</ele>
        <time>2020-08-04T08:30:16.899Z</time>
      </trkpt>
      <trkpt lat="38.948075" lon="-1.415609">
        <ele>1001.975716</ele>
        <time>2020-08-04T08:30:18.894Z</time>
      </trkpt>
      <trkpt lat="38.948176" lon="-1.415653">
        <ele>1000.756610</ele>
        <time>2020-08-04T08:30:20.899Z</time>
      </trkpt>
      <trkpt lat="38.948286" lon="-1.415688">
        <ele>999.461157</ele>
        <time>2020-08-04T08:30:22.890Z</time>
      </trkpt>
      <trkpt lat="38.948391" lon="-1.415710">
        <ele>998.244961</ele>
        <time>2020-08-04T08:30:24.898Z</time>
      </trkpt>
      <trkpt lat="38.948512" lon="-1.415750">
        <ele>996.816700</ele>
        <time>2020-08-04T08:30:26.890Z</time>
      </trkpt>
      <trkpt lat="38.948646" lon="-1.415796">
        <ele>995.231153</ele>
        <time>2020-08-04T08:30:28.894Z</time>
      </trkpt>
      <trkpt lat="38.948783" lon="-1.415861">
        <ele>993.561747</ele>
        <time>2020-08-04T08:30:30.887Z</time>
      </trkpt>
      <trkpt lat="38.948912" lon="-1.415897">
        <ele>992.052680</ele>
        <time>2020-08-04T08:30:32.890Z</time>
      </trkpt>
      <trkpt lat="38.949053" lon="-1.415943">
        <ele>990.389690</ele>
        <time>2020-08-04T08:30:34.907Z</time>
      </trkpt>
      <trkpt lat="38.949214" lon="-1.415994">
        <ele>988.494103</ele>
        <time>2020-08-04T08:30:36.896Z</time>
      </trkpt>
      <trkpt lat="38.949362" lon="-1.416041">
        <ele>986.751324</ele>
        <time>2020-08-04T08:30:38.888Z</time>
      </trkpt>
      <trkpt lat="38.949508" lon="-1.416083">
        <ele>985.040987</ele>
        <time>2020-08-04T08:30:40.905Z</time>
      </trkpt>
      <trkpt lat="38.949650" lon="-1.416133">
        <ele>983.524844</ele>
        <time>2020-08-04T08:30:42.922Z</time>
      </trkpt>
      <trkpt lat="38.949793" lon="-1.416189">
        <ele>983.956933</ele>
        <time>2020-08-04T08:30:44.886Z</time>
      </trkpt>
      <trkpt lat="38.949944" lon="-1.416252">
        <ele>984.415802</ele>
        <time>2020-08-04T08:30:46.895Z</time>
      </trkpt>
      <trkpt lat="38.950111" lon="-1.416285">
        <ele>984.904186</ele>
        <time>2020-08-04T08:30:48.895Z</time>
      </trkpt>
      <trkpt lat="38.950258" lon="-1.416318">
        <ele>985.335519</ele>
        <time>2020-08-04T08:30:50.876Z</time>
      </trkpt>
      <trkpt lat="38.950399" lon="-1.416360">
        <ele>985.753875</ele>
        <time>2020-08-04T08:30:52.890Z</time>
      </trkpt>
      <trkpt lat="38.950529" lon="-1.416399">
        <ele>986.139734</ele>
        <time>2020-08-04T08:30:54.899Z</time>
      </trkpt>
      <trkpt lat="38.950665" lon="-1.416437">
        <ele>986.542019</ele>
        <time>2020-08-04T08:30:56.894Z</time>
      </trkpt>
      <trkpt lat="38.950786" lon="-1.416475">
        <ele>986.902052</ele>
        <time>2020-08-04T08:30:58.886Z</time>
      </trkpt>
      <trkpt lat="38.950895" lon="-1.416521">
        <ele>987.233653</ele>
        <time>2020-08-04T08:31:00.900Z</time>
      </trkpt>
      <trkpt lat="38.951005" lon="-1.416580">
        <ele>987.578163</ele>
        <time>2020-08-04T08:31:02.886Z</time>
      </trkpt>
      <trkpt lat="38.951090" lon="-1.416661">
        <ele>987.883972</ele>
        <time>2020-08-04T08:31:04.907Z</time>
      </trkpt>
      <trkpt lat="38.951182" lon="-1.416754">
        <ele>988.222234</ele>
        <time>2020-08-04T08:31:06.889Z</time>
      </trkpt>
      <trkpt lat="38.951278" lon="-1.416823">
        <ele>988.540131</ele>
        <time>2020-08-04T08:31:08.885Z</time>
      </trkpt>
      <trkpt lat="38.951364" lon="-1.416898">
        <ele>989.142595</ele>
        <time>2020-08-04T08:31:10.892Z</time>
      </trkpt>
      <trkpt lat="38.951442" lon="-1.416978">
        <ele>990.010537</ele>
        <time>2020-08-04T08:31:12.893Z</time>
      </trkpt>
      <trkpt lat="38.951520" lon="-1.417074">
        <ele>990.949793</ele>
        <time>2020-08-04T08:31:14.895Z</time>
      </trkpt>
      <trkpt lat="38.951584" lon="-1.417189">
        <ele>991.906475</ele>
        <time>2020-08-04T08:31:16.886Z</time>
      </trkpt>
      <trkpt lat="38.951651" lon="-1.417295">
        <ele>992.830568</ele>
        <time>2020-08-04T08:31:18.905Z</time>
      </trkpt>
      <trkpt lat="38.951715" lon="-1.417384">
        <ele>993.650622</ele>
        <time>2020-08-04T08:31:20.887Z</time>
      </trkpt>
      <trkpt lat="38.951776" lon="-1.417485">
        <ele>994.515757</ele>
        <time>2020-08-04T08:31:22.892Z</time>
      </trkpt>
      <trkpt lat="38.951849" lon="-1.417616">
        <ele>995.606025</ele>
        <time>2020-08-04T08:31:25.902Z</time>
      </trkpt>
      <trkpt lat="38.951895" lon="-1.417717">
        <ele>996.397856</ele>
        <time>2020-08-04T08:31:27.889Z</time>
      </trkpt>
      <trkpt lat="38.951978" lon="-1.417850">
        <ele>997.551502</ele>
        <time>2020-08-04T08:31:30.891Z</time>
      </trkpt>
      <trkpt lat="38.952033" lon="-1.417976">
        <ele>998.529005</ele>
        <time>2020-08-04T08:31:33.899Z</time>
      </trkpt>
      <trkpt lat="38.952092" lon="-1.418097">
        <ele>999.495181</ele>
        <time>2020-08-04T08:31:36.897Z</time>
      </trkpt>
      <trkpt lat="38.952145" lon="-1.418204">
        <ele>1000.353408</ele>
        <time>2020-08-04T08:31:39.895Z</time>
      </trkpt>
      <trkpt lat="38.952195" lon="-1.418308">
        <ele>1001.180572</ele>
        <time>2020-08-04T08:31:42.902Z</time>
      </trkpt>
      <trkpt lat="38.952245" lon="-1.418407">
        <ele>1001.979162</ele>
        <time>2020-08-04T08:31:45.906Z</time>
      </trkpt>
      <trkpt lat="38.952300" lon="-1.418541">
        <ele>1003.004198</ele>
        <time>2020-08-04T08:31:49.899Z</time>
      </trkpt>
      <trkpt lat="38.952357" lon="-1.418669">
        <ele>1004.002048</ele>
        <time>2020-08-04T08:31:53.890Z</time>
      </trkpt>
      <trkpt lat="38.952422" lon="-1.418791">
        <ele>1004.572499</ele>
        <time>2020-08-04T08:31:57.894Z</time>
      </trkpt>
      <trkpt lat="38.952474" lon="-1.418886">
        <ele>1004.850708</ele>
        <time>2020-08-04T08:32:00.897Z</time>
      </trkpt>
      <trkpt lat="38.952539" lon="-1.419009">
        <ele>1005.206840</ele>
        <time>2020-08-04T08:32:04.899Z</time>
      </trkpt>
      <trkpt lat="38.952596" lon="-1.419121">
        <ele>1005.527386</ele>
        <time>2020-08-04T08:32:08.899Z</time>
      </trkpt>
      <trkpt lat="38.952652" lon="-1.419226">
        <ele>1005.832290</ele>
        <time>2020-08-04T08:32:12.887Z</time>
      </trkpt>
      <trkpt lat="38.952699" lon="-1.419333">
        <ele>1006.126581</ele>
        <time>2020-08-04T08:32:16.885Z</time>
      </trkpt>
      <trkpt lat="38.952763" lon="-1.419431">
        <ele>1006.433046</ele>
        <time>2020-08-04T08:32:20.894Z</time>
      </trkpt>
      <trkpt lat="38.952818" lon="-1.419531">
        <ele>1006.726363</ele>
        <time>2020-08-04T08:32:24.886Z</time>
      </trkpt>
      <trkpt lat="38.952867" lon="-1.419636">
        <ele>1007.019614</ele>
        <time>2020-08-04T08:32:28.887Z</time>
      </trkpt>
      <trkpt lat="38.952916" lon="-1.419742">
        <ele>1007.314921</ele>
        <time>2020-08-04T08:32:32.875Z</time>
      </trkpt>
      <trkpt lat="38.952973" lon="-1.419846">
        <ele>1007.619616</ele>
        <time>2020-08-04T08:32:36.895Z</time>
      </trkpt>
      <trkpt lat="38.953036" lon="-1.419949">
        <ele>1007.933430</ele>
        <time>2020-08-04T08:32:40.900Z</time>
      </trkpt>
      <trkpt lat="38.953090" lon="-1.420056">
        <ele>1008.238898</ele>
        <time>2020-08-04T08:32:44.891Z</time>
      </trkpt>
      <trkpt lat="38.953145" lon="-1.420154">
        <ele>1008.528318</ele>
        <time>2020-08-04T08:32:48.891Z</time>
      </trkpt>
      <trkpt lat="38.953203" lon="-1.420249">
        <ele>1008.817555</ele>
        <time>2020-08-04T08:32:52.901Z</time>
      </trkpt>
      <trkpt lat="38.953261" lon="-1.420349">
        <ele>1009.116301</ele>
        <time>2020-08-04T08:32:56.891Z</time>
      </trkpt>
      <trkpt lat="38.953312" lon="-1.420451">
        <ele>1009.406698</ele>
        <time>2020-08-04T08:33:00.878Z</time>
      </trkpt>
      <trkpt lat="38.953360" lon="-1.420553">
        <ele>1009.692205</ele>
        <time>2020-08-04T08:33:04.901Z</time>
      </trkpt>
      <trkpt lat="38.953409" lon="-1.420663">
        <ele>1009.838038</ele>
        <time>2020-08-04T08:33:08.890Z</time>
      </trkpt>
      <trkpt lat="38.953455" lon="-1.420791">
        <ele>1009.732186</ele>
        <time>2020-08-04T08:33:12.907Z</time>
      </trkpt>
      <trkpt lat="38.953489" lon="-1.420928">
        <ele>1009.624232</ele>
        <time>2020-08-04T08:33:16.889Z</time>
      </trkpt>
      <trkpt lat="38.953517" lon="-1.421054">
        <ele>1009.525859</ele>
        <time>2020-08-04T08:33:20.892Z</time>
      </trkpt>
      <trkpt lat="38.953543" lon="-1.421189">
        <ele>1009.421455</ele>
        <time>2020-08-04T08:33:24.886Z</time>
      </trkpt>
      <trkpt lat="38.953553" lon="-1.421308">
        <ele>1009.331604</ele>
        <time>2020-08-04T08:33:27.897Z</time>
      </trkpt>
      <trkpt lat="38.953567" lon="-1.421425">
        <ele>1009.242740</ele>
        <time>2020-08-04T08:33:30.903Z</time>
      </trkpt>
      <trkpt lat="38.953582" lon="-1.421551">
        <ele>1009.147051</ele>
        <time>2020-08-04T08:33:33.889Z</time>
      </trkpt>
      <trkpt lat="38.953595" lon="-1.421684">
        <ele>1009.046425</ele>
        <time>2020-08-04T08:33:36.890Z</time>
      </trkpt>
      <trkpt lat="38.953602" lon="-1.421817">
        <ele>1008.946355</ele>
        <time>2020-08-04T08:33:39.885Z</time>
      </trkpt>
      <trkpt lat="38.953603" lon="-1.421944">
        <ele>1008.851013</ele>
        <time>2020-08-04T08:33:42.905Z</time>
      </trkpt>
      <trkpt lat="38.953615" lon="-1.422097">
        <ele>1008.735576</ele>
        <time>2020-08-04T08:33:45.911Z</time>
      </trkpt>
      <trkpt lat="38.953626" lon="-1.422269">
        <ele>1008.606022</ele>
        <time>2020-08-04T08:33:48.902Z</time>
      </trkpt>
      <trkpt lat="38.953624" lon="-1.422393">
        <ele>1008.512917</ele>
        <time>2020-08-04T08:33:50.885Z</time>
      </trkpt>
      <trkpt lat="38.953633" lon="-1.422512">
        <ele>1008.423164</ele>
        <time>2020-08-04T08:33:52.894Z</time>
      </trkpt>
      <trkpt lat="38.953634" lon="-1.422642">
        <ele>1008.325570</ele>
        <time>2020-08-04T08:33:54.903Z</time>
      </trkpt>
      <trkpt lat="38.953651" lon="-1.422766">
        <ele>1008.231050</ele>
        <time>2020-08-04T08:33:56.902Z</time>
      </trkpt>
      <trkpt lat="38.953655" lon="-1.422907">
        <ele>1007.982749</ele>
        <time>2020-08-04T08:33:58.903Z</time>
      </trkpt>
      <trkpt lat="38.953670" lon="-1.423043">
        <ele>1006.852124</ele>
        <time>2020-08-04T08:34:00.889Z</time>
      </trkpt>
      <trkpt lat="38.953680" lon="-1.423165">
        <ele>1005.842374</ele>
        <time>2020-08-04T08:34:02.890Z</time>
      </trkpt>
      <trkpt lat="38.953681" lon="-1.423301">
        <ele>1004.722903</ele>
        <time>2020-08-04T08:34:04.900Z</time>
      </trkpt>
      <trkpt lat="38.953686" lon="-1.423422">
        <ele>1003.725542</ele>
        <time>2020-08-04T08:34:06.895Z</time>
      </trkpt>
      <trkpt lat="38.953693" lon="-1.423545">
        <ele>1002.710416</ele>
        <time>2020-08-04T08:34:08.899Z</time>
      </trkpt>
      <trkpt lat="38.953707" lon="-1.423667">
        <ele>1001.695355</ele>
        <time>2020-08-04T08:34:10.894Z</time>
      </trkpt>
      <trkpt lat="38.953702" lon="-1.423801">
        <ele>1000.591127</ele>
        <time>2020-08-04T08:34:12.893Z</time>
      </trkpt>
      <trkpt lat="38.953712" lon="-1.423928">
        <ele>999.540440</ele>
        <time>2020-08-04T08:34:14.895Z</time>
      </trkpt>
      <trkpt lat="38.953717" lon="-1.424069">
        <ele>998.378658</ele>
        <time>2020-08-04T08:34:16.898Z</time>
      </trkpt>
      <trkpt lat="38.953733" lon="-1.424195">
        <ele>997.327811</ele>
        <time>2020-08-04T08:34:18.895Z</time>
      </trkpt>
      <trkpt lat="38.953762" lon="-1.424330">
        <ele>996.175006</ele>
        <time>2020-08-04T08:34:20.903Z</time>
      </trkpt>
      <trkpt lat="38.953821" lon="-1.424439">
        <ele>995.081885</ele>
        <time>2020-08-04T08:34:22.910Z</time>
      </trkpt>
      <trkpt lat="38.953850" lon="-1.424578">
        <ele>993.897313</ele>
        <time>2020-08-04T08:34:24.894Z</time>
      </trkpt>
      <trkpt lat="38.953891" lon="-1.424765">
        <ele>992.298106</ele>
        <time>2020-08-04T08:34:26.894Z</time>
      </trkpt>
      <trkpt lat="38.953930" lon="-1.424912">
        <ele>991.019670</ele>
        <time>2020-08-04T08:34:28.899Z</time>
      </trkpt>
      <trkpt lat="38.954016" lon="-1.425038">
        <ele>989.639753</ele>
        <time>2020-08-04T08:34:30.890Z</time>
      </trkpt>
      <trkpt lat="38.954054" lon="-1.425202">
        <ele>988.985891</ele>
        <time>2020-08-04T08:34:32.882Z</time>
      </trkpt>
      <trkpt lat="38.954122" lon="-1.425342">
        <ele>988.805029</ele>
        <time>2020-08-04T08:34:34.895Z</time>
      </trkpt>
      <trkpt lat="38.954216" lon="-1.425481">
        <ele>988.603192</ele>
        <time>2020-08-04T08:34:36.884Z</time>
      </trkpt>
      <trkpt lat="38.954299" lon="-1.425619">
        <ele>988.412038</ele>
        <time>2020-08-04T08:34:38.887Z</time>
      </trkpt>
      <trkpt lat="38.954391" lon="-1.425756">
        <ele>988.213703</ele>
        <time>2020-08-04T08:34:40.896Z</time>
      </trkpt>
      <trkpt lat="38.954460" lon="-1.425905">
        <ele>988.023688</ele>
        <time>2020-08-04T08:34:42.903Z</time>
      </trkpt>
      <trkpt lat="38.954544" lon="-1.426054">
        <ele>987.822040</ele>
        <time>2020-08-04T08:34:44.895Z</time>
      </trkpt>
      <trkpt lat="38.954613" lon="-1.426194">
        <ele>987.640429</ele>
        <time>2020-08-04T08:34:46.886Z</time>
      </trkpt>
      <trkpt lat="38.954657" lon="-1.426352">
        <ele>987.456543</ele>
        <time>2020-08-04T08:34:48.884Z</time>
      </trkpt>
      <trkpt lat="38.954718" lon="-1.426495">
        <ele>987.277832</ele>
        <time>2020-08-04T08:34:50.890Z</time>
      </trkpt>
      <trkpt lat="38.954769" lon="-1.426634">
        <ele>987.109429</ele>
        <time>2020-08-04T08:34:52.898Z</time>
      </trkpt>
      <trkpt lat="38.954828" lon="-1.426776">
        <ele>986.933025</ele>
        <time>2020-08-04T08:34:54.888Z</time>
      </trkpt>
      <trkpt lat="38.954895" lon="-1.426927">
        <ele>986.742537</ele>
        <time>2020-08-04T08:34:56.897Z</time>
      </trkpt>
      <trkpt lat="38.954964" lon="-1.427062">
        <ele>986.562670</ele>
        <time>2020-08-04T08:34:58.894Z</time>
      </trkpt>
      <trkpt lat="38.955036" lon="-1.427206">
        <ele>986.102471</ele>
        <time>2020-08-04T08:35:00.888Z</time>
      </trkpt>
      <trkpt lat="38.955087" lon="-1.427360">
        <ele>985.652524</ele>
        <time>2020-08-04T08:35:02.885Z</time>
      </trkpt>
      <trkpt lat="38.955149" lon="-1.427496">
        <ele>985.228750</ele>
        <time>2020-08-04T08:35:04.899Z</time>
      </trkpt>
      <trkpt lat="38.955231" lon="-1.427617">
        <ele>984.797307</ele>
        <time>2020-08-04T08:35:06.878Z</time>
      </trkpt>
      <trkpt lat="38.955293" lon="-1.427759">
        <ele>984.359543</ele>
        <time>2020-08-04T08:35:08.886Z</time>
      </trkpt>
      <trkpt lat="38.955360" lon="-1.427911">
        <ele>983.889875</ele>
        <time>2020-08-04T08:35:10.884Z</time>
      </trkpt>
      <trkpt lat="38.955428" lon="-1.428049">
        <ele>983.450712</ele>
        <time>2020-08-04T08:35:12.884Z</time>
      </trkpt>
      <trkpt lat="38.955496" lon="-1.428166">
        <ele>983.058068</ele>
        <time>2020-08-04T08:35:14.891Z</time>
      </trkpt>
      <trkpt lat="38.955553" lon="-1.428314">
        <ele>982.614109</ele>
        <time>2020-08-04T08:35:16.887Z</time>
      </trkpt>
      <trkpt lat="38.955600" lon="-1.428454">
        <ele>982.204202</ele>
        <time>2020-08-04T08:35:18.899Z</time>
      </trkpt>
      <trkpt lat="38.955659" lon="-1.428604">
        <ele>981.752342</ele>
        <time>2020-08-04T08:35:20.900Z</time>
      </trkpt>
      <trkpt lat="38.955714" lon="-1.428752">
        <ele>981.311409</ele>
        <time>2020-08-04T08:35:22.881Z</time>
      </trkpt>
      <trkpt lat="38.955778" lon="-1.428911">
        <ele>980.830138</ele>
        <time>2020-08-04T08:35:24.896Z</time>
      </trkpt>
      <trkpt lat="38.955850" lon="-1.429031">
        <ele>980.422711</ele>
        <time>2020-08-04T08:35:26.908Z</time>
      </trkpt>
      <trkpt lat="38.955919" lon="-1.429162">
        <ele>980.398678</ele>
        <time>2020-08-04T08:35:28.891Z</time>
      </trkpt>
      <trkpt lat="38.956000" lon="-1.429288">
        <ele>980.459353</ele>
        <time>2020-08-04T08:35:30.885Z</time>
      </trkpt>
      <trkpt lat="38.956081" lon="-1.429415">
        <ele>980.520314</ele>
        <time>2020-08-04T08:35:32.905Z</time>
      </trkpt>
      <trkpt lat="38.956151" lon="-1.429552">
        <ele>980.581155</ele>
        <time>2020-08-04T08:35:34.892Z</time>
      </trkpt>
      <trkpt lat="38.956210" lon="-1.429686">
        <ele>980.638306</ele>
        <time>2020-08-04T08:35:36.897Z</time>
      </trkpt>
      <trkpt lat="38.956271" lon="-1.429821">
        <ele>980.696255</ele>
        <time>2020-08-04T08:35:38.885Z</time>
      </trkpt>
      <trkpt lat="38.956333" lon="-1.429945">
        <ele>980.750969</ele>
        <time>2020-08-04T08:35:40.895Z</time>
      </trkpt>
      <trkpt lat="38.956387" lon="-1.430061">
        <ele>980.801146</ele>
        <time>2020-08-04T08:35:42.898Z</time>
      </trkpt>
      <trkpt lat="38.956420" lon="-1.430218">
        <ele>980.861506</ele>
        <time>2020-08-04T08:35:44.892Z</time>
      </trkpt>
      <trkpt lat="38.956505" lon="-1.430345">
        <ele>980.923696</ele>
        <time>2020-08-04T08:35:46.884Z</time>
      </trkpt>
      <trkpt lat="38.956571" lon="-1.430482">
        <ele>980.983509</ele>
        <time>2020-08-04T08:35:48.885Z</time>
      </trkpt>
      <trkpt lat="38.956628" lon="-1.430626">
        <ele>981.043478</ele>
        <time>2020-08-04T08:35:50.896Z</time>
      </trkpt>
      <trkpt lat="38.956665" lon="-1.430770">
        <ele>981.099764</ele>
        <time>2020-08-04T08:35:52.894Z</time>
      </trkpt>
      <trkpt lat="38.956713" lon="-1.430959">
        <ele>981.173556</ele>
        <time>2020-08-04T08:35:54.894Z</time>
      </trkpt>
      <trkpt lat="38.956800" lon="-1.431115">
        <ele>981.046511</ele>
        <time>2020-08-04T08:35:56.893Z</time>
      </trkpt>
      <trkpt lat="38.956851" lon="-1.431312">
        <ele>980.703330</ele>
        <time>2020-08-04T08:35:58.892Z</time>
      </trkpt>
      <trkpt lat="38.956944" lon="-1.431480">
        <ele>980.362478</ele>
        <time>2020-08-04T08:36:00.886Z</time>
      </trkpt>
      <trkpt lat="38.957028" lon="-1.431666">
        <ele>980.006964</ele>
        <time>2020-08-04T08:36:02.901Z</time>
      </trkpt>
      <trkpt lat="38.957069" lon="-1.431771">
        <ele>979.812764</ele>
        <time>2020-08-04T08:36:03.906Z</time>
      </trkpt>
      <trkpt lat="38.957117" lon="-1.431875">
        <ele>979.612871</ele>
        <time>2020-08-04T08:36:04.897Z</time>
      </trkpt>
      <trkpt lat="38.957153" lon="-1.431992">
        <ele>979.404900</ele>
        <time>2020-08-04T08:36:05.901Z</time>
      </trkpt>
      <trkpt lat="38.957248" lon="-1.432202">
        <ele>979.003342</ele>
        <time>2020-08-04T08:36:07.882Z</time>
      </trkpt>
      <trkpt lat="38.957295" lon="-1.432313">
        <ele>978.794442</ele>
        <time>2020-08-04T08:36:08.887Z</time>
      </trkpt>
      <trkpt lat="38.957331" lon="-1.432431">
        <ele>978.584934</ele>
        <time>2020-08-04T08:36:09.889Z</time>
      </trkpt>
      <trkpt lat="38.957381" lon="-1.432539">
        <ele>978.377186</ele>
        <time>2020-08-04T08:36:10.892Z</time>
      </trkpt>
      <trkpt lat="38.957428" lon="-1.432644">
        <ele>978.176940</ele>
        <time>2020-08-04T08:36:11.883Z</time>
      </trkpt>
      <trkpt lat="38.957464" lon="-1.432755">
        <ele>977.978157</ele>
        <time>2020-08-04T08:36:12.897Z</time>
      </trkpt>
      <trkpt lat="38.957518" lon="-1.432857">
        <ele>977.774206</ele>
        <time>2020-08-04T08:36:13.895Z</time>
      </trkpt>
      <trkpt lat="38.957584" lon="-1.432959">
        <ele>977.554885</ele>
        <time>2020-08-04T08:36:14.896Z</time>
      </trkpt>
      <trkpt lat="38.957653" lon="-1.433059">
        <ele>977.350434</ele>
        <time>2020-08-04T08:36:15.886Z</time>
      </trkpt>
      <trkpt lat="38.957699" lon="-1.433161">
        <ele>977.218092</ele>
        <time>2020-08-04T08:36:16.889Z</time>
      </trkpt>
      <trkpt lat="38.957749" lon="-1.433264">
        <ele>977.081810</ele>
        <time>2020-08-04T08:36:17.894Z</time>
      </trkpt>
      <trkpt lat="38.957832" lon="-1.433469">
        <ele>976.822403</ele>
        <time>2020-08-04T08:36:19.893Z</time>
      </trkpt>
      <trkpt lat="38.957881" lon="-1.433578">
        <ele>976.681092</ele>
        <time>2020-08-04T08:36:20.891Z</time>
      </trkpt>
      <trkpt lat="38.957952" lon="-1.433693">
        <ele>976.516284</ele>
        <time>2020-08-04T08:36:21.894Z</time>
      </trkpt>
      <trkpt lat="38.958005" lon="-1.433789">
        <ele>976.384141</ele>
        <time>2020-08-04T08:36:22.898Z</time>
      </trkpt>
      <trkpt lat="38.958064" lon="-1.433898">
        <ele>976.235082</ele>
        <time>2020-08-04T08:36:23.893Z</time>
      </trkpt>
      <trkpt lat="38.958150" lon="-1.434113">
        <ele>975.963718</ele>
        <time>2020-08-04T08:36:25.892Z</time>
      </trkpt>
      <trkpt lat="38.958242" lon="-1.434326">
        <ele>975.690249</ele>
        <time>2020-08-04T08:36:27.890Z</time>
      </trkpt>
      <trkpt lat="38.958283" lon="-1.434430">
        <ele>975.559379</ele>
        <time>2020-08-04T08:36:28.907Z</time>
      </trkpt>
      <trkpt lat="38.958323" lon="-1.434537">
        <ele>975.426128</ele>
        <time>2020-08-04T08:36:29.888Z</time>
      </trkpt>
      <trkpt lat="38.958381" lon="-1.434627">
        <ele>975.294934</ele>
        <time>2020-08-04T08:36:30.903Z</time>
      </trkpt>
      <trkpt lat="38.958434" lon="-1.434724">
        <ele>975.161876</ele>
        <time>2020-08-04T08:36:31.900Z</time>
      </trkpt>
      <trkpt lat="38.958528" lon="-1.434925">
        <ele>974.898624</ele>
        <time>2020-08-04T08:36:33.898Z</time>
      </trkpt>
      <trkpt lat="38.958618" lon="-1.435106">
        <ele>976.946607</ele>
        <time>2020-08-04T08:36:35.904Z</time>
      </trkpt>
      <trkpt lat="38.958704" lon="-1.435294">
        <ele>980.953864</ele>
        <time>2020-08-04T08:36:37.905Z</time>
      </trkpt>
      <trkpt lat="38.958765" lon="-1.435384">
        <ele>983.147280</ele>
        <time>2020-08-04T08:36:38.892Z</time>
      </trkpt>
      <trkpt lat="38.958857" lon="-1.435571">
        <ele>987.212702</ele>
        <time>2020-08-04T08:36:40.895Z</time>
      </trkpt>
      <trkpt lat="38.958913" lon="-1.435771">
        <ele>991.118029</ele>
        <time>2020-08-04T08:36:42.890Z</time>
      </trkpt>
      <trkpt lat="38.958986" lon="-1.435953">
        <ele>994.880327</ele>
        <time>2020-08-04T08:36:44.901Z</time>
      </trkpt>
      <trkpt lat="38.959061" lon="-1.436128">
        <ele>998.551379</ele>
        <time>2020-08-04T08:36:46.896Z</time>
      </trkpt>
      <trkpt lat="38.959112" lon="-1.436313">
        <ele>1002.157438</ele>
        <time>2020-08-04T08:36:48.896Z</time>
      </trkpt>
      <trkpt lat="38.959175" lon="-1.436488">
        <ele>1005.700346</ele>
        <time>2020-08-04T08:36:50.901Z</time>
      </trkpt>
      <trkpt lat="38.959230" lon="-1.436664">
        <ele>1009.185126</ele>
        <time>2020-08-04T08:36:52.886Z</time>
      </trkpt>
      <trkpt lat="38.959288" lon="-1.436830">
        <ele>1012.528565</ele>
        <time>2020-08-04T08:36:54.901Z</time>
      </trkpt>
      <trkpt lat="38.959356" lon="-1.436973">
        <ele>1015.608036</ele>
        <time>2020-08-04T08:36:56.887Z</time>
      </trkpt>
      <trkpt lat="38.959420" lon="-1.437111">
        <ele>1018.016425</ele>
        <time>2020-08-04T08:36:58.900Z</time>
      </trkpt>
      <trkpt lat="38.959477" lon="-1.437243">
        <ele>1019.607824</ele>
        <time>2020-08-04T08:37:00.887Z</time>
      </trkpt>
      <trkpt lat="38.959522" lon="-1.437367">
        <ele>1021.050099</ele>
        <time>2020-08-04T08:37:02.885Z</time>
      </trkpt>
      <trkpt lat="38.959578" lon="-1.437494">
        <ele>1022.588906</ele>
        <time>2020-08-04T08:37:04.900Z</time>
      </trkpt>
      <trkpt lat="38.959604" lon="-1.437632">
        <ele>1024.085496</ele>
        <time>2020-08-04T08:37:06.894Z</time>
      </trkpt>
      <trkpt lat="38.959638" lon="-1.437752">
        <ele>1025.431628</ele>
        <time>2020-08-04T08:37:08.886Z</time>
      </trkpt>
      <trkpt lat="38.959696" lon="-1.437854">
        <ele>1026.763478</ele>
        <time>2020-08-04T08:37:10.890Z</time>
      </trkpt>
      <trkpt lat="38.959734" lon="-1.437981">
        <ele>1028.197721</ele>
        <time>2020-08-04T08:37:12.901Z</time>
      </trkpt>
      <trkpt lat="38.959796" lon="-1.438071">
        <ele>1029.465026</ele>
        <time>2020-08-04T08:37:14.922Z</time>
      </trkpt>
      <trkpt lat="38.959861" lon="-1.438192">
        <ele>1031.015087</ele>
        <time>2020-08-04T08:37:17.881Z</time>
      </trkpt>
      <trkpt lat="38.959941" lon="-1.438310">
        <ele>1032.665129</ele>
        <time>2020-08-04T08:37:20.893Z</time>
      </trkpt>
      <trkpt lat="38.960041" lon="-1.438410">
        <ele>1034.382144</ele>
        <time>2020-08-04T08:37:23.906Z</time>
      </trkpt>
      <trkpt lat="38.960104" lon="-1.438527">
        <ele>1035.882107</ele>
        <time>2020-08-04T08:37:26.902Z</time>
      </trkpt>
      <trkpt lat="38.960169" lon="-1.438632">
        <ele>1037.296668</ele>
        <time>2020-08-04T08:37:29.902Z</time>
      </trkpt>
      <trkpt lat="38.960232" lon="-1.438733">
        <ele>1038.661370</ele>
        <time>2020-08-04T08:37:32.875Z</time>
      </trkpt>
      <trkpt lat="38.960294" lon="-1.438857">
        <ele>1040.215178</ele>
        <time>2020-08-04T08:37:35.881Z</time>
      </trkpt>
      <trkpt lat="38.960348" lon="-1.438986">
        <ele>1041.692669</ele>
        <time>2020-08-04T08:37:38.898Z</time>
      </trkpt>
      <trkpt lat="38.960408" lon="-1.439117">
        <ele>1042.166472</ele>
        <time>2020-08-04T08:37:41.898Z</time>
      </trkpt>
      <trkpt lat="38.960464" lon="-1.439270">
        <ele>1042.693459</ele>
        <time>2020-08-04T08:37:44.896Z</time>
      </trkpt>
      <trkpt lat="38.960509" lon="-1.439417">
        <ele>1043.185788</ele>
        <time>2020-08-04T08:37:47.888Z</time>
      </trkpt>
      <trkpt lat="38.960540" lon="-1.439542">
        <ele>1043.594668</ele>
        <time>2020-08-04T08:37:50.893Z</time>
      </trkpt>
      <trkpt lat="38.960584" lon="-1.439670">
        <ele>1044.030803</ele>
        <time>2020-08-04T08:37:53.885Z</time>
      </trkpt>
      <trkpt lat="38.960633" lon="-1.439793">
        <ele>1044.461495</ele>
        <time>2020-08-04T08:37:56.876Z</time>
      </trkpt>
      <trkpt lat="38.960677" lon="-1.439907">
        <ele>1044.858118</ele>
        <time>2020-08-04T08:37:59.886Z</time>
      </trkpt>
      <trkpt lat="38.960723" lon="-1.440008">
        <ele>1045.222889</ele>
        <time>2020-08-04T08:38:02.876Z</time>
      </trkpt>
      <trkpt lat="38.960761" lon="-1.440114">
        <ele>1045.586640</ele>
        <time>2020-08-04T08:38:05.908Z</time>
      </trkpt>
      <trkpt lat="38.960800" lon="-1.440221">
        <ele>1045.954906</ele>
        <time>2020-08-04T08:38:08.897Z</time>
      </trkpt>
      <trkpt lat="38.960837" lon="-1.440348">
        <ele>1046.377552</ele>
        <time>2020-08-04T08:38:12.887Z</time>
      </trkpt>
      <trkpt lat="38.960884" lon="-1.440472">
        <ele>1046.807446</ele>
        <time>2020-08-04T08:38:16.897Z</time>
      </trkpt>
      <trkpt lat="38.960914" lon="-1.440593">
        <ele>1047.203229</ele>
        <time>2020-08-04T08:38:20.887Z</time>
      </trkpt>
      <trkpt lat="38.960950" lon="-1.440711">
        <ele>1047.598251</ele>
        <time>2020-08-04T08:38:25.898Z</time>
      </trkpt>
      <trkpt lat="38.960992" lon="-1.440834">
        <ele>1048.016893</ele>
        <time>2020-08-04T08:38:29.894Z</time>
      </trkpt>
      <trkpt lat="38.961036" lon="-1.440970">
        <ele>1048.475939</ele>
        <time>2020-08-04T08:38:33.894Z</time>
      </trkpt>
      <trkpt lat="38.961076" lon="-1.441093">
        <ele>1048.889777</ele>
        <time>2020-08-04T08:38:37.894Z</time>
      </trkpt>
      <trkpt lat="38.961151" lon="-1.441189">
        <ele>1049.275406</ele>
        <time>2020-08-04T08:38:41.888Z</time>
      </trkpt>
      <trkpt lat="38.961220" lon="-1.441262">
        <ele>1049.601017</ele>
        <time>2020-08-04T08:38:46.898Z</time>
      </trkpt>
      <trkpt lat="38.961289" lon="-1.441361">
        <ele>1049.977756</ele>
        <time>2020-08-04T08:38:51.886Z</time>
      </trkpt>
      <trkpt lat="38.961358" lon="-1.441443">
        <ele>1050.320136</ele>
        <time>2020-08-04T08:38:56.910Z</time>
      </trkpt>
      <trkpt lat="38.961446" lon="-1.441483">
        <ele>1050.660277</ele>
        <time>2020-08-04T08:39:06.887Z</time>
      </trkpt>
      <trkpt lat="38.961518" lon="-1.441561">
        <ele>1051.003355</ele>
        <time>2020-08-04T08:39:14.895Z</time>
      </trkpt>
      <trkpt lat="38.961586" lon="-1.441664">
        <ele>1051.386239</ele>
        <time>2020-08-04T08:39:19.872Z</time>
      </trkpt>
      <trkpt lat="38.961659" lon="-1.441753">
        <ele>1051.752816</ele>
        <time>2020-08-04T08:39:24.899Z</time>
      </trkpt>
      <trkpt lat="38.961734" lon="-1.441874">
        <ele>1052.191302</ele>
        <time>2020-08-04T08:39:28.895Z</time>
      </trkpt>
      <trkpt lat="38.961788" lon="-1.441985">
        <ele>1052.562331</ele>
        <time>2020-08-04T08:39:32.892Z</time>
      </trkpt>
      <trkpt lat="38.961858" lon="-1.442070">
        <ele>1052.913176</ele>
        <time>2020-08-04T08:39:37.895Z</time>
      </trkpt>
      <trkpt lat="38.961909" lon="-1.442175">
        <ele>1053.263993</ele>
        <time>2020-08-04T08:39:41.890Z</time>
      </trkpt>
      <trkpt lat="38.961985" lon="-1.442248">
        <ele>1053.609683</ele>
        <time>2020-08-04T08:39:45.898Z</time>
      </trkpt>
      <trkpt lat="38.962075" lon="-1.442302">
        <ele>1053.971609</ele>
        <time>2020-08-04T08:39:49.874Z</time>
      </trkpt>
      <trkpt lat="38.962101" lon="-1.442420">
        <ele>1054.319149</ele>
        <time>2020-08-04T08:39:55.896Z</time>
      </trkpt>
      <trkpt lat="38.961997" lon="-1.442410">
        <ele>1054.699215</ele>
        <time>2020-08-04T08:39:59.905Z</time>
      </trkpt>
      <trkpt lat="38.961903" lon="-1.442354">
        <ele>1055.076750</ele>
        <time>2020-08-04T08:40:03.891Z</time>
      </trkpt>
      <trkpt lat="38.961836" lon="-1.442267">
        <ele>1055.423731</ele>
        <time>2020-08-04T08:40:07.890Z</time>
      </trkpt>
      <trkpt lat="38.961770" lon="-1.442167">
        <ele>1055.428087</ele>
        <time>2020-08-04T08:40:12.887Z</time>
      </trkpt>
      <trkpt lat="38.961713" lon="-1.442077">
        <ele>1055.428087</ele>
        <time>2020-08-04T08:40:16.881Z</time>
      </trkpt>
      <trkpt lat="38.961604" lon="-1.441873">
        <ele>1055.428087</ele>
        <time>2020-08-04T08:40:23.895Z</time>
      </trkpt>
      <trkpt lat="38.961470" lon="-1.441793">
        <ele>1055.428087</ele>
        <time>2020-08-04T08:40:29.890Z</time>
      </trkpt>
      <trkpt lat="38.961356" lon="-1.441633">
        <ele>1055.428087</ele>
        <time>2020-08-04T08:40:35.896Z</time>
      </trkpt>
      <trkpt lat="38.961283" lon="-1.441464">
        <ele>1055.428087</ele>
        <time>2020-08-04T08:40:41.896Z</time>
      </trkpt>
      <trkpt lat="38.961156" lon="-1.441318">
        <ele>1055.428087</ele>
        <time>2020-08-04T08:40:47.891Z</time>
      </trkpt>
      <trkpt lat="38.961088" lon="-1.441220">
        <ele>1055.428087</ele>
        <time>2020-08-04T08:40:58.865Z</time>
      </trkpt>
      <trkpt lat="38.961043" lon="-1.441163">
        <ele>1055.428087</ele>
        <time>2020-08-04T08:41:34.795Z</time>
      </trkpt>
      <trkpt lat="38.963341" lon="-1.444228">
        <ele>1074.175693</ele>
        <time>2020-08-05T05:16:49.721Z</time>
      </trkpt>
      <trkpt lat="38.963437" lon="-1.444295">
        <ele>1074.175693</ele>
        <time>2020-08-05T05:20:12.557Z</time>
      </trkpt>
      <trkpt lat="38.963341" lon="-1.444121">
        <ele>1074.175693</ele>
        <time>2020-08-05T05:34:43.642Z</time>
      </trkpt>
      <trkpt lat="38.963289" lon="-1.443991">
        <ele>1074.175693</ele>
        <time>2020-08-05T05:34:45.639Z</time>
      </trkpt>
      <trkpt lat="38.963176" lon="-1.443887">
        <ele>1074.175693</ele>
        <time>2020-08-05T05:34:47.638Z</time>
      </trkpt>
      <trkpt lat="38.963087" lon="-1.443774">
        <ele>1074.175693</ele>
        <time>2020-08-05T05:34:49.636Z</time>
      </trkpt>
      <trkpt lat="38.963012" lon="-1.443696">
        <ele>1074.175693</ele>
        <time>2020-08-05T05:34:51.657Z</time>
      </trkpt>
      <trkpt lat="38.962896" lon="-1.443647">
        <ele>1074.175693</ele>
        <time>2020-08-05T05:34:54.635Z</time>
      </trkpt>
      <trkpt lat="38.962801" lon="-1.443730">
        <ele>1074.038802</ele>
        <time>2020-08-05T05:34:57.646Z</time>
      </trkpt>
      <trkpt lat="38.962724" lon="-1.443828">
        <ele>1073.868119</ele>
        <time>2020-08-05T05:35:00.656Z</time>
      </trkpt>
      <trkpt lat="38.962667" lon="-1.443923">
        <ele>1073.721113</ele>
        <time>2020-08-05T05:35:03.646Z</time>
      </trkpt>
      <trkpt lat="38.962604" lon="-1.444023">
        <ele>1073.563438</ele>
        <time>2020-08-05T05:35:07.654Z</time>
      </trkpt>
      <trkpt lat="38.962448" lon="-1.444218">
        <ele>1073.220680</ele>
        <time>2020-08-05T05:35:52.664Z</time>
      </trkpt>
      <trkpt lat="38.962362" lon="-1.444337">
        <ele>1073.021647</ele>
        <time>2020-08-05T05:35:56.646Z</time>
      </trkpt>
      <trkpt lat="38.962284" lon="-1.444460">
        <ele>1072.827199</ele>
        <time>2020-08-05T05:35:59.650Z</time>
      </trkpt>
      <trkpt lat="38.962199" lon="-1.444585">
        <ele>1072.623762</ele>
        <time>2020-08-05T05:36:02.642Z</time>
      </trkpt>
      <trkpt lat="38.962103" lon="-1.444704">
        <ele>1072.413685</ele>
        <time>2020-08-05T05:36:05.660Z</time>
      </trkpt>
      <trkpt lat="38.962016" lon="-1.444830">
        <ele>1072.207244</ele>
        <time>2020-08-05T05:36:08.659Z</time>
      </trkpt>
      <trkpt lat="38.961942" lon="-1.444963">
        <ele>1072.006887</ele>
        <time>2020-08-05T05:36:11.660Z</time>
      </trkpt>
      <trkpt lat="38.961864" lon="-1.445086">
        <ele>1071.812438</ele>
        <time>2020-08-05T05:36:14.642Z</time>
      </trkpt>
      <trkpt lat="38.961761" lon="-1.445200">
        <ele>1071.598331</ele>
        <time>2020-08-05T05:36:17.661Z</time>
      </trkpt>
      <trkpt lat="38.961694" lon="-1.445284">
        <ele>1071.450906</ele>
        <time>2020-08-05T05:36:19.651Z</time>
      </trkpt>
      <trkpt lat="38.961641" lon="-1.445394">
        <ele>1071.284038</ele>
        <time>2020-08-05T05:36:21.661Z</time>
      </trkpt>
      <trkpt lat="38.961587" lon="-1.445504">
        <ele>1071.097803</ele>
        <time>2020-08-05T05:36:23.632Z</time>
      </trkpt>
      <trkpt lat="38.961518" lon="-1.445618">
        <ele>1070.890984</ele>
        <time>2020-08-05T05:36:25.663Z</time>
      </trkpt>
      <trkpt lat="38.961463" lon="-1.445734">
        <ele>1070.696479</ele>
        <time>2020-08-05T05:36:27.647Z</time>
      </trkpt>
      <trkpt lat="38.961404" lon="-1.445862">
        <ele>1070.483455</ele>
        <time>2020-08-05T05:36:29.646Z</time>
      </trkpt>
      <trkpt lat="38.961355" lon="-1.445992">
        <ele>1070.276633</ele>
        <time>2020-08-05T05:36:31.655Z</time>
      </trkpt>
      <trkpt lat="38.961308" lon="-1.446121">
        <ele>1070.072686</ele>
        <time>2020-08-05T05:36:33.656Z</time>
      </trkpt>
      <trkpt lat="38.961264" lon="-1.446258">
        <ele>1069.860484</ele>
        <time>2020-08-05T05:36:35.642Z</time>
      </trkpt>
      <trkpt lat="38.961223" lon="-1.446403">
        <ele>1069.639600</ele>
        <time>2020-08-05T05:36:37.637Z</time>
      </trkpt>
      <trkpt lat="38.961180" lon="-1.446542">
        <ele>1069.425436</ele>
        <time>2020-08-05T05:36:39.642Z</time>
      </trkpt>
      <trkpt lat="38.961126" lon="-1.446680">
        <ele>1069.204267</ele>
        <time>2020-08-05T05:36:41.661Z</time>
      </trkpt>
      <trkpt lat="38.961087" lon="-1.446825">
        <ele>1068.984614</ele>
        <time>2020-08-05T05:36:43.661Z</time>
      </trkpt>
      <trkpt lat="38.961045" lon="-1.446969">
        <ele>1068.764435</ele>
        <time>2020-08-05T05:36:45.654Z</time>
      </trkpt>
      <trkpt lat="38.961006" lon="-1.447124">
        <ele>1068.531206</ele>
        <time>2020-08-05T05:36:47.647Z</time>
      </trkpt>
      <trkpt lat="38.960988" lon="-1.447290">
        <ele>1068.291258</ele>
        <time>2020-08-05T05:36:49.641Z</time>
      </trkpt>
      <trkpt lat="38.960979" lon="-1.447468">
        <ele>1068.035891</ele>
        <time>2020-08-05T05:36:51.640Z</time>
      </trkpt>
      <trkpt lat="38.960928" lon="-1.447627">
        <ele>1067.743253</ele>
        <time>2020-08-05T05:36:53.643Z</time>
      </trkpt>
      <trkpt lat="38.960816" lon="-1.447721">
        <ele>1067.449526</ele>
        <time>2020-08-05T05:36:55.654Z</time>
      </trkpt>
      <trkpt lat="38.960694" lon="-1.447812">
        <ele>1067.139778</ele>
        <time>2020-08-05T05:36:57.638Z</time>
      </trkpt>
      <trkpt lat="38.960577" lon="-1.447928">
        <ele>1066.815320</ele>
        <time>2020-08-05T05:36:59.644Z</time>
      </trkpt>
      <trkpt lat="38.960470" lon="-1.448073">
        <ele>1066.473937</ele>
        <time>2020-08-05T05:37:01.645Z</time>
      </trkpt>
      <trkpt lat="38.960361" lon="-1.448222">
        <ele>1066.124572</ele>
        <time>2020-08-05T05:37:03.656Z</time>
      </trkpt>
      <trkpt lat="38.960260" lon="-1.448370">
        <ele>1065.788288</ele>
        <time>2020-08-05T05:37:05.651Z</time>
      </trkpt>
      <trkpt lat="38.960148" lon="-1.448519">
        <ele>1065.434375</ele>
        <time>2020-08-05T05:37:07.655Z</time>
      </trkpt>
      <trkpt lat="38.960020" lon="-1.448656">
        <ele>1065.068633</ele>
        <time>2020-08-05T05:37:09.652Z</time>
      </trkpt>
      <trkpt lat="38.959873" lon="-1.448767">
        <ele>1064.694246</ele>
        <time>2020-08-05T05:37:11.645Z</time>
      </trkpt>
      <trkpt lat="38.959711" lon="-1.448827">
        <ele>1064.323993</ele>
        <time>2020-08-05T05:37:13.649Z</time>
      </trkpt>
      <trkpt lat="38.959537" lon="-1.448869">
        <ele>1063.831383</ele>
        <time>2020-08-05T05:37:15.654Z</time>
      </trkpt>
      <trkpt lat="38.959356" lon="-1.448898">
        <ele>1063.143669</ele>
        <time>2020-08-05T05:37:17.648Z</time>
      </trkpt>
      <trkpt lat="38.959265" lon="-1.448917">
        <ele>1062.796072</ele>
        <time>2020-08-05T05:37:18.649Z</time>
      </trkpt>
      <trkpt lat="38.959094" lon="-1.448944">
        <ele>1062.146495</ele>
        <time>2020-08-05T05:37:20.656Z</time>
      </trkpt>
      <trkpt lat="38.958931" lon="-1.448974">
        <ele>1061.525662</ele>
        <time>2020-08-05T05:37:22.651Z</time>
      </trkpt>
      <trkpt lat="38.958763" lon="-1.448998">
        <ele>1060.888342</ele>
        <time>2020-08-05T05:37:24.644Z</time>
      </trkpt>
      <trkpt lat="38.958591" lon="-1.449023">
        <ele>1060.235707</ele>
        <time>2020-08-05T05:37:26.654Z</time>
      </trkpt>
      <trkpt lat="38.958435" lon="-1.449044">
        <ele>1059.644314</ele>
        <time>2020-08-05T05:37:28.645Z</time>
      </trkpt>
      <trkpt lat="38.958281" lon="-1.449070">
        <ele>1059.058694</ele>
        <time>2020-08-05T05:37:30.639Z</time>
      </trkpt>
      <trkpt lat="38.958122" lon="-1.449094">
        <ele>1058.455088</ele>
        <time>2020-08-05T05:37:32.655Z</time>
      </trkpt>
      <trkpt lat="38.957964" lon="-1.449130">
        <ele>1057.850090</ele>
        <time>2020-08-05T05:37:34.638Z</time>
      </trkpt>
      <trkpt lat="38.957819" lon="-1.449171">
        <ele>1057.292587</ele>
        <time>2020-08-05T05:37:36.637Z</time>
      </trkpt>
      <trkpt lat="38.957665" lon="-1.449206">
        <ele>1056.867779</ele>
        <time>2020-08-05T05:37:38.637Z</time>
      </trkpt>
      <trkpt lat="38.957520" lon="-1.449246">
        <ele>1056.464942</ele>
        <time>2020-08-05T05:37:40.640Z</time>
      </trkpt>
      <trkpt lat="38.957366" lon="-1.449284">
        <ele>1056.038986</ele>
        <time>2020-08-05T05:37:42.643Z</time>
      </trkpt>
      <trkpt lat="38.957217" lon="-1.449350">
        <ele>1055.610906</ele>
        <time>2020-08-05T05:37:44.643Z</time>
      </trkpt>
      <trkpt lat="38.957066" lon="-1.449416">
        <ele>1055.177686</ele>
        <time>2020-08-05T05:37:46.647Z</time>
      </trkpt>
      <trkpt lat="38.956980" lon="-1.449452">
        <ele>1054.932011</ele>
        <time>2020-08-05T05:37:47.640Z</time>
      </trkpt>
      <trkpt lat="38.956820" lon="-1.449545">
        <ele>1054.455054</ele>
        <time>2020-08-05T05:37:49.642Z</time>
      </trkpt>
      <trkpt lat="38.956734" lon="-1.449592">
        <ele>1054.201223</ele>
        <time>2020-08-05T05:37:50.643Z</time>
      </trkpt>
      <trkpt lat="38.956575" lon="-1.449707">
        <ele>1053.705691</ele>
        <time>2020-08-05T05:37:52.634Z</time>
      </trkpt>
      <trkpt lat="38.956494" lon="-1.449772">
        <ele>1053.446338</ele>
        <time>2020-08-05T05:37:53.633Z</time>
      </trkpt>
      <trkpt lat="38.956335" lon="-1.449887">
        <ele>1052.950805</ele>
        <time>2020-08-05T05:37:55.653Z</time>
      </trkpt>
      <trkpt lat="38.956247" lon="-1.449950">
        <ele>1052.677216</ele>
        <time>2020-08-05T05:37:56.638Z</time>
      </trkpt>
      <trkpt lat="38.956164" lon="-1.450011">
        <ele>1052.417533</ele>
        <time>2020-08-05T05:37:57.647Z</time>
      </trkpt>
      <trkpt lat="38.956086" lon="-1.450088">
        <ele>1052.795083</ele>
        <time>2020-08-05T05:37:58.659Z</time>
      </trkpt>
      <trkpt lat="38.956002" lon="-1.450163">
        <ele>1053.200357</ele>
        <time>2020-08-05T05:37:59.639Z</time>
      </trkpt>
      <trkpt lat="38.955917" lon="-1.450241">
        <ele>1053.614194</ele>
        <time>2020-08-05T05:38:00.645Z</time>
      </trkpt>
      <trkpt lat="38.955833" lon="-1.450304">
        <ele>1053.999576</ele>
        <time>2020-08-05T05:38:01.641Z</time>
      </trkpt>
      <trkpt lat="38.955737" lon="-1.450380">
        <ele>1054.446350</ele>
        <time>2020-08-05T05:38:02.645Z</time>
      </trkpt>
      <trkpt lat="38.955649" lon="-1.450454">
        <ele>1054.863049</ele>
        <time>2020-08-05T05:38:03.644Z</time>
      </trkpt>
      <trkpt lat="38.955556" lon="-1.450531">
        <ele>1055.301404</ele>
        <time>2020-08-05T05:38:04.647Z</time>
      </trkpt>
      <trkpt lat="38.955469" lon="-1.450608">
        <ele>1055.719964</ele>
        <time>2020-08-05T05:38:05.644Z</time>
      </trkpt>
      <trkpt lat="38.955382" lon="-1.450682">
        <ele>1056.133353</ele>
        <time>2020-08-05T05:38:06.647Z</time>
      </trkpt>
      <trkpt lat="38.955303" lon="-1.450760">
        <ele>1056.528077</ele>
        <time>2020-08-05T05:38:07.636Z</time>
      </trkpt>
      <trkpt lat="38.955213" lon="-1.450839">
        <ele>1056.959930</ele>
        <time>2020-08-05T05:38:08.645Z</time>
      </trkpt>
      <trkpt lat="38.955132" lon="-1.450921">
        <ele>1057.368478</ele>
        <time>2020-08-05T05:38:09.644Z</time>
      </trkpt>
      <trkpt lat="38.955043" lon="-1.450997">
        <ele>1057.791880</ele>
        <time>2020-08-05T05:38:10.652Z</time>
      </trkpt>
      <trkpt lat="38.954964" lon="-1.451090">
        <ele>1058.216344</ele>
        <time>2020-08-05T05:38:11.652Z</time>
      </trkpt>
      <trkpt lat="38.954887" lon="-1.451176">
        <ele>1058.620533</ele>
        <time>2020-08-05T05:38:12.647Z</time>
      </trkpt>
      <trkpt lat="38.954812" lon="-1.451266">
        <ele>1059.027080</ele>
        <time>2020-08-05T05:38:13.646Z</time>
      </trkpt>
      <trkpt lat="38.954724" lon="-1.451352">
        <ele>1059.465117</ele>
        <time>2020-08-05T05:38:14.643Z</time>
      </trkpt>
      <trkpt lat="38.954641" lon="-1.451440">
        <ele>1059.611556</ele>
        <time>2020-08-05T05:38:15.643Z</time>
      </trkpt>
      <trkpt lat="38.954564" lon="-1.451529">
        <ele>1059.694350</ele>
        <time>2020-08-05T05:38:16.634Z</time>
      </trkpt>
      <trkpt lat="38.954479" lon="-1.451615">
        <ele>1059.780840</ele>
        <time>2020-08-05T05:38:17.648Z</time>
      </trkpt>
      <trkpt lat="38.954412" lon="-1.451698">
        <ele>1059.855237</ele>
        <time>2020-08-05T05:38:18.649Z</time>
      </trkpt>
      <trkpt lat="38.954342" lon="-1.451775">
        <ele>1059.928901</ele>
        <time>2020-08-05T05:38:19.647Z</time>
      </trkpt>
      <trkpt lat="38.954259" lon="-1.451855">
        <ele>1060.011851</ele>
        <time>2020-08-05T05:38:20.646Z</time>
      </trkpt>
      <trkpt lat="38.954184" lon="-1.451952">
        <ele>1060.096915</ele>
        <time>2020-08-05T05:38:21.642Z</time>
      </trkpt>
      <trkpt lat="38.954104" lon="-1.452040">
        <ele>1060.181103</ele>
        <time>2020-08-05T05:38:22.642Z</time>
      </trkpt>
      <trkpt lat="38.954027" lon="-1.452133">
        <ele>1060.265580</ele>
        <time>2020-08-05T05:38:23.655Z</time>
      </trkpt>
      <trkpt lat="38.953956" lon="-1.452224">
        <ele>1060.345744</ele>
        <time>2020-08-05T05:38:24.648Z</time>
      </trkpt>
      <trkpt lat="38.953879" lon="-1.452304">
        <ele>1060.424906</ele>
        <time>2020-08-05T05:38:25.632Z</time>
      </trkpt>
      <trkpt lat="38.953827" lon="-1.452409">
        <ele>1060.502320</ele>
        <time>2020-08-05T05:38:26.645Z</time>
      </trkpt>
      <trkpt lat="38.953760" lon="-1.452508">
        <ele>1060.583936</ele>
        <time>2020-08-05T05:38:27.649Z</time>
      </trkpt>
      <trkpt lat="38.953699" lon="-1.452601">
        <ele>1060.659596</ele>
        <time>2020-08-05T05:38:28.650Z</time>
      </trkpt>
      <trkpt lat="38.953622" lon="-1.452669">
        <ele>1060.734294</ele>
        <time>2020-08-05T05:38:29.674Z</time>
      </trkpt>
      <trkpt lat="38.953547" lon="-1.452757">
        <ele>1060.815486</ele>
        <time>2020-08-05T05:38:30.646Z</time>
      </trkpt>
      <trkpt lat="38.953469" lon="-1.452843">
        <ele>1060.897650</ele>
        <time>2020-08-05T05:38:31.638Z</time>
      </trkpt>
      <trkpt lat="38.953392" lon="-1.452919">
        <ele>1060.975274</ele>
        <time>2020-08-05T05:38:32.654Z</time>
      </trkpt>
      <trkpt lat="38.953320" lon="-1.453000">
        <ele>1061.045654</ele>
        <time>2020-08-05T05:38:33.659Z</time>
      </trkpt>
      <trkpt lat="38.953245" lon="-1.453079">
        <ele>1061.116648</ele>
        <time>2020-08-05T05:38:34.656Z</time>
      </trkpt>
      <trkpt lat="38.953154" lon="-1.453156">
        <ele>1061.196418</ele>
        <time>2020-08-05T05:38:35.645Z</time>
      </trkpt>
      <trkpt lat="38.953053" lon="-1.453206">
        <ele>1061.275670</ele>
        <time>2020-08-05T05:38:36.652Z</time>
      </trkpt>
      <trkpt lat="38.952968" lon="-1.453273">
        <ele>1061.348677</ele>
        <time>2020-08-05T05:38:37.649Z</time>
      </trkpt>
      <trkpt lat="38.952873" lon="-1.453351">
        <ele>1061.431214</ele>
        <time>2020-08-05T05:38:38.649Z</time>
      </trkpt>
      <trkpt lat="38.952778" lon="-1.453427">
        <ele>1061.513145</ele>
        <time>2020-08-05T05:38:39.659Z</time>
      </trkpt>
      <trkpt lat="38.952695" lon="-1.453510">
        <ele>1061.590139</ele>
        <time>2020-08-05T05:38:40.653Z</time>
      </trkpt>
      <trkpt lat="38.952587" lon="-1.453580">
        <ele>1061.678703</ele>
        <time>2020-08-05T05:38:41.648Z</time>
      </trkpt>
      <trkpt lat="38.952485" lon="-1.453640">
        <ele>1061.760840</ele>
        <time>2020-08-05T05:38:42.648Z</time>
      </trkpt>
      <trkpt lat="38.952375" lon="-1.453701">
        <ele>1061.848562</ele>
        <time>2020-08-05T05:38:43.656Z</time>
      </trkpt>
      <trkpt lat="38.952266" lon="-1.453756">
        <ele>1061.934305</ele>
        <time>2020-08-05T05:38:44.645Z</time>
      </trkpt>
      <trkpt lat="38.952155" lon="-1.453811">
        <ele>1062.021414</ele>
        <time>2020-08-05T05:38:45.641Z</time>
      </trkpt>
      <trkpt lat="38.952060" lon="-1.453885">
        <ele>1062.102748</ele>
        <time>2020-08-05T05:38:46.644Z</time>
      </trkpt>
      <trkpt lat="38.951958" lon="-1.453948">
        <ele>1062.185610</ele>
        <time>2020-08-05T05:38:47.657Z</time>
      </trkpt>
      <trkpt lat="38.951856" lon="-1.454014">
        <ele>1062.269226</ele>
        <time>2020-08-05T05:38:48.640Z</time>
      </trkpt>
      <trkpt lat="38.951751" lon="-1.454083">
        <ele>1061.920668</ele>
        <time>2020-08-05T05:38:49.643Z</time>
      </trkpt>
      <trkpt lat="38.951646" lon="-1.454143">
        <ele>1061.387866</ele>
        <time>2020-08-05T05:38:50.655Z</time>
      </trkpt>
      <trkpt lat="38.951557" lon="-1.454218">
        <ele>1060.894441</ele>
        <time>2020-08-05T05:38:51.649Z</time>
      </trkpt>
      <trkpt lat="38.951467" lon="-1.454288">
        <ele>1060.406702</ele>
        <time>2020-08-05T05:38:52.652Z</time>
      </trkpt>
      <trkpt lat="38.951365" lon="-1.454360">
        <ele>1059.867142</ele>
        <time>2020-08-05T05:38:53.651Z</time>
      </trkpt>
      <trkpt lat="38.951284" lon="-1.454438">
        <ele>1059.397893</ele>
        <time>2020-08-05T05:38:54.650Z</time>
      </trkpt>
      <trkpt lat="38.951186" lon="-1.454493">
        <ele>1058.902064</ele>
        <time>2020-08-05T05:38:55.655Z</time>
      </trkpt>
      <trkpt lat="38.951107" lon="-1.454559">
        <ele>1058.465208</ele>
        <time>2020-08-05T05:38:56.652Z</time>
      </trkpt>
      <trkpt lat="38.951021" lon="-1.454613">
        <ele>1058.021415</ele>
        <time>2020-08-05T05:38:57.637Z</time>
      </trkpt>
      <trkpt lat="38.950938" lon="-1.454669">
        <ele>1057.586776</ele>
        <time>2020-08-05T05:38:58.641Z</time>
      </trkpt>
      <trkpt lat="38.950854" lon="-1.454721">
        <ele>1057.154475</ele>
        <time>2020-08-05T05:38:59.649Z</time>
      </trkpt>
      <trkpt lat="38.950695" lon="-1.454824">
        <ele>1056.328905</ele>
        <time>2020-08-05T05:39:01.641Z</time>
      </trkpt>
      <trkpt lat="38.950596" lon="-1.454942">
        <ele>1055.702950</ele>
        <time>2020-08-05T05:39:03.654Z</time>
      </trkpt>
      <trkpt lat="38.950466" lon="-1.455011">
        <ele>1055.050797</ele>
        <time>2020-08-05T05:39:05.637Z</time>
      </trkpt>
      <trkpt lat="38.950357" lon="-1.455082">
        <ele>1054.484206</ele>
        <time>2020-08-05T05:39:07.656Z</time>
      </trkpt>
      <trkpt lat="38.950258" lon="-1.455150">
        <ele>1053.963747</ele>
        <time>2020-08-05T05:39:09.650Z</time>
      </trkpt>
      <trkpt lat="38.950185" lon="-1.455219">
        <ele>1053.575983</ele>
        <time>2020-08-05T05:39:11.636Z</time>
      </trkpt>
      <trkpt lat="38.950078" lon="-1.455283">
        <ele>1053.071718</ele>
        <time>2020-08-05T05:39:14.648Z</time>
      </trkpt>
      <trkpt lat="38.949993" lon="-1.455357">
        <ele>1052.633088</ele>
        <time>2020-08-05T05:39:18.646Z</time>
      </trkpt>
      <trkpt lat="38.949901" lon="-1.455425">
        <ele>1052.179645</ele>
        <time>2020-08-05T05:39:23.648Z</time>
      </trkpt>
      <trkpt lat="38.949802" lon="-1.455502">
        <ele>1051.685241</ele>
        <time>2020-08-05T05:39:27.656Z</time>
      </trkpt>
      <trkpt lat="38.949722" lon="-1.455558">
        <ele>1051.296023</ele>
        <time>2020-08-05T05:39:30.642Z</time>
      </trkpt>
      <trkpt lat="38.949616" lon="-1.455635">
        <ele>1050.775794</ele>
        <time>2020-08-05T05:39:34.649Z</time>
      </trkpt>
      <trkpt lat="38.949487" lon="-1.455723">
        <ele>1050.151797</ele>
        <time>2020-08-05T05:39:39.658Z</time>
      </trkpt>
      <trkpt lat="38.949411" lon="-1.455787">
        <ele>1049.763597</ele>
        <time>2020-08-05T05:39:42.646Z</time>
      </trkpt>
      <trkpt lat="38.949318" lon="-1.455861">
        <ele>1049.296266</ele>
        <time>2020-08-05T05:39:46.658Z</time>
      </trkpt>
      <trkpt lat="38.949231" lon="-1.455946">
        <ele>1048.829368</ele>
        <time>2020-08-05T05:39:50.649Z</time>
      </trkpt>
      <trkpt lat="38.949138" lon="-1.456043">
        <ele>1048.317671</ele>
        <time>2020-08-05T05:39:54.656Z</time>
      </trkpt>
      <trkpt lat="38.949066" lon="-1.456119">
        <ele>1047.919621</ele>
        <time>2020-08-05T05:39:57.651Z</time>
      </trkpt>
      <trkpt lat="38.948993" lon="-1.456195">
        <ele>1047.518259</ele>
        <time>2020-08-05T05:40:00.654Z</time>
      </trkpt>
      <trkpt lat="38.948921" lon="-1.456273">
        <ele>1047.115959</ele>
        <time>2020-08-05T05:40:03.657Z</time>
      </trkpt>
      <trkpt lat="38.948854" lon="-1.456358">
        <ele>1046.713769</ele>
        <time>2020-08-05T05:40:06.647Z</time>
      </trkpt>
      <trkpt lat="38.948779" lon="-1.456449">
        <ele>1046.273132</ele>
        <time>2020-08-05T05:40:09.647Z</time>
      </trkpt>
      <trkpt lat="38.948695" lon="-1.456535">
        <ele>1046.575966</ele>
        <time>2020-08-05T05:40:12.662Z</time>
      </trkpt>
      <trkpt lat="38.948637" lon="-1.456646">
        <ele>1046.874194</ele>
        <time>2020-08-05T05:40:15.662Z</time>
      </trkpt>
      <trkpt lat="38.948646" lon="-1.456778">
        <ele>1047.169701</ele>
        <time>2020-08-05T05:40:18.644Z</time>
      </trkpt>
      <trkpt lat="38.948641" lon="-1.456921">
        <ele>1047.488932</ele>
        <time>2020-08-05T05:40:22.648Z</time>
      </trkpt>
      <trkpt lat="38.948608" lon="-1.457054">
        <ele>1047.800269</ele>
        <time>2020-08-05T05:40:25.662Z</time>
      </trkpt>
      <trkpt lat="38.948577" lon="-1.457169">
        <ele>1048.071703</ele>
        <time>2020-08-05T05:40:27.639Z</time>
      </trkpt>
      <trkpt lat="38.948544" lon="-1.457295">
        <ele>1048.368206</ele>
        <time>2020-08-05T05:40:29.638Z</time>
      </trkpt>
      <trkpt lat="38.948498" lon="-1.457423">
        <ele>1048.682666</ele>
        <time>2020-08-05T05:40:31.639Z</time>
      </trkpt>
      <trkpt lat="38.948457" lon="-1.457549">
        <ele>1048.987268</ele>
        <time>2020-08-05T05:40:33.644Z</time>
      </trkpt>
      <trkpt lat="38.948412" lon="-1.457680">
        <ele>1049.306645</ele>
        <time>2020-08-05T05:40:35.643Z</time>
      </trkpt>
      <trkpt lat="38.948378" lon="-1.457793">
        <ele>1049.576853</ele>
        <time>2020-08-05T05:40:37.643Z</time>
      </trkpt>
      <trkpt lat="38.948316" lon="-1.457925">
        <ele>1049.920754</ele>
        <time>2020-08-05T05:40:39.641Z</time>
      </trkpt>
      <trkpt lat="38.948258" lon="-1.458065">
        <ele>1050.274510</ele>
        <time>2020-08-05T05:40:41.649Z</time>
      </trkpt>
      <trkpt lat="38.948206" lon="-1.458207">
        <ele>1050.624540</ele>
        <time>2020-08-05T05:40:43.647Z</time>
      </trkpt>
      <trkpt lat="38.948140" lon="-1.458376">
        <ele>1051.046284</ele>
        <time>2020-08-05T05:40:45.644Z</time>
      </trkpt>
      <trkpt lat="38.948071" lon="-1.458524">
        <ele>1051.423173</ele>
        <time>2020-08-05T05:40:47.640Z</time>
      </trkpt>
      <trkpt lat="38.947991" lon="-1.458694">
        <ele>1050.797604</ele>
        <time>2020-08-05T05:40:49.647Z</time>
      </trkpt>
      <trkpt lat="38.947930" lon="-1.458866">
        <ele>1050.202446</ele>
        <time>2020-08-05T05:40:51.643Z</time>
      </trkpt>
      <trkpt lat="38.947849" lon="-1.459033">
        <ele>1049.582805</ele>
        <time>2020-08-05T05:40:53.649Z</time>
      </trkpt>
      <trkpt lat="38.947767" lon="-1.459199">
        <ele>1048.963672</ele>
        <time>2020-08-05T05:40:55.647Z</time>
      </trkpt>
      <trkpt lat="38.947690" lon="-1.459345">
        <ele>1048.408292</ele>
        <time>2020-08-05T05:40:57.642Z</time>
      </trkpt>
      <trkpt lat="38.947597" lon="-1.459506">
        <ele>1047.776891</ele>
        <time>2020-08-05T05:40:59.655Z</time>
      </trkpt>
      <trkpt lat="38.947511" lon="-1.459645">
        <ele>1047.217683</ele>
        <time>2020-08-05T05:41:01.647Z</time>
      </trkpt>
      <trkpt lat="38.947425" lon="-1.459792">
        <ele>1046.638551</ele>
        <time>2020-08-05T05:41:03.636Z</time>
      </trkpt>
      <trkpt lat="38.947345" lon="-1.459941">
        <ele>1046.068516</ele>
        <time>2020-08-05T05:41:05.645Z</time>
      </trkpt>
      <trkpt lat="38.947249" lon="-1.460066">
        <ele>1045.515429</ele>
        <time>2020-08-05T05:41:07.648Z</time>
      </trkpt>
      <trkpt lat="38.947136" lon="-1.460172">
        <ele>1044.949190</ele>
        <time>2020-08-05T05:41:09.657Z</time>
      </trkpt>
      <trkpt lat="38.947022" lon="-1.460290">
        <ele>1044.356744</ele>
        <time>2020-08-05T05:41:11.654Z</time>
      </trkpt>
      <trkpt lat="38.946932" lon="-1.460419">
        <ele>1043.999201</ele>
        <time>2020-08-05T05:41:13.647Z</time>
      </trkpt>
      <trkpt lat="38.946831" lon="-1.460538">
        <ele>1043.755519</ele>
        <time>2020-08-05T05:41:15.644Z</time>
      </trkpt>
      <trkpt lat="38.946727" lon="-1.460660">
        <ele>1043.505098</ele>
        <time>2020-08-05T05:41:17.650Z</time>
      </trkpt>
      <trkpt lat="38.946639" lon="-1.460798">
        <ele>1043.258213</ele>
        <time>2020-08-05T05:41:19.647Z</time>
      </trkpt>
      <trkpt lat="38.946556" lon="-1.460943">
        <ele>1043.009137</ele>
        <time>2020-08-05T05:41:21.660Z</time>
      </trkpt>
      <trkpt lat="38.946503" lon="-1.461119">
        <ele>1042.748036</ele>
        <time>2020-08-05T05:41:23.650Z</time>
      </trkpt>
      <trkpt lat="38.946479" lon="-1.461289">
        <ele>1042.509006</ele>
        <time>2020-08-05T05:41:25.665Z</time>
      </trkpt>
      <trkpt lat="38.946468" lon="-1.461449">
        <ele>1042.286791</ele>
        <time>2020-08-05T05:41:27.634Z</time>
      </trkpt>
      <trkpt lat="38.946465" lon="-1.461632">
        <ele>1042.033563</ele>
        <time>2020-08-05T05:41:29.637Z</time>
      </trkpt>
      <trkpt lat="38.946464" lon="-1.461806">
        <ele>1041.792837</ele>
        <time>2020-08-05T05:41:31.637Z</time>
      </trkpt>
      <trkpt lat="38.946454" lon="-1.461977">
        <ele>1041.555599</ele>
        <time>2020-08-05T05:41:33.633Z</time>
      </trkpt>
      <trkpt lat="38.946424" lon="-1.462145">
        <ele>1041.317132</ele>
        <time>2020-08-05T05:41:35.656Z</time>
      </trkpt>
      <trkpt lat="38.946392" lon="-1.462333">
        <ele>1041.050887</ele>
        <time>2020-08-05T05:41:37.654Z</time>
      </trkpt>
      <trkpt lat="38.946359" lon="-1.462505">
        <ele>1040.780643</ele>
        <time>2020-08-05T05:41:39.647Z</time>
      </trkpt>
      <trkpt lat="38.946315" lon="-1.462679">
        <ele>1040.482468</ele>
        <time>2020-08-05T05:41:41.659Z</time>
      </trkpt>
      <trkpt lat="38.946284" lon="-1.462849">
        <ele>1040.197911</ele>
        <time>2020-08-05T05:41:43.660Z</time>
      </trkpt>
      <trkpt lat="38.946247" lon="-1.463023">
        <ele>1039.903940</ele>
        <time>2020-08-05T05:41:45.658Z</time>
      </trkpt>
      <trkpt lat="38.946207" lon="-1.463191">
        <ele>1039.617613</ele>
        <time>2020-08-05T05:41:47.644Z</time>
      </trkpt>
      <trkpt lat="38.946174" lon="-1.463365">
        <ele>1039.325741</ele>
        <time>2020-08-05T05:41:49.657Z</time>
      </trkpt>
      <trkpt lat="38.946141" lon="-1.463539">
        <ele>1039.033868</ele>
        <time>2020-08-05T05:41:51.654Z</time>
      </trkpt>
      <trkpt lat="38.946113" lon="-1.463713">
        <ele>1038.744299</ele>
        <time>2020-08-05T05:41:53.652Z</time>
      </trkpt>
      <trkpt lat="38.946073" lon="-1.463886">
        <ele>1038.450170</ele>
        <time>2020-08-05T05:41:55.650Z</time>
      </trkpt>
      <trkpt lat="38.946036" lon="-1.464064">
        <ele>1038.149905</ele>
        <time>2020-08-05T05:41:57.642Z</time>
      </trkpt>
      <trkpt lat="38.946002" lon="-1.464252">
        <ele>1037.835352</ele>
        <time>2020-08-05T05:41:59.636Z</time>
      </trkpt>
      <trkpt lat="38.945969" lon="-1.464452">
        <ele>1037.502162</ele>
        <time>2020-08-05T05:42:01.638Z</time>
      </trkpt>
      <trkpt lat="38.945937" lon="-1.464622">
        <ele>1037.217118</ele>
        <time>2020-08-05T05:42:03.638Z</time>
      </trkpt>
      <trkpt lat="38.945903" lon="-1.464787">
        <ele>1037.058066</ele>
        <time>2020-08-05T05:42:05.640Z</time>
      </trkpt>
      <trkpt lat="38.945881" lon="-1.464952">
        <ele>1036.921042</ele>
        <time>2020-08-05T05:42:07.631Z</time>
      </trkpt>
      <trkpt lat="38.945845" lon="-1.465136">
        <ele>1036.765745</ele>
        <time>2020-08-05T05:42:09.638Z</time>
      </trkpt>
      <trkpt lat="38.945810" lon="-1.465297">
        <ele>1036.628914</ele>
        <time>2020-08-05T05:42:11.643Z</time>
      </trkpt>
      <trkpt lat="38.945777" lon="-1.465468">
        <ele>1036.484705</ele>
        <time>2020-08-05T05:42:13.653Z</time>
      </trkpt>
      <trkpt lat="38.945722" lon="-1.465626">
        <ele>1036.343018</ele>
        <time>2020-08-05T05:42:15.647Z</time>
      </trkpt>
      <trkpt lat="38.945666" lon="-1.465800">
        <ele>1036.188885</ele>
        <time>2020-08-05T05:42:17.640Z</time>
      </trkpt>
      <trkpt lat="38.945607" lon="-1.465951">
        <ele>1036.050569</ele>
        <time>2020-08-05T05:42:19.657Z</time>
      </trkpt>
      <trkpt lat="38.945552" lon="-1.466125">
        <ele>1035.896835</ele>
        <time>2020-08-05T05:42:21.637Z</time>
      </trkpt>
      <trkpt lat="38.945500" lon="-1.466297">
        <ele>1035.745789</ele>
        <time>2020-08-05T05:42:23.639Z</time>
      </trkpt>
      <trkpt lat="38.945430" lon="-1.466498">
        <ele>1035.565528</ele>
        <time>2020-08-05T05:42:25.655Z</time>
      </trkpt>
      <trkpt lat="38.945394" lon="-1.466703">
        <ele>1035.393509</ele>
        <time>2020-08-05T05:42:27.637Z</time>
      </trkpt>
      <trkpt lat="38.945340" lon="-1.466891">
        <ele>1035.366887</ele>
        <time>2020-08-05T05:42:29.653Z</time>
      </trkpt>
      <trkpt lat="38.945295" lon="-1.467071">
        <ele>1035.592737</ele>
        <time>2020-08-05T05:42:31.648Z</time>
      </trkpt>
      <trkpt lat="38.945240" lon="-1.467254">
        <ele>1035.827089</ele>
        <time>2020-08-05T05:42:33.654Z</time>
      </trkpt>
      <trkpt lat="38.945188" lon="-1.467441">
        <ele>1036.064314</ele>
        <time>2020-08-05T05:42:35.641Z</time>
      </trkpt>
      <trkpt lat="38.945130" lon="-1.467614">
        <ele>1036.289350</ele>
        <time>2020-08-05T05:42:37.645Z</time>
      </trkpt>
      <trkpt lat="38.945073" lon="-1.467795">
        <ele>1036.522611</ele>
        <time>2020-08-05T05:42:39.650Z</time>
      </trkpt>
      <trkpt lat="38.945015" lon="-1.467980">
        <ele>1036.760878</ele>
        <time>2020-08-05T05:42:41.650Z</time>
      </trkpt>
      <trkpt lat="38.944959" lon="-1.468156">
        <ele>1036.988029</ele>
        <time>2020-08-05T05:42:43.647Z</time>
      </trkpt>
      <trkpt lat="38.944897" lon="-1.468314">
        <ele>1037.199427</ele>
        <time>2020-08-05T05:42:45.641Z</time>
      </trkpt>
      <trkpt lat="38.944838" lon="-1.468484">
        <ele>1037.421798</ele>
        <time>2020-08-05T05:42:47.659Z</time>
      </trkpt>
      <trkpt lat="38.944765" lon="-1.468657">
        <ele>1037.656908</ele>
        <time>2020-08-05T05:42:49.647Z</time>
      </trkpt>
      <trkpt lat="38.944698" lon="-1.468827">
        <ele>1037.884564</ele>
        <time>2020-08-05T05:42:51.640Z</time>
      </trkpt>
      <trkpt lat="38.944634" lon="-1.468995">
        <ele>1038.016626</ele>
        <time>2020-08-05T05:42:53.642Z</time>
      </trkpt>
      <trkpt lat="38.944587" lon="-1.469174">
        <ele>1037.899551</ele>
        <time>2020-08-05T05:42:55.653Z</time>
      </trkpt>
      <trkpt lat="38.944523" lon="-1.469326">
        <ele>1037.792441</ele>
        <time>2020-08-05T05:42:57.645Z</time>
      </trkpt>
      <trkpt lat="38.944469" lon="-1.469498">
        <ele>1037.677498</ele>
        <time>2020-08-05T05:42:59.651Z</time>
      </trkpt>
      <trkpt lat="38.944434" lon="-1.469685">
        <ele>1037.558308</ele>
        <time>2020-08-05T05:43:01.649Z</time>
      </trkpt>
      <trkpt lat="38.944387" lon="-1.469851">
        <ele>1037.448835</ele>
        <time>2020-08-05T05:43:03.645Z</time>
      </trkpt>
      <trkpt lat="38.944329" lon="-1.470001">
        <ele>1037.345028</ele>
        <time>2020-08-05T05:43:05.650Z</time>
      </trkpt>
      <trkpt lat="38.944289" lon="-1.470169">
        <ele>1037.236150</ele>
        <time>2020-08-05T05:43:07.651Z</time>
      </trkpt>
      <trkpt lat="38.944238" lon="-1.470343">
        <ele>1037.120921</ele>
        <time>2020-08-05T05:43:09.654Z</time>
      </trkpt>
      <trkpt lat="38.944191" lon="-1.470507">
        <ele>1037.012612</ele>
        <time>2020-08-05T05:43:11.645Z</time>
      </trkpt>
      <trkpt lat="38.944168" lon="-1.470683">
        <ele>1036.902017</ele>
        <time>2020-08-05T05:43:13.647Z</time>
      </trkpt>
      <trkpt lat="38.944125" lon="-1.470834">
        <ele>1036.802369</ele>
        <time>2020-08-05T05:43:15.660Z</time>
      </trkpt>
      <trkpt lat="38.944094" lon="-1.470994">
        <ele>1036.700188</ele>
        <time>2020-08-05T05:43:17.648Z</time>
      </trkpt>
      <trkpt lat="38.944056" lon="-1.471161">
        <ele>1036.640983</ele>
        <time>2020-08-05T05:43:19.657Z</time>
      </trkpt>
      <trkpt lat="38.944019" lon="-1.471322">
        <ele>1036.762915</ele>
        <time>2020-08-05T05:43:21.661Z</time>
      </trkpt>
      <trkpt lat="38.943981" lon="-1.471500">
        <ele>1036.896977</ele>
        <time>2020-08-05T05:43:23.657Z</time>
      </trkpt>
      <trkpt lat="38.943941" lon="-1.471653">
        <ele>1037.014211</ele>
        <time>2020-08-05T05:43:25.655Z</time>
      </trkpt>
      <trkpt lat="38.943898" lon="-1.471821">
        <ele>1037.142667</ele>
        <time>2020-08-05T05:43:27.657Z</time>
      </trkpt>
      <trkpt lat="38.943856" lon="-1.471975">
        <ele>1037.261194</ele>
        <time>2020-08-05T05:43:29.644Z</time>
      </trkpt>
      <trkpt lat="38.943807" lon="-1.472136">
        <ele>1037.386762</ele>
        <time>2020-08-05T05:43:31.646Z</time>
      </trkpt>
      <trkpt lat="38.943756" lon="-1.472311">
        <ele>1037.522494</ele>
        <time>2020-08-05T05:43:33.646Z</time>
      </trkpt>
      <trkpt lat="38.943722" lon="-1.472474">
        <ele>1037.645065</ele>
        <time>2020-08-05T05:43:35.663Z</time>
      </trkpt>
      <trkpt lat="38.943686" lon="-1.472624">
        <ele>1037.759079</ele>
        <time>2020-08-05T05:43:37.652Z</time>
      </trkpt>
      <trkpt lat="38.943650" lon="-1.472771">
        <ele>1037.871012</ele>
        <time>2020-08-05T05:43:39.644Z</time>
      </trkpt>
      <trkpt lat="38.943617" lon="-1.472932">
        <ele>1037.991939</ele>
        <time>2020-08-05T05:43:41.660Z</time>
      </trkpt>
      <trkpt lat="38.943582" lon="-1.473103">
        <ele>1038.120366</ele>
        <time>2020-08-05T05:43:43.650Z</time>
      </trkpt>
      <trkpt lat="38.943556" lon="-1.473279">
        <ele>1038.250480</ele>
        <time>2020-08-05T05:43:45.646Z</time>
      </trkpt>
      <trkpt lat="38.943532" lon="-1.473445">
        <ele>1038.241600</ele>
        <time>2020-08-05T05:43:47.662Z</time>
      </trkpt>
      <trkpt lat="38.943505" lon="-1.473622">
        <ele>1038.153788</ele>
        <time>2020-08-05T05:43:49.661Z</time>
      </trkpt>
      <trkpt lat="38.943466" lon="-1.473793">
        <ele>1038.067033</ele>
        <time>2020-08-05T05:43:51.645Z</time>
      </trkpt>
      <trkpt lat="38.943429" lon="-1.473962">
        <ele>1037.981559</ele>
        <time>2020-08-05T05:43:53.655Z</time>
      </trkpt>
      <trkpt lat="38.943387" lon="-1.474154">
        <ele>1037.884459</ele>
        <time>2020-08-05T05:43:55.646Z</time>
      </trkpt>
      <trkpt lat="38.943354" lon="-1.474314">
        <ele>1037.803872</ele>
        <time>2020-08-05T05:43:57.655Z</time>
      </trkpt>
      <trkpt lat="38.943333" lon="-1.474483">
        <ele>1037.720553</ele>
        <time>2020-08-05T05:43:59.655Z</time>
      </trkpt>
      <trkpt lat="38.943301" lon="-1.474642">
        <ele>1037.640596</ele>
        <time>2020-08-05T05:44:01.641Z</time>
      </trkpt>
      <trkpt lat="38.943273" lon="-1.474814">
        <ele>1037.555044</ele>
        <time>2020-08-05T05:44:03.639Z</time>
      </trkpt>
      <trkpt lat="38.943243" lon="-1.474991">
        <ele>1037.466851</ele>
        <time>2020-08-05T05:44:05.656Z</time>
      </trkpt>
      <trkpt lat="38.943215" lon="-1.475163">
        <ele>1037.381300</ele>
        <time>2020-08-05T05:44:07.644Z</time>
      </trkpt>
      <trkpt lat="38.943174" lon="-1.475337">
        <ele>1037.292787</ele>
        <time>2020-08-05T05:44:09.665Z</time>
      </trkpt>
      <trkpt lat="38.943145" lon="-1.475528">
        <ele>1037.198045</ele>
        <time>2020-08-05T05:44:11.656Z</time>
      </trkpt>
      <trkpt lat="38.943102" lon="-1.475682">
        <ele>1036.606023</ele>
        <time>2020-08-05T05:44:13.659Z</time>
      </trkpt>
      <trkpt lat="38.943069" lon="-1.475858">
        <ele>1035.617156</ele>
        <time>2020-08-05T05:44:15.659Z</time>
      </trkpt>
      <trkpt lat="38.943045" lon="-1.476040">
        <ele>1034.608869</ele>
        <time>2020-08-05T05:44:17.647Z</time>
      </trkpt>
      <trkpt lat="38.943015" lon="-1.476220">
        <ele>1033.603373</ele>
        <time>2020-08-05T05:44:19.640Z</time>
      </trkpt>
      <trkpt lat="38.942994" lon="-1.476383">
        <ele>1032.700921</ele>
        <time>2020-08-05T05:44:21.645Z</time>
      </trkpt>
      <trkpt lat="38.943007" lon="-1.476567">
        <ele>1031.691758</ele>
        <time>2020-08-05T05:44:23.646Z</time>
      </trkpt>
      <trkpt lat="38.943009" lon="-1.476748">
        <ele>1030.703020</ele>
        <time>2020-08-05T05:44:25.644Z</time>
      </trkpt>
      <trkpt lat="38.943012" lon="-1.476928">
        <ele>1029.719618</ele>
        <time>2020-08-05T05:44:27.644Z</time>
      </trkpt>
      <trkpt lat="38.943011" lon="-1.477118">
        <ele>1028.681797</ele>
        <time>2020-08-05T05:44:29.656Z</time>
      </trkpt>
      <trkpt lat="38.943017" lon="-1.477301">
        <ele>1027.681347</ele>
        <time>2020-08-05T05:44:31.684Z</time>
      </trkpt>
      <trkpt lat="38.943033" lon="-1.477487">
        <ele>1026.659204</ele>
        <time>2020-08-05T05:44:33.632Z</time>
      </trkpt>
      <trkpt lat="38.943031" lon="-1.477679">
        <ele>1025.610389</ele>
        <time>2020-08-05T05:44:35.652Z</time>
      </trkpt>
      <trkpt lat="38.943028" lon="-1.477867">
        <ele>1024.583300</ele>
        <time>2020-08-05T05:44:37.654Z</time>
      </trkpt>
      <trkpt lat="38.943029" lon="-1.478059">
        <ele>1023.313519</ele>
        <time>2020-08-05T05:44:39.662Z</time>
      </trkpt>
      <trkpt lat="38.943038" lon="-1.478262">
        <ele>1021.958058</ele>
        <time>2020-08-05T05:44:41.646Z</time>
      </trkpt>
      <trkpt lat="38.943069" lon="-1.478460">
        <ele>1020.611647</ele>
        <time>2020-08-05T05:44:43.655Z</time>
      </trkpt>
      <trkpt lat="38.943088" lon="-1.478655">
        <ele>1019.301553</ele>
        <time>2020-08-05T05:44:45.655Z</time>
      </trkpt>
      <trkpt lat="38.943117" lon="-1.478821">
        <ele>1018.167372</ele>
        <time>2020-08-05T05:44:47.648Z</time>
      </trkpt>
      <trkpt lat="38.943130" lon="-1.478992">
        <ele>1017.021999</ele>
        <time>2020-08-05T05:44:49.665Z</time>
      </trkpt>
      <trkpt lat="38.943139" lon="-1.479193">
        <ele>1015.679850</ele>
        <time>2020-08-05T05:44:51.645Z</time>
      </trkpt>
      <trkpt lat="38.943121" lon="-1.479383">
        <ele>1014.403888</ele>
        <time>2020-08-05T05:44:53.652Z</time>
      </trkpt>
      <trkpt lat="38.943118" lon="-1.479545">
        <ele>1013.323638</ele>
        <time>2020-08-05T05:44:55.646Z</time>
      </trkpt>
      <trkpt lat="38.943128" lon="-1.479727">
        <ele>1012.107344</ele>
        <time>2020-08-05T05:44:57.664Z</time>
      </trkpt>
      <trkpt lat="38.943131" lon="-1.479899">
        <ele>1010.960448</ele>
        <time>2020-08-05T05:44:59.670Z</time>
      </trkpt>
      <trkpt lat="38.943133" lon="-1.480079">
        <ele>1009.760389</ele>
        <time>2020-08-05T05:45:01.648Z</time>
      </trkpt>
      <trkpt lat="38.943134" lon="-1.480275">
        <ele>1009.038162</ele>
        <time>2020-08-05T05:45:03.653Z</time>
      </trkpt>
      <trkpt lat="38.943134" lon="-1.480466">
        <ele>1008.880381</ele>
        <time>2020-08-05T05:45:05.643Z</time>
      </trkpt>
      <trkpt lat="38.943128" lon="-1.480653">
        <ele>1008.725772</ele>
        <time>2020-08-05T05:45:07.652Z</time>
      </trkpt>
      <trkpt lat="38.943134" lon="-1.480840">
        <ele>1008.571163</ele>
        <time>2020-08-05T05:45:09.665Z</time>
      </trkpt>
      <trkpt lat="38.943140" lon="-1.481045">
        <ele>1008.401696</ele>
        <time>2020-08-05T05:45:11.649Z</time>
      </trkpt>
      <trkpt lat="38.943134" lon="-1.481235">
        <ele>1008.244611</ele>
        <time>2020-08-05T05:45:13.644Z</time>
      </trkpt>
      <trkpt lat="38.943133" lon="-1.481439">
        <ele>1008.076087</ele>
        <time>2020-08-05T05:45:15.672Z</time>
      </trkpt>
      <trkpt lat="38.943116" lon="-1.481631">
        <ele>1007.916454</ele>
        <time>2020-08-05T05:45:17.640Z</time>
      </trkpt>
      <trkpt lat="38.943094" lon="-1.481811">
        <ele>1007.765935</ele>
        <time>2020-08-05T05:45:19.642Z</time>
      </trkpt>
      <trkpt lat="38.943077" lon="-1.482013">
        <ele>1007.598092</ele>
        <time>2020-08-05T05:45:21.655Z</time>
      </trkpt>
      <trkpt lat="38.943059" lon="-1.482208">
        <ele>1007.435875</ele>
        <time>2020-08-05T05:45:23.653Z</time>
      </trkpt>
      <trkpt lat="38.943041" lon="-1.482323">
        <ele>1007.338971</ele>
        <time>2020-08-05T05:45:24.642Z</time>
      </trkpt>
      <trkpt lat="38.943010" lon="-1.482539">
        <ele>1006.934293</ele>
        <time>2020-08-05T05:45:26.651Z</time>
      </trkpt>
      <trkpt lat="38.942989" lon="-1.482766">
        <ele>1005.949017</ele>
        <time>2020-08-05T05:45:28.639Z</time>
      </trkpt>
      <trkpt lat="38.942952" lon="-1.482965">
        <ele>1005.067151</ele>
        <time>2020-08-05T05:45:30.633Z</time>
      </trkpt>
      <trkpt lat="38.942916" lon="-1.483153">
        <ele>1004.232666</ele>
        <time>2020-08-05T05:45:32.634Z</time>
      </trkpt>
      <trkpt lat="38.942865" lon="-1.483336">
        <ele>1003.394823</ele>
        <time>2020-08-05T05:45:34.656Z</time>
      </trkpt>
      <trkpt lat="38.942807" lon="-1.483503">
        <ele>1002.606543</ele>
        <time>2020-08-05T05:45:36.652Z</time>
      </trkpt>
      <trkpt lat="38.942744" lon="-1.483658">
        <ele>1001.852763</ele>
        <time>2020-08-05T05:45:38.690Z</time>
      </trkpt>
      <trkpt lat="38.942699" lon="-1.483825">
        <ele>1001.091010</ele>
        <time>2020-08-05T05:45:39.335Z</time>
      </trkpt>
      <trkpt lat="38.942667" lon="-1.483997">
        <ele>1000.328766</ele>
        <time>2020-08-05T05:45:41.322Z</time>
      </trkpt>
      <trkpt lat="38.942664" lon="-1.484171">
        <ele>999.578631</ele>
        <time>2020-08-05T05:45:43.330Z</time>
      </trkpt>
      <trkpt lat="38.942659" lon="-1.484335">
        <ele>998.871238</ele>
        <time>2020-08-05T05:45:45.347Z</time>
      </trkpt>
      <trkpt lat="38.942650" lon="-1.484512">
        <ele>998.106729</ele>
        <time>2020-08-05T05:45:47.337Z</time>
      </trkpt>
      <trkpt lat="38.942639" lon="-1.484700">
        <ele>997.294147</ele>
        <time>2020-08-05T05:45:49.330Z</time>
      </trkpt>
      <trkpt lat="38.942633" lon="-1.484886">
        <ele>996.484252</ele>
        <time>2020-08-05T05:45:51.322Z</time>
      </trkpt>
      <trkpt lat="38.942620" lon="-1.485057">
        <ele>995.736293</ele>
        <time>2020-08-05T05:45:53.341Z</time>
      </trkpt>
      <trkpt lat="38.942627" lon="-1.485232">
        <ele>994.973462</ele>
        <time>2020-08-05T05:45:55.353Z</time>
      </trkpt>
      <trkpt lat="38.942660" lon="-1.485415">
        <ele>994.155680</ele>
        <time>2020-08-05T05:45:57.340Z</time>
      </trkpt>
      <trkpt lat="38.942668" lon="-1.485549">
        <ele>993.570625</ele>
        <time>2020-08-05T05:45:59.345Z</time>
      </trkpt>
      <trkpt lat="38.942694" lon="-1.485732">
        <ele>992.760793</ele>
        <time>2020-08-05T05:46:01.334Z</time>
      </trkpt>
      <trkpt lat="38.942696" lon="-1.485952">
        <ele>991.803006</ele>
        <time>2020-08-05T05:46:03.320Z</time>
      </trkpt>
      <trkpt lat="38.942700" lon="-1.486068">
        <ele>991.297530</ele>
        <time>2020-08-05T05:46:04.319Z</time>
      </trkpt>
      <trkpt lat="38.942764" lon="-1.486266">
        <ele>990.364111</ele>
        <time>2020-08-05T05:46:06.323Z</time>
      </trkpt>
      <trkpt lat="38.942794" lon="-1.486475">
        <ele>989.438912</ele>
        <time>2020-08-05T05:46:08.323Z</time>
      </trkpt>
      <trkpt lat="38.942836" lon="-1.486673">
        <ele>988.545483</ele>
        <time>2020-08-05T05:46:10.328Z</time>
      </trkpt>
      <trkpt lat="38.942838" lon="-1.486790">
        <ele>988.036028</ele>
        <time>2020-08-05T05:46:11.329Z</time>
      </trkpt>
      <trkpt lat="38.942837" lon="-1.486909">
        <ele>987.517959</ele>
        <time>2020-08-05T05:46:12.335Z</time>
      </trkpt>
      <trkpt lat="38.942838" lon="-1.487025">
        <ele>987.428609</ele>
        <time>2020-08-05T05:46:13.328Z</time>
      </trkpt>
      <trkpt lat="38.942820" lon="-1.487155">
        <ele>988.318623</ele>
        <time>2020-08-05T05:46:14.335Z</time>
      </trkpt>
      <trkpt lat="38.942799" lon="-1.487283">
        <ele>989.200365</ele>
        <time>2020-08-05T05:46:15.338Z</time>
      </trkpt>
      <trkpt lat="38.942772" lon="-1.487498">
        <ele>990.668295</ele>
        <time>2020-08-05T05:46:17.335Z</time>
      </trkpt>
      <trkpt lat="38.942764" lon="-1.487625">
        <ele>991.527115</ele>
        <time>2020-08-05T05:46:18.332Z</time>
      </trkpt>
      <trkpt lat="38.942758" lon="-1.487748">
        <ele>992.357800</ele>
        <time>2020-08-05T05:46:19.340Z</time>
      </trkpt>
      <trkpt lat="38.942751" lon="-1.487979">
        <ele>993.915988</ele>
        <time>2020-08-05T05:46:21.333Z</time>
      </trkpt>
      <trkpt lat="38.942738" lon="-1.488211">
        <ele>995.483789</ele>
        <time>2020-08-05T05:46:23.345Z</time>
      </trkpt>
      <trkpt lat="38.942751" lon="-1.488440">
        <ele>997.031422</ele>
        <time>2020-08-05T05:46:25.339Z</time>
      </trkpt>
      <trkpt lat="38.942765" lon="-1.488556">
        <ele>997.822653</ele>
        <time>2020-08-05T05:46:26.336Z</time>
      </trkpt>
      <trkpt lat="38.942783" lon="-1.488672">
        <ele>998.619935</ele>
        <time>2020-08-05T05:46:27.334Z</time>
      </trkpt>
      <trkpt lat="38.942817" lon="-1.488784">
        <ele>999.430312</ele>
        <time>2020-08-05T05:46:28.337Z</time>
      </trkpt>
      <trkpt lat="38.942897" lon="-1.488993">
        <ele>1001.000388</ele>
        <time>2020-08-05T05:46:30.324Z</time>
      </trkpt>
      <trkpt lat="38.942960" lon="-1.489171">
        <ele>1002.318540</ele>
        <time>2020-08-05T05:46:32.329Z</time>
      </trkpt>
      <trkpt lat="38.942936" lon="-1.489376">
        <ele>1002.584203</ele>
        <time>2020-08-05T05:46:34.328Z</time>
      </trkpt>
      <trkpt lat="38.942883" lon="-1.489575">
        <ele>1002.317584</ele>
        <time>2020-08-05T05:46:36.339Z</time>
      </trkpt>
      <trkpt lat="38.942826" lon="-1.489748">
        <ele>1002.079435</ele>
        <time>2020-08-05T05:46:38.326Z</time>
      </trkpt>
      <trkpt lat="38.942733" lon="-1.489901">
        <ele>1001.833302</ele>
        <time>2020-08-05T05:46:40.322Z</time>
      </trkpt>
      <trkpt lat="38.942668" lon="-1.490059">
        <ele>1001.606741</ele>
        <time>2020-08-05T05:46:42.327Z</time>
      </trkpt>
      <trkpt lat="38.942602" lon="-1.490235">
        <ele>1001.359077</ele>
        <time>2020-08-05T05:46:44.334Z</time>
      </trkpt>
      <trkpt lat="38.942535" lon="-1.490405">
        <ele>1001.117508</ele>
        <time>2020-08-05T05:46:46.327Z</time>
      </trkpt>
      <trkpt lat="38.942479" lon="-1.490574">
        <ele>1000.884662</ele>
        <time>2020-08-05T05:46:48.329Z</time>
      </trkpt>
      <trkpt lat="38.942426" lon="-1.490764">
        <ele>1000.628808</ele>
        <time>2020-08-05T05:46:50.332Z</time>
      </trkpt>
      <trkpt lat="38.942383" lon="-1.490944">
        <ele>1000.390130</ele>
        <time>2020-08-05T05:46:52.322Z</time>
      </trkpt>
      <trkpt lat="38.942352" lon="-1.491119">
        <ele>1000.162629</ele>
        <time>2020-08-05T05:46:54.327Z</time>
      </trkpt>
      <trkpt lat="38.942311" lon="-1.491282">
        <ele>999.945482</ele>
        <time>2020-08-05T05:46:56.321Z</time>
      </trkpt>
      <trkpt lat="38.942286" lon="-1.491450">
        <ele>999.722210</ele>
        <time>2020-08-05T05:46:58.325Z</time>
      </trkpt>
      <trkpt lat="38.942251" lon="-1.491613">
        <ele>999.494476</ele>
        <time>2020-08-05T05:47:00.328Z</time>
      </trkpt>
      <trkpt lat="38.942220" lon="-1.491780">
        <ele>999.263250</ele>
        <time>2020-08-05T05:47:02.329Z</time>
      </trkpt>
      <trkpt lat="38.942185" lon="-1.491948">
        <ele>999.029018</ele>
        <time>2020-08-05T05:47:04.344Z</time>
      </trkpt>
      <trkpt lat="38.942147" lon="-1.492106">
        <ele>998.806289</ele>
        <time>2020-08-05T05:47:06.330Z</time>
      </trkpt>
      <trkpt lat="38.942119" lon="-1.492265">
        <ele>998.586733</ele>
        <time>2020-08-05T05:47:08.328Z</time>
      </trkpt>
      <trkpt lat="38.942088" lon="-1.492427">
        <ele>998.362051</ele>
        <time>2020-08-05T05:47:10.336Z</time>
      </trkpt>
      <trkpt lat="38.942056" lon="-1.492594">
        <ele>998.130417</ele>
        <time>2020-08-05T05:47:12.326Z</time>
      </trkpt>
      <trkpt lat="38.942016" lon="-1.492759">
        <ele>997.897657</ele>
        <time>2020-08-05T05:47:14.346Z</time>
      </trkpt>
      <trkpt lat="38.941976" lon="-1.492932">
        <ele>997.654590</ele>
        <time>2020-08-05T05:47:16.327Z</time>
      </trkpt>
      <trkpt lat="38.941936" lon="-1.493086">
        <ele>997.435928</ele>
        <time>2020-08-05T05:47:18.322Z</time>
      </trkpt>
      <trkpt lat="38.941890" lon="-1.493228">
        <ele>997.228763</ele>
        <time>2020-08-05T05:47:20.338Z</time>
      </trkpt>
      <trkpt lat="38.941836" lon="-1.493382">
        <ele>997.001258</ele>
        <time>2020-08-05T05:47:22.356Z</time>
      </trkpt>
      <trkpt lat="38.941791" lon="-1.493539">
        <ele>996.775915</ele>
        <time>2020-08-05T05:47:24.342Z</time>
      </trkpt>
      <trkpt lat="38.941739" lon="-1.493692">
        <ele>996.396753</ele>
        <time>2020-08-05T05:47:26.334Z</time>
      </trkpt>
      <trkpt lat="38.941695" lon="-1.493848">
        <ele>995.966293</ele>
        <time>2020-08-05T05:47:28.330Z</time>
      </trkpt>
      <trkpt lat="38.941656" lon="-1.494006">
        <ele>995.536287</ele>
        <time>2020-08-05T05:47:30.337Z</time>
      </trkpt>
      <trkpt lat="38.941618" lon="-1.494154">
        <ele>995.131987</ele>
        <time>2020-08-05T05:47:32.335Z</time>
      </trkpt>
      <trkpt lat="38.941585" lon="-1.494309">
        <ele>994.715116</ele>
        <time>2020-08-05T05:47:34.333Z</time>
      </trkpt>
      <trkpt lat="38.941556" lon="-1.494467">
        <ele>994.293996</ele>
        <time>2020-08-05T05:47:36.342Z</time>
      </trkpt>
      <trkpt lat="38.941535" lon="-1.494613">
        <ele>993.908840</ele>
        <time>2020-08-05T05:47:38.330Z</time>
      </trkpt>
      <trkpt lat="38.941515" lon="-1.494764">
        <ele>993.511497</ele>
        <time>2020-08-05T05:47:40.347Z</time>
      </trkpt>
      <trkpt lat="38.941496" lon="-1.494933">
        <ele>993.068543</ele>
        <time>2020-08-05T05:47:42.350Z</time>
      </trkpt>
      <trkpt lat="38.941466" lon="-1.495088">
        <ele>992.654200</ele>
        <time>2020-08-05T05:47:44.353Z</time>
      </trkpt>
      <trkpt lat="38.941444" lon="-1.495249">
        <ele>992.230158</ele>
        <time>2020-08-05T05:47:46.337Z</time>
      </trkpt>
      <trkpt lat="38.941417" lon="-1.495409">
        <ele>991.805451</ele>
        <time>2020-08-05T05:47:48.343Z</time>
      </trkpt>
      <trkpt lat="38.941391" lon="-1.495578">
        <ele>991.358558</ele>
        <time>2020-08-05T05:47:50.338Z</time>
      </trkpt>
      <trkpt lat="38.941369" lon="-1.495750">
        <ele>990.906385</ele>
        <time>2020-08-05T05:47:52.349Z</time>
      </trkpt>
      <trkpt lat="38.941349" lon="-1.495922">
        <ele>991.275917</ele>
        <time>2020-08-05T05:47:54.342Z</time>
      </trkpt>
      <trkpt lat="38.941341" lon="-1.496093">
        <ele>992.215124</ele>
        <time>2020-08-05T05:47:56.342Z</time>
      </trkpt>
      <trkpt lat="38.941331" lon="-1.496261">
        <ele>993.138884</ele>
        <time>2020-08-05T05:47:58.336Z</time>
      </trkpt>
      <trkpt lat="38.941314" lon="-1.496430">
        <ele>994.073149</ele>
        <time>2020-08-05T05:48:00.341Z</time>
      </trkpt>
      <trkpt lat="38.941318" lon="-1.496579">
        <ele>994.890533</ele>
        <time>2020-08-05T05:48:02.336Z</time>
      </trkpt>
      <trkpt lat="38.941284" lon="-1.496734">
        <ele>995.773475</ele>
        <time>2020-08-05T05:48:04.352Z</time>
      </trkpt>
      <trkpt lat="38.941255" lon="-1.496888">
        <ele>996.642179</ele>
        <time>2020-08-05T05:48:06.337Z</time>
      </trkpt>
      <trkpt lat="38.941238" lon="-1.497052">
        <ele>997.549266</ele>
        <time>2020-08-05T05:48:08.325Z</time>
      </trkpt>
      <trkpt lat="38.941228" lon="-1.497206">
        <ele>998.396515</ele>
        <time>2020-08-05T05:48:10.343Z</time>
      </trkpt>
      <trkpt lat="38.941234" lon="-1.497340">
        <ele>999.132392</ele>
        <time>2020-08-05T05:48:12.337Z</time>
      </trkpt>
      <trkpt lat="38.941222" lon="-1.497494">
        <ele>999.980930</ele>
        <time>2020-08-05T05:48:14.333Z</time>
      </trkpt>
      <trkpt lat="38.941204" lon="-1.497630">
        <ele>1000.737274</ele>
        <time>2020-08-05T05:48:16.348Z</time>
      </trkpt>
      <trkpt lat="38.941173" lon="-1.497777">
        <ele>1001.572306</ele>
        <time>2020-08-05T05:48:18.344Z</time>
      </trkpt>
      <trkpt lat="38.941148" lon="-1.497922">
        <ele>1002.386573</ele>
        <time>2020-08-05T05:48:20.348Z</time>
      </trkpt>
      <trkpt lat="38.941120" lon="-1.498071">
        <ele>1003.226978</ele>
        <time>2020-08-05T05:48:22.344Z</time>
      </trkpt>
      <trkpt lat="38.941088" lon="-1.498223">
        <ele>1003.094043</ele>
        <time>2020-08-05T05:48:24.347Z</time>
      </trkpt>
      <trkpt lat="38.941049" lon="-1.498354">
        <ele>1002.757647</ele>
        <time>2020-08-05T05:48:26.350Z</time>
      </trkpt>
      <trkpt lat="38.941015" lon="-1.498492">
        <ele>1002.410484</ele>
        <time>2020-08-05T05:48:28.328Z</time>
      </trkpt>
      <trkpt lat="38.940994" lon="-1.498627">
        <ele>1002.080312</ele>
        <time>2020-08-05T05:48:30.337Z</time>
      </trkpt>
      <trkpt lat="38.940981" lon="-1.498765">
        <ele>1001.746938</ele>
        <time>2020-08-05T05:48:32.345Z</time>
      </trkpt>
      <trkpt lat="38.940959" lon="-1.498898">
        <ele>1001.420839</ele>
        <time>2020-08-05T05:48:34.346Z</time>
      </trkpt>
      <trkpt lat="38.940934" lon="-1.499019">
        <ele>1001.120590</ele>
        <time>2020-08-05T05:48:36.351Z</time>
      </trkpt>
      <trkpt lat="38.940911" lon="-1.499149">
        <ele>1000.800855</ele>
        <time>2020-08-05T05:48:38.338Z</time>
      </trkpt>
      <trkpt lat="38.940881" lon="-1.499277">
        <ele>1000.480247</ele>
        <time>2020-08-05T05:48:40.347Z</time>
      </trkpt>
      <trkpt lat="38.940860" lon="-1.499406">
        <ele>1000.164172</ele>
        <time>2020-08-05T05:48:42.344Z</time>
      </trkpt>
      <trkpt lat="38.940834" lon="-1.499547">
        <ele>999.816647</ele>
        <time>2020-08-05T05:48:44.323Z</time>
      </trkpt>
      <trkpt lat="38.940821" lon="-1.499678">
        <ele>999.499932</ele>
        <time>2020-08-05T05:48:46.360Z</time>
      </trkpt>
      <trkpt lat="38.940800" lon="-1.499815">
        <ele>999.165054</ele>
        <time>2020-08-05T05:48:48.341Z</time>
      </trkpt>
      <trkpt lat="38.940778" lon="-1.499972">
        <ele>998.782469</ele>
        <time>2020-08-05T05:48:50.341Z</time>
      </trkpt>
      <trkpt lat="38.940788" lon="-1.500133">
        <ele>998.395123</ele>
        <time>2020-08-05T05:48:52.349Z</time>
      </trkpt>
      <trkpt lat="38.940756" lon="-1.500286">
        <ele>998.015158</ele>
        <time>2020-08-05T05:48:54.337Z</time>
      </trkpt>
      <trkpt lat="38.940717" lon="-1.500417">
        <ele>997.486865</ele>
        <time>2020-08-05T05:48:56.348Z</time>
      </trkpt>
      <trkpt lat="38.940704" lon="-1.500587">
        <ele>996.621640</ele>
        <time>2020-08-05T05:48:58.331Z</time>
      </trkpt>
      <trkpt lat="38.940666" lon="-1.500738">
        <ele>995.817768</ele>
        <time>2020-08-05T05:49:00.346Z</time>
      </trkpt>
      <trkpt lat="38.940642" lon="-1.500900">
        <ele>994.982464</ele>
        <time>2020-08-05T05:49:02.328Z</time>
      </trkpt>
      <trkpt lat="38.940611" lon="-1.501062">
        <ele>994.137443</ele>
        <time>2020-08-05T05:49:04.335Z</time>
      </trkpt>
      <trkpt lat="38.940582" lon="-1.501222">
        <ele>993.305308</ele>
        <time>2020-08-05T05:49:06.345Z</time>
      </trkpt>
      <trkpt lat="38.940563" lon="-1.501372">
        <ele>992.535527</ele>
        <time>2020-08-05T05:49:08.344Z</time>
      </trkpt>
      <trkpt lat="38.940528" lon="-1.501531">
        <ele>991.698538</ele>
        <time>2020-08-05T05:49:10.348Z</time>
      </trkpt>
      <trkpt lat="38.940501" lon="-1.501684">
        <ele>990.903874</ele>
        <time>2020-08-05T05:49:12.348Z</time>
      </trkpt>
      <trkpt lat="38.940484" lon="-1.501823">
        <ele>990.191168</ele>
        <time>2020-08-05T05:49:14.337Z</time>
      </trkpt>
      <trkpt lat="38.940480" lon="-1.501984">
        <ele>989.375263</ele>
        <time>2020-08-05T05:49:16.334Z</time>
      </trkpt>
      <trkpt lat="38.940505" lon="-1.502142">
        <ele>988.558578</ele>
        <time>2020-08-05T05:49:18.333Z</time>
      </trkpt>
      <trkpt lat="38.940544" lon="-1.502288">
        <ele>987.776670</ele>
        <time>2020-08-05T05:49:20.332Z</time>
      </trkpt>
      <trkpt lat="38.940580" lon="-1.502447">
        <ele>986.937884</ele>
        <time>2020-08-05T05:49:22.354Z</time>
      </trkpt>
      <trkpt lat="38.940616" lon="-1.502600">
        <ele>986.135191</ele>
        <time>2020-08-05T05:49:24.336Z</time>
      </trkpt>
      <trkpt lat="38.940658" lon="-1.502766">
        <ele>985.862992</ele>
        <time>2020-08-05T05:49:26.347Z</time>
      </trkpt>
      <trkpt lat="38.940684" lon="-1.502928">
        <ele>985.605059</ele>
        <time>2020-08-05T05:49:28.342Z</time>
      </trkpt>
      <trkpt lat="38.940718" lon="-1.503091">
        <ele>985.341907</ele>
        <time>2020-08-05T05:49:30.340Z</time>
      </trkpt>
      <trkpt lat="38.940743" lon="-1.503264">
        <ele>985.067528</ele>
        <time>2020-08-05T05:49:32.347Z</time>
      </trkpt>
      <trkpt lat="38.940800" lon="-1.503411">
        <ele>984.811401</ele>
        <time>2020-08-05T05:49:34.332Z</time>
      </trkpt>
      <trkpt lat="38.940839" lon="-1.503587">
        <ele>984.526040</ele>
        <time>2020-08-05T05:49:36.349Z</time>
      </trkpt>
      <trkpt lat="38.940861" lon="-1.503775">
        <ele>984.229588</ele>
        <time>2020-08-05T05:49:38.328Z</time>
      </trkpt>
      <trkpt lat="38.940898" lon="-1.503927">
        <ele>983.981234</ele>
        <time>2020-08-05T05:49:40.343Z</time>
      </trkpt>
      <trkpt lat="38.940959" lon="-1.504069">
        <ele>983.728284</ele>
        <time>2020-08-05T05:49:42.346Z</time>
      </trkpt>
      <trkpt lat="38.940987" lon="-1.504247">
        <ele>983.445105</ele>
        <time>2020-08-05T05:49:44.332Z</time>
      </trkpt>
      <trkpt lat="38.941017" lon="-1.504419">
        <ele>983.170241</ele>
        <time>2020-08-05T05:49:46.336Z</time>
      </trkpt>
      <trkpt lat="38.941056" lon="-1.504584">
        <ele>982.901336</ele>
        <time>2020-08-05T05:49:48.347Z</time>
      </trkpt>
      <trkpt lat="38.941104" lon="-1.504733">
        <ele>982.649857</ele>
        <time>2020-08-05T05:49:50.342Z</time>
      </trkpt>
      <trkpt lat="38.941126" lon="-1.504913">
        <ele>982.723428</ele>
        <time>2020-08-05T05:49:52.340Z</time>
      </trkpt>
      <trkpt lat="38.941112" lon="-1.505112">
        <ele>983.080680</ele>
        <time>2020-08-05T05:49:54.335Z</time>
      </trkpt>
      <trkpt lat="38.941138" lon="-1.505292">
        <ele>983.408011</ele>
        <time>2020-08-05T05:49:56.322Z</time>
      </trkpt>
      <trkpt lat="38.941165" lon="-1.505471">
        <ele>983.734015</ele>
        <time>2020-08-05T05:49:58.321Z</time>
      </trkpt>
      <trkpt lat="38.941197" lon="-1.505628">
        <ele>984.024199</ele>
        <time>2020-08-05T05:50:00.317Z</time>
      </trkpt>
      <trkpt lat="38.941220" lon="-1.505800">
        <ele>984.336236</ele>
        <time>2020-08-05T05:50:02.347Z</time>
      </trkpt>
      <trkpt lat="38.941266" lon="-1.505970">
        <ele>984.658053</ele>
        <time>2020-08-05T05:50:04.329Z</time>
      </trkpt>
      <trkpt lat="38.941341" lon="-1.506116">
        <ele>984.970886</ele>
        <time>2020-08-05T05:50:06.335Z</time>
      </trkpt>
      <trkpt lat="38.941405" lon="-1.506272">
        <ele>985.286225</ele>
        <time>2020-08-05T05:50:08.325Z</time>
      </trkpt>
      <trkpt lat="38.941479" lon="-1.506409">
        <ele>985.584445</ele>
        <time>2020-08-05T05:50:10.344Z</time>
      </trkpt>
      <trkpt lat="38.941536" lon="-1.506558">
        <ele>985.881325</ele>
        <time>2020-08-05T05:50:12.336Z</time>
      </trkpt>
      <trkpt lat="38.941623" lon="-1.506673">
        <ele>986.168156</ele>
        <time>2020-08-05T05:50:14.335Z</time>
      </trkpt>
      <trkpt lat="38.941682" lon="-1.506818">
        <ele>986.460738</ele>
        <time>2020-08-05T05:50:16.334Z</time>
      </trkpt>
      <trkpt lat="38.941756" lon="-1.506935">
        <ele>986.681018</ele>
        <time>2020-08-05T05:50:18.330Z</time>
      </trkpt>
      <trkpt lat="38.941834" lon="-1.507063">
        <ele>986.745452</ele>
        <time>2020-08-05T05:50:20.331Z</time>
      </trkpt>
      <trkpt lat="38.941915" lon="-1.507198">
        <ele>986.813013</ele>
        <time>2020-08-05T05:50:22.341Z</time>
      </trkpt>
      <trkpt lat="38.941994" lon="-1.507331">
        <ele>986.879326</ele>
        <time>2020-08-05T05:50:24.338Z</time>
      </trkpt>
      <trkpt lat="38.942063" lon="-1.507469">
        <ele>986.944333</ele>
        <time>2020-08-05T05:50:26.332Z</time>
      </trkpt>
      <trkpt lat="38.942114" lon="-1.507621">
        <ele>987.009929</ele>
        <time>2020-08-05T05:50:28.329Z</time>
      </trkpt>
      <trkpt lat="38.942177" lon="-1.507776">
        <ele>987.079229</ele>
        <time>2020-08-05T05:50:30.335Z</time>
      </trkpt>
      <trkpt lat="38.942219" lon="-1.507917">
        <ele>987.139058</ele>
        <time>2020-08-05T05:50:32.339Z</time>
      </trkpt>
      <trkpt lat="38.942303" lon="-1.508040">
        <ele>987.203918</ele>
        <time>2020-08-05T05:50:34.336Z</time>
      </trkpt>
      <trkpt lat="38.942376" lon="-1.508178">
        <ele>987.270049</ele>
        <time>2020-08-05T05:50:36.325Z</time>
      </trkpt>
      <trkpt lat="38.942451" lon="-1.508294">
        <ele>987.329822</ele>
        <time>2020-08-05T05:50:38.344Z</time>
      </trkpt>
      <trkpt lat="38.942473" lon="-1.508460">
        <ele>987.396548</ele>
        <time>2020-08-05T05:50:40.327Z</time>
      </trkpt>
      <trkpt lat="38.942477" lon="-1.508623">
        <ele>987.461169</ele>
        <time>2020-08-05T05:50:42.325Z</time>
      </trkpt>
      <trkpt lat="38.942388" lon="-1.508739">
        <ele>987.525734</ele>
        <time>2020-08-05T05:50:44.344Z</time>
      </trkpt>
      <trkpt lat="38.942313" lon="-1.508859">
        <ele>987.562021</ele>
        <time>2020-08-05T05:50:46.343Z</time>
      </trkpt>
      <trkpt lat="38.942236" lon="-1.508980">
        <ele>987.176303</ele>
        <time>2020-08-05T05:50:48.330Z</time>
      </trkpt>
      <trkpt lat="38.942172" lon="-1.509089">
        <ele>986.839354</ele>
        <time>2020-08-05T05:50:50.349Z</time>
      </trkpt>
      <trkpt lat="38.942142" lon="-1.509239">
        <ele>986.457236</ele>
        <time>2020-08-05T05:50:52.344Z</time>
      </trkpt>
      <trkpt lat="38.942071" lon="-1.509380">
        <ele>986.042820</ele>
        <time>2020-08-05T05:50:54.332Z</time>
      </trkpt>
      <trkpt lat="38.941986" lon="-1.509466">
        <ele>985.699718</ele>
        <time>2020-08-05T05:50:56.334Z</time>
      </trkpt>
      <trkpt lat="38.941999" lon="-1.509656">
        <ele>985.229140</ele>
        <time>2020-08-05T05:50:58.340Z</time>
      </trkpt>
      <trkpt lat="38.941914" lon="-1.509770">
        <ele>984.839516</ele>
        <time>2020-08-05T05:51:00.338Z</time>
      </trkpt>
      <trkpt lat="38.941889" lon="-1.509948">
        <ele>984.393252</ele>
        <time>2020-08-05T05:51:02.328Z</time>
      </trkpt>
      <trkpt lat="38.941871" lon="-1.510099">
        <ele>984.016354</ele>
        <time>2020-08-05T05:51:04.341Z</time>
      </trkpt>
      <trkpt lat="38.941798" lon="-1.510221">
        <ele>983.636589</ele>
        <time>2020-08-05T05:51:06.347Z</time>
      </trkpt>
      <trkpt lat="38.941741" lon="-1.510372">
        <ele>983.222482</ele>
        <time>2020-08-05T05:51:08.333Z</time>
      </trkpt>
      <trkpt lat="38.941722" lon="-1.510550">
        <ele>982.779203</ele>
        <time>2020-08-05T05:51:10.344Z</time>
      </trkpt>
      <trkpt lat="38.941704" lon="-1.510708">
        <ele>982.385225</ele>
        <time>2020-08-05T05:51:12.342Z</time>
      </trkpt>
      <trkpt lat="38.941671" lon="-1.510859">
        <ele>981.998249</ele>
        <time>2020-08-05T05:51:14.339Z</time>
      </trkpt>
      <trkpt lat="38.941639" lon="-1.510987">
        <ele>981.764828</ele>
        <time>2020-08-05T05:51:16.338Z</time>
      </trkpt>
      <trkpt lat="38.941601" lon="-1.511119">
        <ele>981.579095</ele>
        <time>2020-08-05T05:51:18.339Z</time>
      </trkpt>
      <trkpt lat="38.941566" lon="-1.511251">
        <ele>981.395066</ele>
        <time>2020-08-05T05:51:20.347Z</time>
      </trkpt>
      <trkpt lat="38.941536" lon="-1.511371">
        <ele>981.228737</ele>
        <time>2020-08-05T05:51:22.333Z</time>
      </trkpt>
      <trkpt lat="38.941512" lon="-1.511485">
        <ele>981.072891</ele>
        <time>2020-08-05T05:51:24.326Z</time>
      </trkpt>
      <trkpt lat="38.941506" lon="-1.511612">
        <ele>980.904994</ele>
        <time>2020-08-05T05:51:26.324Z</time>
      </trkpt>
      <trkpt lat="38.941484" lon="-1.511739">
        <ele>980.733300</ele>
        <time>2020-08-05T05:51:28.322Z</time>
      </trkpt>
      <trkpt lat="38.941484" lon="-1.511884">
        <ele>980.541960</ele>
        <time>2020-08-05T05:51:30.322Z</time>
      </trkpt>
      <trkpt lat="38.941476" lon="-1.512013">
        <ele>980.371193</ele>
        <time>2020-08-05T05:51:32.328Z</time>
      </trkpt>
      <trkpt lat="38.941474" lon="-1.512160">
        <ele>980.177184</ele>
        <time>2020-08-05T05:51:34.331Z</time>
      </trkpt>
      <trkpt lat="38.941480" lon="-1.512338">
        <ele>979.942077</ele>
        <time>2020-08-05T05:51:37.342Z</time>
      </trkpt>
      <trkpt lat="38.941471" lon="-1.512490">
        <ele>979.740919</ele>
        <time>2020-08-05T05:51:39.322Z</time>
      </trkpt>
      <trkpt lat="38.941463" lon="-1.512617">
        <ele>979.572782</ele>
        <time>2020-08-05T05:51:41.331Z</time>
      </trkpt>
      <trkpt lat="38.941442" lon="-1.512736">
        <ele>979.411760</ele>
        <time>2020-08-05T05:51:43.342Z</time>
      </trkpt>
      <trkpt lat="38.941431" lon="-1.512851">
        <ele>979.258864</ele>
        <time>2020-08-05T05:51:45.338Z</time>
      </trkpt>
      <trkpt lat="38.941431" lon="-1.512972">
        <ele>979.099194</ele>
        <time>2020-08-05T05:51:47.327Z</time>
      </trkpt>
      <trkpt lat="38.941410" lon="-1.513125">
        <ele>978.894177</ele>
        <time>2020-08-05T05:51:50.341Z</time>
      </trkpt>
      <trkpt lat="38.941401" lon="-1.513283">
        <ele>979.064996</ele>
        <time>2020-08-05T05:51:53.341Z</time>
      </trkpt>
      <trkpt lat="38.941398" lon="-1.513421">
        <ele>979.373041</ele>
        <time>2020-08-05T05:51:55.334Z</time>
      </trkpt>
      <trkpt lat="38.941410" lon="-1.513544">
        <ele>979.649647</ele>
        <time>2020-08-05T05:51:57.343Z</time>
      </trkpt>
      <trkpt lat="38.941421" lon="-1.513691">
        <ele>979.979168</ele>
        <time>2020-08-05T05:51:59.334Z</time>
      </trkpt>
      <trkpt lat="38.941420" lon="-1.513862">
        <ele>980.360738</ele>
        <time>2020-08-05T05:52:01.346Z</time>
      </trkpt>
      <trkpt lat="38.941407" lon="-1.514031">
        <ele>980.739674</ele>
        <time>2020-08-05T05:52:03.332Z</time>
      </trkpt>
      <trkpt lat="38.941380" lon="-1.514224">
        <ele>981.177233</ele>
        <time>2020-08-05T05:52:05.339Z</time>
      </trkpt>
      <trkpt lat="38.941346" lon="-1.514414">
        <ele>981.612263</ele>
        <time>2020-08-05T05:52:07.343Z</time>
      </trkpt>
      <trkpt lat="38.941312" lon="-1.514556">
        <ele>981.943787</ele>
        <time>2020-08-05T05:52:09.335Z</time>
      </trkpt>
      <trkpt lat="38.941202" lon="-1.514673">
        <ele>982.353349</ele>
        <time>2020-08-05T05:52:11.346Z</time>
      </trkpt>
      <trkpt lat="38.941071" lon="-1.514789">
        <ele>982.809675</ele>
        <time>2020-08-05T05:52:13.336Z</time>
      </trkpt>
      <trkpt lat="38.941032" lon="-1.514983">
        <ele>983.256782</ele>
        <time>2020-08-05T05:52:15.335Z</time>
      </trkpt>
      <trkpt lat="38.940960" lon="-1.515123">
        <ele>983.631285</ele>
        <time>2020-08-05T05:52:17.330Z</time>
      </trkpt>
      <trkpt lat="38.940925" lon="-1.515313">
        <ele>983.953691</ele>
        <time>2020-08-05T05:52:19.335Z</time>
      </trkpt>
      <trkpt lat="38.940905" lon="-1.515502">
        <ele>983.781802</ele>
        <time>2020-08-05T05:52:21.338Z</time>
      </trkpt>
      <trkpt lat="38.940936" lon="-1.515692">
        <ele>983.606854</ele>
        <time>2020-08-05T05:52:23.346Z</time>
      </trkpt>
      <trkpt lat="38.940860" lon="-1.515767">
        <ele>983.495850</ele>
        <time>2020-08-05T05:52:25.356Z</time>
      </trkpt>
      <trkpt lat="38.940806" lon="-1.515864">
        <ele>983.388354</ele>
        <time>2020-08-05T05:52:26.340Z</time>
      </trkpt>
      <trkpt lat="38.940723" lon="-1.516022">
        <ele>983.216537</ele>
        <time>2020-08-05T05:52:28.324Z</time>
      </trkpt>
      <trkpt lat="38.940620" lon="-1.516150">
        <ele>983.050565</ele>
        <time>2020-08-05T05:52:30.333Z</time>
      </trkpt>
      <trkpt lat="38.940508" lon="-1.516246">
        <ele>982.894605</ele>
        <time>2020-08-05T05:52:32.318Z</time>
      </trkpt>
      <trkpt lat="38.940419" lon="-1.516360">
        <ele>982.749047</ele>
        <time>2020-08-05T05:52:34.336Z</time>
      </trkpt>
      <trkpt lat="38.940331" lon="-1.516474">
        <ele>982.604307</ele>
        <time>2020-08-05T05:52:36.346Z</time>
      </trkpt>
      <trkpt lat="38.940237" lon="-1.516562">
        <ele>982.469584</ele>
        <time>2020-08-05T05:52:38.329Z</time>
      </trkpt>
      <trkpt lat="38.940158" lon="-1.516679">
        <ele>982.329959</ele>
        <time>2020-08-05T05:52:40.336Z</time>
      </trkpt>
      <trkpt lat="38.940069" lon="-1.516796">
        <ele>982.182480</ele>
        <time>2020-08-05T05:52:42.334Z</time>
      </trkpt>
      <trkpt lat="38.939982" lon="-1.516917">
        <ele>982.033985</ele>
        <time>2020-08-05T05:52:44.330Z</time>
      </trkpt>
      <trkpt lat="38.939919" lon="-1.517048">
        <ele>981.929011</ele>
        <time>2020-08-05T05:52:46.349Z</time>
      </trkpt>
      <trkpt lat="38.939875" lon="-1.517200">
        <ele>982.473772</ele>
        <time>2020-08-05T05:52:48.343Z</time>
      </trkpt>
      <trkpt lat="38.939844" lon="-1.517334">
        <ele>982.943348</ele>
        <time>2020-08-05T05:52:50.336Z</time>
      </trkpt>
      <trkpt lat="38.939791" lon="-1.517469">
        <ele>983.451285</ele>
        <time>2020-08-05T05:52:52.342Z</time>
      </trkpt>
      <trkpt lat="38.939739" lon="-1.517600">
        <ele>983.945287</ele>
        <time>2020-08-05T05:52:54.336Z</time>
      </trkpt>
      <trkpt lat="38.939671" lon="-1.517731">
        <ele>984.474290</ele>
        <time>2020-08-05T05:52:56.342Z</time>
      </trkpt>
      <trkpt lat="38.939596" lon="-1.517859">
        <ele>985.012569</ele>
        <time>2020-08-05T05:52:58.342Z</time>
      </trkpt>
      <trkpt lat="38.939504" lon="-1.517979">
        <ele>985.578524</ele>
        <time>2020-08-05T05:53:00.334Z</time>
      </trkpt>
      <trkpt lat="38.939425" lon="-1.518102">
        <ele>986.114317</ele>
        <time>2020-08-05T05:53:02.354Z</time>
      </trkpt>
      <trkpt lat="38.939315" lon="-1.518233">
        <ele>986.761822</ele>
        <time>2020-08-05T05:53:04.351Z</time>
      </trkpt>
      <trkpt lat="38.939184" lon="-1.518346">
        <ele>987.443065</ele>
        <time>2020-08-05T05:53:06.332Z</time>
      </trkpt>
      <trkpt lat="38.939075" lon="-1.518495">
        <ele>988.130118</ele>
        <time>2020-08-05T05:53:08.346Z</time>
      </trkpt>
      <trkpt lat="38.938957" lon="-1.518641">
        <ele>988.837336</ele>
        <time>2020-08-05T05:53:10.347Z</time>
      </trkpt>
      <trkpt lat="38.938862" lon="-1.518784">
        <ele>989.469014</ele>
        <time>2020-08-05T05:53:12.353Z</time>
      </trkpt>
      <trkpt lat="38.938730" lon="-1.518880">
        <ele>989.109326</ele>
        <time>2020-08-05T05:53:14.341Z</time>
      </trkpt>
      <trkpt lat="38.938597" lon="-1.518963">
        <ele>988.321990</ele>
        <time>2020-08-05T05:53:16.339Z</time>
      </trkpt>
      <trkpt lat="38.938462" lon="-1.519052">
        <ele>987.514023</ele>
        <time>2020-08-05T05:53:18.340Z</time>
      </trkpt>
      <trkpt lat="38.938319" lon="-1.519116">
        <ele>986.707641</ele>
        <time>2020-08-05T05:53:20.344Z</time>
      </trkpt>
      <trkpt lat="38.938203" lon="-1.519194">
        <ele>986.010481</ele>
        <time>2020-08-05T05:53:22.352Z</time>
      </trkpt>
      <trkpt lat="38.938150" lon="-1.519333">
        <ele>985.369232</ele>
        <time>2020-08-05T05:53:24.332Z</time>
      </trkpt>
      <trkpt lat="38.938145" lon="-1.519466">
        <ele>984.817654</ele>
        <time>2020-08-05T05:53:26.340Z</time>
      </trkpt>
      <trkpt lat="38.938224" lon="-1.519550">
        <ele>984.271686</ele>
        <time>2020-08-05T05:53:28.322Z</time>
      </trkpt>
      <trkpt lat="38.938295" lon="-1.519656">
        <ele>983.692228</ele>
        <time>2020-08-05T05:53:30.336Z</time>
      </trkpt>
      <trkpt lat="38.938332" lon="-1.519786">
        <ele>983.118804</ele>
        <time>2020-08-05T05:53:32.330Z</time>
      </trkpt>
      <trkpt lat="38.938298" lon="-1.519986">
        <ele>982.270776</ele>
        <time>2020-08-05T05:53:34.317Z</time>
      </trkpt>
      <trkpt lat="38.938279" lon="-1.520120">
        <ele>981.706553</ele>
        <time>2020-08-05T05:53:36.331Z</time>
      </trkpt>
      <trkpt lat="38.938203" lon="-1.520262">
        <ele>980.992540</ele>
        <time>2020-08-05T05:53:38.325Z</time>
      </trkpt>
      <trkpt lat="38.938123" lon="-1.520384">
        <ele>980.331547</ele>
        <time>2020-08-05T05:53:40.332Z</time>
      </trkpt>
      <trkpt lat="38.938052" lon="-1.520507">
        <ele>980.174971</ele>
        <time>2020-08-05T05:53:42.319Z</time>
      </trkpt>
      <trkpt lat="38.937979" lon="-1.520633">
        <ele>980.314103</ele>
        <time>2020-08-05T05:53:44.336Z</time>
      </trkpt>
      <trkpt lat="38.937907" lon="-1.520751">
        <ele>980.446915</ele>
        <time>2020-08-05T05:53:46.334Z</time>
      </trkpt>
      <trkpt lat="38.937846" lon="-1.520887">
        <ele>980.585940</ele>
        <time>2020-08-05T05:53:48.354Z</time>
      </trkpt>
      <trkpt lat="38.937773" lon="-1.521022">
        <ele>980.731541</ele>
        <time>2020-08-05T05:53:50.330Z</time>
      </trkpt>
      <trkpt lat="38.937691" lon="-1.521156">
        <ele>980.882528</ele>
        <time>2020-08-05T05:53:52.333Z</time>
      </trkpt>
      <trkpt lat="38.937613" lon="-1.521278">
        <ele>981.022380</ele>
        <time>2020-08-05T05:53:54.337Z</time>
      </trkpt>
      <trkpt lat="38.937551" lon="-1.521407">
        <ele>981.156666</ele>
        <time>2020-08-05T05:53:56.330Z</time>
      </trkpt>
      <trkpt lat="38.937493" lon="-1.521536">
        <ele>981.288616</ele>
        <time>2020-08-05T05:53:58.342Z</time>
      </trkpt>
      <trkpt lat="38.937435" lon="-1.521662">
        <ele>981.418272</ele>
        <time>2020-08-05T05:54:00.339Z</time>
      </trkpt>
      <trkpt lat="38.937370" lon="-1.521783">
        <ele>981.548496</ele>
        <time>2020-08-05T05:54:02.347Z</time>
      </trkpt>
      <trkpt lat="38.937318" lon="-1.521917">
        <ele>981.681110</ele>
        <time>2020-08-05T05:54:04.335Z</time>
      </trkpt>
      <trkpt lat="38.937248" lon="-1.522040">
        <ele>981.816077</ele>
        <time>2020-08-05T05:54:06.336Z</time>
      </trkpt>
      <trkpt lat="38.937183" lon="-1.522166">
        <ele>981.949968</ele>
        <time>2020-08-05T05:54:08.342Z</time>
      </trkpt>
      <trkpt lat="38.937112" lon="-1.522298">
        <ele>982.092090</ele>
        <time>2020-08-05T05:54:10.332Z</time>
      </trkpt>
      <trkpt lat="38.937032" lon="-1.522428">
        <ele>981.911302</ele>
        <time>2020-08-05T05:54:12.331Z</time>
      </trkpt>
      <trkpt lat="38.936954" lon="-1.522549">
        <ele>981.596050</ele>
        <time>2020-08-05T05:54:14.326Z</time>
      </trkpt>
      <trkpt lat="38.936888" lon="-1.522672">
        <ele>981.296293</ele>
        <time>2020-08-05T05:54:16.334Z</time>
      </trkpt>
      <trkpt lat="38.936827" lon="-1.522799">
        <ele>980.996869</ele>
        <time>2020-08-05T05:54:18.326Z</time>
      </trkpt>
      <trkpt lat="38.936747" lon="-1.522920">
        <ele>980.678301</ele>
        <time>2020-08-05T05:54:20.330Z</time>
      </trkpt>
      <trkpt lat="38.936702" lon="-1.523059">
        <ele>980.376274</ele>
        <time>2020-08-05T05:54:22.337Z</time>
      </trkpt>
      <trkpt lat="38.936644" lon="-1.523185">
        <ele>980.082569</ele>
        <time>2020-08-05T05:54:24.342Z</time>
      </trkpt>
      <trkpt lat="38.936575" lon="-1.523309">
        <ele>979.776722</ele>
        <time>2020-08-05T05:54:26.341Z</time>
      </trkpt>
      <trkpt lat="38.936488" lon="-1.523422">
        <ele>979.457774</ele>
        <time>2020-08-05T05:54:28.336Z</time>
      </trkpt>
      <trkpt lat="38.936425" lon="-1.523552">
        <ele>979.150515</ele>
        <time>2020-08-05T05:54:30.345Z</time>
      </trkpt>
      <trkpt lat="38.936356" lon="-1.523673">
        <ele>978.849542</ele>
        <time>2020-08-05T05:54:32.325Z</time>
      </trkpt>
      <trkpt lat="38.936309" lon="-1.523808">
        <ele>978.552836</ele>
        <time>2020-08-05T05:54:34.351Z</time>
      </trkpt>
      <trkpt lat="38.936253" lon="-1.523920">
        <ele>978.285744</ele>
        <time>2020-08-05T05:54:36.339Z</time>
      </trkpt>
      <trkpt lat="38.936183" lon="-1.524032">
        <ele>977.997524</ele>
        <time>2020-08-05T05:54:38.351Z</time>
      </trkpt>
      <trkpt lat="38.936119" lon="-1.524160">
        <ele>977.692275</ele>
        <time>2020-08-05T05:54:40.337Z</time>
      </trkpt>
      <trkpt lat="38.936058" lon="-1.524299">
        <ele>977.632296</ele>
        <time>2020-08-05T05:54:42.330Z</time>
      </trkpt>
      <trkpt lat="38.935980" lon="-1.524415">
        <ele>977.951065</ele>
        <time>2020-08-05T05:54:44.361Z</time>
      </trkpt>
      <trkpt lat="38.935936" lon="-1.524553">
        <ele>978.261120</ele>
        <time>2020-08-05T05:54:46.345Z</time>
      </trkpt>
      <trkpt lat="38.935852" lon="-1.524644">
        <ele>978.554703</ele>
        <time>2020-08-05T05:54:48.332Z</time>
      </trkpt>
      <trkpt lat="38.935803" lon="-1.524766">
        <ele>978.840145</ele>
        <time>2020-08-05T05:54:50.350Z</time>
      </trkpt>
      <trkpt lat="38.935717" lon="-1.524874">
        <ele>979.161456</ele>
        <time>2020-08-05T05:54:52.352Z</time>
      </trkpt>
      <trkpt lat="38.935661" lon="-1.525007">
        <ele>979.475861</ele>
        <time>2020-08-05T05:54:54.321Z</time>
      </trkpt>
      <trkpt lat="38.935579" lon="-1.525120">
        <ele>979.797134</ele>
        <time>2020-08-05T05:54:56.340Z</time>
      </trkpt>
      <trkpt lat="38.935527" lon="-1.525255">
        <ele>980.110314</ele>
        <time>2020-08-05T05:54:58.341Z</time>
      </trkpt>
      <trkpt lat="38.935464" lon="-1.525370">
        <ele>980.402732</ele>
        <time>2020-08-05T05:55:00.344Z</time>
      </trkpt>
      <trkpt lat="38.935409" lon="-1.525502">
        <ele>980.714040</ele>
        <time>2020-08-05T05:55:02.361Z</time>
      </trkpt>
      <trkpt lat="38.935338" lon="-1.525608">
        <ele>981.004849</ele>
        <time>2020-08-05T05:55:04.339Z</time>
      </trkpt>
      <trkpt lat="38.935281" lon="-1.525731">
        <ele>981.302497</ele>
        <time>2020-08-05T05:55:06.345Z</time>
      </trkpt>
      <trkpt lat="38.935205" lon="-1.525855">
        <ele>981.630693</ele>
        <time>2020-08-05T05:55:08.332Z</time>
      </trkpt>
      <trkpt lat="38.935134" lon="-1.525986">
        <ele>981.962622</ele>
        <time>2020-08-05T05:55:10.344Z</time>
      </trkpt>
      <trkpt lat="38.935065" lon="-1.526118">
        <ele>982.293249</ele>
        <time>2020-08-05T05:55:12.354Z</time>
      </trkpt>
      <trkpt lat="38.934990" lon="-1.526250">
        <ele>982.496227</ele>
        <time>2020-08-05T05:55:14.324Z</time>
      </trkpt>
      <trkpt lat="38.934934" lon="-1.526382">
        <ele>982.677614</ele>
        <time>2020-08-05T05:55:16.348Z</time>
      </trkpt>
      <trkpt lat="38.934848" lon="-1.526513">
        <ele>982.884411</ele>
        <time>2020-08-05T05:55:18.343Z</time>
      </trkpt>
      <trkpt lat="38.934774" lon="-1.526641">
        <ele>983.076806</ele>
        <time>2020-08-05T05:55:20.325Z</time>
      </trkpt>
      <trkpt lat="38.934710" lon="-1.526763">
        <ele>983.254327</ele>
        <time>2020-08-05T05:55:22.357Z</time>
      </trkpt>
      <trkpt lat="38.934642" lon="-1.526867">
        <ele>983.418227</ele>
        <time>2020-08-05T05:55:24.334Z</time>
      </trkpt>
      <trkpt lat="38.934590" lon="-1.526982">
        <ele>983.578699</ele>
        <time>2020-08-05T05:55:26.324Z</time>
      </trkpt>
      <trkpt lat="38.934527" lon="-1.527093">
        <ele>983.744464</ele>
        <time>2020-08-05T05:55:28.327Z</time>
      </trkpt>
      <trkpt lat="38.934488" lon="-1.527223">
        <ele>983.912554</ele>
        <time>2020-08-05T05:55:30.334Z</time>
      </trkpt>
      <trkpt lat="38.934406" lon="-1.527324">
        <ele>984.088678</ele>
        <time>2020-08-05T05:55:32.340Z</time>
      </trkpt>
      <trkpt lat="38.934351" lon="-1.527441">
        <ele>984.253598</ele>
        <time>2020-08-05T05:55:34.337Z</time>
      </trkpt>
      <trkpt lat="38.934291" lon="-1.527562">
        <ele>984.426708</ele>
        <time>2020-08-05T05:55:36.351Z</time>
      </trkpt>
      <trkpt lat="38.934214" lon="-1.527670">
        <ele>984.603447</ele>
        <time>2020-08-05T05:55:38.337Z</time>
      </trkpt>
      <trkpt lat="38.934134" lon="-1.527787">
        <ele>984.791374</ele>
        <time>2020-08-05T05:55:40.336Z</time>
      </trkpt>
      <trkpt lat="38.934067" lon="-1.527910">
        <ele>984.972526</ele>
        <time>2020-08-05T05:55:42.347Z</time>
      </trkpt>
      <trkpt lat="38.934006" lon="-1.528036">
        <ele>985.013021</ele>
        <time>2020-08-05T05:55:44.339Z</time>
      </trkpt>
      <trkpt lat="38.933953" lon="-1.528153">
        <ele>984.765200</ele>
        <time>2020-08-05T05:55:46.333Z</time>
      </trkpt>
      <trkpt lat="38.933898" lon="-1.528288">
        <ele>984.486259</ele>
        <time>2020-08-05T05:55:48.323Z</time>
      </trkpt>
      <trkpt lat="38.933845" lon="-1.528411">
        <ele>984.228888</ele>
        <time>2020-08-05T05:55:50.327Z</time>
      </trkpt>
      <trkpt lat="38.933772" lon="-1.528511">
        <ele>983.977872</ele>
        <time>2020-08-05T05:55:52.328Z</time>
      </trkpt>
      <trkpt lat="38.933695" lon="-1.528626">
        <ele>983.700138</ele>
        <time>2020-08-05T05:55:54.332Z</time>
      </trkpt>
      <trkpt lat="38.933633" lon="-1.528721">
        <ele>983.473157</ele>
        <time>2020-08-05T05:55:56.325Z</time>
      </trkpt>
      <trkpt lat="38.933534" lon="-1.528821">
        <ele>983.176896</ele>
        <time>2020-08-05T05:55:58.338Z</time>
      </trkpt>
      <trkpt lat="38.933455" lon="-1.528987">
        <ele>982.820697</ele>
        <time>2020-08-05T05:56:00.329Z</time>
      </trkpt>
      <trkpt lat="38.933398" lon="-1.529101">
        <ele>982.572644</ele>
        <time>2020-08-05T05:56:02.346Z</time>
      </trkpt>
      <trkpt lat="38.933338" lon="-1.529207">
        <ele>982.332692</ele>
        <time>2020-08-05T05:56:04.343Z</time>
      </trkpt>
      <trkpt lat="38.933263" lon="-1.529314">
        <ele>982.069057</ele>
        <time>2020-08-05T05:56:06.325Z</time>
      </trkpt>
      <trkpt lat="38.933189" lon="-1.529431">
        <ele>981.793044</ele>
        <time>2020-08-05T05:56:08.330Z</time>
      </trkpt>
      <trkpt lat="38.933143" lon="-1.529562">
        <ele>981.529963</ele>
        <time>2020-08-05T05:56:10.334Z</time>
      </trkpt>
      <trkpt lat="38.933073" lon="-1.529674">
        <ele>981.266984</ele>
        <time>2020-08-05T05:56:12.329Z</time>
      </trkpt>
      <trkpt lat="38.933039" lon="-1.529792">
        <ele>981.036656</ele>
        <time>2020-08-05T05:56:14.349Z</time>
      </trkpt>
      <trkpt lat="38.932972" lon="-1.529943">
        <ele>981.433420</ele>
        <time>2020-08-05T05:56:16.333Z</time>
      </trkpt>
      <trkpt lat="38.932945" lon="-1.530115">
        <ele>982.687778</ele>
        <time>2020-08-05T05:56:18.337Z</time>
      </trkpt>
      <trkpt lat="38.932857" lon="-1.530242">
        <ele>983.903618</ele>
        <time>2020-08-05T05:56:20.341Z</time>
      </trkpt>
      <trkpt lat="38.932711" lon="-1.530281">
        <ele>985.274006</ele>
        <time>2020-08-05T05:56:22.329Z</time>
      </trkpt>
      <trkpt lat="38.932591" lon="-1.530360">
        <ele>986.512992</ele>
        <time>2020-08-05T05:56:24.329Z</time>
      </trkpt>
      <trkpt lat="38.932496" lon="-1.530461">
        <ele>987.645915</ele>
        <time>2020-08-05T05:56:26.343Z</time>
      </trkpt>
      <trkpt lat="38.932369" lon="-1.530544">
        <ele>988.955200</ele>
        <time>2020-08-05T05:56:28.334Z</time>
      </trkpt>
      <trkpt lat="38.932284" lon="-1.530667">
        <ele>990.131356</ele>
        <time>2020-08-05T05:56:30.338Z</time>
      </trkpt>
      <trkpt lat="38.932163" lon="-1.530742">
        <ele>991.365845</ele>
        <time>2020-08-05T05:56:32.342Z</time>
      </trkpt>
      <trkpt lat="38.932059" lon="-1.530793">
        <ele>992.388775</ele>
        <time>2020-08-05T05:56:34.361Z</time>
      </trkpt>
      <trkpt lat="38.931927" lon="-1.530829">
        <ele>993.628843</ele>
        <time>2020-08-05T05:56:36.349Z</time>
      </trkpt>
      <trkpt lat="38.931812" lon="-1.530884">
        <ele>994.756453</ele>
        <time>2020-08-05T05:56:38.326Z</time>
      </trkpt>
      <trkpt lat="38.931746" lon="-1.530974">
        <ele>995.640669</ele>
        <time>2020-08-05T05:56:40.327Z</time>
      </trkpt>
      <trkpt lat="38.931677" lon="-1.531099">
        <ele>996.736392</ele>
        <time>2020-08-05T05:56:42.326Z</time>
      </trkpt>
      <trkpt lat="38.931628" lon="-1.531201">
        <ele>997.097177</ele>
        <time>2020-08-05T05:56:44.352Z</time>
      </trkpt>
      <trkpt lat="38.931512" lon="-1.531267">
        <ele>995.367765</ele>
        <time>2020-08-05T05:56:46.318Z</time>
      </trkpt>
      <trkpt lat="38.931438" lon="-1.531403">
        <ele>993.607648</ele>
        <time>2020-08-05T05:56:49.337Z</time>
      </trkpt>
      <trkpt lat="38.931391" lon="-1.531529">
        <ele>992.125711</ele>
        <time>2020-08-05T05:56:51.344Z</time>
      </trkpt>
      <trkpt lat="38.931346" lon="-1.531649">
        <ele>990.712936</ele>
        <time>2020-08-05T05:56:53.335Z</time>
      </trkpt>
      <trkpt lat="38.931309" lon="-1.531794">
        <ele>989.094565</ele>
        <time>2020-08-05T05:56:55.339Z</time>
      </trkpt>
      <trkpt lat="38.931267" lon="-1.531896">
        <ele>987.870638</ele>
        <time>2020-08-05T05:56:57.321Z</time>
      </trkpt>
      <trkpt lat="38.931201" lon="-1.531984">
        <ele>986.574265</ele>
        <time>2020-08-05T05:56:59.347Z</time>
      </trkpt>
      <trkpt lat="38.931125" lon="-1.532121">
        <ele>984.789750</ele>
        <time>2020-08-05T05:57:02.331Z</time>
      </trkpt>
      <trkpt lat="38.931016" lon="-1.532247">
        <ele>982.791300</ele>
        <time>2020-08-05T05:57:05.361Z</time>
      </trkpt>
      <trkpt lat="38.930933" lon="-1.532341">
        <ele>981.283257</ele>
        <time>2020-08-05T05:57:07.319Z</time>
      </trkpt>
      <trkpt lat="38.930864" lon="-1.532425">
        <ele>979.987694</ele>
        <time>2020-08-05T05:57:09.355Z</time>
      </trkpt>
      <trkpt lat="38.930831" lon="-1.532535">
        <ele>978.737371</ele>
        <time>2020-08-05T05:57:11.335Z</time>
      </trkpt>
      <trkpt lat="38.930740" lon="-1.532636">
        <ele>977.098334</ele>
        <time>2020-08-05T05:57:14.333Z</time>
      </trkpt>
      <trkpt lat="38.930652" lon="-1.532764">
        <ele>975.286691</ele>
        <time>2020-08-05T05:57:17.330Z</time>
      </trkpt>
      <trkpt lat="38.930592" lon="-1.532860">
        <ele>973.980688</ele>
        <time>2020-08-05T05:57:19.323Z</time>
      </trkpt>
      <trkpt lat="38.930531" lon="-1.532987">
        <ele>972.783056</ele>
        <time>2020-08-05T05:57:22.336Z</time>
      </trkpt>
      <trkpt lat="38.930423" lon="-1.533122">
        <ele>972.396081</ele>
        <time>2020-08-05T05:57:25.321Z</time>
      </trkpt>
      <trkpt lat="38.930389" lon="-1.533252">
        <ele>972.122007</ele>
        <time>2020-08-05T05:57:27.330Z</time>
      </trkpt>
      <trkpt lat="38.930293" lon="-1.533373">
        <ele>971.776633</ele>
        <time>2020-08-05T05:57:29.335Z</time>
      </trkpt>
      <trkpt lat="38.930204" lon="-1.533406">
        <ele>971.538684</ele>
        <time>2020-08-05T05:57:30.323Z</time>
      </trkpt>
      <trkpt lat="38.930106" lon="-1.533507">
        <ele>971.216017</ele>
        <time>2020-08-05T05:57:32.329Z</time>
      </trkpt>
      <trkpt lat="38.930000" lon="-1.533599">
        <ele>970.887465</ele>
        <time>2020-08-05T05:57:34.342Z</time>
      </trkpt>
      <trkpt lat="38.929936" lon="-1.533704">
        <ele>970.620899</ele>
        <time>2020-08-05T05:57:36.321Z</time>
      </trkpt>
      <trkpt lat="38.929849" lon="-1.533775">
        <ele>970.356175</ele>
        <time>2020-08-05T05:57:38.331Z</time>
      </trkpt>
      <trkpt lat="38.929779" lon="-1.533856">
        <ele>970.114233</ele>
        <time>2020-08-05T05:57:40.325Z</time>
      </trkpt>
      <trkpt lat="38.929683" lon="-1.533945">
        <ele>969.810179</ele>
        <time>2020-08-05T05:57:43.323Z</time>
      </trkpt>
      <trkpt lat="38.929587" lon="-1.534057">
        <ele>969.477147</ele>
        <time>2020-08-05T05:57:46.326Z</time>
      </trkpt>
      <trkpt lat="38.929464" lon="-1.534134">
        <ele>969.125701</ele>
        <time>2020-08-05T05:57:49.341Z</time>
      </trkpt>
      <trkpt lat="38.929377" lon="-1.534247">
        <ele>968.807989</ele>
        <time>2020-08-05T05:57:51.328Z</time>
      </trkpt>
      <trkpt lat="38.929273" lon="-1.534339">
        <ele>968.483681</ele>
        <time>2020-08-05T05:57:53.326Z</time>
      </trkpt>
      <trkpt lat="38.929165" lon="-1.534414">
        <ele>968.283833</ele>
        <time>2020-08-05T05:57:55.334Z</time>
      </trkpt>
      <trkpt lat="38.929060" lon="-1.534496">
        <ele>968.403654</ele>
        <time>2020-08-05T05:57:57.339Z</time>
      </trkpt>
      <trkpt lat="38.928979" lon="-1.534606">
        <ele>968.518569</ele>
        <time>2020-08-05T05:57:59.342Z</time>
      </trkpt>
      <trkpt lat="38.928948" lon="-1.534752">
        <ele>968.633390</ele>
        <time>2020-08-05T05:58:01.329Z</time>
      </trkpt>
      <trkpt lat="38.928980" lon="-1.534917">
        <ele>968.762406</ele>
        <time>2020-08-05T05:58:04.353Z</time>
      </trkpt>
      <trkpt lat="38.929030" lon="-1.535019">
        <ele>968.853875</ele>
        <time>2020-08-05T05:58:06.339Z</time>
      </trkpt>
      <trkpt lat="38.929119" lon="-1.535120">
        <ele>968.969660</ele>
        <time>2020-08-05T05:58:09.335Z</time>
      </trkpt>
      <trkpt lat="38.929234" lon="-1.535177">
        <ele>969.089865</ele>
        <time>2020-08-05T05:58:12.334Z</time>
      </trkpt>
      <trkpt lat="38.929334" lon="-1.535252">
        <ele>969.202779</ele>
        <time>2020-08-05T05:58:15.341Z</time>
      </trkpt>
      <trkpt lat="38.929437" lon="-1.535324">
        <ele>969.317124</ele>
        <time>2020-08-05T05:58:18.350Z</time>
      </trkpt>
      <trkpt lat="38.929537" lon="-1.535412">
        <ele>969.435316</ele>
        <time>2020-08-05T05:58:21.321Z</time>
      </trkpt>
      <trkpt lat="38.929630" lon="-1.535476">
        <ele>969.538196</ele>
        <time>2020-08-05T05:58:24.349Z</time>
      </trkpt>
      <trkpt lat="38.929713" lon="-1.535528">
        <ele>969.628246</ele>
        <time>2020-08-05T05:58:27.344Z</time>
      </trkpt>
      <trkpt lat="38.929899" lon="-1.535746">
        <ele>969.873728</ele>
        <time>2020-08-05T05:59:06.347Z</time>
      </trkpt>
      <trkpt lat="38.929900" lon="-1.535874">
        <ele>969.970844</ele>
        <time>2020-08-05T05:59:10.348Z</time>
      </trkpt>
      <trkpt lat="38.929856" lon="-1.535994">
        <ele>970.141635</ele>
        <time>2020-08-05T05:59:14.336Z</time>
      </trkpt>
      <trkpt lat="38.929817" lon="-1.536102">
        <ele>970.329062</ele>
        <time>2020-08-05T05:59:18.349Z</time>
      </trkpt>
      <trkpt lat="38.929784" lon="-1.536221">
        <ele>970.527926</ele>
        <time>2020-08-05T05:59:21.342Z</time>
      </trkpt>
      <trkpt lat="38.929727" lon="-1.536356">
        <ele>970.769713</ele>
        <time>2020-08-05T05:59:24.330Z</time>
      </trkpt>
      <trkpt lat="38.929699" lon="-1.536490">
        <ele>970.988119</ele>
        <time>2020-08-05T05:59:26.326Z</time>
      </trkpt>
      <trkpt lat="38.929646" lon="-1.536609">
        <ele>971.203965</ele>
        <time>2020-08-05T05:59:28.334Z</time>
      </trkpt>
      <trkpt lat="38.929600" lon="-1.536740">
        <ele>971.430208</ele>
        <time>2020-08-05T05:59:30.342Z</time>
      </trkpt>
      <trkpt lat="38.929540" lon="-1.536899">
        <ele>971.708383</ele>
        <time>2020-08-05T05:59:33.323Z</time>
      </trkpt>
      <trkpt lat="38.929494" lon="-1.537009">
        <ele>971.904968</ele>
        <time>2020-08-05T05:59:35.335Z</time>
      </trkpt>
      <trkpt lat="38.929447" lon="-1.537118">
        <ele>972.101140</ele>
        <time>2020-08-05T05:59:37.333Z</time>
      </trkpt>
      <trkpt lat="38.929407" lon="-1.537239">
        <ele>972.308092</ele>
        <time>2020-08-05T05:59:39.326Z</time>
      </trkpt>
      <trkpt lat="38.929361" lon="-1.537352">
        <ele>972.508848</ele>
        <time>2020-08-05T05:59:41.330Z</time>
      </trkpt>
      <trkpt lat="38.929310" lon="-1.537449">
        <ele>972.693141</ele>
        <time>2020-08-05T05:59:43.326Z</time>
      </trkpt>
      <trkpt lat="38.929254" lon="-1.537584">
        <ele>972.933970</ele>
        <time>2020-08-05T05:59:46.329Z</time>
      </trkpt>
      <trkpt lat="38.929196" lon="-1.537706">
        <ele>973.159034</ele>
        <time>2020-08-05T05:59:49.320Z</time>
      </trkpt>
      <trkpt lat="38.929142" lon="-1.537806">
        <ele>973.350653</ele>
        <time>2020-08-05T05:59:52.329Z</time>
      </trkpt>
      <trkpt lat="38.929062" lon="-1.537899">
        <ele>973.568909</ele>
        <time>2020-08-05T05:59:56.338Z</time>
      </trkpt>
      <trkpt lat="38.928994" lon="-1.537997">
        <ele>972.890582</ele>
        <time>2020-08-05T05:59:59.346Z</time>
      </trkpt>
      <trkpt lat="38.928945" lon="-1.538100">
        <ele>971.785455</ele>
        <time>2020-08-05T06:00:01.323Z</time>
      </trkpt>
      <trkpt lat="38.928910" lon="-1.538229">
        <ele>970.534900</ele>
        <time>2020-08-05T06:00:03.334Z</time>
      </trkpt>
      <trkpt lat="38.928844" lon="-1.538344">
        <ele>969.226785</ele>
        <time>2020-08-05T06:00:05.352Z</time>
      </trkpt>
      <trkpt lat="38.928783" lon="-1.538463">
        <ele>967.922302</ele>
        <time>2020-08-05T06:00:07.330Z</time>
      </trkpt>
      <trkpt lat="38.928714" lon="-1.538578">
        <ele>966.592926</ele>
        <time>2020-08-05T06:00:09.355Z</time>
      </trkpt>
      <trkpt lat="38.928647" lon="-1.538705">
        <ele>965.188326</ele>
        <time>2020-08-05T06:00:11.337Z</time>
      </trkpt>
      <trkpt lat="38.928581" lon="-1.538853">
        <ele>963.626801</ele>
        <time>2020-08-05T06:00:13.335Z</time>
      </trkpt>
      <trkpt lat="38.928516" lon="-1.539006">
        <ele>962.031080</ele>
        <time>2020-08-05T06:00:15.336Z</time>
      </trkpt>
      <trkpt lat="38.928478" lon="-1.539165">
        <ele>960.508534</ele>
        <time>2020-08-05T06:00:17.328Z</time>
      </trkpt>
      <trkpt lat="38.928411" lon="-1.539307">
        <ele>958.988339</ele>
        <time>2020-08-05T06:00:19.347Z</time>
      </trkpt>
      <trkpt lat="38.928357" lon="-1.539442">
        <ele>957.598825</ele>
        <time>2020-08-05T06:00:21.343Z</time>
      </trkpt>
      <trkpt lat="38.928296" lon="-1.539580">
        <ele>956.145957</ele>
        <time>2020-08-05T06:00:23.319Z</time>
      </trkpt>
      <trkpt lat="38.928236" lon="-1.539697">
        <ele>954.863229</ele>
        <time>2020-08-05T06:00:25.347Z</time>
      </trkpt>
      <trkpt lat="38.928173" lon="-1.539806">
        <ele>953.620251</ele>
        <time>2020-08-05T06:00:27.354Z</time>
      </trkpt>
      <trkpt lat="38.928105" lon="-1.539930">
        <ele>952.304109</ele>
        <time>2020-08-05T06:00:29.334Z</time>
      </trkpt>
      <trkpt lat="38.928055" lon="-1.540052">
        <ele>951.407611</ele>
        <time>2020-08-05T06:00:31.328Z</time>
      </trkpt>
      <trkpt lat="38.928019" lon="-1.540185">
        <ele>950.492090</ele>
        <time>2020-08-05T06:00:33.339Z</time>
      </trkpt>
      <trkpt lat="38.927975" lon="-1.540305">
        <ele>949.629615</ele>
        <time>2020-08-05T06:00:35.335Z</time>
      </trkpt>
      <trkpt lat="38.927929" lon="-1.540429">
        <ele>948.736482</ele>
        <time>2020-08-05T06:00:37.329Z</time>
      </trkpt>
      <trkpt lat="38.927884" lon="-1.540558">
        <ele>947.817351</ele>
        <time>2020-08-05T06:00:39.336Z</time>
      </trkpt>
      <trkpt lat="38.927821" lon="-1.540671">
        <ele>946.913518</ele>
        <time>2020-08-05T06:00:41.344Z</time>
      </trkpt>
      <trkpt lat="38.927770" lon="-1.540778">
        <ele>946.097687</ele>
        <time>2020-08-05T06:00:43.339Z</time>
      </trkpt>
      <trkpt lat="38.927723" lon="-1.540887">
        <ele>945.287464</ele>
        <time>2020-08-05T06:00:45.330Z</time>
      </trkpt>
      <trkpt lat="38.927715" lon="-1.541016">
        <ele>944.446129</ele>
        <time>2020-08-05T06:00:48.341Z</time>
      </trkpt>
      <trkpt lat="38.927794" lon="-1.541117">
        <ele>943.514972</ele>
        <time>2020-08-05T06:00:51.323Z</time>
      </trkpt>
      <trkpt lat="38.927869" lon="-1.541194">
        <ele>942.712810</ele>
        <time>2020-08-05T06:00:53.332Z</time>
      </trkpt>
      <trkpt lat="38.927962" lon="-1.541253">
        <ele>941.846095</ele>
        <time>2020-08-05T06:00:56.333Z</time>
      </trkpt>
      <trkpt lat="38.928034" lon="-1.541355">
        <ele>940.950657</ele>
        <time>2020-08-05T06:00:59.318Z</time>
      </trkpt>
      <trkpt lat="38.927996" lon="-1.541503">
        <ele>939.937408</ele>
        <time>2020-08-05T06:01:01.327Z</time>
      </trkpt>
      <trkpt lat="38.927991" lon="-1.541657">
        <ele>938.935333</ele>
        <time>2020-08-05T06:01:03.353Z</time>
      </trkpt>
      <trkpt lat="38.927983" lon="-1.541806">
        <ele>937.964330</ele>
        <time>2020-08-05T06:01:05.334Z</time>
      </trkpt>
      <trkpt lat="38.927981" lon="-1.541970">
        <ele>937.458531</ele>
        <time>2020-08-05T06:01:07.350Z</time>
      </trkpt>
      <trkpt lat="38.927983" lon="-1.542124">
        <ele>937.473136</ele>
        <time>2020-08-05T06:01:09.338Z</time>
      </trkpt>
      <trkpt lat="38.927981" lon="-1.542289">
        <ele>937.488784</ele>
        <time>2020-08-05T06:01:11.338Z</time>
      </trkpt>
      <trkpt lat="38.927978" lon="-1.542486">
        <ele>937.507468</ele>
        <time>2020-08-05T06:01:13.334Z</time>
      </trkpt>
      <trkpt lat="38.927998" lon="-1.542602">
        <ele>937.518734</ele>
        <time>2020-08-05T06:01:15.323Z</time>
      </trkpt>
      <trkpt lat="38.927965" lon="-1.542711">
        <ele>937.529825</ele>
        <time>2020-08-05T06:01:17.322Z</time>
      </trkpt>
      <trkpt lat="38.927960" lon="-1.542874">
        <ele>937.545293</ele>
        <time>2020-08-05T06:01:19.319Z</time>
      </trkpt>
      <trkpt lat="38.927954" lon="-1.543015">
        <ele>937.558683</ele>
        <time>2020-08-05T06:01:21.325Z</time>
      </trkpt>
      <trkpt lat="38.927962" lon="-1.543204">
        <ele>937.576632</ele>
        <time>2020-08-05T06:01:23.332Z</time>
      </trkpt>
      <trkpt lat="38.927956" lon="-1.543344">
        <ele>937.589927</ele>
        <time>2020-08-05T06:01:25.340Z</time>
      </trkpt>
      <trkpt lat="38.927971" lon="-1.543487">
        <ele>937.603610</ele>
        <time>2020-08-05T06:01:27.327Z</time>
      </trkpt>
      <trkpt lat="38.927971" lon="-1.543608">
        <ele>937.615083</ele>
        <time>2020-08-05T06:01:29.329Z</time>
      </trkpt>
      <trkpt lat="38.927961" lon="-1.543742">
        <ele>937.627848</ele>
        <time>2020-08-05T06:01:31.335Z</time>
      </trkpt>
      <trkpt lat="38.927956" lon="-1.543891">
        <ele>937.641990</ele>
        <time>2020-08-05T06:01:33.327Z</time>
      </trkpt>
      <trkpt lat="38.927935" lon="-1.544028">
        <ele>937.655230</ele>
        <time>2020-08-05T06:01:35.323Z</time>
      </trkpt>
      <trkpt lat="38.927919" lon="-1.544205">
        <ele>937.934827</ele>
        <time>2020-08-05T06:01:37.329Z</time>
      </trkpt>
      <trkpt lat="38.927921" lon="-1.544364">
        <ele>939.589955</ele>
        <time>2020-08-05T06:01:39.349Z</time>
      </trkpt>
      <trkpt lat="38.927928" lon="-1.544519">
        <ele>941.205949</ele>
        <time>2020-08-05T06:01:41.341Z</time>
      </trkpt>
      <trkpt lat="38.927931" lon="-1.544661">
        <ele>942.684464</ele>
        <time>2020-08-05T06:01:43.334Z</time>
      </trkpt>
      <trkpt lat="38.927931" lon="-1.544792">
        <ele>944.047944</ele>
        <time>2020-08-05T06:01:45.338Z</time>
      </trkpt>
      <trkpt lat="38.927921" lon="-1.544963">
        <ele>945.832776</ele>
        <time>2020-08-05T06:01:48.328Z</time>
      </trkpt>
      <trkpt lat="38.927982" lon="-1.545081">
        <ele>947.307390</ele>
        <time>2020-08-05T06:01:52.351Z</time>
      </trkpt>
      <trkpt lat="38.928079" lon="-1.545125">
        <ele>948.683613</ele>
        <time>2020-08-05T06:01:55.332Z</time>
      </trkpt>
      <trkpt lat="38.928196" lon="-1.545148">
        <ele>950.267189</ele>
        <time>2020-08-05T06:01:58.330Z</time>
      </trkpt>
      <trkpt lat="38.928306" lon="-1.545183">
        <ele>951.783325</ele>
        <time>2020-08-05T06:02:01.349Z</time>
      </trkpt>
      <trkpt lat="38.928421" lon="-1.545225">
        <ele>953.382838</ele>
        <time>2020-08-05T06:02:04.336Z</time>
      </trkpt>
      <trkpt lat="38.928535" lon="-1.545261">
        <ele>954.953427</ele>
        <time>2020-08-05T06:02:07.346Z</time>
      </trkpt>
      <trkpt lat="38.928644" lon="-1.545292">
        <ele>956.447036</ele>
        <time>2020-08-05T06:02:10.356Z</time>
      </trkpt>
      <trkpt lat="38.928756" lon="-1.545322">
        <ele>957.977702</ele>
        <time>2020-08-05T06:02:13.332Z</time>
      </trkpt>
      <trkpt lat="38.928870" lon="-1.545356">
        <ele>959.543455</ele>
        <time>2020-08-05T06:02:16.344Z</time>
      </trkpt>
      <trkpt lat="38.928993" lon="-1.545396">
        <ele>961.240953</ele>
        <time>2020-08-05T06:02:19.341Z</time>
      </trkpt>
      <trkpt lat="38.929095" lon="-1.545421">
        <ele>962.478765</ele>
        <time>2020-08-05T06:02:21.337Z</time>
      </trkpt>
      <trkpt lat="38.929185" lon="-1.545448">
        <ele>963.506228</ele>
        <time>2020-08-05T06:02:23.339Z</time>
      </trkpt>
      <trkpt lat="38.929300" lon="-1.545484">
        <ele>964.822107</ele>
        <time>2020-08-05T06:02:26.326Z</time>
      </trkpt>
      <trkpt lat="38.929416" lon="-1.545511">
        <ele>966.132709</ele>
        <time>2020-08-05T06:02:29.331Z</time>
      </trkpt>
      <trkpt lat="38.929499" lon="-1.545570">
        <ele>967.187149</ele>
        <time>2020-08-05T06:02:31.336Z</time>
      </trkpt>
      <trkpt lat="38.929593" lon="-1.545570">
        <ele>968.232195</ele>
        <time>2020-08-05T06:02:33.334Z</time>
      </trkpt>
      <trkpt lat="38.929700" lon="-1.545598">
        <ele>969.446167</ele>
        <time>2020-08-05T06:02:36.347Z</time>
      </trkpt>
      <trkpt lat="38.929799" lon="-1.545639">
        <ele>970.602510</ele>
        <time>2020-08-05T06:02:39.324Z</time>
      </trkpt>
      <trkpt lat="38.929918" lon="-1.545666">
        <ele>971.945943</ele>
        <time>2020-08-05T06:02:42.326Z</time>
      </trkpt>
      <trkpt lat="38.930010" lon="-1.545690">
        <ele>972.989603</ele>
        <time>2020-08-05T06:02:44.325Z</time>
      </trkpt>
      <trkpt lat="38.930101" lon="-1.545702">
        <ele>974.006606</ele>
        <time>2020-08-05T06:02:46.333Z</time>
      </trkpt>
      <trkpt lat="38.930213" lon="-1.545700">
        <ele>975.251888</ele>
        <time>2020-08-05T06:02:49.331Z</time>
      </trkpt>
      <trkpt lat="38.930316" lon="-1.545669">
        <ele>976.427958</ele>
        <time>2020-08-05T06:02:52.329Z</time>
      </trkpt>
      <trkpt lat="38.930420" lon="-1.545714">
        <ele>977.647921</ele>
        <time>2020-08-05T06:02:55.350Z</time>
      </trkpt>
      <trkpt lat="38.930502" lon="-1.545780">
        <ele>978.723508</ele>
        <time>2020-08-05T06:02:59.336Z</time>
      </trkpt>
      <trkpt lat="38.930618" lon="-1.545823">
        <ele>980.065688</ele>
        <time>2020-08-05T06:03:03.343Z</time>
      </trkpt>
      <trkpt lat="38.930720" lon="-1.545856">
        <ele>981.235037</ele>
        <time>2020-08-05T06:03:06.331Z</time>
      </trkpt>
      <trkpt lat="38.930799" lon="-1.545929">
        <ele>981.332815</ele>
        <time>2020-08-05T06:03:09.330Z</time>
      </trkpt>
      <trkpt lat="38.930843" lon="-1.546083">
        <ele>980.369323</ele>
        <time>2020-08-05T06:03:13.339Z</time>
      </trkpt>
      <trkpt lat="38.930787" lon="-1.546225">
        <ele>979.434336</ele>
        <time>2020-08-05T06:03:14.334Z</time>
      </trkpt>
      <trkpt lat="38.930726" lon="-1.546324">
        <ele>978.692634</ele>
        <time>2020-08-05T06:03:16.353Z</time>
      </trkpt>
      <trkpt lat="38.930684" lon="-1.546436">
        <ele>977.962436</ele>
        <time>2020-08-05T06:03:18.332Z</time>
      </trkpt>
      <trkpt lat="38.930590" lon="-1.546578">
        <ele>976.867410</ele>
        <time>2020-08-05T06:03:21.325Z</time>
      </trkpt>
      <trkpt lat="38.930526" lon="-1.546669">
        <ele>976.146944</ele>
        <time>2020-08-05T06:03:23.318Z</time>
      </trkpt>
      <trkpt lat="38.930482" lon="-1.546780">
        <ele>975.415300</ele>
        <time>2020-08-05T06:03:25.337Z</time>
      </trkpt>
      <trkpt lat="38.930432" lon="-1.546927">
        <ele>974.473070</ele>
        <time>2020-08-05T06:03:28.330Z</time>
      </trkpt>
      <trkpt lat="38.930372" lon="-1.547013">
        <ele>973.794631</ele>
        <time>2020-08-05T06:03:30.347Z</time>
      </trkpt>
      <trkpt lat="38.930325" lon="-1.547116">
        <ele>973.093335</ele>
        <time>2020-08-05T06:03:32.333Z</time>
      </trkpt>
      <trkpt lat="38.930204" lon="-1.547201">
        <ele>972.052339</ele>
        <time>2020-08-05T06:03:34.345Z</time>
      </trkpt>
      <trkpt lat="38.930129" lon="-1.547311">
        <ele>971.193303</ele>
        <time>2020-08-05T06:03:36.331Z</time>
      </trkpt>
      <trkpt lat="38.930018" lon="-1.547383">
        <ele>970.254662</ele>
        <time>2020-08-05T06:03:38.331Z</time>
      </trkpt>
      <trkpt lat="38.930000" lon="-1.547552">
        <ele>969.252880</ele>
        <time>2020-08-05T06:03:41.330Z</time>
      </trkpt>
      <trkpt lat="38.929914" lon="-1.547639">
        <ele>968.426681</ele>
        <time>2020-08-05T06:03:43.343Z</time>
      </trkpt>
      <trkpt lat="38.929843" lon="-1.547756">
        <ele>966.715353</ele>
        <time>2020-08-05T06:03:45.341Z</time>
      </trkpt>
      <trkpt lat="38.929775" lon="-1.547901">
        <ele>964.321101</ele>
        <time>2020-08-05T06:03:48.332Z</time>
      </trkpt>
      <trkpt lat="38.929714" lon="-1.548010">
        <ele>962.422287</ele>
        <time>2020-08-05T06:03:50.338Z</time>
      </trkpt>
      <trkpt lat="38.929672" lon="-1.548125">
        <ele>960.625743</ele>
        <time>2020-08-05T06:03:52.343Z</time>
      </trkpt>
      <trkpt lat="38.929619" lon="-1.548248">
        <ele>958.637366</ele>
        <time>2020-08-05T06:03:54.339Z</time>
      </trkpt>
      <trkpt lat="38.929567" lon="-1.548376">
        <ele>956.595327</ele>
        <time>2020-08-05T06:03:56.334Z</time>
      </trkpt>
      <trkpt lat="38.929514" lon="-1.548496">
        <ele>954.643950</ele>
        <time>2020-08-05T06:03:58.345Z</time>
      </trkpt>
      <trkpt lat="38.929463" lon="-1.548620">
        <ele>952.660438</ele>
        <time>2020-08-05T06:03:59.943Z</time>
      </trkpt>
      <trkpt lat="38.929410" lon="-1.548751">
        <ele>950.572374</ele>
        <time>2020-08-05T06:04:01.939Z</time>
      </trkpt>
      <trkpt lat="38.929341" lon="-1.548862">
        <ele>948.563101</ele>
        <time>2020-08-05T06:04:03.933Z</time>
      </trkpt>
      <trkpt lat="38.929268" lon="-1.548970">
        <ele>946.539863</ele>
        <time>2020-08-05T06:04:05.945Z</time>
      </trkpt>
      <trkpt lat="38.929239" lon="-1.549095">
        <ele>944.695266</ele>
        <time>2020-08-05T06:04:07.940Z</time>
      </trkpt>
      <trkpt lat="38.929189" lon="-1.549207">
        <ele>942.869168</ele>
        <time>2020-08-05T06:04:09.958Z</time>
      </trkpt>
      <trkpt lat="38.929117" lon="-1.549291">
        <ele>941.101658</ele>
        <time>2020-08-05T06:04:11.945Z</time>
      </trkpt>
      <trkpt lat="38.929071" lon="-1.549396">
        <ele>939.397550</ele>
        <time>2020-08-05T06:04:13.943Z</time>
      </trkpt>
      <trkpt lat="38.928995" lon="-1.549504">
        <ele>937.338127</ele>
        <time>2020-08-05T06:04:15.939Z</time>
      </trkpt>
      <trkpt lat="38.928965" lon="-1.549647">
        <ele>935.562866</ele>
        <time>2020-08-05T06:04:17.938Z</time>
      </trkpt>
      <trkpt lat="38.928906" lon="-1.549777">
        <ele>936.641803</ele>
        <time>2020-08-05T06:04:19.947Z</time>
      </trkpt>
      <trkpt lat="38.928856" lon="-1.549904">
        <ele>937.662184</ele>
        <time>2020-08-05T06:04:21.944Z</time>
      </trkpt>
      <trkpt lat="38.928823" lon="-1.550038">
        <ele>938.669779</ele>
        <time>2020-08-05T06:04:23.949Z</time>
      </trkpt>
      <trkpt lat="38.928768" lon="-1.550148">
        <ele>939.607174</ele>
        <time>2020-08-05T06:04:25.934Z</time>
      </trkpt>
      <trkpt lat="38.928704" lon="-1.550264">
        <ele>940.626657</ele>
        <time>2020-08-05T06:04:27.942Z</time>
      </trkpt>
      <trkpt lat="38.928639" lon="-1.550404">
        <ele>941.795437</ele>
        <time>2020-08-05T06:04:29.950Z</time>
      </trkpt>
      <trkpt lat="38.928585" lon="-1.550530">
        <ele>942.826703</ele>
        <time>2020-08-05T06:04:31.955Z</time>
      </trkpt>
      <trkpt lat="38.928539" lon="-1.550666">
        <ele>943.889821</ele>
        <time>2020-08-05T06:04:33.945Z</time>
      </trkpt>
      <trkpt lat="38.928456" lon="-1.550788">
        <ele>945.051680</ele>
        <time>2020-08-05T06:04:35.943Z</time>
      </trkpt>
      <trkpt lat="38.928395" lon="-1.550921">
        <ele>946.158497</ele>
        <time>2020-08-05T06:04:37.933Z</time>
      </trkpt>
      <trkpt lat="38.928330" lon="-1.551037">
        <ele>947.183342</ele>
        <time>2020-08-05T06:04:39.933Z</time>
      </trkpt>
      <trkpt lat="38.928272" lon="-1.551151">
        <ele>948.159842</ele>
        <time>2020-08-05T06:04:41.961Z</time>
      </trkpt>
      <trkpt lat="38.928210" lon="-1.551270">
        <ele>949.186578</ele>
        <time>2020-08-05T06:04:43.942Z</time>
      </trkpt>
      <trkpt lat="38.928149" lon="-1.551380">
        <ele>950.154991</ele>
        <time>2020-08-05T06:04:45.943Z</time>
      </trkpt>
      <trkpt lat="38.928092" lon="-1.551516">
        <ele>951.262441</ele>
        <time>2020-08-05T06:04:47.934Z</time>
      </trkpt>
      <trkpt lat="38.928042" lon="-1.551658">
        <ele>952.590558</ele>
        <time>2020-08-05T06:04:49.925Z</time>
      </trkpt>
      <trkpt lat="38.927998" lon="-1.551797">
        <ele>954.314926</ele>
        <time>2020-08-05T06:04:51.925Z</time>
      </trkpt>
      <trkpt lat="38.927948" lon="-1.551914">
        <ele>955.848833</ele>
        <time>2020-08-05T06:04:53.928Z</time>
      </trkpt>
      <trkpt lat="38.927898" lon="-1.552050">
        <ele>957.577293</ele>
        <time>2020-08-05T06:04:55.926Z</time>
      </trkpt>
      <trkpt lat="38.927874" lon="-1.552177">
        <ele>959.079051</ele>
        <time>2020-08-05T06:04:57.938Z</time>
      </trkpt>
      <trkpt lat="38.927815" lon="-1.552295">
        <ele>960.690862</ele>
        <time>2020-08-05T06:04:59.935Z</time>
      </trkpt>
      <trkpt lat="38.927756" lon="-1.552420">
        <ele>962.370902</ele>
        <time>2020-08-05T06:05:01.928Z</time>
      </trkpt>
      <trkpt lat="38.927727" lon="-1.552548">
        <ele>963.902820</ele>
        <time>2020-08-05T06:05:03.925Z</time>
      </trkpt>
      <trkpt lat="38.927651" lon="-1.552645">
        <ele>965.484751</ele>
        <time>2020-08-05T06:05:05.935Z</time>
      </trkpt>
      <trkpt lat="38.927591" lon="-1.552741">
        <ele>966.899771</ele>
        <time>2020-08-05T06:05:07.922Z</time>
      </trkpt>
      <trkpt lat="38.927535" lon="-1.552842">
        <ele>968.324940</ele>
        <time>2020-08-05T06:05:09.934Z</time>
      </trkpt>
      <trkpt lat="38.927467" lon="-1.552986">
        <ele>970.260596</ele>
        <time>2020-08-05T06:05:12.948Z</time>
      </trkpt>
      <trkpt lat="38.927388" lon="-1.553074">
        <ele>971.804658</ele>
        <time>2020-08-05T06:05:14.942Z</time>
      </trkpt>
      <trkpt lat="38.927390" lon="-1.553190">
        <ele>973.137915</ele>
        <time>2020-08-05T06:05:16.937Z</time>
      </trkpt>
      <trkpt lat="38.927353" lon="-1.553378">
        <ele>975.366239</ele>
        <time>2020-08-05T06:05:17.944Z</time>
      </trkpt>
      <trkpt lat="38.927451" lon="-1.553477">
        <ele>977.207284</ele>
        <time>2020-08-05T06:05:19.946Z</time>
      </trkpt>
      <trkpt lat="38.927396" lon="-1.553591">
        <ele>978.601063</ele>
        <time>2020-08-05T06:05:21.950Z</time>
      </trkpt>
      <trkpt lat="38.927288" lon="-1.553647">
        <ele>978.641086</ele>
        <time>2020-08-05T06:05:23.945Z</time>
      </trkpt>
      <trkpt lat="38.927210" lon="-1.553733">
        <ele>978.676403</ele>
        <time>2020-08-05T06:05:25.951Z</time>
      </trkpt>
      <trkpt lat="38.927165" lon="-1.553857">
        <ele>978.712986</ele>
        <time>2020-08-05T06:05:27.932Z</time>
      </trkpt>
      <trkpt lat="38.927133" lon="-1.553994">
        <ele>978.751230</ele>
        <time>2020-08-05T06:05:29.929Z</time>
      </trkpt>
      <trkpt lat="38.927045" lon="-1.554094">
        <ele>978.791597</ele>
        <time>2020-08-05T06:05:31.920Z</time>
      </trkpt>
      <trkpt lat="38.927023" lon="-1.554213">
        <ele>978.824299</ele>
        <time>2020-08-05T06:05:33.944Z</time>
      </trkpt>
      <trkpt lat="38.926987" lon="-1.554356">
        <ele>978.864484</ele>
        <time>2020-08-05T06:05:35.940Z</time>
      </trkpt>
      <trkpt lat="38.926949" lon="-1.554472">
        <ele>978.898136</ele>
        <time>2020-08-05T06:05:37.945Z</time>
      </trkpt>
      <trkpt lat="38.926904" lon="-1.554588">
        <ele>978.932792</ele>
        <time>2020-08-05T06:05:39.944Z</time>
      </trkpt>
      <trkpt lat="38.926844" lon="-1.554711">
        <ele>978.971608</ele>
        <time>2020-08-05T06:05:41.947Z</time>
      </trkpt>
      <trkpt lat="38.926797" lon="-1.554876">
        <ele>979.018588</ele>
        <time>2020-08-05T06:05:44.935Z</time>
      </trkpt>
      <trkpt lat="38.926683" lon="-1.554965">
        <ele>979.064427</ele>
        <time>2020-08-05T06:05:47.937Z</time>
      </trkpt>
      <trkpt lat="38.926646" lon="-1.555095">
        <ele>979.101438</ele>
        <time>2020-08-05T06:05:49.940Z</time>
      </trkpt>
      <trkpt lat="38.926583" lon="-1.555182">
        <ele>979.133216</ele>
        <time>2020-08-05T06:05:51.941Z</time>
      </trkpt>
      <trkpt lat="38.926542" lon="-1.555299">
        <ele>979.167525</ele>
        <time>2020-08-05T06:05:53.944Z</time>
      </trkpt>
      <trkpt lat="38.926497" lon="-1.555413">
        <ele>979.201704</ele>
        <time>2020-08-05T06:05:55.935Z</time>
      </trkpt>
      <trkpt lat="38.926440" lon="-1.555526">
        <ele>978.441972</ele>
        <time>2020-08-05T06:05:57.940Z</time>
      </trkpt>
      <trkpt lat="38.926372" lon="-1.555633">
        <ele>977.143437</ele>
        <time>2020-08-05T06:05:59.944Z</time>
      </trkpt>
      <trkpt lat="38.926314" lon="-1.555764">
        <ele>975.726803</ele>
        <time>2020-08-05T06:06:01.952Z</time>
      </trkpt>
      <trkpt lat="38.926274" lon="-1.555878">
        <ele>974.551436</ele>
        <time>2020-08-05T06:06:03.937Z</time>
      </trkpt>
      <trkpt lat="38.926238" lon="-1.556007">
        <ele>973.263379</ele>
        <time>2020-08-05T06:06:05.938Z</time>
      </trkpt>
      <trkpt lat="38.926188" lon="-1.556133">
        <ele>971.934001</ele>
        <time>2020-08-05T06:06:07.950Z</time>
      </trkpt>
      <trkpt lat="38.926152" lon="-1.556271">
        <ele>970.566025</ele>
        <time>2020-08-05T06:06:09.942Z</time>
      </trkpt>
      <trkpt lat="38.926092" lon="-1.556366">
        <ele>969.415968</ele>
        <time>2020-08-05T06:06:11.931Z</time>
      </trkpt>
      <trkpt lat="38.926030" lon="-1.556480">
        <ele>968.108676</ele>
        <time>2020-08-05T06:06:13.944Z</time>
      </trkpt>
      <trkpt lat="38.925982" lon="-1.556606">
        <ele>966.790099</ele>
        <time>2020-08-05T06:06:15.948Z</time>
      </trkpt>
      <trkpt lat="38.925929" lon="-1.556734">
        <ele>965.427297</ele>
        <time>2020-08-05T06:06:17.949Z</time>
      </trkpt>
      <trkpt lat="38.925880" lon="-1.556867">
        <ele>964.044201</ele>
        <time>2020-08-05T06:06:19.946Z</time>
      </trkpt>
      <trkpt lat="38.925584" lon="-1.556978">
        <ele>960.319137</ele>
        <time>2020-08-05T06:06:24.987Z</time>
      </trkpt>
      <trkpt lat="38.925650" lon="-1.557102">
        <ele>958.907051</ele>
        <time>2020-08-05T06:06:25.943Z</time>
      </trkpt>
      <trkpt lat="38.925617" lon="-1.557211">
        <ele>957.807762</ele>
        <time>2020-08-05T06:06:27.952Z</time>
      </trkpt>
      <trkpt lat="38.925475" lon="-1.557267">
        <ele>956.072873</ele>
        <time>2020-08-05T06:06:29.952Z</time>
      </trkpt>
      <trkpt lat="38.925418" lon="-1.557362">
        <ele>954.990888</ele>
        <time>2020-08-05T06:06:31.930Z</time>
      </trkpt>
      <trkpt lat="38.925333" lon="-1.557435">
        <ele>953.805812</ele>
        <time>2020-08-05T06:06:33.941Z</time>
      </trkpt>
      <trkpt lat="38.925297" lon="-1.557552">
        <ele>952.671094</ele>
        <time>2020-08-05T06:06:35.944Z</time>
      </trkpt>
      <trkpt lat="38.925259" lon="-1.557669">
        <ele>951.527645</ele>
        <time>2020-08-05T06:06:37.948Z</time>
      </trkpt>
      <trkpt lat="38.925223" lon="-1.557781">
        <ele>950.434733</ele>
        <time>2020-08-05T06:06:39.941Z</time>
      </trkpt>
      <trkpt lat="38.925201" lon="-1.558255">
        <ele>946.152272</ele>
        <time>2020-08-05T06:06:43.955Z</time>
      </trkpt>
      <trkpt lat="38.925448" lon="-1.558616">
        <ele>941.816510</ele>
        <time>2020-08-05T06:06:44.922Z</time>
      </trkpt>
      <trkpt lat="38.925416" lon="-1.558743">
        <ele>940.612564</ele>
        <time>2020-08-05T06:06:45.946Z</time>
      </trkpt>
      <trkpt lat="38.925516" lon="-1.558863">
        <ele>939.026646</ele>
        <time>2020-08-05T06:06:46.930Z</time>
      </trkpt>
      <trkpt lat="38.925468" lon="-1.559003">
        <ele>937.646855</ele>
        <time>2020-08-05T06:06:49.946Z</time>
      </trkpt>
      <trkpt lat="38.925436" lon="-1.559179">
        <ele>936.490225</ele>
        <time>2020-08-05T06:06:51.926Z</time>
      </trkpt>
      <trkpt lat="38.925389" lon="-1.559399">
        <ele>936.007994</ele>
        <time>2020-08-05T06:06:53.935Z</time>
      </trkpt>
      <trkpt lat="38.925368" lon="-1.559584">
        <ele>935.612817</ele>
        <time>2020-08-05T06:06:55.955Z</time>
      </trkpt>
      <trkpt lat="38.925348" lon="-1.559758">
        <ele>935.241039</ele>
        <time>2020-08-05T06:06:57.945Z</time>
      </trkpt>
      <trkpt lat="38.925348" lon="-1.559934">
        <ele>934.869026</ele>
        <time>2020-08-05T06:06:59.933Z</time>
      </trkpt>
      <trkpt lat="38.925317" lon="-1.560119">
        <ele>934.469022</ele>
        <time>2020-08-05T06:07:01.941Z</time>
      </trkpt>
      <trkpt lat="38.925320" lon="-1.560283">
        <ele>934.122277</ele>
        <time>2020-08-05T06:07:03.938Z</time>
      </trkpt>
      <trkpt lat="38.925304" lon="-1.560467">
        <ele>933.730932</ele>
        <time>2020-08-05T06:07:05.944Z</time>
      </trkpt>
      <trkpt lat="38.925269" lon="-1.560636">
        <ele>933.361274</ele>
        <time>2020-08-05T06:07:07.937Z</time>
      </trkpt>
      <trkpt lat="38.925259" lon="-1.560768">
        <ele>933.080944</ele>
        <time>2020-08-05T06:07:09.930Z</time>
      </trkpt>
      <trkpt lat="38.925218" lon="-1.560943">
        <ele>932.694635</ele>
        <time>2020-08-05T06:07:11.933Z</time>
      </trkpt>
      <trkpt lat="38.925189" lon="-1.561115">
        <ele>932.322636</ele>
        <time>2020-08-05T06:07:13.945Z</time>
      </trkpt>
      <trkpt lat="38.925152" lon="-1.561269">
        <ele>931.981954</ele>
        <time>2020-08-05T06:07:15.940Z</time>
      </trkpt>
      <trkpt lat="38.925099" lon="-1.561420">
        <ele>931.859525</ele>
        <time>2020-08-05T06:07:17.948Z</time>
      </trkpt>
      <trkpt lat="38.925057" lon="-1.561580">
        <ele>932.200400</ele>
        <time>2020-08-05T06:07:19.951Z</time>
      </trkpt>
      <trkpt lat="38.925002" lon="-1.561704">
        <ele>932.488538</ele>
        <time>2020-08-05T06:07:21.951Z</time>
      </trkpt>
      <trkpt lat="38.924947" lon="-1.561868">
        <ele>932.849047</ele>
        <time>2020-08-05T06:07:23.949Z</time>
      </trkpt>
      <trkpt lat="38.924897" lon="-1.562065">
        <ele>933.267350</ele>
        <time>2020-08-05T06:07:26.956Z</time>
      </trkpt>
      <trkpt lat="38.924854" lon="-1.562190">
        <ele>933.543250</ele>
        <time>2020-08-05T06:07:28.957Z</time>
      </trkpt>
      <trkpt lat="38.924816" lon="-1.562362">
        <ele>933.904188</ele>
        <time>2020-08-05T06:07:30.961Z</time>
      </trkpt>
      <trkpt lat="38.924790" lon="-1.562527">
        <ele>934.244030</ele>
        <time>2020-08-05T06:07:32.947Z</time>
      </trkpt>
      <trkpt lat="38.924743" lon="-1.562684">
        <ele>934.583614</ele>
        <time>2020-08-05T06:07:34.953Z</time>
      </trkpt>
      <trkpt lat="38.924698" lon="-1.562852">
        <ele>934.942287</ele>
        <time>2020-08-05T06:07:36.940Z</time>
      </trkpt>
      <trkpt lat="38.924654" lon="-1.563012">
        <ele>935.284858</ele>
        <time>2020-08-05T06:07:38.944Z</time>
      </trkpt>
      <trkpt lat="38.924607" lon="-1.563166">
        <ele>935.618797</ele>
        <time>2020-08-05T06:07:40.951Z</time>
      </trkpt>
      <trkpt lat="38.924559" lon="-1.563300">
        <ele>935.916595</ele>
        <time>2020-08-05T06:07:42.949Z</time>
      </trkpt>
      <trkpt lat="38.924526" lon="-1.563454">
        <ele>936.239046</ele>
        <time>2020-08-05T06:07:44.937Z</time>
      </trkpt>
      <trkpt lat="38.924502" lon="-1.563583">
        <ele>936.880774</ele>
        <time>2020-08-05T06:07:46.954Z</time>
      </trkpt>
      <trkpt lat="38.924458" lon="-1.563741">
        <ele>938.604998</ele>
        <time>2020-08-05T06:07:48.947Z</time>
      </trkpt>
      <trkpt lat="38.924440" lon="-1.563876">
        <ele>940.012266</ele>
        <time>2020-08-05T06:07:50.951Z</time>
      </trkpt>
      <trkpt lat="38.924387" lon="-1.563971">
        <ele>941.213366</ele>
        <time>2020-08-05T06:07:52.956Z</time>
      </trkpt>
      <trkpt lat="38.924344" lon="-1.564095">
        <ele>942.608227</ele>
        <time>2020-08-05T06:07:55.946Z</time>
      </trkpt>
      <trkpt lat="38.924298" lon="-1.564242">
        <ele>944.236167</ele>
        <time>2020-08-05T06:07:58.964Z</time>
      </trkpt>
      <trkpt lat="38.924242" lon="-1.564374">
        <ele>945.780935</ele>
        <time>2020-08-05T06:08:01.950Z</time>
      </trkpt>
      <trkpt lat="38.924177" lon="-1.564513">
        <ele>947.447220</ele>
        <time>2020-08-05T06:08:04.940Z</time>
      </trkpt>
      <trkpt lat="38.924164" lon="-1.564631">
        <ele>948.671700</ele>
        <time>2020-08-05T06:08:06.963Z</time>
      </trkpt>
      <trkpt lat="38.924127" lon="-1.564772">
        <ele>950.200588</ele>
        <time>2020-08-05T06:08:08.946Z</time>
      </trkpt>
      <trkpt lat="38.924097" lon="-1.564888">
        <ele>951.456553</ele>
        <time>2020-08-05T06:08:10.948Z</time>
      </trkpt>
      <trkpt lat="38.924029" lon="-1.565039">
        <ele>953.249168</ele>
        <time>2020-08-05T06:08:13.936Z</time>
      </trkpt>
      <trkpt lat="38.923980" lon="-1.565151">
        <ele>954.569384</ele>
        <time>2020-08-05T06:08:15.940Z</time>
      </trkpt>
      <trkpt lat="38.923951" lon="-1.565263">
        <ele>955.782186</ele>
        <time>2020-08-05T06:08:17.933Z</time>
      </trkpt>
      <trkpt lat="38.923975" lon="-1.565421">
        <ele>957.436206</ele>
        <time>2020-08-05T06:08:20.949Z</time>
      </trkpt>
      <trkpt lat="38.924006" lon="-1.565592">
        <ele>959.240211</ele>
        <time>2020-08-05T06:08:23.956Z</time>
      </trkpt>
      <trkpt lat="38.924007" lon="-1.565777">
        <ele>959.581652</ele>
        <time>2020-08-05T06:08:25.939Z</time>
      </trkpt>
      <trkpt lat="38.924065" lon="-1.565884">
        <ele>958.771332</ele>
        <time>2020-08-05T06:08:27.943Z</time>
      </trkpt>
      <trkpt lat="38.924113" lon="-1.565989">
        <ele>958.014608</ele>
        <time>2020-08-05T06:08:30.952Z</time>
      </trkpt>
      <trkpt lat="38.924139" lon="-1.566111">
        <ele>957.228623</ele>
        <time>2020-08-05T06:08:32.951Z</time>
      </trkpt>
      <trkpt lat="38.924143" lon="-1.566245">
        <ele>956.395390</ele>
        <time>2020-08-05T06:08:35.937Z</time>
      </trkpt>
      <trkpt lat="38.924193" lon="-1.566342">
        <ele>955.672381</ele>
        <time>2020-08-05T06:08:37.956Z</time>
      </trkpt>
      <trkpt lat="38.924250" lon="-1.566432">
        <ele>954.951283</ele>
        <time>2020-08-05T06:08:39.931Z</time>
      </trkpt>
      <trkpt lat="38.924334" lon="-1.566522">
        <ele>954.077884</ele>
        <time>2020-08-05T06:08:42.942Z</time>
      </trkpt>
      <trkpt lat="38.924379" lon="-1.566701">
        <ele>952.909027</ele>
        <time>2020-08-05T06:08:45.937Z</time>
      </trkpt>
      <trkpt lat="38.924405" lon="-1.566833">
        <ele>952.062958</ele>
        <time>2020-08-05T06:08:47.946Z</time>
      </trkpt>
      <trkpt lat="38.924415" lon="-1.566982">
        <ele>951.133699</ele>
        <time>2020-08-05T06:08:50.936Z</time>
      </trkpt>
      <trkpt lat="38.924441" lon="-1.567144">
        <ele>950.105906</ele>
        <time>2020-08-05T06:08:53.947Z</time>
      </trkpt>
      <trkpt lat="38.924461" lon="-1.567305">
        <ele>949.092851</ele>
        <time>2020-08-05T06:08:55.944Z</time>
      </trkpt>
      <trkpt lat="38.924500" lon="-1.567484">
        <ele>947.937831</ele>
        <time>2020-08-05T06:08:58.945Z</time>
      </trkpt>
      <trkpt lat="38.924592" lon="-1.567581">
        <ele>946.987474</ele>
        <time>2020-08-05T06:09:00.953Z</time>
      </trkpt>
      <trkpt lat="38.924583" lon="-1.567724">
        <ele>946.096034</ele>
        <time>2020-08-05T06:09:02.949Z</time>
      </trkpt>
      <trkpt lat="38.924646" lon="-1.567816">
        <ele>945.659145</ele>
        <time>2020-08-05T06:09:04.926Z</time>
      </trkpt>
      <trkpt lat="38.924683" lon="-1.567956">
        <ele>945.375905</ele>
        <time>2020-08-05T06:09:06.952Z</time>
      </trkpt>
      <trkpt lat="38.924694" lon="-1.568119">
        <ele>945.062485</ele>
        <time>2020-08-05T06:09:08.954Z</time>
      </trkpt>
      <trkpt lat="38.924719" lon="-1.568244">
        <ele>944.815246</ele>
        <time>2020-08-05T06:09:10.934Z</time>
      </trkpt>
      <trkpt lat="38.924784" lon="-1.568347">
        <ele>944.561185</ele>
        <time>2020-08-05T06:09:12.928Z</time>
      </trkpt>
      <trkpt lat="38.924804" lon="-1.568498">
        <ele>944.267763</ele>
        <time>2020-08-05T06:09:15.927Z</time>
      </trkpt>
      <trkpt lat="38.924833" lon="-1.568643">
        <ele>943.980966</ele>
        <time>2020-08-05T06:09:18.951Z</time>
      </trkpt>
      <trkpt lat="38.924828" lon="-1.568767">
        <ele>943.743111</ele>
        <time>2020-08-05T06:09:20.944Z</time>
      </trkpt>
      <trkpt lat="38.924839" lon="-1.568928">
        <ele>943.433508</ele>
        <time>2020-08-05T06:09:23.954Z</time>
      </trkpt>
      <trkpt lat="38.924858" lon="-1.569079">
        <ele>943.140491</ele>
        <time>2020-08-05T06:09:26.958Z</time>
      </trkpt>
      <trkpt lat="38.924890" lon="-1.569189">
        <ele>942.915522</ele>
        <time>2020-08-05T06:09:28.937Z</time>
      </trkpt>
      <trkpt lat="38.924909" lon="-1.569351">
        <ele>942.601685</ele>
        <time>2020-08-05T06:09:31.962Z</time>
      </trkpt>
      <trkpt lat="38.924963" lon="-1.569511">
        <ele>942.267587</ele>
        <time>2020-08-05T06:09:34.989Z</time>
      </trkpt>
      <trkpt lat="38.925062" lon="-1.569607">
        <ele>941.962230</ele>
        <time>2020-08-05T06:09:37.963Z</time>
      </trkpt>
      <trkpt lat="38.925068" lon="-1.569743">
        <ele>941.701288</ele>
        <time>2020-08-05T06:09:39.933Z</time>
      </trkpt>
      <trkpt lat="38.925098" lon="-1.569896">
        <ele>941.399033</ele>
        <time>2020-08-05T06:09:41.941Z</time>
      </trkpt>
      <trkpt lat="38.925073" lon="-1.570078">
        <ele>942.418216</ele>
        <time>2020-08-05T06:09:43.936Z</time>
      </trkpt>
      <trkpt lat="38.925178" lon="-1.570156">
        <ele>943.362224</ele>
        <time>2020-08-05T06:09:45.945Z</time>
      </trkpt>
      <trkpt lat="38.925207" lon="-1.570282">
        <ele>944.157946</ele>
        <time>2020-08-05T06:09:47.950Z</time>
      </trkpt>
      <trkpt lat="38.925224" lon="-1.570466">
        <ele>945.280042</ele>
        <time>2020-08-05T06:09:49.934Z</time>
      </trkpt>
      <trkpt lat="38.925242" lon="-1.570623">
        <ele>946.241070</ele>
        <time>2020-08-05T06:09:51.936Z</time>
      </trkpt>
      <trkpt lat="38.925223" lon="-1.570790">
        <ele>947.263145</ele>
        <time>2020-08-05T06:09:53.949Z</time>
      </trkpt>
      <trkpt lat="38.925288" lon="-1.570940">
        <ele>948.302922</ele>
        <time>2020-08-05T06:09:56.958Z</time>
      </trkpt>
      <trkpt lat="38.925297" lon="-1.571071">
        <ele>949.099317</ele>
        <time>2020-08-05T06:09:58.952Z</time>
      </trkpt>
      <trkpt lat="38.925320" lon="-1.571204">
        <ele>949.924395</ele>
        <time>2020-08-05T06:10:00.960Z</time>
      </trkpt>
      <trkpt lat="38.925348" lon="-1.571317">
        <ele>950.642571</ele>
        <time>2020-08-05T06:10:02.947Z</time>
      </trkpt>
      <trkpt lat="38.925365" lon="-1.571463">
        <ele>951.536563</ele>
        <time>2020-08-05T06:10:04.952Z</time>
      </trkpt>
      <trkpt lat="38.925395" lon="-1.571620">
        <ele>952.515579</ele>
        <time>2020-08-05T06:10:07.934Z</time>
      </trkpt>
      <trkpt lat="38.925425" lon="-1.571752">
        <ele>953.348354</ele>
        <time>2020-08-05T06:10:09.932Z</time>
      </trkpt>
      <trkpt lat="38.925450" lon="-1.571871">
        <ele>954.094804</ele>
        <time>2020-08-05T06:10:11.937Z</time>
      </trkpt>
      <trkpt lat="38.925487" lon="-1.571999">
        <ele>954.921721</ele>
        <time>2020-08-05T06:10:13.938Z</time>
      </trkpt>
      <trkpt lat="38.925525" lon="-1.572124">
        <ele>954.725660</ele>
        <time>2020-08-05T06:10:15.943Z</time>
      </trkpt>
      <trkpt lat="38.925555" lon="-1.572290">
        <ele>952.854237</ele>
        <time>2020-08-05T06:10:17.929Z</time>
      </trkpt>
      <trkpt lat="38.925582" lon="-1.572427">
        <ele>951.302287</ele>
        <time>2020-08-05T06:10:19.927Z</time>
      </trkpt>
      <trkpt lat="38.925615" lon="-1.572554">
        <ele>949.831938</ele>
        <time>2020-08-05T06:10:21.942Z</time>
      </trkpt>
      <trkpt lat="38.925637" lon="-1.572688">
        <ele>948.328045</ele>
        <time>2020-08-05T06:10:23.946Z</time>
      </trkpt>
      <trkpt lat="38.925642" lon="-1.572834">
        <ele>946.723236</ele>
        <time>2020-08-05T06:10:25.939Z</time>
      </trkpt>
      <trkpt lat="38.925659" lon="-1.572977">
        <ele>945.134695</ele>
        <time>2020-08-05T06:10:27.943Z</time>
      </trkpt>
      <trkpt lat="38.925662" lon="-1.573131">
        <ele>943.443059</ele>
        <time>2020-08-05T06:10:29.931Z</time>
      </trkpt>
      <trkpt lat="38.925701" lon="-1.573302">
        <ele>941.486243</ele>
        <time>2020-08-05T06:10:31.953Z</time>
      </trkpt>
      <trkpt lat="38.925714" lon="-1.573447">
        <ele>939.883431</ele>
        <time>2020-08-05T06:10:33.958Z</time>
      </trkpt>
      <trkpt lat="38.925708" lon="-1.573596">
        <ele>938.245042</ele>
        <time>2020-08-05T06:10:35.944Z</time>
      </trkpt>
      <trkpt lat="38.925724" lon="-1.573722">
        <ele>936.843100</ele>
        <time>2020-08-05T06:10:37.951Z</time>
      </trkpt>
      <trkpt lat="38.925737" lon="-1.573876">
        <ele>935.142069</ele>
        <time>2020-08-05T06:10:39.941Z</time>
      </trkpt>
      <trkpt lat="38.925766" lon="-1.573991">
        <ele>933.814545</ele>
        <time>2020-08-05T06:10:41.930Z</time>
      </trkpt>
      <trkpt lat="38.925781" lon="-1.574121">
        <ele>932.371374</ele>
        <time>2020-08-05T06:10:43.957Z</time>
      </trkpt>
      <trkpt lat="38.925775" lon="-1.574281">
        <ele>930.612344</ele>
        <time>2020-08-05T06:10:45.950Z</time>
      </trkpt>
      <trkpt lat="38.925801" lon="-1.574408">
        <ele>929.884988</ele>
        <time>2020-08-05T06:10:47.950Z</time>
      </trkpt>
      <trkpt lat="38.925813" lon="-1.574545">
        <ele>929.695277</ele>
        <time>2020-08-05T06:10:49.931Z</time>
      </trkpt>
      <trkpt lat="38.925835" lon="-1.574674">
        <ele>929.513551</ele>
        <time>2020-08-05T06:10:51.934Z</time>
      </trkpt>
      <trkpt lat="38.925839" lon="-1.574801">
        <ele>929.338649</ele>
        <time>2020-08-05T06:10:53.938Z</time>
      </trkpt>
      <trkpt lat="38.925834" lon="-1.574939">
        <ele>929.148548</ele>
        <time>2020-08-05T06:10:55.946Z</time>
      </trkpt>
      <trkpt lat="38.925860" lon="-1.575067">
        <ele>928.966508</ele>
        <time>2020-08-05T06:10:57.955Z</time>
      </trkpt>
      <trkpt lat="38.925881" lon="-1.575194">
        <ele>928.787845</ele>
        <time>2020-08-05T06:10:59.933Z</time>
      </trkpt>
      <trkpt lat="38.925900" lon="-1.575331">
        <ele>928.596354</ele>
        <time>2020-08-05T06:11:01.940Z</time>
      </trkpt>
      <trkpt lat="38.925920" lon="-1.575461">
        <ele>928.414003</ele>
        <time>2020-08-05T06:11:03.954Z</time>
      </trkpt>
      <trkpt lat="38.925937" lon="-1.575588">
        <ele>928.236676</ele>
        <time>2020-08-05T06:11:05.927Z</time>
      </trkpt>
      <trkpt lat="38.925948" lon="-1.575718">
        <ele>928.056735</ele>
        <time>2020-08-05T06:11:07.932Z</time>
      </trkpt>
      <trkpt lat="38.925968" lon="-1.575863">
        <ele>927.854096</ele>
        <time>2020-08-05T06:11:09.940Z</time>
      </trkpt>
      <trkpt lat="38.925987" lon="-1.575990">
        <ele>927.676135</ele>
        <time>2020-08-05T06:11:11.939Z</time>
      </trkpt>
      <trkpt lat="38.926006" lon="-1.576119">
        <ele>927.495471</ele>
        <time>2020-08-05T06:11:13.957Z</time>
      </trkpt>
      <trkpt lat="38.926027" lon="-1.576254">
        <ele>927.306027</ele>
        <time>2020-08-05T06:11:15.936Z</time>
      </trkpt>
      <trkpt lat="38.926041" lon="-1.576392">
        <ele>927.114525</ele>
        <time>2020-08-05T06:11:17.954Z</time>
      </trkpt>
      <trkpt lat="38.926063" lon="-1.576521">
        <ele>926.932799</ele>
        <time>2020-08-05T06:11:19.934Z</time>
      </trkpt>
      <trkpt lat="38.926067" lon="-1.576653">
        <ele>927.159471</ele>
        <time>2020-08-05T06:11:21.957Z</time>
      </trkpt>
      <trkpt lat="38.926070" lon="-1.576784">
        <ele>928.320251</ele>
        <time>2020-08-05T06:11:23.948Z</time>
      </trkpt>
      <trkpt lat="38.926084" lon="-1.576900">
        <ele>929.359963</ele>
        <time>2020-08-05T06:11:25.941Z</time>
      </trkpt>
      <trkpt lat="38.926116" lon="-1.577048">
        <ele>930.720496</ele>
        <time>2020-08-05T06:11:28.947Z</time>
      </trkpt>
      <trkpt lat="38.926127" lon="-1.577172">
        <ele>931.825890</ele>
        <time>2020-08-05T06:11:30.944Z</time>
      </trkpt>
      <trkpt lat="38.926119" lon="-1.577332">
        <ele>933.245946</ele>
        <time>2020-08-05T06:11:32.959Z</time>
      </trkpt>
      <trkpt lat="38.926126" lon="-1.577471">
        <ele>934.479656</ele>
        <time>2020-08-05T06:11:34.956Z</time>
      </trkpt>
      <trkpt lat="38.926138" lon="-1.577602">
        <ele>935.647948</ele>
        <time>2020-08-05T06:11:36.934Z</time>
      </trkpt>
      <trkpt lat="38.926154" lon="-1.577725">
        <ele>936.752492</ele>
        <time>2020-08-05T06:11:38.962Z</time>
      </trkpt>
      <trkpt lat="38.926175" lon="-1.577862">
        <ele>937.989240</ele>
        <time>2020-08-05T06:11:40.967Z</time>
      </trkpt>
      <trkpt lat="38.926180" lon="-1.578003">
        <ele>939.239383</ele>
        <time>2020-08-05T06:11:42.932Z</time>
      </trkpt>
      <trkpt lat="38.926195" lon="-1.578143">
        <ele>940.491077</ele>
        <time>2020-08-05T06:11:44.935Z</time>
      </trkpt>
      <trkpt lat="38.926215" lon="-1.578302">
        <ele>941.917640</ele>
        <time>2020-08-05T06:11:46.926Z</time>
      </trkpt>
      <trkpt lat="38.926223" lon="-1.578442">
        <ele>943.160969</ele>
        <time>2020-08-05T06:11:48.938Z</time>
      </trkpt>
      <trkpt lat="38.926241" lon="-1.578608">
        <ele>944.645454</ele>
        <time>2020-08-05T06:11:50.938Z</time>
      </trkpt>
      <trkpt lat="38.926311" lon="-1.578686">
        <ele>945.700162</ele>
        <time>2020-08-05T06:11:52.922Z</time>
      </trkpt>
      <trkpt lat="38.926403" lon="-1.578833">
        <ele>947.407542</ele>
        <time>2020-08-05T06:11:54.935Z</time>
      </trkpt>
      <trkpt lat="38.926491" lon="-1.578987">
        <ele>949.802784</ele>
        <time>2020-08-05T06:11:56.926Z</time>
      </trkpt>
      <trkpt lat="38.926635" lon="-1.578902">
        <ele>952.356028</ele>
        <time>2020-08-05T06:11:58.931Z</time>
      </trkpt>
      <trkpt lat="38.926732" lon="-1.578936">
        <ele>953.976072</ele>
        <time>2020-08-05T06:12:00.924Z</time>
      </trkpt>
      <trkpt lat="38.926829" lon="-1.578963">
        <ele>955.575273</ele>
        <time>2020-08-05T06:12:02.928Z</time>
      </trkpt>
      <trkpt lat="38.928029" lon="-1.578998">
        <ele>974.916046</ele>
        <time>2020-08-05T06:12:27.995Z</time>
      </trkpt>
      <trkpt lat="38.928116" lon="-1.578941">
        <ele>975.842229</ele>
        <time>2020-08-05T06:12:31.928Z</time>
      </trkpt>
      <trkpt lat="38.928212" lon="-1.578965">
        <ele>972.865900</ele>
        <time>2020-08-05T06:12:33.943Z</time>
      </trkpt>
      <trkpt lat="38.928308" lon="-1.578943">
        <ele>969.898247</ele>
        <time>2020-08-05T06:12:37.932Z</time>
      </trkpt>
      <trkpt lat="38.928400" lon="-1.578961">
        <ele>967.066146</ele>
        <time>2020-08-05T06:12:41.931Z</time>
      </trkpt>
      <trkpt lat="38.928485" lon="-1.579030">
        <ele>964.006700</ele>
        <time>2020-08-05T06:12:45.941Z</time>
      </trkpt>
      <trkpt lat="38.928508" lon="-1.579147">
        <ele>961.149661</ele>
        <time>2020-08-05T06:12:49.932Z</time>
      </trkpt>
      <trkpt lat="38.928435" lon="-1.579256">
        <ele>957.744525</ele>
        <time>2020-08-05T06:12:52.924Z</time>
      </trkpt>
      <trkpt lat="38.928352" lon="-1.579317">
        <ele>954.834870</ele>
        <time>2020-08-05T06:12:54.948Z</time>
      </trkpt>
      <trkpt lat="38.928261" lon="-1.579368">
        <ele>951.813682</ele>
        <time>2020-08-05T06:12:56.942Z</time>
      </trkpt>
      <trkpt lat="38.928151" lon="-1.579402">
        <ele>948.370611</ele>
        <time>2020-08-05T06:12:58.926Z</time>
      </trkpt>
      <trkpt lat="38.928040" lon="-1.579435">
        <ele>944.903355</ele>
        <time>2020-08-05T06:13:00.930Z</time>
      </trkpt>
      <trkpt lat="38.927861" lon="-1.579427">
        <ele>939.452518</ele>
        <time>2020-08-05T06:13:02.940Z</time>
      </trkpt>
      <trkpt lat="38.927753" lon="-1.579457">
        <ele>936.089865</ele>
        <time>2020-08-05T06:13:04.938Z</time>
      </trkpt>
      <trkpt lat="38.927595" lon="-1.579461">
        <ele>931.280484</ele>
        <time>2020-08-05T06:13:07.934Z</time>
      </trkpt>
      <trkpt lat="38.927466" lon="-1.579390">
        <ele>927.009870</ele>
        <time>2020-08-05T06:13:09.943Z</time>
      </trkpt>
      <trkpt lat="38.927378" lon="-1.579340">
        <ele>924.081792</ele>
        <time>2020-08-05T06:13:10.928Z</time>
      </trkpt>
      <trkpt lat="38.927345" lon="-1.579463">
        <ele>921.525939</ele>
        <time>2020-08-05T06:13:11.934Z</time>
      </trkpt>
      <trkpt lat="38.927251" lon="-1.579567">
        <ele>921.518927</ele>
        <time>2020-08-05T06:13:13.936Z</time>
      </trkpt>
      <trkpt lat="38.927114" lon="-1.579592">
        <ele>921.511104</ele>
        <time>2020-08-05T06:13:15.940Z</time>
      </trkpt>
      <trkpt lat="38.927031" lon="-1.579658">
        <ele>921.505587</ele>
        <time>2020-08-05T06:13:17.949Z</time>
      </trkpt>
      <trkpt lat="38.926908" lon="-1.579693">
        <ele>921.498465</ele>
        <time>2020-08-05T06:13:19.930Z</time>
      </trkpt>
      <trkpt lat="38.926817" lon="-1.579744">
        <ele>921.492852</ele>
        <time>2020-08-05T06:13:21.927Z</time>
      </trkpt>
      <trkpt lat="38.926698" lon="-1.579817">
        <ele>921.485398</ele>
        <time>2020-08-05T06:13:24.951Z</time>
      </trkpt>
      <trkpt lat="38.926567" lon="-1.579868">
        <ele>921.477659</ele>
        <time>2020-08-05T06:13:27.938Z</time>
      </trkpt>
      <trkpt lat="38.926506" lon="-1.579955">
        <ele>921.472508</ele>
        <time>2020-08-05T06:13:29.947Z</time>
      </trkpt>
      <trkpt lat="38.926425" lon="-1.580008">
        <ele>921.467370</ele>
        <time>2020-08-05T06:13:32.937Z</time>
      </trkpt>
      <trkpt lat="38.926434" lon="-1.580178">
        <ele>921.459876</ele>
        <time>2020-08-05T06:13:35.933Z</time>
      </trkpt>
      <trkpt lat="38.926375" lon="-1.580319">
        <ele>921.452834</ele>
        <time>2020-08-05T06:13:39.931Z</time>
      </trkpt>
      <trkpt lat="38.926391" lon="-1.580474">
        <ele>921.445957</ele>
        <time>2020-08-05T06:13:42.944Z</time>
      </trkpt>
      <trkpt lat="38.926426" lon="-1.580630">
        <ele>921.438816</ele>
        <time>2020-08-05T06:13:45.937Z</time>
      </trkpt>
      <trkpt lat="38.926450" lon="-1.580765">
        <ele>921.432726</ele>
        <time>2020-08-05T06:13:48.946Z</time>
      </trkpt>
      <trkpt lat="38.926465" lon="-1.581062">
        <ele>921.263696</ele>
        <time>2020-08-05T06:13:54.930Z</time>
      </trkpt>
      <trkpt lat="38.926481" lon="-1.581178">
        <ele>921.114054</ele>
        <time>2020-08-05T06:13:56.933Z</time>
      </trkpt>
      <trkpt lat="38.926502" lon="-1.581348">
        <ele>920.895414</ele>
        <time>2020-08-05T06:13:58.941Z</time>
      </trkpt>
      <trkpt lat="38.926543" lon="-1.581515">
        <ele>920.672977</ele>
        <time>2020-08-05T06:14:01.938Z</time>
      </trkpt>
      <trkpt lat="38.926438" lon="-1.581692">
        <ele>920.390244</ele>
        <time>2020-08-05T06:14:03.942Z</time>
      </trkpt>
      <trkpt lat="38.926535" lon="-1.581733">
        <ele>920.223524</ele>
        <time>2020-08-05T06:14:06.944Z</time>
      </trkpt>
      <trkpt lat="38.926536" lon="-1.581850">
        <ele>920.074901</ele>
        <time>2020-08-05T06:14:08.939Z</time>
      </trkpt>
      <trkpt lat="38.926497" lon="-1.583911">
        <ele>921.376160</ele>
        <time>2020-08-05T06:14:47.936Z</time>
      </trkpt>
      <trkpt lat="38.926496" lon="-1.584050">
        <ele>921.870094</ele>
        <time>2020-08-05T06:14:50.937Z</time>
      </trkpt>
      <trkpt lat="38.926476" lon="-1.584189">
        <ele>922.372384</ele>
        <time>2020-08-05T06:14:53.948Z</time>
      </trkpt>
      <trkpt lat="38.926457" lon="-1.584341">
        <ele>922.919419</ele>
        <time>2020-08-05T06:14:56.951Z</time>
      </trkpt>
      <trkpt lat="38.926445" lon="-1.584493">
        <ele>923.462300</ele>
        <time>2020-08-05T06:14:59.930Z</time>
      </trkpt>
      <trkpt lat="38.926513" lon="-1.584611">
        <ele>923.984099</ele>
        <time>2020-08-05T06:15:00.932Z</time>
      </trkpt>
      <trkpt lat="38.926057" lon="-1.587861">
        <ele>955.327076</ele>
        <time>2020-08-05T06:15:37.946Z</time>
      </trkpt>
      <trkpt lat="38.926033" lon="-1.588015">
        <ele>957.562250</ele>
        <time>2020-08-05T06:15:39.929Z</time>
      </trkpt>
      <trkpt lat="38.925987" lon="-1.588178">
        <ele>960.029876</ele>
        <time>2020-08-05T06:15:42.938Z</time>
      </trkpt>
      <trkpt lat="38.925949" lon="-1.588302">
        <ele>961.926548</ele>
        <time>2020-08-05T06:15:44.943Z</time>
      </trkpt>
      <trkpt lat="38.925947" lon="-1.588446">
        <ele>963.976195</ele>
        <time>2020-08-05T06:15:46.934Z</time>
      </trkpt>
      <trkpt lat="38.925954" lon="-1.588606">
        <ele>966.256815</ele>
        <time>2020-08-05T06:15:48.942Z</time>
      </trkpt>
      <trkpt lat="38.925953" lon="-1.588752">
        <ele>968.334679</ele>
        <time>2020-08-05T06:15:50.934Z</time>
      </trkpt>
      <trkpt lat="38.925970" lon="-1.588871">
        <ele>970.056531</ele>
        <time>2020-08-05T06:15:53.928Z</time>
      </trkpt>
      <trkpt lat="38.925914" lon="-1.589059">
        <ele>972.921448</ele>
        <time>2020-08-05T06:15:55.943Z</time>
      </trkpt>
      <trkpt lat="38.925954" lon="-1.589273">
        <ele>976.053637</ele>
        <time>2020-08-05T06:15:57.940Z</time>
      </trkpt>
      <trkpt lat="38.925907" lon="-1.589384">
        <ele>977.852145</ele>
        <time>2020-08-05T06:15:59.923Z</time>
      </trkpt>
      <trkpt lat="38.925997" lon="-1.589438">
        <ele>979.669064</ele>
        <time>2020-08-05T06:16:01.929Z</time>
      </trkpt>
      <trkpt lat="38.925957" lon="-1.589626">
        <ele>982.442821</ele>
        <time>2020-08-05T06:16:03.929Z</time>
      </trkpt>
      <trkpt lat="38.925892" lon="-1.589832">
        <ele>984.289210</ele>
        <time>2020-08-05T06:16:06.927Z</time>
      </trkpt>
      <trkpt lat="38.925827" lon="-1.589953">
        <ele>981.617102</ele>
        <time>2020-08-05T06:16:08.927Z</time>
      </trkpt>
      <trkpt lat="38.925896" lon="-1.590070">
        <ele>978.949099</ele>
        <time>2020-08-05T06:16:10.935Z</time>
      </trkpt>
      <trkpt lat="38.925919" lon="-1.590223">
        <ele>976.117327</ele>
        <time>2020-08-05T06:16:13.940Z</time>
      </trkpt>
      <trkpt lat="38.925882" lon="-1.590343">
        <ele>973.771640</ele>
        <time>2020-08-05T06:16:15.942Z</time>
      </trkpt>
      <trkpt lat="38.925840" lon="-1.590508">
        <ele>970.616810</ele>
        <time>2020-08-05T06:16:17.936Z</time>
      </trkpt>
      <trkpt lat="38.925758" lon="-1.590624">
        <ele>967.768586</ele>
        <time>2020-08-05T06:16:20.930Z</time>
      </trkpt>
      <trkpt lat="38.925710" lon="-1.590784">
        <ele>964.652339</ele>
        <time>2020-08-05T06:16:23.933Z</time>
      </trkpt>
      <trkpt lat="38.925637" lon="-1.590892">
        <ele>962.052440</ele>
        <time>2020-08-05T06:16:25.935Z</time>
      </trkpt>
      <trkpt lat="38.925608" lon="-1.591002">
        <ele>959.941834</ele>
        <time>2020-08-05T06:16:27.944Z</time>
      </trkpt>
      <trkpt lat="38.925570" lon="-1.591140">
        <ele>957.281608</ele>
        <time>2020-08-05T06:16:30.948Z</time>
      </trkpt>
      <trkpt lat="38.925537" lon="-1.591307">
        <ele>954.150475</ele>
        <time>2020-08-05T06:16:33.946Z</time>
      </trkpt>
      <trkpt lat="38.925497" lon="-1.591466">
        <ele>951.113769</ele>
        <time>2020-08-05T06:16:36.937Z</time>
      </trkpt>
      <trkpt lat="38.925468" lon="-1.591637">
        <ele>947.933333</ele>
        <time>2020-08-05T06:16:39.931Z</time>
      </trkpt>
      <trkpt lat="38.925471" lon="-1.591755">
        <ele>945.787860</ele>
        <time>2020-08-05T06:16:41.947Z</time>
      </trkpt>
      <trkpt lat="38.925450" lon="-1.591879">
        <ele>943.481723</ele>
        <time>2020-08-05T06:16:43.947Z</time>
      </trkpt>
      <trkpt lat="38.925423" lon="-1.591997">
        <ele>942.692577</ele>
        <time>2020-08-05T06:16:45.944Z</time>
      </trkpt>
      <trkpt lat="38.925397" lon="-1.592149">
        <ele>942.178444</ele>
        <time>2020-08-05T06:16:48.936Z</time>
      </trkpt>
      <trkpt lat="38.925224" lon="-1.592779">
        <ele>939.971363</ele>
        <time>2020-08-05T06:16:58.954Z</time>
      </trkpt>
      <trkpt lat="38.925196" lon="-1.592920">
        <ele>939.490627</ele>
        <time>2020-08-05T06:17:00.954Z</time>
      </trkpt>
      <trkpt lat="38.925216" lon="-1.593068">
        <ele>938.994380</ele>
        <time>2020-08-05T06:17:02.935Z</time>
      </trkpt>
      <trkpt lat="38.925160" lon="-1.593167">
        <ele>938.590016</ele>
        <time>2020-08-05T06:17:04.951Z</time>
      </trkpt>
      <trkpt lat="38.925296" lon="-1.593197">
        <ele>938.004065</ele>
        <time>2020-08-05T06:17:06.941Z</time>
      </trkpt>
      <trkpt lat="38.925276" lon="-1.593320">
        <ele>937.588948</ele>
        <time>2020-08-05T06:17:08.922Z</time>
      </trkpt>
      <trkpt lat="38.925341" lon="-1.593216">
        <ele>937.148239</ele>
        <time>2020-08-05T06:17:09.936Z</time>
      </trkpt>
      <trkpt lat="38.925281" lon="-1.593330">
        <ele>936.693547</ele>
        <time>2020-08-05T06:17:11.933Z</time>
      </trkpt>
      <trkpt lat="38.925353" lon="-1.593420">
        <ele>936.267078</ele>
        <time>2020-08-05T06:17:14.949Z</time>
      </trkpt>
      <trkpt lat="38.925214" lon="-1.593520">
        <ele>935.590671</ele>
        <time>2020-08-05T06:17:15.938Z</time>
      </trkpt>
      <trkpt lat="38.925170" lon="-1.593665">
        <ele>934.738543</ele>
        <time>2020-08-05T06:17:18.937Z</time>
      </trkpt>
      <trkpt lat="38.925126" lon="-1.593795">
        <ele>933.741889</ele>
        <time>2020-08-05T06:17:20.937Z</time>
      </trkpt>
      <trkpt lat="38.925079" lon="-1.593911">
        <ele>932.822432</ele>
        <time>2020-08-05T06:17:22.939Z</time>
      </trkpt>
      <trkpt lat="38.925027" lon="-1.594012">
        <ele>931.970988</ele>
        <time>2020-08-05T06:17:24.941Z</time>
      </trkpt>
      <trkpt lat="38.924967" lon="-1.594146">
        <ele>930.884071</ele>
        <time>2020-08-05T06:17:26.938Z</time>
      </trkpt>
      <trkpt lat="38.924875" lon="-1.594287">
        <ele>929.590351</ele>
        <time>2020-08-05T06:17:28.946Z</time>
      </trkpt>
      <trkpt lat="38.924805" lon="-1.594412">
        <ele>928.507602</ele>
        <time>2020-08-05T06:17:30.937Z</time>
      </trkpt>
      <trkpt lat="38.924802" lon="-1.594567">
        <ele>927.417599</ele>
        <time>2020-08-05T06:17:33.938Z</time>
      </trkpt>
      <trkpt lat="38.924768" lon="-1.594675">
        <ele>926.598539</ele>
        <time>2020-08-05T06:17:35.945Z</time>
      </trkpt>
      <trkpt lat="38.924744" lon="-1.594788">
        <ele>925.775065</ele>
        <time>2020-08-05T06:17:37.944Z</time>
      </trkpt>
      <trkpt lat="38.924747" lon="-1.594951">
        <ele>924.628837</ele>
        <time>2020-08-05T06:17:40.943Z</time>
      </trkpt>
      <trkpt lat="38.924756" lon="-1.595119">
        <ele>923.444982</ele>
        <time>2020-08-05T06:17:43.938Z</time>
      </trkpt>
      <trkpt lat="38.924727" lon="-1.595244">
        <ele>922.527976</ele>
        <time>2020-08-05T06:17:45.944Z</time>
      </trkpt>
      <trkpt lat="38.924731" lon="-1.595370">
        <ele>921.641445</ele>
        <time>2020-08-05T06:17:47.934Z</time>
      </trkpt>
      <trkpt lat="38.924706" lon="-1.595497">
        <ele>920.720483</ele>
        <time>2020-08-05T06:17:49.951Z</time>
      </trkpt>
      <trkpt lat="38.924667" lon="-1.595625">
        <ele>919.754078</ele>
        <time>2020-08-05T06:17:51.943Z</time>
      </trkpt>
      <trkpt lat="38.924649" lon="-1.595742">
        <ele>919.123646</ele>
        <time>2020-08-05T06:17:53.950Z</time>
      </trkpt>
      <trkpt lat="38.924621" lon="-1.595854">
        <ele>919.127217</ele>
        <time>2020-08-05T06:17:55.955Z</time>
      </trkpt>
      <trkpt lat="38.924585" lon="-1.595976">
        <ele>919.131179</ele>
        <time>2020-08-05T06:17:57.925Z</time>
      </trkpt>
      <trkpt lat="38.924531" lon="-1.596135">
        <ele>919.136446</ele>
        <time>2020-08-05T06:18:00.946Z</time>
      </trkpt>
      <trkpt lat="38.924513" lon="-1.596279">
        <ele>919.140874</ele>
        <time>2020-08-05T06:18:03.932Z</time>
      </trkpt>
      <trkpt lat="38.924492" lon="-1.596431">
        <ele>919.145562</ele>
        <time>2020-08-05T06:18:06.954Z</time>
      </trkpt>
      <trkpt lat="38.924451" lon="-1.596537">
        <ele>919.149156</ele>
        <time>2020-08-05T06:18:08.930Z</time>
      </trkpt>
      <trkpt lat="38.924435" lon="-1.596668">
        <ele>919.153182</ele>
        <time>2020-08-05T06:18:10.950Z</time>
      </trkpt>
      <trkpt lat="38.924398" lon="-1.596811">
        <ele>919.157757</ele>
        <time>2020-08-05T06:18:13.940Z</time>
      </trkpt>
      <trkpt lat="38.924364" lon="-1.596956">
        <ele>919.162355</ele>
        <time>2020-08-05T06:18:16.952Z</time>
      </trkpt>
      <trkpt lat="38.924327" lon="-1.597111">
        <ele>919.167278</ele>
        <time>2020-08-05T06:18:19.954Z</time>
      </trkpt>
      <trkpt lat="38.924297" lon="-1.597254">
        <ele>919.171774</ele>
        <time>2020-08-05T06:18:22.944Z</time>
      </trkpt>
      <trkpt lat="38.924249" lon="-1.597404">
        <ele>919.176699</ele>
        <time>2020-08-05T06:18:25.943Z</time>
      </trkpt>
      <trkpt lat="38.924211" lon="-1.597573">
        <ele>919.182040</ele>
        <time>2020-08-05T06:18:28.953Z</time>
      </trkpt>
      <trkpt lat="38.924184" lon="-1.597701">
        <ele>919.186066</ele>
        <time>2020-08-05T06:18:30.939Z</time>
      </trkpt>
      <trkpt lat="38.924160" lon="-1.597819">
        <ele>919.189770</ele>
        <time>2020-08-05T06:18:32.953Z</time>
      </trkpt>
      <trkpt lat="38.924136" lon="-1.597941">
        <ele>919.248169</ele>
        <time>2020-08-05T06:18:34.942Z</time>
      </trkpt>
      <trkpt lat="38.924120" lon="-1.598067">
        <ele>919.579914</ele>
        <time>2020-08-05T06:18:36.924Z</time>
      </trkpt>
      <trkpt lat="38.924106" lon="-1.598208">
        <ele>919.949276</ele>
        <time>2020-08-05T06:18:38.940Z</time>
      </trkpt>
      <trkpt lat="38.924077" lon="-1.598344">
        <ele>920.315708</ele>
        <time>2020-08-05T06:18:40.960Z</time>
      </trkpt>
      <trkpt lat="38.924027" lon="-1.598469">
        <ele>920.680941</ele>
        <time>2020-08-05T06:18:42.938Z</time>
      </trkpt>
      <trkpt lat="38.924007" lon="-1.598608">
        <ele>921.048260</ele>
        <time>2020-08-05T06:18:44.934Z</time>
      </trkpt>
      <trkpt lat="38.923973" lon="-1.598745">
        <ele>921.421931</ele>
        <time>2020-08-05T06:18:46.959Z</time>
      </trkpt>
      <trkpt lat="38.923951" lon="-1.598882">
        <ele>921.785433</ele>
        <time>2020-08-05T06:18:48.964Z</time>
      </trkpt>
      <trkpt lat="38.923917" lon="-1.599028">
        <ele>922.181449</ele>
        <time>2020-08-05T06:18:50.944Z</time>
      </trkpt>
      <trkpt lat="38.923883" lon="-1.599173">
        <ele>922.574977</ele>
        <time>2020-08-05T06:18:52.953Z</time>
      </trkpt>
      <trkpt lat="38.923846" lon="-1.599307">
        <ele>922.944459</ele>
        <time>2020-08-05T06:18:54.959Z</time>
      </trkpt>
      <trkpt lat="38.923808" lon="-1.599450">
        <ele>923.337127</ele>
        <time>2020-08-05T06:18:56.953Z</time>
      </trkpt>
      <trkpt lat="38.923794" lon="-1.599613">
        <ele>923.763260</ele>
        <time>2020-08-05T06:18:58.946Z</time>
      </trkpt>
      <trkpt lat="38.923764" lon="-1.599772">
        <ele>924.188402</ele>
        <time>2020-08-05T06:19:00.963Z</time>
      </trkpt>
      <trkpt lat="38.923743" lon="-1.599929">
        <ele>924.602357</ele>
        <time>2020-08-05T06:19:02.939Z</time>
      </trkpt>
      <trkpt lat="38.923725" lon="-1.600081">
        <ele>925.001882</ele>
        <time>2020-08-05T06:19:04.945Z</time>
      </trkpt>
      <trkpt lat="38.923689" lon="-1.600254">
        <ele>925.140775</ele>
        <time>2020-08-05T06:19:06.954Z</time>
      </trkpt>
      <trkpt lat="38.923685" lon="-1.600416">
        <ele>925.046351</ele>
        <time>2020-08-05T06:19:08.935Z</time>
      </trkpt>
      <trkpt lat="38.923663" lon="-1.600571">
        <ele>924.954561</ele>
        <time>2020-08-05T06:19:11.967Z</time>
      </trkpt>
      <trkpt lat="38.923662" lon="-1.600689">
        <ele>924.885813</ele>
        <time>2020-08-05T06:19:13.941Z</time>
      </trkpt>
      <trkpt lat="38.923630" lon="-1.600810">
        <ele>924.811359</ele>
        <time>2020-08-05T06:19:15.973Z</time>
      </trkpt>
      <trkpt lat="38.923599" lon="-1.600951">
        <ele>924.725999</ele>
        <time>2020-08-05T06:19:17.942Z</time>
      </trkpt>
      <trkpt lat="38.923566" lon="-1.601117">
        <ele>924.626184</ele>
        <time>2020-08-05T06:19:19.952Z</time>
      </trkpt>
      <trkpt lat="38.923517" lon="-1.601273">
        <ele>924.528174</ele>
        <time>2020-08-05T06:19:21.940Z</time>
      </trkpt>
      <trkpt lat="38.923497" lon="-1.601423">
        <ele>924.439513</ele>
        <time>2020-08-05T06:19:23.943Z</time>
      </trkpt>
      <trkpt lat="38.923466" lon="-1.601544">
        <ele>924.365297</ele>
        <time>2020-08-05T06:19:25.970Z</time>
      </trkpt>
      <trkpt lat="38.923439" lon="-1.601682">
        <ele>924.282398</ele>
        <time>2020-08-05T06:19:27.959Z</time>
      </trkpt>
      <trkpt lat="38.923399" lon="-1.601828">
        <ele>924.192222</ele>
        <time>2020-08-05T06:19:29.932Z</time>
      </trkpt>
      <trkpt lat="38.923348" lon="-1.601954">
        <ele>924.109476</ele>
        <time>2020-08-05T06:19:31.955Z</time>
      </trkpt>
      <trkpt lat="38.923302" lon="-1.602082">
        <ele>924.027335</ele>
        <time>2020-08-05T06:19:33.927Z</time>
      </trkpt>
      <trkpt lat="38.923275" lon="-1.602229">
        <ele>923.939341</ele>
        <time>2020-08-05T06:19:35.944Z</time>
      </trkpt>
      <trkpt lat="38.923252" lon="-1.602377">
        <ele>923.851800</ele>
        <time>2020-08-05T06:19:37.929Z</time>
      </trkpt>
      <trkpt lat="38.923228" lon="-1.602522">
        <ele>923.780050</ele>
        <time>2020-08-05T06:19:39.938Z</time>
      </trkpt>
      <trkpt lat="38.923194" lon="-1.602669">
        <ele>923.705825</ele>
        <time>2020-08-05T06:19:41.938Z</time>
      </trkpt>
      <trkpt lat="38.923176" lon="-1.602797">
        <ele>923.642869</ele>
        <time>2020-08-05T06:19:43.928Z</time>
      </trkpt>
      <trkpt lat="38.923149" lon="-1.602936">
        <ele>923.573528</ele>
        <time>2020-08-05T06:19:45.960Z</time>
      </trkpt>
      <trkpt lat="38.923114" lon="-1.603065">
        <ele>923.507405</ele>
        <time>2020-08-05T06:19:47.937Z</time>
      </trkpt>
      <trkpt lat="38.923104" lon="-1.603206">
        <ele>923.438878</ele>
        <time>2020-08-05T06:19:49.961Z</time>
      </trkpt>
      <trkpt lat="38.923061" lon="-1.603346">
        <ele>923.366029</ele>
        <time>2020-08-05T06:19:52.039Z</time>
      </trkpt>
      <trkpt lat="38.923026" lon="-1.603502">
        <ele>923.287449</ele>
        <time>2020-08-05T06:19:53.949Z</time>
      </trkpt>
      <trkpt lat="38.922982" lon="-1.603638">
        <ele>923.216160</ele>
        <time>2020-08-05T06:19:55.950Z</time>
      </trkpt>
      <trkpt lat="38.922967" lon="-1.603789">
        <ele>923.142483</ele>
        <time>2020-08-05T06:19:57.933Z</time>
      </trkpt>
      <trkpt lat="38.922936" lon="-1.603935">
        <ele>923.069235</ele>
        <time>2020-08-05T06:19:59.948Z</time>
      </trkpt>
      <trkpt lat="38.922916" lon="-1.604100">
        <ele>922.988412</ele>
        <time>2020-08-05T06:20:01.944Z</time>
      </trkpt>
      <trkpt lat="38.922888" lon="-1.604249">
        <ele>922.914222</ele>
        <time>2020-08-05T06:20:03.948Z</time>
      </trkpt>
      <trkpt lat="38.922860" lon="-1.604409">
        <ele>922.834847</ele>
        <time>2020-08-05T06:20:05.934Z</time>
      </trkpt>
      <trkpt lat="38.922836" lon="-1.604552">
        <ele>922.764043</ele>
        <time>2020-08-05T06:20:07.931Z</time>
      </trkpt>
      <trkpt lat="38.922799" lon="-1.604696">
        <ele>922.689937</ele>
        <time>2020-08-05T06:20:09.938Z</time>
      </trkpt>
      <trkpt lat="38.922767" lon="-1.604849">
        <ele>922.612026</ele>
        <time>2020-08-05T06:20:11.930Z</time>
      </trkpt>
      <trkpt lat="38.922742" lon="-1.604987">
        <ele>922.542348</ele>
        <time>2020-08-05T06:20:13.939Z</time>
      </trkpt>
      <trkpt lat="38.922721" lon="-1.605129">
        <ele>922.471267</ele>
        <time>2020-08-05T06:20:15.925Z</time>
      </trkpt>
      <trkpt lat="38.922686" lon="-1.605268">
        <ele>922.399421</ele>
        <time>2020-08-05T06:20:17.926Z</time>
      </trkpt>
      <trkpt lat="38.922651" lon="-1.605427">
        <ele>922.318161</ele>
        <time>2020-08-05T06:20:19.927Z</time>
      </trkpt>
      <trkpt lat="38.922625" lon="-1.605576">
        <ele>922.243068</ele>
        <time>2020-08-05T06:20:21.956Z</time>
      </trkpt>
      <trkpt lat="38.922613" lon="-1.605716">
        <ele>922.173805</ele>
        <time>2020-08-05T06:20:23.939Z</time>
      </trkpt>
      <trkpt lat="38.922581" lon="-1.605853">
        <ele>922.103462</ele>
        <time>2020-08-05T06:20:25.945Z</time>
      </trkpt>
      <trkpt lat="38.922560" lon="-1.606003">
        <ele>922.028513</ele>
        <time>2020-08-05T06:20:27.939Z</time>
      </trkpt>
      <trkpt lat="38.922523" lon="-1.606132">
        <ele>921.960901</ele>
        <time>2020-08-05T06:20:29.943Z</time>
      </trkpt>
      <trkpt lat="38.922500" lon="-1.606266">
        <ele>921.893420</ele>
        <time>2020-08-05T06:20:31.930Z</time>
      </trkpt>
      <trkpt lat="38.922481" lon="-1.606409">
        <ele>921.822080</ele>
        <time>2020-08-05T06:20:33.951Z</time>
      </trkpt>
      <trkpt lat="38.922449" lon="-1.606536">
        <ele>921.756432</ele>
        <time>2020-08-05T06:20:35.933Z</time>
      </trkpt>
      <trkpt lat="38.922440" lon="-1.606682">
        <ele>921.684409</ele>
        <time>2020-08-05T06:20:37.928Z</time>
      </trkpt>
      <trkpt lat="38.922429" lon="-1.606822">
        <ele>921.615212</ele>
        <time>2020-08-05T06:20:39.933Z</time>
      </trkpt>
      <trkpt lat="38.922411" lon="-1.606945">
        <ele>921.484113</ele>
        <time>2020-08-05T06:20:41.947Z</time>
      </trkpt>
      <trkpt lat="38.922382" lon="-1.607088">
        <ele>921.296975</ele>
        <time>2020-08-05T06:20:43.946Z</time>
      </trkpt>
      <trkpt lat="38.922346" lon="-1.607235">
        <ele>921.101818</ele>
        <time>2020-08-05T06:20:45.931Z</time>
      </trkpt>
      <trkpt lat="38.922305" lon="-1.607371">
        <ele>920.917117</ele>
        <time>2020-08-05T06:20:47.928Z</time>
      </trkpt>
      <trkpt lat="38.922272" lon="-1.607519">
        <ele>920.722153</ele>
        <time>2020-08-05T06:20:49.938Z</time>
      </trkpt>
      <trkpt lat="38.922243" lon="-1.607667">
        <ele>920.528881</ele>
        <time>2020-08-05T06:20:51.941Z</time>
      </trkpt>
      <trkpt lat="38.922212" lon="-1.607803">
        <ele>920.349418</ele>
        <time>2020-08-05T06:20:53.929Z</time>
      </trkpt>
      <trkpt lat="38.922190" lon="-1.607956">
        <ele>920.152386</ele>
        <time>2020-08-05T06:20:55.928Z</time>
      </trkpt>
      <trkpt lat="38.922143" lon="-1.608088">
        <ele>919.968554</ele>
        <time>2020-08-05T06:20:57.933Z</time>
      </trkpt>
      <trkpt lat="38.922118" lon="-1.608233">
        <ele>919.780479</ele>
        <time>2020-08-05T06:20:59.942Z</time>
      </trkpt>
      <trkpt lat="38.922094" lon="-1.608374">
        <ele>919.597700</ele>
        <time>2020-08-05T06:21:01.933Z</time>
      </trkpt>
      <trkpt lat="38.922059" lon="-1.608523">
        <ele>919.400601</ele>
        <time>2020-08-05T06:21:03.921Z</time>
      </trkpt>
      <trkpt lat="38.922022" lon="-1.608681">
        <ele>919.191651</ele>
        <time>2020-08-05T06:21:05.930Z</time>
      </trkpt>
      <trkpt lat="38.921989" lon="-1.608841">
        <ele>918.982036</ele>
        <time>2020-08-05T06:21:07.931Z</time>
      </trkpt>
      <trkpt lat="38.921953" lon="-1.608995">
        <ele>918.778405</ele>
        <time>2020-08-05T06:21:09.946Z</time>
      </trkpt>
      <trkpt lat="38.921898" lon="-1.609143">
        <ele>918.445917</ele>
        <time>2020-08-05T06:21:11.938Z</time>
      </trkpt>
      <trkpt lat="38.921871" lon="-1.609282">
        <ele>918.036908</ele>
        <time>2020-08-05T06:21:13.944Z</time>
      </trkpt>
      <trkpt lat="38.921857" lon="-1.609444">
        <ele>917.571573</ele>
        <time>2020-08-05T06:21:15.940Z</time>
      </trkpt>
      <trkpt lat="38.921835" lon="-1.609632">
        <ele>917.028819</ele>
        <time>2020-08-05T06:21:17.948Z</time>
      </trkpt>
      <trkpt lat="38.921791" lon="-1.609796">
        <ele>916.533561</ele>
        <time>2020-08-05T06:21:19.942Z</time>
      </trkpt>
      <trkpt lat="38.921763" lon="-1.609975">
        <ele>916.012311</ele>
        <time>2020-08-05T06:21:21.950Z</time>
      </trkpt>
      <trkpt lat="38.921730" lon="-1.610153">
        <ele>915.489913</ele>
        <time>2020-08-05T06:21:23.946Z</time>
      </trkpt>
      <trkpt lat="38.921706" lon="-1.610340">
        <ele>914.948835</ele>
        <time>2020-08-05T06:21:25.943Z</time>
      </trkpt>
      <trkpt lat="38.921675" lon="-1.610505">
        <ele>914.464238</ele>
        <time>2020-08-05T06:21:27.946Z</time>
      </trkpt>
      <trkpt lat="38.921639" lon="-1.610664">
        <ele>913.991480</ele>
        <time>2020-08-05T06:21:29.944Z</time>
      </trkpt>
      <trkpt lat="38.921598" lon="-1.610824">
        <ele>913.510559</ele>
        <time>2020-08-05T06:21:31.937Z</time>
      </trkpt>
      <trkpt lat="38.921558" lon="-1.610978">
        <ele>913.047052</ele>
        <time>2020-08-05T06:21:33.944Z</time>
      </trkpt>
      <trkpt lat="38.921525" lon="-1.611141">
        <ele>912.566207</ele>
        <time>2020-08-05T06:21:35.953Z</time>
      </trkpt>
      <trkpt lat="38.921517" lon="-1.611268">
        <ele>912.202449</ele>
        <time>2020-08-05T06:21:37.961Z</time>
      </trkpt>
      <trkpt lat="38.921497" lon="-1.611412">
        <ele>911.887374</ele>
        <time>2020-08-05T06:21:39.940Z</time>
      </trkpt>
      <trkpt lat="38.921461" lon="-1.611599">
        <ele>911.535102</ele>
        <time>2020-08-05T06:21:41.947Z</time>
      </trkpt>
      <trkpt lat="38.921428" lon="-1.611776">
        <ele>911.202265</ele>
        <time>2020-08-05T06:21:43.949Z</time>
      </trkpt>
      <trkpt lat="38.921380" lon="-1.611897">
        <ele>910.953894</ele>
        <time>2020-08-05T06:21:45.954Z</time>
      </trkpt>
      <trkpt lat="38.921345" lon="-1.612017">
        <ele>910.719542</ele>
        <time>2020-08-05T06:21:47.943Z</time>
      </trkpt>
      <trkpt lat="38.921319" lon="-1.612145">
        <ele>910.477627</ele>
        <time>2020-08-05T06:21:49.954Z</time>
      </trkpt>
      <trkpt lat="38.921283" lon="-1.612277">
        <ele>910.221842</ele>
        <time>2020-08-05T06:21:51.941Z</time>
      </trkpt>
      <trkpt lat="38.921245" lon="-1.612401">
        <ele>909.978132</ele>
        <time>2020-08-05T06:21:53.948Z</time>
      </trkpt>
      <trkpt lat="38.921222" lon="-1.612540">
        <ele>909.718262</ele>
        <time>2020-08-05T06:21:55.949Z</time>
      </trkpt>
      <trkpt lat="38.921201" lon="-1.612667">
        <ele>909.480834</ele>
        <time>2020-08-05T06:21:57.949Z</time>
      </trkpt>
      <trkpt lat="38.921194" lon="-1.612792">
        <ele>909.251660</ele>
        <time>2020-08-05T06:21:59.947Z</time>
      </trkpt>
      <trkpt lat="38.921190" lon="-1.612910">
        <ele>909.035673</ele>
        <time>2020-08-05T06:22:01.937Z</time>
      </trkpt>
      <trkpt lat="38.921161" lon="-1.613038">
        <ele>908.791881</ele>
        <time>2020-08-05T06:22:03.954Z</time>
      </trkpt>
      <trkpt lat="38.921112" lon="-1.613192">
        <ele>908.487625</ele>
        <time>2020-08-05T06:22:05.951Z</time>
      </trkpt>
      <trkpt lat="38.921086" lon="-1.613304">
        <ele>908.273892</ele>
        <time>2020-08-05T06:22:07.934Z</time>
      </trkpt>
      <trkpt lat="38.921068" lon="-1.613438">
        <ele>908.025225</ele>
        <time>2020-08-05T06:22:09.951Z</time>
      </trkpt>
      <trkpt lat="38.921047" lon="-1.613566">
        <ele>907.809548</ele>
        <time>2020-08-05T06:22:11.931Z</time>
      </trkpt>
      <trkpt lat="38.921022" lon="-1.613704">
        <ele>907.658459</ele>
        <time>2020-08-05T06:22:14.956Z</time>
      </trkpt>
      <trkpt lat="38.921024" lon="-1.613826">
        <ele>907.528339</ele>
        <time>2020-08-05T06:22:16.946Z</time>
      </trkpt>
      <trkpt lat="38.921016" lon="-1.613992">
        <ele>907.350991</ele>
        <time>2020-08-05T06:22:19.944Z</time>
      </trkpt>
      <trkpt lat="38.921069" lon="-1.614110">
        <ele>907.205703</ele>
        <time>2020-08-05T06:22:22.955Z</time>
      </trkpt>
      <trkpt lat="38.921120" lon="-1.614249">
        <ele>907.041830</ele>
        <time>2020-08-05T06:22:25.939Z</time>
      </trkpt>
      <trkpt lat="38.921194" lon="-1.614350">
        <ele>906.893893</ele>
        <time>2020-08-05T06:22:28.933Z</time>
      </trkpt>
      <trkpt lat="38.921297" lon="-1.614445">
        <ele>906.720139</ele>
        <time>2020-08-05T06:22:31.953Z</time>
      </trkpt>
      <trkpt lat="38.921409" lon="-1.614490">
        <ele>906.559311</ele>
        <time>2020-08-05T06:22:34.952Z</time>
      </trkpt>
      <trkpt lat="38.921513" lon="-1.614500">
        <ele>906.416374</ele>
        <time>2020-08-05T06:22:37.950Z</time>
      </trkpt>
      <trkpt lat="38.921610" lon="-1.614502">
        <ele>906.283411</ele>
        <time>2020-08-05T06:22:40.935Z</time>
      </trkpt>
      <trkpt lat="38.921702" lon="-1.614516">
        <ele>906.156439</ele>
        <time>2020-08-05T06:22:43.936Z</time>
      </trkpt>
      <trkpt lat="38.921786" lon="-1.614572">
        <ele>906.026746</ele>
        <time>2020-08-05T06:22:47.949Z</time>
      </trkpt>
      <trkpt lat="38.921780" lon="-1.614701">
        <ele>905.888947</ele>
        <time>2020-08-05T06:22:53.931Z</time>
      </trkpt>
      <trkpt lat="38.921690" lon="-1.614804">
        <ele>905.723787</ele>
        <time>2020-08-05T06:22:57.942Z</time>
      </trkpt>
      <trkpt lat="38.921611" lon="-1.614892">
        <ele>905.580509</ele>
        <time>2020-08-05T06:23:01.954Z</time>
      </trkpt>
      <trkpt lat="38.921533" lon="-1.614989">
        <ele>905.431758</ele>
        <time>2020-08-05T06:23:05.940Z</time>
      </trkpt>
      <trkpt lat="38.921451" lon="-1.615058">
        <ele>905.390757</ele>
        <time>2020-08-05T06:23:09.934Z</time>
      </trkpt>
      <trkpt lat="38.921349" lon="-1.615103">
        <ele>905.415636</ele>
        <time>2020-08-05T06:23:13.935Z</time>
      </trkpt>
      <trkpt lat="38.921239" lon="-1.615126">
        <ele>905.441345</ele>
        <time>2020-08-05T06:23:17.950Z</time>
      </trkpt>
      <trkpt lat="38.921133" lon="-1.615147">
        <ele>905.466087</ele>
        <time>2020-08-05T06:23:21.940Z</time>
      </trkpt>
      <trkpt lat="38.921019" lon="-1.615156">
        <ele>905.492436</ele>
        <time>2020-08-05T06:23:26.946Z</time>
      </trkpt>
      <trkpt lat="38.920912" lon="-1.615185">
        <ele>905.517663</ele>
        <time>2020-08-05T06:23:30.950Z</time>
      </trkpt>
      <trkpt lat="38.920797" lon="-1.615144">
        <ele>905.545194</ele>
        <time>2020-08-05T06:23:34.947Z</time>
      </trkpt>
      <trkpt lat="38.920709" lon="-1.615101">
        <ele>905.566913</ele>
        <time>2020-08-05T06:23:37.964Z</time>
      </trkpt>
      <trkpt lat="38.920603" lon="-1.615056">
        <ele>905.592665</ele>
        <time>2020-08-05T06:23:40.952Z</time>
      </trkpt>
      <trkpt lat="38.920492" lon="-1.615005">
        <ele>905.619859</ele>
        <time>2020-08-05T06:23:43.936Z</time>
      </trkpt>
      <trkpt lat="38.920377" lon="-1.614965">
        <ele>905.647343</ele>
        <time>2020-08-05T06:23:46.955Z</time>
      </trkpt>
      <trkpt lat="38.920262" lon="-1.614950">
        <ele>905.674009</ele>
        <time>2020-08-05T06:23:49.943Z</time>
      </trkpt>
      <trkpt lat="38.920150" lon="-1.614914">
        <ele>905.700642</ele>
        <time>2020-08-05T06:23:52.948Z</time>
      </trkpt>
      <trkpt lat="38.920046" lon="-1.614868">
        <ele>905.726015</ele>
        <time>2020-08-05T06:23:55.954Z</time>
      </trkpt>
      <trkpt lat="38.919940" lon="-1.614843">
        <ele>905.750877</ele>
        <time>2020-08-05T06:23:58.948Z</time>
      </trkpt>
      <trkpt lat="38.919809" lon="-1.614834">
        <ele>905.781140</ele>
        <time>2020-08-05T06:24:01.953Z</time>
      </trkpt>
      <trkpt lat="38.919704" lon="-1.614804">
        <ele>905.886453</ele>
        <time>2020-08-05T06:24:03.928Z</time>
      </trkpt>
      <trkpt lat="38.919590" lon="-1.614778">
        <ele>906.069998</ele>
        <time>2020-08-05T06:24:05.946Z</time>
      </trkpt>
      <trkpt lat="38.919472" lon="-1.614736">
        <ele>906.264101</ele>
        <time>2020-08-05T06:24:07.941Z</time>
      </trkpt>
      <trkpt lat="38.919326" lon="-1.614710">
        <ele>906.497763</ele>
        <time>2020-08-05T06:24:09.961Z</time>
      </trkpt>
      <trkpt lat="38.919176" lon="-1.614725">
        <ele>906.736274</ele>
        <time>2020-08-05T06:24:11.956Z</time>
      </trkpt>
      <trkpt lat="38.919014" lon="-1.614765">
        <ele>906.997785</ele>
        <time>2020-08-05T06:24:13.934Z</time>
      </trkpt>
      <trkpt lat="38.918917" lon="-1.614769">
        <ele>907.151637</ele>
        <time>2020-08-05T06:24:14.948Z</time>
      </trkpt>
      <trkpt lat="38.918841" lon="-1.614863">
        <ele>907.318843</ele>
        <time>2020-08-05T06:24:15.932Z</time>
      </trkpt>
      <trkpt lat="38.918753" lon="-1.614941">
        <ele>907.488304</ele>
        <time>2020-08-05T06:24:16.945Z</time>
      </trkpt>
      <trkpt lat="38.918693" lon="-1.615027">
        <ele>907.630777</ele>
        <time>2020-08-05T06:24:17.929Z</time>
      </trkpt>
      <trkpt lat="38.918626" lon="-1.615118">
        <ele>907.785306</ele>
        <time>2020-08-05T06:24:18.929Z</time>
      </trkpt>
      <trkpt lat="38.918578" lon="-1.615227">
        <ele>907.939789</ele>
        <time>2020-08-05T06:24:19.936Z</time>
      </trkpt>
      <trkpt lat="38.918509" lon="-1.615338">
        <ele>908.115028</ele>
        <time>2020-08-05T06:24:20.932Z</time>
      </trkpt>
      <trkpt lat="38.918476" lon="-1.615454">
        <ele>908.267368</ele>
        <time>2020-08-05T06:24:21.956Z</time>
      </trkpt>
      <trkpt lat="38.918427" lon="-1.615566">
        <ele>908.425853</ele>
        <time>2020-08-05T06:24:22.943Z</time>
      </trkpt>
      <trkpt lat="38.918389" lon="-1.615682">
        <ele>908.581093</ele>
        <time>2020-08-05T06:24:23.947Z</time>
      </trkpt>
      <trkpt lat="38.918355" lon="-1.615792">
        <ele>908.868658</ele>
        <time>2020-08-05T06:24:24.954Z</time>
      </trkpt>
      <trkpt lat="38.918322" lon="-1.615913">
        <ele>909.294992</ele>
        <time>2020-08-05T06:24:25.939Z</time>
      </trkpt>
      <trkpt lat="38.918296" lon="-1.616032">
        <ele>909.705981</ele>
        <time>2020-08-05T06:24:26.949Z</time>
      </trkpt>
      <trkpt lat="38.918244" lon="-1.616252">
        <ele>910.470507</ele>
        <time>2020-08-05T06:24:28.939Z</time>
      </trkpt>
      <trkpt lat="38.918232" lon="-1.616471">
        <ele>911.200501</ele>
        <time>2020-08-05T06:24:30.941Z</time>
      </trkpt>
      <trkpt lat="38.918200" lon="-1.616687">
        <ele>911.931620</ele>
        <time>2020-08-05T06:24:32.933Z</time>
      </trkpt>
      <trkpt lat="38.918155" lon="-1.616901">
        <ele>912.668716</ele>
        <time>2020-08-05T06:24:34.929Z</time>
      </trkpt>
      <trkpt lat="38.918122" lon="-1.617014">
        <ele>913.070045</ele>
        <time>2020-08-05T06:24:35.944Z</time>
      </trkpt>
      <trkpt lat="38.918098" lon="-1.617126">
        <ele>913.456320</ele>
        <time>2020-08-05T06:24:36.948Z</time>
      </trkpt>
      <trkpt lat="38.918070" lon="-1.617257">
        <ele>913.908043</ele>
        <time>2020-08-05T06:24:37.933Z</time>
      </trkpt>
      <trkpt lat="38.918069" lon="-1.617481">
        <ele>914.652873</ele>
        <time>2020-08-05T06:24:39.952Z</time>
      </trkpt>
      <trkpt lat="38.918020" lon="-1.617651">
        <ele>915.255678</ele>
        <time>2020-08-05T06:24:40.948Z</time>
      </trkpt>
      <trkpt lat="38.918007" lon="-1.617788">
        <ele>915.714590</ele>
        <time>2020-08-05T06:24:41.939Z</time>
      </trkpt>
      <trkpt lat="38.917995" lon="-1.617929">
        <ele>916.186223</ele>
        <time>2020-08-05T06:24:42.945Z</time>
      </trkpt>
      <trkpt lat="38.917994" lon="-1.618099">
        <ele>916.210139</ele>
        <time>2020-08-05T06:24:44.936Z</time>
      </trkpt>
      <trkpt lat="38.918031" lon="-1.618238">
        <ele>916.070726</ele>
        <time>2020-08-05T06:24:46.937Z</time>
      </trkpt>
      <trkpt lat="38.918034" lon="-1.618375">
        <ele>915.940665</ele>
        <time>2020-08-05T06:24:49.922Z</time>
      </trkpt>
      <trkpt lat="38.918052" lon="-1.618494">
        <ele>915.825623</ele>
        <time>2020-08-05T06:24:53.941Z</time>
      </trkpt>
      <trkpt lat="38.918023" lon="-1.618629">
        <ele>915.692719</ele>
        <time>2020-08-05T06:24:56.935Z</time>
      </trkpt>
      <trkpt lat="38.918008" lon="-1.618774">
        <ele>915.553907</ele>
        <time>2020-08-05T06:24:59.923Z</time>
      </trkpt>
      <trkpt lat="38.917959" lon="-1.618897">
        <ele>915.422773</ele>
        <time>2020-08-05T06:25:02.933Z</time>
      </trkpt>
      <trkpt lat="38.917875" lon="-1.619004">
        <ele>915.278526</ele>
        <time>2020-08-05T06:25:05.935Z</time>
      </trkpt>
      <trkpt lat="38.917784" lon="-1.619089">
        <ele>915.141320</ele>
        <time>2020-08-05T06:25:08.940Z</time>
      </trkpt>
      <trkpt lat="38.917683" lon="-1.619032">
        <ele>915.006779</ele>
        <time>2020-08-05T06:25:15.941Z</time>
      </trkpt>
      <trkpt lat="38.917587" lon="-1.619006">
        <ele>914.887118</ele>
        <time>2020-08-05T06:25:18.935Z</time>
      </trkpt>
      <trkpt lat="38.917478" lon="-1.618983">
        <ele>914.752392</ele>
        <time>2020-08-05T06:25:21.937Z</time>
      </trkpt>
      <trkpt lat="38.917371" lon="-1.618942">
        <ele>914.616209</ele>
        <time>2020-08-05T06:25:24.948Z</time>
      </trkpt>
      <trkpt lat="38.917250" lon="-1.618904">
        <ele>914.464286</ele>
        <time>2020-08-05T06:25:27.937Z</time>
      </trkpt>
      <trkpt lat="38.917144" lon="-1.618880">
        <ele>914.333008</ele>
        <time>2020-08-05T06:25:30.937Z</time>
      </trkpt>
      <trkpt lat="38.917028" lon="-1.618850">
        <ele>914.188689</ele>
        <time>2020-08-05T06:25:33.937Z</time>
      </trkpt>
      <trkpt lat="38.916918" lon="-1.618840">
        <ele>914.251820</ele>
        <time>2020-08-05T06:25:36.939Z</time>
      </trkpt>
      <trkpt lat="38.916795" lon="-1.618865">
        <ele>914.464353</ele>
        <time>2020-08-05T06:25:39.935Z</time>
      </trkpt>
      <trkpt lat="38.916707" lon="-1.618908">
        <ele>914.625031</ele>
        <time>2020-08-05T06:25:41.927Z</time>
      </trkpt>
      <trkpt lat="38.916622" lon="-1.619065">
        <ele>914.879020</ele>
        <time>2020-08-05T06:25:43.924Z</time>
      </trkpt>
      <trkpt lat="38.916587" lon="-1.619240">
        <ele>915.118961</ele>
        <time>2020-08-05T06:25:45.935Z</time>
      </trkpt>
      <trkpt lat="38.916579" lon="-1.619446">
        <ele>915.392853</ele>
        <time>2020-08-05T06:25:47.949Z</time>
      </trkpt>
      <trkpt lat="38.916600" lon="-1.619672">
        <ele>915.695095</ele>
        <time>2020-08-05T06:25:49.937Z</time>
      </trkpt>
      <trkpt lat="38.916603" lon="-1.619809">
        <ele>915.877092</ele>
        <time>2020-08-05T06:25:51.937Z</time>
      </trkpt>
      <trkpt lat="38.916668" lon="-1.620060">
        <ele>916.228376</ele>
        <time>2020-08-05T06:25:53.935Z</time>
      </trkpt>
      <trkpt lat="38.916688" lon="-1.620210">
        <ele>916.430467</ele>
        <time>2020-08-05T06:25:54.936Z</time>
      </trkpt>
      <trkpt lat="38.916622" lon="-1.620400">
        <ele>916.706775</ele>
        <time>2020-08-05T06:25:55.937Z</time>
      </trkpt>
      <trkpt lat="38.916622" lon="-1.620527">
        <ele>916.875421</ele>
        <time>2020-08-05T06:25:56.941Z</time>
      </trkpt>
      <trkpt lat="38.916633" lon="-1.620656">
        <ele>917.047748</ele>
        <time>2020-08-05T06:25:57.949Z</time>
      </trkpt>
      <trkpt lat="38.916631" lon="-1.620791">
        <ele>917.081697</ele>
        <time>2020-08-05T06:25:58.940Z</time>
      </trkpt>
      <trkpt lat="38.916628" lon="-1.620931">
        <ele>915.964347</ele>
        <time>2020-08-05T06:25:59.937Z</time>
      </trkpt>
      <trkpt lat="38.916627" lon="-1.621074">
        <ele>914.823440</ele>
        <time>2020-08-05T06:26:00.939Z</time>
      </trkpt>
      <trkpt lat="38.916618" lon="-1.621208">
        <ele>913.750405</ele>
        <time>2020-08-05T06:26:01.944Z</time>
      </trkpt>
      <trkpt lat="38.916612" lon="-1.621336">
        <ele>912.727363</ele>
        <time>2020-08-05T06:26:02.935Z</time>
      </trkpt>
      <trkpt lat="38.916602" lon="-1.621462">
        <ele>911.716912</ele>
        <time>2020-08-05T06:26:03.946Z</time>
      </trkpt>
      <trkpt lat="38.916597" lon="-1.621592">
        <ele>910.678498</ele>
        <time>2020-08-05T06:26:04.937Z</time>
      </trkpt>
      <trkpt lat="38.916559" lon="-1.621722">
        <ele>909.570574</ele>
        <time>2020-08-05T06:26:05.937Z</time>
      </trkpt>
      <trkpt lat="38.916550" lon="-1.621846">
        <ele>908.577000</ele>
        <time>2020-08-05T06:26:06.945Z</time>
      </trkpt>
      <trkpt lat="38.916541" lon="-1.621963">
        <ele>907.639016</ele>
        <time>2020-08-05T06:26:07.941Z</time>
      </trkpt>
      <trkpt lat="38.916518" lon="-1.622203">
        <ele>905.709812</ele>
        <time>2020-08-05T06:26:09.941Z</time>
      </trkpt>
      <trkpt lat="38.916493" lon="-1.622337">
        <ele>904.610447</ele>
        <time>2020-08-05T06:26:10.946Z</time>
      </trkpt>
      <trkpt lat="38.916475" lon="-1.622458">
        <ele>903.627615</ele>
        <time>2020-08-05T06:26:11.939Z</time>
      </trkpt>
      <trkpt lat="38.916467" lon="-1.622576">
        <ele>902.682636</ele>
        <time>2020-08-05T06:26:12.949Z</time>
      </trkpt>
      <trkpt lat="38.916448" lon="-1.622696">
        <ele>901.705646</ele>
        <time>2020-08-05T06:26:13.941Z</time>
      </trkpt>
      <trkpt lat="38.916402" lon="-1.622932">
        <ele>899.764639</ele>
        <time>2020-08-05T06:26:15.950Z</time>
      </trkpt>
      <trkpt lat="38.916394" lon="-1.623157">
        <ele>898.577324</ele>
        <time>2020-08-05T06:26:17.941Z</time>
      </trkpt>
      <trkpt lat="38.916350" lon="-1.623379">
        <ele>898.149829</ele>
        <time>2020-08-05T06:26:19.942Z</time>
      </trkpt>
      <trkpt lat="38.916336" lon="-1.623605">
        <ele>897.726764</ele>
        <time>2020-08-05T06:26:21.946Z</time>
      </trkpt>
      <trkpt lat="38.916288" lon="-1.623829">
        <ele>897.293203</ele>
        <time>2020-08-05T06:26:23.946Z</time>
      </trkpt>
      <trkpt lat="38.916285" lon="-1.624061">
        <ele>896.860216</ele>
        <time>2020-08-05T06:26:25.933Z</time>
      </trkpt>
      <trkpt lat="38.916286" lon="-1.624181">
        <ele>896.636275</ele>
        <time>2020-08-05T06:26:26.954Z</time>
      </trkpt>
      <trkpt lat="38.916255" lon="-1.624397">
        <ele>896.226405</ele>
        <time>2020-08-05T06:26:28.950Z</time>
      </trkpt>
      <trkpt lat="38.916229" lon="-1.624600">
        <ele>895.842496</ele>
        <time>2020-08-05T06:26:30.946Z</time>
      </trkpt>
      <trkpt lat="38.916218" lon="-1.624794">
        <ele>895.479519</ele>
        <time>2020-08-05T06:26:32.953Z</time>
      </trkpt>
      <trkpt lat="38.916172" lon="-1.624985">
        <ele>895.106416</ele>
        <time>2020-08-05T06:26:34.944Z</time>
      </trkpt>
      <trkpt lat="38.916146" lon="-1.625171">
        <ele>894.753771</ele>
        <time>2020-08-05T06:26:36.942Z</time>
      </trkpt>
      <trkpt lat="38.916133" lon="-1.625351">
        <ele>894.471803</ele>
        <time>2020-08-05T06:26:38.963Z</time>
      </trkpt>
      <trkpt lat="38.916121" lon="-1.625493">
        <ele>894.649064</ele>
        <time>2020-08-05T06:26:40.952Z</time>
      </trkpt>
      <trkpt lat="38.916122" lon="-1.625621">
        <ele>894.807922</ele>
        <time>2020-08-05T06:26:42.946Z</time>
      </trkpt>
      <trkpt lat="38.916096" lon="-1.625782">
        <ele>895.011985</ele>
        <time>2020-08-05T06:26:44.930Z</time>
      </trkpt>
      <trkpt lat="38.916089" lon="-1.625922">
        <ele>895.186086</ele>
        <time>2020-08-05T06:26:46.942Z</time>
      </trkpt>
      <trkpt lat="38.916069" lon="-1.626067">
        <ele>895.368840</ele>
        <time>2020-08-05T06:26:48.946Z</time>
      </trkpt>
      <trkpt lat="38.916033" lon="-1.626246">
        <ele>895.598283</ele>
        <time>2020-08-05T06:26:50.944Z</time>
      </trkpt>
      <trkpt lat="38.915977" lon="-1.626407">
        <ele>895.817144</ele>
        <time>2020-08-05T06:26:52.955Z</time>
      </trkpt>
      <trkpt lat="38.915917" lon="-1.626553">
        <ele>896.022054</ele>
        <time>2020-08-05T06:26:54.936Z</time>
      </trkpt>
      <trkpt lat="38.915880" lon="-1.626725">
        <ele>896.243518</ele>
        <time>2020-08-05T06:26:56.946Z</time>
      </trkpt>
      <trkpt lat="38.915838" lon="-1.626869">
        <ele>896.434368</ele>
        <time>2020-08-05T06:26:58.931Z</time>
      </trkpt>
      <trkpt lat="38.915835" lon="-1.627020">
        <ele>896.621824</ele>
        <time>2020-08-05T06:27:00.947Z</time>
      </trkpt>
      <trkpt lat="38.915833" lon="-1.627176">
        <ele>896.815450</ele>
        <time>2020-08-05T06:27:02.939Z</time>
      </trkpt>
      <trkpt lat="38.915799" lon="-1.627340">
        <ele>897.026079</ele>
        <time>2020-08-05T06:27:04.949Z</time>
      </trkpt>
      <trkpt lat="38.915768" lon="-1.627481">
        <ele>897.207915</ele>
        <time>2020-08-05T06:27:06.935Z</time>
      </trkpt>
      <trkpt lat="38.915764" lon="-1.627630">
        <ele>897.271330</ele>
        <time>2020-08-05T06:27:08.944Z</time>
      </trkpt>
      <trkpt lat="38.915759" lon="-1.627769">
        <ele>897.161785</ele>
        <time>2020-08-05T06:27:10.950Z</time>
      </trkpt>
      <trkpt lat="38.915748" lon="-1.627906">
        <ele>897.053357</ele>
        <time>2020-08-05T06:27:12.942Z</time>
      </trkpt>
      <trkpt lat="38.915721" lon="-1.628047">
        <ele>896.939042</ele>
        <time>2020-08-05T06:27:14.950Z</time>
      </trkpt>
      <trkpt lat="38.915731" lon="-1.628188">
        <ele>896.827578</ele>
        <time>2020-08-05T06:27:16.945Z</time>
      </trkpt>
      <trkpt lat="38.915686" lon="-1.628335">
        <ele>896.703216</ele>
        <time>2020-08-05T06:27:18.937Z</time>
      </trkpt>
      <trkpt lat="38.915639" lon="-1.628493">
        <ele>896.570049</ele>
        <time>2020-08-05T06:27:20.941Z</time>
      </trkpt>
      <trkpt lat="38.915628" lon="-1.628632">
        <ele>896.460055</ele>
        <time>2020-08-05T06:27:22.932Z</time>
      </trkpt>
      <trkpt lat="38.915621" lon="-1.628788">
        <ele>896.337038</ele>
        <time>2020-08-05T06:27:24.942Z</time>
      </trkpt>
      <trkpt lat="38.915608" lon="-1.628942">
        <ele>896.215089</ele>
        <time>2020-08-05T06:27:26.941Z</time>
      </trkpt>
      <trkpt lat="38.915590" lon="-1.629089">
        <ele>896.097937</ele>
        <time>2020-08-05T06:27:28.942Z</time>
      </trkpt>
      <trkpt lat="38.915566" lon="-1.629233">
        <ele>895.982000</ele>
        <time>2020-08-05T06:27:30.952Z</time>
      </trkpt>
      <trkpt lat="38.915533" lon="-1.629390">
        <ele>895.853970</ele>
        <time>2020-08-05T06:27:32.959Z</time>
      </trkpt>
      <trkpt lat="38.915510" lon="-1.629549">
        <ele>895.726650</ele>
        <time>2020-08-05T06:27:34.953Z</time>
      </trkpt>
      <trkpt lat="38.915485" lon="-1.629715">
        <ele>895.593539</ele>
        <time>2020-08-05T06:27:36.927Z</time>
      </trkpt>
      <trkpt lat="38.915469" lon="-1.629891">
        <ele>895.448465</ele>
        <time>2020-08-05T06:27:38.952Z</time>
      </trkpt>
      <trkpt lat="38.915448" lon="-1.630079">
        <ele>895.280262</ele>
        <time>2020-08-05T06:27:41.946Z</time>
      </trkpt>
      <trkpt lat="38.915409" lon="-1.630244">
        <ele>895.127541</ele>
        <time>2020-08-05T06:27:43.940Z</time>
      </trkpt>
      <trkpt lat="38.915410" lon="-1.630406">
        <ele>894.984066</ele>
        <time>2020-08-05T06:27:45.933Z</time>
      </trkpt>
      <trkpt lat="38.915394" lon="-1.630542">
        <ele>894.862253</ele>
        <time>2020-08-05T06:27:47.928Z</time>
      </trkpt>
      <trkpt lat="38.915391" lon="-1.630702">
        <ele>894.720512</ele>
        <time>2020-08-05T06:27:49.925Z</time>
      </trkpt>
      <trkpt lat="38.915356" lon="-1.630821">
        <ele>894.607845</ele>
        <time>2020-08-05T06:27:51.927Z</time>
      </trkpt>
      <trkpt lat="38.915316" lon="-1.630985">
        <ele>894.455635</ele>
        <time>2020-08-05T06:27:53.926Z</time>
      </trkpt>
      <trkpt lat="38.915310" lon="-1.631124">
        <ele>894.332344</ele>
        <time>2020-08-05T06:27:55.925Z</time>
      </trkpt>
      <trkpt lat="38.915296" lon="-1.631277">
        <ele>894.195910</ele>
        <time>2020-08-05T06:27:57.930Z</time>
      </trkpt>
      <trkpt lat="38.915260" lon="-1.631420">
        <ele>894.062802</ele>
        <time>2020-08-05T06:27:59.924Z</time>
      </trkpt>
      <trkpt lat="38.915252" lon="-1.631581">
        <ele>893.919927</ele>
        <time>2020-08-05T06:28:01.942Z</time>
      </trkpt>
      <trkpt lat="38.915229" lon="-1.631730">
        <ele>893.785397</ele>
        <time>2020-08-05T06:28:03.938Z</time>
      </trkpt>
      <trkpt lat="38.915202" lon="-1.631882">
        <ele>893.647319</ele>
        <time>2020-08-05T06:28:05.928Z</time>
      </trkpt>
      <trkpt lat="38.915167" lon="-1.632016">
        <ele>893.522137</ele>
        <time>2020-08-05T06:28:07.927Z</time>
      </trkpt>
      <trkpt lat="38.915131" lon="-1.632178">
        <ele>893.462552</ele>
        <time>2020-08-05T06:28:09.955Z</time>
      </trkpt>
      <trkpt lat="38.915101" lon="-1.632331">
        <ele>893.482419</ele>
        <time>2020-08-05T06:28:11.935Z</time>
      </trkpt>
      <trkpt lat="38.915067" lon="-1.632491">
        <ele>893.503304</ele>
        <time>2020-08-05T06:28:13.934Z</time>
      </trkpt>
      <trkpt lat="38.915037" lon="-1.632656">
        <ele>893.524640</ele>
        <time>2020-08-05T06:28:15.930Z</time>
      </trkpt>
      <trkpt lat="38.915046" lon="-1.632804">
        <ele>893.543333</ele>
        <time>2020-08-05T06:28:17.932Z</time>
      </trkpt>
      <trkpt lat="38.915023" lon="-1.632969">
        <ele>893.564440</ele>
        <time>2020-08-05T06:28:19.944Z</time>
      </trkpt>
      <trkpt lat="38.914978" lon="-1.633126">
        <ele>893.585508</ele>
        <time>2020-08-05T06:28:21.946Z</time>
      </trkpt>
      <trkpt lat="38.914954" lon="-1.633285">
        <ele>893.605902</ele>
        <time>2020-08-05T06:28:23.944Z</time>
      </trkpt>
      <trkpt lat="38.914930" lon="-1.633437">
        <ele>893.625431</ele>
        <time>2020-08-05T06:28:25.937Z</time>
      </trkpt>
      <trkpt lat="38.914908" lon="-1.633603">
        <ele>893.646635</ele>
        <time>2020-08-05T06:28:27.938Z</time>
      </trkpt>
      <trkpt lat="38.914887" lon="-1.633750">
        <ele>893.665454</ele>
        <time>2020-08-05T06:28:29.939Z</time>
      </trkpt>
      <trkpt lat="38.914878" lon="-1.633894">
        <ele>893.683644</ele>
        <time>2020-08-05T06:28:31.936Z</time>
      </trkpt>
      <trkpt lat="38.914874" lon="-1.634079">
        <ele>893.706948</ele>
        <time>2020-08-05T06:28:33.939Z</time>
      </trkpt>
      <trkpt lat="38.914853" lon="-1.634216">
        <ele>893.724530</ele>
        <time>2020-08-05T06:28:35.938Z</time>
      </trkpt>
      <trkpt lat="38.914816" lon="-1.634345">
        <ele>893.741842</ele>
        <time>2020-08-05T06:28:37.933Z</time>
      </trkpt>
      <trkpt lat="38.914772" lon="-1.634475">
        <ele>893.672658</ele>
        <time>2020-08-05T06:28:39.941Z</time>
      </trkpt>
      <trkpt lat="38.914774" lon="-1.634623">
        <ele>893.597097</ele>
        <time>2020-08-05T06:28:41.957Z</time>
      </trkpt>
      <trkpt lat="38.914750" lon="-1.634783">
        <ele>893.513918</ele>
        <time>2020-08-05T06:28:43.932Z</time>
      </trkpt>
      <trkpt lat="38.914723" lon="-1.634948">
        <ele>893.427849</ele>
        <time>2020-08-05T06:28:45.939Z</time>
      </trkpt>
      <trkpt lat="38.914690" lon="-1.635112">
        <ele>893.341377</ele>
        <time>2020-08-05T06:28:47.935Z</time>
      </trkpt>
      <trkpt lat="38.914666" lon="-1.635249">
        <ele>893.269693</ele>
        <time>2020-08-05T06:28:49.956Z</time>
      </trkpt>
      <trkpt lat="38.914641" lon="-1.635428">
        <ele>893.176858</ele>
        <time>2020-08-05T06:28:51.954Z</time>
      </trkpt>
      <trkpt lat="38.914601" lon="-1.635589">
        <ele>893.090585</ele>
        <time>2020-08-05T06:28:53.925Z</time>
      </trkpt>
      <trkpt lat="38.914586" lon="-1.635751">
        <ele>893.007305</ele>
        <time>2020-08-05T06:28:55.931Z</time>
      </trkpt>
      <trkpt lat="38.914582" lon="-1.635909">
        <ele>892.926608</ele>
        <time>2020-08-05T06:28:57.940Z</time>
      </trkpt>
      <trkpt lat="38.914560" lon="-1.636067">
        <ele>892.844673</ele>
        <time>2020-08-05T06:28:59.949Z</time>
      </trkpt>
      <trkpt lat="38.914543" lon="-1.636212">
        <ele>892.769819</ele>
        <time>2020-08-05T06:29:01.926Z</time>
      </trkpt>
      <trkpt lat="38.914542" lon="-1.636370">
        <ele>892.689162</ele>
        <time>2020-08-05T06:29:03.951Z</time>
      </trkpt>
      <trkpt lat="38.914513" lon="-1.636517">
        <ele>892.611749</ele>
        <time>2020-08-05T06:29:05.941Z</time>
      </trkpt>
      <trkpt lat="38.914489" lon="-1.636679">
        <ele>892.570313</ele>
        <time>2020-08-05T06:29:07.951Z</time>
      </trkpt>
      <trkpt lat="38.914477" lon="-1.636820">
        <ele>892.586625</ele>
        <time>2020-08-05T06:29:09.944Z</time>
      </trkpt>
      <trkpt lat="38.914443" lon="-1.636942">
        <ele>892.601527</ele>
        <time>2020-08-05T06:29:11.945Z</time>
      </trkpt>
      <trkpt lat="38.914403" lon="-1.637098">
        <ele>892.620417</ele>
        <time>2020-08-05T06:29:13.943Z</time>
      </trkpt>
      <trkpt lat="38.914378" lon="-1.637255">
        <ele>892.638846</ele>
        <time>2020-08-05T06:29:15.944Z</time>
      </trkpt>
      <trkpt lat="38.914349" lon="-1.637417">
        <ele>892.657963</ele>
        <time>2020-08-05T06:29:17.942Z</time>
      </trkpt>
      <trkpt lat="38.914318" lon="-1.637571">
        <ele>892.676256</ele>
        <time>2020-08-05T06:29:19.943Z</time>
      </trkpt>
      <trkpt lat="38.914294" lon="-1.637708">
        <ele>892.692406</ele>
        <time>2020-08-05T06:29:21.934Z</time>
      </trkpt>
      <trkpt lat="38.914261" lon="-1.637878">
        <ele>892.712555</ele>
        <time>2020-08-05T06:29:23.940Z</time>
      </trkpt>
      <trkpt lat="38.914217" lon="-1.638050">
        <ele>892.733377</ele>
        <time>2020-08-05T06:29:25.941Z</time>
      </trkpt>
      <trkpt lat="38.914180" lon="-1.638205">
        <ele>892.752022</ele>
        <time>2020-08-05T06:29:27.942Z</time>
      </trkpt>
      <trkpt lat="38.914165" lon="-1.638383">
        <ele>892.772612</ele>
        <time>2020-08-05T06:29:29.936Z</time>
      </trkpt>
      <trkpt lat="38.914131" lon="-1.638547">
        <ele>892.792131</ele>
        <time>2020-08-05T06:29:31.929Z</time>
      </trkpt>
      <trkpt lat="38.914105" lon="-1.638696">
        <ele>892.809691</ele>
        <time>2020-08-05T06:29:33.940Z</time>
      </trkpt>
      <trkpt lat="38.914073" lon="-1.638886">
        <ele>892.792158</ele>
        <time>2020-08-05T06:29:35.933Z</time>
      </trkpt>
      <trkpt lat="38.914036" lon="-1.639056">
        <ele>892.596782</ele>
        <time>2020-08-05T06:29:37.925Z</time>
      </trkpt>
      <trkpt lat="38.914032" lon="-1.639225">
        <ele>892.409648</ele>
        <time>2020-08-05T06:29:39.935Z</time>
      </trkpt>
      <trkpt lat="38.914013" lon="-1.639376">
        <ele>892.240352</ele>
        <time>2020-08-05T06:29:41.938Z</time>
      </trkpt>
      <trkpt lat="38.913964" lon="-1.639529">
        <ele>892.057230</ele>
        <time>2020-08-05T06:29:43.942Z</time>
      </trkpt>
      <trkpt lat="38.913938" lon="-1.639691">
        <ele>891.874155</ele>
        <time>2020-08-05T06:29:45.953Z</time>
      </trkpt>
      <trkpt lat="38.913905" lon="-1.639856">
        <ele>891.685599</ele>
        <time>2020-08-05T06:29:47.938Z</time>
      </trkpt>
      <trkpt lat="38.913895" lon="-1.640000">
        <ele>891.525587</ele>
        <time>2020-08-05T06:29:49.936Z</time>
      </trkpt>
      <trkpt lat="38.913873" lon="-1.640146">
        <ele>891.360993</ele>
        <time>2020-08-05T06:29:51.945Z</time>
      </trkpt>
      <trkpt lat="38.913856" lon="-1.640291">
        <ele>891.198697</ele>
        <time>2020-08-05T06:29:53.951Z</time>
      </trkpt>
      <trkpt lat="38.913828" lon="-1.640427">
        <ele>891.042993</ele>
        <time>2020-08-05T06:29:55.935Z</time>
      </trkpt>
      <trkpt lat="38.913792" lon="-1.640569">
        <ele>890.877697</ele>
        <time>2020-08-05T06:29:57.950Z</time>
      </trkpt>
      <trkpt lat="38.913765" lon="-1.640753">
        <ele>890.670457</ele>
        <time>2020-08-05T06:30:00.946Z</time>
      </trkpt>
      <trkpt lat="38.913728" lon="-1.640882">
        <ele>890.518289</ele>
        <time>2020-08-05T06:30:02.948Z</time>
      </trkpt>
      <trkpt lat="38.913696" lon="-1.641001">
        <ele>890.378937</ele>
        <time>2020-08-05T06:30:04.946Z</time>
      </trkpt>
      <trkpt lat="38.913652" lon="-1.641143">
        <ele>890.316494</ele>
        <time>2020-08-05T06:30:07.942Z</time>
      </trkpt>
      <trkpt lat="38.913591" lon="-1.641275">
        <ele>890.448545</ele>
        <time>2020-08-05T06:30:10.932Z</time>
      </trkpt>
      <trkpt lat="38.913544" lon="-1.641394">
        <ele>890.563332</ele>
        <time>2020-08-05T06:30:13.928Z</time>
      </trkpt>
      <trkpt lat="38.913490" lon="-1.641488">
        <ele>890.663832</ele>
        <time>2020-08-05T06:30:16.927Z</time>
      </trkpt>
      <trkpt lat="38.913430" lon="-1.641592">
        <ele>890.775192</ele>
        <time>2020-08-05T06:30:19.930Z</time>
      </trkpt>
      <trkpt lat="38.913389" lon="-1.641715">
        <ele>890.890288</ele>
        <time>2020-08-05T06:30:22.934Z</time>
      </trkpt>
      <trkpt lat="38.913354" lon="-1.641836">
        <ele>891.001322</ele>
        <time>2020-08-05T06:30:25.925Z</time>
      </trkpt>
      <trkpt lat="38.913313" lon="-1.641954">
        <ele>891.112478</ele>
        <time>2020-08-05T06:30:28.939Z</time>
      </trkpt>
      <trkpt lat="38.913275" lon="-1.642079">
        <ele>891.227909</ele>
        <time>2020-08-05T06:30:31.937Z</time>
      </trkpt>
      <trkpt lat="38.913239" lon="-1.642222">
        <ele>891.357185</ele>
        <time>2020-08-05T06:30:34.950Z</time>
      </trkpt>
      <trkpt lat="38.913290" lon="-1.642335">
        <ele>891.469547</ele>
        <time>2020-08-05T06:30:37.936Z</time>
      </trkpt>
      <trkpt lat="38.913403" lon="-1.642355">
        <ele>891.595640</ele>
        <time>2020-08-05T06:30:40.936Z</time>
      </trkpt>
      <trkpt lat="38.913515" lon="-1.642352">
        <ele>891.719475</ele>
        <time>2020-08-05T06:30:43.939Z</time>
      </trkpt>
      <trkpt lat="38.913612" lon="-1.642372">
        <ele>891.828073</ele>
        <time>2020-08-05T06:30:46.938Z</time>
      </trkpt>
      <trkpt lat="38.913704" lon="-1.642374">
        <ele>891.929787</ele>
        <time>2020-08-05T06:30:49.931Z</time>
      </trkpt>
      <trkpt lat="38.913811" lon="-1.642393">
        <ele>892.049191</ele>
        <time>2020-08-05T06:30:53.930Z</time>
      </trkpt>
      <trkpt lat="38.913919" lon="-1.642423">
        <ele>892.171334</ele>
        <time>2020-08-05T06:30:58.947Z</time>
      </trkpt>
      <trkpt lat="38.914025" lon="-1.642433">
        <ele>892.433796</ele>
        <time>2020-08-05T06:31:03.948Z</time>
      </trkpt>
      <trkpt lat="38.914116" lon="-1.642452">
        <ele>893.016515</ele>
        <time>2020-08-05T06:31:07.940Z</time>
      </trkpt>
      <trkpt lat="38.914210" lon="-1.642458">
        <ele>893.611388</ele>
        <time>2020-08-05T06:31:11.934Z</time>
      </trkpt>
      <trkpt lat="38.914306" lon="-1.642465">
        <ele>894.219145</ele>
        <time>2020-08-05T06:31:15.927Z</time>
      </trkpt>
      <trkpt lat="38.914408" lon="-1.642474">
        <ele>894.865369</ele>
        <time>2020-08-05T06:31:20.943Z</time>
      </trkpt>
      <trkpt lat="38.914467" lon="-1.642579">
        <ele>895.502335</ele>
        <time>2020-08-05T06:31:24.931Z</time>
      </trkpt>
      <trkpt lat="38.914498" lon="-1.642703">
        <ele>896.142871</ele>
        <time>2020-08-05T06:31:27.939Z</time>
      </trkpt>
      <trkpt lat="38.914534" lon="-1.642819">
        <ele>896.757063</ele>
        <time>2020-08-05T06:31:30.937Z</time>
      </trkpt>
      <trkpt lat="38.914558" lon="-1.642940">
        <ele>897.371170</ele>
        <time>2020-08-05T06:31:33.944Z</time>
      </trkpt>
      <trkpt lat="38.914579" lon="-1.643070">
        <ele>898.024141</ele>
        <time>2020-08-05T06:31:36.948Z</time>
      </trkpt>
      <trkpt lat="38.914587" lon="-1.643225">
        <ele>898.788104</ele>
        <time>2020-08-05T06:31:39.946Z</time>
      </trkpt>
      <trkpt lat="38.914605" lon="-1.643381">
        <ele>899.563700</ele>
        <time>2020-08-05T06:31:42.947Z</time>
      </trkpt>
      <trkpt lat="38.914637" lon="-1.643537">
        <ele>900.357119</ele>
        <time>2020-08-05T06:31:45.945Z</time>
      </trkpt>
      <trkpt lat="38.914665" lon="-1.643673">
        <ele>901.048983</ele>
        <time>2020-08-05T06:31:47.949Z</time>
      </trkpt>
      <trkpt lat="38.914698" lon="-1.643786">
        <ele>901.642568</ele>
        <time>2020-08-05T06:31:49.958Z</time>
      </trkpt>
      <trkpt lat="38.914727" lon="-1.643908">
        <ele>902.269936</ele>
        <time>2020-08-05T06:31:51.939Z</time>
      </trkpt>
      <trkpt lat="38.914777" lon="-1.644019">
        <ele>902.900712</ele>
        <time>2020-08-05T06:31:53.945Z</time>
      </trkpt>
      <trkpt lat="38.914808" lon="-1.644178">
        <ele>903.588800</ele>
        <time>2020-08-05T06:31:56.944Z</time>
      </trkpt>
      <trkpt lat="38.914832" lon="-1.644330">
        <ele>903.228398</ele>
        <time>2020-08-05T06:31:59.953Z</time>
      </trkpt>
      <trkpt lat="38.914855" lon="-1.644452">
        <ele>902.936703</ele>
        <time>2020-08-05T06:32:01.935Z</time>
      </trkpt>
      <trkpt lat="38.914899" lon="-1.644616">
        <ele>902.533597</ele>
        <time>2020-08-05T06:32:04.947Z</time>
      </trkpt>
      <trkpt lat="38.914926" lon="-1.644743">
        <ele>902.227669</ele>
        <time>2020-08-05T06:32:06.947Z</time>
      </trkpt>
      <trkpt lat="38.914940" lon="-1.644868">
        <ele>901.934213</ele>
        <time>2020-08-05T06:32:08.947Z</time>
      </trkpt>
      <trkpt lat="38.914962" lon="-1.645004">
        <ele>901.611432</ele>
        <time>2020-08-05T06:32:10.946Z</time>
      </trkpt>
      <trkpt lat="38.914968" lon="-1.645144">
        <ele>901.285621</ele>
        <time>2020-08-05T06:32:12.936Z</time>
      </trkpt>
      <trkpt lat="38.914957" lon="-1.645304">
        <ele>900.912381</ele>
        <time>2020-08-05T06:32:14.947Z</time>
      </trkpt>
      <trkpt lat="38.914973" lon="-1.645456">
        <ele>900.555961</ele>
        <time>2020-08-05T06:32:16.959Z</time>
      </trkpt>
      <trkpt lat="38.914954" lon="-1.645649">
        <ele>900.103912</ele>
        <time>2020-08-05T06:32:18.943Z</time>
      </trkpt>
      <trkpt lat="38.914921" lon="-1.645838">
        <ele>899.653810</ele>
        <time>2020-08-05T06:32:20.959Z</time>
      </trkpt>
      <trkpt lat="38.914885" lon="-1.646027">
        <ele>899.201662</ele>
        <time>2020-08-05T06:32:22.950Z</time>
      </trkpt>
      <trkpt lat="38.914851" lon="-1.646140">
        <ele>898.920135</ele>
        <time>2020-08-05T06:32:23.945Z</time>
      </trkpt>
      <trkpt lat="38.914783" lon="-1.646355">
        <ele>898.380841</ele>
        <time>2020-08-05T06:32:25.957Z</time>
      </trkpt>
      <trkpt lat="38.914724" lon="-1.646546">
        <ele>897.876742</ele>
        <time>2020-08-05T06:32:27.942Z</time>
      </trkpt>
      <trkpt lat="38.914651" lon="-1.646745">
        <ele>897.326889</ele>
        <time>2020-08-05T06:32:29.946Z</time>
      </trkpt>
      <trkpt lat="38.914579" lon="-1.646942">
        <ele>896.782926</ele>
        <time>2020-08-05T06:32:31.949Z</time>
      </trkpt>
      <trkpt lat="38.914469" lon="-1.647137">
        <ele>896.180968</ele>
        <time>2020-08-05T06:32:33.951Z</time>
      </trkpt>
      <trkpt lat="38.914370" lon="-1.647330">
        <ele>895.603225</ele>
        <time>2020-08-05T06:32:35.938Z</time>
      </trkpt>
      <trkpt lat="38.914320" lon="-1.647429">
        <ele>895.308245</ele>
        <time>2020-08-05T06:32:36.944Z</time>
      </trkpt>
      <trkpt lat="38.914264" lon="-1.647540">
        <ele>894.977615</ele>
        <time>2020-08-05T06:32:37.935Z</time>
      </trkpt>
      <trkpt lat="38.914166" lon="-1.647750">
        <ele>894.365610</ele>
        <time>2020-08-05T06:32:39.931Z</time>
      </trkpt>
      <trkpt lat="38.914074" lon="-1.647812">
        <ele>894.031939</ele>
        <time>2020-08-05T06:32:40.942Z</time>
      </trkpt>
      <trkpt lat="38.914017" lon="-1.647905">
        <ele>893.736058</ele>
        <time>2020-08-05T06:32:41.954Z</time>
      </trkpt>
      <trkpt lat="38.913954" lon="-1.648003">
        <ele>893.418348</ele>
        <time>2020-08-05T06:32:42.948Z</time>
      </trkpt>
      <trkpt lat="38.913898" lon="-1.648119">
        <ele>893.077165</ele>
        <time>2020-08-05T06:32:43.929Z</time>
      </trkpt>
      <trkpt lat="38.913845" lon="-1.648215">
        <ele>892.782974</ele>
        <time>2020-08-05T06:32:44.950Z</time>
      </trkpt>
      <trkpt lat="38.913788" lon="-1.648323">
        <ele>892.470834</ele>
        <time>2020-08-05T06:32:45.946Z</time>
      </trkpt>
      <trkpt lat="38.913680" lon="-1.648537">
        <ele>892.260015</ele>
        <time>2020-08-05T06:32:47.936Z</time>
      </trkpt>
      <trkpt lat="38.913594" lon="-1.648740">
        <ele>892.068975</ele>
        <time>2020-08-05T06:32:49.936Z</time>
      </trkpt>
      <trkpt lat="38.913551" lon="-1.648858">
        <ele>891.961281</ele>
        <time>2020-08-05T06:32:50.937Z</time>
      </trkpt>
      <trkpt lat="38.913498" lon="-1.648960">
        <ele>891.859907</ele>
        <time>2020-08-05T06:32:51.946Z</time>
      </trkpt>
      <trkpt lat="38.913442" lon="-1.649071">
        <ele>891.750567</ele>
        <time>2020-08-05T06:32:52.942Z</time>
      </trkpt>
      <trkpt lat="38.913401" lon="-1.649174">
        <ele>891.654943</ele>
        <time>2020-08-05T06:32:53.944Z</time>
      </trkpt>
      <trkpt lat="38.913332" lon="-1.649354">
        <ele>891.489095</ele>
        <time>2020-08-05T06:32:55.937Z</time>
      </trkpt>
      <trkpt lat="38.913292" lon="-1.649549">
        <ele>891.322418</ele>
        <time>2020-08-05T06:32:57.938Z</time>
      </trkpt>
      <trkpt lat="38.913203" lon="-1.649737">
        <ele>891.140534</ele>
        <time>2020-08-05T06:32:59.958Z</time>
      </trkpt>
      <trkpt lat="38.913135" lon="-1.649927">
        <ele>890.967680</ele>
        <time>2020-08-05T06:33:01.959Z</time>
      </trkpt>
      <trkpt lat="38.913057" lon="-1.650102">
        <ele>890.800989</ele>
        <time>2020-08-05T06:33:03.941Z</time>
      </trkpt>
      <trkpt lat="38.912990" lon="-1.650290">
        <ele>890.630081</ele>
        <time>2020-08-05T06:33:05.934Z</time>
      </trkpt>
      <trkpt lat="38.912921" lon="-1.650426">
        <ele>890.633447</ele>
        <time>2020-08-05T06:33:07.960Z</time>
      </trkpt>
      <trkpt lat="38.912862" lon="-1.650586">
        <ele>890.769429</ele>
        <time>2020-08-05T06:33:09.957Z</time>
      </trkpt>
      <trkpt lat="38.912801" lon="-1.650729">
        <ele>890.894675</ele>
        <time>2020-08-05T06:33:11.959Z</time>
      </trkpt>
      <trkpt lat="38.912762" lon="-1.650856">
        <ele>890.999533</ele>
        <time>2020-08-05T06:33:13.935Z</time>
      </trkpt>
      <trkpt lat="38.912723" lon="-1.650991">
        <ele>891.110129</ele>
        <time>2020-08-05T06:33:15.941Z</time>
      </trkpt>
      <trkpt lat="38.912682" lon="-1.651118">
        <ele>891.215728</ele>
        <time>2020-08-05T06:33:17.937Z</time>
      </trkpt>
      <trkpt lat="38.912638" lon="-1.651247">
        <ele>891.323902</ele>
        <time>2020-08-05T06:33:19.947Z</time>
      </trkpt>
      <trkpt lat="38.912586" lon="-1.651368">
        <ele>891.430062</ele>
        <time>2020-08-05T06:33:21.941Z</time>
      </trkpt>
      <trkpt lat="38.912550" lon="-1.651492">
        <ele>891.531708</ele>
        <time>2020-08-05T06:33:23.939Z</time>
      </trkpt>
      <trkpt lat="38.912513" lon="-1.651625">
        <ele>891.640186</ele>
        <time>2020-08-05T06:33:25.930Z</time>
      </trkpt>
      <trkpt lat="38.912463" lon="-1.651767">
        <ele>891.759890</ele>
        <time>2020-08-05T06:33:27.931Z</time>
      </trkpt>
      <trkpt lat="38.912430" lon="-1.651913">
        <ele>891.876654</ele>
        <time>2020-08-05T06:33:29.956Z</time>
      </trkpt>
      <trkpt lat="38.912397" lon="-1.652055">
        <ele>891.990472</ele>
        <time>2020-08-05T06:33:31.940Z</time>
      </trkpt>
      <trkpt lat="38.912384" lon="-1.652210">
        <ele>892.110203</ele>
        <time>2020-08-05T06:33:33.930Z</time>
      </trkpt>
      <trkpt lat="38.912376" lon="-1.652376">
        <ele>892.237937</ele>
        <time>2020-08-05T06:33:35.930Z</time>
      </trkpt>
      <trkpt lat="38.912372" lon="-1.652574">
        <ele>892.701351</ele>
        <time>2020-08-05T06:33:37.935Z</time>
      </trkpt>
      <trkpt lat="38.912393" lon="-1.652772">
        <ele>893.859401</ele>
        <time>2020-08-05T06:33:39.927Z</time>
      </trkpt>
      <trkpt lat="38.912431" lon="-1.652991">
        <ele>895.159712</ele>
        <time>2020-08-05T06:33:41.950Z</time>
      </trkpt>
      <trkpt lat="38.912454" lon="-1.653119">
        <ele>895.921013</ele>
        <time>2020-08-05T06:33:42.950Z</time>
      </trkpt>
      <trkpt lat="38.912457" lon="-1.653281">
        <ele>896.860092</ele>
        <time>2020-08-05T06:33:44.935Z</time>
      </trkpt>
      <trkpt lat="38.912430" lon="-1.653566">
        <ele>898.523906</ele>
        <time>2020-08-05T06:33:46.942Z</time>
      </trkpt>
      <trkpt lat="38.912388" lon="-1.653752">
        <ele>899.646274</ele>
        <time>2020-08-05T06:33:47.951Z</time>
      </trkpt>
      <trkpt lat="38.912390" lon="-1.653924">
        <ele>900.643151</ele>
        <time>2020-08-05T06:33:49.926Z</time>
      </trkpt>
      <trkpt lat="38.912400" lon="-1.654106">
        <ele>901.700495</ele>
        <time>2020-08-05T06:33:51.933Z</time>
      </trkpt>
      <trkpt lat="38.912343" lon="-1.654213">
        <ele>902.451974</ele>
        <time>2020-08-05T06:33:52.934Z</time>
      </trkpt>
      <trkpt lat="38.912291" lon="-1.654359">
        <ele>903.382490</ele>
        <time>2020-08-05T06:33:54.924Z</time>
      </trkpt>
      <trkpt lat="38.912264" lon="-1.654475">
        <ele>904.084161</ele>
        <time>2020-08-05T06:33:55.931Z</time>
      </trkpt>
      <trkpt lat="38.912217" lon="-1.654577">
        <ele>904.771138</ele>
        <time>2020-08-05T06:33:56.931Z</time>
      </trkpt>
      <trkpt lat="38.912181" lon="-1.654684">
        <ele>905.446705</ele>
        <time>2020-08-05T06:33:57.928Z</time>
      </trkpt>
      <trkpt lat="38.912154" lon="-1.654881">
        <ele>906.147894</ele>
        <time>2020-08-05T06:33:59.934Z</time>
      </trkpt>
      <trkpt lat="38.912124" lon="-1.655066">
        <ele>906.664861</ele>
        <time>2020-08-05T06:34:01.935Z</time>
      </trkpt>
      <trkpt lat="38.912084" lon="-1.655263">
        <ele>907.221830</ele>
        <time>2020-08-05T06:34:03.937Z</time>
      </trkpt>
      <trkpt lat="38.912075" lon="-1.655413">
        <ele>907.633395</ele>
        <time>2020-08-05T06:34:05.926Z</time>
      </trkpt>
      <trkpt lat="38.912042" lon="-1.655529">
        <ele>907.971274</ele>
        <time>2020-08-05T06:34:06.931Z</time>
      </trkpt>
      <trkpt lat="38.912001" lon="-1.655737">
        <ele>908.558262</ele>
        <time>2020-08-05T06:34:08.945Z</time>
      </trkpt>
      <trkpt lat="38.911973" lon="-1.655849">
        <ele>908.880081</ele>
        <time>2020-08-05T06:34:09.933Z</time>
      </trkpt>
      <trkpt lat="38.911959" lon="-1.655987">
        <ele>909.260796</ele>
        <time>2020-08-05T06:34:11.930Z</time>
      </trkpt>
      <trkpt lat="38.911951" lon="-1.656154">
        <ele>909.718514</ele>
        <time>2020-08-05T06:34:13.939Z</time>
      </trkpt>
      <trkpt lat="38.911942" lon="-1.656335">
        <ele>910.214677</ele>
        <time>2020-08-05T06:34:15.950Z</time>
      </trkpt>
      <trkpt lat="38.911926" lon="-1.656496">
        <ele>910.658695</ele>
        <time>2020-08-05T06:34:17.951Z</time>
      </trkpt>
      <trkpt lat="38.911893" lon="-1.656668">
        <ele>911.143319</ele>
        <time>2020-08-05T06:34:19.936Z</time>
      </trkpt>
      <trkpt lat="38.911864" lon="-1.656849">
        <ele>911.648861</ele>
        <time>2020-08-05T06:34:21.947Z</time>
      </trkpt>
      <trkpt lat="38.911828" lon="-1.656990">
        <ele>912.054822</ele>
        <time>2020-08-05T06:34:23.943Z</time>
      </trkpt>
      <trkpt lat="38.911786" lon="-1.657154">
        <ele>912.058947</ele>
        <time>2020-08-05T06:34:25.921Z</time>
      </trkpt>
      <trkpt lat="38.911789" lon="-1.657287">
        <ele>912.056610</ele>
        <time>2020-08-05T06:34:27.938Z</time>
      </trkpt>
      <trkpt lat="38.911771" lon="-1.657413">
        <ele>912.054360</ele>
        <time>2020-08-05T06:34:29.950Z</time>
      </trkpt>
      <trkpt lat="38.911751" lon="-1.657561">
        <ele>912.051721</ele>
        <time>2020-08-05T06:34:31.945Z</time>
      </trkpt>
      <trkpt lat="38.911737" lon="-1.657700">
        <ele>912.049259</ele>
        <time>2020-08-05T06:34:33.950Z</time>
      </trkpt>
      <trkpt lat="38.911678" lon="-1.657827">
        <ele>912.046661</ele>
        <time>2020-08-05T06:34:35.939Z</time>
      </trkpt>
      <trkpt lat="38.911669" lon="-1.657976">
        <ele>912.044037</ele>
        <time>2020-08-05T06:34:37.962Z</time>
      </trkpt>
      <trkpt lat="38.911623" lon="-1.658136">
        <ele>912.041041</ele>
        <time>2020-08-05T06:34:39.945Z</time>
      </trkpt>
      <trkpt lat="38.911611" lon="-1.658281">
        <ele>912.038479</ele>
        <time>2020-08-05T06:34:41.945Z</time>
      </trkpt>
      <trkpt lat="38.911600" lon="-1.658422">
        <ele>912.035990</ele>
        <time>2020-08-05T06:34:43.945Z</time>
      </trkpt>
      <trkpt lat="38.911584" lon="-1.658602">
        <ele>912.032808</ele>
        <time>2020-08-05T06:34:45.948Z</time>
      </trkpt>
      <trkpt lat="38.911552" lon="-1.658746">
        <ele>912.030178</ele>
        <time>2020-08-05T06:34:47.943Z</time>
      </trkpt>
      <trkpt lat="38.911537" lon="-1.658898">
        <ele>912.027487</ele>
        <time>2020-08-05T06:34:49.938Z</time>
      </trkpt>
      <trkpt lat="38.911527" lon="-1.659077">
        <ele>912.024335</ele>
        <time>2020-08-05T06:34:51.948Z</time>
      </trkpt>
      <trkpt lat="38.911503" lon="-1.659214">
        <ele>912.021868</ele>
        <time>2020-08-05T06:34:53.947Z</time>
      </trkpt>
      <trkpt lat="38.911460" lon="-1.659407">
        <ele>911.699920</ele>
        <time>2020-08-05T06:34:55.953Z</time>
      </trkpt>
      <trkpt lat="38.911433" lon="-1.659561">
        <ele>911.401989</ele>
        <time>2020-08-05T06:34:57.928Z</time>
      </trkpt>
      <trkpt lat="38.911402" lon="-1.659735">
        <ele>911.065100</ele>
        <time>2020-08-05T06:34:59.932Z</time>
      </trkpt>
      <trkpt lat="38.911381" lon="-1.659897">
        <ele>910.755143</ele>
        <time>2020-08-05T06:35:01.947Z</time>
      </trkpt>
      <trkpt lat="38.911357" lon="-1.660070">
        <ele>910.423491</ele>
        <time>2020-08-05T06:35:03.947Z</time>
      </trkpt>
      <trkpt lat="38.911320" lon="-1.660236">
        <ele>910.097599</ele>
        <time>2020-08-05T06:35:05.949Z</time>
      </trkpt>
      <trkpt lat="38.911297" lon="-1.660386">
        <ele>909.809059</ele>
        <time>2020-08-05T06:35:07.958Z</time>
      </trkpt>
      <trkpt lat="38.911274" lon="-1.660556">
        <ele>909.483403</ele>
        <time>2020-08-05T06:35:09.936Z</time>
      </trkpt>
      <trkpt lat="38.911239" lon="-1.660746">
        <ele>909.114903</ele>
        <time>2020-08-05T06:35:11.952Z</time>
      </trkpt>
      <trkpt lat="38.911216" lon="-1.660866">
        <ele>908.881656</ele>
        <time>2020-08-05T06:35:13.938Z</time>
      </trkpt>
      <trkpt lat="38.911175" lon="-1.661013">
        <ele>908.586938</ele>
        <time>2020-08-05T06:35:15.942Z</time>
      </trkpt>
      <trkpt lat="38.911163" lon="-1.661167">
        <ele>908.294838</ele>
        <time>2020-08-05T06:35:17.942Z</time>
      </trkpt>
      <trkpt lat="38.911141" lon="-1.661325">
        <ele>907.991907</ele>
        <time>2020-08-05T06:35:19.948Z</time>
      </trkpt>
      <trkpt lat="38.911113" lon="-1.661454">
        <ele>907.739149</ele>
        <time>2020-08-05T06:35:21.948Z</time>
      </trkpt>
      <trkpt lat="38.911105" lon="-1.661584">
        <ele>907.466217</ele>
        <time>2020-08-05T06:35:23.945Z</time>
      </trkpt>
      <trkpt lat="38.911071" lon="-1.661767">
        <ele>907.053680</ele>
        <time>2020-08-05T06:35:26.942Z</time>
      </trkpt>
      <trkpt lat="38.911070" lon="-1.661906">
        <ele>906.748887</ele>
        <time>2020-08-05T06:35:28.930Z</time>
      </trkpt>
      <trkpt lat="38.911062" lon="-1.662028">
        <ele>906.480434</ele>
        <time>2020-08-05T06:35:30.949Z</time>
      </trkpt>
      <trkpt lat="38.911051" lon="-1.662156">
        <ele>906.198066</ele>
        <time>2020-08-05T06:35:32.945Z</time>
      </trkpt>
      <trkpt lat="38.911035" lon="-1.662298">
        <ele>905.883461</ele>
        <time>2020-08-05T06:35:34.943Z</time>
      </trkpt>
      <trkpt lat="38.911032" lon="-1.662433">
        <ele>905.587330</ele>
        <time>2020-08-05T06:35:36.944Z</time>
      </trkpt>
      <trkpt lat="38.910981" lon="-1.662614">
        <ele>905.165239</ele>
        <time>2020-08-05T06:35:38.941Z</time>
      </trkpt>
      <trkpt lat="38.910961" lon="-1.662772">
        <ele>904.814244</ele>
        <time>2020-08-05T06:35:40.947Z</time>
      </trkpt>
      <trkpt lat="38.910943" lon="-1.662904">
        <ele>904.520401</ele>
        <time>2020-08-05T06:35:42.930Z</time>
      </trkpt>
      <trkpt lat="38.910925" lon="-1.663066">
        <ele>904.161586</ele>
        <time>2020-08-05T06:35:44.951Z</time>
      </trkpt>
      <trkpt lat="38.910897" lon="-1.663210">
        <ele>903.836133</ele>
        <time>2020-08-05T06:35:46.944Z</time>
      </trkpt>
      <trkpt lat="38.910880" lon="-1.663336">
        <ele>903.555734</ele>
        <time>2020-08-05T06:35:48.944Z</time>
      </trkpt>
      <trkpt lat="38.910837" lon="-1.663508">
        <ele>903.159608</ele>
        <time>2020-08-05T06:35:51.938Z</time>
      </trkpt>
      <trkpt lat="38.910823" lon="-1.663688">
        <ele>902.762960</ele>
        <time>2020-08-05T06:35:54.933Z</time>
      </trkpt>
      <trkpt lat="38.910807" lon="-1.663805">
        <ele>902.637419</ele>
        <time>2020-08-05T06:35:56.941Z</time>
      </trkpt>
      <trkpt lat="38.910779" lon="-1.663993">
        <ele>902.861936</ele>
        <time>2020-08-05T06:35:59.934Z</time>
      </trkpt>
      <trkpt lat="38.910760" lon="-1.664123">
        <ele>903.017086</ele>
        <time>2020-08-05T06:36:01.961Z</time>
      </trkpt>
      <trkpt lat="38.910758" lon="-1.664250">
        <ele>903.166081</ele>
        <time>2020-08-05T06:36:03.980Z</time>
      </trkpt>
      <trkpt lat="38.910743" lon="-1.664390">
        <ele>903.331844</ele>
        <time>2020-08-05T06:36:05.936Z</time>
      </trkpt>
      <trkpt lat="38.910701" lon="-1.664531">
        <ele>903.508933</ele>
        <time>2020-08-05T06:36:07.949Z</time>
      </trkpt>
      <trkpt lat="38.910672" lon="-1.664660">
        <ele>903.666432</ele>
        <time>2020-08-05T06:36:09.939Z</time>
      </trkpt>
      <trkpt lat="38.910669" lon="-1.664782">
        <ele>903.809604</ele>
        <time>2020-08-05T06:36:11.940Z</time>
      </trkpt>
      <trkpt lat="38.910662" lon="-1.664921">
        <ele>903.972985</ele>
        <time>2020-08-05T06:36:13.933Z</time>
      </trkpt>
      <trkpt lat="38.910644" lon="-1.665063">
        <ele>904.141740</ele>
        <time>2020-08-05T06:36:15.945Z</time>
      </trkpt>
      <trkpt lat="38.910610" lon="-1.665215">
        <ele>904.327249</ele>
        <time>2020-08-05T06:36:17.932Z</time>
      </trkpt>
      <trkpt lat="38.910568" lon="-1.665331">
        <ele>904.477320</ele>
        <time>2020-08-05T06:36:19.928Z</time>
      </trkpt>
      <trkpt lat="38.910560" lon="-1.665465">
        <ele>904.634957</ele>
        <time>2020-08-05T06:36:21.925Z</time>
      </trkpt>
      <trkpt lat="38.910534" lon="-1.665593">
        <ele>904.790127</ele>
        <time>2020-08-05T06:36:23.928Z</time>
      </trkpt>
      <trkpt lat="38.910542" lon="-1.665713">
        <ele>904.931397</ele>
        <time>2020-08-05T06:36:25.919Z</time>
      </trkpt>
      <trkpt lat="38.910505" lon="-1.665834">
        <ele>905.083890</ele>
        <time>2020-08-05T06:36:27.922Z</time>
      </trkpt>
      <trkpt lat="38.910478" lon="-1.665961">
        <ele>905.238315</ele>
        <time>2020-08-05T06:36:29.930Z</time>
      </trkpt>
      <trkpt lat="38.910467" lon="-1.666093">
        <ele>905.342829</ele>
        <time>2020-08-05T06:36:31.925Z</time>
      </trkpt>
      <trkpt lat="38.910456" lon="-1.666212">
        <ele>905.405464</ele>
        <time>2020-08-05T06:36:33.938Z</time>
      </trkpt>
      <trkpt lat="38.910432" lon="-1.666346">
        <ele>905.477332</ele>
        <time>2020-08-05T06:36:35.933Z</time>
      </trkpt>
      <trkpt lat="38.910399" lon="-1.666487">
        <ele>905.554290</ele>
        <time>2020-08-05T06:36:37.931Z</time>
      </trkpt>
      <trkpt lat="38.910351" lon="-1.666675">
        <ele>905.657705</ele>
        <time>2020-08-05T06:36:40.930Z</time>
      </trkpt>
      <trkpt lat="38.910328" lon="-1.666844">
        <ele>905.747377</ele>
        <time>2020-08-05T06:36:43.937Z</time>
      </trkpt>
      <trkpt lat="38.910313" lon="-1.666965">
        <ele>905.811417</ele>
        <time>2020-08-05T06:36:45.932Z</time>
      </trkpt>
      <trkpt lat="38.910295" lon="-1.667106">
        <ele>905.886098</ele>
        <time>2020-08-05T06:36:47.932Z</time>
      </trkpt>
      <trkpt lat="38.910270" lon="-1.667286">
        <ele>905.981665</ele>
        <time>2020-08-05T06:36:49.943Z</time>
      </trkpt>
      <trkpt lat="38.910264" lon="-1.667424">
        <ele>906.053906</ele>
        <time>2020-08-05T06:36:51.935Z</time>
      </trkpt>
      <trkpt lat="38.910253" lon="-1.667541">
        <ele>906.115502</ele>
        <time>2020-08-05T06:36:53.943Z</time>
      </trkpt>
      <trkpt lat="38.910244" lon="-1.667682">
        <ele>906.189446</ele>
        <time>2020-08-05T06:36:55.943Z</time>
      </trkpt>
      <trkpt lat="38.910224" lon="-1.667816">
        <ele>906.260760</ele>
        <time>2020-08-05T06:36:57.944Z</time>
      </trkpt>
      <trkpt lat="38.910210" lon="-1.667935">
        <ele>906.323664</ele>
        <time>2020-08-05T06:36:59.992Z</time>
      </trkpt>
      <trkpt lat="38.910192" lon="-1.668053">
        <ele>906.386513</ele>
        <time>2020-08-05T06:37:01.945Z</time>
      </trkpt>
      <trkpt lat="38.910166" lon="-1.668188">
        <ele>906.459202</ele>
        <time>2020-08-05T06:37:03.939Z</time>
      </trkpt>
      <trkpt lat="38.910141" lon="-1.668329">
        <ele>906.507843</ele>
        <time>2020-08-05T06:37:05.951Z</time>
      </trkpt>
      <trkpt lat="38.910112" lon="-1.668458">
        <ele>906.502291</ele>
        <time>2020-08-05T06:37:07.942Z</time>
      </trkpt>
      <trkpt lat="38.910084" lon="-1.668617">
        <ele>906.495551</ele>
        <time>2020-08-05T06:37:10.935Z</time>
      </trkpt>
      <trkpt lat="38.910052" lon="-1.668740">
        <ele>906.490189</ele>
        <time>2020-08-05T06:37:13.946Z</time>
      </trkpt>
      <trkpt lat="38.910033" lon="-1.668883">
        <ele>906.484191</ele>
        <time>2020-08-05T06:37:16.945Z</time>
      </trkpt>
      <trkpt lat="38.910012" lon="-1.669031">
        <ele>906.477971</ele>
        <time>2020-08-05T06:37:19.935Z</time>
      </trkpt>
      <trkpt lat="38.909997" lon="-1.669174">
        <ele>906.472005</ele>
        <time>2020-08-05T06:37:22.947Z</time>
      </trkpt>
      <trkpt lat="38.909975" lon="-1.669305">
        <ele>906.466464</ele>
        <time>2020-08-05T06:37:25.946Z</time>
      </trkpt>
      <trkpt lat="38.909945" lon="-1.669459">
        <ele>906.459900</ele>
        <time>2020-08-05T06:37:28.938Z</time>
      </trkpt>
      <trkpt lat="38.909937" lon="-1.669603">
        <ele>906.453932</ele>
        <time>2020-08-05T06:37:31.950Z</time>
      </trkpt>
      <trkpt lat="38.909919" lon="-1.669735">
        <ele>906.448391</ele>
        <time>2020-08-05T06:37:34.950Z</time>
      </trkpt>
      <trkpt lat="38.909913" lon="-1.669876">
        <ele>906.442552</ele>
        <time>2020-08-05T06:37:37.952Z</time>
      </trkpt>
      <trkpt lat="38.909893" lon="-1.670017">
        <ele>906.436627</ele>
        <time>2020-08-05T06:37:40.942Z</time>
      </trkpt>
      <trkpt lat="38.909876" lon="-1.670137">
        <ele>906.431584</ele>
        <time>2020-08-05T06:37:43.941Z</time>
      </trkpt>
      <trkpt lat="38.909849" lon="-1.670273">
        <ele>906.425781</ele>
        <time>2020-08-05T06:37:46.948Z</time>
      </trkpt>
      <trkpt lat="38.909822" lon="-1.670403">
        <ele>906.420218</ele>
        <time>2020-08-05T06:37:49.952Z</time>
      </trkpt>
      <trkpt lat="38.909791" lon="-1.670557">
        <ele>906.425036</ele>
        <time>2020-08-05T06:37:52.939Z</time>
      </trkpt>
      <trkpt lat="38.909769" lon="-1.670707">
        <ele>906.536935</ele>
        <time>2020-08-05T06:37:55.931Z</time>
      </trkpt>
      <trkpt lat="38.909735" lon="-1.670862">
        <ele>906.654992</ele>
        <time>2020-08-05T06:37:58.957Z</time>
      </trkpt>
      <trkpt lat="38.909716" lon="-1.670983">
        <ele>906.745484</ele>
        <time>2020-08-05T06:38:00.954Z</time>
      </trkpt>
      <trkpt lat="38.909686" lon="-1.671129">
        <ele>906.856183</ele>
        <time>2020-08-05T06:38:02.948Z</time>
      </trkpt>
      <trkpt lat="38.909677" lon="-1.671284">
        <ele>906.970128</ele>
        <time>2020-08-05T06:38:05.944Z</time>
      </trkpt>
      <trkpt lat="38.909657" lon="-1.671442">
        <ele>907.087478</ele>
        <time>2020-08-05T06:38:07.943Z</time>
      </trkpt>
      <trkpt lat="38.909619" lon="-1.671589">
        <ele>907.201033</ele>
        <time>2020-08-05T06:38:09.945Z</time>
      </trkpt>
      <trkpt lat="38.909581" lon="-1.671708">
        <ele>907.295331</ele>
        <time>2020-08-05T06:38:11.946Z</time>
      </trkpt>
      <trkpt lat="38.909564" lon="-1.671861">
        <ele>907.408631</ele>
        <time>2020-08-05T06:38:13.935Z</time>
      </trkpt>
      <trkpt lat="38.909541" lon="-1.672026">
        <ele>907.531516</ele>
        <time>2020-08-05T06:38:15.954Z</time>
      </trkpt>
      <trkpt lat="38.909535" lon="-1.672171">
        <ele>907.637965</ele>
        <time>2020-08-05T06:38:17.938Z</time>
      </trkpt>
      <trkpt lat="38.909529" lon="-1.672313">
        <ele>907.742217</ele>
        <time>2020-08-05T06:38:19.942Z</time>
      </trkpt>
      <trkpt lat="38.909493" lon="-1.672473">
        <ele>907.864316</ele>
        <time>2020-08-05T06:38:21.959Z</time>
      </trkpt>
      <trkpt lat="38.909466" lon="-1.672614">
        <ele>907.970766</ele>
        <time>2020-08-05T06:38:23.931Z</time>
      </trkpt>
      <trkpt lat="38.909457" lon="-1.672758">
        <ele>908.076671</ele>
        <time>2020-08-05T06:38:25.944Z</time>
      </trkpt>
      <trkpt lat="38.909444" lon="-1.672893">
        <ele>908.037012</ele>
        <time>2020-08-05T06:38:27.943Z</time>
      </trkpt>
      <trkpt lat="38.909410" lon="-1.673015">
        <ele>907.936222</ele>
        <time>2020-08-05T06:38:29.927Z</time>
      </trkpt>
      <trkpt lat="38.909388" lon="-1.673137">
        <ele>907.838820</ele>
        <time>2020-08-05T06:38:31.931Z</time>
      </trkpt>
      <trkpt lat="38.909352" lon="-1.673265">
        <ele>907.732963</ele>
        <time>2020-08-05T06:38:33.953Z</time>
      </trkpt>
      <trkpt lat="38.909315" lon="-1.673438">
        <ele>907.593419</ele>
        <time>2020-08-05T06:38:36.961Z</time>
      </trkpt>
      <trkpt lat="38.909304" lon="-1.673566">
        <ele>907.493260</ele>
        <time>2020-08-05T06:38:38.944Z</time>
      </trkpt>
      <trkpt lat="38.909290" lon="-1.673690">
        <ele>907.395807</ele>
        <time>2020-08-05T06:38:40.931Z</time>
      </trkpt>
      <trkpt lat="38.909269" lon="-1.673843">
        <ele>907.274971</ele>
        <time>2020-08-05T06:38:44.941Z</time>
      </trkpt>
      <trkpt lat="38.909250" lon="-1.673971">
        <ele>907.173622</ele>
        <time>2020-08-05T06:38:46.943Z</time>
      </trkpt>
      <trkpt lat="38.909211" lon="-1.674085">
        <ele>907.076765</ele>
        <time>2020-08-05T06:38:48.931Z</time>
      </trkpt>
      <trkpt lat="38.909175" lon="-1.674237">
        <ele>906.953190</ele>
        <time>2020-08-05T06:38:51.950Z</time>
      </trkpt>
      <trkpt lat="38.909152" lon="-1.674398">
        <ele>906.825876</ele>
        <time>2020-08-05T06:38:54.931Z</time>
      </trkpt>
      <trkpt lat="38.909142" lon="-1.674552">
        <ele>906.705684</ele>
        <time>2020-08-05T06:38:57.937Z</time>
      </trkpt>
      <trkpt lat="38.909114" lon="-1.674718">
        <ele>906.573575</ele>
        <time>2020-08-05T06:39:00.927Z</time>
      </trkpt>
      <trkpt lat="38.909084" lon="-1.674878">
        <ele>906.445571</ele>
        <time>2020-08-05T06:39:03.934Z</time>
      </trkpt>
      <trkpt lat="38.909074" lon="-1.674994">
        <ele>906.354797</ele>
        <time>2020-08-05T06:39:05.924Z</time>
      </trkpt>
      <trkpt lat="38.909065" lon="-1.675125">
        <ele>906.281001</ele>
        <time>2020-08-05T06:39:07.930Z</time>
      </trkpt>
      <trkpt lat="38.909039" lon="-1.675266">
        <ele>906.223208</ele>
        <time>2020-08-05T06:39:09.944Z</time>
      </trkpt>
      <trkpt lat="38.909017" lon="-1.675417">
        <ele>906.161939</ele>
        <time>2020-08-05T06:39:11.937Z</time>
      </trkpt>
      <trkpt lat="38.908991" lon="-1.675555">
        <ele>906.105310</ele>
        <time>2020-08-05T06:39:13.932Z</time>
      </trkpt>
      <trkpt lat="38.908977" lon="-1.675728">
        <ele>906.035940</ele>
        <time>2020-08-05T06:39:15.940Z</time>
      </trkpt>
      <trkpt lat="38.908951" lon="-1.675889">
        <ele>905.970360</ele>
        <time>2020-08-05T06:39:17.934Z</time>
      </trkpt>
      <trkpt lat="38.908928" lon="-1.676071">
        <ele>905.896822</ele>
        <time>2020-08-05T06:39:19.933Z</time>
      </trkpt>
      <trkpt lat="38.908896" lon="-1.676254">
        <ele>905.822016</ele>
        <time>2020-08-05T06:39:21.950Z</time>
      </trkpt>
      <trkpt lat="38.908862" lon="-1.676435">
        <ele>905.747754</ele>
        <time>2020-08-05T06:39:23.926Z</time>
      </trkpt>
      <trkpt lat="38.908836" lon="-1.676602">
        <ele>905.679829</ele>
        <time>2020-08-05T06:39:25.930Z</time>
      </trkpt>
      <trkpt lat="38.908823" lon="-1.676755">
        <ele>905.618446</ele>
        <time>2020-08-05T06:39:27.950Z</time>
      </trkpt>
      <trkpt lat="38.908811" lon="-1.676934">
        <ele>905.546790</ele>
        <time>2020-08-05T06:39:29.949Z</time>
      </trkpt>
      <trkpt lat="38.908795" lon="-1.677097">
        <ele>905.481266</ele>
        <time>2020-08-05T06:39:31.949Z</time>
      </trkpt>
      <trkpt lat="38.908773" lon="-1.677249">
        <ele>905.419604</ele>
        <time>2020-08-05T06:39:33.937Z</time>
      </trkpt>
      <trkpt lat="38.908766" lon="-1.677405">
        <ele>905.650517</ele>
        <time>2020-08-05T06:39:35.945Z</time>
      </trkpt>
      <trkpt lat="38.908710" lon="-1.677551">
        <ele>906.183758</ele>
        <time>2020-08-05T06:39:37.939Z</time>
      </trkpt>
      <trkpt lat="38.908665" lon="-1.677705">
        <ele>906.722657</ele>
        <time>2020-08-05T06:39:39.951Z</time>
      </trkpt>
      <trkpt lat="38.908665" lon="-1.677823">
        <ele>907.109223</ele>
        <time>2020-08-05T06:39:41.956Z</time>
      </trkpt>
      <trkpt lat="38.908633" lon="-1.677994">
        <ele>907.685387</ele>
        <time>2020-08-05T06:39:43.949Z</time>
      </trkpt>
      <trkpt lat="38.908608" lon="-1.678149">
        <ele>908.203957</ele>
        <time>2020-08-05T06:39:45.936Z</time>
      </trkpt>
      <trkpt lat="38.908603" lon="-1.678300">
        <ele>908.699078</ele>
        <time>2020-08-05T06:39:47.933Z</time>
      </trkpt>
      <trkpt lat="38.908591" lon="-1.678442">
        <ele>909.167003</ele>
        <time>2020-08-05T06:39:49.929Z</time>
      </trkpt>
      <trkpt lat="38.908563" lon="-1.678579">
        <ele>909.631035</ele>
        <time>2020-08-05T06:39:51.948Z</time>
      </trkpt>
      <trkpt lat="38.908536" lon="-1.678724">
        <ele>910.119464</ele>
        <time>2020-08-05T06:39:53.947Z</time>
      </trkpt>
      <trkpt lat="38.908523" lon="-1.678840">
        <ele>910.503399</ele>
        <time>2020-08-05T06:39:55.936Z</time>
      </trkpt>
      <trkpt lat="38.908526" lon="-1.678994">
        <ele>911.008059</ele>
        <time>2020-08-05T06:39:58.939Z</time>
      </trkpt>
      <trkpt lat="38.908507" lon="-1.679116">
        <ele>911.415655</ele>
        <time>2020-08-05T06:40:00.947Z</time>
      </trkpt>
      <trkpt lat="38.908494" lon="-1.679239">
        <ele>911.822302</ele>
        <time>2020-08-05T06:40:02.930Z</time>
      </trkpt>
      <trkpt lat="38.908469" lon="-1.679380">
        <ele>912.296055</ele>
        <time>2020-08-05T06:40:04.948Z</time>
      </trkpt>
      <trkpt lat="38.908448" lon="-1.679502">
        <ele>912.705388</ele>
        <time>2020-08-05T06:40:06.937Z</time>
      </trkpt>
      <trkpt lat="38.908401" lon="-1.679646">
        <ele>913.131062</ele>
        <time>2020-08-05T06:40:08.951Z</time>
      </trkpt>
      <trkpt lat="38.908374" lon="-1.679798">
        <ele>913.470203</ele>
        <time>2020-08-05T06:40:11.945Z</time>
      </trkpt>
      <trkpt lat="38.908367" lon="-1.679936">
        <ele>913.771023</ele>
        <time>2020-08-05T06:40:14.948Z</time>
      </trkpt>
      <trkpt lat="38.908333" lon="-1.680062">
        <ele>914.061114</ele>
        <time>2020-08-05T06:40:16.929Z</time>
      </trkpt>
      <trkpt lat="38.908308" lon="-1.680223">
        <ele>914.418233</ele>
        <time>2020-08-05T06:40:19.946Z</time>
      </trkpt>
      <trkpt lat="38.908292" lon="-1.680382">
        <ele>914.766976</ele>
        <time>2020-08-05T06:40:22.950Z</time>
      </trkpt>
      <trkpt lat="38.908297" lon="-1.680500">
        <ele>915.024034</ele>
        <time>2020-08-05T06:40:24.937Z</time>
      </trkpt>
      <trkpt lat="38.908260" lon="-1.680638">
        <ele>915.341536</ele>
        <time>2020-08-05T06:40:26.939Z</time>
      </trkpt>
      <trkpt lat="38.908218" lon="-1.680769">
        <ele>915.649732</ele>
        <time>2020-08-05T06:40:29.946Z</time>
      </trkpt>
      <trkpt lat="38.908202" lon="-1.680904">
        <ele>915.946776</ele>
        <time>2020-08-05T06:40:31.939Z</time>
      </trkpt>
      <trkpt lat="38.908170" lon="-1.681064">
        <ele>916.306127</ele>
        <time>2020-08-05T06:40:34.944Z</time>
      </trkpt>
      <trkpt lat="38.908169" lon="-1.681213">
        <ele>916.630250</ele>
        <time>2020-08-05T06:40:37.943Z</time>
      </trkpt>
      <trkpt lat="38.908156" lon="-1.681334">
        <ele>916.895952</ele>
        <time>2020-08-05T06:40:39.936Z</time>
      </trkpt>
      <trkpt lat="38.908133" lon="-1.681480">
        <ele>917.219980</ele>
        <time>2020-08-05T06:40:42.941Z</time>
      </trkpt>
      <trkpt lat="38.908094" lon="-1.681601">
        <ele>917.504870</ele>
        <time>2020-08-05T06:40:44.938Z</time>
      </trkpt>
      <trkpt lat="38.908094" lon="-1.681727">
        <ele>917.778951</ele>
        <time>2020-08-05T06:40:46.943Z</time>
      </trkpt>
      <trkpt lat="38.908102" lon="-1.681859">
        <ele>918.040912</ele>
        <time>2020-08-05T06:40:49.951Z</time>
      </trkpt>
      <trkpt lat="38.908063" lon="-1.681975">
        <ele>918.223665</ele>
        <time>2020-08-05T06:40:51.944Z</time>
      </trkpt>
      <trkpt lat="38.908030" lon="-1.682103">
        <ele>918.418678</ele>
        <time>2020-08-05T06:40:53.935Z</time>
      </trkpt>
      <trkpt lat="38.908017" lon="-1.682226">
        <ele>918.598199</ele>
        <time>2020-08-05T06:40:56.928Z</time>
      </trkpt>
      <trkpt lat="38.907983" lon="-1.682370">
        <ele>918.815833</ele>
        <time>2020-08-05T06:41:00.927Z</time>
      </trkpt>
      <trkpt lat="38.907959" lon="-1.682506">
        <ele>919.017515</ele>
        <time>2020-08-05T06:41:03.925Z</time>
      </trkpt>
      <trkpt lat="38.907944" lon="-1.682637">
        <ele>919.209013</ele>
        <time>2020-08-05T06:41:06.931Z</time>
      </trkpt>
      <trkpt lat="38.907923" lon="-1.682767">
        <ele>919.401032</ele>
        <time>2020-08-05T06:41:09.932Z</time>
      </trkpt>
      <trkpt lat="38.907902" lon="-1.682890">
        <ele>919.583151</ele>
        <time>2020-08-05T06:41:12.940Z</time>
      </trkpt>
      <trkpt lat="38.907884" lon="-1.683011">
        <ele>919.761315</ele>
        <time>2020-08-05T06:41:15.927Z</time>
      </trkpt>
      <trkpt lat="38.907869" lon="-1.683140">
        <ele>919.949951</ele>
        <time>2020-08-05T06:41:18.935Z</time>
      </trkpt>
      <trkpt lat="38.907859" lon="-1.683263">
        <ele>920.128807</ele>
        <time>2020-08-05T06:41:21.926Z</time>
      </trkpt>
      <trkpt lat="38.907843" lon="-1.683377">
        <ele>920.296338</ele>
        <time>2020-08-05T06:41:24.956Z</time>
      </trkpt>
      <trkpt lat="38.907824" lon="-1.683498">
        <ele>920.474861</ele>
        <time>2020-08-05T06:41:27.948Z</time>
      </trkpt>
      <trkpt lat="38.907808" lon="-1.683643">
        <ele>920.686664</ele>
        <time>2020-08-05T06:41:31.941Z</time>
      </trkpt>
      <trkpt lat="38.907782" lon="-1.683756">
        <ele>920.857083</ele>
        <time>2020-08-05T06:41:34.946Z</time>
      </trkpt>
      <trkpt lat="38.907749" lon="-1.683899">
        <ele>921.072799</ele>
        <time>2020-08-05T06:41:38.938Z</time>
      </trkpt>
      <trkpt lat="38.907747" lon="-1.684042">
        <ele>921.279645</ele>
        <time>2020-08-05T06:41:42.956Z</time>
      </trkpt>
      <trkpt lat="38.907736" lon="-1.684165">
        <ele>921.450460</ele>
        <time>2020-08-05T06:41:45.926Z</time>
      </trkpt>
      <trkpt lat="38.907735" lon="-1.684309">
        <ele>921.645165</ele>
        <time>2020-08-05T06:41:49.926Z</time>
      </trkpt>
      <trkpt lat="38.907722" lon="-1.684432">
        <ele>921.812995</ele>
        <time>2020-08-05T06:41:52.948Z</time>
      </trkpt>
      <trkpt lat="38.907705" lon="-1.684550">
        <ele>921.975250</ele>
        <time>2020-08-05T06:41:55.933Z</time>
      </trkpt>
      <trkpt lat="38.907681" lon="-1.684696">
        <ele>922.177008</ele>
        <time>2020-08-05T06:41:58.951Z</time>
      </trkpt>
      <trkpt lat="38.907649" lon="-1.684829">
        <ele>922.365232</ele>
        <time>2020-08-05T06:42:01.936Z</time>
      </trkpt>
      <trkpt lat="38.907622" lon="-1.684990">
        <ele>922.587912</ele>
        <time>2020-08-05T06:42:04.948Z</time>
      </trkpt>
      <trkpt lat="38.907568" lon="-1.685114">
        <ele>922.780036</ele>
        <time>2020-08-05T06:42:06.957Z</time>
      </trkpt>
      <trkpt lat="38.907548" lon="-1.685296">
        <ele>923.028554</ele>
        <time>2020-08-05T06:42:09.949Z</time>
      </trkpt>
      <trkpt lat="38.907500" lon="-1.685415">
        <ele>923.209781</ele>
        <time>2020-08-05T06:42:11.944Z</time>
      </trkpt>
      <trkpt lat="38.907498" lon="-1.685537">
        <ele>923.374770</ele>
        <time>2020-08-05T06:42:13.943Z</time>
      </trkpt>
      <trkpt lat="38.907501" lon="-1.685666">
        <ele>923.549264</ele>
        <time>2020-08-05T06:42:15.937Z</time>
      </trkpt>
      <trkpt lat="38.907484" lon="-1.685794">
        <ele>923.724831</ele>
        <time>2020-08-05T06:42:17.946Z</time>
      </trkpt>
      <trkpt lat="38.907482" lon="-1.685924">
        <ele>923.900634</ele>
        <time>2020-08-05T06:42:19.936Z</time>
      </trkpt>
      <trkpt lat="38.907465" lon="-1.686069">
        <ele>924.098897</ele>
        <time>2020-08-05T06:42:22.940Z</time>
      </trkpt>
      <trkpt lat="38.907465" lon="-1.686218">
        <ele>924.300355</ele>
        <time>2020-08-05T06:42:25.931Z</time>
      </trkpt>
      <trkpt lat="38.907481" lon="-1.686371">
        <ele>924.377362</ele>
        <time>2020-08-05T06:42:28.926Z</time>
      </trkpt>
      <trkpt lat="38.907459" lon="-1.686519">
        <ele>924.063019</ele>
        <time>2020-08-05T06:42:31.939Z</time>
      </trkpt>
      <trkpt lat="38.907446" lon="-1.686664">
        <ele>923.758516</ele>
        <time>2020-08-05T06:42:34.937Z</time>
      </trkpt>
      <trkpt lat="38.907428" lon="-1.686794">
        <ele>923.483047</ele>
        <time>2020-08-05T06:42:37.923Z</time>
      </trkpt>
      <trkpt lat="38.907418" lon="-1.686915">
        <ele>923.229194</ele>
        <time>2020-08-05T06:42:40.937Z</time>
      </trkpt>
      <trkpt lat="38.907420" lon="-1.687061">
        <ele>922.924559</ele>
        <time>2020-08-05T06:42:44.939Z</time>
      </trkpt>
      <trkpt lat="38.907405" lon="-1.687200">
        <ele>922.631799</ele>
        <time>2020-08-05T06:42:47.940Z</time>
      </trkpt>
      <trkpt lat="38.907389" lon="-1.687341">
        <ele>922.334530</ele>
        <time>2020-08-05T06:42:50.934Z</time>
      </trkpt>
      <trkpt lat="38.907378" lon="-1.687492">
        <ele>922.018133</ele>
        <time>2020-08-05T06:42:53.942Z</time>
      </trkpt>
      <trkpt lat="38.907361" lon="-1.687663">
        <ele>921.658489</ele>
        <time>2020-08-05T06:42:56.939Z</time>
      </trkpt>
      <trkpt lat="38.907342" lon="-1.687794">
        <ele>921.380487</ele>
        <time>2020-08-05T06:42:58.944Z</time>
      </trkpt>
      <trkpt lat="38.907305" lon="-1.687902">
        <ele>921.134306</ele>
        <time>2020-08-05T06:42:59.950Z</time>
      </trkpt>
      <trkpt lat="38.907292" lon="-1.688019">
        <ele>920.887742</ele>
        <time>2020-08-05T06:43:01.940Z</time>
      </trkpt>
      <trkpt lat="38.907270" lon="-1.688157">
        <ele>920.593863</ele>
        <time>2020-08-05T06:43:03.943Z</time>
      </trkpt>
      <trkpt lat="38.907251" lon="-1.688284">
        <ele>920.324060</ele>
        <time>2020-08-05T06:43:05.939Z</time>
      </trkpt>
      <trkpt lat="38.907246" lon="-1.688413">
        <ele>920.054603</ele>
        <time>2020-08-05T06:43:07.935Z</time>
      </trkpt>
      <trkpt lat="38.907239" lon="-1.688543">
        <ele>919.782745</ele>
        <time>2020-08-05T06:43:09.937Z</time>
      </trkpt>
      <trkpt lat="38.907240" lon="-1.688691">
        <ele>919.637718</ele>
        <time>2020-08-05T06:43:11.946Z</time>
      </trkpt>
      <trkpt lat="38.907229" lon="-1.688852">
        <ele>919.643004</ele>
        <time>2020-08-05T06:43:13.938Z</time>
      </trkpt>
      <trkpt lat="38.907227" lon="-1.688995">
        <ele>919.647682</ele>
        <time>2020-08-05T06:43:15.939Z</time>
      </trkpt>
      <trkpt lat="38.907240" lon="-1.689150">
        <ele>919.652781</ele>
        <time>2020-08-05T06:43:17.938Z</time>
      </trkpt>
      <trkpt lat="38.907251" lon="-1.689290">
        <ele>919.657383</ele>
        <time>2020-08-05T06:43:19.934Z</time>
      </trkpt>
      <trkpt lat="38.907244" lon="-1.689452">
        <ele>919.662689</ele>
        <time>2020-08-05T06:43:21.939Z</time>
      </trkpt>
      <trkpt lat="38.907264" lon="-1.689601">
        <ele>919.667635</ele>
        <time>2020-08-05T06:43:23.960Z</time>
      </trkpt>
      <trkpt lat="38.907262" lon="-1.689774">
        <ele>919.673294</ele>
        <time>2020-08-05T06:43:25.952Z</time>
      </trkpt>
      <trkpt lat="38.907252" lon="-1.689933">
        <ele>919.678511</ele>
        <time>2020-08-05T06:43:27.935Z</time>
      </trkpt>
      <trkpt lat="38.907243" lon="-1.690097">
        <ele>919.683888</ele>
        <time>2020-08-05T06:43:29.951Z</time>
      </trkpt>
      <trkpt lat="38.907272" lon="-1.690255">
        <ele>919.689198</ele>
        <time>2020-08-05T06:43:31.944Z</time>
      </trkpt>
      <trkpt lat="38.907289" lon="-1.690394">
        <ele>919.693800</ele>
        <time>2020-08-05T06:43:33.947Z</time>
      </trkpt>
      <trkpt lat="38.907297" lon="-1.690572">
        <ele>919.699631</ele>
        <time>2020-08-05T06:43:35.954Z</time>
      </trkpt>
      <trkpt lat="38.907321" lon="-1.690705">
        <ele>919.704097</ele>
        <time>2020-08-05T06:43:37.950Z</time>
      </trkpt>
      <trkpt lat="38.907333" lon="-1.690868">
        <ele>919.709452</ele>
        <time>2020-08-05T06:43:39.953Z</time>
      </trkpt>
      <trkpt lat="38.907328" lon="-1.691031">
        <ele>919.398130</ele>
        <time>2020-08-05T06:43:41.942Z</time>
      </trkpt>
      <trkpt lat="38.907339" lon="-1.691186">
        <ele>919.000072</ele>
        <time>2020-08-05T06:43:43.948Z</time>
      </trkpt>
      <trkpt lat="38.907359" lon="-1.691357">
        <ele>918.557828</ele>
        <time>2020-08-05T06:43:45.959Z</time>
      </trkpt>
      <trkpt lat="38.907353" lon="-1.691515">
        <ele>918.153262</ele>
        <time>2020-08-05T06:43:47.942Z</time>
      </trkpt>
      <trkpt lat="38.907361" lon="-1.691694">
        <ele>917.694716</ele>
        <time>2020-08-05T06:43:49.951Z</time>
      </trkpt>
      <trkpt lat="38.907353" lon="-1.691860">
        <ele>917.269358</ele>
        <time>2020-08-05T06:43:51.953Z</time>
      </trkpt>
      <trkpt lat="38.907332" lon="-1.691977">
        <ele>916.962274</ele>
        <time>2020-08-05T06:43:53.954Z</time>
      </trkpt>
      <trkpt lat="38.907258" lon="-1.692083">
        <ele>916.598073</ele>
        <time>2020-08-05T06:43:55.938Z</time>
      </trkpt>
      <trkpt lat="38.907138" lon="-1.692132">
        <ele>916.184252</ele>
        <time>2020-08-05T06:43:57.931Z</time>
      </trkpt>
      <trkpt lat="38.907024" lon="-1.692095">
        <ele>915.797816</ele>
        <time>2020-08-05T06:44:00.939Z</time>
      </trkpt>
      <trkpt lat="38.906893" lon="-1.692105">
        <ele>915.366514</ele>
        <time>2020-08-05T06:44:03.945Z</time>
      </trkpt>
      <trkpt lat="38.906790" lon="-1.692087">
        <ele>915.024880</ele>
        <time>2020-08-05T06:44:05.939Z</time>
      </trkpt>
      <trkpt lat="38.906684" lon="-1.692079">
        <ele>914.675902</ele>
        <time>2020-08-05T06:44:07.940Z</time>
      </trkpt>
      <trkpt lat="38.906428" lon="-1.692079">
        <ele>913.834536</ele>
        <time>2020-08-05T06:44:12.928Z</time>
      </trkpt>
      <trkpt lat="38.906296" lon="-1.692111">
        <ele>913.736356</ele>
        <time>2020-08-05T06:44:14.939Z</time>
      </trkpt>
      <trkpt lat="38.906222" lon="-1.692186">
        <ele>913.688304</ele>
        <time>2020-08-05T06:44:17.935Z</time>
      </trkpt>
      <trkpt lat="38.906182" lon="-1.692344">
        <ele>913.622381</ele>
        <time>2020-08-05T06:44:20.935Z</time>
      </trkpt>
      <trkpt lat="38.906155" lon="-1.692472">
        <ele>913.569763</ele>
        <time>2020-08-05T06:44:22.935Z</time>
      </trkpt>
      <trkpt lat="38.906137" lon="-1.692587">
        <ele>913.523221</ele>
        <time>2020-08-05T06:44:24.937Z</time>
      </trkpt>
      <trkpt lat="38.906101" lon="-1.692715">
        <ele>913.469220</ele>
        <time>2020-08-05T06:44:26.934Z</time>
      </trkpt>
      <trkpt lat="38.906078" lon="-1.692832">
        <ele>913.421340</ele>
        <time>2020-08-05T06:44:28.948Z</time>
      </trkpt>
      <trkpt lat="38.906060" lon="-1.692968">
        <ele>913.366605</ele>
        <time>2020-08-05T06:44:30.945Z</time>
      </trkpt>
      <trkpt lat="38.906044" lon="-1.693136">
        <ele>913.299452</ele>
        <time>2020-08-05T06:44:33.941Z</time>
      </trkpt>
      <trkpt lat="38.906014" lon="-1.693328">
        <ele>913.221752</ele>
        <time>2020-08-05T06:44:36.941Z</time>
      </trkpt>
      <trkpt lat="38.905994" lon="-1.693468">
        <ele>913.165277</ele>
        <time>2020-08-05T06:44:38.947Z</time>
      </trkpt>
      <trkpt lat="38.905988" lon="-1.693611">
        <ele>913.108457</ele>
        <time>2020-08-05T06:44:40.933Z</time>
      </trkpt>
      <trkpt lat="38.905940" lon="-1.693729">
        <ele>913.055629</ele>
        <time>2020-08-05T06:44:42.938Z</time>
      </trkpt>
      <trkpt lat="38.905944" lon="-1.693884">
        <ele>912.994096</ele>
        <time>2020-08-05T06:44:44.939Z</time>
      </trkpt>
      <trkpt lat="38.905929" lon="-1.694011">
        <ele>912.943130</ele>
        <time>2020-08-05T06:44:46.946Z</time>
      </trkpt>
      <trkpt lat="38.905871" lon="-1.694151">
        <ele>912.873714</ele>
        <time>2020-08-05T06:44:48.927Z</time>
      </trkpt>
      <trkpt lat="38.905809" lon="-1.694318">
        <ele>912.576570</ele>
        <time>2020-08-05T06:44:50.930Z</time>
      </trkpt>
      <trkpt lat="38.905765" lon="-1.694499">
        <ele>912.272049</ele>
        <time>2020-08-05T06:44:52.936Z</time>
      </trkpt>
      <trkpt lat="38.905792" lon="-1.694653">
        <ele>912.018541</ele>
        <time>2020-08-05T06:44:54.937Z</time>
      </trkpt>
      <trkpt lat="38.905739" lon="-1.694826">
        <ele>911.719965</ele>
        <time>2020-08-05T06:44:56.933Z</time>
      </trkpt>
      <trkpt lat="38.905711" lon="-1.695005">
        <ele>911.426758</ele>
        <time>2020-08-05T06:44:58.944Z</time>
      </trkpt>
      <trkpt lat="38.905670" lon="-1.695169">
        <ele>911.150132</ele>
        <time>2020-08-05T06:45:00.940Z</time>
      </trkpt>
      <trkpt lat="38.905714" lon="-1.695318">
        <ele>910.894203</ele>
        <time>2020-08-05T06:45:02.930Z</time>
      </trkpt>
      <trkpt lat="38.905702" lon="-1.695492">
        <ele>910.613680</ele>
        <time>2020-08-05T06:45:04.928Z</time>
      </trkpt>
      <trkpt lat="38.905699" lon="-1.695664">
        <ele>910.337395</ele>
        <time>2020-08-05T06:45:06.938Z</time>
      </trkpt>
      <trkpt lat="38.905750" lon="-1.695865">
        <ele>909.997883</ele>
        <time>2020-08-05T06:45:08.931Z</time>
      </trkpt>
      <trkpt lat="38.905743" lon="-1.696029">
        <ele>909.734119</ele>
        <time>2020-08-05T06:45:10.940Z</time>
      </trkpt>
      <trkpt lat="38.905741" lon="-1.696208">
        <ele>909.446632</ele>
        <time>2020-08-05T06:45:12.950Z</time>
      </trkpt>
      <trkpt lat="38.905783" lon="-1.696330">
        <ele>909.232396</ele>
        <time>2020-08-05T06:45:14.933Z</time>
      </trkpt>
      <trkpt lat="38.905782" lon="-1.696505">
        <ele>909.125245</ele>
        <time>2020-08-05T06:45:16.938Z</time>
      </trkpt>
      <trkpt lat="38.905747" lon="-1.696710">
        <ele>909.055607</ele>
        <time>2020-08-05T06:45:18.951Z</time>
      </trkpt>
      <trkpt lat="38.905762" lon="-1.696886">
        <ele>908.996859</ele>
        <time>2020-08-05T06:45:21.943Z</time>
      </trkpt>
      <trkpt lat="38.905783" lon="-1.697026">
        <ele>908.949551</ele>
        <time>2020-08-05T06:45:23.937Z</time>
      </trkpt>
      <trkpt lat="38.905787" lon="-1.697204">
        <ele>908.890465</ele>
        <time>2020-08-05T06:45:25.943Z</time>
      </trkpt>
      <trkpt lat="38.905800" lon="-1.697358">
        <ele>908.839067</ele>
        <time>2020-08-05T06:45:28.935Z</time>
      </trkpt>
      <trkpt lat="38.905798" lon="-1.697524">
        <ele>908.783981</ele>
        <time>2020-08-05T06:45:31.935Z</time>
      </trkpt>
      <trkpt lat="38.905806" lon="-1.697641">
        <ele>908.745010</ele>
        <time>2020-08-05T06:45:33.941Z</time>
      </trkpt>
      <trkpt lat="38.905840" lon="-1.697784">
        <ele>908.695396</ele>
        <time>2020-08-05T06:45:36.935Z</time>
      </trkpt>
      <trkpt lat="38.905819" lon="-1.697917">
        <ele>908.650367</ele>
        <time>2020-08-05T06:45:40.940Z</time>
      </trkpt>
      <trkpt lat="38.905758" lon="-1.698025">
        <ele>908.606087</ele>
        <time>2020-08-05T06:45:45.931Z</time>
      </trkpt>
      <trkpt lat="38.905796" lon="-1.698143">
        <ele>908.563714</ele>
        <time>2020-08-05T06:45:49.942Z</time>
      </trkpt>
      <trkpt lat="38.905812" lon="-1.698268">
        <ele>908.521681</ele>
        <time>2020-08-05T06:45:52.939Z</time>
      </trkpt>
      <trkpt lat="38.905814" lon="-1.698412">
        <ele>908.473893</ele>
        <time>2020-08-05T06:45:55.944Z</time>
      </trkpt>
      <trkpt lat="38.905813" lon="-1.698573">
        <ele>908.420470</ele>
        <time>2020-08-05T06:45:58.947Z</time>
      </trkpt>
      <trkpt lat="38.905791" lon="-1.698736">
        <ele>908.836953</ele>
        <time>2020-08-05T06:46:01.940Z</time>
      </trkpt>
      <trkpt lat="38.905799" lon="-1.698884">
        <ele>909.397851</ele>
        <time>2020-08-05T06:46:04.956Z</time>
      </trkpt>
      <trkpt lat="38.905807" lon="-1.699066">
        <ele>910.087042</ele>
        <time>2020-08-05T06:46:07.938Z</time>
      </trkpt>
      <trkpt lat="38.905791" lon="-1.699185">
        <ele>910.543616</ele>
        <time>2020-08-05T06:46:09.947Z</time>
      </trkpt>
      <trkpt lat="38.905762" lon="-1.699321">
        <ele>911.076751</ele>
        <time>2020-08-05T06:46:11.953Z</time>
      </trkpt>
      <trkpt lat="38.905771" lon="-1.699472">
        <ele>911.649314</ele>
        <time>2020-08-05T06:46:14.952Z</time>
      </trkpt>
      <trkpt lat="38.905791" lon="-1.699604">
        <ele>912.157744</ele>
        <time>2020-08-05T06:46:16.946Z</time>
      </trkpt>
      <trkpt lat="38.905850" lon="-1.699768">
        <ele>912.840838</ele>
        <time>2020-08-05T06:46:19.936Z</time>
      </trkpt>
      <trkpt lat="38.905821" lon="-1.699884">
        <ele>913.301479</ele>
        <time>2020-08-05T06:46:21.961Z</time>
      </trkpt>
      <trkpt lat="38.905794" lon="-1.700035">
        <ele>913.887248</ele>
        <time>2020-08-05T06:46:24.948Z</time>
      </trkpt>
      <trkpt lat="38.905804" lon="-1.700200">
        <ele>914.512958</ele>
        <time>2020-08-05T06:46:27.945Z</time>
      </trkpt>
      <trkpt lat="38.905802" lon="-1.700332">
        <ele>915.012110</ele>
        <time>2020-08-05T06:46:29.950Z</time>
      </trkpt>
      <trkpt lat="38.905823" lon="-1.700449">
        <ele>915.466070</ele>
        <time>2020-08-05T06:46:31.952Z</time>
      </trkpt>
      <trkpt lat="38.905822" lon="-1.700572">
        <ele>915.931126</ele>
        <time>2020-08-05T06:46:33.942Z</time>
      </trkpt>
      <trkpt lat="38.905836" lon="-1.700742">
        <ele>916.577441</ele>
        <time>2020-08-05T06:46:36.949Z</time>
      </trkpt>
      <trkpt lat="38.905829" lon="-1.700860">
        <ele>917.024862</ele>
        <time>2020-08-05T06:46:38.959Z</time>
      </trkpt>
      <trkpt lat="38.905844" lon="-1.701032">
        <ele>916.809715</ele>
        <time>2020-08-05T06:46:41.956Z</time>
      </trkpt>
      <trkpt lat="38.905841" lon="-1.701148">
        <ele>916.538027</ele>
        <time>2020-08-05T06:46:43.945Z</time>
      </trkpt>
      <trkpt lat="38.905854" lon="-1.701315">
        <ele>916.145155</ele>
        <time>2020-08-05T06:46:46.946Z</time>
      </trkpt>
      <trkpt lat="38.905860" lon="-1.701455">
        <ele>915.816940</ele>
        <time>2020-08-05T06:46:49.944Z</time>
      </trkpt>
      <trkpt lat="38.905851" lon="-1.701606">
        <ele>915.462437</ele>
        <time>2020-08-05T06:46:52.946Z</time>
      </trkpt>
      <trkpt lat="38.905823" lon="-1.701728">
        <ele>915.164692</ele>
        <time>2020-08-05T06:46:54.949Z</time>
      </trkpt>
      <trkpt lat="38.905805" lon="-1.701864">
        <ele>914.841765</ele>
        <time>2020-08-05T06:46:56.924Z</time>
      </trkpt>
      <trkpt lat="38.905787" lon="-1.702009">
        <ele>914.498050</ele>
        <time>2020-08-05T06:46:58.951Z</time>
      </trkpt>
      <trkpt lat="38.905782" lon="-1.702148">
        <ele>914.172325</ele>
        <time>2020-08-05T06:47:00.958Z</time>
      </trkpt>
      <trkpt lat="38.905771" lon="-1.702300">
        <ele>913.814981</ele>
        <time>2020-08-05T06:47:02.928Z</time>
      </trkpt>
      <trkpt lat="38.905724" lon="-1.702445">
        <ele>913.447290</ele>
        <time>2020-08-05T06:47:04.961Z</time>
      </trkpt>
      <trkpt lat="38.905648" lon="-1.702617">
        <ele>912.984285</ele>
        <time>2020-08-05T06:47:07.933Z</time>
      </trkpt>
      <trkpt lat="38.905551" lon="-1.702766">
        <ele>912.529541</ele>
        <time>2020-08-05T06:47:09.934Z</time>
      </trkpt>
      <trkpt lat="38.905492" lon="-1.702902">
        <ele>912.165056</ele>
        <time>2020-08-05T06:47:11.930Z</time>
      </trkpt>
      <trkpt lat="38.905414" lon="-1.703046">
        <ele>911.754352</ele>
        <time>2020-08-05T06:47:13.939Z</time>
      </trkpt>
      <trkpt lat="38.905336" lon="-1.703180">
        <ele>911.939408</ele>
        <time>2020-08-05T06:47:15.927Z</time>
      </trkpt>
      <trkpt lat="38.905277" lon="-1.703311">
        <ele>912.138817</ele>
        <time>2020-08-05T06:47:17.927Z</time>
      </trkpt>
      <trkpt lat="38.905203" lon="-1.703442">
        <ele>912.352083</ele>
        <time>2020-08-05T06:47:19.923Z</time>
      </trkpt>
      <trkpt lat="38.905118" lon="-1.703565">
        <ele>912.568805</ele>
        <time>2020-08-05T06:47:21.928Z</time>
      </trkpt>
      <trkpt lat="38.905037" lon="-1.703700">
        <ele>912.793391</ele>
        <time>2020-08-05T06:47:23.934Z</time>
      </trkpt>
      <trkpt lat="38.904975" lon="-1.703819">
        <ele>912.982064</ele>
        <time>2020-08-05T06:47:25.934Z</time>
      </trkpt>
      <trkpt lat="38.904888" lon="-1.703959">
        <ele>913.218104</ele>
        <time>2020-08-05T06:47:27.944Z</time>
      </trkpt>
      <trkpt lat="38.904799" lon="-1.704102">
        <ele>913.459346</ele>
        <time>2020-08-05T06:47:29.929Z</time>
      </trkpt>
      <trkpt lat="38.904712" lon="-1.704268">
        <ele>913.723021</ele>
        <time>2020-08-05T06:47:31.926Z</time>
      </trkpt>
      <trkpt lat="38.904621" lon="-1.704409">
        <ele>913.964358</ele>
        <time>2020-08-05T06:47:33.935Z</time>
      </trkpt>
      <trkpt lat="38.904523" lon="-1.704557">
        <ele>914.220380</ele>
        <time>2020-08-05T06:47:35.924Z</time>
      </trkpt>
      <trkpt lat="38.904426" lon="-1.704702">
        <ele>914.472298</ele>
        <time>2020-08-05T06:47:37.946Z</time>
      </trkpt>
      <trkpt lat="38.904356" lon="-1.704841">
        <ele>914.690429</ele>
        <time>2020-08-05T06:47:39.938Z</time>
      </trkpt>
      <trkpt lat="38.904254" lon="-1.704964">
        <ele>914.494375</ele>
        <time>2020-08-05T06:47:41.941Z</time>
      </trkpt>
      <trkpt lat="38.904186" lon="-1.705102">
        <ele>914.090416</ele>
        <time>2020-08-05T06:47:43.931Z</time>
      </trkpt>
      <trkpt lat="38.904122" lon="-1.705235">
        <ele>913.703684</ele>
        <time>2020-08-05T06:47:45.937Z</time>
      </trkpt>
      <trkpt lat="38.904070" lon="-1.705393">
        <ele>913.279419</ele>
        <time>2020-08-05T06:47:47.938Z</time>
      </trkpt>
      <trkpt lat="38.903990" lon="-1.705560">
        <ele>912.794424</ele>
        <time>2020-08-05T06:47:49.964Z</time>
      </trkpt>
      <trkpt lat="38.903983" lon="-1.705723">
        <ele>912.390689</ele>
        <time>2020-08-05T06:47:51.950Z</time>
      </trkpt>
      <trkpt lat="38.903991" lon="-1.705854">
        <ele>912.065711</ele>
        <time>2020-08-05T06:47:53.941Z</time>
      </trkpt>
      <trkpt lat="38.903965" lon="-1.706026">
        <ele>911.632380</ele>
        <time>2020-08-05T06:47:55.929Z</time>
      </trkpt>
      <trkpt lat="38.903924" lon="-1.706200">
        <ele>911.182758</ele>
        <time>2020-08-05T06:47:57.933Z</time>
      </trkpt>
      <trkpt lat="38.903951" lon="-1.706340">
        <ele>910.826044</ele>
        <time>2020-08-05T06:47:59.954Z</time>
      </trkpt>
      <trkpt lat="38.903951" lon="-1.706520">
        <ele>910.380878</ele>
        <time>2020-08-05T06:48:01.948Z</time>
      </trkpt>
      <trkpt lat="38.903896" lon="-1.706705">
        <ele>909.891095</ele>
        <time>2020-08-05T06:48:03.931Z</time>
      </trkpt>
      <trkpt lat="38.903860" lon="-1.706892">
        <ele>909.414676</ele>
        <time>2020-08-05T06:48:05.926Z</time>
      </trkpt>
      <trkpt lat="38.903818" lon="-1.707086">
        <ele>909.219371</ele>
        <time>2020-08-05T06:48:07.934Z</time>
      </trkpt>
      <trkpt lat="38.903759" lon="-1.707238">
        <ele>909.682455</ele>
        <time>2020-08-05T06:48:09.944Z</time>
      </trkpt>
      <trkpt lat="38.903742" lon="-1.707396">
        <ele>910.117306</ele>
        <time>2020-08-05T06:48:11.946Z</time>
      </trkpt>
      <trkpt lat="38.903694" lon="-1.707566">
        <ele>910.610339</ele>
        <time>2020-08-05T06:48:13.930Z</time>
      </trkpt>
      <trkpt lat="38.903674" lon="-1.707705">
        <ele>910.995717</ele>
        <time>2020-08-05T06:48:15.925Z</time>
      </trkpt>
      <trkpt lat="38.903681" lon="-1.707861">
        <ele>911.421725</ele>
        <time>2020-08-05T06:48:17.935Z</time>
      </trkpt>
      <trkpt lat="38.903611" lon="-1.708019">
        <ele>911.917394</ele>
        <time>2020-08-05T06:48:19.933Z</time>
      </trkpt>
      <trkpt lat="38.903618" lon="-1.708184">
        <ele>912.367901</ele>
        <time>2020-08-05T06:48:21.943Z</time>
      </trkpt>
      <trkpt lat="38.903587" lon="-1.708337">
        <ele>912.798930</ele>
        <time>2020-08-05T06:48:23.937Z</time>
      </trkpt>
      <trkpt lat="38.903557" lon="-1.708482">
        <ele>913.207975</ele>
        <time>2020-08-05T06:48:25.930Z</time>
      </trkpt>
      <trkpt lat="38.903537" lon="-1.708651">
        <ele>913.674017</ele>
        <time>2020-08-05T06:48:27.946Z</time>
      </trkpt>
      <trkpt lat="38.903521" lon="-1.708809">
        <ele>914.108403</ele>
        <time>2020-08-05T06:48:29.930Z</time>
      </trkpt>
      <trkpt lat="38.903483" lon="-1.708970">
        <ele>914.567082</ele>
        <time>2020-08-05T06:48:31.955Z</time>
      </trkpt>
      <trkpt lat="38.903433" lon="-1.709137">
        <ele>915.054908</ele>
        <time>2020-08-05T06:48:33.924Z</time>
      </trkpt>
      <trkpt lat="38.903413" lon="-1.709303">
        <ele>915.052135</ele>
        <time>2020-08-05T06:48:35.930Z</time>
      </trkpt>
      <trkpt lat="38.903362" lon="-1.709490">
        <ele>913.944008</ele>
        <time>2020-08-05T06:48:37.952Z</time>
      </trkpt>
      <trkpt lat="38.903375" lon="-1.709657">
        <ele>913.005428</ele>
        <time>2020-08-05T06:48:39.934Z</time>
      </trkpt>
      <trkpt lat="38.903345" lon="-1.709840">
        <ele>911.959570</ele>
        <time>2020-08-05T06:48:41.938Z</time>
      </trkpt>
      <trkpt lat="38.903308" lon="-1.710007">
        <ele>910.988538</ele>
        <time>2020-08-05T06:48:43.936Z</time>
      </trkpt>
      <trkpt lat="38.903277" lon="-1.710177">
        <ele>910.012089</ele>
        <time>2020-08-05T06:48:45.941Z</time>
      </trkpt>
      <trkpt lat="38.903251" lon="-1.710302">
        <ele>909.288507</ele>
        <time>2020-08-05T06:48:47.944Z</time>
      </trkpt>
      <trkpt lat="38.903207" lon="-1.710489">
        <ele>908.195983</ele>
        <time>2020-08-05T06:48:49.937Z</time>
      </trkpt>
      <trkpt lat="38.903178" lon="-1.710650">
        <ele>907.271812</ele>
        <time>2020-08-05T06:48:51.950Z</time>
      </trkpt>
      <trkpt lat="38.903168" lon="-1.710839">
        <ele>906.212419</ele>
        <time>2020-08-05T06:48:53.941Z</time>
      </trkpt>
      <trkpt lat="38.903149" lon="-1.711009">
        <ele>905.251965</ele>
        <time>2020-08-05T06:48:55.934Z</time>
      </trkpt>
      <trkpt lat="38.903105" lon="-1.711192">
        <ele>904.180832</ele>
        <time>2020-08-05T06:48:57.934Z</time>
      </trkpt>
      <trkpt lat="38.903087" lon="-1.711351">
        <ele>903.282288</ele>
        <time>2020-08-05T06:48:59.939Z</time>
      </trkpt>
      <trkpt lat="38.903057" lon="-1.711530">
        <ele>902.338387</ele>
        <time>2020-08-05T06:49:01.938Z</time>
      </trkpt>
      <trkpt lat="38.903026" lon="-1.711693">
        <ele>901.821747</ele>
        <time>2020-08-05T06:49:03.955Z</time>
      </trkpt>
      <trkpt lat="38.902999" lon="-1.711852">
        <ele>901.320673</ele>
        <time>2020-08-05T06:49:05.939Z</time>
      </trkpt>
      <trkpt lat="38.902971" lon="-1.712020">
        <ele>900.791677</ele>
        <time>2020-08-05T06:49:07.936Z</time>
      </trkpt>
      <trkpt lat="38.902926" lon="-1.712187">
        <ele>900.247538</ele>
        <time>2020-08-05T06:49:09.945Z</time>
      </trkpt>
      <trkpt lat="38.902915" lon="-1.712360">
        <ele>899.713102</ele>
        <time>2020-08-05T06:49:11.928Z</time>
      </trkpt>
      <trkpt lat="38.902876" lon="-1.712531">
        <ele>899.164454</ele>
        <time>2020-08-05T06:49:13.943Z</time>
      </trkpt>
      <trkpt lat="38.902827" lon="-1.712708">
        <ele>898.586021</ele>
        <time>2020-08-05T06:49:15.941Z</time>
      </trkpt>
      <trkpt lat="38.902832" lon="-1.712883">
        <ele>898.046838</ele>
        <time>2020-08-05T06:49:17.938Z</time>
      </trkpt>
      <trkpt lat="38.902779" lon="-1.713038">
        <ele>897.525561</ele>
        <time>2020-08-05T06:49:19.942Z</time>
      </trkpt>
      <trkpt lat="38.902729" lon="-1.713199">
        <ele>896.991831</ele>
        <time>2020-08-05T06:49:21.953Z</time>
      </trkpt>
      <trkpt lat="38.902700" lon="-1.713358">
        <ele>896.489009</ele>
        <time>2020-08-05T06:49:23.952Z</time>
      </trkpt>
      <trkpt lat="38.902689" lon="-1.713524">
        <ele>895.976049</ele>
        <time>2020-08-05T06:49:25.943Z</time>
      </trkpt>
      <trkpt lat="38.902654" lon="-1.713684">
        <ele>895.464320</ele>
        <time>2020-08-05T06:49:27.939Z</time>
      </trkpt>
      <trkpt lat="38.902636" lon="-1.713843">
        <ele>894.908305</ele>
        <time>2020-08-05T06:49:29.940Z</time>
      </trkpt>
      <trkpt lat="38.902634" lon="-1.714002">
        <ele>894.333071</ele>
        <time>2020-08-05T06:49:31.941Z</time>
      </trkpt>
      <trkpt lat="38.902610" lon="-1.714170">
        <ele>893.715202</ele>
        <time>2020-08-05T06:49:33.945Z</time>
      </trkpt>
      <trkpt lat="38.902609" lon="-1.714329">
        <ele>893.140025</ele>
        <time>2020-08-05T06:49:35.944Z</time>
      </trkpt>
      <trkpt lat="38.902588" lon="-1.714488">
        <ele>892.556642</ele>
        <time>2020-08-05T06:49:37.940Z</time>
      </trkpt>
      <trkpt lat="38.902586" lon="-1.714639">
        <ele>892.010343</ele>
        <time>2020-08-05T06:49:39.943Z</time>
      </trkpt>
      <trkpt lat="38.902560" lon="-1.714781">
        <ele>891.482653</ele>
        <time>2020-08-05T06:49:41.950Z</time>
      </trkpt>
      <trkpt lat="38.902543" lon="-1.714924">
        <ele>890.959370</ele>
        <time>2020-08-05T06:49:43.951Z</time>
      </trkpt>
      <trkpt lat="38.902539" lon="-1.715070">
        <ele>890.430910</ele>
        <time>2020-08-05T06:49:45.958Z</time>
      </trkpt>
      <trkpt lat="38.902539" lon="-1.715225">
        <ele>889.870220</ele>
        <time>2020-08-05T06:49:47.950Z</time>
      </trkpt>
      <trkpt lat="38.902524" lon="-1.715361">
        <ele>889.373344</ele>
        <time>2020-08-05T06:49:49.945Z</time>
      </trkpt>
      <trkpt lat="38.902496" lon="-1.715513">
        <ele>888.808312</ele>
        <time>2020-08-05T06:49:51.949Z</time>
      </trkpt>
      <trkpt lat="38.902484" lon="-1.715663">
        <ele>888.262849</ele>
        <time>2020-08-05T06:49:53.947Z</time>
      </trkpt>
      <trkpt lat="38.902458" lon="-1.715810">
        <ele>887.717536</ele>
        <time>2020-08-05T06:49:55.972Z</time>
      </trkpt>
      <trkpt lat="38.902428" lon="-1.715971">
        <ele>887.118680</ele>
        <time>2020-08-05T06:49:57.940Z</time>
      </trkpt>
      <trkpt lat="38.902410" lon="-1.716118">
        <ele>886.387689</ele>
        <time>2020-08-05T06:49:59.961Z</time>
      </trkpt>
      <trkpt lat="38.902394" lon="-1.716265">
        <ele>885.577954</ele>
        <time>2020-08-05T06:50:01.943Z</time>
      </trkpt>
      <trkpt lat="38.902370" lon="-1.716417">
        <ele>884.731852</ele>
        <time>2020-08-05T06:50:03.948Z</time>
      </trkpt>
      <trkpt lat="38.902338" lon="-1.716564">
        <ele>883.899139</ele>
        <time>2020-08-05T06:50:05.943Z</time>
      </trkpt>
      <trkpt lat="38.902326" lon="-1.716715">
        <ele>883.071104</ele>
        <time>2020-08-05T06:50:07.940Z</time>
      </trkpt>
      <trkpt lat="38.902314" lon="-1.716865">
        <ele>882.248495</ele>
        <time>2020-08-05T06:50:09.943Z</time>
      </trkpt>
      <trkpt lat="38.902297" lon="-1.717016">
        <ele>881.416168</ele>
        <time>2020-08-05T06:50:11.958Z</time>
      </trkpt>
      <trkpt lat="38.902266" lon="-1.717162">
        <ele>880.590579</ele>
        <time>2020-08-05T06:50:13.941Z</time>
      </trkpt>
      <trkpt lat="38.902210" lon="-1.717309">
        <ele>879.697720</ele>
        <time>2020-08-05T06:50:15.948Z</time>
      </trkpt>
      <trkpt lat="38.902152" lon="-1.717457">
        <ele>878.793738</ele>
        <time>2020-08-05T06:50:17.944Z</time>
      </trkpt>
      <trkpt lat="38.902087" lon="-1.717609">
        <ele>877.847586</ele>
        <time>2020-08-05T06:50:19.951Z</time>
      </trkpt>
      <trkpt lat="38.902052" lon="-1.717769">
        <ele>876.940906</ele>
        <time>2020-08-05T06:50:21.942Z</time>
      </trkpt>
      <trkpt lat="38.902042" lon="-1.717936">
        <ele>876.027173</ele>
        <time>2020-08-05T06:50:23.946Z</time>
      </trkpt>
      <trkpt lat="38.902034" lon="-1.718107">
        <ele>875.092627</ele>
        <time>2020-08-05T06:50:25.948Z</time>
      </trkpt>
      <trkpt lat="38.902029" lon="-1.718295">
        <ele>874.270984</ele>
        <time>2020-08-05T06:50:27.953Z</time>
      </trkpt>
      <trkpt lat="38.902021" lon="-1.718468">
        <ele>874.004798</ele>
        <time>2020-08-05T06:50:29.947Z</time>
      </trkpt>
      <trkpt lat="38.902019" lon="-1.718662">
        <ele>873.706800</ele>
        <time>2020-08-05T06:50:31.957Z</time>
      </trkpt>
      <trkpt lat="38.901995" lon="-1.718837">
        <ele>873.433869</ele>
        <time>2020-08-05T06:50:33.953Z</time>
      </trkpt>
      <trkpt lat="38.901971" lon="-1.719033">
        <ele>873.129121</ele>
        <time>2020-08-05T06:50:35.969Z</time>
      </trkpt>
      <trkpt lat="38.901954" lon="-1.719228">
        <ele>872.827740</ele>
        <time>2020-08-05T06:50:37.941Z</time>
      </trkpt>
      <trkpt lat="38.901933" lon="-1.719433">
        <ele>872.510156</ele>
        <time>2020-08-05T06:50:39.956Z</time>
      </trkpt>
      <trkpt lat="38.901925" lon="-1.719638">
        <ele>872.194893</ele>
        <time>2020-08-05T06:50:41.966Z</time>
      </trkpt>
      <trkpt lat="38.901911" lon="-1.719828">
        <ele>871.901759</ele>
        <time>2020-08-05T06:50:43.947Z</time>
      </trkpt>
      <trkpt lat="38.901897" lon="-1.720027">
        <ele>871.594861</ele>
        <time>2020-08-05T06:50:45.949Z</time>
      </trkpt>
      <trkpt lat="38.901882" lon="-1.720212">
        <ele>871.309174</ele>
        <time>2020-08-05T06:50:47.958Z</time>
      </trkpt>
      <trkpt lat="38.901869" lon="-1.720395">
        <ele>871.026928</ele>
        <time>2020-08-05T06:50:49.961Z</time>
      </trkpt>
      <trkpt lat="38.901858" lon="-1.720590">
        <ele>870.800043</ele>
        <time>2020-08-05T06:50:51.953Z</time>
      </trkpt>
      <trkpt lat="38.901866" lon="-1.720780">
        <ele>870.795317</ele>
        <time>2020-08-05T06:50:53.968Z</time>
      </trkpt>
      <trkpt lat="38.901853" lon="-1.720986">
        <ele>870.790184</ele>
        <time>2020-08-05T06:50:55.948Z</time>
      </trkpt>
      <trkpt lat="38.901808" lon="-1.721172">
        <ele>870.785346</ele>
        <time>2020-08-05T06:50:57.941Z</time>
      </trkpt>
      <trkpt lat="38.901791" lon="-1.721372">
        <ele>870.780349</ele>
        <time>2020-08-05T06:50:59.950Z</time>
      </trkpt>
      <trkpt lat="38.901777" lon="-1.721556">
        <ele>870.775757</ele>
        <time>2020-08-05T06:51:01.933Z</time>
      </trkpt>
      <trkpt lat="38.901764" lon="-1.721746">
        <ele>870.771019</ele>
        <time>2020-08-05T06:51:03.946Z</time>
      </trkpt>
      <trkpt lat="38.901744" lon="-1.721939">
        <ele>870.766183</ele>
        <time>2020-08-05T06:51:05.956Z</time>
      </trkpt>
      <trkpt lat="38.901727" lon="-1.722140">
        <ele>870.761161</ele>
        <time>2020-08-05T06:51:07.948Z</time>
      </trkpt>
      <trkpt lat="38.901714" lon="-1.722343">
        <ele>870.756102</ele>
        <time>2020-08-05T06:51:09.960Z</time>
      </trkpt>
      <trkpt lat="38.901685" lon="-1.722548">
        <ele>870.750927</ele>
        <time>2020-08-05T06:51:11.947Z</time>
      </trkpt>
      <trkpt lat="38.901659" lon="-1.722758">
        <ele>870.745645</ele>
        <time>2020-08-05T06:51:13.926Z</time>
      </trkpt>
      <trkpt lat="38.901646" lon="-1.722951">
        <ele>870.982452</ele>
        <time>2020-08-05T06:51:15.939Z</time>
      </trkpt>
      <trkpt lat="38.901630" lon="-1.723141">
        <ele>871.358708</ele>
        <time>2020-08-05T06:51:17.953Z</time>
      </trkpt>
      <trkpt lat="38.901621" lon="-1.723335">
        <ele>871.741333</ele>
        <time>2020-08-05T06:51:19.945Z</time>
      </trkpt>
      <trkpt lat="38.901607" lon="-1.723535">
        <ele>872.136683</ele>
        <time>2020-08-05T06:51:21.947Z</time>
      </trkpt>
      <trkpt lat="38.901619" lon="-1.723737">
        <ele>872.535539</ele>
        <time>2020-08-05T06:51:23.948Z</time>
      </trkpt>
      <trkpt lat="38.901616" lon="-1.723928">
        <ele>872.911657</ele>
        <time>2020-08-05T06:51:25.946Z</time>
      </trkpt>
      <trkpt lat="38.901592" lon="-1.724166">
        <ele>873.384149</ele>
        <time>2020-08-05T06:51:27.948Z</time>
      </trkpt>
      <trkpt lat="38.901581" lon="-1.724282">
        <ele>873.614219</ele>
        <time>2020-08-05T06:51:28.923Z</time>
      </trkpt>
      <trkpt lat="38.901484" lon="-1.724473">
        <ele>874.063248</ele>
        <time>2020-08-05T06:51:30.926Z</time>
      </trkpt>
      <trkpt lat="38.901488" lon="-1.724668">
        <ele>874.447299</ele>
        <time>2020-08-05T06:51:32.933Z</time>
      </trkpt>
      <trkpt lat="38.901428" lon="-1.724867">
        <ele>874.867468</ele>
        <time>2020-08-05T06:51:34.933Z</time>
      </trkpt>
      <trkpt lat="38.901432" lon="-1.724986">
        <ele>875.101974</ele>
        <time>2020-08-05T06:51:35.938Z</time>
      </trkpt>
      <trkpt lat="38.901423" lon="-1.725193">
        <ele>875.204161</ele>
        <time>2020-08-05T06:51:37.926Z</time>
      </trkpt>
      <trkpt lat="38.901384" lon="-1.725384">
        <ele>875.042163</ele>
        <time>2020-08-05T06:51:39.947Z</time>
      </trkpt>
      <trkpt lat="38.901387" lon="-1.725550">
        <ele>874.905942</ele>
        <time>2020-08-05T06:51:41.925Z</time>
      </trkpt>
      <trkpt lat="38.901397" lon="-1.725704">
        <ele>874.779163</ele>
        <time>2020-08-05T06:51:43.941Z</time>
      </trkpt>
      <trkpt lat="38.901302" lon="-1.725899">
        <ele>874.590427</ele>
        <time>2020-08-05T06:51:45.935Z</time>
      </trkpt>
      <trkpt lat="38.901251" lon="-1.726087">
        <ele>874.427092</ele>
        <time>2020-08-05T06:51:47.942Z</time>
      </trkpt>
      <trkpt lat="38.901252" lon="-1.726274">
        <ele>874.273676</ele>
        <time>2020-08-05T06:51:49.931Z</time>
      </trkpt>
      <trkpt lat="38.901213" lon="-1.726423">
        <ele>874.144709</ele>
        <time>2020-08-05T06:51:51.937Z</time>
      </trkpt>
      <trkpt lat="38.901237" lon="-1.726593">
        <ele>874.002967</ele>
        <time>2020-08-05T06:51:53.938Z</time>
      </trkpt>
      <trkpt lat="38.901342" lon="-1.726677">
        <ele>873.872580</ele>
        <time>2020-08-05T06:51:55.927Z</time>
      </trkpt>
      <trkpt lat="38.901298" lon="-1.726855">
        <ele>873.719362</ele>
        <time>2020-08-05T06:51:57.945Z</time>
      </trkpt>
      <trkpt lat="38.901206" lon="-1.727019">
        <ele>873.553507</ele>
        <time>2020-08-05T06:51:59.935Z</time>
      </trkpt>
      <trkpt lat="38.901158" lon="-1.727212">
        <ele>873.400741</ele>
        <time>2020-08-05T06:52:01.935Z</time>
      </trkpt>
      <trkpt lat="38.901096" lon="-1.727373">
        <ele>873.437041</ele>
        <time>2020-08-05T06:52:03.951Z</time>
      </trkpt>
      <trkpt lat="38.901053" lon="-1.727549">
        <ele>873.474318</ele>
        <time>2020-08-05T06:52:05.935Z</time>
      </trkpt>
      <trkpt lat="38.901009" lon="-1.727734">
        <ele>873.513409</ele>
        <time>2020-08-05T06:52:07.940Z</time>
      </trkpt>
      <trkpt lat="38.900956" lon="-1.727894">
        <ele>873.548548</ele>
        <time>2020-08-05T06:52:09.937Z</time>
      </trkpt>
      <trkpt lat="38.900908" lon="-1.728084">
        <ele>873.588915</ele>
        <time>2020-08-05T06:52:11.947Z</time>
      </trkpt>
      <trkpt lat="38.900844" lon="-1.728241">
        <ele>873.624729</ele>
        <time>2020-08-05T06:52:13.942Z</time>
      </trkpt>
      <trkpt lat="38.900802" lon="-1.728416">
        <ele>873.661736</ele>
        <time>2020-08-05T06:52:15.941Z</time>
      </trkpt>
      <trkpt lat="38.900769" lon="-1.728586">
        <ele>873.697142</ele>
        <time>2020-08-05T06:52:17.939Z</time>
      </trkpt>
      <trkpt lat="38.900736" lon="-1.728776">
        <ele>873.736481</ele>
        <time>2020-08-05T06:52:19.940Z</time>
      </trkpt>
      <trkpt lat="38.900697" lon="-1.728960">
        <ele>873.775017</ele>
        <time>2020-08-05T06:52:21.947Z</time>
      </trkpt>
      <trkpt lat="38.900654" lon="-1.729122">
        <ele>873.809606</ele>
        <time>2020-08-05T06:52:23.945Z</time>
      </trkpt>
      <trkpt lat="38.900604" lon="-1.729305">
        <ele>873.848799</ele>
        <time>2020-08-05T06:52:25.948Z</time>
      </trkpt>
      <trkpt lat="38.900558" lon="-1.729484">
        <ele>873.818826</ele>
        <time>2020-08-05T06:52:27.947Z</time>
      </trkpt>
      <trkpt lat="38.900499" lon="-1.729652">
        <ele>873.739642</ele>
        <time>2020-08-05T06:52:29.947Z</time>
      </trkpt>
      <trkpt lat="38.900453" lon="-1.729840">
        <ele>873.654975</ele>
        <time>2020-08-05T06:52:31.933Z</time>
      </trkpt>
      <trkpt lat="38.900422" lon="-1.730032">
        <ele>873.570731</ele>
        <time>2020-08-05T06:52:33.933Z</time>
      </trkpt>
      <trkpt lat="38.900382" lon="-1.730213">
        <ele>873.489895</ele>
        <time>2020-08-05T06:52:35.947Z</time>
      </trkpt>
      <trkpt lat="38.900320" lon="-1.730386">
        <ele>873.408069</ele>
        <time>2020-08-05T06:52:37.958Z</time>
      </trkpt>
      <trkpt lat="38.900264" lon="-1.730558">
        <ele>873.327968</ele>
        <time>2020-08-05T06:52:39.949Z</time>
      </trkpt>
      <trkpt lat="38.900218" lon="-1.730711">
        <ele>873.257501</ele>
        <time>2020-08-05T06:52:41.931Z</time>
      </trkpt>
      <trkpt lat="38.900171" lon="-1.730870">
        <ele>873.184429</ele>
        <time>2020-08-05T06:52:43.947Z</time>
      </trkpt>
      <trkpt lat="38.900151" lon="-1.731061">
        <ele>873.101632</ele>
        <time>2020-08-05T06:52:45.938Z</time>
      </trkpt>
      <trkpt lat="38.900184" lon="-1.731247">
        <ele>873.019672</ele>
        <time>2020-08-05T06:52:47.927Z</time>
      </trkpt>
      <trkpt lat="38.900245" lon="-1.731439">
        <ele>872.930576</ele>
        <time>2020-08-05T06:52:49.968Z</time>
      </trkpt>
      <trkpt lat="38.900309" lon="-1.731617">
        <ele>872.888438</ele>
        <time>2020-08-05T06:52:51.950Z</time>
      </trkpt>
      <trkpt lat="38.900366" lon="-1.731802">
        <ele>872.942161</ele>
        <time>2020-08-05T06:52:53.933Z</time>
      </trkpt>
      <trkpt lat="38.900436" lon="-1.731990">
        <ele>872.998433</ele>
        <time>2020-08-05T06:52:55.937Z</time>
      </trkpt>
      <trkpt lat="38.900481" lon="-1.732093">
        <ele>873.030326</ele>
        <time>2020-08-05T06:52:56.933Z</time>
      </trkpt>
      <trkpt lat="38.900563" lon="-1.732243">
        <ele>873.079820</ele>
        <time>2020-08-05T06:52:58.943Z</time>
      </trkpt>
      <trkpt lat="38.900647" lon="-1.732426">
        <ele>873.137185</ele>
        <time>2020-08-05T06:53:00.937Z</time>
      </trkpt>
      <trkpt lat="38.900745" lon="-1.732604">
        <ele>873.196057</ele>
        <time>2020-08-05T06:53:02.942Z</time>
      </trkpt>
      <trkpt lat="38.900823" lon="-1.732780">
        <ele>873.250742</ele>
        <time>2020-08-05T06:53:04.936Z</time>
      </trkpt>
      <trkpt lat="38.900890" lon="-1.732945">
        <ele>873.300993</ele>
        <time>2020-08-05T06:53:06.956Z</time>
      </trkpt>
      <trkpt lat="38.900967" lon="-1.733111">
        <ele>873.353171</ele>
        <time>2020-08-05T06:53:08.941Z</time>
      </trkpt>
      <trkpt lat="38.900980" lon="-1.733229">
        <ele>873.385349</ele>
        <time>2020-08-05T06:53:09.944Z</time>
      </trkpt>
      <trkpt lat="38.901053" lon="-1.733403">
        <ele>873.438721</ele>
        <time>2020-08-05T06:53:11.926Z</time>
      </trkpt>
      <trkpt lat="38.901166" lon="-1.733567">
        <ele>873.503145</ele>
        <time>2020-08-05T06:53:13.952Z</time>
      </trkpt>
      <trkpt lat="38.901245" lon="-1.733721">
        <ele>873.712806</ele>
        <time>2020-08-05T06:53:15.949Z</time>
      </trkpt>
      <trkpt lat="38.901318" lon="-1.733893">
        <ele>873.935503</ele>
        <time>2020-08-05T06:53:17.927Z</time>
      </trkpt>
      <trkpt lat="38.901404" lon="-1.734074">
        <ele>874.176560</ele>
        <time>2020-08-05T06:53:19.935Z</time>
      </trkpt>
      <trkpt lat="38.901445" lon="-1.734177">
        <ele>874.308067</ele>
        <time>2020-08-05T06:53:20.940Z</time>
      </trkpt>
      <trkpt lat="38.901531" lon="-1.734366">
        <ele>874.556930</ele>
        <time>2020-08-05T06:53:22.945Z</time>
      </trkpt>
      <trkpt lat="38.901629" lon="-1.734535">
        <ele>874.796497</ele>
        <time>2020-08-05T06:53:24.936Z</time>
      </trkpt>
      <trkpt lat="38.901646" lon="-1.734660">
        <ele>874.940737</ele>
        <time>2020-08-05T06:53:25.930Z</time>
      </trkpt>
      <trkpt lat="38.901719" lon="-1.734807">
        <ele>875.138952</ele>
        <time>2020-08-05T06:53:27.930Z</time>
      </trkpt>
      <trkpt lat="38.901804" lon="-1.734885">
        <ele>875.291513</ele>
        <time>2020-08-05T06:53:28.950Z</time>
      </trkpt>
      <trkpt lat="38.901861" lon="-1.734977">
        <ele>875.425182</ele>
        <time>2020-08-05T06:53:29.937Z</time>
      </trkpt>
      <trkpt lat="38.901904" lon="-1.735091">
        <ele>875.569183</ele>
        <time>2020-08-05T06:53:30.947Z</time>
      </trkpt>
      <trkpt lat="38.902024" lon="-1.735261">
        <ele>875.830069</ele>
        <time>2020-08-05T06:53:32.925Z</time>
      </trkpt>
      <trkpt lat="38.902103" lon="-1.735355">
        <ele>875.987331</ele>
        <time>2020-08-05T06:53:33.949Z</time>
      </trkpt>
      <trkpt lat="38.902203" lon="-1.735525">
        <ele>876.097285</ele>
        <time>2020-08-05T06:53:35.952Z</time>
      </trkpt>
      <trkpt lat="38.902330" lon="-1.735572">
        <ele>876.049902</ele>
        <time>2020-08-05T06:53:37.938Z</time>
      </trkpt>
      <trkpt lat="38.902391" lon="-1.735708">
        <ele>876.006106</ele>
        <time>2020-08-05T06:53:38.930Z</time>
      </trkpt>
      <trkpt lat="38.902494" lon="-1.735901">
        <ele>875.940812</ele>
        <time>2020-08-05T06:53:40.944Z</time>
      </trkpt>
      <trkpt lat="38.902623" lon="-1.736055">
        <ele>875.877683</ele>
        <time>2020-08-05T06:53:42.932Z</time>
      </trkpt>
      <trkpt lat="38.902691" lon="-1.736159">
        <ele>875.839785</ele>
        <time>2020-08-05T06:53:43.948Z</time>
      </trkpt>
      <trkpt lat="38.902774" lon="-1.736282">
        <ele>875.794362</ele>
        <time>2020-08-05T06:53:45.949Z</time>
      </trkpt>
      <trkpt lat="38.902874" lon="-1.736342">
        <ele>875.754794</ele>
        <time>2020-08-05T06:53:46.938Z</time>
      </trkpt>
      <trkpt lat="38.902935" lon="-1.736516">
        <ele>875.701549</ele>
        <time>2020-08-05T06:53:48.931Z</time>
      </trkpt>
      <trkpt lat="38.903021" lon="-1.736573">
        <ele>875.666856</ele>
        <time>2020-08-05T06:53:49.942Z</time>
      </trkpt>
      <trkpt lat="38.903128" lon="-1.736731">
        <ele>875.608419</ele>
        <time>2020-08-05T06:53:51.930Z</time>
      </trkpt>
      <trkpt lat="38.903232" lon="-1.736874">
        <ele>875.553810</ele>
        <time>2020-08-05T06:53:53.926Z</time>
      </trkpt>
      <trkpt lat="38.903402" lon="-1.736997">
        <ele>875.483864</ele>
        <time>2020-08-05T06:53:55.939Z</time>
      </trkpt>
      <trkpt lat="38.903538" lon="-1.737113">
        <ele>875.361461</ele>
        <time>2020-08-05T06:53:57.937Z</time>
      </trkpt>
      <trkpt lat="38.903690" lon="-1.737251">
        <ele>875.214555</ele>
        <time>2020-08-05T06:53:59.931Z</time>
      </trkpt>
      <trkpt lat="38.903799" lon="-1.737409">
        <ele>875.084853</ele>
        <time>2020-08-05T06:54:01.935Z</time>
      </trkpt>
      <trkpt lat="38.903918" lon="-1.737466">
        <ele>874.984607</ele>
        <time>2020-08-05T06:54:03.945Z</time>
      </trkpt>
      <trkpt lat="38.904041" lon="-1.737583">
        <ele>874.863811</ele>
        <time>2020-08-05T06:54:05.935Z</time>
      </trkpt>
      <trkpt lat="38.904132" lon="-1.737583">
        <ele>874.791980</ele>
        <time>2020-08-05T06:54:06.939Z</time>
      </trkpt>
      <trkpt lat="38.904257" lon="-1.737657">
        <ele>874.683344</ele>
        <time>2020-08-05T06:54:08.948Z</time>
      </trkpt>
      <trkpt lat="38.904334" lon="-1.737834">
        <ele>874.558783</ele>
        <time>2020-08-05T06:54:10.944Z</time>
      </trkpt>
      <trkpt lat="38.904416" lon="-1.737932">
        <ele>874.470390</ele>
        <time>2020-08-05T06:54:12.932Z</time>
      </trkpt>
      <trkpt lat="38.904468" lon="-1.738066">
        <ele>874.378411</ele>
        <time>2020-08-05T06:54:14.927Z</time>
      </trkpt>
      <trkpt lat="38.904480" lon="-1.738204">
        <ele>874.293115</ele>
        <time>2020-08-05T06:54:16.938Z</time>
      </trkpt>
      <trkpt lat="38.904470" lon="-1.738355">
        <ele>874.200025</ele>
        <time>2020-08-05T06:54:17.946Z</time>
      </trkpt>
      <trkpt lat="38.904416" lon="-1.738474">
        <ele>874.115408</ele>
        <time>2020-08-05T06:54:18.935Z</time>
      </trkpt>
      <trkpt lat="38.904346" lon="-1.738552">
        <ele>874.073913</ele>
        <time>2020-08-05T06:54:19.921Z</time>
      </trkpt>
      <trkpt lat="38.904262" lon="-1.738633">
        <ele>874.150264</ele>
        <time>2020-08-05T06:54:20.925Z</time>
      </trkpt>
      <trkpt lat="38.904178" lon="-1.738796">
        <ele>874.260869</ele>
        <time>2020-08-05T06:54:22.945Z</time>
      </trkpt>
      <trkpt lat="38.904081" lon="-1.738897">
        <ele>874.351634</ele>
        <time>2020-08-05T06:54:24.933Z</time>
      </trkpt>
      <trkpt lat="38.903968" lon="-1.739001">
        <ele>874.452683</ele>
        <time>2020-08-05T06:54:26.950Z</time>
      </trkpt>
      <trkpt lat="38.903859" lon="-1.739091">
        <ele>874.546876</ele>
        <time>2020-08-05T06:54:28.941Z</time>
      </trkpt>
      <trkpt lat="38.903690" lon="-1.739225">
        <ele>874.691247</ele>
        <time>2020-08-05T06:54:30.935Z</time>
      </trkpt>
      <trkpt lat="38.903568" lon="-1.739347">
        <ele>874.803635</ele>
        <time>2020-08-05T06:54:32.947Z</time>
      </trkpt>
      <trkpt lat="38.903465" lon="-1.739425">
        <ele>874.890553</ele>
        <time>2020-08-05T06:54:34.927Z</time>
      </trkpt>
      <trkpt lat="38.903359" lon="-1.739421">
        <ele>874.967649</ele>
        <time>2020-08-05T06:54:35.926Z</time>
      </trkpt>
      <trkpt lat="38.903246" lon="-1.739489">
        <ele>875.058363</ele>
        <time>2020-08-05T06:54:37.942Z</time>
      </trkpt>
      <trkpt lat="38.903130" lon="-1.739554">
        <ele>875.150365</ele>
        <time>2020-08-05T06:54:40.938Z</time>
      </trkpt>
      <trkpt lat="38.902979" lon="-1.739634">
        <ele>875.269108</ele>
        <time>2020-08-05T06:54:42.937Z</time>
      </trkpt>
      <trkpt lat="38.902801" lon="-1.739989">
        <ele>875.203402</ele>
        <time>2020-08-05T06:54:55.969Z</time>
      </trkpt>
      <trkpt lat="38.902957" lon="-1.740082">
        <ele>875.059571</ele>
        <time>2020-08-05T06:54:58.931Z</time>
      </trkpt>
      <trkpt lat="38.902815" lon="-1.740201">
        <ele>874.917782</ele>
        <time>2020-08-05T06:55:01.938Z</time>
      </trkpt>
      <trkpt lat="38.902871" lon="-1.740296">
        <ele>874.840213</ele>
        <time>2020-08-05T06:55:03.952Z</time>
      </trkpt>
      <trkpt lat="38.902940" lon="-1.740412">
        <ele>874.745183</ele>
        <time>2020-08-05T06:55:05.936Z</time>
      </trkpt>
      <trkpt lat="38.902930" lon="-1.740537">
        <ele>874.663395</ele>
        <time>2020-08-05T06:55:14.943Z</time>
      </trkpt>
      <trkpt lat="38.903120" lon="-1.741035">
        <ele>874.302403</ele>
        <time>2020-08-05T06:55:58.930Z</time>
      </trkpt>
      <trkpt lat="38.903207" lon="-1.741171">
        <ele>874.187816</ele>
        <time>2020-08-05T06:56:00.943Z</time>
      </trkpt>
      <trkpt lat="38.903253" lon="-1.741289">
        <ele>874.101916</ele>
        <time>2020-08-05T06:56:02.953Z</time>
      </trkpt>
      <trkpt lat="38.903338" lon="-1.741414">
        <ele>873.993874</ele>
        <time>2020-08-05T06:56:04.942Z</time>
      </trkpt>
      <trkpt lat="38.903400" lon="-1.741580">
        <ele>873.874031</ele>
        <time>2020-08-05T06:56:06.953Z</time>
      </trkpt>
      <trkpt lat="38.903469" lon="-1.741669">
        <ele>873.287423</ele>
        <time>2020-08-05T06:56:08.946Z</time>
      </trkpt>
      <trkpt lat="38.903521" lon="-1.741806">
        <ele>872.470465</ele>
        <time>2020-08-05T06:56:10.941Z</time>
      </trkpt>
      <trkpt lat="38.903577" lon="-1.741921">
        <ele>871.743380</ele>
        <time>2020-08-05T06:56:12.934Z</time>
      </trkpt>
      <trkpt lat="38.903642" lon="-1.742028">
        <ele>871.015856</ele>
        <time>2020-08-05T06:56:14.931Z</time>
      </trkpt>
      <trkpt lat="38.903685" lon="-1.742166">
        <ele>870.219138</ele>
        <time>2020-08-05T06:56:16.933Z</time>
      </trkpt>
      <trkpt lat="38.903723" lon="-1.742308">
        <ele>869.414326</ele>
        <time>2020-08-05T06:56:18.944Z</time>
      </trkpt>
      <trkpt lat="38.903764" lon="-1.742436">
        <ele>868.672450</ele>
        <time>2020-08-05T06:56:20.933Z</time>
      </trkpt>
      <trkpt lat="38.904100" lon="-1.743183">
        <ele>864.048138</ele>
        <time>2020-08-05T06:56:31.953Z</time>
      </trkpt>
      <trkpt lat="38.904162" lon="-1.743308">
        <ele>863.253676</ele>
        <time>2020-08-05T06:56:34.934Z</time>
      </trkpt>
      <trkpt lat="38.904232" lon="-1.743430">
        <ele>862.441287</ele>
        <time>2020-08-05T06:56:36.934Z</time>
      </trkpt>
      <trkpt lat="38.904281" lon="-1.743550">
        <ele>861.714972</ele>
        <time>2020-08-05T06:56:38.932Z</time>
      </trkpt>
      <trkpt lat="38.904316" lon="-1.743679">
        <ele>860.642651</ele>
        <time>2020-08-05T06:56:40.947Z</time>
      </trkpt>
      <trkpt lat="38.904379" lon="-1.743804">
        <ele>859.292277</ele>
        <time>2020-08-05T06:56:42.928Z</time>
      </trkpt>
      <trkpt lat="38.904425" lon="-1.743960">
        <ele>857.779619</ele>
        <time>2020-08-05T06:56:44.941Z</time>
      </trkpt>
      <trkpt lat="38.904521" lon="-1.744067">
        <ele>856.298901</ele>
        <time>2020-08-05T06:56:46.933Z</time>
      </trkpt>
      <trkpt lat="38.904588" lon="-1.744218">
        <ele>854.722801</ele>
        <time>2020-08-05T06:56:48.946Z</time>
      </trkpt>
      <trkpt lat="38.904682" lon="-1.744331">
        <ele>853.222982</ele>
        <time>2020-08-05T06:56:50.939Z</time>
      </trkpt>
      <trkpt lat="38.904757" lon="-1.744428">
        <ele>851.983118</ele>
        <time>2020-08-05T06:56:52.939Z</time>
      </trkpt>
      <trkpt lat="38.904829" lon="-1.744605">
        <ele>850.172156</ele>
        <time>2020-08-05T06:56:54.943Z</time>
      </trkpt>
      <trkpt lat="38.904884" lon="-1.744792">
        <ele>848.359498</ele>
        <time>2020-08-05T06:56:56.949Z</time>
      </trkpt>
      <trkpt lat="38.904945" lon="-1.744963">
        <ele>846.653836</ele>
        <time>2020-08-05T06:56:58.932Z</time>
      </trkpt>
      <trkpt lat="38.905009" lon="-1.745100">
        <ele>845.204968</ele>
        <time>2020-08-05T06:57:00.954Z</time>
      </trkpt>
      <trkpt lat="38.905043" lon="-1.745244">
        <ele>843.840496</ele>
        <time>2020-08-05T06:57:02.954Z</time>
      </trkpt>
      <trkpt lat="38.905079" lon="-1.745369">
        <ele>842.631950</ele>
        <time>2020-08-05T06:57:04.947Z</time>
      </trkpt>
      <trkpt lat="38.905132" lon="-1.745467">
        <ele>841.549837</ele>
        <time>2020-08-05T06:57:06.945Z</time>
      </trkpt>
      <trkpt lat="38.905184" lon="-1.745564">
        <ele>840.512222</ele>
        <time>2020-08-05T06:57:08.952Z</time>
      </trkpt>
      <trkpt lat="38.905251" lon="-1.745656">
        <ele>840.360352</ele>
        <time>2020-08-05T06:57:10.941Z</time>
      </trkpt>
      <trkpt lat="38.905313" lon="-1.745745">
        <ele>840.216378</ele>
        <time>2020-08-05T06:57:12.938Z</time>
      </trkpt>
      <trkpt lat="38.905398" lon="-1.745858">
        <ele>840.026953</ele>
        <time>2020-08-05T06:57:16.955Z</time>
      </trkpt>
      <trkpt lat="38.905457" lon="-1.745964">
        <ele>839.869876</ele>
        <time>2020-08-05T06:57:19.942Z</time>
      </trkpt>
      <trkpt lat="38.905526" lon="-1.746084">
        <ele>839.690042</ele>
        <time>2020-08-05T06:57:22.944Z</time>
      </trkpt>
      <trkpt lat="38.905607" lon="-1.746217">
        <ele>839.486483</ele>
        <time>2020-08-05T06:57:25.943Z</time>
      </trkpt>
      <trkpt lat="38.905678" lon="-1.746298">
        <ele>839.339431</ele>
        <time>2020-08-05T06:57:27.932Z</time>
      </trkpt>
      <trkpt lat="38.905755" lon="-1.746370">
        <ele>839.191939</ele>
        <time>2020-08-05T06:57:29.952Z</time>
      </trkpt>
      <trkpt lat="38.905842" lon="-1.746519">
        <ele>838.967420</ele>
        <time>2020-08-05T06:57:32.940Z</time>
      </trkpt>
      <trkpt lat="38.905945" lon="-1.746647">
        <ele>838.745494</ele>
        <time>2020-08-05T06:57:35.937Z</time>
      </trkpt>
      <trkpt lat="38.906018" lon="-1.746763">
        <ele>838.565686</ele>
        <time>2020-08-05T06:57:37.940Z</time>
      </trkpt>
      <trkpt lat="38.906081" lon="-1.746887">
        <ele>838.387198</ele>
        <time>2020-08-05T06:57:39.933Z</time>
      </trkpt>
      <trkpt lat="38.906155" lon="-1.747009">
        <ele>838.200762</ele>
        <time>2020-08-05T06:57:41.941Z</time>
      </trkpt>
      <trkpt lat="38.906211" lon="-1.747112">
        <ele>838.049321</ele>
        <time>2020-08-05T06:57:43.924Z</time>
      </trkpt>
      <trkpt lat="38.906310" lon="-1.747227">
        <ele>837.842624</ele>
        <time>2020-08-05T06:57:46.932Z</time>
      </trkpt>
      <trkpt lat="38.906386" lon="-1.747363">
        <ele>837.666104</ele>
        <time>2020-08-05T06:57:49.965Z</time>
      </trkpt>
      <trkpt lat="38.906418" lon="-1.747503">
        <ele>837.539508</ele>
        <time>2020-08-05T06:57:51.949Z</time>
      </trkpt>
      <trkpt lat="38.906483" lon="-1.747665">
        <ele>837.381373</ele>
        <time>2020-08-05T06:57:53.933Z</time>
      </trkpt>
      <trkpt lat="38.906551" lon="-1.747803">
        <ele>837.239659</ele>
        <time>2020-08-05T06:57:55.949Z</time>
      </trkpt>
      <trkpt lat="38.906626" lon="-1.747900">
        <ele>837.121023</ele>
        <time>2020-08-05T06:57:57.955Z</time>
      </trkpt>
      <trkpt lat="38.906685" lon="-1.748017">
        <ele>837.000064</ele>
        <time>2020-08-05T06:57:59.951Z</time>
      </trkpt>
      <trkpt lat="38.906755" lon="-1.748141">
        <ele>836.867154</ele>
        <time>2020-08-05T06:58:01.936Z</time>
      </trkpt>
      <trkpt lat="38.906839" lon="-1.748256">
        <ele>836.730312</ele>
        <time>2020-08-05T06:58:03.955Z</time>
      </trkpt>
      <trkpt lat="38.906902" lon="-1.748391">
        <ele>836.593740</ele>
        <time>2020-08-05T06:58:05.952Z</time>
      </trkpt>
      <trkpt lat="38.906986" lon="-1.748532">
        <ele>836.439675</ele>
        <time>2020-08-05T06:58:07.957Z</time>
      </trkpt>
      <trkpt lat="38.907066" lon="-1.748659">
        <ele>836.297915</ele>
        <time>2020-08-05T06:58:09.958Z</time>
      </trkpt>
      <trkpt lat="38.907153" lon="-1.748802">
        <ele>836.140431</ele>
        <time>2020-08-05T06:58:11.942Z</time>
      </trkpt>
      <trkpt lat="38.907250" lon="-1.748919">
        <ele>835.992108</ele>
        <time>2020-08-05T06:58:13.952Z</time>
      </trkpt>
      <trkpt lat="38.907325" lon="-1.749048">
        <ele>835.852401</ele>
        <time>2020-08-05T06:58:15.955Z</time>
      </trkpt>
      <trkpt lat="38.907424" lon="-1.749176">
        <ele>835.761276</ele>
        <time>2020-08-05T06:58:17.947Z</time>
      </trkpt>
      <trkpt lat="38.907539" lon="-1.749312">
        <ele>835.968526</ele>
        <time>2020-08-05T06:58:19.930Z</time>
      </trkpt>
      <trkpt lat="38.907647" lon="-1.749462">
        <ele>836.179408</ele>
        <time>2020-08-05T06:58:21.938Z</time>
      </trkpt>
      <trkpt lat="38.907752" lon="-1.749601">
        <ele>836.379313</ele>
        <time>2020-08-05T06:58:23.931Z</time>
      </trkpt>
      <trkpt lat="38.907856" lon="-1.749725">
        <ele>836.567446</ele>
        <time>2020-08-05T06:58:25.951Z</time>
      </trkpt>
      <trkpt lat="38.907904" lon="-1.749824">
        <ele>836.687813</ele>
        <time>2020-08-05T06:58:26.938Z</time>
      </trkpt>
      <trkpt lat="38.907968" lon="-1.749916">
        <ele>836.815155</ele>
        <time>2020-08-05T06:58:27.933Z</time>
      </trkpt>
      <trkpt lat="38.908048" lon="-1.750102">
        <ele>837.034459</ele>
        <time>2020-08-05T06:58:29.939Z</time>
      </trkpt>
      <trkpt lat="38.908135" lon="-1.750294">
        <ele>837.263729</ele>
        <time>2020-08-05T06:58:31.954Z</time>
      </trkpt>
      <trkpt lat="38.908213" lon="-1.750469">
        <ele>837.471839</ele>
        <time>2020-08-05T06:58:33.947Z</time>
      </trkpt>
      <trkpt lat="38.908277" lon="-1.750554">
        <ele>837.593891</ele>
        <time>2020-08-05T06:58:34.944Z</time>
      </trkpt>
      <trkpt lat="38.908400" lon="-1.750686">
        <ele>837.806397</ele>
        <time>2020-08-05T06:58:36.951Z</time>
      </trkpt>
      <trkpt lat="38.908458" lon="-1.750787">
        <ele>837.935927</ele>
        <time>2020-08-05T06:58:37.956Z</time>
      </trkpt>
      <trkpt lat="38.908570" lon="-1.750950">
        <ele>838.153019</ele>
        <time>2020-08-05T06:58:39.934Z</time>
      </trkpt>
      <trkpt lat="38.908681" lon="-1.751038">
        <ele>838.300425</ele>
        <time>2020-08-05T06:58:41.943Z</time>
      </trkpt>
      <trkpt lat="38.908781" lon="-1.751212">
        <ele>838.490667</ele>
        <time>2020-08-05T06:58:43.944Z</time>
      </trkpt>
      <trkpt lat="38.908886" lon="-1.751368">
        <ele>838.672069</ele>
        <time>2020-08-05T06:58:45.951Z</time>
      </trkpt>
      <trkpt lat="38.909029" lon="-1.751477">
        <ele>838.859981</ele>
        <time>2020-08-05T06:58:47.926Z</time>
      </trkpt>
      <trkpt lat="38.909097" lon="-1.751554">
        <ele>838.962415</ele>
        <time>2020-08-05T06:58:48.957Z</time>
      </trkpt>
      <trkpt lat="38.909226" lon="-1.751702">
        <ele>839.157861</ele>
        <time>2020-08-05T06:58:50.939Z</time>
      </trkpt>
      <trkpt lat="38.909352" lon="-1.751803">
        <ele>839.325701</ele>
        <time>2020-08-05T06:58:52.928Z</time>
      </trkpt>
      <trkpt lat="38.909475" lon="-1.751882">
        <ele>839.481113</ele>
        <time>2020-08-05T06:58:54.948Z</time>
      </trkpt>
      <trkpt lat="38.909538" lon="-1.752024">
        <ele>839.624870</ele>
        <time>2020-08-05T06:58:56.932Z</time>
      </trkpt>
      <trkpt lat="38.909412" lon="-1.752692">
        <ele>840.184236</ele>
        <time>2020-08-05T06:59:25.954Z</time>
      </trkpt>
      <trkpt lat="38.909488" lon="-1.752808">
        <ele>840.247281</ele>
        <time>2020-08-05T06:59:27.934Z</time>
      </trkpt>
      <trkpt lat="38.909515" lon="-1.753694">
        <ele>840.615922</ele>
        <time>2020-08-05T07:00:11.988Z</time>
      </trkpt>
      <trkpt lat="38.909611" lon="-1.753768">
        <ele>840.675734</ele>
        <time>2020-08-05T07:00:12.929Z</time>
      </trkpt>
      <trkpt lat="38.909669" lon="-1.753881">
        <ele>840.732014</ele>
        <time>2020-08-05T07:00:15.934Z</time>
      </trkpt>
      <trkpt lat="38.909632" lon="-1.754025">
        <ele>840.795062</ele>
        <time>2020-08-05T07:00:16.934Z</time>
      </trkpt>
      <trkpt lat="38.909624" lon="-1.754309">
        <ele>840.913214</ele>
        <time>2020-08-05T07:00:18.928Z</time>
      </trkpt>
      <trkpt lat="38.909668" lon="-1.754424">
        <ele>840.966492</ele>
        <time>2020-08-05T07:00:19.947Z</time>
      </trkpt>
      <trkpt lat="38.909651" lon="-1.754592">
        <ele>841.036927</ele>
        <time>2020-08-05T07:00:22.930Z</time>
      </trkpt>
      <trkpt lat="38.909618" lon="-1.754744">
        <ele>841.102535</ele>
        <time>2020-08-05T07:00:24.939Z</time>
      </trkpt>
      <trkpt lat="38.909572" lon="-1.754910">
        <ele>840.818015</ele>
        <time>2020-08-05T07:00:26.934Z</time>
      </trkpt>
      <trkpt lat="38.909543" lon="-1.755040">
        <ele>840.591000</ele>
        <time>2020-08-05T07:00:27.937Z</time>
      </trkpt>
      <trkpt lat="38.909709" lon="-1.755076">
        <ele>840.227832</ele>
        <time>2020-08-05T07:00:28.926Z</time>
      </trkpt>
      <trkpt lat="38.909682" lon="-1.755268">
        <ele>839.900311</ele>
        <time>2020-08-05T07:00:30.934Z</time>
      </trkpt>
      <trkpt lat="38.909715" lon="-1.755456">
        <ele>839.576796</ele>
        <time>2020-08-05T07:00:32.955Z</time>
      </trkpt>
      <trkpt lat="38.909735" lon="-1.755595">
        <ele>839.339510</ele>
        <time>2020-08-05T07:00:34.944Z</time>
      </trkpt>
      <trkpt lat="38.909717" lon="-1.755743">
        <ele>839.088054</ele>
        <time>2020-08-05T07:00:36.951Z</time>
      </trkpt>
      <trkpt lat="38.909741" lon="-1.755882">
        <ele>838.849048</ele>
        <time>2020-08-05T07:00:38.934Z</time>
      </trkpt>
      <trkpt lat="38.909691" lon="-1.756005">
        <ele>838.616098</ele>
        <time>2020-08-05T07:00:40.931Z</time>
      </trkpt>
      <trkpt lat="38.909641" lon="-1.756189">
        <ele>838.288935</ele>
        <time>2020-08-05T07:00:42.949Z</time>
      </trkpt>
      <trkpt lat="38.909624" lon="-1.756397">
        <ele>837.937856</ele>
        <time>2020-08-05T07:00:44.936Z</time>
      </trkpt>
      <trkpt lat="38.909632" lon="-1.756592">
        <ele>837.610066</ele>
        <time>2020-08-05T07:00:46.928Z</time>
      </trkpt>
      <trkpt lat="38.909578" lon="-1.756731">
        <ele>837.349271</ele>
        <time>2020-08-05T07:00:48.923Z</time>
      </trkpt>
      <trkpt lat="38.909570" lon="-1.756884">
        <ele>837.084183</ele>
        <time>2020-08-05T07:00:50.933Z</time>
      </trkpt>
      <trkpt lat="38.909559" lon="-1.757036">
        <ele>836.813112</ele>
        <time>2020-08-05T07:00:52.927Z</time>
      </trkpt>
      <trkpt lat="38.909567" lon="-1.757200">
        <ele>836.521327</ele>
        <time>2020-08-05T07:00:54.947Z</time>
      </trkpt>
      <trkpt lat="38.909560" lon="-1.757326">
        <ele>836.297020</ele>
        <time>2020-08-05T07:00:56.927Z</time>
      </trkpt>
      <trkpt lat="38.909546" lon="-1.757511">
        <ele>835.966967</ele>
        <time>2020-08-05T07:00:58.934Z</time>
      </trkpt>
      <trkpt lat="38.909496" lon="-1.757629">
        <ele>835.728383</ele>
        <time>2020-08-05T07:01:00.946Z</time>
      </trkpt>
      <trkpt lat="38.909464" lon="-1.757764">
        <ele>835.477789</ele>
        <time>2020-08-05T07:01:02.929Z</time>
      </trkpt>
      <trkpt lat="38.909453" lon="-1.757908">
        <ele>835.220860</ele>
        <time>2020-08-05T07:01:04.934Z</time>
      </trkpt>
      <trkpt lat="38.909471" lon="-1.758048">
        <ele>834.968892</ele>
        <time>2020-08-05T07:01:06.933Z</time>
      </trkpt>
      <trkpt lat="38.909426" lon="-1.758204">
        <ele>834.673462</ele>
        <time>2020-08-05T07:01:08.932Z</time>
      </trkpt>
      <trkpt lat="38.909386" lon="-1.758365">
        <ele>834.373356</ele>
        <time>2020-08-05T07:01:10.931Z</time>
      </trkpt>
      <trkpt lat="38.909367" lon="-1.758520">
        <ele>834.094729</ele>
        <time>2020-08-05T07:01:12.931Z</time>
      </trkpt>
      <trkpt lat="38.909310" lon="-1.758676">
        <ele>833.788701</ele>
        <time>2020-08-05T07:01:15.936Z</time>
      </trkpt>
      <trkpt lat="38.909259" lon="-1.758798">
        <ele>833.542784</ele>
        <time>2020-08-05T07:01:17.955Z</time>
      </trkpt>
      <trkpt lat="38.909209" lon="-1.758904">
        <ele>833.322677</ele>
        <time>2020-08-05T07:01:19.937Z</time>
      </trkpt>
      <trkpt lat="38.909164" lon="-1.759012">
        <ele>833.097715</ele>
        <time>2020-08-05T07:01:21.948Z</time>
      </trkpt>
      <trkpt lat="38.909101" lon="-1.759158">
        <ele>832.654874</ele>
        <time>2020-08-05T07:01:24.956Z</time>
      </trkpt>
      <trkpt lat="38.909058" lon="-1.759325">
        <ele>832.188267</ele>
        <time>2020-08-05T07:01:27.950Z</time>
      </trkpt>
      <trkpt lat="38.909035" lon="-1.759451">
        <ele>831.844965</ele>
        <time>2020-08-05T07:01:30.950Z</time>
      </trkpt>
      <trkpt lat="38.909038" lon="-1.759597">
        <ele>831.457549</ele>
        <time>2020-08-05T07:01:33.934Z</time>
      </trkpt>
      <trkpt lat="38.908991" lon="-1.759733">
        <ele>831.062817</ele>
        <time>2020-08-05T07:01:36.953Z</time>
      </trkpt>
      <trkpt lat="38.909004" lon="-1.759863">
        <ele>830.715142</ele>
        <time>2020-08-05T07:01:40.940Z</time>
      </trkpt>
      <trkpt lat="38.909015" lon="-1.760059">
        <ele>830.193880</ele>
        <time>2020-08-05T07:01:43.957Z</time>
      </trkpt>
      <trkpt lat="38.909001" lon="-1.760208">
        <ele>829.795770</ele>
        <time>2020-08-05T07:01:45.941Z</time>
      </trkpt>
      <trkpt lat="38.908987" lon="-1.760349">
        <ele>829.418719</ele>
        <time>2020-08-05T07:01:48.962Z</time>
      </trkpt>
      <trkpt lat="38.908919" lon="-1.760497">
        <ele>828.962805</ele>
        <time>2020-08-05T07:01:51.954Z</time>
      </trkpt>
      <trkpt lat="38.908895" lon="-1.760622">
        <ele>828.621285</ele>
        <time>2020-08-05T07:01:53.953Z</time>
      </trkpt>
      <trkpt lat="38.908862" lon="-1.760732">
        <ele>828.308563</ele>
        <time>2020-08-05T07:01:55.950Z</time>
      </trkpt>
      <trkpt lat="38.908832" lon="-1.760851">
        <ele>827.976749</ele>
        <time>2020-08-05T07:01:57.939Z</time>
      </trkpt>
      <trkpt lat="38.908799" lon="-1.760977">
        <ele>827.624096</ele>
        <time>2020-08-05T07:02:00.957Z</time>
      </trkpt>
      <trkpt lat="38.908761" lon="-1.761123">
        <ele>827.215724</ele>
        <time>2020-08-05T07:02:03.951Z</time>
      </trkpt>
      <trkpt lat="38.908693" lon="-1.761230">
        <ele>827.086944</ele>
        <time>2020-08-05T07:02:05.940Z</time>
      </trkpt>
      <trkpt lat="38.908639" lon="-1.761360">
        <ele>827.361923</ele>
        <time>2020-08-05T07:02:08.934Z</time>
      </trkpt>
      <trkpt lat="38.908618" lon="-1.761483">
        <ele>827.596902</ele>
        <time>2020-08-05T07:02:11.953Z</time>
      </trkpt>
      <trkpt lat="38.908580" lon="-1.761638">
        <ele>827.900148</ele>
        <time>2020-08-05T07:02:14.952Z</time>
      </trkpt>
      <trkpt lat="38.908550" lon="-1.761775">
        <ele>828.165720</ele>
        <time>2020-08-05T07:02:17.940Z</time>
      </trkpt>
      <trkpt lat="38.908536" lon="-1.761896">
        <ele>828.393989</ele>
        <time>2020-08-05T07:02:20.943Z</time>
      </trkpt>
      <trkpt lat="38.908514" lon="-1.762164">
        <ele>828.896854</ele>
        <time>2020-08-05T07:02:26.928Z</time>
      </trkpt>
      <trkpt lat="38.908457" lon="-1.762294">
        <ele>829.175294</ele>
        <time>2020-08-05T07:02:30.936Z</time>
      </trkpt>
      <trkpt lat="38.908367" lon="-1.762388">
        <ele>829.453404</ele>
        <time>2020-08-05T07:02:33.944Z</time>
      </trkpt>
      <trkpt lat="38.908248" lon="-1.762455">
        <ele>829.764953</ele>
        <time>2020-08-05T07:02:36.940Z</time>
      </trkpt>
      <trkpt lat="38.908132" lon="-1.762501">
        <ele>830.056064</ele>
        <time>2020-08-05T07:02:39.942Z</time>
      </trkpt>
      <trkpt lat="38.908032" lon="-1.762562">
        <ele>830.321509</ele>
        <time>2020-08-05T07:02:42.938Z</time>
      </trkpt>
      <trkpt lat="38.907850" lon="-1.762705">
        <ele>830.833057</ele>
        <time>2020-08-05T07:02:48.936Z</time>
      </trkpt>
      <trkpt lat="38.907750" lon="-1.762724">
        <ele>831.075465</ele>
        <time>2020-08-05T07:02:51.941Z</time>
      </trkpt>
      <trkpt lat="38.907635" lon="-1.762759">
        <ele>831.220956</ele>
        <time>2020-08-05T07:02:54.929Z</time>
      </trkpt>
      <trkpt lat="38.907555" lon="-1.762844">
        <ele>830.866730</ele>
        <time>2020-08-05T07:02:57.955Z</time>
      </trkpt>
      <trkpt lat="38.907497" lon="-1.762937">
        <ele>830.550245</ele>
        <time>2020-08-05T07:03:03.934Z</time>
      </trkpt>
      <trkpt lat="38.907488" lon="-1.763059">
        <ele>830.224824</ele>
        <time>2020-08-05T07:03:08.944Z</time>
      </trkpt>
      <trkpt lat="38.907505" lon="-1.763176">
        <ele>829.908764</ele>
        <time>2020-08-05T07:03:12.928Z</time>
      </trkpt>
      <trkpt lat="38.907560" lon="-1.763270">
        <ele>829.596460</ele>
        <time>2020-08-05T07:03:16.946Z</time>
      </trkpt>
      <trkpt lat="38.907583" lon="-1.763422">
        <ele>829.185268</ele>
        <time>2020-08-05T07:03:20.932Z</time>
      </trkpt>
      <trkpt lat="38.907559" lon="-1.763546">
        <ele>828.845957</ele>
        <time>2020-08-05T07:03:23.944Z</time>
      </trkpt>
      <trkpt lat="38.907536" lon="-1.763664">
        <ele>828.522931</ele>
        <time>2020-08-05T07:03:26.961Z</time>
      </trkpt>
      <trkpt lat="38.907461" lon="-1.763756">
        <ele>828.169111</ele>
        <time>2020-08-05T07:03:30.937Z</time>
      </trkpt>
      <trkpt lat="38.907381" lon="-1.763855">
        <ele>827.790111</ele>
        <time>2020-08-05T07:03:34.949Z</time>
      </trkpt>
      <trkpt lat="38.907290" lon="-1.763948">
        <ele>827.393346</ele>
        <time>2020-08-05T07:03:38.934Z</time>
      </trkpt>
      <trkpt lat="38.907228" lon="-1.764039">
        <ele>827.072163</ele>
        <time>2020-08-05T07:03:41.956Z</time>
      </trkpt>
      <trkpt lat="38.907158" lon="-1.764136">
        <ele>826.720866</ele>
        <time>2020-08-05T07:03:44.939Z</time>
      </trkpt>
      <trkpt lat="38.907102" lon="-1.764253">
        <ele>826.356107</ele>
        <time>2020-08-05T07:03:48.937Z</time>
      </trkpt>
      <trkpt lat="38.907059" lon="-1.764358">
        <ele>826.041026</ele>
        <time>2020-08-05T07:03:52.946Z</time>
      </trkpt>
      <trkpt lat="38.907035" lon="-1.764475">
        <ele>825.719720</ele>
        <time>2020-08-05T07:03:57.937Z</time>
      </trkpt>
      <trkpt lat="38.906998" lon="-1.764595">
        <ele>825.376958</ele>
        <time>2020-08-05T07:04:01.942Z</time>
      </trkpt>
      <trkpt lat="38.906943" lon="-1.764712">
        <ele>825.280434</ele>
        <time>2020-08-05T07:04:05.953Z</time>
      </trkpt>
      <trkpt lat="38.906900" lon="-1.764847">
        <ele>825.580702</ele>
        <time>2020-08-05T07:04:09.943Z</time>
      </trkpt>
      <trkpt lat="38.906883" lon="-1.764971">
        <ele>825.839880</ele>
        <time>2020-08-05T07:04:13.931Z</time>
      </trkpt>
      <trkpt lat="38.906861" lon="-1.765105">
        <ele>826.121784</ele>
        <time>2020-08-05T07:04:18.930Z</time>
      </trkpt>
      <trkpt lat="38.906808" lon="-1.765228">
        <ele>826.411197</ele>
        <time>2020-08-05T07:04:22.940Z</time>
      </trkpt>
      <trkpt lat="38.906759" lon="-1.765332">
        <ele>826.661457</ele>
        <time>2020-08-05T07:04:26.923Z</time>
      </trkpt>
      <trkpt lat="38.906688" lon="-1.765434">
        <ele>826.943162</ele>
        <time>2020-08-05T07:04:30.934Z</time>
      </trkpt>
      <trkpt lat="38.906616" lon="-1.765544">
        <ele>827.239041</ele>
        <time>2020-08-05T07:04:34.943Z</time>
      </trkpt>
      <trkpt lat="38.906588" lon="-1.765654">
        <ele>827.477277</ele>
        <time>2020-08-05T07:04:37.929Z</time>
      </trkpt>
      <trkpt lat="38.906518" lon="-1.765760">
        <ele>827.763452</ele>
        <time>2020-08-05T07:04:41.930Z</time>
      </trkpt>
      <trkpt lat="38.906435" lon="-1.765854">
        <ele>828.056103</ele>
        <time>2020-08-05T07:04:46.949Z</time>
      </trkpt>
      <trkpt lat="38.906352" lon="-1.765930">
        <ele>828.325694</ele>
        <time>2020-08-05T07:04:50.937Z</time>
      </trkpt>
      <trkpt lat="38.906282" lon="-1.766013">
        <ele>828.577641</ele>
        <time>2020-08-05T07:04:54.933Z</time>
      </trkpt>
      <trkpt lat="38.906229" lon="-1.766111">
        <ele>828.823303</ele>
        <time>2020-08-05T07:04:58.946Z</time>
      </trkpt>
      <trkpt lat="38.906171" lon="-1.766201">
        <ele>829.063846</ele>
        <time>2020-08-05T07:05:02.942Z</time>
      </trkpt>
      <trkpt lat="38.906108" lon="-1.766312">
        <ele>829.346654</ele>
        <time>2020-08-05T07:05:06.944Z</time>
      </trkpt>
      <trkpt lat="38.906058" lon="-1.766409">
        <ele>829.586157</ele>
        <time>2020-08-05T07:05:09.935Z</time>
      </trkpt>
      <trkpt lat="38.906012" lon="-1.766539">
        <ele>829.880124</ele>
        <time>2020-08-05T07:05:13.932Z</time>
      </trkpt>
      <trkpt lat="38.905962" lon="-1.766679">
        <ele>830.179838</ele>
        <time>2020-08-05T07:05:17.929Z</time>
      </trkpt>
      <trkpt lat="38.905945" lon="-1.766796">
        <ele>830.409379</ele>
        <time>2020-08-05T07:05:20.944Z</time>
      </trkpt>
      <trkpt lat="38.905919" lon="-1.766910">
        <ele>830.638482</ele>
        <time>2020-08-05T07:05:23.936Z</time>
      </trkpt>
      <trkpt lat="38.905887" lon="-1.767054">
        <ele>830.927296</ele>
        <time>2020-08-05T07:05:27.921Z</time>
      </trkpt>
      <trkpt lat="38.905848" lon="-1.767192">
        <ele>831.210445</ele>
        <time>2020-08-05T07:05:31.939Z</time>
      </trkpt>
      <trkpt lat="38.905808" lon="-1.767296">
        <ele>831.434176</ele>
        <time>2020-08-05T07:05:34.950Z</time>
      </trkpt>
      <trkpt lat="38.905758" lon="-1.767396">
        <ele>831.663411</ele>
        <time>2020-08-05T07:05:37.945Z</time>
      </trkpt>
      <trkpt lat="38.905700" lon="-1.767494">
        <ele>831.900860</ele>
        <time>2020-08-05T07:05:40.939Z</time>
      </trkpt>
      <trkpt lat="38.905634" lon="-1.767612">
        <ele>832.181115</ele>
        <time>2020-08-05T07:05:44.940Z</time>
      </trkpt>
      <trkpt lat="38.905576" lon="-1.767728">
        <ele>832.447028</ele>
        <time>2020-08-05T07:05:48.934Z</time>
      </trkpt>
      <trkpt lat="38.905505" lon="-1.767842">
        <ele>832.728628</ele>
        <time>2020-08-05T07:05:52.942Z</time>
      </trkpt>
      <trkpt lat="38.905440" lon="-1.767957">
        <ele>833.002742</ele>
        <time>2020-08-05T07:05:56.951Z</time>
      </trkpt>
      <trkpt lat="38.905363" lon="-1.768049">
        <ele>833.263312</ele>
        <time>2020-08-05T07:06:00.936Z</time>
      </trkpt>
      <trkpt lat="38.905285" lon="-1.768142">
        <ele>833.527010</ele>
        <time>2020-08-05T07:06:04.943Z</time>
      </trkpt>
      <trkpt lat="38.905204" lon="-1.768224">
        <ele>833.782562</ele>
        <time>2020-08-05T07:06:08.940Z</time>
      </trkpt>
      <trkpt lat="38.905132" lon="-1.768299">
        <ele>834.012261</ele>
        <time>2020-08-05T07:06:11.947Z</time>
      </trkpt>
      <trkpt lat="38.905080" lon="-1.768393">
        <ele>834.234686</ele>
        <time>2020-08-05T07:06:14.937Z</time>
      </trkpt>
      <trkpt lat="38.905039" lon="-1.768514">
        <ele>834.515317</ele>
        <time>2020-08-05T07:06:18.948Z</time>
      </trkpt>
      <trkpt lat="38.905007" lon="-1.768635">
        <ele>834.820446</ele>
        <time>2020-08-05T07:06:22.950Z</time>
      </trkpt>
      <trkpt lat="38.904965" lon="-1.768763">
        <ele>835.152118</ele>
        <time>2020-08-05T07:06:26.951Z</time>
      </trkpt>
      <trkpt lat="38.904909" lon="-1.768868">
        <ele>835.456045</ele>
        <time>2020-08-05T07:06:29.943Z</time>
      </trkpt>
      <trkpt lat="38.904857" lon="-1.768965">
        <ele>835.737279</ele>
        <time>2020-08-05T07:06:32.952Z</time>
      </trkpt>
      <trkpt lat="38.904821" lon="-1.769088">
        <ele>836.051041</ele>
        <time>2020-08-05T07:06:36.970Z</time>
      </trkpt>
      <trkpt lat="38.904769" lon="-1.769197">
        <ele>836.356304</ele>
        <time>2020-08-05T07:06:40.949Z</time>
      </trkpt>
      <trkpt lat="38.904733" lon="-1.769328">
        <ele>836.688013</ele>
        <time>2020-08-05T07:06:45.947Z</time>
      </trkpt>
      <trkpt lat="38.904698" lon="-1.769435">
        <ele>836.965140</ele>
        <time>2020-08-05T07:06:48.953Z</time>
      </trkpt>
      <trkpt lat="38.904649" lon="-1.769564">
        <ele>837.307877</ele>
        <time>2020-08-05T07:06:52.961Z</time>
      </trkpt>
      <trkpt lat="38.904621" lon="-1.769673">
        <ele>837.581942</ele>
        <time>2020-08-05T07:06:55.934Z</time>
      </trkpt>
      <trkpt lat="38.904568" lon="-1.769810">
        <ele>837.947237</ele>
        <time>2020-08-05T07:06:59.945Z</time>
      </trkpt>
      <trkpt lat="38.904530" lon="-1.769919">
        <ele>838.232412</ele>
        <time>2020-08-05T07:07:02.951Z</time>
      </trkpt>
      <trkpt lat="38.904483" lon="-1.770048">
        <ele>838.572502</ele>
        <time>2020-08-05T07:07:06.946Z</time>
      </trkpt>
      <trkpt lat="38.904440" lon="-1.770150">
        <ele>838.849481</ele>
        <time>2020-08-05T07:07:09.950Z</time>
      </trkpt>
      <trkpt lat="38.904390" lon="-1.770273">
        <ele>839.180814</ele>
        <time>2020-08-05T07:07:13.926Z</time>
      </trkpt>
      <trkpt lat="38.904339" lon="-1.770405">
        <ele>839.532689</ele>
        <time>2020-08-05T07:07:17.942Z</time>
      </trkpt>
      <trkpt lat="38.904295" lon="-1.770513">
        <ele>839.823755</ele>
        <time>2020-08-05T07:07:21.949Z</time>
      </trkpt>
      <trkpt lat="38.904244" lon="-1.770622">
        <ele>840.080351</ele>
        <time>2020-08-05T07:07:25.958Z</time>
      </trkpt>
      <trkpt lat="38.904191" lon="-1.770739">
        <ele>840.337248</ele>
        <time>2020-08-05T07:07:29.936Z</time>
      </trkpt>
      <trkpt lat="38.904127" lon="-1.770852">
        <ele>840.602457</ele>
        <time>2020-08-05T07:07:33.932Z</time>
      </trkpt>
      <trkpt lat="38.904081" lon="-1.770963">
        <ele>840.841098</ele>
        <time>2020-08-05T07:07:37.956Z</time>
      </trkpt>
      <trkpt lat="38.904038" lon="-1.771078">
        <ele>841.083207</ele>
        <time>2020-08-05T07:07:41.946Z</time>
      </trkpt>
      <trkpt lat="38.904002" lon="-1.771184">
        <ele>841.302676</ele>
        <time>2020-08-05T07:07:45.944Z</time>
      </trkpt>
      <trkpt lat="38.903982" lon="-1.771309">
        <ele>841.544840</ele>
        <time>2020-08-05T07:07:49.945Z</time>
      </trkpt>
      <trkpt lat="38.903961" lon="-1.771443">
        <ele>841.804226</ele>
        <time>2020-08-05T07:07:53.957Z</time>
      </trkpt>
      <trkpt lat="38.903957" lon="-1.771582">
        <ele>842.068176</ele>
        <time>2020-08-05T07:07:57.936Z</time>
      </trkpt>
      <trkpt lat="38.903960" lon="-1.771715">
        <ele>842.320665</ele>
        <time>2020-08-05T07:08:01.939Z</time>
      </trkpt>
      <trkpt lat="38.903938" lon="-1.771833">
        <ele>842.550921</ele>
        <time>2020-08-05T07:08:05.939Z</time>
      </trkpt>
      <trkpt lat="38.903917" lon="-1.771966">
        <ele>842.808447</ele>
        <time>2020-08-05T07:08:10.934Z</time>
      </trkpt>
      <trkpt lat="38.903875" lon="-1.772072">
        <ele>843.034167</ele>
        <time>2020-08-05T07:08:14.957Z</time>
      </trkpt>
      <trkpt lat="38.903822" lon="-1.772193">
        <ele>843.297652</ele>
        <time>2020-08-05T07:08:19.956Z</time>
      </trkpt>
      <trkpt lat="38.903791" lon="-1.772325">
        <ele>843.559297</ele>
        <time>2020-08-05T07:08:24.956Z</time>
      </trkpt>
      <trkpt lat="38.903761" lon="-1.772461">
        <ele>843.827541</ele>
        <time>2020-08-05T07:08:29.928Z</time>
      </trkpt>
      <trkpt lat="38.903733" lon="-1.772577">
        <ele>844.058012</ele>
        <time>2020-08-05T07:08:33.928Z</time>
      </trkpt>
      <trkpt lat="38.903718" lon="-1.772711">
        <ele>844.322159</ele>
        <time>2020-08-05T07:08:38.954Z</time>
      </trkpt>
      <trkpt lat="38.903705" lon="-1.772853">
        <ele>844.657103</ele>
        <time>2020-08-05T07:08:44.942Z</time>
      </trkpt>
      <trkpt lat="38.903701" lon="-1.772969">
        <ele>844.929112</ele>
        <time>2020-08-05T07:08:48.935Z</time>
      </trkpt>
      <trkpt lat="38.903675" lon="-1.773105">
        <ele>845.257179</ele>
        <time>2020-08-05T07:08:53.952Z</time>
      </trkpt>
      <trkpt lat="38.903607" lon="-1.773208">
        <ele>845.573599</ele>
        <time>2020-08-05T07:08:58.933Z</time>
      </trkpt>
      <trkpt lat="38.903542" lon="-1.773307">
        <ele>845.877033</ele>
        <time>2020-08-05T07:09:03.924Z</time>
      </trkpt>
      <trkpt lat="38.903473" lon="-1.773419">
        <ele>846.211671</ele>
        <time>2020-08-05T07:09:09.927Z</time>
      </trkpt>
      <trkpt lat="38.903425" lon="-1.773538">
        <ele>846.525664</ele>
        <time>2020-08-05T07:09:14.926Z</time>
      </trkpt>
      <trkpt lat="38.903383" lon="-1.773656">
        <ele>846.829633</ele>
        <time>2020-08-05T07:09:19.938Z</time>
      </trkpt>
      <trkpt lat="38.903351" lon="-1.773789">
        <ele>847.155753</ele>
        <time>2020-08-05T07:09:25.945Z</time>
      </trkpt>
      <trkpt lat="38.903343" lon="-1.773929">
        <ele>847.484602</ele>
        <time>2020-08-05T07:09:31.951Z</time>
      </trkpt>
      <trkpt lat="38.903370" lon="-1.774041">
        <ele>847.759276</ele>
        <time>2020-08-05T07:09:36.950Z</time>
      </trkpt>
      <trkpt lat="38.903420" lon="-1.774161">
        <ele>848.078148</ele>
        <time>2020-08-05T07:09:42.947Z</time>
      </trkpt>
      <trkpt lat="38.903437" lon="-1.774289">
        <ele>848.382338</ele>
        <time>2020-08-05T07:09:47.929Z</time>
      </trkpt>
      <trkpt lat="38.903433" lon="-1.774415">
        <ele>848.677753</ele>
        <time>2020-08-05T07:09:51.936Z</time>
      </trkpt>
      <trkpt lat="38.903425" lon="-1.774538">
        <ele>848.966899</ele>
        <time>2020-08-05T07:09:55.940Z</time>
      </trkpt>
      <trkpt lat="38.903417" lon="-1.774668">
        <ele>849.272389</ele>
        <time>2020-08-05T07:09:59.951Z</time>
      </trkpt>
      <trkpt lat="38.903407" lon="-1.774809">
        <ele>849.604067</ele>
        <time>2020-08-05T07:10:03.937Z</time>
      </trkpt>
      <trkpt lat="38.903389" lon="-1.774946">
        <ele>849.681878</ele>
        <time>2020-08-05T07:10:07.944Z</time>
      </trkpt>
      <trkpt lat="38.903376" lon="-1.775082">
        <ele>849.658916</ele>
        <time>2020-08-05T07:10:10.944Z</time>
      </trkpt>
      <trkpt lat="38.903383" lon="-1.775205">
        <ele>849.638249</ele>
        <time>2020-08-05T07:10:13.936Z</time>
      </trkpt>
      <trkpt lat="38.903390" lon="-1.775345">
        <ele>849.614739</ele>
        <time>2020-08-05T07:10:16.936Z</time>
      </trkpt>
      <trkpt lat="38.903402" lon="-1.775471">
        <ele>849.593466</ele>
        <time>2020-08-05T07:10:18.940Z</time>
      </trkpt>
      <trkpt lat="38.903398" lon="-1.775606">
        <ele>849.570827</ele>
        <time>2020-08-05T07:10:20.936Z</time>
      </trkpt>
      <trkpt lat="38.903406" lon="-1.775731">
        <ele>849.549808</ele>
        <time>2020-08-05T07:10:22.942Z</time>
      </trkpt>
      <trkpt lat="38.903419" lon="-1.775905">
        <ele>849.520515</ele>
        <time>2020-08-05T07:10:25.940Z</time>
      </trkpt>
      <trkpt lat="38.903446" lon="-1.776019">
        <ele>849.500546</ele>
        <time>2020-08-05T07:10:30.936Z</time>
      </trkpt>
      <trkpt lat="38.903337" lon="-1.776431">
        <ele>849.427622</ele>
        <time>2020-08-05T07:11:26.934Z</time>
      </trkpt>
      <trkpt lat="38.903302" lon="-1.776588">
        <ele>849.400253</ele>
        <time>2020-08-05T07:11:29.945Z</time>
      </trkpt>
      <trkpt lat="38.903269" lon="-1.776738">
        <ele>849.374131</ele>
        <time>2020-08-05T07:11:31.948Z</time>
      </trkpt>
      <trkpt lat="38.903238" lon="-1.776873">
        <ele>849.350543</ele>
        <time>2020-08-05T07:11:33.947Z</time>
      </trkpt>
      <trkpt lat="38.903201" lon="-1.777007">
        <ele>849.326716</ele>
        <time>2020-08-05T07:11:35.946Z</time>
      </trkpt>
      <trkpt lat="38.903170" lon="-1.777133">
        <ele>849.232191</ele>
        <time>2020-08-05T07:11:37.940Z</time>
      </trkpt>
      <trkpt lat="38.903139" lon="-1.777272">
        <ele>848.938898</ele>
        <time>2020-08-05T07:11:40.924Z</time>
      </trkpt>
      <trkpt lat="38.903117" lon="-1.777426">
        <ele>848.621309</ele>
        <time>2020-08-05T07:11:43.935Z</time>
      </trkpt>
      <trkpt lat="38.903114" lon="-1.777569">
        <ele>848.331146</ele>
        <time>2020-08-05T07:11:46.929Z</time>
      </trkpt>
      <trkpt lat="38.903113" lon="-1.777717">
        <ele>848.030936</ele>
        <time>2020-08-05T07:11:49.937Z</time>
      </trkpt>
      <trkpt lat="38.903084" lon="-1.777877">
        <ele>847.697710</ele>
        <time>2020-08-05T07:11:52.932Z</time>
      </trkpt>
      <trkpt lat="38.903000" lon="-1.777987">
        <ele>847.385110</ele>
        <time>2020-08-05T07:11:54.936Z</time>
      </trkpt>
      <trkpt lat="38.902951" lon="-1.778518">
        <ele>846.300496</ele>
        <time>2020-08-05T07:12:00.924Z</time>
      </trkpt>
      <trkpt lat="38.902873" lon="-1.778579">
        <ele>846.062501</ele>
        <time>2020-08-05T07:12:01.925Z</time>
      </trkpt>
      <trkpt lat="38.902891" lon="-1.778739">
        <ele>845.734587</ele>
        <time>2020-08-05T07:12:04.949Z</time>
      </trkpt>
      <trkpt lat="38.902850" lon="-1.778878">
        <ele>845.433069</ele>
        <time>2020-08-05T07:12:06.936Z</time>
      </trkpt>
      <trkpt lat="38.902813" lon="-1.778990">
        <ele>845.186268</ele>
        <time>2020-08-05T07:12:08.934Z</time>
      </trkpt>
      <trkpt lat="38.902797" lon="-1.779109">
        <ele>844.941315</ele>
        <time>2020-08-05T07:12:10.946Z</time>
      </trkpt>
      <trkpt lat="38.902765" lon="-1.779269">
        <ele>844.602226</ele>
        <time>2020-08-05T07:12:13.933Z</time>
      </trkpt>
      <trkpt lat="38.902712" lon="-1.779446">
        <ele>844.125729</ele>
        <time>2020-08-05T07:12:16.934Z</time>
      </trkpt>
      <trkpt lat="38.902690" lon="-1.779566">
        <ele>843.815975</ele>
        <time>2020-08-05T07:12:18.934Z</time>
      </trkpt>
      <trkpt lat="38.902682" lon="-1.779697">
        <ele>843.485825</ele>
        <time>2020-08-05T07:12:20.948Z</time>
      </trkpt>
      <trkpt lat="38.902674" lon="-1.779871">
        <ele>843.047886</ele>
        <time>2020-08-05T07:12:23.951Z</time>
      </trkpt>
      <trkpt lat="38.902648" lon="-1.779983">
        <ele>842.754232</ele>
        <time>2020-08-05T07:12:25.933Z</time>
      </trkpt>
      <trkpt lat="38.902607" lon="-1.780144">
        <ele>842.328611</ele>
        <time>2020-08-05T07:12:28.939Z</time>
      </trkpt>
      <trkpt lat="38.902570" lon="-1.780287">
        <ele>841.949985</ele>
        <time>2020-08-05T07:12:31.940Z</time>
      </trkpt>
      <trkpt lat="38.902518" lon="-1.780441">
        <ele>841.528206</ele>
        <time>2020-08-05T07:12:34.938Z</time>
      </trkpt>
      <trkpt lat="38.902501" lon="-1.780560">
        <ele>841.224221</ele>
        <time>2020-08-05T07:12:36.950Z</time>
      </trkpt>
      <trkpt lat="38.902473" lon="-1.780685">
        <ele>840.897406</ele>
        <time>2020-08-05T07:12:38.950Z</time>
      </trkpt>
      <trkpt lat="38.902438" lon="-1.780837">
        <ele>840.499137</ele>
        <time>2020-08-05T07:12:41.946Z</time>
      </trkpt>
      <trkpt lat="38.902425" lon="-1.780980">
        <ele>840.137405</ele>
        <time>2020-08-05T07:12:45.947Z</time>
      </trkpt>
      <trkpt lat="38.902382" lon="-1.781121">
        <ele>839.756909</ele>
        <time>2020-08-05T07:12:49.943Z</time>
      </trkpt>
      <trkpt lat="38.902340" lon="-1.781238">
        <ele>839.433178</ele>
        <time>2020-08-05T07:12:52.952Z</time>
      </trkpt>
      <trkpt lat="38.902289" lon="-1.781656">
        <ele>838.618318</ele>
        <time>2020-08-05T07:13:37.937Z</time>
      </trkpt>
      <trkpt lat="38.902262" lon="-1.781822">
        <ele>838.429422</ele>
        <time>2020-08-05T07:13:40.931Z</time>
      </trkpt>
      <trkpt lat="38.902230" lon="-1.781979">
        <ele>838.248648</ele>
        <time>2020-08-05T07:13:43.935Z</time>
      </trkpt>
      <trkpt lat="38.902185" lon="-1.782126">
        <ele>838.072698</ele>
        <time>2020-08-05T07:13:46.942Z</time>
      </trkpt>
      <trkpt lat="38.902144" lon="-1.782279">
        <ele>837.892457</ele>
        <time>2020-08-05T07:13:49.934Z</time>
      </trkpt>
      <trkpt lat="38.902121" lon="-1.782398">
        <ele>837.755881</ele>
        <time>2020-08-05T07:13:51.945Z</time>
      </trkpt>
      <trkpt lat="38.902101" lon="-1.782512">
        <ele>837.625715</ele>
        <time>2020-08-05T07:13:53.937Z</time>
      </trkpt>
      <trkpt lat="38.902071" lon="-1.782661">
        <ele>837.454285</ele>
        <time>2020-08-05T07:13:56.936Z</time>
      </trkpt>
      <trkpt lat="38.902036" lon="-1.782833">
        <ele>837.256260</ele>
        <time>2020-08-05T07:13:59.938Z</time>
      </trkpt>
      <trkpt lat="38.902017" lon="-1.782975">
        <ele>837.095771</ele>
        <time>2020-08-05T07:14:02.948Z</time>
      </trkpt>
      <trkpt lat="38.901999" lon="-1.783099">
        <ele>836.955270</ele>
        <time>2020-08-05T07:14:05.928Z</time>
      </trkpt>
      <trkpt lat="38.901978" lon="-1.783252">
        <ele>836.782218</ele>
        <time>2020-08-05T07:14:08.928Z</time>
      </trkpt>
      <trkpt lat="38.901936" lon="-1.783391">
        <ele>836.616131</ele>
        <time>2020-08-05T07:14:11.947Z</time>
      </trkpt>
      <trkpt lat="38.901922" lon="-1.783549">
        <ele>836.439004</ele>
        <time>2020-08-05T07:14:14.935Z</time>
      </trkpt>
      <trkpt lat="38.901880" lon="-1.783682">
        <ele>836.279128</ele>
        <time>2020-08-05T07:14:16.938Z</time>
      </trkpt>
      <trkpt lat="38.901849" lon="-1.783819">
        <ele>836.205922</ele>
        <time>2020-08-05T07:14:18.930Z</time>
      </trkpt>
      <trkpt lat="38.901754" lon="-1.784165">
        <ele>836.085819</ele>
        <time>2020-08-05T07:14:24.951Z</time>
      </trkpt>
      <trkpt lat="38.901764" lon="-1.784301">
        <ele>836.041102</ele>
        <time>2020-08-05T07:14:26.944Z</time>
      </trkpt>
      <trkpt lat="38.901609" lon="-1.784404">
        <ele>835.967702</ele>
        <time>2020-08-05T07:14:27.936Z</time>
      </trkpt>
      <trkpt lat="38.901646" lon="-1.784523">
        <ele>835.925754</ele>
        <time>2020-08-05T07:14:29.953Z</time>
      </trkpt>
      <trkpt lat="38.901669" lon="-1.784676">
        <ele>835.874745</ele>
        <time>2020-08-05T07:14:31.950Z</time>
      </trkpt>
      <trkpt lat="38.901660" lon="-1.784837">
        <ele>835.821907</ele>
        <time>2020-08-05T07:14:33.966Z</time>
      </trkpt>
      <trkpt lat="38.901643" lon="-1.784961">
        <ele>835.780691</ele>
        <time>2020-08-05T07:14:35.948Z</time>
      </trkpt>
      <trkpt lat="38.901642" lon="-1.785110">
        <ele>835.731915</ele>
        <time>2020-08-05T07:14:37.949Z</time>
      </trkpt>
      <trkpt lat="38.901633" lon="-1.785259">
        <ele>835.682994</ele>
        <time>2020-08-05T07:14:39.941Z</time>
      </trkpt>
      <trkpt lat="38.901627" lon="-1.785534">
        <ele>835.592939</ele>
        <time>2020-08-05T07:14:43.947Z</time>
      </trkpt>
      <trkpt lat="38.901593" lon="-1.785694">
        <ele>835.538646</ele>
        <time>2020-08-05T07:14:45.935Z</time>
      </trkpt>
      <trkpt lat="38.901622" lon="-1.785829">
        <ele>835.492802</ele>
        <time>2020-08-05T07:14:47.937Z</time>
      </trkpt>
      <trkpt lat="38.901594" lon="-1.785970">
        <ele>835.370844</ele>
        <time>2020-08-05T07:14:49.947Z</time>
      </trkpt>
      <trkpt lat="38.901642" lon="-1.786085">
        <ele>835.248487</ele>
        <time>2020-08-05T07:14:51.940Z</time>
      </trkpt>
      <trkpt lat="38.901640" lon="-1.786234">
        <ele>835.108761</ele>
        <time>2020-08-05T07:14:53.959Z</time>
      </trkpt>
      <trkpt lat="38.901739" lon="-1.786268">
        <ele>834.985297</ele>
        <time>2020-08-05T07:14:54.927Z</time>
      </trkpt>
      <trkpt lat="38.901725" lon="-1.786436">
        <ele>834.826876</ele>
        <time>2020-08-05T07:14:57.934Z</time>
      </trkpt>
      <trkpt lat="38.901679" lon="-1.786560">
        <ele>834.698077</ele>
        <time>2020-08-05T07:14:59.944Z</time>
      </trkpt>
      <trkpt lat="38.901667" lon="-1.786694">
        <ele>834.571607</ele>
        <time>2020-08-05T07:15:01.948Z</time>
      </trkpt>
      <trkpt lat="38.901681" lon="-1.786835">
        <ele>834.438331</ele>
        <time>2020-08-05T07:15:03.952Z</time>
      </trkpt>
      <trkpt lat="38.901688" lon="-1.786967">
        <ele>834.314278</ele>
        <time>2020-08-05T07:15:05.945Z</time>
      </trkpt>
      <trkpt lat="38.901694" lon="-1.787123">
        <ele>834.167830</ele>
        <time>2020-08-05T07:15:07.929Z</time>
      </trkpt>
      <trkpt lat="38.901684" lon="-1.787302">
        <ele>833.999564</ele>
        <time>2020-08-05T07:15:09.933Z</time>
      </trkpt>
      <trkpt lat="38.901683" lon="-1.787454">
        <ele>833.857040</ele>
        <time>2020-08-05T07:15:11.938Z</time>
      </trkpt>
      <trkpt lat="38.901687" lon="-1.787625">
        <ele>833.696635</ele>
        <time>2020-08-05T07:15:13.923Z</time>
      </trkpt>
      <trkpt lat="38.901700" lon="-1.787797">
        <ele>833.534605</ele>
        <time>2020-08-05T07:15:15.938Z</time>
      </trkpt>
      <trkpt lat="38.901687" lon="-1.787956">
        <ele>833.384703</ele>
        <time>2020-08-05T07:15:17.941Z</time>
      </trkpt>
      <trkpt lat="38.901704" lon="-1.788100">
        <ele>832.960494</ele>
        <time>2020-08-05T07:15:19.942Z</time>
      </trkpt>
      <trkpt lat="38.901707" lon="-1.788255">
        <ele>832.216447</ele>
        <time>2020-08-05T07:15:21.931Z</time>
      </trkpt>
      <trkpt lat="38.901720" lon="-1.788399">
        <ele>831.520784</ele>
        <time>2020-08-05T07:15:23.948Z</time>
      </trkpt>
      <trkpt lat="38.901738" lon="-1.788577">
        <ele>830.659413</ele>
        <time>2020-08-05T07:15:25.953Z</time>
      </trkpt>
      <trkpt lat="38.901742" lon="-1.788739">
        <ele>829.881614</ele>
        <time>2020-08-05T07:15:27.933Z</time>
      </trkpt>
      <trkpt lat="38.901731" lon="-1.788890">
        <ele>829.153825</ele>
        <time>2020-08-05T07:15:29.961Z</time>
      </trkpt>
      <trkpt lat="38.901719" lon="-1.789006">
        <ele>828.592266</ele>
        <time>2020-08-05T07:15:31.945Z</time>
      </trkpt>
      <trkpt lat="38.901728" lon="-1.789148">
        <ele>827.908578</ele>
        <time>2020-08-05T07:15:33.930Z</time>
      </trkpt>
      <trkpt lat="38.901723" lon="-1.789292">
        <ele>827.216861</ele>
        <time>2020-08-05T07:15:35.944Z</time>
      </trkpt>
      <trkpt lat="38.901739" lon="-1.789431">
        <ele>826.542569</ele>
        <time>2020-08-05T07:15:37.946Z</time>
      </trkpt>
      <trkpt lat="38.901739" lon="-1.789575">
        <ele>825.851540</ele>
        <time>2020-08-05T07:15:39.950Z</time>
      </trkpt>
      <trkpt lat="38.901754" lon="-1.789722">
        <ele>825.140076</ele>
        <time>2020-08-05T07:15:41.945Z</time>
      </trkpt>
      <trkpt lat="38.901763" lon="-1.789884">
        <ele>824.360690</ele>
        <time>2020-08-05T07:15:43.928Z</time>
      </trkpt>
      <trkpt lat="38.901770" lon="-1.790026">
        <ele>823.677892</ele>
        <time>2020-08-05T07:15:45.953Z</time>
      </trkpt>
      <trkpt lat="38.901779" lon="-1.790161">
        <ele>823.027680</ele>
        <time>2020-08-05T07:15:47.944Z</time>
      </trkpt>
      <trkpt lat="38.901793" lon="-1.790304">
        <ele>822.336041</ele>
        <time>2020-08-05T07:15:49.928Z</time>
      </trkpt>
      <trkpt lat="38.901787" lon="-1.790423">
        <ele>822.059602</ele>
        <time>2020-08-05T07:15:51.932Z</time>
      </trkpt>
      <trkpt lat="38.901783" lon="-1.790559">
        <ele>821.823674</ele>
        <time>2020-08-05T07:15:53.945Z</time>
      </trkpt>
      <trkpt lat="38.901795" lon="-1.790700">
        <ele>821.577789</ele>
        <time>2020-08-05T07:15:55.956Z</time>
      </trkpt>
      <trkpt lat="38.901797" lon="-1.790832">
        <ele>821.348920</ele>
        <time>2020-08-05T07:15:57.929Z</time>
      </trkpt>
      <trkpt lat="38.901804" lon="-1.790974">
        <ele>821.102266</ele>
        <time>2020-08-05T07:15:59.932Z</time>
      </trkpt>
      <trkpt lat="38.901810" lon="-1.791116">
        <ele>820.855742</ele>
        <time>2020-08-05T07:16:01.950Z</time>
      </trkpt>
      <trkpt lat="38.901830" lon="-1.791248">
        <ele>820.622620</ele>
        <time>2020-08-05T07:16:03.937Z</time>
      </trkpt>
      <trkpt lat="38.901843" lon="-1.791374">
        <ele>820.402284</ele>
        <time>2020-08-05T07:16:05.932Z</time>
      </trkpt>
      <trkpt lat="38.901837" lon="-1.791498">
        <ele>820.186912</ele>
        <time>2020-08-05T07:16:07.943Z</time>
      </trkpt>
      <trkpt lat="38.901840" lon="-1.791629">
        <ele>819.959722</ele>
        <time>2020-08-05T07:16:09.943Z</time>
      </trkpt>
      <trkpt lat="38.901850" lon="-1.791763">
        <ele>819.726363</ele>
        <time>2020-08-05T07:16:11.938Z</time>
      </trkpt>
      <trkpt lat="38.901853" lon="-1.791895">
        <ele>819.497440</ele>
        <time>2020-08-05T07:16:13.955Z</time>
      </trkpt>
      <trkpt lat="38.901862" lon="-1.792020">
        <ele>819.279824</ele>
        <time>2020-08-05T07:16:15.945Z</time>
      </trkpt>
      <trkpt lat="38.901858" lon="-1.792169">
        <ele>819.021375</ele>
        <time>2020-08-05T07:16:17.955Z</time>
      </trkpt>
      <trkpt lat="38.901854" lon="-1.792296">
        <ele>818.801037</ele>
        <time>2020-08-05T07:16:19.965Z</time>
      </trkpt>
      <trkpt lat="38.901857" lon="-1.792425">
        <ele>818.577312</ele>
        <time>2020-08-05T07:16:21.927Z</time>
      </trkpt>
      <trkpt lat="38.901869" lon="-1.792541">
        <ele>818.374454</ele>
        <time>2020-08-05T07:16:23.943Z</time>
      </trkpt>
      <trkpt lat="38.901862" lon="-1.792676">
        <ele>818.147092</ele>
        <time>2020-08-05T07:16:25.936Z</time>
      </trkpt>
      <trkpt lat="38.901881" lon="-1.792798">
        <ele>817.950671</ele>
        <time>2020-08-05T07:16:27.935Z</time>
      </trkpt>
      <trkpt lat="38.901882" lon="-1.792913">
        <ele>817.769109</ele>
        <time>2020-08-05T07:16:29.938Z</time>
      </trkpt>
      <trkpt lat="38.901876" lon="-1.793050">
        <ele>817.552484</ele>
        <time>2020-08-05T07:16:33.928Z</time>
      </trkpt>
      <trkpt lat="38.901806" lon="-1.793141">
        <ele>817.350485</ele>
        <time>2020-08-05T07:16:39.936Z</time>
      </trkpt>
      <trkpt lat="38.901744" lon="-1.793229">
        <ele>817.163083</ele>
        <time>2020-08-05T07:16:45.943Z</time>
      </trkpt>
      <trkpt lat="38.901658" lon="-1.793309">
        <ele>816.947706</ele>
        <time>2020-08-05T07:16:53.951Z</time>
      </trkpt>
      <trkpt lat="38.901653" lon="-1.793438">
        <ele>816.743800</ele>
        <time>2020-08-05T07:16:57.948Z</time>
      </trkpt>
      <trkpt lat="38.901677" lon="-1.793549">
        <ele>816.561925</ele>
        <time>2020-08-05T07:17:00.951Z</time>
      </trkpt>
      <trkpt lat="38.901726" lon="-1.793683">
        <ele>816.328189</ele>
        <time>2020-08-05T07:17:04.932Z</time>
      </trkpt>
      <trkpt lat="38.901765" lon="-1.793814">
        <ele>816.106762</ele>
        <time>2020-08-05T07:17:08.935Z</time>
      </trkpt>
      <trkpt lat="38.901804" lon="-1.793928">
        <ele>815.910167</ele>
        <time>2020-08-05T07:17:12.926Z</time>
      </trkpt>
      <trkpt lat="38.901824" lon="-1.794075">
        <ele>815.674577</ele>
        <time>2020-08-05T07:17:16.943Z</time>
      </trkpt>
      <trkpt lat="38.901842" lon="-1.794199">
        <ele>815.475441</ele>
        <time>2020-08-05T07:17:19.952Z</time>
      </trkpt>
      <trkpt lat="38.901865" lon="-1.794320">
        <ele>815.278802</ele>
        <time>2020-08-05T07:17:22.935Z</time>
      </trkpt>
      <trkpt lat="38.901882" lon="-1.794443">
        <ele>815.081582</ele>
        <time>2020-08-05T07:17:25.935Z</time>
      </trkpt>
      <trkpt lat="38.901879" lon="-1.794571">
        <ele>814.879416</ele>
        <time>2020-08-05T07:17:28.927Z</time>
      </trkpt>
      <trkpt lat="38.901871" lon="-1.794719">
        <ele>814.645205</ele>
        <time>2020-08-05T07:17:31.929Z</time>
      </trkpt>
      <trkpt lat="38.901874" lon="-1.794876">
        <ele>814.552889</ele>
        <time>2020-08-05T07:17:34.934Z</time>
      </trkpt>
      <trkpt lat="38.901898" lon="-1.795027">
        <ele>814.526771</ele>
        <time>2020-08-05T07:17:37.935Z</time>
      </trkpt>
      <trkpt lat="38.901930" lon="-1.795171">
        <ele>814.501393</ele>
        <time>2020-08-05T07:17:40.943Z</time>
      </trkpt>
      <trkpt lat="38.901963" lon="-1.795311">
        <ele>814.476603</ele>
        <time>2020-08-05T07:17:43.934Z</time>
      </trkpt>
      <trkpt lat="38.902005" lon="-1.795418">
        <ele>814.456295</ele>
        <time>2020-08-05T07:17:46.929Z</time>
      </trkpt>
      <trkpt lat="38.902052" lon="-1.795546">
        <ele>814.432310</ele>
        <time>2020-08-05T07:17:49.927Z</time>
      </trkpt>
      <trkpt lat="38.902105" lon="-1.795694">
        <ele>814.404701</ele>
        <time>2020-08-05T07:17:52.926Z</time>
      </trkpt>
      <trkpt lat="38.902161" lon="-1.795850">
        <ele>814.375588</ele>
        <time>2020-08-05T07:17:55.938Z</time>
      </trkpt>
      <trkpt lat="38.902213" lon="-1.796007">
        <ele>814.346672</ele>
        <time>2020-08-05T07:17:58.944Z</time>
      </trkpt>
      <trkpt lat="38.902246" lon="-1.796163">
        <ele>814.319277</ele>
        <time>2020-08-05T07:18:01.945Z</time>
      </trkpt>
      <trkpt lat="38.902254" lon="-1.796284">
        <ele>814.298698</ele>
        <time>2020-08-05T07:18:04.934Z</time>
      </trkpt>
      <trkpt lat="38.902301" lon="-1.796403">
        <ele>814.276083</ele>
        <time>2020-08-05T07:18:08.956Z</time>
      </trkpt>
      <trkpt lat="38.902460" lon="-1.796707">
        <ele>814.214012</ele>
        <time>2020-08-05T07:18:52.948Z</time>
      </trkpt>
      <trkpt lat="38.902489" lon="-1.796828">
        <ele>814.192557</ele>
        <time>2020-08-05T07:18:59.938Z</time>
      </trkpt>
      <trkpt lat="38.902537" lon="-1.796947">
        <ele>814.105015</ele>
        <time>2020-08-05T07:19:06.942Z</time>
      </trkpt>
      <trkpt lat="38.902557" lon="-1.797077">
        <ele>813.938252</ele>
        <time>2020-08-05T07:19:13.951Z</time>
      </trkpt>
      <trkpt lat="38.902667" lon="-1.797461">
        <ele>813.423317</ele>
        <time>2020-08-05T07:19:46.942Z</time>
      </trkpt>
      <trkpt lat="38.902698" lon="-1.797584">
        <ele>813.260615</ele>
        <time>2020-08-05T07:19:50.943Z</time>
      </trkpt>
      <trkpt lat="38.902735" lon="-1.797725">
        <ele>813.073361</ele>
        <time>2020-08-05T07:19:56.949Z</time>
      </trkpt>
      <trkpt lat="38.902768" lon="-1.797861">
        <ele>812.894088</ele>
        <time>2020-08-05T07:20:00.952Z</time>
      </trkpt>
      <trkpt lat="38.902801" lon="-1.798002">
        <ele>812.708799</ele>
        <time>2020-08-05T07:20:04.935Z</time>
      </trkpt>
      <trkpt lat="38.902828" lon="-1.798112">
        <ele>812.563650</ele>
        <time>2020-08-05T07:20:08.952Z</time>
      </trkpt>
      <trkpt lat="38.902840" lon="-1.798247">
        <ele>812.392658</ele>
        <time>2020-08-05T07:20:12.947Z</time>
      </trkpt>
      <trkpt lat="38.902862" lon="-1.798388">
        <ele>812.211689</ele>
        <time>2020-08-05T07:20:17.945Z</time>
      </trkpt>
      <trkpt lat="38.902914" lon="-1.798494">
        <ele>812.054004</ele>
        <time>2020-08-05T07:20:21.939Z</time>
      </trkpt>
      <trkpt lat="38.902968" lon="-1.798602">
        <ele>811.892460</ele>
        <time>2020-08-05T07:20:24.947Z</time>
      </trkpt>
      <trkpt lat="38.903013" lon="-1.798742">
        <ele>811.701844</ele>
        <time>2020-08-05T07:20:27.956Z</time>
      </trkpt>
      <trkpt lat="38.903051" lon="-1.798850">
        <ele>811.552688</ele>
        <time>2020-08-05T07:20:29.942Z</time>
      </trkpt>
      <trkpt lat="38.903094" lon="-1.798954">
        <ele>811.404487</ele>
        <time>2020-08-05T07:20:31.947Z</time>
      </trkpt>
      <trkpt lat="38.903141" lon="-1.799055">
        <ele>811.265117</ele>
        <time>2020-08-05T07:20:33.933Z</time>
      </trkpt>
      <trkpt lat="38.903211" lon="-1.799190">
        <ele>811.179680</ele>
        <time>2020-08-05T07:20:36.942Z</time>
      </trkpt>
      <trkpt lat="38.903277" lon="-1.799334">
        <ele>811.091665</ele>
        <time>2020-08-05T07:20:39.939Z</time>
      </trkpt>
      <trkpt lat="38.903307" lon="-1.799452">
        <ele>811.026287</ele>
        <time>2020-08-05T07:20:41.989Z</time>
      </trkpt>
      <trkpt lat="38.903352" lon="-1.799564">
        <ele>810.959903</ele>
        <time>2020-08-05T07:20:43.944Z</time>
      </trkpt>
      <trkpt lat="38.903407" lon="-1.799670">
        <ele>810.892805</ele>
        <time>2020-08-05T07:20:45.936Z</time>
      </trkpt>
      <trkpt lat="38.903469" lon="-1.799806">
        <ele>810.809794</ele>
        <time>2020-08-05T07:20:48.924Z</time>
      </trkpt>
      <trkpt lat="38.903537" lon="-1.799894">
        <ele>810.744481</ele>
        <time>2020-08-05T07:20:50.935Z</time>
      </trkpt>
      <trkpt lat="38.903620" lon="-1.799987">
        <ele>810.669955</ele>
        <time>2020-08-05T07:20:53.936Z</time>
      </trkpt>
      <trkpt lat="38.903684" lon="-1.800079">
        <ele>810.604965</ele>
        <time>2020-08-05T07:20:55.939Z</time>
      </trkpt>
      <trkpt lat="38.903767" lon="-1.800220">
        <ele>810.511854</ele>
        <time>2020-08-05T07:20:58.940Z</time>
      </trkpt>
      <trkpt lat="38.903820" lon="-1.800321">
        <ele>810.447698</ele>
        <time>2020-08-05T07:21:00.948Z</time>
      </trkpt>
      <trkpt lat="38.903890" lon="-1.800446">
        <ele>810.366593</ele>
        <time>2020-08-05T07:21:03.939Z</time>
      </trkpt>
      <trkpt lat="38.903971" lon="-1.800549">
        <ele>810.289472</ele>
        <time>2020-08-05T07:21:06.959Z</time>
      </trkpt>
      <trkpt lat="38.904033" lon="-1.800664">
        <ele>810.215792</ele>
        <time>2020-08-05T07:21:08.943Z</time>
      </trkpt>
      <trkpt lat="38.904088" lon="-1.800763">
        <ele>810.151730</ele>
        <time>2020-08-05T07:21:10.928Z</time>
      </trkpt>
      <trkpt lat="38.904158" lon="-1.800854">
        <ele>810.084342</ele>
        <time>2020-08-05T07:21:12.933Z</time>
      </trkpt>
      <trkpt lat="38.904200" lon="-1.800957">
        <ele>810.061179</ele>
        <time>2020-08-05T07:21:14.927Z</time>
      </trkpt>
      <trkpt lat="38.904269" lon="-1.801080">
        <ele>810.079296</ele>
        <time>2020-08-05T07:21:17.955Z</time>
      </trkpt>
      <trkpt lat="38.904328" lon="-1.801181">
        <ele>810.094386</ele>
        <time>2020-08-05T07:21:19.932Z</time>
      </trkpt>
      <trkpt lat="38.904394" lon="-1.801266">
        <ele>810.108733</ele>
        <time>2020-08-05T07:21:21.941Z</time>
      </trkpt>
      <trkpt lat="38.904457" lon="-1.801381">
        <ele>810.125538</ele>
        <time>2020-08-05T07:21:23.951Z</time>
      </trkpt>
      <trkpt lat="38.904526" lon="-1.801506">
        <ele>810.143850</ele>
        <time>2020-08-05T07:21:25.923Z</time>
      </trkpt>
      <trkpt lat="38.904603" lon="-1.801618">
        <ele>810.161706</ele>
        <time>2020-08-05T07:21:27.948Z</time>
      </trkpt>
      <trkpt lat="38.904671" lon="-1.801720">
        <ele>810.177755</ele>
        <time>2020-08-05T07:21:29.951Z</time>
      </trkpt>
      <trkpt lat="38.904760" lon="-1.801818">
        <ele>810.195751</ele>
        <time>2020-08-05T07:21:31.933Z</time>
      </trkpt>
      <trkpt lat="38.904844" lon="-1.801963">
        <ele>810.217350</ele>
        <time>2020-08-05T07:21:33.948Z</time>
      </trkpt>
      <trkpt lat="38.904911" lon="-1.802102">
        <ele>810.236886</ele>
        <time>2020-08-05T07:21:35.944Z</time>
      </trkpt>
      <trkpt lat="38.904985" lon="-1.802233">
        <ele>810.256228</ele>
        <time>2020-08-05T07:21:37.944Z</time>
      </trkpt>
      <trkpt lat="38.905060" lon="-1.802381">
        <ele>810.277331</ele>
        <time>2020-08-05T07:21:39.948Z</time>
      </trkpt>
      <trkpt lat="38.905138" lon="-1.802542">
        <ele>810.299992</ele>
        <time>2020-08-05T07:21:41.952Z</time>
      </trkpt>
      <trkpt lat="38.905197" lon="-1.802699">
        <ele>810.320824</ele>
        <time>2020-08-05T07:21:43.932Z</time>
      </trkpt>
      <trkpt lat="38.905284" lon="-1.802852">
        <ele>810.433270</ele>
        <time>2020-08-05T07:21:45.926Z</time>
      </trkpt>
      <trkpt lat="38.905367" lon="-1.803002">
        <ele>810.605349</ele>
        <time>2020-08-05T07:21:47.932Z</time>
      </trkpt>
      <trkpt lat="38.905434" lon="-1.803167">
        <ele>810.779352</ele>
        <time>2020-08-05T07:21:49.949Z</time>
      </trkpt>
      <trkpt lat="38.905498" lon="-1.803322">
        <ele>810.943403</ele>
        <time>2020-08-05T07:21:51.966Z</time>
      </trkpt>
      <trkpt lat="38.905578" lon="-1.803502">
        <ele>811.137204</ele>
        <time>2020-08-05T07:21:53.954Z</time>
      </trkpt>
      <trkpt lat="38.905634" lon="-1.803681">
        <ele>811.317575</ele>
        <time>2020-08-05T07:21:55.934Z</time>
      </trkpt>
      <trkpt lat="38.905700" lon="-1.803850">
        <ele>811.494359</ele>
        <time>2020-08-05T07:21:57.925Z</time>
      </trkpt>
      <trkpt lat="38.905772" lon="-1.803987">
        <ele>811.648919</ele>
        <time>2020-08-05T07:21:59.926Z</time>
      </trkpt>
      <trkpt lat="38.905863" lon="-1.804151">
        <ele>811.837234</ele>
        <time>2020-08-05T07:22:01.948Z</time>
      </trkpt>
      <trkpt lat="38.905915" lon="-1.804286">
        <ele>811.978065</ele>
        <time>2020-08-05T07:22:03.928Z</time>
      </trkpt>
      <trkpt lat="38.905970" lon="-1.804453">
        <ele>812.147606</ele>
        <time>2020-08-05T07:22:05.940Z</time>
      </trkpt>
      <trkpt lat="38.906031" lon="-1.804623">
        <ele>812.322626</ele>
        <time>2020-08-05T07:22:07.935Z</time>
      </trkpt>
      <trkpt lat="38.906084" lon="-1.804808">
        <ele>812.480258</ele>
        <time>2020-08-05T07:22:09.925Z</time>
      </trkpt>
      <trkpt lat="38.906127" lon="-1.804992">
        <ele>812.354297</ele>
        <time>2020-08-05T07:22:11.940Z</time>
      </trkpt>
      <trkpt lat="38.906181" lon="-1.805154">
        <ele>812.238749</ele>
        <time>2020-08-05T07:22:13.937Z</time>
      </trkpt>
      <trkpt lat="38.906247" lon="-1.805304">
        <ele>812.125771</ele>
        <time>2020-08-05T07:22:15.931Z</time>
      </trkpt>
      <trkpt lat="38.906304" lon="-1.805474">
        <ele>812.004406</ele>
        <time>2020-08-05T07:22:17.938Z</time>
      </trkpt>
      <trkpt lat="38.906366" lon="-1.805640">
        <ele>811.883683</ele>
        <time>2020-08-05T07:22:19.936Z</time>
      </trkpt>
      <trkpt lat="38.906436" lon="-1.805804">
        <ele>811.761046</ele>
        <time>2020-08-05T07:22:21.927Z</time>
      </trkpt>
      <trkpt lat="38.906487" lon="-1.805968">
        <ele>811.645254</ele>
        <time>2020-08-05T07:22:23.945Z</time>
      </trkpt>
      <trkpt lat="38.906541" lon="-1.806137">
        <ele>811.525474</ele>
        <time>2020-08-05T07:22:25.929Z</time>
      </trkpt>
      <trkpt lat="38.906612" lon="-1.806295">
        <ele>811.405852</ele>
        <time>2020-08-05T07:22:27.930Z</time>
      </trkpt>
      <trkpt lat="38.906667" lon="-1.806464">
        <ele>811.285750</ele>
        <time>2020-08-05T07:22:29.932Z</time>
      </trkpt>
      <trkpt lat="38.906717" lon="-1.806635">
        <ele>811.165983</ele>
        <time>2020-08-05T07:22:31.938Z</time>
      </trkpt>
      <trkpt lat="38.906760" lon="-1.806831">
        <ele>811.032469</ele>
        <time>2020-08-05T07:22:33.935Z</time>
      </trkpt>
      <trkpt lat="38.906802" lon="-1.807011">
        <ele>810.953143</ele>
        <time>2020-08-05T07:22:35.938Z</time>
      </trkpt>
      <trkpt lat="38.906836" lon="-1.807201">
        <ele>810.909574</ele>
        <time>2020-08-05T07:22:37.946Z</time>
      </trkpt>
      <trkpt lat="38.906848" lon="-1.807376">
        <ele>810.870313</ele>
        <time>2020-08-05T07:22:39.932Z</time>
      </trkpt>
      <trkpt lat="38.906892" lon="-1.807535">
        <ele>810.832599</ele>
        <time>2020-08-05T07:22:41.931Z</time>
      </trkpt>
      <trkpt lat="38.906933" lon="-1.807700">
        <ele>810.793891</ele>
        <time>2020-08-05T07:22:43.937Z</time>
      </trkpt>
      <trkpt lat="38.906984" lon="-1.807862">
        <ele>810.754836</ele>
        <time>2020-08-05T07:22:45.933Z</time>
      </trkpt>
      <trkpt lat="38.907020" lon="-1.808026">
        <ele>810.716755</ele>
        <time>2020-08-05T07:22:47.939Z</time>
      </trkpt>
      <trkpt lat="38.907059" lon="-1.808199">
        <ele>810.676504</ele>
        <time>2020-08-05T07:22:49.928Z</time>
      </trkpt>
      <trkpt lat="38.907108" lon="-1.808369">
        <ele>810.635989</ele>
        <time>2020-08-05T07:22:51.947Z</time>
      </trkpt>
      <trkpt lat="38.907177" lon="-1.808538">
        <ele>810.593339</ele>
        <time>2020-08-05T07:22:53.937Z</time>
      </trkpt>
      <trkpt lat="38.907245" lon="-1.808699">
        <ele>810.552400</ele>
        <time>2020-08-05T07:22:55.937Z</time>
      </trkpt>
      <trkpt lat="38.907314" lon="-1.808860">
        <ele>810.511324</ele>
        <time>2020-08-05T07:22:57.945Z</time>
      </trkpt>
      <trkpt lat="38.907397" lon="-1.809003">
        <ele>810.471456</ele>
        <time>2020-08-05T07:22:59.940Z</time>
      </trkpt>
      <trkpt lat="38.907473" lon="-1.809150">
        <ele>810.197694</ele>
        <time>2020-08-05T07:23:01.947Z</time>
      </trkpt>
      <trkpt lat="38.907548" lon="-1.809297">
        <ele>809.820875</ele>
        <time>2020-08-05T07:23:03.949Z</time>
      </trkpt>
      <trkpt lat="38.907629" lon="-1.809460">
        <ele>809.406280</ele>
        <time>2020-08-05T07:23:05.932Z</time>
      </trkpt>
      <trkpt lat="38.907718" lon="-1.809602">
        <ele>809.015414</ele>
        <time>2020-08-05T07:23:07.937Z</time>
      </trkpt>
      <trkpt lat="38.907812" lon="-1.809721">
        <ele>808.651913</ele>
        <time>2020-08-05T07:23:09.933Z</time>
      </trkpt>
      <trkpt lat="38.907896" lon="-1.809866">
        <ele>808.264398</ele>
        <time>2020-08-05T07:23:11.931Z</time>
      </trkpt>
      <trkpt lat="38.908005" lon="-1.809967">
        <ele>807.894203</ele>
        <time>2020-08-05T07:23:13.935Z</time>
      </trkpt>
      <trkpt lat="38.908088" lon="-1.810070">
        <ele>807.576345</ele>
        <time>2020-08-05T07:23:15.947Z</time>
      </trkpt>
      <trkpt lat="38.908216" lon="-1.810125">
        <ele>807.204537</ele>
        <time>2020-08-05T07:23:17.936Z</time>
      </trkpt>
      <trkpt lat="38.908352" lon="-1.810155">
        <ele>806.824400</ele>
        <time>2020-08-05T07:23:19.946Z</time>
      </trkpt>
      <trkpt lat="38.908467" lon="-1.810241">
        <ele>806.457857</ele>
        <time>2020-08-05T07:23:21.926Z</time>
      </trkpt>
      <trkpt lat="38.908581" lon="-1.810315">
        <ele>806.106016</ele>
        <time>2020-08-05T07:23:23.938Z</time>
      </trkpt>
      <trkpt lat="38.908691" lon="-1.810405">
        <ele>805.746780</ele>
        <time>2020-08-05T07:23:25.928Z</time>
      </trkpt>
      <trkpt lat="38.908817" lon="-1.810497">
        <ele>805.454163</ele>
        <time>2020-08-05T07:23:27.928Z</time>
      </trkpt>
      <trkpt lat="38.908923" lon="-1.810592">
        <ele>805.340257</ele>
        <time>2020-08-05T07:23:29.948Z</time>
      </trkpt>
      <trkpt lat="38.909038" lon="-1.810718">
        <ele>805.207057</ele>
        <time>2020-08-05T07:23:31.937Z</time>
      </trkpt>
      <trkpt lat="38.909150" lon="-1.810835">
        <ele>805.079838</ele>
        <time>2020-08-05T07:23:33.937Z</time>
      </trkpt>
      <trkpt lat="38.909249" lon="-1.810950">
        <ele>804.962214</ele>
        <time>2020-08-05T07:23:35.955Z</time>
      </trkpt>
      <trkpt lat="38.909355" lon="-1.811098">
        <ele>804.824255</ele>
        <time>2020-08-05T07:23:37.952Z</time>
      </trkpt>
      <trkpt lat="38.909420" lon="-1.811258">
        <ele>804.700462</ele>
        <time>2020-08-05T07:23:39.954Z</time>
      </trkpt>
      <trkpt lat="38.909476" lon="-1.811409">
        <ele>804.585737</ele>
        <time>2020-08-05T07:23:41.950Z</time>
      </trkpt>
      <trkpt lat="38.909503" lon="-1.811587">
        <ele>804.461356</ele>
        <time>2020-08-05T07:23:43.926Z</time>
      </trkpt>
      <trkpt lat="38.909546" lon="-1.811758">
        <ele>804.338102</ele>
        <time>2020-08-05T07:23:45.933Z</time>
      </trkpt>
      <trkpt lat="38.909590" lon="-1.811937">
        <ele>804.209354</ele>
        <time>2020-08-05T07:23:47.952Z</time>
      </trkpt>
      <trkpt lat="38.909655" lon="-1.812069">
        <ele>804.102216</ele>
        <time>2020-08-05T07:23:49.933Z</time>
      </trkpt>
      <trkpt lat="38.909716" lon="-1.812193">
        <ele>804.001599</ele>
        <time>2020-08-05T07:23:51.961Z</time>
      </trkpt>
      <trkpt lat="38.909794" lon="-1.812341">
        <ele>803.945182</ele>
        <time>2020-08-05T07:23:53.939Z</time>
      </trkpt>
      <trkpt lat="38.909883" lon="-1.812476">
        <ele>804.024720</ele>
        <time>2020-08-05T07:23:55.949Z</time>
      </trkpt>
      <trkpt lat="38.909973" lon="-1.812584">
        <ele>804.095855</ele>
        <time>2020-08-05T07:23:57.938Z</time>
      </trkpt>
      <trkpt lat="38.910050" lon="-1.812721">
        <ele>804.171825</ele>
        <time>2020-08-05T07:23:59.927Z</time>
      </trkpt>
      <trkpt lat="38.910139" lon="-1.812832">
        <ele>804.243472</ele>
        <time>2020-08-05T07:24:01.951Z</time>
      </trkpt>
      <trkpt lat="38.910238" lon="-1.812946">
        <ele>804.320264</ele>
        <time>2020-08-05T07:24:03.957Z</time>
      </trkpt>
      <trkpt lat="38.910326" lon="-1.813088">
        <ele>804.401867</ele>
        <time>2020-08-05T07:24:05.944Z</time>
      </trkpt>
      <trkpt lat="38.910413" lon="-1.813224">
        <ele>804.481010</ele>
        <time>2020-08-05T07:24:07.935Z</time>
      </trkpt>
      <trkpt lat="38.910511" lon="-1.813307">
        <ele>804.548813</ele>
        <time>2020-08-05T07:24:09.953Z</time>
      </trkpt>
      <trkpt lat="38.910598" lon="-1.813416">
        <ele>804.619004</ele>
        <time>2020-08-05T07:24:11.940Z</time>
      </trkpt>
      <trkpt lat="38.910677" lon="-1.813538">
        <ele>804.690351</ele>
        <time>2020-08-05T07:24:13.942Z</time>
      </trkpt>
      <trkpt lat="38.910746" lon="-1.813644">
        <ele>804.752475</ele>
        <time>2020-08-05T07:24:15.937Z</time>
      </trkpt>
      <trkpt lat="38.910798" lon="-1.813758">
        <ele>804.811876</ele>
        <time>2020-08-05T07:24:17.937Z</time>
      </trkpt>
      <trkpt lat="38.910828" lon="-1.813921">
        <ele>804.887170</ele>
        <time>2020-08-05T07:24:20.938Z</time>
      </trkpt>
      <trkpt lat="38.910766" lon="-1.814035">
        <ele>804.949692</ele>
        <time>2020-08-05T07:24:23.931Z</time>
      </trkpt>
      <trkpt lat="38.910738" lon="-1.814214">
        <ele>804.716292</ele>
        <time>2020-08-05T07:24:26.925Z</time>
      </trkpt>
      <trkpt lat="38.910673" lon="-1.814320">
        <ele>804.517325</ele>
        <time>2020-08-05T07:24:28.945Z</time>
      </trkpt>
      <trkpt lat="38.910621" lon="-1.814438">
        <ele>804.317400</ele>
        <time>2020-08-05T07:24:30.928Z</time>
      </trkpt>
      <trkpt lat="38.910572" lon="-1.814588">
        <ele>804.077561</ele>
        <time>2020-08-05T07:24:32.931Z</time>
      </trkpt>
      <trkpt lat="38.910547" lon="-1.814722">
        <ele>803.874409</ele>
        <time>2020-08-05T07:24:34.936Z</time>
      </trkpt>
      <trkpt lat="38.910493" lon="-1.814861">
        <ele>803.645363</ele>
        <time>2020-08-05T07:24:36.923Z</time>
      </trkpt>
      <trkpt lat="38.910431" lon="-1.815011">
        <ele>803.394958</ele>
        <time>2020-08-05T07:24:38.926Z</time>
      </trkpt>
      <trkpt lat="38.910395" lon="-1.815136">
        <ele>803.198455</ele>
        <time>2020-08-05T07:24:40.970Z</time>
      </trkpt>
      <trkpt lat="38.910348" lon="-1.815265">
        <ele>802.988458</ele>
        <time>2020-08-05T07:24:42.929Z</time>
      </trkpt>
      <trkpt lat="38.910323" lon="-1.815393">
        <ele>802.793895</ele>
        <time>2020-08-05T07:24:44.954Z</time>
      </trkpt>
      <trkpt lat="38.910286" lon="-1.815527">
        <ele>802.584272</ele>
        <time>2020-08-05T07:24:46.931Z</time>
      </trkpt>
      <trkpt lat="38.910244" lon="-1.815676">
        <ele>802.350635</ele>
        <time>2020-08-05T07:24:48.928Z</time>
      </trkpt>
      <trkpt lat="38.910168" lon="-1.815802">
        <ele>802.115601</ele>
        <time>2020-08-05T07:24:50.934Z</time>
      </trkpt>
      <trkpt lat="38.910148" lon="-1.815928">
        <ele>801.926015</ele>
        <time>2020-08-05T07:24:52.921Z</time>
      </trkpt>
      <trkpt lat="38.910098" lon="-1.816064">
        <ele>801.704259</ele>
        <time>2020-08-05T07:24:54.937Z</time>
      </trkpt>
      <trkpt lat="38.909825" lon="-1.817087">
        <ele>805.897355</ele>
        <time>2020-08-05T07:25:18.950Z</time>
      </trkpt>
      <trkpt lat="38.909749" lon="-1.817193">
        <ele>806.538666</ele>
        <time>2020-08-05T07:25:20.929Z</time>
      </trkpt>
      <trkpt lat="38.909660" lon="-1.817320">
        <ele>807.299110</ele>
        <time>2020-08-05T07:25:22.925Z</time>
      </trkpt>
      <trkpt lat="38.909584" lon="-1.817419">
        <ele>807.917877</ele>
        <time>2020-08-05T07:25:25.951Z</time>
      </trkpt>
      <trkpt lat="38.909496" lon="-1.817528">
        <ele>808.616728</ele>
        <time>2020-08-05T07:25:27.941Z</time>
      </trkpt>
      <trkpt lat="38.909412" lon="-1.817660">
        <ele>809.375433</ele>
        <time>2020-08-05T07:25:29.951Z</time>
      </trkpt>
      <trkpt lat="38.909324" lon="-1.817722">
        <ele>809.949269</ele>
        <time>2020-08-05T07:25:31.939Z</time>
      </trkpt>
      <trkpt lat="38.909255" lon="-1.817854">
        <ele>810.656800</ele>
        <time>2020-08-05T07:25:34.934Z</time>
      </trkpt>
      <trkpt lat="38.909094" lon="-1.817959">
        <ele>811.689149</ele>
        <time>2020-08-05T07:25:36.942Z</time>
      </trkpt>
      <trkpt lat="38.908978" lon="-1.818038">
        <ele>810.874730</ele>
        <time>2020-08-05T07:25:39.937Z</time>
      </trkpt>
      <trkpt lat="38.909047" lon="-1.818302">
        <ele>808.908499</ele>
        <time>2020-08-05T07:25:40.930Z</time>
      </trkpt>
      <trkpt lat="38.908616" lon="-1.818440">
        <ele>804.878418</ele>
        <time>2020-08-05T07:25:53.991Z</time>
      </trkpt>
      <trkpt lat="38.908564" lon="-1.818536">
        <ele>804.052589</ele>
        <time>2020-08-05T07:25:55.931Z</time>
      </trkpt>
      <trkpt lat="38.908498" lon="-1.818657">
        <ele>803.009318</ele>
        <time>2020-08-05T07:25:58.946Z</time>
      </trkpt>
      <trkpt lat="38.908509" lon="-1.818950">
        <ele>800.938250</ele>
        <time>2020-08-05T07:26:00.951Z</time>
      </trkpt>
      <trkpt lat="38.908402" lon="-1.818930">
        <ele>799.957206</ele>
        <time>2020-08-05T07:26:01.927Z</time>
      </trkpt>
      <trkpt lat="38.908278" lon="-1.818995">
        <ele>798.742136</ele>
        <time>2020-08-05T07:26:04.946Z</time>
      </trkpt>
      <trkpt lat="38.908179" lon="-1.819020">
        <ele>797.826715</ele>
        <time>2020-08-05T07:26:06.928Z</time>
      </trkpt>
      <trkpt lat="38.908077" lon="-1.819093">
        <ele>796.767413</ele>
        <time>2020-08-05T07:26:09.946Z</time>
      </trkpt>
      <trkpt lat="38.907981" lon="-1.819179">
        <ele>795.705641</ele>
        <time>2020-08-05T07:26:12.926Z</time>
      </trkpt>
      <trkpt lat="38.907913" lon="-1.819287">
        <ele>795.851245</ele>
        <time>2020-08-05T07:26:15.941Z</time>
      </trkpt>
      <trkpt lat="38.907840" lon="-1.819410">
        <ele>796.315187</ele>
        <time>2020-08-05T07:26:19.937Z</time>
      </trkpt>
      <trkpt lat="38.907768" lon="-1.819500">
        <ele>796.702310</ele>
        <time>2020-08-05T07:26:22.948Z</time>
      </trkpt>
      <trkpt lat="38.907675" lon="-1.819593">
        <ele>797.156483</ele>
        <time>2020-08-05T07:26:25.933Z</time>
      </trkpt>
      <trkpt lat="38.907599" lon="-1.819694">
        <ele>797.577858</ele>
        <time>2020-08-05T07:26:28.927Z</time>
      </trkpt>
      <trkpt lat="38.907531" lon="-1.819795">
        <ele>797.978413</ele>
        <time>2020-08-05T07:26:31.929Z</time>
      </trkpt>
      <trkpt lat="38.907470" lon="-1.819904">
        <ele>798.381082</ele>
        <time>2020-08-05T07:26:34.944Z</time>
      </trkpt>
      <trkpt lat="38.907399" lon="-1.820036">
        <ele>798.862340</ele>
        <time>2020-08-05T07:26:37.930Z</time>
      </trkpt>
      <trkpt lat="38.907316" lon="-1.820131">
        <ele>799.290723</ele>
        <time>2020-08-05T07:26:40.941Z</time>
      </trkpt>
      <trkpt lat="38.907225" lon="-1.820211">
        <ele>799.715668</ele>
        <time>2020-08-05T07:26:43.937Z</time>
      </trkpt>
      <trkpt lat="38.907160" lon="-1.820316">
        <ele>800.118074</ele>
        <time>2020-08-05T07:26:46.942Z</time>
      </trkpt>
      <trkpt lat="38.907115" lon="-1.820439">
        <ele>800.525708</ele>
        <time>2020-08-05T07:26:49.947Z</time>
      </trkpt>
      <trkpt lat="38.907021" lon="-1.820798">
        <ele>801.661729</ele>
        <time>2020-08-05T07:26:57.936Z</time>
      </trkpt>
      <trkpt lat="38.906999" lon="-1.820971">
        <ele>802.187469</ele>
        <time>2020-08-05T07:27:00.934Z</time>
      </trkpt>
      <trkpt lat="38.906984" lon="-1.821092">
        <ele>802.613100</ele>
        <time>2020-08-05T07:27:02.949Z</time>
      </trkpt>
      <trkpt lat="38.906970" lon="-1.821208">
        <ele>803.155988</ele>
        <time>2020-08-05T07:27:04.930Z</time>
      </trkpt>
      <trkpt lat="38.906803" lon="-1.825043">
        <ele>811.335597</ele>
        <time>2020-08-05T07:28:00.948Z</time>
      </trkpt>
      <trkpt lat="38.906613" lon="-1.825183">
        <ele>811.034254</ele>
        <time>2020-08-05T07:28:01.940Z</time>
      </trkpt>
      <trkpt lat="38.906627" lon="-1.825314">
        <ele>810.892679</ele>
        <time>2020-08-05T07:28:03.926Z</time>
      </trkpt>
      <trkpt lat="38.906663" lon="-1.825443">
        <ele>810.745949</ele>
        <time>2020-08-05T07:28:05.930Z</time>
      </trkpt>
      <trkpt lat="38.906504" lon="-1.826856">
        <ele>809.998645</ele>
        <time>2020-08-05T07:28:43.939Z</time>
      </trkpt>
      <trkpt lat="38.906602" lon="-1.826881">
        <ele>809.935493</ele>
        <time>2020-08-05T07:28:50.931Z</time>
      </trkpt>
      <trkpt lat="38.906625" lon="-1.827007">
        <ele>809.871836</ele>
        <time>2020-08-05T07:28:53.936Z</time>
      </trkpt>
      <trkpt lat="38.906591" lon="-1.827170">
        <ele>809.788832</ele>
        <time>2020-08-05T07:28:56.938Z</time>
      </trkpt>
      <trkpt lat="38.906548" lon="-1.827278">
        <ele>809.729162</ele>
        <time>2020-08-05T07:28:58.927Z</time>
      </trkpt>
      <trkpt lat="38.906493" lon="-1.827417">
        <ele>809.652463</ele>
        <time>2020-08-05T07:29:01.936Z</time>
      </trkpt>
      <trkpt lat="38.906441" lon="-1.827567">
        <ele>809.571693</ele>
        <time>2020-08-05T07:29:04.937Z</time>
      </trkpt>
      <trkpt lat="38.906412" lon="-1.827718">
        <ele>809.466449</ele>
        <time>2020-08-05T07:29:06.944Z</time>
      </trkpt>
      <trkpt lat="38.906406" lon="-1.827886">
        <ele>809.305772</ele>
        <time>2020-08-05T07:29:08.936Z</time>
      </trkpt>
      <trkpt lat="38.906356" lon="-1.828022">
        <ele>809.162067</ele>
        <time>2020-08-05T07:29:10.938Z</time>
      </trkpt>
      <trkpt lat="38.906442" lon="-1.828113">
        <ele>809.025292</ele>
        <time>2020-08-05T07:29:12.943Z</time>
      </trkpt>
      <trkpt lat="38.906464" lon="-1.828232">
        <ele>808.908435</ele>
        <time>2020-08-05T07:29:14.944Z</time>
      </trkpt>
      <trkpt lat="38.906444" lon="-1.828358">
        <ele>808.785576</ele>
        <time>2020-08-05T07:29:16.935Z</time>
      </trkpt>
      <trkpt lat="38.906500" lon="-1.828502">
        <ele>808.631775</ele>
        <time>2020-08-05T07:29:18.919Z</time>
      </trkpt>
      <trkpt lat="38.906494" lon="-1.828672">
        <ele>808.469190</ele>
        <time>2020-08-05T07:29:21.942Z</time>
      </trkpt>
      <trkpt lat="38.906344" lon="-1.828819">
        <ele>808.237587</ele>
        <time>2020-08-05T07:29:23.933Z</time>
      </trkpt>
      <trkpt lat="38.906137" lon="-1.829062">
        <ele>807.893365</ele>
        <time>2020-08-05T07:29:27.925Z</time>
      </trkpt>
      <trkpt lat="38.906061" lon="-1.829173">
        <ele>807.752110</ele>
        <time>2020-08-05T07:29:29.949Z</time>
      </trkpt>
      <trkpt lat="38.906027" lon="-1.829306">
        <ele>807.618360</ele>
        <time>2020-08-05T07:29:32.948Z</time>
      </trkpt>
      <trkpt lat="38.905989" lon="-1.829469">
        <ele>807.455790</ele>
        <time>2020-08-05T07:29:35.934Z</time>
      </trkpt>
      <trkpt lat="38.905778" lon="-1.829900">
        <ele>806.169067</ele>
        <time>2020-08-05T07:29:45.942Z</time>
      </trkpt>
      <trkpt lat="38.905744" lon="-1.830021">
        <ele>805.763614</ele>
        <time>2020-08-05T07:29:47.931Z</time>
      </trkpt>
      <trkpt lat="38.905777" lon="-1.830141">
        <ele>805.362493</ele>
        <time>2020-08-05T07:29:49.946Z</time>
      </trkpt>
      <trkpt lat="38.905712" lon="-1.830259">
        <ele>804.906850</ele>
        <time>2020-08-05T07:29:51.929Z</time>
      </trkpt>
      <trkpt lat="38.905664" lon="-1.830390">
        <ele>804.450502</ele>
        <time>2020-08-05T07:29:53.950Z</time>
      </trkpt>
      <trkpt lat="38.905609" lon="-1.830499">
        <ele>804.041071</ele>
        <time>2020-08-05T07:29:55.932Z</time>
      </trkpt>
      <trkpt lat="38.905533" lon="-1.830596">
        <ele>803.607246</ele>
        <time>2020-08-05T07:29:57.925Z</time>
      </trkpt>
      <trkpt lat="38.905468" lon="-1.830744">
        <ele>803.071636</ele>
        <time>2020-08-05T07:29:59.934Z</time>
      </trkpt>
      <trkpt lat="38.905400" lon="-1.830864">
        <ele>802.603786</ele>
        <time>2020-08-05T07:30:01.935Z</time>
      </trkpt>
      <trkpt lat="38.905487" lon="-1.830911">
        <ele>802.221560</ele>
        <time>2020-08-05T07:30:04.934Z</time>
      </trkpt>
      <trkpt lat="38.905505" lon="-1.831041">
        <ele>801.805406</ele>
        <time>2020-08-05T07:30:07.939Z</time>
      </trkpt>
      <trkpt lat="38.905491" lon="-1.831167">
        <ele>801.404266</ele>
        <time>2020-08-05T07:30:10.927Z</time>
      </trkpt>
      <trkpt lat="38.905467" lon="-1.831311">
        <ele>800.940131</ele>
        <time>2020-08-05T07:30:14.986Z</time>
      </trkpt>
      <trkpt lat="38.905465" lon="-1.831447">
        <ele>800.511426</ele>
        <time>2020-08-05T07:30:18.917Z</time>
      </trkpt>
      <trkpt lat="38.905422" lon="-1.831560">
        <ele>800.114985</ele>
        <time>2020-08-05T07:30:22.917Z</time>
      </trkpt>
      <trkpt lat="38.905139" lon="-1.832552">
        <ele>794.241865</ele>
        <time>2020-08-05T07:30:34.953Z</time>
      </trkpt>
      <trkpt lat="38.905088" lon="-1.832671">
        <ele>793.478419</ele>
        <time>2020-08-05T07:30:37.929Z</time>
      </trkpt>
      <trkpt lat="38.904886" lon="-1.833152">
        <ele>790.406873</ele>
        <time>2020-08-05T07:30:45.929Z</time>
      </trkpt>
      <trkpt lat="38.904753" lon="-1.833175">
        <ele>789.437762</ele>
        <time>2020-08-05T07:30:47.924Z</time>
      </trkpt>
      <trkpt lat="38.904682" lon="-1.833285">
        <ele>788.634636</ele>
        <time>2020-08-05T07:30:50.927Z</time>
      </trkpt>
      <trkpt lat="38.904632" lon="-1.833461">
        <ele>787.581727</ele>
        <time>2020-08-05T07:30:53.941Z</time>
      </trkpt>
      <trkpt lat="38.904596" lon="-1.833571">
        <ele>786.902893</ele>
        <time>2020-08-05T07:30:55.933Z</time>
      </trkpt>
      <trkpt lat="38.904550" lon="-1.833688">
        <ele>786.120630</ele>
        <time>2020-08-05T07:30:57.928Z</time>
      </trkpt>
      <trkpt lat="38.904521" lon="-1.833808">
        <ele>785.370778</ele>
        <time>2020-08-05T07:31:00.919Z</time>
      </trkpt>
      <trkpt lat="38.904461" lon="-1.833923">
        <ele>784.544532</ele>
        <time>2020-08-05T07:31:02.933Z</time>
      </trkpt>
      <trkpt lat="38.904463" lon="-1.834048">
        <ele>783.798420</ele>
        <time>2020-08-05T07:31:04.930Z</time>
      </trkpt>
      <trkpt lat="38.904405" lon="-1.834151">
        <ele>783.039710</ele>
        <time>2020-08-05T07:31:06.922Z</time>
      </trkpt>
      <trkpt lat="38.904330" lon="-1.834253">
        <ele>782.202271</ele>
        <time>2020-08-05T07:31:09.930Z</time>
      </trkpt>
      <trkpt lat="38.904285" lon="-1.834376">
        <ele>781.391179</ele>
        <time>2020-08-05T07:31:12.931Z</time>
      </trkpt>
      <trkpt lat="38.904239" lon="-1.834479">
        <ele>780.682481</ele>
        <time>2020-08-05T07:31:15.925Z</time>
      </trkpt>
      <trkpt lat="38.904204" lon="-1.834596">
        <ele>779.934455</ele>
        <time>2020-08-05T07:31:19.932Z</time>
      </trkpt>
      <trkpt lat="38.904139" lon="-1.834716">
        <ele>779.061938</ele>
        <time>2020-08-05T07:31:23.929Z</time>
      </trkpt>
      <trkpt lat="38.904076" lon="-1.834806">
        <ele>778.339532</ele>
        <time>2020-08-05T07:31:35.930Z</time>
      </trkpt>
      <trkpt lat="38.904069" lon="-1.834924">
        <ele>777.633304</ele>
        <time>2020-08-05T07:32:05.945Z</time>
      </trkpt>
      <trkpt lat="38.904014" lon="-1.835057">
        <ele>776.734499</ele>
        <time>2020-08-05T07:32:09.933Z</time>
      </trkpt>
      <trkpt lat="38.903972" lon="-1.835200">
        <ele>775.822365</ele>
        <time>2020-08-05T07:32:13.947Z</time>
      </trkpt>
      <trkpt lat="38.903943" lon="-1.835327">
        <ele>775.032516</ele>
        <time>2020-08-05T07:32:16.938Z</time>
      </trkpt>
      <trkpt lat="38.903901" lon="-1.835461">
        <ele>774.170422</ele>
        <time>2020-08-05T07:32:19.943Z</time>
      </trkpt>
      <trkpt lat="38.903849" lon="-1.835587">
        <ele>773.319299</ele>
        <time>2020-08-05T07:32:22.950Z</time>
      </trkpt>
      <trkpt lat="38.903798" lon="-1.835702">
        <ele>773.230554</ele>
        <time>2020-08-05T07:32:25.940Z</time>
      </trkpt>
      <trkpt lat="38.903747" lon="-1.835809">
        <ele>773.209360</ele>
        <time>2020-08-05T07:32:28.947Z</time>
      </trkpt>
      <trkpt lat="38.903702" lon="-1.835927">
        <ele>773.187164</ele>
        <time>2020-08-05T07:32:31.954Z</time>
      </trkpt>
      <trkpt lat="38.903651" lon="-1.836033">
        <ele>773.166113</ele>
        <time>2020-08-05T07:32:34.935Z</time>
      </trkpt>
      <trkpt lat="38.903608" lon="-1.836158">
        <ele>773.143028</ele>
        <time>2020-08-05T07:32:37.942Z</time>
      </trkpt>
      <trkpt lat="38.903571" lon="-1.836295">
        <ele>773.118533</ele>
        <time>2020-08-05T07:32:40.939Z</time>
      </trkpt>
      <trkpt lat="38.903510" lon="-1.836425">
        <ele>773.092891</ele>
        <time>2020-08-05T07:32:43.940Z</time>
      </trkpt>
      <trkpt lat="38.903449" lon="-1.836558">
        <ele>773.066814</ele>
        <time>2020-08-05T07:32:46.947Z</time>
      </trkpt>
      <trkpt lat="38.903390" lon="-1.836691">
        <ele>773.040955</ele>
        <time>2020-08-05T07:32:49.945Z</time>
      </trkpt>
      <trkpt lat="38.903332" lon="-1.836823">
        <ele>773.015350</ele>
        <time>2020-08-05T07:32:52.938Z</time>
      </trkpt>
      <trkpt lat="38.903281" lon="-1.836965">
        <ele>772.988933</ele>
        <time>2020-08-05T07:32:55.941Z</time>
      </trkpt>
      <trkpt lat="38.903277" lon="-1.837087">
        <ele>772.968307</ele>
        <time>2020-08-05T07:32:58.928Z</time>
      </trkpt>
      <trkpt lat="38.903370" lon="-1.837151">
        <ele>772.945409</ele>
        <time>2020-08-05T07:33:02.932Z</time>
      </trkpt>
      <trkpt lat="38.903478" lon="-1.837149">
        <ele>772.921964</ele>
        <time>2020-08-05T07:33:05.932Z</time>
      </trkpt>
      <trkpt lat="38.903589" lon="-1.837153">
        <ele>772.897861</ele>
        <time>2020-08-05T07:33:08.940Z</time>
      </trkpt>
      <trkpt lat="38.903705" lon="-1.837163">
        <ele>772.872626</ele>
        <time>2020-08-05T07:33:11.932Z</time>
      </trkpt>
      <trkpt lat="38.903832" lon="-1.837163">
        <ele>772.891784</ele>
        <time>2020-08-05T07:33:14.950Z</time>
      </trkpt>
      <trkpt lat="38.903963" lon="-1.837180">
        <ele>772.949284</ele>
        <time>2020-08-05T07:33:17.926Z</time>
      </trkpt>
      <trkpt lat="38.904061" lon="-1.837189">
        <ele>772.992190</ele>
        <time>2020-08-05T07:33:19.930Z</time>
      </trkpt>
      <trkpt lat="38.904151" lon="-1.837204">
        <ele>773.031823</ele>
        <time>2020-08-05T07:33:21.966Z</time>
      </trkpt>
      <trkpt lat="38.904281" lon="-1.837220">
        <ele>773.088854</ele>
        <time>2020-08-05T07:33:24.929Z</time>
      </trkpt>
      <trkpt lat="38.904372" lon="-1.837224">
        <ele>773.128618</ele>
        <time>2020-08-05T07:33:26.939Z</time>
      </trkpt>
      <trkpt lat="38.904468" lon="-1.837254">
        <ele>773.171764</ele>
        <time>2020-08-05T07:33:28.927Z</time>
      </trkpt>
      <trkpt lat="38.904515" lon="-1.837406">
        <ele>773.227348</ele>
        <time>2020-08-05T07:33:31.935Z</time>
      </trkpt>
      <trkpt lat="38.904494" lon="-1.837537">
        <ele>773.272802</ele>
        <time>2020-08-05T07:33:33.937Z</time>
      </trkpt>
      <trkpt lat="38.904491" lon="-1.837671">
        <ele>773.318360</ele>
        <time>2020-08-05T07:33:35.935Z</time>
      </trkpt>
      <trkpt lat="38.904475" lon="-1.837786">
        <ele>773.358061</ele>
        <time>2020-08-05T07:33:37.933Z</time>
      </trkpt>
      <trkpt lat="38.904476" lon="-1.837903">
        <ele>773.397825</ele>
        <time>2020-08-05T07:33:39.952Z</time>
      </trkpt>
      <trkpt lat="38.904516" lon="-1.838036">
        <ele>773.446283</ele>
        <time>2020-08-05T07:33:42.939Z</time>
      </trkpt>
      <trkpt lat="38.904564" lon="-1.838165">
        <ele>773.494876</ele>
        <time>2020-08-05T07:33:45.929Z</time>
      </trkpt>
      <trkpt lat="38.904655" lon="-1.838256">
        <ele>773.545231</ele>
        <time>2020-08-05T07:33:48.934Z</time>
      </trkpt>
      <trkpt lat="38.904732" lon="-1.838319">
        <ele>773.585095</ele>
        <time>2020-08-05T07:33:51.943Z</time>
      </trkpt>
      <trkpt lat="38.904805" lon="-1.838407">
        <ele>773.628807</ele>
        <time>2020-08-05T07:33:54.945Z</time>
      </trkpt>
      <trkpt lat="38.904856" lon="-1.838510">
        <ele>773.666354</ele>
        <time>2020-08-05T07:33:57.949Z</time>
      </trkpt>
      <trkpt lat="38.904847" lon="-1.838638">
        <ele>773.702929</ele>
        <time>2020-08-05T07:33:59.939Z</time>
      </trkpt>
      <trkpt lat="38.904824" lon="-1.838802">
        <ele>773.750354</ele>
        <time>2020-08-05T07:34:02.957Z</time>
      </trkpt>
      <trkpt lat="38.904782" lon="-1.838931">
        <ele>773.790150</ele>
        <time>2020-08-05T07:34:05.949Z</time>
      </trkpt>
      <trkpt lat="38.904721" lon="-1.839053">
        <ele>773.831419</ele>
        <time>2020-08-05T07:34:08.943Z</time>
      </trkpt>
      <trkpt lat="38.904684" lon="-1.839198">
        <ele>773.874846</ele>
        <time>2020-08-05T07:34:11.934Z</time>
      </trkpt>
      <trkpt lat="38.904675" lon="-1.839314">
        <ele>773.908022</ele>
        <time>2020-08-05T07:34:13.925Z</time>
      </trkpt>
      <trkpt lat="38.904645" lon="-1.839434">
        <ele>773.943892</ele>
        <time>2020-08-05T07:34:16.925Z</time>
      </trkpt>
      <trkpt lat="38.904607" lon="-1.839554">
        <ele>773.980762</ele>
        <time>2020-08-05T07:34:19.927Z</time>
      </trkpt>
      <trkpt lat="38.904586" lon="-1.839696">
        <ele>774.021897</ele>
        <time>2020-08-05T07:34:22.945Z</time>
      </trkpt>
      <trkpt lat="38.904585" lon="-1.839849">
        <ele>774.065441</ele>
        <time>2020-08-05T07:34:25.929Z</time>
      </trkpt>
      <trkpt lat="38.904608" lon="-1.839962">
        <ele>774.098681</ele>
        <time>2020-08-05T07:34:28.953Z</time>
      </trkpt>
      <trkpt lat="38.904653" lon="-1.840098">
        <ele>774.140739</ele>
        <time>2020-08-05T07:34:32.931Z</time>
      </trkpt>
      <trkpt lat="38.904679" lon="-1.840216">
        <ele>774.175641</ele>
        <time>2020-08-05T07:34:35.926Z</time>
      </trkpt>
      <trkpt lat="38.904693" lon="-1.840351">
        <ele>774.214400</ele>
        <time>2020-08-05T07:34:38.925Z</time>
      </trkpt>
      <trkpt lat="38.904727" lon="-1.840491">
        <ele>774.256138</ele>
        <time>2020-08-05T07:34:42.939Z</time>
      </trkpt>
      <trkpt lat="38.904743" lon="-1.840611">
        <ele>774.290786</ele>
        <time>2020-08-05T07:34:46.942Z</time>
      </trkpt>
      <trkpt lat="38.904755" lon="-1.840745">
        <ele>774.506018</ele>
        <time>2020-08-05T07:34:51.939Z</time>
      </trkpt>
      <trkpt lat="38.904759" lon="-1.840862">
        <ele>774.771904</ele>
        <time>2020-08-05T07:34:58.931Z</time>
      </trkpt>
      <trkpt lat="38.904705" lon="-1.840980">
        <ele>775.082693</ele>
        <time>2020-08-05T07:35:07.930Z</time>
      </trkpt>
      <trkpt lat="38.904678" lon="-1.841114">
        <ele>775.396951</ele>
        <time>2020-08-05T07:35:11.948Z</time>
      </trkpt>
      <trkpt lat="38.904700" lon="-1.841237">
        <ele>775.683484</ele>
        <time>2020-08-05T07:35:15.934Z</time>
      </trkpt>
      <trkpt lat="38.904732" lon="-1.841356">
        <ele>775.969330</ele>
        <time>2020-08-05T07:35:18.927Z</time>
      </trkpt>
      <trkpt lat="38.904789" lon="-1.841478">
        <ele>776.292398</ele>
        <time>2020-08-05T07:35:22.939Z</time>
      </trkpt>
      <trkpt lat="38.904791" lon="-1.841629">
        <ele>776.635268</ele>
        <time>2020-08-05T07:35:26.957Z</time>
      </trkpt>
      <trkpt lat="38.904770" lon="-1.841758">
        <ele>776.934481</ele>
        <time>2020-08-05T07:35:29.945Z</time>
      </trkpt>
      <trkpt lat="38.904744" lon="-1.841897">
        <ele>777.259047</ele>
        <time>2020-08-05T07:35:33.929Z</time>
      </trkpt>
      <trkpt lat="38.904752" lon="-1.842021">
        <ele>777.541534</ele>
        <time>2020-08-05T07:35:37.933Z</time>
      </trkpt>
      <trkpt lat="38.904734" lon="-1.842154">
        <ele>777.848022</ele>
        <time>2020-08-05T07:35:42.948Z</time>
      </trkpt>
      <trkpt lat="38.904675" lon="-1.842253">
        <ele>778.131125</ele>
        <time>2020-08-05T07:35:46.951Z</time>
      </trkpt>
      <trkpt lat="38.904712" lon="-1.842364">
        <ele>778.405279</ele>
        <time>2020-08-05T07:35:52.926Z</time>
      </trkpt>
      <trkpt lat="38.904822" lon="-1.842373">
        <ele>778.726849</ele>
        <time>2020-08-05T07:35:57.935Z</time>
      </trkpt>
      <trkpt lat="38.904920" lon="-1.842399">
        <ele>779.018789</ele>
        <time>2020-08-05T07:36:02.937Z</time>
      </trkpt>
      <trkpt lat="38.905018" lon="-1.842447">
        <ele>779.324764</ele>
        <time>2020-08-05T07:36:07.952Z</time>
      </trkpt>
      <trkpt lat="38.905092" lon="-1.842527">
        <ele>779.570938</ele>
        <time>2020-08-05T07:36:11.927Z</time>
      </trkpt>
      <trkpt lat="38.905147" lon="-1.842637">
        <ele>779.675828</ele>
        <time>2020-08-05T07:36:15.931Z</time>
      </trkpt>
      <trkpt lat="38.905237" lon="-1.842711">
        <ele>779.785974</ele>
        <time>2020-08-05T07:36:20.928Z</time>
      </trkpt>
      <trkpt lat="38.905326" lon="-1.842738">
        <ele>779.880245</ele>
        <time>2020-08-05T07:36:25.945Z</time>
      </trkpt>
      <trkpt lat="38.905421" lon="-1.842773">
        <ele>779.982125</ele>
        <time>2020-08-05T07:36:30.954Z</time>
      </trkpt>
      <trkpt lat="38.905520" lon="-1.842809">
        <ele>780.088190</ele>
        <time>2020-08-05T07:36:35.938Z</time>
      </trkpt>
      <trkpt lat="38.905604" lon="-1.842871">
        <ele>780.188052</ele>
        <time>2020-08-05T07:36:40.920Z</time>
      </trkpt>
      <trkpt lat="38.905684" lon="-1.842966">
        <ele>780.300344</ele>
        <time>2020-08-05T07:36:45.957Z</time>
      </trkpt>
      <trkpt lat="38.905687" lon="-1.843084">
        <ele>780.395056</ele>
        <time>2020-08-05T07:36:48.932Z</time>
      </trkpt>
      <trkpt lat="38.905640" lon="-1.843216">
        <ele>780.511507</ele>
        <time>2020-08-05T07:36:51.950Z</time>
      </trkpt>
      <trkpt lat="38.905586" lon="-1.843342">
        <ele>780.626902</ele>
        <time>2020-08-05T07:36:54.925Z</time>
      </trkpt>
      <trkpt lat="38.905526" lon="-1.843465">
        <ele>780.743358</ele>
        <time>2020-08-05T07:36:57.929Z</time>
      </trkpt>
      <trkpt lat="38.905467" lon="-1.843582">
        <ele>780.855202</ele>
        <time>2020-08-05T07:37:00.943Z</time>
      </trkpt>
      <trkpt lat="38.905405" lon="-1.843697">
        <ele>780.967434</ele>
        <time>2020-08-05T07:37:03.950Z</time>
      </trkpt>
      <trkpt lat="38.905346" lon="-1.843824">
        <ele>781.086090</ele>
        <time>2020-08-05T07:37:06.925Z</time>
      </trkpt>
      <trkpt lat="38.905310" lon="-1.843930">
        <ele>781.178871</ele>
        <time>2020-08-05T07:37:09.930Z</time>
      </trkpt>
      <trkpt lat="38.905243" lon="-1.844055">
        <ele>781.300634</ele>
        <time>2020-08-05T07:37:13.926Z</time>
      </trkpt>
      <trkpt lat="38.905162" lon="-1.844168">
        <ele>781.562581</ele>
        <time>2020-08-05T07:37:17.928Z</time>
      </trkpt>
      <trkpt lat="38.905114" lon="-1.844292">
        <ele>782.511400</ele>
        <time>2020-08-05T07:37:21.960Z</time>
      </trkpt>
      <trkpt lat="38.905068" lon="-1.844416">
        <ele>783.452510</ele>
        <time>2020-08-05T07:37:24.933Z</time>
      </trkpt>
      <trkpt lat="38.905018" lon="-1.844533">
        <ele>784.366988</ele>
        <time>2020-08-05T07:37:27.923Z</time>
      </trkpt>
      <trkpt lat="38.904962" lon="-1.844644">
        <ele>785.273275</ele>
        <time>2020-08-05T07:37:30.936Z</time>
      </trkpt>
      <trkpt lat="38.904894" lon="-1.844764">
        <ele>786.290264</ele>
        <time>2020-08-05T07:37:33.930Z</time>
      </trkpt>
      <trkpt lat="38.904855" lon="-1.844897">
        <ele>787.263989</ele>
        <time>2020-08-05T07:37:36.936Z</time>
      </trkpt>
      <trkpt lat="38.904813" lon="-1.845030">
        <ele>788.247337</ele>
        <time>2020-08-05T07:37:39.932Z</time>
      </trkpt>
      <trkpt lat="38.904791" lon="-1.845157">
        <ele>789.138710</ele>
        <time>2020-08-05T07:37:42.936Z</time>
      </trkpt>
      <trkpt lat="38.904765" lon="-1.845285">
        <ele>790.045020</ele>
        <time>2020-08-05T07:37:45.935Z</time>
      </trkpt>
      <trkpt lat="38.904711" lon="-1.845377">
        <ele>790.834498</ele>
        <time>2020-08-05T07:37:47.933Z</time>
      </trkpt>
      <trkpt lat="38.904641" lon="-1.845502">
        <ele>791.889562</ele>
        <time>2020-08-05T07:37:50.935Z</time>
      </trkpt>
      <trkpt lat="38.904596" lon="-1.845664">
        <ele>793.068015</ele>
        <time>2020-08-05T07:37:53.935Z</time>
      </trkpt>
      <trkpt lat="38.904550" lon="-1.845811">
        <ele>794.153488</ele>
        <time>2020-08-05T07:37:56.937Z</time>
      </trkpt>
      <trkpt lat="38.904516" lon="-1.845937">
        <ele>795.067141</ele>
        <time>2020-08-05T07:37:58.935Z</time>
      </trkpt>
      <trkpt lat="38.904453" lon="-1.846079">
        <ele>796.186985</ele>
        <time>2020-08-05T07:38:01.941Z</time>
      </trkpt>
      <trkpt lat="38.904427" lon="-1.846199">
        <ele>797.040380</ele>
        <time>2020-08-05T07:38:03.939Z</time>
      </trkpt>
      <trkpt lat="38.904366" lon="-1.846314">
        <ele>796.920969</ele>
        <time>2020-08-05T07:38:06.940Z</time>
      </trkpt>
      <trkpt lat="38.904317" lon="-1.846480">
        <ele>796.405531</ele>
        <time>2020-08-05T07:38:09.930Z</time>
      </trkpt>
      <trkpt lat="38.904272" lon="-1.846607">
        <ele>796.000403</ele>
        <time>2020-08-05T07:38:11.936Z</time>
      </trkpt>
      <trkpt lat="38.904195" lon="-1.846714">
        <ele>795.577296</ele>
        <time>2020-08-05T07:38:13.957Z</time>
      </trkpt>
      <trkpt lat="38.904142" lon="-1.846812">
        <ele>795.230821</ele>
        <time>2020-08-05T07:38:15.934Z</time>
      </trkpt>
      <trkpt lat="38.904110" lon="-1.846920">
        <ele>794.895316</ele>
        <time>2020-08-05T07:38:17.934Z</time>
      </trkpt>
      <trkpt lat="38.904084" lon="-1.847056">
        <ele>794.488738</ele>
        <time>2020-08-05T07:38:19.952Z</time>
      </trkpt>
      <trkpt lat="38.904048" lon="-1.847177">
        <ele>794.112651</ele>
        <time>2020-08-05T07:38:21.946Z</time>
      </trkpt>
      <trkpt lat="38.904005" lon="-1.847314">
        <ele>793.683777</ele>
        <time>2020-08-05T07:38:24.954Z</time>
      </trkpt>
      <trkpt lat="38.903920" lon="-1.847423">
        <ele>793.235782</ele>
        <time>2020-08-05T07:38:27.936Z</time>
      </trkpt>
      <trkpt lat="38.903838" lon="-1.847535">
        <ele>792.789336</ele>
        <time>2020-08-05T07:38:30.946Z</time>
      </trkpt>
      <trkpt lat="38.903772" lon="-1.847651">
        <ele>792.372150</ele>
        <time>2020-08-05T07:38:33.945Z</time>
      </trkpt>
      <trkpt lat="38.903684" lon="-1.847699">
        <ele>792.015497</ele>
        <time>2020-08-05T07:38:35.937Z</time>
      </trkpt>
      <trkpt lat="38.903593" lon="-1.847818">
        <ele>791.531126</ele>
        <time>2020-08-05T07:38:38.925Z</time>
      </trkpt>
      <trkpt lat="38.903504" lon="-1.847942">
        <ele>791.041385</ele>
        <time>2020-08-05T07:38:41.955Z</time>
      </trkpt>
      <trkpt lat="38.903443" lon="-1.848078">
        <ele>790.585657</ele>
        <time>2020-08-05T07:38:44.955Z</time>
      </trkpt>
      <trkpt lat="38.903419" lon="-1.848211">
        <ele>791.609612</ele>
        <time>2020-08-05T07:38:47.952Z</time>
      </trkpt>
      <trkpt lat="38.903406" lon="-1.848341">
        <ele>792.814789</ele>
        <time>2020-08-05T07:38:50.941Z</time>
      </trkpt>
      <trkpt lat="38.903363" lon="-1.848448">
        <ele>793.922095</ele>
        <time>2020-08-05T07:38:53.943Z</time>
      </trkpt>
      <trkpt lat="38.903290" lon="-1.848569">
        <ele>795.329876</ele>
        <time>2020-08-05T07:38:56.946Z</time>
      </trkpt>
      <trkpt lat="38.903205" lon="-1.848671">
        <ele>796.704036</ele>
        <time>2020-08-05T07:38:59.941Z</time>
      </trkpt>
      <trkpt lat="38.903123" lon="-1.848795">
        <ele>798.200281</ele>
        <time>2020-08-05T07:39:02.939Z</time>
      </trkpt>
      <trkpt lat="38.903098" lon="-1.848967">
        <ele>799.809176</ele>
        <time>2020-08-05T07:39:05.934Z</time>
      </trkpt>
      <trkpt lat="38.903065" lon="-1.849081">
        <ele>800.927580</ele>
        <time>2020-08-05T07:39:07.930Z</time>
      </trkpt>
      <trkpt lat="38.903013" lon="-1.849226">
        <ele>802.395620</ele>
        <time>2020-08-05T07:39:10.933Z</time>
      </trkpt>
      <trkpt lat="38.902956" lon="-1.849368">
        <ele>803.864781</ele>
        <time>2020-08-05T07:39:13.950Z</time>
      </trkpt>
      <trkpt lat="38.902908" lon="-1.849467">
        <ele>804.937313</ele>
        <time>2020-08-05T07:39:15.946Z</time>
      </trkpt>
      <trkpt lat="38.902846" lon="-1.849590">
        <ele>806.284830</ele>
        <time>2020-08-05T07:39:18.928Z</time>
      </trkpt>
      <trkpt lat="38.902767" lon="-1.849680">
        <ele>807.532288</ele>
        <time>2020-08-05T07:39:21.935Z</time>
      </trkpt>
      <trkpt lat="38.902681" lon="-1.849789">
        <ele>808.959552</ele>
        <time>2020-08-05T07:39:24.939Z</time>
      </trkpt>
      <trkpt lat="38.902651" lon="-1.849928">
        <ele>810.285912</ele>
        <time>2020-08-05T07:39:27.949Z</time>
      </trkpt>
      <trkpt lat="38.902674" lon="-1.850071">
        <ele>811.628600</ele>
        <time>2020-08-05T07:39:29.949Z</time>
      </trkpt>
      <trkpt lat="38.902663" lon="-1.850216">
        <ele>811.187411</ele>
        <time>2020-08-05T07:39:31.939Z</time>
      </trkpt>
      <trkpt lat="38.902561" lon="-1.850273">
        <ele>810.528274</ele>
        <time>2020-08-05T07:39:33.960Z</time>
      </trkpt>
      <trkpt lat="38.902500" lon="-1.850420">
        <ele>809.759997</ele>
        <time>2020-08-05T07:39:36.938Z</time>
      </trkpt>
      <trkpt lat="38.902440" lon="-1.850569">
        <ele>808.986310</ele>
        <time>2020-08-05T07:39:39.923Z</time>
      </trkpt>
      <trkpt lat="38.902383" lon="-1.850678">
        <ele>808.380685</ele>
        <time>2020-08-05T07:39:41.942Z</time>
      </trkpt>
      <trkpt lat="38.902344" lon="-1.850784">
        <ele>807.839963</ele>
        <time>2020-08-05T07:39:43.957Z</time>
      </trkpt>
      <trkpt lat="38.902298" lon="-1.850887">
        <ele>807.292295</ele>
        <time>2020-08-05T07:39:45.943Z</time>
      </trkpt>
      <trkpt lat="38.902257" lon="-1.850991">
        <ele>806.754645</ele>
        <time>2020-08-05T07:39:47.918Z</time>
      </trkpt>
      <trkpt lat="38.902160" lon="-1.851144">
        <ele>805.844544</ele>
        <time>2020-08-05T07:39:50.925Z</time>
      </trkpt>
      <trkpt lat="38.902087" lon="-1.851277">
        <ele>805.093975</ele>
        <time>2020-08-05T07:39:53.926Z</time>
      </trkpt>
      <trkpt lat="38.902042" lon="-1.851419">
        <ele>804.386894</ele>
        <time>2020-08-05T07:39:55.941Z</time>
      </trkpt>
      <trkpt lat="38.902005" lon="-1.851526">
        <ele>803.846918</ele>
        <time>2020-08-05T07:39:57.930Z</time>
      </trkpt>
      <trkpt lat="38.901923" lon="-1.851660">
        <ele>803.060774</ele>
        <time>2020-08-05T07:40:00.948Z</time>
      </trkpt>
      <trkpt lat="38.901852" lon="-1.851749">
        <ele>802.472987</ele>
        <time>2020-08-05T07:40:02.930Z</time>
      </trkpt>
      <trkpt lat="38.901742" lon="-1.851745">
        <ele>801.820866</ele>
        <time>2020-08-05T07:40:04.931Z</time>
      </trkpt>
      <trkpt lat="38.901659" lon="-1.851798">
        <ele>801.271623</ele>
        <time>2020-08-05T07:40:07.926Z</time>
      </trkpt>
      <trkpt lat="38.901521" lon="-1.851787">
        <ele>799.889243</ele>
        <time>2020-08-05T07:40:10.936Z</time>
      </trkpt>
      <trkpt lat="38.901391" lon="-1.851762">
        <ele>798.456868</ele>
        <time>2020-08-05T07:40:12.927Z</time>
      </trkpt>
      <trkpt lat="38.901261" lon="-1.851767">
        <ele>797.039635</ele>
        <time>2020-08-05T07:40:15.944Z</time>
      </trkpt>
      <trkpt lat="38.901132" lon="-1.851758">
        <ele>795.631863</ele>
        <time>2020-08-05T07:40:17.931Z</time>
      </trkpt>
      <trkpt lat="38.901026" lon="-1.851772">
        <ele>794.470704</ele>
        <time>2020-08-05T07:40:19.945Z</time>
      </trkpt>
      <trkpt lat="38.900923" lon="-1.851787">
        <ele>793.341137</ele>
        <time>2020-08-05T07:40:21.948Z</time>
      </trkpt>
      <trkpt lat="38.900835" lon="-1.851831">
        <ele>792.312170</ele>
        <time>2020-08-05T07:40:23.945Z</time>
      </trkpt>
      <trkpt lat="38.900734" lon="-1.851855">
        <ele>791.192921</ele>
        <time>2020-08-05T07:40:25.949Z</time>
      </trkpt>
      <trkpt lat="38.900541" lon="-1.851891">
        <ele>789.067773</ele>
        <time>2020-08-05T07:40:29.924Z</time>
      </trkpt>
      <trkpt lat="38.900417" lon="-1.851895">
        <ele>787.716131</ele>
        <time>2020-08-05T07:40:32.958Z</time>
      </trkpt>
      <trkpt lat="38.900313" lon="-1.851893">
        <ele>786.582725</ele>
        <time>2020-08-05T07:40:35.929Z</time>
      </trkpt>
      <trkpt lat="38.900205" lon="-1.851830">
        <ele>785.290264</ele>
        <time>2020-08-05T07:40:37.939Z</time>
      </trkpt>
      <trkpt lat="38.900106" lon="-1.851782">
        <ele>784.137226</ele>
        <time>2020-08-05T07:40:39.941Z</time>
      </trkpt>
      <trkpt lat="38.899992" lon="-1.851791">
        <ele>782.892636</ele>
        <time>2020-08-05T07:40:42.940Z</time>
      </trkpt>
      <trkpt lat="38.899897" lon="-1.851809">
        <ele>781.846235</ele>
        <time>2020-08-05T07:40:45.939Z</time>
      </trkpt>
      <trkpt lat="38.899830" lon="-1.851912">
        <ele>781.295621</ele>
        <time>2020-08-05T07:40:49.941Z</time>
      </trkpt>
      <trkpt lat="38.899803" lon="-1.852059">
        <ele>780.937443</ele>
        <time>2020-08-05T07:40:54.946Z</time>
      </trkpt>
      <trkpt lat="38.899790" lon="-1.852194">
        <ele>780.614858</ele>
        <time>2020-08-05T07:40:57.938Z</time>
      </trkpt>
      <trkpt lat="38.899787" lon="-1.852325">
        <ele>780.304065</ele>
        <time>2020-08-05T07:41:00.949Z</time>
      </trkpt>
      <trkpt lat="38.899781" lon="-1.852455">
        <ele>779.995237</ele>
        <time>2020-08-05T07:41:03.933Z</time>
      </trkpt>
      <trkpt lat="38.899762" lon="-1.852606">
        <ele>779.632500</ele>
        <time>2020-08-05T07:41:06.922Z</time>
      </trkpt>
      <trkpt lat="38.899718" lon="-1.852771">
        <ele>779.218880</ele>
        <time>2020-08-05T07:41:09.949Z</time>
      </trkpt>
      <trkpt lat="38.899706" lon="-1.852889">
        <ele>778.936671</ele>
        <time>2020-08-05T07:41:11.939Z</time>
      </trkpt>
      <trkpt lat="38.899696" lon="-1.853020">
        <ele>778.624522</ele>
        <time>2020-08-05T07:41:13.931Z</time>
      </trkpt>
      <trkpt lat="38.899671" lon="-1.853155">
        <ele>778.295439</ele>
        <time>2020-08-05T07:41:15.955Z</time>
      </trkpt>
      <trkpt lat="38.899659" lon="-1.853273">
        <ele>778.013230</ele>
        <time>2020-08-05T07:41:17.947Z</time>
      </trkpt>
      <trkpt lat="38.899635" lon="-1.853394">
        <ele>777.717113</ele>
        <time>2020-08-05T07:41:19.935Z</time>
      </trkpt>
      <trkpt lat="38.899616" lon="-1.853512">
        <ele>777.431356</ele>
        <time>2020-08-05T07:41:21.928Z</time>
      </trkpt>
      <trkpt lat="38.899575" lon="-1.853644">
        <ele>777.094316</ele>
        <time>2020-08-05T07:41:23.934Z</time>
      </trkpt>
      <trkpt lat="38.899561" lon="-1.853786">
        <ele>776.754880</ele>
        <time>2020-08-05T07:41:25.934Z</time>
      </trkpt>
      <trkpt lat="38.899571" lon="-1.853916">
        <ele>776.445090</ele>
        <time>2020-08-05T07:41:27.924Z</time>
      </trkpt>
      <trkpt lat="38.899590" lon="-1.854041">
        <ele>776.143058</ele>
        <time>2020-08-05T07:41:29.938Z</time>
      </trkpt>
      <trkpt lat="38.899625" lon="-1.854183">
        <ele>776.001029</ele>
        <time>2020-08-05T07:41:31.932Z</time>
      </trkpt>
      <trkpt lat="38.899638" lon="-1.854306">
        <ele>775.952175</ele>
        <time>2020-08-05T07:41:33.945Z</time>
      </trkpt>
      <trkpt lat="38.899680" lon="-1.854432">
        <ele>775.898229</ele>
        <time>2020-08-05T07:41:35.952Z</time>
      </trkpt>
      <trkpt lat="38.899718" lon="-1.854578">
        <ele>775.837640</ele>
        <time>2020-08-05T07:41:37.926Z</time>
      </trkpt>
      <trkpt lat="38.899695" lon="-1.854742">
        <ele>775.772055</ele>
        <time>2020-08-05T07:41:39.934Z</time>
      </trkpt>
      <trkpt lat="38.899714" lon="-1.854866">
        <ele>775.722316</ele>
        <time>2020-08-05T07:41:41.944Z</time>
      </trkpt>
      <trkpt lat="38.899727" lon="-1.855006">
        <ele>775.666826</ele>
        <time>2020-08-05T07:41:43.926Z</time>
      </trkpt>
      <trkpt lat="38.899736" lon="-1.855151">
        <ele>775.609577</ele>
        <time>2020-08-05T07:41:45.938Z</time>
      </trkpt>
      <trkpt lat="38.899737" lon="-1.855292">
        <ele>775.554082</ele>
        <time>2020-08-05T07:41:47.933Z</time>
      </trkpt>
      <trkpt lat="38.899772" lon="-1.855421">
        <ele>775.500315</ele>
        <time>2020-08-05T07:41:49.938Z</time>
      </trkpt>
      <trkpt lat="38.899777" lon="-1.855604">
        <ele>775.428248</ele>
        <time>2020-08-05T07:41:51.932Z</time>
      </trkpt>
      <trkpt lat="38.899782" lon="-1.855760">
        <ele>775.366800</ele>
        <time>2020-08-05T07:41:53.945Z</time>
      </trkpt>
      <trkpt lat="38.899841" lon="-1.855925">
        <ele>775.295335</ele>
        <time>2020-08-05T07:41:55.945Z</time>
      </trkpt>
      <trkpt lat="38.899775" lon="-1.856047">
        <ele>775.236859</ele>
        <time>2020-08-05T07:41:57.939Z</time>
      </trkpt>
      <trkpt lat="38.899745" lon="-1.856206">
        <ele>775.172469</ele>
        <time>2020-08-05T07:41:59.944Z</time>
      </trkpt>
      <trkpt lat="38.899816" lon="-1.856367">
        <ele>775.055341</ele>
        <time>2020-08-05T07:42:02.938Z</time>
      </trkpt>
      <trkpt lat="38.899781" lon="-1.856544">
        <ele>774.889335</ele>
        <time>2020-08-05T07:42:04.960Z</time>
      </trkpt>
      <trkpt lat="38.899813" lon="-1.856708">
        <ele>774.735644</ele>
        <time>2020-08-05T07:42:07.927Z</time>
      </trkpt>
      <trkpt lat="38.899815" lon="-1.856868">
        <ele>774.590185</ele>
        <time>2020-08-05T07:42:09.934Z</time>
      </trkpt>
      <trkpt lat="38.899821" lon="-1.857002">
        <ele>774.468177</ele>
        <time>2020-08-05T07:42:11.935Z</time>
      </trkpt>
      <trkpt lat="38.899856" lon="-1.857135">
        <ele>774.340555</ele>
        <time>2020-08-05T07:42:13.927Z</time>
      </trkpt>
      <trkpt lat="38.899861" lon="-1.857276">
        <ele>774.212253</ele>
        <time>2020-08-05T07:42:15.956Z</time>
      </trkpt>
      <trkpt lat="38.899857" lon="-1.857410">
        <ele>774.090357</ele>
        <time>2020-08-05T07:42:17.944Z</time>
      </trkpt>
      <trkpt lat="38.899850" lon="-1.857543">
        <ele>773.969183</ele>
        <time>2020-08-05T07:42:19.945Z</time>
      </trkpt>
      <trkpt lat="38.899883" lon="-1.857674">
        <ele>773.844021</ele>
        <time>2020-08-05T07:42:21.962Z</time>
      </trkpt>
      <trkpt lat="38.899864" lon="-1.857804">
        <ele>773.723785</ele>
        <time>2020-08-05T07:42:23.937Z</time>
      </trkpt>
      <trkpt lat="38.899860" lon="-1.857932">
        <ele>773.607339</ele>
        <time>2020-08-05T07:42:25.944Z</time>
      </trkpt>
      <trkpt lat="38.899845" lon="-1.858068">
        <ele>773.482479</ele>
        <time>2020-08-05T07:42:27.940Z</time>
      </trkpt>
      <trkpt lat="38.899869" lon="-1.858196">
        <ele>773.362798</ele>
        <time>2020-08-05T07:42:29.939Z</time>
      </trkpt>
      <trkpt lat="38.899864" lon="-1.858325">
        <ele>773.245391</ele>
        <time>2020-08-05T07:42:31.943Z</time>
      </trkpt>
      <trkpt lat="38.899865" lon="-1.858443">
        <ele>773.138123</ele>
        <time>2020-08-05T07:42:33.936Z</time>
      </trkpt>
      <trkpt lat="38.899888" lon="-1.858564">
        <ele>773.033600</ele>
        <time>2020-08-05T07:42:35.930Z</time>
      </trkpt>
      <trkpt lat="38.899880" lon="-1.858682">
        <ele>773.047295</ele>
        <time>2020-08-05T07:42:37.938Z</time>
      </trkpt>
      <trkpt lat="38.899890" lon="-1.858814">
        <ele>773.062630</ele>
        <time>2020-08-05T07:42:39.944Z</time>
      </trkpt>
      <trkpt lat="38.899900" lon="-1.858945">
        <ele>773.077849</ele>
        <time>2020-08-05T07:42:41.935Z</time>
      </trkpt>
      <trkpt lat="38.899897" lon="-1.859082">
        <ele>773.093696</ele>
        <time>2020-08-05T07:42:43.938Z</time>
      </trkpt>
      <trkpt lat="38.899901" lon="-1.859213">
        <ele>773.108855</ele>
        <time>2020-08-05T07:42:45.955Z</time>
      </trkpt>
      <trkpt lat="38.899910" lon="-1.859329">
        <ele>773.122334</ele>
        <time>2020-08-05T07:42:47.934Z</time>
      </trkpt>
      <trkpt lat="38.899891" lon="-1.859453">
        <ele>773.136947</ele>
        <time>2020-08-05T07:42:49.929Z</time>
      </trkpt>
      <trkpt lat="38.899898" lon="-1.859598">
        <ele>773.153744</ele>
        <time>2020-08-05T07:42:51.939Z</time>
      </trkpt>
      <trkpt lat="38.899927" lon="-1.859715">
        <ele>773.167942</ele>
        <time>2020-08-05T07:42:53.941Z</time>
      </trkpt>
      <trkpt lat="38.899937" lon="-1.859850">
        <ele>773.183622</ele>
        <time>2020-08-05T07:42:55.932Z</time>
      </trkpt>
      <trkpt lat="38.899934" lon="-1.860031">
        <ele>773.204555</ele>
        <time>2020-08-05T07:42:58.935Z</time>
      </trkpt>
      <trkpt lat="38.899933" lon="-1.860201">
        <ele>773.224212</ele>
        <time>2020-08-05T07:43:01.947Z</time>
      </trkpt>
      <trkpt lat="38.899937" lon="-1.860339">
        <ele>773.240179</ele>
        <time>2020-08-05T07:43:03.950Z</time>
      </trkpt>
      <trkpt lat="38.899949" lon="-1.860516">
        <ele>773.260722</ele>
        <time>2020-08-05T07:43:06.952Z</time>
      </trkpt>
      <trkpt lat="38.899950" lon="-1.860654">
        <ele>773.276679</ele>
        <time>2020-08-05T07:43:08.932Z</time>
      </trkpt>
      <trkpt lat="38.899965" lon="-1.860773">
        <ele>773.290618</ele>
        <time>2020-08-05T07:43:10.957Z</time>
      </trkpt>
      <trkpt lat="38.899971" lon="-1.860953">
        <ele>773.704367</ele>
        <time>2020-08-05T07:43:13.932Z</time>
      </trkpt>
      <trkpt lat="38.899960" lon="-1.861073">
        <ele>774.191404</ele>
        <time>2020-08-05T07:43:15.955Z</time>
      </trkpt>
      <trkpt lat="38.899967" lon="-1.861199">
        <ele>774.700575</ele>
        <time>2020-08-05T07:43:17.952Z</time>
      </trkpt>
      <trkpt lat="38.899914" lon="-1.861327">
        <ele>775.284995</ele>
        <time>2020-08-05T07:43:22.961Z</time>
      </trkpt>
      <trkpt lat="38.899824" lon="-1.861364">
        <ele>775.774411</ele>
        <time>2020-08-05T07:43:29.931Z</time>
      </trkpt>
      <trkpt lat="38.899490" lon="-1.861355">
        <ele>777.504687</ele>
        <time>2020-08-05T07:44:04.849Z</time>
      </trkpt>
      <trkpt lat="38.899392" lon="-1.861358">
        <ele>778.012405</ele>
        <time>2020-08-05T07:44:07.847Z</time>
      </trkpt>
      <trkpt lat="38.899299" lon="-1.861365">
        <ele>778.494909</ele>
        <time>2020-08-05T07:44:10.875Z</time>
      </trkpt>
      <trkpt lat="38.899197" lon="-1.861385">
        <ele>779.029316</ele>
        <time>2020-08-05T07:44:13.852Z</time>
      </trkpt>
      <trkpt lat="38.899085" lon="-1.861398">
        <ele>779.611762</ele>
        <time>2020-08-05T07:44:16.875Z</time>
      </trkpt>
      <trkpt lat="38.898977" lon="-1.861394">
        <ele>780.171362</ele>
        <time>2020-08-05T07:44:19.843Z</time>
      </trkpt>
      <trkpt lat="38.898874" lon="-1.861392">
        <ele>780.704894</ele>
        <time>2020-08-05T07:44:22.845Z</time>
      </trkpt>
      <trkpt lat="38.898774" lon="-1.861383">
        <ele>781.224095</ele>
        <time>2020-08-05T07:44:25.841Z</time>
      </trkpt>
      <trkpt lat="38.898683" lon="-1.861370">
        <ele>781.698318</ele>
        <time>2020-08-05T07:44:28.840Z</time>
      </trkpt>
      <trkpt lat="38.898593" lon="-1.861402">
        <ele>782.181975</ele>
        <time>2020-08-05T07:44:31.852Z</time>
      </trkpt>
      <trkpt lat="38.898483" lon="-1.861429">
        <ele>782.433865</ele>
        <time>2020-08-05T07:44:34.852Z</time>
      </trkpt>
      <trkpt lat="38.898362" lon="-1.861429">
        <ele>781.655841</ele>
        <time>2020-08-05T07:44:37.853Z</time>
      </trkpt>
      <trkpt lat="38.898250" lon="-1.861408">
        <ele>780.928060</ele>
        <time>2020-08-05T07:44:40.853Z</time>
      </trkpt>
      <trkpt lat="38.898144" lon="-1.861391">
        <ele>780.241197</ele>
        <time>2020-08-05T07:44:43.848Z</time>
      </trkpt>
      <trkpt lat="38.898030" lon="-1.861393">
        <ele>779.508114</ele>
        <time>2020-08-05T07:44:46.860Z</time>
      </trkpt>
      <trkpt lat="38.897917" lon="-1.861394">
        <ele>778.781512</ele>
        <time>2020-08-05T07:44:49.864Z</time>
      </trkpt>
      <trkpt lat="38.897804" lon="-1.861410">
        <ele>778.050529</ele>
        <time>2020-08-05T07:44:52.865Z</time>
      </trkpt>
      <trkpt lat="38.897671" lon="-1.861412">
        <ele>777.195287</ele>
        <time>2020-08-05T07:44:55.850Z</time>
      </trkpt>
      <trkpt lat="38.897547" lon="-1.861415">
        <ele>776.397832</ele>
        <time>2020-08-05T07:44:58.852Z</time>
      </trkpt>
      <trkpt lat="38.897417" lon="-1.861414">
        <ele>775.561924</ele>
        <time>2020-08-05T07:45:01.857Z</time>
      </trkpt>
      <trkpt lat="38.897288" lon="-1.861404">
        <ele>774.730952</ele>
        <time>2020-08-05T07:45:04.853Z</time>
      </trkpt>
      <trkpt lat="38.897173" lon="-1.861393">
        <ele>773.989461</ele>
        <time>2020-08-05T07:45:07.860Z</time>
      </trkpt>
      <trkpt lat="38.897058" lon="-1.861392">
        <ele>773.250000</ele>
        <time>2020-08-05T07:45:10.849Z</time>
      </trkpt>
      <trkpt lat="38.896951" lon="-1.861398">
        <ele>772.561340</ele>
        <time>2020-08-05T07:45:13.850Z</time>
      </trkpt>
      <trkpt lat="38.896842" lon="-1.861397">
        <ele>771.860458</ele>
        <time>2020-08-05T07:45:16.842Z</time>
      </trkpt>
      <trkpt lat="38.896735" lon="-1.861404">
        <ele>771.171562</ele>
        <time>2020-08-05T07:45:19.854Z</time>
      </trkpt>
      <trkpt lat="38.896639" lon="-1.861410">
        <ele>771.015097</ele>
        <time>2020-08-05T07:45:22.868Z</time>
      </trkpt>
      <trkpt lat="38.896525" lon="-1.861414">
        <ele>770.962964</ele>
        <time>2020-08-05T07:45:26.858Z</time>
      </trkpt>
      <trkpt lat="38.896432" lon="-1.861419">
        <ele>770.920413</ele>
        <time>2020-08-05T07:45:29.845Z</time>
      </trkpt>
      <trkpt lat="38.896317" lon="-1.861468">
        <ele>770.865027</ele>
        <time>2020-08-05T07:45:33.850Z</time>
      </trkpt>
      <trkpt lat="38.896215" lon="-1.861459">
        <ele>770.818289</ele>
        <time>2020-08-05T07:45:37.864Z</time>
      </trkpt>
      <trkpt lat="38.896095" lon="-1.861472">
        <ele>770.763238</ele>
        <time>2020-08-05T07:45:41.853Z</time>
      </trkpt>
      <trkpt lat="38.895988" lon="-1.861490">
        <ele>770.713907</ele>
        <time>2020-08-05T07:45:44.851Z</time>
      </trkpt>
      <trkpt lat="38.895877" lon="-1.861505">
        <ele>770.662885</ele>
        <time>2020-08-05T07:45:47.859Z</time>
      </trkpt>
      <trkpt lat="38.895783" lon="-1.861525">
        <ele>770.619329</ele>
        <time>2020-08-05T07:45:50.858Z</time>
      </trkpt>
      <trkpt lat="38.895662" lon="-1.861536">
        <ele>770.563878</ele>
        <time>2020-08-05T07:45:54.846Z</time>
      </trkpt>
      <trkpt lat="38.895569" lon="-1.861525">
        <ele>770.521184</ele>
        <time>2020-08-05T07:45:57.857Z</time>
      </trkpt>
      <trkpt lat="38.895475" lon="-1.861527">
        <ele>770.478207</ele>
        <time>2020-08-05T07:46:00.840Z</time>
      </trkpt>
      <trkpt lat="38.895379" lon="-1.861531">
        <ele>770.434299</ele>
        <time>2020-08-05T07:46:03.857Z</time>
      </trkpt>
      <trkpt lat="38.895280" lon="-1.861526">
        <ele>770.389008</ele>
        <time>2020-08-05T07:46:06.851Z</time>
      </trkpt>
      <trkpt lat="38.895173" lon="-1.861539">
        <ele>770.339876</ele>
        <time>2020-08-05T07:46:09.845Z</time>
      </trkpt>
      <trkpt lat="38.895075" lon="-1.861571">
        <ele>770.293653</ele>
        <time>2020-08-05T07:46:12.839Z</time>
      </trkpt>
      <trkpt lat="38.894976" lon="-1.861583">
        <ele>770.248195</ele>
        <time>2020-08-05T07:46:15.847Z</time>
      </trkpt>
      <trkpt lat="38.894867" lon="-1.861577">
        <ele>770.188296</ele>
        <time>2020-08-05T07:46:18.846Z</time>
      </trkpt>
      <trkpt lat="38.894762" lon="-1.861582">
        <ele>770.124145</ele>
        <time>2020-08-05T07:46:21.853Z</time>
      </trkpt>
      <trkpt lat="38.894664" lon="-1.861588">
        <ele>770.064243</ele>
        <time>2020-08-05T07:46:24.856Z</time>
      </trkpt>
      <trkpt lat="38.894571" lon="-1.861597">
        <ele>770.007302</ele>
        <time>2020-08-05T07:46:27.846Z</time>
      </trkpt>
      <trkpt lat="38.894469" lon="-1.861648">
        <ele>769.940477</ele>
        <time>2020-08-05T07:46:31.841Z</time>
      </trkpt>
      <trkpt lat="38.894356" lon="-1.861666">
        <ele>769.870957</ele>
        <time>2020-08-05T07:46:34.867Z</time>
      </trkpt>
      <trkpt lat="38.894256" lon="-1.861671">
        <ele>769.809856</ele>
        <time>2020-08-05T07:46:37.838Z</time>
      </trkpt>
      <trkpt lat="38.894156" lon="-1.861680">
        <ele>769.748652</ele>
        <time>2020-08-05T07:46:40.845Z</time>
      </trkpt>
      <trkpt lat="38.894060" lon="-1.861700">
        <ele>769.689274</ele>
        <time>2020-08-05T07:46:43.846Z</time>
      </trkpt>
      <trkpt lat="38.893936" lon="-1.861703">
        <ele>769.613553</ele>
        <time>2020-08-05T07:46:47.853Z</time>
      </trkpt>
      <trkpt lat="38.893822" lon="-1.861701">
        <ele>769.543945</ele>
        <time>2020-08-05T07:46:50.850Z</time>
      </trkpt>
      <trkpt lat="38.893713" lon="-1.861707">
        <ele>769.477334</ele>
        <time>2020-08-05T07:46:53.870Z</time>
      </trkpt>
      <trkpt lat="38.893620" lon="-1.861709">
        <ele>769.420546</ele>
        <time>2020-08-05T07:46:56.863Z</time>
      </trkpt>
      <trkpt lat="38.893499" lon="-1.861719">
        <ele>769.346517</ele>
        <time>2020-08-05T07:47:00.859Z</time>
      </trkpt>
      <trkpt lat="38.893402" lon="-1.861733">
        <ele>769.286922</ele>
        <time>2020-08-05T07:47:03.856Z</time>
      </trkpt>
      <trkpt lat="38.893309" lon="-1.861746">
        <ele>769.229806</ele>
        <time>2020-08-05T07:47:06.846Z</time>
      </trkpt>
      <trkpt lat="38.893218" lon="-1.861746">
        <ele>769.174246</ele>
        <time>2020-08-05T07:47:09.846Z</time>
      </trkpt>
      <trkpt lat="38.893116" lon="-1.861749">
        <ele>769.138369</ele>
        <time>2020-08-05T07:47:12.863Z</time>
      </trkpt>
      <trkpt lat="38.893013" lon="-1.861765">
        <ele>769.167524</ele>
        <time>2020-08-05T07:47:15.859Z</time>
      </trkpt>
      <trkpt lat="38.892907" lon="-1.861772">
        <ele>769.197350</ele>
        <time>2020-08-05T07:47:18.862Z</time>
      </trkpt>
      <trkpt lat="38.892806" lon="-1.861797">
        <ele>769.226255</ele>
        <time>2020-08-05T07:47:21.849Z</time>
      </trkpt>
      <trkpt lat="38.892689" lon="-1.861821">
        <ele>769.259550</ele>
        <time>2020-08-05T07:47:24.844Z</time>
      </trkpt>
      <trkpt lat="38.892562" lon="-1.861850">
        <ele>769.295797</ele>
        <time>2020-08-05T07:47:27.868Z</time>
      </trkpt>
      <trkpt lat="38.892444" lon="-1.861876">
        <ele>769.329441</ele>
        <time>2020-08-05T07:47:30.857Z</time>
      </trkpt>
      <trkpt lat="38.892329" lon="-1.861900">
        <ele>769.362181</ele>
        <time>2020-08-05T07:47:33.853Z</time>
      </trkpt>
      <trkpt lat="38.892210" lon="-1.861903">
        <ele>769.395628</ele>
        <time>2020-08-05T07:47:36.852Z</time>
      </trkpt>
      <trkpt lat="38.892104" lon="-1.861894">
        <ele>769.425480</ele>
        <time>2020-08-05T07:47:39.864Z</time>
      </trkpt>
      <trkpt lat="38.892002" lon="-1.861893">
        <ele>769.454144</ele>
        <time>2020-08-05T07:47:42.858Z</time>
      </trkpt>
      <trkpt lat="38.891901" lon="-1.861889">
        <ele>769.482540</ele>
        <time>2020-08-05T07:47:45.865Z</time>
      </trkpt>
      <trkpt lat="38.891808" lon="-1.861901">
        <ele>769.508806</ele>
        <time>2020-08-05T07:47:48.865Z</time>
      </trkpt>
      <trkpt lat="38.891714" lon="-1.861910">
        <ele>769.535294</ele>
        <time>2020-08-05T07:47:51.876Z</time>
      </trkpt>
      <trkpt lat="38.891613" lon="-1.861929">
        <ele>769.563979</ele>
        <time>2020-08-05T07:47:54.854Z</time>
      </trkpt>
      <trkpt lat="38.891518" lon="-1.861952">
        <ele>769.591145</ele>
        <time>2020-08-05T07:47:57.875Z</time>
      </trkpt>
      <trkpt lat="38.891416" lon="-1.861971">
        <ele>769.620108</ele>
        <time>2020-08-05T07:48:00.875Z</time>
      </trkpt>
      <trkpt lat="38.891321" lon="-1.861994">
        <ele>769.646587</ele>
        <time>2020-08-05T07:48:03.860Z</time>
      </trkpt>
      <trkpt lat="38.891224" lon="-1.862021">
        <ele>769.672854</ele>
        <time>2020-08-05T07:48:06.859Z</time>
      </trkpt>
      <trkpt lat="38.891116" lon="-1.862030">
        <ele>769.701495</ele>
        <time>2020-08-05T07:48:09.863Z</time>
      </trkpt>
      <trkpt lat="38.891013" lon="-1.862032">
        <ele>769.728757</ele>
        <time>2020-08-05T07:48:12.857Z</time>
      </trkpt>
      <trkpt lat="38.890915" lon="-1.862027">
        <ele>769.754713</ele>
        <time>2020-08-05T07:48:15.860Z</time>
      </trkpt>
      <trkpt lat="38.890819" lon="-1.862019">
        <ele>769.780172</ele>
        <time>2020-08-05T07:48:18.847Z</time>
      </trkpt>
      <trkpt lat="38.890715" lon="-1.862033">
        <ele>769.807846</ele>
        <time>2020-08-05T07:48:21.837Z</time>
      </trkpt>
      <trkpt lat="38.890625" lon="-1.862038">
        <ele>769.831686</ele>
        <time>2020-08-05T07:48:24.851Z</time>
      </trkpt>
      <trkpt lat="38.890512" lon="-1.862049">
        <ele>769.861677</ele>
        <time>2020-08-05T07:48:29.856Z</time>
      </trkpt>
      <trkpt lat="38.890417" lon="-1.862095">
        <ele>769.888544</ele>
        <time>2020-08-05T07:48:33.861Z</time>
      </trkpt>
      <trkpt lat="38.890317" lon="-1.862107">
        <ele>769.915124</ele>
        <time>2020-08-05T07:48:37.867Z</time>
      </trkpt>
      <trkpt lat="38.890218" lon="-1.862119">
        <ele>769.941440</ele>
        <time>2020-08-05T07:48:41.866Z</time>
      </trkpt>
      <trkpt lat="38.890123" lon="-1.862158">
        <ele>769.967834</ele>
        <time>2020-08-05T07:48:45.864Z</time>
      </trkpt>
      <trkpt lat="38.890010" lon="-1.862183">
        <ele>769.998179</ele>
        <time>2020-08-05T07:48:50.861Z</time>
      </trkpt>
      <trkpt lat="38.889906" lon="-1.862196">
        <ele>770.025832</ele>
        <time>2020-08-05T07:48:54.865Z</time>
      </trkpt>
      <trkpt lat="38.889790" lon="-1.862212">
        <ele>770.056707</ele>
        <time>2020-08-05T07:48:58.847Z</time>
      </trkpt>
      <trkpt lat="38.889693" lon="-1.862212">
        <ele>770.082378</ele>
        <time>2020-08-05T07:49:02.859Z</time>
      </trkpt>
      <trkpt lat="38.889573" lon="-1.862211">
        <ele>770.133075</ele>
        <time>2020-08-05T07:49:07.854Z</time>
      </trkpt>
      <trkpt lat="38.889474" lon="-1.862192">
        <ele>770.348959</ele>
        <time>2020-08-05T07:49:11.848Z</time>
      </trkpt>
      <trkpt lat="38.889381" lon="-1.862215">
        <ele>770.553216</ele>
        <time>2020-08-05T07:49:15.846Z</time>
      </trkpt>
      <trkpt lat="38.889285" lon="-1.862244">
        <ele>770.765907</ele>
        <time>2020-08-05T07:49:20.851Z</time>
      </trkpt>
      <trkpt lat="38.889192" lon="-1.862252">
        <ele>770.966931</ele>
        <time>2020-08-05T07:49:25.855Z</time>
      </trkpt>
      <trkpt lat="38.889095" lon="-1.862261">
        <ele>771.176677</ele>
        <time>2020-08-05T07:49:32.845Z</time>
      </trkpt>
      <trkpt lat="38.888810" lon="-1.862268">
        <ele>771.791454</ele>
        <time>2020-08-05T07:52:42.844Z</time>
      </trkpt>
      <trkpt lat="38.888702" lon="-1.862273">
        <ele>772.024530</ele>
        <time>2020-08-05T07:52:46.846Z</time>
      </trkpt>
      <trkpt lat="38.888596" lon="-1.862261">
        <ele>772.254028</ele>
        <time>2020-08-05T07:52:50.864Z</time>
      </trkpt>
      <trkpt lat="38.888496" lon="-1.862245">
        <ele>772.471366</ele>
        <time>2020-08-05T07:52:54.840Z</time>
      </trkpt>
      <trkpt lat="38.888393" lon="-1.862262">
        <ele>772.695333</ele>
        <time>2020-08-05T07:52:58.855Z</time>
      </trkpt>
      <trkpt lat="38.888288" lon="-1.862268">
        <ele>772.922013</ele>
        <time>2020-08-05T07:53:02.858Z</time>
      </trkpt>
      <trkpt lat="38.888187" lon="-1.862279">
        <ele>773.140622</ele>
        <time>2020-08-05T07:53:05.855Z</time>
      </trkpt>
      <trkpt lat="38.888096" lon="-1.862298">
        <ele>773.339458</ele>
        <time>2020-08-05T07:53:08.849Z</time>
      </trkpt>
      <trkpt lat="38.887980" lon="-1.862325">
        <ele>773.593710</ele>
        <time>2020-08-05T07:53:12.861Z</time>
      </trkpt>
      <trkpt lat="38.887874" lon="-1.862345">
        <ele>773.824775</ele>
        <time>2020-08-05T07:53:16.854Z</time>
      </trkpt>
      <trkpt lat="38.887782" lon="-1.862357">
        <ele>774.028667</ele>
        <time>2020-08-05T07:53:19.854Z</time>
      </trkpt>
      <trkpt lat="38.887670" lon="-1.862381">
        <ele>774.306061</ele>
        <time>2020-08-05T07:53:23.870Z</time>
      </trkpt>
      <trkpt lat="38.887582" lon="-1.862410">
        <ele>774.528003</ele>
        <time>2020-08-05T07:53:26.855Z</time>
      </trkpt>
      <trkpt lat="38.887475" lon="-1.862445">
        <ele>774.797741</ele>
        <time>2020-08-05T07:53:30.849Z</time>
      </trkpt>
      <trkpt lat="38.887374" lon="-1.862482">
        <ele>775.054317</ele>
        <time>2020-08-05T07:53:34.856Z</time>
      </trkpt>
      <trkpt lat="38.887280" lon="-1.862515">
        <ele>775.292377</ele>
        <time>2020-08-05T07:53:38.855Z</time>
      </trkpt>
      <trkpt lat="38.887189" lon="-1.862546">
        <ele>775.522370</ele>
        <time>2020-08-05T07:53:42.859Z</time>
      </trkpt>
      <trkpt lat="38.887090" lon="-1.862584">
        <ele>775.774789</ele>
        <time>2020-08-05T07:53:46.851Z</time>
      </trkpt>
      <trkpt lat="38.886986" lon="-1.862614">
        <ele>776.035185</ele>
        <time>2020-08-05T07:53:50.859Z</time>
      </trkpt>
      <trkpt lat="38.886885" lon="-1.862644">
        <ele>776.288434</ele>
        <time>2020-08-05T07:53:54.869Z</time>
      </trkpt>
      <trkpt lat="38.886781" lon="-1.862675">
        <ele>776.549253</ele>
        <time>2020-08-05T07:53:58.856Z</time>
      </trkpt>
      <trkpt lat="38.886677" lon="-1.862711">
        <ele>776.812384</ele>
        <time>2020-08-05T07:54:02.868Z</time>
      </trkpt>
      <trkpt lat="38.886581" lon="-1.862757">
        <ele>777.062691</ele>
        <time>2020-08-05T07:54:06.881Z</time>
      </trkpt>
      <trkpt lat="38.886479" lon="-1.862785">
        <ele>777.317500</ele>
        <time>2020-08-05T07:54:10.855Z</time>
      </trkpt>
      <trkpt lat="38.886378" lon="-1.862817">
        <ele>777.571634</ele>
        <time>2020-08-05T07:54:14.869Z</time>
      </trkpt>
      <trkpt lat="38.886275" lon="-1.862834">
        <ele>777.825328</ele>
        <time>2020-08-05T07:54:18.866Z</time>
      </trkpt>
      <trkpt lat="38.886165" lon="-1.862866">
        <ele>778.100859</ele>
        <time>2020-08-05T07:54:22.866Z</time>
      </trkpt>
      <trkpt lat="38.886075" lon="-1.862890">
        <ele>778.325414</ele>
        <time>2020-08-05T07:54:25.859Z</time>
      </trkpt>
      <trkpt lat="38.885975" lon="-1.862923">
        <ele>778.355709</ele>
        <time>2020-08-05T07:54:28.844Z</time>
      </trkpt>
      <trkpt lat="38.885873" lon="-1.862951">
        <ele>778.317426</ele>
        <time>2020-08-05T07:54:31.860Z</time>
      </trkpt>
      <trkpt lat="38.885779" lon="-1.862982">
        <ele>778.281807</ele>
        <time>2020-08-05T07:54:34.844Z</time>
      </trkpt>
      <trkpt lat="38.885657" lon="-1.863032">
        <ele>778.234805</ele>
        <time>2020-08-05T07:54:37.860Z</time>
      </trkpt>
      <trkpt lat="38.885539" lon="-1.863082">
        <ele>778.189201</ele>
        <time>2020-08-05T07:54:40.848Z</time>
      </trkpt>
      <trkpt lat="38.885434" lon="-1.863122">
        <ele>778.149004</ele>
        <time>2020-08-05T07:54:43.853Z</time>
      </trkpt>
      <trkpt lat="38.885349" lon="-1.863169">
        <ele>778.115039</ele>
        <time>2020-08-05T07:54:46.863Z</time>
      </trkpt>
      <trkpt lat="38.885241" lon="-1.863235">
        <ele>778.071143</ele>
        <time>2020-08-05T07:54:50.850Z</time>
      </trkpt>
      <trkpt lat="38.885149" lon="-1.863284">
        <ele>778.034589</ele>
        <time>2020-08-05T07:54:53.854Z</time>
      </trkpt>
      <trkpt lat="38.885048" lon="-1.863353">
        <ele>777.992603</ele>
        <time>2020-08-05T07:54:57.866Z</time>
      </trkpt>
      <trkpt lat="38.884964" lon="-1.863449">
        <ele>777.951339</ele>
        <time>2020-08-05T07:55:01.847Z</time>
      </trkpt>
      <trkpt lat="38.884939" lon="-1.863578">
        <ele>777.913358</ele>
        <time>2020-08-05T07:55:05.851Z</time>
      </trkpt>
      <trkpt lat="38.885051" lon="-1.863665">
        <ele>777.865320</ele>
        <time>2020-08-05T07:55:09.851Z</time>
      </trkpt>
      <trkpt lat="38.885134" lon="-1.863710">
        <ele>777.832255</ele>
        <time>2020-08-05T07:55:11.842Z</time>
      </trkpt>
      <trkpt lat="38.885255" lon="-1.863806">
        <ele>777.780057</ele>
        <time>2020-08-05T07:55:14.859Z</time>
      </trkpt>
      <trkpt lat="38.885338" lon="-1.863887">
        <ele>777.741801</ele>
        <time>2020-08-05T07:55:16.859Z</time>
      </trkpt>
      <trkpt lat="38.885422" lon="-1.863987">
        <ele>777.631105</ele>
        <time>2020-08-05T07:55:18.841Z</time>
      </trkpt>
      <trkpt lat="38.885508" lon="-1.864085">
        <ele>777.471952</ele>
        <time>2020-08-05T07:55:20.854Z</time>
      </trkpt>
      <trkpt lat="38.885609" lon="-1.864171">
        <ele>777.304196</ele>
        <time>2020-08-05T07:55:22.851Z</time>
      </trkpt>
      <trkpt lat="38.885712" lon="-1.864267">
        <ele>777.128021</ele>
        <time>2020-08-05T07:55:24.849Z</time>
      </trkpt>
      <trkpt lat="38.885823" lon="-1.864369">
        <ele>776.939080</ele>
        <time>2020-08-05T07:55:26.842Z</time>
      </trkpt>
      <trkpt lat="38.885953" lon="-1.864424">
        <ele>776.749592</ele>
        <time>2020-08-05T07:55:28.853Z</time>
      </trkpt>
      <trkpt lat="38.886077" lon="-1.864488">
        <ele>776.564583</ele>
        <time>2020-08-05T07:55:30.852Z</time>
      </trkpt>
      <trkpt lat="38.886214" lon="-1.864574">
        <ele>776.353480</ele>
        <time>2020-08-05T07:55:32.863Z</time>
      </trkpt>
      <trkpt lat="38.886355" lon="-1.864664">
        <ele>776.135505</ele>
        <time>2020-08-05T07:55:34.848Z</time>
      </trkpt>
      <trkpt lat="38.886493" lon="-1.864740">
        <ele>775.927635</ele>
        <time>2020-08-05T07:55:36.862Z</time>
      </trkpt>
      <trkpt lat="38.886640" lon="-1.864804">
        <ele>775.712751</ele>
        <time>2020-08-05T07:55:38.856Z</time>
      </trkpt>
      <trkpt lat="38.886790" lon="-1.864873">
        <ele>775.492171</ele>
        <time>2020-08-05T07:55:40.844Z</time>
      </trkpt>
      <trkpt lat="38.886937" lon="-1.864959">
        <ele>775.268547</ele>
        <time>2020-08-05T07:55:42.844Z</time>
      </trkpt>
      <trkpt lat="38.887083" lon="-1.865045">
        <ele>775.193197</ele>
        <time>2020-08-05T07:55:44.857Z</time>
      </trkpt>
      <trkpt lat="38.887225" lon="-1.865133">
        <ele>775.145423</ele>
        <time>2020-08-05T07:55:46.853Z</time>
      </trkpt>
      <trkpt lat="38.887356" lon="-1.865219">
        <ele>775.100845</ele>
        <time>2020-08-05T07:55:48.854Z</time>
      </trkpt>
      <trkpt lat="38.887511" lon="-1.865332">
        <ele>775.046841</ele>
        <time>2020-08-05T07:55:50.841Z</time>
      </trkpt>
      <trkpt lat="38.887649" lon="-1.865435">
        <ele>774.998479</ele>
        <time>2020-08-05T07:55:52.856Z</time>
      </trkpt>
      <trkpt lat="38.887782" lon="-1.865494">
        <ele>774.955842</ele>
        <time>2020-08-05T07:55:54.851Z</time>
      </trkpt>
      <trkpt lat="38.887954" lon="-1.865530">
        <ele>774.903035</ele>
        <time>2020-08-05T07:55:56.865Z</time>
      </trkpt>
      <trkpt lat="38.888113" lon="-1.865628">
        <ele>774.849597</ele>
        <time>2020-08-05T07:55:58.850Z</time>
      </trkpt>
      <trkpt lat="38.888225" lon="-1.865712">
        <ele>774.810298</ele>
        <time>2020-08-05T07:56:00.856Z</time>
      </trkpt>
      <trkpt lat="38.888340" lon="-1.865851">
        <ele>774.762453</ele>
        <time>2020-08-05T07:56:02.850Z</time>
      </trkpt>
      <trkpt lat="38.888428" lon="-1.866004">
        <ele>774.717582</ele>
        <time>2020-08-05T07:56:04.837Z</time>
      </trkpt>
      <trkpt lat="38.888510" lon="-1.866190">
        <ele>774.747416</ele>
        <time>2020-08-05T07:56:06.844Z</time>
      </trkpt>
      <trkpt lat="38.888539" lon="-1.866383">
        <ele>774.868664</ele>
        <time>2020-08-05T07:56:08.852Z</time>
      </trkpt>
      <trkpt lat="38.888531" lon="-1.866577">
        <ele>774.988499</ele>
        <time>2020-08-05T07:56:10.834Z</time>
      </trkpt>
      <trkpt lat="38.888499" lon="-1.866758">
        <ele>775.102991</ele>
        <time>2020-08-05T07:56:12.835Z</time>
      </trkpt>
      <trkpt lat="38.888435" lon="-1.866934">
        <ele>775.222819</ele>
        <time>2020-08-05T07:56:14.841Z</time>
      </trkpt>
      <trkpt lat="38.888378" lon="-1.867119">
        <ele>775.345549</ele>
        <time>2020-08-05T07:56:16.862Z</time>
      </trkpt>
      <trkpt lat="38.888319" lon="-1.867284">
        <ele>775.457554</ele>
        <time>2020-08-05T07:56:18.855Z</time>
      </trkpt>
      <trkpt lat="38.888258" lon="-1.867435">
        <ele>775.562495</ele>
        <time>2020-08-05T07:56:20.865Z</time>
      </trkpt>
      <trkpt lat="38.888194" lon="-1.867596">
        <ele>775.674009</ele>
        <time>2020-08-05T07:56:22.855Z</time>
      </trkpt>
      <trkpt lat="38.888166" lon="-1.867757">
        <ele>775.775769</ele>
        <time>2020-08-05T07:56:24.850Z</time>
      </trkpt>
      <trkpt lat="38.888119" lon="-1.867919">
        <ele>775.882414</ele>
        <time>2020-08-05T07:56:26.851Z</time>
      </trkpt>
      <trkpt lat="38.888076" lon="-1.868067">
        <ele>775.979859</ele>
        <time>2020-08-05T07:56:28.850Z</time>
      </trkpt>
      <trkpt lat="38.888020" lon="-1.868243">
        <ele>776.097144</ele>
        <time>2020-08-05T07:56:30.866Z</time>
      </trkpt>
      <trkpt lat="38.888005" lon="-1.868359">
        <ele>776.054710</ele>
        <time>2020-08-05T07:56:32.851Z</time>
      </trkpt>
      <trkpt lat="38.887963" lon="-1.868498">
        <ele>775.954179</ele>
        <time>2020-08-05T07:56:34.857Z</time>
      </trkpt>
      <trkpt lat="38.887917" lon="-1.868630">
        <ele>775.856670</ele>
        <time>2020-08-05T07:56:36.876Z</time>
      </trkpt>
      <trkpt lat="38.887858" lon="-1.868758">
        <ele>775.756372</ele>
        <time>2020-08-05T07:56:38.856Z</time>
      </trkpt>
      <trkpt lat="38.887799" lon="-1.868890">
        <ele>775.653745</ele>
        <time>2020-08-05T07:56:40.873Z</time>
      </trkpt>
      <trkpt lat="38.887742" lon="-1.869034">
        <ele>775.544824</ele>
        <time>2020-08-05T07:56:42.856Z</time>
      </trkpt>
      <trkpt lat="38.887691" lon="-1.869168">
        <ele>775.444256</ele>
        <time>2020-08-05T07:56:44.861Z</time>
      </trkpt>
      <trkpt lat="38.887650" lon="-1.869297">
        <ele>775.350310</ele>
        <time>2020-08-05T07:56:46.853Z</time>
      </trkpt>
      <trkpt lat="38.887601" lon="-1.869436">
        <ele>775.247430</ele>
        <time>2020-08-05T07:56:48.840Z</time>
      </trkpt>
      <trkpt lat="38.887566" lon="-1.869571">
        <ele>775.151493</ele>
        <time>2020-08-05T07:56:50.861Z</time>
      </trkpt>
      <trkpt lat="38.887516" lon="-1.869721">
        <ele>775.041476</ele>
        <time>2020-08-05T07:56:52.858Z</time>
      </trkpt>
      <trkpt lat="38.887493" lon="-1.869863">
        <ele>774.943685</ele>
        <time>2020-08-05T07:56:54.846Z</time>
      </trkpt>
      <trkpt lat="38.887461" lon="-1.870002">
        <ele>774.845954</ele>
        <time>2020-08-05T07:56:56.851Z</time>
      </trkpt>
      <trkpt lat="38.887433" lon="-1.870160">
        <ele>774.736700</ele>
        <time>2020-08-05T07:56:58.855Z</time>
      </trkpt>
      <trkpt lat="38.887406" lon="-1.870309">
        <ele>774.633554</ele>
        <time>2020-08-05T07:57:00.869Z</time>
      </trkpt>
      <trkpt lat="38.887410" lon="-1.870459">
        <ele>774.506856</ele>
        <time>2020-08-05T07:57:02.871Z</time>
      </trkpt>
      <trkpt lat="38.887398" lon="-1.870610">
        <ele>774.297631</ele>
        <time>2020-08-05T07:57:04.872Z</time>
      </trkpt>
      <trkpt lat="38.887383" lon="-1.870767">
        <ele>774.079592</ele>
        <time>2020-08-05T07:57:06.849Z</time>
      </trkpt>
      <trkpt lat="38.887361" lon="-1.870926">
        <ele>773.856985</ele>
        <time>2020-08-05T07:57:08.857Z</time>
      </trkpt>
      <trkpt lat="38.887367" lon="-1.871080">
        <ele>773.644441</ele>
        <time>2020-08-05T07:57:10.860Z</time>
      </trkpt>
      <trkpt lat="38.887389" lon="-1.871219">
        <ele>773.448917</ele>
        <time>2020-08-05T07:57:12.852Z</time>
      </trkpt>
      <trkpt lat="38.887385" lon="-1.871383">
        <ele>773.222743</ele>
        <time>2020-08-05T07:57:14.866Z</time>
      </trkpt>
      <trkpt lat="38.887413" lon="-1.871539">
        <ele>773.002064</ele>
        <time>2020-08-05T07:57:16.845Z</time>
      </trkpt>
      <trkpt lat="38.887434" lon="-1.871712">
        <ele>772.760713</ele>
        <time>2020-08-05T07:57:18.878Z</time>
      </trkpt>
      <trkpt lat="38.887447" lon="-1.871898">
        <ele>772.503293</ele>
        <time>2020-08-05T07:57:20.855Z</time>
      </trkpt>
      <trkpt lat="38.887480" lon="-1.872070">
        <ele>772.259106</ele>
        <time>2020-08-05T07:57:22.853Z</time>
      </trkpt>
      <trkpt lat="38.887476" lon="-1.872226">
        <ele>772.043954</ele>
        <time>2020-08-05T07:57:24.844Z</time>
      </trkpt>
      <trkpt lat="38.887501" lon="-1.872394">
        <ele>771.808183</ele>
        <time>2020-08-05T07:57:26.861Z</time>
      </trkpt>
      <trkpt lat="38.887520" lon="-1.872586">
        <ele>771.541394</ele>
        <time>2020-08-05T07:57:28.854Z</time>
      </trkpt>
      <trkpt lat="38.887553" lon="-1.872760">
        <ele>771.363443</ele>
        <time>2020-08-05T07:57:30.843Z</time>
      </trkpt>
      <trkpt lat="38.887626" lon="-1.872910">
        <ele>771.337739</ele>
        <time>2020-08-05T07:57:32.842Z</time>
      </trkpt>
      <trkpt lat="38.887702" lon="-1.873071">
        <ele>771.310381</ele>
        <time>2020-08-05T07:57:34.862Z</time>
      </trkpt>
      <trkpt lat="38.887781" lon="-1.873237">
        <ele>771.282110</ele>
        <time>2020-08-05T07:57:36.860Z</time>
      </trkpt>
      <trkpt lat="38.887838" lon="-1.873368">
        <ele>771.260304</ele>
        <time>2020-08-05T07:57:38.840Z</time>
      </trkpt>
      <trkpt lat="38.887910" lon="-1.873533">
        <ele>771.232820</ele>
        <time>2020-08-05T07:57:40.848Z</time>
      </trkpt>
      <trkpt lat="38.887985" lon="-1.873692">
        <ele>771.205807</ele>
        <time>2020-08-05T07:57:42.854Z</time>
      </trkpt>
      <trkpt lat="38.888030" lon="-1.873867">
        <ele>771.179028</ele>
        <time>2020-08-05T07:57:44.863Z</time>
      </trkpt>
      <trkpt lat="38.888088" lon="-1.874044">
        <ele>771.151124</ele>
        <time>2020-08-05T07:57:46.860Z</time>
      </trkpt>
      <trkpt lat="38.888135" lon="-1.874212">
        <ele>771.125186</ele>
        <time>2020-08-05T07:57:48.874Z</time>
      </trkpt>
      <trkpt lat="38.888199" lon="-1.874350">
        <ele>771.101845</ele>
        <time>2020-08-05T07:57:50.845Z</time>
      </trkpt>
      <trkpt lat="38.888260" lon="-1.874513">
        <ele>771.075567</ele>
        <time>2020-08-05T07:57:52.836Z</time>
      </trkpt>
      <trkpt lat="38.888320" lon="-1.874652">
        <ele>771.052473</ele>
        <time>2020-08-05T07:57:54.850Z</time>
      </trkpt>
      <trkpt lat="38.888394" lon="-1.874777">
        <ele>771.092113</ele>
        <time>2020-08-05T07:57:56.856Z</time>
      </trkpt>
      <trkpt lat="38.888474" lon="-1.874912">
        <ele>771.317414</ele>
        <time>2020-08-05T07:57:58.852Z</time>
      </trkpt>
      <trkpt lat="38.888550" lon="-1.875050">
        <ele>771.541887</ele>
        <time>2020-08-05T07:58:00.867Z</time>
      </trkpt>
      <trkpt lat="38.888583" lon="-1.875218">
        <ele>771.771962</ele>
        <time>2020-08-05T07:58:02.850Z</time>
      </trkpt>
      <trkpt lat="38.888630" lon="-1.875380">
        <ele>772.001532</ele>
        <time>2020-08-05T07:58:04.849Z</time>
      </trkpt>
      <trkpt lat="38.888691" lon="-1.875553">
        <ele>772.253723</ele>
        <time>2020-08-05T07:58:07.855Z</time>
      </trkpt>
      <trkpt lat="38.888713" lon="-1.875706">
        <ele>772.460323</ele>
        <time>2020-08-05T07:58:09.852Z</time>
      </trkpt>
      <trkpt lat="38.888769" lon="-1.875884">
        <ele>772.715258</ele>
        <time>2020-08-05T07:58:11.851Z</time>
      </trkpt>
      <trkpt lat="38.888814" lon="-1.876079">
        <ele>772.985330</ele>
        <time>2020-08-05T07:58:13.855Z</time>
      </trkpt>
      <trkpt lat="38.888826" lon="-1.876286">
        <ele>773.260958</ele>
        <time>2020-08-05T07:58:15.850Z</time>
      </trkpt>
      <trkpt lat="38.888847" lon="-1.876463">
        <ele>773.498703</ele>
        <time>2020-08-05T07:58:17.845Z</time>
      </trkpt>
      <trkpt lat="38.888860" lon="-1.876643">
        <ele>773.738743</ele>
        <time>2020-08-05T07:58:19.841Z</time>
      </trkpt>
      <trkpt lat="38.888862" lon="-1.876827">
        <ele>773.983092</ele>
        <time>2020-08-05T07:58:21.841Z</time>
      </trkpt>
      <trkpt lat="38.888835" lon="-1.876939">
        <ele>774.095033</ele>
        <time>2020-08-05T07:58:22.851Z</time>
      </trkpt>
      <trkpt lat="38.888851" lon="-1.877098">
        <ele>774.038471</ele>
        <time>2020-08-05T07:58:24.841Z</time>
      </trkpt>
      <trkpt lat="38.888829" lon="-1.877222">
        <ele>773.993601</ele>
        <time>2020-08-05T07:58:25.860Z</time>
      </trkpt>
      <trkpt lat="38.888855" lon="-1.877402">
        <ele>773.929013</ele>
        <time>2020-08-05T07:58:27.849Z</time>
      </trkpt>
      <trkpt lat="38.888870" lon="-1.877576">
        <ele>773.867251</ele>
        <time>2020-08-05T07:58:29.842Z</time>
      </trkpt>
      <trkpt lat="38.888883" lon="-1.877773">
        <ele>773.797500</ele>
        <time>2020-08-05T07:58:31.851Z</time>
      </trkpt>
      <trkpt lat="38.888867" lon="-1.877932">
        <ele>773.740938</ele>
        <time>2020-08-05T07:58:33.857Z</time>
      </trkpt>
      <trkpt lat="38.888941" lon="-1.878087">
        <ele>773.676787</ele>
        <time>2020-08-05T07:58:35.856Z</time>
      </trkpt>
      <trkpt lat="38.889064" lon="-1.878127">
        <ele>773.619278</ele>
        <time>2020-08-05T07:58:36.855Z</time>
      </trkpt>
      <trkpt lat="38.889161" lon="-1.878301">
        <ele>773.543771</ele>
        <time>2020-08-05T07:58:38.850Z</time>
      </trkpt>
      <trkpt lat="38.889266" lon="-1.878450">
        <ele>773.472861</ele>
        <time>2020-08-05T07:58:40.858Z</time>
      </trkpt>
      <trkpt lat="38.889395" lon="-1.878605">
        <ele>773.392804</ele>
        <time>2020-08-05T07:58:42.866Z</time>
      </trkpt>
      <trkpt lat="38.889522" lon="-1.878565">
        <ele>773.333536</ele>
        <time>2020-08-05T07:58:43.847Z</time>
      </trkpt>
      <trkpt lat="38.889632" lon="-1.878582">
        <ele>773.280296</ele>
        <time>2020-08-05T07:58:45.869Z</time>
      </trkpt>
      <trkpt lat="38.889705" lon="-1.878654">
        <ele>773.216271</ele>
        <time>2020-08-05T07:58:46.876Z</time>
      </trkpt>
      <trkpt lat="38.889808" lon="-1.878871">
        <ele>773.078641</ele>
        <time>2020-08-05T07:58:48.861Z</time>
      </trkpt>
      <trkpt lat="38.889920" lon="-1.879015">
        <ele>772.968408</ele>
        <time>2020-08-05T07:58:50.847Z</time>
      </trkpt>
      <trkpt lat="38.889972" lon="-1.879192">
        <ele>772.865963</ele>
        <time>2020-08-05T07:58:53.841Z</time>
      </trkpt>
      <trkpt lat="38.890029" lon="-1.879394">
        <ele>772.749615</ele>
        <time>2020-08-05T07:58:56.850Z</time>
      </trkpt>
      <trkpt lat="38.890243" lon="-1.879394">
        <ele>772.600736</ele>
        <time>2020-08-05T07:58:57.865Z</time>
      </trkpt>
      <trkpt lat="38.890258" lon="-1.879562">
        <ele>772.509169</ele>
        <time>2020-08-05T07:58:59.860Z</time>
      </trkpt>
      <trkpt lat="38.890284" lon="-1.879703">
        <ele>772.430705</ele>
        <time>2020-08-05T07:59:01.840Z</time>
      </trkpt>
      <trkpt lat="38.890284" lon="-1.879833">
        <ele>772.360311</ele>
        <time>2020-08-05T07:59:03.843Z</time>
      </trkpt>
      <trkpt lat="38.890326" lon="-1.879970">
        <ele>772.280579</ele>
        <time>2020-08-05T07:59:06.851Z</time>
      </trkpt>
      <trkpt lat="38.890270" lon="-1.880087">
        <ele>772.206204</ele>
        <time>2020-08-05T07:59:08.841Z</time>
      </trkpt>
      <trkpt lat="38.890324" lon="-1.880185">
        <ele>772.141186</ele>
        <time>2020-08-05T07:59:10.851Z</time>
      </trkpt>
      <trkpt lat="38.890404" lon="-1.880261">
        <ele>772.071968</ele>
        <time>2020-08-05T07:59:12.856Z</time>
      </trkpt>
      <trkpt lat="38.890382" lon="-1.880450">
        <ele>772.046816</ele>
        <time>2020-08-05T07:59:14.848Z</time>
      </trkpt>
      <trkpt lat="38.890303" lon="-1.880647">
        <ele>772.062693</ele>
        <time>2020-08-05T07:59:18.856Z</time>
      </trkpt>
      <trkpt lat="38.890307" lon="-1.880794">
        <ele>772.073231</ele>
        <time>2020-08-05T07:59:20.850Z</time>
      </trkpt>
      <trkpt lat="38.890310" lon="-1.880940">
        <ele>772.083694</ele>
        <time>2020-08-05T07:59:21.854Z</time>
      </trkpt>
      <trkpt lat="38.890291" lon="-1.881085">
        <ele>772.094229</ele>
        <time>2020-08-05T07:59:23.848Z</time>
      </trkpt>
      <trkpt lat="38.890343" lon="-1.881256">
        <ele>772.107382</ele>
        <time>2020-08-05T07:59:25.851Z</time>
      </trkpt>
      <trkpt lat="38.890347" lon="-1.881399">
        <ele>772.117633</ele>
        <time>2020-08-05T07:59:26.899Z</time>
      </trkpt>
      <trkpt lat="38.890340" lon="-1.881519">
        <ele>772.126255</ele>
        <time>2020-08-05T07:59:27.838Z</time>
      </trkpt>
      <trkpt lat="38.890391" lon="-1.881690">
        <ele>772.139374</ele>
        <time>2020-08-05T07:59:29.858Z</time>
      </trkpt>
      <trkpt lat="38.890348" lon="-1.881827">
        <ele>772.149957</ele>
        <time>2020-08-05T07:59:30.852Z</time>
      </trkpt>
      <trkpt lat="38.890302" lon="-1.882147">
        <ele>772.173271</ele>
        <time>2020-08-05T07:59:32.851Z</time>
      </trkpt>
      <trkpt lat="38.890326" lon="-1.882316">
        <ele>772.185579</ele>
        <time>2020-08-05T07:59:34.851Z</time>
      </trkpt>
      <trkpt lat="38.890383" lon="-1.882450">
        <ele>772.196519</ele>
        <time>2020-08-05T07:59:36.868Z</time>
      </trkpt>
      <trkpt lat="38.890414" lon="-1.882618">
        <ele>772.024435</ele>
        <time>2020-08-05T07:59:38.841Z</time>
      </trkpt>
      <trkpt lat="38.890450" lon="-1.882803">
        <ele>771.593522</ele>
        <time>2020-08-05T07:59:40.849Z</time>
      </trkpt>
      <trkpt lat="38.890527" lon="-1.882950">
        <ele>771.193129</ele>
        <time>2020-08-05T07:59:42.853Z</time>
      </trkpt>
      <trkpt lat="38.890544" lon="-1.883147">
        <ele>770.745239</ele>
        <time>2020-08-05T07:59:44.857Z</time>
      </trkpt>
      <trkpt lat="38.890582" lon="-1.883335">
        <ele>770.306324</ele>
        <time>2020-08-05T07:59:46.851Z</time>
      </trkpt>
      <trkpt lat="38.890591" lon="-1.883547">
        <ele>769.826554</ele>
        <time>2020-08-05T07:59:48.854Z</time>
      </trkpt>
      <trkpt lat="38.890639" lon="-1.883747">
        <ele>769.353617</ele>
        <time>2020-08-05T07:59:50.845Z</time>
      </trkpt>
      <trkpt lat="38.890685" lon="-1.883906">
        <ele>768.970308</ele>
        <time>2020-08-05T07:59:52.872Z</time>
      </trkpt>
      <trkpt lat="38.890748" lon="-1.884071">
        <ele>768.555012</ele>
        <time>2020-08-05T07:59:54.854Z</time>
      </trkpt>
      <trkpt lat="38.890778" lon="-1.884240">
        <ele>768.163317</ele>
        <time>2020-08-05T07:59:56.863Z</time>
      </trkpt>
      <trkpt lat="38.890829" lon="-1.884409">
        <ele>767.753729</ele>
        <time>2020-08-05T07:59:58.861Z</time>
      </trkpt>
      <trkpt lat="38.890863" lon="-1.884572">
        <ele>767.372402</ele>
        <time>2020-08-05T08:00:00.857Z</time>
      </trkpt>
      <trkpt lat="38.890884" lon="-1.884745">
        <ele>766.980246</ele>
        <time>2020-08-05T08:00:02.858Z</time>
      </trkpt>
      <trkpt lat="38.890919" lon="-1.884914">
        <ele>766.883543</ele>
        <time>2020-08-05T08:00:04.863Z</time>
      </trkpt>
      <trkpt lat="38.890958" lon="-1.885083">
        <ele>766.786071</ele>
        <time>2020-08-05T08:00:06.873Z</time>
      </trkpt>
      <trkpt lat="38.891004" lon="-1.885244">
        <ele>766.691235</ele>
        <time>2020-08-05T08:00:08.869Z</time>
      </trkpt>
      <trkpt lat="38.891035" lon="-1.885396">
        <ele>766.604347</ele>
        <time>2020-08-05T08:00:10.853Z</time>
      </trkpt>
      <trkpt lat="38.891099" lon="-1.885520">
        <ele>766.522073</ele>
        <time>2020-08-05T08:00:12.862Z</time>
      </trkpt>
      <trkpt lat="38.891146" lon="-1.885648">
        <ele>766.443813</ele>
        <time>2020-08-05T08:00:14.864Z</time>
      </trkpt>
      <trkpt lat="38.891220" lon="-1.885767">
        <ele>766.359588</ele>
        <time>2020-08-05T08:00:16.853Z</time>
      </trkpt>
      <trkpt lat="38.891287" lon="-1.885891">
        <ele>766.276118</ele>
        <time>2020-08-05T08:00:18.853Z</time>
      </trkpt>
      <trkpt lat="38.891324" lon="-1.886034">
        <ele>766.192789</ele>
        <time>2020-08-05T08:00:20.840Z</time>
      </trkpt>
      <trkpt lat="38.891363" lon="-1.886179">
        <ele>766.107957</ele>
        <time>2020-08-05T08:00:22.852Z</time>
      </trkpt>
      <trkpt lat="38.891373" lon="-1.886331">
        <ele>766.023607</ele>
        <time>2020-08-05T08:00:24.878Z</time>
      </trkpt>
      <trkpt lat="38.891384" lon="-1.886490">
        <ele>765.935339</ele>
        <time>2020-08-05T08:00:26.863Z</time>
      </trkpt>
      <trkpt lat="38.891386" lon="-1.886639">
        <ele>765.852936</ele>
        <time>2020-08-05T08:00:28.865Z</time>
      </trkpt>
      <trkpt lat="38.891365" lon="-1.886777">
        <ele>765.775182</ele>
        <time>2020-08-05T08:00:30.859Z</time>
      </trkpt>
      <trkpt lat="38.891323" lon="-1.886881">
        <ele>765.710394</ele>
        <time>2020-08-05T08:00:32.864Z</time>
      </trkpt>
      <trkpt lat="38.891263" lon="-1.886983">
        <ele>765.797637</ele>
        <time>2020-08-05T08:00:36.872Z</time>
      </trkpt>
      <trkpt lat="38.891349" lon="-1.886913">
        <ele>765.904211</ele>
        <time>2020-08-05T08:00:46.856Z</time>
      </trkpt>
      <trkpt lat="38.891382" lon="-1.887040">
        <ele>766.013303</ele>
        <time>2020-08-05T08:00:53.849Z</time>
      </trkpt>
      <trkpt lat="38.891382" lon="-1.887197">
        <ele>766.141224</ele>
        <time>2020-08-05T08:00:57.852Z</time>
      </trkpt>
      <trkpt lat="38.891372" lon="-1.887349">
        <ele>766.265513</ele>
        <time>2020-08-05T08:01:00.847Z</time>
      </trkpt>
      <trkpt lat="38.891370" lon="-1.887514">
        <ele>766.399969</ele>
        <time>2020-08-05T08:01:03.844Z</time>
      </trkpt>
      <trkpt lat="38.891361" lon="-1.887697">
        <ele>766.549372</ele>
        <time>2020-08-05T08:01:06.857Z</time>
      </trkpt>
      <trkpt lat="38.891350" lon="-1.887821">
        <ele>766.651059</ele>
        <time>2020-08-05T08:01:08.850Z</time>
      </trkpt>
      <trkpt lat="38.891359" lon="-1.887938">
        <ele>766.746854</ele>
        <time>2020-08-05T08:01:10.853Z</time>
      </trkpt>
      <trkpt lat="38.891364" lon="-1.888065">
        <ele>766.850464</ele>
        <time>2020-08-05T08:01:12.841Z</time>
      </trkpt>
      <trkpt lat="38.891386" lon="-1.888185">
        <ele>766.950914</ele>
        <time>2020-08-05T08:01:14.853Z</time>
      </trkpt>
      <trkpt lat="38.891443" lon="-1.888334">
        <ele>767.086188</ele>
        <time>2020-08-05T08:01:17.857Z</time>
      </trkpt>
      <trkpt lat="38.891609" lon="-1.888637">
        <ele>767.388093</ele>
        <time>2020-08-05T08:01:24.865Z</time>
      </trkpt>
      <trkpt lat="38.891464" lon="-1.888763">
        <ele>767.571341</ele>
        <time>2020-08-05T08:01:26.850Z</time>
      </trkpt>
      <trkpt lat="38.891350" lon="-1.888924">
        <ele>767.898292</ele>
        <time>2020-08-05T08:01:30.874Z</time>
      </trkpt>
      <trkpt lat="38.891327" lon="-1.889063">
        <ele>768.120835</ele>
        <time>2020-08-05T08:01:32.857Z</time>
      </trkpt>
      <trkpt lat="38.891229" lon="-1.889165">
        <ele>768.374596</ele>
        <time>2020-08-05T08:01:35.842Z</time>
      </trkpt>
      <trkpt lat="38.891109" lon="-1.889242">
        <ele>768.644476</ele>
        <time>2020-08-05T08:01:37.854Z</time>
      </trkpt>
      <trkpt lat="38.891043" lon="-1.889349">
        <ele>768.858281</ele>
        <time>2020-08-05T08:01:40.855Z</time>
      </trkpt>
      <trkpt lat="38.890929" lon="-1.889411">
        <ele>769.107355</ele>
        <time>2020-08-05T08:01:43.853Z</time>
      </trkpt>
      <trkpt lat="38.890806" lon="-1.889502">
        <ele>769.392933</ele>
        <time>2020-08-05T08:01:45.848Z</time>
      </trkpt>
      <trkpt lat="38.890691" lon="-1.889644">
        <ele>769.713854</ele>
        <time>2020-08-05T08:01:46.837Z</time>
      </trkpt>
      <trkpt lat="38.890615" lon="-1.889730">
        <ele>769.917622</ele>
        <time>2020-08-05T08:01:49.842Z</time>
      </trkpt>
      <trkpt lat="38.890527" lon="-1.889874">
        <ele>770.204335</ele>
        <time>2020-08-05T08:01:51.838Z</time>
      </trkpt>
      <trkpt lat="38.890519" lon="-1.890007">
        <ele>770.413241</ele>
        <time>2020-08-05T08:01:54.843Z</time>
      </trkpt>
      <trkpt lat="38.890327" lon="-1.890081">
        <ele>770.816557</ele>
        <time>2020-08-05T08:02:01.882Z</time>
      </trkpt>
      <trkpt lat="38.890454" lon="-1.890200">
        <ele>771.132823</ele>
        <time>2020-08-05T08:02:02.865Z</time>
      </trkpt>
      <trkpt lat="38.890353" lon="-1.890308">
        <ele>771.276568</ele>
        <time>2020-08-05T08:02:03.839Z</time>
      </trkpt>
      <trkpt lat="38.890263" lon="-1.890419">
        <ele>771.369762</ele>
        <time>2020-08-05T08:02:05.843Z</time>
      </trkpt>
      <trkpt lat="38.890174" lon="-1.890498">
        <ele>771.450570</ele>
        <time>2020-08-05T08:02:07.865Z</time>
      </trkpt>
      <trkpt lat="38.890117" lon="-1.890614">
        <ele>771.530331</ele>
        <time>2020-08-05T08:02:09.843Z</time>
      </trkpt>
      <trkpt lat="38.890064" lon="-1.890723">
        <ele>771.605057</ele>
        <time>2020-08-05T08:02:10.838Z</time>
      </trkpt>
      <trkpt lat="38.889979" lon="-1.890801">
        <ele>771.683086</ele>
        <time>2020-08-05T08:02:12.855Z</time>
      </trkpt>
      <trkpt lat="38.889882" lon="-1.890859">
        <ele>771.763008</ele>
        <time>2020-08-05T08:02:14.853Z</time>
      </trkpt>
      <trkpt lat="38.889789" lon="-1.890978">
        <ele>771.861057</ele>
        <time>2020-08-05T08:02:17.846Z</time>
      </trkpt>
      <trkpt lat="38.889707" lon="-1.891078">
        <ele>771.945512</ele>
        <time>2020-08-05T08:02:20.847Z</time>
      </trkpt>
      <trkpt lat="38.889606" lon="-1.891206">
        <ele>772.051489</ele>
        <time>2020-08-05T08:02:22.865Z</time>
      </trkpt>
      <trkpt lat="38.889536" lon="-1.891289">
        <ele>772.122645</ele>
        <time>2020-08-05T08:02:24.849Z</time>
      </trkpt>
      <trkpt lat="38.889436" lon="-1.891349">
        <ele>772.205090</ele>
        <time>2020-08-05T08:02:27.870Z</time>
      </trkpt>
      <trkpt lat="38.889429" lon="-1.891568">
        <ele>772.332532</ele>
        <time>2020-08-05T08:02:29.855Z</time>
      </trkpt>
      <trkpt lat="38.889296" lon="-1.891635">
        <ele>772.439247</ele>
        <time>2020-08-05T08:02:31.873Z</time>
      </trkpt>
      <trkpt lat="38.889178" lon="-1.891617">
        <ele>772.528013</ele>
        <time>2020-08-05T08:02:33.858Z</time>
      </trkpt>
      <trkpt lat="38.889080" lon="-1.891765">
        <ele>772.253617</ele>
        <time>2020-08-05T08:02:36.849Z</time>
      </trkpt>
      <trkpt lat="38.887739" lon="-1.893482">
        <ele>768.175463</ele>
        <time>2020-08-05T08:03:07.867Z</time>
      </trkpt>
      <trkpt lat="38.887713" lon="-1.893633">
        <ele>768.139910</ele>
        <time>2020-08-05T08:03:10.839Z</time>
      </trkpt>
      <trkpt lat="38.887602" lon="-1.893703">
        <ele>768.103390</ele>
        <time>2020-08-05T08:03:12.838Z</time>
      </trkpt>
      <trkpt lat="38.887567" lon="-1.893882">
        <ele>768.060960</ele>
        <time>2020-08-05T08:03:14.841Z</time>
      </trkpt>
      <trkpt lat="38.887539" lon="-1.894007">
        <ele>768.031057</ele>
        <time>2020-08-05T08:03:17.839Z</time>
      </trkpt>
      <trkpt lat="38.887491" lon="-1.894111">
        <ele>768.003261</ele>
        <time>2020-08-05T08:03:19.842Z</time>
      </trkpt>
      <trkpt lat="38.887427" lon="-1.894224">
        <ele>767.971134</ele>
        <time>2020-08-05T08:03:22.849Z</time>
      </trkpt>
      <trkpt lat="38.887336" lon="-1.894314">
        <ele>767.937215</ele>
        <time>2020-08-05T08:03:24.867Z</time>
      </trkpt>
      <trkpt lat="38.887230" lon="-1.894424">
        <ele>767.896971</ele>
        <time>2020-08-05T08:03:26.847Z</time>
      </trkpt>
      <trkpt lat="38.887172" lon="-1.894536">
        <ele>767.866045</ele>
        <time>2020-08-05T08:03:28.843Z</time>
      </trkpt>
      <trkpt lat="38.887083" lon="-1.894642">
        <ele>767.830201</ele>
        <time>2020-08-05T08:03:30.838Z</time>
      </trkpt>
      <trkpt lat="38.886988" lon="-1.894747">
        <ele>767.793188</ele>
        <time>2020-08-05T08:03:32.849Z</time>
      </trkpt>
      <trkpt lat="38.886726" lon="-1.895206">
        <ele>768.255509</ele>
        <time>2020-08-05T08:03:40.865Z</time>
      </trkpt>
      <trkpt lat="38.886601" lon="-1.895255">
        <ele>768.711963</ele>
        <time>2020-08-05T08:03:42.866Z</time>
      </trkpt>
      <trkpt lat="38.886588" lon="-1.895369">
        <ele>769.025198</ele>
        <time>2020-08-05T08:03:44.868Z</time>
      </trkpt>
      <trkpt lat="38.886506" lon="-1.895466">
        <ele>769.414513</ele>
        <time>2020-08-05T08:03:47.874Z</time>
      </trkpt>
      <trkpt lat="38.886431" lon="-1.895574">
        <ele>769.807994</ele>
        <time>2020-08-05T08:03:49.867Z</time>
      </trkpt>
      <trkpt lat="38.886340" lon="-1.895705">
        <ele>770.285337</ele>
        <time>2020-08-05T08:03:51.862Z</time>
      </trkpt>
      <trkpt lat="38.886243" lon="-1.895803">
        <ele>770.716338</ele>
        <time>2020-08-05T08:03:53.867Z</time>
      </trkpt>
      <trkpt lat="38.886184" lon="-1.895919">
        <ele>771.093060</ele>
        <time>2020-08-05T08:03:55.852Z</time>
      </trkpt>
      <trkpt lat="38.886083" lon="-1.896012">
        <ele>771.527070</ele>
        <time>2020-08-05T08:03:57.863Z</time>
      </trkpt>
      <trkpt lat="38.885986" lon="-1.896116">
        <ele>771.968342</ele>
        <time>2020-08-05T08:03:59.860Z</time>
      </trkpt>
      <trkpt lat="38.885900" lon="-1.896206">
        <ele>772.355756</ele>
        <time>2020-08-05T08:04:01.858Z</time>
      </trkpt>
      <trkpt lat="38.885803" lon="-1.896298">
        <ele>772.776870</ele>
        <time>2020-08-05T08:04:03.859Z</time>
      </trkpt>
      <trkpt lat="38.885720" lon="-1.896369">
        <ele>773.125146</ele>
        <time>2020-08-05T08:04:05.857Z</time>
      </trkpt>
      <trkpt lat="38.885640" lon="-1.896485">
        <ele>773.546487</ele>
        <time>2020-08-05T08:04:08.857Z</time>
      </trkpt>
      <trkpt lat="38.885585" lon="-1.896636">
        <ele>773.969576</ele>
        <time>2020-08-05T08:04:10.854Z</time>
      </trkpt>
      <trkpt lat="38.885568" lon="-1.896761">
        <ele>773.170875</ele>
        <time>2020-08-05T08:04:12.860Z</time>
      </trkpt>
      <trkpt lat="38.885441" lon="-1.896851">
        <ele>771.998054</ele>
        <time>2020-08-05T08:04:14.869Z</time>
      </trkpt>
      <trkpt lat="38.885375" lon="-1.896950">
        <ele>771.177619</ele>
        <time>2020-08-05T08:04:16.856Z</time>
      </trkpt>
      <trkpt lat="38.885296" lon="-1.897043">
        <ele>770.311174</ele>
        <time>2020-08-05T08:04:18.867Z</time>
      </trkpt>
      <trkpt lat="38.885237" lon="-1.897146">
        <ele>769.506242</ele>
        <time>2020-08-05T08:04:20.847Z</time>
      </trkpt>
      <trkpt lat="38.885142" lon="-1.897245">
        <ele>768.517100</ele>
        <time>2020-08-05T08:04:22.862Z</time>
      </trkpt>
      <trkpt lat="38.885073" lon="-1.897344">
        <ele>767.680680</ele>
        <time>2020-08-05T08:04:24.866Z</time>
      </trkpt>
      <trkpt lat="38.884975" lon="-1.897492">
        <ele>766.457666</ele>
        <time>2020-08-05T08:04:27.853Z</time>
      </trkpt>
      <trkpt lat="38.884911" lon="-1.897617">
        <ele>765.515935</ele>
        <time>2020-08-05T08:04:30.863Z</time>
      </trkpt>
      <trkpt lat="38.884836" lon="-1.897698">
        <ele>764.723641</ele>
        <time>2020-08-05T08:04:32.847Z</time>
      </trkpt>
      <trkpt lat="38.884763" lon="-1.897810">
        <ele>763.804176</ele>
        <time>2020-08-05T08:04:34.855Z</time>
      </trkpt>
      <trkpt lat="38.884668" lon="-1.897943">
        <ele>762.667990</ele>
        <time>2020-08-05T08:04:37.859Z</time>
      </trkpt>
      <trkpt lat="38.884602" lon="-1.898046">
        <ele>761.828267</ele>
        <time>2020-08-05T08:04:39.861Z</time>
      </trkpt>
      <trkpt lat="38.884538" lon="-1.898129">
        <ele>761.092908</ele>
        <time>2020-08-05T08:04:41.839Z</time>
      </trkpt>
      <trkpt lat="38.884433" lon="-1.898242">
        <ele>759.985311</ele>
        <time>2020-08-05T08:04:44.868Z</time>
      </trkpt>
      <trkpt lat="38.884355" lon="-1.898348">
        <ele>759.404929</ele>
        <time>2020-08-05T08:04:47.851Z</time>
      </trkpt>
      <trkpt lat="38.884273" lon="-1.898493">
        <ele>759.281133</ele>
        <time>2020-08-05T08:04:50.837Z</time>
      </trkpt>
      <trkpt lat="38.884206" lon="-1.898588">
        <ele>759.192587</ele>
        <time>2020-08-05T08:04:52.847Z</time>
      </trkpt>
      <trkpt lat="38.884119" lon="-1.898697">
        <ele>759.084753</ele>
        <time>2020-08-05T08:04:55.841Z</time>
      </trkpt>
      <trkpt lat="38.884054" lon="-1.898780">
        <ele>759.003430</ele>
        <time>2020-08-05T08:04:57.841Z</time>
      </trkpt>
      <trkpt lat="38.883973" lon="-1.898857">
        <ele>758.914017</ele>
        <time>2020-08-05T08:04:59.849Z</time>
      </trkpt>
      <trkpt lat="38.883936" lon="-1.899008">
        <ele>758.804671</ele>
        <time>2020-08-05T08:05:02.846Z</time>
      </trkpt>
      <trkpt lat="38.883853" lon="-1.899121">
        <ele>758.697357</ele>
        <time>2020-08-05T08:05:04.853Z</time>
      </trkpt>
      <trkpt lat="38.883765" lon="-1.899204">
        <ele>758.600484</ele>
        <time>2020-08-05T08:05:06.850Z</time>
      </trkpt>
      <trkpt lat="38.883672" lon="-1.899270">
        <ele>758.506206</ele>
        <time>2020-08-05T08:05:08.854Z</time>
      </trkpt>
      <trkpt lat="38.883586" lon="-1.899348">
        <ele>758.412792</ele>
        <time>2020-08-05T08:05:10.845Z</time>
      </trkpt>
      <trkpt lat="38.883494" lon="-1.899439">
        <ele>758.309761</ele>
        <time>2020-08-05T08:05:12.843Z</time>
      </trkpt>
      <trkpt lat="38.883396" lon="-1.899497">
        <ele>758.214016</ele>
        <time>2020-08-05T08:05:14.839Z</time>
      </trkpt>
      <trkpt lat="38.883287" lon="-1.899608">
        <ele>758.090592</ele>
        <time>2020-08-05T08:05:17.844Z</time>
      </trkpt>
      <trkpt lat="38.883204" lon="-1.899747">
        <ele>757.969586</ele>
        <time>2020-08-05T08:05:20.849Z</time>
      </trkpt>
      <trkpt lat="38.883133" lon="-1.899877">
        <ele>757.859893</ele>
        <time>2020-08-05T08:05:23.845Z</time>
      </trkpt>
      <trkpt lat="38.883038" lon="-1.899963">
        <ele>758.194556</ele>
        <time>2020-08-05T08:05:25.842Z</time>
      </trkpt>
      <trkpt lat="38.882715" lon="-1.900269">
        <ele>759.501015</ele>
        <time>2020-08-05T08:05:33.861Z</time>
      </trkpt>
      <trkpt lat="38.882718" lon="-1.900391">
        <ele>759.810321</ele>
        <time>2020-08-05T08:05:34.836Z</time>
      </trkpt>
      <trkpt lat="38.882608" lon="-1.900484">
        <ele>760.238995</ele>
        <time>2020-08-05T08:05:36.858Z</time>
      </trkpt>
      <trkpt lat="38.882522" lon="-1.900531">
        <ele>760.543232</ele>
        <time>2020-08-05T08:05:38.862Z</time>
      </trkpt>
      <trkpt lat="38.882444" lon="-1.900639">
        <ele>760.916556</ele>
        <time>2020-08-05T08:05:41.855Z</time>
      </trkpt>
      <trkpt lat="38.882363" lon="-1.900711">
        <ele>761.237204</ele>
        <time>2020-08-05T08:05:43.860Z</time>
      </trkpt>
      <trkpt lat="38.882271" lon="-1.900837">
        <ele>761.674970</ele>
        <time>2020-08-05T08:05:46.843Z</time>
      </trkpt>
      <trkpt lat="38.882216" lon="-1.900945">
        <ele>762.002010</ele>
        <time>2020-08-05T08:05:48.847Z</time>
      </trkpt>
      <trkpt lat="38.882135" lon="-1.901056">
        <ele>762.387555</ele>
        <time>2020-08-05T08:05:50.857Z</time>
      </trkpt>
      <trkpt lat="38.881992" lon="-1.901132">
        <ele>762.891328</ele>
        <time>2020-08-05T08:05:52.853Z</time>
      </trkpt>
      <trkpt lat="38.881873" lon="-1.901145">
        <ele>763.280107</ele>
        <time>2020-08-05T08:05:55.861Z</time>
      </trkpt>
      <trkpt lat="38.881785" lon="-1.901180">
        <ele>763.579989</ele>
        <time>2020-08-05T08:05:57.866Z</time>
      </trkpt>
      <trkpt lat="38.881800" lon="-1.901334">
        <ele>763.510787</ele>
        <time>2020-08-05T08:05:59.857Z</time>
      </trkpt>
      <trkpt lat="38.881800" lon="-1.901474">
        <ele>763.252442</ele>
        <time>2020-08-05T08:06:01.864Z</time>
      </trkpt>
      <trkpt lat="38.881717" lon="-1.901590">
        <ele>762.961697</ele>
        <time>2020-08-05T08:06:03.857Z</time>
      </trkpt>
      <trkpt lat="38.881622" lon="-1.901647">
        <ele>762.713144</ele>
        <time>2020-08-05T08:06:05.848Z</time>
      </trkpt>
      <trkpt lat="38.881596" lon="-1.901789">
        <ele>762.443957</ele>
        <time>2020-08-05T08:06:07.856Z</time>
      </trkpt>
      <trkpt lat="38.881575" lon="-1.901903">
        <ele>762.227780</ele>
        <time>2020-08-05T08:06:09.855Z</time>
      </trkpt>
      <trkpt lat="38.881466" lon="-1.902021">
        <ele>761.889876</ele>
        <time>2020-08-05T08:06:12.863Z</time>
      </trkpt>
      <trkpt lat="38.881390" lon="-1.902159">
        <ele>761.577935</ele>
        <time>2020-08-05T08:06:15.855Z</time>
      </trkpt>
      <trkpt lat="38.881294" lon="-1.902234">
        <ele>761.311584</ele>
        <time>2020-08-05T08:06:17.847Z</time>
      </trkpt>
      <trkpt lat="38.881226" lon="-1.902395">
        <ele>760.973573</ele>
        <time>2020-08-05T08:06:20.861Z</time>
      </trkpt>
      <trkpt lat="38.881146" lon="-1.902493">
        <ele>760.711526</ele>
        <time>2020-08-05T08:06:22.849Z</time>
      </trkpt>
      <trkpt lat="38.881186" lon="-1.902618">
        <ele>760.462130</ele>
        <time>2020-08-05T08:06:23.848Z</time>
      </trkpt>
      <trkpt lat="38.881192" lon="-1.902744">
        <ele>760.229183</ele>
        <time>2020-08-05T08:06:24.847Z</time>
      </trkpt>
      <trkpt lat="38.881110" lon="-1.902799">
        <ele>760.009898</ele>
        <time>2020-08-05T08:06:26.845Z</time>
      </trkpt>
      <trkpt lat="38.880987" lon="-1.902695">
        <ele>759.660832</ele>
        <time>2020-08-05T08:06:27.847Z</time>
      </trkpt>
      <trkpt lat="38.880890" lon="-1.902666">
        <ele>759.452228</ele>
        <time>2020-08-05T08:06:29.861Z</time>
      </trkpt>
      <trkpt lat="38.880769" lon="-1.902756">
        <ele>759.650866</ele>
        <time>2020-08-05T08:06:32.845Z</time>
      </trkpt>
      <trkpt lat="38.880724" lon="-1.902904">
        <ele>759.826586</ele>
        <time>2020-08-05T08:06:35.852Z</time>
      </trkpt>
      <trkpt lat="38.880615" lon="-1.902866">
        <ele>759.987041</ele>
        <time>2020-08-05T08:06:37.867Z</time>
      </trkpt>
      <trkpt lat="38.880547" lon="-1.902972">
        <ele>760.138947</ele>
        <time>2020-08-05T08:06:39.861Z</time>
      </trkpt>
      <trkpt lat="38.880471" lon="-1.903052">
        <ele>760.278537</ele>
        <time>2020-08-05T08:06:41.855Z</time>
      </trkpt>
      <trkpt lat="38.880379" lon="-1.903076">
        <ele>760.411907</ele>
        <time>2020-08-05T08:06:43.868Z</time>
      </trkpt>
      <trkpt lat="38.880250" lon="-1.903191">
        <ele>760.634982</ele>
        <time>2020-08-05T08:06:46.866Z</time>
      </trkpt>
      <trkpt lat="38.880147" lon="-1.903238">
        <ele>760.790269</ele>
        <time>2020-08-05T08:06:48.873Z</time>
      </trkpt>
      <trkpt lat="38.880052" lon="-1.903303">
        <ele>760.943184</ele>
        <time>2020-08-05T08:06:50.855Z</time>
      </trkpt>
      <trkpt lat="38.879926" lon="-1.903372">
        <ele>761.137776</ele>
        <time>2020-08-05T08:06:53.850Z</time>
      </trkpt>
      <trkpt lat="38.879858" lon="-1.903451">
        <ele>761.268030</ele>
        <time>2020-08-05T08:06:55.858Z</time>
      </trkpt>
      <trkpt lat="38.879752" lon="-1.903518">
        <ele>761.435865</ele>
        <time>2020-08-05T08:06:57.851Z</time>
      </trkpt>
      <trkpt lat="38.879670" lon="-1.903617">
        <ele>761.595736</ele>
        <time>2020-08-05T08:06:59.868Z</time>
      </trkpt>
      <trkpt lat="38.879590" lon="-1.903697">
        <ele>761.739768</ele>
        <time>2020-08-05T08:07:01.863Z</time>
      </trkpt>
      <trkpt lat="38.879495" lon="-1.903768">
        <ele>761.895913</ele>
        <time>2020-08-05T08:07:03.846Z</time>
      </trkpt>
      <trkpt lat="38.879420" lon="-1.903865">
        <ele>762.052334</ele>
        <time>2020-08-05T08:07:05.850Z</time>
      </trkpt>
      <trkpt lat="38.879294" lon="-1.904080">
        <ele>762.381107</ele>
        <time>2020-08-05T08:07:10.858Z</time>
      </trkpt>
      <trkpt lat="38.878770" lon="-1.904981">
        <ele>763.755105</ele>
        <time>2020-08-05T08:07:28.908Z</time>
      </trkpt>
      <trkpt lat="38.878661" lon="-1.904883">
        <ele>763.963900</ele>
        <time>2020-08-05T08:07:29.841Z</time>
      </trkpt>
      <trkpt lat="38.878581" lon="-1.904950">
        <ele>764.113774</ele>
        <time>2020-08-05T08:07:30.836Z</time>
      </trkpt>
      <trkpt lat="38.878378" lon="-1.904977">
        <ele>764.434054</ele>
        <time>2020-08-05T08:07:33.853Z</time>
      </trkpt>
      <trkpt lat="38.878322" lon="-1.905125">
        <ele>764.635092</ele>
        <time>2020-08-05T08:07:36.853Z</time>
      </trkpt>
      <trkpt lat="38.878254" lon="-1.905220">
        <ele>764.792758</ele>
        <time>2020-08-05T08:07:38.849Z</time>
      </trkpt>
      <trkpt lat="38.878169" lon="-1.905313">
        <ele>764.534000</ele>
        <time>2020-08-05T08:07:40.854Z</time>
      </trkpt>
      <trkpt lat="38.878095" lon="-1.905415">
        <ele>764.205112</ele>
        <time>2020-08-05T08:07:43.863Z</time>
      </trkpt>
      <trkpt lat="38.878031" lon="-1.905560">
        <ele>763.811926</ele>
        <time>2020-08-05T08:07:46.853Z</time>
      </trkpt>
      <trkpt lat="38.877941" lon="-1.905651">
        <ele>763.464872</ele>
        <time>2020-08-05T08:07:48.853Z</time>
      </trkpt>
      <trkpt lat="38.877870" lon="-1.905723">
        <ele>763.190776</ele>
        <time>2020-08-05T08:07:50.860Z</time>
      </trkpt>
      <trkpt lat="38.877791" lon="-1.905780">
        <ele>762.916223</ele>
        <time>2020-08-05T08:07:52.847Z</time>
      </trkpt>
      <trkpt lat="38.877726" lon="-1.905865">
        <ele>762.635166</ele>
        <time>2020-08-05T08:07:54.859Z</time>
      </trkpt>
      <trkpt lat="38.877641" lon="-1.905930">
        <ele>762.335425</ele>
        <time>2020-08-05T08:07:56.852Z</time>
      </trkpt>
      <trkpt lat="38.877554" lon="-1.905992">
        <ele>762.033957</ele>
        <time>2020-08-05T08:07:58.853Z</time>
      </trkpt>
      <trkpt lat="38.877486" lon="-1.906068">
        <ele>761.760838</ele>
        <time>2020-08-05T08:08:00.857Z</time>
      </trkpt>
      <trkpt lat="38.877395" lon="-1.906184">
        <ele>761.372374</ele>
        <time>2020-08-05T08:08:03.844Z</time>
      </trkpt>
      <trkpt lat="38.877328" lon="-1.906266">
        <ele>761.091964</ele>
        <time>2020-08-05T08:08:05.850Z</time>
      </trkpt>
      <trkpt lat="38.877243" lon="-1.906356">
        <ele>760.758187</ele>
        <time>2020-08-05T08:08:08.855Z</time>
      </trkpt>
      <trkpt lat="38.877161" lon="-1.906454">
        <ele>760.418812</ele>
        <time>2020-08-05T08:08:11.851Z</time>
      </trkpt>
      <trkpt lat="38.877084" lon="-1.906521">
        <ele>760.137005</ele>
        <time>2020-08-05T08:08:13.856Z</time>
      </trkpt>
      <trkpt lat="38.877008" lon="-1.906642">
        <ele>759.770263</ele>
        <time>2020-08-05T08:08:16.860Z</time>
      </trkpt>
      <trkpt lat="38.876937" lon="-1.906757">
        <ele>759.424037</ele>
        <time>2020-08-05T08:08:19.862Z</time>
      </trkpt>
      <trkpt lat="38.876872" lon="-1.906851">
        <ele>759.748958</ele>
        <time>2020-08-05T08:08:21.855Z</time>
      </trkpt>
      <trkpt lat="38.876804" lon="-1.906989">
        <ele>760.351395</ele>
        <time>2020-08-05T08:08:24.867Z</time>
      </trkpt>
      <trkpt lat="38.876738" lon="-1.907067">
        <ele>760.776338</ele>
        <time>2020-08-05T08:08:26.861Z</time>
      </trkpt>
      <trkpt lat="38.876629" lon="-1.907069">
        <ele>761.292855</ele>
        <time>2020-08-05T08:08:28.862Z</time>
      </trkpt>
      <trkpt lat="38.876534" lon="-1.907090">
        <ele>761.749601</ele>
        <time>2020-08-05T08:08:30.854Z</time>
      </trkpt>
      <trkpt lat="38.876478" lon="-1.907181">
        <ele>762.177480</ele>
        <time>2020-08-05T08:08:32.862Z</time>
      </trkpt>
      <trkpt lat="38.876368" lon="-1.907263">
        <ele>762.780094</ele>
        <time>2020-08-05T08:08:35.861Z</time>
      </trkpt>
      <trkpt lat="38.876329" lon="-1.907373">
        <ele>763.225948</ele>
        <time>2020-08-05T08:08:37.865Z</time>
      </trkpt>
      <trkpt lat="38.876261" lon="-1.907486">
        <ele>763.752782</ele>
        <time>2020-08-05T08:08:40.853Z</time>
      </trkpt>
      <trkpt lat="38.876168" lon="-1.907589">
        <ele>764.334614</ele>
        <time>2020-08-05T08:08:43.837Z</time>
      </trkpt>
      <trkpt lat="38.876136" lon="-1.907699">
        <ele>764.767776</ele>
        <time>2020-08-05T08:08:45.850Z</time>
      </trkpt>
      <trkpt lat="38.876081" lon="-1.907852">
        <ele>765.389412</ele>
        <time>2020-08-05T08:08:48.844Z</time>
      </trkpt>
      <trkpt lat="38.876063" lon="-1.907967">
        <ele>765.822103</ele>
        <time>2020-08-05T08:08:50.847Z</time>
      </trkpt>
      <trkpt lat="38.876037" lon="-1.908091">
        <ele>766.295804</ele>
        <time>2020-08-05T08:08:53.850Z</time>
      </trkpt>
      <trkpt lat="38.876031" lon="-1.908244">
        <ele>766.860894</ele>
        <time>2020-08-05T08:08:56.851Z</time>
      </trkpt>
      <trkpt lat="38.876029" lon="-1.908406">
        <ele>767.458542</ele>
        <time>2020-08-05T08:08:59.841Z</time>
      </trkpt>
      <trkpt lat="38.876030" lon="-1.908557">
        <ele>767.937766</ele>
        <time>2020-08-05T08:09:02.851Z</time>
      </trkpt>
      <trkpt lat="38.876045" lon="-1.908692">
        <ele>768.123509</ele>
        <time>2020-08-05T08:09:05.839Z</time>
      </trkpt>
      <trkpt lat="38.876021" lon="-1.908858">
        <ele>768.353479</ele>
        <time>2020-08-05T08:09:08.849Z</time>
      </trkpt>
      <trkpt lat="38.875998" lon="-1.908970">
        <ele>768.511249</ele>
        <time>2020-08-05T08:09:10.845Z</time>
      </trkpt>
      <trkpt lat="38.875990" lon="-1.909087">
        <ele>768.671225</ele>
        <time>2020-08-05T08:09:12.857Z</time>
      </trkpt>
      <trkpt lat="38.875979" lon="-1.909252">
        <ele>768.896789</ele>
        <time>2020-08-05T08:09:15.839Z</time>
      </trkpt>
      <trkpt lat="38.875977" lon="-1.909370">
        <ele>769.057552</ele>
        <time>2020-08-05T08:09:17.849Z</time>
      </trkpt>
      <trkpt lat="38.875974" lon="-1.909488">
        <ele>769.218362</ele>
        <time>2020-08-05T08:09:19.849Z</time>
      </trkpt>
      <trkpt lat="38.875979" lon="-1.909617">
        <ele>769.394287</ele>
        <time>2020-08-05T08:09:21.860Z</time>
      </trkpt>
      <trkpt lat="38.875973" lon="-1.909780">
        <ele>769.616553</ele>
        <time>2020-08-05T08:09:24.847Z</time>
      </trkpt>
      <trkpt lat="38.875995" lon="-1.909934">
        <ele>769.829815</ele>
        <time>2020-08-05T08:09:27.860Z</time>
      </trkpt>
      <trkpt lat="38.875975" lon="-1.910365">
        <ele>770.417910</ele>
        <time>2020-08-05T08:09:34.850Z</time>
      </trkpt>
      <trkpt lat="38.875951" lon="-1.910521">
        <ele>770.634503</ele>
        <time>2020-08-05T08:09:37.853Z</time>
      </trkpt>
      <trkpt lat="38.875940" lon="-1.910637">
        <ele>770.793671</ele>
        <time>2020-08-05T08:09:39.850Z</time>
      </trkpt>
      <trkpt lat="38.875904" lon="-1.910771">
        <ele>770.986751</ele>
        <time>2020-08-05T08:09:41.868Z</time>
      </trkpt>
      <trkpt lat="38.875955" lon="-1.910921">
        <ele>770.931802</ele>
        <time>2020-08-05T08:09:44.865Z</time>
      </trkpt>
      <trkpt lat="38.875878" lon="-1.911039">
        <ele>770.799848</ele>
        <time>2020-08-05T08:09:46.859Z</time>
      </trkpt>
      <trkpt lat="38.875880" lon="-1.911178">
        <ele>770.680703</ele>
        <time>2020-08-05T08:09:49.865Z</time>
      </trkpt>
      <trkpt lat="38.875914" lon="-1.911304">
        <ele>770.566416</ele>
        <time>2020-08-05T08:09:51.845Z</time>
      </trkpt>
      <trkpt lat="38.875874" lon="-1.911509">
        <ele>770.385294</ele>
        <time>2020-08-05T08:09:54.850Z</time>
      </trkpt>
      <trkpt lat="38.875824" lon="-1.911643">
        <ele>770.257945</ele>
        <time>2020-08-05T08:09:56.862Z</time>
      </trkpt>
      <trkpt lat="38.875819" lon="-1.911780">
        <ele>770.140405</ele>
        <time>2020-08-05T08:09:59.860Z</time>
      </trkpt>
      <trkpt lat="38.875781" lon="-1.911954">
        <ele>769.985529</ele>
        <time>2020-08-05T08:10:02.861Z</time>
      </trkpt>
      <trkpt lat="38.875749" lon="-1.912071">
        <ele>769.879250</ele>
        <time>2020-08-05T08:10:04.850Z</time>
      </trkpt>
      <trkpt lat="38.875732" lon="-1.912209">
        <ele>769.759510</ele>
        <time>2020-08-05T08:10:06.845Z</time>
      </trkpt>
      <trkpt lat="38.875708" lon="-1.912338">
        <ele>769.645842</ele>
        <time>2020-08-05T08:10:08.851Z</time>
      </trkpt>
      <trkpt lat="38.875700" lon="-1.912669">
        <ele>769.362033</ele>
        <time>2020-08-05T08:10:14.861Z</time>
      </trkpt>
      <trkpt lat="38.875720" lon="-1.912783">
        <ele>769.261884</ele>
        <time>2020-08-05T08:10:16.851Z</time>
      </trkpt>
      <trkpt lat="38.875678" lon="-1.912901">
        <ele>769.150688</ele>
        <time>2020-08-05T08:10:17.879Z</time>
      </trkpt>
      <trkpt lat="38.875647" lon="-1.913011">
        <ele>769.072258</ele>
        <time>2020-08-05T08:10:19.852Z</time>
      </trkpt>
      <trkpt lat="38.875677" lon="-1.913192">
        <ele>769.312750</ele>
        <time>2020-08-05T08:10:22.854Z</time>
      </trkpt>
      <trkpt lat="38.875621" lon="-1.913320">
        <ele>769.503561</ele>
        <time>2020-08-05T08:10:24.876Z</time>
      </trkpt>
      <trkpt lat="38.875624" lon="-1.913448">
        <ele>769.669979</ele>
        <time>2020-08-05T08:10:26.866Z</time>
      </trkpt>
      <trkpt lat="38.875576" lon="-1.913573">
        <ele>769.851111</ele>
        <time>2020-08-05T08:10:28.856Z</time>
      </trkpt>
      <trkpt lat="38.875577" lon="-1.913696">
        <ele>770.010965</ele>
        <time>2020-08-05T08:10:30.869Z</time>
      </trkpt>
      <trkpt lat="38.875525" lon="-1.913840">
        <ele>770.217253</ele>
        <time>2020-08-05T08:10:32.851Z</time>
      </trkpt>
      <trkpt lat="38.875368" lon="-1.914205">
        <ele>770.759179</ele>
        <time>2020-08-05T08:10:41.863Z</time>
      </trkpt>
      <trkpt lat="38.875316" lon="-1.914329">
        <ele>770.942217</ele>
        <time>2020-08-05T08:10:43.845Z</time>
      </trkpt>
      <trkpt lat="38.875027" lon="-1.914973">
        <ele>771.908224</ele>
        <time>2020-08-05T08:10:54.847Z</time>
      </trkpt>
      <trkpt lat="38.874952" lon="-1.915101">
        <ele>771.906820</ele>
        <time>2020-08-05T08:10:56.849Z</time>
      </trkpt>
      <trkpt lat="38.874918" lon="-1.915255">
        <ele>771.320051</ele>
        <time>2020-08-05T08:10:58.842Z</time>
      </trkpt>
      <trkpt lat="38.874907" lon="-1.915375">
        <ele>770.877135</ele>
        <time>2020-08-05T08:11:00.863Z</time>
      </trkpt>
      <trkpt lat="38.874777" lon="-1.915459">
        <ele>770.191948</ele>
        <time>2020-08-05T08:11:02.851Z</time>
      </trkpt>
      <trkpt lat="38.874700" lon="-1.915553">
        <ele>769.691774</ele>
        <time>2020-08-05T08:11:04.869Z</time>
      </trkpt>
      <trkpt lat="38.874600" lon="-1.915661">
        <ele>769.076610</ele>
        <time>2020-08-05T08:11:06.843Z</time>
      </trkpt>
      <trkpt lat="38.874511" lon="-1.915711">
        <ele>768.619226</ele>
        <time>2020-08-05T08:11:08.854Z</time>
      </trkpt>
      <trkpt lat="38.874445" lon="-1.915821">
        <ele>768.110148</ele>
        <time>2020-08-05T08:11:10.866Z</time>
      </trkpt>
      <trkpt lat="38.874384" lon="-1.915922">
        <ele>767.641570</ele>
        <time>2020-08-05T08:11:12.848Z</time>
      </trkpt>
      <trkpt lat="38.874274" lon="-1.916024">
        <ele>767.002778</ele>
        <time>2020-08-05T08:11:15.866Z</time>
      </trkpt>
      <trkpt lat="38.874178" lon="-1.916148">
        <ele>766.361742</ele>
        <time>2020-08-05T08:11:18.849Z</time>
      </trkpt>
      <trkpt lat="38.874101" lon="-1.916237">
        <ele>765.874012</ele>
        <time>2020-08-05T08:11:20.851Z</time>
      </trkpt>
      <trkpt lat="38.874002" lon="-1.916345">
        <ele>765.262441</ele>
        <time>2020-08-05T08:11:23.849Z</time>
      </trkpt>
      <trkpt lat="38.873937" lon="-1.916464">
        <ele>764.729569</ele>
        <time>2020-08-05T08:11:25.854Z</time>
      </trkpt>
      <trkpt lat="38.873843" lon="-1.916574">
        <ele>764.130834</ele>
        <time>2020-08-05T08:11:28.856Z</time>
      </trkpt>
      <trkpt lat="38.873792" lon="-1.916693">
        <ele>763.632889</ele>
        <time>2020-08-05T08:11:30.849Z</time>
      </trkpt>
      <trkpt lat="38.873737" lon="-1.916835">
        <ele>763.284633</ele>
        <time>2020-08-05T08:11:32.861Z</time>
      </trkpt>
      <trkpt lat="38.873624" lon="-1.916934">
        <ele>762.918040</ele>
        <time>2020-08-05T08:11:35.854Z</time>
      </trkpt>
      <trkpt lat="38.873549" lon="-1.917009">
        <ele>762.663297</ele>
        <time>2020-08-05T08:11:37.860Z</time>
      </trkpt>
      <trkpt lat="38.873461" lon="-1.917135">
        <ele>762.310105</ele>
        <time>2020-08-05T08:11:40.856Z</time>
      </trkpt>
      <trkpt lat="38.873379" lon="-1.917210">
        <ele>762.040312</ele>
        <time>2020-08-05T08:11:42.871Z</time>
      </trkpt>
      <trkpt lat="38.873312" lon="-1.917287">
        <ele>761.799360</ele>
        <time>2020-08-05T08:11:44.839Z</time>
      </trkpt>
      <trkpt lat="38.873240" lon="-1.917408">
        <ele>761.481586</ele>
        <time>2020-08-05T08:11:47.865Z</time>
      </trkpt>
      <trkpt lat="38.873204" lon="-1.917537">
        <ele>761.195649</ele>
        <time>2020-08-05T08:11:49.855Z</time>
      </trkpt>
      <trkpt lat="38.873093" lon="-1.917666">
        <ele>760.794460</ele>
        <time>2020-08-05T08:11:52.862Z</time>
      </trkpt>
      <trkpt lat="38.872972" lon="-1.917669">
        <ele>760.470106</ele>
        <time>2020-08-05T08:11:54.840Z</time>
      </trkpt>
      <trkpt lat="38.872857" lon="-1.917641">
        <ele>760.156405</ele>
        <time>2020-08-05T08:11:56.841Z</time>
      </trkpt>
      <trkpt lat="38.872748" lon="-1.917662">
        <ele>759.861004</ele>
        <time>2020-08-05T08:11:58.850Z</time>
      </trkpt>
      <trkpt lat="38.872664" lon="-1.917724">
        <ele>759.601352</ele>
        <time>2020-08-05T08:12:01.840Z</time>
      </trkpt>
      <trkpt lat="38.872578" lon="-1.917666">
        <ele>759.341022</ele>
        <time>2020-08-05T08:12:03.845Z</time>
      </trkpt>
      <trkpt lat="38.872479" lon="-1.917633">
        <ele>759.066902</ele>
        <time>2020-08-05T08:12:05.837Z</time>
      </trkpt>
      <trkpt lat="38.872321" lon="-1.917533">
        <ele>758.804611</ele>
        <time>2020-08-05T08:12:08.839Z</time>
      </trkpt>
      <trkpt lat="38.872218" lon="-1.917581">
        <ele>758.858446</ele>
        <time>2020-08-05T08:12:11.845Z</time>
      </trkpt>
      <trkpt lat="38.872098" lon="-1.917588">
        <ele>758.917466</ele>
        <time>2020-08-05T08:12:14.836Z</time>
      </trkpt>
      <trkpt lat="38.872019" lon="-1.917671">
        <ele>758.967612</ele>
        <time>2020-08-05T08:12:18.841Z</time>
      </trkpt>
      <trkpt lat="38.872015" lon="-1.918153">
        <ele>759.152000</ele>
        <time>2020-08-05T08:12:31.886Z</time>
      </trkpt>
      <trkpt lat="38.871923" lon="-1.918159">
        <ele>759.197260</ele>
        <time>2020-08-05T08:12:37.843Z</time>
      </trkpt>
      <trkpt lat="38.871724" lon="-1.917955">
        <ele>759.322358</ele>
        <time>2020-08-05T08:12:39.844Z</time>
      </trkpt>
      <trkpt lat="38.871717" lon="-1.918087">
        <ele>759.372968</ele>
        <time>2020-08-05T08:12:44.848Z</time>
      </trkpt>
      <trkpt lat="38.871743" lon="-1.917819">
        <ele>759.476278</ele>
        <time>2020-08-05T08:13:06.866Z</time>
      </trkpt>
      <trkpt lat="38.871820" lon="-1.917906">
        <ele>759.526665</ele>
        <time>2020-08-05T08:13:12.856Z</time>
      </trkpt>
      <trkpt lat="38.871675" lon="-1.918232">
        <ele>759.634942</ele>
        <time>2020-08-05T08:15:25.856Z</time>
      </trkpt>
      <trkpt lat="38.871646" lon="-1.918374">
        <ele>759.553718</ele>
        <time>2020-08-05T08:15:28.866Z</time>
      </trkpt>
      <trkpt lat="38.871675" lon="-1.918498">
        <ele>759.482083</ele>
        <time>2020-08-05T08:15:31.852Z</time>
      </trkpt>
      <trkpt lat="38.871729" lon="-1.918608">
        <ele>759.410134</ele>
        <time>2020-08-05T08:15:34.854Z</time>
      </trkpt>
      <trkpt lat="38.871813" lon="-1.918708">
        <ele>759.328742</ele>
        <time>2020-08-05T08:15:38.845Z</time>
      </trkpt>
      <trkpt lat="38.871928" lon="-1.918697">
        <ele>759.246790</ele>
        <time>2020-08-05T08:15:42.851Z</time>
      </trkpt>
      <trkpt lat="38.872034" lon="-1.918639">
        <ele>759.164911</ele>
        <time>2020-08-05T08:15:45.859Z</time>
      </trkpt>
      <trkpt lat="38.872140" lon="-1.918595">
        <ele>759.085746</ele>
        <time>2020-08-05T08:15:48.847Z</time>
      </trkpt>
      <trkpt lat="38.872255" lon="-1.918540">
        <ele>758.998539</ele>
        <time>2020-08-05T08:15:51.849Z</time>
      </trkpt>
      <trkpt lat="38.872384" lon="-1.918497">
        <ele>758.903829</ele>
        <time>2020-08-05T08:15:54.847Z</time>
      </trkpt>
      <trkpt lat="38.872507" lon="-1.918454">
        <ele>758.813239</ele>
        <time>2020-08-05T08:15:57.856Z</time>
      </trkpt>
      <trkpt lat="38.872626" lon="-1.918415">
        <ele>758.725962</ele>
        <time>2020-08-05T08:16:00.854Z</time>
      </trkpt>
      <trkpt lat="38.872719" lon="-1.918386">
        <ele>758.657951</ele>
        <time>2020-08-05T08:16:03.854Z</time>
      </trkpt>
      <trkpt lat="38.872809" lon="-1.918378">
        <ele>758.593840</ele>
        <time>2020-08-05T08:16:07.862Z</time>
      </trkpt>
      <trkpt lat="38.872896" lon="-1.918426">
        <ele>758.526551</ele>
        <time>2020-08-05T08:16:10.849Z</time>
      </trkpt>
      <trkpt lat="38.872969" lon="-1.918552">
        <ele>758.439654</ele>
        <time>2020-08-05T08:16:13.840Z</time>
      </trkpt>
      <trkpt lat="38.872982" lon="-1.918691">
        <ele>758.351067</ele>
        <time>2020-08-05T08:16:15.849Z</time>
      </trkpt>
      <trkpt lat="38.872984" lon="-1.918817">
        <ele>758.231054</ele>
        <time>2020-08-05T08:16:17.852Z</time>
      </trkpt>
      <trkpt lat="38.872982" lon="-1.918951">
        <ele>758.103424</ele>
        <time>2020-08-05T08:16:19.862Z</time>
      </trkpt>
      <trkpt lat="38.872987" lon="-1.919078">
        <ele>757.982330</ele>
        <time>2020-08-05T08:16:21.847Z</time>
      </trkpt>
      <trkpt lat="38.872991" lon="-1.919214">
        <ele>757.852727</ele>
        <time>2020-08-05T08:16:23.848Z</time>
      </trkpt>
      <trkpt lat="38.872998" lon="-1.919355">
        <ele>757.718182</ele>
        <time>2020-08-05T08:16:25.842Z</time>
      </trkpt>
      <trkpt lat="38.873010" lon="-1.919482">
        <ele>757.596355</ele>
        <time>2020-08-05T08:16:27.839Z</time>
      </trkpt>
      <trkpt lat="38.873015" lon="-1.919615">
        <ele>757.469554</ele>
        <time>2020-08-05T08:16:29.841Z</time>
      </trkpt>
      <trkpt lat="38.873009" lon="-1.919757">
        <ele>757.334130</ele>
        <time>2020-08-05T08:16:31.839Z</time>
      </trkpt>
      <trkpt lat="38.872998" lon="-1.919898">
        <ele>757.199186</ele>
        <time>2020-08-05T08:16:33.859Z</time>
      </trkpt>
      <trkpt lat="38.872985" lon="-1.920045">
        <ele>757.058300</ele>
        <time>2020-08-05T08:16:35.855Z</time>
      </trkpt>
      <trkpt lat="38.872958" lon="-1.920194">
        <ele>756.912617</ele>
        <time>2020-08-05T08:16:37.872Z</time>
      </trkpt>
      <trkpt lat="38.872930" lon="-1.920334">
        <ele>756.774968</ele>
        <time>2020-08-05T08:16:39.858Z</time>
      </trkpt>
      <trkpt lat="38.872901" lon="-1.920475">
        <ele>756.636090</ele>
        <time>2020-08-05T08:16:41.849Z</time>
      </trkpt>
      <trkpt lat="38.872875" lon="-1.920605">
        <ele>756.508273</ele>
        <time>2020-08-05T08:16:43.868Z</time>
      </trkpt>
      <trkpt lat="38.872830" lon="-1.920752">
        <ele>756.357854</ele>
        <time>2020-08-05T08:16:45.848Z</time>
      </trkpt>
      <trkpt lat="38.872799" lon="-1.920906">
        <ele>756.206380</ele>
        <time>2020-08-05T08:16:47.849Z</time>
      </trkpt>
      <trkpt lat="38.872759" lon="-1.921066">
        <ele>756.138726</ele>
        <time>2020-08-05T08:16:49.844Z</time>
      </trkpt>
      <trkpt lat="38.872728" lon="-1.921219">
        <ele>756.094146</ele>
        <time>2020-08-05T08:16:51.857Z</time>
      </trkpt>
      <trkpt lat="38.872703" lon="-1.921372">
        <ele>756.050062</ele>
        <time>2020-08-05T08:16:53.866Z</time>
      </trkpt>
      <trkpt lat="38.872701" lon="-1.921547">
        <ele>756.000710</ele>
        <time>2020-08-05T08:16:55.866Z</time>
      </trkpt>
      <trkpt lat="38.872699" lon="-1.921722">
        <ele>755.951357</ele>
        <time>2020-08-05T08:16:57.859Z</time>
      </trkpt>
      <trkpt lat="38.872702" lon="-1.921898">
        <ele>755.901716</ele>
        <time>2020-08-05T08:16:59.850Z</time>
      </trkpt>
      <trkpt lat="38.872703" lon="-1.922079">
        <ele>755.850676</ele>
        <time>2020-08-05T08:17:01.858Z</time>
      </trkpt>
      <trkpt lat="38.872700" lon="-1.922256">
        <ele>755.800753</ele>
        <time>2020-08-05T08:17:03.855Z</time>
      </trkpt>
      <trkpt lat="38.872702" lon="-1.922442">
        <ele>755.748299</ele>
        <time>2020-08-05T08:17:05.840Z</time>
      </trkpt>
      <trkpt lat="38.872709" lon="-1.922616">
        <ele>755.699168</ele>
        <time>2020-08-05T08:17:07.862Z</time>
      </trkpt>
      <trkpt lat="38.872709" lon="-1.922791">
        <ele>755.649821</ele>
        <time>2020-08-05T08:17:09.857Z</time>
      </trkpt>
      <trkpt lat="38.872716" lon="-1.922965">
        <ele>755.600691</ele>
        <time>2020-08-05T08:17:11.864Z</time>
      </trkpt>
      <trkpt lat="38.872707" lon="-1.923141">
        <ele>755.550955</ele>
        <time>2020-08-05T08:17:13.852Z</time>
      </trkpt>
      <trkpt lat="38.872701" lon="-1.923298">
        <ele>755.471730</ele>
        <time>2020-08-05T08:17:15.854Z</time>
      </trkpt>
      <trkpt lat="38.872703" lon="-1.923425">
        <ele>755.371797</ele>
        <time>2020-08-05T08:17:17.864Z</time>
      </trkpt>
      <trkpt lat="38.872681" lon="-1.923590">
        <ele>755.240100</ele>
        <time>2020-08-05T08:17:20.858Z</time>
      </trkpt>
      <trkpt lat="38.872632" lon="-1.923707">
        <ele>755.135583</ele>
        <time>2020-08-05T08:17:22.852Z</time>
      </trkpt>
      <trkpt lat="38.872547" lon="-1.923842">
        <ele>754.998992</ele>
        <time>2020-08-05T08:17:25.863Z</time>
      </trkpt>
      <trkpt lat="38.872497" lon="-1.923941">
        <ele>754.906155</ele>
        <time>2020-08-05T08:17:27.869Z</time>
      </trkpt>
      <trkpt lat="38.872384" lon="-1.924127">
        <ele>754.720547</ele>
        <time>2020-08-05T08:17:54.858Z</time>
      </trkpt>
      <trkpt lat="38.872324" lon="-1.924229">
        <ele>754.619973</ele>
        <time>2020-08-05T08:17:57.865Z</time>
      </trkpt>
      <trkpt lat="38.872259" lon="-1.924326">
        <ele>754.519288</ele>
        <time>2020-08-05T08:17:59.845Z</time>
      </trkpt>
      <trkpt lat="38.872205" lon="-1.924429">
        <ele>754.421597</ele>
        <time>2020-08-05T08:18:01.863Z</time>
      </trkpt>
      <trkpt lat="38.872156" lon="-1.924538">
        <ele>754.322577</ele>
        <time>2020-08-05T08:18:03.848Z</time>
      </trkpt>
      <trkpt lat="38.872099" lon="-1.924636">
        <ele>754.226339</ele>
        <time>2020-08-05T08:18:05.852Z</time>
      </trkpt>
      <trkpt lat="38.872038" lon="-1.924737">
        <ele>754.125776</ele>
        <time>2020-08-05T08:18:07.853Z</time>
      </trkpt>
      <trkpt lat="38.871977" lon="-1.924839">
        <ele>754.024589</ele>
        <time>2020-08-05T08:18:09.842Z</time>
      </trkpt>
      <trkpt lat="38.871891" lon="-1.924979">
        <ele>753.884293</ele>
        <time>2020-08-05T08:18:12.859Z</time>
      </trkpt>
      <trkpt lat="38.871834" lon="-1.925074">
        <ele>753.789936</ele>
        <time>2020-08-05T08:18:14.842Z</time>
      </trkpt>
      <trkpt lat="38.871755" lon="-1.925208">
        <ele>753.675120</ele>
        <time>2020-08-05T08:18:17.854Z</time>
      </trkpt>
      <trkpt lat="38.871691" lon="-1.925306">
        <ele>753.608914</ele>
        <time>2020-08-05T08:18:19.843Z</time>
      </trkpt>
      <trkpt lat="38.871634" lon="-1.925411">
        <ele>753.542661</ele>
        <time>2020-08-05T08:18:21.860Z</time>
      </trkpt>
      <trkpt lat="38.871577" lon="-1.925517">
        <ele>753.475982</ele>
        <time>2020-08-05T08:18:23.851Z</time>
      </trkpt>
      <trkpt lat="38.871517" lon="-1.925611">
        <ele>753.413067</ele>
        <time>2020-08-05T08:18:25.861Z</time>
      </trkpt>
      <trkpt lat="38.871459" lon="-1.925709">
        <ele>753.349352</ele>
        <time>2020-08-05T08:18:27.864Z</time>
      </trkpt>
      <trkpt lat="38.871394" lon="-1.925814">
        <ele>753.279919</ele>
        <time>2020-08-05T08:18:29.866Z</time>
      </trkpt>
      <trkpt lat="38.871330" lon="-1.925908">
        <ele>753.215286</ele>
        <time>2020-08-05T08:18:31.852Z</time>
      </trkpt>
      <trkpt lat="38.871262" lon="-1.926012">
        <ele>753.144992</ele>
        <time>2020-08-05T08:18:33.863Z</time>
      </trkpt>
      <trkpt lat="38.871205" lon="-1.926103">
        <ele>753.084540</ele>
        <time>2020-08-05T08:18:35.864Z</time>
      </trkpt>
      <trkpt lat="38.871126" lon="-1.926243">
        <ele>752.995046</ele>
        <time>2020-08-05T08:18:38.860Z</time>
      </trkpt>
      <trkpt lat="38.871074" lon="-1.926339">
        <ele>752.934514</ele>
        <time>2020-08-05T08:18:40.855Z</time>
      </trkpt>
      <trkpt lat="38.871013" lon="-1.926432">
        <ele>752.871573</ele>
        <time>2020-08-05T08:18:42.838Z</time>
      </trkpt>
      <trkpt lat="38.870920" lon="-1.926558">
        <ele>752.781707</ele>
        <time>2020-08-05T08:18:45.867Z</time>
      </trkpt>
      <trkpt lat="38.870842" lon="-1.926695">
        <ele>752.693860</ele>
        <time>2020-08-05T08:18:48.876Z</time>
      </trkpt>
      <trkpt lat="38.870780" lon="-1.926845">
        <ele>752.605958</ele>
        <time>2020-08-05T08:18:51.859Z</time>
      </trkpt>
      <trkpt lat="38.870756" lon="-1.926959">
        <ele>752.544833</ele>
        <time>2020-08-05T08:18:53.863Z</time>
      </trkpt>
      <trkpt lat="38.870809" lon="-1.927054">
        <ele>752.476241</ele>
        <time>2020-08-05T08:18:55.850Z</time>
      </trkpt>
      <trkpt lat="38.870892" lon="-1.927157">
        <ele>752.377733</ele>
        <time>2020-08-05T08:18:57.872Z</time>
      </trkpt>
      <trkpt lat="38.870986" lon="-1.927261">
        <ele>752.271837</ele>
        <time>2020-08-05T08:18:59.846Z</time>
      </trkpt>
      <trkpt lat="38.871089" lon="-1.927377">
        <ele>752.154912</ele>
        <time>2020-08-05T08:19:01.845Z</time>
      </trkpt>
      <trkpt lat="38.871188" lon="-1.927508">
        <ele>752.033591</ele>
        <time>2020-08-05T08:19:03.852Z</time>
      </trkpt>
      <trkpt lat="38.871296" lon="-1.927632">
        <ele>751.909947</ele>
        <time>2020-08-05T08:19:05.859Z</time>
      </trkpt>
      <trkpt lat="38.871403" lon="-1.927763">
        <ele>751.783775</ele>
        <time>2020-08-05T08:19:07.860Z</time>
      </trkpt>
      <trkpt lat="38.871511" lon="-1.927900">
        <ele>751.654213</ele>
        <time>2020-08-05T08:19:09.846Z</time>
      </trkpt>
      <trkpt lat="38.871636" lon="-1.928038">
        <ele>751.513524</ele>
        <time>2020-08-05T08:19:11.850Z</time>
      </trkpt>
      <trkpt lat="38.871752" lon="-1.928177">
        <ele>751.378116</ele>
        <time>2020-08-05T08:19:13.867Z</time>
      </trkpt>
      <trkpt lat="38.871871" lon="-1.928308">
        <ele>751.244343</ele>
        <time>2020-08-05T08:19:15.861Z</time>
      </trkpt>
      <trkpt lat="38.871988" lon="-1.928445">
        <ele>751.109209</ele>
        <time>2020-08-05T08:19:17.864Z</time>
      </trkpt>
      <trkpt lat="38.872105" lon="-1.928587">
        <ele>750.979018</ele>
        <time>2020-08-05T08:19:19.865Z</time>
      </trkpt>
      <trkpt lat="38.872228" lon="-1.928729">
        <ele>751.012290</ele>
        <time>2020-08-05T08:19:21.860Z</time>
      </trkpt>
      <trkpt lat="38.872353" lon="-1.928875">
        <ele>751.046280</ele>
        <time>2020-08-05T08:19:23.848Z</time>
      </trkpt>
      <trkpt lat="38.872475" lon="-1.929013">
        <ele>751.078985</ele>
        <time>2020-08-05T08:19:25.848Z</time>
      </trkpt>
      <trkpt lat="38.872599" lon="-1.929157">
        <ele>751.112617</ele>
        <time>2020-08-05T08:19:27.874Z</time>
      </trkpt>
      <trkpt lat="38.872722" lon="-1.929297">
        <ele>751.145680</ele>
        <time>2020-08-05T08:19:29.857Z</time>
      </trkpt>
      <trkpt lat="38.872839" lon="-1.929439">
        <ele>751.178064</ele>
        <time>2020-08-05T08:19:31.870Z</time>
      </trkpt>
      <trkpt lat="38.872956" lon="-1.929571">
        <ele>751.209393</ele>
        <time>2020-08-05T08:19:33.850Z</time>
      </trkpt>
      <trkpt lat="38.873074" lon="-1.929708">
        <ele>751.241393</ele>
        <time>2020-08-05T08:19:35.839Z</time>
      </trkpt>
      <trkpt lat="38.873191" lon="-1.929840">
        <ele>751.272722</ele>
        <time>2020-08-05T08:19:37.852Z</time>
      </trkpt>
      <trkpt lat="38.873298" lon="-1.929958">
        <ele>751.301095</ele>
        <time>2020-08-05T08:19:39.866Z</time>
      </trkpt>
      <trkpt lat="38.873397" lon="-1.930078">
        <ele>751.328480</ele>
        <time>2020-08-05T08:19:41.874Z</time>
      </trkpt>
      <trkpt lat="38.873499" lon="-1.930202">
        <ele>751.238719</ele>
        <time>2020-08-05T08:19:43.869Z</time>
      </trkpt>
      <trkpt lat="38.873601" lon="-1.930322">
        <ele>751.075995</ele>
        <time>2020-08-05T08:19:45.863Z</time>
      </trkpt>
      <trkpt lat="38.873707" lon="-1.930438">
        <ele>750.912171</ele>
        <time>2020-08-05T08:19:47.865Z</time>
      </trkpt>
      <trkpt lat="38.873805" lon="-1.930563">
        <ele>750.749692</ele>
        <time>2020-08-05T08:19:49.864Z</time>
      </trkpt>
      <trkpt lat="38.873919" lon="-1.930687">
        <ele>750.573951</ele>
        <time>2020-08-05T08:19:51.847Z</time>
      </trkpt>
      <trkpt lat="38.874024" lon="-1.930821">
        <ele>750.399821</ele>
        <time>2020-08-05T08:19:53.872Z</time>
      </trkpt>
      <trkpt lat="38.874136" lon="-1.930955">
        <ele>750.219756</ele>
        <time>2020-08-05T08:19:55.844Z</time>
      </trkpt>
      <trkpt lat="38.874259" lon="-1.931105">
        <ele>750.020224</ele>
        <time>2020-08-05T08:19:57.874Z</time>
      </trkpt>
      <trkpt lat="38.874378" lon="-1.931250">
        <ele>749.827259</ele>
        <time>2020-08-05T08:19:59.841Z</time>
      </trkpt>
      <trkpt lat="38.874501" lon="-1.931392">
        <ele>749.632700</ele>
        <time>2020-08-05T08:20:01.839Z</time>
      </trkpt>
      <trkpt lat="38.874623" lon="-1.931534">
        <ele>749.439014</ele>
        <time>2020-08-05T08:20:03.840Z</time>
      </trkpt>
      <trkpt lat="38.874748" lon="-1.931675">
        <ele>749.243305</ele>
        <time>2020-08-05T08:20:05.866Z</time>
      </trkpt>
      <trkpt lat="38.874873" lon="-1.931809">
        <ele>749.113565</ele>
        <time>2020-08-05T08:20:07.861Z</time>
      </trkpt>
      <trkpt lat="38.874988" lon="-1.931938">
        <ele>748.998581</ele>
        <time>2020-08-05T08:20:09.862Z</time>
      </trkpt>
      <trkpt lat="38.875100" lon="-1.932072">
        <ele>748.883312</ele>
        <time>2020-08-05T08:20:11.841Z</time>
      </trkpt>
      <trkpt lat="38.875206" lon="-1.932199">
        <ele>748.774146</ele>
        <time>2020-08-05T08:20:13.848Z</time>
      </trkpt>
      <trkpt lat="38.875309" lon="-1.932323">
        <ele>748.667833</ele>
        <time>2020-08-05T08:20:15.847Z</time>
      </trkpt>
      <trkpt lat="38.875420" lon="-1.932445">
        <ele>748.557812</ele>
        <time>2020-08-05T08:20:17.866Z</time>
      </trkpt>
      <trkpt lat="38.875520" lon="-1.932571">
        <ele>748.452318</ele>
        <time>2020-08-05T08:20:19.866Z</time>
      </trkpt>
      <trkpt lat="38.875623" lon="-1.932681">
        <ele>748.351439</ele>
        <time>2020-08-05T08:20:21.861Z</time>
      </trkpt>
      <trkpt lat="38.875684" lon="-1.932797">
        <ele>748.269367</ele>
        <time>2020-08-05T08:20:23.852Z</time>
      </trkpt>
      <trkpt lat="38.875652" lon="-1.932956">
        <ele>748.173080</ele>
        <time>2020-08-05T08:20:26.846Z</time>
      </trkpt>
      <trkpt lat="38.875576" lon="-1.933083">
        <ele>748.079164</ele>
        <time>2020-08-05T08:20:29.849Z</time>
      </trkpt>
      <trkpt lat="38.875491" lon="-1.933203">
        <ele>747.984044</ele>
        <time>2020-08-05T08:20:32.856Z</time>
      </trkpt>
      <trkpt lat="38.875404" lon="-1.933320">
        <ele>747.889184</ele>
        <time>2020-08-05T08:20:35.850Z</time>
      </trkpt>
      <trkpt lat="38.875317" lon="-1.933442">
        <ele>747.972138</ele>
        <time>2020-08-05T08:20:38.857Z</time>
      </trkpt>
      <trkpt lat="38.875235" lon="-1.933551">
        <ele>748.091631</ele>
        <time>2020-08-05T08:20:41.852Z</time>
      </trkpt>
      <trkpt lat="38.875149" lon="-1.933665">
        <ele>748.216773</ele>
        <time>2020-08-05T08:20:44.842Z</time>
      </trkpt>
      <trkpt lat="38.875066" lon="-1.933771">
        <ele>748.335293</ele>
        <time>2020-08-05T08:20:47.869Z</time>
      </trkpt>
      <trkpt lat="38.874993" lon="-1.933864">
        <ele>748.439406</ele>
        <time>2020-08-05T08:20:50.859Z</time>
      </trkpt>
      <trkpt lat="38.874910" lon="-1.933966">
        <ele>748.555725</ele>
        <time>2020-08-05T08:20:54.872Z</time>
      </trkpt>
      <trkpt lat="38.874828" lon="-1.934050">
        <ele>748.661932</ele>
        <time>2020-08-05T08:20:57.849Z</time>
      </trkpt>
      <trkpt lat="38.874736" lon="-1.934138">
        <ele>748.778086</ele>
        <time>2020-08-05T08:21:00.862Z</time>
      </trkpt>
      <trkpt lat="38.874650" lon="-1.934230">
        <ele>748.891418</ele>
        <time>2020-08-05T08:21:03.845Z</time>
      </trkpt>
      <trkpt lat="38.874561" lon="-1.934332">
        <ele>749.012199</ele>
        <time>2020-08-05T08:21:06.848Z</time>
      </trkpt>
      <trkpt lat="38.874465" lon="-1.934438">
        <ele>749.140391</ele>
        <time>2020-08-05T08:21:09.850Z</time>
      </trkpt>
      <trkpt lat="38.874371" lon="-1.934546">
        <ele>749.268100</ele>
        <time>2020-08-05T08:21:12.857Z</time>
      </trkpt>
      <trkpt lat="38.874284" lon="-1.934646">
        <ele>749.386321</ele>
        <time>2020-08-05T08:21:15.852Z</time>
      </trkpt>
      <trkpt lat="38.874197" lon="-1.934741">
        <ele>749.501951</ele>
        <time>2020-08-05T08:21:18.865Z</time>
      </trkpt>
      <trkpt lat="38.874105" lon="-1.934839">
        <ele>749.622979</ele>
        <time>2020-08-05T08:21:21.857Z</time>
      </trkpt>
      <trkpt lat="38.874015" lon="-1.934933">
        <ele>749.675735</ele>
        <time>2020-08-05T08:21:24.859Z</time>
      </trkpt>
      <trkpt lat="38.873918" lon="-1.935031">
        <ele>749.639504</ele>
        <time>2020-08-05T08:21:27.862Z</time>
      </trkpt>
      <trkpt lat="38.873818" lon="-1.935138">
        <ele>749.601294</ele>
        <time>2020-08-05T08:21:30.855Z</time>
      </trkpt>
      <trkpt lat="38.873722" lon="-1.935240">
        <ele>749.564718</ele>
        <time>2020-08-05T08:21:33.860Z</time>
      </trkpt>
      <trkpt lat="38.873640" lon="-1.935324">
        <ele>749.533926</ele>
        <time>2020-08-05T08:21:35.862Z</time>
      </trkpt>
      <trkpt lat="38.873560" lon="-1.935396">
        <ele>749.505248</ele>
        <time>2020-08-05T08:21:37.843Z</time>
      </trkpt>
      <trkpt lat="38.873488" lon="-1.935476">
        <ele>749.477299</ele>
        <time>2020-08-05T08:21:39.873Z</time>
      </trkpt>
      <trkpt lat="38.873415" lon="-1.935551">
        <ele>749.449855</ele>
        <time>2020-08-05T08:21:41.863Z</time>
      </trkpt>
      <trkpt lat="38.873347" lon="-1.935636">
        <ele>749.421998</ele>
        <time>2020-08-05T08:21:43.865Z</time>
      </trkpt>
      <trkpt lat="38.873274" lon="-1.935720">
        <ele>749.393225</ele>
        <time>2020-08-05T08:21:45.859Z</time>
      </trkpt>
      <trkpt lat="38.873172" lon="-1.935818">
        <ele>749.355829</ele>
        <time>2020-08-05T08:21:48.867Z</time>
      </trkpt>
      <trkpt lat="38.873072" lon="-1.935923">
        <ele>749.317910</ele>
        <time>2020-08-05T08:21:51.847Z</time>
      </trkpt>
      <trkpt lat="38.872974" lon="-1.936024">
        <ele>749.281022</ele>
        <time>2020-08-05T08:21:54.852Z</time>
      </trkpt>
      <trkpt lat="38.872882" lon="-1.936129">
        <ele>749.244891</ele>
        <time>2020-08-05T08:21:57.863Z</time>
      </trkpt>
      <trkpt lat="38.872787" lon="-1.936238">
        <ele>749.207494</ele>
        <time>2020-08-05T08:22:00.860Z</time>
      </trkpt>
      <trkpt lat="38.872701" lon="-1.936345">
        <ele>749.172343</ele>
        <time>2020-08-05T08:22:03.856Z</time>
      </trkpt>
      <trkpt lat="38.872618" lon="-1.936447">
        <ele>749.126421</ele>
        <time>2020-08-05T08:22:06.856Z</time>
      </trkpt>
      <trkpt lat="38.872544" lon="-1.936544">
        <ele>749.079343</ele>
        <time>2020-08-05T08:22:09.870Z</time>
      </trkpt>
      <trkpt lat="38.872457" lon="-1.936643">
        <ele>749.027590</ele>
        <time>2020-08-05T08:22:12.867Z</time>
      </trkpt>
      <trkpt lat="38.872384" lon="-1.936736">
        <ele>748.981810</ele>
        <time>2020-08-05T08:22:15.860Z</time>
      </trkpt>
      <trkpt lat="38.872313" lon="-1.936828">
        <ele>748.936905</ele>
        <time>2020-08-05T08:22:18.859Z</time>
      </trkpt>
      <trkpt lat="38.872229" lon="-1.936929">
        <ele>748.885673</ele>
        <time>2020-08-05T08:22:21.858Z</time>
      </trkpt>
      <trkpt lat="38.872147" lon="-1.937028">
        <ele>748.835565</ele>
        <time>2020-08-05T08:22:24.868Z</time>
      </trkpt>
      <trkpt lat="38.872068" lon="-1.937127">
        <ele>748.786421</ele>
        <time>2020-08-05T08:22:27.851Z</time>
      </trkpt>
      <trkpt lat="38.871991" lon="-1.937217">
        <ele>748.740066</ele>
        <time>2020-08-05T08:22:30.866Z</time>
      </trkpt>
      <trkpt lat="38.871911" lon="-1.937314">
        <ele>748.691081</ele>
        <time>2020-08-05T08:22:33.843Z</time>
      </trkpt>
      <trkpt lat="38.871829" lon="-1.937408">
        <ele>748.642144</ele>
        <time>2020-08-05T08:22:36.859Z</time>
      </trkpt>
      <trkpt lat="38.871752" lon="-1.937497">
        <ele>748.596021</ele>
        <time>2020-08-05T08:22:39.860Z</time>
      </trkpt>
      <trkpt lat="38.871679" lon="-1.937586">
        <ele>748.551206</ele>
        <time>2020-08-05T08:22:42.870Z</time>
      </trkpt>
      <trkpt lat="38.871606" lon="-1.937671">
        <ele>748.507334</ele>
        <time>2020-08-05T08:22:45.850Z</time>
      </trkpt>
      <trkpt lat="38.871539" lon="-1.937752">
        <ele>748.466366</ele>
        <time>2020-08-05T08:22:48.858Z</time>
      </trkpt>
      <trkpt lat="38.871460" lon="-1.937855">
        <ele>748.416244</ele>
        <time>2020-08-05T08:22:52.858Z</time>
      </trkpt>
      <trkpt lat="38.871380" lon="-1.937947">
        <ele>748.368433</ele>
        <time>2020-08-05T08:22:56.853Z</time>
      </trkpt>
      <trkpt lat="38.871467" lon="-1.937832">
        <ele>748.544064</ele>
        <time>2020-08-05T08:25:59.424Z</time>
      </trkpt>
      <trkpt lat="38.871616" lon="-1.937668">
        <ele>748.872993</ele>
        <time>2020-08-05T08:27:58.416Z</time>
      </trkpt>
      <trkpt lat="38.871695" lon="-1.937585">
        <ele>749.044080</ele>
        <time>2020-08-05T08:28:07.414Z</time>
      </trkpt>
      <trkpt lat="38.871852" lon="-1.937403">
        <ele>749.398595</ele>
        <time>2020-08-05T08:28:48.407Z</time>
      </trkpt>
      <trkpt lat="38.871918" lon="-1.937302">
        <ele>749.570685</ele>
        <time>2020-08-05T08:28:59.406Z</time>
      </trkpt>
      <trkpt lat="38.871986" lon="-1.937217">
        <ele>749.729742</ele>
        <time>2020-08-05T08:29:04.410Z</time>
      </trkpt>
      <trkpt lat="38.872058" lon="-1.937129">
        <ele>749.896345</ele>
        <time>2020-08-05T08:29:11.418Z</time>
      </trkpt>
      <trkpt lat="38.872128" lon="-1.937044">
        <ele>750.057822</ele>
        <time>2020-08-05T08:29:15.413Z</time>
      </trkpt>
      <trkpt lat="38.872207" lon="-1.936952">
        <ele>750.236576</ele>
        <time>2020-08-05T08:29:19.402Z</time>
      </trkpt>
      <trkpt lat="38.872291" lon="-1.936846">
        <ele>750.433970</ele>
        <time>2020-08-05T08:29:23.421Z</time>
      </trkpt>
      <trkpt lat="38.872357" lon="-1.936763">
        <ele>750.588805</ele>
        <time>2020-08-05T08:29:26.405Z</time>
      </trkpt>
      <trkpt lat="38.872425" lon="-1.936678">
        <ele>750.747861</ele>
        <time>2020-08-05T08:29:29.405Z</time>
      </trkpt>
      <trkpt lat="38.872492" lon="-1.936590">
        <ele>750.908496</ele>
        <time>2020-08-05T08:29:32.420Z</time>
      </trkpt>
      <trkpt lat="38.872565" lon="-1.936502">
        <ele>751.076317</ele>
        <time>2020-08-05T08:29:35.398Z</time>
      </trkpt>
      <trkpt lat="38.872650" lon="-1.936398">
        <ele>751.273101</ele>
        <time>2020-08-05T08:29:39.404Z</time>
      </trkpt>
      <trkpt lat="38.872719" lon="-1.936295">
        <ele>751.377054</ele>
        <time>2020-08-05T08:29:43.422Z</time>
      </trkpt>
      <trkpt lat="38.872814" lon="-1.936192">
        <ele>751.378817</ele>
        <time>2020-08-05T08:29:47.400Z</time>
      </trkpt>
      <trkpt lat="38.872905" lon="-1.936080">
        <ele>751.380604</ele>
        <time>2020-08-05T08:29:50.416Z</time>
      </trkpt>
      <trkpt lat="38.872998" lon="-1.935998">
        <ele>751.382204</ele>
        <time>2020-08-05T08:29:53.401Z</time>
      </trkpt>
      <trkpt lat="38.873084" lon="-1.935929">
        <ele>751.383642</ele>
        <time>2020-08-05T08:29:56.419Z</time>
      </trkpt>
      <trkpt lat="38.873160" lon="-1.935847">
        <ele>751.385049</ele>
        <time>2020-08-05T08:29:59.428Z</time>
      </trkpt>
      <trkpt lat="38.873238" lon="-1.935764">
        <ele>751.386485</ele>
        <time>2020-08-05T08:30:02.426Z</time>
      </trkpt>
      <trkpt lat="38.873321" lon="-1.935674">
        <ele>751.388025</ele>
        <time>2020-08-05T08:30:05.394Z</time>
      </trkpt>
      <trkpt lat="38.873402" lon="-1.935584">
        <ele>751.389544</ele>
        <time>2020-08-05T08:30:08.401Z</time>
      </trkpt>
      <trkpt lat="38.873493" lon="-1.935490">
        <ele>751.391200</ele>
        <time>2020-08-05T08:30:11.396Z</time>
      </trkpt>
      <trkpt lat="38.873585" lon="-1.935393">
        <ele>751.392887</ele>
        <time>2020-08-05T08:30:14.403Z</time>
      </trkpt>
      <trkpt lat="38.873678" lon="-1.935292">
        <ele>751.394614</ele>
        <time>2020-08-05T08:30:17.411Z</time>
      </trkpt>
      <trkpt lat="38.873770" lon="-1.935186">
        <ele>751.396367</ele>
        <time>2020-08-05T08:30:20.401Z</time>
      </trkpt>
      <trkpt lat="38.873855" lon="-1.935082">
        <ele>751.398031</ele>
        <time>2020-08-05T08:30:23.404Z</time>
      </trkpt>
      <trkpt lat="38.873942" lon="-1.934989">
        <ele>751.399636</ele>
        <time>2020-08-05T08:30:26.414Z</time>
      </trkpt>
      <trkpt lat="38.874038" lon="-1.934898">
        <ele>751.401328</ele>
        <time>2020-08-05T08:30:29.407Z</time>
      </trkpt>
      <trkpt lat="38.874134" lon="-1.934808">
        <ele>751.344111</ele>
        <time>2020-08-05T08:30:32.408Z</time>
      </trkpt>
      <trkpt lat="38.874222" lon="-1.934714">
        <ele>751.257313</ele>
        <time>2020-08-05T08:30:35.405Z</time>
      </trkpt>
      <trkpt lat="38.874310" lon="-1.934618">
        <ele>751.169754</ele>
        <time>2020-08-05T08:30:38.414Z</time>
      </trkpt>
      <trkpt lat="38.874396" lon="-1.934516">
        <ele>751.080982</ele>
        <time>2020-08-05T08:30:41.407Z</time>
      </trkpt>
      <trkpt lat="38.874493" lon="-1.934416">
        <ele>750.986657</ele>
        <time>2020-08-05T08:30:44.402Z</time>
      </trkpt>
      <trkpt lat="38.874582" lon="-1.934321">
        <ele>750.898898</ele>
        <time>2020-08-05T08:30:47.401Z</time>
      </trkpt>
      <trkpt lat="38.874676" lon="-1.934231">
        <ele>750.809985</ele>
        <time>2020-08-05T08:30:50.401Z</time>
      </trkpt>
      <trkpt lat="38.874777" lon="-1.934142">
        <ele>750.717097</ele>
        <time>2020-08-05T08:30:53.407Z</time>
      </trkpt>
      <trkpt lat="38.874871" lon="-1.934052">
        <ele>750.628185</ele>
        <time>2020-08-05T08:30:56.409Z</time>
      </trkpt>
      <trkpt lat="38.874962" lon="-1.933971">
        <ele>750.544222</ele>
        <time>2020-08-05T08:30:59.408Z</time>
      </trkpt>
      <trkpt lat="38.875031" lon="-1.933887">
        <ele>750.472126</ele>
        <time>2020-08-05T08:31:02.410Z</time>
      </trkpt>
      <trkpt lat="38.875113" lon="-1.933769">
        <ele>750.378741</ele>
        <time>2020-08-05T08:31:06.415Z</time>
      </trkpt>
      <trkpt lat="38.875184" lon="-1.933659">
        <ele>750.294378</ele>
        <time>2020-08-05T08:31:09.422Z</time>
      </trkpt>
      <trkpt lat="38.875251" lon="-1.933560">
        <ele>750.216929</ele>
        <time>2020-08-05T08:31:12.418Z</time>
      </trkpt>
      <trkpt lat="38.875315" lon="-1.933464">
        <ele>750.142309</ele>
        <time>2020-08-05T08:31:15.406Z</time>
      </trkpt>
      <trkpt lat="38.875380" lon="-1.933371">
        <ele>750.068520</ele>
        <time>2020-08-05T08:31:18.420Z</time>
      </trkpt>
      <trkpt lat="38.875445" lon="-1.933282">
        <ele>750.032211</ele>
        <time>2020-08-05T08:31:21.410Z</time>
      </trkpt>
      <trkpt lat="38.875508" lon="-1.933188">
        <ele>750.022181</ele>
        <time>2020-08-05T08:31:24.409Z</time>
      </trkpt>
      <trkpt lat="38.875558" lon="-1.933087">
        <ele>750.012502</ele>
        <time>2020-08-05T08:31:27.410Z</time>
      </trkpt>
      <trkpt lat="38.875615" lon="-1.932994">
        <ele>750.002931</ele>
        <time>2020-08-05T08:31:30.410Z</time>
      </trkpt>
      <trkpt lat="38.875682" lon="-1.932889">
        <ele>749.991953</ele>
        <time>2020-08-05T08:31:34.411Z</time>
      </trkpt>
      <trkpt lat="38.875784" lon="-1.932897">
        <ele>749.981339</ele>
        <time>2020-08-05T08:31:41.420Z</time>
      </trkpt>
      <trkpt lat="38.875841" lon="-1.933022">
        <ele>749.969625</ele>
        <time>2020-08-05T08:31:45.417Z</time>
      </trkpt>
      <trkpt lat="38.875872" lon="-1.933156">
        <ele>749.958321</ele>
        <time>2020-08-05T08:31:49.406Z</time>
      </trkpt>
      <trkpt lat="38.875788" lon="-1.933260">
        <ele>749.946203</ele>
        <time>2020-08-05T08:31:53.403Z</time>
      </trkpt>
      <trkpt lat="38.875706" lon="-1.933345">
        <ele>749.935259</ele>
        <time>2020-08-05T08:31:56.401Z</time>
      </trkpt>
      <trkpt lat="38.875630" lon="-1.933423">
        <ele>749.925155</ele>
        <time>2020-08-05T08:31:59.401Z</time>
      </trkpt>
      <trkpt lat="38.875547" lon="-1.933493">
        <ele>749.914841</ele>
        <time>2020-08-05T08:32:02.411Z</time>
      </trkpt>
      <trkpt lat="38.875473" lon="-1.933579">
        <ele>749.904476</ele>
        <time>2020-08-05T08:32:05.397Z</time>
      </trkpt>
      <trkpt lat="38.875400" lon="-1.933663">
        <ele>749.894296</ele>
        <time>2020-08-05T08:32:08.424Z</time>
      </trkpt>
      <trkpt lat="38.875334" lon="-1.933748">
        <ele>749.884589</ele>
        <time>2020-08-05T08:32:11.407Z</time>
      </trkpt>
      <trkpt lat="38.875257" lon="-1.933852">
        <ele>749.872983</ele>
        <time>2020-08-05T08:32:14.401Z</time>
      </trkpt>
      <trkpt lat="38.875162" lon="-1.933957">
        <ele>749.859966</ele>
        <time>2020-08-05T08:32:17.414Z</time>
      </trkpt>
      <trkpt lat="38.875059" lon="-1.934044">
        <ele>749.832709</ele>
        <time>2020-08-05T08:32:20.402Z</time>
      </trkpt>
      <trkpt lat="38.874988" lon="-1.934114">
        <ele>749.788963</ele>
        <time>2020-08-05T08:32:22.413Z</time>
      </trkpt>
      <trkpt lat="38.874891" lon="-1.934228">
        <ele>749.724703</ele>
        <time>2020-08-05T08:32:25.405Z</time>
      </trkpt>
      <trkpt lat="38.874796" lon="-1.934341">
        <ele>749.661419</ele>
        <time>2020-08-05T08:32:28.399Z</time>
      </trkpt>
      <trkpt lat="38.874699" lon="-1.934448">
        <ele>749.598925</ele>
        <time>2020-08-05T08:32:31.398Z</time>
      </trkpt>
      <trkpt lat="38.874595" lon="-1.934563">
        <ele>749.531852</ele>
        <time>2020-08-05T08:32:34.408Z</time>
      </trkpt>
      <trkpt lat="38.874518" lon="-1.934636">
        <ele>749.485076</ele>
        <time>2020-08-05T08:32:36.407Z</time>
      </trkpt>
      <trkpt lat="38.874448" lon="-1.934714">
        <ele>749.439783</ele>
        <time>2020-08-05T08:32:38.410Z</time>
      </trkpt>
      <trkpt lat="38.874352" lon="-1.934830">
        <ele>749.375363</ele>
        <time>2020-08-05T08:32:41.408Z</time>
      </trkpt>
      <trkpt lat="38.874251" lon="-1.934939">
        <ele>749.310886</ele>
        <time>2020-08-05T08:32:44.415Z</time>
      </trkpt>
      <trkpt lat="38.874181" lon="-1.935014">
        <ele>749.266333</ele>
        <time>2020-08-05T08:32:46.402Z</time>
      </trkpt>
      <trkpt lat="38.874078" lon="-1.935127">
        <ele>749.200126</ele>
        <time>2020-08-05T08:32:49.415Z</time>
      </trkpt>
      <trkpt lat="38.874013" lon="-1.935209">
        <ele>749.155596</ele>
        <time>2020-08-05T08:32:51.411Z</time>
      </trkpt>
      <trkpt lat="38.873917" lon="-1.935309">
        <ele>749.095184</ele>
        <time>2020-08-05T08:32:54.426Z</time>
      </trkpt>
      <trkpt lat="38.873817" lon="-1.935416">
        <ele>749.031571</ele>
        <time>2020-08-05T08:32:57.411Z</time>
      </trkpt>
      <trkpt lat="38.873719" lon="-1.935526">
        <ele>748.968312</ele>
        <time>2020-08-05T08:33:00.420Z</time>
      </trkpt>
      <trkpt lat="38.873618" lon="-1.935628">
        <ele>748.911067</ele>
        <time>2020-08-05T08:33:03.408Z</time>
      </trkpt>
      <trkpt lat="38.873524" lon="-1.935741">
        <ele>748.853703</ele>
        <time>2020-08-05T08:33:06.417Z</time>
      </trkpt>
      <trkpt lat="38.873432" lon="-1.935855">
        <ele>748.796746</ele>
        <time>2020-08-05T08:33:09.422Z</time>
      </trkpt>
      <trkpt lat="38.873340" lon="-1.935963">
        <ele>748.741214</ele>
        <time>2020-08-05T08:33:12.401Z</time>
      </trkpt>
      <trkpt lat="38.873246" lon="-1.936061">
        <ele>748.687272</ele>
        <time>2020-08-05T08:33:15.411Z</time>
      </trkpt>
      <trkpt lat="38.873153" lon="-1.936160">
        <ele>748.633454</ele>
        <time>2020-08-05T08:33:18.412Z</time>
      </trkpt>
      <trkpt lat="38.873063" lon="-1.936268">
        <ele>748.578576</ele>
        <time>2020-08-05T08:33:21.409Z</time>
      </trkpt>
      <trkpt lat="38.872968" lon="-1.936371">
        <ele>748.523184</ele>
        <time>2020-08-05T08:33:24.415Z</time>
      </trkpt>
      <trkpt lat="38.872868" lon="-1.936484">
        <ele>748.463840</ele>
        <time>2020-08-05T08:33:27.414Z</time>
      </trkpt>
      <trkpt lat="38.872804" lon="-1.936566">
        <ele>748.423563</ele>
        <time>2020-08-05T08:33:29.416Z</time>
      </trkpt>
      <trkpt lat="38.872730" lon="-1.936650">
        <ele>748.379561</ele>
        <time>2020-08-05T08:33:31.415Z</time>
      </trkpt>
      <trkpt lat="38.872662" lon="-1.936731">
        <ele>748.338240</ele>
        <time>2020-08-05T08:33:33.397Z</time>
      </trkpt>
      <trkpt lat="38.872589" lon="-1.936813">
        <ele>748.295031</ele>
        <time>2020-08-05T08:33:35.415Z</time>
      </trkpt>
      <trkpt lat="38.872510" lon="-1.936886">
        <ele>748.251669</ele>
        <time>2020-08-05T08:33:37.425Z</time>
      </trkpt>
      <trkpt lat="38.872411" lon="-1.936995">
        <ele>748.193571</ele>
        <time>2020-08-05T08:33:40.417Z</time>
      </trkpt>
      <trkpt lat="38.872316" lon="-1.937112">
        <ele>748.157280</ele>
        <time>2020-08-05T08:33:43.415Z</time>
      </trkpt>
      <trkpt lat="38.872248" lon="-1.937190">
        <ele>748.142153</ele>
        <time>2020-08-05T08:33:45.421Z</time>
      </trkpt>
      <trkpt lat="38.872184" lon="-1.937274">
        <ele>748.126970</ele>
        <time>2020-08-05T08:33:47.416Z</time>
      </trkpt>
      <trkpt lat="38.872098" lon="-1.937391">
        <ele>748.106184</ele>
        <time>2020-08-05T08:33:50.411Z</time>
      </trkpt>
      <trkpt lat="38.872001" lon="-1.937513">
        <ele>748.083658</ele>
        <time>2020-08-05T08:33:53.427Z</time>
      </trkpt>
      <trkpt lat="38.871936" lon="-1.937603">
        <ele>748.067800</ele>
        <time>2020-08-05T08:33:55.425Z</time>
      </trkpt>
      <trkpt lat="38.871863" lon="-1.937682">
        <ele>748.051962</ele>
        <time>2020-08-05T08:33:57.406Z</time>
      </trkpt>
      <trkpt lat="38.871790" lon="-1.937767">
        <ele>748.035613</ele>
        <time>2020-08-05T08:33:59.403Z</time>
      </trkpt>
      <trkpt lat="38.871726" lon="-1.937851">
        <ele>748.020430</ele>
        <time>2020-08-05T08:34:01.418Z</time>
      </trkpt>
      <trkpt lat="38.871660" lon="-1.937940">
        <ele>748.004552</ele>
        <time>2020-08-05T08:34:03.424Z</time>
      </trkpt>
      <trkpt lat="38.871592" lon="-1.938018">
        <ele>747.989425</ele>
        <time>2020-08-05T08:34:05.403Z</time>
      </trkpt>
      <trkpt lat="38.871538" lon="-1.938111">
        <ele>747.974438</ele>
        <time>2020-08-05T08:34:07.409Z</time>
      </trkpt>
      <trkpt lat="38.871470" lon="-1.938195">
        <ele>747.958784</ele>
        <time>2020-08-05T08:34:09.416Z</time>
      </trkpt>
      <trkpt lat="38.871406" lon="-1.938286">
        <ele>747.942942</ele>
        <time>2020-08-05T08:34:11.433Z</time>
      </trkpt>
      <trkpt lat="38.871321" lon="-1.938415">
        <ele>747.921111</ele>
        <time>2020-08-05T08:34:14.426Z</time>
      </trkpt>
      <trkpt lat="38.871237" lon="-1.938542">
        <ele>747.899584</ele>
        <time>2020-08-05T08:34:17.407Z</time>
      </trkpt>
      <trkpt lat="38.871191" lon="-1.938643">
        <ele>747.884468</ele>
        <time>2020-08-05T08:34:19.416Z</time>
      </trkpt>
      <trkpt lat="38.871205" lon="-1.938814">
        <ele>747.924417</ele>
        <time>2020-08-05T08:34:22.411Z</time>
      </trkpt>
      <trkpt lat="38.871227" lon="-1.938933">
        <ele>748.008351</ele>
        <time>2020-08-05T08:34:24.407Z</time>
      </trkpt>
      <trkpt lat="38.871277" lon="-1.939087">
        <ele>748.122854</ele>
        <time>2020-08-05T08:34:27.400Z</time>
      </trkpt>
      <trkpt lat="38.871327" lon="-1.939242">
        <ele>748.237991</ele>
        <time>2020-08-05T08:34:30.405Z</time>
      </trkpt>
      <trkpt lat="38.871366" lon="-1.939402">
        <ele>748.353045</ele>
        <time>2020-08-05T08:34:33.418Z</time>
      </trkpt>
      <trkpt lat="38.871406" lon="-1.939566">
        <ele>748.470983</ele>
        <time>2020-08-05T08:34:36.419Z</time>
      </trkpt>
      <trkpt lat="38.871443" lon="-1.939726">
        <ele>748.585523</ele>
        <time>2020-08-05T08:34:39.402Z</time>
      </trkpt>
      <trkpt lat="38.871496" lon="-1.939874">
        <ele>748.697316</ele>
        <time>2020-08-05T08:34:42.399Z</time>
      </trkpt>
      <trkpt lat="38.871529" lon="-1.940031">
        <ele>748.808913</ele>
        <time>2020-08-05T08:34:45.418Z</time>
      </trkpt>
      <trkpt lat="38.871578" lon="-1.940189">
        <ele>748.925625</ele>
        <time>2020-08-05T08:34:48.417Z</time>
      </trkpt>
      <trkpt lat="38.871605" lon="-1.940303">
        <ele>749.007396</ele>
        <time>2020-08-05T08:34:50.405Z</time>
      </trkpt>
      <trkpt lat="38.871641" lon="-1.940460">
        <ele>749.119712</ele>
        <time>2020-08-05T08:34:53.411Z</time>
      </trkpt>
      <trkpt lat="38.871679" lon="-1.940625">
        <ele>749.237792</ele>
        <time>2020-08-05T08:34:56.401Z</time>
      </trkpt>
      <trkpt lat="38.871716" lon="-1.940741">
        <ele>749.323817</ele>
        <time>2020-08-05T08:34:58.403Z</time>
      </trkpt>
      <trkpt lat="38.871746" lon="-1.940853">
        <ele>749.405098</ele>
        <time>2020-08-05T08:35:00.414Z</time>
      </trkpt>
      <trkpt lat="38.871801" lon="-1.941007">
        <ele>749.379433</ele>
        <time>2020-08-05T08:35:03.412Z</time>
      </trkpt>
      <trkpt lat="38.871827" lon="-1.941119">
        <ele>749.281445</ele>
        <time>2020-08-05T08:35:05.414Z</time>
      </trkpt>
      <trkpt lat="38.871855" lon="-1.941230">
        <ele>749.183619</ele>
        <time>2020-08-05T08:35:07.413Z</time>
      </trkpt>
      <trkpt lat="38.871888" lon="-1.941338">
        <ele>749.086346</ele>
        <time>2020-08-05T08:35:09.417Z</time>
      </trkpt>
      <trkpt lat="38.871922" lon="-1.941445">
        <ele>748.989452</ele>
        <time>2020-08-05T08:35:11.403Z</time>
      </trkpt>
      <trkpt lat="38.871976" lon="-1.941598">
        <ele>748.848610</ele>
        <time>2020-08-05T08:35:14.415Z</time>
      </trkpt>
      <trkpt lat="38.872007" lon="-1.941733">
        <ele>748.730604</ele>
        <time>2020-08-05T08:35:17.415Z</time>
      </trkpt>
      <trkpt lat="38.872031" lon="-1.941878">
        <ele>748.606317</ele>
        <time>2020-08-05T08:35:21.419Z</time>
      </trkpt>
      <trkpt lat="38.872059" lon="-1.942012">
        <ele>748.489994</ele>
        <time>2020-08-05T08:35:25.410Z</time>
      </trkpt>
      <trkpt lat="38.872094" lon="-1.942150">
        <ele>748.368310</ele>
        <time>2020-08-05T08:35:29.420Z</time>
      </trkpt>
      <trkpt lat="38.872133" lon="-1.942258">
        <ele>748.268495</ele>
        <time>2020-08-05T08:35:33.415Z</time>
      </trkpt>
      <trkpt lat="38.872159" lon="-1.942400">
        <ele>748.146193</ele>
        <time>2020-08-05T08:35:37.402Z</time>
      </trkpt>
      <trkpt lat="38.872186" lon="-1.942523">
        <ele>748.039048</ele>
        <time>2020-08-05T08:35:40.422Z</time>
      </trkpt>
      <trkpt lat="38.872215" lon="-1.942651">
        <ele>747.927281</ele>
        <time>2020-08-05T08:35:43.426Z</time>
      </trkpt>
      <trkpt lat="38.872234" lon="-1.942788">
        <ele>747.810611</ele>
        <time>2020-08-05T08:35:46.414Z</time>
      </trkpt>
      <trkpt lat="38.872257" lon="-1.942936">
        <ele>747.684078</ele>
        <time>2020-08-05T08:35:49.423Z</time>
      </trkpt>
      <trkpt lat="38.872277" lon="-1.943111">
        <ele>747.535785</ele>
        <time>2020-08-05T08:35:52.414Z</time>
      </trkpt>
      <trkpt lat="38.872288" lon="-1.943238">
        <ele>747.505561</ele>
        <time>2020-08-05T08:35:54.414Z</time>
      </trkpt>
      <trkpt lat="38.872301" lon="-1.943354">
        <ele>747.489537</ele>
        <time>2020-08-05T08:35:56.411Z</time>
      </trkpt>
      <trkpt lat="38.872318" lon="-1.943476">
        <ele>747.472591</ele>
        <time>2020-08-05T08:35:58.408Z</time>
      </trkpt>
      <trkpt lat="38.872335" lon="-1.943630">
        <ele>747.451324</ele>
        <time>2020-08-05T08:36:01.414Z</time>
      </trkpt>
      <trkpt lat="38.872361" lon="-1.943801">
        <ele>747.427501</ele>
        <time>2020-08-05T08:36:04.421Z</time>
      </trkpt>
      <trkpt lat="38.872391" lon="-1.943957">
        <ele>747.405531</ele>
        <time>2020-08-05T08:36:07.418Z</time>
      </trkpt>
      <trkpt lat="38.872405" lon="-1.944109">
        <ele>747.384603</ele>
        <time>2020-08-05T08:36:10.418Z</time>
      </trkpt>
      <trkpt lat="38.872435" lon="-1.944270">
        <ele>747.361968</ele>
        <time>2020-08-05T08:36:13.416Z</time>
      </trkpt>
      <trkpt lat="38.872455" lon="-1.944385">
        <ele>747.345856</ele>
        <time>2020-08-05T08:36:15.408Z</time>
      </trkpt>
      <trkpt lat="38.872482" lon="-1.944543">
        <ele>747.323739</ele>
        <time>2020-08-05T08:36:18.406Z</time>
      </trkpt>
      <trkpt lat="38.872498" lon="-1.944713">
        <ele>747.300326</ele>
        <time>2020-08-05T08:36:21.433Z</time>
      </trkpt>
      <trkpt lat="38.872517" lon="-1.944875">
        <ele>747.277926</ele>
        <time>2020-08-05T08:36:24.398Z</time>
      </trkpt>
      <trkpt lat="38.872539" lon="-1.945034">
        <ele>747.255845</ele>
        <time>2020-08-05T08:36:27.418Z</time>
      </trkpt>
      <trkpt lat="38.872560" lon="-1.945184">
        <ele>747.235007</ele>
        <time>2020-08-05T08:36:30.425Z</time>
      </trkpt>
      <trkpt lat="38.872571" lon="-1.945341">
        <ele>747.213453</ele>
        <time>2020-08-05T08:36:33.416Z</time>
      </trkpt>
      <trkpt lat="38.872594" lon="-1.945459">
        <ele>747.277983</ele>
        <time>2020-08-05T08:36:35.407Z</time>
      </trkpt>
      <trkpt lat="38.872617" lon="-1.945615">
        <ele>747.480835</ele>
        <time>2020-08-05T08:36:38.405Z</time>
      </trkpt>
      <trkpt lat="38.872632" lon="-1.945781">
        <ele>747.694344</ele>
        <time>2020-08-05T08:36:41.406Z</time>
      </trkpt>
      <trkpt lat="38.872648" lon="-1.945955">
        <ele>747.918196</ele>
        <time>2020-08-05T08:36:44.411Z</time>
      </trkpt>
      <trkpt lat="38.872657" lon="-1.946076">
        <ele>748.073493</ele>
        <time>2020-08-05T08:36:46.417Z</time>
      </trkpt>
      <trkpt lat="38.872671" lon="-1.946194">
        <ele>748.225993</ele>
        <time>2020-08-05T08:36:48.397Z</time>
      </trkpt>
      <trkpt lat="38.872694" lon="-1.946310">
        <ele>748.378928</ele>
        <time>2020-08-05T08:36:50.418Z</time>
      </trkpt>
      <trkpt lat="38.872698" lon="-1.946428">
        <ele>748.529831</ele>
        <time>2020-08-05T08:36:52.392Z</time>
      </trkpt>
      <trkpt lat="38.872724" lon="-1.946600">
        <ele>748.753686</ele>
        <time>2020-08-05T08:36:55.409Z</time>
      </trkpt>
      <trkpt lat="38.872731" lon="-1.946731">
        <ele>748.921448</ele>
        <time>2020-08-05T08:36:57.420Z</time>
      </trkpt>
      <trkpt lat="38.872753" lon="-1.946860">
        <ele>749.090170</ele>
        <time>2020-08-05T08:36:59.396Z</time>
      </trkpt>
      <trkpt lat="38.872755" lon="-1.946983">
        <ele>749.247351</ele>
        <time>2020-08-05T08:37:01.400Z</time>
      </trkpt>
      <trkpt lat="38.872764" lon="-1.947108">
        <ele>749.407736</ele>
        <time>2020-08-05T08:37:03.419Z</time>
      </trkpt>
      <trkpt lat="38.872778" lon="-1.947278">
        <ele>749.626143</ele>
        <time>2020-08-05T08:37:06.418Z</time>
      </trkpt>
      <trkpt lat="38.872812" lon="-1.947395">
        <ele>749.785699</ele>
        <time>2020-08-05T08:37:08.401Z</time>
      </trkpt>
      <trkpt lat="38.872817" lon="-1.947517">
        <ele>749.941785</ele>
        <time>2020-08-05T08:37:10.399Z</time>
      </trkpt>
      <trkpt lat="38.872833" lon="-1.947641">
        <ele>750.102371</ele>
        <time>2020-08-05T08:37:12.406Z</time>
      </trkpt>
      <trkpt lat="38.872860" lon="-1.947756">
        <ele>750.073345</ele>
        <time>2020-08-05T08:37:14.410Z</time>
      </trkpt>
      <trkpt lat="38.872867" lon="-1.947884">
        <ele>749.936638</ele>
        <time>2020-08-05T08:37:16.403Z</time>
      </trkpt>
      <trkpt lat="38.872872" lon="-1.948005">
        <ele>749.807543</ele>
        <time>2020-08-05T08:37:18.414Z</time>
      </trkpt>
      <trkpt lat="38.872877" lon="-1.948122">
        <ele>749.682704</ele>
        <time>2020-08-05T08:37:20.406Z</time>
      </trkpt>
      <trkpt lat="38.872878" lon="-1.948239">
        <ele>749.558045</ele>
        <time>2020-08-05T08:37:22.409Z</time>
      </trkpt>
      <trkpt lat="38.872888" lon="-1.948405">
        <ele>749.380660</ele>
        <time>2020-08-05T08:37:25.399Z</time>
      </trkpt>
      <trkpt lat="38.872895" lon="-1.948526">
        <ele>749.251391</ele>
        <time>2020-08-05T08:37:27.422Z</time>
      </trkpt>
      <trkpt lat="38.872918" lon="-1.948695">
        <ele>749.068609</ele>
        <time>2020-08-05T08:37:30.399Z</time>
      </trkpt>
      <trkpt lat="38.872934" lon="-1.948821">
        <ele>748.932595</ele>
        <time>2020-08-05T08:37:32.418Z</time>
      </trkpt>
      <trkpt lat="38.872950" lon="-1.948938">
        <ele>748.806035</ele>
        <time>2020-08-05T08:37:34.405Z</time>
      </trkpt>
      <trkpt lat="38.872966" lon="-1.949057">
        <ele>748.677375</ele>
        <time>2020-08-05T08:37:36.411Z</time>
      </trkpt>
      <trkpt lat="38.872983" lon="-1.949174">
        <ele>748.550572</ele>
        <time>2020-08-05T08:37:38.397Z</time>
      </trkpt>
      <trkpt lat="38.872997" lon="-1.949293">
        <ele>748.422350</ele>
        <time>2020-08-05T08:37:40.401Z</time>
      </trkpt>
      <trkpt lat="38.873007" lon="-1.949413">
        <ele>748.293772</ele>
        <time>2020-08-05T08:37:42.401Z</time>
      </trkpt>
      <trkpt lat="38.873016" lon="-1.949534">
        <ele>748.164272</ele>
        <time>2020-08-05T08:37:44.410Z</time>
      </trkpt>
      <trkpt lat="38.873027" lon="-1.949654">
        <ele>748.035541</ele>
        <time>2020-08-05T08:37:46.396Z</time>
      </trkpt>
      <trkpt lat="38.873044" lon="-1.949777">
        <ele>747.902449</ele>
        <time>2020-08-05T08:37:48.402Z</time>
      </trkpt>
      <trkpt lat="38.873059" lon="-1.949897">
        <ele>747.772964</ele>
        <time>2020-08-05T08:37:50.397Z</time>
      </trkpt>
      <trkpt lat="38.873066" lon="-1.950029">
        <ele>747.728316</ele>
        <time>2020-08-05T08:37:52.404Z</time>
      </trkpt>
      <trkpt lat="38.873084" lon="-1.950161">
        <ele>747.803970</ele>
        <time>2020-08-05T08:37:54.416Z</time>
      </trkpt>
      <trkpt lat="38.873098" lon="-1.950299">
        <ele>747.882535</ele>
        <time>2020-08-05T08:37:56.402Z</time>
      </trkpt>
      <trkpt lat="38.873114" lon="-1.950428">
        <ele>747.956279</ele>
        <time>2020-08-05T08:37:58.399Z</time>
      </trkpt>
      <trkpt lat="38.873130" lon="-1.950562">
        <ele>748.032812</ele>
        <time>2020-08-05T08:38:00.422Z</time>
      </trkpt>
      <trkpt lat="38.873143" lon="-1.950689">
        <ele>748.105125</ele>
        <time>2020-08-05T08:38:02.407Z</time>
      </trkpt>
      <trkpt lat="38.873160" lon="-1.950812">
        <ele>748.175649</ele>
        <time>2020-08-05T08:38:04.419Z</time>
      </trkpt>
      <trkpt lat="38.873175" lon="-1.950927">
        <ele>748.241476</ele>
        <time>2020-08-05T08:38:06.403Z</time>
      </trkpt>
      <trkpt lat="38.873194" lon="-1.951091">
        <ele>748.335080</ele>
        <time>2020-08-05T08:38:09.410Z</time>
      </trkpt>
      <trkpt lat="38.873210" lon="-1.951208">
        <ele>748.402142</ele>
        <time>2020-08-05T08:38:11.403Z</time>
      </trkpt>
      <trkpt lat="38.873224" lon="-1.951328">
        <ele>748.470643</ele>
        <time>2020-08-05T08:38:13.420Z</time>
      </trkpt>
      <trkpt lat="38.873232" lon="-1.951449">
        <ele>748.539198</ele>
        <time>2020-08-05T08:38:15.419Z</time>
      </trkpt>
      <trkpt lat="38.873243" lon="-1.951572">
        <ele>748.609093</ele>
        <time>2020-08-05T08:38:17.423Z</time>
      </trkpt>
      <trkpt lat="38.873252" lon="-1.951696">
        <ele>748.679400</ele>
        <time>2020-08-05T08:38:19.412Z</time>
      </trkpt>
      <trkpt lat="38.873267" lon="-1.951814">
        <ele>748.746897</ele>
        <time>2020-08-05T08:38:21.410Z</time>
      </trkpt>
      <trkpt lat="38.873290" lon="-1.951981">
        <ele>748.842639</ele>
        <time>2020-08-05T08:38:24.423Z</time>
      </trkpt>
      <trkpt lat="38.873301" lon="-1.952096">
        <ele>748.908049</ele>
        <time>2020-08-05T08:38:26.412Z</time>
      </trkpt>
      <trkpt lat="38.873315" lon="-1.952211">
        <ele>748.973760</ele>
        <time>2020-08-05T08:38:28.399Z</time>
      </trkpt>
      <trkpt lat="38.873329" lon="-1.952333">
        <ele>749.018468</ele>
        <time>2020-08-05T08:38:30.423Z</time>
      </trkpt>
      <trkpt lat="38.873338" lon="-1.952458">
        <ele>749.049374</ele>
        <time>2020-08-05T08:38:32.422Z</time>
      </trkpt>
      <trkpt lat="38.873352" lon="-1.952582">
        <ele>749.080221</ele>
        <time>2020-08-05T08:38:34.428Z</time>
      </trkpt>
      <trkpt lat="38.873365" lon="-1.952706">
        <ele>749.111025</ele>
        <time>2020-08-05T08:38:36.424Z</time>
      </trkpt>
      <trkpt lat="38.873377" lon="-1.952828">
        <ele>749.141300</ele>
        <time>2020-08-05T08:38:38.429Z</time>
      </trkpt>
      <trkpt lat="38.873386" lon="-1.952951">
        <ele>749.171715</ele>
        <time>2020-08-05T08:38:40.426Z</time>
      </trkpt>
      <trkpt lat="38.873399" lon="-1.953076">
        <ele>749.202763</ele>
        <time>2020-08-05T08:38:42.414Z</time>
      </trkpt>
      <trkpt lat="38.873421" lon="-1.953195">
        <ele>749.232874</ele>
        <time>2020-08-05T08:38:44.430Z</time>
      </trkpt>
      <trkpt lat="38.873442" lon="-1.953316">
        <ele>749.263395</ele>
        <time>2020-08-05T08:38:46.430Z</time>
      </trkpt>
      <trkpt lat="38.873459" lon="-1.953437">
        <ele>749.293666</ele>
        <time>2020-08-05T08:38:48.422Z</time>
      </trkpt>
      <trkpt lat="38.873475" lon="-1.953556">
        <ele>749.323397</ele>
        <time>2020-08-05T08:38:50.418Z</time>
      </trkpt>
      <trkpt lat="38.873487" lon="-1.953682">
        <ele>749.354648</ele>
        <time>2020-08-05T08:38:52.407Z</time>
      </trkpt>
      <trkpt lat="38.873503" lon="-1.953801">
        <ele>749.384379</ele>
        <time>2020-08-05T08:38:54.417Z</time>
      </trkpt>
      <trkpt lat="38.873512" lon="-1.953918">
        <ele>749.413324</ele>
        <time>2020-08-05T08:38:56.415Z</time>
      </trkpt>
      <trkpt lat="38.873526" lon="-1.954041">
        <ele>749.443928</ele>
        <time>2020-08-05T08:38:58.398Z</time>
      </trkpt>
      <trkpt lat="38.873537" lon="-1.954161">
        <ele>749.473675</ele>
        <time>2020-08-05T08:39:00.418Z</time>
      </trkpt>
      <trkpt lat="38.873559" lon="-1.954279">
        <ele>749.503548</ele>
        <time>2020-08-05T08:39:02.422Z</time>
      </trkpt>
      <trkpt lat="38.873573" lon="-1.954447">
        <ele>749.545145</ele>
        <time>2020-08-05T08:39:05.414Z</time>
      </trkpt>
      <trkpt lat="38.873586" lon="-1.954619">
        <ele>749.616692</ele>
        <time>2020-08-05T08:39:08.419Z</time>
      </trkpt>
      <trkpt lat="38.873597" lon="-1.954743">
        <ele>749.692646</ele>
        <time>2020-08-05T08:39:10.418Z</time>
      </trkpt>
      <trkpt lat="38.873611" lon="-1.954865">
        <ele>749.767697</ele>
        <time>2020-08-05T08:39:12.414Z</time>
      </trkpt>
      <trkpt lat="38.873627" lon="-1.954985">
        <ele>749.841791</ele>
        <time>2020-08-05T08:39:14.425Z</time>
      </trkpt>
      <trkpt lat="38.873646" lon="-1.955098">
        <ele>749.912148</ele>
        <time>2020-08-05T08:39:16.402Z</time>
      </trkpt>
      <trkpt lat="38.873660" lon="-1.955265">
        <ele>750.014371</ele>
        <time>2020-08-05T08:39:19.797Z</time>
      </trkpt>
      <trkpt lat="38.873683" lon="-1.955421">
        <ele>750.110999</ele>
        <time>2020-08-05T08:39:22.782Z</time>
      </trkpt>
      <trkpt lat="38.873694" lon="-1.955537">
        <ele>750.182118</ele>
        <time>2020-08-05T08:39:24.784Z</time>
      </trkpt>
      <trkpt lat="38.873723" lon="-1.955694">
        <ele>750.280319</ele>
        <time>2020-08-05T08:39:27.767Z</time>
      </trkpt>
      <trkpt lat="38.873737" lon="-1.955862">
        <ele>750.383147</ele>
        <time>2020-08-05T08:39:30.777Z</time>
      </trkpt>
      <trkpt lat="38.873745" lon="-1.956023">
        <ele>750.481330</ele>
        <time>2020-08-05T08:39:33.786Z</time>
      </trkpt>
      <trkpt lat="38.873759" lon="-1.956175">
        <ele>750.574481</ele>
        <time>2020-08-05T08:39:36.768Z</time>
      </trkpt>
      <trkpt lat="38.873776" lon="-1.956327">
        <ele>750.667937</ele>
        <time>2020-08-05T08:39:39.767Z</time>
      </trkpt>
      <trkpt lat="38.873796" lon="-1.956489">
        <ele>750.767761</ele>
        <time>2020-08-05T08:39:42.779Z</time>
      </trkpt>
      <trkpt lat="38.873816" lon="-1.956653">
        <ele>750.868787</ele>
        <time>2020-08-05T08:39:45.762Z</time>
      </trkpt>
      <trkpt lat="38.873837" lon="-1.956811">
        <ele>750.966336</ele>
        <time>2020-08-05T08:39:48.773Z</time>
      </trkpt>
      <trkpt lat="38.873853" lon="-1.956972">
        <ele>750.865892</ele>
        <time>2020-08-05T08:39:51.786Z</time>
      </trkpt>
      <trkpt lat="38.873865" lon="-1.957131">
        <ele>750.750491</ele>
        <time>2020-08-05T08:39:54.769Z</time>
      </trkpt>
      <trkpt lat="38.873875" lon="-1.957293">
        <ele>750.633094</ele>
        <time>2020-08-05T08:39:57.773Z</time>
      </trkpt>
      <trkpt lat="38.873893" lon="-1.957452">
        <ele>750.517023</ele>
        <time>2020-08-05T08:40:00.769Z</time>
      </trkpt>
      <trkpt lat="38.873938" lon="-1.957598">
        <ele>750.403587</ele>
        <time>2020-08-05T08:40:03.773Z</time>
      </trkpt>
      <trkpt lat="38.874038" lon="-1.957642">
        <ele>750.305502</ele>
        <time>2020-08-05T08:40:05.771Z</time>
      </trkpt>
      <trkpt lat="38.874140" lon="-1.957683">
        <ele>750.206329</ele>
        <time>2020-08-05T08:40:07.787Z</time>
      </trkpt>
      <trkpt lat="38.874244" lon="-1.957720">
        <ele>750.106193</ele>
        <time>2020-08-05T08:40:09.776Z</time>
      </trkpt>
      <trkpt lat="38.874347" lon="-1.957752">
        <ele>750.007862</ele>
        <time>2020-08-05T08:40:11.781Z</time>
      </trkpt>
      <trkpt lat="38.874449" lon="-1.957786">
        <ele>749.910080</ele>
        <time>2020-08-05T08:40:13.787Z</time>
      </trkpt>
      <trkpt lat="38.874561" lon="-1.957844">
        <ele>749.798025</ele>
        <time>2020-08-05T08:40:15.770Z</time>
      </trkpt>
      <trkpt lat="38.874667" lon="-1.957893">
        <ele>749.693491</ele>
        <time>2020-08-05T08:40:17.786Z</time>
      </trkpt>
      <trkpt lat="38.874776" lon="-1.957948">
        <ele>749.584825</ele>
        <time>2020-08-05T08:40:19.776Z</time>
      </trkpt>
      <trkpt lat="38.874887" lon="-1.957990">
        <ele>749.477450</ele>
        <time>2020-08-05T08:40:21.779Z</time>
      </trkpt>
      <trkpt lat="38.875010" lon="-1.958027">
        <ele>749.360229</ele>
        <time>2020-08-05T08:40:23.774Z</time>
      </trkpt>
      <trkpt lat="38.875115" lon="-1.958080">
        <ele>749.312818</ele>
        <time>2020-08-05T08:40:25.766Z</time>
      </trkpt>
      <trkpt lat="38.875221" lon="-1.958120">
        <ele>749.328934</ele>
        <time>2020-08-05T08:40:27.792Z</time>
      </trkpt>
      <trkpt lat="38.875333" lon="-1.958155">
        <ele>749.345748</ele>
        <time>2020-08-05T08:40:29.768Z</time>
      </trkpt>
      <trkpt lat="38.875445" lon="-1.958197">
        <ele>749.362768</ele>
        <time>2020-08-05T08:40:31.775Z</time>
      </trkpt>
      <trkpt lat="38.875556" lon="-1.958228">
        <ele>749.379339</ele>
        <time>2020-08-05T08:40:33.760Z</time>
      </trkpt>
      <trkpt lat="38.875667" lon="-1.958280">
        <ele>749.396574</ele>
        <time>2020-08-05T08:40:35.777Z</time>
      </trkpt>
      <trkpt lat="38.875780" lon="-1.958320">
        <ele>749.413672</ele>
        <time>2020-08-05T08:40:37.769Z</time>
      </trkpt>
      <trkpt lat="38.875893" lon="-1.958365">
        <ele>749.430930</ele>
        <time>2020-08-05T08:40:39.776Z</time>
      </trkpt>
      <trkpt lat="38.876002" lon="-1.958416">
        <ele>749.447852</ele>
        <time>2020-08-05T08:40:41.770Z</time>
      </trkpt>
      <trkpt lat="38.876115" lon="-1.958469">
        <ele>749.465401</ele>
        <time>2020-08-05T08:40:43.777Z</time>
      </trkpt>
      <trkpt lat="38.876231" lon="-1.958505">
        <ele>749.482809</ele>
        <time>2020-08-05T08:40:45.759Z</time>
      </trkpt>
      <trkpt lat="38.876340" lon="-1.958555">
        <ele>749.499693</ele>
        <time>2020-08-05T08:40:47.773Z</time>
      </trkpt>
      <trkpt lat="38.876451" lon="-1.958610">
        <ele>749.517048</ele>
        <time>2020-08-05T08:40:49.766Z</time>
      </trkpt>
      <trkpt lat="38.876555" lon="-1.958647">
        <ele>749.532790</ele>
        <time>2020-08-05T08:40:51.770Z</time>
      </trkpt>
      <trkpt lat="38.876667" lon="-1.958691">
        <ele>749.549875</ele>
        <time>2020-08-05T08:40:53.781Z</time>
      </trkpt>
      <trkpt lat="38.876757" lon="-1.958756">
        <ele>749.564936</ele>
        <time>2020-08-05T08:40:55.761Z</time>
      </trkpt>
      <trkpt lat="38.876838" lon="-1.958855">
        <ele>749.625312</ele>
        <time>2020-08-05T08:40:57.764Z</time>
      </trkpt>
      <trkpt lat="38.876889" lon="-1.958973">
        <ele>749.689466</ele>
        <time>2020-08-05T08:40:59.774Z</time>
      </trkpt>
      <trkpt lat="38.876930" lon="-1.959102">
        <ele>749.755696</ele>
        <time>2020-08-05T08:41:01.776Z</time>
      </trkpt>
      <trkpt lat="38.876972" lon="-1.959231">
        <ele>749.822160</ele>
        <time>2020-08-05T08:41:03.773Z</time>
      </trkpt>
      <trkpt lat="38.877000" lon="-1.959365">
        <ele>749.888109</ele>
        <time>2020-08-05T08:41:05.767Z</time>
      </trkpt>
      <trkpt lat="38.877028" lon="-1.959500">
        <ele>749.954517</ele>
        <time>2020-08-05T08:41:07.791Z</time>
      </trkpt>
      <trkpt lat="38.877057" lon="-1.959629">
        <ele>750.018340</ele>
        <time>2020-08-05T08:41:09.769Z</time>
      </trkpt>
      <trkpt lat="38.877082" lon="-1.959756">
        <ele>750.080607</ele>
        <time>2020-08-05T08:41:11.786Z</time>
      </trkpt>
      <trkpt lat="38.877106" lon="-1.959889">
        <ele>750.145501</ele>
        <time>2020-08-05T08:41:13.773Z</time>
      </trkpt>
      <trkpt lat="38.877125" lon="-1.960027">
        <ele>750.212115</ele>
        <time>2020-08-05T08:41:15.779Z</time>
      </trkpt>
      <trkpt lat="38.877171" lon="-1.960161">
        <ele>750.281726</ele>
        <time>2020-08-05T08:41:17.776Z</time>
      </trkpt>
      <trkpt lat="38.877206" lon="-1.960288">
        <ele>750.345764</ele>
        <time>2020-08-05T08:41:19.774Z</time>
      </trkpt>
      <trkpt lat="38.877234" lon="-1.960421">
        <ele>750.411254</ele>
        <time>2020-08-05T08:41:21.769Z</time>
      </trkpt>
      <trkpt lat="38.877269" lon="-1.960555">
        <ele>750.478437</ele>
        <time>2020-08-05T08:41:23.775Z</time>
      </trkpt>
      <trkpt lat="38.877297" lon="-1.960690">
        <ele>750.544844</ele>
        <time>2020-08-05T08:41:25.795Z</time>
      </trkpt>
      <trkpt lat="38.877322" lon="-1.960822">
        <ele>750.609418</ele>
        <time>2020-08-05T08:41:27.769Z</time>
      </trkpt>
      <trkpt lat="38.877365" lon="-1.960954">
        <ele>750.726356</ele>
        <time>2020-08-05T08:41:29.782Z</time>
      </trkpt>
      <trkpt lat="38.877393" lon="-1.961086">
        <ele>751.060701</ele>
        <time>2020-08-05T08:41:31.796Z</time>
      </trkpt>
      <trkpt lat="38.877418" lon="-1.961218">
        <ele>751.392695</ele>
        <time>2020-08-05T08:41:33.788Z</time>
      </trkpt>
      <trkpt lat="38.877445" lon="-1.961343">
        <ele>751.709713</ele>
        <time>2020-08-05T08:41:35.776Z</time>
      </trkpt>
      <trkpt lat="38.877467" lon="-1.961455">
        <ele>751.992000</ele>
        <time>2020-08-05T08:41:37.790Z</time>
      </trkpt>
      <trkpt lat="38.877504" lon="-1.961625">
        <ele>752.423380</ele>
        <time>2020-08-05T08:41:40.763Z</time>
      </trkpt>
      <trkpt lat="38.877521" lon="-1.961757">
        <ele>752.750349</ele>
        <time>2020-08-05T08:41:42.764Z</time>
      </trkpt>
      <trkpt lat="38.877541" lon="-1.961885">
        <ele>753.069396</ele>
        <time>2020-08-05T08:41:44.770Z</time>
      </trkpt>
      <trkpt lat="38.877578" lon="-1.962006">
        <ele>753.387091</ele>
        <time>2020-08-05T08:41:46.776Z</time>
      </trkpt>
      <trkpt lat="38.877606" lon="-1.962121">
        <ele>753.681555</ele>
        <time>2020-08-05T08:41:48.771Z</time>
      </trkpt>
      <trkpt lat="38.877642" lon="-1.962255">
        <ele>754.027978</ele>
        <time>2020-08-05T08:41:51.774Z</time>
      </trkpt>
      <trkpt lat="38.877700" lon="-1.962377">
        <ele>754.377322</ele>
        <time>2020-08-05T08:41:55.776Z</time>
      </trkpt>
      <trkpt lat="38.877739" lon="-1.962504">
        <ele>754.710960</ele>
        <time>2020-08-05T08:41:59.774Z</time>
      </trkpt>
      <trkpt lat="38.877831" lon="-1.962600">
        <ele>755.083046</ele>
        <time>2020-08-05T08:42:02.785Z</time>
      </trkpt>
      <trkpt lat="38.877908" lon="-1.962664">
        <ele>755.370951</ele>
        <time>2020-08-05T08:42:04.774Z</time>
      </trkpt>
      <trkpt lat="38.877993" lon="-1.962728">
        <ele>755.680241</ele>
        <time>2020-08-05T08:42:06.787Z</time>
      </trkpt>
      <trkpt lat="38.878074" lon="-1.962789">
        <ele>755.974991</ele>
        <time>2020-08-05T08:42:08.781Z</time>
      </trkpt>
      <trkpt lat="38.878151" lon="-1.962873">
        <ele>756.292113</ele>
        <time>2020-08-05T08:42:10.784Z</time>
      </trkpt>
      <trkpt lat="38.878223" lon="-1.962958">
        <ele>756.371354</ele>
        <time>2020-08-05T08:42:12.795Z</time>
      </trkpt>
      <trkpt lat="38.878304" lon="-1.963030">
        <ele>756.435380</ele>
        <time>2020-08-05T08:42:14.779Z</time>
      </trkpt>
      <trkpt lat="38.878394" lon="-1.963103">
        <ele>756.504566</ele>
        <time>2020-08-05T08:42:16.759Z</time>
      </trkpt>
      <trkpt lat="38.878480" lon="-1.963182">
        <ele>756.573289</ele>
        <time>2020-08-05T08:42:18.776Z</time>
      </trkpt>
      <trkpt lat="38.878559" lon="-1.963277">
        <ele>756.643628</ele>
        <time>2020-08-05T08:42:20.777Z</time>
      </trkpt>
      <trkpt lat="38.878640" lon="-1.963374">
        <ele>756.715608</ele>
        <time>2020-08-05T08:42:22.795Z</time>
      </trkpt>
      <trkpt lat="38.878728" lon="-1.963459">
        <ele>756.787174</ele>
        <time>2020-08-05T08:42:24.771Z</time>
      </trkpt>
      <trkpt lat="38.878825" lon="-1.963530">
        <ele>756.859742</ele>
        <time>2020-08-05T08:42:26.781Z</time>
      </trkpt>
      <trkpt lat="38.878912" lon="-1.963616">
        <ele>756.931097</ele>
        <time>2020-08-05T08:42:28.774Z</time>
      </trkpt>
      <trkpt lat="38.879005" lon="-1.963705">
        <ele>757.006478</ele>
        <time>2020-08-05T08:42:30.777Z</time>
      </trkpt>
      <trkpt lat="38.879093" lon="-1.963790">
        <ele>757.078044</ele>
        <time>2020-08-05T08:42:32.794Z</time>
      </trkpt>
      <trkpt lat="38.879180" lon="-1.963867">
        <ele>757.146717</ele>
        <time>2020-08-05T08:42:34.776Z</time>
      </trkpt>
      <trkpt lat="38.879260" lon="-1.963952">
        <ele>757.214199</ele>
        <time>2020-08-05T08:42:36.788Z</time>
      </trkpt>
      <trkpt lat="38.879353" lon="-1.964033">
        <ele>757.287234</ele>
        <time>2020-08-05T08:42:38.776Z</time>
      </trkpt>
      <trkpt lat="38.879428" lon="-1.964130">
        <ele>757.356412</ele>
        <time>2020-08-05T08:42:40.784Z</time>
      </trkpt>
      <trkpt lat="38.879509" lon="-1.964236">
        <ele>757.431571</ele>
        <time>2020-08-05T08:42:42.815Z</time>
      </trkpt>
      <trkpt lat="38.879582" lon="-1.964349">
        <ele>757.439727</ele>
        <time>2020-08-05T08:42:44.776Z</time>
      </trkpt>
      <trkpt lat="38.879649" lon="-1.964471">
        <ele>757.314367</ele>
        <time>2020-08-05T08:42:46.768Z</time>
      </trkpt>
      <trkpt lat="38.879715" lon="-1.964591">
        <ele>757.191001</ele>
        <time>2020-08-05T08:42:48.763Z</time>
      </trkpt>
      <trkpt lat="38.879788" lon="-1.964712">
        <ele>757.062467</ele>
        <time>2020-08-05T08:42:50.772Z</time>
      </trkpt>
      <trkpt lat="38.879859" lon="-1.964849">
        <ele>756.924279</ele>
        <time>2020-08-05T08:42:52.760Z</time>
      </trkpt>
      <trkpt lat="38.879924" lon="-1.964984">
        <ele>756.791000</ele>
        <time>2020-08-05T08:42:54.768Z</time>
      </trkpt>
      <trkpt lat="38.879994" lon="-1.965099">
        <ele>756.668429</ele>
        <time>2020-08-05T08:42:56.792Z</time>
      </trkpt>
      <trkpt lat="38.880074" lon="-1.965224">
        <ele>756.532560</ele>
        <time>2020-08-05T08:42:58.778Z</time>
      </trkpt>
      <trkpt lat="38.880142" lon="-1.965354">
        <ele>756.401056</ele>
        <time>2020-08-05T08:43:00.771Z</time>
      </trkpt>
      <trkpt lat="38.880211" lon="-1.965489">
        <ele>756.265458</ele>
        <time>2020-08-05T08:43:02.767Z</time>
      </trkpt>
      <trkpt lat="38.880286" lon="-1.965617">
        <ele>756.130945</ele>
        <time>2020-08-05T08:43:04.777Z</time>
      </trkpt>
      <trkpt lat="38.880368" lon="-1.965750">
        <ele>755.988493</ele>
        <time>2020-08-05T08:43:06.791Z</time>
      </trkpt>
      <trkpt lat="38.880432" lon="-1.965891">
        <ele>755.851451</ele>
        <time>2020-08-05T08:43:08.768Z</time>
      </trkpt>
      <trkpt lat="38.880501" lon="-1.966028">
        <ele>755.714447</ele>
        <time>2020-08-05T08:43:10.767Z</time>
      </trkpt>
      <trkpt lat="38.880582" lon="-1.966178">
        <ele>755.561169</ele>
        <time>2020-08-05T08:43:12.762Z</time>
      </trkpt>
      <trkpt lat="38.880664" lon="-1.966319">
        <ele>755.366485</ele>
        <time>2020-08-05T08:43:14.766Z</time>
      </trkpt>
      <trkpt lat="38.880738" lon="-1.966457">
        <ele>755.174079</ele>
        <time>2020-08-05T08:43:16.768Z</time>
      </trkpt>
      <trkpt lat="38.880797" lon="-1.966599">
        <ele>754.989265</ele>
        <time>2020-08-05T08:43:18.775Z</time>
      </trkpt>
      <trkpt lat="38.880873" lon="-1.966730">
        <ele>754.801675</ele>
        <time>2020-08-05T08:43:20.762Z</time>
      </trkpt>
      <trkpt lat="38.880957" lon="-1.966866">
        <ele>754.602340</ele>
        <time>2020-08-05T08:43:22.764Z</time>
      </trkpt>
      <trkpt lat="38.881034" lon="-1.967011">
        <ele>754.400804</ele>
        <time>2020-08-05T08:43:24.774Z</time>
      </trkpt>
      <trkpt lat="38.881113" lon="-1.967146">
        <ele>754.206886</ele>
        <time>2020-08-05T08:43:26.781Z</time>
      </trkpt>
      <trkpt lat="38.881191" lon="-1.967288">
        <ele>754.007339</ele>
        <time>2020-08-05T08:43:28.761Z</time>
      </trkpt>
      <trkpt lat="38.881269" lon="-1.967421">
        <ele>753.816143</ele>
        <time>2020-08-05T08:43:30.760Z</time>
      </trkpt>
      <trkpt lat="38.881343" lon="-1.967553">
        <ele>753.629371</ele>
        <time>2020-08-05T08:43:32.767Z</time>
      </trkpt>
      <trkpt lat="38.881405" lon="-1.967679">
        <ele>753.458221</ele>
        <time>2020-08-05T08:43:34.768Z</time>
      </trkpt>
      <trkpt lat="38.881475" lon="-1.967793">
        <ele>753.291508</ele>
        <time>2020-08-05T08:43:36.760Z</time>
      </trkpt>
      <trkpt lat="38.881548" lon="-1.967913">
        <ele>753.116645</ele>
        <time>2020-08-05T08:43:38.785Z</time>
      </trkpt>
      <trkpt lat="38.881609" lon="-1.968033">
        <ele>752.952088</ele>
        <time>2020-08-05T08:43:40.774Z</time>
      </trkpt>
      <trkpt lat="38.881675" lon="-1.968138">
        <ele>752.950001</ele>
        <time>2020-08-05T08:43:42.768Z</time>
      </trkpt>
      <trkpt lat="38.881733" lon="-1.968251">
        <ele>753.055776</ele>
        <time>2020-08-05T08:43:44.769Z</time>
      </trkpt>
      <trkpt lat="38.881786" lon="-1.968369">
        <ele>753.162240</ele>
        <time>2020-08-05T08:43:46.768Z</time>
      </trkpt>
      <trkpt lat="38.881841" lon="-1.968492">
        <ele>753.273091</ele>
        <time>2020-08-05T08:43:48.773Z</time>
      </trkpt>
      <trkpt lat="38.881896" lon="-1.968610">
        <ele>753.380572</ele>
        <time>2020-08-05T08:43:50.763Z</time>
      </trkpt>
      <trkpt lat="38.881946" lon="-1.968733">
        <ele>753.489011</ele>
        <time>2020-08-05T08:43:52.773Z</time>
      </trkpt>
      <trkpt lat="38.881993" lon="-1.968858">
        <ele>753.597494</ele>
        <time>2020-08-05T08:43:54.794Z</time>
      </trkpt>
      <trkpt lat="38.882038" lon="-1.968989">
        <ele>753.709392</ele>
        <time>2020-08-05T08:43:56.765Z</time>
      </trkpt>
      <trkpt lat="38.882069" lon="-1.969110">
        <ele>753.808940</ele>
        <time>2020-08-05T08:43:58.783Z</time>
      </trkpt>
      <trkpt lat="38.882114" lon="-1.969236">
        <ele>753.917274</ele>
        <time>2020-08-05T08:44:00.784Z</time>
      </trkpt>
      <trkpt lat="38.882157" lon="-1.969355">
        <ele>754.019801</ele>
        <time>2020-08-05T08:44:02.760Z</time>
      </trkpt>
      <trkpt lat="38.882199" lon="-1.969473">
        <ele>754.121197</ele>
        <time>2020-08-05T08:44:04.766Z</time>
      </trkpt>
      <trkpt lat="38.882238" lon="-1.969580">
        <ele>754.213527</ele>
        <time>2020-08-05T08:44:06.787Z</time>
      </trkpt>
      <trkpt lat="38.882304" lon="-1.969720">
        <ele>754.341432</ele>
        <time>2020-08-05T08:44:09.760Z</time>
      </trkpt>
      <trkpt lat="38.882352" lon="-1.969828">
        <ele>754.438619</ele>
        <time>2020-08-05T08:44:12.786Z</time>
      </trkpt>
      <trkpt lat="38.882407" lon="-1.969946">
        <ele>754.546099</ele>
        <time>2020-08-05T08:44:16.767Z</time>
      </trkpt>
      <trkpt lat="38.882449" lon="-1.970052">
        <ele>754.639049</ele>
        <time>2020-08-05T08:44:19.772Z</time>
      </trkpt>
      <trkpt lat="38.882502" lon="-1.970176">
        <ele>754.581519</ele>
        <time>2020-08-05T08:44:23.788Z</time>
      </trkpt>
      <trkpt lat="38.882569" lon="-1.970301">
        <ele>754.343174</ele>
        <time>2020-08-05T08:44:27.776Z</time>
      </trkpt>
      <trkpt lat="38.882620" lon="-1.970423">
        <ele>754.125698</ele>
        <time>2020-08-05T08:44:30.788Z</time>
      </trkpt>
      <trkpt lat="38.882680" lon="-1.970560">
        <ele>753.878829</ele>
        <time>2020-08-05T08:44:33.775Z</time>
      </trkpt>
      <trkpt lat="38.882757" lon="-1.970693">
        <ele>753.618522</ele>
        <time>2020-08-05T08:44:36.773Z</time>
      </trkpt>
      <trkpt lat="38.882832" lon="-1.970778">
        <ele>753.416744</ele>
        <time>2020-08-05T08:44:38.774Z</time>
      </trkpt>
      <trkpt lat="38.882912" lon="-1.970916">
        <ele>753.146525</ele>
        <time>2020-08-05T08:44:41.796Z</time>
      </trkpt>
      <trkpt lat="38.882979" lon="-1.970999">
        <ele>752.958743</ele>
        <time>2020-08-05T08:44:43.784Z</time>
      </trkpt>
      <trkpt lat="38.883049" lon="-1.971087">
        <ele>752.761149</ele>
        <time>2020-08-05T08:44:45.786Z</time>
      </trkpt>
      <trkpt lat="38.883140" lon="-1.971219">
        <ele>752.484240</ele>
        <time>2020-08-05T08:44:48.779Z</time>
      </trkpt>
      <trkpt lat="38.883204" lon="-1.971308">
        <ele>752.293958</ele>
        <time>2020-08-05T08:44:50.777Z</time>
      </trkpt>
      <trkpt lat="38.883298" lon="-1.971434">
        <ele>752.019878</ele>
        <time>2020-08-05T08:44:53.789Z</time>
      </trkpt>
      <trkpt lat="38.883359" lon="-1.971522">
        <ele>751.834825</ele>
        <time>2020-08-05T08:44:55.765Z</time>
      </trkpt>
      <trkpt lat="38.883442" lon="-1.971659">
        <ele>751.562190</ele>
        <time>2020-08-05T08:44:58.775Z</time>
      </trkpt>
      <trkpt lat="38.883511" lon="-1.971740">
        <ele>751.373617</ele>
        <time>2020-08-05T08:45:00.775Z</time>
      </trkpt>
      <trkpt lat="38.883601" lon="-1.971866">
        <ele>751.105059</ele>
        <time>2020-08-05T08:45:03.772Z</time>
      </trkpt>
      <trkpt lat="38.883661" lon="-1.971961">
        <ele>751.009232</ele>
        <time>2020-08-05T08:45:05.775Z</time>
      </trkpt>
      <trkpt lat="38.883727" lon="-1.972046">
        <ele>750.940057</ele>
        <time>2020-08-05T08:45:07.788Z</time>
      </trkpt>
      <trkpt lat="38.883805" lon="-1.972122">
        <ele>750.867595</ele>
        <time>2020-08-05T08:45:09.767Z</time>
      </trkpt>
      <trkpt lat="38.883856" lon="-1.972231">
        <ele>750.794319</ele>
        <time>2020-08-05T08:45:11.767Z</time>
      </trkpt>
      <trkpt lat="38.883919" lon="-1.972335">
        <ele>750.718390</ele>
        <time>2020-08-05T08:45:13.779Z</time>
      </trkpt>
      <trkpt lat="38.883980" lon="-1.972438">
        <ele>750.643821</ele>
        <time>2020-08-05T08:45:15.772Z</time>
      </trkpt>
      <trkpt lat="38.884047" lon="-1.972531">
        <ele>750.570809</ele>
        <time>2020-08-05T08:45:17.787Z</time>
      </trkpt>
      <trkpt lat="38.884125" lon="-1.972628">
        <ele>750.490454</ele>
        <time>2020-08-05T08:45:19.772Z</time>
      </trkpt>
      <trkpt lat="38.884204" lon="-1.972729">
        <ele>750.407957</ele>
        <time>2020-08-05T08:45:21.771Z</time>
      </trkpt>
      <trkpt lat="38.884278" lon="-1.972840">
        <ele>750.323752</ele>
        <time>2020-08-05T08:45:23.786Z</time>
      </trkpt>
      <trkpt lat="38.884337" lon="-1.972961">
        <ele>750.241486</ele>
        <time>2020-08-05T08:45:25.786Z</time>
      </trkpt>
      <trkpt lat="38.884415" lon="-1.973066">
        <ele>750.157860</ele>
        <time>2020-08-05T08:45:27.785Z</time>
      </trkpt>
      <trkpt lat="38.884491" lon="-1.973138">
        <ele>750.087964</ele>
        <time>2020-08-05T08:45:29.779Z</time>
      </trkpt>
      <trkpt lat="38.884565" lon="-1.973228">
        <ele>750.012537</ele>
        <time>2020-08-05T08:45:31.766Z</time>
      </trkpt>
      <trkpt lat="38.884639" lon="-1.973316">
        <ele>749.937898</ele>
        <time>2020-08-05T08:45:33.773Z</time>
      </trkpt>
      <trkpt lat="38.884703" lon="-1.973412">
        <ele>749.865072</ele>
        <time>2020-08-05T08:45:35.781Z</time>
      </trkpt>
      <trkpt lat="38.884770" lon="-1.973511">
        <ele>749.789487</ele>
        <time>2020-08-05T08:45:37.757Z</time>
      </trkpt>
      <trkpt lat="38.884837" lon="-1.973612">
        <ele>749.748603</ele>
        <time>2020-08-05T08:45:39.777Z</time>
      </trkpt>
      <trkpt lat="38.884903" lon="-1.973718">
        <ele>749.804984</ele>
        <time>2020-08-05T08:45:41.773Z</time>
      </trkpt>
      <trkpt lat="38.884976" lon="-1.973830">
        <ele>749.865659</ele>
        <time>2020-08-05T08:45:43.777Z</time>
      </trkpt>
      <trkpt lat="38.885047" lon="-1.973938">
        <ele>749.924375</ele>
        <time>2020-08-05T08:45:45.766Z</time>
      </trkpt>
      <trkpt lat="38.885122" lon="-1.974041">
        <ele>749.982958</ele>
        <time>2020-08-05T08:45:47.769Z</time>
      </trkpt>
      <trkpt lat="38.885193" lon="-1.974145">
        <ele>750.040415</ele>
        <time>2020-08-05T08:45:49.794Z</time>
      </trkpt>
      <trkpt lat="38.885270" lon="-1.974244">
        <ele>750.098545</ele>
        <time>2020-08-05T08:45:51.770Z</time>
      </trkpt>
      <trkpt lat="38.885351" lon="-1.974340">
        <ele>750.157351</ele>
        <time>2020-08-05T08:45:53.765Z</time>
      </trkpt>
      <trkpt lat="38.885432" lon="-1.974445">
        <ele>750.218752</ele>
        <time>2020-08-05T08:45:55.769Z</time>
      </trkpt>
      <trkpt lat="38.885514" lon="-1.974550">
        <ele>750.280531</ele>
        <time>2020-08-05T08:45:57.764Z</time>
      </trkpt>
      <trkpt lat="38.885584" lon="-1.974660">
        <ele>750.339545</ele>
        <time>2020-08-05T08:45:59.764Z</time>
      </trkpt>
      <trkpt lat="38.885630" lon="-1.974784">
        <ele>750.396599</ele>
        <time>2020-08-05T08:46:01.772Z</time>
      </trkpt>
      <trkpt lat="38.885626" lon="-1.974910">
        <ele>750.448978</ele>
        <time>2020-08-05T08:46:03.767Z</time>
      </trkpt>
      <trkpt lat="38.885606" lon="-1.975033">
        <ele>750.501169</ele>
        <time>2020-08-05T08:46:05.772Z</time>
      </trkpt>
      <trkpt lat="38.885578" lon="-1.975158">
        <ele>750.555196</ele>
        <time>2020-08-05T08:46:07.783Z</time>
      </trkpt>
      <trkpt lat="38.885556" lon="-1.975275">
        <ele>750.605190</ele>
        <time>2020-08-05T08:46:09.787Z</time>
      </trkpt>
      <trkpt lat="38.885535" lon="-1.975391">
        <ele>750.654658</ele>
        <time>2020-08-05T08:46:11.773Z</time>
      </trkpt>
      <trkpt lat="38.885501" lon="-1.975507">
        <ele>750.718436</ele>
        <time>2020-08-05T08:46:13.772Z</time>
      </trkpt>
      <trkpt lat="38.885471" lon="-1.975678">
        <ele>750.861833</ele>
        <time>2020-08-05T08:46:16.770Z</time>
      </trkpt>
      <trkpt lat="38.885433" lon="-1.975843">
        <ele>751.002596</ele>
        <time>2020-08-05T08:46:19.791Z</time>
      </trkpt>
      <trkpt lat="38.885397" lon="-1.975995">
        <ele>751.132570</ele>
        <time>2020-08-05T08:46:22.774Z</time>
      </trkpt>
      <trkpt lat="38.885353" lon="-1.976158">
        <ele>751.273704</ele>
        <time>2020-08-05T08:46:25.771Z</time>
      </trkpt>
      <trkpt lat="38.885310" lon="-1.976314">
        <ele>751.409086</ele>
        <time>2020-08-05T08:46:28.770Z</time>
      </trkpt>
      <trkpt lat="38.885266" lon="-1.976476">
        <ele>751.549448</ele>
        <time>2020-08-05T08:46:31.774Z</time>
      </trkpt>
      <trkpt lat="38.885239" lon="-1.976588">
        <ele>751.645364</ele>
        <time>2020-08-05T08:46:33.769Z</time>
      </trkpt>
      <trkpt lat="38.885207" lon="-1.976755">
        <ele>751.786058</ele>
        <time>2020-08-05T08:46:36.762Z</time>
      </trkpt>
      <trkpt lat="38.885184" lon="-1.976870">
        <ele>751.883191</ele>
        <time>2020-08-05T08:46:38.776Z</time>
      </trkpt>
      <trkpt lat="38.885138" lon="-1.977020">
        <ele>752.015080</ele>
        <time>2020-08-05T08:46:41.772Z</time>
      </trkpt>
      <trkpt lat="38.885102" lon="-1.977173">
        <ele>752.145837</ele>
        <time>2020-08-05T08:46:44.760Z</time>
      </trkpt>
      <trkpt lat="38.885074" lon="-1.977321">
        <ele>752.270435</ele>
        <time>2020-08-05T08:46:47.790Z</time>
      </trkpt>
      <trkpt lat="38.885033" lon="-1.977494">
        <ele>752.418374</ele>
        <time>2020-08-05T08:46:50.802Z</time>
      </trkpt>
      <trkpt lat="38.885002" lon="-1.977625">
        <ele>752.530383</ele>
        <time>2020-08-05T08:46:52.767Z</time>
      </trkpt>
      <trkpt lat="38.884973" lon="-1.977757">
        <ele>752.616220</ele>
        <time>2020-08-05T08:46:54.773Z</time>
      </trkpt>
      <trkpt lat="38.884958" lon="-1.977881">
        <ele>752.672886</ele>
        <time>2020-08-05T08:46:56.774Z</time>
      </trkpt>
      <trkpt lat="38.884930" lon="-1.978002">
        <ele>752.729887</ele>
        <time>2020-08-05T08:46:58.782Z</time>
      </trkpt>
      <trkpt lat="38.884904" lon="-1.978122">
        <ele>752.786135</ele>
        <time>2020-08-05T08:47:00.772Z</time>
      </trkpt>
      <trkpt lat="38.884887" lon="-1.978241">
        <ele>752.840768</ele>
        <time>2020-08-05T08:47:02.762Z</time>
      </trkpt>
      <trkpt lat="38.884862" lon="-1.978360">
        <ele>752.896426</ele>
        <time>2020-08-05T08:47:04.783Z</time>
      </trkpt>
      <trkpt lat="38.884830" lon="-1.978475">
        <ele>752.951573</ele>
        <time>2020-08-05T08:47:06.769Z</time>
      </trkpt>
      <trkpt lat="38.884798" lon="-1.978642">
        <ele>753.029235</ele>
        <time>2020-08-05T08:47:09.765Z</time>
      </trkpt>
      <trkpt lat="38.884768" lon="-1.978809">
        <ele>753.106628</ele>
        <time>2020-08-05T08:47:12.759Z</time>
      </trkpt>
      <trkpt lat="38.884743" lon="-1.978921">
        <ele>753.159241</ele>
        <time>2020-08-05T08:47:14.764Z</time>
      </trkpt>
      <trkpt lat="38.884712" lon="-1.979077">
        <ele>753.231944</ele>
        <time>2020-08-05T08:47:17.760Z</time>
      </trkpt>
      <trkpt lat="38.884678" lon="-1.979222">
        <ele>753.300326</ele>
        <time>2020-08-05T08:47:20.757Z</time>
      </trkpt>
      <trkpt lat="38.884658" lon="-1.979375">
        <ele>753.370382</ele>
        <time>2020-08-05T08:47:23.777Z</time>
      </trkpt>
      <trkpt lat="38.884626" lon="-1.979520">
        <ele>753.438439</ele>
        <time>2020-08-05T08:47:26.770Z</time>
      </trkpt>
      <trkpt lat="38.884586" lon="-1.979657">
        <ele>753.504512</ele>
        <time>2020-08-05T08:47:29.767Z</time>
      </trkpt>
      <trkpt lat="38.884536" lon="-1.979779">
        <ele>753.566772</ele>
        <time>2020-08-05T08:47:32.760Z</time>
      </trkpt>
      <trkpt lat="38.884477" lon="-1.979897">
        <ele>753.627654</ele>
        <time>2020-08-05T08:47:35.760Z</time>
      </trkpt>
      <trkpt lat="38.884397" lon="-1.980010">
        <ele>753.639622</ele>
        <time>2020-08-05T08:47:38.766Z</time>
      </trkpt>
      <trkpt lat="38.884304" lon="-1.980095">
        <ele>753.651110</ele>
        <time>2020-08-05T08:47:41.784Z</time>
      </trkpt>
      <trkpt lat="38.884219" lon="-1.980183">
        <ele>753.662099</ele>
        <time>2020-08-05T08:47:44.787Z</time>
      </trkpt>
      <trkpt lat="38.884128" lon="-1.980273">
        <ele>753.673658</ele>
        <time>2020-08-05T08:47:47.771Z</time>
      </trkpt>
      <trkpt lat="38.884049" lon="-1.980352">
        <ele>753.683736</ele>
        <time>2020-08-05T08:47:50.764Z</time>
      </trkpt>
      <trkpt lat="38.883969" lon="-1.980428">
        <ele>753.693751</ele>
        <time>2020-08-05T08:47:53.783Z</time>
      </trkpt>
      <trkpt lat="38.883886" lon="-1.980510">
        <ele>753.704290</ele>
        <time>2020-08-05T08:47:56.765Z</time>
      </trkpt>
      <trkpt lat="38.883804" lon="-1.980605">
        <ele>753.715405</ele>
        <time>2020-08-05T08:47:59.785Z</time>
      </trkpt>
      <trkpt lat="38.883723" lon="-1.980701">
        <ele>753.726498</ele>
        <time>2020-08-05T08:48:02.776Z</time>
      </trkpt>
      <trkpt lat="38.883652" lon="-1.980783">
        <ele>753.736108</ele>
        <time>2020-08-05T08:48:05.765Z</time>
      </trkpt>
      <trkpt lat="38.883578" lon="-1.980859">
        <ele>753.745644</ele>
        <time>2020-08-05T08:48:08.762Z</time>
      </trkpt>
      <trkpt lat="38.883502" lon="-1.980936">
        <ele>753.755387</ele>
        <time>2020-08-05T08:48:11.769Z</time>
      </trkpt>
      <trkpt lat="38.883429" lon="-1.981019">
        <ele>753.765200</ele>
        <time>2020-08-05T08:48:14.796Z</time>
      </trkpt>
      <trkpt lat="38.883366" lon="-1.981106">
        <ele>753.774510</ele>
        <time>2020-08-05T08:48:17.769Z</time>
      </trkpt>
      <trkpt lat="38.883297" lon="-1.981184">
        <ele>753.783762</ele>
        <time>2020-08-05T08:48:20.770Z</time>
      </trkpt>
      <trkpt lat="38.883211" lon="-1.981246">
        <ele>753.793688</ele>
        <time>2020-08-05T08:48:23.768Z</time>
      </trkpt>
      <trkpt lat="38.883121" lon="-1.981303">
        <ele>753.803788</ele>
        <time>2020-08-05T08:48:26.773Z</time>
      </trkpt>
      <trkpt lat="38.883031" lon="-1.981345">
        <ele>753.858008</ele>
        <time>2020-08-05T08:48:29.791Z</time>
      </trkpt>
      <trkpt lat="38.882936" lon="-1.981383">
        <ele>753.953222</ele>
        <time>2020-08-05T08:48:32.773Z</time>
      </trkpt>
      <trkpt lat="38.882837" lon="-1.981411">
        <ele>754.050229</ele>
        <time>2020-08-05T08:48:35.789Z</time>
      </trkpt>
      <trkpt lat="38.882745" lon="-1.981440">
        <ele>754.140879</ele>
        <time>2020-08-05T08:48:38.792Z</time>
      </trkpt>
      <trkpt lat="38.882630" lon="-1.981464">
        <ele>754.252371</ele>
        <time>2020-08-05T08:48:42.791Z</time>
      </trkpt>
      <trkpt lat="38.882535" lon="-1.981504">
        <ele>754.348039</ele>
        <time>2020-08-05T08:48:46.765Z</time>
      </trkpt>
      <trkpt lat="38.882435" lon="-1.981583">
        <ele>754.460380</ele>
        <time>2020-08-05T08:48:50.758Z</time>
      </trkpt>
      <trkpt lat="38.882374" lon="-1.981677">
        <ele>754.551543</ele>
        <time>2020-08-05T08:48:53.780Z</time>
      </trkpt>
      <trkpt lat="38.882307" lon="-1.981772">
        <ele>754.647036</ele>
        <time>2020-08-05T08:48:56.765Z</time>
      </trkpt>
      <trkpt lat="38.882236" lon="-1.981891">
        <ele>754.758724</ele>
        <time>2020-08-05T08:49:00.793Z</time>
      </trkpt>
      <trkpt lat="38.882181" lon="-1.981987">
        <ele>754.847517</ele>
        <time>2020-08-05T08:49:03.788Z</time>
      </trkpt>
      <trkpt lat="38.882118" lon="-1.982113">
        <ele>754.959071</ele>
        <time>2020-08-05T08:49:07.774Z</time>
      </trkpt>
      <trkpt lat="38.882066" lon="-1.982215">
        <ele>755.049898</ele>
        <time>2020-08-05T08:49:10.789Z</time>
      </trkpt>
      <trkpt lat="38.882006" lon="-1.982319">
        <ele>755.146327</ele>
        <time>2020-08-05T08:49:13.779Z</time>
      </trkpt>
      <trkpt lat="38.881944" lon="-1.982411">
        <ele>755.236974</ele>
        <time>2020-08-05T08:49:16.779Z</time>
      </trkpt>
      <trkpt lat="38.881881" lon="-1.982500">
        <ele>755.326585</ele>
        <time>2020-08-05T08:49:19.773Z</time>
      </trkpt>
      <trkpt lat="38.881811" lon="-1.982588">
        <ele>755.420310</ele>
        <time>2020-08-05T08:49:22.770Z</time>
      </trkpt>
      <trkpt lat="38.881740" lon="-1.982703">
        <ele>755.529743</ele>
        <time>2020-08-05T08:49:25.785Z</time>
      </trkpt>
      <trkpt lat="38.881672" lon="-1.982819">
        <ele>755.676965</ele>
        <time>2020-08-05T08:49:28.779Z</time>
      </trkpt>
      <trkpt lat="38.881605" lon="-1.982927">
        <ele>755.816976</ele>
        <time>2020-08-05T08:49:31.778Z</time>
      </trkpt>
      <trkpt lat="38.881540" lon="-1.983055">
        <ele>755.971919</ele>
        <time>2020-08-05T08:49:34.766Z</time>
      </trkpt>
      <trkpt lat="38.881470" lon="-1.983175">
        <ele>756.123948</ele>
        <time>2020-08-05T08:49:37.776Z</time>
      </trkpt>
      <trkpt lat="38.881404" lon="-1.983289">
        <ele>756.267986</ele>
        <time>2020-08-05T08:49:40.767Z</time>
      </trkpt>
      <trkpt lat="38.881339" lon="-1.983404">
        <ele>756.412069</ele>
        <time>2020-08-05T08:49:43.780Z</time>
      </trkpt>
      <trkpt lat="38.881263" lon="-1.983523">
        <ele>756.568124</ele>
        <time>2020-08-05T08:49:46.772Z</time>
      </trkpt>
      <trkpt lat="38.881194" lon="-1.983649">
        <ele>756.724311</ele>
        <time>2020-08-05T08:49:49.767Z</time>
      </trkpt>
      <trkpt lat="38.881115" lon="-1.983769">
        <ele>756.883645</ele>
        <time>2020-08-05T08:49:52.778Z</time>
      </trkpt>
      <trkpt lat="38.881038" lon="-1.983889">
        <ele>757.041311</ele>
        <time>2020-08-05T08:49:55.782Z</time>
      </trkpt>
      <trkpt lat="38.880961" lon="-1.984016">
        <ele>757.204515</ele>
        <time>2020-08-05T08:49:58.762Z</time>
      </trkpt>
      <trkpt lat="38.880883" lon="-1.984144">
        <ele>757.369320</ele>
        <time>2020-08-05T08:50:01.764Z</time>
      </trkpt>
      <trkpt lat="38.880806" lon="-1.984270">
        <ele>757.531726</ele>
        <time>2020-08-05T08:50:04.768Z</time>
      </trkpt>
      <trkpt lat="38.880732" lon="-1.984402">
        <ele>757.696645</ele>
        <time>2020-08-05T08:50:07.762Z</time>
      </trkpt>
      <trkpt lat="38.880653" lon="-1.984533">
        <ele>757.864650</ele>
        <time>2020-08-05T08:50:10.760Z</time>
      </trkpt>
      <trkpt lat="38.880573" lon="-1.984659">
        <ele>758.032219</ele>
        <time>2020-08-05T08:50:13.775Z</time>
      </trkpt>
      <trkpt lat="38.880505" lon="-1.984775">
        <ele>758.181985</ele>
        <time>2020-08-05T08:50:16.768Z</time>
      </trkpt>
      <trkpt lat="38.880435" lon="-1.984885">
        <ele>758.328518</ele>
        <time>2020-08-05T08:50:19.771Z</time>
      </trkpt>
      <trkpt lat="38.880366" lon="-1.985005">
        <ele>758.482383</ele>
        <time>2020-08-05T08:50:22.767Z</time>
      </trkpt>
      <trkpt lat="38.880308" lon="-1.985132">
        <ele>758.634243</ele>
        <time>2020-08-05T08:50:25.760Z</time>
      </trkpt>
      <trkpt lat="38.880236" lon="-1.985252">
        <ele>758.790503</ele>
        <time>2020-08-05T08:50:28.763Z</time>
      </trkpt>
      <trkpt lat="38.880162" lon="-1.985370">
        <ele>758.946782</ele>
        <time>2020-08-05T08:50:31.759Z</time>
      </trkpt>
      <trkpt lat="38.880088" lon="-1.985490">
        <ele>759.104673</ele>
        <time>2020-08-05T08:50:34.770Z</time>
      </trkpt>
      <trkpt lat="38.880012" lon="-1.985615">
        <ele>759.268256</ele>
        <time>2020-08-05T08:50:37.762Z</time>
      </trkpt>
      <trkpt lat="38.879932" lon="-1.985737">
        <ele>759.432775</ele>
        <time>2020-08-05T08:50:40.766Z</time>
      </trkpt>
      <trkpt lat="38.879858" lon="-1.985854">
        <ele>759.588253</ele>
        <time>2020-08-05T08:50:43.769Z</time>
      </trkpt>
      <trkpt lat="38.879791" lon="-1.985984">
        <ele>759.749053</ele>
        <time>2020-08-05T08:50:46.764Z</time>
      </trkpt>
      <trkpt lat="38.879717" lon="-1.986096">
        <ele>759.900564</ele>
        <time>2020-08-05T08:50:49.776Z</time>
      </trkpt>
      <trkpt lat="38.879652" lon="-1.986197">
        <ele>760.035721</ele>
        <time>2020-08-05T08:50:52.782Z</time>
      </trkpt>
      <trkpt lat="38.879594" lon="-1.986298">
        <ele>760.165166</ele>
        <time>2020-08-05T08:50:55.780Z</time>
      </trkpt>
      <trkpt lat="38.879534" lon="-1.986401">
        <ele>760.361216</ele>
        <time>2020-08-05T08:50:58.771Z</time>
      </trkpt>
      <trkpt lat="38.879466" lon="-1.986497">
        <ele>760.692649</ele>
        <time>2020-08-05T08:51:01.770Z</time>
      </trkpt>
      <trkpt lat="38.879407" lon="-1.986596">
        <ele>761.011025</ele>
        <time>2020-08-05T08:51:04.785Z</time>
      </trkpt>
      <trkpt lat="38.879345" lon="-1.986698">
        <ele>761.341481</ele>
        <time>2020-08-05T08:51:07.767Z</time>
      </trkpt>
      <trkpt lat="38.879285" lon="-1.986793">
        <ele>761.653866</ele>
        <time>2020-08-05T08:51:10.779Z</time>
      </trkpt>
      <trkpt lat="38.879221" lon="-1.986888">
        <ele>761.974679</ele>
        <time>2020-08-05T08:51:13.781Z</time>
      </trkpt>
      <trkpt lat="38.879161" lon="-1.986984">
        <ele>762.289051</ele>
        <time>2020-08-05T08:51:16.766Z</time>
      </trkpt>
      <trkpt lat="38.879107" lon="-1.987077">
        <ele>762.585316</ele>
        <time>2020-08-05T08:51:19.766Z</time>
      </trkpt>
      <trkpt lat="38.879038" lon="-1.987199">
        <ele>762.970389</ele>
        <time>2020-08-05T08:51:23.779Z</time>
      </trkpt>
      <trkpt lat="38.878961" lon="-1.987302">
        <ele>763.335043</ele>
        <time>2020-08-05T08:51:27.778Z</time>
      </trkpt>
      <trkpt lat="38.878878" lon="-1.987372">
        <ele>763.660736</ele>
        <time>2020-08-05T08:51:31.769Z</time>
      </trkpt>
      <trkpt lat="38.878790" lon="-1.987439">
        <ele>763.996289</ele>
        <time>2020-08-05T08:51:36.766Z</time>
      </trkpt>
      <trkpt lat="38.878694" lon="-1.987507">
        <ele>764.355892</ele>
        <time>2020-08-05T08:51:42.764Z</time>
      </trkpt>
      <trkpt lat="38.878612" lon="-1.987584">
        <ele>764.689075</ele>
        <time>2020-08-05T08:51:48.757Z</time>
      </trkpt>
      <trkpt lat="38.878539" lon="-1.987691">
        <ele>765.052387</ele>
        <time>2020-08-05T08:51:53.775Z</time>
      </trkpt>
      <trkpt lat="38.878493" lon="-1.987808">
        <ele>765.387097</ele>
        <time>2020-08-05T08:51:56.778Z</time>
      </trkpt>
      <trkpt lat="38.878460" lon="-1.987947">
        <ele>765.758184</ele>
        <time>2020-08-05T08:51:59.771Z</time>
      </trkpt>
      <trkpt lat="38.878405" lon="-1.988084">
        <ele>766.151804</ele>
        <time>2020-08-05T08:52:02.781Z</time>
      </trkpt>
      <trkpt lat="38.878337" lon="-1.988204">
        <ele>766.418134</ele>
        <time>2020-08-05T08:52:05.766Z</time>
      </trkpt>
      <trkpt lat="38.878275" lon="-1.988309">
        <ele>766.653797</ele>
        <time>2020-08-05T08:52:08.783Z</time>
      </trkpt>
      <trkpt lat="38.878203" lon="-1.988418">
        <ele>766.909425</ele>
        <time>2020-08-05T08:52:11.791Z</time>
      </trkpt>
      <trkpt lat="38.878123" lon="-1.988516">
        <ele>767.163354</ele>
        <time>2020-08-05T08:52:14.776Z</time>
      </trkpt>
      <trkpt lat="38.878039" lon="-1.988604">
        <ele>767.412340</ele>
        <time>2020-08-05T08:52:17.782Z</time>
      </trkpt>
      <trkpt lat="38.877968" lon="-1.988703">
        <ele>767.653047</ele>
        <time>2020-08-05T08:52:20.780Z</time>
      </trkpt>
      <trkpt lat="38.877902" lon="-1.988815">
        <ele>767.904238</ele>
        <time>2020-08-05T08:52:23.784Z</time>
      </trkpt>
      <trkpt lat="38.877831" lon="-1.988924">
        <ele>768.158385</ele>
        <time>2020-08-05T08:52:26.783Z</time>
      </trkpt>
      <trkpt lat="38.877759" lon="-1.989031">
        <ele>768.411297</ele>
        <time>2020-08-05T08:52:29.777Z</time>
      </trkpt>
      <trkpt lat="38.877689" lon="-1.989140">
        <ele>768.663977</ele>
        <time>2020-08-05T08:52:32.767Z</time>
      </trkpt>
      <trkpt lat="38.877627" lon="-1.989250">
        <ele>768.906826</ele>
        <time>2020-08-05T08:52:35.775Z</time>
      </trkpt>
      <trkpt lat="38.877566" lon="-1.989369">
        <ele>769.161615</ele>
        <time>2020-08-05T08:52:38.771Z</time>
      </trkpt>
      <trkpt lat="38.877501" lon="-1.989474">
        <ele>769.401508</ele>
        <time>2020-08-05T08:52:41.776Z</time>
      </trkpt>
      <trkpt lat="38.877432" lon="-1.989581">
        <ele>769.649969</ele>
        <time>2020-08-05T08:52:44.767Z</time>
      </trkpt>
      <trkpt lat="38.877370" lon="-1.989693">
        <ele>769.895724</ele>
        <time>2020-08-05T08:52:47.761Z</time>
      </trkpt>
      <trkpt lat="38.877298" lon="-1.989805">
        <ele>770.155467</ele>
        <time>2020-08-05T08:52:50.762Z</time>
      </trkpt>
      <trkpt lat="38.877225" lon="-1.989920">
        <ele>770.305543</ele>
        <time>2020-08-05T08:52:53.763Z</time>
      </trkpt>
      <trkpt lat="38.877151" lon="-1.990029">
        <ele>770.342313</ele>
        <time>2020-08-05T08:52:56.772Z</time>
      </trkpt>
      <trkpt lat="38.877079" lon="-1.990135">
        <ele>770.378079</ele>
        <time>2020-08-05T08:52:59.762Z</time>
      </trkpt>
      <trkpt lat="38.877006" lon="-1.990244">
        <ele>770.414635</ele>
        <time>2020-08-05T08:53:02.764Z</time>
      </trkpt>
      <trkpt lat="38.876925" lon="-1.990361">
        <ele>770.454442</ele>
        <time>2020-08-05T08:53:05.776Z</time>
      </trkpt>
      <trkpt lat="38.876841" lon="-1.990489">
        <ele>770.497006</ele>
        <time>2020-08-05T08:53:08.783Z</time>
      </trkpt>
      <trkpt lat="38.876752" lon="-1.990607">
        <ele>770.538778</ele>
        <time>2020-08-05T08:53:11.782Z</time>
      </trkpt>
      <trkpt lat="38.876677" lon="-1.990726">
        <ele>770.577705</ele>
        <time>2020-08-05T08:53:14.767Z</time>
      </trkpt>
      <trkpt lat="38.876604" lon="-1.990851">
        <ele>770.617434</ele>
        <time>2020-08-05T08:53:17.774Z</time>
      </trkpt>
      <trkpt lat="38.876526" lon="-1.990970">
        <ele>770.656985</ele>
        <time>2020-08-05T08:53:20.789Z</time>
      </trkpt>
      <trkpt lat="38.876448" lon="-1.991088">
        <ele>770.696342</ele>
        <time>2020-08-05T08:53:23.758Z</time>
      </trkpt>
      <trkpt lat="38.876377" lon="-1.991199">
        <ele>770.732867</ele>
        <time>2020-08-05T08:53:26.781Z</time>
      </trkpt>
      <trkpt lat="38.876299" lon="-1.991309">
        <ele>770.770696</ele>
        <time>2020-08-05T08:53:29.771Z</time>
      </trkpt>
      <trkpt lat="38.876226" lon="-1.991424">
        <ele>770.808422</ele>
        <time>2020-08-05T08:53:32.773Z</time>
      </trkpt>
      <trkpt lat="38.876153" lon="-1.991538">
        <ele>770.845952</ele>
        <time>2020-08-05T08:53:35.758Z</time>
      </trkpt>
      <trkpt lat="38.876083" lon="-1.991646">
        <ele>770.887494</ele>
        <time>2020-08-05T08:53:38.781Z</time>
      </trkpt>
      <trkpt lat="38.876019" lon="-1.991746">
        <ele>770.944822</ele>
        <time>2020-08-05T08:53:41.792Z</time>
      </trkpt>
      <trkpt lat="38.875954" lon="-1.991847">
        <ele>771.002855</ele>
        <time>2020-08-05T08:53:44.776Z</time>
      </trkpt>
      <trkpt lat="38.875884" lon="-1.991953">
        <ele>771.064411</ele>
        <time>2020-08-05T08:53:47.775Z</time>
      </trkpt>
      <trkpt lat="38.875808" lon="-1.992062">
        <ele>771.129211</ele>
        <time>2020-08-05T08:53:50.774Z</time>
      </trkpt>
      <trkpt lat="38.875737" lon="-1.992168">
        <ele>771.191137</ele>
        <time>2020-08-05T08:53:53.774Z</time>
      </trkpt>
      <trkpt lat="38.875668" lon="-1.992278">
        <ele>771.253696</ele>
        <time>2020-08-05T08:53:56.780Z</time>
      </trkpt>
      <trkpt lat="38.875597" lon="-1.992378">
        <ele>771.313633</ele>
        <time>2020-08-05T08:53:59.788Z</time>
      </trkpt>
      <trkpt lat="38.875509" lon="-1.992473">
        <ele>771.379022</ele>
        <time>2020-08-05T08:54:02.773Z</time>
      </trkpt>
      <trkpt lat="38.875422" lon="-1.992557">
        <ele>771.440934</ele>
        <time>2020-08-05T08:54:05.785Z</time>
      </trkpt>
      <trkpt lat="38.875349" lon="-1.992654">
        <ele>771.500681</ele>
        <time>2020-08-05T08:54:08.769Z</time>
      </trkpt>
      <trkpt lat="38.875253" lon="-1.992747">
        <ele>771.569080</ele>
        <time>2020-08-05T08:54:11.767Z</time>
      </trkpt>
      <trkpt lat="38.875157" lon="-1.992804">
        <ele>771.629241</ele>
        <time>2020-08-05T08:54:14.778Z</time>
      </trkpt>
      <trkpt lat="38.875062" lon="-1.992857">
        <ele>771.688159</ele>
        <time>2020-08-05T08:54:17.789Z</time>
      </trkpt>
      <trkpt lat="38.874965" lon="-1.992918">
        <ele>771.749595</ele>
        <time>2020-08-05T08:54:20.783Z</time>
      </trkpt>
      <trkpt lat="38.874866" lon="-1.992983">
        <ele>771.812841</ele>
        <time>2020-08-05T08:54:23.779Z</time>
      </trkpt>
      <trkpt lat="38.874779" lon="-1.993044">
        <ele>771.869224</ele>
        <time>2020-08-05T08:54:26.799Z</time>
      </trkpt>
      <trkpt lat="38.874678" lon="-1.993120">
        <ele>771.908136</ele>
        <time>2020-08-05T08:54:30.787Z</time>
      </trkpt>
      <trkpt lat="38.874593" lon="-1.993179">
        <ele>771.923909</ele>
        <time>2020-08-05T08:54:33.785Z</time>
      </trkpt>
      <trkpt lat="38.874492" lon="-1.993244">
        <ele>771.942350</ele>
        <time>2020-08-05T08:54:36.774Z</time>
      </trkpt>
      <trkpt lat="38.874406" lon="-1.993302">
        <ele>771.958207</ele>
        <time>2020-08-05T08:54:39.779Z</time>
      </trkpt>
      <trkpt lat="38.874325" lon="-1.993356">
        <ele>771.973104</ele>
        <time>2020-08-05T08:54:42.787Z</time>
      </trkpt>
      <trkpt lat="38.874238" lon="-1.993416">
        <ele>771.989224</ele>
        <time>2020-08-05T08:54:45.780Z</time>
      </trkpt>
      <trkpt lat="38.874158" lon="-1.993471">
        <ele>772.004037</ele>
        <time>2020-08-05T08:54:48.766Z</time>
      </trkpt>
      <trkpt lat="38.874078" lon="-1.993530">
        <ele>772.019096</ele>
        <time>2020-08-05T08:54:51.780Z</time>
      </trkpt>
      <trkpt lat="38.873991" lon="-1.993583">
        <ele>772.034815</ele>
        <time>2020-08-05T08:54:54.784Z</time>
      </trkpt>
      <trkpt lat="38.873899" lon="-1.993642">
        <ele>772.051601</ele>
        <time>2020-08-05T08:54:57.786Z</time>
      </trkpt>
      <trkpt lat="38.873814" lon="-1.993699">
        <ele>772.067254</ele>
        <time>2020-08-05T08:55:00.768Z</time>
      </trkpt>
      <trkpt lat="38.873726" lon="-1.993753">
        <ele>772.083175</ele>
        <time>2020-08-05T08:55:03.779Z</time>
      </trkpt>
      <trkpt lat="38.873634" lon="-1.993813">
        <ele>772.100019</ele>
        <time>2020-08-05T08:55:06.780Z</time>
      </trkpt>
      <trkpt lat="38.873539" lon="-1.993869">
        <ele>772.117082</ele>
        <time>2020-08-05T08:55:09.775Z</time>
      </trkpt>
      <trkpt lat="38.873450" lon="-1.993930">
        <ele>772.133550</ele>
        <time>2020-08-05T08:55:12.770Z</time>
      </trkpt>
      <trkpt lat="38.873356" lon="-1.993991">
        <ele>772.150742</ele>
        <time>2020-08-05T08:55:15.791Z</time>
      </trkpt>
      <trkpt lat="38.873259" lon="-1.994054">
        <ele>772.168486</ele>
        <time>2020-08-05T08:55:18.770Z</time>
      </trkpt>
      <trkpt lat="38.873163" lon="-1.994113">
        <ele>772.185859</ele>
        <time>2020-08-05T08:55:21.778Z</time>
      </trkpt>
      <trkpt lat="38.873073" lon="-1.994171">
        <ele>772.205970</ele>
        <time>2020-08-05T08:55:24.769Z</time>
      </trkpt>
      <trkpt lat="38.872983" lon="-1.994226">
        <ele>772.227358</ele>
        <time>2020-08-05T08:55:27.789Z</time>
      </trkpt>
      <trkpt lat="38.872900" lon="-1.994283">
        <ele>772.247555</ele>
        <time>2020-08-05T08:55:30.782Z</time>
      </trkpt>
      <trkpt lat="38.872816" lon="-1.994334">
        <ele>772.267493</ele>
        <time>2020-08-05T08:55:33.779Z</time>
      </trkpt>
      <trkpt lat="38.872728" lon="-1.994393">
        <ele>772.288795</ele>
        <time>2020-08-05T08:55:36.765Z</time>
      </trkpt>
      <trkpt lat="38.872641" lon="-1.994447">
        <ele>772.309530</ele>
        <time>2020-08-05T08:55:39.788Z</time>
      </trkpt>
      <trkpt lat="38.872538" lon="-1.994520">
        <ele>772.334774</ele>
        <time>2020-08-05T08:55:43.759Z</time>
      </trkpt>
      <trkpt lat="38.872457" lon="-1.994572">
        <ele>772.354206</ele>
        <time>2020-08-05T08:55:46.768Z</time>
      </trkpt>
      <trkpt lat="38.872374" lon="-1.994629">
        <ele>772.374403</ele>
        <time>2020-08-05T08:55:49.778Z</time>
      </trkpt>
      <trkpt lat="38.872265" lon="-1.994675">
        <ele>772.399024</ele>
        <time>2020-08-05T08:55:53.771Z</time>
      </trkpt>
      <trkpt lat="38.872180" lon="-1.994725">
        <ele>772.419086</ele>
        <time>2020-08-05T08:55:56.772Z</time>
      </trkpt>
      <trkpt lat="38.872093" lon="-1.994777">
        <ele>772.439678</ele>
        <time>2020-08-05T08:55:59.762Z</time>
      </trkpt>
      <trkpt lat="38.872002" lon="-1.994829">
        <ele>772.461051</ele>
        <time>2020-08-05T08:56:02.768Z</time>
      </trkpt>
      <trkpt lat="38.871912" lon="-1.994885">
        <ele>772.482511</ele>
        <time>2020-08-05T08:56:05.764Z</time>
      </trkpt>
      <trkpt lat="38.871828" lon="-1.994951">
        <ele>772.503641</ele>
        <time>2020-08-05T08:56:08.768Z</time>
      </trkpt>
      <trkpt lat="38.871743" lon="-1.995009">
        <ele>772.524296</ele>
        <time>2020-08-05T08:56:11.770Z</time>
      </trkpt>
      <trkpt lat="38.871646" lon="-1.995073">
        <ele>772.547697</ele>
        <time>2020-08-05T08:56:14.767Z</time>
      </trkpt>
      <trkpt lat="38.871545" lon="-1.995135">
        <ele>772.571719</ele>
        <time>2020-08-05T08:56:17.761Z</time>
      </trkpt>
      <trkpt lat="38.871454" lon="-1.995197">
        <ele>772.592483</ele>
        <time>2020-08-05T08:56:20.764Z</time>
      </trkpt>
      <trkpt lat="38.871360" lon="-1.995257">
        <ele>772.613256</ele>
        <time>2020-08-05T08:56:23.757Z</time>
      </trkpt>
      <trkpt lat="38.871265" lon="-1.995318">
        <ele>772.634275</ele>
        <time>2020-08-05T08:56:26.775Z</time>
      </trkpt>
      <trkpt lat="38.871171" lon="-1.995377">
        <ele>772.654980</ele>
        <time>2020-08-05T08:56:29.767Z</time>
      </trkpt>
      <trkpt lat="38.871077" lon="-1.995442">
        <ele>772.676108</ele>
        <time>2020-08-05T08:56:32.758Z</time>
      </trkpt>
      <trkpt lat="38.870986" lon="-1.995511">
        <ele>772.697021</ele>
        <time>2020-08-05T08:56:35.787Z</time>
      </trkpt>
      <trkpt lat="38.870890" lon="-1.995573">
        <ele>772.718285</ele>
        <time>2020-08-05T08:56:38.775Z</time>
      </trkpt>
      <trkpt lat="38.870793" lon="-1.995638">
        <ele>772.739937</ele>
        <time>2020-08-05T08:56:41.766Z</time>
      </trkpt>
      <trkpt lat="38.870699" lon="-1.995707">
        <ele>772.761364</ele>
        <time>2020-08-05T08:56:44.764Z</time>
      </trkpt>
      <trkpt lat="38.870608" lon="-1.995772">
        <ele>772.781970</ele>
        <time>2020-08-05T08:56:47.778Z</time>
      </trkpt>
      <trkpt lat="38.870522" lon="-1.995835">
        <ele>772.801563</ele>
        <time>2020-08-05T08:56:50.775Z</time>
      </trkpt>
      <trkpt lat="38.870435" lon="-1.995897">
        <ele>772.821253</ele>
        <time>2020-08-05T08:56:53.772Z</time>
      </trkpt>
      <trkpt lat="38.870351" lon="-1.995947">
        <ele>772.839575</ele>
        <time>2020-08-05T08:56:56.771Z</time>
      </trkpt>
      <trkpt lat="38.870256" lon="-1.996006">
        <ele>772.860458</ele>
        <time>2020-08-05T08:56:59.764Z</time>
      </trkpt>
      <trkpt lat="38.870167" lon="-1.996068">
        <ele>772.880495</ele>
        <time>2020-08-05T08:57:02.774Z</time>
      </trkpt>
      <trkpt lat="38.870060" lon="-1.996134">
        <ele>772.903986</ele>
        <time>2020-08-05T08:57:06.778Z</time>
      </trkpt>
      <trkpt lat="38.869959" lon="-1.996200">
        <ele>772.926412</ele>
        <time>2020-08-05T08:57:10.780Z</time>
      </trkpt>
      <trkpt lat="38.869853" lon="-1.996268">
        <ele>773.050716</ele>
        <time>2020-08-05T08:57:14.766Z</time>
      </trkpt>
      <trkpt lat="38.869747" lon="-1.996337">
        <ele>773.211208</ele>
        <time>2020-08-05T08:57:18.786Z</time>
      </trkpt>
      <trkpt lat="38.869647" lon="-1.996405">
        <ele>773.364021</ele>
        <time>2020-08-05T08:57:22.785Z</time>
      </trkpt>
      <trkpt lat="38.869540" lon="-1.996466">
        <ele>773.522124</ele>
        <time>2020-08-05T08:57:26.767Z</time>
      </trkpt>
      <trkpt lat="38.869458" lon="-1.996522">
        <ele>773.647549</ele>
        <time>2020-08-05T08:57:29.788Z</time>
      </trkpt>
      <trkpt lat="38.869370" lon="-1.996584">
        <ele>773.783102</ele>
        <time>2020-08-05T08:57:32.780Z</time>
      </trkpt>
      <trkpt lat="38.869281" lon="-1.996646">
        <ele>773.919841</ele>
        <time>2020-08-05T08:57:35.783Z</time>
      </trkpt>
      <trkpt lat="38.869186" lon="-1.996707">
        <ele>774.063281</ele>
        <time>2020-08-05T08:57:38.789Z</time>
      </trkpt>
      <trkpt lat="38.869089" lon="-1.996772">
        <ele>774.211040</ele>
        <time>2020-08-05T08:57:41.765Z</time>
      </trkpt>
      <trkpt lat="38.868995" lon="-1.996838">
        <ele>774.355721</ele>
        <time>2020-08-05T08:57:44.781Z</time>
      </trkpt>
      <trkpt lat="38.868902" lon="-1.996901">
        <ele>774.497720</ele>
        <time>2020-08-05T08:57:47.782Z</time>
      </trkpt>
      <trkpt lat="38.868806" lon="-1.996965">
        <ele>774.643796</ele>
        <time>2020-08-05T08:57:50.781Z</time>
      </trkpt>
      <trkpt lat="38.868714" lon="-1.997032">
        <ele>774.786628</ele>
        <time>2020-08-05T08:57:53.783Z</time>
      </trkpt>
      <trkpt lat="38.868624" lon="-1.997097">
        <ele>774.926075</ele>
        <time>2020-08-05T08:57:56.788Z</time>
      </trkpt>
      <trkpt lat="38.868535" lon="-1.997160">
        <ele>775.063318</ele>
        <time>2020-08-05T08:57:59.793Z</time>
      </trkpt>
      <trkpt lat="38.868444" lon="-1.997220">
        <ele>775.201465</ele>
        <time>2020-08-05T08:58:02.772Z</time>
      </trkpt>
      <trkpt lat="38.868351" lon="-1.997285">
        <ele>775.344457</ele>
        <time>2020-08-05T08:58:05.769Z</time>
      </trkpt>
      <trkpt lat="38.868259" lon="-1.997344">
        <ele>775.470115</ele>
        <time>2020-08-05T08:58:08.792Z</time>
      </trkpt>
      <trkpt lat="38.868165" lon="-1.997409">
        <ele>775.598630</ele>
        <time>2020-08-05T08:58:11.795Z</time>
      </trkpt>
      <trkpt lat="38.868062" lon="-1.997470">
        <ele>775.735168</ele>
        <time>2020-08-05T08:58:14.781Z</time>
      </trkpt>
      <trkpt lat="38.867969" lon="-1.997529">
        <ele>775.860034</ele>
        <time>2020-08-05T08:58:17.763Z</time>
      </trkpt>
      <trkpt lat="38.867874" lon="-1.997592">
        <ele>775.988740</ele>
        <time>2020-08-05T08:58:20.784Z</time>
      </trkpt>
      <trkpt lat="38.867774" lon="-1.997654">
        <ele>776.122412</ele>
        <time>2020-08-05T08:58:23.766Z</time>
      </trkpt>
      <trkpt lat="38.867681" lon="-1.997718">
        <ele>776.249423</ele>
        <time>2020-08-05T08:58:26.783Z</time>
      </trkpt>
      <trkpt lat="38.867588" lon="-1.997782">
        <ele>776.376435</ele>
        <time>2020-08-05T08:58:29.778Z</time>
      </trkpt>
      <trkpt lat="38.867489" lon="-1.997848">
        <ele>776.510709</ele>
        <time>2020-08-05T08:58:32.783Z</time>
      </trkpt>
      <trkpt lat="38.867392" lon="-1.997912">
        <ele>776.641985</ele>
        <time>2020-08-05T08:58:35.769Z</time>
      </trkpt>
      <trkpt lat="38.867298" lon="-1.997972">
        <ele>776.768346</ele>
        <time>2020-08-05T08:58:38.765Z</time>
      </trkpt>
      <trkpt lat="38.867203" lon="-1.998027">
        <ele>776.893789</ele>
        <time>2020-08-05T08:58:41.764Z</time>
      </trkpt>
      <trkpt lat="38.867099" lon="-1.998096">
        <ele>777.034701</ele>
        <time>2020-08-05T08:58:44.766Z</time>
      </trkpt>
      <trkpt lat="38.866997" lon="-1.998164">
        <ele>777.173045</ele>
        <time>2020-08-05T08:58:47.761Z</time>
      </trkpt>
      <trkpt lat="38.866902" lon="-1.998234">
        <ele>777.304890</ele>
        <time>2020-08-05T08:58:50.768Z</time>
      </trkpt>
      <trkpt lat="38.866799" lon="-1.998313">
        <ele>777.449309</ele>
        <time>2020-08-05T08:58:53.767Z</time>
      </trkpt>
      <trkpt lat="38.866689" lon="-1.998371">
        <ele>777.577051</ele>
        <time>2020-08-05T08:58:56.761Z</time>
      </trkpt>
      <trkpt lat="38.866592" lon="-1.998434">
        <ele>777.677169</ele>
        <time>2020-08-05T08:58:59.770Z</time>
      </trkpt>
      <trkpt lat="38.866497" lon="-1.998496">
        <ele>777.775320</ele>
        <time>2020-08-05T08:59:02.771Z</time>
      </trkpt>
      <trkpt lat="38.866409" lon="-1.998556">
        <ele>777.867088</ele>
        <time>2020-08-05T08:59:05.775Z</time>
      </trkpt>
      <trkpt lat="38.866315" lon="-1.998614">
        <ele>777.963142</ele>
        <time>2020-08-05T08:59:08.789Z</time>
      </trkpt>
      <trkpt lat="38.866217" lon="-1.998676">
        <ele>778.063764</ele>
        <time>2020-08-05T08:59:11.767Z</time>
      </trkpt>
      <trkpt lat="38.866120" lon="-1.998741">
        <ele>778.164538</ele>
        <time>2020-08-05T08:59:14.770Z</time>
      </trkpt>
      <trkpt lat="38.866024" lon="-1.998803">
        <ele>778.263511</ele>
        <time>2020-08-05T08:59:17.767Z</time>
      </trkpt>
      <trkpt lat="38.865942" lon="-1.998856">
        <ele>778.348064</ele>
        <time>2020-08-05T08:59:20.767Z</time>
      </trkpt>
      <trkpt lat="38.865862" lon="-1.998923">
        <ele>778.436032</ele>
        <time>2020-08-05T08:59:23.762Z</time>
      </trkpt>
      <trkpt lat="38.865774" lon="-1.998986">
        <ele>778.528828</ele>
        <time>2020-08-05T08:59:26.769Z</time>
      </trkpt>
      <trkpt lat="38.865687" lon="-1.999040">
        <ele>778.617829</ele>
        <time>2020-08-05T08:59:29.775Z</time>
      </trkpt>
      <trkpt lat="38.865598" lon="-1.999099">
        <ele>778.710081</ele>
        <time>2020-08-05T08:59:32.780Z</time>
      </trkpt>
      <trkpt lat="38.865496" lon="-1.999170">
        <ele>778.816941</ele>
        <time>2020-08-05T08:59:36.765Z</time>
      </trkpt>
      <trkpt lat="38.865402" lon="-1.999236">
        <ele>778.915616</ele>
        <time>2020-08-05T08:59:40.767Z</time>
      </trkpt>
      <trkpt lat="38.865318" lon="-1.999300">
        <ele>779.005576</ele>
        <time>2020-08-05T08:59:43.767Z</time>
      </trkpt>
      <trkpt lat="38.865239" lon="-1.999361">
        <ele>779.090479</ele>
        <time>2020-08-05T08:59:46.780Z</time>
      </trkpt>
      <trkpt lat="38.865153" lon="-1.999415">
        <ele>779.178652</ele>
        <time>2020-08-05T08:59:49.774Z</time>
      </trkpt>
      <trkpt lat="38.865061" lon="-1.999473">
        <ele>779.287865</ele>
        <time>2020-08-05T08:59:52.780Z</time>
      </trkpt>
      <trkpt lat="38.864971" lon="-1.999536">
        <ele>779.397906</ele>
        <time>2020-08-05T08:59:55.771Z</time>
      </trkpt>
      <trkpt lat="38.864883" lon="-1.999600">
        <ele>779.506477</ele>
        <time>2020-08-05T08:59:58.778Z</time>
      </trkpt>
      <trkpt lat="38.864794" lon="-1.999664">
        <ele>779.615982</ele>
        <time>2020-08-05T09:00:01.769Z</time>
      </trkpt>
      <trkpt lat="38.864702" lon="-1.999726">
        <ele>779.727523</ele>
        <time>2020-08-05T09:00:04.763Z</time>
      </trkpt>
      <trkpt lat="38.864612" lon="-1.999783">
        <ele>779.835253</ele>
        <time>2020-08-05T09:00:07.779Z</time>
      </trkpt>
      <trkpt lat="38.864525" lon="-1.999844">
        <ele>779.941667</ele>
        <time>2020-08-05T09:00:10.778Z</time>
      </trkpt>
      <trkpt lat="38.864441" lon="-1.999908">
        <ele>780.046522</ele>
        <time>2020-08-05T09:00:13.772Z</time>
      </trkpt>
      <trkpt lat="38.864352" lon="-1.999968">
        <ele>780.154433</ele>
        <time>2020-08-05T09:00:16.784Z</time>
      </trkpt>
      <trkpt lat="38.864268" lon="-2.000025">
        <ele>780.256427</ele>
        <time>2020-08-05T09:00:19.787Z</time>
      </trkpt>
      <trkpt lat="38.864173" lon="-2.000086">
        <ele>780.370453</ele>
        <time>2020-08-05T09:00:22.779Z</time>
      </trkpt>
      <trkpt lat="38.864082" lon="-2.000146">
        <ele>780.480270</ele>
        <time>2020-08-05T09:00:25.780Z</time>
      </trkpt>
      <trkpt lat="38.863974" lon="-2.000213">
        <ele>780.609034</ele>
        <time>2020-08-05T09:00:28.787Z</time>
      </trkpt>
      <trkpt lat="38.863856" lon="-2.000289">
        <ele>780.750753</ele>
        <time>2020-08-05T09:00:31.783Z</time>
      </trkpt>
      <trkpt lat="38.863749" lon="-2.000358">
        <ele>780.879293</ele>
        <time>2020-08-05T09:00:34.774Z</time>
      </trkpt>
      <trkpt lat="38.863650" lon="-2.000411">
        <ele>780.994441</ele>
        <time>2020-08-05T09:00:37.780Z</time>
      </trkpt>
      <trkpt lat="38.863557" lon="-2.000464">
        <ele>781.103672</ele>
        <time>2020-08-05T09:00:40.778Z</time>
      </trkpt>
      <trkpt lat="38.863456" lon="-2.000527">
        <ele>781.582142</ele>
        <time>2020-08-05T09:00:43.761Z</time>
      </trkpt>
      <trkpt lat="38.863358" lon="-2.000590">
        <ele>782.083735</ele>
        <time>2020-08-05T09:00:46.782Z</time>
      </trkpt>
      <trkpt lat="38.863276" lon="-2.000664">
        <ele>782.542434</ele>
        <time>2020-08-05T09:00:49.785Z</time>
      </trkpt>
      <trkpt lat="38.863198" lon="-2.000724">
        <ele>782.958572</ele>
        <time>2020-08-05T09:00:52.801Z</time>
      </trkpt>
      <trkpt lat="38.863105" lon="-2.000776">
        <ele>783.422818</ele>
        <time>2020-08-05T09:00:55.778Z</time>
      </trkpt>
      <trkpt lat="38.863009" lon="-2.000828">
        <ele>783.899684</ele>
        <time>2020-08-05T09:00:58.772Z</time>
      </trkpt>
      <trkpt lat="38.862916" lon="-2.000886">
        <ele>784.372872</ele>
        <time>2020-08-05T09:01:01.772Z</time>
      </trkpt>
      <trkpt lat="38.862824" lon="-2.000950">
        <ele>784.851754</ele>
        <time>2020-08-05T09:01:04.786Z</time>
      </trkpt>
      <trkpt lat="38.862732" lon="-2.001013">
        <ele>785.328950</ele>
        <time>2020-08-05T09:01:07.786Z</time>
      </trkpt>
      <trkpt lat="38.862637" lon="-2.001079">
        <ele>785.823301</ele>
        <time>2020-08-05T09:01:10.778Z</time>
      </trkpt>
      <trkpt lat="38.862536" lon="-2.001142">
        <ele>786.337210</ele>
        <time>2020-08-05T09:01:13.797Z</time>
      </trkpt>
      <trkpt lat="38.862432" lon="-2.001201">
        <ele>786.857583</ele>
        <time>2020-08-05T09:01:16.785Z</time>
      </trkpt>
      <trkpt lat="38.862338" lon="-2.001268">
        <ele>787.349633</ele>
        <time>2020-08-05T09:01:19.786Z</time>
      </trkpt>
      <trkpt lat="38.862258" lon="-2.001339">
        <ele>787.794711</ele>
        <time>2020-08-05T09:01:22.794Z</time>
      </trkpt>
      <trkpt lat="38.862158" lon="-2.001401">
        <ele>788.302948</ele>
        <time>2020-08-05T09:01:25.787Z</time>
      </trkpt>
      <trkpt lat="38.862059" lon="-2.001451">
        <ele>788.789843</ele>
        <time>2020-08-05T09:01:28.776Z</time>
      </trkpt>
      <trkpt lat="38.861962" lon="-2.001513">
        <ele>789.285751</ele>
        <time>2020-08-05T09:01:31.763Z</time>
      </trkpt>
      <trkpt lat="38.861874" lon="-2.001575">
        <ele>789.347195</ele>
        <time>2020-08-05T09:01:34.770Z</time>
      </trkpt>
      <trkpt lat="38.861788" lon="-2.001634">
        <ele>789.347658</ele>
        <time>2020-08-05T09:01:37.784Z</time>
      </trkpt>
      <trkpt lat="38.861681" lon="-2.001708">
        <ele>789.348235</ele>
        <time>2020-08-05T09:01:40.787Z</time>
      </trkpt>
      <trkpt lat="38.861573" lon="-2.001777">
        <ele>789.348808</ele>
        <time>2020-08-05T09:01:43.767Z</time>
      </trkpt>
      <trkpt lat="38.861472" lon="-2.001841">
        <ele>789.349343</ele>
        <time>2020-08-05T09:01:46.784Z</time>
      </trkpt>
      <trkpt lat="38.861371" lon="-2.001905">
        <ele>789.349877</ele>
        <time>2020-08-05T09:01:49.773Z</time>
      </trkpt>
      <trkpt lat="38.861273" lon="-2.001969">
        <ele>789.350399</ele>
        <time>2020-08-05T09:01:52.773Z</time>
      </trkpt>
      <trkpt lat="38.861174" lon="-2.002036">
        <ele>789.350930</ele>
        <time>2020-08-05T09:01:55.782Z</time>
      </trkpt>
      <trkpt lat="38.861079" lon="-2.002103">
        <ele>789.351445</ele>
        <time>2020-08-05T09:01:58.785Z</time>
      </trkpt>
      <trkpt lat="38.860982" lon="-2.002167">
        <ele>789.351963</ele>
        <time>2020-08-05T09:02:01.773Z</time>
      </trkpt>
      <trkpt lat="38.860885" lon="-2.002234">
        <ele>789.352486</ele>
        <time>2020-08-05T09:02:04.775Z</time>
      </trkpt>
      <trkpt lat="38.860786" lon="-2.002303">
        <ele>789.353020</ele>
        <time>2020-08-05T09:02:07.772Z</time>
      </trkpt>
      <trkpt lat="38.860688" lon="-2.002366">
        <ele>789.353541</ele>
        <time>2020-08-05T09:02:10.773Z</time>
      </trkpt>
      <trkpt lat="38.860592" lon="-2.002430">
        <ele>789.354054</ele>
        <time>2020-08-05T09:02:13.785Z</time>
      </trkpt>
      <trkpt lat="38.860493" lon="-2.002498">
        <ele>789.354587</ele>
        <time>2020-08-05T09:02:16.767Z</time>
      </trkpt>
      <trkpt lat="38.860396" lon="-2.002561">
        <ele>789.355103</ele>
        <time>2020-08-05T09:02:19.777Z</time>
      </trkpt>
      <trkpt lat="38.860301" lon="-2.002618">
        <ele>789.419125</ele>
        <time>2020-08-05T09:02:22.770Z</time>
      </trkpt>
      <trkpt lat="38.860208" lon="-2.002681">
        <ele>789.532928</ele>
        <time>2020-08-05T09:02:25.791Z</time>
      </trkpt>
      <trkpt lat="38.860095" lon="-2.002752">
        <ele>789.669086</ele>
        <time>2020-08-05T09:02:28.772Z</time>
      </trkpt>
      <trkpt lat="38.859985" lon="-2.002830">
        <ele>789.805087</ele>
        <time>2020-08-05T09:02:31.789Z</time>
      </trkpt>
      <trkpt lat="38.859881" lon="-2.002901">
        <ele>789.932567</ele>
        <time>2020-08-05T09:02:34.795Z</time>
      </trkpt>
      <trkpt lat="38.859779" lon="-2.002969">
        <ele>790.056955</ele>
        <time>2020-08-05T09:02:37.783Z</time>
      </trkpt>
      <trkpt lat="38.859673" lon="-2.003034">
        <ele>790.184091</ele>
        <time>2020-08-05T09:02:40.774Z</time>
      </trkpt>
      <trkpt lat="38.859575" lon="-2.003102">
        <ele>790.304653</ele>
        <time>2020-08-05T09:02:43.790Z</time>
      </trkpt>
      <trkpt lat="38.859489" lon="-2.003167">
        <ele>790.412658</ele>
        <time>2020-08-05T09:02:46.777Z</time>
      </trkpt>
      <trkpt lat="38.859408" lon="-2.003227">
        <ele>790.513866</ele>
        <time>2020-08-05T09:02:49.759Z</time>
      </trkpt>
      <trkpt lat="38.859363" lon="-2.003345">
        <ele>790.624604</ele>
        <time>2020-08-05T09:02:52.777Z</time>
      </trkpt>
      <trkpt lat="38.859405" lon="-2.003473">
        <ele>790.741669</ele>
        <time>2020-08-05T09:02:55.765Z</time>
      </trkpt>
      <trkpt lat="38.859465" lon="-2.003598">
        <ele>790.865427</ele>
        <time>2020-08-05T09:02:58.769Z</time>
      </trkpt>
      <trkpt lat="38.859522" lon="-2.003733">
        <ele>790.994855</ele>
        <time>2020-08-05T09:03:01.763Z</time>
      </trkpt>
      <trkpt lat="38.859571" lon="-2.003872">
        <ele>791.123450</ele>
        <time>2020-08-05T09:03:04.762Z</time>
      </trkpt>
      <trkpt lat="38.859619" lon="-2.004007">
        <ele>791.248528</ele>
        <time>2020-08-05T09:03:07.763Z</time>
      </trkpt>
      <trkpt lat="38.859673" lon="-2.004129">
        <ele>791.270233</ele>
        <time>2020-08-05T09:03:10.781Z</time>
      </trkpt>
      <trkpt lat="38.859729" lon="-2.004254">
        <ele>791.210469</ele>
        <time>2020-08-05T09:03:13.764Z</time>
      </trkpt>
      <trkpt lat="38.859782" lon="-2.004391">
        <ele>791.147073</ele>
        <time>2020-08-05T09:03:16.766Z</time>
      </trkpt>
      <trkpt lat="38.859832" lon="-2.004533">
        <ele>791.082490</ele>
        <time>2020-08-05T09:03:19.762Z</time>
      </trkpt>
      <trkpt lat="38.859881" lon="-2.004685">
        <ele>791.014314</ele>
        <time>2020-08-05T09:03:22.759Z</time>
      </trkpt>
      <trkpt lat="38.859929" lon="-2.004805">
        <ele>790.958407</ele>
        <time>2020-08-05T09:03:24.773Z</time>
      </trkpt>
      <trkpt lat="38.859980" lon="-2.004930">
        <ele>790.899925</ele>
        <time>2020-08-05T09:03:26.781Z</time>
      </trkpt>
      <trkpt lat="38.860021" lon="-2.005058">
        <ele>790.842567</ele>
        <time>2020-08-05T09:03:28.780Z</time>
      </trkpt>
      <trkpt lat="38.860068" lon="-2.005177">
        <ele>790.787271</ele>
        <time>2020-08-05T09:03:30.789Z</time>
      </trkpt>
      <trkpt lat="38.860114" lon="-2.005307">
        <ele>790.728096</ele>
        <time>2020-08-05T09:03:32.775Z</time>
      </trkpt>
      <trkpt lat="38.860166" lon="-2.005443">
        <ele>790.665308</ele>
        <time>2020-08-05T09:03:34.783Z</time>
      </trkpt>
      <trkpt lat="38.860212" lon="-2.005566">
        <ele>790.608761</ele>
        <time>2020-08-05T09:03:36.776Z</time>
      </trkpt>
      <trkpt lat="38.860266" lon="-2.005697">
        <ele>790.547335</ele>
        <time>2020-08-05T09:03:38.769Z</time>
      </trkpt>
      <trkpt lat="38.860319" lon="-2.005834">
        <ele>790.483940</ele>
        <time>2020-08-05T09:03:40.768Z</time>
      </trkpt>
      <trkpt lat="38.860366" lon="-2.005978">
        <ele>790.419234</ele>
        <time>2020-08-05T09:03:42.776Z</time>
      </trkpt>
      <trkpt lat="38.860428" lon="-2.006130">
        <ele>790.348125</ele>
        <time>2020-08-05T09:03:44.763Z</time>
      </trkpt>
      <trkpt lat="38.860486" lon="-2.006284">
        <ele>790.269974</ele>
        <time>2020-08-05T09:03:46.776Z</time>
      </trkpt>
      <trkpt lat="38.860540" lon="-2.006437">
        <ele>790.192885</ele>
        <time>2020-08-05T09:03:48.784Z</time>
      </trkpt>
      <trkpt lat="38.860596" lon="-2.006585">
        <ele>790.117372</ele>
        <time>2020-08-05T09:03:50.771Z</time>
      </trkpt>
      <trkpt lat="38.860660" lon="-2.006736">
        <ele>790.038476</ele>
        <time>2020-08-05T09:03:52.790Z</time>
      </trkpt>
      <trkpt lat="38.860719" lon="-2.006900">
        <ele>789.955571</ele>
        <time>2020-08-05T09:03:54.765Z</time>
      </trkpt>
      <trkpt lat="38.860778" lon="-2.007066">
        <ele>789.871831</ele>
        <time>2020-08-05T09:03:56.774Z</time>
      </trkpt>
      <trkpt lat="38.860847" lon="-2.007219">
        <ele>789.790692</ele>
        <time>2020-08-05T09:03:58.761Z</time>
      </trkpt>
      <trkpt lat="38.860909" lon="-2.007383">
        <ele>789.707030</ele>
        <time>2020-08-05T09:04:00.779Z</time>
      </trkpt>
      <trkpt lat="38.860970" lon="-2.007554">
        <ele>789.620713</ele>
        <time>2020-08-05T09:04:02.784Z</time>
      </trkpt>
      <trkpt lat="38.861040" lon="-2.007732">
        <ele>789.529201</ele>
        <time>2020-08-05T09:04:04.774Z</time>
      </trkpt>
      <trkpt lat="38.861104" lon="-2.007922">
        <ele>789.434200</ele>
        <time>2020-08-05T09:04:06.770Z</time>
      </trkpt>
      <trkpt lat="38.861167" lon="-2.008108">
        <ele>789.341118</ele>
        <time>2020-08-05T09:04:08.778Z</time>
      </trkpt>
      <trkpt lat="38.861246" lon="-2.008295">
        <ele>789.223498</ele>
        <time>2020-08-05T09:04:10.787Z</time>
      </trkpt>
      <trkpt lat="38.861325" lon="-2.008483">
        <ele>789.078030</ele>
        <time>2020-08-05T09:04:12.777Z</time>
      </trkpt>
      <trkpt lat="38.861394" lon="-2.008667">
        <ele>788.938965</ele>
        <time>2020-08-05T09:04:14.777Z</time>
      </trkpt>
      <trkpt lat="38.861469" lon="-2.008864">
        <ele>788.789646</ele>
        <time>2020-08-05T09:04:16.772Z</time>
      </trkpt>
      <trkpt lat="38.861540" lon="-2.009057">
        <ele>788.644297</ele>
        <time>2020-08-05T09:04:18.772Z</time>
      </trkpt>
      <trkpt lat="38.861606" lon="-2.009251">
        <ele>788.500137</ele>
        <time>2020-08-05T09:04:20.781Z</time>
      </trkpt>
      <trkpt lat="38.861680" lon="-2.009445">
        <ele>788.353037</ele>
        <time>2020-08-05T09:04:22.788Z</time>
      </trkpt>
      <trkpt lat="38.861755" lon="-2.009638">
        <ele>788.206161</ele>
        <time>2020-08-05T09:04:24.782Z</time>
      </trkpt>
      <trkpt lat="38.861824" lon="-2.009836">
        <ele>788.058450</ele>
        <time>2020-08-05T09:04:26.774Z</time>
      </trkpt>
      <trkpt lat="38.861896" lon="-2.010036">
        <ele>787.908413</ele>
        <time>2020-08-05T09:04:28.779Z</time>
      </trkpt>
      <trkpt lat="38.861971" lon="-2.010241">
        <ele>787.754182</ele>
        <time>2020-08-05T09:04:30.780Z</time>
      </trkpt>
      <trkpt lat="38.862046" lon="-2.010426">
        <ele>787.474350</ele>
        <time>2020-08-05T09:04:32.778Z</time>
      </trkpt>
      <trkpt lat="38.862125" lon="-2.010612">
        <ele>787.130756</ele>
        <time>2020-08-05T09:04:34.771Z</time>
      </trkpt>
      <trkpt lat="38.862193" lon="-2.010805">
        <ele>786.787215</ele>
        <time>2020-08-05T09:04:36.783Z</time>
      </trkpt>
      <trkpt lat="38.862266" lon="-2.011000">
        <ele>786.436333</ele>
        <time>2020-08-05T09:04:38.770Z</time>
      </trkpt>
      <trkpt lat="38.862336" lon="-2.011183">
        <ele>786.105684</ele>
        <time>2020-08-05T09:04:40.783Z</time>
      </trkpt>
      <trkpt lat="38.862417" lon="-2.011379">
        <ele>785.745836</ele>
        <time>2020-08-05T09:04:42.782Z</time>
      </trkpt>
      <trkpt lat="38.862492" lon="-2.011576">
        <ele>785.390219</ele>
        <time>2020-08-05T09:04:44.775Z</time>
      </trkpt>
      <trkpt lat="38.862555" lon="-2.011763">
        <ele>785.059792</ele>
        <time>2020-08-05T09:04:46.778Z</time>
      </trkpt>
      <trkpt lat="38.862628" lon="-2.011956">
        <ele>784.711831</ele>
        <time>2020-08-05T09:04:48.773Z</time>
      </trkpt>
      <trkpt lat="38.862692" lon="-2.012140">
        <ele>784.385021</ele>
        <time>2020-08-05T09:04:50.783Z</time>
      </trkpt>
      <trkpt lat="38.862751" lon="-2.012321">
        <ele>784.066811</ele>
        <time>2020-08-05T09:04:52.770Z</time>
      </trkpt>
      <trkpt lat="38.862812" lon="-2.012498">
        <ele>783.837762</ele>
        <time>2020-08-05T09:04:54.782Z</time>
      </trkpt>
      <trkpt lat="38.862879" lon="-2.012662">
        <ele>783.657086</ele>
        <time>2020-08-05T09:04:56.777Z</time>
      </trkpt>
      <trkpt lat="38.862950" lon="-2.012832">
        <ele>783.468891</ele>
        <time>2020-08-05T09:04:58.786Z</time>
      </trkpt>
      <trkpt lat="38.863019" lon="-2.013004">
        <ele>783.280136</ele>
        <time>2020-08-05T09:05:00.784Z</time>
      </trkpt>
      <trkpt lat="38.863092" lon="-2.013158">
        <ele>783.104250</ele>
        <time>2020-08-05T09:05:02.776Z</time>
      </trkpt>
      <trkpt lat="38.863161" lon="-2.013322">
        <ele>782.922398</ele>
        <time>2020-08-05T09:05:04.781Z</time>
      </trkpt>
      <trkpt lat="38.863222" lon="-2.013486">
        <ele>782.745090</ele>
        <time>2020-08-05T09:05:06.780Z</time>
      </trkpt>
      <trkpt lat="38.863273" lon="-2.013649">
        <ele>782.573718</ele>
        <time>2020-08-05T09:05:08.772Z</time>
      </trkpt>
      <trkpt lat="38.863323" lon="-2.013801">
        <ele>782.412745</ele>
        <time>2020-08-05T09:05:10.780Z</time>
      </trkpt>
      <trkpt lat="38.863365" lon="-2.013943">
        <ele>782.264559</ele>
        <time>2020-08-05T09:05:12.764Z</time>
      </trkpt>
      <trkpt lat="38.863370" lon="-2.014070">
        <ele>782.140506</ele>
        <time>2020-08-05T09:05:14.762Z</time>
      </trkpt>
      <trkpt lat="38.863296" lon="-2.014149">
        <ele>782.019944</ele>
        <time>2020-08-05T09:05:16.773Z</time>
      </trkpt>
      <trkpt lat="38.863195" lon="-2.014186">
        <ele>781.888355</ele>
        <time>2020-08-05T09:05:18.778Z</time>
      </trkpt>
      <trkpt lat="38.863100" lon="-2.014255">
        <ele>781.751616</ele>
        <time>2020-08-05T09:05:20.767Z</time>
      </trkpt>
      <trkpt lat="38.862995" lon="-2.014315">
        <ele>782.002893</ele>
        <time>2020-08-05T09:05:22.758Z</time>
      </trkpt>
      <trkpt lat="38.862910" lon="-2.014376">
        <ele>782.341215</ele>
        <time>2020-08-05T09:05:24.777Z</time>
      </trkpt>
      <trkpt lat="38.862821" lon="-2.014436">
        <ele>782.690470</ele>
        <time>2020-08-05T09:05:26.771Z</time>
      </trkpt>
      <trkpt lat="38.862734" lon="-2.014471">
        <ele>783.007244</ele>
        <time>2020-08-05T09:05:28.767Z</time>
      </trkpt>
      <trkpt lat="38.862620" lon="-2.014523">
        <ele>783.427589</ele>
        <time>2020-08-05T09:05:31.768Z</time>
      </trkpt>
      <trkpt lat="38.862498" lon="-2.014588">
        <ele>783.886519</ele>
        <time>2020-08-05T09:05:34.778Z</time>
      </trkpt>
      <trkpt lat="38.862381" lon="-2.014643">
        <ele>784.319424</ele>
        <time>2020-08-05T09:05:37.757Z</time>
      </trkpt>
      <trkpt lat="38.862297" lon="-2.014696">
        <ele>784.644611</ele>
        <time>2020-08-05T09:05:39.773Z</time>
      </trkpt>
      <trkpt lat="38.862196" lon="-2.014775">
        <ele>785.055509</ele>
        <time>2020-08-05T09:05:42.765Z</time>
      </trkpt>
      <trkpt lat="38.862091" lon="-2.014848">
        <ele>785.470370</ele>
        <time>2020-08-05T09:05:45.767Z</time>
      </trkpt>
      <trkpt lat="38.862014" lon="-2.014909">
        <ele>785.784721</ele>
        <time>2020-08-05T09:05:47.760Z</time>
      </trkpt>
      <trkpt lat="38.861926" lon="-2.014968">
        <ele>786.129644</ele>
        <time>2020-08-05T09:05:49.773Z</time>
      </trkpt>
      <trkpt lat="38.861845" lon="-2.015020">
        <ele>786.444290</ele>
        <time>2020-08-05T09:05:51.770Z</time>
      </trkpt>
      <trkpt lat="38.861740" lon="-2.015086">
        <ele>786.850477</ele>
        <time>2020-08-05T09:05:54.784Z</time>
      </trkpt>
      <trkpt lat="38.861639" lon="-2.015135">
        <ele>787.225616</ele>
        <time>2020-08-05T09:05:57.771Z</time>
      </trkpt>
      <trkpt lat="38.861528" lon="-2.015191">
        <ele>787.639987</ele>
        <time>2020-08-05T09:06:00.780Z</time>
      </trkpt>
      <trkpt lat="38.861410" lon="-2.015263">
        <ele>787.874962</ele>
        <time>2020-08-05T09:06:03.770Z</time>
      </trkpt>
      <trkpt lat="38.861293" lon="-2.015323">
        <ele>787.586536</ele>
        <time>2020-08-05T09:06:06.761Z</time>
      </trkpt>
      <trkpt lat="38.861180" lon="-2.015376">
        <ele>787.311120</ele>
        <time>2020-08-05T09:06:09.763Z</time>
      </trkpt>
      <trkpt lat="38.861067" lon="-2.015434">
        <ele>787.032520</ele>
        <time>2020-08-05T09:06:12.777Z</time>
      </trkpt>
      <trkpt lat="38.860967" lon="-2.015494">
        <ele>786.779826</ele>
        <time>2020-08-05T09:06:15.769Z</time>
      </trkpt>
      <trkpt lat="38.860870" lon="-2.015555">
        <ele>786.532558</ele>
        <time>2020-08-05T09:06:18.770Z</time>
      </trkpt>
      <trkpt lat="38.860775" lon="-2.015620">
        <ele>786.286122</ele>
        <time>2020-08-05T09:06:21.764Z</time>
      </trkpt>
      <trkpt lat="38.860677" lon="-2.015684">
        <ele>786.034417</ele>
        <time>2020-08-05T09:06:24.766Z</time>
      </trkpt>
      <trkpt lat="38.860586" lon="-2.015744">
        <ele>785.800228</ele>
        <time>2020-08-05T09:06:27.769Z</time>
      </trkpt>
      <trkpt lat="38.860503" lon="-2.015792">
        <ele>785.591829</ele>
        <time>2020-08-05T09:06:30.764Z</time>
      </trkpt>
      <trkpt lat="38.860403" lon="-2.015855">
        <ele>785.336825</ele>
        <time>2020-08-05T09:06:33.785Z</time>
      </trkpt>
      <trkpt lat="38.860314" lon="-2.015918">
        <ele>785.104165</ele>
        <time>2020-08-05T09:06:36.767Z</time>
      </trkpt>
      <trkpt lat="38.860232" lon="-2.015974">
        <ele>784.891540</ele>
        <time>2020-08-05T09:06:39.770Z</time>
      </trkpt>
      <trkpt lat="38.860137" lon="-2.016030">
        <ele>784.652229</ele>
        <time>2020-08-05T09:06:42.770Z</time>
      </trkpt>
      <trkpt lat="38.860043" lon="-2.016085">
        <ele>784.415741</ele>
        <time>2020-08-05T09:06:45.760Z</time>
      </trkpt>
      <trkpt lat="38.859942" lon="-2.016150">
        <ele>784.157101</ele>
        <time>2020-08-05T09:06:48.771Z</time>
      </trkpt>
      <trkpt lat="38.859848" lon="-2.016206">
        <ele>783.919869</ele>
        <time>2020-08-05T09:06:51.773Z</time>
      </trkpt>
      <trkpt lat="38.859756" lon="-2.016263">
        <ele>784.085691</ele>
        <time>2020-08-05T09:06:54.762Z</time>
      </trkpt>
      <trkpt lat="38.859663" lon="-2.016319">
        <ele>784.445041</ele>
        <time>2020-08-05T09:06:57.779Z</time>
      </trkpt>
      <trkpt lat="38.859570" lon="-2.016374">
        <ele>784.803244</ele>
        <time>2020-08-05T09:07:00.781Z</time>
      </trkpt>
      <trkpt lat="38.859479" lon="-2.016433">
        <ele>785.159879</ele>
        <time>2020-08-05T09:07:03.766Z</time>
      </trkpt>
      <trkpt lat="38.859383" lon="-2.016490">
        <ele>785.529895</ele>
        <time>2020-08-05T09:07:06.780Z</time>
      </trkpt>
      <trkpt lat="38.859293" lon="-2.016550">
        <ele>785.884658</ele>
        <time>2020-08-05T09:07:09.783Z</time>
      </trkpt>
      <trkpt lat="38.859199" lon="-2.016609">
        <ele>786.250694</ele>
        <time>2020-08-05T09:07:12.777Z</time>
      </trkpt>
      <trkpt lat="38.859103" lon="-2.016666">
        <ele>786.620710</ele>
        <time>2020-08-05T09:07:15.771Z</time>
      </trkpt>
      <trkpt lat="38.859009" lon="-2.016721">
        <ele>786.982093</ele>
        <time>2020-08-05T09:07:18.769Z</time>
      </trkpt>
      <trkpt lat="38.858919" lon="-2.016772">
        <ele>787.326249</ele>
        <time>2020-08-05T09:07:21.785Z</time>
      </trkpt>
      <trkpt lat="38.858824" lon="-2.016829">
        <ele>787.693092</ele>
        <time>2020-08-05T09:07:24.788Z</time>
      </trkpt>
      <trkpt lat="38.858729" lon="-2.016885">
        <ele>788.058791</ele>
        <time>2020-08-05T09:07:27.778Z</time>
      </trkpt>
      <trkpt lat="38.858637" lon="-2.016946">
        <ele>788.421021</ele>
        <time>2020-08-05T09:07:30.791Z</time>
      </trkpt>
      <trkpt lat="38.858554" lon="-2.016999">
        <ele>788.745313</ele>
        <time>2020-08-05T09:07:33.779Z</time>
      </trkpt>
      <trkpt lat="38.858472" lon="-2.017059">
        <ele>789.075489</ele>
        <time>2020-08-05T09:07:36.783Z</time>
      </trkpt>
      <trkpt lat="38.858391" lon="-2.017130">
        <ele>789.418586</ele>
        <time>2020-08-05T09:07:39.777Z</time>
      </trkpt>
      <trkpt lat="38.858287" lon="-2.017197">
        <ele>789.825646</ele>
        <time>2020-08-05T09:07:42.778Z</time>
      </trkpt>
      <trkpt lat="38.858192" lon="-2.017256">
        <ele>790.096304</ele>
        <time>2020-08-05T09:07:45.780Z</time>
      </trkpt>
      <trkpt lat="38.858098" lon="-2.017305">
        <ele>789.850156</ele>
        <time>2020-08-05T09:07:48.777Z</time>
      </trkpt>
      <trkpt lat="38.858002" lon="-2.017365">
        <ele>789.591108</ele>
        <time>2020-08-05T09:07:51.776Z</time>
      </trkpt>
      <trkpt lat="38.857912" lon="-2.017422">
        <ele>789.347627</ele>
        <time>2020-08-05T09:07:54.777Z</time>
      </trkpt>
      <trkpt lat="38.857821" lon="-2.017477">
        <ele>789.103600</ele>
        <time>2020-08-05T09:07:57.776Z</time>
      </trkpt>
      <trkpt lat="38.857732" lon="-2.017536">
        <ele>788.860583</ele>
        <time>2020-08-05T09:08:00.791Z</time>
      </trkpt>
      <trkpt lat="38.857643" lon="-2.017594">
        <ele>788.618426</ele>
        <time>2020-08-05T09:08:03.769Z</time>
      </trkpt>
      <trkpt lat="38.857553" lon="-2.017648">
        <ele>788.377398</ele>
        <time>2020-08-05T09:08:06.772Z</time>
      </trkpt>
      <trkpt lat="38.857464" lon="-2.017702">
        <ele>788.138567</ele>
        <time>2020-08-05T09:08:09.776Z</time>
      </trkpt>
      <trkpt lat="38.857372" lon="-2.017752">
        <ele>787.896178</ele>
        <time>2020-08-05T09:08:12.771Z</time>
      </trkpt>
      <trkpt lat="38.857277" lon="-2.017807">
        <ele>787.643336</ele>
        <time>2020-08-05T09:08:15.778Z</time>
      </trkpt>
      <trkpt lat="38.857180" lon="-2.017865">
        <ele>787.383721</ele>
        <time>2020-08-05T09:08:18.769Z</time>
      </trkpt>
      <trkpt lat="38.857088" lon="-2.017930">
        <ele>787.128946</ele>
        <time>2020-08-05T09:08:21.787Z</time>
      </trkpt>
      <trkpt lat="38.856993" lon="-2.017984">
        <ele>786.876874</ele>
        <time>2020-08-05T09:08:24.777Z</time>
      </trkpt>
      <trkpt lat="38.856908" lon="-2.018040">
        <ele>786.645080</ele>
        <time>2020-08-05T09:08:27.776Z</time>
      </trkpt>
      <trkpt lat="38.856823" lon="-2.018092">
        <ele>786.416636</ele>
        <time>2020-08-05T09:08:30.770Z</time>
      </trkpt>
      <trkpt lat="38.856736" lon="-2.018149">
        <ele>786.179660</ele>
        <time>2020-08-05T09:08:33.772Z</time>
      </trkpt>
      <trkpt lat="38.856641" lon="-2.018211">
        <ele>785.921101</ele>
        <time>2020-08-05T09:08:36.793Z</time>
      </trkpt>
      <trkpt lat="38.856547" lon="-2.018272">
        <ele>785.915826</ele>
        <time>2020-08-05T09:08:39.771Z</time>
      </trkpt>
      <trkpt lat="38.856450" lon="-2.018336">
        <ele>786.270040</ele>
        <time>2020-08-05T09:08:42.771Z</time>
      </trkpt>
      <trkpt lat="38.856350" lon="-2.018394">
        <ele>786.626438</ele>
        <time>2020-08-05T09:08:45.773Z</time>
      </trkpt>
      <trkpt lat="38.856252" lon="-2.018443">
        <ele>786.968025</ele>
        <time>2020-08-05T09:08:48.766Z</time>
      </trkpt>
      <trkpt lat="38.856161" lon="-2.018501">
        <ele>787.298001</ele>
        <time>2020-08-05T09:08:51.775Z</time>
      </trkpt>
      <trkpt lat="38.856053" lon="-2.018570">
        <ele>787.689807</ele>
        <time>2020-08-05T09:08:54.773Z</time>
      </trkpt>
      <trkpt lat="38.855952" lon="-2.018629">
        <ele>788.050208</ele>
        <time>2020-08-05T09:08:57.770Z</time>
      </trkpt>
      <trkpt lat="38.855858" lon="-2.018689">
        <ele>788.391162</ele>
        <time>2020-08-05T09:09:00.774Z</time>
      </trkpt>
      <trkpt lat="38.855739" lon="-2.018751">
        <ele>788.808282</ele>
        <time>2020-08-05T09:09:03.769Z</time>
      </trkpt>
      <trkpt lat="38.855628" lon="-2.018829">
        <ele>789.219265</ele>
        <time>2020-08-05T09:09:06.774Z</time>
      </trkpt>
      <trkpt lat="38.855525" lon="-2.018895">
        <ele>789.593152</ele>
        <time>2020-08-05T09:09:09.775Z</time>
      </trkpt>
      <trkpt lat="38.855419" lon="-2.018969">
        <ele>789.985034</ele>
        <time>2020-08-05T09:09:12.777Z</time>
      </trkpt>
      <trkpt lat="38.855312" lon="-2.019041">
        <ele>790.377400</ele>
        <time>2020-08-05T09:09:15.781Z</time>
      </trkpt>
      <trkpt lat="38.855212" lon="-2.019124">
        <ele>790.764145</ele>
        <time>2020-08-05T09:09:18.771Z</time>
      </trkpt>
      <trkpt lat="38.855115" lon="-2.019215">
        <ele>791.154329</ele>
        <time>2020-08-05T09:09:21.762Z</time>
      </trkpt>
      <trkpt lat="38.855037" lon="-2.019284">
        <ele>791.461973</ele>
        <time>2020-08-05T09:09:23.761Z</time>
      </trkpt>
      <trkpt lat="38.854938" lon="-2.019368">
        <ele>791.926552</ele>
        <time>2020-08-05T09:09:26.764Z</time>
      </trkpt>
      <trkpt lat="38.854840" lon="-2.019453">
        <ele>792.441336</ele>
        <time>2020-08-05T09:09:30.776Z</time>
      </trkpt>
      <trkpt lat="38.854746" lon="-2.019545">
        <ele>792.955815</ele>
        <time>2020-08-05T09:09:34.769Z</time>
      </trkpt>
      <trkpt lat="38.854649" lon="-2.019629">
        <ele>793.465095</ele>
        <time>2020-08-05T09:09:38.778Z</time>
      </trkpt>
      <trkpt lat="38.854550" lon="-2.019689">
        <ele>793.941625</ele>
        <time>2020-08-05T09:09:42.769Z</time>
      </trkpt>
      <trkpt lat="38.854455" lon="-2.019733">
        <ele>794.381234</ele>
        <time>2020-08-05T09:09:46.772Z</time>
      </trkpt>
      <trkpt lat="38.854365" lon="-2.019776">
        <ele>794.799241</ele>
        <time>2020-08-05T09:09:49.764Z</time>
      </trkpt>
      <trkpt lat="38.854277" lon="-2.019807">
        <ele>795.196456</ele>
        <time>2020-08-05T09:09:52.773Z</time>
      </trkpt>
      <trkpt lat="38.854187" lon="-2.019840">
        <ele>795.603882</ele>
        <time>2020-08-05T09:09:55.769Z</time>
      </trkpt>
      <trkpt lat="38.854091" lon="-2.019899">
        <ele>796.067163</ele>
        <time>2020-08-05T09:09:58.772Z</time>
      </trkpt>
      <trkpt lat="38.853993" lon="-2.019967">
        <ele>796.552051</ele>
        <time>2020-08-05T09:10:01.781Z</time>
      </trkpt>
      <trkpt lat="38.853882" lon="-2.020037">
        <ele>797.090354</ele>
        <time>2020-08-05T09:10:04.771Z</time>
      </trkpt>
      <trkpt lat="38.853801" lon="-2.020095">
        <ele>797.494059</ele>
        <time>2020-08-05T09:10:06.775Z</time>
      </trkpt>
      <trkpt lat="38.853685" lon="-2.020161">
        <ele>798.046351</ele>
        <time>2020-08-05T09:10:09.765Z</time>
      </trkpt>
      <trkpt lat="38.853567" lon="-2.020226">
        <ele>798.605268</ele>
        <time>2020-08-05T09:10:12.772Z</time>
      </trkpt>
      <trkpt lat="38.853462" lon="-2.020298">
        <ele>799.123416</ele>
        <time>2020-08-05T09:10:15.772Z</time>
      </trkpt>
      <trkpt lat="38.853357" lon="-2.020370">
        <ele>799.402642</ele>
        <time>2020-08-05T09:10:18.760Z</time>
      </trkpt>
      <trkpt lat="38.853246" lon="-2.020449">
        <ele>799.286605</ele>
        <time>2020-08-05T09:10:21.763Z</time>
      </trkpt>
      <trkpt lat="38.853132" lon="-2.020525">
        <ele>799.169161</ele>
        <time>2020-08-05T09:10:24.766Z</time>
      </trkpt>
      <trkpt lat="38.853020" lon="-2.020605">
        <ele>799.051979</ele>
        <time>2020-08-05T09:10:27.767Z</time>
      </trkpt>
      <trkpt lat="38.852909" lon="-2.020679">
        <ele>798.937626</ele>
        <time>2020-08-05T09:10:30.763Z</time>
      </trkpt>
      <trkpt lat="38.852798" lon="-2.020753">
        <ele>798.823273</ele>
        <time>2020-08-05T09:10:33.777Z</time>
      </trkpt>
      <trkpt lat="38.852688" lon="-2.020831">
        <ele>798.708381</ele>
        <time>2020-08-05T09:10:36.768Z</time>
      </trkpt>
      <trkpt lat="38.852577" lon="-2.020903">
        <ele>798.594676</ele>
        <time>2020-08-05T09:10:39.771Z</time>
      </trkpt>
      <trkpt lat="38.852471" lon="-2.020974">
        <ele>798.485364</ele>
        <time>2020-08-05T09:10:42.773Z</time>
      </trkpt>
      <trkpt lat="38.852375" lon="-2.021059">
        <ele>798.378745</ele>
        <time>2020-08-05T09:10:45.758Z</time>
      </trkpt>
      <trkpt lat="38.852294" lon="-2.021166">
        <ele>798.272491</ele>
        <time>2020-08-05T09:10:48.762Z</time>
      </trkpt>
      <trkpt lat="38.852233" lon="-2.021292">
        <ele>798.166850</ele>
        <time>2020-08-05T09:10:51.775Z</time>
      </trkpt>
      <trkpt lat="38.852182" lon="-2.021427">
        <ele>798.060010</ele>
        <time>2020-08-05T09:10:54.791Z</time>
      </trkpt>
      <trkpt lat="38.852139" lon="-2.021565">
        <ele>797.954174</ele>
        <time>2020-08-05T09:10:57.778Z</time>
      </trkpt>
      <trkpt lat="38.852108" lon="-2.021707">
        <ele>797.849165</ele>
        <time>2020-08-05T09:11:00.771Z</time>
      </trkpt>
      <trkpt lat="38.852092" lon="-2.021848">
        <ele>797.570837</ele>
        <time>2020-08-05T09:11:03.773Z</time>
      </trkpt>
      <trkpt lat="38.852067" lon="-2.021988">
        <ele>797.119739</ele>
        <time>2020-08-05T09:11:06.761Z</time>
      </trkpt>
      <trkpt lat="38.852018" lon="-2.022138">
        <ele>796.608879</ele>
        <time>2020-08-05T09:11:09.770Z</time>
      </trkpt>
      <trkpt lat="38.851962" lon="-2.022274">
        <ele>796.125724</ele>
        <time>2020-08-05T09:11:12.779Z</time>
      </trkpt>
      <trkpt lat="38.851886" lon="-2.022395">
        <ele>795.637513</ele>
        <time>2020-08-05T09:11:15.766Z</time>
      </trkpt>
      <trkpt lat="38.851804" lon="-2.022511">
        <ele>795.145497</ele>
        <time>2020-08-05T09:11:18.777Z</time>
      </trkpt>
      <trkpt lat="38.851763" lon="-2.022643">
        <ele>794.699176</ele>
        <time>2020-08-05T09:11:21.793Z</time>
      </trkpt>
      <trkpt lat="38.851816" lon="-2.022773">
        <ele>794.238330</ele>
        <time>2020-08-05T09:11:24.766Z</time>
      </trkpt>
      <trkpt lat="38.851879" lon="-2.022896">
        <ele>793.775971</ele>
        <time>2020-08-05T09:11:27.769Z</time>
      </trkpt>
      <trkpt lat="38.851932" lon="-2.023020">
        <ele>793.331734</ele>
        <time>2020-08-05T09:11:30.774Z</time>
      </trkpt>
      <trkpt lat="38.851985" lon="-2.023149">
        <ele>792.873669</ele>
        <time>2020-08-05T09:11:33.765Z</time>
      </trkpt>
      <trkpt lat="38.852037" lon="-2.023262">
        <ele>792.461451</ele>
        <time>2020-08-05T09:11:36.783Z</time>
      </trkpt>
      <trkpt lat="38.852088" lon="-2.023381">
        <ele>792.034862</ele>
        <time>2020-08-05T09:11:39.768Z</time>
      </trkpt>
      <trkpt lat="38.852140" lon="-2.023497">
        <ele>791.614505</ele>
        <time>2020-08-05T09:11:42.796Z</time>
      </trkpt>
      <trkpt lat="38.852180" lon="-2.023610">
        <ele>791.224674</ele>
        <time>2020-08-05T09:11:45.790Z</time>
      </trkpt>
      <trkpt lat="38.852221" lon="-2.023713">
        <ele>790.861382</ele>
        <time>2020-08-05T09:11:48.780Z</time>
      </trkpt>
      <trkpt lat="38.852256" lon="-2.023849">
        <ele>790.698350</ele>
        <time>2020-08-05T09:11:52.780Z</time>
      </trkpt>
      <trkpt lat="38.852262" lon="-2.023968">
        <ele>791.122810</ele>
        <time>2020-08-05T09:11:55.776Z</time>
      </trkpt>
      <trkpt lat="38.852250" lon="-2.024095">
        <ele>791.578173</ele>
        <time>2020-08-05T09:11:58.788Z</time>
      </trkpt>
      <trkpt lat="38.852226" lon="-2.024224">
        <ele>792.050262</ele>
        <time>2020-08-05T09:12:01.761Z</time>
      </trkpt>
      <trkpt lat="38.852197" lon="-2.024346">
        <ele>792.504291</ele>
        <time>2020-08-05T09:12:04.759Z</time>
      </trkpt>
      <trkpt lat="38.852177" lon="-2.024463">
        <ele>792.930660</ele>
        <time>2020-08-05T09:12:07.775Z</time>
      </trkpt>
      <trkpt lat="38.852169" lon="-2.024587">
        <ele>793.373543</ele>
        <time>2020-08-05T09:12:10.766Z</time>
      </trkpt>
      <trkpt lat="38.852158" lon="-2.024702">
        <ele>793.785954</ele>
        <time>2020-08-05T09:12:13.767Z</time>
      </trkpt>
      <trkpt lat="38.852169" lon="-2.024855">
        <ele>794.332864</ele>
        <time>2020-08-05T09:12:17.784Z</time>
      </trkpt>
      <trkpt lat="38.852222" lon="-2.024986">
        <ele>794.858320</ele>
        <time>2020-08-05T09:12:21.793Z</time>
      </trkpt>
      <trkpt lat="38.852291" lon="-2.025114">
        <ele>795.412430</ele>
        <time>2020-08-05T09:12:25.761Z</time>
      </trkpt>
      <trkpt lat="38.852355" lon="-2.025231">
        <ele>795.921352</ele>
        <time>2020-08-05T09:12:29.767Z</time>
      </trkpt>
      <trkpt lat="38.852424" lon="-2.025318">
        <ele>796.363342</ele>
        <time>2020-08-05T09:12:32.768Z</time>
      </trkpt>
      <trkpt lat="38.852472" lon="-2.025424">
        <ele>796.799789</ele>
        <time>2020-08-05T09:12:35.773Z</time>
      </trkpt>
      <trkpt lat="38.852512" lon="-2.025537">
        <ele>797.241605</ele>
        <time>2020-08-05T09:12:38.782Z</time>
      </trkpt>
      <trkpt lat="38.852551" lon="-2.025642">
        <ele>797.655677</ele>
        <time>2020-08-05T09:12:41.770Z</time>
      </trkpt>
      <trkpt lat="38.852585" lon="-2.025758">
        <ele>798.096845</ele>
        <time>2020-08-05T09:12:44.769Z</time>
      </trkpt>
      <trkpt lat="38.852625" lon="-2.025872">
        <ele>798.541903</ele>
        <time>2020-08-05T09:12:47.776Z</time>
      </trkpt>
      <trkpt lat="38.852677" lon="-2.025979">
        <ele>798.818384</ele>
        <time>2020-08-05T09:12:50.772Z</time>
      </trkpt>
      <trkpt lat="38.852743" lon="-2.026108">
        <ele>798.944739</ele>
        <time>2020-08-05T09:12:54.791Z</time>
      </trkpt>
      <trkpt lat="38.852781" lon="-2.026235">
        <ele>799.056116</ele>
        <time>2020-08-05T09:12:57.780Z</time>
      </trkpt>
      <trkpt lat="38.852808" lon="-2.026355">
        <ele>799.158371</ele>
        <time>2020-08-05T09:13:00.778Z</time>
      </trkpt>
      <trkpt lat="38.852833" lon="-2.026476">
        <ele>799.260852</ele>
        <time>2020-08-05T09:13:03.785Z</time>
      </trkpt>
      <trkpt lat="38.852831" lon="-2.026608">
        <ele>799.368933</ele>
        <time>2020-08-05T09:13:06.781Z</time>
      </trkpt>
      <trkpt lat="38.852753" lon="-2.026729">
        <ele>799.497521</ele>
        <time>2020-08-05T09:13:09.767Z</time>
      </trkpt>
      <trkpt lat="38.852640" lon="-2.026795">
        <ele>799.628018</ele>
        <time>2020-08-05T09:13:12.765Z</time>
      </trkpt>
      <trkpt lat="38.852547" lon="-2.026866">
        <ele>799.741753</ele>
        <time>2020-08-05T09:13:15.778Z</time>
      </trkpt>
      <trkpt lat="38.852471" lon="-2.026951">
        <ele>799.847700</ele>
        <time>2020-08-05T09:13:18.777Z</time>
      </trkpt>
      <trkpt lat="38.852396" lon="-2.027043">
        <ele>799.956733</ele>
        <time>2020-08-05T09:13:21.772Z</time>
      </trkpt>
      <trkpt lat="38.852324" lon="-2.027134">
        <ele>800.062931</ele>
        <time>2020-08-05T09:13:24.780Z</time>
      </trkpt>
      <trkpt lat="38.852261" lon="-2.027226">
        <ele>800.163222</ele>
        <time>2020-08-05T09:13:27.774Z</time>
      </trkpt>
      <trkpt lat="38.852246" lon="-2.027347">
        <ele>800.263525</ele>
        <time>2020-08-05T09:13:30.773Z</time>
      </trkpt>
      <trkpt lat="38.852250" lon="-2.027474">
        <ele>800.367578</ele>
        <time>2020-08-05T09:13:33.779Z</time>
      </trkpt>
      <trkpt lat="38.852262" lon="-2.027593">
        <ele>800.465810</ele>
        <time>2020-08-05T09:13:36.773Z</time>
      </trkpt>
      <trkpt lat="38.852279" lon="-2.027713">
        <ele>800.565659</ele>
        <time>2020-08-05T09:13:39.778Z</time>
      </trkpt>
      <trkpt lat="38.852302" lon="-2.027831">
        <ele>800.675732</ele>
        <time>2020-08-05T09:13:42.774Z</time>
      </trkpt>
      <trkpt lat="38.852336" lon="-2.027956">
        <ele>800.933359</ele>
        <time>2020-08-05T09:13:45.795Z</time>
      </trkpt>
      <trkpt lat="38.852376" lon="-2.028084">
        <ele>801.201720</ele>
        <time>2020-08-05T09:13:48.767Z</time>
      </trkpt>
      <trkpt lat="38.852415" lon="-2.028210">
        <ele>801.465539</ele>
        <time>2020-08-05T09:13:51.770Z</time>
      </trkpt>
      <trkpt lat="38.852441" lon="-2.028335">
        <ele>801.717284</ele>
        <time>2020-08-05T09:13:54.771Z</time>
      </trkpt>
      <trkpt lat="38.852461" lon="-2.028476">
        <ele>801.996148</ele>
        <time>2020-08-05T09:13:58.780Z</time>
      </trkpt>
      <trkpt lat="38.852398" lon="-2.028601">
        <ele>802.285858</ele>
        <time>2020-08-05T09:14:02.775Z</time>
      </trkpt>
      <trkpt lat="38.852275" lon="-2.028709">
        <ele>802.658153</ele>
        <time>2020-08-05T09:14:05.771Z</time>
      </trkpt>
      <trkpt lat="38.852200" lon="-2.028806">
        <ele>802.924116</ele>
        <time>2020-08-05T09:14:07.779Z</time>
      </trkpt>
      <trkpt lat="38.852113" lon="-2.028887">
        <ele>803.192611</ele>
        <time>2020-08-05T09:14:09.771Z</time>
      </trkpt>
      <trkpt lat="38.852033" lon="-2.028970">
        <ele>803.449582</ele>
        <time>2020-08-05T09:14:11.772Z</time>
      </trkpt>
      <trkpt lat="38.851954" lon="-2.029036">
        <ele>803.685064</ele>
        <time>2020-08-05T09:14:13.769Z</time>
      </trkpt>
      <trkpt lat="38.851866" lon="-2.029120">
        <ele>803.959028</ele>
        <time>2020-08-05T09:14:15.780Z</time>
      </trkpt>
      <trkpt lat="38.851784" lon="-2.029195">
        <ele>804.210566</ele>
        <time>2020-08-05T09:14:17.781Z</time>
      </trkpt>
      <trkpt lat="38.851709" lon="-2.029268">
        <ele>804.445704</ele>
        <time>2020-08-05T09:14:19.762Z</time>
      </trkpt>
      <trkpt lat="38.851631" lon="-2.029338">
        <ele>804.683467</ele>
        <time>2020-08-05T09:14:21.771Z</time>
      </trkpt>
      <trkpt lat="38.851545" lon="-2.029432">
        <ele>804.965643</ele>
        <time>2020-08-05T09:14:24.766Z</time>
      </trkpt>
      <trkpt lat="38.851456" lon="-2.029469">
        <ele>805.137203</ele>
        <time>2020-08-05T09:14:27.777Z</time>
      </trkpt>
      <trkpt lat="38.851217" lon="-2.029378">
        <ele>804.950422</ele>
        <time>2020-08-05T09:18:51.805Z</time>
      </trkpt>
      <trkpt lat="38.851376" lon="-2.029499">
        <ele>804.811938</ele>
        <time>2020-08-05T09:29:51.777Z</time>
      </trkpt>
      <trkpt lat="38.851411" lon="-2.029617">
        <ele>804.738259</ele>
        <time>2020-08-05T09:32:18.777Z</time>
      </trkpt>
      <trkpt lat="38.851355" lon="-2.029696">
        <ele>804.675925</ele>
        <time>2020-08-05T10:24:56.851Z</time>
      </trkpt>
      <trkpt lat="38.851426" lon="-2.029593">
        <ele>804.595662</ele>
        <time>2020-08-05T10:25:03.384Z</time>
      </trkpt>
      <trkpt lat="38.851424" lon="-2.029468">
        <ele>804.522707</ele>
        <time>2020-08-05T10:29:44.372Z</time>
      </trkpt>
      <trkpt lat="38.851502" lon="-2.029405">
        <ele>804.453664</ele>
        <time>2020-08-05T10:29:49.364Z</time>
      </trkpt>
      <trkpt lat="38.851571" lon="-2.029319">
        <ele>804.381616</ele>
        <time>2020-08-05T10:29:56.368Z</time>
      </trkpt>
      <trkpt lat="38.851675" lon="-2.029240">
        <ele>804.291078</ele>
        <time>2020-08-05T10:30:20.372Z</time>
      </trkpt>
      <trkpt lat="38.851754" lon="-2.029155">
        <ele>804.213853</ele>
        <time>2020-08-05T10:30:24.357Z</time>
      </trkpt>
      <trkpt lat="38.851847" lon="-2.029069">
        <ele>804.127983</ele>
        <time>2020-08-05T10:30:28.357Z</time>
      </trkpt>
      <trkpt lat="38.851921" lon="-2.028993">
        <ele>804.056984</ele>
        <time>2020-08-05T10:30:31.370Z</time>
      </trkpt>
      <trkpt lat="38.851997" lon="-2.028922">
        <ele>803.986564</ele>
        <time>2020-08-05T10:30:34.363Z</time>
      </trkpt>
      <trkpt lat="38.852068" lon="-2.028838">
        <ele>803.914228</ele>
        <time>2020-08-05T10:30:37.363Z</time>
      </trkpt>
      <trkpt lat="38.852185" lon="-2.028695">
        <ele>803.814409</ele>
        <time>2020-08-05T10:31:17.361Z</time>
      </trkpt>
      <trkpt lat="38.852270" lon="-2.028613">
        <ele>803.892901</ele>
        <time>2020-08-05T10:31:23.363Z</time>
      </trkpt>
      <trkpt lat="38.852240" lon="-2.028752">
        <ele>803.975832</ele>
        <time>2020-08-05T10:32:14.358Z</time>
      </trkpt>
      <trkpt lat="38.852158" lon="-2.028866">
        <ele>804.065058</ele>
        <time>2020-08-05T10:32:17.371Z</time>
      </trkpt>
      <trkpt lat="38.852059" lon="-2.028950">
        <ele>804.152664</ele>
        <time>2020-08-05T10:32:19.381Z</time>
      </trkpt>
      <trkpt lat="38.851979" lon="-2.029038">
        <ele>804.230436</ele>
        <time>2020-08-05T10:32:21.375Z</time>
      </trkpt>
      <trkpt lat="38.851890" lon="-2.029126">
        <ele>804.313367</ele>
        <time>2020-08-05T10:32:23.368Z</time>
      </trkpt>
      <trkpt lat="38.851793" lon="-2.029217">
        <ele>804.402059</ele>
        <time>2020-08-05T10:32:25.374Z</time>
      </trkpt>
      <trkpt lat="38.851683" lon="-2.029307">
        <ele>804.498356</ele>
        <time>2020-08-05T10:32:27.368Z</time>
      </trkpt>
      <trkpt lat="38.851582" lon="-2.029405">
        <ele>804.591818</ele>
        <time>2020-08-05T10:32:29.369Z</time>
      </trkpt>
      <trkpt lat="38.851476" lon="-2.029496">
        <ele>804.685957</ele>
        <time>2020-08-05T10:32:31.369Z</time>
      </trkpt>
      <trkpt lat="38.851389" lon="-2.029575">
        <ele>804.764626</ele>
        <time>2020-08-05T10:32:33.372Z</time>
      </trkpt>
      <trkpt lat="38.851301" lon="-2.029651">
        <ele>804.842923</ele>
        <time>2020-08-05T10:32:35.368Z</time>
      </trkpt>
      <trkpt lat="38.851229" lon="-2.029732">
        <ele>804.913596</ele>
        <time>2020-08-05T10:32:37.366Z</time>
      </trkpt>
      <trkpt lat="38.851123" lon="-2.029826">
        <ele>805.008704</ele>
        <time>2020-08-05T10:32:40.357Z</time>
      </trkpt>
      <trkpt lat="38.851048" lon="-2.029910">
        <ele>805.082180</ele>
        <time>2020-08-05T10:32:42.371Z</time>
      </trkpt>
      <trkpt lat="38.850975" lon="-2.029982">
        <ele>805.205362</ele>
        <time>2020-08-05T10:32:44.362Z</time>
      </trkpt>
      <trkpt lat="38.850871" lon="-2.030089">
        <ele>805.600154</ele>
        <time>2020-08-05T10:32:47.366Z</time>
      </trkpt>
      <trkpt lat="38.850791" lon="-2.030156">
        <ele>805.883104</ele>
        <time>2020-08-05T10:32:49.383Z</time>
      </trkpt>
      <trkpt lat="38.850717" lon="-2.030232">
        <ele>806.163820</ele>
        <time>2020-08-05T10:32:51.366Z</time>
      </trkpt>
      <trkpt lat="38.850623" lon="-2.030344">
        <ele>806.543706</ele>
        <time>2020-08-05T10:32:54.375Z</time>
      </trkpt>
      <trkpt lat="38.850545" lon="-2.030405">
        <ele>806.814259</ele>
        <time>2020-08-05T10:32:56.368Z</time>
      </trkpt>
      <trkpt lat="38.850437" lon="-2.030493">
        <ele>807.193183</ele>
        <time>2020-08-05T10:32:59.374Z</time>
      </trkpt>
      <trkpt lat="38.850346" lon="-2.030585">
        <ele>807.536296</ele>
        <time>2020-08-05T10:33:02.362Z</time>
      </trkpt>
      <trkpt lat="38.850235" lon="-2.030672">
        <ele>807.921546</ele>
        <time>2020-08-05T10:33:05.361Z</time>
      </trkpt>
      <trkpt lat="38.850123" lon="-2.030757">
        <ele>808.306960</ele>
        <time>2020-08-05T10:33:08.368Z</time>
      </trkpt>
      <trkpt lat="38.850016" lon="-2.030835">
        <ele>808.671461</ele>
        <time>2020-08-05T10:33:11.363Z</time>
      </trkpt>
      <trkpt lat="38.849901" lon="-2.030904">
        <ele>809.047500</ele>
        <time>2020-08-05T10:33:14.362Z</time>
      </trkpt>
      <trkpt lat="38.849778" lon="-2.030970">
        <ele>809.442416</ele>
        <time>2020-08-05T10:33:17.373Z</time>
      </trkpt>
      <trkpt lat="38.849658" lon="-2.031035">
        <ele>809.828246</ele>
        <time>2020-08-05T10:33:20.363Z</time>
      </trkpt>
      <trkpt lat="38.849542" lon="-2.031093">
        <ele>810.197023</ele>
        <time>2020-08-05T10:33:23.369Z</time>
      </trkpt>
      <trkpt lat="38.849428" lon="-2.031145">
        <ele>810.467957</ele>
        <time>2020-08-05T10:33:26.368Z</time>
      </trkpt>
      <trkpt lat="38.849319" lon="-2.031213">
        <ele>810.497263</ele>
        <time>2020-08-05T10:33:29.383Z</time>
      </trkpt>
      <trkpt lat="38.849210" lon="-2.031269">
        <ele>810.525656</ele>
        <time>2020-08-05T10:33:32.371Z</time>
      </trkpt>
      <trkpt lat="38.849100" lon="-2.031322">
        <ele>810.554069</ele>
        <time>2020-08-05T10:33:35.361Z</time>
      </trkpt>
      <trkpt lat="38.848986" lon="-2.031376">
        <ele>810.583455</ele>
        <time>2020-08-05T10:33:38.368Z</time>
      </trkpt>
      <trkpt lat="38.848886" lon="-2.031426">
        <ele>810.609407</ele>
        <time>2020-08-05T10:33:41.364Z</time>
      </trkpt>
      <trkpt lat="38.848790" lon="-2.031477">
        <ele>810.634532</ele>
        <time>2020-08-05T10:33:44.371Z</time>
      </trkpt>
      <trkpt lat="38.848679" lon="-2.031532">
        <ele>810.663306</ele>
        <time>2020-08-05T10:33:47.368Z</time>
      </trkpt>
      <trkpt lat="38.848566" lon="-2.031587">
        <ele>810.692531</ele>
        <time>2020-08-05T10:33:50.372Z</time>
      </trkpt>
      <trkpt lat="38.848455" lon="-2.031640">
        <ele>810.721171</ele>
        <time>2020-08-05T10:33:53.369Z</time>
      </trkpt>
      <trkpt lat="38.848340" lon="-2.031702">
        <ele>810.751334</ele>
        <time>2020-08-05T10:33:56.382Z</time>
      </trkpt>
      <trkpt lat="38.848230" lon="-2.031766">
        <ele>810.780540</ele>
        <time>2020-08-05T10:33:59.379Z</time>
      </trkpt>
      <trkpt lat="38.848120" lon="-2.031823">
        <ele>810.809227</ele>
        <time>2020-08-05T10:34:02.371Z</time>
      </trkpt>
      <trkpt lat="38.848006" lon="-2.031882">
        <ele>810.838952</ele>
        <time>2020-08-05T10:34:05.368Z</time>
      </trkpt>
      <trkpt lat="38.847887" lon="-2.031953">
        <ele>810.870686</ele>
        <time>2020-08-05T10:34:08.377Z</time>
      </trkpt>
      <trkpt lat="38.847791" lon="-2.032004">
        <ele>810.895221</ele>
        <time>2020-08-05T10:34:10.368Z</time>
      </trkpt>
      <trkpt lat="38.847666" lon="-2.032068">
        <ele>810.898155</ele>
        <time>2020-08-05T10:34:13.373Z</time>
      </trkpt>
      <trkpt lat="38.847541" lon="-2.032122">
        <ele>810.901030</ele>
        <time>2020-08-05T10:34:16.368Z</time>
      </trkpt>
      <trkpt lat="38.847453" lon="-2.032171">
        <ele>810.903122</ele>
        <time>2020-08-05T10:34:18.376Z</time>
      </trkpt>
      <trkpt lat="38.847363" lon="-2.032218">
        <ele>810.905240</ele>
        <time>2020-08-05T10:34:20.378Z</time>
      </trkpt>
      <trkpt lat="38.847278" lon="-2.032258">
        <ele>810.907214</ele>
        <time>2020-08-05T10:34:22.369Z</time>
      </trkpt>
      <trkpt lat="38.847187" lon="-2.032298">
        <ele>810.909311</ele>
        <time>2020-08-05T10:34:24.368Z</time>
      </trkpt>
      <trkpt lat="38.847093" lon="-2.032344">
        <ele>810.911505</ele>
        <time>2020-08-05T10:34:26.381Z</time>
      </trkpt>
      <trkpt lat="38.847008" lon="-2.032390">
        <ele>810.913516</ele>
        <time>2020-08-05T10:34:28.367Z</time>
      </trkpt>
      <trkpt lat="38.846900" lon="-2.032450">
        <ele>810.916082</ele>
        <time>2020-08-05T10:34:31.367Z</time>
      </trkpt>
      <trkpt lat="38.846784" lon="-2.032508">
        <ele>810.918796</ele>
        <time>2020-08-05T10:34:34.368Z</time>
      </trkpt>
      <trkpt lat="38.846661" lon="-2.032567">
        <ele>810.921659</ele>
        <time>2020-08-05T10:34:37.387Z</time>
      </trkpt>
      <trkpt lat="38.846548" lon="-2.032631">
        <ele>810.924352</ele>
        <time>2020-08-05T10:34:40.368Z</time>
      </trkpt>
      <trkpt lat="38.846434" lon="-2.032699">
        <ele>810.927092</ele>
        <time>2020-08-05T10:34:43.362Z</time>
      </trkpt>
      <trkpt lat="38.846319" lon="-2.032762">
        <ele>810.929819</ele>
        <time>2020-08-05T10:34:46.365Z</time>
      </trkpt>
      <trkpt lat="38.846208" lon="-2.032819">
        <ele>810.932425</ele>
        <time>2020-08-05T10:34:49.360Z</time>
      </trkpt>
      <trkpt lat="38.846090" lon="-2.032881">
        <ele>810.955978</ele>
        <time>2020-08-05T10:34:52.376Z</time>
      </trkpt>
      <trkpt lat="38.845974" lon="-2.032949">
        <ele>811.028705</ele>
        <time>2020-08-05T10:34:55.358Z</time>
      </trkpt>
      <trkpt lat="38.845861" lon="-2.033020">
        <ele>811.100456</ele>
        <time>2020-08-05T10:34:58.376Z</time>
      </trkpt>
      <trkpt lat="38.845744" lon="-2.033082">
        <ele>811.172644</ele>
        <time>2020-08-05T10:35:01.361Z</time>
      </trkpt>
      <trkpt lat="38.845661" lon="-2.033136">
        <ele>811.225712</ele>
        <time>2020-08-05T10:35:03.363Z</time>
      </trkpt>
      <trkpt lat="38.845576" lon="-2.033178">
        <ele>811.277656</ele>
        <time>2020-08-05T10:35:05.374Z</time>
      </trkpt>
      <trkpt lat="38.845495" lon="-2.033230">
        <ele>811.329306</ele>
        <time>2020-08-05T10:35:07.367Z</time>
      </trkpt>
      <trkpt lat="38.845377" lon="-2.033308">
        <ele>811.405000</ele>
        <time>2020-08-05T10:35:10.374Z</time>
      </trkpt>
      <trkpt lat="38.845266" lon="-2.033383">
        <ele>811.476538</ele>
        <time>2020-08-05T10:35:13.361Z</time>
      </trkpt>
      <trkpt lat="38.845151" lon="-2.033469">
        <ele>811.552440</ele>
        <time>2020-08-05T10:35:16.363Z</time>
      </trkpt>
      <trkpt lat="38.845043" lon="-2.033556">
        <ele>811.625155</ele>
        <time>2020-08-05T10:35:19.361Z</time>
      </trkpt>
      <trkpt lat="38.844935" lon="-2.033642">
        <ele>811.697635</ele>
        <time>2020-08-05T10:35:22.365Z</time>
      </trkpt>
      <trkpt lat="38.844858" lon="-2.033706">
        <ele>811.749950</ele>
        <time>2020-08-05T10:35:24.366Z</time>
      </trkpt>
      <trkpt lat="38.844782" lon="-2.033786">
        <ele>811.806000</ele>
        <time>2020-08-05T10:35:26.366Z</time>
      </trkpt>
      <trkpt lat="38.844684" lon="-2.033898">
        <ele>811.880827</ele>
        <time>2020-08-05T10:35:29.360Z</time>
      </trkpt>
      <trkpt lat="38.844581" lon="-2.034008">
        <ele>811.957236</ele>
        <time>2020-08-05T10:35:32.367Z</time>
      </trkpt>
      <trkpt lat="38.844475" lon="-2.034113">
        <ele>812.059804</ele>
        <time>2020-08-05T10:35:35.371Z</time>
      </trkpt>
      <trkpt lat="38.844375" lon="-2.034219">
        <ele>812.160177</ele>
        <time>2020-08-05T10:35:38.369Z</time>
      </trkpt>
      <trkpt lat="38.844305" lon="-2.034294">
        <ele>812.230746</ele>
        <time>2020-08-05T10:35:40.379Z</time>
      </trkpt>
      <trkpt lat="38.844237" lon="-2.034371">
        <ele>812.300926</ele>
        <time>2020-08-05T10:35:42.364Z</time>
      </trkpt>
      <trkpt lat="38.844136" lon="-2.034477">
        <ele>812.401897</ele>
        <time>2020-08-05T10:35:45.359Z</time>
      </trkpt>
      <trkpt lat="38.844048" lon="-2.034584">
        <ele>812.495708</ele>
        <time>2020-08-05T10:35:48.359Z</time>
      </trkpt>
      <trkpt lat="38.843949" lon="-2.034692">
        <ele>812.596262</ele>
        <time>2020-08-05T10:35:51.359Z</time>
      </trkpt>
      <trkpt lat="38.843860" lon="-2.034792">
        <ele>812.687805</ele>
        <time>2020-08-05T10:35:54.359Z</time>
      </trkpt>
      <trkpt lat="38.843770" lon="-2.034886">
        <ele>812.777606</ele>
        <time>2020-08-05T10:35:57.369Z</time>
      </trkpt>
      <trkpt lat="38.843677" lon="-2.034976">
        <ele>812.867748</ele>
        <time>2020-08-05T10:36:00.364Z</time>
      </trkpt>
      <trkpt lat="38.843587" lon="-2.035070">
        <ele>812.957549</ele>
        <time>2020-08-05T10:36:03.361Z</time>
      </trkpt>
      <trkpt lat="38.843501" lon="-2.035151">
        <ele>813.040106</ele>
        <time>2020-08-05T10:36:06.365Z</time>
      </trkpt>
      <trkpt lat="38.843435" lon="-2.035235">
        <ele>813.112038</ele>
        <time>2020-08-05T10:36:09.366Z</time>
      </trkpt>
      <trkpt lat="38.843348" lon="-2.035315">
        <ele>813.194868</ele>
        <time>2020-08-05T10:36:12.359Z</time>
      </trkpt>
      <trkpt lat="38.843257" lon="-2.035417">
        <ele>813.288370</ele>
        <time>2020-08-05T10:36:15.376Z</time>
      </trkpt>
      <trkpt lat="38.843175" lon="-2.035515">
        <ele>813.320339</ele>
        <time>2020-08-05T10:36:18.367Z</time>
      </trkpt>
      <trkpt lat="38.843090" lon="-2.035612">
        <ele>813.195871</ele>
        <time>2020-08-05T10:36:21.364Z</time>
      </trkpt>
      <trkpt lat="38.843009" lon="-2.035705">
        <ele>813.076939</ele>
        <time>2020-08-05T10:36:24.362Z</time>
      </trkpt>
      <trkpt lat="38.842932" lon="-2.035807">
        <ele>812.955848</ele>
        <time>2020-08-05T10:36:27.366Z</time>
      </trkpt>
      <trkpt lat="38.842847" lon="-2.035909">
        <ele>812.828508</ele>
        <time>2020-08-05T10:36:30.369Z</time>
      </trkpt>
      <trkpt lat="38.842767" lon="-2.035998">
        <ele>812.712651</ele>
        <time>2020-08-05T10:36:33.382Z</time>
      </trkpt>
      <trkpt lat="38.842682" lon="-2.036093">
        <ele>812.589309</ele>
        <time>2020-08-05T10:36:36.361Z</time>
      </trkpt>
      <trkpt lat="38.842598" lon="-2.036186">
        <ele>812.467910</ele>
        <time>2020-08-05T10:36:39.364Z</time>
      </trkpt>
      <trkpt lat="38.842510" lon="-2.036276">
        <ele>812.344772</ele>
        <time>2020-08-05T10:36:42.361Z</time>
      </trkpt>
      <trkpt lat="38.842418" lon="-2.036372">
        <ele>812.215016</ele>
        <time>2020-08-05T10:36:45.384Z</time>
      </trkpt>
      <trkpt lat="38.842328" lon="-2.036471">
        <ele>812.085303</ele>
        <time>2020-08-05T10:36:48.363Z</time>
      </trkpt>
      <trkpt lat="38.842246" lon="-2.036563">
        <ele>811.966116</ele>
        <time>2020-08-05T10:36:51.363Z</time>
      </trkpt>
      <trkpt lat="38.842164" lon="-2.036648">
        <ele>811.850767</ele>
        <time>2020-08-05T10:36:54.363Z</time>
      </trkpt>
      <trkpt lat="38.842082" lon="-2.036735">
        <ele>811.734340</ele>
        <time>2020-08-05T10:36:57.358Z</time>
      </trkpt>
      <trkpt lat="38.842005" lon="-2.036818">
        <ele>811.624300</ele>
        <time>2020-08-05T10:37:00.366Z</time>
      </trkpt>
      <trkpt lat="38.841931" lon="-2.036907">
        <ele>811.513322</ele>
        <time>2020-08-05T10:37:03.379Z</time>
      </trkpt>
      <trkpt lat="38.841853" lon="-2.036993">
        <ele>811.400793</ele>
        <time>2020-08-05T10:37:06.373Z</time>
      </trkpt>
      <trkpt lat="38.841774" lon="-2.037079">
        <ele>811.474655</ele>
        <time>2020-08-05T10:37:09.368Z</time>
      </trkpt>
      <trkpt lat="38.841692" lon="-2.037167">
        <ele>811.584923</ele>
        <time>2020-08-05T10:37:12.359Z</time>
      </trkpt>
      <trkpt lat="38.841612" lon="-2.037256">
        <ele>811.694141</ele>
        <time>2020-08-05T10:37:15.386Z</time>
      </trkpt>
      <trkpt lat="38.841534" lon="-2.037342">
        <ele>811.800222</ele>
        <time>2020-08-05T10:37:18.364Z</time>
      </trkpt>
      <trkpt lat="38.841455" lon="-2.037426">
        <ele>811.906055</ele>
        <time>2020-08-05T10:37:21.369Z</time>
      </trkpt>
      <trkpt lat="38.841374" lon="-2.037512">
        <ele>812.014503</ele>
        <time>2020-08-05T10:37:24.376Z</time>
      </trkpt>
      <trkpt lat="38.841293" lon="-2.037597">
        <ele>812.122440</ele>
        <time>2020-08-05T10:37:27.367Z</time>
      </trkpt>
      <trkpt lat="38.841211" lon="-2.037685">
        <ele>812.232709</ele>
        <time>2020-08-05T10:37:30.369Z</time>
      </trkpt>
      <trkpt lat="38.841123" lon="-2.037770">
        <ele>812.346331</ele>
        <time>2020-08-05T10:37:33.370Z</time>
      </trkpt>
      <trkpt lat="38.841035" lon="-2.037857">
        <ele>812.460926</ele>
        <time>2020-08-05T10:37:36.376Z</time>
      </trkpt>
      <trkpt lat="38.840949" lon="-2.037944">
        <ele>812.573893</ele>
        <time>2020-08-05T10:37:39.379Z</time>
      </trkpt>
      <trkpt lat="38.840862" lon="-2.038040">
        <ele>812.692254</ele>
        <time>2020-08-05T10:37:42.371Z</time>
      </trkpt>
      <trkpt lat="38.840771" lon="-2.038140">
        <ele>812.815841</ele>
        <time>2020-08-05T10:37:45.368Z</time>
      </trkpt>
      <trkpt lat="38.840682" lon="-2.038233">
        <ele>812.934239</ele>
        <time>2020-08-05T10:37:48.369Z</time>
      </trkpt>
      <trkpt lat="38.840594" lon="-2.038337">
        <ele>813.057645</ele>
        <time>2020-08-05T10:37:51.368Z</time>
      </trkpt>
      <trkpt lat="38.840501" lon="-2.038436">
        <ele>813.182293</ele>
        <time>2020-08-05T10:37:54.362Z</time>
      </trkpt>
      <trkpt lat="38.840413" lon="-2.038537">
        <ele>813.676868</ele>
        <time>2020-08-05T10:37:57.374Z</time>
      </trkpt>
      <trkpt lat="38.840324" lon="-2.038644">
        <ele>814.529818</ele>
        <time>2020-08-05T10:38:00.384Z</time>
      </trkpt>
      <trkpt lat="38.840229" lon="-2.038757">
        <ele>815.435764</ele>
        <time>2020-08-05T10:38:03.371Z</time>
      </trkpt>
      <trkpt lat="38.840129" lon="-2.038866">
        <ele>816.353418</ele>
        <time>2020-08-05T10:38:06.371Z</time>
      </trkpt>
      <trkpt lat="38.840038" lon="-2.038983">
        <ele>817.254332</ele>
        <time>2020-08-05T10:38:09.374Z</time>
      </trkpt>
      <trkpt lat="38.839969" lon="-2.039061">
        <ele>817.897457</ele>
        <time>2020-08-05T10:38:11.372Z</time>
      </trkpt>
      <trkpt lat="38.839902" lon="-2.039149">
        <ele>818.567966</ele>
        <time>2020-08-05T10:38:13.372Z</time>
      </trkpt>
      <trkpt lat="38.839804" lon="-2.039263">
        <ele>819.493070</ele>
        <time>2020-08-05T10:38:16.376Z</time>
      </trkpt>
      <trkpt lat="38.839705" lon="-2.039373">
        <ele>820.408961</ele>
        <time>2020-08-05T10:38:19.384Z</time>
      </trkpt>
      <trkpt lat="38.839610" lon="-2.039474">
        <ele>821.271807</ele>
        <time>2020-08-05T10:38:22.385Z</time>
      </trkpt>
      <trkpt lat="38.839511" lon="-2.039589">
        <ele>822.205755</ele>
        <time>2020-08-05T10:38:25.377Z</time>
      </trkpt>
      <trkpt lat="38.839403" lon="-2.039701">
        <ele>823.176944</ele>
        <time>2020-08-05T10:38:28.380Z</time>
      </trkpt>
      <trkpt lat="38.839334" lon="-2.039778">
        <ele>823.816484</ele>
        <time>2020-08-05T10:38:30.362Z</time>
      </trkpt>
      <trkpt lat="38.839263" lon="-2.039854">
        <ele>824.463146</ele>
        <time>2020-08-05T10:38:32.373Z</time>
      </trkpt>
      <trkpt lat="38.839164" lon="-2.039963">
        <ele>825.375483</ele>
        <time>2020-08-05T10:38:35.381Z</time>
      </trkpt>
      <trkpt lat="38.839069" lon="-2.040076">
        <ele>825.759706</ele>
        <time>2020-08-05T10:38:38.370Z</time>
      </trkpt>
      <trkpt lat="38.838973" lon="-2.040181">
        <ele>825.640421</ele>
        <time>2020-08-05T10:38:41.389Z</time>
      </trkpt>
      <trkpt lat="38.838871" lon="-2.040287">
        <ele>825.516299</ele>
        <time>2020-08-05T10:38:44.381Z</time>
      </trkpt>
      <trkpt lat="38.838774" lon="-2.040402">
        <ele>825.391417</ele>
        <time>2020-08-05T10:38:47.371Z</time>
      </trkpt>
      <trkpt lat="38.838706" lon="-2.040478">
        <ele>825.306142</ele>
        <time>2020-08-05T10:38:49.373Z</time>
      </trkpt>
      <trkpt lat="38.838605" lon="-2.040588">
        <ele>825.180868</ele>
        <time>2020-08-05T10:38:52.384Z</time>
      </trkpt>
      <trkpt lat="38.838538" lon="-2.040667">
        <ele>825.094825</ele>
        <time>2020-08-05T10:38:54.368Z</time>
      </trkpt>
      <trkpt lat="38.838468" lon="-2.040749">
        <ele>825.005197</ele>
        <time>2020-08-05T10:38:56.374Z</time>
      </trkpt>
      <trkpt lat="38.838399" lon="-2.040826">
        <ele>824.918725</ele>
        <time>2020-08-05T10:38:58.365Z</time>
      </trkpt>
      <trkpt lat="38.838330" lon="-2.040905">
        <ele>824.831279</ele>
        <time>2020-08-05T10:39:00.382Z</time>
      </trkpt>
      <trkpt lat="38.838256" lon="-2.040984">
        <ele>824.740249</ele>
        <time>2020-08-05T10:39:02.375Z</time>
      </trkpt>
      <trkpt lat="38.838156" lon="-2.041098">
        <ele>824.613757</ele>
        <time>2020-08-05T10:39:05.360Z</time>
      </trkpt>
      <trkpt lat="38.838052" lon="-2.041196">
        <ele>824.491736</ele>
        <time>2020-08-05T10:39:08.363Z</time>
      </trkpt>
      <trkpt lat="38.837955" lon="-2.041299">
        <ele>824.372674</ele>
        <time>2020-08-05T10:39:11.369Z</time>
      </trkpt>
      <trkpt lat="38.837858" lon="-2.041408">
        <ele>824.250746</ele>
        <time>2020-08-05T10:39:14.385Z</time>
      </trkpt>
      <trkpt lat="38.837757" lon="-2.041530">
        <ele>824.121542</ele>
        <time>2020-08-05T10:39:17.391Z</time>
      </trkpt>
      <trkpt lat="38.837690" lon="-2.041611">
        <ele>824.200007</ele>
        <time>2020-08-05T10:39:19.361Z</time>
      </trkpt>
      <trkpt lat="38.837582" lon="-2.041722">
        <ele>824.317960</ele>
        <time>2020-08-05T10:39:22.376Z</time>
      </trkpt>
      <trkpt lat="38.837511" lon="-2.041802">
        <ele>824.398502</ele>
        <time>2020-08-05T10:39:24.368Z</time>
      </trkpt>
      <trkpt lat="38.837442" lon="-2.041881">
        <ele>824.477328</ele>
        <time>2020-08-05T10:39:26.364Z</time>
      </trkpt>
      <trkpt lat="38.837367" lon="-2.041955">
        <ele>824.557976</ele>
        <time>2020-08-05T10:39:28.377Z</time>
      </trkpt>
      <trkpt lat="38.837296" lon="-2.042027">
        <ele>824.635117</ele>
        <time>2020-08-05T10:39:30.364Z</time>
      </trkpt>
      <trkpt lat="38.837219" lon="-2.042101">
        <ele>824.717124</ele>
        <time>2020-08-05T10:39:32.362Z</time>
      </trkpt>
      <trkpt lat="38.837150" lon="-2.042177">
        <ele>824.794638</ele>
        <time>2020-08-05T10:39:34.380Z</time>
      </trkpt>
      <trkpt lat="38.837087" lon="-2.042259">
        <ele>824.871128</ele>
        <time>2020-08-05T10:39:36.355Z</time>
      </trkpt>
      <trkpt lat="38.837020" lon="-2.042336">
        <ele>824.947797</ele>
        <time>2020-08-05T10:39:38.358Z</time>
      </trkpt>
      <trkpt lat="38.836927" lon="-2.042450">
        <ele>825.057428</ele>
        <time>2020-08-05T10:39:41.370Z</time>
      </trkpt>
      <trkpt lat="38.836854" lon="-2.042525">
        <ele>825.137144</ele>
        <time>2020-08-05T10:39:43.383Z</time>
      </trkpt>
      <trkpt lat="38.836785" lon="-2.042606">
        <ele>825.216860</ele>
        <time>2020-08-05T10:39:45.374Z</time>
      </trkpt>
      <trkpt lat="38.836688" lon="-2.042722">
        <ele>825.329884</ele>
        <time>2020-08-05T10:39:48.368Z</time>
      </trkpt>
      <trkpt lat="38.836626" lon="-2.042808">
        <ele>825.407707</ele>
        <time>2020-08-05T10:39:50.385Z</time>
      </trkpt>
      <trkpt lat="38.836555" lon="-2.042883">
        <ele>825.486099</ele>
        <time>2020-08-05T10:39:52.364Z</time>
      </trkpt>
      <trkpt lat="38.836486" lon="-2.042966">
        <ele>825.566717</ele>
        <time>2020-08-05T10:39:54.368Z</time>
      </trkpt>
      <trkpt lat="38.836386" lon="-2.043076">
        <ele>825.626453</ele>
        <time>2020-08-05T10:39:57.390Z</time>
      </trkpt>
      <trkpt lat="38.836306" lon="-2.043156">
        <ele>825.530219</ele>
        <time>2020-08-05T10:39:59.352Z</time>
      </trkpt>
      <trkpt lat="38.836233" lon="-2.043227">
        <ele>825.443306</ele>
        <time>2020-08-05T10:40:01.375Z</time>
      </trkpt>
      <trkpt lat="38.836163" lon="-2.043314">
        <ele>825.350845</ele>
        <time>2020-08-05T10:40:03.388Z</time>
      </trkpt>
      <trkpt lat="38.836074" lon="-2.043389">
        <ele>825.249813</ele>
        <time>2020-08-05T10:40:05.367Z</time>
      </trkpt>
      <trkpt lat="38.835995" lon="-2.043473">
        <ele>825.152467</ele>
        <time>2020-08-05T10:40:07.364Z</time>
      </trkpt>
      <trkpt lat="38.835919" lon="-2.043553">
        <ele>825.059198</ele>
        <time>2020-08-05T10:40:09.380Z</time>
      </trkpt>
      <trkpt lat="38.835851" lon="-2.043632">
        <ele>824.972165</ele>
        <time>2020-08-05T10:40:11.367Z</time>
      </trkpt>
      <trkpt lat="38.835776" lon="-2.043709">
        <ele>824.881029</ele>
        <time>2020-08-05T10:40:13.362Z</time>
      </trkpt>
      <trkpt lat="38.835707" lon="-2.043786">
        <ele>824.794267</ele>
        <time>2020-08-05T10:40:15.360Z</time>
      </trkpt>
      <trkpt lat="38.835632" lon="-2.043872">
        <ele>824.698834</ele>
        <time>2020-08-05T10:40:17.363Z</time>
      </trkpt>
      <trkpt lat="38.835548" lon="-2.043946">
        <ele>824.602154</ele>
        <time>2020-08-05T10:40:19.411Z</time>
      </trkpt>
      <trkpt lat="38.835476" lon="-2.044019">
        <ele>824.515087</ele>
        <time>2020-08-05T10:40:21.369Z</time>
      </trkpt>
      <trkpt lat="38.835400" lon="-2.044100">
        <ele>824.421347</ele>
        <time>2020-08-05T10:40:23.365Z</time>
      </trkpt>
      <trkpt lat="38.835333" lon="-2.044179">
        <ele>824.335015</ele>
        <time>2020-08-05T10:40:25.386Z</time>
      </trkpt>
      <trkpt lat="38.835259" lon="-2.044250">
        <ele>824.247343</ele>
        <time>2020-08-05T10:40:27.372Z</time>
      </trkpt>
      <trkpt lat="38.835190" lon="-2.044337">
        <ele>824.155561</ele>
        <time>2020-08-05T10:40:29.379Z</time>
      </trkpt>
      <trkpt lat="38.835125" lon="-2.044417">
        <ele>824.070107</ele>
        <time>2020-08-05T10:40:31.368Z</time>
      </trkpt>
      <trkpt lat="38.835051" lon="-2.044496">
        <ele>823.978772</ele>
        <time>2020-08-05T10:40:33.360Z</time>
      </trkpt>
      <trkpt lat="38.834953" lon="-2.044616">
        <ele>824.080309</ele>
        <time>2020-08-05T10:40:36.367Z</time>
      </trkpt>
      <trkpt lat="38.834887" lon="-2.044698">
        <ele>824.199943</ele>
        <time>2020-08-05T10:40:38.374Z</time>
      </trkpt>
      <trkpt lat="38.834783" lon="-2.044811">
        <ele>824.377412</ele>
        <time>2020-08-05T10:40:41.377Z</time>
      </trkpt>
      <trkpt lat="38.834688" lon="-2.044920">
        <ele>824.543372</ele>
        <time>2020-08-05T10:40:44.372Z</time>
      </trkpt>
      <trkpt lat="38.834585" lon="-2.045037">
        <ele>824.722512</ele>
        <time>2020-08-05T10:40:47.378Z</time>
      </trkpt>
      <trkpt lat="38.834495" lon="-2.045148">
        <ele>824.885074</ele>
        <time>2020-08-05T10:40:50.380Z</time>
      </trkpt>
      <trkpt lat="38.834395" lon="-2.045242">
        <ele>825.046512</ele>
        <time>2020-08-05T10:40:53.385Z</time>
      </trkpt>
      <trkpt lat="38.834315" lon="-2.045329">
        <ele>825.183078</ele>
        <time>2020-08-05T10:40:56.383Z</time>
      </trkpt>
      <trkpt lat="38.834220" lon="-2.045431">
        <ele>825.344392</ele>
        <time>2020-08-05T10:40:59.392Z</time>
      </trkpt>
      <trkpt lat="38.834131" lon="-2.045532">
        <ele>825.499119</ele>
        <time>2020-08-05T10:41:02.385Z</time>
      </trkpt>
      <trkpt lat="38.834045" lon="-2.045638">
        <ele>825.654409</ele>
        <time>2020-08-05T10:41:05.396Z</time>
      </trkpt>
      <trkpt lat="38.833952" lon="-2.045741">
        <ele>825.814395</ele>
        <time>2020-08-05T10:41:08.371Z</time>
      </trkpt>
      <trkpt lat="38.833859" lon="-2.045852">
        <ele>825.979797</ele>
        <time>2020-08-05T10:41:11.367Z</time>
      </trkpt>
      <trkpt lat="38.833765" lon="-2.045955">
        <ele>826.140772</ele>
        <time>2020-08-05T10:41:14.385Z</time>
      </trkpt>
      <trkpt lat="38.833672" lon="-2.046062">
        <ele>826.301957</ele>
        <time>2020-08-05T10:41:17.387Z</time>
      </trkpt>
      <trkpt lat="38.833575" lon="-2.046173">
        <ele>826.452545</ele>
        <time>2020-08-05T10:41:20.363Z</time>
      </trkpt>
      <trkpt lat="38.833477" lon="-2.046279">
        <ele>826.601051</ele>
        <time>2020-08-05T10:41:23.372Z</time>
      </trkpt>
      <trkpt lat="38.833372" lon="-2.046388">
        <ele>826.757539</ele>
        <time>2020-08-05T10:41:26.366Z</time>
      </trkpt>
      <trkpt lat="38.833297" lon="-2.046464">
        <ele>826.868269</ele>
        <time>2020-08-05T10:41:28.368Z</time>
      </trkpt>
      <trkpt lat="38.833187" lon="-2.046575">
        <ele>827.030413</ele>
        <time>2020-08-05T10:41:31.377Z</time>
      </trkpt>
      <trkpt lat="38.833105" lon="-2.046656">
        <ele>827.150317</ele>
        <time>2020-08-05T10:41:33.377Z</time>
      </trkpt>
      <trkpt lat="38.833030" lon="-2.046740">
        <ele>827.265661</ele>
        <time>2020-08-05T10:41:35.383Z</time>
      </trkpt>
      <trkpt lat="38.832933" lon="-2.046867">
        <ele>827.426223</ele>
        <time>2020-08-05T10:41:38.378Z</time>
      </trkpt>
      <trkpt lat="38.832855" lon="-2.046943">
        <ele>827.539702</ele>
        <time>2020-08-05T10:41:40.379Z</time>
      </trkpt>
      <trkpt lat="38.832784" lon="-2.047025">
        <ele>827.650380</ele>
        <time>2020-08-05T10:41:42.385Z</time>
      </trkpt>
      <trkpt lat="38.832714" lon="-2.047103">
        <ele>827.757798</ele>
        <time>2020-08-05T10:41:44.372Z</time>
      </trkpt>
      <trkpt lat="38.832642" lon="-2.047182">
        <ele>827.867561</ele>
        <time>2020-08-05T10:41:46.386Z</time>
      </trkpt>
      <trkpt lat="38.832574" lon="-2.047259">
        <ele>827.972641</ele>
        <time>2020-08-05T10:41:48.369Z</time>
      </trkpt>
      <trkpt lat="38.832502" lon="-2.047339">
        <ele>828.082993</ele>
        <time>2020-08-05T10:41:50.373Z</time>
      </trkpt>
      <trkpt lat="38.832397" lon="-2.047447">
        <ele>828.238915</ele>
        <time>2020-08-05T10:41:53.387Z</time>
      </trkpt>
      <trkpt lat="38.832323" lon="-2.047523">
        <ele>828.348739</ele>
        <time>2020-08-05T10:41:55.383Z</time>
      </trkpt>
      <trkpt lat="38.832251" lon="-2.047604">
        <ele>828.472582</ele>
        <time>2020-08-05T10:41:57.383Z</time>
      </trkpt>
      <trkpt lat="38.832151" lon="-2.047724">
        <ele>828.655210</ele>
        <time>2020-08-05T10:42:00.389Z</time>
      </trkpt>
      <trkpt lat="38.832054" lon="-2.047823">
        <ele>828.820538</ele>
        <time>2020-08-05T10:42:03.384Z</time>
      </trkpt>
      <trkpt lat="38.831987" lon="-2.047905">
        <ele>828.944040</ele>
        <time>2020-08-05T10:42:05.375Z</time>
      </trkpt>
      <trkpt lat="38.831896" lon="-2.048016">
        <ele>829.111514</ele>
        <time>2020-08-05T10:42:08.361Z</time>
      </trkpt>
      <trkpt lat="38.831801" lon="-2.048115">
        <ele>829.274762</ele>
        <time>2020-08-05T10:42:11.372Z</time>
      </trkpt>
      <trkpt lat="38.831706" lon="-2.048229">
        <ele>829.448258</ele>
        <time>2020-08-05T10:42:14.374Z</time>
      </trkpt>
      <trkpt lat="38.831607" lon="-2.048336">
        <ele>829.620918</ele>
        <time>2020-08-05T10:42:17.359Z</time>
      </trkpt>
      <trkpt lat="38.831506" lon="-2.048443">
        <ele>829.795627</ele>
        <time>2020-08-05T10:42:20.380Z</time>
      </trkpt>
      <trkpt lat="38.831403" lon="-2.048559">
        <ele>829.978431</ele>
        <time>2020-08-05T10:42:23.383Z</time>
      </trkpt>
      <trkpt lat="38.831327" lon="-2.048631">
        <ele>830.104448</ele>
        <time>2020-08-05T10:42:25.376Z</time>
      </trkpt>
      <trkpt lat="38.831259" lon="-2.048708">
        <ele>830.225420</ele>
        <time>2020-08-05T10:42:27.364Z</time>
      </trkpt>
      <trkpt lat="38.831159" lon="-2.048820">
        <ele>830.402475</ele>
        <time>2020-08-05T10:42:30.375Z</time>
      </trkpt>
      <trkpt lat="38.831058" lon="-2.048919">
        <ele>830.572014</ele>
        <time>2020-08-05T10:42:33.366Z</time>
      </trkpt>
      <trkpt lat="38.830971" lon="-2.049025">
        <ele>830.732041</ele>
        <time>2020-08-05T10:42:36.373Z</time>
      </trkpt>
      <trkpt lat="38.830883" lon="-2.049129">
        <ele>831.023849</ele>
        <time>2020-08-05T10:42:39.376Z</time>
      </trkpt>
      <trkpt lat="38.830786" lon="-2.049227">
        <ele>831.373730</ele>
        <time>2020-08-05T10:42:42.373Z</time>
      </trkpt>
      <trkpt lat="38.830694" lon="-2.049329">
        <ele>831.718294</ele>
        <time>2020-08-05T10:42:45.365Z</time>
      </trkpt>
      <trkpt lat="38.830596" lon="-2.049432">
        <ele>832.077296</ele>
        <time>2020-08-05T10:42:48.371Z</time>
      </trkpt>
      <trkpt lat="38.830508" lon="-2.049533">
        <ele>832.411886</ele>
        <time>2020-08-05T10:42:51.392Z</time>
      </trkpt>
      <trkpt lat="38.830417" lon="-2.049638">
        <ele>832.758704</ele>
        <time>2020-08-05T10:42:54.391Z</time>
      </trkpt>
      <trkpt lat="38.830328" lon="-2.049741">
        <ele>833.098354</ele>
        <time>2020-08-05T10:42:57.391Z</time>
      </trkpt>
      <trkpt lat="38.830239" lon="-2.049844">
        <ele>833.438004</ele>
        <time>2020-08-05T10:43:00.374Z</time>
      </trkpt>
      <trkpt lat="38.830149" lon="-2.049952">
        <ele>833.787208</ele>
        <time>2020-08-05T10:43:03.398Z</time>
      </trkpt>
      <trkpt lat="38.830060" lon="-2.050064">
        <ele>834.140474</ele>
        <time>2020-08-05T10:43:06.375Z</time>
      </trkpt>
      <trkpt lat="38.829966" lon="-2.050175">
        <ele>834.502497</ele>
        <time>2020-08-05T10:43:09.376Z</time>
      </trkpt>
      <trkpt lat="38.829894" lon="-2.050247">
        <ele>834.761192</ele>
        <time>2020-08-05T10:43:11.372Z</time>
      </trkpt>
      <trkpt lat="38.829816" lon="-2.050324">
        <ele>835.040095</ele>
        <time>2020-08-05T10:43:13.377Z</time>
      </trkpt>
      <trkpt lat="38.829723" lon="-2.050423">
        <ele>835.382545</ele>
        <time>2020-08-05T10:43:16.392Z</time>
      </trkpt>
      <trkpt lat="38.829628" lon="-2.050529">
        <ele>835.739322</ele>
        <time>2020-08-05T10:43:19.353Z</time>
      </trkpt>
      <trkpt lat="38.829535" lon="-2.050634">
        <ele>835.998970</ele>
        <time>2020-08-05T10:43:22.366Z</time>
      </trkpt>
      <trkpt lat="38.829444" lon="-2.050729">
        <ele>836.192146</ele>
        <time>2020-08-05T10:43:25.371Z</time>
      </trkpt>
      <trkpt lat="38.829353" lon="-2.050822">
        <ele>836.383714</ele>
        <time>2020-08-05T10:43:28.377Z</time>
      </trkpt>
      <trkpt lat="38.829268" lon="-2.050927">
        <ele>836.577995</ele>
        <time>2020-08-05T10:43:31.388Z</time>
      </trkpt>
      <trkpt lat="38.829195" lon="-2.050998">
        <ele>836.728833</ele>
        <time>2020-08-05T10:43:33.374Z</time>
      </trkpt>
      <trkpt lat="38.829108" lon="-2.051104">
        <ele>836.926381</ele>
        <time>2020-08-05T10:43:36.377Z</time>
      </trkpt>
      <trkpt lat="38.829041" lon="-2.051183">
        <ele>837.076212</ele>
        <time>2020-08-05T10:43:38.357Z</time>
      </trkpt>
      <trkpt lat="38.828948" lon="-2.051305">
        <ele>837.295209</ele>
        <time>2020-08-05T10:43:41.366Z</time>
      </trkpt>
      <trkpt lat="38.828887" lon="-2.051395">
        <ele>837.448265</ele>
        <time>2020-08-05T10:43:43.370Z</time>
      </trkpt>
      <trkpt lat="38.828824" lon="-2.051495">
        <ele>837.613269</ele>
        <time>2020-08-05T10:43:45.358Z</time>
      </trkpt>
      <trkpt lat="38.828758" lon="-2.051581">
        <ele>837.768155</ele>
        <time>2020-08-05T10:43:47.371Z</time>
      </trkpt>
      <trkpt lat="38.828695" lon="-2.051677">
        <ele>837.929202</ele>
        <time>2020-08-05T10:43:49.382Z</time>
      </trkpt>
      <trkpt lat="38.828633" lon="-2.051767">
        <ele>838.083344</ele>
        <time>2020-08-05T10:43:51.371Z</time>
      </trkpt>
      <trkpt lat="38.828576" lon="-2.051866">
        <ele>838.241287</ele>
        <time>2020-08-05T10:43:53.361Z</time>
      </trkpt>
      <trkpt lat="38.828520" lon="-2.051964">
        <ele>838.397221</ele>
        <time>2020-08-05T10:43:55.357Z</time>
      </trkpt>
      <trkpt lat="38.828437" lon="-2.052103">
        <ele>838.621921</ele>
        <time>2020-08-05T10:43:58.361Z</time>
      </trkpt>
      <trkpt lat="38.828385" lon="-2.052203">
        <ele>838.776178</ele>
        <time>2020-08-05T10:44:00.363Z</time>
      </trkpt>
      <trkpt lat="38.828329" lon="-2.052301">
        <ele>839.192708</ele>
        <time>2020-08-05T10:44:02.366Z</time>
      </trkpt>
      <trkpt lat="38.828263" lon="-2.052441">
        <ele>839.962868</ele>
        <time>2020-08-05T10:44:05.366Z</time>
      </trkpt>
      <trkpt lat="38.828200" lon="-2.052581">
        <ele>840.723804</ele>
        <time>2020-08-05T10:44:08.370Z</time>
      </trkpt>
      <trkpt lat="38.828139" lon="-2.052731">
        <ele>841.520177</ele>
        <time>2020-08-05T10:44:11.366Z</time>
      </trkpt>
      <trkpt lat="38.828077" lon="-2.052869">
        <ele>842.269942</ele>
        <time>2020-08-05T10:44:14.359Z</time>
      </trkpt>
      <trkpt lat="38.828017" lon="-2.053001">
        <ele>842.989217</ele>
        <time>2020-08-05T10:44:17.365Z</time>
      </trkpt>
      <trkpt lat="38.827960" lon="-2.053138">
        <ele>843.720202</ele>
        <time>2020-08-05T10:44:20.362Z</time>
      </trkpt>
      <trkpt lat="38.827903" lon="-2.053280">
        <ele>844.472027</ele>
        <time>2020-08-05T10:44:23.378Z</time>
      </trkpt>
      <trkpt lat="38.827845" lon="-2.053420">
        <ele>845.218315</ele>
        <time>2020-08-05T10:44:26.354Z</time>
      </trkpt>
      <trkpt lat="38.827786" lon="-2.053557">
        <ele>845.955071</ele>
        <time>2020-08-05T10:44:29.362Z</time>
      </trkpt>
      <trkpt lat="38.827730" lon="-2.053697">
        <ele>846.695763</ele>
        <time>2020-08-05T10:44:32.374Z</time>
      </trkpt>
      <trkpt lat="38.827672" lon="-2.053843">
        <ele>847.467099</ele>
        <time>2020-08-05T10:44:35.362Z</time>
      </trkpt>
      <trkpt lat="38.827610" lon="-2.053986">
        <ele>848.237342</ele>
        <time>2020-08-05T10:44:38.373Z</time>
      </trkpt>
      <trkpt lat="38.827551" lon="-2.054129">
        <ele>848.998937</ele>
        <time>2020-08-05T10:44:41.375Z</time>
      </trkpt>
      <trkpt lat="38.827488" lon="-2.054274">
        <ele>849.739583</ele>
        <time>2020-08-05T10:44:44.390Z</time>
      </trkpt>
      <trkpt lat="38.827429" lon="-2.054420">
        <ele>850.116585</ele>
        <time>2020-08-05T10:44:47.388Z</time>
      </trkpt>
      <trkpt lat="38.827368" lon="-2.054566">
        <ele>850.496333</ele>
        <time>2020-08-05T10:44:50.388Z</time>
      </trkpt>
      <trkpt lat="38.827302" lon="-2.054710">
        <ele>850.879294</ele>
        <time>2020-08-05T10:44:53.382Z</time>
      </trkpt>
      <trkpt lat="38.827239" lon="-2.054853">
        <ele>851.255859</ele>
        <time>2020-08-05T10:44:56.387Z</time>
      </trkpt>
      <trkpt lat="38.827179" lon="-2.054992">
        <ele>851.620111</ele>
        <time>2020-08-05T10:44:59.369Z</time>
      </trkpt>
      <trkpt lat="38.827127" lon="-2.055146">
        <ele>852.004839</ele>
        <time>2020-08-05T10:45:02.359Z</time>
      </trkpt>
      <trkpt lat="38.827065" lon="-2.055294">
        <ele>852.390019</ele>
        <time>2020-08-05T10:45:05.393Z</time>
      </trkpt>
      <trkpt lat="38.826999" lon="-2.055442">
        <ele>852.780911</ele>
        <time>2020-08-05T10:45:08.393Z</time>
      </trkpt>
      <trkpt lat="38.826954" lon="-2.055548">
        <ele>853.057617</ele>
        <time>2020-08-05T10:45:10.367Z</time>
      </trkpt>
      <trkpt lat="38.826894" lon="-2.055704">
        <ele>853.456403</ele>
        <time>2020-08-05T10:45:13.404Z</time>
      </trkpt>
      <trkpt lat="38.826856" lon="-2.055808">
        <ele>853.719708</ele>
        <time>2020-08-05T10:45:15.386Z</time>
      </trkpt>
      <trkpt lat="38.826811" lon="-2.055913">
        <ele>853.994404</ele>
        <time>2020-08-05T10:45:17.386Z</time>
      </trkpt>
      <trkpt lat="38.826765" lon="-2.056023">
        <ele>854.280574</ele>
        <time>2020-08-05T10:45:19.381Z</time>
      </trkpt>
      <trkpt lat="38.826715" lon="-2.056128">
        <ele>854.562656</ele>
        <time>2020-08-05T10:45:21.367Z</time>
      </trkpt>
      <trkpt lat="38.826673" lon="-2.056239">
        <ele>854.845512</ele>
        <time>2020-08-05T10:45:23.375Z</time>
      </trkpt>
      <trkpt lat="38.826625" lon="-2.056343">
        <ele>855.071815</ele>
        <time>2020-08-05T10:45:25.405Z</time>
      </trkpt>
      <trkpt lat="38.826578" lon="-2.056442">
        <ele>855.233390</ele>
        <time>2020-08-05T10:45:27.361Z</time>
      </trkpt>
      <trkpt lat="38.826535" lon="-2.056547">
        <ele>855.398714</ele>
        <time>2020-08-05T10:45:29.368Z</time>
      </trkpt>
      <trkpt lat="38.826484" lon="-2.056652">
        <ele>855.571163</ele>
        <time>2020-08-05T10:45:31.366Z</time>
      </trkpt>
      <trkpt lat="38.826446" lon="-2.056762">
        <ele>855.738865</ele>
        <time>2020-08-05T10:45:33.379Z</time>
      </trkpt>
      <trkpt lat="38.826400" lon="-2.056867">
        <ele>855.906753</ele>
        <time>2020-08-05T10:45:35.355Z</time>
      </trkpt>
      <trkpt lat="38.826360" lon="-2.056971">
        <ele>856.068398</ele>
        <time>2020-08-05T10:45:37.362Z</time>
      </trkpt>
      <trkpt lat="38.826310" lon="-2.057077">
        <ele>856.241098</ele>
        <time>2020-08-05T10:45:39.363Z</time>
      </trkpt>
      <trkpt lat="38.826266" lon="-2.057182">
        <ele>856.407262</ele>
        <time>2020-08-05T10:45:41.357Z</time>
      </trkpt>
      <trkpt lat="38.826221" lon="-2.057289">
        <ele>856.576729</ele>
        <time>2020-08-05T10:45:43.355Z</time>
      </trkpt>
      <trkpt lat="38.826176" lon="-2.057395">
        <ele>856.744971</ele>
        <time>2020-08-05T10:45:45.366Z</time>
      </trkpt>
      <trkpt lat="38.826115" lon="-2.057544">
        <ele>856.979558</ele>
        <time>2020-08-05T10:45:48.356Z</time>
      </trkpt>
      <trkpt lat="38.826075" lon="-2.057648">
        <ele>857.141204</ele>
        <time>2020-08-05T10:45:50.375Z</time>
      </trkpt>
      <trkpt lat="38.826014" lon="-2.057799">
        <ele>857.378262</ele>
        <time>2020-08-05T10:45:53.358Z</time>
      </trkpt>
      <trkpt lat="38.825971" lon="-2.057900">
        <ele>857.538673</ele>
        <time>2020-08-05T10:45:55.361Z</time>
      </trkpt>
      <trkpt lat="38.825909" lon="-2.058042">
        <ele>857.765540</ele>
        <time>2020-08-05T10:45:58.360Z</time>
      </trkpt>
      <trkpt lat="38.825851" lon="-2.058193">
        <ele>858.000177</ele>
        <time>2020-08-05T10:46:01.365Z</time>
      </trkpt>
      <trkpt lat="38.825782" lon="-2.058342">
        <ele>858.182305</ele>
        <time>2020-08-05T10:46:04.369Z</time>
      </trkpt>
      <trkpt lat="38.825741" lon="-2.058449">
        <ele>858.029881</ele>
        <time>2020-08-05T10:46:06.371Z</time>
      </trkpt>
      <trkpt lat="38.825695" lon="-2.058550">
        <ele>857.880332</ele>
        <time>2020-08-05T10:46:08.363Z</time>
      </trkpt>
      <trkpt lat="38.825654" lon="-2.058652">
        <ele>857.733616</ele>
        <time>2020-08-05T10:46:10.370Z</time>
      </trkpt>
      <trkpt lat="38.825612" lon="-2.058769">
        <ele>857.568945</ele>
        <time>2020-08-05T10:46:12.378Z</time>
      </trkpt>
      <trkpt lat="38.825546" lon="-2.058918">
        <ele>857.349848</ele>
        <time>2020-08-05T10:46:15.364Z</time>
      </trkpt>
      <trkpt lat="38.825499" lon="-2.059022">
        <ele>857.196158</ele>
        <time>2020-08-05T10:46:17.368Z</time>
      </trkpt>
      <trkpt lat="38.825452" lon="-2.059128">
        <ele>857.040252</ele>
        <time>2020-08-05T10:46:19.362Z</time>
      </trkpt>
      <trkpt lat="38.825411" lon="-2.059234">
        <ele>856.888974</ele>
        <time>2020-08-05T10:46:21.368Z</time>
      </trkpt>
      <trkpt lat="38.825350" lon="-2.059390">
        <ele>856.665854</ele>
        <time>2020-08-05T10:46:24.365Z</time>
      </trkpt>
      <trkpt lat="38.825290" lon="-2.059533">
        <ele>856.458235</ele>
        <time>2020-08-05T10:46:27.359Z</time>
      </trkpt>
      <trkpt lat="38.825246" lon="-2.059635">
        <ele>856.309197</ele>
        <time>2020-08-05T10:46:29.371Z</time>
      </trkpt>
      <trkpt lat="38.825186" lon="-2.059790">
        <ele>856.087952</ele>
        <time>2020-08-05T10:46:32.365Z</time>
      </trkpt>
      <trkpt lat="38.825121" lon="-2.059940">
        <ele>855.868545</ele>
        <time>2020-08-05T10:46:35.363Z</time>
      </trkpt>
      <trkpt lat="38.825083" lon="-2.060046">
        <ele>855.719389</ele>
        <time>2020-08-05T10:46:37.370Z</time>
      </trkpt>
      <trkpt lat="38.825022" lon="-2.060192">
        <ele>855.507615</ele>
        <time>2020-08-05T10:46:40.363Z</time>
      </trkpt>
      <trkpt lat="38.824982" lon="-2.060300">
        <ele>855.354753</ele>
        <time>2020-08-05T10:46:42.368Z</time>
      </trkpt>
      <trkpt lat="38.824934" lon="-2.060399">
        <ele>855.212284</ele>
        <time>2020-08-05T10:46:44.356Z</time>
      </trkpt>
      <trkpt lat="38.824867" lon="-2.060549">
        <ele>855.018301</ele>
        <time>2020-08-05T10:46:47.365Z</time>
      </trkpt>
      <trkpt lat="38.824819" lon="-2.060661">
        <ele>854.874890</ele>
        <time>2020-08-05T10:46:49.360Z</time>
      </trkpt>
      <trkpt lat="38.824774" lon="-2.060765">
        <ele>854.741424</ele>
        <time>2020-08-05T10:46:51.367Z</time>
      </trkpt>
      <trkpt lat="38.824733" lon="-2.060870">
        <ele>854.609655</ele>
        <time>2020-08-05T10:46:53.361Z</time>
      </trkpt>
      <trkpt lat="38.824696" lon="-2.060989">
        <ele>854.465909</ele>
        <time>2020-08-05T10:46:55.363Z</time>
      </trkpt>
      <trkpt lat="38.824654" lon="-2.061096">
        <ele>854.331489</ele>
        <time>2020-08-05T10:46:57.372Z</time>
      </trkpt>
      <trkpt lat="38.824581" lon="-2.061239">
        <ele>854.139682</ele>
        <time>2020-08-05T10:47:00.362Z</time>
      </trkpt>
      <trkpt lat="38.824529" lon="-2.061405">
        <ele>853.938954</ele>
        <time>2020-08-05T10:47:03.370Z</time>
      </trkpt>
      <trkpt lat="38.824477" lon="-2.061509">
        <ele>853.800313</ele>
        <time>2020-08-05T10:47:05.370Z</time>
      </trkpt>
      <trkpt lat="38.824435" lon="-2.061619">
        <ele>853.662878</ele>
        <time>2020-08-05T10:47:07.355Z</time>
      </trkpt>
      <trkpt lat="38.824391" lon="-2.061729">
        <ele>853.524152</ele>
        <time>2020-08-05T10:47:09.364Z</time>
      </trkpt>
      <trkpt lat="38.824346" lon="-2.061838">
        <ele>853.385755</ele>
        <time>2020-08-05T10:47:11.365Z</time>
      </trkpt>
      <trkpt lat="38.824299" lon="-2.061942">
        <ele>853.250866</ele>
        <time>2020-08-05T10:47:13.379Z</time>
      </trkpt>
      <trkpt lat="38.824258" lon="-2.062055">
        <ele>853.111015</ele>
        <time>2020-08-05T10:47:15.357Z</time>
      </trkpt>
      <trkpt lat="38.824218" lon="-2.062162">
        <ele>852.977865</ele>
        <time>2020-08-05T10:47:17.385Z</time>
      </trkpt>
      <trkpt lat="38.824168" lon="-2.062278">
        <ele>852.829133</ele>
        <time>2020-08-05T10:47:19.391Z</time>
      </trkpt>
      <trkpt lat="38.824117" lon="-2.062384">
        <ele>852.689359</ele>
        <time>2020-08-05T10:47:21.370Z</time>
      </trkpt>
      <trkpt lat="38.824073" lon="-2.062487">
        <ele>852.608998</ele>
        <time>2020-08-05T10:47:23.370Z</time>
      </trkpt>
      <trkpt lat="38.824022" lon="-2.062594">
        <ele>852.532998</ele>
        <time>2020-08-05T10:47:25.370Z</time>
      </trkpt>
      <trkpt lat="38.823970" lon="-2.062698">
        <ele>852.458126</ele>
        <time>2020-08-05T10:47:27.379Z</time>
      </trkpt>
      <trkpt lat="38.823927" lon="-2.062803">
        <ele>852.386255</ele>
        <time>2020-08-05T10:47:29.379Z</time>
      </trkpt>
      <trkpt lat="38.823881" lon="-2.062911">
        <ele>852.311680</ele>
        <time>2020-08-05T10:47:31.356Z</time>
      </trkpt>
      <trkpt lat="38.823833" lon="-2.063013">
        <ele>852.239481</ele>
        <time>2020-08-05T10:47:33.371Z</time>
      </trkpt>
      <trkpt lat="38.823782" lon="-2.063174">
        <ele>852.134180</ele>
        <time>2020-08-05T10:47:36.371Z</time>
      </trkpt>
      <trkpt lat="38.823733" lon="-2.063274">
        <ele>852.062604</ele>
        <time>2020-08-05T10:47:38.376Z</time>
      </trkpt>
      <trkpt lat="38.823672" lon="-2.063408">
        <ele>851.968572</ele>
        <time>2020-08-05T10:47:41.371Z</time>
      </trkpt>
      <trkpt lat="38.823625" lon="-2.063512">
        <ele>851.895727</ele>
        <time>2020-08-05T10:47:43.372Z</time>
      </trkpt>
      <trkpt lat="38.823569" lon="-2.063663">
        <ele>851.794402</ele>
        <time>2020-08-05T10:47:46.384Z</time>
      </trkpt>
      <trkpt lat="38.823506" lon="-2.063802">
        <ele>851.696970</ele>
        <time>2020-08-05T10:47:49.389Z</time>
      </trkpt>
      <trkpt lat="38.823439" lon="-2.063948">
        <ele>851.594306</ele>
        <time>2020-08-05T10:47:52.375Z</time>
      </trkpt>
      <trkpt lat="38.823381" lon="-2.064089">
        <ele>851.497699</ele>
        <time>2020-08-05T10:47:55.392Z</time>
      </trkpt>
      <trkpt lat="38.823337" lon="-2.064190">
        <ele>851.427588</ele>
        <time>2020-08-05T10:47:57.365Z</time>
      </trkpt>
      <trkpt lat="38.823294" lon="-2.064291">
        <ele>851.357852</ele>
        <time>2020-08-05T10:47:59.374Z</time>
      </trkpt>
      <trkpt lat="38.823235" lon="-2.064447">
        <ele>851.312463</ele>
        <time>2020-08-05T10:48:02.372Z</time>
      </trkpt>
      <trkpt lat="38.823188" lon="-2.064558">
        <ele>851.492445</ele>
        <time>2020-08-05T10:48:04.380Z</time>
      </trkpt>
      <trkpt lat="38.823142" lon="-2.064668">
        <ele>851.670304</ele>
        <time>2020-08-05T10:48:06.374Z</time>
      </trkpt>
      <trkpt lat="38.823099" lon="-2.064771">
        <ele>851.836782</ele>
        <time>2020-08-05T10:48:08.391Z</time>
      </trkpt>
      <trkpt lat="38.823048" lon="-2.064877">
        <ele>852.014270</ele>
        <time>2020-08-05T10:48:10.388Z</time>
      </trkpt>
      <trkpt lat="38.823006" lon="-2.064982">
        <ele>852.182422</ele>
        <time>2020-08-05T10:48:12.377Z</time>
      </trkpt>
      <trkpt lat="38.822954" lon="-2.065135">
        <ele>852.420231</ele>
        <time>2020-08-05T10:48:15.369Z</time>
      </trkpt>
      <trkpt lat="38.822907" lon="-2.065262">
        <ele>852.620536</ele>
        <time>2020-08-05T10:48:17.365Z</time>
      </trkpt>
      <trkpt lat="38.822859" lon="-2.065370">
        <ele>852.797674</ele>
        <time>2020-08-05T10:48:19.366Z</time>
      </trkpt>
      <trkpt lat="38.822816" lon="-2.065479">
        <ele>852.971734</ele>
        <time>2020-08-05T10:48:21.360Z</time>
      </trkpt>
      <trkpt lat="38.822760" lon="-2.065637">
        <ele>853.219027</ele>
        <time>2020-08-05T10:48:24.365Z</time>
      </trkpt>
      <trkpt lat="38.822718" lon="-2.065740">
        <ele>853.384650</ele>
        <time>2020-08-05T10:48:26.388Z</time>
      </trkpt>
      <trkpt lat="38.822673" lon="-2.065851">
        <ele>853.562915</ele>
        <time>2020-08-05T10:48:28.358Z</time>
      </trkpt>
      <trkpt lat="38.822623" lon="-2.065962">
        <ele>853.745580</ele>
        <time>2020-08-05T10:48:30.389Z</time>
      </trkpt>
      <trkpt lat="38.822578" lon="-2.066080">
        <ele>853.932749</ele>
        <time>2020-08-05T10:48:32.357Z</time>
      </trkpt>
      <trkpt lat="38.822532" lon="-2.066195">
        <ele>854.116916</ele>
        <time>2020-08-05T10:48:34.366Z</time>
      </trkpt>
      <trkpt lat="38.822484" lon="-2.066307">
        <ele>854.299026</ele>
        <time>2020-08-05T10:48:36.373Z</time>
      </trkpt>
      <trkpt lat="38.822424" lon="-2.066426">
        <ele>854.500966</ele>
        <time>2020-08-05T10:48:38.378Z</time>
      </trkpt>
      <trkpt lat="38.822374" lon="-2.066554">
        <ele>854.586962</ele>
        <time>2020-08-05T10:48:40.363Z</time>
      </trkpt>
      <trkpt lat="38.822329" lon="-2.066676">
        <ele>854.623144</ele>
        <time>2020-08-05T10:48:42.365Z</time>
      </trkpt>
      <trkpt lat="38.822276" lon="-2.066794">
        <ele>854.659654</ele>
        <time>2020-08-05T10:48:44.366Z</time>
      </trkpt>
      <trkpt lat="38.822225" lon="-2.066917">
        <ele>854.697002</ele>
        <time>2020-08-05T10:48:46.377Z</time>
      </trkpt>
      <trkpt lat="38.822177" lon="-2.067046">
        <ele>854.735322</ele>
        <time>2020-08-05T10:48:48.359Z</time>
      </trkpt>
      <trkpt lat="38.822117" lon="-2.067157">
        <ele>854.771536</ele>
        <time>2020-08-05T10:48:50.377Z</time>
      </trkpt>
      <trkpt lat="38.822067" lon="-2.067271">
        <ele>854.806603</ele>
        <time>2020-08-05T10:48:52.369Z</time>
      </trkpt>
      <trkpt lat="38.822016" lon="-2.067382">
        <ele>854.841145</ele>
        <time>2020-08-05T10:48:54.365Z</time>
      </trkpt>
      <trkpt lat="38.821965" lon="-2.067494">
        <ele>854.875919</ele>
        <time>2020-08-05T10:48:56.382Z</time>
      </trkpt>
      <trkpt lat="38.821923" lon="-2.067609">
        <ele>854.909964</ele>
        <time>2020-08-05T10:48:58.385Z</time>
      </trkpt>
      <trkpt lat="38.821877" lon="-2.067733">
        <ele>854.946778</ele>
        <time>2020-08-05T10:49:00.384Z</time>
      </trkpt>
      <trkpt lat="38.821829" lon="-2.067837">
        <ele>854.979180</ele>
        <time>2020-08-05T10:49:02.373Z</time>
      </trkpt>
      <trkpt lat="38.821789" lon="-2.067962">
        <ele>855.015402</ele>
        <time>2020-08-05T10:49:04.366Z</time>
      </trkpt>
      <trkpt lat="38.821749" lon="-2.068073">
        <ele>855.048185</ele>
        <time>2020-08-05T10:49:06.378Z</time>
      </trkpt>
      <trkpt lat="38.821700" lon="-2.068197">
        <ele>855.085454</ele>
        <time>2020-08-05T10:49:08.378Z</time>
      </trkpt>
      <trkpt lat="38.821655" lon="-2.068301">
        <ele>855.117343</ele>
        <time>2020-08-05T10:49:10.374Z</time>
      </trkpt>
      <trkpt lat="38.821600" lon="-2.068415">
        <ele>855.153285</ele>
        <time>2020-08-05T10:49:12.387Z</time>
      </trkpt>
      <trkpt lat="38.821555" lon="-2.068515">
        <ele>855.200750</ele>
        <time>2020-08-05T10:49:14.390Z</time>
      </trkpt>
      <trkpt lat="38.821514" lon="-2.068626">
        <ele>855.327493</ele>
        <time>2020-08-05T10:49:16.372Z</time>
      </trkpt>
      <trkpt lat="38.821461" lon="-2.068742">
        <ele>855.466238</ele>
        <time>2020-08-05T10:49:18.389Z</time>
      </trkpt>
      <trkpt lat="38.821411" lon="-2.068844">
        <ele>855.590574</ele>
        <time>2020-08-05T10:49:20.390Z</time>
      </trkpt>
      <trkpt lat="38.821369" lon="-2.068957">
        <ele>855.719750</ele>
        <time>2020-08-05T10:49:22.388Z</time>
      </trkpt>
      <trkpt lat="38.821320" lon="-2.069076">
        <ele>855.858622</ele>
        <time>2020-08-05T10:49:24.387Z</time>
      </trkpt>
      <trkpt lat="38.821253" lon="-2.069228">
        <ele>856.038808</ele>
        <time>2020-08-05T10:49:27.375Z</time>
      </trkpt>
      <trkpt lat="38.821208" lon="-2.069342">
        <ele>856.170663</ele>
        <time>2020-08-05T10:49:29.358Z</time>
      </trkpt>
      <trkpt lat="38.821167" lon="-2.069453">
        <ele>856.297407</ele>
        <time>2020-08-05T10:49:31.381Z</time>
      </trkpt>
      <trkpt lat="38.821118" lon="-2.069579">
        <ele>856.442703</ele>
        <time>2020-08-05T10:49:33.363Z</time>
      </trkpt>
      <trkpt lat="38.821070" lon="-2.069692">
        <ele>856.575494</ele>
        <time>2020-08-05T10:49:35.382Z</time>
      </trkpt>
      <trkpt lat="38.821030" lon="-2.069801">
        <ele>856.699806</ele>
        <time>2020-08-05T10:49:37.369Z</time>
      </trkpt>
      <trkpt lat="38.820991" lon="-2.069912">
        <ele>856.825439</ele>
        <time>2020-08-05T10:49:39.364Z</time>
      </trkpt>
      <trkpt lat="38.820950" lon="-2.070017">
        <ele>856.946618</ele>
        <time>2020-08-05T10:49:41.369Z</time>
      </trkpt>
      <trkpt lat="38.820904" lon="-2.070130">
        <ele>857.078162</ele>
        <time>2020-08-05T10:49:43.380Z</time>
      </trkpt>
      <trkpt lat="38.820859" lon="-2.070231">
        <ele>857.198206</ele>
        <time>2020-08-05T10:49:45.372Z</time>
      </trkpt>
      <trkpt lat="38.820817" lon="-2.070338">
        <ele>857.321824</ele>
        <time>2020-08-05T10:49:47.394Z</time>
      </trkpt>
      <trkpt lat="38.820763" lon="-2.070479">
        <ele>857.483928</ele>
        <time>2020-08-05T10:49:50.364Z</time>
      </trkpt>
      <trkpt lat="38.820717" lon="-2.070581">
        <ele>857.669138</ele>
        <time>2020-08-05T10:49:52.361Z</time>
      </trkpt>
      <trkpt lat="38.820672" lon="-2.070694">
        <ele>857.984464</ele>
        <time>2020-08-05T10:49:54.361Z</time>
      </trkpt>
      <trkpt lat="38.820627" lon="-2.070807">
        <ele>858.299789</ele>
        <time>2020-08-05T10:49:56.372Z</time>
      </trkpt>
      <trkpt lat="38.820581" lon="-2.070917">
        <ele>858.609992</ele>
        <time>2020-08-05T10:49:58.392Z</time>
      </trkpt>
      <trkpt lat="38.820537" lon="-2.071028">
        <ele>858.919442</ele>
        <time>2020-08-05T10:50:00.370Z</time>
      </trkpt>
      <trkpt lat="38.820491" lon="-2.071129">
        <ele>859.210133</ele>
        <time>2020-08-05T10:50:02.394Z</time>
      </trkpt>
      <trkpt lat="38.820445" lon="-2.071232">
        <ele>859.505126</ele>
        <time>2020-08-05T10:50:04.370Z</time>
      </trkpt>
      <trkpt lat="38.820404" lon="-2.071335">
        <ele>859.792522</ele>
        <time>2020-08-05T10:50:06.367Z</time>
      </trkpt>
      <trkpt lat="38.820361" lon="-2.071437">
        <ele>860.080687</ele>
        <time>2020-08-05T10:50:08.374Z</time>
      </trkpt>
      <trkpt lat="38.820318" lon="-2.071549">
        <ele>860.390932</ele>
        <time>2020-08-05T10:50:10.365Z</time>
      </trkpt>
      <trkpt lat="38.820272" lon="-2.071656">
        <ele>860.694588</ele>
        <time>2020-08-05T10:50:12.360Z</time>
      </trkpt>
      <trkpt lat="38.820226" lon="-2.071778">
        <ele>861.031359</ele>
        <time>2020-08-05T10:50:14.365Z</time>
      </trkpt>
      <trkpt lat="38.820169" lon="-2.071901">
        <ele>861.386958</ele>
        <time>2020-08-05T10:50:16.390Z</time>
      </trkpt>
      <trkpt lat="38.820118" lon="-2.072024">
        <ele>861.733167</ele>
        <time>2020-08-05T10:50:18.375Z</time>
      </trkpt>
      <trkpt lat="38.820068" lon="-2.072128">
        <ele>862.036819</ele>
        <time>2020-08-05T10:50:20.370Z</time>
      </trkpt>
      <trkpt lat="38.820007" lon="-2.072269">
        <ele>862.437557</ele>
        <time>2020-08-05T10:50:23.375Z</time>
      </trkpt>
      <trkpt lat="38.819947" lon="-2.072414">
        <ele>862.845507</ele>
        <time>2020-08-05T10:50:26.375Z</time>
      </trkpt>
      <trkpt lat="38.819909" lon="-2.072519">
        <ele>863.133179</ele>
        <time>2020-08-05T10:50:28.354Z</time>
      </trkpt>
      <trkpt lat="38.819863" lon="-2.072643">
        <ele>863.401074</ele>
        <time>2020-08-05T10:50:31.375Z</time>
      </trkpt>
      <trkpt lat="38.819813" lon="-2.072778">
        <ele>863.619314</ele>
        <time>2020-08-05T10:50:35.364Z</time>
      </trkpt>
      <trkpt lat="38.819767" lon="-2.072891">
        <ele>863.805460</ele>
        <time>2020-08-05T10:50:40.368Z</time>
      </trkpt>
      <trkpt lat="38.819708" lon="-2.072983">
        <ele>863.979433</ele>
        <time>2020-08-05T10:50:53.360Z</time>
      </trkpt>
      <trkpt lat="38.819664" lon="-2.073085">
        <ele>864.149658</ele>
        <time>2020-08-05T10:50:56.366Z</time>
      </trkpt>
      <trkpt lat="38.819616" lon="-2.073197">
        <ele>864.336288</ele>
        <time>2020-08-05T10:50:59.365Z</time>
      </trkpt>
      <trkpt lat="38.819556" lon="-2.073335">
        <ele>864.567021</ele>
        <time>2020-08-05T10:51:02.367Z</time>
      </trkpt>
      <trkpt lat="38.819518" lon="-2.073440">
        <ele>864.736056</ele>
        <time>2020-08-05T10:51:04.369Z</time>
      </trkpt>
      <trkpt lat="38.819457" lon="-2.073593">
        <ele>864.986990</ele>
        <time>2020-08-05T10:51:07.364Z</time>
      </trkpt>
      <trkpt lat="38.819410" lon="-2.073700">
        <ele>865.166331</ele>
        <time>2020-08-05T10:51:09.361Z</time>
      </trkpt>
      <trkpt lat="38.819366" lon="-2.073809">
        <ele>865.345566</ele>
        <time>2020-08-05T10:51:11.356Z</time>
      </trkpt>
      <trkpt lat="38.819318" lon="-2.073927">
        <ele>865.539918</ele>
        <time>2020-08-05T10:51:13.355Z</time>
      </trkpt>
      <trkpt lat="38.819271" lon="-2.074054">
        <ele>865.745198</ele>
        <time>2020-08-05T10:51:15.365Z</time>
      </trkpt>
      <trkpt lat="38.819212" lon="-2.074170">
        <ele>865.947456</ele>
        <time>2020-08-05T10:51:17.362Z</time>
      </trkpt>
      <trkpt lat="38.819155" lon="-2.074304">
        <ele>866.170361</ele>
        <time>2020-08-05T10:51:19.374Z</time>
      </trkpt>
      <trkpt lat="38.819099" lon="-2.074444">
        <ele>866.400131</ele>
        <time>2020-08-05T10:51:21.364Z</time>
      </trkpt>
      <trkpt lat="38.819046" lon="-2.074575">
        <ele>866.615646</ele>
        <time>2020-08-05T10:51:23.362Z</time>
      </trkpt>
      <trkpt lat="38.818991" lon="-2.074694">
        <ele>866.894016</ele>
        <time>2020-08-05T10:51:25.362Z</time>
      </trkpt>
      <trkpt lat="38.818944" lon="-2.074815">
        <ele>867.191532</ele>
        <time>2020-08-05T10:51:27.364Z</time>
      </trkpt>
      <trkpt lat="38.818893" lon="-2.074938">
        <ele>867.498135</ele>
        <time>2020-08-05T10:51:29.361Z</time>
      </trkpt>
      <trkpt lat="38.818845" lon="-2.075064">
        <ele>867.806768</ele>
        <time>2020-08-05T10:51:31.359Z</time>
      </trkpt>
      <trkpt lat="38.818798" lon="-2.075193">
        <ele>868.120138</ele>
        <time>2020-08-05T10:51:33.371Z</time>
      </trkpt>
      <trkpt lat="38.818752" lon="-2.075323">
        <ele>868.434324</ele>
        <time>2020-08-05T10:51:35.367Z</time>
      </trkpt>
      <trkpt lat="38.818707" lon="-2.075451">
        <ele>868.743336</ele>
        <time>2020-08-05T10:51:37.370Z</time>
      </trkpt>
      <trkpt lat="38.818657" lon="-2.075585">
        <ele>869.070276</ele>
        <time>2020-08-05T10:51:39.377Z</time>
      </trkpt>
      <trkpt lat="38.818617" lon="-2.075724">
        <ele>869.396344</ele>
        <time>2020-08-05T10:51:41.369Z</time>
      </trkpt>
      <trkpt lat="38.818577" lon="-2.075862">
        <ele>869.720349</ele>
        <time>2020-08-05T10:51:43.369Z</time>
      </trkpt>
      <trkpt lat="38.818532" lon="-2.075995">
        <ele>870.039423</ele>
        <time>2020-08-05T10:51:45.370Z</time>
      </trkpt>
      <trkpt lat="38.818477" lon="-2.076122">
        <ele>870.359159</ele>
        <time>2020-08-05T10:51:47.383Z</time>
      </trkpt>
      <trkpt lat="38.818429" lon="-2.076256">
        <ele>870.683700</ele>
        <time>2020-08-05T10:51:49.366Z</time>
      </trkpt>
      <trkpt lat="38.818393" lon="-2.076402">
        <ele>871.020682</ele>
        <time>2020-08-05T10:51:51.368Z</time>
      </trkpt>
      <trkpt lat="38.818354" lon="-2.076542">
        <ele>871.347854</ele>
        <time>2020-08-05T10:51:53.362Z</time>
      </trkpt>
      <trkpt lat="38.818317" lon="-2.076678">
        <ele>871.664846</ele>
        <time>2020-08-05T10:51:55.376Z</time>
      </trkpt>
      <trkpt lat="38.818273" lon="-2.076813">
        <ele>871.506462</ele>
        <time>2020-08-05T10:51:57.371Z</time>
      </trkpt>
      <trkpt lat="38.818225" lon="-2.076939">
        <ele>871.196867</ele>
        <time>2020-08-05T10:51:59.369Z</time>
      </trkpt>
      <trkpt lat="38.818183" lon="-2.077067">
        <ele>870.890288</ele>
        <time>2020-08-05T10:52:01.368Z</time>
      </trkpt>
      <trkpt lat="38.818135" lon="-2.077201">
        <ele>870.564736</ele>
        <time>2020-08-05T10:52:03.368Z</time>
      </trkpt>
      <trkpt lat="38.818100" lon="-2.077346">
        <ele>870.229657</ele>
        <time>2020-08-05T10:52:05.370Z</time>
      </trkpt>
      <trkpt lat="38.818056" lon="-2.077486">
        <ele>869.896428</ele>
        <time>2020-08-05T10:52:07.369Z</time>
      </trkpt>
      <trkpt lat="38.818008" lon="-2.077622">
        <ele>869.566858</ele>
        <time>2020-08-05T10:52:09.359Z</time>
      </trkpt>
      <trkpt lat="38.817965" lon="-2.077754">
        <ele>869.251041</ele>
        <time>2020-08-05T10:52:11.372Z</time>
      </trkpt>
      <trkpt lat="38.817913" lon="-2.077890">
        <ele>868.916636</ele>
        <time>2020-08-05T10:52:13.370Z</time>
      </trkpt>
      <trkpt lat="38.817865" lon="-2.078024">
        <ele>868.591082</ele>
        <time>2020-08-05T10:52:15.378Z</time>
      </trkpt>
      <trkpt lat="38.817827" lon="-2.078160">
        <ele>868.272156</ele>
        <time>2020-08-05T10:52:17.360Z</time>
      </trkpt>
      <trkpt lat="38.817792" lon="-2.078294">
        <ele>867.960187</ele>
        <time>2020-08-05T10:52:19.381Z</time>
      </trkpt>
      <trkpt lat="38.817747" lon="-2.078425">
        <ele>867.644161</ele>
        <time>2020-08-05T10:52:21.381Z</time>
      </trkpt>
      <trkpt lat="38.817702" lon="-2.078556">
        <ele>867.328135</ele>
        <time>2020-08-05T10:52:23.377Z</time>
      </trkpt>
      <trkpt lat="38.817662" lon="-2.078687">
        <ele>867.017553</ele>
        <time>2020-08-05T10:52:25.366Z</time>
      </trkpt>
      <trkpt lat="38.817621" lon="-2.078820">
        <ele>866.701825</ele>
        <time>2020-08-05T10:52:27.370Z</time>
      </trkpt>
      <trkpt lat="38.817580" lon="-2.078953">
        <ele>866.518582</ele>
        <time>2020-08-05T10:52:29.374Z</time>
      </trkpt>
      <trkpt lat="38.817528" lon="-2.079087">
        <ele>866.353221</ele>
        <time>2020-08-05T10:52:31.394Z</time>
      </trkpt>
      <trkpt lat="38.817484" lon="-2.079210">
        <ele>866.203717</ele>
        <time>2020-08-05T10:52:33.371Z</time>
      </trkpt>
      <trkpt lat="38.817438" lon="-2.079341">
        <ele>866.044995</ele>
        <time>2020-08-05T10:52:35.371Z</time>
      </trkpt>
      <trkpt lat="38.817393" lon="-2.079473">
        <ele>865.885838</ele>
        <time>2020-08-05T10:52:37.368Z</time>
      </trkpt>
      <trkpt lat="38.817351" lon="-2.079607">
        <ele>865.726291</ele>
        <time>2020-08-05T10:52:39.367Z</time>
      </trkpt>
      <trkpt lat="38.817312" lon="-2.079745">
        <ele>865.564136</ele>
        <time>2020-08-05T10:52:41.357Z</time>
      </trkpt>
      <trkpt lat="38.817270" lon="-2.079876">
        <ele>865.407658</ele>
        <time>2020-08-05T10:52:43.361Z</time>
      </trkpt>
      <trkpt lat="38.817230" lon="-2.080020">
        <ele>865.238786</ele>
        <time>2020-08-05T10:52:45.375Z</time>
      </trkpt>
      <trkpt lat="38.817182" lon="-2.080158">
        <ele>865.071848</ele>
        <time>2020-08-05T10:52:47.378Z</time>
      </trkpt>
      <trkpt lat="38.817136" lon="-2.080299">
        <ele>864.902993</ele>
        <time>2020-08-05T10:52:49.363Z</time>
      </trkpt>
      <trkpt lat="38.817087" lon="-2.080441">
        <ele>864.731442</ele>
        <time>2020-08-05T10:52:51.376Z</time>
      </trkpt>
      <trkpt lat="38.817014" lon="-2.080600">
        <ele>864.527582</ele>
        <time>2020-08-05T10:52:53.380Z</time>
      </trkpt>
      <trkpt lat="38.816936" lon="-2.080786">
        <ele>864.294252</ele>
        <time>2020-08-05T10:52:55.368Z</time>
      </trkpt>
      <trkpt lat="38.816891" lon="-2.080888">
        <ele>864.164772</ele>
        <time>2020-08-05T10:52:56.367Z</time>
      </trkpt>
      <trkpt lat="38.816844" lon="-2.080998">
        <ele>863.958392</ele>
        <time>2020-08-05T10:52:57.387Z</time>
      </trkpt>
      <trkpt lat="38.816812" lon="-2.081120">
        <ele>863.687833</ele>
        <time>2020-08-05T10:52:58.370Z</time>
      </trkpt>
      <trkpt lat="38.816776" lon="-2.081245">
        <ele>863.407736</ele>
        <time>2020-08-05T10:52:59.386Z</time>
      </trkpt>
      <trkpt lat="38.816741" lon="-2.081381">
        <ele>863.106703</ele>
        <time>2020-08-05T10:53:00.369Z</time>
      </trkpt>
      <trkpt lat="38.816713" lon="-2.081512">
        <ele>862.821196</ele>
        <time>2020-08-05T10:53:01.386Z</time>
      </trkpt>
      <trkpt lat="38.816673" lon="-2.081644">
        <ele>862.523514</ele>
        <time>2020-08-05T10:53:02.371Z</time>
      </trkpt>
      <trkpt lat="38.816636" lon="-2.081782">
        <ele>862.216774</ele>
        <time>2020-08-05T10:53:03.371Z</time>
      </trkpt>
      <trkpt lat="38.816590" lon="-2.081918">
        <ele>861.905157</ele>
        <time>2020-08-05T10:53:04.381Z</time>
      </trkpt>
      <trkpt lat="38.816545" lon="-2.082057">
        <ele>861.588792</ele>
        <time>2020-08-05T10:53:05.383Z</time>
      </trkpt>
      <trkpt lat="38.816499" lon="-2.082194">
        <ele>861.275246</ele>
        <time>2020-08-05T10:53:06.371Z</time>
      </trkpt>
      <trkpt lat="38.816451" lon="-2.082336">
        <ele>860.949913</ele>
        <time>2020-08-05T10:53:07.369Z</time>
      </trkpt>
      <trkpt lat="38.816410" lon="-2.082482">
        <ele>860.623727</ele>
        <time>2020-08-05T10:53:08.375Z</time>
      </trkpt>
      <trkpt lat="38.816362" lon="-2.082630">
        <ele>860.286787</ele>
        <time>2020-08-05T10:53:09.391Z</time>
      </trkpt>
      <trkpt lat="38.816312" lon="-2.082765">
        <ele>859.972618</ele>
        <time>2020-08-05T10:53:10.382Z</time>
      </trkpt>
      <trkpt lat="38.816267" lon="-2.082908">
        <ele>859.648472</ele>
        <time>2020-08-05T10:53:11.364Z</time>
      </trkpt>
      <trkpt lat="38.816225" lon="-2.083033">
        <ele>859.362358</ele>
        <time>2020-08-05T10:53:12.366Z</time>
      </trkpt>
      <trkpt lat="38.816183" lon="-2.083166">
        <ele>859.848293</ele>
        <time>2020-08-05T10:53:13.364Z</time>
      </trkpt>
      <trkpt lat="38.816146" lon="-2.083298">
        <ele>860.784232</ele>
        <time>2020-08-05T10:53:14.369Z</time>
      </trkpt>
      <trkpt lat="38.816105" lon="-2.083427">
        <ele>861.713751</ele>
        <time>2020-08-05T10:53:15.378Z</time>
      </trkpt>
      <trkpt lat="38.816064" lon="-2.083550">
        <ele>862.606333</ele>
        <time>2020-08-05T10:53:16.376Z</time>
      </trkpt>
      <trkpt lat="38.816024" lon="-2.083669">
        <ele>863.471014</ele>
        <time>2020-08-05T10:53:17.401Z</time>
      </trkpt>
      <trkpt lat="38.815986" lon="-2.083784">
        <ele>864.304424</ele>
        <time>2020-08-05T10:53:18.370Z</time>
      </trkpt>
      <trkpt lat="38.815951" lon="-2.083893">
        <ele>865.090992</ele>
        <time>2020-08-05T10:53:19.373Z</time>
      </trkpt>
      <trkpt lat="38.815880" lon="-2.084091">
        <ele>866.545206</ele>
        <time>2020-08-05T10:53:21.360Z</time>
      </trkpt>
      <trkpt lat="38.815828" lon="-2.084268">
        <ele>867.807284</ele>
        <time>2020-08-05T10:53:23.375Z</time>
      </trkpt>
      <trkpt lat="38.815777" lon="-2.084434">
        <ele>868.997805</ele>
        <time>2020-08-05T10:53:25.388Z</time>
      </trkpt>
      <trkpt lat="38.815728" lon="-2.084582">
        <ele>870.070690</ele>
        <time>2020-08-05T10:53:27.393Z</time>
      </trkpt>
      <trkpt lat="38.815682" lon="-2.084713">
        <ele>871.029365</ele>
        <time>2020-08-05T10:53:29.381Z</time>
      </trkpt>
      <trkpt lat="38.815639" lon="-2.084832">
        <ele>871.904544</ele>
        <time>2020-08-05T10:53:31.372Z</time>
      </trkpt>
      <trkpt lat="38.815611" lon="-2.084952">
        <ele>872.740301</ele>
        <time>2020-08-05T10:53:33.366Z</time>
      </trkpt>
      <trkpt lat="38.815574" lon="-2.085062">
        <ele>873.539677</ele>
        <time>2020-08-05T10:53:35.386Z</time>
      </trkpt>
      <trkpt lat="38.815537" lon="-2.085171">
        <ele>874.332931</ele>
        <time>2020-08-05T10:53:37.372Z</time>
      </trkpt>
      <trkpt lat="38.815485" lon="-2.085321">
        <ele>874.608718</ele>
        <time>2020-08-05T10:53:40.364Z</time>
      </trkpt>
      <trkpt lat="38.815437" lon="-2.085470">
        <ele>874.550311</ele>
        <time>2020-08-05T10:53:43.374Z</time>
      </trkpt>
      <trkpt lat="38.815381" lon="-2.085606">
        <ele>874.494588</ele>
        <time>2020-08-05T10:53:46.373Z</time>
      </trkpt>
      <trkpt lat="38.815330" lon="-2.085753">
        <ele>874.436297</ele>
        <time>2020-08-05T10:53:49.376Z</time>
      </trkpt>
      <trkpt lat="38.815284" lon="-2.085898">
        <ele>874.379583</ele>
        <time>2020-08-05T10:53:52.382Z</time>
      </trkpt>
      <trkpt lat="38.815242" lon="-2.086042">
        <ele>874.323884</ele>
        <time>2020-08-05T10:53:55.364Z</time>
      </trkpt>
      <trkpt lat="38.815199" lon="-2.086181">
        <ele>874.269707</ele>
        <time>2020-08-05T10:53:58.374Z</time>
      </trkpt>
      <trkpt lat="38.815153" lon="-2.086313">
        <ele>874.217325</ele>
        <time>2020-08-05T10:54:01.374Z</time>
      </trkpt>
      <trkpt lat="38.815103" lon="-2.086448">
        <ele>874.163177</ele>
        <time>2020-08-05T10:54:04.375Z</time>
      </trkpt>
      <trkpt lat="38.815054" lon="-2.086593">
        <ele>874.105923</ele>
        <time>2020-08-05T10:54:07.376Z</time>
      </trkpt>
      <trkpt lat="38.815010" lon="-2.086729">
        <ele>874.052579</ele>
        <time>2020-08-05T10:54:10.372Z</time>
      </trkpt>
      <trkpt lat="38.814969" lon="-2.086854">
        <ele>874.003448</ele>
        <time>2020-08-05T10:54:13.362Z</time>
      </trkpt>
      <trkpt lat="38.814924" lon="-2.086983">
        <ele>873.952248</ele>
        <time>2020-08-05T10:54:16.383Z</time>
      </trkpt>
      <trkpt lat="38.814884" lon="-2.087114">
        <ele>873.901279</ele>
        <time>2020-08-05T10:54:19.371Z</time>
      </trkpt>
      <trkpt lat="38.814840" lon="-2.087251">
        <ele>873.847599</ele>
        <time>2020-08-05T10:54:22.364Z</time>
      </trkpt>
      <trkpt lat="38.814800" lon="-2.087391">
        <ele>873.617465</ele>
        <time>2020-08-05T10:54:25.369Z</time>
      </trkpt>
      <trkpt lat="38.814754" lon="-2.087538">
        <ele>873.081498</ele>
        <time>2020-08-05T10:54:28.364Z</time>
      </trkpt>
      <trkpt lat="38.814705" lon="-2.087681">
        <ele>872.552957</ele>
        <time>2020-08-05T10:54:31.366Z</time>
      </trkpt>
      <trkpt lat="38.814646" lon="-2.087829">
        <ele>871.990485</ele>
        <time>2020-08-05T10:54:34.364Z</time>
      </trkpt>
      <trkpt lat="38.814603" lon="-2.087945">
        <ele>871.555862</ele>
        <time>2020-08-05T10:54:36.365Z</time>
      </trkpt>
      <trkpt lat="38.814571" lon="-2.088071">
        <ele>871.107482</ele>
        <time>2020-08-05T10:54:38.374Z</time>
      </trkpt>
      <trkpt lat="38.814541" lon="-2.088191">
        <ele>870.681090</ele>
        <time>2020-08-05T10:54:40.367Z</time>
      </trkpt>
      <trkpt lat="38.814499" lon="-2.088307">
        <ele>870.248314</ele>
        <time>2020-08-05T10:54:42.363Z</time>
      </trkpt>
      <trkpt lat="38.814464" lon="-2.088432">
        <ele>869.798912</ele>
        <time>2020-08-05T10:54:44.370Z</time>
      </trkpt>
      <trkpt lat="38.814417" lon="-2.088547">
        <ele>869.359547</ele>
        <time>2020-08-05T10:54:46.362Z</time>
      </trkpt>
      <trkpt lat="38.814379" lon="-2.088671">
        <ele>868.908725</ele>
        <time>2020-08-05T10:54:48.365Z</time>
      </trkpt>
      <trkpt lat="38.814334" lon="-2.088802">
        <ele>868.424339</ele>
        <time>2020-08-05T10:54:50.362Z</time>
      </trkpt>
      <trkpt lat="38.814291" lon="-2.088929">
        <ele>867.955834</ele>
        <time>2020-08-05T10:54:52.358Z</time>
      </trkpt>
      <trkpt lat="38.814249" lon="-2.089058">
        <ele>867.482805</ele>
        <time>2020-08-05T10:54:54.370Z</time>
      </trkpt>
      <trkpt lat="38.814204" lon="-2.089183">
        <ele>867.016922</ele>
        <time>2020-08-05T10:54:56.366Z</time>
      </trkpt>
      <trkpt lat="38.814161" lon="-2.089308">
        <ele>866.554614</ele>
        <time>2020-08-05T10:54:58.366Z</time>
      </trkpt>
      <trkpt lat="38.814121" lon="-2.089432">
        <ele>866.100540</ele>
        <time>2020-08-05T10:55:00.376Z</time>
      </trkpt>
      <trkpt lat="38.814087" lon="-2.089561">
        <ele>865.977350</ele>
        <time>2020-08-05T10:55:02.373Z</time>
      </trkpt>
      <trkpt lat="38.814057" lon="-2.089682">
        <ele>865.945310</ele>
        <time>2020-08-05T10:55:04.363Z</time>
      </trkpt>
      <trkpt lat="38.814015" lon="-2.089804">
        <ele>865.911655</ele>
        <time>2020-08-05T10:55:06.358Z</time>
      </trkpt>
      <trkpt lat="38.813973" lon="-2.089930">
        <ele>865.877074</ele>
        <time>2020-08-05T10:55:08.367Z</time>
      </trkpt>
      <trkpt lat="38.813929" lon="-2.090050">
        <ele>865.843609</ele>
        <time>2020-08-05T10:55:10.383Z</time>
      </trkpt>
      <trkpt lat="38.813892" lon="-2.090187">
        <ele>865.807022</ele>
        <time>2020-08-05T10:55:12.369Z</time>
      </trkpt>
      <trkpt lat="38.813849" lon="-2.090323">
        <ele>865.769988</ele>
        <time>2020-08-05T10:55:14.362Z</time>
      </trkpt>
      <trkpt lat="38.813812" lon="-2.090458">
        <ele>865.733877</ele>
        <time>2020-08-05T10:55:16.367Z</time>
      </trkpt>
      <trkpt lat="38.813761" lon="-2.090586">
        <ele>865.697601</ele>
        <time>2020-08-05T10:55:18.373Z</time>
      </trkpt>
      <trkpt lat="38.813718" lon="-2.090720">
        <ele>865.661033</ele>
        <time>2020-08-05T10:55:20.371Z</time>
      </trkpt>
      <trkpt lat="38.813677" lon="-2.090849">
        <ele>865.625879</ele>
        <time>2020-08-05T10:55:22.359Z</time>
      </trkpt>
      <trkpt lat="38.813630" lon="-2.090985">
        <ele>865.588338</ele>
        <time>2020-08-05T10:55:24.357Z</time>
      </trkpt>
      <trkpt lat="38.813583" lon="-2.091133">
        <ele>865.548010</ele>
        <time>2020-08-05T10:55:26.365Z</time>
      </trkpt>
      <trkpt lat="38.813536" lon="-2.091283">
        <ele>865.507215</ele>
        <time>2020-08-05T10:55:28.371Z</time>
      </trkpt>
      <trkpt lat="38.813486" lon="-2.091458">
        <ele>865.460182</ele>
        <time>2020-08-05T10:55:30.356Z</time>
      </trkpt>
      <trkpt lat="38.813434" lon="-2.091625">
        <ele>865.461896</ele>
        <time>2020-08-05T10:55:32.358Z</time>
      </trkpt>
      <trkpt lat="38.813384" lon="-2.091801">
        <ele>865.720356</ele>
        <time>2020-08-05T10:55:34.356Z</time>
      </trkpt>
      <trkpt lat="38.813341" lon="-2.091993">
        <ele>865.995981</ele>
        <time>2020-08-05T10:55:36.366Z</time>
      </trkpt>
      <trkpt lat="38.813307" lon="-2.092185">
        <ele>866.267635</ele>
        <time>2020-08-05T10:55:38.376Z</time>
      </trkpt>
      <trkpt lat="38.813262" lon="-2.092367">
        <ele>866.531077</ele>
        <time>2020-08-05T10:55:40.374Z</time>
      </trkpt>
      <trkpt lat="38.813223" lon="-2.092559">
        <ele>866.804830</ele>
        <time>2020-08-05T10:55:42.373Z</time>
      </trkpt>
      <trkpt lat="38.813184" lon="-2.092755">
        <ele>867.083927</ele>
        <time>2020-08-05T10:55:44.359Z</time>
      </trkpt>
      <trkpt lat="38.813150" lon="-2.092945">
        <ele>867.352893</ele>
        <time>2020-08-05T10:55:46.376Z</time>
      </trkpt>
      <trkpt lat="38.813110" lon="-2.093130">
        <ele>867.617780</ele>
        <time>2020-08-05T10:55:48.386Z</time>
      </trkpt>
      <trkpt lat="38.813076" lon="-2.093329">
        <ele>867.898861</ele>
        <time>2020-08-05T10:55:50.376Z</time>
      </trkpt>
      <trkpt lat="38.813038" lon="-2.093530">
        <ele>868.184225</ele>
        <time>2020-08-05T10:55:52.377Z</time>
      </trkpt>
      <trkpt lat="38.813006" lon="-2.093712">
        <ele>868.441642</ele>
        <time>2020-08-05T10:55:54.364Z</time>
      </trkpt>
      <trkpt lat="38.812969" lon="-2.093884">
        <ele>868.578230</ele>
        <time>2020-08-05T10:55:56.365Z</time>
      </trkpt>
      <trkpt lat="38.812939" lon="-2.094060">
        <ele>868.490281</ele>
        <time>2020-08-05T10:55:58.377Z</time>
      </trkpt>
      <trkpt lat="38.812904" lon="-2.094234">
        <ele>868.402555</ele>
        <time>2020-08-05T10:56:00.375Z</time>
      </trkpt>
      <trkpt lat="38.812884" lon="-2.094400">
        <ele>868.320556</ele>
        <time>2020-08-05T10:56:02.377Z</time>
      </trkpt>
      <trkpt lat="38.812851" lon="-2.094566">
        <ele>868.236925</ele>
        <time>2020-08-05T10:56:04.361Z</time>
      </trkpt>
      <trkpt lat="38.812826" lon="-2.094714">
        <ele>868.162998</ele>
        <time>2020-08-05T10:56:06.368Z</time>
      </trkpt>
      <trkpt lat="38.812794" lon="-2.094880">
        <ele>868.079519</ele>
        <time>2020-08-05T10:56:08.371Z</time>
      </trkpt>
      <trkpt lat="38.812757" lon="-2.095044">
        <ele>867.996171</ele>
        <time>2020-08-05T10:56:10.375Z</time>
      </trkpt>
      <trkpt lat="38.812731" lon="-2.095206">
        <ele>867.915428</ele>
        <time>2020-08-05T10:56:12.368Z</time>
      </trkpt>
      <trkpt lat="38.812704" lon="-2.095368">
        <ele>867.834556</ele>
        <time>2020-08-05T10:56:14.371Z</time>
      </trkpt>
      <trkpt lat="38.812671" lon="-2.095529">
        <ele>867.753287</ele>
        <time>2020-08-05T10:56:16.368Z</time>
      </trkpt>
      <trkpt lat="38.812642" lon="-2.095701">
        <ele>867.667379</ele>
        <time>2020-08-05T10:56:18.370Z</time>
      </trkpt>
      <trkpt lat="38.812607" lon="-2.095872">
        <ele>867.581070</ele>
        <time>2020-08-05T10:56:20.369Z</time>
      </trkpt>
      <trkpt lat="38.812569" lon="-2.096043">
        <ele>867.494265</ele>
        <time>2020-08-05T10:56:22.375Z</time>
      </trkpt>
      <trkpt lat="38.812535" lon="-2.096223">
        <ele>867.915283</ele>
        <time>2020-08-05T10:56:24.375Z</time>
      </trkpt>
      <trkpt lat="38.812499" lon="-2.096392">
        <ele>868.403994</ele>
        <time>2020-08-05T10:56:26.370Z</time>
      </trkpt>
      <trkpt lat="38.812466" lon="-2.096562">
        <ele>868.892689</ele>
        <time>2020-08-05T10:56:28.377Z</time>
      </trkpt>
      <trkpt lat="38.812435" lon="-2.096729">
        <ele>869.371560</ele>
        <time>2020-08-05T10:56:30.368Z</time>
      </trkpt>
      <trkpt lat="38.812407" lon="-2.096899">
        <ele>869.856240</ele>
        <time>2020-08-05T10:56:32.372Z</time>
      </trkpt>
      <trkpt lat="38.812382" lon="-2.097066">
        <ele>870.330594</ele>
        <time>2020-08-05T10:56:34.378Z</time>
      </trkpt>
      <trkpt lat="38.812345" lon="-2.097229">
        <ele>870.804171</ele>
        <time>2020-08-05T10:56:36.386Z</time>
      </trkpt>
      <trkpt lat="38.812304" lon="-2.097399">
        <ele>871.300569</ele>
        <time>2020-08-05T10:56:38.358Z</time>
      </trkpt>
      <trkpt lat="38.812255" lon="-2.097562">
        <ele>871.787910</ele>
        <time>2020-08-05T10:56:40.364Z</time>
      </trkpt>
      <trkpt lat="38.812197" lon="-2.097734">
        <ele>872.310693</ele>
        <time>2020-08-05T10:56:42.367Z</time>
      </trkpt>
      <trkpt lat="38.812137" lon="-2.097904">
        <ele>872.831274</ele>
        <time>2020-08-05T10:56:44.370Z</time>
      </trkpt>
      <trkpt lat="38.812078" lon="-2.098069">
        <ele>873.337680</ele>
        <time>2020-08-05T10:56:46.383Z</time>
      </trkpt>
      <trkpt lat="38.812007" lon="-2.098227">
        <ele>873.846450</ele>
        <time>2020-08-05T10:56:48.373Z</time>
      </trkpt>
      <trkpt lat="38.811926" lon="-2.098378">
        <ele>873.106444</ele>
        <time>2020-08-05T10:56:50.382Z</time>
      </trkpt>
      <trkpt lat="38.811844" lon="-2.098534">
        <ele>872.134828</ele>
        <time>2020-08-05T10:56:52.372Z</time>
      </trkpt>
      <trkpt lat="38.811761" lon="-2.098680">
        <ele>871.201678</ele>
        <time>2020-08-05T10:56:54.372Z</time>
      </trkpt>
      <trkpt lat="38.811678" lon="-2.098827">
        <ele>870.264350</ele>
        <time>2020-08-05T10:56:56.372Z</time>
      </trkpt>
      <trkpt lat="38.811597" lon="-2.098966">
        <ele>869.368145</ele>
        <time>2020-08-05T10:56:58.372Z</time>
      </trkpt>
      <trkpt lat="38.811519" lon="-2.099104">
        <ele>868.487886</ele>
        <time>2020-08-05T10:57:00.378Z</time>
      </trkpt>
      <trkpt lat="38.811445" lon="-2.099234">
        <ele>867.656621</ele>
        <time>2020-08-05T10:57:02.376Z</time>
      </trkpt>
      <trkpt lat="38.811374" lon="-2.099345">
        <ele>866.915120</ele>
        <time>2020-08-05T10:57:04.360Z</time>
      </trkpt>
      <trkpt lat="38.811315" lon="-2.099447">
        <ele>866.259208</ele>
        <time>2020-08-05T10:57:06.383Z</time>
      </trkpt>
      <trkpt lat="38.811257" lon="-2.099540">
        <ele>865.644152</ele>
        <time>2020-08-05T10:57:08.369Z</time>
      </trkpt>
      <trkpt lat="38.811186" lon="-2.099656">
        <ele>864.882519</ele>
        <time>2020-08-05T10:57:11.366Z</time>
      </trkpt>
      <trkpt lat="38.811130" lon="-2.099750">
        <ele>864.271561</ele>
        <time>2020-08-05T10:57:14.360Z</time>
      </trkpt>
      <trkpt lat="38.811081" lon="-2.099850">
        <ele>863.661619</ele>
        <time>2020-08-05T10:57:17.386Z</time>
      </trkpt>
      <trkpt lat="38.811032" lon="-2.099960">
        <ele>863.007389</ele>
        <time>2020-08-05T10:57:20.382Z</time>
      </trkpt>
      <trkpt lat="38.810981" lon="-2.100072">
        <ele>862.337586</ele>
        <time>2020-08-05T10:57:23.365Z</time>
      </trkpt>
      <trkpt lat="38.810909" lon="-2.100172">
        <ele>862.229548</ele>
        <time>2020-08-05T10:57:26.371Z</time>
      </trkpt>
      <trkpt lat="38.810825" lon="-2.100275">
        <ele>862.711683</ele>
        <time>2020-08-05T10:57:29.371Z</time>
      </trkpt>
      <trkpt lat="38.810744" lon="-2.100382">
        <ele>863.194088</ele>
        <time>2020-08-05T10:57:32.377Z</time>
      </trkpt>
      <trkpt lat="38.810657" lon="-2.100473">
        <ele>863.659863</ele>
        <time>2020-08-05T10:57:35.379Z</time>
      </trkpt>
      <trkpt lat="38.810575" lon="-2.100558">
        <ele>864.097300</ele>
        <time>2020-08-05T10:57:38.379Z</time>
      </trkpt>
      <trkpt lat="38.810506" lon="-2.100664">
        <ele>864.543941</ele>
        <time>2020-08-05T10:57:41.364Z</time>
      </trkpt>
      <trkpt lat="38.810447" lon="-2.100780">
        <ele>864.991890</ele>
        <time>2020-08-05T10:57:44.376Z</time>
      </trkpt>
      <trkpt lat="38.810398" lon="-2.100902">
        <ele>865.435727</ele>
        <time>2020-08-05T10:57:47.377Z</time>
      </trkpt>
      <trkpt lat="38.810350" lon="-2.101030">
        <ele>865.895082</ele>
        <time>2020-08-05T10:57:50.375Z</time>
      </trkpt>
      <trkpt lat="38.810291" lon="-2.101147">
        <ele>866.345743</ele>
        <time>2020-08-05T10:57:53.379Z</time>
      </trkpt>
      <trkpt lat="38.810227" lon="-2.101259">
        <ele>866.794868</ele>
        <time>2020-08-05T10:57:56.377Z</time>
      </trkpt>
      <trkpt lat="38.810169" lon="-2.101382">
        <ele>867.259776</ele>
        <time>2020-08-05T10:57:59.383Z</time>
      </trkpt>
      <trkpt lat="38.810122" lon="-2.101489">
        <ele>867.656974</ele>
        <time>2020-08-05T10:58:01.376Z</time>
      </trkpt>
      <trkpt lat="38.810071" lon="-2.101589">
        <ele>868.043452</ele>
        <time>2020-08-05T10:58:03.372Z</time>
      </trkpt>
      <trkpt lat="38.810026" lon="-2.101709">
        <ele>868.474098</ele>
        <time>2020-08-05T10:58:05.372Z</time>
      </trkpt>
      <trkpt lat="38.809982" lon="-2.101818">
        <ele>868.871065</ele>
        <time>2020-08-05T10:58:07.369Z</time>
      </trkpt>
      <trkpt lat="38.809925" lon="-2.101928">
        <ele>869.298248</ele>
        <time>2020-08-05T10:58:09.390Z</time>
      </trkpt>
      <trkpt lat="38.809858" lon="-2.102028">
        <ele>870.018943</ele>
        <time>2020-08-05T10:58:11.378Z</time>
      </trkpt>
      <trkpt lat="38.809796" lon="-2.102135">
        <ele>870.937975</ele>
        <time>2020-08-05T10:58:13.368Z</time>
      </trkpt>
      <trkpt lat="38.809735" lon="-2.102245">
        <ele>871.868525</ele>
        <time>2020-08-05T10:58:15.368Z</time>
      </trkpt>
      <trkpt lat="38.809661" lon="-2.102343">
        <ele>872.809086</ele>
        <time>2020-08-05T10:58:17.359Z</time>
      </trkpt>
      <trkpt lat="38.809606" lon="-2.102451">
        <ele>873.698333</ele>
        <time>2020-08-05T10:58:19.359Z</time>
      </trkpt>
      <trkpt lat="38.809576" lon="-2.102614">
        <ele>874.852705</ele>
        <time>2020-08-05T10:58:22.355Z</time>
      </trkpt>
      <trkpt lat="38.809544" lon="-2.102727">
        <ele>875.681382</ele>
        <time>2020-08-05T10:58:25.355Z</time>
      </trkpt>
      <trkpt lat="38.809495" lon="-2.102882">
        <ele>876.834271</ele>
        <time>2020-08-05T10:59:51.379Z</time>
      </trkpt>
      <trkpt lat="38.809479" lon="-2.103014">
        <ele>877.755009</ele>
        <time>2020-08-05T10:59:56.363Z</time>
      </trkpt>
      <trkpt lat="38.809467" lon="-2.103158">
        <ele>878.753174</ele>
        <time>2020-08-05T11:00:00.372Z</time>
      </trkpt>
      <trkpt lat="38.809464" lon="-2.103289">
        <ele>879.656469</ele>
        <time>2020-08-05T11:00:03.356Z</time>
      </trkpt>
      <trkpt lat="38.809434" lon="-2.103428">
        <ele>880.650582</ele>
        <time>2020-08-05T11:00:06.378Z</time>
      </trkpt>
      <trkpt lat="38.809393" lon="-2.103583">
        <ele>881.778778</ele>
        <time>2020-08-05T11:00:09.364Z</time>
      </trkpt>
      <trkpt lat="38.809359" lon="-2.103742">
        <ele>882.915186</ele>
        <time>2020-08-05T11:00:12.378Z</time>
      </trkpt>
      <trkpt lat="38.809331" lon="-2.103914">
        <ele>884.126275</ele>
        <time>2020-08-05T11:00:15.357Z</time>
      </trkpt>
      <trkpt lat="38.809311" lon="-2.104031">
        <ele>884.951863</ele>
        <time>2020-08-05T11:00:17.370Z</time>
      </trkpt>
      <trkpt lat="38.809293" lon="-2.104147">
        <ele>885.268621</ele>
        <time>2020-08-05T11:00:19.373Z</time>
      </trkpt>
      <trkpt lat="38.809272" lon="-2.104271">
        <ele>885.034616</ele>
        <time>2020-08-05T11:00:21.377Z</time>
      </trkpt>
      <trkpt lat="38.809249" lon="-2.104390">
        <ele>884.808519</ele>
        <time>2020-08-05T11:00:23.361Z</time>
      </trkpt>
      <trkpt lat="38.809219" lon="-2.104547">
        <ele>884.510418</ele>
        <time>2020-08-05T11:00:26.361Z</time>
      </trkpt>
      <trkpt lat="38.809172" lon="-2.104705">
        <ele>884.198543</ele>
        <time>2020-08-05T11:00:29.378Z</time>
      </trkpt>
      <trkpt lat="38.809118" lon="-2.104859">
        <ele>883.887124</ele>
        <time>2020-08-05T11:00:32.369Z</time>
      </trkpt>
      <trkpt lat="38.809068" lon="-2.105015">
        <ele>883.576060</ele>
        <time>2020-08-05T11:00:35.370Z</time>
      </trkpt>
      <trkpt lat="38.809006" lon="-2.105148">
        <ele>883.290258</ele>
        <time>2020-08-05T11:00:38.372Z</time>
      </trkpt>
      <trkpt lat="38.808937" lon="-2.105282">
        <ele>882.994070</ele>
        <time>2020-08-05T11:00:41.365Z</time>
      </trkpt>
      <trkpt lat="38.808870" lon="-2.105410">
        <ele>882.709715</ele>
        <time>2020-08-05T11:00:44.369Z</time>
      </trkpt>
      <trkpt lat="38.808802" lon="-2.105544">
        <ele>882.414825</ele>
        <time>2020-08-05T11:00:47.361Z</time>
      </trkpt>
      <trkpt lat="38.808736" lon="-2.105671">
        <ele>882.133318</ele>
        <time>2020-08-05T11:00:50.372Z</time>
      </trkpt>
      <trkpt lat="38.808673" lon="-2.105788">
        <ele>881.871057</ele>
        <time>2020-08-05T11:00:53.369Z</time>
      </trkpt>
      <trkpt lat="38.808605" lon="-2.105913">
        <ele>881.589928</ele>
        <time>2020-08-05T11:00:56.372Z</time>
      </trkpt>
      <trkpt lat="38.808536" lon="-2.106034">
        <ele>881.313424</ele>
        <time>2020-08-05T11:00:59.369Z</time>
      </trkpt>
      <trkpt lat="38.808471" lon="-2.106148">
        <ele>881.145397</ele>
        <time>2020-08-05T11:01:02.360Z</time>
      </trkpt>
      <trkpt lat="38.808411" lon="-2.106258">
        <ele>881.253595</ele>
        <time>2020-08-05T11:01:05.366Z</time>
      </trkpt>
      <trkpt lat="38.808346" lon="-2.106359">
        <ele>881.359150</ele>
        <time>2020-08-05T11:01:08.380Z</time>
      </trkpt>
      <trkpt lat="38.808283" lon="-2.106453">
        <ele>881.459059</ele>
        <time>2020-08-05T11:01:11.435Z</time>
      </trkpt>
      <trkpt lat="38.808220" lon="-2.106544">
        <ele>881.557148</ele>
        <time>2020-08-05T11:01:14.368Z</time>
      </trkpt>
      <trkpt lat="38.808139" lon="-2.106642">
        <ele>881.672267</ele>
        <time>2020-08-05T11:01:18.355Z</time>
      </trkpt>
      <trkpt lat="38.808123" lon="-2.106785">
        <ele>881.788681</ele>
        <time>2020-08-05T11:01:22.359Z</time>
      </trkpt>
      <trkpt lat="38.808169" lon="-2.106926">
        <ele>881.911857</ele>
        <time>2020-08-05T11:01:25.370Z</time>
      </trkpt>
      <trkpt lat="38.808213" lon="-2.107036">
        <ele>882.011493</ele>
        <time>2020-08-05T11:01:27.366Z</time>
      </trkpt>
      <trkpt lat="38.808253" lon="-2.107158">
        <ele>882.118150</ele>
        <time>2020-08-05T11:01:29.368Z</time>
      </trkpt>
      <trkpt lat="38.808291" lon="-2.107290">
        <ele>882.231545</ele>
        <time>2020-08-05T11:01:31.360Z</time>
      </trkpt>
      <trkpt lat="38.808325" lon="-2.107421">
        <ele>882.342808</ele>
        <time>2020-08-05T11:01:33.362Z</time>
      </trkpt>
      <trkpt lat="38.808362" lon="-2.107570">
        <ele>882.468823</ele>
        <time>2020-08-05T11:01:35.366Z</time>
      </trkpt>
      <trkpt lat="38.808403" lon="-2.107714">
        <ele>882.592364</ele>
        <time>2020-08-05T11:01:37.365Z</time>
      </trkpt>
      <trkpt lat="38.808443" lon="-2.107861">
        <ele>882.717833</ele>
        <time>2020-08-05T11:01:39.363Z</time>
      </trkpt>
      <trkpt lat="38.808478" lon="-2.108003">
        <ele>882.837847</ele>
        <time>2020-08-05T11:01:41.358Z</time>
      </trkpt>
      <trkpt lat="38.808519" lon="-2.108154">
        <ele>882.966700</ele>
        <time>2020-08-05T11:01:43.368Z</time>
      </trkpt>
      <trkpt lat="38.808560" lon="-2.108303">
        <ele>881.803850</ele>
        <time>2020-08-05T11:01:45.355Z</time>
      </trkpt>
      <trkpt lat="38.808596" lon="-2.108444">
        <ele>880.602516</ele>
        <time>2020-08-05T11:01:47.378Z</time>
      </trkpt>
      <trkpt lat="38.808639" lon="-2.108585">
        <ele>879.376587</ele>
        <time>2020-08-05T11:01:49.365Z</time>
      </trkpt>
      <trkpt lat="38.808672" lon="-2.108728">
        <ele>878.169074</ele>
        <time>2020-08-05T11:01:51.368Z</time>
      </trkpt>
      <trkpt lat="38.808709" lon="-2.108864">
        <ele>877.002761</ele>
        <time>2020-08-05T11:01:53.369Z</time>
      </trkpt>
      <trkpt lat="38.808739" lon="-2.108986">
        <ele>875.966965</ele>
        <time>2020-08-05T11:01:55.375Z</time>
      </trkpt>
      <trkpt lat="38.808769" lon="-2.109106">
        <ele>874.946601</ele>
        <time>2020-08-05T11:01:57.368Z</time>
      </trkpt>
      <trkpt lat="38.808812" lon="-2.109271">
        <ele>873.537941</ele>
        <time>2020-08-05T11:02:00.368Z</time>
      </trkpt>
      <trkpt lat="38.808840" lon="-2.109382">
        <ele>872.593308</ele>
        <time>2020-08-05T11:02:02.357Z</time>
      </trkpt>
      <trkpt lat="38.808866" lon="-2.109496">
        <ele>871.631581</ele>
        <time>2020-08-05T11:02:04.360Z</time>
      </trkpt>
      <trkpt lat="38.808904" lon="-2.109655">
        <ele>870.285044</ele>
        <time>2020-08-05T11:02:07.369Z</time>
      </trkpt>
      <trkpt lat="38.808949" lon="-2.109824">
        <ele>868.839050</ele>
        <time>2020-08-05T11:02:10.373Z</time>
      </trkpt>
      <trkpt lat="38.808975" lon="-2.109941">
        <ele>867.853989</ele>
        <time>2020-08-05T11:02:12.375Z</time>
      </trkpt>
      <trkpt lat="38.809014" lon="-2.110109">
        <ele>866.434696</ele>
        <time>2020-08-05T11:02:15.371Z</time>
      </trkpt>
      <trkpt lat="38.809058" lon="-2.110212">
        <ele>865.483662</ele>
        <time>2020-08-05T11:02:17.372Z</time>
      </trkpt>
      <trkpt lat="38.809093" lon="-2.110335">
        <ele>864.423469</ele>
        <time>2020-08-05T11:02:19.363Z</time>
      </trkpt>
      <trkpt lat="38.809127" lon="-2.110456">
        <ele>864.603739</ele>
        <time>2020-08-05T11:02:21.364Z</time>
      </trkpt>
      <trkpt lat="38.809153" lon="-2.110582">
        <ele>864.970243</ele>
        <time>2020-08-05T11:02:23.359Z</time>
      </trkpt>
      <trkpt lat="38.809185" lon="-2.110704">
        <ele>865.332200</ele>
        <time>2020-08-05T11:02:25.368Z</time>
      </trkpt>
      <trkpt lat="38.809214" lon="-2.110832">
        <ele>865.707019</ele>
        <time>2020-08-05T11:02:27.364Z</time>
      </trkpt>
      <trkpt lat="38.809255" lon="-2.110951">
        <ele>866.072876</ele>
        <time>2020-08-05T11:02:29.362Z</time>
      </trkpt>
      <trkpt lat="38.809289" lon="-2.111080">
        <ele>866.455790</ele>
        <time>2020-08-05T11:02:31.366Z</time>
      </trkpt>
      <trkpt lat="38.809318" lon="-2.111220">
        <ele>866.863118</ele>
        <time>2020-08-05T11:02:33.355Z</time>
      </trkpt>
      <trkpt lat="38.809353" lon="-2.111365">
        <ele>867.289947</ele>
        <time>2020-08-05T11:02:35.359Z</time>
      </trkpt>
      <trkpt lat="38.809386" lon="-2.111507">
        <ele>867.706606</ele>
        <time>2020-08-05T11:02:37.368Z</time>
      </trkpt>
      <trkpt lat="38.809423" lon="-2.111646">
        <ele>868.119626</ele>
        <time>2020-08-05T11:02:39.356Z</time>
      </trkpt>
      <trkpt lat="38.809455" lon="-2.111785">
        <ele>868.527170</ele>
        <time>2020-08-05T11:02:41.375Z</time>
      </trkpt>
      <trkpt lat="38.809493" lon="-2.111930">
        <ele>868.957326</ele>
        <time>2020-08-05T11:02:43.381Z</time>
      </trkpt>
      <trkpt lat="38.809526" lon="-2.112078">
        <ele>869.390178</ele>
        <time>2020-08-05T11:02:45.380Z</time>
      </trkpt>
      <trkpt lat="38.809554" lon="-2.112230">
        <ele>869.829356</ele>
        <time>2020-08-05T11:02:47.381Z</time>
      </trkpt>
      <trkpt lat="38.809596" lon="-2.112382">
        <ele>870.282829</ele>
        <time>2020-08-05T11:02:49.374Z</time>
      </trkpt>
      <trkpt lat="38.809634" lon="-2.112536">
        <ele>870.737041</ele>
        <time>2020-08-05T11:02:51.368Z</time>
      </trkpt>
      <trkpt lat="38.809681" lon="-2.112687">
        <ele>870.976654</ele>
        <time>2020-08-05T11:02:53.376Z</time>
      </trkpt>
      <trkpt lat="38.809723" lon="-2.112850">
        <ele>871.206347</ele>
        <time>2020-08-05T11:02:55.367Z</time>
      </trkpt>
      <trkpt lat="38.809765" lon="-2.113015">
        <ele>871.438582</ele>
        <time>2020-08-05T11:02:57.379Z</time>
      </trkpt>
      <trkpt lat="38.809808" lon="-2.113179">
        <ele>871.670088</ele>
        <time>2020-08-05T11:02:59.377Z</time>
      </trkpt>
      <trkpt lat="38.809849" lon="-2.113345">
        <ele>871.903070</ele>
        <time>2020-08-05T11:03:01.373Z</time>
      </trkpt>
      <trkpt lat="38.809885" lon="-2.113512">
        <ele>872.134893</ele>
        <time>2020-08-05T11:03:03.391Z</time>
      </trkpt>
      <trkpt lat="38.809933" lon="-2.113680">
        <ele>872.374295</ele>
        <time>2020-08-05T11:03:05.365Z</time>
      </trkpt>
      <trkpt lat="38.809979" lon="-2.113853">
        <ele>872.618857</ele>
        <time>2020-08-05T11:03:07.381Z</time>
      </trkpt>
      <trkpt lat="38.810018" lon="-2.114023">
        <ele>872.855954</ele>
        <time>2020-08-05T11:03:09.375Z</time>
      </trkpt>
      <trkpt lat="38.810062" lon="-2.114193">
        <ele>873.095616</ele>
        <time>2020-08-05T11:03:11.371Z</time>
      </trkpt>
      <trkpt lat="38.810111" lon="-2.114365">
        <ele>873.340633</ele>
        <time>2020-08-05T11:03:13.394Z</time>
      </trkpt>
      <trkpt lat="38.810157" lon="-2.114548">
        <ele>873.597893</ele>
        <time>2020-08-05T11:03:15.367Z</time>
      </trkpt>
      <trkpt lat="38.810206" lon="-2.114732">
        <ele>873.858046</ele>
        <time>2020-08-05T11:03:17.368Z</time>
      </trkpt>
      <trkpt lat="38.810257" lon="-2.114917">
        <ele>873.535086</ele>
        <time>2020-08-05T11:03:19.369Z</time>
      </trkpt>
      <trkpt lat="38.810319" lon="-2.115108">
        <ele>873.171894</ele>
        <time>2020-08-05T11:03:21.362Z</time>
      </trkpt>
      <trkpt lat="38.810365" lon="-2.115297">
        <ele>872.824335</ele>
        <time>2020-08-05T11:03:23.396Z</time>
      </trkpt>
      <trkpt lat="38.810419" lon="-2.115484">
        <ele>872.474278</ele>
        <time>2020-08-05T11:03:25.379Z</time>
      </trkpt>
      <trkpt lat="38.810463" lon="-2.115673">
        <ele>872.128036</ele>
        <time>2020-08-05T11:03:27.379Z</time>
      </trkpt>
      <trkpt lat="38.810513" lon="-2.115870">
        <ele>871.764360</ele>
        <time>2020-08-05T11:03:29.379Z</time>
      </trkpt>
      <trkpt lat="38.810570" lon="-2.116062">
        <ele>871.403711</ele>
        <time>2020-08-05T11:03:31.367Z</time>
      </trkpt>
      <trkpt lat="38.810624" lon="-2.116262">
        <ele>871.032173</ele>
        <time>2020-08-05T11:03:33.366Z</time>
      </trkpt>
      <trkpt lat="38.810677" lon="-2.116452">
        <ele>870.677941</ele>
        <time>2020-08-05T11:03:35.370Z</time>
      </trkpt>
      <trkpt lat="38.810725" lon="-2.116640">
        <ele>870.330682</ele>
        <time>2020-08-05T11:03:37.366Z</time>
      </trkpt>
      <trkpt lat="38.810776" lon="-2.116840">
        <ele>869.961302</ele>
        <time>2020-08-05T11:03:39.369Z</time>
      </trkpt>
      <trkpt lat="38.810825" lon="-2.117028">
        <ele>869.642907</ele>
        <time>2020-08-05T11:03:41.356Z</time>
      </trkpt>
      <trkpt lat="38.810879" lon="-2.117230">
        <ele>869.322840</ele>
        <time>2020-08-05T11:03:43.377Z</time>
      </trkpt>
      <trkpt lat="38.810923" lon="-2.117427">
        <ele>869.015698</ele>
        <time>2020-08-05T11:03:45.357Z</time>
      </trkpt>
      <trkpt lat="38.810985" lon="-2.117612">
        <ele>868.713874</ele>
        <time>2020-08-05T11:03:47.357Z</time>
      </trkpt>
      <trkpt lat="38.811031" lon="-2.117804">
        <ele>868.412821</ele>
        <time>2020-08-05T11:03:49.369Z</time>
      </trkpt>
      <trkpt lat="38.811078" lon="-2.117976">
        <ele>868.139647</ele>
        <time>2020-08-05T11:03:51.372Z</time>
      </trkpt>
      <trkpt lat="38.811125" lon="-2.118143">
        <ele>867.873532</ele>
        <time>2020-08-05T11:03:53.355Z</time>
      </trkpt>
      <trkpt lat="38.811164" lon="-2.118308">
        <ele>867.615114</ele>
        <time>2020-08-05T11:03:55.357Z</time>
      </trkpt>
      <trkpt lat="38.811197" lon="-2.118466">
        <ele>867.369954</ele>
        <time>2020-08-05T11:03:57.385Z</time>
      </trkpt>
      <trkpt lat="38.811236" lon="-2.118616">
        <ele>867.132959</ele>
        <time>2020-08-05T11:03:59.368Z</time>
      </trkpt>
      <trkpt lat="38.811271" lon="-2.118766">
        <ele>866.898286</ele>
        <time>2020-08-05T11:04:01.371Z</time>
      </trkpt>
      <trkpt lat="38.811310" lon="-2.118902">
        <ele>866.681093</ele>
        <time>2020-08-05T11:04:03.367Z</time>
      </trkpt>
      <trkpt lat="38.811347" lon="-2.119030">
        <ele>866.476481</ele>
        <time>2020-08-05T11:04:05.352Z</time>
      </trkpt>
      <trkpt lat="38.811376" lon="-2.119161">
        <ele>866.395621</ele>
        <time>2020-08-05T11:04:07.362Z</time>
      </trkpt>
      <trkpt lat="38.811401" lon="-2.119287">
        <ele>866.487391</ele>
        <time>2020-08-05T11:04:09.357Z</time>
      </trkpt>
      <trkpt lat="38.811439" lon="-2.119404">
        <ele>866.576856</ele>
        <time>2020-08-05T11:04:11.366Z</time>
      </trkpt>
      <trkpt lat="38.811468" lon="-2.119517">
        <ele>866.660826</ele>
        <time>2020-08-05T11:04:13.357Z</time>
      </trkpt>
      <trkpt lat="38.811493" lon="-2.119640">
        <ele>866.750545</ele>
        <time>2020-08-05T11:04:15.350Z</time>
      </trkpt>
      <trkpt lat="38.811525" lon="-2.119759">
        <ele>866.839397</ele>
        <time>2020-08-05T11:04:17.355Z</time>
      </trkpt>
      <trkpt lat="38.811557" lon="-2.119885">
        <ele>866.932933</ele>
        <time>2020-08-05T11:04:19.363Z</time>
      </trkpt>
      <trkpt lat="38.811595" lon="-2.120008">
        <ele>867.026321</ele>
        <time>2020-08-05T11:04:21.378Z</time>
      </trkpt>
      <trkpt lat="38.811624" lon="-2.120132">
        <ele>867.117698</ele>
        <time>2020-08-05T11:04:23.378Z</time>
      </trkpt>
      <trkpt lat="38.811658" lon="-2.120250">
        <ele>867.206494</ele>
        <time>2020-08-05T11:04:25.378Z</time>
      </trkpt>
      <trkpt lat="38.811693" lon="-2.120371">
        <ele>867.297591</ele>
        <time>2020-08-05T11:04:27.377Z</time>
      </trkpt>
      <trkpt lat="38.811725" lon="-2.120502">
        <ele>867.394488</ele>
        <time>2020-08-05T11:04:29.371Z</time>
      </trkpt>
      <trkpt lat="38.811752" lon="-2.120633">
        <ele>867.490128</ele>
        <time>2020-08-05T11:04:31.381Z</time>
      </trkpt>
      <trkpt lat="38.811782" lon="-2.120762">
        <ele>867.585145</ele>
        <time>2020-08-05T11:04:33.371Z</time>
      </trkpt>
      <trkpt lat="38.811827" lon="-2.120888">
        <ele>867.682972</ele>
        <time>2020-08-05T11:04:35.372Z</time>
      </trkpt>
      <trkpt lat="38.811867" lon="-2.121028">
        <ele>867.788217</ele>
        <time>2020-08-05T11:04:37.365Z</time>
      </trkpt>
      <trkpt lat="38.811892" lon="-2.121165">
        <ele>867.887528</ele>
        <time>2020-08-05T11:04:39.384Z</time>
      </trkpt>
      <trkpt lat="38.811932" lon="-2.121300">
        <ele>867.986777</ele>
        <time>2020-08-05T11:04:41.380Z</time>
      </trkpt>
      <trkpt lat="38.811960" lon="-2.121444">
        <ele>868.022890</ele>
        <time>2020-08-05T11:04:43.366Z</time>
      </trkpt>
      <trkpt lat="38.811999" lon="-2.121584">
        <ele>868.059068</ele>
        <time>2020-08-05T11:04:45.372Z</time>
      </trkpt>
      <trkpt lat="38.812034" lon="-2.121729">
        <ele>868.096004</ele>
        <time>2020-08-05T11:04:47.357Z</time>
      </trkpt>
      <trkpt lat="38.812073" lon="-2.121876">
        <ele>868.133789</ele>
        <time>2020-08-05T11:04:49.350Z</time>
      </trkpt>
      <trkpt lat="38.812113" lon="-2.122029">
        <ele>868.173058</ele>
        <time>2020-08-05T11:04:51.376Z</time>
      </trkpt>
      <trkpt lat="38.812152" lon="-2.122181">
        <ele>868.211997</ele>
        <time>2020-08-05T11:04:53.379Z</time>
      </trkpt>
      <trkpt lat="38.812195" lon="-2.122328">
        <ele>868.250203</ele>
        <time>2020-08-05T11:04:55.362Z</time>
      </trkpt>
      <trkpt lat="38.812227" lon="-2.122465">
        <ele>868.285004</ele>
        <time>2020-08-05T11:04:57.361Z</time>
      </trkpt>
      <trkpt lat="38.812275" lon="-2.122611">
        <ele>868.323562</ele>
        <time>2020-08-05T11:04:59.361Z</time>
      </trkpt>
      <trkpt lat="38.812308" lon="-2.122763">
        <ele>868.361957</ele>
        <time>2020-08-05T11:05:01.376Z</time>
      </trkpt>
      <trkpt lat="38.812350" lon="-2.122911">
        <ele>868.400283</ele>
        <time>2020-08-05T11:05:03.369Z</time>
      </trkpt>
      <trkpt lat="38.812385" lon="-2.123058">
        <ele>868.437684</ele>
        <time>2020-08-05T11:05:05.363Z</time>
      </trkpt>
      <trkpt lat="38.812419" lon="-2.123204">
        <ele>868.474762</ele>
        <time>2020-08-05T11:05:07.360Z</time>
      </trkpt>
      <trkpt lat="38.812458" lon="-2.123350">
        <ele>868.512317</ele>
        <time>2020-08-05T11:05:09.380Z</time>
      </trkpt>
      <trkpt lat="38.812505" lon="-2.123495">
        <ele>868.593357</ele>
        <time>2020-08-05T11:05:11.379Z</time>
      </trkpt>
      <trkpt lat="38.812544" lon="-2.123640">
        <ele>869.087552</ele>
        <time>2020-08-05T11:05:13.367Z</time>
      </trkpt>
      <trkpt lat="38.812585" lon="-2.123783">
        <ele>869.578453</ele>
        <time>2020-08-05T11:05:15.374Z</time>
      </trkpt>
      <trkpt lat="38.812621" lon="-2.123928">
        <ele>870.068740</ele>
        <time>2020-08-05T11:05:17.360Z</time>
      </trkpt>
      <trkpt lat="38.812653" lon="-2.124071">
        <ele>870.548065</ele>
        <time>2020-08-05T11:05:19.357Z</time>
      </trkpt>
      <trkpt lat="38.812688" lon="-2.124213">
        <ele>871.027888</ele>
        <time>2020-08-05T11:05:21.352Z</time>
      </trkpt>
      <trkpt lat="38.812732" lon="-2.124358">
        <ele>871.529208</ele>
        <time>2020-08-05T11:05:23.387Z</time>
      </trkpt>
      <trkpt lat="38.812766" lon="-2.124500">
        <ele>872.007800</ele>
        <time>2020-08-05T11:05:25.379Z</time>
      </trkpt>
      <trkpt lat="38.812800" lon="-2.124640">
        <ele>872.480236</ele>
        <time>2020-08-05T11:05:27.375Z</time>
      </trkpt>
      <trkpt lat="38.812840" lon="-2.124782">
        <ele>872.966693</ele>
        <time>2020-08-05T11:05:29.358Z</time>
      </trkpt>
      <trkpt lat="38.812879" lon="-2.124929">
        <ele>873.466981</ele>
        <time>2020-08-05T11:05:31.375Z</time>
      </trkpt>
      <trkpt lat="38.812928" lon="-2.125066">
        <ele>873.952628</ele>
        <time>2020-08-05T11:05:33.377Z</time>
      </trkpt>
      <trkpt lat="38.812961" lon="-2.125215">
        <ele>874.451674</ele>
        <time>2020-08-05T11:05:35.360Z</time>
      </trkpt>
      <trkpt lat="38.812999" lon="-2.125363">
        <ele>874.953702</ele>
        <time>2020-08-05T11:05:37.368Z</time>
      </trkpt>
      <trkpt lat="38.813035" lon="-2.125514">
        <ele>875.462438</ele>
        <time>2020-08-05T11:05:39.373Z</time>
      </trkpt>
      <trkpt lat="38.813073" lon="-2.125664">
        <ele>875.970589</ele>
        <time>2020-08-05T11:05:41.369Z</time>
      </trkpt>
      <trkpt lat="38.813109" lon="-2.125811">
        <ele>875.895613</ele>
        <time>2020-08-05T11:05:43.387Z</time>
      </trkpt>
      <trkpt lat="38.813152" lon="-2.125960">
        <ele>875.802261</ele>
        <time>2020-08-05T11:05:45.357Z</time>
      </trkpt>
      <trkpt lat="38.813179" lon="-2.126107">
        <ele>875.713528</ele>
        <time>2020-08-05T11:05:47.372Z</time>
      </trkpt>
      <trkpt lat="38.813217" lon="-2.126250">
        <ele>875.624760</ele>
        <time>2020-08-05T11:05:49.370Z</time>
      </trkpt>
      <trkpt lat="38.813256" lon="-2.126400">
        <ele>875.531855</ele>
        <time>2020-08-05T11:05:51.362Z</time>
      </trkpt>
      <trkpt lat="38.813295" lon="-2.126537">
        <ele>875.446161</ele>
        <time>2020-08-05T11:05:53.367Z</time>
      </trkpt>
      <trkpt lat="38.813329" lon="-2.126682">
        <ele>875.357196</ele>
        <time>2020-08-05T11:05:55.366Z</time>
      </trkpt>
      <trkpt lat="38.813364" lon="-2.126831">
        <ele>875.265764</ele>
        <time>2020-08-05T11:05:57.360Z</time>
      </trkpt>
      <trkpt lat="38.813398" lon="-2.126978">
        <ele>875.175673</ele>
        <time>2020-08-05T11:05:59.379Z</time>
      </trkpt>
      <trkpt lat="38.813438" lon="-2.127123">
        <ele>875.085301</ele>
        <time>2020-08-05T11:06:01.354Z</time>
      </trkpt>
      <trkpt lat="38.813478" lon="-2.127265">
        <ele>874.996589</ele>
        <time>2020-08-05T11:06:03.360Z</time>
      </trkpt>
      <trkpt lat="38.813512" lon="-2.127425">
        <ele>874.899152</ele>
        <time>2020-08-05T11:06:05.360Z</time>
      </trkpt>
      <trkpt lat="38.813549" lon="-2.127574">
        <ele>874.807273</ele>
        <time>2020-08-05T11:06:07.359Z</time>
      </trkpt>
      <trkpt lat="38.813588" lon="-2.127721">
        <ele>874.716039</ele>
        <time>2020-08-05T11:06:09.374Z</time>
      </trkpt>
      <trkpt lat="38.813630" lon="-2.127871">
        <ele>874.619865</ele>
        <time>2020-08-05T11:06:11.364Z</time>
      </trkpt>
      <trkpt lat="38.813676" lon="-2.128019">
        <ele>874.480262</ele>
        <time>2020-08-05T11:06:13.367Z</time>
      </trkpt>
      <trkpt lat="38.813721" lon="-2.128168">
        <ele>874.340254</ele>
        <time>2020-08-05T11:06:15.372Z</time>
      </trkpt>
      <trkpt lat="38.813760" lon="-2.128333">
        <ele>874.189188</ele>
        <time>2020-08-05T11:06:17.365Z</time>
      </trkpt>
      <trkpt lat="38.813794" lon="-2.128484">
        <ele>874.051478</ele>
        <time>2020-08-05T11:06:19.360Z</time>
      </trkpt>
      <trkpt lat="38.813846" lon="-2.128636">
        <ele>873.906036</ele>
        <time>2020-08-05T11:06:21.374Z</time>
      </trkpt>
      <trkpt lat="38.813884" lon="-2.128799">
        <ele>873.756971</ele>
        <time>2020-08-05T11:06:23.358Z</time>
      </trkpt>
      <trkpt lat="38.813923" lon="-2.128954">
        <ele>873.614266</ele>
        <time>2020-08-05T11:06:25.375Z</time>
      </trkpt>
      <trkpt lat="38.813963" lon="-2.129118">
        <ele>873.463706</ele>
        <time>2020-08-05T11:06:27.361Z</time>
      </trkpt>
      <trkpt lat="38.814007" lon="-2.129282">
        <ele>873.311741</ele>
        <time>2020-08-05T11:06:29.360Z</time>
      </trkpt>
      <trkpt lat="38.814048" lon="-2.129444">
        <ele>873.162509</ele>
        <time>2020-08-05T11:06:31.355Z</time>
      </trkpt>
      <trkpt lat="38.814089" lon="-2.129608">
        <ele>873.011609</ele>
        <time>2020-08-05T11:06:33.354Z</time>
      </trkpt>
      <trkpt lat="38.814124" lon="-2.129776">
        <ele>872.859249</ele>
        <time>2020-08-05T11:06:35.375Z</time>
      </trkpt>
      <trkpt lat="38.814165" lon="-2.129945">
        <ele>872.704172</ele>
        <time>2020-08-05T11:06:37.370Z</time>
      </trkpt>
      <trkpt lat="38.814218" lon="-2.130115">
        <ele>872.520421</ele>
        <time>2020-08-05T11:06:39.805Z</time>
      </trkpt>
      <trkpt lat="38.814257" lon="-2.130298">
        <ele>872.291005</ele>
        <time>2020-08-05T11:06:41.788Z</time>
      </trkpt>
      <trkpt lat="38.814306" lon="-2.130469">
        <ele>872.070688</ele>
        <time>2020-08-05T11:06:43.792Z</time>
      </trkpt>
      <trkpt lat="38.814347" lon="-2.130639">
        <ele>871.855497</ele>
        <time>2020-08-05T11:06:45.783Z</time>
      </trkpt>
      <trkpt lat="38.814391" lon="-2.130813">
        <ele>871.634289</ele>
        <time>2020-08-05T11:06:47.808Z</time>
      </trkpt>
      <trkpt lat="38.814435" lon="-2.130980">
        <ele>871.421116</ele>
        <time>2020-08-05T11:06:49.778Z</time>
      </trkpt>
      <trkpt lat="38.814476" lon="-2.131149">
        <ele>871.207081</ele>
        <time>2020-08-05T11:06:51.779Z</time>
      </trkpt>
      <trkpt lat="38.814524" lon="-2.131316">
        <ele>870.991839</ele>
        <time>2020-08-05T11:06:53.787Z</time>
      </trkpt>
      <trkpt lat="38.814566" lon="-2.131471">
        <ele>870.793399</ele>
        <time>2020-08-05T11:06:55.788Z</time>
      </trkpt>
      <trkpt lat="38.814603" lon="-2.131632">
        <ele>870.590423</ele>
        <time>2020-08-05T11:06:57.785Z</time>
      </trkpt>
      <trkpt lat="38.814643" lon="-2.131787">
        <ele>870.392982</ele>
        <time>2020-08-05T11:06:59.793Z</time>
      </trkpt>
      <trkpt lat="38.814682" lon="-2.131936">
        <ele>870.202914</ele>
        <time>2020-08-05T11:07:01.779Z</time>
      </trkpt>
      <trkpt lat="38.814718" lon="-2.132082">
        <ele>870.017738</ele>
        <time>2020-08-05T11:07:03.798Z</time>
      </trkpt>
      <trkpt lat="38.814753" lon="-2.132225">
        <ele>869.836490</ele>
        <time>2020-08-05T11:07:05.797Z</time>
      </trkpt>
      <trkpt lat="38.814793" lon="-2.132366">
        <ele>870.083255</ele>
        <time>2020-08-05T11:07:07.790Z</time>
      </trkpt>
      <trkpt lat="38.814832" lon="-2.132506">
        <ele>870.388505</ele>
        <time>2020-08-05T11:07:09.779Z</time>
      </trkpt>
      <trkpt lat="38.814867" lon="-2.132650">
        <ele>870.698199</ele>
        <time>2020-08-05T11:07:11.784Z</time>
      </trkpt>
      <trkpt lat="38.814907" lon="-2.132793">
        <ele>871.010136</ele>
        <time>2020-08-05T11:07:13.790Z</time>
      </trkpt>
      <trkpt lat="38.814944" lon="-2.132936">
        <ele>871.319490</ele>
        <time>2020-08-05T11:07:15.793Z</time>
      </trkpt>
      <trkpt lat="38.814988" lon="-2.133079">
        <ele>871.635144</ele>
        <time>2020-08-05T11:07:17.785Z</time>
      </trkpt>
      <trkpt lat="38.815025" lon="-2.133223">
        <ele>871.946448</ele>
        <time>2020-08-05T11:07:19.780Z</time>
      </trkpt>
      <trkpt lat="38.815061" lon="-2.133371">
        <ele>872.264766</ele>
        <time>2020-08-05T11:07:21.789Z</time>
      </trkpt>
      <trkpt lat="38.815096" lon="-2.133518">
        <ele>872.580344</ele>
        <time>2020-08-05T11:07:23.785Z</time>
      </trkpt>
      <trkpt lat="38.815132" lon="-2.133672">
        <ele>872.910441</ele>
        <time>2020-08-05T11:07:25.787Z</time>
      </trkpt>
      <trkpt lat="38.815168" lon="-2.133813">
        <ele>873.215070</ele>
        <time>2020-08-05T11:07:27.792Z</time>
      </trkpt>
      <trkpt lat="38.815207" lon="-2.133954">
        <ele>873.522253</ele>
        <time>2020-08-05T11:07:29.789Z</time>
      </trkpt>
      <trkpt lat="38.815250" lon="-2.134092">
        <ele>873.827392</ele>
        <time>2020-08-05T11:07:31.783Z</time>
      </trkpt>
      <trkpt lat="38.815285" lon="-2.134234">
        <ele>874.133168</ele>
        <time>2020-08-05T11:07:33.781Z</time>
      </trkpt>
      <trkpt lat="38.815320" lon="-2.134376">
        <ele>874.438943</ele>
        <time>2020-08-05T11:07:35.795Z</time>
      </trkpt>
      <trkpt lat="38.815354" lon="-2.134516">
        <ele>873.839160</ele>
        <time>2020-08-05T11:07:37.812Z</time>
      </trkpt>
      <trkpt lat="38.815392" lon="-2.134656">
        <ele>872.676629</ele>
        <time>2020-08-05T11:07:39.801Z</time>
      </trkpt>
      <trkpt lat="38.815428" lon="-2.134801">
        <ele>871.483267</ele>
        <time>2020-08-05T11:07:41.789Z</time>
      </trkpt>
      <trkpt lat="38.815466" lon="-2.134942">
        <ele>870.313329</ele>
        <time>2020-08-05T11:07:43.799Z</time>
      </trkpt>
      <trkpt lat="38.815502" lon="-2.135087">
        <ele>869.119968</ele>
        <time>2020-08-05T11:07:45.797Z</time>
      </trkpt>
      <trkpt lat="38.815545" lon="-2.135232">
        <ele>867.903367</ele>
        <time>2020-08-05T11:07:47.798Z</time>
      </trkpt>
      <trkpt lat="38.815583" lon="-2.135367">
        <ele>866.777791</ele>
        <time>2020-08-05T11:07:49.784Z</time>
      </trkpt>
      <trkpt lat="38.815617" lon="-2.135517">
        <ele>865.552791</ele>
        <time>2020-08-05T11:07:51.795Z</time>
      </trkpt>
      <trkpt lat="38.815657" lon="-2.135666">
        <ele>864.316989</ele>
        <time>2020-08-05T11:07:53.800Z</time>
      </trkpt>
      <trkpt lat="38.815698" lon="-2.135814">
        <ele>863.085264</ele>
        <time>2020-08-05T11:07:55.815Z</time>
      </trkpt>
      <trkpt lat="38.815738" lon="-2.135960">
        <ele>861.871680</ele>
        <time>2020-08-05T11:07:57.808Z</time>
      </trkpt>
      <trkpt lat="38.815777" lon="-2.136112">
        <ele>860.616799</ele>
        <time>2020-08-05T11:07:59.808Z</time>
      </trkpt>
      <trkpt lat="38.815816" lon="-2.136263">
        <ele>859.369364</ele>
        <time>2020-08-05T11:08:01.797Z</time>
      </trkpt>
      <trkpt lat="38.815855" lon="-2.136413">
        <ele>858.129371</ele>
        <time>2020-08-05T11:08:03.803Z</time>
      </trkpt>
      <trkpt lat="38.815896" lon="-2.136562">
        <ele>856.890258</ele>
        <time>2020-08-05T11:08:05.790Z</time>
      </trkpt>
      <trkpt lat="38.815935" lon="-2.136714">
        <ele>856.376138</ele>
        <time>2020-08-05T11:08:07.784Z</time>
      </trkpt>
      <trkpt lat="38.815975" lon="-2.136875">
        <ele>856.253881</ele>
        <time>2020-08-05T11:08:09.808Z</time>
      </trkpt>
      <trkpt lat="38.816015" lon="-2.137026">
        <ele>856.138497</ele>
        <time>2020-08-05T11:08:11.799Z</time>
      </trkpt>
      <trkpt lat="38.816056" lon="-2.137184">
        <ele>856.018016</ele>
        <time>2020-08-05T11:08:13.795Z</time>
      </trkpt>
      <trkpt lat="38.816095" lon="-2.137337">
        <ele>855.901553</ele>
        <time>2020-08-05T11:08:15.799Z</time>
      </trkpt>
      <trkpt lat="38.816135" lon="-2.137486">
        <ele>855.787537</ele>
        <time>2020-08-05T11:08:17.784Z</time>
      </trkpt>
      <trkpt lat="38.816171" lon="-2.137641">
        <ele>855.670524</ele>
        <time>2020-08-05T11:08:19.812Z</time>
      </trkpt>
      <trkpt lat="38.816217" lon="-2.137790">
        <ele>855.554574</ele>
        <time>2020-08-05T11:08:21.784Z</time>
      </trkpt>
      <trkpt lat="38.816259" lon="-2.137941">
        <ele>855.438578</ele>
        <time>2020-08-05T11:08:23.790Z</time>
      </trkpt>
      <trkpt lat="38.816309" lon="-2.138094">
        <ele>855.318546</ele>
        <time>2020-08-05T11:08:25.785Z</time>
      </trkpt>
      <trkpt lat="38.816355" lon="-2.138254">
        <ele>855.195163</ele>
        <time>2020-08-05T11:08:27.802Z</time>
      </trkpt>
      <trkpt lat="38.816401" lon="-2.138409">
        <ele>855.075167</ele>
        <time>2020-08-05T11:08:29.788Z</time>
      </trkpt>
      <trkpt lat="38.816443" lon="-2.138572">
        <ele>854.950962</ele>
        <time>2020-08-05T11:08:31.791Z</time>
      </trkpt>
      <trkpt lat="38.816482" lon="-2.138733">
        <ele>854.828985</ele>
        <time>2020-08-05T11:08:33.789Z</time>
      </trkpt>
      <trkpt lat="38.816526" lon="-2.138901">
        <ele>854.462347</ele>
        <time>2020-08-05T11:08:35.785Z</time>
      </trkpt>
      <trkpt lat="38.816578" lon="-2.139068">
        <ele>853.947336</ele>
        <time>2020-08-05T11:08:37.792Z</time>
      </trkpt>
      <trkpt lat="38.816625" lon="-2.139240">
        <ele>853.425369</ele>
        <time>2020-08-05T11:08:39.792Z</time>
      </trkpt>
      <trkpt lat="38.816676" lon="-2.139411">
        <ele>852.901029</ele>
        <time>2020-08-05T11:08:41.787Z</time>
      </trkpt>
      <trkpt lat="38.816724" lon="-2.139585">
        <ele>852.372440</ele>
        <time>2020-08-05T11:08:43.777Z</time>
      </trkpt>
      <trkpt lat="38.816767" lon="-2.139761">
        <ele>851.844234</ele>
        <time>2020-08-05T11:08:45.794Z</time>
      </trkpt>
      <trkpt lat="38.816811" lon="-2.139933">
        <ele>851.325813</ele>
        <time>2020-08-05T11:08:47.794Z</time>
      </trkpt>
      <trkpt lat="38.816855" lon="-2.140098">
        <ele>850.826399</ele>
        <time>2020-08-05T11:08:49.790Z</time>
      </trkpt>
      <trkpt lat="38.816897" lon="-2.140262">
        <ele>850.332037</ele>
        <time>2020-08-05T11:08:51.792Z</time>
      </trkpt>
      <trkpt lat="38.816932" lon="-2.140424">
        <ele>849.850617</ele>
        <time>2020-08-05T11:08:53.787Z</time>
      </trkpt>
      <trkpt lat="38.816967" lon="-2.140582">
        <ele>849.380226</ele>
        <time>2020-08-05T11:08:55.792Z</time>
      </trkpt>
      <trkpt lat="38.817001" lon="-2.140746">
        <ele>848.894243</ele>
        <time>2020-08-05T11:08:57.791Z</time>
      </trkpt>
      <trkpt lat="38.817040" lon="-2.140910">
        <ele>848.403214</ele>
        <time>2020-08-05T11:08:59.791Z</time>
      </trkpt>
      <trkpt lat="38.817082" lon="-2.141067">
        <ele>848.007033</ele>
        <time>2020-08-05T11:09:01.796Z</time>
      </trkpt>
      <trkpt lat="38.817125" lon="-2.141228">
        <ele>847.678572</ele>
        <time>2020-08-05T11:09:03.782Z</time>
      </trkpt>
      <trkpt lat="38.817159" lon="-2.141384">
        <ele>847.365951</ele>
        <time>2020-08-05T11:09:05.782Z</time>
      </trkpt>
      <trkpt lat="38.817204" lon="-2.141543">
        <ele>847.039482</ele>
        <time>2020-08-05T11:09:07.783Z</time>
      </trkpt>
      <trkpt lat="38.817249" lon="-2.141700">
        <ele>846.716637</ele>
        <time>2020-08-05T11:09:09.792Z</time>
      </trkpt>
      <trkpt lat="38.817295" lon="-2.141857">
        <ele>846.392930</ele>
        <time>2020-08-05T11:09:11.783Z</time>
      </trkpt>
      <trkpt lat="38.817332" lon="-2.142012">
        <ele>846.080073</ele>
        <time>2020-08-05T11:09:13.785Z</time>
      </trkpt>
      <trkpt lat="38.817374" lon="-2.142169">
        <ele>845.759718</ele>
        <time>2020-08-05T11:09:15.788Z</time>
      </trkpt>
      <trkpt lat="38.817414" lon="-2.142321">
        <ele>845.450096</ele>
        <time>2020-08-05T11:09:17.781Z</time>
      </trkpt>
      <trkpt lat="38.817451" lon="-2.142486">
        <ele>845.118739</ele>
        <time>2020-08-05T11:09:19.780Z</time>
      </trkpt>
      <trkpt lat="38.817482" lon="-2.142649">
        <ele>844.794931</ele>
        <time>2020-08-05T11:09:21.799Z</time>
      </trkpt>
      <trkpt lat="38.817523" lon="-2.142800">
        <ele>844.486331</ele>
        <time>2020-08-05T11:09:23.786Z</time>
      </trkpt>
      <trkpt lat="38.817565" lon="-2.142954">
        <ele>844.171447</ele>
        <time>2020-08-05T11:09:25.790Z</time>
      </trkpt>
      <trkpt lat="38.817599" lon="-2.143116">
        <ele>843.847663</ele>
        <time>2020-08-05T11:09:27.794Z</time>
      </trkpt>
      <trkpt lat="38.817632" lon="-2.143280">
        <ele>843.552784</ele>
        <time>2020-08-05T11:09:29.790Z</time>
      </trkpt>
      <trkpt lat="38.817672" lon="-2.143437">
        <ele>843.286381</ele>
        <time>2020-08-05T11:09:31.787Z</time>
      </trkpt>
      <trkpt lat="38.817714" lon="-2.143585">
        <ele>843.032348</ele>
        <time>2020-08-05T11:09:33.787Z</time>
      </trkpt>
      <trkpt lat="38.817754" lon="-2.143747">
        <ele>842.758270</ele>
        <time>2020-08-05T11:09:35.786Z</time>
      </trkpt>
      <trkpt lat="38.817801" lon="-2.143896">
        <ele>842.499017</ele>
        <time>2020-08-05T11:09:37.801Z</time>
      </trkpt>
      <trkpt lat="38.817834" lon="-2.144061">
        <ele>842.224280</ele>
        <time>2020-08-05T11:09:39.799Z</time>
      </trkpt>
      <trkpt lat="38.817877" lon="-2.144213">
        <ele>841.963477</ele>
        <time>2020-08-05T11:09:41.789Z</time>
      </trkpt>
      <trkpt lat="38.817910" lon="-2.144365">
        <ele>841.708994</ele>
        <time>2020-08-05T11:09:43.789Z</time>
      </trkpt>
      <trkpt lat="38.817947" lon="-2.144524">
        <ele>841.441368</ele>
        <time>2020-08-05T11:09:45.781Z</time>
      </trkpt>
      <trkpt lat="38.817990" lon="-2.144672">
        <ele>841.186620</ele>
        <time>2020-08-05T11:09:47.809Z</time>
      </trkpt>
      <trkpt lat="38.818023" lon="-2.144830">
        <ele>840.922803</ele>
        <time>2020-08-05T11:09:49.784Z</time>
      </trkpt>
      <trkpt lat="38.818055" lon="-2.144978">
        <ele>840.675090</ele>
        <time>2020-08-05T11:09:51.777Z</time>
      </trkpt>
      <trkpt lat="38.818091" lon="-2.145135">
        <ele>840.411145</ele>
        <time>2020-08-05T11:09:53.784Z</time>
      </trkpt>
      <trkpt lat="38.818124" lon="-2.145277">
        <ele>840.172160</ele>
        <time>2020-08-05T11:09:55.782Z</time>
      </trkpt>
      <trkpt lat="38.818159" lon="-2.145427">
        <ele>840.375981</ele>
        <time>2020-08-05T11:09:57.782Z</time>
      </trkpt>
      <trkpt lat="38.818194" lon="-2.145575">
        <ele>841.689369</ele>
        <time>2020-08-05T11:09:59.793Z</time>
      </trkpt>
      <trkpt lat="38.818237" lon="-2.145711">
        <ele>842.935708</ele>
        <time>2020-08-05T11:10:01.813Z</time>
      </trkpt>
      <trkpt lat="38.818274" lon="-2.145852">
        <ele>844.199121</ele>
        <time>2020-08-05T11:10:03.785Z</time>
      </trkpt>
      <trkpt lat="38.818305" lon="-2.146006">
        <ele>845.549782</ele>
        <time>2020-08-05T11:10:05.797Z</time>
      </trkpt>
      <trkpt lat="38.818337" lon="-2.146155">
        <ele>846.862231</ele>
        <time>2020-08-05T11:10:07.811Z</time>
      </trkpt>
      <trkpt lat="38.818377" lon="-2.146293">
        <ele>848.112548</ele>
        <time>2020-08-05T11:10:09.785Z</time>
      </trkpt>
      <trkpt lat="38.818415" lon="-2.146430">
        <ele>849.347430</ele>
        <time>2020-08-05T11:10:11.813Z</time>
      </trkpt>
      <trkpt lat="38.818450" lon="-2.146562">
        <ele>850.531461</ele>
        <time>2020-08-05T11:10:13.800Z</time>
      </trkpt>
      <trkpt lat="38.818510" lon="-2.146677">
        <ele>851.706731</ele>
        <time>2020-08-05T11:10:15.795Z</time>
      </trkpt>
      <trkpt lat="38.818542" lon="-2.146803">
        <ele>852.832087</ele>
        <time>2020-08-05T11:10:17.787Z</time>
      </trkpt>
      <trkpt lat="38.818588" lon="-2.146902">
        <ele>853.810903</ele>
        <time>2020-08-05T11:10:19.794Z</time>
      </trkpt>
      <trkpt lat="38.818613" lon="-2.147015">
        <ele>854.808395</ele>
        <time>2020-08-05T11:10:21.792Z</time>
      </trkpt>
      <trkpt lat="38.818640" lon="-2.147133">
        <ele>855.852726</ele>
        <time>2020-08-05T11:10:23.792Z</time>
      </trkpt>
      <trkpt lat="38.818672" lon="-2.147245">
        <ele>856.865722</ele>
        <time>2020-08-05T11:10:25.798Z</time>
      </trkpt>
      <trkpt lat="38.818701" lon="-2.147355">
        <ele>857.851828</ele>
        <time>2020-08-05T11:10:27.792Z</time>
      </trkpt>
      <trkpt lat="38.818732" lon="-2.147496">
        <ele>859.095906</ele>
        <time>2020-08-05T11:10:30.790Z</time>
      </trkpt>
      <trkpt lat="38.818775" lon="-2.147611">
        <ele>859.550125</ele>
        <time>2020-08-05T11:10:33.776Z</time>
      </trkpt>
      <trkpt lat="38.818803" lon="-2.147733">
        <ele>859.466007</ele>
        <time>2020-08-05T11:10:36.778Z</time>
      </trkpt>
      <trkpt lat="38.818842" lon="-2.147870">
        <ele>859.369537</ele>
        <time>2020-08-05T11:10:39.791Z</time>
      </trkpt>
      <trkpt lat="38.818883" lon="-2.148011">
        <ele>859.269998</ele>
        <time>2020-08-05T11:10:42.794Z</time>
      </trkpt>
      <trkpt lat="38.818919" lon="-2.148151">
        <ele>859.172490</ele>
        <time>2020-08-05T11:10:45.807Z</time>
      </trkpt>
      <trkpt lat="38.818955" lon="-2.148297">
        <ele>859.071206</ele>
        <time>2020-08-05T11:10:48.790Z</time>
      </trkpt>
      <trkpt lat="38.818993" lon="-2.148442">
        <ele>858.970024</ele>
        <time>2020-08-05T11:10:51.791Z</time>
      </trkpt>
      <trkpt lat="38.819031" lon="-2.148591">
        <ele>858.866331</ele>
        <time>2020-08-05T11:10:54.793Z</time>
      </trkpt>
      <trkpt lat="38.819067" lon="-2.148750">
        <ele>858.756819</ele>
        <time>2020-08-05T11:10:57.798Z</time>
      </trkpt>
      <trkpt lat="38.819099" lon="-2.148872">
        <ele>858.671679</ele>
        <time>2020-08-05T11:10:59.783Z</time>
      </trkpt>
      <trkpt lat="38.819139" lon="-2.148994">
        <ele>858.584136</ele>
        <time>2020-08-05T11:11:01.796Z</time>
      </trkpt>
      <trkpt lat="38.819190" lon="-2.149091">
        <ele>858.506740</ele>
        <time>2020-08-05T11:11:03.791Z</time>
      </trkpt>
      <trkpt lat="38.819223" lon="-2.149214">
        <ele>858.420700</ele>
        <time>2020-08-05T11:11:05.788Z</time>
      </trkpt>
      <trkpt lat="38.819254" lon="-2.149339">
        <ele>858.333939</ele>
        <time>2020-08-05T11:11:07.799Z</time>
      </trkpt>
      <trkpt lat="38.819282" lon="-2.149465">
        <ele>858.247281</ele>
        <time>2020-08-05T11:11:09.790Z</time>
      </trkpt>
      <trkpt lat="38.819314" lon="-2.149587">
        <ele>858.162141</ele>
        <time>2020-08-05T11:11:11.788Z</time>
      </trkpt>
      <trkpt lat="38.819344" lon="-2.149720">
        <ele>858.070564</ele>
        <time>2020-08-05T11:11:13.789Z</time>
      </trkpt>
      <trkpt lat="38.819377" lon="-2.149845">
        <ele>858.819200</ele>
        <time>2020-08-05T11:11:15.784Z</time>
      </trkpt>
      <trkpt lat="38.819404" lon="-2.149975">
        <ele>859.600662</ele>
        <time>2020-08-05T11:11:17.795Z</time>
      </trkpt>
      <trkpt lat="38.819432" lon="-2.150103">
        <ele>860.372886</ele>
        <time>2020-08-05T11:11:19.792Z</time>
      </trkpt>
      <trkpt lat="38.819463" lon="-2.150219">
        <ele>861.085194</ele>
        <time>2020-08-05T11:11:21.789Z</time>
      </trkpt>
      <trkpt lat="38.819492" lon="-2.150350">
        <ele>861.876213</ele>
        <time>2020-08-05T11:11:23.800Z</time>
      </trkpt>
      <trkpt lat="38.819516" lon="-2.150482">
        <ele>862.663522</ele>
        <time>2020-08-05T11:11:25.792Z</time>
      </trkpt>
      <trkpt lat="38.819548" lon="-2.150609">
        <ele>863.438805</ele>
        <time>2020-08-05T11:11:27.789Z</time>
      </trkpt>
      <trkpt lat="38.819582" lon="-2.150722">
        <ele>864.142397</ele>
        <time>2020-08-05T11:11:29.796Z</time>
      </trkpt>
      <trkpt lat="38.819608" lon="-2.150838">
        <ele>864.843497</ele>
        <time>2020-08-05T11:11:31.803Z</time>
      </trkpt>
      <trkpt lat="38.819643" lon="-2.150947">
        <ele>865.528272</ele>
        <time>2020-08-05T11:11:33.818Z</time>
      </trkpt>
      <trkpt lat="38.819671" lon="-2.151067">
        <ele>866.255865</ele>
        <time>2020-08-05T11:11:35.787Z</time>
      </trkpt>
      <trkpt lat="38.819704" lon="-2.151201">
        <ele>867.072144</ele>
        <time>2020-08-05T11:11:37.776Z</time>
      </trkpt>
      <trkpt lat="38.819731" lon="-2.151340">
        <ele>867.904223</ele>
        <time>2020-08-05T11:11:39.782Z</time>
      </trkpt>
      <trkpt lat="38.819770" lon="-2.151472">
        <ele>868.724206</ele>
        <time>2020-08-05T11:11:41.785Z</time>
      </trkpt>
      <trkpt lat="38.819805" lon="-2.151612">
        <ele>869.578216</ele>
        <time>2020-08-05T11:11:43.791Z</time>
      </trkpt>
      <trkpt lat="38.819845" lon="-2.151758">
        <ele>870.477141</ele>
        <time>2020-08-05T11:11:45.782Z</time>
      </trkpt>
      <trkpt lat="38.819877" lon="-2.151918">
        <ele>871.436612</ele>
        <time>2020-08-05T11:11:47.779Z</time>
      </trkpt>
      <trkpt lat="38.819927" lon="-2.152080">
        <ele>871.823703</ele>
        <time>2020-08-05T11:11:49.800Z</time>
      </trkpt>
      <trkpt lat="38.819969" lon="-2.152248">
        <ele>872.188892</ele>
        <time>2020-08-05T11:11:51.783Z</time>
      </trkpt>
      <trkpt lat="38.820014" lon="-2.152419">
        <ele>872.562471</ele>
        <time>2020-08-05T11:11:53.782Z</time>
      </trkpt>
      <trkpt lat="38.820059" lon="-2.152604">
        <ele>872.963611</ele>
        <time>2020-08-05T11:11:55.782Z</time>
      </trkpt>
      <trkpt lat="38.820098" lon="-2.152789">
        <ele>873.360292</ele>
        <time>2020-08-05T11:11:57.794Z</time>
      </trkpt>
      <trkpt lat="38.820150" lon="-2.152976">
        <ele>873.771257</ele>
        <time>2020-08-05T11:11:59.778Z</time>
      </trkpt>
      <trkpt lat="38.820203" lon="-2.153158">
        <ele>874.173413</ele>
        <time>2020-08-05T11:12:01.782Z</time>
      </trkpt>
      <trkpt lat="38.820248" lon="-2.153344">
        <ele>874.576528</ele>
        <time>2020-08-05T11:12:03.787Z</time>
      </trkpt>
      <trkpt lat="38.820300" lon="-2.153522">
        <ele>874.969998</ele>
        <time>2020-08-05T11:12:05.783Z</time>
      </trkpt>
      <trkpt lat="38.820343" lon="-2.153704">
        <ele>875.363639</ele>
        <time>2020-08-05T11:12:07.789Z</time>
      </trkpt>
      <trkpt lat="38.820391" lon="-2.153876">
        <ele>875.741791</ele>
        <time>2020-08-05T11:12:09.786Z</time>
      </trkpt>
      <trkpt lat="38.820435" lon="-2.154044">
        <ele>876.108636</ele>
        <time>2020-08-05T11:12:11.785Z</time>
      </trkpt>
      <trkpt lat="38.820474" lon="-2.154208">
        <ele>876.416928</ele>
        <time>2020-08-05T11:12:13.797Z</time>
      </trkpt>
      <trkpt lat="38.820513" lon="-2.154358">
        <ele>876.670743</ele>
        <time>2020-08-05T11:12:15.782Z</time>
      </trkpt>
      <trkpt lat="38.820560" lon="-2.154496">
        <ele>876.912483</ele>
        <time>2020-08-05T11:12:17.784Z</time>
      </trkpt>
      <trkpt lat="38.820594" lon="-2.154628">
        <ele>877.135632</ele>
        <time>2020-08-05T11:12:19.785Z</time>
      </trkpt>
      <trkpt lat="38.820627" lon="-2.154760">
        <ele>877.358143</ele>
        <time>2020-08-05T11:12:21.777Z</time>
      </trkpt>
      <trkpt lat="38.820665" lon="-2.154881">
        <ele>877.567542</ele>
        <time>2020-08-05T11:12:23.794Z</time>
      </trkpt>
      <trkpt lat="38.820697" lon="-2.154993">
        <ele>877.759018</ele>
        <time>2020-08-05T11:12:25.785Z</time>
      </trkpt>
      <trkpt lat="38.820725" lon="-2.155106">
        <ele>877.949344</ele>
        <time>2020-08-05T11:12:27.795Z</time>
      </trkpt>
      <trkpt lat="38.820754" lon="-2.155228">
        <ele>878.154074</ele>
        <time>2020-08-05T11:12:29.778Z</time>
      </trkpt>
      <trkpt lat="38.820791" lon="-2.155356">
        <ele>878.373209</ele>
        <time>2020-08-05T11:12:31.785Z</time>
      </trkpt>
      <trkpt lat="38.820826" lon="-2.155484">
        <ele>878.590944</ele>
        <time>2020-08-05T11:12:33.780Z</time>
      </trkpt>
      <trkpt lat="38.820855" lon="-2.155609">
        <ele>878.800285</ele>
        <time>2020-08-05T11:12:35.789Z</time>
      </trkpt>
      <trkpt lat="38.820881" lon="-2.155729">
        <ele>879.000203</ele>
        <time>2020-08-05T11:12:37.805Z</time>
      </trkpt>
      <trkpt lat="38.820931" lon="-2.155885">
        <ele>879.270955</ele>
        <time>2020-08-05T11:12:40.784Z</time>
      </trkpt>
      <trkpt lat="38.820956" lon="-2.156004">
        <ele>879.468781</ele>
        <time>2020-08-05T11:12:42.779Z</time>
      </trkpt>
      <trkpt lat="38.820986" lon="-2.156120">
        <ele>879.664959</ele>
        <time>2020-08-05T11:12:44.777Z</time>
      </trkpt>
      <trkpt lat="38.821025" lon="-2.156286">
        <ele>879.943251</ele>
        <time>2020-08-05T11:12:47.781Z</time>
      </trkpt>
      <trkpt lat="38.821066" lon="-2.156449">
        <ele>880.124605</ele>
        <time>2020-08-05T11:12:50.792Z</time>
      </trkpt>
      <trkpt lat="38.821119" lon="-2.156607">
        <ele>880.300103</ele>
        <time>2020-08-05T11:12:53.785Z</time>
      </trkpt>
      <trkpt lat="38.821152" lon="-2.156721">
        <ele>880.424174</ele>
        <time>2020-08-05T11:12:55.779Z</time>
      </trkpt>
      <trkpt lat="38.821183" lon="-2.156841">
        <ele>880.553153</ele>
        <time>2020-08-05T11:12:57.788Z</time>
      </trkpt>
      <trkpt lat="38.821211" lon="-2.156959">
        <ele>880.678996</ele>
        <time>2020-08-05T11:12:59.782Z</time>
      </trkpt>
      <trkpt lat="38.821237" lon="-2.157080">
        <ele>880.807050</ele>
        <time>2020-08-05T11:13:01.783Z</time>
      </trkpt>
      <trkpt lat="38.821263" lon="-2.157201">
        <ele>880.935103</ele>
        <time>2020-08-05T11:13:03.777Z</time>
      </trkpt>
      <trkpt lat="38.821293" lon="-2.157323">
        <ele>881.065620</ele>
        <time>2020-08-05T11:13:05.777Z</time>
      </trkpt>
      <trkpt lat="38.821326" lon="-2.157448">
        <ele>881.200267</ele>
        <time>2020-08-05T11:13:07.790Z</time>
      </trkpt>
      <trkpt lat="38.821358" lon="-2.157580">
        <ele>881.341302</ele>
        <time>2020-08-05T11:13:09.795Z</time>
      </trkpt>
      <trkpt lat="38.821394" lon="-2.157715">
        <ele>881.486873</ele>
        <time>2020-08-05T11:13:11.786Z</time>
      </trkpt>
      <trkpt lat="38.821429" lon="-2.157868">
        <ele>881.649553</ele>
        <time>2020-08-05T11:13:13.793Z</time>
      </trkpt>
      <trkpt lat="38.821466" lon="-2.158018">
        <ele>881.810069</ele>
        <time>2020-08-05T11:13:15.787Z</time>
      </trkpt>
      <trkpt lat="38.821511" lon="-2.158171">
        <ele>881.976912</ele>
        <time>2020-08-05T11:13:17.787Z</time>
      </trkpt>
      <trkpt lat="38.821542" lon="-2.158331">
        <ele>882.145115</ele>
        <time>2020-08-05T11:13:19.778Z</time>
      </trkpt>
      <trkpt lat="38.821602" lon="-2.158481">
        <ele>882.316582</ele>
        <time>2020-08-05T11:13:21.785Z</time>
      </trkpt>
      <trkpt lat="38.821653" lon="-2.158633">
        <ele>882.302197</ele>
        <time>2020-08-05T11:13:23.778Z</time>
      </trkpt>
      <trkpt lat="38.821693" lon="-2.158790">
        <ele>882.287839</ele>
        <time>2020-08-05T11:13:25.787Z</time>
      </trkpt>
      <trkpt lat="38.821730" lon="-2.158961">
        <ele>882.272412</ele>
        <time>2020-08-05T11:13:27.796Z</time>
      </trkpt>
      <trkpt lat="38.821773" lon="-2.159120">
        <ele>882.257783</ele>
        <time>2020-08-05T11:13:29.796Z</time>
      </trkpt>
      <trkpt lat="38.821809" lon="-2.159281">
        <ele>882.243224</ele>
        <time>2020-08-05T11:13:31.785Z</time>
      </trkpt>
      <trkpt lat="38.821849" lon="-2.159441">
        <ele>882.228618</ele>
        <time>2020-08-05T11:13:33.790Z</time>
      </trkpt>
      <trkpt lat="38.821889" lon="-2.159598">
        <ele>882.214260</ele>
        <time>2020-08-05T11:13:35.783Z</time>
      </trkpt>
      <trkpt lat="38.821931" lon="-2.159752">
        <ele>882.200077</ele>
        <time>2020-08-05T11:13:37.791Z</time>
      </trkpt>
      <trkpt lat="38.821972" lon="-2.159907">
        <ele>882.185849</ele>
        <time>2020-08-05T11:13:39.780Z</time>
      </trkpt>
      <trkpt lat="38.822010" lon="-2.160058">
        <ele>882.172056</ele>
        <time>2020-08-05T11:13:41.781Z</time>
      </trkpt>
      <trkpt lat="38.822046" lon="-2.160213">
        <ele>882.157998</ele>
        <time>2020-08-05T11:13:43.796Z</time>
      </trkpt>
      <trkpt lat="38.822081" lon="-2.160372">
        <ele>882.143636</ele>
        <time>2020-08-05T11:13:45.793Z</time>
      </trkpt>
      <trkpt lat="38.822124" lon="-2.160525">
        <ele>882.129498</ele>
        <time>2020-08-05T11:13:47.785Z</time>
      </trkpt>
      <trkpt lat="38.822159" lon="-2.160684">
        <ele>882.107578</ele>
        <time>2020-08-05T11:13:49.780Z</time>
      </trkpt>
      <trkpt lat="38.822194" lon="-2.160842">
        <ele>881.961595</ele>
        <time>2020-08-05T11:13:51.794Z</time>
      </trkpt>
      <trkpt lat="38.822236" lon="-2.160997">
        <ele>881.815751</ele>
        <time>2020-08-05T11:13:53.792Z</time>
      </trkpt>
      <trkpt lat="38.822270" lon="-2.161158">
        <ele>881.667505</ele>
        <time>2020-08-05T11:13:55.795Z</time>
      </trkpt>
      <trkpt lat="38.822309" lon="-2.161317">
        <ele>881.519362</ele>
        <time>2020-08-05T11:13:57.798Z</time>
      </trkpt>
      <trkpt lat="38.822340" lon="-2.161490">
        <ele>881.361600</ele>
        <time>2020-08-05T11:13:59.780Z</time>
      </trkpt>
      <trkpt lat="38.822379" lon="-2.161656">
        <ele>881.207512</ele>
        <time>2020-08-05T11:14:01.790Z</time>
      </trkpt>
      <trkpt lat="38.822417" lon="-2.161830">
        <ele>881.046916</ele>
        <time>2020-08-05T11:14:03.786Z</time>
      </trkpt>
      <trkpt lat="38.822453" lon="-2.162012">
        <ele>880.880038</ele>
        <time>2020-08-05T11:14:05.786Z</time>
      </trkpt>
      <trkpt lat="38.822493" lon="-2.162188">
        <ele>880.717106</ele>
        <time>2020-08-05T11:14:07.787Z</time>
      </trkpt>
      <trkpt lat="38.822523" lon="-2.162381">
        <ele>880.542204</ele>
        <time>2020-08-05T11:14:09.792Z</time>
      </trkpt>
      <trkpt lat="38.822575" lon="-2.162569">
        <ele>880.364909</ele>
        <time>2020-08-05T11:14:11.790Z</time>
      </trkpt>
      <trkpt lat="38.822621" lon="-2.162753">
        <ele>880.193174</ele>
        <time>2020-08-05T11:14:13.787Z</time>
      </trkpt>
      <trkpt lat="38.822663" lon="-2.162942">
        <ele>880.075358</ele>
        <time>2020-08-05T11:14:15.793Z</time>
      </trkpt>
      <trkpt lat="38.822703" lon="-2.163142">
        <ele>880.119965</ele>
        <time>2020-08-05T11:14:17.792Z</time>
      </trkpt>
      <trkpt lat="38.822740" lon="-2.163332">
        <ele>880.162274</ele>
        <time>2020-08-05T11:14:19.804Z</time>
      </trkpt>
      <trkpt lat="38.822772" lon="-2.163522">
        <ele>880.204268</ele>
        <time>2020-08-05T11:14:21.804Z</time>
      </trkpt>
      <trkpt lat="38.822815" lon="-2.163703">
        <ele>880.245148</ele>
        <time>2020-08-05T11:14:23.798Z</time>
      </trkpt>
      <trkpt lat="38.822851" lon="-2.163882">
        <ele>880.285085</ele>
        <time>2020-08-05T11:14:25.782Z</time>
      </trkpt>
      <trkpt lat="38.822890" lon="-2.164056">
        <ele>880.324199</ele>
        <time>2020-08-05T11:14:27.787Z</time>
      </trkpt>
      <trkpt lat="38.822938" lon="-2.164230">
        <ele>880.364076</ele>
        <time>2020-08-05T11:14:29.791Z</time>
      </trkpt>
      <trkpt lat="38.822977" lon="-2.164401">
        <ele>880.402567</ele>
        <time>2020-08-05T11:14:31.781Z</time>
      </trkpt>
      <trkpt lat="38.823012" lon="-2.164571">
        <ele>880.440553</ele>
        <time>2020-08-05T11:14:33.786Z</time>
      </trkpt>
      <trkpt lat="38.823043" lon="-2.164739">
        <ele>880.477851</ele>
        <time>2020-08-05T11:14:35.774Z</time>
      </trkpt>
      <trkpt lat="38.823074" lon="-2.164903">
        <ele>880.514308</ele>
        <time>2020-08-05T11:14:37.785Z</time>
      </trkpt>
      <trkpt lat="38.823104" lon="-2.165072">
        <ele>880.551753</ele>
        <time>2020-08-05T11:14:39.783Z</time>
      </trkpt>
      <trkpt lat="38.823138" lon="-2.165229">
        <ele>880.450686</ele>
        <time>2020-08-05T11:14:41.780Z</time>
      </trkpt>
      <trkpt lat="38.823177" lon="-2.165379">
        <ele>880.290656</ele>
        <time>2020-08-05T11:14:43.795Z</time>
      </trkpt>
      <trkpt lat="38.823212" lon="-2.165528">
        <ele>880.133164</ele>
        <time>2020-08-05T11:14:45.776Z</time>
      </trkpt>
      <trkpt lat="38.823249" lon="-2.165676">
        <ele>879.975866</ele>
        <time>2020-08-05T11:14:47.775Z</time>
      </trkpt>
      <trkpt lat="38.823276" lon="-2.165833">
        <ele>879.813158</ele>
        <time>2020-08-05T11:14:49.779Z</time>
      </trkpt>
      <trkpt lat="38.823307" lon="-2.165992">
        <ele>879.647288</ele>
        <time>2020-08-05T11:14:51.781Z</time>
      </trkpt>
      <trkpt lat="38.823343" lon="-2.166154">
        <ele>879.476806</ele>
        <time>2020-08-05T11:14:53.780Z</time>
      </trkpt>
      <trkpt lat="38.823376" lon="-2.166329">
        <ele>879.294593</ele>
        <time>2020-08-05T11:14:55.787Z</time>
      </trkpt>
      <trkpt lat="38.823405" lon="-2.166505">
        <ele>879.112542</ele>
        <time>2020-08-05T11:14:57.777Z</time>
      </trkpt>
      <trkpt lat="38.823443" lon="-2.166686">
        <ele>878.922837</ele>
        <time>2020-08-05T11:14:59.775Z</time>
      </trkpt>
      <trkpt lat="38.823494" lon="-2.166860">
        <ele>878.734701</ele>
        <time>2020-08-05T11:15:01.775Z</time>
      </trkpt>
      <trkpt lat="38.823536" lon="-2.167058">
        <ele>878.527032</ele>
        <time>2020-08-05T11:15:03.787Z</time>
      </trkpt>
      <trkpt lat="38.823578" lon="-2.167254">
        <ele>878.321315</ele>
        <time>2020-08-05T11:15:05.791Z</time>
      </trkpt>
      <trkpt lat="38.823620" lon="-2.167465">
        <ele>878.111333</ele>
        <time>2020-08-05T11:15:07.785Z</time>
      </trkpt>
      <trkpt lat="38.823666" lon="-2.167685">
        <ele>877.899903</ele>
        <time>2020-08-05T11:15:09.790Z</time>
      </trkpt>
      <trkpt lat="38.823689" lon="-2.167804">
        <ele>877.786099</ele>
        <time>2020-08-05T11:15:10.788Z</time>
      </trkpt>
      <trkpt lat="38.823742" lon="-2.168028">
        <ele>877.568805</ele>
        <time>2020-08-05T11:15:12.790Z</time>
      </trkpt>
      <trkpt lat="38.823769" lon="-2.168144">
        <ele>877.456432</ele>
        <time>2020-08-05T11:15:13.789Z</time>
      </trkpt>
      <trkpt lat="38.823795" lon="-2.168255">
        <ele>877.348846</ele>
        <time>2020-08-05T11:15:14.798Z</time>
      </trkpt>
      <trkpt lat="38.823818" lon="-2.168371">
        <ele>877.237743</ele>
        <time>2020-08-05T11:15:15.781Z</time>
      </trkpt>
      <trkpt lat="38.823844" lon="-2.168482">
        <ele>877.130157</ele>
        <time>2020-08-05T11:15:16.788Z</time>
      </trkpt>
      <trkpt lat="38.823889" lon="-2.168695">
        <ele>876.925311</ele>
        <time>2020-08-05T11:15:18.797Z</time>
      </trkpt>
      <trkpt lat="38.823931" lon="-2.168909">
        <ele>876.720471</ele>
        <time>2020-08-05T11:15:20.793Z</time>
      </trkpt>
      <trkpt lat="38.823939" lon="-2.169117">
        <ele>876.527171</ele>
        <time>2020-08-05T11:15:22.795Z</time>
      </trkpt>
      <trkpt lat="38.823962" lon="-2.169304">
        <ele>876.351449</ele>
        <time>2020-08-05T11:15:24.784Z</time>
      </trkpt>
      <trkpt lat="38.823989" lon="-2.169475">
        <ele>876.189501</ele>
        <time>2020-08-05T11:15:26.807Z</time>
      </trkpt>
      <trkpt lat="38.824025" lon="-2.169637">
        <ele>876.114420</ele>
        <time>2020-08-05T11:15:28.800Z</time>
      </trkpt>
      <trkpt lat="38.824067" lon="-2.169794">
        <ele>876.207987</ele>
        <time>2020-08-05T11:15:30.781Z</time>
      </trkpt>
      <trkpt lat="38.824112" lon="-2.169946">
        <ele>876.299642</ele>
        <time>2020-08-05T11:15:32.783Z</time>
      </trkpt>
      <trkpt lat="38.824152" lon="-2.170090">
        <ele>876.385815</ele>
        <time>2020-08-05T11:15:34.802Z</time>
      </trkpt>
      <trkpt lat="38.824183" lon="-2.170234">
        <ele>876.470025</ele>
        <time>2020-08-05T11:15:36.794Z</time>
      </trkpt>
      <trkpt lat="38.824212" lon="-2.170370">
        <ele>876.549503</ele>
        <time>2020-08-05T11:15:38.810Z</time>
      </trkpt>
      <trkpt lat="38.824237" lon="-2.170502">
        <ele>876.626073</ele>
        <time>2020-08-05T11:15:40.785Z</time>
      </trkpt>
      <trkpt lat="38.824264" lon="-2.170630">
        <ele>876.700820</ele>
        <time>2020-08-05T11:15:42.795Z</time>
      </trkpt>
      <trkpt lat="38.824295" lon="-2.170749">
        <ele>876.771547</ele>
        <time>2020-08-05T11:15:44.794Z</time>
      </trkpt>
      <trkpt lat="38.824324" lon="-2.170870">
        <ele>876.842905</ele>
        <time>2020-08-05T11:15:46.785Z</time>
      </trkpt>
      <trkpt lat="38.824347" lon="-2.170999">
        <ele>876.917497</ele>
        <time>2020-08-05T11:15:48.794Z</time>
      </trkpt>
      <trkpt lat="38.824378" lon="-2.171122">
        <ele>876.990366</ele>
        <time>2020-08-05T11:15:50.801Z</time>
      </trkpt>
      <trkpt lat="38.824412" lon="-2.171241">
        <ele>877.061810</ele>
        <time>2020-08-05T11:15:52.778Z</time>
      </trkpt>
      <trkpt lat="38.824445" lon="-2.171362">
        <ele>877.134072</ele>
        <time>2020-08-05T11:15:54.794Z</time>
      </trkpt>
      <trkpt lat="38.824482" lon="-2.171473">
        <ele>877.202125</ele>
        <time>2020-08-05T11:15:56.783Z</time>
      </trkpt>
      <trkpt lat="38.824511" lon="-2.171585">
        <ele>877.268651</ele>
        <time>2020-08-05T11:15:58.796Z</time>
      </trkpt>
      <trkpt lat="38.824554" lon="-2.171743">
        <ele>877.362987</ele>
        <time>2020-08-05T11:16:01.782Z</time>
      </trkpt>
      <trkpt lat="38.824586" lon="-2.171904">
        <ele>877.444015</ele>
        <time>2020-08-05T11:16:04.788Z</time>
      </trkpt>
      <trkpt lat="38.824607" lon="-2.172058">
        <ele>877.516597</ele>
        <time>2020-08-05T11:16:07.805Z</time>
      </trkpt>
      <trkpt lat="38.824653" lon="-2.172205">
        <ele>877.590142</ele>
        <time>2020-08-05T11:16:10.776Z</time>
      </trkpt>
      <trkpt lat="38.824679" lon="-2.172355">
        <ele>877.661482</ele>
        <time>2020-08-05T11:16:13.781Z</time>
      </trkpt>
      <trkpt lat="38.824707" lon="-2.172492">
        <ele>877.727237</ele>
        <time>2020-08-05T11:16:16.793Z</time>
      </trkpt>
      <trkpt lat="38.824734" lon="-2.172626">
        <ele>877.791494</ele>
        <time>2020-08-05T11:16:19.774Z</time>
      </trkpt>
      <trkpt lat="38.824761" lon="-2.172760">
        <ele>877.855751</ele>
        <time>2020-08-05T11:16:22.795Z</time>
      </trkpt>
      <trkpt lat="38.824794" lon="-2.172889">
        <ele>877.918785</ele>
        <time>2020-08-05T11:16:25.784Z</time>
      </trkpt>
      <trkpt lat="38.824825" lon="-2.173020">
        <ele>877.982346</ele>
        <time>2020-08-05T11:16:28.782Z</time>
      </trkpt>
      <trkpt lat="38.824854" lon="-2.173157">
        <ele>878.048254</ele>
        <time>2020-08-05T11:16:31.785Z</time>
      </trkpt>
      <trkpt lat="38.824885" lon="-2.173293">
        <ele>878.114039</ele>
        <time>2020-08-05T11:16:34.783Z</time>
      </trkpt>
      <trkpt lat="38.824921" lon="-2.173429">
        <ele>878.180722</ele>
        <time>2020-08-05T11:16:37.791Z</time>
      </trkpt>
      <trkpt lat="38.824950" lon="-2.173573">
        <ele>878.249772</ele>
        <time>2020-08-05T11:16:40.782Z</time>
      </trkpt>
      <trkpt lat="38.824980" lon="-2.173719">
        <ele>878.319871</ele>
        <time>2020-08-05T11:16:43.790Z</time>
      </trkpt>
      <trkpt lat="38.825008" lon="-2.173866">
        <ele>878.390126</ele>
        <time>2020-08-05T11:16:46.776Z</time>
      </trkpt>
      <trkpt lat="38.825034" lon="-2.174009">
        <ele>878.455725</ele>
        <time>2020-08-05T11:16:49.787Z</time>
      </trkpt>
      <trkpt lat="38.825066" lon="-2.174149">
        <ele>878.401754</ele>
        <time>2020-08-05T11:16:52.785Z</time>
      </trkpt>
      <trkpt lat="38.825096" lon="-2.174284">
        <ele>878.349823</ele>
        <time>2020-08-05T11:16:55.786Z</time>
      </trkpt>
      <trkpt lat="38.825124" lon="-2.174413">
        <ele>878.300286</ele>
        <time>2020-08-05T11:16:58.802Z</time>
      </trkpt>
      <trkpt lat="38.825149" lon="-2.174538">
        <ele>878.252548</ele>
        <time>2020-08-05T11:17:01.789Z</time>
      </trkpt>
      <trkpt lat="38.825166" lon="-2.174657">
        <ele>878.207794</ele>
        <time>2020-08-05T11:17:04.779Z</time>
      </trkpt>
      <trkpt lat="38.825185" lon="-2.174810">
        <ele>878.150482</ele>
        <time>2020-08-05T11:17:08.790Z</time>
      </trkpt>
      <trkpt lat="38.825212" lon="-2.174926">
        <ele>878.105697</ele>
        <time>2020-08-05T11:17:11.791Z</time>
      </trkpt>
      <trkpt lat="38.825241" lon="-2.175047">
        <ele>878.058867</ele>
        <time>2020-08-05T11:17:14.778Z</time>
      </trkpt>
      <trkpt lat="38.825268" lon="-2.175162">
        <ele>878.014437</ele>
        <time>2020-08-05T11:17:17.777Z</time>
      </trkpt>
      <trkpt lat="38.825291" lon="-2.175275">
        <ele>877.971234</ele>
        <time>2020-08-05T11:17:20.780Z</time>
      </trkpt>
      <trkpt lat="38.825321" lon="-2.175385">
        <ele>877.928122</ele>
        <time>2020-08-05T11:17:23.781Z</time>
      </trkpt>
      <trkpt lat="38.825348" lon="-2.175534">
        <ele>877.871533</ele>
        <time>2020-08-05T11:17:27.778Z</time>
      </trkpt>
      <trkpt lat="38.825367" lon="-2.175648">
        <ele>877.828409</ele>
        <time>2020-08-05T11:17:30.787Z</time>
      </trkpt>
      <trkpt lat="38.825398" lon="-2.175757">
        <ele>877.785485</ele>
        <time>2020-08-05T11:17:33.799Z</time>
      </trkpt>
      <trkpt lat="38.825434" lon="-2.175865">
        <ele>877.742031</ele>
        <time>2020-08-05T11:17:36.794Z</time>
      </trkpt>
      <trkpt lat="38.825460" lon="-2.175980">
        <ele>877.697736</ele>
        <time>2020-08-05T11:17:39.795Z</time>
      </trkpt>
      <trkpt lat="38.825478" lon="-2.176093">
        <ele>877.655070</ele>
        <time>2020-08-05T11:17:42.785Z</time>
      </trkpt>
      <trkpt lat="38.825517" lon="-2.176233">
        <ele>877.627065</ele>
        <time>2020-08-05T11:17:46.800Z</time>
      </trkpt>
      <trkpt lat="38.825541" lon="-2.176379">
        <ele>878.111904</ele>
        <time>2020-08-05T11:17:50.802Z</time>
      </trkpt>
      <trkpt lat="38.825571" lon="-2.176524">
        <ele>878.599381</ele>
        <time>2020-08-05T11:17:54.803Z</time>
      </trkpt>
      <trkpt lat="38.825606" lon="-2.176656">
        <ele>879.052446</ele>
        <time>2020-08-05T11:17:58.805Z</time>
      </trkpt>
      <trkpt lat="38.825627" lon="-2.176794">
        <ele>879.509319</ele>
        <time>2020-08-05T11:18:02.799Z</time>
      </trkpt>
      <trkpt lat="38.825649" lon="-2.176931">
        <ele>879.963827</ele>
        <time>2020-08-05T11:18:06.808Z</time>
      </trkpt>
      <trkpt lat="38.825647" lon="-2.177048">
        <ele>880.344083</ele>
        <time>2020-08-05T11:18:09.812Z</time>
      </trkpt>
      <trkpt lat="38.825635" lon="-2.177179">
        <ele>880.772670</ele>
        <time>2020-08-05T11:18:12.792Z</time>
      </trkpt>
      <trkpt lat="38.825606" lon="-2.177339">
        <ele>881.306438</ele>
        <time>2020-08-05T11:18:15.799Z</time>
      </trkpt>
      <trkpt lat="38.825575" lon="-2.177468">
        <ele>881.745082</ele>
        <time>2020-08-05T11:18:17.795Z</time>
      </trkpt>
      <trkpt lat="38.825543" lon="-2.177601">
        <ele>882.197376</ele>
        <time>2020-08-05T11:18:19.798Z</time>
      </trkpt>
      <trkpt lat="38.825510" lon="-2.177738">
        <ele>882.663318</ele>
        <time>2020-08-05T11:18:21.785Z</time>
      </trkpt>
      <trkpt lat="38.825477" lon="-2.177885">
        <ele>883.160397</ele>
        <time>2020-08-05T11:18:23.814Z</time>
      </trkpt>
      <trkpt lat="38.825442" lon="-2.178028">
        <ele>883.647435</ele>
        <time>2020-08-05T11:18:25.796Z</time>
      </trkpt>
      <trkpt lat="38.825416" lon="-2.178167">
        <ele>884.111920</ele>
        <time>2020-08-05T11:18:27.785Z</time>
      </trkpt>
      <trkpt lat="38.825378" lon="-2.178307">
        <ele>884.593638</ele>
        <time>2020-08-05T11:18:29.803Z</time>
      </trkpt>
      <trkpt lat="38.825345" lon="-2.178438">
        <ele>885.040993</ele>
        <time>2020-08-05T11:18:31.787Z</time>
      </trkpt>
      <trkpt lat="38.825316" lon="-2.178568">
        <ele>885.059354</ele>
        <time>2020-08-05T11:18:33.810Z</time>
      </trkpt>
      <trkpt lat="38.825285" lon="-2.178691">
        <ele>885.008829</ele>
        <time>2020-08-05T11:18:35.806Z</time>
      </trkpt>
      <trkpt lat="38.825261" lon="-2.178812">
        <ele>884.960030</ele>
        <time>2020-08-05T11:18:37.787Z</time>
      </trkpt>
      <trkpt lat="38.825235" lon="-2.178933">
        <ele>884.910974</ele>
        <time>2020-08-05T11:18:39.789Z</time>
      </trkpt>
      <trkpt lat="38.825224" lon="-2.179057">
        <ele>884.862198</ele>
        <time>2020-08-05T11:18:41.783Z</time>
      </trkpt>
      <trkpt lat="38.825209" lon="-2.179172">
        <ele>884.816627</ele>
        <time>2020-08-05T11:18:43.803Z</time>
      </trkpt>
      <trkpt lat="38.825171" lon="-2.179337">
        <ele>884.749382</ele>
        <time>2020-08-05T11:18:46.791Z</time>
      </trkpt>
      <trkpt lat="38.825128" lon="-2.179492">
        <ele>884.685077</ele>
        <time>2020-08-05T11:18:49.805Z</time>
      </trkpt>
      <trkpt lat="38.825084" lon="-2.179642">
        <ele>884.622435</ele>
        <time>2020-08-05T11:18:52.811Z</time>
      </trkpt>
      <trkpt lat="38.825044" lon="-2.179783">
        <ele>884.563788</ele>
        <time>2020-08-05T11:18:55.795Z</time>
      </trkpt>
      <trkpt lat="38.824993" lon="-2.179919">
        <ele>884.504798</ele>
        <time>2020-08-05T11:18:58.813Z</time>
      </trkpt>
      <trkpt lat="38.824953" lon="-2.180056">
        <ele>884.447618</ele>
        <time>2020-08-05T11:19:01.802Z</time>
      </trkpt>
      <trkpt lat="38.824905" lon="-2.180184">
        <ele>884.392097</ele>
        <time>2020-08-05T11:19:04.805Z</time>
      </trkpt>
      <trkpt lat="38.824857" lon="-2.180303">
        <ele>884.339725</ele>
        <time>2020-08-05T11:19:07.793Z</time>
      </trkpt>
      <trkpt lat="38.824802" lon="-2.180410">
        <ele>884.289623</ele>
        <time>2020-08-05T11:19:10.829Z</time>
      </trkpt>
      <trkpt lat="38.824743" lon="-2.180504">
        <ele>884.242446</ele>
        <time>2020-08-05T11:19:13.801Z</time>
      </trkpt>
      <trkpt lat="38.824693" lon="-2.180601">
        <ele>884.202240</ele>
        <time>2020-08-05T11:19:16.820Z</time>
      </trkpt>
      <trkpt lat="38.824654" lon="-2.180744">
        <ele>884.202240</ele>
        <time>2020-08-05T11:19:20.789Z</time>
      </trkpt>
      <trkpt lat="38.824652" lon="-2.180865">
        <ele>884.202240</ele>
        <time>2020-08-05T11:19:23.812Z</time>
      </trkpt>
      <trkpt lat="38.824668" lon="-2.181008">
        <ele>884.202240</ele>
        <time>2020-08-05T11:19:26.801Z</time>
      </trkpt>
      <trkpt lat="38.824699" lon="-2.181160">
        <ele>884.202240</ele>
        <time>2020-08-05T11:19:29.809Z</time>
      </trkpt>
      <trkpt lat="38.824743" lon="-2.181315">
        <ele>884.202240</ele>
        <time>2020-08-05T11:19:32.815Z</time>
      </trkpt>
      <trkpt lat="38.824775" lon="-2.181466">
        <ele>884.202240</ele>
        <time>2020-08-05T11:19:35.806Z</time>
      </trkpt>
      <trkpt lat="38.824811" lon="-2.181632">
        <ele>884.202240</ele>
        <time>2020-08-05T11:19:38.792Z</time>
      </trkpt>
      <trkpt lat="38.824841" lon="-2.181752">
        <ele>884.202240</ele>
        <time>2020-08-05T11:19:40.808Z</time>
      </trkpt>
      <trkpt lat="38.824879" lon="-2.181877">
        <ele>884.202240</ele>
        <time>2020-08-05T11:19:42.781Z</time>
      </trkpt>
      <trkpt lat="38.824927" lon="-2.181985">
        <ele>884.202240</ele>
        <time>2020-08-05T11:19:44.802Z</time>
      </trkpt>
      <trkpt lat="38.824993" lon="-2.182088">
        <ele>884.202240</ele>
        <time>2020-08-05T11:19:46.786Z</time>
      </trkpt>
      <trkpt lat="38.825058" lon="-2.182187">
        <ele>884.202240</ele>
        <time>2020-08-05T11:19:48.796Z</time>
      </trkpt>
      <trkpt lat="38.825127" lon="-2.182293">
        <ele>884.202240</ele>
        <time>2020-08-05T11:19:51.787Z</time>
      </trkpt>
      <trkpt lat="38.825201" lon="-2.182391">
        <ele>884.202240</ele>
        <time>2020-08-05T11:19:54.788Z</time>
      </trkpt>
      <trkpt lat="38.825276" lon="-2.182496">
        <ele>884.202240</ele>
        <time>2020-08-05T11:19:57.796Z</time>
      </trkpt>
      <trkpt lat="38.825349" lon="-2.182606">
        <ele>884.202240</ele>
        <time>2020-08-05T11:20:00.795Z</time>
      </trkpt>
      <trkpt lat="38.825418" lon="-2.182702">
        <ele>884.202240</ele>
        <time>2020-08-05T11:20:03.784Z</time>
      </trkpt>
      <trkpt lat="38.825490" lon="-2.182816">
        <ele>884.202240</ele>
        <time>2020-08-05T11:20:07.797Z</time>
      </trkpt>
      <trkpt lat="38.825556" lon="-2.182898">
        <ele>884.202240</ele>
        <time>2020-08-05T11:20:10.811Z</time>
      </trkpt>
      <trkpt lat="38.825651" lon="-2.182987">
        <ele>884.202240</ele>
        <time>2020-08-05T11:20:14.818Z</time>
      </trkpt>
      <trkpt lat="38.825691" lon="-2.183026">
        <ele>884.202240</ele>
        <time>2020-08-05T11:21:05.459Z</time>
      </trkpt>
      <trkpt lat="38.826533" lon="-2.186727">
        <ele>887.890127</ele>
        <time>2020-08-06T05:34:09.917Z</time>
      </trkpt>
      <trkpt lat="38.826416" lon="-2.187000">
        <ele>887.890127</ele>
        <time>2020-08-06T05:54:45.789Z</time>
      </trkpt>
      <trkpt lat="38.826376" lon="-2.187110">
        <ele>887.890127</ele>
        <time>2020-08-06T05:54:48.782Z</time>
      </trkpt>
      <trkpt lat="38.826333" lon="-2.187229">
        <ele>887.890127</ele>
        <time>2020-08-06T05:54:51.783Z</time>
      </trkpt>
      <trkpt lat="38.826289" lon="-2.187354">
        <ele>887.890127</ele>
        <time>2020-08-06T05:54:54.792Z</time>
      </trkpt>
      <trkpt lat="38.826230" lon="-2.187478">
        <ele>887.890127</ele>
        <time>2020-08-06T05:54:57.786Z</time>
      </trkpt>
      <trkpt lat="38.826162" lon="-2.187603">
        <ele>887.890127</ele>
        <time>2020-08-06T05:55:00.784Z</time>
      </trkpt>
      <trkpt lat="38.826085" lon="-2.187738">
        <ele>887.898092</ele>
        <time>2020-08-06T05:55:03.796Z</time>
      </trkpt>
      <trkpt lat="38.826029" lon="-2.187859">
        <ele>887.991432</ele>
        <time>2020-08-06T05:55:06.794Z</time>
      </trkpt>
      <trkpt lat="38.826022" lon="-2.188005">
        <ele>888.088443</ele>
        <time>2020-08-06T05:55:09.788Z</time>
      </trkpt>
      <trkpt lat="38.826033" lon="-2.188120">
        <ele>888.165285</ele>
        <time>2020-08-06T05:55:11.795Z</time>
      </trkpt>
      <trkpt lat="38.826079" lon="-2.188242">
        <ele>888.255174</ele>
        <time>2020-08-06T05:55:13.790Z</time>
      </trkpt>
      <trkpt lat="38.826148" lon="-2.188357">
        <ele>888.351440</ele>
        <time>2020-08-06T05:55:15.779Z</time>
      </trkpt>
      <trkpt lat="38.826156" lon="-2.188542">
        <ele>888.474322</ele>
        <time>2020-08-06T05:55:17.786Z</time>
      </trkpt>
      <trkpt lat="38.826261" lon="-2.188643">
        <ele>888.586021</ele>
        <time>2020-08-06T05:55:19.791Z</time>
      </trkpt>
      <trkpt lat="38.826341" lon="-2.188801">
        <ele>888.710994</ele>
        <time>2020-08-06T05:55:21.788Z</time>
      </trkpt>
      <trkpt lat="38.826436" lon="-2.188936">
        <ele>888.831645</ele>
        <time>2020-08-06T05:55:23.795Z</time>
      </trkpt>
      <trkpt lat="38.826487" lon="-2.189084">
        <ele>888.938972</ele>
        <time>2020-08-06T05:55:25.787Z</time>
      </trkpt>
      <trkpt lat="38.826563" lon="-2.189249">
        <ele>889.066096</ele>
        <time>2020-08-06T05:55:27.807Z</time>
      </trkpt>
      <trkpt lat="38.826614" lon="-2.189380">
        <ele>889.163219</ele>
        <time>2020-08-06T05:55:29.801Z</time>
      </trkpt>
      <trkpt lat="38.826624" lon="-2.189521">
        <ele>889.257117</ele>
        <time>2020-08-06T05:55:31.798Z</time>
      </trkpt>
      <trkpt lat="38.826661" lon="-2.189636">
        <ele>889.339633</ele>
        <time>2020-08-06T05:55:33.790Z</time>
      </trkpt>
      <trkpt lat="38.826701" lon="-2.189750">
        <ele>889.425082</ele>
        <time>2020-08-06T05:55:35.812Z</time>
      </trkpt>
      <trkpt lat="38.826727" lon="-2.189900">
        <ele>889.733946</ele>
        <time>2020-08-06T05:55:38.793Z</time>
      </trkpt>
      <trkpt lat="38.826732" lon="-2.190034">
        <ele>890.003586</ele>
        <time>2020-08-06T05:55:40.786Z</time>
      </trkpt>
      <trkpt lat="38.826756" lon="-2.190190">
        <ele>890.323193</ele>
        <time>2020-08-06T05:55:43.793Z</time>
      </trkpt>
      <trkpt lat="38.826770" lon="-2.190309">
        <ele>890.565087</ele>
        <time>2020-08-06T05:55:45.808Z</time>
      </trkpt>
      <trkpt lat="38.826795" lon="-2.190449">
        <ele>890.853776</ele>
        <time>2020-08-06T05:55:47.791Z</time>
      </trkpt>
      <trkpt lat="38.826865" lon="-2.190578">
        <ele>891.169757</ele>
        <time>2020-08-06T05:55:50.795Z</time>
      </trkpt>
      <trkpt lat="38.826924" lon="-2.190668">
        <ele>891.406175</ele>
        <time>2020-08-06T05:55:52.791Z</time>
      </trkpt>
      <trkpt lat="38.827023" lon="-2.190788">
        <ele>891.757477</ele>
        <time>2020-08-06T05:55:55.808Z</time>
      </trkpt>
      <trkpt lat="38.827098" lon="-2.190906">
        <ele>892.063570</ele>
        <time>2020-08-06T05:55:58.790Z</time>
      </trkpt>
      <trkpt lat="38.827182" lon="-2.191012">
        <ele>892.367476</ele>
        <time>2020-08-06T05:56:01.802Z</time>
      </trkpt>
      <trkpt lat="38.827264" lon="-2.191128">
        <ele>892.682305</ele>
        <time>2020-08-06T05:56:04.790Z</time>
      </trkpt>
      <trkpt lat="38.827335" lon="-2.191246">
        <ele>892.981980</ele>
        <time>2020-08-06T05:56:07.801Z</time>
      </trkpt>
      <trkpt lat="38.827407" lon="-2.191359">
        <ele>893.275392</ele>
        <time>2020-08-06T05:56:10.794Z</time>
      </trkpt>
      <trkpt lat="38.827487" lon="-2.191447">
        <ele>893.547211</ele>
        <time>2020-08-06T05:56:13.787Z</time>
      </trkpt>
      <trkpt lat="38.827564" lon="-2.191540">
        <ele>893.819985</ele>
        <time>2020-08-06T05:56:16.798Z</time>
      </trkpt>
      <trkpt lat="38.827644" lon="-2.191634">
        <ele>894.071730</ele>
        <time>2020-08-06T05:56:19.787Z</time>
      </trkpt>
      <trkpt lat="38.827718" lon="-2.191718">
        <ele>894.138273</ele>
        <time>2020-08-06T05:56:22.787Z</time>
      </trkpt>
      <trkpt lat="38.827802" lon="-2.191813">
        <ele>894.213686</ele>
        <time>2020-08-06T05:56:25.803Z</time>
      </trkpt>
      <trkpt lat="38.827893" lon="-2.191908">
        <ele>894.292699</ele>
        <time>2020-08-06T05:56:28.802Z</time>
      </trkpt>
      <trkpt lat="38.827962" lon="-2.191987">
        <ele>894.354981</ele>
        <time>2020-08-06T05:56:31.786Z</time>
      </trkpt>
      <trkpt lat="38.828051" lon="-2.192080">
        <ele>894.432286</ele>
        <time>2020-08-06T05:56:35.784Z</time>
      </trkpt>
      <trkpt lat="38.828136" lon="-2.192180">
        <ele>894.509954</ele>
        <time>2020-08-06T05:56:39.799Z</time>
      </trkpt>
      <trkpt lat="38.828192" lon="-2.192270">
        <ele>894.570400</ele>
        <time>2020-08-06T05:56:42.790Z</time>
      </trkpt>
      <trkpt lat="38.828261" lon="-2.192393">
        <ele>894.649940</ele>
        <time>2020-08-06T05:56:46.795Z</time>
      </trkpt>
      <trkpt lat="38.828316" lon="-2.192524">
        <ele>894.728033</ele>
        <time>2020-08-06T05:56:50.783Z</time>
      </trkpt>
      <trkpt lat="38.828358" lon="-2.192637">
        <ele>894.793735</ele>
        <time>2020-08-06T05:56:53.793Z</time>
      </trkpt>
      <trkpt lat="38.828416" lon="-2.192736">
        <ele>894.858739</ele>
        <time>2020-08-06T05:56:56.787Z</time>
      </trkpt>
      <trkpt lat="38.828472" lon="-2.192829">
        <ele>894.920422</ele>
        <time>2020-08-06T05:56:59.788Z</time>
      </trkpt>
      <trkpt lat="38.828539" lon="-2.192949">
        <ele>894.997898</ele>
        <time>2020-08-06T05:57:03.791Z</time>
      </trkpt>
      <trkpt lat="38.828573" lon="-2.193064">
        <ele>895.062446</ele>
        <time>2020-08-06T05:57:06.798Z</time>
      </trkpt>
      <trkpt lat="38.828607" lon="-2.193188">
        <ele>895.131430</ele>
        <time>2020-08-06T05:57:09.804Z</time>
      </trkpt>
      <trkpt lat="38.828651" lon="-2.193318">
        <ele>895.205811</ele>
        <time>2020-08-06T05:57:12.791Z</time>
      </trkpt>
      <trkpt lat="38.828685" lon="-2.193448">
        <ele>895.283825</ele>
        <time>2020-08-06T05:57:15.802Z</time>
      </trkpt>
      <trkpt lat="38.828727" lon="-2.193585">
        <ele>895.468445</ele>
        <time>2020-08-06T05:57:18.795Z</time>
      </trkpt>
      <trkpt lat="38.828766" lon="-2.193739">
        <ele>895.671505</ele>
        <time>2020-08-06T05:57:21.791Z</time>
      </trkpt>
      <trkpt lat="38.828822" lon="-2.193889">
        <ele>895.880086</ele>
        <time>2020-08-06T05:57:24.793Z</time>
      </trkpt>
      <trkpt lat="38.828860" lon="-2.193999">
        <ele>896.030978</ele>
        <time>2020-08-06T05:57:27.794Z</time>
      </trkpt>
      <trkpt lat="38.828927" lon="-2.194118">
        <ele>896.215095</ele>
        <time>2020-08-06T05:57:37.803Z</time>
      </trkpt>
      <trkpt lat="38.828968" lon="-2.194225">
        <ele>896.364623</ele>
        <time>2020-08-06T05:57:40.781Z</time>
      </trkpt>
      <trkpt lat="38.829004" lon="-2.194366">
        <ele>896.550687</ele>
        <time>2020-08-06T05:57:43.796Z</time>
      </trkpt>
      <trkpt lat="38.829016" lon="-2.194525">
        <ele>896.751003</ele>
        <time>2020-08-06T05:57:46.786Z</time>
      </trkpt>
      <trkpt lat="38.829010" lon="-2.194644">
        <ele>896.900538</ele>
        <time>2020-08-06T05:57:48.792Z</time>
      </trkpt>
      <trkpt lat="38.829008" lon="-2.194805">
        <ele>897.102454</ele>
        <time>2020-08-06T05:57:51.785Z</time>
      </trkpt>
      <trkpt lat="38.828999" lon="-2.194957">
        <ele>897.293608</ele>
        <time>2020-08-06T05:57:54.785Z</time>
      </trkpt>
      <trkpt lat="38.828986" lon="-2.195090">
        <ele>897.461694</ele>
        <time>2020-08-06T05:57:57.788Z</time>
      </trkpt>
      <trkpt lat="38.828969" lon="-2.195223">
        <ele>897.630703</ele>
        <time>2020-08-06T05:58:00.794Z</time>
      </trkpt>
      <trkpt lat="38.828940" lon="-2.195364">
        <ele>897.813572</ele>
        <time>2020-08-06T05:58:03.796Z</time>
      </trkpt>
      <trkpt lat="38.828901" lon="-2.195483">
        <ele>897.975463</ele>
        <time>2020-08-06T05:58:06.786Z</time>
      </trkpt>
      <trkpt lat="38.828856" lon="-2.195609">
        <ele>898.149277</ele>
        <time>2020-08-06T05:58:09.800Z</time>
      </trkpt>
      <trkpt lat="38.828813" lon="-2.195731">
        <ele>898.325790</ele>
        <time>2020-08-06T05:58:12.788Z</time>
      </trkpt>
      <trkpt lat="38.828814" lon="-2.195868">
        <ele>898.507539</ele>
        <time>2020-08-06T05:58:15.795Z</time>
      </trkpt>
      <trkpt lat="38.828871" lon="-2.195989">
        <ele>898.695120</ele>
        <time>2020-08-06T05:58:18.790Z</time>
      </trkpt>
      <trkpt lat="38.828955" lon="-2.196043">
        <ele>898.855096</ele>
        <time>2020-08-06T05:58:21.786Z</time>
      </trkpt>
      <trkpt lat="38.829046" lon="-2.196112">
        <ele>899.035072</ele>
        <time>2020-08-06T05:58:26.784Z</time>
      </trkpt>
      <trkpt lat="38.829114" lon="-2.196209">
        <ele>899.208180</ele>
        <time>2020-08-06T05:58:32.776Z</time>
      </trkpt>
      <trkpt lat="38.829219" lon="-2.196215">
        <ele>899.387158</ele>
        <time>2020-08-06T05:58:35.798Z</time>
      </trkpt>
      <trkpt lat="38.829347" lon="-2.196263">
        <ele>899.614236</ele>
        <time>2020-08-06T05:58:38.792Z</time>
      </trkpt>
      <trkpt lat="38.829407" lon="-2.196354">
        <ele>899.772388</ele>
        <time>2020-08-06T05:58:40.774Z</time>
      </trkpt>
      <trkpt lat="38.829428" lon="-2.196518">
        <ele>899.992863</ele>
        <time>2020-08-06T05:58:43.780Z</time>
      </trkpt>
      <trkpt lat="38.829452" lon="-2.196666">
        <ele>900.193403</ele>
        <time>2020-08-06T05:58:46.801Z</time>
      </trkpt>
      <trkpt lat="38.829483" lon="-2.196808">
        <ele>900.389032</ele>
        <time>2020-08-06T05:58:49.789Z</time>
      </trkpt>
      <trkpt lat="38.829516" lon="-2.196936">
        <ele>900.567889</ele>
        <time>2020-08-06T05:58:52.789Z</time>
      </trkpt>
      <trkpt lat="38.829564" lon="-2.197051">
        <ele>900.740962</ele>
        <time>2020-08-06T05:58:55.800Z</time>
      </trkpt>
      <trkpt lat="38.829610" lon="-2.197182">
        <ele>900.931579</ele>
        <time>2020-08-06T05:58:59.789Z</time>
      </trkpt>
      <trkpt lat="38.829656" lon="-2.197296">
        <ele>901.101890</ele>
        <time>2020-08-06T05:59:02.803Z</time>
      </trkpt>
      <trkpt lat="38.829684" lon="-2.197439">
        <ele>901.264399</ele>
        <time>2020-08-06T05:59:06.793Z</time>
      </trkpt>
      <trkpt lat="38.829716" lon="-2.197578">
        <ele>901.360235</ele>
        <time>2020-08-06T05:59:10.790Z</time>
      </trkpt>
      <trkpt lat="38.829768" lon="-2.197700">
        <ele>901.452187</ele>
        <time>2020-08-06T05:59:14.790Z</time>
      </trkpt>
      <trkpt lat="38.829845" lon="-2.197795">
        <ele>901.542834</ele>
        <time>2020-08-06T05:59:18.785Z</time>
      </trkpt>
      <trkpt lat="38.829907" lon="-2.197902">
        <ele>901.631008</ele>
        <time>2020-08-06T05:59:22.801Z</time>
      </trkpt>
      <trkpt lat="38.829943" lon="-2.198016">
        <ele>901.712342</ele>
        <time>2020-08-06T05:59:25.780Z</time>
      </trkpt>
      <trkpt lat="38.829997" lon="-2.198140">
        <ele>901.806272</ele>
        <time>2020-08-06T05:59:29.790Z</time>
      </trkpt>
      <trkpt lat="38.830055" lon="-2.198269">
        <ele>901.904754</ele>
        <time>2020-08-06T05:59:33.801Z</time>
      </trkpt>
      <trkpt lat="38.830097" lon="-2.198372">
        <ele>901.981623</ele>
        <time>2020-08-06T05:59:36.784Z</time>
      </trkpt>
      <trkpt lat="38.830147" lon="-2.198507">
        <ele>902.080459</ele>
        <time>2020-08-06T05:59:40.794Z</time>
      </trkpt>
      <trkpt lat="38.830204" lon="-2.198622">
        <ele>902.170583</ele>
        <time>2020-08-06T05:59:44.793Z</time>
      </trkpt>
      <trkpt lat="38.830261" lon="-2.198752">
        <ele>902.269219</ele>
        <time>2020-08-06T05:59:48.793Z</time>
      </trkpt>
      <trkpt lat="38.830312" lon="-2.198871">
        <ele>902.359023</ele>
        <time>2020-08-06T05:59:52.786Z</time>
      </trkpt>
      <trkpt lat="38.830369" lon="-2.198968">
        <ele>902.439360</ele>
        <time>2020-08-06T05:59:56.796Z</time>
      </trkpt>
      <trkpt lat="38.830433" lon="-2.199064">
        <ele>902.522905</ele>
        <time>2020-08-06T06:00:00.787Z</time>
      </trkpt>
      <trkpt lat="38.830494" lon="-2.199171">
        <ele>902.610574</ele>
        <time>2020-08-06T06:00:04.787Z</time>
      </trkpt>
      <trkpt lat="38.830557" lon="-2.199283">
        <ele>902.701915</ele>
        <time>2020-08-06T06:00:08.801Z</time>
      </trkpt>
      <trkpt lat="38.830611" lon="-2.199404">
        <ele>902.864702</ele>
        <time>2020-08-06T06:00:12.800Z</time>
      </trkpt>
      <trkpt lat="38.830669" lon="-2.199529">
        <ele>903.149665</ele>
        <time>2020-08-06T06:00:16.793Z</time>
      </trkpt>
      <trkpt lat="38.830721" lon="-2.199642">
        <ele>903.406718</ele>
        <time>2020-08-06T06:00:20.797Z</time>
      </trkpt>
      <trkpt lat="38.830778" lon="-2.199764">
        <ele>903.685348</ele>
        <time>2020-08-06T06:00:25.790Z</time>
      </trkpt>
      <trkpt lat="38.830810" lon="-2.199875">
        <ele>903.917161</ele>
        <time>2020-08-06T06:00:28.782Z</time>
      </trkpt>
      <trkpt lat="38.830881" lon="-2.199997">
        <ele>904.215427</ele>
        <time>2020-08-06T06:00:32.786Z</time>
      </trkpt>
      <trkpt lat="38.830957" lon="-2.200108">
        <ele>904.504869</ele>
        <time>2020-08-06T06:00:36.791Z</time>
      </trkpt>
      <trkpt lat="38.831025" lon="-2.200217">
        <ele>904.778376</ele>
        <time>2020-08-06T06:00:40.790Z</time>
      </trkpt>
      <trkpt lat="38.831091" lon="-2.200341">
        <ele>905.072517</ele>
        <time>2020-08-06T06:00:44.790Z</time>
      </trkpt>
      <trkpt lat="38.831134" lon="-2.200446">
        <ele>905.304855</ele>
        <time>2020-08-06T06:00:47.799Z</time>
      </trkpt>
      <trkpt lat="38.831188" lon="-2.200574">
        <ele>905.589956</ele>
        <time>2020-08-06T06:00:51.788Z</time>
      </trkpt>
      <trkpt lat="38.831240" lon="-2.200670">
        <ele>905.818967</ele>
        <time>2020-08-06T06:00:54.805Z</time>
      </trkpt>
      <trkpt lat="38.831279" lon="-2.200774">
        <ele>906.045032</ele>
        <time>2020-08-06T06:00:57.792Z</time>
      </trkpt>
      <trkpt lat="38.831334" lon="-2.200899">
        <ele>906.326209</ele>
        <time>2020-08-06T06:01:01.781Z</time>
      </trkpt>
      <trkpt lat="38.831368" lon="-2.201013">
        <ele>906.565291</ele>
        <time>2020-08-06T06:01:04.802Z</time>
      </trkpt>
      <trkpt lat="38.831411" lon="-2.201129">
        <ele>906.816897</ele>
        <time>2020-08-06T06:01:07.793Z</time>
      </trkpt>
      <trkpt lat="38.831456" lon="-2.201246">
        <ele>907.072460</ele>
        <time>2020-08-06T06:01:10.791Z</time>
      </trkpt>
      <trkpt lat="38.831512" lon="-2.201355">
        <ele>907.334347</ele>
        <time>2020-08-06T06:01:13.787Z</time>
      </trkpt>
      <trkpt lat="38.831571" lon="-2.201486">
        <ele>907.668846</ele>
        <time>2020-08-06T06:01:16.794Z</time>
      </trkpt>
      <trkpt lat="38.831625" lon="-2.201622">
        <ele>908.006283</ele>
        <time>2020-08-06T06:01:19.869Z</time>
      </trkpt>
      <trkpt lat="38.831672" lon="-2.201747">
        <ele>908.313107</ele>
        <time>2020-08-06T06:01:23.930Z</time>
      </trkpt>
      <trkpt lat="38.831726" lon="-2.201871">
        <ele>908.627141</ele>
        <time>2020-08-06T06:01:26.935Z</time>
      </trkpt>
      <trkpt lat="38.831780" lon="-2.201993">
        <ele>908.937323</ele>
        <time>2020-08-06T06:01:29.933Z</time>
      </trkpt>
      <trkpt lat="38.831827" lon="-2.202115">
        <ele>909.238187</ele>
        <time>2020-08-06T06:01:32.924Z</time>
      </trkpt>
      <trkpt lat="38.831875" lon="-2.202219">
        <ele>909.505406</ele>
        <time>2020-08-06T06:01:35.927Z</time>
      </trkpt>
      <trkpt lat="38.831934" lon="-2.202338">
        <ele>909.817223</ele>
        <time>2020-08-06T06:01:39.917Z</time>
      </trkpt>
      <trkpt lat="38.831993" lon="-2.202463">
        <ele>910.140306</ele>
        <time>2020-08-06T06:01:44.923Z</time>
      </trkpt>
      <trkpt lat="38.832047" lon="-2.202560">
        <ele>910.403857</ele>
        <time>2020-08-06T06:01:47.941Z</time>
      </trkpt>
      <trkpt lat="38.832112" lon="-2.202674">
        <ele>910.716150</ele>
        <time>2020-08-06T06:01:51.925Z</time>
      </trkpt>
      <trkpt lat="38.832176" lon="-2.202795">
        <ele>911.039456</ele>
        <time>2020-08-06T06:01:55.929Z</time>
      </trkpt>
      <trkpt lat="38.832235" lon="-2.202887">
        <ele>911.302877</ele>
        <time>2020-08-06T06:01:58.930Z</time>
      </trkpt>
      <trkpt lat="38.832302" lon="-2.203009">
        <ele>911.632845</ele>
        <time>2020-08-06T06:02:02.942Z</time>
      </trkpt>
      <trkpt lat="38.832363" lon="-2.203133">
        <ele>911.957033</ele>
        <time>2020-08-06T06:02:06.934Z</time>
      </trkpt>
      <trkpt lat="38.832424" lon="-2.203264">
        <ele>912.294406</ele>
        <time>2020-08-06T06:02:10.938Z</time>
      </trkpt>
      <trkpt lat="38.832479" lon="-2.203396">
        <ele>912.606109</ele>
        <time>2020-08-06T06:02:14.927Z</time>
      </trkpt>
      <trkpt lat="38.832545" lon="-2.203514">
        <ele>912.901627</ele>
        <time>2020-08-06T06:02:18.941Z</time>
      </trkpt>
      <trkpt lat="38.832598" lon="-2.203648">
        <ele>913.207349</ele>
        <time>2020-08-06T06:02:22.932Z</time>
      </trkpt>
      <trkpt lat="38.832677" lon="-2.203756">
        <ele>913.508734</ele>
        <time>2020-08-06T06:02:26.930Z</time>
      </trkpt>
      <trkpt lat="38.832742" lon="-2.203873">
        <ele>913.801077</ele>
        <time>2020-08-06T06:02:30.950Z</time>
      </trkpt>
      <trkpt lat="38.832791" lon="-2.204005">
        <ele>914.098536</ele>
        <time>2020-08-06T06:02:34.938Z</time>
      </trkpt>
      <trkpt lat="38.832829" lon="-2.204110">
        <ele>914.334064</ele>
        <time>2020-08-06T06:02:37.933Z</time>
      </trkpt>
      <trkpt lat="38.832877" lon="-2.204212">
        <ele>914.576486</ele>
        <time>2020-08-06T06:02:40.929Z</time>
      </trkpt>
      <trkpt lat="38.832938" lon="-2.204341">
        <ele>914.883476</ele>
        <time>2020-08-06T06:02:44.929Z</time>
      </trkpt>
      <trkpt lat="38.832984" lon="-2.204441">
        <ele>915.119727</ele>
        <time>2020-08-06T06:02:47.922Z</time>
      </trkpt>
      <trkpt lat="38.833034" lon="-2.204536">
        <ele>915.352961</ele>
        <time>2020-08-06T06:02:50.947Z</time>
      </trkpt>
      <trkpt lat="38.833103" lon="-2.204657">
        <ele>915.658017</ele>
        <time>2020-08-06T06:02:54.934Z</time>
      </trkpt>
      <trkpt lat="38.833159" lon="-2.204790">
        <ele>915.965572</ele>
        <time>2020-08-06T06:02:58.943Z</time>
      </trkpt>
      <trkpt lat="38.833213" lon="-2.204924">
        <ele>916.272483</ele>
        <time>2020-08-06T06:03:02.938Z</time>
      </trkpt>
      <trkpt lat="38.833273" lon="-2.205052">
        <ele>916.576381</ele>
        <time>2020-08-06T06:03:06.931Z</time>
      </trkpt>
      <trkpt lat="38.833324" lon="-2.205154">
        <ele>916.822944</ele>
        <time>2020-08-06T06:03:09.941Z</time>
      </trkpt>
      <trkpt lat="38.833370" lon="-2.205254">
        <ele>917.059194</ele>
        <time>2020-08-06T06:03:12.931Z</time>
      </trkpt>
      <trkpt lat="38.833431" lon="-2.205383">
        <ele>917.124777</ele>
        <time>2020-08-06T06:03:16.934Z</time>
      </trkpt>
      <trkpt lat="38.833480" lon="-2.205480">
        <ele>917.160499</ele>
        <time>2020-08-06T06:03:19.941Z</time>
      </trkpt>
      <trkpt lat="38.833550" lon="-2.205598">
        <ele>917.206327</ele>
        <time>2020-08-06T06:03:23.933Z</time>
      </trkpt>
      <trkpt lat="38.833620" lon="-2.205718">
        <ele>917.252649</ele>
        <time>2020-08-06T06:03:27.950Z</time>
      </trkpt>
      <trkpt lat="38.833663" lon="-2.205825">
        <ele>917.289851</ele>
        <time>2020-08-06T06:03:30.949Z</time>
      </trkpt>
      <trkpt lat="38.833699" lon="-2.205934">
        <ele>917.326432</ele>
        <time>2020-08-06T06:03:33.950Z</time>
      </trkpt>
      <trkpt lat="38.833768" lon="-2.206055">
        <ele>917.372767</ele>
        <time>2020-08-06T06:03:37.923Z</time>
      </trkpt>
      <trkpt lat="38.833828" lon="-2.206184">
        <ele>917.419190</ele>
        <time>2020-08-06T06:03:41.938Z</time>
      </trkpt>
      <trkpt lat="38.833893" lon="-2.206306">
        <ele>917.464860</ele>
        <time>2020-08-06T06:03:45.928Z</time>
      </trkpt>
      <trkpt lat="38.833942" lon="-2.206412">
        <ele>917.502945</ele>
        <time>2020-08-06T06:03:48.936Z</time>
      </trkpt>
      <trkpt lat="38.833995" lon="-2.206510">
        <ele>917.539807</ele>
        <time>2020-08-06T06:03:51.933Z</time>
      </trkpt>
      <trkpt lat="38.834040" lon="-2.206617">
        <ele>917.577379</ele>
        <time>2020-08-06T06:03:54.936Z</time>
      </trkpt>
      <trkpt lat="38.834088" lon="-2.206717">
        <ele>917.613672</ele>
        <time>2020-08-06T06:03:57.930Z</time>
      </trkpt>
      <trkpt lat="38.834132" lon="-2.206817">
        <ele>917.649159</ele>
        <time>2020-08-06T06:04:00.936Z</time>
      </trkpt>
      <trkpt lat="38.834179" lon="-2.206958">
        <ele>917.696546</ele>
        <time>2020-08-06T06:04:04.930Z</time>
      </trkpt>
      <trkpt lat="38.834216" lon="-2.207072">
        <ele>917.734705</ele>
        <time>2020-08-06T06:04:07.931Z</time>
      </trkpt>
      <trkpt lat="38.834278" lon="-2.207202">
        <ele>917.781804</ele>
        <time>2020-08-06T06:04:11.935Z</time>
      </trkpt>
      <trkpt lat="38.834320" lon="-2.207307">
        <ele>917.879142</ele>
        <time>2020-08-06T06:04:14.930Z</time>
      </trkpt>
      <trkpt lat="38.834364" lon="-2.207407">
        <ele>918.007382</ele>
        <time>2020-08-06T06:04:17.944Z</time>
      </trkpt>
      <trkpt lat="38.834425" lon="-2.207523">
        <ele>918.163657</ele>
        <time>2020-08-06T06:04:21.936Z</time>
      </trkpt>
      <trkpt lat="38.834489" lon="-2.207640">
        <ele>918.323290</ele>
        <time>2020-08-06T06:04:25.932Z</time>
      </trkpt>
      <trkpt lat="38.834547" lon="-2.207745">
        <ele>918.467017</ele>
        <time>2020-08-06T06:04:29.934Z</time>
      </trkpt>
      <trkpt lat="38.834610" lon="-2.207852">
        <ele>918.616781</ele>
        <time>2020-08-06T06:04:33.932Z</time>
      </trkpt>
      <trkpt lat="38.834662" lon="-2.207952">
        <ele>918.751032</ele>
        <time>2020-08-06T06:04:37.932Z</time>
      </trkpt>
      <trkpt lat="38.834712" lon="-2.208058">
        <ele>918.889398</ele>
        <time>2020-08-06T06:04:41.934Z</time>
      </trkpt>
      <trkpt lat="38.834764" lon="-2.208172">
        <ele>919.036906</ele>
        <time>2020-08-06T06:04:45.942Z</time>
      </trkpt>
      <trkpt lat="38.834823" lon="-2.208291">
        <ele>919.194409</ele>
        <time>2020-08-06T06:04:50.929Z</time>
      </trkpt>
      <trkpt lat="38.834875" lon="-2.208392">
        <ele>919.329590</ele>
        <time>2020-08-06T06:04:54.928Z</time>
      </trkpt>
      <trkpt lat="38.834918" lon="-2.208499">
        <ele>919.464026</ele>
        <time>2020-08-06T06:04:58.929Z</time>
      </trkpt>
      <trkpt lat="38.834974" lon="-2.208621">
        <ele>919.622140</ele>
        <time>2020-08-06T06:05:03.930Z</time>
      </trkpt>
      <trkpt lat="38.835023" lon="-2.208755">
        <ele>919.787427</ele>
        <time>2020-08-06T06:05:08.927Z</time>
      </trkpt>
      <trkpt lat="38.835074" lon="-2.208862">
        <ele>919.927491</ele>
        <time>2020-08-06T06:05:12.929Z</time>
      </trkpt>
      <trkpt lat="38.835121" lon="-2.208962">
        <ele>920.057899</ele>
        <time>2020-08-06T06:05:16.933Z</time>
      </trkpt>
      <trkpt lat="38.835178" lon="-2.209088">
        <ele>920.220591</ele>
        <time>2020-08-06T06:05:21.934Z</time>
      </trkpt>
      <trkpt lat="38.835231" lon="-2.209195">
        <ele>920.362173</ele>
        <time>2020-08-06T06:05:25.933Z</time>
      </trkpt>
      <trkpt lat="38.835265" lon="-2.209311">
        <ele>920.181411</ele>
        <time>2020-08-06T06:05:29.937Z</time>
      </trkpt>
      <trkpt lat="38.835312" lon="-2.209416">
        <ele>919.977785</ele>
        <time>2020-08-06T06:05:33.934Z</time>
      </trkpt>
      <trkpt lat="38.835351" lon="-2.209531">
        <ele>919.766888</ele>
        <time>2020-08-06T06:05:37.934Z</time>
      </trkpt>
      <trkpt lat="38.835393" lon="-2.209657">
        <ele>919.536443</ele>
        <time>2020-08-06T06:05:41.923Z</time>
      </trkpt>
      <trkpt lat="38.835447" lon="-2.209772">
        <ele>919.310661</ele>
        <time>2020-08-06T06:05:45.943Z</time>
      </trkpt>
      <trkpt lat="38.835507" lon="-2.209881">
        <ele>919.086239</ele>
        <time>2020-08-06T06:05:49.934Z</time>
      </trkpt>
      <trkpt lat="38.835539" lon="-2.210015">
        <ele>918.850576</ele>
        <time>2020-08-06T06:05:53.926Z</time>
      </trkpt>
      <trkpt lat="38.835566" lon="-2.210155">
        <ele>918.608067</ele>
        <time>2020-08-06T06:05:57.933Z</time>
      </trkpt>
      <trkpt lat="38.835597" lon="-2.210299">
        <ele>918.356863</ele>
        <time>2020-08-06T06:06:01.938Z</time>
      </trkpt>
      <trkpt lat="38.835615" lon="-2.210457">
        <ele>918.088369</ele>
        <time>2020-08-06T06:06:04.931Z</time>
      </trkpt>
      <trkpt lat="38.835620" lon="-2.210576">
        <ele>917.887987</ele>
        <time>2020-08-06T06:06:06.925Z</time>
      </trkpt>
      <trkpt lat="38.835627" lon="-2.210735">
        <ele>917.620212</ele>
        <time>2020-08-06T06:06:09.935Z</time>
      </trkpt>
      <trkpt lat="38.835628" lon="-2.210900">
        <ele>917.342766</ele>
        <time>2020-08-06T06:06:12.941Z</time>
      </trkpt>
      <trkpt lat="38.835646" lon="-2.211075">
        <ele>917.045960</ele>
        <time>2020-08-06T06:06:15.928Z</time>
      </trkpt>
      <trkpt lat="38.835651" lon="-2.211191">
        <ele>916.850615</ele>
        <time>2020-08-06T06:06:17.933Z</time>
      </trkpt>
      <trkpt lat="38.835667" lon="-2.211310">
        <ele>916.647565</ele>
        <time>2020-08-06T06:06:19.933Z</time>
      </trkpt>
      <trkpt lat="38.835673" lon="-2.211430">
        <ele>916.455894</ele>
        <time>2020-08-06T06:06:21.933Z</time>
      </trkpt>
      <trkpt lat="38.835697" lon="-2.211611">
        <ele>916.218885</ele>
        <time>2020-08-06T06:06:24.940Z</time>
      </trkpt>
      <trkpt lat="38.835714" lon="-2.211759">
        <ele>916.025770</ele>
        <time>2020-08-06T06:06:26.937Z</time>
      </trkpt>
      <trkpt lat="38.835729" lon="-2.211912">
        <ele>915.826709</ele>
        <time>2020-08-06T06:06:28.930Z</time>
      </trkpt>
      <trkpt lat="38.835736" lon="-2.212085">
        <ele>915.603087</ele>
        <time>2020-08-06T06:06:30.933Z</time>
      </trkpt>
      <trkpt lat="38.835761" lon="-2.212263">
        <ele>915.369607</ele>
        <time>2020-08-06T06:06:32.940Z</time>
      </trkpt>
      <trkpt lat="38.835777" lon="-2.212454">
        <ele>915.121629</ele>
        <time>2020-08-06T06:06:34.940Z</time>
      </trkpt>
      <trkpt lat="38.835792" lon="-2.212639">
        <ele>914.881528</ele>
        <time>2020-08-06T06:06:36.936Z</time>
      </trkpt>
      <trkpt lat="38.835809" lon="-2.212819">
        <ele>914.647470</ele>
        <time>2020-08-06T06:06:38.935Z</time>
      </trkpt>
      <trkpt lat="38.835810" lon="-2.213051">
        <ele>914.347984</ele>
        <time>2020-08-06T06:06:40.935Z</time>
      </trkpt>
      <trkpt lat="38.835827" lon="-2.213264">
        <ele>914.071589</ele>
        <time>2020-08-06T06:06:42.940Z</time>
      </trkpt>
      <trkpt lat="38.835842" lon="-2.213461">
        <ele>913.816076</ele>
        <time>2020-08-06T06:06:44.947Z</time>
      </trkpt>
      <trkpt lat="38.835872" lon="-2.213655">
        <ele>913.560760</ele>
        <time>2020-08-06T06:06:46.929Z</time>
      </trkpt>
      <trkpt lat="38.835879" lon="-2.213880">
        <ele>914.584268</ele>
        <time>2020-08-06T06:06:48.939Z</time>
      </trkpt>
      <trkpt lat="38.835878" lon="-2.214002">
        <ele>915.289695</ele>
        <time>2020-08-06T06:06:49.924Z</time>
      </trkpt>
      <trkpt lat="38.835876" lon="-2.214254">
        <ele>916.746800</ele>
        <time>2020-08-06T06:06:51.932Z</time>
      </trkpt>
      <trkpt lat="38.835878" lon="-2.214375">
        <ele>917.446563</ele>
        <time>2020-08-06T06:06:52.933Z</time>
      </trkpt>
      <trkpt lat="38.835885" lon="-2.214620">
        <ele>918.864073</ele>
        <time>2020-08-06T06:06:54.932Z</time>
      </trkpt>
      <trkpt lat="38.835886" lon="-2.214865">
        <ele>920.280649</ele>
        <time>2020-08-06T06:06:56.928Z</time>
      </trkpt>
      <trkpt lat="38.835896" lon="-2.214990">
        <ele>921.007184</ele>
        <time>2020-08-06T06:06:57.924Z</time>
      </trkpt>
      <trkpt lat="38.835894" lon="-2.215138">
        <ele>921.863029</ele>
        <time>2020-08-06T06:06:58.935Z</time>
      </trkpt>
      <trkpt lat="38.835895" lon="-2.215286">
        <ele>922.718777</ele>
        <time>2020-08-06T06:06:59.936Z</time>
      </trkpt>
      <trkpt lat="38.835916" lon="-2.215415">
        <ele>923.480751</ele>
        <time>2020-08-06T06:07:00.957Z</time>
      </trkpt>
      <trkpt lat="38.835952" lon="-2.215528">
        <ele>924.186634</ele>
        <time>2020-08-06T06:07:01.942Z</time>
      </trkpt>
      <trkpt lat="38.835980" lon="-2.215666">
        <ele>925.011155</ele>
        <time>2020-08-06T06:07:02.929Z</time>
      </trkpt>
      <trkpt lat="38.835996" lon="-2.215823">
        <ele>925.926642</ele>
        <time>2020-08-06T06:07:03.930Z</time>
      </trkpt>
      <trkpt lat="38.836038" lon="-2.215950">
        <ele>926.724376</ele>
        <time>2020-08-06T06:07:04.926Z</time>
      </trkpt>
      <trkpt lat="38.836089" lon="-2.216063">
        <ele>926.836525</ele>
        <time>2020-08-06T06:07:05.928Z</time>
      </trkpt>
      <trkpt lat="38.836130" lon="-2.216182">
        <ele>926.807133</ele>
        <time>2020-08-06T06:07:06.938Z</time>
      </trkpt>
      <trkpt lat="38.836193" lon="-2.216289">
        <ele>926.776836</ele>
        <time>2020-08-06T06:07:07.929Z</time>
      </trkpt>
      <trkpt lat="38.836226" lon="-2.216430">
        <ele>926.743580</ele>
        <time>2020-08-06T06:07:08.931Z</time>
      </trkpt>
      <trkpt lat="38.836280" lon="-2.216553">
        <ele>926.711688</ele>
        <time>2020-08-06T06:07:09.924Z</time>
      </trkpt>
      <trkpt lat="38.836352" lon="-2.216651">
        <ele>926.681259</ele>
        <time>2020-08-06T06:07:10.938Z</time>
      </trkpt>
      <trkpt lat="38.836422" lon="-2.216760">
        <ele>926.649349</ele>
        <time>2020-08-06T06:07:11.936Z</time>
      </trkpt>
      <trkpt lat="38.836486" lon="-2.216869">
        <ele>926.618517</ele>
        <time>2020-08-06T06:07:12.924Z</time>
      </trkpt>
      <trkpt lat="38.836563" lon="-2.216973">
        <ele>926.586106</ele>
        <time>2020-08-06T06:07:13.937Z</time>
      </trkpt>
      <trkpt lat="38.836641" lon="-2.217066">
        <ele>926.555237</ele>
        <time>2020-08-06T06:07:14.926Z</time>
      </trkpt>
      <trkpt lat="38.836716" lon="-2.217158">
        <ele>926.525157</ele>
        <time>2020-08-06T06:07:15.932Z</time>
      </trkpt>
      <trkpt lat="38.836814" lon="-2.217243">
        <ele>926.490860</ele>
        <time>2020-08-06T06:07:16.932Z</time>
      </trkpt>
      <trkpt lat="38.836912" lon="-2.217327">
        <ele>926.456690</ele>
        <time>2020-08-06T06:07:17.929Z</time>
      </trkpt>
      <trkpt lat="38.837006" lon="-2.217401">
        <ele>926.424715</ele>
        <time>2020-08-06T06:07:18.926Z</time>
      </trkpt>
      <trkpt lat="38.837105" lon="-2.217466">
        <ele>926.392470</ele>
        <time>2020-08-06T06:07:19.934Z</time>
      </trkpt>
      <trkpt lat="38.837206" lon="-2.217522">
        <ele>926.360567</ele>
        <time>2020-08-06T06:07:20.921Z</time>
      </trkpt>
      <trkpt lat="38.837309" lon="-2.217576">
        <ele>926.307380</ele>
        <time>2020-08-06T06:07:21.943Z</time>
      </trkpt>
      <trkpt lat="38.837427" lon="-2.217620">
        <ele>926.202824</ele>
        <time>2020-08-06T06:07:22.926Z</time>
      </trkpt>
      <trkpt lat="38.837538" lon="-2.217654">
        <ele>926.105722</ele>
        <time>2020-08-06T06:07:23.937Z</time>
      </trkpt>
      <trkpt lat="38.837655" lon="-2.217683">
        <ele>926.004328</ele>
        <time>2020-08-06T06:07:24.933Z</time>
      </trkpt>
      <trkpt lat="38.837769" lon="-2.217711">
        <ele>925.905565</ele>
        <time>2020-08-06T06:07:25.932Z</time>
      </trkpt>
      <trkpt lat="38.837883" lon="-2.217731">
        <ele>925.807660</ele>
        <time>2020-08-06T06:07:26.944Z</time>
      </trkpt>
      <trkpt lat="38.837990" lon="-2.217736">
        <ele>925.716553</ele>
        <time>2020-08-06T06:07:27.935Z</time>
      </trkpt>
      <trkpt lat="38.838099" lon="-2.217745">
        <ele>925.623613</ele>
        <time>2020-08-06T06:07:28.929Z</time>
      </trkpt>
      <trkpt lat="38.838220" lon="-2.217753">
        <ele>925.520517</ele>
        <time>2020-08-06T06:07:29.928Z</time>
      </trkpt>
      <trkpt lat="38.838331" lon="-2.217757">
        <ele>925.426029</ele>
        <time>2020-08-06T06:07:30.948Z</time>
      </trkpt>
      <trkpt lat="38.838440" lon="-2.217751">
        <ele>925.333195</ele>
        <time>2020-08-06T06:07:31.928Z</time>
      </trkpt>
      <trkpt lat="38.838571" lon="-2.217748">
        <ele>925.221709</ele>
        <time>2020-08-06T06:07:32.938Z</time>
      </trkpt>
      <trkpt lat="38.838676" lon="-2.217746">
        <ele>925.132354</ele>
        <time>2020-08-06T06:07:33.929Z</time>
      </trkpt>
      <trkpt lat="38.838795" lon="-2.217741">
        <ele>925.031042</ele>
        <time>2020-08-06T06:07:34.933Z</time>
      </trkpt>
      <trkpt lat="38.838914" lon="-2.217741">
        <ele>924.929784</ele>
        <time>2020-08-06T06:07:35.934Z</time>
      </trkpt>
      <trkpt lat="38.839037" lon="-2.217725">
        <ele>924.824587</ele>
        <time>2020-08-06T06:07:36.936Z</time>
      </trkpt>
      <trkpt lat="38.839152" lon="-2.217734">
        <ele>924.662572</ele>
        <time>2020-08-06T06:07:37.928Z</time>
      </trkpt>
      <trkpt lat="38.839253" lon="-2.217750">
        <ele>924.508493</ele>
        <time>2020-08-06T06:07:38.932Z</time>
      </trkpt>
      <trkpt lat="38.839431" lon="-2.217801">
        <ele>924.232363</ele>
        <time>2020-08-06T06:07:40.935Z</time>
      </trkpt>
      <trkpt lat="38.839527" lon="-2.217842">
        <ele>924.079183</ele>
        <time>2020-08-06T06:07:41.925Z</time>
      </trkpt>
      <trkpt lat="38.839615" lon="-2.217876">
        <ele>923.940044</ele>
        <time>2020-08-06T06:07:42.931Z</time>
      </trkpt>
      <trkpt lat="38.839727" lon="-2.217915">
        <ele>923.764344</ele>
        <time>2020-08-06T06:07:43.926Z</time>
      </trkpt>
      <trkpt lat="38.839840" lon="-2.217964">
        <ele>923.583761</ele>
        <time>2020-08-06T06:07:44.933Z</time>
      </trkpt>
      <trkpt lat="38.839940" lon="-2.218030">
        <ele>923.413522</ele>
        <time>2020-08-06T06:07:45.942Z</time>
      </trkpt>
      <trkpt lat="38.840038" lon="-2.218109">
        <ele>923.238321</ele>
        <time>2020-08-06T06:07:46.940Z</time>
      </trkpt>
      <trkpt lat="38.840141" lon="-2.218177">
        <ele>923.062964</ele>
        <time>2020-08-06T06:07:47.923Z</time>
      </trkpt>
      <trkpt lat="38.840249" lon="-2.218251">
        <ele>922.877617</ele>
        <time>2020-08-06T06:07:48.926Z</time>
      </trkpt>
      <trkpt lat="38.840341" lon="-2.218343">
        <ele>922.701057</ele>
        <time>2020-08-06T06:07:49.935Z</time>
      </trkpt>
      <trkpt lat="38.840435" lon="-2.218417">
        <ele>922.534112</ele>
        <time>2020-08-06T06:07:50.933Z</time>
      </trkpt>
      <trkpt lat="38.840519" lon="-2.218520">
        <ele>922.358246</ele>
        <time>2020-08-06T06:07:51.931Z</time>
      </trkpt>
      <trkpt lat="38.840602" lon="-2.218620">
        <ele>922.185912</ele>
        <time>2020-08-06T06:07:52.932Z</time>
      </trkpt>
      <trkpt lat="38.840680" lon="-2.218719">
        <ele>922.020370</ele>
        <time>2020-08-06T06:07:53.935Z</time>
      </trkpt>
      <trkpt lat="38.840766" lon="-2.218826">
        <ele>921.840494</ele>
        <time>2020-08-06T06:07:54.929Z</time>
      </trkpt>
      <trkpt lat="38.840858" lon="-2.218937">
        <ele>921.650868</ele>
        <time>2020-08-06T06:07:55.932Z</time>
      </trkpt>
      <trkpt lat="38.840937" lon="-2.219062">
        <ele>921.462546</ele>
        <time>2020-08-06T06:07:56.923Z</time>
      </trkpt>
      <trkpt lat="38.841021" lon="-2.219170">
        <ele>921.283989</ele>
        <time>2020-08-06T06:07:57.921Z</time>
      </trkpt>
      <trkpt lat="38.841094" lon="-2.219278">
        <ele>921.116698</ele>
        <time>2020-08-06T06:07:58.930Z</time>
      </trkpt>
      <trkpt lat="38.841163" lon="-2.219405">
        <ele>920.935547</ele>
        <time>2020-08-06T06:07:59.931Z</time>
      </trkpt>
      <trkpt lat="38.841247" lon="-2.219533">
        <ele>920.739735</ele>
        <time>2020-08-06T06:08:00.933Z</time>
      </trkpt>
      <trkpt lat="38.841314" lon="-2.219646">
        <ele>920.573592</ele>
        <time>2020-08-06T06:08:01.932Z</time>
      </trkpt>
      <trkpt lat="38.841401" lon="-2.219762">
        <ele>920.385198</ele>
        <time>2020-08-06T06:08:02.935Z</time>
      </trkpt>
      <trkpt lat="38.841459" lon="-2.219870">
        <ele>920.231728</ele>
        <time>2020-08-06T06:08:03.914Z</time>
      </trkpt>
      <trkpt lat="38.841506" lon="-2.219998">
        <ele>920.066176</ele>
        <time>2020-08-06T06:08:04.928Z</time>
      </trkpt>
      <trkpt lat="38.841582" lon="-2.220094">
        <ele>919.906039</ele>
        <time>2020-08-06T06:08:05.932Z</time>
      </trkpt>
      <trkpt lat="38.841657" lon="-2.220195">
        <ele>919.742786</ele>
        <time>2020-08-06T06:08:06.927Z</time>
      </trkpt>
      <trkpt lat="38.841731" lon="-2.220298">
        <ele>919.578854</ele>
        <time>2020-08-06T06:08:07.941Z</time>
      </trkpt>
      <trkpt lat="38.841814" lon="-2.220415">
        <ele>919.393714</ele>
        <time>2020-08-06T06:08:08.932Z</time>
      </trkpt>
      <trkpt lat="38.841894" lon="-2.220522">
        <ele>919.165497</ele>
        <time>2020-08-06T06:08:09.936Z</time>
      </trkpt>
      <trkpt lat="38.841979" lon="-2.220592">
        <ele>918.963120</ele>
        <time>2020-08-06T06:08:10.939Z</time>
      </trkpt>
      <trkpt lat="38.842061" lon="-2.220699">
        <ele>918.728811</ele>
        <time>2020-08-06T06:08:11.937Z</time>
      </trkpt>
      <trkpt lat="38.842153" lon="-2.220770">
        <ele>918.513691</ele>
        <time>2020-08-06T06:08:12.931Z</time>
      </trkpt>
      <trkpt lat="38.842254" lon="-2.220850">
        <ele>918.275860</ele>
        <time>2020-08-06T06:08:13.939Z</time>
      </trkpt>
      <trkpt lat="38.842359" lon="-2.220914">
        <ele>918.042924</ele>
        <time>2020-08-06T06:08:14.921Z</time>
      </trkpt>
      <trkpt lat="38.842464" lon="-2.220984">
        <ele>917.805820</ele>
        <time>2020-08-06T06:08:15.940Z</time>
      </trkpt>
      <trkpt lat="38.842573" lon="-2.221044">
        <ele>917.568146</ele>
        <time>2020-08-06T06:08:16.925Z</time>
      </trkpt>
      <trkpt lat="38.842690" lon="-2.221088">
        <ele>917.323818</ele>
        <time>2020-08-06T06:08:17.931Z</time>
      </trkpt>
      <trkpt lat="38.842806" lon="-2.221131">
        <ele>917.081851</ele>
        <time>2020-08-06T06:08:18.928Z</time>
      </trkpt>
      <trkpt lat="38.842916" lon="-2.221175">
        <ele>916.850952</ele>
        <time>2020-08-06T06:08:19.935Z</time>
      </trkpt>
      <trkpt lat="38.843036" lon="-2.221201">
        <ele>916.607064</ele>
        <time>2020-08-06T06:08:20.922Z</time>
      </trkpt>
      <trkpt lat="38.843154" lon="-2.221225">
        <ele>916.367635</ele>
        <time>2020-08-06T06:08:21.927Z</time>
      </trkpt>
      <trkpt lat="38.843273" lon="-2.221228">
        <ele>916.129104</ele>
        <time>2020-08-06T06:08:22.928Z</time>
      </trkpt>
      <trkpt lat="38.843392" lon="-2.221228">
        <ele>915.890620</ele>
        <time>2020-08-06T06:08:23.929Z</time>
      </trkpt>
      <trkpt lat="38.843512" lon="-2.221230">
        <ele>915.745837</ele>
        <time>2020-08-06T06:08:24.917Z</time>
      </trkpt>
      <trkpt lat="38.843621" lon="-2.221257">
        <ele>915.688293</ele>
        <time>2020-08-06T06:08:25.930Z</time>
      </trkpt>
      <trkpt lat="38.843735" lon="-2.221273">
        <ele>915.628847</ele>
        <time>2020-08-06T06:08:26.918Z</time>
      </trkpt>
      <trkpt lat="38.843840" lon="-2.221292">
        <ele>915.573881</ele>
        <time>2020-08-06T06:08:27.929Z</time>
      </trkpt>
      <trkpt lat="38.843954" lon="-2.221301">
        <ele>915.514675</ele>
        <time>2020-08-06T06:08:28.944Z</time>
      </trkpt>
      <trkpt lat="38.844047" lon="-2.221314">
        <ele>915.466182</ele>
        <time>2020-08-06T06:08:29.918Z</time>
      </trkpt>
      <trkpt lat="38.844144" lon="-2.221351">
        <ele>915.413728</ele>
        <time>2020-08-06T06:08:30.933Z</time>
      </trkpt>
      <trkpt lat="38.844262" lon="-2.221375">
        <ele>915.351798</ele>
        <time>2020-08-06T06:08:31.927Z</time>
      </trkpt>
      <trkpt lat="38.844362" lon="-2.221426">
        <ele>915.296022</ele>
        <time>2020-08-06T06:08:32.924Z</time>
      </trkpt>
      <trkpt lat="38.844454" lon="-2.221481">
        <ele>915.243416</ele>
        <time>2020-08-06T06:08:33.928Z</time>
      </trkpt>
      <trkpt lat="38.844547" lon="-2.221549">
        <ele>915.187939</ele>
        <time>2020-08-06T06:08:34.948Z</time>
      </trkpt>
      <trkpt lat="38.844637" lon="-2.221626">
        <ele>915.131877</ele>
        <time>2020-08-06T06:08:35.937Z</time>
      </trkpt>
      <trkpt lat="38.844727" lon="-2.221699">
        <ele>915.076694</ele>
        <time>2020-08-06T06:08:36.924Z</time>
      </trkpt>
      <trkpt lat="38.844811" lon="-2.221782">
        <ele>915.021750</ele>
        <time>2020-08-06T06:08:37.935Z</time>
      </trkpt>
      <trkpt lat="38.844898" lon="-2.221864">
        <ele>914.965805</ele>
        <time>2020-08-06T06:08:38.927Z</time>
      </trkpt>
      <trkpt lat="38.844998" lon="-2.221939">
        <ele>914.905773</ele>
        <time>2020-08-06T06:08:39.930Z</time>
      </trkpt>
      <trkpt lat="38.845081" lon="-2.222023">
        <ele>914.850990</ele>
        <time>2020-08-06T06:08:40.928Z</time>
      </trkpt>
      <trkpt lat="38.845159" lon="-2.222118">
        <ele>914.582955</ele>
        <time>2020-08-06T06:08:41.928Z</time>
      </trkpt>
      <trkpt lat="38.845237" lon="-2.222210">
        <ele>914.302238</ele>
        <time>2020-08-06T06:08:42.933Z</time>
      </trkpt>
      <trkpt lat="38.845313" lon="-2.222330">
        <ele>913.982969</ele>
        <time>2020-08-06T06:08:43.928Z</time>
      </trkpt>
      <trkpt lat="38.845368" lon="-2.222459">
        <ele>913.679396</ele>
        <time>2020-08-06T06:08:44.931Z</time>
      </trkpt>
      <trkpt lat="38.845420" lon="-2.222577">
        <ele>913.399531</ele>
        <time>2020-08-06T06:08:45.919Z</time>
      </trkpt>
      <trkpt lat="38.845482" lon="-2.222676">
        <ele>913.137302</ele>
        <time>2020-08-06T06:08:46.944Z</time>
      </trkpt>
      <trkpt lat="38.845549" lon="-2.222806">
        <ele>912.815519</ele>
        <time>2020-08-06T06:08:47.924Z</time>
      </trkpt>
      <trkpt lat="38.845587" lon="-2.222933">
        <ele>912.534683</ele>
        <time>2020-08-06T06:08:48.927Z</time>
      </trkpt>
      <trkpt lat="38.845659" lon="-2.223058">
        <ele>912.213758</ele>
        <time>2020-08-06T06:08:49.920Z</time>
      </trkpt>
      <trkpt lat="38.845723" lon="-2.223188">
        <ele>911.896295</ele>
        <time>2020-08-06T06:08:50.935Z</time>
      </trkpt>
      <trkpt lat="38.845799" lon="-2.223311">
        <ele>911.572200</ele>
        <time>2020-08-06T06:08:51.924Z</time>
      </trkpt>
      <trkpt lat="38.845860" lon="-2.223442">
        <ele>911.257144</ele>
        <time>2020-08-06T06:08:52.929Z</time>
      </trkpt>
      <trkpt lat="38.845916" lon="-2.223574">
        <ele>910.946867</ele>
        <time>2020-08-06T06:08:53.933Z</time>
      </trkpt>
      <trkpt lat="38.845981" lon="-2.223686">
        <ele>910.658548</ele>
        <time>2020-08-06T06:08:54.931Z</time>
      </trkpt>
      <trkpt lat="38.846037" lon="-2.223814">
        <ele>910.355497</ele>
        <time>2020-08-06T06:08:55.940Z</time>
      </trkpt>
      <trkpt lat="38.846095" lon="-2.223951">
        <ele>910.054643</ele>
        <time>2020-08-06T06:08:56.935Z</time>
      </trkpt>
      <trkpt lat="38.846152" lon="-2.224081">
        <ele>909.886888</ele>
        <time>2020-08-06T06:08:57.942Z</time>
      </trkpt>
      <trkpt lat="38.846213" lon="-2.224196">
        <ele>909.730430</ele>
        <time>2020-08-06T06:08:58.933Z</time>
      </trkpt>
      <trkpt lat="38.846264" lon="-2.224334">
        <ele>909.558669</ele>
        <time>2020-08-06T06:08:59.942Z</time>
      </trkpt>
      <trkpt lat="38.846325" lon="-2.224465">
        <ele>909.387042</ele>
        <time>2020-08-06T06:09:00.944Z</time>
      </trkpt>
      <trkpt lat="38.846375" lon="-2.224595">
        <ele>909.224006</ele>
        <time>2020-08-06T06:09:01.935Z</time>
      </trkpt>
      <trkpt lat="38.846430" lon="-2.224720">
        <ele>909.062567</ele>
        <time>2020-08-06T06:09:02.928Z</time>
      </trkpt>
      <trkpt lat="38.846483" lon="-2.224832">
        <ele>908.915201</ele>
        <time>2020-08-06T06:09:03.935Z</time>
      </trkpt>
      <trkpt lat="38.846545" lon="-2.225032">
        <ele>908.673147</ele>
        <time>2020-08-06T06:09:05.931Z</time>
      </trkpt>
      <trkpt lat="38.846617" lon="-2.225129">
        <ele>908.522470</ele>
        <time>2020-08-06T06:09:07.958Z</time>
      </trkpt>
      <trkpt lat="38.846662" lon="-2.225242">
        <ele>908.379758</ele>
        <time>2020-08-06T06:09:11.944Z</time>
      </trkpt>
      <trkpt lat="38.846686" lon="-2.225396">
        <ele>908.203157</ele>
        <time>2020-08-06T06:09:14.930Z</time>
      </trkpt>
      <trkpt lat="38.846731" lon="-2.225528">
        <ele>908.041130</ele>
        <time>2020-08-06T06:09:17.948Z</time>
      </trkpt>
      <trkpt lat="38.846644" lon="-2.225562">
        <ele>907.909830</ele>
        <time>2020-08-06T06:09:23.916Z</time>
      </trkpt>
      <trkpt lat="38.846604" lon="-2.225451">
        <ele>907.772300</ele>
        <time>2020-08-06T06:09:28.922Z</time>
      </trkpt>
      <trkpt lat="38.846584" lon="-2.225336">
        <ele>907.639801</ele>
        <time>2020-08-06T06:09:37.930Z</time>
      </trkpt>
      <trkpt lat="38.846608" lon="-2.225217">
        <ele>907.501576</ele>
        <time>2020-08-06T06:09:41.925Z</time>
      </trkpt>
      <trkpt lat="38.846564" lon="-2.225089">
        <ele>907.379016</ele>
        <time>2020-08-06T06:09:45.930Z</time>
      </trkpt>
      <trkpt lat="38.846462" lon="-2.225083">
        <ele>907.268556</ele>
        <time>2020-08-06T06:09:48.925Z</time>
      </trkpt>
      <trkpt lat="38.846392" lon="-2.225191">
        <ele>907.150173</ele>
        <time>2020-08-06T06:09:52.931Z</time>
      </trkpt>
      <trkpt lat="38.846348" lon="-2.225339">
        <ele>907.016701</ele>
        <time>2020-08-06T06:09:55.928Z</time>
      </trkpt>
      <trkpt lat="38.846291" lon="-2.225482">
        <ele>906.881354</ele>
        <time>2020-08-06T06:09:58.942Z</time>
      </trkpt>
      <trkpt lat="38.846251" lon="-2.225598">
        <ele>906.774468</ele>
        <time>2020-08-06T06:10:00.930Z</time>
      </trkpt>
      <trkpt lat="38.846219" lon="-2.225713">
        <ele>906.671577</ele>
        <time>2020-08-06T06:10:02.917Z</time>
      </trkpt>
      <trkpt lat="38.846265" lon="-2.225844">
        <ele>906.550504</ele>
        <time>2020-08-06T06:10:05.925Z</time>
      </trkpt>
      <trkpt lat="38.846339" lon="-2.225928">
        <ele>906.443652</ele>
        <time>2020-08-06T06:10:08.922Z</time>
      </trkpt>
      <trkpt lat="38.846399" lon="-2.226016">
        <ele>906.345110</ele>
        <time>2020-08-06T06:10:11.941Z</time>
      </trkpt>
      <trkpt lat="38.846421" lon="-2.226147">
        <ele>906.232200</ele>
        <time>2020-08-06T06:10:14.927Z</time>
      </trkpt>
      <trkpt lat="38.846406" lon="-2.226276">
        <ele>906.122308</ele>
        <time>2020-08-06T06:10:17.924Z</time>
      </trkpt>
      <trkpt lat="38.846342" lon="-2.226361">
        <ele>906.022696</ele>
        <time>2020-08-06T06:10:19.929Z</time>
      </trkpt>
      <trkpt lat="38.846208" lon="-2.226415">
        <ele>905.870762</ele>
        <time>2020-08-06T06:10:22.926Z</time>
      </trkpt>
      <trkpt lat="38.846144" lon="-2.226513">
        <ele>905.763007</ele>
        <time>2020-08-06T06:10:24.927Z</time>
      </trkpt>
      <trkpt lat="38.846026" lon="-2.226632">
        <ele>905.600686</ele>
        <time>2020-08-06T06:10:27.926Z</time>
      </trkpt>
      <trkpt lat="38.845911" lon="-2.226727">
        <ele>905.192165</ele>
        <time>2020-08-06T06:10:30.942Z</time>
      </trkpt>
      <trkpt lat="38.845805" lon="-2.226787">
        <ele>904.679842</ele>
        <time>2020-08-06T06:10:32.925Z</time>
      </trkpt>
      <trkpt lat="38.845663" lon="-2.226882">
        <ele>903.971703</ele>
        <time>2020-08-06T06:10:34.929Z</time>
      </trkpt>
      <trkpt lat="38.845558" lon="-2.226958">
        <ele>903.438632</ele>
        <time>2020-08-06T06:10:37.938Z</time>
      </trkpt>
      <trkpt lat="38.845448" lon="-2.227019">
        <ele>902.908717</ele>
        <time>2020-08-06T06:10:39.947Z</time>
      </trkpt>
      <trkpt lat="38.845354" lon="-2.227006">
        <ele>902.490593</ele>
        <time>2020-08-06T06:10:41.928Z</time>
      </trkpt>
      <trkpt lat="38.845226" lon="-2.227063">
        <ele>901.891426</ele>
        <time>2020-08-06T06:10:43.927Z</time>
      </trkpt>
      <trkpt lat="38.845092" lon="-2.227102">
        <ele>901.283770</ele>
        <time>2020-08-06T06:10:46.926Z</time>
      </trkpt>
      <trkpt lat="38.844967" lon="-2.227200">
        <ele>900.636040</ele>
        <time>2020-08-06T06:10:49.923Z</time>
      </trkpt>
      <trkpt lat="38.844888" lon="-2.227285">
        <ele>900.180203</ele>
        <time>2020-08-06T06:10:51.931Z</time>
      </trkpt>
      <trkpt lat="38.844821" lon="-2.227369">
        <ele>899.766058</ele>
        <time>2020-08-06T06:10:53.948Z</time>
      </trkpt>
      <trkpt lat="38.844741" lon="-2.227500">
        <ele>899.192661</ele>
        <time>2020-08-06T06:10:56.940Z</time>
      </trkpt>
      <trkpt lat="38.844633" lon="-2.227597">
        <ele>898.609764</ele>
        <time>2020-08-06T06:10:59.925Z</time>
      </trkpt>
      <trkpt lat="38.844557" lon="-2.227678">
        <ele>898.172939</ele>
        <time>2020-08-06T06:11:01.933Z</time>
      </trkpt>
      <trkpt lat="38.844474" lon="-2.227804">
        <ele>897.604517</ele>
        <time>2020-08-06T06:11:03.938Z</time>
      </trkpt>
      <trkpt lat="38.844398" lon="-2.227906">
        <ele>897.489963</ele>
        <time>2020-08-06T06:11:05.940Z</time>
      </trkpt>
      <trkpt lat="38.844309" lon="-2.228018">
        <ele>897.380044</ele>
        <time>2020-08-06T06:11:07.922Z</time>
      </trkpt>
      <trkpt lat="38.844229" lon="-2.228099">
        <ele>897.290180</ele>
        <time>2020-08-06T06:11:09.928Z</time>
      </trkpt>
      <trkpt lat="38.844135" lon="-2.228196">
        <ele>897.183810</ele>
        <time>2020-08-06T06:11:11.937Z</time>
      </trkpt>
      <trkpt lat="38.844051" lon="-2.228313">
        <ele>897.074495</ele>
        <time>2020-08-06T06:11:13.934Z</time>
      </trkpt>
      <trkpt lat="38.843983" lon="-2.228397">
        <ele>896.991264</ele>
        <time>2020-08-06T06:11:15.935Z</time>
      </trkpt>
      <trkpt lat="38.843893" lon="-2.228488">
        <ele>896.890221</ele>
        <time>2020-08-06T06:11:17.922Z</time>
      </trkpt>
      <trkpt lat="38.843797" lon="-2.228562">
        <ele>896.791457</ele>
        <time>2020-08-06T06:11:19.933Z</time>
      </trkpt>
      <trkpt lat="38.843719" lon="-2.228649">
        <ele>896.700324</ele>
        <time>2020-08-06T06:11:21.941Z</time>
      </trkpt>
      <trkpt lat="38.843638" lon="-2.228734">
        <ele>896.608052</ele>
        <time>2020-08-06T06:11:23.952Z</time>
      </trkpt>
      <trkpt lat="38.843559" lon="-2.228806">
        <ele>896.522600</ele>
        <time>2020-08-06T06:11:25.930Z</time>
      </trkpt>
      <trkpt lat="38.843481" lon="-2.228899">
        <ele>896.428712</ele>
        <time>2020-08-06T06:11:27.949Z</time>
      </trkpt>
      <trkpt lat="38.843398" lon="-2.228997">
        <ele>896.329253</ele>
        <time>2020-08-06T06:11:29.933Z</time>
      </trkpt>
      <trkpt lat="38.843322" lon="-2.229068">
        <ele>896.246351</ele>
        <time>2020-08-06T06:11:31.930Z</time>
      </trkpt>
      <trkpt lat="38.843245" lon="-2.229150">
        <ele>896.158113</ele>
        <time>2020-08-06T06:11:33.930Z</time>
      </trkpt>
      <trkpt lat="38.843153" lon="-2.229224">
        <ele>896.062357</ele>
        <time>2020-08-06T06:11:35.928Z</time>
      </trkpt>
      <trkpt lat="38.843077" lon="-2.229313">
        <ele>895.805112</ele>
        <time>2020-08-06T06:11:37.930Z</time>
      </trkpt>
      <trkpt lat="38.843018" lon="-2.229414">
        <ele>895.128105</ele>
        <time>2020-08-06T06:11:39.915Z</time>
      </trkpt>
      <trkpt lat="38.842961" lon="-2.229525">
        <ele>894.415152</ele>
        <time>2020-08-06T06:11:41.934Z</time>
      </trkpt>
      <trkpt lat="38.842887" lon="-2.229598">
        <ele>893.772651</ele>
        <time>2020-08-06T06:11:43.945Z</time>
      </trkpt>
      <trkpt lat="38.842820" lon="-2.229716">
        <ele>892.989595</ele>
        <time>2020-08-06T06:11:46.937Z</time>
      </trkpt>
      <trkpt lat="38.842708" lon="-2.229833">
        <ele>891.995493</ele>
        <time>2020-08-06T06:11:49.938Z</time>
      </trkpt>
      <trkpt lat="38.842577" lon="-2.229932">
        <ele>890.948932</ele>
        <time>2020-08-06T06:11:52.940Z</time>
      </trkpt>
      <trkpt lat="38.842470" lon="-2.230006">
        <ele>890.112173</ele>
        <time>2020-08-06T06:11:55.947Z</time>
      </trkpt>
      <trkpt lat="38.842381" lon="-2.230083">
        <ele>889.373282</ele>
        <time>2020-08-06T06:11:58.934Z</time>
      </trkpt>
      <trkpt lat="38.842301" lon="-2.230190">
        <ele>888.577923</ele>
        <time>2020-08-06T06:12:01.939Z</time>
      </trkpt>
      <trkpt lat="38.842245" lon="-2.230330">
        <ele>887.733963</ele>
        <time>2020-08-06T06:12:04.921Z</time>
      </trkpt>
      <trkpt lat="38.842202" lon="-2.230452">
        <ele>887.015876</ele>
        <time>2020-08-06T06:12:06.919Z</time>
      </trkpt>
      <trkpt lat="38.842146" lon="-2.230558">
        <ele>886.329033</ele>
        <time>2020-08-06T06:12:08.930Z</time>
      </trkpt>
      <trkpt lat="38.842087" lon="-2.230660">
        <ele>885.647723</ele>
        <time>2020-08-06T06:12:10.934Z</time>
      </trkpt>
      <trkpt lat="38.842020" lon="-2.230749">
        <ele>884.983974</ele>
        <time>2020-08-06T06:12:12.943Z</time>
      </trkpt>
      <trkpt lat="38.841954" lon="-2.230835">
        <ele>884.336548</ele>
        <time>2020-08-06T06:12:14.932Z</time>
      </trkpt>
      <trkpt lat="38.841879" lon="-2.230935">
        <ele>883.605941</ele>
        <time>2020-08-06T06:12:16.928Z</time>
      </trkpt>
      <trkpt lat="38.841813" lon="-2.231024">
        <ele>883.390409</ele>
        <time>2020-08-06T06:12:18.931Z</time>
      </trkpt>
      <trkpt lat="38.841735" lon="-2.231103">
        <ele>883.166694</ele>
        <time>2020-08-06T06:12:20.955Z</time>
      </trkpt>
      <trkpt lat="38.841665" lon="-2.231180">
        <ele>882.959124</ele>
        <time>2020-08-06T06:12:22.931Z</time>
      </trkpt>
      <trkpt lat="38.841596" lon="-2.231266">
        <ele>882.742577</ele>
        <time>2020-08-06T06:12:24.933Z</time>
      </trkpt>
      <trkpt lat="38.841517" lon="-2.231349">
        <ele>882.512711</ele>
        <time>2020-08-06T06:12:26.949Z</time>
      </trkpt>
      <trkpt lat="38.841416" lon="-2.231456">
        <ele>882.217846</ele>
        <time>2020-08-06T06:12:29.947Z</time>
      </trkpt>
      <trkpt lat="38.841351" lon="-2.231538">
        <ele>882.012644</ele>
        <time>2020-08-06T06:12:31.939Z</time>
      </trkpt>
      <trkpt lat="38.841281" lon="-2.231627">
        <ele>881.790803</ele>
        <time>2020-08-06T06:12:33.933Z</time>
      </trkpt>
      <trkpt lat="38.841214" lon="-2.231718">
        <ele>881.571175</ele>
        <time>2020-08-06T06:12:35.942Z</time>
      </trkpt>
      <trkpt lat="38.841141" lon="-2.231799">
        <ele>881.353909</ele>
        <time>2020-08-06T06:12:37.935Z</time>
      </trkpt>
      <trkpt lat="38.841071" lon="-2.231879">
        <ele>881.142877</ele>
        <time>2020-08-06T06:12:39.929Z</time>
      </trkpt>
      <trkpt lat="38.841002" lon="-2.231962">
        <ele>880.929960</ele>
        <time>2020-08-06T06:12:41.935Z</time>
      </trkpt>
      <trkpt lat="38.840912" lon="-2.232078">
        <ele>880.642790</ele>
        <time>2020-08-06T06:12:44.929Z</time>
      </trkpt>
      <trkpt lat="38.840815" lon="-2.232169">
        <ele>880.372264</ele>
        <time>2020-08-06T06:12:47.926Z</time>
      </trkpt>
      <trkpt lat="38.840742" lon="-2.232245">
        <ele>880.160627</ele>
        <time>2020-08-06T06:12:49.944Z</time>
      </trkpt>
      <trkpt lat="38.840653" lon="-2.232356">
        <ele>879.881221</ele>
        <time>2020-08-06T06:12:52.931Z</time>
      </trkpt>
      <trkpt lat="38.840567" lon="-2.232466">
        <ele>879.607861</ele>
        <time>2020-08-06T06:12:55.935Z</time>
      </trkpt>
      <trkpt lat="38.840481" lon="-2.232578">
        <ele>879.207614</ele>
        <time>2020-08-06T06:12:58.938Z</time>
      </trkpt>
      <trkpt lat="38.840397" lon="-2.232689">
        <ele>878.789629</ele>
        <time>2020-08-06T06:13:01.941Z</time>
      </trkpt>
      <trkpt lat="38.840310" lon="-2.232799">
        <ele>878.366228</ele>
        <time>2020-08-06T06:13:04.934Z</time>
      </trkpt>
      <trkpt lat="38.840219" lon="-2.232905">
        <ele>877.940169</ele>
        <time>2020-08-06T06:13:07.947Z</time>
      </trkpt>
      <trkpt lat="38.840130" lon="-2.233015">
        <ele>877.511800</ele>
        <time>2020-08-06T06:13:10.940Z</time>
      </trkpt>
      <trkpt lat="38.840039" lon="-2.233121">
        <ele>877.085740</ele>
        <time>2020-08-06T06:13:13.938Z</time>
      </trkpt>
      <trkpt lat="38.839950" lon="-2.233230">
        <ele>876.659238</ele>
        <time>2020-08-06T06:13:16.947Z</time>
      </trkpt>
      <trkpt lat="38.839867" lon="-2.233332">
        <ele>876.260840</ele>
        <time>2020-08-06T06:13:19.932Z</time>
      </trkpt>
      <trkpt lat="38.839785" lon="-2.233438">
        <ele>875.857346</ele>
        <time>2020-08-06T06:13:23.932Z</time>
      </trkpt>
      <trkpt lat="38.839704" lon="-2.233529">
        <ele>875.484128</ele>
        <time>2020-08-06T06:13:27.932Z</time>
      </trkpt>
      <trkpt lat="38.839621" lon="-2.233621">
        <ele>875.103903</ele>
        <time>2020-08-06T06:13:31.937Z</time>
      </trkpt>
      <trkpt lat="38.839551" lon="-2.233705">
        <ele>874.771660</ele>
        <time>2020-08-06T06:13:34.934Z</time>
      </trkpt>
      <trkpt lat="38.839475" lon="-2.233804">
        <ele>874.396238</ele>
        <time>2020-08-06T06:13:37.924Z</time>
      </trkpt>
      <trkpt lat="38.839395" lon="-2.233902">
        <ele>874.012823</ele>
        <time>2020-08-06T06:13:40.950Z</time>
      </trkpt>
      <trkpt lat="38.839318" lon="-2.233999">
        <ele>873.638761</ele>
        <time>2020-08-06T06:13:43.925Z</time>
      </trkpt>
      <trkpt lat="38.839242" lon="-2.234098">
        <ele>873.321453</ele>
        <time>2020-08-06T06:13:46.932Z</time>
      </trkpt>
      <trkpt lat="38.839170" lon="-2.234206">
        <ele>873.295478</ele>
        <time>2020-08-06T06:13:49.939Z</time>
      </trkpt>
      <trkpt lat="38.839085" lon="-2.234312">
        <ele>873.267680</ele>
        <time>2020-08-06T06:13:52.940Z</time>
      </trkpt>
      <trkpt lat="38.839020" lon="-2.234398">
        <ele>873.245783</ele>
        <time>2020-08-06T06:13:54.936Z</time>
      </trkpt>
      <trkpt lat="38.838951" lon="-2.234484">
        <ele>873.223223</ele>
        <time>2020-08-06T06:13:56.927Z</time>
      </trkpt>
      <trkpt lat="38.838869" lon="-2.234576">
        <ele>873.197677</ele>
        <time>2020-08-06T06:13:58.932Z</time>
      </trkpt>
      <trkpt lat="38.838790" lon="-2.234682">
        <ele>873.170870</ele>
        <time>2020-08-06T06:14:00.937Z</time>
      </trkpt>
      <trkpt lat="38.838712" lon="-2.234777">
        <ele>873.145648</ele>
        <time>2020-08-06T06:14:02.946Z</time>
      </trkpt>
      <trkpt lat="38.838643" lon="-2.234879">
        <ele>873.120962</ele>
        <time>2020-08-06T06:14:04.943Z</time>
      </trkpt>
      <trkpt lat="38.838569" lon="-2.234972">
        <ele>873.096670</ele>
        <time>2020-08-06T06:14:06.946Z</time>
      </trkpt>
      <trkpt lat="38.838492" lon="-2.235056">
        <ele>873.072966</ele>
        <time>2020-08-06T06:14:08.938Z</time>
      </trkpt>
      <trkpt lat="38.838420" lon="-2.235135">
        <ele>873.050747</ele>
        <time>2020-08-06T06:14:10.938Z</time>
      </trkpt>
      <trkpt lat="38.838351" lon="-2.235235">
        <ele>873.026336</ele>
        <time>2020-08-06T06:14:12.960Z</time>
      </trkpt>
      <trkpt lat="38.838286" lon="-2.235320">
        <ele>873.004571</ele>
        <time>2020-08-06T06:14:14.940Z</time>
      </trkpt>
      <trkpt lat="38.838221" lon="-2.235411">
        <ele>872.982010</ele>
        <time>2020-08-06T06:14:16.934Z</time>
      </trkpt>
      <trkpt lat="38.838146" lon="-2.235485">
        <ele>872.959820</ele>
        <time>2020-08-06T06:14:18.933Z</time>
      </trkpt>
      <trkpt lat="38.838078" lon="-2.235563">
        <ele>872.938428</ele>
        <time>2020-08-06T06:14:20.943Z</time>
      </trkpt>
      <trkpt lat="38.838015" lon="-2.235654">
        <ele>872.916181</ele>
        <time>2020-08-06T06:14:22.926Z</time>
      </trkpt>
      <trkpt lat="38.837926" lon="-2.235744">
        <ele>872.962487</ele>
        <time>2020-08-06T06:14:25.931Z</time>
      </trkpt>
      <trkpt lat="38.837832" lon="-2.235841">
        <ele>873.080181</ele>
        <time>2020-08-06T06:14:28.935Z</time>
      </trkpt>
      <trkpt lat="38.837743" lon="-2.235930">
        <ele>873.190275</ele>
        <time>2020-08-06T06:14:31.929Z</time>
      </trkpt>
      <trkpt lat="38.837667" lon="-2.236023">
        <ele>873.292738</ele>
        <time>2020-08-06T06:14:34.944Z</time>
      </trkpt>
      <trkpt lat="38.837588" lon="-2.236112">
        <ele>873.395308</ele>
        <time>2020-08-06T06:14:37.937Z</time>
      </trkpt>
      <trkpt lat="38.837516" lon="-2.236197">
        <ele>873.490765</ele>
        <time>2020-08-06T06:14:40.944Z</time>
      </trkpt>
      <trkpt lat="38.837441" lon="-2.236285">
        <ele>873.589920</ele>
        <time>2020-08-06T06:14:43.936Z</time>
      </trkpt>
      <trkpt lat="38.837370" lon="-2.236384">
        <ele>873.692215</ele>
        <time>2020-08-06T06:14:46.938Z</time>
      </trkpt>
      <trkpt lat="38.837297" lon="-2.236487">
        <ele>873.798071</ele>
        <time>2020-08-06T06:14:49.940Z</time>
      </trkpt>
      <trkpt lat="38.837217" lon="-2.236601">
        <ele>873.914710</ele>
        <time>2020-08-06T06:14:52.946Z</time>
      </trkpt>
      <trkpt lat="38.837128" lon="-2.236719">
        <ele>874.039569</ele>
        <time>2020-08-06T06:14:55.926Z</time>
      </trkpt>
      <trkpt lat="38.837038" lon="-2.236843">
        <ele>874.168406</ele>
        <time>2020-08-06T06:14:58.949Z</time>
      </trkpt>
      <trkpt lat="38.836952" lon="-2.236963">
        <ele>874.292360</ele>
        <time>2020-08-06T06:15:01.934Z</time>
      </trkpt>
      <trkpt lat="38.836867" lon="-2.237084">
        <ele>874.416219</ele>
        <time>2020-08-06T06:15:04.924Z</time>
      </trkpt>
      <trkpt lat="38.836780" lon="-2.237204">
        <ele>874.540836</ele>
        <time>2020-08-06T06:15:07.938Z</time>
      </trkpt>
      <trkpt lat="38.836693" lon="-2.237323">
        <ele>874.658625</ele>
        <time>2020-08-06T06:15:10.935Z</time>
      </trkpt>
      <trkpt lat="38.836628" lon="-2.237408">
        <ele>874.652596</ele>
        <time>2020-08-06T06:15:12.921Z</time>
      </trkpt>
      <trkpt lat="38.836536" lon="-2.237533">
        <ele>874.643890</ele>
        <time>2020-08-06T06:15:15.935Z</time>
      </trkpt>
      <trkpt lat="38.836444" lon="-2.237656">
        <ele>874.635258</ele>
        <time>2020-08-06T06:15:18.930Z</time>
      </trkpt>
      <trkpt lat="38.836359" lon="-2.237772">
        <ele>874.627197</ele>
        <time>2020-08-06T06:15:21.948Z</time>
      </trkpt>
      <trkpt lat="38.836271" lon="-2.237882">
        <ele>874.619215</ele>
        <time>2020-08-06T06:15:24.935Z</time>
      </trkpt>
      <trkpt lat="38.836184" lon="-2.237992">
        <ele>874.611279</ele>
        <time>2020-08-06T06:15:27.929Z</time>
      </trkpt>
      <trkpt lat="38.836098" lon="-2.238094">
        <ele>874.603670</ele>
        <time>2020-08-06T06:15:30.929Z</time>
      </trkpt>
      <trkpt lat="38.836019" lon="-2.238204">
        <ele>874.596097</ele>
        <time>2020-08-06T06:15:33.945Z</time>
      </trkpt>
      <trkpt lat="38.835941" lon="-2.238306">
        <ele>874.588861</ele>
        <time>2020-08-06T06:15:36.943Z</time>
      </trkpt>
      <trkpt lat="38.835861" lon="-2.238401">
        <ele>874.581779</ele>
        <time>2020-08-06T06:15:39.932Z</time>
      </trkpt>
      <trkpt lat="38.835782" lon="-2.238509">
        <ele>874.574279</ele>
        <time>2020-08-06T06:15:42.939Z</time>
      </trkpt>
      <trkpt lat="38.835699" lon="-2.238609">
        <ele>874.566882</ele>
        <time>2020-08-06T06:15:45.942Z</time>
      </trkpt>
      <trkpt lat="38.835615" lon="-2.238712">
        <ele>874.559333</ele>
        <time>2020-08-06T06:15:48.935Z</time>
      </trkpt>
      <trkpt lat="38.835529" lon="-2.238832">
        <ele>874.551079</ele>
        <time>2020-08-06T06:15:51.940Z</time>
      </trkpt>
      <trkpt lat="38.835435" lon="-2.238940">
        <ele>874.542881</ele>
        <time>2020-08-06T06:15:54.930Z</time>
      </trkpt>
      <trkpt lat="38.835358" lon="-2.239008">
        <ele>874.515924</ele>
        <time>2020-08-06T06:15:56.927Z</time>
      </trkpt>
      <trkpt lat="38.835258" lon="-2.239120">
        <ele>874.473462</ele>
        <time>2020-08-06T06:15:59.939Z</time>
      </trkpt>
      <trkpt lat="38.835185" lon="-2.239193">
        <ele>874.443854</ele>
        <time>2020-08-06T06:16:01.943Z</time>
      </trkpt>
      <trkpt lat="38.835087" lon="-2.239281">
        <ele>874.405588</ele>
        <time>2020-08-06T06:16:04.930Z</time>
      </trkpt>
      <trkpt lat="38.834999" lon="-2.239369">
        <ele>874.369896</ele>
        <time>2020-08-06T06:16:07.937Z</time>
      </trkpt>
      <trkpt lat="38.834916" lon="-2.239452">
        <ele>874.336233</ele>
        <time>2020-08-06T06:16:10.937Z</time>
      </trkpt>
      <trkpt lat="38.834839" lon="-2.239536">
        <ele>874.303901</ele>
        <time>2020-08-06T06:16:13.953Z</time>
      </trkpt>
      <trkpt lat="38.834766" lon="-2.239615">
        <ele>874.273351</ele>
        <time>2020-08-06T06:16:16.929Z</time>
      </trkpt>
      <trkpt lat="38.834691" lon="-2.239687">
        <ele>874.243386</ele>
        <time>2020-08-06T06:16:19.937Z</time>
      </trkpt>
      <trkpt lat="38.834621" lon="-2.239770">
        <ele>874.212896</ele>
        <time>2020-08-06T06:16:22.935Z</time>
      </trkpt>
      <trkpt lat="38.834545" lon="-2.239855">
        <ele>874.180645</ele>
        <time>2020-08-06T06:16:25.945Z</time>
      </trkpt>
      <trkpt lat="38.834460" lon="-2.239958">
        <ele>874.143245</ele>
        <time>2020-08-06T06:16:28.932Z</time>
      </trkpt>
      <trkpt lat="38.834364" lon="-2.240067">
        <ele>874.102238</ele>
        <time>2020-08-06T06:16:31.933Z</time>
      </trkpt>
      <trkpt lat="38.834286" lon="-2.240142">
        <ele>874.071056</ele>
        <time>2020-08-06T06:16:33.938Z</time>
      </trkpt>
      <trkpt lat="38.834216" lon="-2.240222">
        <ele>874.041068</ele>
        <time>2020-08-06T06:16:35.933Z</time>
      </trkpt>
      <trkpt lat="38.834111" lon="-2.240333">
        <ele>873.997546</ele>
        <time>2020-08-06T06:16:38.935Z</time>
      </trkpt>
      <trkpt lat="38.834034" lon="-2.240411">
        <ele>873.966882</ele>
        <time>2020-08-06T06:16:40.939Z</time>
      </trkpt>
      <trkpt lat="38.833967" lon="-2.240489">
        <ele>873.983292</ele>
        <time>2020-08-06T06:16:42.935Z</time>
      </trkpt>
      <trkpt lat="38.833897" lon="-2.240561">
        <ele>873.999565</ele>
        <time>2020-08-06T06:16:44.931Z</time>
      </trkpt>
      <trkpt lat="38.833789" lon="-2.240665">
        <ele>874.024060</ele>
        <time>2020-08-06T06:16:47.936Z</time>
      </trkpt>
      <trkpt lat="38.833712" lon="-2.240739">
        <ele>874.041511</ele>
        <time>2020-08-06T06:16:49.930Z</time>
      </trkpt>
      <trkpt lat="38.833610" lon="-2.240844">
        <ele>874.065232</ele>
        <time>2020-08-06T06:16:52.942Z</time>
      </trkpt>
      <trkpt lat="38.833506" lon="-2.240951">
        <ele>874.089413</ele>
        <time>2020-08-06T06:16:55.943Z</time>
      </trkpt>
      <trkpt lat="38.833416" lon="-2.241063">
        <ele>874.112155</ele>
        <time>2020-08-06T06:16:58.943Z</time>
      </trkpt>
      <trkpt lat="38.833306" lon="-2.241156">
        <ele>874.136052</ele>
        <time>2020-08-06T06:17:01.950Z</time>
      </trkpt>
      <trkpt lat="38.833213" lon="-2.241256">
        <ele>874.158062</ele>
        <time>2020-08-06T06:17:04.940Z</time>
      </trkpt>
      <trkpt lat="38.833118" lon="-2.241361">
        <ele>874.180806</ele>
        <time>2020-08-06T06:17:07.936Z</time>
      </trkpt>
      <trkpt lat="38.833029" lon="-2.241463">
        <ele>874.202452</ele>
        <time>2020-08-06T06:17:10.942Z</time>
      </trkpt>
      <trkpt lat="38.832944" lon="-2.241570">
        <ele>874.224051</ele>
        <time>2020-08-06T06:17:13.957Z</time>
      </trkpt>
      <trkpt lat="38.832856" lon="-2.241673">
        <ele>874.245657</ele>
        <time>2020-08-06T06:17:16.940Z</time>
      </trkpt>
      <trkpt lat="38.832773" lon="-2.241773">
        <ele>874.266309</ele>
        <time>2020-08-06T06:17:19.936Z</time>
      </trkpt>
      <trkpt lat="38.832691" lon="-2.241868">
        <ele>874.286349</ele>
        <time>2020-08-06T06:17:22.940Z</time>
      </trkpt>
      <trkpt lat="38.832612" lon="-2.241953">
        <ele>874.249336</ele>
        <time>2020-08-06T06:17:25.943Z</time>
      </trkpt>
      <trkpt lat="38.832527" lon="-2.242029">
        <ele>874.181590</ele>
        <time>2020-08-06T06:17:28.937Z</time>
      </trkpt>
      <trkpt lat="38.832436" lon="-2.242115">
        <ele>874.107686</ele>
        <time>2020-08-06T06:17:31.933Z</time>
      </trkpt>
      <trkpt lat="38.832352" lon="-2.242210">
        <ele>874.034470</ele>
        <time>2020-08-06T06:17:34.933Z</time>
      </trkpt>
      <trkpt lat="38.832274" lon="-2.242302">
        <ele>873.965194</ele>
        <time>2020-08-06T06:17:37.943Z</time>
      </trkpt>
      <trkpt lat="38.832202" lon="-2.242375">
        <ele>873.905189</ele>
        <time>2020-08-06T06:17:40.943Z</time>
      </trkpt>
      <trkpt lat="38.832125" lon="-2.242451">
        <ele>873.841666</ele>
        <time>2020-08-06T06:17:43.941Z</time>
      </trkpt>
      <trkpt lat="38.832040" lon="-2.242550">
        <ele>873.766604</ele>
        <time>2020-08-06T06:17:46.931Z</time>
      </trkpt>
      <trkpt lat="38.831955" lon="-2.242657">
        <ele>873.688745</ele>
        <time>2020-08-06T06:17:49.936Z</time>
      </trkpt>
      <trkpt lat="38.831867" lon="-2.242758">
        <ele>873.611543</ele>
        <time>2020-08-06T06:17:52.932Z</time>
      </trkpt>
      <trkpt lat="38.831781" lon="-2.242881">
        <ele>873.527338</ele>
        <time>2020-08-06T06:17:55.920Z</time>
      </trkpt>
      <trkpt lat="38.831695" lon="-2.243005">
        <ele>873.442754</ele>
        <time>2020-08-06T06:17:58.940Z</time>
      </trkpt>
      <trkpt lat="38.831605" lon="-2.243116">
        <ele>873.361129</ele>
        <time>2020-08-06T06:18:01.934Z</time>
      </trkpt>
      <trkpt lat="38.831516" lon="-2.243220">
        <ele>873.282417</ele>
        <time>2020-08-06T06:18:04.942Z</time>
      </trkpt>
      <trkpt lat="38.831425" lon="-2.243329">
        <ele>873.201018</ele>
        <time>2020-08-06T06:18:07.931Z</time>
      </trkpt>
      <trkpt lat="38.831334" lon="-2.243438">
        <ele>873.119618</ele>
        <time>2020-08-06T06:18:10.938Z</time>
      </trkpt>
      <trkpt lat="38.831239" lon="-2.243549">
        <ele>873.177992</ele>
        <time>2020-08-06T06:18:13.928Z</time>
      </trkpt>
      <trkpt lat="38.831152" lon="-2.243657">
        <ele>873.237962</ele>
        <time>2020-08-06T06:18:16.950Z</time>
      </trkpt>
      <trkpt lat="38.831064" lon="-2.243769">
        <ele>873.299366</ele>
        <time>2020-08-06T06:18:19.949Z</time>
      </trkpt>
      <trkpt lat="38.830979" lon="-2.243880">
        <ele>873.359448</ele>
        <time>2020-08-06T06:18:22.926Z</time>
      </trkpt>
      <trkpt lat="38.830901" lon="-2.243990">
        <ele>873.416865</ele>
        <time>2020-08-06T06:18:25.938Z</time>
      </trkpt>
      <trkpt lat="38.830838" lon="-2.244119">
        <ele>873.475635</ele>
        <time>2020-08-06T06:18:28.929Z</time>
      </trkpt>
      <trkpt lat="38.830789" lon="-2.244251">
        <ele>873.532077</ele>
        <time>2020-08-06T06:18:31.939Z</time>
      </trkpt>
      <trkpt lat="38.830738" lon="-2.244371">
        <ele>873.584843</ele>
        <time>2020-08-06T06:18:34.943Z</time>
      </trkpt>
      <trkpt lat="38.830679" lon="-2.244492">
        <ele>873.639945</ele>
        <time>2020-08-06T06:18:37.933Z</time>
      </trkpt>
      <trkpt lat="38.830610" lon="-2.244608">
        <ele>873.696283</ele>
        <time>2020-08-06T06:18:40.940Z</time>
      </trkpt>
      <trkpt lat="38.830536" lon="-2.244718">
        <ele>873.752385</ele>
        <time>2020-08-06T06:18:43.928Z</time>
      </trkpt>
      <trkpt lat="38.830465" lon="-2.244832">
        <ele>873.808724</ele>
        <time>2020-08-06T06:18:46.951Z</time>
      </trkpt>
      <trkpt lat="38.830398" lon="-2.244944">
        <ele>873.863234</ele>
        <time>2020-08-06T06:18:49.933Z</time>
      </trkpt>
      <trkpt lat="38.830337" lon="-2.245056">
        <ele>873.915985</ele>
        <time>2020-08-06T06:18:52.936Z</time>
      </trkpt>
      <trkpt lat="38.830284" lon="-2.245178">
        <ele>873.969906</ele>
        <time>2020-08-06T06:18:55.939Z</time>
      </trkpt>
      <trkpt lat="38.830247" lon="-2.245304">
        <ele>874.039877</ele>
        <time>2020-08-06T06:18:58.937Z</time>
      </trkpt>
      <trkpt lat="38.830215" lon="-2.245433">
        <ele>874.159214</ele>
        <time>2020-08-06T06:19:01.940Z</time>
      </trkpt>
      <trkpt lat="38.830196" lon="-2.245567">
        <ele>874.279272</ele>
        <time>2020-08-06T06:19:04.949Z</time>
      </trkpt>
      <trkpt lat="38.830179" lon="-2.245694">
        <ele>874.392861</ele>
        <time>2020-08-06T06:19:07.923Z</time>
      </trkpt>
      <trkpt lat="38.830165" lon="-2.245821">
        <ele>874.505924</ele>
        <time>2020-08-06T06:19:10.936Z</time>
      </trkpt>
      <trkpt lat="38.830156" lon="-2.245946">
        <ele>874.616578</ele>
        <time>2020-08-06T06:19:13.953Z</time>
      </trkpt>
      <trkpt lat="38.830137" lon="-2.246077">
        <ele>874.734036</ele>
        <time>2020-08-06T06:19:16.921Z</time>
      </trkpt>
      <trkpt lat="38.830107" lon="-2.246194">
        <ele>874.842612</ele>
        <time>2020-08-06T06:19:19.932Z</time>
      </trkpt>
      <trkpt lat="38.830077" lon="-2.246317">
        <ele>874.956224</ele>
        <time>2020-08-06T06:19:22.946Z</time>
      </trkpt>
      <trkpt lat="38.830057" lon="-2.246451">
        <ele>875.076491</ele>
        <time>2020-08-06T06:19:25.938Z</time>
      </trkpt>
      <trkpt lat="38.830036" lon="-2.246581">
        <ele>875.193521</ele>
        <time>2020-08-06T06:19:28.942Z</time>
      </trkpt>
      <trkpt lat="38.830017" lon="-2.246716">
        <ele>875.314447</ele>
        <time>2020-08-06T06:19:31.941Z</time>
      </trkpt>
      <trkpt lat="38.829999" lon="-2.246861">
        <ele>875.443874</ele>
        <time>2020-08-06T06:19:34.948Z</time>
      </trkpt>
      <trkpt lat="38.829975" lon="-2.247002">
        <ele>875.571095</ele>
        <time>2020-08-06T06:19:37.932Z</time>
      </trkpt>
      <trkpt lat="38.829951" lon="-2.247140">
        <ele>875.695734</ele>
        <time>2020-08-06T06:19:40.926Z</time>
      </trkpt>
      <trkpt lat="38.829924" lon="-2.247285">
        <ele>875.827149</ele>
        <time>2020-08-06T06:19:43.934Z</time>
      </trkpt>
      <trkpt lat="38.829896" lon="-2.247416">
        <ele>875.946891</ele>
        <time>2020-08-06T06:19:46.937Z</time>
      </trkpt>
      <trkpt lat="38.829868" lon="-2.247539">
        <ele>876.069421</ele>
        <time>2020-08-06T06:19:49.935Z</time>
      </trkpt>
      <trkpt lat="38.829848" lon="-2.247658">
        <ele>876.238069</ele>
        <time>2020-08-06T06:19:52.944Z</time>
      </trkpt>
      <trkpt lat="38.829834" lon="-2.247776">
        <ele>876.403424</ele>
        <time>2020-08-06T06:19:55.934Z</time>
      </trkpt>
      <trkpt lat="38.829825" lon="-2.247893">
        <ele>876.566297</ele>
        <time>2020-08-06T06:19:58.952Z</time>
      </trkpt>
      <trkpt lat="38.829800" lon="-2.248038">
        <ele>876.772032</ele>
        <time>2020-08-06T06:20:02.943Z</time>
      </trkpt>
      <trkpt lat="38.829774" lon="-2.248154">
        <ele>876.939251</ele>
        <time>2020-08-06T06:20:05.947Z</time>
      </trkpt>
      <trkpt lat="38.829748" lon="-2.248270">
        <ele>877.106469</ele>
        <time>2020-08-06T06:20:08.938Z</time>
      </trkpt>
      <trkpt lat="38.829706" lon="-2.248413">
        <ele>877.318185</ele>
        <time>2020-08-06T06:20:12.932Z</time>
      </trkpt>
      <trkpt lat="38.829667" lon="-2.248556">
        <ele>877.528079</ele>
        <time>2020-08-06T06:20:16.933Z</time>
      </trkpt>
      <trkpt lat="38.829641" lon="-2.248699">
        <ele>877.731507</ele>
        <time>2020-08-06T06:20:20.945Z</time>
      </trkpt>
      <trkpt lat="38.829615" lon="-2.248814">
        <ele>877.897395</ele>
        <time>2020-08-06T06:20:23.951Z</time>
      </trkpt>
      <trkpt lat="38.829590" lon="-2.248933">
        <ele>878.068141</ele>
        <time>2020-08-06T06:20:26.937Z</time>
      </trkpt>
      <trkpt lat="38.829569" lon="-2.249053">
        <ele>878.238525</ele>
        <time>2020-08-06T06:20:29.934Z</time>
      </trkpt>
      <trkpt lat="38.829547" lon="-2.249175">
        <ele>878.412006</ele>
        <time>2020-08-06T06:20:32.927Z</time>
      </trkpt>
      <trkpt lat="38.829521" lon="-2.249304">
        <ele>878.596600</ele>
        <time>2020-08-06T06:20:35.931Z</time>
      </trkpt>
      <trkpt lat="38.829498" lon="-2.249427">
        <ele>878.771837</ele>
        <time>2020-08-06T06:20:38.938Z</time>
      </trkpt>
      <trkpt lat="38.829478" lon="-2.249548">
        <ele>878.943196</ele>
        <time>2020-08-06T06:20:41.936Z</time>
      </trkpt>
      <trkpt lat="38.829454" lon="-2.249668">
        <ele>879.114829</ele>
        <time>2020-08-06T06:20:44.939Z</time>
      </trkpt>
      <trkpt lat="38.829428" lon="-2.249790">
        <ele>879.265230</ele>
        <time>2020-08-06T06:20:47.941Z</time>
      </trkpt>
      <trkpt lat="38.829392" lon="-2.249909">
        <ele>879.351335</ele>
        <time>2020-08-06T06:20:50.946Z</time>
      </trkpt>
      <trkpt lat="38.829348" lon="-2.250017">
        <ele>879.433540</ele>
        <time>2020-08-06T06:20:53.938Z</time>
      </trkpt>
      <trkpt lat="38.829304" lon="-2.250127">
        <ele>879.516944</ele>
        <time>2020-08-06T06:20:56.941Z</time>
      </trkpt>
      <trkpt lat="38.829259" lon="-2.250240">
        <ele>879.602543</ele>
        <time>2020-08-06T06:20:59.930Z</time>
      </trkpt>
      <trkpt lat="38.829223" lon="-2.250355">
        <ele>879.686138</ele>
        <time>2020-08-06T06:21:02.932Z</time>
      </trkpt>
      <trkpt lat="38.829189" lon="-2.250474">
        <ele>879.771631</ele>
        <time>2020-08-06T06:21:05.942Z</time>
      </trkpt>
      <trkpt lat="38.829159" lon="-2.250598">
        <ele>879.859209</ele>
        <time>2020-08-06T06:21:08.940Z</time>
      </trkpt>
      <trkpt lat="38.829120" lon="-2.250716">
        <ele>879.945666</ele>
        <time>2020-08-06T06:21:11.936Z</time>
      </trkpt>
      <trkpt lat="38.829068" lon="-2.250834">
        <ele>880.037109</ele>
        <time>2020-08-06T06:21:14.932Z</time>
      </trkpt>
      <trkpt lat="38.829010" lon="-2.250950">
        <ele>880.130080</ele>
        <time>2020-08-06T06:21:17.929Z</time>
      </trkpt>
      <trkpt lat="38.828950" lon="-2.251066">
        <ele>880.223997</ele>
        <time>2020-08-06T06:21:20.933Z</time>
      </trkpt>
      <trkpt lat="38.828883" lon="-2.251191">
        <ele>880.326339</ele>
        <time>2020-08-06T06:21:23.941Z</time>
      </trkpt>
      <trkpt lat="38.828813" lon="-2.251319">
        <ele>880.431824</ele>
        <time>2020-08-06T06:21:26.943Z</time>
      </trkpt>
      <trkpt lat="38.828754" lon="-2.251451">
        <ele>880.534472</ele>
        <time>2020-08-06T06:21:29.930Z</time>
      </trkpt>
      <trkpt lat="38.828699" lon="-2.251581">
        <ele>880.634253</ele>
        <time>2020-08-06T06:21:32.927Z</time>
      </trkpt>
      <trkpt lat="38.828643" lon="-2.251702">
        <ele>880.729184</ele>
        <time>2020-08-06T06:21:35.935Z</time>
      </trkpt>
      <trkpt lat="38.828590" lon="-2.251823">
        <ele>880.798104</ele>
        <time>2020-08-06T06:21:38.942Z</time>
      </trkpt>
      <trkpt lat="38.828530" lon="-2.251958">
        <ele>880.794198</ele>
        <time>2020-08-06T06:21:41.937Z</time>
      </trkpt>
      <trkpt lat="38.828468" lon="-2.252104">
        <ele>880.790020</ele>
        <time>2020-08-06T06:21:44.930Z</time>
      </trkpt>
      <trkpt lat="38.828410" lon="-2.252258">
        <ele>880.785721</ele>
        <time>2020-08-06T06:21:47.931Z</time>
      </trkpt>
      <trkpt lat="38.828343" lon="-2.252397">
        <ele>880.781614</ele>
        <time>2020-08-06T06:21:50.946Z</time>
      </trkpt>
      <trkpt lat="38.828282" lon="-2.252534">
        <ele>880.777648</ele>
        <time>2020-08-06T06:21:53.941Z</time>
      </trkpt>
      <trkpt lat="38.828217" lon="-2.252682">
        <ele>880.773379</ele>
        <time>2020-08-06T06:21:56.935Z</time>
      </trkpt>
      <trkpt lat="38.828154" lon="-2.252822">
        <ele>880.769316</ele>
        <time>2020-08-06T06:21:59.935Z</time>
      </trkpt>
      <trkpt lat="38.828086" lon="-2.252947">
        <ele>880.765484</ele>
        <time>2020-08-06T06:22:02.941Z</time>
      </trkpt>
      <trkpt lat="38.828023" lon="-2.253072">
        <ele>880.761743</ele>
        <time>2020-08-06T06:22:05.938Z</time>
      </trkpt>
      <trkpt lat="38.827966" lon="-2.253198">
        <ele>880.758081</ele>
        <time>2020-08-06T06:22:08.941Z</time>
      </trkpt>
      <trkpt lat="38.827904" lon="-2.253321">
        <ele>880.754400</ele>
        <time>2020-08-06T06:22:11.933Z</time>
      </trkpt>
      <trkpt lat="38.827845" lon="-2.253441">
        <ele>880.750834</ele>
        <time>2020-08-06T06:22:14.929Z</time>
      </trkpt>
      <trkpt lat="38.827793" lon="-2.253560">
        <ele>880.747405</ele>
        <time>2020-08-06T06:22:17.943Z</time>
      </trkpt>
      <trkpt lat="38.827737" lon="-2.253672">
        <ele>880.744061</ele>
        <time>2020-08-06T06:22:20.950Z</time>
      </trkpt>
      <trkpt lat="38.827678" lon="-2.253774">
        <ele>880.744830</ele>
        <time>2020-08-06T06:22:23.932Z</time>
      </trkpt>
      <trkpt lat="38.827620" lon="-2.253878">
        <ele>880.865160</ele>
        <time>2020-08-06T06:22:26.938Z</time>
      </trkpt>
      <trkpt lat="38.827571" lon="-2.253984">
        <ele>880.981120</ele>
        <time>2020-08-06T06:22:29.926Z</time>
      </trkpt>
      <trkpt lat="38.827516" lon="-2.254081">
        <ele>881.093990</ele>
        <time>2020-08-06T06:22:32.942Z</time>
      </trkpt>
      <trkpt lat="38.827457" lon="-2.254209">
        <ele>881.233912</ele>
        <time>2020-08-06T06:22:36.928Z</time>
      </trkpt>
      <trkpt lat="38.827411" lon="-2.254311">
        <ele>881.344793</ele>
        <time>2020-08-06T06:22:39.935Z</time>
      </trkpt>
      <trkpt lat="38.827376" lon="-2.254450">
        <ele>881.482225</ele>
        <time>2020-08-06T06:22:43.925Z</time>
      </trkpt>
      <trkpt lat="38.827342" lon="-2.254570">
        <ele>881.602356</ele>
        <time>2020-08-06T06:22:46.935Z</time>
      </trkpt>
      <trkpt lat="38.827303" lon="-2.254690">
        <ele>881.724683</ele>
        <time>2020-08-06T06:22:49.928Z</time>
      </trkpt>
      <trkpt lat="38.827273" lon="-2.254808">
        <ele>881.841460</ele>
        <time>2020-08-06T06:22:52.933Z</time>
      </trkpt>
      <trkpt lat="38.827247" lon="-2.254933">
        <ele>881.963180</ele>
        <time>2020-08-06T06:22:55.938Z</time>
      </trkpt>
      <trkpt lat="38.827226" lon="-2.255058">
        <ele>882.083483</ele>
        <time>2020-08-06T06:22:58.940Z</time>
      </trkpt>
      <trkpt lat="38.827209" lon="-2.255174">
        <ele>882.194531</ele>
        <time>2020-08-06T06:23:01.933Z</time>
      </trkpt>
      <trkpt lat="38.827191" lon="-2.255291">
        <ele>882.306731</ele>
        <time>2020-08-06T06:23:04.931Z</time>
      </trkpt>
      <trkpt lat="38.827170" lon="-2.255417">
        <ele>882.427954</ele>
        <time>2020-08-06T06:23:07.933Z</time>
      </trkpt>
      <trkpt lat="38.827143" lon="-2.255538">
        <ele>882.546369</ele>
        <time>2020-08-06T06:23:10.921Z</time>
      </trkpt>
      <trkpt lat="38.827118" lon="-2.255654">
        <ele>882.659602</ele>
        <time>2020-08-06T06:23:13.937Z</time>
      </trkpt>
      <trkpt lat="38.827089" lon="-2.255765">
        <ele>882.769747</ele>
        <time>2020-08-06T06:23:16.920Z</time>
      </trkpt>
      <trkpt lat="38.827048" lon="-2.255905">
        <ele>882.910459</ele>
        <time>2020-08-06T06:23:20.943Z</time>
      </trkpt>
      <trkpt lat="38.827014" lon="-2.256043">
        <ele>883.161981</ele>
        <time>2020-08-06T06:23:24.935Z</time>
      </trkpt>
      <trkpt lat="38.826979" lon="-2.256182">
        <ele>883.418134</ele>
        <time>2020-08-06T06:23:28.942Z</time>
      </trkpt>
      <trkpt lat="38.826970" lon="-2.256327">
        <ele>883.673198</ele>
        <time>2020-08-06T06:23:32.937Z</time>
      </trkpt>
      <trkpt lat="38.826976" lon="-2.256471">
        <ele>883.926064</ele>
        <time>2020-08-06T06:23:36.938Z</time>
      </trkpt>
      <trkpt lat="38.826962" lon="-2.256604">
        <ele>884.161400</ele>
        <time>2020-08-06T06:23:40.924Z</time>
      </trkpt>
      <trkpt lat="38.826935" lon="-2.256733">
        <ele>884.395624</ele>
        <time>2020-08-06T06:23:44.935Z</time>
      </trkpt>
      <trkpt lat="38.826896" lon="-2.256847">
        <ele>884.613949</ele>
        <time>2020-08-06T06:23:48.945Z</time>
      </trkpt>
      <trkpt lat="38.826860" lon="-2.256958">
        <ele>884.824781</ele>
        <time>2020-08-06T06:23:52.938Z</time>
      </trkpt>
      <trkpt lat="38.826789" lon="-2.257047">
        <ele>885.048153</ele>
        <time>2020-08-06T06:23:56.930Z</time>
      </trkpt>
      <trkpt lat="38.826697" lon="-2.257080">
        <ele>885.263164</ele>
        <time>2020-08-06T06:24:00.933Z</time>
      </trkpt>
      <trkpt lat="38.826590" lon="-2.257118">
        <ele>885.513052</ele>
        <time>2020-08-06T06:24:05.928Z</time>
      </trkpt>
      <trkpt lat="38.826485" lon="-2.257115">
        <ele>885.749450</ele>
        <time>2020-08-06T06:24:10.943Z</time>
      </trkpt>
      <trkpt lat="38.826381" lon="-2.257123">
        <ele>885.983958</ele>
        <time>2020-08-06T06:24:15.941Z</time>
      </trkpt>
      <trkpt lat="38.826274" lon="-2.257119">
        <ele>886.224901</ele>
        <time>2020-08-06T06:24:20.924Z</time>
      </trkpt>
      <trkpt lat="38.826173" lon="-2.257139">
        <ele>886.454925</ele>
        <time>2020-08-06T06:24:25.928Z</time>
      </trkpt>
      <trkpt lat="38.826068" lon="-2.257162">
        <ele>886.694681</ele>
        <time>2020-08-06T06:24:30.924Z</time>
      </trkpt>
      <trkpt lat="38.825994" lon="-2.257268">
        <ele>886.944265</ele>
        <time>2020-08-06T06:24:35.926Z</time>
      </trkpt>
      <trkpt lat="38.825972" lon="-2.257401">
        <ele>887.087332</ele>
        <time>2020-08-06T06:24:40.927Z</time>
      </trkpt>
      <trkpt lat="38.825972" lon="-2.257521">
        <ele>887.207017</ele>
        <time>2020-08-06T06:24:44.945Z</time>
      </trkpt>
      <trkpt lat="38.825947" lon="-2.257661">
        <ele>887.350271</ele>
        <time>2020-08-06T06:24:48.935Z</time>
      </trkpt>
      <trkpt lat="38.825932" lon="-2.257782">
        <ele>887.472472</ele>
        <time>2020-08-06T06:24:51.943Z</time>
      </trkpt>
      <trkpt lat="38.825908" lon="-2.257909">
        <ele>887.602812</ele>
        <time>2020-08-06T06:24:54.946Z</time>
      </trkpt>
      <trkpt lat="38.825846" lon="-2.258027">
        <ele>887.744768</ele>
        <time>2020-08-06T06:24:57.929Z</time>
      </trkpt>
      <trkpt lat="38.825771" lon="-2.258122">
        <ele>887.879665</ele>
        <time>2020-08-06T06:25:00.959Z</time>
      </trkpt>
      <trkpt lat="38.825686" lon="-2.258214">
        <ele>888.022008</ele>
        <time>2020-08-06T06:25:03.939Z</time>
      </trkpt>
      <trkpt lat="38.825607" lon="-2.258286">
        <ele>888.146049</ele>
        <time>2020-08-06T06:25:07.938Z</time>
      </trkpt>
      <trkpt lat="38.825524" lon="-2.258335">
        <ele>888.263009</ele>
        <time>2020-08-06T06:25:11.938Z</time>
      </trkpt>
      <trkpt lat="38.825444" lon="-2.258418">
        <ele>888.394700</ele>
        <time>2020-08-06T06:25:15.932Z</time>
      </trkpt>
      <trkpt lat="38.825370" lon="-2.258513">
        <ele>888.528689</ele>
        <time>2020-08-06T06:25:19.942Z</time>
      </trkpt>
      <trkpt lat="38.825305" lon="-2.258602">
        <ele>888.650363</ele>
        <time>2020-08-06T06:25:36.927Z</time>
      </trkpt>
      <trkpt lat="38.825206" lon="-2.258581">
        <ele>888.778826</ele>
        <time>2020-08-06T06:25:50.934Z</time>
      </trkpt>
      <trkpt lat="38.825136" lon="-2.258657">
        <ele>888.896201</ele>
        <time>2020-08-06T06:26:05.928Z</time>
      </trkpt>
      <trkpt lat="38.825088" lon="-2.258781">
        <ele>889.034303</ele>
        <time>2020-08-06T06:26:10.919Z</time>
      </trkpt>
      <trkpt lat="38.825071" lon="-2.258916">
        <ele>889.170698</ele>
        <time>2020-08-06T06:26:16.935Z</time>
      </trkpt>
      <trkpt lat="38.825040" lon="-2.259026">
        <ele>889.261412</ele>
        <time>2020-08-06T06:26:19.946Z</time>
      </trkpt>
      <trkpt lat="38.825014" lon="-2.259149">
        <ele>889.245758</ele>
        <time>2020-08-06T06:26:22.941Z</time>
      </trkpt>
      <trkpt lat="38.824985" lon="-2.259269">
        <ele>889.230326</ele>
        <time>2020-08-06T06:26:25.951Z</time>
      </trkpt>
      <trkpt lat="38.824961" lon="-2.259394">
        <ele>889.214513</ele>
        <time>2020-08-06T06:26:28.944Z</time>
      </trkpt>
      <trkpt lat="38.824936" lon="-2.259526">
        <ele>889.197827</ele>
        <time>2020-08-06T06:26:31.944Z</time>
      </trkpt>
      <trkpt lat="38.824915" lon="-2.259668">
        <ele>889.180074</ele>
        <time>2020-08-06T06:26:34.941Z</time>
      </trkpt>
      <trkpt lat="38.824892" lon="-2.259814">
        <ele>889.161778</ele>
        <time>2020-08-06T06:26:37.943Z</time>
      </trkpt>
      <trkpt lat="38.824869" lon="-2.259966">
        <ele>889.142759</ele>
        <time>2020-08-06T06:26:40.932Z</time>
      </trkpt>
      <trkpt lat="38.824848" lon="-2.260121">
        <ele>889.123434</ele>
        <time>2020-08-06T06:26:43.944Z</time>
      </trkpt>
      <trkpt lat="38.824832" lon="-2.260282">
        <ele>889.103499</ele>
        <time>2020-08-06T06:26:46.930Z</time>
      </trkpt>
      <trkpt lat="38.824817" lon="-2.260446">
        <ele>889.083216</ele>
        <time>2020-08-06T06:26:49.931Z</time>
      </trkpt>
      <trkpt lat="38.824806" lon="-2.260617">
        <ele>889.062141</ele>
        <time>2020-08-06T06:26:52.923Z</time>
      </trkpt>
      <trkpt lat="38.824801" lon="-2.260783">
        <ele>889.041736</ele>
        <time>2020-08-06T06:26:55.942Z</time>
      </trkpt>
      <trkpt lat="38.824803" lon="-2.260945">
        <ele>889.021835</ele>
        <time>2020-08-06T06:26:58.931Z</time>
      </trkpt>
      <trkpt lat="38.824811" lon="-2.261110">
        <ele>889.001529</ele>
        <time>2020-08-06T06:27:01.929Z</time>
      </trkpt>
      <trkpt lat="38.824818" lon="-2.261278">
        <ele>888.980864</ele>
        <time>2020-08-06T06:27:04.942Z</time>
      </trkpt>
      <trkpt lat="38.824829" lon="-2.261442">
        <ele>888.979123</ele>
        <time>2020-08-06T06:27:07.944Z</time>
      </trkpt>
      <trkpt lat="38.824844" lon="-2.261608">
        <ele>888.977529</ele>
        <time>2020-08-06T06:27:10.933Z</time>
      </trkpt>
      <trkpt lat="38.824859" lon="-2.261777">
        <ele>888.975905</ele>
        <time>2020-08-06T06:27:13.934Z</time>
      </trkpt>
      <trkpt lat="38.824877" lon="-2.261940">
        <ele>888.974334</ele>
        <time>2020-08-06T06:27:16.937Z</time>
      </trkpt>
      <trkpt lat="38.824895" lon="-2.262103">
        <ele>888.972763</ele>
        <time>2020-08-06T06:27:19.936Z</time>
      </trkpt>
      <trkpt lat="38.824910" lon="-2.262267">
        <ele>888.971188</ele>
        <time>2020-08-06T06:27:22.935Z</time>
      </trkpt>
      <trkpt lat="38.824925" lon="-2.262427">
        <ele>888.969650</ele>
        <time>2020-08-06T06:27:25.934Z</time>
      </trkpt>
      <trkpt lat="38.824943" lon="-2.262588">
        <ele>888.968097</ele>
        <time>2020-08-06T06:27:28.932Z</time>
      </trkpt>
      <trkpt lat="38.824957" lon="-2.262755">
        <ele>888.966495</ele>
        <time>2020-08-06T06:27:31.938Z</time>
      </trkpt>
      <trkpt lat="38.824968" lon="-2.262920">
        <ele>888.964914</ele>
        <time>2020-08-06T06:27:34.943Z</time>
      </trkpt>
      <trkpt lat="38.824981" lon="-2.263086">
        <ele>888.963322</ele>
        <time>2020-08-06T06:27:37.926Z</time>
      </trkpt>
      <trkpt lat="38.824994" lon="-2.263245">
        <ele>888.961796</ele>
        <time>2020-08-06T06:27:40.944Z</time>
      </trkpt>
      <trkpt lat="38.825009" lon="-2.263402">
        <ele>888.960287</ele>
        <time>2020-08-06T06:27:43.928Z</time>
      </trkpt>
      <trkpt lat="38.825021" lon="-2.263555">
        <ele>888.958820</ele>
        <time>2020-08-06T06:27:46.930Z</time>
      </trkpt>
      <trkpt lat="38.825033" lon="-2.263721">
        <ele>888.879864</ele>
        <time>2020-08-06T06:27:49.946Z</time>
      </trkpt>
      <trkpt lat="38.825050" lon="-2.263890">
        <ele>888.789595</ele>
        <time>2020-08-06T06:27:52.928Z</time>
      </trkpt>
      <trkpt lat="38.825064" lon="-2.264012">
        <ele>888.724270</ele>
        <time>2020-08-06T06:27:54.929Z</time>
      </trkpt>
      <trkpt lat="38.825079" lon="-2.264177">
        <ele>888.636270</ele>
        <time>2020-08-06T06:27:57.929Z</time>
      </trkpt>
      <trkpt lat="38.825094" lon="-2.264334">
        <ele>888.552478</ele>
        <time>2020-08-06T06:28:00.946Z</time>
      </trkpt>
      <trkpt lat="38.825107" lon="-2.264494">
        <ele>888.467261</ele>
        <time>2020-08-06T06:28:03.936Z</time>
      </trkpt>
      <trkpt lat="38.825106" lon="-2.264653">
        <ele>888.383030</ele>
        <time>2020-08-06T06:28:06.933Z</time>
      </trkpt>
      <trkpt lat="38.825120" lon="-2.264803">
        <ele>888.303001</ele>
        <time>2020-08-06T06:28:09.943Z</time>
      </trkpt>
      <trkpt lat="38.825135" lon="-2.264958">
        <ele>888.220261</ele>
        <time>2020-08-06T06:28:12.935Z</time>
      </trkpt>
      <trkpt lat="38.825147" lon="-2.265109">
        <ele>888.139855</ele>
        <time>2020-08-06T06:28:15.935Z</time>
      </trkpt>
      <trkpt lat="38.825157" lon="-2.265258">
        <ele>888.060632</ele>
        <time>2020-08-06T06:28:18.936Z</time>
      </trkpt>
      <trkpt lat="38.825169" lon="-2.265405">
        <ele>887.982335</ele>
        <time>2020-08-06T06:28:21.939Z</time>
      </trkpt>
      <trkpt lat="38.825183" lon="-2.265555">
        <ele>887.902306</ele>
        <time>2020-08-06T06:28:24.929Z</time>
      </trkpt>
      <trkpt lat="38.825196" lon="-2.265699">
        <ele>887.825513</ele>
        <time>2020-08-06T06:28:27.938Z</time>
      </trkpt>
      <trkpt lat="38.825207" lon="-2.265848">
        <ele>887.746229</ele>
        <time>2020-08-06T06:28:30.937Z</time>
      </trkpt>
      <trkpt lat="38.825217" lon="-2.265998">
        <ele>888.095933</ele>
        <time>2020-08-06T06:28:33.938Z</time>
      </trkpt>
      <trkpt lat="38.825229" lon="-2.266154">
        <ele>888.528601</ele>
        <time>2020-08-06T06:28:36.935Z</time>
      </trkpt>
      <trkpt lat="38.825235" lon="-2.266308">
        <ele>888.954186</ele>
        <time>2020-08-06T06:28:39.933Z</time>
      </trkpt>
      <trkpt lat="38.825233" lon="-2.266462">
        <ele>889.379299</ele>
        <time>2020-08-06T06:28:42.943Z</time>
      </trkpt>
      <trkpt lat="38.825242" lon="-2.266605">
        <ele>889.775278</ele>
        <time>2020-08-06T06:28:45.942Z</time>
      </trkpt>
      <trkpt lat="38.824098" lon="-2.269726">
        <ele>901.784416</ele>
        <time>2020-08-06T06:30:45.739Z</time>
      </trkpt>
      <trkpt lat="38.824032" lon="-2.269810">
        <ele>902.271698</ele>
        <time>2020-08-06T06:30:47.716Z</time>
      </trkpt>
      <trkpt lat="38.823953" lon="-2.269919">
        <ele>902.879769</ele>
        <time>2020-08-06T06:30:50.707Z</time>
      </trkpt>
      <trkpt lat="38.823881" lon="-2.270008">
        <ele>903.403823</ele>
        <time>2020-08-06T06:30:53.725Z</time>
      </trkpt>
      <trkpt lat="38.823806" lon="-2.270081">
        <ele>903.508326</ele>
        <time>2020-08-06T06:30:56.714Z</time>
      </trkpt>
      <trkpt lat="38.823708" lon="-2.270143">
        <ele>903.461529</ele>
        <time>2020-08-06T06:31:00.722Z</time>
      </trkpt>
      <trkpt lat="38.823618" lon="-2.270224">
        <ele>903.414448</ele>
        <time>2020-08-06T06:31:04.714Z</time>
      </trkpt>
      <trkpt lat="38.823540" lon="-2.270286">
        <ele>903.375152</ele>
        <time>2020-08-06T06:31:08.722Z</time>
      </trkpt>
      <trkpt lat="38.823427" lon="-2.270365">
        <ele>903.320039</ele>
        <time>2020-08-06T06:32:33.734Z</time>
      </trkpt>
      <trkpt lat="38.823339" lon="-2.270449">
        <ele>903.273067</ele>
        <time>2020-08-06T06:32:37.710Z</time>
      </trkpt>
      <trkpt lat="38.823252" lon="-2.270526">
        <ele>903.227803</ele>
        <time>2020-08-06T06:32:41.717Z</time>
      </trkpt>
      <trkpt lat="38.823164" lon="-2.270609">
        <ele>903.181030</ele>
        <time>2020-08-06T06:32:45.714Z</time>
      </trkpt>
      <trkpt lat="38.823081" lon="-2.270694">
        <ele>903.135550</ele>
        <time>2020-08-06T06:32:49.728Z</time>
      </trkpt>
      <trkpt lat="38.822989" lon="-2.270774">
        <ele>903.087954</ele>
        <time>2020-08-06T06:32:53.725Z</time>
      </trkpt>
      <trkpt lat="38.822896" lon="-2.270864">
        <ele>903.038067</ele>
        <time>2020-08-06T06:32:57.726Z</time>
      </trkpt>
      <trkpt lat="38.822801" lon="-2.270958">
        <ele>902.986690</ele>
        <time>2020-08-06T06:33:01.715Z</time>
      </trkpt>
      <trkpt lat="38.822723" lon="-2.271024">
        <ele>902.946675</ele>
        <time>2020-08-06T06:33:04.718Z</time>
      </trkpt>
      <trkpt lat="38.822648" lon="-2.271093">
        <ele>902.907152</ele>
        <time>2020-08-06T06:33:07.727Z</time>
      </trkpt>
      <trkpt lat="38.822574" lon="-2.271161">
        <ele>902.868171</ele>
        <time>2020-08-06T06:33:10.715Z</time>
      </trkpt>
      <trkpt lat="38.822500" lon="-2.271229">
        <ele>902.829190</ele>
        <time>2020-08-06T06:33:13.726Z</time>
      </trkpt>
      <trkpt lat="38.822403" lon="-2.271319">
        <ele>902.777925</ele>
        <time>2020-08-06T06:33:17.725Z</time>
      </trkpt>
      <trkpt lat="38.822330" lon="-2.271393">
        <ele>902.801459</ele>
        <time>2020-08-06T06:33:20.717Z</time>
      </trkpt>
      <trkpt lat="38.822252" lon="-2.271466">
        <ele>902.849757</ele>
        <time>2020-08-06T06:33:23.711Z</time>
      </trkpt>
      <trkpt lat="38.822178" lon="-2.271535">
        <ele>902.895520</ele>
        <time>2020-08-06T06:33:26.717Z</time>
      </trkpt>
      <trkpt lat="38.822083" lon="-2.271627">
        <ele>902.955063</ele>
        <time>2020-08-06T06:33:30.719Z</time>
      </trkpt>
      <trkpt lat="38.821987" lon="-2.271711">
        <ele>903.013194</ele>
        <time>2020-08-06T06:33:34.717Z</time>
      </trkpt>
      <trkpt lat="38.821886" lon="-2.271797">
        <ele>903.073836</ele>
        <time>2020-08-06T06:33:38.731Z</time>
      </trkpt>
      <trkpt lat="38.821811" lon="-2.271867">
        <ele>903.120232</ele>
        <time>2020-08-06T06:33:41.720Z</time>
      </trkpt>
      <trkpt lat="38.821732" lon="-2.271938">
        <ele>903.168485</ele>
        <time>2020-08-06T06:33:44.718Z</time>
      </trkpt>
      <trkpt lat="38.821651" lon="-2.272006">
        <ele>903.216910</ele>
        <time>2020-08-06T06:33:47.724Z</time>
      </trkpt>
      <trkpt lat="38.821571" lon="-2.272065">
        <ele>903.263074</ele>
        <time>2020-08-06T06:33:50.720Z</time>
      </trkpt>
      <trkpt lat="38.821490" lon="-2.272120">
        <ele>903.308922</ele>
        <time>2020-08-06T06:33:53.714Z</time>
      </trkpt>
      <trkpt lat="38.821405" lon="-2.272179">
        <ele>903.357271</ele>
        <time>2020-08-06T06:33:56.729Z</time>
      </trkpt>
      <trkpt lat="38.821320" lon="-2.272248">
        <ele>903.407591</ele>
        <time>2020-08-06T06:33:59.723Z</time>
      </trkpt>
      <trkpt lat="38.821235" lon="-2.272312">
        <ele>903.456896</ele>
        <time>2020-08-06T06:34:02.717Z</time>
      </trkpt>
      <trkpt lat="38.821151" lon="-2.272376">
        <ele>903.505771</ele>
        <time>2020-08-06T06:34:05.710Z</time>
      </trkpt>
      <trkpt lat="38.821066" lon="-2.272436">
        <ele>903.554306</ele>
        <time>2020-08-06T06:34:08.719Z</time>
      </trkpt>
      <trkpt lat="38.820988" lon="-2.272501">
        <ele>903.600836</ele>
        <time>2020-08-06T06:34:11.720Z</time>
      </trkpt>
      <trkpt lat="38.820907" lon="-2.272558">
        <ele>903.647054</ele>
        <time>2020-08-06T06:34:14.714Z</time>
      </trkpt>
      <trkpt lat="38.820800" lon="-2.272623">
        <ele>903.727630</ele>
        <time>2020-08-06T06:34:18.712Z</time>
      </trkpt>
      <trkpt lat="38.820718" lon="-2.272675">
        <ele>903.798407</ele>
        <time>2020-08-06T06:34:21.725Z</time>
      </trkpt>
      <trkpt lat="38.820636" lon="-2.272730">
        <ele>903.870002</ele>
        <time>2020-08-06T06:34:24.722Z</time>
      </trkpt>
      <trkpt lat="38.820552" lon="-2.272789">
        <ele>903.944100</ele>
        <time>2020-08-06T06:34:27.710Z</time>
      </trkpt>
      <trkpt lat="38.820470" lon="-2.272845">
        <ele>904.015977</ele>
        <time>2020-08-06T06:34:30.721Z</time>
      </trkpt>
      <trkpt lat="38.820387" lon="-2.272904">
        <ele>904.089398</ele>
        <time>2020-08-06T06:34:33.718Z</time>
      </trkpt>
      <trkpt lat="38.820303" lon="-2.272957">
        <ele>904.161829</ele>
        <time>2020-08-06T06:34:36.716Z</time>
      </trkpt>
      <trkpt lat="38.820216" lon="-2.273011">
        <ele>904.236610</ele>
        <time>2020-08-06T06:34:39.729Z</time>
      </trkpt>
      <trkpt lat="38.820131" lon="-2.273065">
        <ele>904.310002</ele>
        <time>2020-08-06T06:34:42.718Z</time>
      </trkpt>
      <trkpt lat="38.820043" lon="-2.273114">
        <ele>904.384231</ele>
        <time>2020-08-06T06:34:45.720Z</time>
      </trkpt>
      <trkpt lat="38.819959" lon="-2.273159">
        <ele>904.454668</ele>
        <time>2020-08-06T06:34:48.716Z</time>
      </trkpt>
      <trkpt lat="38.819875" lon="-2.273209">
        <ele>904.526319</ele>
        <time>2020-08-06T06:34:51.718Z</time>
      </trkpt>
      <trkpt lat="38.819787" lon="-2.273258">
        <ele>904.600548</ele>
        <time>2020-08-06T06:34:54.733Z</time>
      </trkpt>
      <trkpt lat="38.819705" lon="-2.273309">
        <ele>904.671060</ele>
        <time>2020-08-06T06:34:57.711Z</time>
      </trkpt>
      <trkpt lat="38.819615" lon="-2.273359">
        <ele>904.746948</ele>
        <time>2020-08-06T06:35:00.727Z</time>
      </trkpt>
      <trkpt lat="38.819528" lon="-2.273403">
        <ele>904.819309</ele>
        <time>2020-08-06T06:35:03.731Z</time>
      </trkpt>
      <trkpt lat="38.819441" lon="-2.273446">
        <ele>904.891452</ele>
        <time>2020-08-06T06:35:06.713Z</time>
      </trkpt>
      <trkpt lat="38.819353" lon="-2.273485">
        <ele>904.963494</ele>
        <time>2020-08-06T06:35:09.719Z</time>
      </trkpt>
      <trkpt lat="38.819246" lon="-2.273544">
        <ele>905.053611</ele>
        <time>2020-08-06T06:35:13.717Z</time>
      </trkpt>
      <trkpt lat="38.819133" lon="-2.273597">
        <ele>905.099825</ele>
        <time>2020-08-06T06:35:17.716Z</time>
      </trkpt>
      <trkpt lat="38.819050" lon="-2.273646">
        <ele>905.132700</ele>
        <time>2020-08-06T06:35:20.731Z</time>
      </trkpt>
      <trkpt lat="38.818943" lon="-2.273709">
        <ele>905.175061</ele>
        <time>2020-08-06T06:35:24.714Z</time>
      </trkpt>
      <trkpt lat="38.818836" lon="-2.273765">
        <ele>905.216642</ele>
        <time>2020-08-06T06:35:28.734Z</time>
      </trkpt>
      <trkpt lat="38.818729" lon="-2.273825">
        <ele>905.258660</ele>
        <time>2020-08-06T06:35:32.723Z</time>
      </trkpt>
      <trkpt lat="38.818622" lon="-2.273892">
        <ele>905.301501</ele>
        <time>2020-08-06T06:35:36.721Z</time>
      </trkpt>
      <trkpt lat="38.818541" lon="-2.273948">
        <ele>905.334607</ele>
        <time>2020-08-06T06:35:39.721Z</time>
      </trkpt>
      <trkpt lat="38.818455" lon="-2.274002">
        <ele>905.369059</ele>
        <time>2020-08-06T06:35:42.714Z</time>
      </trkpt>
      <trkpt lat="38.818349" lon="-2.274066">
        <ele>905.411212</ele>
        <time>2020-08-06T06:35:46.719Z</time>
      </trkpt>
      <trkpt lat="38.818244" lon="-2.274126">
        <ele>905.452571</ele>
        <time>2020-08-06T06:35:50.730Z</time>
      </trkpt>
      <trkpt lat="38.818134" lon="-2.274185">
        <ele>905.495471</ele>
        <time>2020-08-06T06:35:54.721Z</time>
      </trkpt>
      <trkpt lat="38.818049" lon="-2.274230">
        <ele>905.528557</ele>
        <time>2020-08-06T06:35:57.726Z</time>
      </trkpt>
      <trkpt lat="38.817940" lon="-2.274295">
        <ele>905.571807</ele>
        <time>2020-08-06T06:36:01.721Z</time>
      </trkpt>
      <trkpt lat="38.817854" lon="-2.274355">
        <ele>905.607030</ele>
        <time>2020-08-06T06:36:04.721Z</time>
      </trkpt>
      <trkpt lat="38.817762" lon="-2.274405">
        <ele>905.642981</ele>
        <time>2020-08-06T06:36:07.724Z</time>
      </trkpt>
      <trkpt lat="38.817671" lon="-2.274445">
        <ele>905.677594</ele>
        <time>2020-08-06T06:36:10.720Z</time>
      </trkpt>
      <trkpt lat="38.817584" lon="-2.274500">
        <ele>905.703286</ele>
        <time>2020-08-06T06:36:13.721Z</time>
      </trkpt>
      <trkpt lat="38.817496" lon="-2.274548">
        <ele>905.686540</ele>
        <time>2020-08-06T06:36:16.721Z</time>
      </trkpt>
      <trkpt lat="38.817413" lon="-2.274595">
        <ele>905.670652</ele>
        <time>2020-08-06T06:36:19.724Z</time>
      </trkpt>
      <trkpt lat="38.817309" lon="-2.274655">
        <ele>905.650682</ele>
        <time>2020-08-06T06:36:23.727Z</time>
      </trkpt>
      <trkpt lat="38.817202" lon="-2.274711">
        <ele>905.630444</ele>
        <time>2020-08-06T06:36:27.734Z</time>
      </trkpt>
      <trkpt lat="38.817097" lon="-2.274778">
        <ele>905.609907</ele>
        <time>2020-08-06T06:36:31.703Z</time>
      </trkpt>
      <trkpt lat="38.816990" lon="-2.274844">
        <ele>905.589115</ele>
        <time>2020-08-06T06:36:35.748Z</time>
      </trkpt>
      <trkpt lat="38.816885" lon="-2.274911">
        <ele>905.568578</ele>
        <time>2020-08-06T06:36:39.717Z</time>
      </trkpt>
      <trkpt lat="38.816805" lon="-2.274967">
        <ele>905.552618</ele>
        <time>2020-08-06T06:36:42.714Z</time>
      </trkpt>
      <trkpt lat="38.816729" lon="-2.275034">
        <ele>905.536470</ele>
        <time>2020-08-06T06:36:45.718Z</time>
      </trkpt>
      <trkpt lat="38.816636" lon="-2.275124">
        <ele>905.516071</ele>
        <time>2020-08-06T06:36:49.731Z</time>
      </trkpt>
      <trkpt lat="38.816541" lon="-2.275203">
        <ele>905.496246</ele>
        <time>2020-08-06T06:36:53.717Z</time>
      </trkpt>
      <trkpt lat="38.816449" lon="-2.275272">
        <ele>905.477584</ele>
        <time>2020-08-06T06:36:57.729Z</time>
      </trkpt>
      <trkpt lat="38.816368" lon="-2.275331">
        <ele>905.461272</ele>
        <time>2020-08-06T06:37:01.705Z</time>
      </trkpt>
      <trkpt lat="38.816283" lon="-2.275394">
        <ele>905.444081</ele>
        <time>2020-08-06T06:37:05.708Z</time>
      </trkpt>
      <trkpt lat="38.814988" lon="-2.278628">
        <ele>905.131177</ele>
        <time>2020-08-06T06:39:09.716Z</time>
      </trkpt>
      <trkpt lat="38.814961" lon="-2.278764">
        <ele>905.310748</ele>
        <time>2020-08-06T06:39:13.724Z</time>
      </trkpt>
      <trkpt lat="38.814958" lon="-2.278903">
        <ele>905.488666</ele>
        <time>2020-08-06T06:39:17.715Z</time>
      </trkpt>
      <trkpt lat="38.814960" lon="-2.279035">
        <ele>905.657591</ele>
        <time>2020-08-06T06:39:21.719Z</time>
      </trkpt>
      <trkpt lat="38.814961" lon="-2.279159">
        <ele>905.816257</ele>
        <time>2020-08-06T06:39:25.727Z</time>
      </trkpt>
      <trkpt lat="38.814968" lon="-2.279290">
        <ele>905.984265</ele>
        <time>2020-08-06T06:39:29.729Z</time>
      </trkpt>
      <trkpt lat="38.814979" lon="-2.279416">
        <ele>906.146490</ele>
        <time>2020-08-06T06:39:33.718Z</time>
      </trkpt>
      <trkpt lat="38.814986" lon="-2.279535">
        <ele>906.299183</ele>
        <time>2020-08-06T06:39:37.720Z</time>
      </trkpt>
      <trkpt lat="38.815005" lon="-2.279677">
        <ele>906.483530</ele>
        <time>2020-08-06T06:39:41.722Z</time>
      </trkpt>
      <trkpt lat="38.815015" lon="-2.279799">
        <ele>906.640490</ele>
        <time>2020-08-06T06:39:44.715Z</time>
      </trkpt>
      <trkpt lat="38.815027" lon="-2.279915">
        <ele>906.790214</ele>
        <time>2020-08-06T06:39:47.736Z</time>
      </trkpt>
      <trkpt lat="38.815038" lon="-2.280057">
        <ele>906.977405</ele>
        <time>2020-08-06T06:39:51.714Z</time>
      </trkpt>
      <trkpt lat="38.815051" lon="-2.280190">
        <ele>907.157523</ele>
        <time>2020-08-06T06:39:55.722Z</time>
      </trkpt>
      <trkpt lat="38.815066" lon="-2.280330">
        <ele>907.347415</ele>
        <time>2020-08-06T06:39:59.713Z</time>
      </trkpt>
      <trkpt lat="38.815082" lon="-2.280473">
        <ele>907.541540</ele>
        <time>2020-08-06T06:40:03.713Z</time>
      </trkpt>
      <trkpt lat="38.815092" lon="-2.280623">
        <ele>907.743837</ele>
        <time>2020-08-06T06:40:07.717Z</time>
      </trkpt>
      <trkpt lat="38.815112" lon="-2.280773">
        <ele>907.948326</ele>
        <time>2020-08-06T06:40:11.713Z</time>
      </trkpt>
      <trkpt lat="38.815127" lon="-2.280913">
        <ele>908.138219</ele>
        <time>2020-08-06T06:40:15.711Z</time>
      </trkpt>
      <trkpt lat="38.815154" lon="-2.281039">
        <ele>908.313815</ele>
        <time>2020-08-06T06:40:19.703Z</time>
      </trkpt>
      <trkpt lat="38.815163" lon="-2.281189">
        <ele>908.515972</ele>
        <time>2020-08-06T06:40:23.712Z</time>
      </trkpt>
      <trkpt lat="38.815177" lon="-2.281340">
        <ele>908.720307</ele>
        <time>2020-08-06T06:40:27.715Z</time>
      </trkpt>
      <trkpt lat="38.815182" lon="-2.281456">
        <ele>908.876418</ele>
        <time>2020-08-06T06:40:30.722Z</time>
      </trkpt>
      <trkpt lat="38.815181" lon="-2.281607">
        <ele>909.079328</ele>
        <time>2020-08-06T06:40:34.713Z</time>
      </trkpt>
      <trkpt lat="38.815183" lon="-2.281759">
        <ele>909.283604</ele>
        <time>2020-08-06T06:40:38.720Z</time>
      </trkpt>
      <trkpt lat="38.815180" lon="-2.281906">
        <ele>909.481201</ele>
        <time>2020-08-06T06:40:42.715Z</time>
      </trkpt>
      <trkpt lat="38.812509" lon="-2.287089">
        <ele>918.668890</ele>
        <time>2020-08-06T06:43:46.727Z</time>
      </trkpt>
      <trkpt lat="38.812437" lon="-2.287185">
        <ele>918.779643</ele>
        <time>2020-08-06T06:43:49.717Z</time>
      </trkpt>
      <trkpt lat="38.812375" lon="-2.287317">
        <ele>918.907753</ele>
        <time>2020-08-06T06:43:53.713Z</time>
      </trkpt>
      <trkpt lat="38.812310" lon="-2.287443">
        <ele>919.033357</ele>
        <time>2020-08-06T06:43:57.712Z</time>
      </trkpt>
      <trkpt lat="38.812242" lon="-2.287573">
        <ele>919.163503</ele>
        <time>2020-08-06T06:44:01.721Z</time>
      </trkpt>
      <trkpt lat="38.812191" lon="-2.287681">
        <ele>919.268471</ele>
        <time>2020-08-06T06:44:04.728Z</time>
      </trkpt>
      <trkpt lat="38.812136" lon="-2.287786">
        <ele>919.373635</ele>
        <time>2020-08-06T06:44:07.728Z</time>
      </trkpt>
      <trkpt lat="38.812084" lon="-2.287890">
        <ele>919.476346</ele>
        <time>2020-08-06T06:44:10.718Z</time>
      </trkpt>
      <trkpt lat="38.812035" lon="-2.287994">
        <ele>919.561794</ele>
        <time>2020-08-06T06:44:13.729Z</time>
      </trkpt>
      <trkpt lat="38.811988" lon="-2.288102">
        <ele>919.440396</ele>
        <time>2020-08-06T06:44:16.715Z</time>
      </trkpt>
      <trkpt lat="38.811946" lon="-2.288211">
        <ele>919.321062</ele>
        <time>2020-08-06T06:44:19.722Z</time>
      </trkpt>
      <trkpt lat="38.811906" lon="-2.288332">
        <ele>919.192071</ele>
        <time>2020-08-06T06:44:22.733Z</time>
      </trkpt>
      <trkpt lat="38.811867" lon="-2.288454">
        <ele>919.062660</ele>
        <time>2020-08-06T06:44:25.714Z</time>
      </trkpt>
      <trkpt lat="38.811833" lon="-2.288578">
        <ele>918.933655</ele>
        <time>2020-08-06T06:44:28.730Z</time>
      </trkpt>
      <trkpt lat="38.811798" lon="-2.288701">
        <ele>918.805149</ele>
        <time>2020-08-06T06:44:31.737Z</time>
      </trkpt>
      <trkpt lat="38.811770" lon="-2.288817">
        <ele>918.685972</ele>
        <time>2020-08-06T06:44:34.733Z</time>
      </trkpt>
      <trkpt lat="38.811748" lon="-2.288930">
        <ele>918.571667</ele>
        <time>2020-08-06T06:44:37.715Z</time>
      </trkpt>
      <trkpt lat="38.811722" lon="-2.289074">
        <ele>918.426605</ele>
        <time>2020-08-06T06:44:41.722Z</time>
      </trkpt>
      <trkpt lat="38.811696" lon="-2.289185">
        <ele>918.312857</ele>
        <time>2020-08-06T06:44:44.710Z</time>
      </trkpt>
      <trkpt lat="38.811673" lon="-2.289334">
        <ele>918.163790</ele>
        <time>2020-08-06T06:44:48.726Z</time>
      </trkpt>
      <trkpt lat="38.811662" lon="-2.289453">
        <ele>918.046187</ele>
        <time>2020-08-06T06:44:51.721Z</time>
      </trkpt>
      <trkpt lat="38.811643" lon="-2.289600">
        <ele>917.899953</ele>
        <time>2020-08-06T06:44:55.930Z</time>
      </trkpt>
      <trkpt lat="38.811627" lon="-2.289748">
        <ele>917.753318</ele>
        <time>2020-08-06T06:44:59.930Z</time>
      </trkpt>
      <trkpt lat="38.811624" lon="-2.289870">
        <ele>917.633530</ele>
        <time>2020-08-06T06:45:03.917Z</time>
      </trkpt>
      <trkpt lat="38.811487" lon="-2.292808">
        <ele>917.743357</ele>
        <time>2020-08-06T06:46:24.943Z</time>
      </trkpt>
      <trkpt lat="38.811449" lon="-2.292946">
        <ele>917.852178</ele>
        <time>2020-08-06T06:46:27.913Z</time>
      </trkpt>
      <trkpt lat="38.811408" lon="-2.293081">
        <ele>917.959904</ele>
        <time>2020-08-06T06:46:30.939Z</time>
      </trkpt>
      <trkpt lat="38.811371" lon="-2.293225">
        <ele>918.072639</ele>
        <time>2020-08-06T06:46:33.921Z</time>
      </trkpt>
      <trkpt lat="38.811339" lon="-2.293366">
        <ele>918.181828</ele>
        <time>2020-08-06T06:46:36.920Z</time>
      </trkpt>
      <trkpt lat="38.811310" lon="-2.293492">
        <ele>918.279510</ele>
        <time>2020-08-06T06:46:39.922Z</time>
      </trkpt>
      <trkpt lat="38.811289" lon="-2.293617">
        <ele>918.374583</ele>
        <time>2020-08-06T06:46:42.929Z</time>
      </trkpt>
      <trkpt lat="38.811261" lon="-2.293737">
        <ele>918.467718</ele>
        <time>2020-08-06T06:46:45.919Z</time>
      </trkpt>
      <trkpt lat="38.811228" lon="-2.293867">
        <ele>918.569372</ele>
        <time>2020-08-06T06:46:48.922Z</time>
      </trkpt>
      <trkpt lat="38.811200" lon="-2.293999">
        <ele>918.671086</ele>
        <time>2020-08-06T06:46:51.928Z</time>
      </trkpt>
      <trkpt lat="38.811172" lon="-2.294130">
        <ele>918.772082</ele>
        <time>2020-08-06T06:46:54.931Z</time>
      </trkpt>
      <trkpt lat="38.811144" lon="-2.294254">
        <ele>918.868069</ele>
        <time>2020-08-06T06:46:57.924Z</time>
      </trkpt>
      <trkpt lat="38.811120" lon="-2.294376">
        <ele>918.961623</ele>
        <time>2020-08-06T06:47:00.924Z</time>
      </trkpt>
      <trkpt lat="38.811097" lon="-2.294493">
        <ele>919.051338</ele>
        <time>2020-08-06T06:47:03.927Z</time>
      </trkpt>
      <trkpt lat="38.811075" lon="-2.294611">
        <ele>919.141548</ele>
        <time>2020-08-06T06:47:06.932Z</time>
      </trkpt>
      <trkpt lat="38.811054" lon="-2.294734">
        <ele>919.235168</ele>
        <time>2020-08-06T06:47:09.926Z</time>
      </trkpt>
      <trkpt lat="38.811032" lon="-2.294867">
        <ele>919.416970</ele>
        <time>2020-08-06T06:47:12.924Z</time>
      </trkpt>
      <trkpt lat="38.811007" lon="-2.294998">
        <ele>919.598314</ele>
        <time>2020-08-06T06:47:15.932Z</time>
      </trkpt>
      <trkpt lat="38.810979" lon="-2.295129">
        <ele>919.780960</ele>
        <time>2020-08-06T06:47:18.920Z</time>
      </trkpt>
      <trkpt lat="38.810948" lon="-2.295264">
        <ele>919.970195</ele>
        <time>2020-08-06T06:47:21.931Z</time>
      </trkpt>
      <trkpt lat="38.810919" lon="-2.295387">
        <ele>920.142983</ele>
        <time>2020-08-06T06:47:24.933Z</time>
      </trkpt>
      <trkpt lat="38.810897" lon="-2.295509">
        <ele>920.311356</ele>
        <time>2020-08-06T06:47:27.926Z</time>
      </trkpt>
      <trkpt lat="38.810871" lon="-2.295627">
        <ele>920.476237</ele>
        <time>2020-08-06T06:47:30.931Z</time>
      </trkpt>
      <trkpt lat="38.810844" lon="-2.295744">
        <ele>920.640306</ele>
        <time>2020-08-06T06:47:33.939Z</time>
      </trkpt>
      <trkpt lat="38.810820" lon="-2.295865">
        <ele>920.808188</ele>
        <time>2020-08-06T06:47:36.921Z</time>
      </trkpt>
      <trkpt lat="38.810798" lon="-2.295986">
        <ele>920.975252</ele>
        <time>2020-08-06T06:47:39.927Z</time>
      </trkpt>
      <trkpt lat="38.810769" lon="-2.296108">
        <ele>921.146754</ele>
        <time>2020-08-06T06:47:42.938Z</time>
      </trkpt>
      <trkpt lat="38.810738" lon="-2.296227">
        <ele>921.315463</ele>
        <time>2020-08-06T06:47:45.920Z</time>
      </trkpt>
      <trkpt lat="38.810703" lon="-2.296356">
        <ele>921.499127</ele>
        <time>2020-08-06T06:47:48.926Z</time>
      </trkpt>
      <trkpt lat="38.810671" lon="-2.296483">
        <ele>921.678595</ele>
        <time>2020-08-06T06:47:51.918Z</time>
      </trkpt>
      <trkpt lat="38.810639" lon="-2.296606">
        <ele>921.852952</ele>
        <time>2020-08-06T06:47:54.926Z</time>
      </trkpt>
      <trkpt lat="38.810610" lon="-2.296737">
        <ele>922.036063</ele>
        <time>2020-08-06T06:47:57.931Z</time>
      </trkpt>
      <trkpt lat="38.810574" lon="-2.296869">
        <ele>922.224104</ele>
        <time>2020-08-06T06:48:00.939Z</time>
      </trkpt>
      <trkpt lat="38.810534" lon="-2.296996">
        <ele>922.389836</ele>
        <time>2020-08-06T06:48:03.924Z</time>
      </trkpt>
      <trkpt lat="38.810502" lon="-2.297123">
        <ele>922.520771</ele>
        <time>2020-08-06T06:48:06.929Z</time>
      </trkpt>
      <trkpt lat="38.810469" lon="-2.297246">
        <ele>922.648383</ele>
        <time>2020-08-06T06:48:09.934Z</time>
      </trkpt>
      <trkpt lat="38.810435" lon="-2.297366">
        <ele>922.773641</ele>
        <time>2020-08-06T06:48:12.929Z</time>
      </trkpt>
      <trkpt lat="38.810407" lon="-2.297487">
        <ele>922.897462</ele>
        <time>2020-08-06T06:48:15.928Z</time>
      </trkpt>
      <trkpt lat="38.810363" lon="-2.297606">
        <ele>923.026674</ele>
        <time>2020-08-06T06:48:18.921Z</time>
      </trkpt>
      <trkpt lat="38.810318" lon="-2.297731">
        <ele>923.161750</ele>
        <time>2020-08-06T06:48:21.940Z</time>
      </trkpt>
      <trkpt lat="38.810271" lon="-2.297858">
        <ele>923.299671</ele>
        <time>2020-08-06T06:48:24.934Z</time>
      </trkpt>
      <trkpt lat="38.810220" lon="-2.297986">
        <ele>923.440699</ele>
        <time>2020-08-06T06:48:27.928Z</time>
      </trkpt>
      <trkpt lat="38.810175" lon="-2.298119">
        <ele>923.582938</ele>
        <time>2020-08-06T06:48:30.933Z</time>
      </trkpt>
      <trkpt lat="38.810127" lon="-2.298246">
        <ele>923.721404</ele>
        <time>2020-08-06T06:48:33.931Z</time>
      </trkpt>
      <trkpt lat="38.810083" lon="-2.298369">
        <ele>923.854172</ele>
        <time>2020-08-06T06:48:36.922Z</time>
      </trkpt>
      <trkpt lat="38.810043" lon="-2.298494">
        <ele>923.986731</ele>
        <time>2020-08-06T06:48:39.928Z</time>
      </trkpt>
      <trkpt lat="38.810005" lon="-2.298612">
        <ele>924.111983</ele>
        <time>2020-08-06T06:48:42.925Z</time>
      </trkpt>
      <trkpt lat="38.809964" lon="-2.298722">
        <ele>924.231600</ele>
        <time>2020-08-06T06:48:45.925Z</time>
      </trkpt>
      <trkpt lat="38.809921" lon="-2.298833">
        <ele>924.353203</ele>
        <time>2020-08-06T06:48:48.926Z</time>
      </trkpt>
      <trkpt lat="38.809881" lon="-2.298949">
        <ele>924.477642</ele>
        <time>2020-08-06T06:48:51.912Z</time>
      </trkpt>
      <trkpt lat="38.809835" lon="-2.299065">
        <ele>924.605072</ele>
        <time>2020-08-06T06:48:54.935Z</time>
      </trkpt>
      <trkpt lat="38.809784" lon="-2.299180">
        <ele>924.699718</ele>
        <time>2020-08-06T06:48:57.933Z</time>
      </trkpt>
      <trkpt lat="38.809743" lon="-2.299299">
        <ele>924.792786</ele>
        <time>2020-08-06T06:49:00.941Z</time>
      </trkpt>
      <trkpt lat="38.809708" lon="-2.299422">
        <ele>924.886449</ele>
        <time>2020-08-06T06:49:03.937Z</time>
      </trkpt>
      <trkpt lat="38.809665" lon="-2.299541">
        <ele>924.980275</ele>
        <time>2020-08-06T06:49:06.935Z</time>
      </trkpt>
      <trkpt lat="38.809622" lon="-2.299659">
        <ele>925.073452</ele>
        <time>2020-08-06T06:49:09.920Z</time>
      </trkpt>
      <trkpt lat="38.809580" lon="-2.299782">
        <ele>925.169509</ele>
        <time>2020-08-06T06:49:12.927Z</time>
      </trkpt>
      <trkpt lat="38.809538" lon="-2.299898">
        <ele>925.261002</ele>
        <time>2020-08-06T06:49:15.926Z</time>
      </trkpt>
      <trkpt lat="38.809492" lon="-2.300024">
        <ele>925.360530</ele>
        <time>2020-08-06T06:49:18.923Z</time>
      </trkpt>
      <trkpt lat="38.809454" lon="-2.300147">
        <ele>925.455173</ele>
        <time>2020-08-06T06:49:21.934Z</time>
      </trkpt>
      <trkpt lat="38.809415" lon="-2.300262">
        <ele>925.544884</ele>
        <time>2020-08-06T06:49:24.946Z</time>
      </trkpt>
      <trkpt lat="38.809379" lon="-2.300382">
        <ele>925.636860</ele>
        <time>2020-08-06T06:49:27.935Z</time>
      </trkpt>
      <trkpt lat="38.809344" lon="-2.300495">
        <ele>925.723839</ele>
        <time>2020-08-06T06:49:30.923Z</time>
      </trkpt>
      <trkpt lat="38.809309" lon="-2.300607">
        <ele>925.810153</ele>
        <time>2020-08-06T06:49:33.932Z</time>
      </trkpt>
      <trkpt lat="38.809281" lon="-2.300721">
        <ele>925.895651</ele>
        <time>2020-08-06T06:49:36.928Z</time>
      </trkpt>
      <trkpt lat="38.809256" lon="-2.300850">
        <ele>925.990735</ele>
        <time>2020-08-06T06:49:39.927Z</time>
      </trkpt>
      <trkpt lat="38.809233" lon="-2.300985">
        <ele>926.089580</ele>
        <time>2020-08-06T06:49:42.924Z</time>
      </trkpt>
      <trkpt lat="38.809215" lon="-2.301119">
        <ele>926.186843</ele>
        <time>2020-08-06T06:49:45.931Z</time>
      </trkpt>
      <trkpt lat="38.809198" lon="-2.301242">
        <ele>926.274636</ele>
        <time>2020-08-06T06:49:48.929Z</time>
      </trkpt>
      <trkpt lat="38.809184" lon="-2.301364">
        <ele>926.356209</ele>
        <time>2020-08-06T06:49:51.944Z</time>
      </trkpt>
      <trkpt lat="38.809174" lon="-2.301486">
        <ele>926.437356</ele>
        <time>2020-08-06T06:49:54.923Z</time>
      </trkpt>
      <trkpt lat="38.809166" lon="-2.301612">
        <ele>926.520981</ele>
        <time>2020-08-06T06:49:57.931Z</time>
      </trkpt>
      <trkpt lat="38.809162" lon="-2.301741">
        <ele>926.606382</ele>
        <time>2020-08-06T06:50:00.928Z</time>
      </trkpt>
      <trkpt lat="38.809160" lon="-2.301869">
        <ele>926.691070</ele>
        <time>2020-08-06T06:50:03.929Z</time>
      </trkpt>
      <trkpt lat="38.809155" lon="-2.301997">
        <ele>926.775848</ele>
        <time>2020-08-06T06:50:06.923Z</time>
      </trkpt>
      <trkpt lat="38.809157" lon="-2.302128">
        <ele>926.862521</ele>
        <time>2020-08-06T06:50:09.935Z</time>
      </trkpt>
      <trkpt lat="38.809160" lon="-2.302257">
        <ele>926.947892</ele>
        <time>2020-08-06T06:50:12.921Z</time>
      </trkpt>
      <trkpt lat="38.809167" lon="-2.302387">
        <ele>927.034092</ele>
        <time>2020-08-06T06:50:15.927Z</time>
      </trkpt>
      <trkpt lat="38.809178" lon="-2.302517">
        <ele>927.120592</ele>
        <time>2020-08-06T06:50:18.935Z</time>
      </trkpt>
      <trkpt lat="38.809190" lon="-2.302649">
        <ele>927.208501</ele>
        <time>2020-08-06T06:50:21.924Z</time>
      </trkpt>
      <trkpt lat="38.809203" lon="-2.302777">
        <ele>927.293889</ele>
        <time>2020-08-06T06:50:24.921Z</time>
      </trkpt>
      <trkpt lat="38.809217" lon="-2.302908">
        <ele>927.381356</ele>
        <time>2020-08-06T06:50:27.928Z</time>
      </trkpt>
      <trkpt lat="38.809231" lon="-2.303035">
        <ele>927.466203</ele>
        <time>2020-08-06T06:50:30.926Z</time>
      </trkpt>
      <trkpt lat="38.809249" lon="-2.303162">
        <ele>927.551591</ele>
        <time>2020-08-06T06:50:33.926Z</time>
      </trkpt>
      <trkpt lat="38.809266" lon="-2.303289">
        <ele>927.636831</ele>
        <time>2020-08-06T06:50:36.921Z</time>
      </trkpt>
      <trkpt lat="38.809283" lon="-2.303422">
        <ele>927.725986</ele>
        <time>2020-08-06T06:50:39.935Z</time>
      </trkpt>
      <trkpt lat="38.809296" lon="-2.303550">
        <ele>927.661198</ele>
        <time>2020-08-06T06:50:42.925Z</time>
      </trkpt>
      <trkpt lat="38.809308" lon="-2.303676">
        <ele>927.311305</ele>
        <time>2020-08-06T06:50:45.930Z</time>
      </trkpt>
      <trkpt lat="38.809323" lon="-2.303802">
        <ele>926.959966</ele>
        <time>2020-08-06T06:50:48.938Z</time>
      </trkpt>
      <trkpt lat="38.809340" lon="-2.303932">
        <ele>926.596621</ele>
        <time>2020-08-06T06:50:51.924Z</time>
      </trkpt>
      <trkpt lat="38.809350" lon="-2.304064">
        <ele>926.231059</ele>
        <time>2020-08-06T06:50:54.925Z</time>
      </trkpt>
      <trkpt lat="38.809366" lon="-2.304191">
        <ele>925.876448</ele>
        <time>2020-08-06T06:50:57.926Z</time>
      </trkpt>
      <trkpt lat="38.809378" lon="-2.304308">
        <ele>925.551166</ele>
        <time>2020-08-06T06:51:00.930Z</time>
      </trkpt>
      <trkpt lat="38.809387" lon="-2.304429">
        <ele>925.216123</ele>
        <time>2020-08-06T06:51:03.923Z</time>
      </trkpt>
      <trkpt lat="38.809403" lon="-2.304546">
        <ele>924.888694</ele>
        <time>2020-08-06T06:51:06.931Z</time>
      </trkpt>
      <trkpt lat="38.809418" lon="-2.304666">
        <ele>924.553695</ele>
        <time>2020-08-06T06:51:09.926Z</time>
      </trkpt>
      <trkpt lat="38.809435" lon="-2.304789">
        <ele>924.209365</ele>
        <time>2020-08-06T06:51:12.933Z</time>
      </trkpt>
      <trkpt lat="38.809454" lon="-2.304935">
        <ele>923.801355</ele>
        <time>2020-08-06T06:51:16.917Z</time>
      </trkpt>
      <trkpt lat="38.809411" lon="-2.306250">
        <ele>922.541081</ele>
        <time>2020-08-06T06:51:48.916Z</time>
      </trkpt>
      <trkpt lat="38.809404" lon="-2.306403">
        <ele>922.921087</ele>
        <time>2020-08-06T06:51:52.921Z</time>
      </trkpt>
      <trkpt lat="38.809410" lon="-2.306537">
        <ele>923.253879</ele>
        <time>2020-08-06T06:51:55.929Z</time>
      </trkpt>
      <trkpt lat="38.809399" lon="-2.306674">
        <ele>923.595360</ele>
        <time>2020-08-06T06:51:58.927Z</time>
      </trkpt>
      <trkpt lat="38.809393" lon="-2.306810">
        <ele>923.933102</ele>
        <time>2020-08-06T06:52:01.925Z</time>
      </trkpt>
      <trkpt lat="38.809392" lon="-2.306946">
        <ele>924.270320</ele>
        <time>2020-08-06T06:52:04.927Z</time>
      </trkpt>
      <trkpt lat="38.809380" lon="-2.307073">
        <ele>924.587514</ele>
        <time>2020-08-06T06:52:07.936Z</time>
      </trkpt>
      <trkpt lat="38.809366" lon="-2.307201">
        <ele>924.907992</ele>
        <time>2020-08-06T06:52:10.924Z</time>
      </trkpt>
      <trkpt lat="38.809354" lon="-2.307321">
        <ele>925.207964</ele>
        <time>2020-08-06T06:52:13.932Z</time>
      </trkpt>
      <trkpt lat="38.809345" lon="-2.307440">
        <ele>925.504403</ele>
        <time>2020-08-06T06:52:16.927Z</time>
      </trkpt>
      <trkpt lat="38.809333" lon="-2.307564">
        <ele>925.814215</ele>
        <time>2020-08-06T06:52:19.928Z</time>
      </trkpt>
      <trkpt lat="38.809319" lon="-2.307702">
        <ele>926.159264</ele>
        <time>2020-08-06T06:52:22.920Z</time>
      </trkpt>
      <trkpt lat="38.809307" lon="-2.307838">
        <ele>926.498622</ele>
        <time>2020-08-06T06:52:25.925Z</time>
      </trkpt>
      <trkpt lat="38.809295" lon="-2.307973">
        <ele>926.835516</ele>
        <time>2020-08-06T06:52:28.925Z</time>
      </trkpt>
      <trkpt lat="38.809281" lon="-2.308117">
        <ele>927.184206</ele>
        <time>2020-08-06T06:52:31.922Z</time>
      </trkpt>
      <trkpt lat="38.809273" lon="-2.308257">
        <ele>927.458357</ele>
        <time>2020-08-06T06:52:34.922Z</time>
      </trkpt>
      <trkpt lat="38.809260" lon="-2.308395">
        <ele>927.729830</ele>
        <time>2020-08-06T06:52:37.938Z</time>
      </trkpt>
      <trkpt lat="38.809245" lon="-2.308532">
        <ele>928.000016</ele>
        <time>2020-08-06T06:52:40.922Z</time>
      </trkpt>
      <trkpt lat="38.809231" lon="-2.308669">
        <ele>928.269864</ele>
        <time>2020-08-06T06:52:43.922Z</time>
      </trkpt>
      <trkpt lat="38.809218" lon="-2.308807">
        <ele>928.541337</ele>
        <time>2020-08-06T06:52:46.931Z</time>
      </trkpt>
      <trkpt lat="38.809210" lon="-2.308936">
        <ele>928.794068</ele>
        <time>2020-08-06T06:52:49.929Z</time>
      </trkpt>
      <trkpt lat="38.809201" lon="-2.309063">
        <ele>929.043120</ele>
        <time>2020-08-06T06:52:52.922Z</time>
      </trkpt>
      <trkpt lat="38.809193" lon="-2.309192">
        <ele>929.295850</ele>
        <time>2020-08-06T06:52:55.936Z</time>
      </trkpt>
      <trkpt lat="38.809182" lon="-2.309319">
        <ele>929.545406</ele>
        <time>2020-08-06T06:52:58.925Z</time>
      </trkpt>
      <trkpt lat="38.809169" lon="-2.309451">
        <ele>929.805250</ele>
        <time>2020-08-06T06:53:01.939Z</time>
      </trkpt>
      <trkpt lat="38.809159" lon="-2.309583">
        <ele>930.064258</ele>
        <time>2020-08-06T06:53:04.912Z</time>
      </trkpt>
      <trkpt lat="38.809149" lon="-2.309714">
        <ele>930.321323</ele>
        <time>2020-08-06T06:53:07.934Z</time>
      </trkpt>
      <trkpt lat="38.809145" lon="-2.309846">
        <ele>930.579311</ele>
        <time>2020-08-06T06:53:10.921Z</time>
      </trkpt>
      <trkpt lat="38.809145" lon="-2.309982">
        <ele>930.844916</ele>
        <time>2020-08-06T06:53:13.921Z</time>
      </trkpt>
      <trkpt lat="38.809146" lon="-2.310122">
        <ele>931.118345</ele>
        <time>2020-08-06T06:53:16.922Z</time>
      </trkpt>
      <trkpt lat="38.809151" lon="-2.310259">
        <ele>931.386196</ele>
        <time>2020-08-06T06:53:19.925Z</time>
      </trkpt>
      <trkpt lat="38.809160" lon="-2.310386">
        <ele>931.635248</ele>
        <time>2020-08-06T06:53:22.931Z</time>
      </trkpt>
      <trkpt lat="38.809169" lon="-2.310516">
        <ele>931.448771</ele>
        <time>2020-08-06T06:53:25.928Z</time>
      </trkpt>
      <trkpt lat="38.809177" lon="-2.310649">
        <ele>931.228764</ele>
        <time>2020-08-06T06:53:28.931Z</time>
      </trkpt>
      <trkpt lat="38.809198" lon="-2.310797">
        <ele>930.980656</ele>
        <time>2020-08-06T06:53:31.921Z</time>
      </trkpt>
      <trkpt lat="38.809207" lon="-2.310938">
        <ele>930.747329</ele>
        <time>2020-08-06T06:53:34.911Z</time>
      </trkpt>
      <trkpt lat="38.809224" lon="-2.311073">
        <ele>930.521787</ele>
        <time>2020-08-06T06:53:37.928Z</time>
      </trkpt>
      <trkpt lat="38.809243" lon="-2.311206">
        <ele>930.298777</ele>
        <time>2020-08-06T06:53:40.938Z</time>
      </trkpt>
      <trkpt lat="38.809266" lon="-2.311343">
        <ele>930.067641</ele>
        <time>2020-08-06T06:53:43.919Z</time>
      </trkpt>
      <trkpt lat="38.809294" lon="-2.311496">
        <ele>929.808435</ele>
        <time>2020-08-06T06:53:46.925Z</time>
      </trkpt>
      <trkpt lat="38.809316" lon="-2.311642">
        <ele>929.563179</ele>
        <time>2020-08-06T06:53:49.932Z</time>
      </trkpt>
      <trkpt lat="38.809330" lon="-2.311779">
        <ele>929.335293</ele>
        <time>2020-08-06T06:53:52.941Z</time>
      </trkpt>
      <trkpt lat="38.809338" lon="-2.311912">
        <ele>929.115287</ele>
        <time>2020-08-06T06:53:55.925Z</time>
      </trkpt>
      <trkpt lat="38.809352" lon="-2.312048">
        <ele>928.889036</ele>
        <time>2020-08-06T06:53:58.926Z</time>
      </trkpt>
      <trkpt lat="38.809370" lon="-2.312187">
        <ele>928.656642</ele>
        <time>2020-08-06T06:54:01.929Z</time>
      </trkpt>
      <trkpt lat="38.809387" lon="-2.312330">
        <ele>928.418066</ele>
        <time>2020-08-06T06:54:04.920Z</time>
      </trkpt>
      <trkpt lat="38.809402" lon="-2.312476">
        <ele>928.175188</ele>
        <time>2020-08-06T06:54:07.931Z</time>
      </trkpt>
      <trkpt lat="38.809420" lon="-2.312634">
        <ele>927.911832</ele>
        <time>2020-08-06T06:54:10.926Z</time>
      </trkpt>
      <trkpt lat="38.809432" lon="-2.312799">
        <ele>927.986040</ele>
        <time>2020-08-06T06:54:13.927Z</time>
      </trkpt>
      <trkpt lat="38.809451" lon="-2.312964">
        <ele>928.176290</ele>
        <time>2020-08-06T06:54:16.931Z</time>
      </trkpt>
      <trkpt lat="38.809463" lon="-2.313123">
        <ele>928.358501</ele>
        <time>2020-08-06T06:54:19.928Z</time>
      </trkpt>
      <trkpt lat="38.809475" lon="-2.313276">
        <ele>928.533901</ele>
        <time>2020-08-06T06:54:22.931Z</time>
      </trkpt>
      <trkpt lat="38.809488" lon="-2.313429">
        <ele>928.709454</ele>
        <time>2020-08-06T06:54:25.932Z</time>
      </trkpt>
      <trkpt lat="38.809509" lon="-2.313594">
        <ele>928.900154</ele>
        <time>2020-08-06T06:54:28.927Z</time>
      </trkpt>
      <trkpt lat="38.809536" lon="-2.313751">
        <ele>929.083544</ele>
        <time>2020-08-06T06:54:31.928Z</time>
      </trkpt>
      <trkpt lat="38.809560" lon="-2.313904">
        <ele>929.261563</ele>
        <time>2020-08-06T06:54:34.932Z</time>
      </trkpt>
      <trkpt lat="38.809577" lon="-2.314063">
        <ele>929.444624</ele>
        <time>2020-08-06T06:54:37.924Z</time>
      </trkpt>
      <trkpt lat="38.809598" lon="-2.314227">
        <ele>929.634198</ele>
        <time>2020-08-06T06:54:40.925Z</time>
      </trkpt>
      <trkpt lat="38.809613" lon="-2.314396">
        <ele>929.828213</ele>
        <time>2020-08-06T06:54:43.928Z</time>
      </trkpt>
      <trkpt lat="38.809632" lon="-2.314562">
        <ele>930.019591</ele>
        <time>2020-08-06T06:54:46.929Z</time>
      </trkpt>
      <trkpt lat="38.809648" lon="-2.314678">
        <ele>930.153962</ele>
        <time>2020-08-06T06:54:48.926Z</time>
      </trkpt>
      <trkpt lat="38.809660" lon="-2.314835">
        <ele>930.333902</ele>
        <time>2020-08-06T06:54:51.920Z</time>
      </trkpt>
      <trkpt lat="38.809685" lon="-2.314993">
        <ele>930.475846</ele>
        <time>2020-08-06T06:54:54.939Z</time>
      </trkpt>
      <trkpt lat="38.809706" lon="-2.315152">
        <ele>930.471515</ele>
        <time>2020-08-06T06:54:57.928Z</time>
      </trkpt>
      <trkpt lat="38.809725" lon="-2.315321">
        <ele>930.466930</ele>
        <time>2020-08-06T06:55:00.937Z</time>
      </trkpt>
      <trkpt lat="38.809751" lon="-2.315488">
        <ele>930.462357</ele>
        <time>2020-08-06T06:55:03.924Z</time>
      </trkpt>
      <trkpt lat="38.809765" lon="-2.315655">
        <ele>930.457846</ele>
        <time>2020-08-06T06:55:06.920Z</time>
      </trkpt>
      <trkpt lat="38.809784" lon="-2.315822">
        <ele>930.453314</ele>
        <time>2020-08-06T06:55:09.924Z</time>
      </trkpt>
      <trkpt lat="38.809788" lon="-2.315983">
        <ele>930.448988</ele>
        <time>2020-08-06T06:55:12.931Z</time>
      </trkpt>
      <trkpt lat="38.809804" lon="-2.316097">
        <ele>930.445878</ele>
        <time>2020-08-06T06:55:14.929Z</time>
      </trkpt>
      <trkpt lat="38.809820" lon="-2.316225">
        <ele>930.442396</ele>
        <time>2020-08-06T06:55:16.929Z</time>
      </trkpt>
      <trkpt lat="38.809838" lon="-2.316347">
        <ele>930.439062</ele>
        <time>2020-08-06T06:55:18.929Z</time>
      </trkpt>
      <trkpt lat="38.809867" lon="-2.316463">
        <ele>930.435791</ele>
        <time>2020-08-06T06:55:20.923Z</time>
      </trkpt>
      <trkpt lat="38.809875" lon="-2.316631">
        <ele>930.431271</ele>
        <time>2020-08-06T06:55:23.922Z</time>
      </trkpt>
      <trkpt lat="38.809897" lon="-2.316796">
        <ele>930.426775</ele>
        <time>2020-08-06T06:55:26.930Z</time>
      </trkpt>
      <trkpt lat="38.809902" lon="-2.316912">
        <ele>930.423656</ele>
        <time>2020-08-06T06:55:28.923Z</time>
      </trkpt>
      <trkpt lat="38.809915" lon="-2.317031">
        <ele>930.420429</ele>
        <time>2020-08-06T06:55:30.922Z</time>
      </trkpt>
      <trkpt lat="38.809924" lon="-2.317152">
        <ele>930.417165</ele>
        <time>2020-08-06T06:55:32.924Z</time>
      </trkpt>
      <trkpt lat="38.809937" lon="-2.317271">
        <ele>930.470577</ele>
        <time>2020-08-06T06:55:34.921Z</time>
      </trkpt>
      <trkpt lat="38.809940" lon="-2.317394">
        <ele>930.678039</ele>
        <time>2020-08-06T06:55:36.926Z</time>
      </trkpt>
      <trkpt lat="38.809936" lon="-2.317515">
        <ele>930.882212</ele>
        <time>2020-08-06T06:55:38.921Z</time>
      </trkpt>
      <trkpt lat="38.809928" lon="-2.317633">
        <ele>931.081895</ele>
        <time>2020-08-06T06:55:40.931Z</time>
      </trkpt>
      <trkpt lat="38.809935" lon="-2.317750">
        <ele>931.279721</ele>
        <time>2020-08-06T06:55:42.931Z</time>
      </trkpt>
      <trkpt lat="38.809929" lon="-2.317866">
        <ele>931.475711</ele>
        <time>2020-08-06T06:55:44.929Z</time>
      </trkpt>
      <trkpt lat="38.809919" lon="-2.318033">
        <ele>931.758080</ele>
        <time>2020-08-06T06:55:47.917Z</time>
      </trkpt>
      <trkpt lat="38.809918" lon="-2.318150">
        <ele>931.955338</ele>
        <time>2020-08-06T06:55:49.916Z</time>
      </trkpt>
      <trkpt lat="38.809898" lon="-2.318317">
        <ele>932.240182</ele>
        <time>2020-08-06T06:55:52.932Z</time>
      </trkpt>
      <trkpt lat="38.809863" lon="-2.318483">
        <ele>932.530099</ele>
        <time>2020-08-06T06:55:55.926Z</time>
      </trkpt>
      <trkpt lat="38.809861" lon="-2.318648">
        <ele>932.808300</ele>
        <time>2020-08-06T06:55:58.939Z</time>
      </trkpt>
      <trkpt lat="38.809842" lon="-2.318801">
        <ele>933.069492</ele>
        <time>2020-08-06T06:56:01.922Z</time>
      </trkpt>
      <trkpt lat="38.809821" lon="-2.318955">
        <ele>933.333060</ele>
        <time>2020-08-06T06:56:04.927Z</time>
      </trkpt>
      <trkpt lat="38.809793" lon="-2.319107">
        <ele>933.596375</ele>
        <time>2020-08-06T06:56:07.923Z</time>
      </trkpt>
      <trkpt lat="38.809757" lon="-2.319246">
        <ele>933.843314</ele>
        <time>2020-08-06T06:56:10.920Z</time>
      </trkpt>
      <trkpt lat="38.809733" lon="-2.319387">
        <ele>934.086626</ele>
        <time>2020-08-06T06:56:13.917Z</time>
      </trkpt>
      <trkpt lat="38.809704" lon="-2.319534">
        <ele>934.282459</ele>
        <time>2020-08-06T06:56:16.928Z</time>
      </trkpt>
      <trkpt lat="38.809671" lon="-2.319670">
        <ele>934.124544</ele>
        <time>2020-08-06T06:56:19.919Z</time>
      </trkpt>
      <trkpt lat="38.809631" lon="-2.319805">
        <ele>933.964424</ele>
        <time>2020-08-06T06:56:22.936Z</time>
      </trkpt>
      <trkpt lat="38.809591" lon="-2.319939">
        <ele>933.805340</ele>
        <time>2020-08-06T06:56:25.931Z</time>
      </trkpt>
      <trkpt lat="38.809543" lon="-2.320068">
        <ele>933.646857</ele>
        <time>2020-08-06T06:56:28.931Z</time>
      </trkpt>
      <trkpt lat="38.809488" lon="-2.320178">
        <ele>933.501961</ele>
        <time>2020-08-06T06:56:31.931Z</time>
      </trkpt>
      <trkpt lat="38.809430" lon="-2.320282">
        <ele>933.360176</ele>
        <time>2020-08-06T06:56:34.929Z</time>
      </trkpt>
      <trkpt lat="38.809381" lon="-2.320410">
        <ele>933.202071</ele>
        <time>2020-08-06T06:56:37.926Z</time>
      </trkpt>
      <trkpt lat="38.809345" lon="-2.320541">
        <ele>933.048073</ele>
        <time>2020-08-06T06:56:40.936Z</time>
      </trkpt>
      <trkpt lat="38.809291" lon="-2.320673">
        <ele>932.882791</ele>
        <time>2020-08-06T06:56:44.939Z</time>
      </trkpt>
      <trkpt lat="38.809231" lon="-2.320798">
        <ele>932.720029</ele>
        <time>2020-08-06T06:56:48.918Z</time>
      </trkpt>
      <trkpt lat="38.809171" lon="-2.320914">
        <ele>932.565674</ele>
        <time>2020-08-06T06:56:52.924Z</time>
      </trkpt>
      <trkpt lat="38.806245" lon="-2.324646">
        <ele>927.986793</ele>
        <time>2020-08-06T06:58:55.101Z</time>
      </trkpt>
      <trkpt lat="38.806193" lon="-2.324749">
        <ele>928.325939</ele>
        <time>2020-08-06T06:58:57.107Z</time>
      </trkpt>
      <trkpt lat="38.806111" lon="-2.324877">
        <ele>929.212604</ele>
        <time>2020-08-06T06:59:00.085Z</time>
      </trkpt>
      <trkpt lat="38.806033" lon="-2.325007">
        <ele>930.090541</ele>
        <time>2020-08-06T06:59:03.094Z</time>
      </trkpt>
      <trkpt lat="38.805977" lon="-2.325104">
        <ele>930.736512</ele>
        <time>2020-08-06T06:59:05.100Z</time>
      </trkpt>
      <trkpt lat="38.805916" lon="-2.325200">
        <ele>931.399337</ele>
        <time>2020-08-06T06:59:07.107Z</time>
      </trkpt>
      <trkpt lat="38.805854" lon="-2.325293">
        <ele>932.054243</ele>
        <time>2020-08-06T06:59:09.097Z</time>
      </trkpt>
      <trkpt lat="38.805786" lon="-2.325385">
        <ele>932.732758</ele>
        <time>2020-08-06T06:59:11.093Z</time>
      </trkpt>
      <trkpt lat="38.805716" lon="-2.325470">
        <ele>933.394513</ele>
        <time>2020-08-06T06:59:13.110Z</time>
      </trkpt>
      <trkpt lat="38.805654" lon="-2.325557">
        <ele>934.025369</ele>
        <time>2020-08-06T06:59:15.100Z</time>
      </trkpt>
      <trkpt lat="38.805591" lon="-2.325639">
        <ele>934.641549</ele>
        <time>2020-08-06T06:59:17.102Z</time>
      </trkpt>
      <trkpt lat="38.805493" lon="-2.325754">
        <ele>935.553428</ele>
        <time>2020-08-06T06:59:20.105Z</time>
      </trkpt>
      <trkpt lat="38.805400" lon="-2.325863">
        <ele>936.418305</ele>
        <time>2020-08-06T06:59:23.099Z</time>
      </trkpt>
      <trkpt lat="38.805314" lon="-2.325968">
        <ele>937.233426</ele>
        <time>2020-08-06T06:59:26.102Z</time>
      </trkpt>
      <trkpt lat="38.805228" lon="-2.326073">
        <ele>938.048547</ele>
        <time>2020-08-06T06:59:29.103Z</time>
      </trkpt>
      <trkpt lat="38.805143" lon="-2.326178">
        <ele>938.858707</ele>
        <time>2020-08-06T06:59:32.107Z</time>
      </trkpt>
      <trkpt lat="38.805042" lon="-2.326275">
        <ele>939.724970</ele>
        <time>2020-08-06T06:59:35.096Z</time>
      </trkpt>
      <trkpt lat="38.804946" lon="-2.326378">
        <ele>940.349203</ele>
        <time>2020-08-06T06:59:38.093Z</time>
      </trkpt>
      <trkpt lat="38.804845" lon="-2.326474">
        <ele>940.368579</ele>
        <time>2020-08-06T06:59:41.102Z</time>
      </trkpt>
      <trkpt lat="38.804753" lon="-2.326566">
        <ele>940.386559</ele>
        <time>2020-08-06T06:59:44.097Z</time>
      </trkpt>
      <trkpt lat="38.802209" lon="-2.327799">
        <ele>942.728636</ele>
        <time>2020-08-06T07:00:48.094Z</time>
      </trkpt>
      <trkpt lat="38.802119" lon="-2.327867">
        <ele>942.912358</ele>
        <time>2020-08-06T07:00:52.092Z</time>
      </trkpt>
      <trkpt lat="38.802010" lon="-2.327915">
        <ele>943.115073</ele>
        <time>2020-08-06T07:00:55.087Z</time>
      </trkpt>
      <trkpt lat="38.801919" lon="-2.327953">
        <ele>943.283411</ele>
        <time>2020-08-06T07:00:57.104Z</time>
      </trkpt>
      <trkpt lat="38.801830" lon="-2.327991">
        <ele>943.448407</ele>
        <time>2020-08-06T07:00:59.108Z</time>
      </trkpt>
      <trkpt lat="38.801742" lon="-2.328033">
        <ele>943.613566</ele>
        <time>2020-08-06T07:01:01.095Z</time>
      </trkpt>
      <trkpt lat="38.801652" lon="-2.328075">
        <ele>943.782026</ele>
        <time>2020-08-06T07:01:03.093Z</time>
      </trkpt>
      <trkpt lat="38.801535" lon="-2.328154">
        <ele>944.168233</ele>
        <time>2020-08-06T07:01:06.092Z</time>
      </trkpt>
      <trkpt lat="38.801423" lon="-2.328243">
        <ele>944.555051</ele>
        <time>2020-08-06T07:01:09.101Z</time>
      </trkpt>
      <trkpt lat="38.801336" lon="-2.328284">
        <ele>944.827191</ele>
        <time>2020-08-06T07:01:11.097Z</time>
      </trkpt>
      <trkpt lat="38.801249" lon="-2.328325">
        <ele>945.099331</ele>
        <time>2020-08-06T07:01:13.104Z</time>
      </trkpt>
      <trkpt lat="38.801126" lon="-2.328394">
        <ele>945.493499</ele>
        <time>2020-08-06T07:01:16.092Z</time>
      </trkpt>
      <trkpt lat="38.801012" lon="-2.328478">
        <ele>945.879499</ele>
        <time>2020-08-06T07:01:19.102Z</time>
      </trkpt>
      <trkpt lat="38.800902" lon="-2.328569">
        <ele>946.263798</ele>
        <time>2020-08-06T07:01:22.098Z</time>
      </trkpt>
      <trkpt lat="38.800792" lon="-2.328659">
        <ele>946.646862</ele>
        <time>2020-08-06T07:01:25.094Z</time>
      </trkpt>
      <trkpt lat="38.800685" lon="-2.328755">
        <ele>947.030228</ele>
        <time>2020-08-06T07:01:28.104Z</time>
      </trkpt>
      <trkpt lat="38.800580" lon="-2.328851">
        <ele>947.408796</ele>
        <time>2020-08-06T07:01:31.093Z</time>
      </trkpt>
      <trkpt lat="38.800482" lon="-2.328958">
        <ele>947.786626</ele>
        <time>2020-08-06T07:01:34.091Z</time>
      </trkpt>
      <trkpt lat="38.800392" lon="-2.329079">
        <ele>948.169384</ele>
        <time>2020-08-06T07:01:37.092Z</time>
      </trkpt>
      <trkpt lat="38.800301" lon="-2.329199">
        <ele>948.552532</ele>
        <time>2020-08-06T07:01:40.102Z</time>
      </trkpt>
      <trkpt lat="38.800216" lon="-2.329317">
        <ele>948.920234</ele>
        <time>2020-08-06T07:01:43.094Z</time>
      </trkpt>
      <trkpt lat="38.800129" lon="-2.329433">
        <ele>949.042968</ele>
        <time>2020-08-06T07:01:46.112Z</time>
      </trkpt>
      <trkpt lat="38.800047" lon="-2.329551">
        <ele>949.004951</ele>
        <time>2020-08-06T07:01:49.107Z</time>
      </trkpt>
      <trkpt lat="38.799969" lon="-2.329674">
        <ele>948.966820</ele>
        <time>2020-08-06T07:01:52.103Z</time>
      </trkpt>
      <trkpt lat="38.799896" lon="-2.329802">
        <ele>948.928680</ele>
        <time>2020-08-06T07:01:55.102Z</time>
      </trkpt>
      <trkpt lat="38.799818" lon="-2.329929">
        <ele>948.889798</ele>
        <time>2020-08-06T07:01:58.094Z</time>
      </trkpt>
      <trkpt lat="38.799751" lon="-2.330061">
        <ele>948.851918</ele>
        <time>2020-08-06T07:02:01.096Z</time>
      </trkpt>
      <trkpt lat="38.799697" lon="-2.330194">
        <ele>948.815857</ele>
        <time>2020-08-06T07:02:04.097Z</time>
      </trkpt>
      <trkpt lat="38.799650" lon="-2.330339">
        <ele>948.778094</ele>
        <time>2020-08-06T07:02:07.093Z</time>
      </trkpt>
      <trkpt lat="38.799590" lon="-2.330476">
        <ele>948.740305</ele>
        <time>2020-08-06T07:02:10.094Z</time>
      </trkpt>
      <trkpt lat="38.799540" lon="-2.330620">
        <ele>948.702397</ele>
        <time>2020-08-06T07:02:13.095Z</time>
      </trkpt>
      <trkpt lat="38.799495" lon="-2.330776">
        <ele>948.662397</ele>
        <time>2020-08-06T07:02:16.101Z</time>
      </trkpt>
      <trkpt lat="38.799436" lon="-2.330925">
        <ele>948.622209</ele>
        <time>2020-08-06T07:02:19.107Z</time>
      </trkpt>
      <trkpt lat="38.799385" lon="-2.331078">
        <ele>948.582194</ele>
        <time>2020-08-06T07:02:22.096Z</time>
      </trkpt>
      <trkpt lat="38.799346" lon="-2.331237">
        <ele>948.542111</ele>
        <time>2020-08-06T07:02:25.102Z</time>
      </trkpt>
      <trkpt lat="38.799305" lon="-2.331399">
        <ele>948.455717</ele>
        <time>2020-08-06T07:02:28.103Z</time>
      </trkpt>
      <trkpt lat="38.799241" lon="-2.331544">
        <ele>948.237310</ele>
        <time>2020-08-06T07:02:31.104Z</time>
      </trkpt>
      <trkpt lat="38.799179" lon="-2.331687">
        <ele>948.022835</ele>
        <time>2020-08-06T07:02:34.116Z</time>
      </trkpt>
      <trkpt lat="38.799128" lon="-2.331833">
        <ele>947.813136</ele>
        <time>2020-08-06T07:02:37.101Z</time>
      </trkpt>
      <trkpt lat="38.799080" lon="-2.331983">
        <ele>947.600609</ele>
        <time>2020-08-06T07:02:40.084Z</time>
      </trkpt>
      <trkpt lat="38.799028" lon="-2.332138">
        <ele>947.379434</ele>
        <time>2020-08-06T07:02:43.106Z</time>
      </trkpt>
      <trkpt lat="38.798974" lon="-2.332284">
        <ele>947.167621</ele>
        <time>2020-08-06T07:02:46.118Z</time>
      </trkpt>
      <trkpt lat="38.798917" lon="-2.332429">
        <ele>946.954768</ele>
        <time>2020-08-06T07:02:49.107Z</time>
      </trkpt>
      <trkpt lat="38.798859" lon="-2.332573">
        <ele>946.742317</ele>
        <time>2020-08-06T07:02:52.087Z</time>
      </trkpt>
      <trkpt lat="38.798802" lon="-2.332718">
        <ele>946.529463</ele>
        <time>2020-08-06T07:02:55.108Z</time>
      </trkpt>
      <trkpt lat="38.798751" lon="-2.332872">
        <ele>946.310153</ele>
        <time>2020-08-06T07:02:58.105Z</time>
      </trkpt>
      <trkpt lat="38.798703" lon="-2.333026">
        <ele>946.092767</ele>
        <time>2020-08-06T07:03:01.105Z</time>
      </trkpt>
      <trkpt lat="38.798656" lon="-2.333175">
        <ele>945.882088</ele>
        <time>2020-08-06T07:03:04.111Z</time>
      </trkpt>
      <trkpt lat="38.798603" lon="-2.333322">
        <ele>945.669801</ele>
        <time>2020-08-06T07:03:07.113Z</time>
      </trkpt>
      <trkpt lat="38.798547" lon="-2.333470">
        <ele>945.507073</ele>
        <time>2020-08-06T07:03:10.110Z</time>
      </trkpt>
      <trkpt lat="38.798490" lon="-2.333621">
        <ele>945.646887</ele>
        <time>2020-08-06T07:03:13.110Z</time>
      </trkpt>
      <trkpt lat="38.798437" lon="-2.333776">
        <ele>945.787937</ele>
        <time>2020-08-06T07:03:16.096Z</time>
      </trkpt>
      <trkpt lat="38.798383" lon="-2.333935">
        <ele>945.932470</ele>
        <time>2020-08-06T07:03:19.108Z</time>
      </trkpt>
      <trkpt lat="38.798355" lon="-2.334045">
        <ele>946.028901</ele>
        <time>2020-08-06T07:03:21.103Z</time>
      </trkpt>
      <trkpt lat="38.798296" lon="-2.334194">
        <ele>946.168174</ele>
        <time>2020-08-06T07:03:24.103Z</time>
      </trkpt>
      <trkpt lat="38.798256" lon="-2.334356">
        <ele>946.309786</ele>
        <time>2020-08-06T07:03:27.102Z</time>
      </trkpt>
      <trkpt lat="38.798224" lon="-2.334468">
        <ele>946.409192</ele>
        <time>2020-08-06T07:03:29.107Z</time>
      </trkpt>
      <trkpt lat="38.798190" lon="-2.334579">
        <ele>946.508579</ele>
        <time>2020-08-06T07:03:31.107Z</time>
      </trkpt>
      <trkpt lat="38.798150" lon="-2.334688">
        <ele>946.608977</ele>
        <time>2020-08-06T07:03:33.110Z</time>
      </trkpt>
      <trkpt lat="38.798109" lon="-2.334795">
        <ele>946.708338</ele>
        <time>2020-08-06T07:03:35.098Z</time>
      </trkpt>
      <trkpt lat="38.798067" lon="-2.334910">
        <ele>946.814171</ele>
        <time>2020-08-06T07:03:37.099Z</time>
      </trkpt>
      <trkpt lat="38.798038" lon="-2.335024">
        <ele>946.914103</ele>
        <time>2020-08-06T07:03:39.095Z</time>
      </trkpt>
      <trkpt lat="38.798002" lon="-2.335131">
        <ele>947.011223</ele>
        <time>2020-08-06T07:03:41.089Z</time>
      </trkpt>
      <trkpt lat="38.797972" lon="-2.335253">
        <ele>947.117830</ele>
        <time>2020-08-06T07:03:43.097Z</time>
      </trkpt>
      <trkpt lat="38.797947" lon="-2.335371">
        <ele>947.219731</ele>
        <time>2020-08-06T07:03:45.111Z</time>
      </trkpt>
      <trkpt lat="38.797930" lon="-2.335487">
        <ele>947.318091</ele>
        <time>2020-08-06T07:03:47.095Z</time>
      </trkpt>
      <trkpt lat="38.797907" lon="-2.335605">
        <ele>947.424802</ele>
        <time>2020-08-06T07:03:49.104Z</time>
      </trkpt>
      <trkpt lat="38.797886" lon="-2.335724">
        <ele>947.582272</ele>
        <time>2020-08-06T07:03:51.098Z</time>
      </trkpt>
      <trkpt lat="38.797861" lon="-2.335853">
        <ele>947.753830</ele>
        <time>2020-08-06T07:03:53.093Z</time>
      </trkpt>
      <trkpt lat="38.797844" lon="-2.335975">
        <ele>947.913780</ele>
        <time>2020-08-06T07:03:55.097Z</time>
      </trkpt>
      <trkpt lat="38.797842" lon="-2.336100">
        <ele>948.075140</ele>
        <time>2020-08-06T07:03:57.104Z</time>
      </trkpt>
      <trkpt lat="38.797829" lon="-2.336215">
        <ele>948.225113</ele>
        <time>2020-08-06T07:03:59.099Z</time>
      </trkpt>
      <trkpt lat="38.797823" lon="-2.336332">
        <ele>948.376440</ele>
        <time>2020-08-06T07:04:01.097Z</time>
      </trkpt>
      <trkpt lat="38.797834" lon="-2.336494">
        <ele>948.586310</ele>
        <time>2020-08-06T07:04:04.108Z</time>
      </trkpt>
      <trkpt lat="38.797838" lon="-2.336666">
        <ele>948.808393</ele>
        <time>2020-08-06T07:04:07.098Z</time>
      </trkpt>
      <trkpt lat="38.797834" lon="-2.336819">
        <ele>949.005967</ele>
        <time>2020-08-06T07:04:10.094Z</time>
      </trkpt>
      <trkpt lat="38.797838" lon="-2.336938">
        <ele>949.159692</ele>
        <time>2020-08-06T07:04:12.108Z</time>
      </trkpt>
      <trkpt lat="38.797843" lon="-2.337053">
        <ele>949.308342</ele>
        <time>2020-08-06T07:04:14.086Z</time>
      </trkpt>
      <trkpt lat="38.797852" lon="-2.337219">
        <ele>949.523101</ele>
        <time>2020-08-06T07:04:17.096Z</time>
      </trkpt>
      <trkpt lat="38.797872" lon="-2.337377">
        <ele>949.729688</ele>
        <time>2020-08-06T07:04:20.102Z</time>
      </trkpt>
      <trkpt lat="38.797886" lon="-2.337538">
        <ele>949.938765</ele>
        <time>2020-08-06T07:04:23.102Z</time>
      </trkpt>
      <trkpt lat="38.797891" lon="-2.337702">
        <ele>950.150586</ele>
        <time>2020-08-06T07:04:26.101Z</time>
      </trkpt>
      <trkpt lat="38.797900" lon="-2.337867">
        <ele>950.364057</ele>
        <time>2020-08-06T07:04:29.094Z</time>
      </trkpt>
      <trkpt lat="38.797916" lon="-2.338039">
        <ele>950.667887</ele>
        <time>2020-08-06T07:04:32.104Z</time>
      </trkpt>
      <trkpt lat="38.797928" lon="-2.338157">
        <ele>950.883295</ele>
        <time>2020-08-06T07:04:34.097Z</time>
      </trkpt>
      <trkpt lat="38.797937" lon="-2.338319">
        <ele>951.177284</ele>
        <time>2020-08-06T07:04:37.096Z</time>
      </trkpt>
      <trkpt lat="38.797954" lon="-2.338475">
        <ele>951.462415</ele>
        <time>2020-08-06T07:04:40.092Z</time>
      </trkpt>
      <trkpt lat="38.797972" lon="-2.338616">
        <ele>951.721048</ele>
        <time>2020-08-06T07:04:43.099Z</time>
      </trkpt>
      <trkpt lat="38.797976" lon="-2.338754">
        <ele>951.971022</ele>
        <time>2020-08-06T07:04:46.097Z</time>
      </trkpt>
      <trkpt lat="38.797978" lon="-2.338882">
        <ele>952.202768</ele>
        <time>2020-08-06T07:04:49.105Z</time>
      </trkpt>
      <trkpt lat="38.797988" lon="-2.339011">
        <ele>952.437430</ele>
        <time>2020-08-06T07:04:52.098Z</time>
      </trkpt>
      <trkpt lat="38.798002" lon="-2.339155">
        <ele>952.700112</ele>
        <time>2020-08-06T07:04:55.096Z</time>
      </trkpt>
      <trkpt lat="38.798010" lon="-2.339291">
        <ele>952.946993</ele>
        <time>2020-08-06T07:04:58.107Z</time>
      </trkpt>
      <trkpt lat="38.798018" lon="-2.339435">
        <ele>953.208316</ele>
        <time>2020-08-06T07:05:01.102Z</time>
      </trkpt>
      <trkpt lat="38.798030" lon="-2.339582">
        <ele>953.475864</ele>
        <time>2020-08-06T07:05:04.101Z</time>
      </trkpt>
      <trkpt lat="38.798111" lon="-2.341750">
        <ele>957.585323</ele>
        <time>2020-08-06T07:05:52.094Z</time>
      </trkpt>
      <trkpt lat="38.798141" lon="-2.341893">
        <ele>957.870436</ele>
        <time>2020-08-06T07:05:54.104Z</time>
      </trkpt>
      <trkpt lat="38.798163" lon="-2.342008">
        <ele>958.098414</ele>
        <time>2020-08-06T07:05:56.091Z</time>
      </trkpt>
      <trkpt lat="38.798182" lon="-2.342130">
        <ele>958.337940</ele>
        <time>2020-08-06T07:05:58.090Z</time>
      </trkpt>
      <trkpt lat="38.798197" lon="-2.342244">
        <ele>958.560526</ele>
        <time>2020-08-06T07:06:00.082Z</time>
      </trkpt>
      <trkpt lat="38.798201" lon="-2.342407">
        <ele>958.874499</ele>
        <time>2020-08-06T07:06:03.092Z</time>
      </trkpt>
      <trkpt lat="38.798204" lon="-2.342560">
        <ele>958.968970</ele>
        <time>2020-08-06T07:06:06.092Z</time>
      </trkpt>
      <trkpt lat="38.798209" lon="-2.342717">
        <ele>958.893365</ele>
        <time>2020-08-06T07:06:09.094Z</time>
      </trkpt>
      <trkpt lat="38.798223" lon="-2.342871">
        <ele>958.818764</ele>
        <time>2020-08-06T07:06:12.101Z</time>
      </trkpt>
      <trkpt lat="38.798226" lon="-2.343025">
        <ele>958.744642</ele>
        <time>2020-08-06T07:06:15.091Z</time>
      </trkpt>
      <trkpt lat="38.798235" lon="-2.343180">
        <ele>958.669856</ele>
        <time>2020-08-06T07:06:18.096Z</time>
      </trkpt>
      <trkpt lat="38.798252" lon="-2.343339">
        <ele>958.592635</ele>
        <time>2020-08-06T07:06:21.098Z</time>
      </trkpt>
      <trkpt lat="38.798269" lon="-2.343501">
        <ele>958.513984</ele>
        <time>2020-08-06T07:06:24.093Z</time>
      </trkpt>
      <trkpt lat="38.798284" lon="-2.343663">
        <ele>958.435488</ele>
        <time>2020-08-06T07:06:27.098Z</time>
      </trkpt>
      <trkpt lat="38.798295" lon="-2.343823">
        <ele>958.358203</ele>
        <time>2020-08-06T07:06:30.094Z</time>
      </trkpt>
      <trkpt lat="38.798305" lon="-2.343987">
        <ele>958.279052</ele>
        <time>2020-08-06T07:06:33.093Z</time>
      </trkpt>
      <trkpt lat="38.798318" lon="-2.344150">
        <ele>958.200214</ele>
        <time>2020-08-06T07:06:36.083Z</time>
      </trkpt>
      <trkpt lat="38.798331" lon="-2.344306">
        <ele>958.124725</ele>
        <time>2020-08-06T07:06:39.104Z</time>
      </trkpt>
      <trkpt lat="38.798350" lon="-2.344462">
        <ele>958.048753</ele>
        <time>2020-08-06T07:06:42.104Z</time>
      </trkpt>
      <trkpt lat="38.798378" lon="-2.344621">
        <ele>957.970320</ele>
        <time>2020-08-06T07:06:45.097Z</time>
      </trkpt>
      <trkpt lat="38.798404" lon="-2.344779">
        <ele>957.881774</ele>
        <time>2020-08-06T07:06:48.094Z</time>
      </trkpt>
      <trkpt lat="38.798431" lon="-2.344938">
        <ele>957.660260</ele>
        <time>2020-08-06T07:06:51.100Z</time>
      </trkpt>
      <trkpt lat="38.798468" lon="-2.345103">
        <ele>957.426545</ele>
        <time>2020-08-06T07:06:54.095Z</time>
      </trkpt>
      <trkpt lat="38.798506" lon="-2.345261">
        <ele>957.201462</ele>
        <time>2020-08-06T07:06:57.100Z</time>
      </trkpt>
      <trkpt lat="38.798531" lon="-2.345429">
        <ele>956.968644</ele>
        <time>2020-08-06T07:07:00.085Z</time>
      </trkpt>
      <trkpt lat="38.798555" lon="-2.345543">
        <ele>956.807902</ele>
        <time>2020-08-06T07:07:02.099Z</time>
      </trkpt>
      <trkpt lat="38.798579" lon="-2.345658">
        <ele>956.645845</ele>
        <time>2020-08-06T07:07:04.092Z</time>
      </trkpt>
      <trkpt lat="38.798620" lon="-2.345819">
        <ele>956.415285</ele>
        <time>2020-08-06T07:07:07.096Z</time>
      </trkpt>
      <trkpt lat="38.798665" lon="-2.345969">
        <ele>956.196495</ele>
        <time>2020-08-06T07:07:10.104Z</time>
      </trkpt>
      <trkpt lat="38.798711" lon="-2.346125">
        <ele>955.969453</ele>
        <time>2020-08-06T07:07:13.089Z</time>
      </trkpt>
      <trkpt lat="38.798763" lon="-2.346280">
        <ele>955.739745</ele>
        <time>2020-08-06T07:07:16.093Z</time>
      </trkpt>
      <trkpt lat="38.798822" lon="-2.346420">
        <ele>955.523096</ele>
        <time>2020-08-06T07:07:19.104Z</time>
      </trkpt>
      <trkpt lat="38.798889" lon="-2.346558">
        <ele>955.301778</ele>
        <time>2020-08-06T07:07:22.102Z</time>
      </trkpt>
      <trkpt lat="38.798956" lon="-2.346701">
        <ele>955.074655</ele>
        <time>2020-08-06T07:07:25.102Z</time>
      </trkpt>
      <trkpt lat="38.799009" lon="-2.346850">
        <ele>954.851706</ele>
        <time>2020-08-06T07:07:28.101Z</time>
      </trkpt>
      <trkpt lat="38.799052" lon="-2.347006">
        <ele>954.794710</ele>
        <time>2020-08-06T07:07:31.097Z</time>
      </trkpt>
      <trkpt lat="38.799075" lon="-2.347166">
        <ele>954.858651</ele>
        <time>2020-08-06T07:07:34.096Z</time>
      </trkpt>
      <trkpt lat="38.799059" lon="-2.347332">
        <ele>954.924386</ele>
        <time>2020-08-06T07:07:37.093Z</time>
      </trkpt>
      <trkpt lat="38.799061" lon="-2.347508">
        <ele>954.993561</ele>
        <time>2020-08-06T07:07:40.100Z</time>
      </trkpt>
      <trkpt lat="38.799078" lon="-2.347677">
        <ele>955.060529</ele>
        <time>2020-08-06T07:07:43.101Z</time>
      </trkpt>
      <trkpt lat="38.799085" lon="-2.347794">
        <ele>955.106645</ele>
        <time>2020-08-06T07:07:45.094Z</time>
      </trkpt>
      <trkpt lat="38.799079" lon="-2.347916">
        <ele>955.154686</ele>
        <time>2020-08-06T07:07:47.092Z</time>
      </trkpt>
      <trkpt lat="38.799099" lon="-2.348083">
        <ele>955.221087</ele>
        <time>2020-08-06T07:07:50.095Z</time>
      </trkpt>
      <trkpt lat="38.799108" lon="-2.348253">
        <ele>955.288051</ele>
        <time>2020-08-06T07:07:53.094Z</time>
      </trkpt>
      <trkpt lat="38.799118" lon="-2.348368">
        <ele>955.333527</ele>
        <time>2020-08-06T07:07:55.099Z</time>
      </trkpt>
      <trkpt lat="38.799121" lon="-2.348492">
        <ele>955.382282</ele>
        <time>2020-08-06T07:07:57.097Z</time>
      </trkpt>
      <trkpt lat="38.799135" lon="-2.348659">
        <ele>955.448291</ele>
        <time>2020-08-06T07:08:00.087Z</time>
      </trkpt>
      <trkpt lat="38.799155" lon="-2.348816">
        <ele>955.510811</ele>
        <time>2020-08-06T07:08:03.097Z</time>
      </trkpt>
      <trkpt lat="38.799159" lon="-2.348986">
        <ele>955.577651</ele>
        <time>2020-08-06T07:08:06.091Z</time>
      </trkpt>
      <trkpt lat="38.799168" lon="-2.349157">
        <ele>955.645007</ele>
        <time>2020-08-06T07:08:09.098Z</time>
      </trkpt>
      <trkpt lat="38.799181" lon="-2.349323">
        <ele>955.686928</ele>
        <time>2020-08-06T07:08:12.103Z</time>
      </trkpt>
      <trkpt lat="38.799196" lon="-2.349486">
        <ele>955.718672</ele>
        <time>2020-08-06T07:08:15.109Z</time>
      </trkpt>
      <trkpt lat="38.799217" lon="-2.349644">
        <ele>955.749672</ele>
        <time>2020-08-06T07:08:18.096Z</time>
      </trkpt>
      <trkpt lat="38.799229" lon="-2.349807">
        <ele>955.781338</ele>
        <time>2020-08-06T07:08:21.094Z</time>
      </trkpt>
      <trkpt lat="38.799229" lon="-2.349975">
        <ele>955.813830</ele>
        <time>2020-08-06T07:08:24.105Z</time>
      </trkpt>
      <trkpt lat="38.799222" lon="-2.350139">
        <ele>955.845597</ele>
        <time>2020-08-06T07:08:27.092Z</time>
      </trkpt>
      <trkpt lat="38.799206" lon="-2.350262">
        <ele>955.869715</ele>
        <time>2020-08-06T07:08:29.088Z</time>
      </trkpt>
      <trkpt lat="38.799198" lon="-2.350432">
        <ele>955.902654</ele>
        <time>2020-08-06T07:08:32.091Z</time>
      </trkpt>
      <trkpt lat="38.799188" lon="-2.350589">
        <ele>955.933121</ele>
        <time>2020-08-06T07:08:35.081Z</time>
      </trkpt>
      <trkpt lat="38.799172" lon="-2.350709">
        <ele>955.956667</ele>
        <time>2020-08-06T07:08:37.096Z</time>
      </trkpt>
      <trkpt lat="38.799156" lon="-2.350872">
        <ele>955.988442</ele>
        <time>2020-08-06T07:08:40.093Z</time>
      </trkpt>
      <trkpt lat="38.799146" lon="-2.350988">
        <ele>956.011014</ele>
        <time>2020-08-06T07:08:42.094Z</time>
      </trkpt>
      <trkpt lat="38.799133" lon="-2.351111">
        <ele>956.035021</ele>
        <time>2020-08-06T07:08:44.107Z</time>
      </trkpt>
      <trkpt lat="38.799119" lon="-2.351227">
        <ele>956.057724</ele>
        <time>2020-08-06T07:08:46.094Z</time>
      </trkpt>
      <trkpt lat="38.799094" lon="-2.351348">
        <ele>956.081934</ele>
        <time>2020-08-06T07:08:48.100Z</time>
      </trkpt>
      <trkpt lat="38.799066" lon="-2.351466">
        <ele>956.105791</ele>
        <time>2020-08-06T07:08:50.101Z</time>
      </trkpt>
      <trkpt lat="38.799028" lon="-2.351581">
        <ele>956.164633</ele>
        <time>2020-08-06T07:08:52.094Z</time>
      </trkpt>
      <trkpt lat="38.798993" lon="-2.351687">
        <ele>956.226356</ele>
        <time>2020-08-06T07:08:54.091Z</time>
      </trkpt>
      <trkpt lat="38.798962" lon="-2.351801">
        <ele>956.291091</ele>
        <time>2020-08-06T07:08:56.109Z</time>
      </trkpt>
      <trkpt lat="38.798910" lon="-2.351980">
        <ele>956.393514</ele>
        <time>2020-08-06T07:08:59.091Z</time>
      </trkpt>
      <trkpt lat="38.798876" lon="-2.352099">
        <ele>956.461469</ele>
        <time>2020-08-06T07:09:01.098Z</time>
      </trkpt>
      <trkpt lat="38.798830" lon="-2.352216">
        <ele>956.531730</ele>
        <time>2020-08-06T07:09:03.105Z</time>
      </trkpt>
      <trkpt lat="38.798786" lon="-2.352335">
        <ele>956.602349</ele>
        <time>2020-08-06T07:09:05.091Z</time>
      </trkpt>
      <trkpt lat="38.798741" lon="-2.352457">
        <ele>956.674717</ele>
        <time>2020-08-06T07:09:07.099Z</time>
      </trkpt>
      <trkpt lat="38.798696" lon="-2.352582">
        <ele>956.748541</ele>
        <time>2020-08-06T07:09:09.097Z</time>
      </trkpt>
      <trkpt lat="38.798660" lon="-2.352709">
        <ele>956.820997</ele>
        <time>2020-08-06T07:09:11.104Z</time>
      </trkpt>
      <trkpt lat="38.798625" lon="-2.352833">
        <ele>956.891707</ele>
        <time>2020-08-06T07:09:13.092Z</time>
      </trkpt>
      <trkpt lat="38.798580" lon="-2.352953">
        <ele>956.963107</ele>
        <time>2020-08-06T07:09:15.099Z</time>
      </trkpt>
      <trkpt lat="38.798533" lon="-2.353084">
        <ele>957.040429</ele>
        <time>2020-08-06T07:09:17.103Z</time>
      </trkpt>
      <trkpt lat="38.798490" lon="-2.353201">
        <ele>957.109785</ele>
        <time>2020-08-06T07:09:19.102Z</time>
      </trkpt>
      <trkpt lat="38.798437" lon="-2.353309">
        <ele>957.178214</ele>
        <time>2020-08-06T07:09:21.089Z</time>
      </trkpt>
      <trkpt lat="38.798413" lon="-2.353432">
        <ele>957.246197</ele>
        <time>2020-08-06T07:09:23.088Z</time>
      </trkpt>
      <trkpt lat="38.798361" lon="-2.353550">
        <ele>957.318877</ele>
        <time>2020-08-06T07:09:25.093Z</time>
      </trkpt>
      <trkpt lat="38.798334" lon="-2.353669">
        <ele>957.351275</ele>
        <time>2020-08-06T07:09:27.093Z</time>
      </trkpt>
      <trkpt lat="38.798287" lon="-2.353784">
        <ele>957.357785</ele>
        <time>2020-08-06T07:09:29.101Z</time>
      </trkpt>
      <trkpt lat="38.798237" lon="-2.353906">
        <ele>957.364694</ele>
        <time>2020-08-06T07:09:31.100Z</time>
      </trkpt>
      <trkpt lat="38.798196" lon="-2.354031">
        <ele>957.371493</ele>
        <time>2020-08-06T07:09:33.123Z</time>
      </trkpt>
      <trkpt lat="38.798156" lon="-2.354152">
        <ele>957.378081</ele>
        <time>2020-08-06T07:09:35.098Z</time>
      </trkpt>
      <trkpt lat="38.798128" lon="-2.354271">
        <ele>957.384313</ele>
        <time>2020-08-06T07:09:37.099Z</time>
      </trkpt>
      <trkpt lat="38.798088" lon="-2.354392">
        <ele>957.390901</ele>
        <time>2020-08-06T07:09:39.108Z</time>
      </trkpt>
      <trkpt lat="38.798052" lon="-2.354503">
        <ele>957.396928</ele>
        <time>2020-08-06T07:09:41.098Z</time>
      </trkpt>
      <trkpt lat="38.798014" lon="-2.354623">
        <ele>957.403421</ele>
        <time>2020-08-06T07:09:43.119Z</time>
      </trkpt>
      <trkpt lat="38.797981" lon="-2.354738">
        <ele>957.409564</ele>
        <time>2020-08-06T07:09:45.093Z</time>
      </trkpt>
      <trkpt lat="38.797933" lon="-2.354848">
        <ele>957.415884</ele>
        <time>2020-08-06T07:09:47.100Z</time>
      </trkpt>
      <trkpt lat="38.797890" lon="-2.354954">
        <ele>957.421874</ele>
        <time>2020-08-06T07:09:49.106Z</time>
      </trkpt>
      <trkpt lat="38.797863" lon="-2.355067">
        <ele>957.427799</ele>
        <time>2020-08-06T07:09:51.086Z</time>
      </trkpt>
      <trkpt lat="38.797820" lon="-2.355182">
        <ele>957.434193</ele>
        <time>2020-08-06T07:09:53.092Z</time>
      </trkpt>
      <trkpt lat="38.797789" lon="-2.355297">
        <ele>957.440293</ele>
        <time>2020-08-06T07:09:55.105Z</time>
      </trkpt>
      <trkpt lat="38.797739" lon="-2.355445">
        <ele>957.448379</ele>
        <time>2020-08-06T07:09:58.091Z</time>
      </trkpt>
      <trkpt lat="38.797691" lon="-2.355583">
        <ele>957.455954</ele>
        <time>2020-08-06T07:10:01.096Z</time>
      </trkpt>
      <trkpt lat="38.797642" lon="-2.355728">
        <ele>957.458365</ele>
        <time>2020-08-06T07:10:04.104Z</time>
      </trkpt>
      <trkpt lat="38.797586" lon="-2.355867">
        <ele>957.364412</ele>
        <time>2020-08-06T07:10:07.104Z</time>
      </trkpt>
      <trkpt lat="38.797540" lon="-2.356013">
        <ele>957.269855</ele>
        <time>2020-08-06T07:10:10.101Z</time>
      </trkpt>
      <trkpt lat="38.797491" lon="-2.356156">
        <ele>957.176060</ele>
        <time>2020-08-06T07:10:13.108Z</time>
      </trkpt>
      <trkpt lat="38.797439" lon="-2.356297">
        <ele>957.082398</ele>
        <time>2020-08-06T07:10:16.094Z</time>
      </trkpt>
      <trkpt lat="38.797389" lon="-2.356438">
        <ele>956.989384</ele>
        <time>2020-08-06T07:10:19.105Z</time>
      </trkpt>
      <trkpt lat="38.797346" lon="-2.356583">
        <ele>956.896230</ele>
        <time>2020-08-06T07:10:22.098Z</time>
      </trkpt>
      <trkpt lat="38.797300" lon="-2.356727">
        <ele>956.802786</ele>
        <time>2020-08-06T07:10:25.099Z</time>
      </trkpt>
      <trkpt lat="38.797251" lon="-2.356863">
        <ele>956.712822</ele>
        <time>2020-08-06T07:10:28.098Z</time>
      </trkpt>
      <trkpt lat="38.797202" lon="-2.356998">
        <ele>956.623403</ele>
        <time>2020-08-06T07:10:31.101Z</time>
      </trkpt>
      <trkpt lat="38.797165" lon="-2.357143">
        <ele>956.531791</ele>
        <time>2020-08-06T07:10:34.100Z</time>
      </trkpt>
      <trkpt lat="38.797117" lon="-2.357286">
        <ele>956.438302</ele>
        <time>2020-08-06T07:10:37.092Z</time>
      </trkpt>
      <trkpt lat="38.797071" lon="-2.357434">
        <ele>956.342631</ele>
        <time>2020-08-06T07:10:40.100Z</time>
      </trkpt>
      <trkpt lat="38.797030" lon="-2.357570">
        <ele>956.255074</ele>
        <time>2020-08-06T07:10:43.098Z</time>
      </trkpt>
      <trkpt lat="38.796985" lon="-2.357718">
        <ele>956.159685</ele>
        <time>2020-08-06T07:10:46.115Z</time>
      </trkpt>
      <trkpt lat="38.796941" lon="-2.357859">
        <ele>956.081067</ele>
        <time>2020-08-06T07:10:49.266Z</time>
      </trkpt>
      <trkpt lat="38.796896" lon="-2.357963">
        <ele>956.106772</ele>
        <time>2020-08-06T07:10:51.255Z</time>
      </trkpt>
      <trkpt lat="38.796836" lon="-2.358084">
        <ele>956.137762</ele>
        <time>2020-08-06T07:10:54.257Z</time>
      </trkpt>
      <trkpt lat="38.796803" lon="-2.358194">
        <ele>956.163232</ele>
        <time>2020-08-06T07:10:56.257Z</time>
      </trkpt>
      <trkpt lat="38.796751" lon="-2.358351">
        <ele>956.200095</ele>
        <time>2020-08-06T07:10:59.259Z</time>
      </trkpt>
      <trkpt lat="38.796710" lon="-2.358460">
        <ele>956.226249</ele>
        <time>2020-08-06T07:11:01.241Z</time>
      </trkpt>
      <trkpt lat="38.796657" lon="-2.358613">
        <ele>956.262429</ele>
        <time>2020-08-06T07:11:04.257Z</time>
      </trkpt>
      <trkpt lat="38.796615" lon="-2.358753">
        <ele>956.294846</ele>
        <time>2020-08-06T07:11:07.245Z</time>
      </trkpt>
      <trkpt lat="38.796564" lon="-2.358902">
        <ele>956.330012</ele>
        <time>2020-08-06T07:11:10.248Z</time>
      </trkpt>
      <trkpt lat="38.796511" lon="-2.359033">
        <ele>956.361907</ele>
        <time>2020-08-06T07:11:13.258Z</time>
      </trkpt>
      <trkpt lat="38.796460" lon="-2.359180">
        <ele>956.396678</ele>
        <time>2020-08-06T07:11:16.248Z</time>
      </trkpt>
      <trkpt lat="38.796414" lon="-2.359331">
        <ele>956.431711</ele>
        <time>2020-08-06T07:11:19.249Z</time>
      </trkpt>
      <trkpt lat="38.796365" lon="-2.359483">
        <ele>956.467256</ele>
        <time>2020-08-06T07:11:22.242Z</time>
      </trkpt>
      <trkpt lat="38.796320" lon="-2.359633">
        <ele>956.501989</ele>
        <time>2020-08-06T07:11:25.248Z</time>
      </trkpt>
      <trkpt lat="38.796272" lon="-2.359773">
        <ele>956.535040</ele>
        <time>2020-08-06T07:11:28.255Z</time>
      </trkpt>
      <trkpt lat="38.796228" lon="-2.359919">
        <ele>956.568866</ele>
        <time>2020-08-06T07:11:31.255Z</time>
      </trkpt>
      <trkpt lat="38.796189" lon="-2.360072">
        <ele>956.831811</ele>
        <time>2020-08-06T07:11:34.247Z</time>
      </trkpt>
      <trkpt lat="38.796149" lon="-2.360213">
        <ele>957.136059</ele>
        <time>2020-08-06T07:11:37.247Z</time>
      </trkpt>
      <trkpt lat="38.796106" lon="-2.360352">
        <ele>957.439292</ele>
        <time>2020-08-06T07:11:40.258Z</time>
      </trkpt>
      <trkpt lat="38.796067" lon="-2.360508">
        <ele>957.771480</ele>
        <time>2020-08-06T07:11:43.250Z</time>
      </trkpt>
      <trkpt lat="38.796029" lon="-2.360658">
        <ele>958.091291</ele>
        <time>2020-08-06T07:11:46.244Z</time>
      </trkpt>
      <trkpt lat="38.795993" lon="-2.360812">
        <ele>958.417292</ele>
        <time>2020-08-06T07:11:49.253Z</time>
      </trkpt>
      <trkpt lat="38.795964" lon="-2.360970">
        <ele>958.746425</ele>
        <time>2020-08-06T07:11:52.259Z</time>
      </trkpt>
      <trkpt lat="38.795934" lon="-2.361134">
        <ele>959.087996</ele>
        <time>2020-08-06T07:11:55.253Z</time>
      </trkpt>
      <trkpt lat="38.795906" lon="-2.361295">
        <ele>959.422477</ele>
        <time>2020-08-06T07:11:58.256Z</time>
      </trkpt>
      <trkpt lat="38.795878" lon="-2.361462">
        <ele>959.768841</ele>
        <time>2020-08-06T07:12:01.253Z</time>
      </trkpt>
      <trkpt lat="38.795850" lon="-2.361628">
        <ele>960.113224</ele>
        <time>2020-08-06T07:12:04.246Z</time>
      </trkpt>
      <trkpt lat="38.795825" lon="-2.361791">
        <ele>960.450071</ele>
        <time>2020-08-06T07:12:07.253Z</time>
      </trkpt>
      <trkpt lat="38.795798" lon="-2.361944">
        <ele>960.768155</ele>
        <time>2020-08-06T07:12:10.242Z</time>
      </trkpt>
      <trkpt lat="38.795771" lon="-2.362101">
        <ele>961.094155</ele>
        <time>2020-08-06T07:12:13.243Z</time>
      </trkpt>
      <trkpt lat="38.795738" lon="-2.362257">
        <ele>961.225633</ele>
        <time>2020-08-06T07:12:16.248Z</time>
      </trkpt>
      <trkpt lat="38.795708" lon="-2.362414">
        <ele>961.166087</ele>
        <time>2020-08-06T07:12:19.258Z</time>
      </trkpt>
      <trkpt lat="38.795678" lon="-2.362570">
        <ele>961.106899</ele>
        <time>2020-08-06T07:12:22.254Z</time>
      </trkpt>
      <trkpt lat="38.795649" lon="-2.362727">
        <ele>961.047464</ele>
        <time>2020-08-06T07:12:25.248Z</time>
      </trkpt>
      <trkpt lat="38.795620" lon="-2.362889">
        <ele>960.986236</ele>
        <time>2020-08-06T07:12:28.236Z</time>
      </trkpt>
      <trkpt lat="38.795597" lon="-2.363050">
        <ele>960.925941</ele>
        <time>2020-08-06T07:12:31.238Z</time>
      </trkpt>
      <trkpt lat="38.795572" lon="-2.363162">
        <ele>960.883026</ele>
        <time>2020-08-06T07:12:33.255Z</time>
      </trkpt>
      <trkpt lat="38.795551" lon="-2.363327">
        <ele>960.821441</ele>
        <time>2020-08-06T07:12:36.235Z</time>
      </trkpt>
      <trkpt lat="38.795520" lon="-2.363485">
        <ele>960.761424</ele>
        <time>2020-08-06T07:12:39.248Z</time>
      </trkpt>
      <trkpt lat="38.795496" lon="-2.363645">
        <ele>960.701404</ele>
        <time>2020-08-06T07:12:42.252Z</time>
      </trkpt>
      <trkpt lat="38.795474" lon="-2.363801">
        <ele>960.643006</ele>
        <time>2020-08-06T07:12:45.250Z</time>
      </trkpt>
      <trkpt lat="38.795455" lon="-2.363949">
        <ele>960.587753</ele>
        <time>2020-08-06T07:12:48.260Z</time>
      </trkpt>
      <trkpt lat="38.795432" lon="-2.364099">
        <ele>960.531440</ele>
        <time>2020-08-06T07:12:51.258Z</time>
      </trkpt>
      <trkpt lat="38.795402" lon="-2.364247">
        <ele>960.475108</ele>
        <time>2020-08-06T07:12:54.259Z</time>
      </trkpt>
      <trkpt lat="38.795373" lon="-2.364391">
        <ele>960.420322</ele>
        <time>2020-08-06T07:12:57.245Z</time>
      </trkpt>
      <trkpt lat="38.795348" lon="-2.364542">
        <ele>960.477125</ele>
        <time>2020-08-06T07:13:00.244Z</time>
      </trkpt>
      <trkpt lat="38.795318" lon="-2.364695">
        <ele>960.575345</ele>
        <time>2020-08-06T07:13:03.252Z</time>
      </trkpt>
      <trkpt lat="38.795287" lon="-2.364856">
        <ele>960.678590</ele>
        <time>2020-08-06T07:13:06.242Z</time>
      </trkpt>
      <trkpt lat="38.795257" lon="-2.365015">
        <ele>960.780437</ele>
        <time>2020-08-06T07:13:09.247Z</time>
      </trkpt>
      <trkpt lat="38.795222" lon="-2.365169">
        <ele>960.880304</ele>
        <time>2020-08-06T07:13:12.248Z</time>
      </trkpt>
      <trkpt lat="38.795191" lon="-2.365327">
        <ele>960.981738</ele>
        <time>2020-08-06T07:13:15.253Z</time>
      </trkpt>
      <trkpt lat="38.795159" lon="-2.365482">
        <ele>961.081563</ele>
        <time>2020-08-06T07:13:18.250Z</time>
      </trkpt>
      <trkpt lat="38.795123" lon="-2.365629">
        <ele>961.177491</ele>
        <time>2020-08-06T07:13:21.248Z</time>
      </trkpt>
      <trkpt lat="38.795089" lon="-2.365776">
        <ele>961.272952</ele>
        <time>2020-08-06T07:13:24.256Z</time>
      </trkpt>
      <trkpt lat="38.795064" lon="-2.365924">
        <ele>961.367230</ele>
        <time>2020-08-06T07:13:27.254Z</time>
      </trkpt>
      <trkpt lat="38.795037" lon="-2.366079">
        <ele>961.466108</ele>
        <time>2020-08-06T07:13:30.244Z</time>
      </trkpt>
      <trkpt lat="38.795001" lon="-2.366237">
        <ele>961.568590</ele>
        <time>2020-08-06T07:13:33.257Z</time>
      </trkpt>
      <trkpt lat="38.794972" lon="-2.366398">
        <ele>961.671465</ele>
        <time>2020-08-06T07:13:36.240Z</time>
      </trkpt>
      <trkpt lat="38.794954" lon="-2.366559">
        <ele>961.772724</ele>
        <time>2020-08-06T07:13:39.245Z</time>
      </trkpt>
      <trkpt lat="38.794931" lon="-2.366713">
        <ele>961.798496</ele>
        <time>2020-08-06T07:13:42.252Z</time>
      </trkpt>
      <trkpt lat="38.794905" lon="-2.366865">
        <ele>961.645997</ele>
        <time>2020-08-06T07:13:45.245Z</time>
      </trkpt>
      <trkpt lat="38.794884" lon="-2.367016">
        <ele>961.495687</ele>
        <time>2020-08-06T07:13:48.246Z</time>
      </trkpt>
      <trkpt lat="38.794865" lon="-2.367166">
        <ele>961.346764</ele>
        <time>2020-08-06T07:13:51.233Z</time>
      </trkpt>
      <trkpt lat="38.794840" lon="-2.367312">
        <ele>961.200278</ele>
        <time>2020-08-06T07:13:54.248Z</time>
      </trkpt>
      <trkpt lat="38.794815" lon="-2.367463">
        <ele>961.049003</ele>
        <time>2020-08-06T07:13:57.239Z</time>
      </trkpt>
      <trkpt lat="38.794793" lon="-2.367630">
        <ele>960.883028</ele>
        <time>2020-08-06T07:14:00.246Z</time>
      </trkpt>
      <trkpt lat="38.794769" lon="-2.367748">
        <ele>960.763521</ele>
        <time>2020-08-06T07:14:02.257Z</time>
      </trkpt>
      <trkpt lat="38.794731" lon="-2.367905">
        <ele>960.602419</ele>
        <time>2020-08-06T07:14:05.244Z</time>
      </trkpt>
      <trkpt lat="38.794703" lon="-2.368061">
        <ele>960.445544</ele>
        <time>2020-08-06T07:14:08.245Z</time>
      </trkpt>
      <trkpt lat="38.794673" lon="-2.368223">
        <ele>960.282371</ele>
        <time>2020-08-06T07:14:11.256Z</time>
      </trkpt>
      <trkpt lat="38.794639" lon="-2.368381">
        <ele>960.121744</ele>
        <time>2020-08-06T07:14:14.260Z</time>
      </trkpt>
      <trkpt lat="38.794607" lon="-2.368538">
        <ele>959.962716</ele>
        <time>2020-08-06T07:14:17.246Z</time>
      </trkpt>
      <trkpt lat="38.794578" lon="-2.368692">
        <ele>959.807460</ele>
        <time>2020-08-06T07:14:20.243Z</time>
      </trkpt>
      <trkpt lat="38.794550" lon="-2.368851">
        <ele>959.647718</ele>
        <time>2020-08-06T07:14:23.264Z</time>
      </trkpt>
      <trkpt lat="38.794521" lon="-2.369006">
        <ele>959.614010</ele>
        <time>2020-08-06T07:14:26.254Z</time>
      </trkpt>
      <trkpt lat="38.794492" lon="-2.369157">
        <ele>959.670369</ele>
        <time>2020-08-06T07:14:29.259Z</time>
      </trkpt>
      <trkpt lat="38.794461" lon="-2.369309">
        <ele>959.727309</ele>
        <time>2020-08-06T07:14:32.266Z</time>
      </trkpt>
      <trkpt lat="38.794432" lon="-2.369454">
        <ele>959.781559</ele>
        <time>2020-08-06T07:14:35.249Z</time>
      </trkpt>
      <trkpt lat="38.794403" lon="-2.369594">
        <ele>959.834057</ele>
        <time>2020-08-06T07:14:38.249Z</time>
      </trkpt>
      <trkpt lat="38.794364" lon="-2.369736">
        <ele>959.888619</ele>
        <time>2020-08-06T07:14:41.247Z</time>
      </trkpt>
      <trkpt lat="38.794328" lon="-2.369870">
        <ele>959.939985</ele>
        <time>2020-08-06T07:14:44.236Z</time>
      </trkpt>
      <trkpt lat="38.794279" lon="-2.370007">
        <ele>959.994612</ele>
        <time>2020-08-06T07:14:47.258Z</time>
      </trkpt>
      <trkpt lat="38.794219" lon="-2.370150">
        <ele>960.053468</ele>
        <time>2020-08-06T07:14:50.245Z</time>
      </trkpt>
      <trkpt lat="38.793815" lon="-2.371124">
        <ele>960.476877</ele>
        <time>2020-08-06T07:15:10.255Z</time>
      </trkpt>
      <trkpt lat="38.793720" lon="-2.371167">
        <ele>960.554316</ele>
        <time>2020-08-06T07:15:12.248Z</time>
      </trkpt>
      <trkpt lat="38.793639" lon="-2.371224">
        <ele>960.625333</ele>
        <time>2020-08-06T07:15:14.243Z</time>
      </trkpt>
      <trkpt lat="38.793562" lon="-2.371293">
        <ele>960.697533</ele>
        <time>2020-08-06T07:15:16.259Z</time>
      </trkpt>
      <trkpt lat="38.793485" lon="-2.371363">
        <ele>960.770076</ele>
        <time>2020-08-06T07:15:18.251Z</time>
      </trkpt>
      <trkpt lat="38.793392" lon="-2.371448">
        <ele>960.857852</ele>
        <time>2020-08-06T07:15:20.258Z</time>
      </trkpt>
      <trkpt lat="38.793290" lon="-2.371533">
        <ele>960.951349</ele>
        <time>2020-08-06T07:15:23.244Z</time>
      </trkpt>
      <trkpt lat="38.793226" lon="-2.371630">
        <ele>961.027494</ele>
        <time>2020-08-06T07:15:25.251Z</time>
      </trkpt>
      <trkpt lat="38.793148" lon="-2.371691">
        <ele>961.097715</ele>
        <time>2020-08-06T07:15:27.265Z</time>
      </trkpt>
      <trkpt lat="38.793051" lon="-2.371755">
        <ele>961.181563</ele>
        <time>2020-08-06T07:15:30.242Z</time>
      </trkpt>
      <trkpt lat="38.792958" lon="-2.371794">
        <ele>961.256776</ele>
        <time>2020-08-06T07:15:32.243Z</time>
      </trkpt>
      <trkpt lat="38.792848" lon="-2.371869">
        <ele>961.352534</ele>
        <time>2020-08-06T07:15:35.242Z</time>
      </trkpt>
      <trkpt lat="38.792763" lon="-2.371918">
        <ele>961.424167</ele>
        <time>2020-08-06T07:15:37.258Z</time>
      </trkpt>
      <trkpt lat="38.792652" lon="-2.371997">
        <ele>961.521744</ele>
        <time>2020-08-06T07:15:40.249Z</time>
      </trkpt>
      <trkpt lat="38.792546" lon="-2.372087">
        <ele>961.619456</ele>
        <time>2020-08-06T07:15:43.263Z</time>
      </trkpt>
      <trkpt lat="38.792443" lon="-2.372181">
        <ele>961.716622</ele>
        <time>2020-08-06T07:15:46.258Z</time>
      </trkpt>
      <trkpt lat="38.792335" lon="-2.372261">
        <ele>961.795140</ele>
        <time>2020-08-06T07:15:49.261Z</time>
      </trkpt>
      <trkpt lat="38.792226" lon="-2.372346">
        <ele>961.757906</ele>
        <time>2020-08-06T07:15:52.267Z</time>
      </trkpt>
      <trkpt lat="38.792116" lon="-2.372439">
        <ele>961.719452</ele>
        <time>2020-08-06T07:15:55.246Z</time>
      </trkpt>
      <trkpt lat="38.792011" lon="-2.372536">
        <ele>961.681683</ele>
        <time>2020-08-06T07:15:58.251Z</time>
      </trkpt>
      <trkpt lat="38.791897" lon="-2.372614">
        <ele>961.643969</ele>
        <time>2020-08-06T07:16:01.249Z</time>
      </trkpt>
      <trkpt lat="38.791783" lon="-2.372676">
        <ele>961.607825</ele>
        <time>2020-08-06T07:16:04.255Z</time>
      </trkpt>
      <trkpt lat="38.791680" lon="-2.372756">
        <ele>961.572678</ele>
        <time>2020-08-06T07:16:07.250Z</time>
      </trkpt>
      <trkpt lat="38.791579" lon="-2.372835">
        <ele>961.538149</ele>
        <time>2020-08-06T07:16:10.248Z</time>
      </trkpt>
      <trkpt lat="38.791472" lon="-2.372914">
        <ele>961.502112</ele>
        <time>2020-08-06T07:16:13.247Z</time>
      </trkpt>
      <trkpt lat="38.791359" lon="-2.372996">
        <ele>961.464216</ele>
        <time>2020-08-06T07:16:16.250Z</time>
      </trkpt>
      <trkpt lat="38.791256" lon="-2.373087">
        <ele>961.427710</ele>
        <time>2020-08-06T07:16:19.265Z</time>
      </trkpt>
      <trkpt lat="38.791155" lon="-2.373175">
        <ele>961.392072</ele>
        <time>2020-08-06T07:16:22.252Z</time>
      </trkpt>
      <trkpt lat="38.791059" lon="-2.373284">
        <ele>961.354651</ele>
        <time>2020-08-06T07:16:25.258Z</time>
      </trkpt>
      <trkpt lat="38.790985" lon="-2.373358">
        <ele>961.327263</ele>
        <time>2020-08-06T07:16:27.266Z</time>
      </trkpt>
      <trkpt lat="38.790924" lon="-2.373445">
        <ele>961.300638</ele>
        <time>2020-08-06T07:16:29.255Z</time>
      </trkpt>
      <trkpt lat="38.790825" lon="-2.373539">
        <ele>961.254654</ele>
        <time>2020-08-06T07:16:32.258Z</time>
      </trkpt>
      <trkpt lat="38.790740" lon="-2.373647">
        <ele>961.185359</ele>
        <time>2020-08-06T07:16:35.256Z</time>
      </trkpt>
      <trkpt lat="38.790674" lon="-2.373739">
        <ele>961.128907</ele>
        <time>2020-08-06T07:16:37.235Z</time>
      </trkpt>
      <trkpt lat="38.790595" lon="-2.373848">
        <ele>961.061707</ele>
        <time>2020-08-06T07:16:40.246Z</time>
      </trkpt>
      <trkpt lat="38.790513" lon="-2.373950">
        <ele>960.995549</ele>
        <time>2020-08-06T07:16:43.267Z</time>
      </trkpt>
      <trkpt lat="38.790438" lon="-2.374058">
        <ele>960.930242</ele>
        <time>2020-08-06T07:16:46.249Z</time>
      </trkpt>
      <trkpt lat="38.790357" lon="-2.374171">
        <ele>960.860929</ele>
        <time>2020-08-06T07:16:49.255Z</time>
      </trkpt>
      <trkpt lat="38.790277" lon="-2.374276">
        <ele>960.794636</ele>
        <time>2020-08-06T07:16:52.253Z</time>
      </trkpt>
      <trkpt lat="38.790201" lon="-2.374379">
        <ele>960.730601</ele>
        <time>2020-08-06T07:16:55.253Z</time>
      </trkpt>
      <trkpt lat="38.790124" lon="-2.374481">
        <ele>960.666490</ele>
        <time>2020-08-06T07:16:58.264Z</time>
      </trkpt>
      <trkpt lat="38.790048" lon="-2.374582">
        <ele>960.603107</ele>
        <time>2020-08-06T07:17:01.260Z</time>
      </trkpt>
      <trkpt lat="38.789972" lon="-2.374680">
        <ele>960.540691</ele>
        <time>2020-08-06T07:17:04.263Z</time>
      </trkpt>
      <trkpt lat="38.789893" lon="-2.374782">
        <ele>960.475769</ele>
        <time>2020-08-06T07:17:07.263Z</time>
      </trkpt>
      <trkpt lat="38.789811" lon="-2.374887">
        <ele>960.408661</ele>
        <time>2020-08-06T07:17:10.249Z</time>
      </trkpt>
      <trkpt lat="38.789723" lon="-2.374993">
        <ele>960.338742</ele>
        <time>2020-08-06T07:17:13.258Z</time>
      </trkpt>
      <trkpt lat="38.789652" lon="-2.375097">
        <ele>960.276322</ele>
        <time>2020-08-06T07:17:16.254Z</time>
      </trkpt>
      <trkpt lat="38.789585" lon="-2.375202">
        <ele>960.269961</ele>
        <time>2020-08-06T07:17:19.271Z</time>
      </trkpt>
      <trkpt lat="38.789510" lon="-2.375299">
        <ele>960.396822</ele>
        <time>2020-08-06T07:17:22.253Z</time>
      </trkpt>
      <trkpt lat="38.789433" lon="-2.375387">
        <ele>960.519661</ele>
        <time>2020-08-06T07:17:25.245Z</time>
      </trkpt>
      <trkpt lat="38.789356" lon="-2.375471">
        <ele>960.640062</ele>
        <time>2020-08-06T07:17:28.249Z</time>
      </trkpt>
      <trkpt lat="38.789277" lon="-2.375567">
        <ele>960.769681</ele>
        <time>2020-08-06T07:17:31.247Z</time>
      </trkpt>
      <trkpt lat="38.789197" lon="-2.375670">
        <ele>960.904692</ele>
        <time>2020-08-06T07:17:34.259Z</time>
      </trkpt>
      <trkpt lat="38.789106" lon="-2.375774">
        <ele>961.049866</ele>
        <time>2020-08-06T07:17:37.241Z</time>
      </trkpt>
      <trkpt lat="38.789017" lon="-2.375875">
        <ele>961.191409</ele>
        <time>2020-08-06T07:17:40.251Z</time>
      </trkpt>
      <trkpt lat="38.788929" lon="-2.375961">
        <ele>961.323185</ele>
        <time>2020-08-06T07:17:43.243Z</time>
      </trkpt>
      <trkpt lat="38.788828" lon="-2.376040">
        <ele>961.464096</ele>
        <time>2020-08-06T07:17:46.248Z</time>
      </trkpt>
      <trkpt lat="38.788729" lon="-2.376109">
        <ele>961.598306</ele>
        <time>2020-08-06T07:17:49.263Z</time>
      </trkpt>
      <trkpt lat="38.788617" lon="-2.376171">
        <ele>961.743612</ele>
        <time>2020-08-06T07:17:52.252Z</time>
      </trkpt>
      <trkpt lat="38.788512" lon="-2.376235">
        <ele>961.882089</ele>
        <time>2020-08-06T07:17:55.245Z</time>
      </trkpt>
      <trkpt lat="38.788402" lon="-2.376297">
        <ele>962.025212</ele>
        <time>2020-08-06T07:17:58.251Z</time>
      </trkpt>
      <trkpt lat="38.788306" lon="-2.376367">
        <ele>962.156749</ele>
        <time>2020-08-06T07:18:01.246Z</time>
      </trkpt>
      <trkpt lat="38.788209" lon="-2.376432">
        <ele>962.287110</ele>
        <time>2020-08-06T07:18:04.250Z</time>
      </trkpt>
      <trkpt lat="38.788107" lon="-2.376490">
        <ele>962.455529</ele>
        <time>2020-08-06T07:18:07.249Z</time>
      </trkpt>
      <trkpt lat="38.788001" lon="-2.376536">
        <ele>962.695413</ele>
        <time>2020-08-06T07:18:10.255Z</time>
      </trkpt>
      <trkpt lat="38.787893" lon="-2.376585">
        <ele>962.940988</ele>
        <time>2020-08-06T07:18:13.245Z</time>
      </trkpt>
      <trkpt lat="38.787788" lon="-2.376633">
        <ele>963.179943</ele>
        <time>2020-08-06T07:18:16.251Z</time>
      </trkpt>
      <trkpt lat="38.787688" lon="-2.376675">
        <ele>963.405512</ele>
        <time>2020-08-06T07:18:19.250Z</time>
      </trkpt>
      <trkpt lat="38.787589" lon="-2.376722">
        <ele>963.631807</ele>
        <time>2020-08-06T07:18:22.253Z</time>
      </trkpt>
      <trkpt lat="38.787488" lon="-2.376771">
        <ele>963.863289</ele>
        <time>2020-08-06T07:18:25.258Z</time>
      </trkpt>
      <trkpt lat="38.787389" lon="-2.376826">
        <ele>964.094564</ele>
        <time>2020-08-06T07:18:28.240Z</time>
      </trkpt>
      <trkpt lat="38.787288" lon="-2.376883">
        <ele>964.331104</ele>
        <time>2020-08-06T07:18:31.239Z</time>
      </trkpt>
      <trkpt lat="38.787185" lon="-2.376936">
        <ele>964.569008</ele>
        <time>2020-08-06T07:18:34.262Z</time>
      </trkpt>
      <trkpt lat="38.787082" lon="-2.376992">
        <ele>964.808823</ele>
        <time>2020-08-06T07:18:37.257Z</time>
      </trkpt>
      <trkpt lat="38.786983" lon="-2.377041">
        <ele>965.036299</ele>
        <time>2020-08-06T07:18:40.248Z</time>
      </trkpt>
      <trkpt lat="38.786884" lon="-2.377083">
        <ele>965.259832</ele>
        <time>2020-08-06T07:18:43.238Z</time>
      </trkpt>
      <trkpt lat="38.786789" lon="-2.377136">
        <ele>965.481910</ele>
        <time>2020-08-06T07:18:46.245Z</time>
      </trkpt>
      <trkpt lat="38.786690" lon="-2.377182">
        <ele>965.707631</ele>
        <time>2020-08-06T07:18:49.253Z</time>
      </trkpt>
      <trkpt lat="38.786597" lon="-2.377233">
        <ele>965.924449</ele>
        <time>2020-08-06T07:18:52.261Z</time>
      </trkpt>
      <trkpt lat="38.786508" lon="-2.377289">
        <ele>966.136954</ele>
        <time>2020-08-06T07:18:55.251Z</time>
      </trkpt>
      <trkpt lat="38.786413" lon="-2.377336">
        <ele>966.338071</ele>
        <time>2020-08-06T07:18:58.256Z</time>
      </trkpt>
      <trkpt lat="38.786317" lon="-2.377383">
        <ele>966.527823</ele>
        <time>2020-08-06T07:19:01.252Z</time>
      </trkpt>
      <trkpt lat="38.786223" lon="-2.377430">
        <ele>966.714130</ele>
        <time>2020-08-06T07:19:04.252Z</time>
      </trkpt>
      <trkpt lat="38.786134" lon="-2.377488">
        <ele>966.898474</ele>
        <time>2020-08-06T07:19:07.253Z</time>
      </trkpt>
      <trkpt lat="38.786040" lon="-2.377537">
        <ele>967.085845</ele>
        <time>2020-08-06T07:19:10.270Z</time>
      </trkpt>
      <trkpt lat="38.785945" lon="-2.377587">
        <ele>967.275470</ele>
        <time>2020-08-06T07:19:13.256Z</time>
      </trkpt>
      <trkpt lat="38.785857" lon="-2.377639">
        <ele>967.454389</ele>
        <time>2020-08-06T07:19:16.249Z</time>
      </trkpt>
      <trkpt lat="38.785768" lon="-2.377706">
        <ele>967.644951</ele>
        <time>2020-08-06T07:19:19.256Z</time>
      </trkpt>
      <trkpt lat="38.785674" lon="-2.377775">
        <ele>967.844947</ele>
        <time>2020-08-06T07:19:22.250Z</time>
      </trkpt>
      <trkpt lat="38.785581" lon="-2.377847">
        <ele>968.045538</ele>
        <time>2020-08-06T07:19:25.248Z</time>
      </trkpt>
      <trkpt lat="38.785490" lon="-2.377917">
        <ele>968.241481</ele>
        <time>2020-08-06T07:19:28.253Z</time>
      </trkpt>
      <trkpt lat="38.785397" lon="-2.377993">
        <ele>968.445107</ele>
        <time>2020-08-06T07:19:31.244Z</time>
      </trkpt>
      <trkpt lat="38.785297" lon="-2.378072">
        <ele>968.661981</ele>
        <time>2020-08-06T07:19:34.257Z</time>
      </trkpt>
      <trkpt lat="38.785202" lon="-2.378167">
        <ele>968.884419</ele>
        <time>2020-08-06T07:19:37.247Z</time>
      </trkpt>
      <trkpt lat="38.785122" lon="-2.378262">
        <ele>969.085730</ele>
        <time>2020-08-06T07:19:41.261Z</time>
      </trkpt>
      <trkpt lat="38.785059" lon="-2.378351">
        <ele>969.258787</ele>
        <time>2020-08-06T07:19:45.251Z</time>
      </trkpt>
      <trkpt lat="38.784995" lon="-2.378436">
        <ele>969.428903</ele>
        <time>2020-08-06T07:19:49.245Z</time>
      </trkpt>
      <trkpt lat="38.784925" lon="-2.378539">
        <ele>969.502987</ele>
        <time>2020-08-06T07:19:54.251Z</time>
      </trkpt>
      <trkpt lat="38.784864" lon="-2.378625">
        <ele>969.387948</ele>
        <time>2020-08-06T07:19:58.253Z</time>
      </trkpt>
      <trkpt lat="38.784787" lon="-2.378722">
        <ele>969.250975</ele>
        <time>2020-08-06T07:20:02.245Z</time>
      </trkpt>
      <trkpt lat="38.784713" lon="-2.378823">
        <ele>969.113835</ele>
        <time>2020-08-06T07:20:06.245Z</time>
      </trkpt>
      <trkpt lat="38.784641" lon="-2.378942">
        <ele>968.964795</ele>
        <time>2020-08-06T07:20:10.250Z</time>
      </trkpt>
      <trkpt lat="38.784566" lon="-2.379060">
        <ele>968.814158</ele>
        <time>2020-08-06T07:20:14.255Z</time>
      </trkpt>
      <trkpt lat="38.784511" lon="-2.379161">
        <ele>968.692261</ele>
        <time>2020-08-06T07:20:17.256Z</time>
      </trkpt>
      <trkpt lat="38.784460" lon="-2.379259">
        <ele>968.575680</ele>
        <time>2020-08-06T07:20:20.251Z</time>
      </trkpt>
      <trkpt lat="38.784407" lon="-2.379367">
        <ele>968.449415</ele>
        <time>2020-08-06T07:20:23.254Z</time>
      </trkpt>
      <trkpt lat="38.784361" lon="-2.379468">
        <ele>968.333680</ele>
        <time>2020-08-06T07:20:26.252Z</time>
      </trkpt>
      <trkpt lat="38.784311" lon="-2.379577">
        <ele>968.208550</ele>
        <time>2020-08-06T07:20:29.248Z</time>
      </trkpt>
      <trkpt lat="38.784258" lon="-2.379690">
        <ele>968.078072</ele>
        <time>2020-08-06T07:20:32.250Z</time>
      </trkpt>
      <trkpt lat="38.784215" lon="-2.379791">
        <ele>967.964211</ele>
        <time>2020-08-06T07:20:35.242Z</time>
      </trkpt>
      <trkpt lat="38.781245" lon="-2.386873">
        <ele>968.181921</ele>
        <time>2020-08-06T07:25:18.166Z</time>
      </trkpt>
      <trkpt lat="38.781193" lon="-2.386997">
        <ele>968.670696</ele>
        <time>2020-08-06T07:25:20.148Z</time>
      </trkpt>
      <trkpt lat="38.781146" lon="-2.387104">
        <ele>969.097034</ele>
        <time>2020-08-06T07:25:22.153Z</time>
      </trkpt>
      <trkpt lat="38.781076" lon="-2.387237">
        <ele>969.654097</ele>
        <time>2020-08-06T07:25:25.145Z</time>
      </trkpt>
      <trkpt lat="38.781012" lon="-2.387360">
        <ele>970.167446</ele>
        <time>2020-08-06T07:25:28.156Z</time>
      </trkpt>
      <trkpt lat="38.780947" lon="-2.387461">
        <ele>970.622092</ele>
        <time>2020-08-06T07:25:31.147Z</time>
      </trkpt>
      <trkpt lat="38.780892" lon="-2.387557">
        <ele>971.035660</ele>
        <time>2020-08-06T07:25:34.149Z</time>
      </trkpt>
      <trkpt lat="38.780832" lon="-2.387644">
        <ele>971.438889</ele>
        <time>2020-08-06T07:25:37.144Z</time>
      </trkpt>
      <trkpt lat="38.780748" lon="-2.387757">
        <ele>971.980909</ele>
        <time>2020-08-06T07:25:41.140Z</time>
      </trkpt>
      <trkpt lat="38.780681" lon="-2.387850">
        <ele>972.420496</ele>
        <time>2020-08-06T07:25:44.146Z</time>
      </trkpt>
      <trkpt lat="38.780613" lon="-2.387939">
        <ele>972.853095</ele>
        <time>2020-08-06T07:25:47.155Z</time>
      </trkpt>
      <trkpt lat="38.780539" lon="-2.388029">
        <ele>973.307180</ele>
        <time>2020-08-06T07:25:50.147Z</time>
      </trkpt>
      <trkpt lat="38.780463" lon="-2.388110">
        <ele>973.747176</ele>
        <time>2020-08-06T07:25:53.145Z</time>
      </trkpt>
      <trkpt lat="38.780385" lon="-2.388173">
        <ele>974.157627</ele>
        <time>2020-08-06T07:25:56.162Z</time>
      </trkpt>
      <trkpt lat="38.780302" lon="-2.388267">
        <ele>974.650660</ele>
        <time>2020-08-06T07:26:00.148Z</time>
      </trkpt>
      <trkpt lat="38.780221" lon="-2.388349">
        <ele>974.877886</ele>
        <time>2020-08-06T07:26:04.149Z</time>
      </trkpt>
      <trkpt lat="38.780126" lon="-2.388425">
        <ele>975.063745</ele>
        <time>2020-08-06T07:26:08.158Z</time>
      </trkpt>
      <trkpt lat="38.780024" lon="-2.388499">
        <ele>975.258274</ele>
        <time>2020-08-06T07:26:12.156Z</time>
      </trkpt>
      <trkpt lat="38.779926" lon="-2.388581">
        <ele>975.452508</ele>
        <time>2020-08-06T07:26:16.152Z</time>
      </trkpt>
      <trkpt lat="38.779821" lon="-2.388656">
        <ele>975.652013</ele>
        <time>2020-08-06T07:26:20.148Z</time>
      </trkpt>
      <trkpt lat="38.779715" lon="-2.388714">
        <ele>975.843317</ele>
        <time>2020-08-06T07:26:24.169Z</time>
      </trkpt>
      <trkpt lat="38.779634" lon="-2.388766">
        <ele>975.993680</ele>
        <time>2020-08-06T07:26:27.160Z</time>
      </trkpt>
      <trkpt lat="38.779538" lon="-2.388844">
        <ele>976.182322</ele>
        <time>2020-08-06T07:26:31.148Z</time>
      </trkpt>
      <trkpt lat="38.779433" lon="-2.388911">
        <ele>976.377001</ele>
        <time>2020-08-06T07:26:35.146Z</time>
      </trkpt>
      <trkpt lat="38.779347" lon="-2.388964">
        <ele>976.535387</ele>
        <time>2020-08-06T07:26:38.141Z</time>
      </trkpt>
      <trkpt lat="38.779254" lon="-2.389007">
        <ele>976.699493</ele>
        <time>2020-08-06T07:26:41.152Z</time>
      </trkpt>
      <trkpt lat="38.778561" lon="-2.389274">
        <ele>977.799533</ele>
        <time>2020-08-06T07:27:04.142Z</time>
      </trkpt>
      <trkpt lat="38.778475" lon="-2.389308">
        <ele>977.862585</ele>
        <time>2020-08-06T07:27:08.150Z</time>
      </trkpt>
      <trkpt lat="38.778395" lon="-2.389376">
        <ele>977.929826</ele>
        <time>2020-08-06T07:27:12.177Z</time>
      </trkpt>
      <trkpt lat="38.778316" lon="-2.389443">
        <ele>977.996182</ele>
        <time>2020-08-06T07:27:16.149Z</time>
      </trkpt>
      <trkpt lat="38.778231" lon="-2.389516">
        <ele>978.067853</ele>
        <time>2020-08-06T07:27:20.146Z</time>
      </trkpt>
      <trkpt lat="38.778134" lon="-2.389583">
        <ele>978.145042</ele>
        <time>2020-08-06T07:27:24.154Z</time>
      </trkpt>
      <trkpt lat="38.778035" lon="-2.389652">
        <ele>978.223984</ele>
        <time>2020-08-06T07:27:28.161Z</time>
      </trkpt>
      <trkpt lat="38.777948" lon="-2.389699">
        <ele>978.290126</ele>
        <time>2020-08-06T07:27:31.142Z</time>
      </trkpt>
      <trkpt lat="38.777855" lon="-2.389748">
        <ele>978.360569</ele>
        <time>2020-08-06T07:27:34.148Z</time>
      </trkpt>
      <trkpt lat="38.777766" lon="-2.389798">
        <ele>978.428645</ele>
        <time>2020-08-06T07:27:37.144Z</time>
      </trkpt>
      <trkpt lat="38.777676" lon="-2.389852">
        <ele>978.498261</ele>
        <time>2020-08-06T07:27:40.149Z</time>
      </trkpt>
      <trkpt lat="38.777581" lon="-2.389908">
        <ele>978.571514</ele>
        <time>2020-08-06T07:27:43.160Z</time>
      </trkpt>
      <trkpt lat="38.777489" lon="-2.389955">
        <ele>978.640898</ele>
        <time>2020-08-06T07:27:46.161Z</time>
      </trkpt>
      <trkpt lat="38.777404" lon="-2.390004">
        <ele>978.706191</ele>
        <time>2020-08-06T07:27:49.158Z</time>
      </trkpt>
      <trkpt lat="38.777309" lon="-2.390048">
        <ele>978.776959</ele>
        <time>2020-08-06T07:27:52.150Z</time>
      </trkpt>
      <trkpt lat="38.777218" lon="-2.390093">
        <ele>978.845291</ele>
        <time>2020-08-06T07:27:55.152Z</time>
      </trkpt>
      <trkpt lat="38.777128" lon="-2.390139">
        <ele>978.913171</ele>
        <time>2020-08-06T07:27:58.159Z</time>
      </trkpt>
      <trkpt lat="38.777036" lon="-2.390183">
        <ele>978.981966</ele>
        <time>2020-08-06T07:28:01.139Z</time>
      </trkpt>
      <trkpt lat="38.776942" lon="-2.390227">
        <ele>978.973073</ele>
        <time>2020-08-06T07:28:04.148Z</time>
      </trkpt>
      <trkpt lat="38.776847" lon="-2.390273">
        <ele>978.959301</ele>
        <time>2020-08-06T07:28:07.151Z</time>
      </trkpt>
      <trkpt lat="38.776751" lon="-2.390321">
        <ele>978.945326</ele>
        <time>2020-08-06T07:28:10.160Z</time>
      </trkpt>
      <trkpt lat="38.776652" lon="-2.390369">
        <ele>978.930971</ele>
        <time>2020-08-06T07:28:13.156Z</time>
      </trkpt>
      <trkpt lat="38.776554" lon="-2.390420">
        <ele>978.916627</ele>
        <time>2020-08-06T07:28:16.155Z</time>
      </trkpt>
      <trkpt lat="38.776462" lon="-2.390474">
        <ele>978.902904</ele>
        <time>2020-08-06T07:28:19.148Z</time>
      </trkpt>
      <trkpt lat="38.776374" lon="-2.390525">
        <ele>978.889807</ele>
        <time>2020-08-06T07:28:22.147Z</time>
      </trkpt>
      <trkpt lat="38.776292" lon="-2.390583">
        <ele>978.877106</ele>
        <time>2020-08-06T07:28:25.160Z</time>
      </trkpt>
      <trkpt lat="38.776211" lon="-2.390640">
        <ele>978.864576</ele>
        <time>2020-08-06T07:28:28.156Z</time>
      </trkpt>
      <trkpt lat="38.776131" lon="-2.390706">
        <ele>978.851675</ele>
        <time>2020-08-06T07:28:31.148Z</time>
      </trkpt>
      <trkpt lat="38.776050" lon="-2.390774">
        <ele>978.838545</ele>
        <time>2020-08-06T07:28:34.147Z</time>
      </trkpt>
      <trkpt lat="38.775970" lon="-2.390850">
        <ele>978.825042</ele>
        <time>2020-08-06T07:28:37.149Z</time>
      </trkpt>
      <trkpt lat="38.775881" lon="-2.390932">
        <ele>978.810180</ele>
        <time>2020-08-06T07:28:40.158Z</time>
      </trkpt>
      <trkpt lat="38.775797" lon="-2.391011">
        <ele>978.796052</ele>
        <time>2020-08-06T07:28:43.157Z</time>
      </trkpt>
      <trkpt lat="38.775710" lon="-2.391082">
        <ele>978.782067</ele>
        <time>2020-08-06T07:28:46.161Z</time>
      </trkpt>
      <trkpt lat="38.775635" lon="-2.391155">
        <ele>978.769297</ele>
        <time>2020-08-06T07:28:49.149Z</time>
      </trkpt>
      <trkpt lat="38.775560" lon="-2.391230">
        <ele>978.756399</ele>
        <time>2020-08-06T07:28:52.143Z</time>
      </trkpt>
      <trkpt lat="38.775488" lon="-2.391306">
        <ele>978.743752</ele>
        <time>2020-08-06T07:28:55.164Z</time>
      </trkpt>
      <trkpt lat="38.775415" lon="-2.391390">
        <ele>978.847863</ele>
        <time>2020-08-06T07:28:58.146Z</time>
      </trkpt>
      <trkpt lat="38.775344" lon="-2.391480">
        <ele>978.972766</ele>
        <time>2020-08-06T07:29:01.149Z</time>
      </trkpt>
      <trkpt lat="38.775276" lon="-2.391572">
        <ele>979.096437</ele>
        <time>2020-08-06T07:29:04.151Z</time>
      </trkpt>
      <trkpt lat="38.775213" lon="-2.391667">
        <ele>979.218103</ele>
        <time>2020-08-06T07:29:07.153Z</time>
      </trkpt>
      <trkpt lat="38.775158" lon="-2.391761">
        <ele>979.332754</ele>
        <time>2020-08-06T07:29:10.147Z</time>
      </trkpt>
      <trkpt lat="38.775090" lon="-2.391859">
        <ele>979.460735</ele>
        <time>2020-08-06T07:29:13.159Z</time>
      </trkpt>
      <trkpt lat="38.775022" lon="-2.391948">
        <ele>979.582299</ele>
        <time>2020-08-06T07:29:16.146Z</time>
      </trkpt>
      <trkpt lat="38.774958" lon="-2.392048">
        <ele>979.708511</ele>
        <time>2020-08-06T07:29:19.141Z</time>
      </trkpt>
      <trkpt lat="38.774912" lon="-2.392167">
        <ele>979.838084</ele>
        <time>2020-08-06T07:29:22.166Z</time>
      </trkpt>
      <trkpt lat="38.774853" lon="-2.392301">
        <ele>979.988209</ele>
        <time>2020-08-06T07:29:25.150Z</time>
      </trkpt>
      <trkpt lat="38.774785" lon="-2.392438">
        <ele>980.146643</ele>
        <time>2020-08-06T07:29:28.160Z</time>
      </trkpt>
      <trkpt lat="38.774721" lon="-2.392572">
        <ele>980.299942</ele>
        <time>2020-08-06T07:29:31.141Z</time>
      </trkpt>
      <trkpt lat="38.774668" lon="-2.392708">
        <ele>980.448265</ele>
        <time>2020-08-06T07:29:34.149Z</time>
      </trkpt>
      <trkpt lat="38.774630" lon="-2.392838">
        <ele>980.583703</ele>
        <time>2020-08-06T07:29:37.151Z</time>
      </trkpt>
      <trkpt lat="38.774586" lon="-2.392965">
        <ele>980.719277</ele>
        <time>2020-08-06T07:29:40.162Z</time>
      </trkpt>
      <trkpt lat="38.774544" lon="-2.393087">
        <ele>980.849377</ele>
        <time>2020-08-06T07:29:43.147Z</time>
      </trkpt>
      <trkpt lat="38.774507" lon="-2.393209">
        <ele>980.977079</ele>
        <time>2020-08-06T07:29:46.156Z</time>
      </trkpt>
      <trkpt lat="38.774479" lon="-2.393337">
        <ele>981.406739</ele>
        <time>2020-08-06T07:29:49.140Z</time>
      </trkpt>
      <trkpt lat="38.774448" lon="-2.393467">
        <ele>981.887638</ele>
        <time>2020-08-06T07:29:52.164Z</time>
      </trkpt>
      <trkpt lat="38.774420" lon="-2.393581">
        <ele>982.310447</ele>
        <time>2020-08-06T07:29:55.151Z</time>
      </trkpt>
      <trkpt lat="38.774400" lon="-2.393710">
        <ele>982.775715</ele>
        <time>2020-08-06T07:29:58.156Z</time>
      </trkpt>
      <trkpt lat="38.774382" lon="-2.393845">
        <ele>983.260205</ele>
        <time>2020-08-06T07:30:01.148Z</time>
      </trkpt>
      <trkpt lat="38.774368" lon="-2.393981">
        <ele>983.745475</ele>
        <time>2020-08-06T07:30:04.163Z</time>
      </trkpt>
      <trkpt lat="38.774357" lon="-2.394125">
        <ele>984.257308</ele>
        <time>2020-08-06T07:30:07.138Z</time>
      </trkpt>
      <trkpt lat="38.774347" lon="-2.394262">
        <ele>984.744059</ele>
        <time>2020-08-06T07:30:10.150Z</time>
      </trkpt>
      <trkpt lat="38.774333" lon="-2.394392">
        <ele>985.208295</ele>
        <time>2020-08-06T07:30:13.140Z</time>
      </trkpt>
      <trkpt lat="38.774321" lon="-2.394524">
        <ele>985.678404</ele>
        <time>2020-08-06T07:30:16.145Z</time>
      </trkpt>
      <trkpt lat="38.774314" lon="-2.394657">
        <ele>986.149956</ele>
        <time>2020-08-06T07:30:19.146Z</time>
      </trkpt>
      <trkpt lat="38.774314" lon="-2.394793">
        <ele>986.631051</ele>
        <time>2020-08-06T07:30:22.149Z</time>
      </trkpt>
      <trkpt lat="38.774309" lon="-2.394931">
        <ele>987.119747</ele>
        <time>2020-08-06T07:30:25.156Z</time>
      </trkpt>
      <trkpt lat="38.774300" lon="-2.395076">
        <ele>987.634302</ele>
        <time>2020-08-06T07:30:28.143Z</time>
      </trkpt>
      <trkpt lat="38.774295" lon="-2.395223">
        <ele>988.154803</ele>
        <time>2020-08-06T07:30:31.144Z</time>
      </trkpt>
      <trkpt lat="38.774289" lon="-2.395358">
        <ele>988.633135</ele>
        <time>2020-08-06T07:30:34.163Z</time>
      </trkpt>
      <trkpt lat="38.774280" lon="-2.395488">
        <ele>989.094815</ele>
        <time>2020-08-06T07:30:37.140Z</time>
      </trkpt>
      <trkpt lat="38.774275" lon="-2.395613">
        <ele>989.196639</ele>
        <time>2020-08-06T07:30:40.151Z</time>
      </trkpt>
      <trkpt lat="38.774266" lon="-2.395738">
        <ele>989.246260</ele>
        <time>2020-08-06T07:30:43.165Z</time>
      </trkpt>
      <trkpt lat="38.774263" lon="-2.395864">
        <ele>989.296089</ele>
        <time>2020-08-06T07:30:46.150Z</time>
      </trkpt>
      <trkpt lat="38.774262" lon="-2.395991">
        <ele>989.346293</ele>
        <time>2020-08-06T07:30:49.150Z</time>
      </trkpt>
      <trkpt lat="38.774260" lon="-2.396119">
        <ele>989.396900</ele>
        <time>2020-08-06T07:30:52.147Z</time>
      </trkpt>
      <trkpt lat="38.774255" lon="-2.396236">
        <ele>989.443218</ele>
        <time>2020-08-06T07:30:55.153Z</time>
      </trkpt>
      <trkpt lat="38.774244" lon="-2.396354">
        <ele>989.490195</ele>
        <time>2020-08-06T07:30:58.161Z</time>
      </trkpt>
      <trkpt lat="38.774234" lon="-2.396469">
        <ele>989.535935</ele>
        <time>2020-08-06T07:31:01.150Z</time>
      </trkpt>
      <trkpt lat="38.774226" lon="-2.396614">
        <ele>989.593395</ele>
        <time>2020-08-06T07:31:05.160Z</time>
      </trkpt>
      <trkpt lat="38.774216" lon="-2.396766">
        <ele>989.653692</ele>
        <time>2020-08-06T07:31:09.142Z</time>
      </trkpt>
      <trkpt lat="38.774201" lon="-2.396892">
        <ele>989.704076</ele>
        <time>2020-08-06T07:31:12.151Z</time>
      </trkpt>
      <trkpt lat="38.774185" lon="-2.397020">
        <ele>989.755319</ele>
        <time>2020-08-06T07:31:15.157Z</time>
      </trkpt>
      <trkpt lat="38.774175" lon="-2.397157">
        <ele>989.809710</ele>
        <time>2020-08-06T07:31:18.149Z</time>
      </trkpt>
      <trkpt lat="38.774155" lon="-2.397285">
        <ele>989.861313</ele>
        <time>2020-08-06T07:31:21.138Z</time>
      </trkpt>
      <trkpt lat="38.774133" lon="-2.397407">
        <ele>989.910811</ele>
        <time>2020-08-06T07:31:24.162Z</time>
      </trkpt>
      <trkpt lat="38.774111" lon="-2.397531">
        <ele>989.961080</ele>
        <time>2020-08-06T07:31:27.153Z</time>
      </trkpt>
      <trkpt lat="38.774080" lon="-2.397649">
        <ele>990.010301</ele>
        <time>2020-08-06T07:31:30.147Z</time>
      </trkpt>
      <trkpt lat="38.774043" lon="-2.397770">
        <ele>990.061679</ele>
        <time>2020-08-06T07:31:33.168Z</time>
      </trkpt>
      <trkpt lat="38.774003" lon="-2.397886">
        <ele>989.983843</ele>
        <time>2020-08-06T07:31:36.140Z</time>
      </trkpt>
      <trkpt lat="38.773965" lon="-2.398005">
        <ele>989.893594</ele>
        <time>2020-08-06T07:31:39.161Z</time>
      </trkpt>
      <trkpt lat="38.773934" lon="-2.398122">
        <ele>989.806870</ele>
        <time>2020-08-06T07:31:42.145Z</time>
      </trkpt>
      <trkpt lat="38.773901" lon="-2.398236">
        <ele>989.721528</ele>
        <time>2020-08-06T07:31:45.148Z</time>
      </trkpt>
      <trkpt lat="38.773864" lon="-2.398348">
        <ele>989.636160</ele>
        <time>2020-08-06T07:31:48.149Z</time>
      </trkpt>
      <trkpt lat="38.773824" lon="-2.398463">
        <ele>989.547784</ele>
        <time>2020-08-06T07:31:51.143Z</time>
      </trkpt>
      <trkpt lat="38.773786" lon="-2.398583">
        <ele>989.456885</ele>
        <time>2020-08-06T07:31:54.150Z</time>
      </trkpt>
      <trkpt lat="38.773743" lon="-2.398703">
        <ele>989.364198</ele>
        <time>2020-08-06T07:31:57.156Z</time>
      </trkpt>
      <trkpt lat="38.773697" lon="-2.398829">
        <ele>989.266555</ele>
        <time>2020-08-06T07:32:00.168Z</time>
      </trkpt>
      <trkpt lat="38.773656" lon="-2.398953">
        <ele>989.172027</ele>
        <time>2020-08-06T07:32:03.154Z</time>
      </trkpt>
      <trkpt lat="38.773613" lon="-2.399074">
        <ele>989.078703</ele>
        <time>2020-08-06T07:32:06.153Z</time>
      </trkpt>
      <trkpt lat="38.773566" lon="-2.399189">
        <ele>988.987577</ele>
        <time>2020-08-06T07:32:09.151Z</time>
      </trkpt>
      <trkpt lat="38.773524" lon="-2.399323">
        <ele>988.886219</ele>
        <time>2020-08-06T07:32:12.154Z</time>
      </trkpt>
      <trkpt lat="38.773476" lon="-2.399463">
        <ele>988.778884</ele>
        <time>2020-08-06T07:32:15.156Z</time>
      </trkpt>
      <trkpt lat="38.773432" lon="-2.399572">
        <ele>988.692741</ele>
        <time>2020-08-06T07:32:17.143Z</time>
      </trkpt>
      <trkpt lat="38.773396" lon="-2.399689">
        <ele>988.604465</ele>
        <time>2020-08-06T07:32:19.160Z</time>
      </trkpt>
      <trkpt lat="38.773350" lon="-2.399832">
        <ele>988.495899</ele>
        <time>2020-08-06T07:32:22.144Z</time>
      </trkpt>
      <trkpt lat="38.773316" lon="-2.399949">
        <ele>988.497952</ele>
        <time>2020-08-06T07:32:25.151Z</time>
      </trkpt>
      <trkpt lat="38.773269" lon="-2.400073">
        <ele>988.627634</ele>
        <time>2020-08-06T07:32:29.150Z</time>
      </trkpt>
      <trkpt lat="38.773226" lon="-2.400207">
        <ele>988.763929</ele>
        <time>2020-08-06T07:32:33.153Z</time>
      </trkpt>
      <trkpt lat="38.773183" lon="-2.400341">
        <ele>988.900223</ele>
        <time>2020-08-06T07:32:37.151Z</time>
      </trkpt>
      <trkpt lat="38.773148" lon="-2.400484">
        <ele>989.041196</ele>
        <time>2020-08-06T07:32:41.160Z</time>
      </trkpt>
      <trkpt lat="38.773114" lon="-2.400625">
        <ele>989.180014</ele>
        <time>2020-08-06T07:32:45.158Z</time>
      </trkpt>
      <trkpt lat="38.773075" lon="-2.400765">
        <ele>989.319847</ele>
        <time>2020-08-06T07:32:49.153Z</time>
      </trkpt>
      <trkpt lat="38.773025" lon="-2.400896">
        <ele>989.457034</ele>
        <time>2020-08-06T07:32:53.146Z</time>
      </trkpt>
      <trkpt lat="38.772982" lon="-2.401025">
        <ele>989.588992</ele>
        <time>2020-08-06T07:32:57.144Z</time>
      </trkpt>
      <trkpt lat="38.772932" lon="-2.401165">
        <ele>989.733830</ele>
        <time>2020-08-06T07:33:01.149Z</time>
      </trkpt>
      <trkpt lat="38.772892" lon="-2.401276">
        <ele>989.848846</ele>
        <time>2020-08-06T07:33:04.148Z</time>
      </trkpt>
      <trkpt lat="38.772861" lon="-2.401391">
        <ele>989.963295</ele>
        <time>2020-08-06T07:33:07.151Z</time>
      </trkpt>
      <trkpt lat="38.772829" lon="-2.401502">
        <ele>990.074607</ele>
        <time>2020-08-06T07:33:10.154Z</time>
      </trkpt>
      <trkpt lat="38.772795" lon="-2.401610">
        <ele>990.184158</ele>
        <time>2020-08-06T07:33:13.148Z</time>
      </trkpt>
      <trkpt lat="38.772759" lon="-2.401756">
        <ele>990.328185</ele>
        <time>2020-08-06T07:33:17.157Z</time>
      </trkpt>
      <trkpt lat="38.772728" lon="-2.401868">
        <ele>990.439971</ele>
        <time>2020-08-06T07:33:20.156Z</time>
      </trkpt>
      <trkpt lat="38.772701" lon="-2.401979">
        <ele>990.549338</ele>
        <time>2020-08-06T07:33:23.135Z</time>
      </trkpt>
      <trkpt lat="38.772677" lon="-2.402094">
        <ele>990.631963</ele>
        <time>2020-08-06T07:33:26.164Z</time>
      </trkpt>
      <trkpt lat="38.772659" lon="-2.402210">
        <ele>990.670326</ele>
        <time>2020-08-06T07:33:29.142Z</time>
      </trkpt>
      <trkpt lat="38.772635" lon="-2.402326">
        <ele>990.709254</ele>
        <time>2020-08-06T07:33:32.150Z</time>
      </trkpt>
      <trkpt lat="38.772609" lon="-2.402438">
        <ele>990.747158</ele>
        <time>2020-08-06T07:33:35.145Z</time>
      </trkpt>
      <trkpt lat="38.772586" lon="-2.402550">
        <ele>990.784724</ele>
        <time>2020-08-06T07:33:38.149Z</time>
      </trkpt>
      <trkpt lat="38.772567" lon="-2.402702">
        <ele>990.834656</ele>
        <time>2020-08-06T07:33:42.146Z</time>
      </trkpt>
      <trkpt lat="38.772549" lon="-2.402818">
        <ele>990.873019</ele>
        <time>2020-08-06T07:33:45.155Z</time>
      </trkpt>
      <trkpt lat="38.772534" lon="-2.402938">
        <ele>990.912439</ele>
        <time>2020-08-06T07:33:48.155Z</time>
      </trkpt>
      <trkpt lat="38.772520" lon="-2.403059">
        <ele>990.952116</ele>
        <time>2020-08-06T07:33:51.145Z</time>
      </trkpt>
      <trkpt lat="38.772494" lon="-2.403181">
        <ele>990.993139</ele>
        <time>2020-08-06T07:33:54.146Z</time>
      </trkpt>
      <trkpt lat="38.772478" lon="-2.403303">
        <ele>991.033266</ele>
        <time>2020-08-06T07:33:57.142Z</time>
      </trkpt>
      <trkpt lat="38.772465" lon="-2.403427">
        <ele>991.073848</ele>
        <time>2020-08-06T07:34:00.156Z</time>
      </trkpt>
      <trkpt lat="38.772455" lon="-2.403557">
        <ele>991.116219</ele>
        <time>2020-08-06T07:34:03.142Z</time>
      </trkpt>
      <trkpt lat="38.772442" lon="-2.403689">
        <ele>991.159374</ele>
        <time>2020-08-06T07:34:06.156Z</time>
      </trkpt>
      <trkpt lat="38.772423" lon="-2.403808">
        <ele>991.198774</ele>
        <time>2020-08-06T07:34:09.137Z</time>
      </trkpt>
      <trkpt lat="38.772403" lon="-2.403957">
        <ele>991.247814</ele>
        <time>2020-08-06T07:34:13.156Z</time>
      </trkpt>
      <trkpt lat="38.772388" lon="-2.404084">
        <ele>991.289477</ele>
        <time>2020-08-06T07:34:16.150Z</time>
      </trkpt>
      <trkpt lat="38.772374" lon="-2.404214">
        <ele>991.332043</ele>
        <time>2020-08-06T07:34:19.152Z</time>
      </trkpt>
      <trkpt lat="38.772360" lon="-2.404344">
        <ele>991.424133</ele>
        <time>2020-08-06T07:34:22.135Z</time>
      </trkpt>
      <trkpt lat="38.772348" lon="-2.404479">
        <ele>991.690906</ele>
        <time>2020-08-06T07:34:25.147Z</time>
      </trkpt>
      <trkpt lat="38.772333" lon="-2.404615">
        <ele>991.960585</ele>
        <time>2020-08-06T07:34:28.150Z</time>
      </trkpt>
      <trkpt lat="38.772316" lon="-2.404752">
        <ele>992.232953</ele>
        <time>2020-08-06T07:34:31.168Z</time>
      </trkpt>
      <trkpt lat="38.772299" lon="-2.404890">
        <ele>992.507261</ele>
        <time>2020-08-06T07:34:34.144Z</time>
      </trkpt>
      <trkpt lat="38.772286" lon="-2.405025">
        <ele>992.774332</ele>
        <time>2020-08-06T07:34:37.131Z</time>
      </trkpt>
      <trkpt lat="38.772275" lon="-2.405162">
        <ele>993.044738</ele>
        <time>2020-08-06T07:34:40.148Z</time>
      </trkpt>
      <trkpt lat="38.772254" lon="-2.405292">
        <ele>993.305399</ele>
        <time>2020-08-06T07:34:43.141Z</time>
      </trkpt>
      <trkpt lat="38.772238" lon="-2.405424">
        <ele>993.567679</ele>
        <time>2020-08-06T07:34:46.162Z</time>
      </trkpt>
      <trkpt lat="38.772220" lon="-2.405560">
        <ele>993.838519</ele>
        <time>2020-08-06T07:34:49.143Z</time>
      </trkpt>
      <trkpt lat="38.772201" lon="-2.405698">
        <ele>994.113659</ele>
        <time>2020-08-06T07:34:52.145Z</time>
      </trkpt>
      <trkpt lat="38.772188" lon="-2.405831">
        <ele>994.376833</ele>
        <time>2020-08-06T07:34:55.149Z</time>
      </trkpt>
      <trkpt lat="38.772173" lon="-2.405964">
        <ele>994.640681</ele>
        <time>2020-08-06T07:34:58.161Z</time>
      </trkpt>
      <trkpt lat="38.772151" lon="-2.406097">
        <ele>994.907624</ele>
        <time>2020-08-06T07:35:01.158Z</time>
      </trkpt>
      <trkpt lat="38.772133" lon="-2.406222">
        <ele>995.157198</ele>
        <time>2020-08-06T07:35:04.156Z</time>
      </trkpt>
      <trkpt lat="38.772108" lon="-2.406360">
        <ele>995.435364</ele>
        <time>2020-08-06T07:35:07.161Z</time>
      </trkpt>
      <trkpt lat="38.772086" lon="-2.406490">
        <ele>995.696548</ele>
        <time>2020-08-06T07:35:10.147Z</time>
      </trkpt>
      <trkpt lat="38.772069" lon="-2.406625">
        <ele>995.857767</ele>
        <time>2020-08-06T07:35:13.150Z</time>
      </trkpt>
      <trkpt lat="38.772052" lon="-2.406761">
        <ele>995.717758</ele>
        <time>2020-08-06T07:35:16.139Z</time>
      </trkpt>
      <trkpt lat="38.772036" lon="-2.406896">
        <ele>995.578954</ele>
        <time>2020-08-06T07:35:19.160Z</time>
      </trkpt>
      <trkpt lat="38.772016" lon="-2.407032">
        <ele>995.438273</ele>
        <time>2020-08-06T07:35:22.154Z</time>
      </trkpt>
      <trkpt lat="38.771999" lon="-2.407163">
        <ele>995.303279</ele>
        <time>2020-08-06T07:35:25.149Z</time>
      </trkpt>
      <trkpt lat="38.771983" lon="-2.407290">
        <ele>995.172509</ele>
        <time>2020-08-06T07:35:28.169Z</time>
      </trkpt>
      <trkpt lat="38.771970" lon="-2.407422">
        <ele>995.037265</ele>
        <time>2020-08-06T07:35:31.145Z</time>
      </trkpt>
      <trkpt lat="38.771948" lon="-2.407553">
        <ele>994.901050</ele>
        <time>2020-08-06T07:35:34.153Z</time>
      </trkpt>
      <trkpt lat="38.771932" lon="-2.407684">
        <ele>994.766264</ele>
        <time>2020-08-06T07:35:37.164Z</time>
      </trkpt>
      <trkpt lat="38.771919" lon="-2.407813">
        <ele>994.634045</ele>
        <time>2020-08-06T07:35:40.147Z</time>
      </trkpt>
      <trkpt lat="38.771901" lon="-2.407942">
        <ele>994.500833</ele>
        <time>2020-08-06T07:35:43.149Z</time>
      </trkpt>
      <trkpt lat="38.771882" lon="-2.408071">
        <ele>994.367385</ele>
        <time>2020-08-06T07:35:46.148Z</time>
      </trkpt>
      <trkpt lat="38.771869" lon="-2.408194">
        <ele>994.241212</ele>
        <time>2020-08-06T07:35:49.148Z</time>
      </trkpt>
      <trkpt lat="38.771855" lon="-2.408316">
        <ele>994.115863</ele>
        <time>2020-08-06T07:35:52.141Z</time>
      </trkpt>
      <trkpt lat="38.771840" lon="-2.408432">
        <ele>993.996338</ele>
        <time>2020-08-06T07:35:55.153Z</time>
      </trkpt>
      <trkpt lat="38.771819" lon="-2.408578">
        <ele>993.845425</ele>
        <time>2020-08-06T07:35:59.139Z</time>
      </trkpt>
      <trkpt lat="38.771801" lon="-2.408725">
        <ele>993.694167</ele>
        <time>2020-08-06T07:36:03.149Z</time>
      </trkpt>
      <trkpt lat="38.771783" lon="-2.408843">
        <ele>993.571946</ele>
        <time>2020-08-06T07:36:06.152Z</time>
      </trkpt>
      <trkpt lat="38.771766" lon="-2.408964">
        <ele>993.901505</ele>
        <time>2020-08-06T07:36:09.149Z</time>
      </trkpt>
      <trkpt lat="38.771752" lon="-2.409082">
        <ele>994.319126</ele>
        <time>2020-08-06T07:36:12.152Z</time>
      </trkpt>
      <trkpt lat="38.771734" lon="-2.409199">
        <ele>994.736388</ele>
        <time>2020-08-06T07:36:15.158Z</time>
      </trkpt>
      <trkpt lat="38.771728" lon="-2.409315">
        <ele>995.143151</ele>
        <time>2020-08-06T07:36:18.155Z</time>
      </trkpt>
      <trkpt lat="38.771718" lon="-2.409432">
        <ele>995.554972</ele>
        <time>2020-08-06T07:36:21.142Z</time>
      </trkpt>
      <trkpt lat="38.771696" lon="-2.409573">
        <ele>996.058096</ele>
        <time>2020-08-06T07:36:25.155Z</time>
      </trkpt>
      <trkpt lat="38.771676" lon="-2.409721">
        <ele>996.583652</ele>
        <time>2020-08-06T07:36:29.155Z</time>
      </trkpt>
      <trkpt lat="38.771660" lon="-2.409836">
        <ele>996.992380</ele>
        <time>2020-08-06T07:36:32.148Z</time>
      </trkpt>
      <trkpt lat="38.771649" lon="-2.409950">
        <ele>997.394296</ele>
        <time>2020-08-06T07:36:35.150Z</time>
      </trkpt>
      <trkpt lat="38.771633" lon="-2.410097">
        <ele>997.913619</ele>
        <time>2020-08-06T07:36:38.838Z</time>
      </trkpt>
      <trkpt lat="38.771615" lon="-2.410212">
        <ele>998.324019</ele>
        <time>2020-08-06T07:36:41.833Z</time>
      </trkpt>
      <trkpt lat="38.771596" lon="-2.410325">
        <ele>998.728484</ele>
        <time>2020-08-06T07:36:44.824Z</time>
      </trkpt>
      <trkpt lat="38.771582" lon="-2.410441">
        <ele>999.139188</ele>
        <time>2020-08-06T07:36:47.822Z</time>
      </trkpt>
      <trkpt lat="38.771567" lon="-2.410558">
        <ele>999.554056</ele>
        <time>2020-08-06T07:36:50.818Z</time>
      </trkpt>
      <trkpt lat="38.771553" lon="-2.410675">
        <ele>999.968219</ele>
        <time>2020-08-06T07:36:53.825Z</time>
      </trkpt>
      <trkpt lat="38.771534" lon="-2.410794">
        <ele>1000.393228</ele>
        <time>2020-08-06T07:36:56.823Z</time>
      </trkpt>
      <trkpt lat="38.771511" lon="-2.410909">
        <ele>1000.808628</ele>
        <time>2020-08-06T07:36:59.824Z</time>
      </trkpt>
      <trkpt lat="38.771498" lon="-2.411025">
        <ele>1001.218671</ele>
        <time>2020-08-06T07:37:02.818Z</time>
      </trkpt>
      <trkpt lat="38.771488" lon="-2.411177">
        <ele>1001.581734</ele>
        <time>2020-08-06T07:37:06.822Z</time>
      </trkpt>
      <trkpt lat="38.771482" lon="-2.411324">
        <ele>1001.426821</ele>
        <time>2020-08-06T07:37:10.831Z</time>
      </trkpt>
      <trkpt lat="38.771473" lon="-2.411470">
        <ele>1001.272693</ele>
        <time>2020-08-06T07:37:14.826Z</time>
      </trkpt>
      <trkpt lat="38.771451" lon="-2.411608">
        <ele>1001.124458</ele>
        <time>2020-08-06T07:37:18.828Z</time>
      </trkpt>
      <trkpt lat="38.771430" lon="-2.411721">
        <ele>1001.002207</ele>
        <time>2020-08-06T07:37:21.816Z</time>
      </trkpt>
      <trkpt lat="38.771406" lon="-2.411832">
        <ele>1000.880983</ele>
        <time>2020-08-06T07:37:24.810Z</time>
      </trkpt>
      <trkpt lat="38.771390" lon="-2.411950">
        <ele>1000.754937</ele>
        <time>2020-08-06T07:37:27.817Z</time>
      </trkpt>
      <trkpt lat="38.771372" lon="-2.412068">
        <ele>1000.628400</ele>
        <time>2020-08-06T07:37:30.824Z</time>
      </trkpt>
      <trkpt lat="38.771353" lon="-2.412183">
        <ele>1000.504688</ele>
        <time>2020-08-06T07:37:33.822Z</time>
      </trkpt>
      <trkpt lat="38.771328" lon="-2.412328">
        <ele>1000.348405</ele>
        <time>2020-08-06T07:37:37.802Z</time>
      </trkpt>
      <trkpt lat="38.771312" lon="-2.412442">
        <ele>1000.226504</ele>
        <time>2020-08-06T07:37:40.818Z</time>
      </trkpt>
      <trkpt lat="38.771292" lon="-2.412559">
        <ele>1000.100449</ele>
        <time>2020-08-06T07:37:43.825Z</time>
      </trkpt>
      <trkpt lat="38.771279" lon="-2.412680">
        <ele>999.971907</ele>
        <time>2020-08-06T07:37:46.823Z</time>
      </trkpt>
      <trkpt lat="38.771268" lon="-2.412796">
        <ele>999.848930</ele>
        <time>2020-08-06T07:37:49.814Z</time>
      </trkpt>
      <trkpt lat="38.771255" lon="-2.412920">
        <ele>999.717259</ele>
        <time>2020-08-06T07:37:52.827Z</time>
      </trkpt>
      <trkpt lat="38.771245" lon="-2.413042">
        <ele>999.588159</ele>
        <time>2020-08-06T07:37:55.838Z</time>
      </trkpt>
      <trkpt lat="38.771233" lon="-2.413166">
        <ele>999.456661</ele>
        <time>2020-08-06T07:37:58.822Z</time>
      </trkpt>
      <trkpt lat="38.771214" lon="-2.413292">
        <ele>999.321603</ele>
        <time>2020-08-06T07:38:01.810Z</time>
      </trkpt>
      <trkpt lat="38.771199" lon="-2.413412">
        <ele>999.193703</ele>
        <time>2020-08-06T07:38:04.834Z</time>
      </trkpt>
      <trkpt lat="38.771186" lon="-2.413531">
        <ele>999.524012</ele>
        <time>2020-08-06T07:38:07.831Z</time>
      </trkpt>
      <trkpt lat="38.771168" lon="-2.413657">
        <ele>999.877503</ele>
        <time>2020-08-06T07:38:10.829Z</time>
      </trkpt>
      <trkpt lat="38.771148" lon="-2.413781">
        <ele>1000.226931</ele>
        <time>2020-08-06T07:38:13.833Z</time>
      </trkpt>
      <trkpt lat="38.771133" lon="-2.413906">
        <ele>1000.575935</ele>
        <time>2020-08-06T07:38:16.827Z</time>
      </trkpt>
      <trkpt lat="38.771122" lon="-2.414033">
        <ele>1000.928553</ele>
        <time>2020-08-06T07:38:19.825Z</time>
      </trkpt>
      <trkpt lat="38.771113" lon="-2.414171">
        <ele>1001.310700</ele>
        <time>2020-08-06T07:38:22.817Z</time>
      </trkpt>
      <trkpt lat="38.771096" lon="-2.414303">
        <ele>1001.679895</ele>
        <time>2020-08-06T07:38:25.815Z</time>
      </trkpt>
      <trkpt lat="38.771083" lon="-2.414433">
        <ele>1002.041575</ele>
        <time>2020-08-06T07:38:28.812Z</time>
      </trkpt>
      <trkpt lat="38.771067" lon="-2.414563">
        <ele>1002.404758</ele>
        <time>2020-08-06T07:38:31.820Z</time>
      </trkpt>
      <trkpt lat="38.771057" lon="-2.414694">
        <ele>1002.767987</ele>
        <time>2020-08-06T07:38:34.822Z</time>
      </trkpt>
      <trkpt lat="38.771051" lon="-2.414827">
        <ele>1003.135620</ele>
        <time>2020-08-06T07:38:37.822Z</time>
      </trkpt>
      <trkpt lat="38.771038" lon="-2.414960">
        <ele>1003.505512</ele>
        <time>2020-08-06T07:38:40.822Z</time>
      </trkpt>
      <trkpt lat="38.771020" lon="-2.415092">
        <ele>1003.875302</ele>
        <time>2020-08-06T07:38:43.820Z</time>
      </trkpt>
      <trkpt lat="38.771009" lon="-2.415225">
        <ele>1004.244380</ele>
        <time>2020-08-06T07:38:46.827Z</time>
      </trkpt>
      <trkpt lat="38.771001" lon="-2.415357">
        <ele>1004.609739</ele>
        <time>2020-08-06T07:38:49.822Z</time>
      </trkpt>
      <trkpt lat="38.770991" lon="-2.415489">
        <ele>1004.975715</ele>
        <time>2020-08-06T07:38:52.833Z</time>
      </trkpt>
      <trkpt lat="38.770987" lon="-2.415618">
        <ele>1005.331978</ele>
        <time>2020-08-06T07:38:55.817Z</time>
      </trkpt>
      <trkpt lat="38.770979" lon="-2.415746">
        <ele>1005.505444</ele>
        <time>2020-08-06T07:38:58.817Z</time>
      </trkpt>
      <trkpt lat="38.770978" lon="-2.415872">
        <ele>1005.357065</ele>
        <time>2020-08-06T07:39:01.816Z</time>
      </trkpt>
      <trkpt lat="38.770977" lon="-2.416001">
        <ele>1005.205153</ele>
        <time>2020-08-06T07:39:04.821Z</time>
      </trkpt>
      <trkpt lat="38.770972" lon="-2.416132">
        <ele>1005.050709</ele>
        <time>2020-08-06T07:39:07.830Z</time>
      </trkpt>
      <trkpt lat="38.770971" lon="-2.416260">
        <ele>1004.899974</ele>
        <time>2020-08-06T07:39:10.822Z</time>
      </trkpt>
      <trkpt lat="38.770978" lon="-2.416388">
        <ele>1004.748877</ele>
        <time>2020-08-06T07:39:13.823Z</time>
      </trkpt>
      <trkpt lat="38.770986" lon="-2.416520">
        <ele>1004.592971</ele>
        <time>2020-08-06T07:39:16.835Z</time>
      </trkpt>
      <trkpt lat="38.770990" lon="-2.416647">
        <ele>1004.443300</ele>
        <time>2020-08-06T07:39:19.820Z</time>
      </trkpt>
      <trkpt lat="38.770990" lon="-2.416770">
        <ele>1004.298461</ele>
        <time>2020-08-06T07:39:22.822Z</time>
      </trkpt>
      <trkpt lat="38.770990" lon="-2.416892">
        <ele>1004.154799</ele>
        <time>2020-08-06T07:39:25.819Z</time>
      </trkpt>
      <trkpt lat="38.770988" lon="-2.417011">
        <ele>1004.014638</ele>
        <time>2020-08-06T07:39:28.822Z</time>
      </trkpt>
      <trkpt lat="38.770989" lon="-2.417137">
        <ele>1003.866259</ele>
        <time>2020-08-06T07:39:31.823Z</time>
      </trkpt>
      <trkpt lat="38.770992" lon="-2.417273">
        <ele>1003.706047</ele>
        <time>2020-08-06T07:39:34.825Z</time>
      </trkpt>
      <trkpt lat="38.770995" lon="-2.417406">
        <ele>1003.549367</ele>
        <time>2020-08-06T07:39:37.822Z</time>
      </trkpt>
      <trkpt lat="38.770995" lon="-2.417535">
        <ele>1003.397463</ele>
        <time>2020-08-06T07:39:40.822Z</time>
      </trkpt>
      <trkpt lat="38.770997" lon="-2.417657">
        <ele>1003.253770</ele>
        <time>2020-08-06T07:39:43.818Z</time>
      </trkpt>
      <trkpt lat="38.771003" lon="-2.417775">
        <ele>1003.114523</ele>
        <time>2020-08-06T07:39:46.819Z</time>
      </trkpt>
      <trkpt lat="38.771002" lon="-2.417901">
        <ele>1002.966144</ele>
        <time>2020-08-06T07:39:49.819Z</time>
      </trkpt>
      <trkpt lat="38.771005" lon="-2.418033">
        <ele>1002.942530</ele>
        <time>2020-08-06T07:39:52.828Z</time>
      </trkpt>
      <trkpt lat="38.771008" lon="-2.418163">
        <ele>1003.414289</ele>
        <time>2020-08-06T07:39:55.830Z</time>
      </trkpt>
      <trkpt lat="38.771009" lon="-2.418284">
        <ele>1003.853220</ele>
        <time>2020-08-06T07:39:58.837Z</time>
      </trkpt>
      <trkpt lat="38.771009" lon="-2.418409">
        <ele>1004.306636</ele>
        <time>2020-08-06T07:40:01.833Z</time>
      </trkpt>
      <trkpt lat="38.771010" lon="-2.418525">
        <ele>1004.727432</ele>
        <time>2020-08-06T07:40:04.827Z</time>
      </trkpt>
      <trkpt lat="38.771006" lon="-2.418673">
        <ele>1005.264599</ele>
        <time>2020-08-06T07:40:08.821Z</time>
      </trkpt>
      <trkpt lat="38.771012" lon="-2.418826">
        <ele>1005.820281</ele>
        <time>2020-08-06T07:40:12.819Z</time>
      </trkpt>
      <trkpt lat="38.771021" lon="-2.418946">
        <ele>1006.257570</ele>
        <time>2020-08-06T07:40:15.829Z</time>
      </trkpt>
      <trkpt lat="38.771020" lon="-2.419097">
        <ele>1006.805316</ele>
        <time>2020-08-06T07:40:19.838Z</time>
      </trkpt>
      <trkpt lat="38.771025" lon="-2.419239">
        <ele>1007.320921</ele>
        <time>2020-08-06T07:40:23.818Z</time>
      </trkpt>
      <trkpt lat="38.771036" lon="-2.419388">
        <ele>1007.863811</ele>
        <time>2020-08-06T07:40:27.839Z</time>
      </trkpt>
      <trkpt lat="38.771028" lon="-2.419533">
        <ele>1008.391088</ele>
        <time>2020-08-06T07:40:31.827Z</time>
      </trkpt>
      <trkpt lat="38.771025" lon="-2.419683">
        <ele>1008.935366</ele>
        <time>2020-08-06T07:40:35.826Z</time>
      </trkpt>
      <trkpt lat="38.771026" lon="-2.419801">
        <ele>1009.363416</ele>
        <time>2020-08-06T07:40:38.815Z</time>
      </trkpt>
      <trkpt lat="38.771028" lon="-2.419923">
        <ele>1009.806048</ele>
        <time>2020-08-06T07:40:41.836Z</time>
      </trkpt>
      <trkpt lat="38.771029" lon="-2.420047">
        <ele>1010.255860</ele>
        <time>2020-08-06T07:40:44.812Z</time>
      </trkpt>
      <trkpt lat="38.771029" lon="-2.420165">
        <ele>1010.683885</ele>
        <time>2020-08-06T07:40:47.832Z</time>
      </trkpt>
      <trkpt lat="38.771031" lon="-2.420283">
        <ele>1011.112010</ele>
        <time>2020-08-06T07:40:50.817Z</time>
      </trkpt>
      <trkpt lat="38.771034" lon="-2.420410">
        <ele>1011.022628</ele>
        <time>2020-08-06T07:40:53.819Z</time>
      </trkpt>
      <trkpt lat="38.771032" lon="-2.420537">
        <ele>1010.782575</ele>
        <time>2020-08-06T07:40:56.823Z</time>
      </trkpt>
      <trkpt lat="38.771035" lon="-2.420652">
        <ele>1010.565128</ele>
        <time>2020-08-06T07:40:59.824Z</time>
      </trkpt>
      <trkpt lat="38.771047" lon="-2.420802">
        <ele>1010.280170</ele>
        <time>2020-08-06T07:41:03.822Z</time>
      </trkpt>
      <trkpt lat="38.771052" lon="-2.420918">
        <ele>1010.060620</ele>
        <time>2020-08-06T07:41:06.823Z</time>
      </trkpt>
      <trkpt lat="38.771059" lon="-2.421036">
        <ele>1009.836980</ele>
        <time>2020-08-06T07:41:09.819Z</time>
      </trkpt>
      <trkpt lat="38.771057" lon="-2.421154">
        <ele>1009.613931</ele>
        <time>2020-08-06T07:41:12.824Z</time>
      </trkpt>
      <trkpt lat="38.771058" lon="-2.421275">
        <ele>1009.385254</ele>
        <time>2020-08-06T07:41:15.838Z</time>
      </trkpt>
      <trkpt lat="38.771061" lon="-2.421394">
        <ele>1009.160251</ele>
        <time>2020-08-06T07:41:18.829Z</time>
      </trkpt>
      <trkpt lat="38.771063" lon="-2.421513">
        <ele>1008.935313</ele>
        <time>2020-08-06T07:41:21.832Z</time>
      </trkpt>
      <trkpt lat="38.771063" lon="-2.421632">
        <ele>1008.710428</ele>
        <time>2020-08-06T07:41:24.819Z</time>
      </trkpt>
      <trkpt lat="38.771066" lon="-2.421750">
        <ele>1008.487314</ele>
        <time>2020-08-06T07:41:27.819Z</time>
      </trkpt>
      <trkpt lat="38.771063" lon="-2.421872">
        <ele>1008.256645</ele>
        <time>2020-08-06T07:41:30.821Z</time>
      </trkpt>
      <trkpt lat="38.771061" lon="-2.421994">
        <ele>1008.026039</ele>
        <time>2020-08-06T07:41:33.809Z</time>
      </trkpt>
      <trkpt lat="38.771065" lon="-2.422116">
        <ele>1007.795280</ele>
        <time>2020-08-06T07:41:36.815Z</time>
      </trkpt>
      <trkpt lat="38.771063" lon="-2.422240">
        <ele>1007.560896</ele>
        <time>2020-08-06T07:41:39.832Z</time>
      </trkpt>
      <trkpt lat="38.771063" lon="-2.422361">
        <ele>1007.332231</ele>
        <time>2020-08-06T07:41:42.836Z</time>
      </trkpt>
      <trkpt lat="38.771064" lon="-2.422478">
        <ele>1007.111112</ele>
        <time>2020-08-06T07:41:45.823Z</time>
      </trkpt>
      <trkpt lat="38.771058" lon="-2.422594">
        <ele>1006.891414</ele>
        <time>2020-08-06T07:41:48.822Z</time>
      </trkpt>
      <trkpt lat="38.771059" lon="-2.422711">
        <ele>1007.059438</ele>
        <time>2020-08-06T07:41:51.821Z</time>
      </trkpt>
      <trkpt lat="38.771064" lon="-2.422835">
        <ele>1007.328962</ele>
        <time>2020-08-06T07:41:54.824Z</time>
      </trkpt>
      <trkpt lat="38.771068" lon="-2.422959">
        <ele>1007.598357</ele>
        <time>2020-08-06T07:41:57.821Z</time>
      </trkpt>
      <trkpt lat="38.771073" lon="-2.423078">
        <ele>1007.857042</ele>
        <time>2020-08-06T07:42:00.830Z</time>
      </trkpt>
      <trkpt lat="38.771079" lon="-2.423199">
        <ele>1008.120225</ele>
        <time>2020-08-06T07:42:03.824Z</time>
      </trkpt>
      <trkpt lat="38.771077" lon="-2.423326">
        <ele>1008.395957</ele>
        <time>2020-08-06T07:42:06.824Z</time>
      </trkpt>
      <trkpt lat="38.771070" lon="-2.423447">
        <ele>1008.659331</ele>
        <time>2020-08-06T07:42:09.819Z</time>
      </trkpt>
      <trkpt lat="38.771067" lon="-2.423574">
        <ele>1008.935134</ele>
        <time>2020-08-06T07:42:12.838Z</time>
      </trkpt>
      <trkpt lat="38.771070" lon="-2.423715">
        <ele>1009.241313</ele>
        <time>2020-08-06T07:42:15.828Z</time>
      </trkpt>
      <trkpt lat="38.771073" lon="-2.423865">
        <ele>1009.567022</ele>
        <time>2020-08-06T07:42:18.838Z</time>
      </trkpt>
      <trkpt lat="38.771081" lon="-2.424010">
        <ele>1009.882558</ele>
        <time>2020-08-06T07:42:21.830Z</time>
      </trkpt>
      <trkpt lat="38.771081" lon="-2.424162">
        <ele>1010.212501</ele>
        <time>2020-08-06T07:42:24.831Z</time>
      </trkpt>
      <trkpt lat="38.771080" lon="-2.424311">
        <ele>1010.535943</ele>
        <time>2020-08-06T07:42:27.824Z</time>
      </trkpt>
      <trkpt lat="38.771077" lon="-2.424457">
        <ele>1010.852972</ele>
        <time>2020-08-06T07:42:30.832Z</time>
      </trkpt>
      <trkpt lat="38.771079" lon="-2.424597">
        <ele>1011.156918</ele>
        <time>2020-08-06T07:42:33.833Z</time>
      </trkpt>
      <trkpt lat="38.771081" lon="-2.424735">
        <ele>1011.456524</ele>
        <time>2020-08-06T07:42:36.820Z</time>
      </trkpt>
      <trkpt lat="38.771083" lon="-2.424871">
        <ele>1011.751788</ele>
        <time>2020-08-06T07:42:39.809Z</time>
      </trkpt>
      <trkpt lat="38.771086" lon="-2.424999">
        <ele>1011.567673</ele>
        <time>2020-08-06T07:42:42.827Z</time>
      </trkpt>
      <trkpt lat="38.771086" lon="-2.425138">
        <ele>1011.052397</ele>
        <time>2020-08-06T07:42:45.826Z</time>
      </trkpt>
      <trkpt lat="38.771085" lon="-2.425281">
        <ele>1010.522272</ele>
        <time>2020-08-06T07:42:48.836Z</time>
      </trkpt>
      <trkpt lat="38.771085" lon="-2.425421">
        <ele>1010.003289</ele>
        <time>2020-08-06T07:42:51.822Z</time>
      </trkpt>
      <trkpt lat="38.771087" lon="-2.425557">
        <ele>1009.499045</ele>
        <time>2020-08-06T07:42:54.817Z</time>
      </trkpt>
      <trkpt lat="38.771090" lon="-2.425695">
        <ele>1008.987277</ele>
        <time>2020-08-06T07:42:57.821Z</time>
      </trkpt>
      <trkpt lat="38.771093" lon="-2.425832">
        <ele>1008.479215</ele>
        <time>2020-08-06T07:43:00.837Z</time>
      </trkpt>
      <trkpt lat="38.771096" lon="-2.425967">
        <ele>1007.978564</ele>
        <time>2020-08-06T07:43:03.826Z</time>
      </trkpt>
      <trkpt lat="38.771104" lon="-2.426105">
        <ele>1007.465583</ele>
        <time>2020-08-06T07:43:06.837Z</time>
      </trkpt>
      <trkpt lat="38.771109" lon="-2.426241">
        <ele>1006.960869</ele>
        <time>2020-08-06T07:43:09.834Z</time>
      </trkpt>
      <trkpt lat="38.771106" lon="-2.426380">
        <ele>1006.445396</ele>
        <time>2020-08-06T07:43:12.820Z</time>
      </trkpt>
      <trkpt lat="38.771106" lon="-2.426516">
        <ele>1005.941241</ele>
        <time>2020-08-06T07:43:15.834Z</time>
      </trkpt>
      <trkpt lat="38.771113" lon="-2.426648">
        <ele>1005.450784</ele>
        <time>2020-08-06T07:43:18.814Z</time>
      </trkpt>
      <trkpt lat="38.771120" lon="-2.426785">
        <ele>1004.941833</ele>
        <time>2020-08-06T07:43:21.839Z</time>
      </trkpt>
      <trkpt lat="38.771124" lon="-2.426918">
        <ele>1004.448433</ele>
        <time>2020-08-06T07:43:24.824Z</time>
      </trkpt>
      <trkpt lat="38.771129" lon="-2.427050">
        <ele>1003.958530</ele>
        <time>2020-08-06T07:43:27.820Z</time>
      </trkpt>
      <trkpt lat="38.771138" lon="-2.427190">
        <ele>1003.437786</ele>
        <time>2020-08-06T07:43:30.822Z</time>
      </trkpt>
      <trkpt lat="38.771144" lon="-2.427337">
        <ele>1003.680012</ele>
        <time>2020-08-06T07:43:33.820Z</time>
      </trkpt>
      <trkpt lat="38.771158" lon="-2.427481">
        <ele>1004.163402</ele>
        <time>2020-08-06T07:43:36.835Z</time>
      </trkpt>
      <trkpt lat="38.771172" lon="-2.427623">
        <ele>1004.640182</ele>
        <time>2020-08-06T07:43:39.819Z</time>
      </trkpt>
      <trkpt lat="38.771188" lon="-2.427754">
        <ele>1005.081876</ele>
        <time>2020-08-06T07:43:42.824Z</time>
      </trkpt>
      <trkpt lat="38.771204" lon="-2.427894">
        <ele>1005.553210</ele>
        <time>2020-08-06T07:43:45.819Z</time>
      </trkpt>
      <trkpt lat="38.771226" lon="-2.428034">
        <ele>1006.028939</ele>
        <time>2020-08-06T07:43:48.824Z</time>
      </trkpt>
      <trkpt lat="38.771253" lon="-2.428170">
        <ele>1006.496422</ele>
        <time>2020-08-06T07:43:51.826Z</time>
      </trkpt>
      <trkpt lat="38.771286" lon="-2.428303">
        <ele>1006.961349</ele>
        <time>2020-08-06T07:43:54.834Z</time>
      </trkpt>
      <trkpt lat="38.771322" lon="-2.428433">
        <ele>1007.420893</ele>
        <time>2020-08-06T07:43:57.834Z</time>
      </trkpt>
      <trkpt lat="38.771341" lon="-2.428556">
        <ele>1007.838579</ele>
        <time>2020-08-06T07:44:00.837Z</time>
      </trkpt>
      <trkpt lat="38.771362" lon="-2.428683">
        <ele>1008.271035</ele>
        <time>2020-08-06T07:44:03.833Z</time>
      </trkpt>
      <trkpt lat="38.771391" lon="-2.428807">
        <ele>1008.702271</ele>
        <time>2020-08-06T07:44:06.825Z</time>
      </trkpt>
      <trkpt lat="38.771427" lon="-2.428929">
        <ele>1009.136795</ele>
        <time>2020-08-06T07:44:09.817Z</time>
      </trkpt>
      <trkpt lat="38.771461" lon="-2.429054">
        <ele>1009.577790</ele>
        <time>2020-08-06T07:44:12.821Z</time>
      </trkpt>
      <trkpt lat="38.771505" lon="-2.429179">
        <ele>1010.034644</ele>
        <time>2020-08-06T07:44:15.816Z</time>
      </trkpt>
      <trkpt lat="38.771547" lon="-2.429309">
        <ele>1010.503390</ele>
        <time>2020-08-06T07:44:18.820Z</time>
      </trkpt>
      <trkpt lat="38.771593" lon="-2.429437">
        <ele>1010.972881</ele>
        <time>2020-08-06T07:44:21.837Z</time>
      </trkpt>
      <trkpt lat="38.771645" lon="-2.429566">
        <ele>1011.455102</ele>
        <time>2020-08-06T07:44:24.826Z</time>
      </trkpt>
      <trkpt lat="38.771698" lon="-2.429684">
        <ele>1011.907241</ele>
        <time>2020-08-06T07:44:27.830Z</time>
      </trkpt>
      <trkpt lat="38.771754" lon="-2.429796">
        <ele>1012.348996</ele>
        <time>2020-08-06T07:44:30.819Z</time>
      </trkpt>
      <trkpt lat="38.771810" lon="-2.429915">
        <ele>1012.810485</ele>
        <time>2020-08-06T07:44:33.820Z</time>
      </trkpt>
      <trkpt lat="38.771866" lon="-2.430032">
        <ele>1013.266301</ele>
        <time>2020-08-06T07:44:36.827Z</time>
      </trkpt>
      <trkpt lat="38.771922" lon="-2.430150">
        <ele>1013.724950</ele>
        <time>2020-08-06T07:44:39.815Z</time>
      </trkpt>
      <trkpt lat="38.771980" lon="-2.430264">
        <ele>1014.176906</ele>
        <time>2020-08-06T07:44:42.820Z</time>
      </trkpt>
      <trkpt lat="38.772043" lon="-2.430377">
        <ele>1014.638136</ele>
        <time>2020-08-06T07:44:45.823Z</time>
      </trkpt>
      <trkpt lat="38.772106" lon="-2.430484">
        <ele>1015.083313</ele>
        <time>2020-08-06T07:44:48.824Z</time>
      </trkpt>
      <trkpt lat="38.772171" lon="-2.430581">
        <ele>1015.507974</ele>
        <time>2020-08-06T07:44:51.820Z</time>
      </trkpt>
      <trkpt lat="38.772235" lon="-2.430684">
        <ele>1015.945267</ele>
        <time>2020-08-06T07:44:54.834Z</time>
      </trkpt>
      <trkpt lat="38.772304" lon="-2.430786">
        <ele>1016.393626</ele>
        <time>2020-08-06T07:44:57.820Z</time>
      </trkpt>
      <trkpt lat="38.772374" lon="-2.430890">
        <ele>1016.849791</ele>
        <time>2020-08-06T07:45:00.833Z</time>
      </trkpt>
      <trkpt lat="38.772435" lon="-2.430997">
        <ele>1017.289886</ele>
        <time>2020-08-06T07:45:03.821Z</time>
      </trkpt>
      <trkpt lat="38.772497" lon="-2.431106">
        <ele>1017.737855</ele>
        <time>2020-08-06T07:45:06.831Z</time>
      </trkpt>
      <trkpt lat="38.772563" lon="-2.431214">
        <ele>1018.193452</ele>
        <time>2020-08-06T07:45:09.834Z</time>
      </trkpt>
      <trkpt lat="38.772635" lon="-2.431335">
        <ele>1018.669634</ele>
        <time>2020-08-06T07:45:12.821Z</time>
      </trkpt>
      <trkpt lat="38.772706" lon="-2.431462">
        <ele>1018.869293</ele>
        <time>2020-08-06T07:45:15.822Z</time>
      </trkpt>
      <trkpt lat="38.772780" lon="-2.431581">
        <ele>1019.063766</ele>
        <time>2020-08-06T07:45:18.832Z</time>
      </trkpt>
      <trkpt lat="38.772851" lon="-2.431695">
        <ele>1019.250179</ele>
        <time>2020-08-06T07:45:21.844Z</time>
      </trkpt>
      <trkpt lat="38.772922" lon="-2.431805">
        <ele>1019.432627</ele>
        <time>2020-08-06T07:45:24.822Z</time>
      </trkpt>
      <trkpt lat="38.773000" lon="-2.431925">
        <ele>1019.632232</ele>
        <time>2020-08-06T07:45:27.827Z</time>
      </trkpt>
      <trkpt lat="38.773082" lon="-2.432043">
        <ele>1019.834182</ele>
        <time>2020-08-06T07:45:30.827Z</time>
      </trkpt>
      <trkpt lat="38.773170" lon="-2.432165">
        <ele>1020.046526</ele>
        <time>2020-08-06T07:45:33.821Z</time>
      </trkpt>
      <trkpt lat="38.773250" lon="-2.432278">
        <ele>1020.241535</ele>
        <time>2020-08-06T07:45:36.818Z</time>
      </trkpt>
      <trkpt lat="38.773315" lon="-2.432399">
        <ele>1020.429267</ele>
        <time>2020-08-06T07:45:39.831Z</time>
      </trkpt>
      <trkpt lat="38.773373" lon="-2.432492">
        <ele>1020.581421</ele>
        <time>2020-08-06T07:45:42.821Z</time>
      </trkpt>
      <trkpt lat="38.773439" lon="-2.432580">
        <ele>1020.737426</ele>
        <time>2020-08-06T07:45:45.819Z</time>
      </trkpt>
      <trkpt lat="38.773507" lon="-2.432680">
        <ele>1020.906953</ele>
        <time>2020-08-06T07:45:48.836Z</time>
      </trkpt>
      <trkpt lat="38.773574" lon="-2.432782">
        <ele>1021.077354</ele>
        <time>2020-08-06T07:45:51.822Z</time>
      </trkpt>
      <trkpt lat="38.773645" lon="-2.432909">
        <ele>1021.277011</ele>
        <time>2020-08-06T07:45:54.828Z</time>
      </trkpt>
      <trkpt lat="38.773714" lon="-2.433018">
        <ele>1021.456392</ele>
        <time>2020-08-06T07:45:57.826Z</time>
      </trkpt>
      <trkpt lat="38.773790" lon="-2.433124">
        <ele>1021.702274</ele>
        <time>2020-08-06T07:46:00.829Z</time>
      </trkpt>
      <trkpt lat="38.773867" lon="-2.433230">
        <ele>1022.163178</ele>
        <time>2020-08-06T07:46:03.827Z</time>
      </trkpt>
      <trkpt lat="38.773935" lon="-2.433337">
        <ele>1022.602335</ele>
        <time>2020-08-06T07:46:06.821Z</time>
      </trkpt>
      <trkpt lat="38.773997" lon="-2.433435">
        <ele>1023.003831</ele>
        <time>2020-08-06T07:46:09.827Z</time>
      </trkpt>
      <trkpt lat="38.774059" lon="-2.433543">
        <ele>1023.430500</ele>
        <time>2020-08-06T07:46:12.821Z</time>
      </trkpt>
      <trkpt lat="38.774120" lon="-2.433638">
        <ele>1023.822025</ele>
        <time>2020-08-06T07:46:15.845Z</time>
      </trkpt>
      <trkpt lat="38.774184" lon="-2.433732">
        <ele>1024.219041</ele>
        <time>2020-08-06T07:46:18.828Z</time>
      </trkpt>
      <trkpt lat="38.774252" lon="-2.433844">
        <ele>1024.670638</ele>
        <time>2020-08-06T07:46:21.832Z</time>
      </trkpt>
      <trkpt lat="38.774309" lon="-2.433965">
        <ele>1025.120379</ele>
        <time>2020-08-06T07:46:24.828Z</time>
      </trkpt>
      <trkpt lat="38.774359" lon="-2.434089">
        <ele>1025.564489</ele>
        <time>2020-08-06T07:46:27.819Z</time>
      </trkpt>
      <trkpt lat="38.774410" lon="-2.434213">
        <ele>1026.010488</ele>
        <time>2020-08-06T07:46:30.827Z</time>
      </trkpt>
      <trkpt lat="38.774456" lon="-2.434329">
        <ele>1026.424504</ele>
        <time>2020-08-06T07:46:33.822Z</time>
      </trkpt>
      <trkpt lat="38.774500" lon="-2.434434">
        <ele>1026.803726</ele>
        <time>2020-08-06T07:46:36.833Z</time>
      </trkpt>
      <trkpt lat="38.774555" lon="-2.434558">
        <ele>1027.257570</ele>
        <time>2020-08-06T07:46:40.823Z</time>
      </trkpt>
      <trkpt lat="38.774598" lon="-2.434665">
        <ele>1027.640522</ele>
        <time>2020-08-06T07:46:43.825Z</time>
      </trkpt>
      <trkpt lat="38.774633" lon="-2.434784">
        <ele>1028.045129</ele>
        <time>2020-08-06T07:46:46.244Z</time>
      </trkpt>
      <trkpt lat="38.774671" lon="-2.434899">
        <ele>1028.442472</ele>
        <time>2020-08-06T07:46:49.241Z</time>
      </trkpt>
      <trkpt lat="38.774711" lon="-2.435031">
        <ele>1028.892997</ele>
        <time>2020-08-06T07:46:52.236Z</time>
      </trkpt>
      <trkpt lat="38.774737" lon="-2.435172">
        <ele>1027.406822</ele>
        <time>2020-08-06T07:46:55.233Z</time>
      </trkpt>
      <trkpt lat="38.774766" lon="-2.435307">
        <ele>1025.765998</ele>
        <time>2020-08-06T07:46:58.236Z</time>
      </trkpt>
      <trkpt lat="38.774799" lon="-2.435444">
        <ele>1024.085815</ele>
        <time>2020-08-06T07:47:01.234Z</time>
      </trkpt>
      <trkpt lat="38.774830" lon="-2.435573">
        <ele>1022.504068</ele>
        <time>2020-08-06T07:47:04.264Z</time>
      </trkpt>
      <trkpt lat="38.774857" lon="-2.435702">
        <ele>1020.938977</ele>
        <time>2020-08-06T07:47:07.239Z</time>
      </trkpt>
      <trkpt lat="38.774880" lon="-2.435835">
        <ele>1019.342663</ele>
        <time>2020-08-06T07:47:10.239Z</time>
      </trkpt>
      <trkpt lat="38.774913" lon="-2.435972">
        <ele>1017.662482</ele>
        <time>2020-08-06T07:47:13.239Z</time>
      </trkpt>
      <trkpt lat="38.774939" lon="-2.436113">
        <ele>1015.964723</ele>
        <time>2020-08-06T07:47:16.240Z</time>
      </trkpt>
      <trkpt lat="38.774957" lon="-2.436256">
        <ele>1014.267414</ele>
        <time>2020-08-06T07:47:19.234Z</time>
      </trkpt>
      <trkpt lat="38.774969" lon="-2.436395">
        <ele>1012.628721</ele>
        <time>2020-08-06T07:47:22.243Z</time>
      </trkpt>
      <trkpt lat="38.774980" lon="-2.436536">
        <ele>1010.968296</ele>
        <time>2020-08-06T07:47:25.255Z</time>
      </trkpt>
      <trkpt lat="38.774995" lon="-2.436671">
        <ele>1009.370444</ele>
        <time>2020-08-06T07:47:28.249Z</time>
      </trkpt>
      <trkpt lat="38.775001" lon="-2.436791">
        <ele>1007.961451</ele>
        <time>2020-08-06T07:47:31.234Z</time>
      </trkpt>
      <trkpt lat="38.775011" lon="-2.436928">
        <ele>1006.349129</ele>
        <time>2020-08-06T07:47:34.248Z</time>
      </trkpt>
      <trkpt lat="38.775021" lon="-2.437063">
        <ele>1004.760138</ele>
        <time>2020-08-06T07:47:37.237Z</time>
      </trkpt>
      <trkpt lat="38.775023" lon="-2.437199">
        <ele>1003.166270</ele>
        <time>2020-08-06T07:47:40.239Z</time>
      </trkpt>
      <trkpt lat="38.775024" lon="-2.437336">
        <ele>1001.831201</ele>
        <time>2020-08-06T07:47:43.222Z</time>
      </trkpt>
      <trkpt lat="38.775022" lon="-2.437480">
        <ele>1001.470712</ele>
        <time>2020-08-06T07:47:46.258Z</time>
      </trkpt>
      <trkpt lat="38.775018" lon="-2.437611">
        <ele>1001.142567</ele>
        <time>2020-08-06T07:47:49.242Z</time>
      </trkpt>
      <trkpt lat="38.775008" lon="-2.437746">
        <ele>1000.803141</ele>
        <time>2020-08-06T07:47:52.247Z</time>
      </trkpt>
      <trkpt lat="38.774984" lon="-2.437891">
        <ele>1000.432116</ele>
        <time>2020-08-06T07:47:55.234Z</time>
      </trkpt>
      <trkpt lat="38.774960" lon="-2.438037">
        <ele>1000.058643</ele>
        <time>2020-08-06T07:47:58.233Z</time>
      </trkpt>
      <trkpt lat="38.774925" lon="-2.438189">
        <ele>999.661939</ele>
        <time>2020-08-06T07:48:01.231Z</time>
      </trkpt>
      <trkpt lat="38.774915" lon="-2.438315">
        <ele>999.344931</ele>
        <time>2020-08-06T07:48:04.249Z</time>
      </trkpt>
      <trkpt lat="38.774905" lon="-2.438446">
        <ele>999.015470</ele>
        <time>2020-08-06T07:48:07.227Z</time>
      </trkpt>
      <trkpt lat="38.774879" lon="-2.438574">
        <ele>998.684389</ele>
        <time>2020-08-06T07:48:10.228Z</time>
      </trkpt>
      <trkpt lat="38.774856" lon="-2.438700">
        <ele>998.360481</ele>
        <time>2020-08-06T07:48:13.235Z</time>
      </trkpt>
      <trkpt lat="38.774829" lon="-2.438827">
        <ele>998.030992</ele>
        <time>2020-08-06T07:48:16.259Z</time>
      </trkpt>
      <trkpt lat="38.774802" lon="-2.438958">
        <ele>997.691833</ele>
        <time>2020-08-06T07:48:19.239Z</time>
      </trkpt>
      <trkpt lat="38.774764" lon="-2.439074">
        <ele>997.376894</ele>
        <time>2020-08-06T07:48:22.236Z</time>
      </trkpt>
      <trkpt lat="38.774726" lon="-2.439190">
        <ele>997.061954</ele>
        <time>2020-08-06T07:48:25.232Z</time>
      </trkpt>
      <trkpt lat="38.774685" lon="-2.439304">
        <ele>996.747712</ele>
        <time>2020-08-06T07:48:28.238Z</time>
      </trkpt>
      <trkpt lat="38.774643" lon="-2.439417">
        <ele>996.434373</ele>
        <time>2020-08-06T07:48:31.234Z</time>
      </trkpt>
      <trkpt lat="38.774601" lon="-2.439528">
        <ele>996.135138</ele>
        <time>2020-08-06T07:48:34.251Z</time>
      </trkpt>
      <trkpt lat="38.774551" lon="-2.439669">
        <ele>996.592051</ele>
        <time>2020-08-06T07:48:38.236Z</time>
      </trkpt>
      <trkpt lat="38.774494" lon="-2.439773">
        <ele>996.967043</ele>
        <time>2020-08-06T07:48:41.257Z</time>
      </trkpt>
      <trkpt lat="38.774448" lon="-2.439879">
        <ele>997.324889</ele>
        <time>2020-08-06T07:48:44.248Z</time>
      </trkpt>
      <trkpt lat="38.774402" lon="-2.439980">
        <ele>997.669924</ele>
        <time>2020-08-06T07:48:47.242Z</time>
      </trkpt>
      <trkpt lat="38.774353" lon="-2.440096">
        <ele>998.059090</ele>
        <time>2020-08-06T07:48:50.229Z</time>
      </trkpt>
      <trkpt lat="38.774298" lon="-2.440201">
        <ele>998.432227</ele>
        <time>2020-08-06T07:48:53.233Z</time>
      </trkpt>
      <trkpt lat="38.774250" lon="-2.440313">
        <ele>998.809224</ele>
        <time>2020-08-06T07:48:56.232Z</time>
      </trkpt>
      <trkpt lat="38.774196" lon="-2.440421">
        <ele>999.187683</ele>
        <time>2020-08-06T07:48:59.244Z</time>
      </trkpt>
      <trkpt lat="38.774134" lon="-2.440517">
        <ele>999.555400</ele>
        <time>2020-08-06T07:49:02.240Z</time>
      </trkpt>
      <trkpt lat="38.774077" lon="-2.440619">
        <ele>999.925583</ele>
        <time>2020-08-06T07:49:05.249Z</time>
      </trkpt>
      <trkpt lat="38.774019" lon="-2.440714">
        <ele>1000.281508</ele>
        <time>2020-08-06T07:49:08.241Z</time>
      </trkpt>
      <trkpt lat="38.773965" lon="-2.440814">
        <ele>1000.640330</ele>
        <time>2020-08-06T07:49:11.238Z</time>
      </trkpt>
      <trkpt lat="38.773888" lon="-2.440932">
        <ele>1001.094233</ele>
        <time>2020-08-06T07:49:15.238Z</time>
      </trkpt>
      <trkpt lat="38.773829" lon="-2.441036">
        <ele>1001.473630</ele>
        <time>2020-08-06T07:49:18.235Z</time>
      </trkpt>
      <trkpt lat="38.773766" lon="-2.441139">
        <ele>1001.859799</ele>
        <time>2020-08-06T07:49:21.236Z</time>
      </trkpt>
      <trkpt lat="38.773710" lon="-2.441244">
        <ele>1002.235061</ele>
        <time>2020-08-06T07:49:24.229Z</time>
      </trkpt>
      <trkpt lat="38.773652" lon="-2.441355">
        <ele>1002.629222</ele>
        <time>2020-08-06T07:49:27.253Z</time>
      </trkpt>
      <trkpt lat="38.773595" lon="-2.441457">
        <ele>1003.092905</ele>
        <time>2020-08-06T07:49:30.241Z</time>
      </trkpt>
      <trkpt lat="38.773539" lon="-2.441566">
        <ele>1004.038813</ele>
        <time>2020-08-06T07:49:33.253Z</time>
      </trkpt>
      <trkpt lat="38.773474" lon="-2.441670">
        <ele>1005.004679</ele>
        <time>2020-08-06T07:49:36.230Z</time>
      </trkpt>
      <trkpt lat="38.773410" lon="-2.441776">
        <ele>1005.976177</ele>
        <time>2020-08-06T07:49:39.240Z</time>
      </trkpt>
      <trkpt lat="38.773357" lon="-2.441898">
        <ele>1006.988194</ele>
        <time>2020-08-06T07:49:42.227Z</time>
      </trkpt>
      <trkpt lat="38.773309" lon="-2.442021">
        <ele>1007.984897</ele>
        <time>2020-08-06T07:49:45.232Z</time>
      </trkpt>
      <trkpt lat="38.773248" lon="-2.442134">
        <ele>1008.980844</ele>
        <time>2020-08-06T07:49:48.257Z</time>
      </trkpt>
      <trkpt lat="38.773186" lon="-2.442239">
        <ele>1009.935288</ele>
        <time>2020-08-06T07:49:51.227Z</time>
      </trkpt>
      <trkpt lat="38.773118" lon="-2.442350">
        <ele>1010.958222</ele>
        <time>2020-08-06T07:49:54.234Z</time>
      </trkpt>
      <trkpt lat="38.773051" lon="-2.442461">
        <ele>1011.975442</ele>
        <time>2020-08-06T07:49:57.222Z</time>
      </trkpt>
      <trkpt lat="38.772979" lon="-2.442570">
        <ele>1013.010657</ele>
        <time>2020-08-06T07:50:00.241Z</time>
      </trkpt>
      <trkpt lat="38.772912" lon="-2.442676">
        <ele>1013.999478</ele>
        <time>2020-08-06T07:50:03.232Z</time>
      </trkpt>
      <trkpt lat="38.772853" lon="-2.442791">
        <ele>1014.997039</ele>
        <time>2020-08-06T07:50:06.245Z</time>
      </trkpt>
      <trkpt lat="38.772794" lon="-2.442903">
        <ele>1015.976514</ele>
        <time>2020-08-06T07:50:09.235Z</time>
      </trkpt>
      <trkpt lat="38.772745" lon="-2.443012">
        <ele>1016.888250</ele>
        <time>2020-08-06T07:50:12.244Z</time>
      </trkpt>
      <trkpt lat="38.772674" lon="-2.443135">
        <ele>1017.997245</ele>
        <time>2020-08-06T07:50:15.251Z</time>
      </trkpt>
      <trkpt lat="38.772609" lon="-2.443247">
        <ele>1019.008999</ele>
        <time>2020-08-06T07:50:18.238Z</time>
      </trkpt>
      <trkpt lat="38.772550" lon="-2.443358">
        <ele>1019.769365</ele>
        <time>2020-08-06T07:50:21.249Z</time>
      </trkpt>
      <trkpt lat="38.772491" lon="-2.443469">
        <ele>1020.114052</ele>
        <time>2020-08-06T07:50:24.240Z</time>
      </trkpt>
      <trkpt lat="38.772435" lon="-2.443582">
        <ele>1020.457595</ele>
        <time>2020-08-06T07:50:27.239Z</time>
      </trkpt>
      <trkpt lat="38.772375" lon="-2.443716">
        <ele>1020.854072</ele>
        <time>2020-08-06T07:50:30.242Z</time>
      </trkpt>
      <trkpt lat="38.772303" lon="-2.443839">
        <ele>1021.248709</ele>
        <time>2020-08-06T07:50:33.239Z</time>
      </trkpt>
      <trkpt lat="38.772211" lon="-2.443950">
        <ele>1021.664374</ele>
        <time>2020-08-06T07:50:36.233Z</time>
      </trkpt>
      <trkpt lat="38.772153" lon="-2.444082">
        <ele>1022.053136</ele>
        <time>2020-08-06T07:50:39.233Z</time>
      </trkpt>
      <trkpt lat="38.772086" lon="-2.444212">
        <ele>1022.452975</ele>
        <time>2020-08-06T07:50:42.242Z</time>
      </trkpt>
      <trkpt lat="38.772010" lon="-2.444323">
        <ele>1022.832007</ele>
        <time>2020-08-06T07:50:45.233Z</time>
      </trkpt>
      <trkpt lat="38.771931" lon="-2.444434">
        <ele>1023.217626</ele>
        <time>2020-08-06T07:50:48.247Z</time>
      </trkpt>
      <trkpt lat="38.771876" lon="-2.444576">
        <ele>1023.624447</ele>
        <time>2020-08-06T07:50:51.232Z</time>
      </trkpt>
      <trkpt lat="38.771834" lon="-2.444679">
        <ele>1023.922684</ele>
        <time>2020-08-06T07:50:53.246Z</time>
      </trkpt>
      <trkpt lat="38.771772" lon="-2.444792">
        <ele>1024.277213</ele>
        <time>2020-08-06T07:50:56.233Z</time>
      </trkpt>
      <trkpt lat="38.771704" lon="-2.444899">
        <ele>1024.631402</ele>
        <time>2020-08-06T07:50:59.233Z</time>
      </trkpt>
      <trkpt lat="38.771635" lon="-2.445017">
        <ele>1025.009855</ele>
        <time>2020-08-06T07:51:02.249Z</time>
      </trkpt>
      <trkpt lat="38.771554" lon="-2.445124">
        <ele>1025.392514</ele>
        <time>2020-08-06T07:51:05.250Z</time>
      </trkpt>
      <trkpt lat="38.771477" lon="-2.445239">
        <ele>1026.331268</ele>
        <time>2020-08-06T07:51:08.244Z</time>
      </trkpt>
      <trkpt lat="38.771418" lon="-2.445369">
        <ele>1027.729123</ele>
        <time>2020-08-06T07:51:11.247Z</time>
      </trkpt>
      <trkpt lat="38.771355" lon="-2.445511">
        <ele>1029.247413</ele>
        <time>2020-08-06T07:51:14.244Z</time>
      </trkpt>
      <trkpt lat="38.771293" lon="-2.445655">
        <ele>1030.776087</ele>
        <time>2020-08-06T07:51:17.238Z</time>
      </trkpt>
      <trkpt lat="38.771218" lon="-2.445773">
        <ele>1032.190866</ele>
        <time>2020-08-06T07:51:20.241Z</time>
      </trkpt>
      <trkpt lat="38.771142" lon="-2.445881">
        <ele>1033.542860</ele>
        <time>2020-08-06T07:51:23.233Z</time>
      </trkpt>
      <trkpt lat="38.771069" lon="-2.445990">
        <ele>1034.878196</ele>
        <time>2020-08-06T07:51:26.242Z</time>
      </trkpt>
      <trkpt lat="38.770998" lon="-2.446101">
        <ele>1036.212440</ele>
        <time>2020-08-06T07:51:29.234Z</time>
      </trkpt>
      <trkpt lat="38.770923" lon="-2.446217">
        <ele>1037.612866</ele>
        <time>2020-08-06T07:51:32.233Z</time>
      </trkpt>
      <trkpt lat="38.770860" lon="-2.446342">
        <ele>1038.996066</ele>
        <time>2020-08-06T07:51:35.233Z</time>
      </trkpt>
      <trkpt lat="38.770796" lon="-2.446458">
        <ele>1040.316663</ele>
        <time>2020-08-06T07:51:38.247Z</time>
      </trkpt>
      <trkpt lat="38.770736" lon="-2.446559">
        <ele>1041.496666</ele>
        <time>2020-08-06T07:51:41.237Z</time>
      </trkpt>
      <trkpt lat="38.770639" lon="-2.446562">
        <ele>1042.653177</ele>
        <time>2020-08-06T07:51:44.231Z</time>
      </trkpt>
      <trkpt lat="38.770555" lon="-2.446519">
        <ele>1043.731197</ele>
        <time>2020-08-06T07:51:47.233Z</time>
      </trkpt>
      <trkpt lat="38.770471" lon="-2.446467">
        <ele>1044.842937</ele>
        <time>2020-08-06T07:51:51.237Z</time>
      </trkpt>
      <trkpt lat="38.770452" lon="-2.446580">
        <ele>1045.917192</ele>
        <time>2020-08-06T08:10:09.241Z</time>
      </trkpt>
      <trkpt lat="38.770343" lon="-2.446700">
        <ele>1047.016201</ele>
        <time>2020-08-06T08:10:56.238Z</time>
      </trkpt>
      <trkpt lat="38.770251" lon="-2.446773">
        <ele>1047.028357</ele>
        <time>2020-08-06T08:11:01.241Z</time>
      </trkpt>
      <trkpt lat="38.770164" lon="-2.446859">
        <ele>1047.040700</ele>
        <time>2020-08-06T08:11:05.237Z</time>
      </trkpt>
      <trkpt lat="38.770084" lon="-2.446962">
        <ele>1047.053438</ele>
        <time>2020-08-06T08:11:09.235Z</time>
      </trkpt>
      <trkpt lat="38.770008" lon="-2.447085">
        <ele>1047.067188</ele>
        <time>2020-08-06T08:11:13.253Z</time>
      </trkpt>
      <trkpt lat="38.769953" lon="-2.447185">
        <ele>1047.077910</ele>
        <time>2020-08-06T08:11:16.237Z</time>
      </trkpt>
      <trkpt lat="38.769888" lon="-2.447270">
        <ele>1047.088342</ele>
        <time>2020-08-06T08:11:19.246Z</time>
      </trkpt>
      <trkpt lat="38.769826" lon="-2.447392">
        <ele>1047.101100</ele>
        <time>2020-08-06T08:11:23.230Z</time>
      </trkpt>
      <trkpt lat="38.769770" lon="-2.447492">
        <ele>1047.111888</ele>
        <time>2020-08-06T08:11:27.223Z</time>
      </trkpt>
      <trkpt lat="38.769701" lon="-2.447582">
        <ele>1047.122946</ele>
        <time>2020-08-06T08:11:49.239Z</time>
      </trkpt>
      <trkpt lat="38.769632" lon="-2.447689">
        <ele>1047.135112</ele>
        <time>2020-08-06T08:11:54.239Z</time>
      </trkpt>
      <trkpt lat="38.769565" lon="-2.447794">
        <ele>1047.147000</ele>
        <time>2020-08-06T08:11:58.235Z</time>
      </trkpt>
      <trkpt lat="38.769510" lon="-2.447913">
        <ele>1047.159120</ele>
        <time>2020-08-06T08:12:02.240Z</time>
      </trkpt>
      <trkpt lat="38.769445" lon="-2.448027">
        <ele>1047.171494</ele>
        <time>2020-08-06T08:12:06.233Z</time>
      </trkpt>
      <trkpt lat="38.769385" lon="-2.448115">
        <ele>1047.181736</ele>
        <time>2020-08-06T08:12:09.241Z</time>
      </trkpt>
      <trkpt lat="38.769313" lon="-2.448193">
        <ele>1047.192327</ele>
        <time>2020-08-06T08:12:13.241Z</time>
      </trkpt>
      <trkpt lat="38.769382" lon="-2.448294">
        <ele>1047.204092</ele>
        <time>2020-08-06T08:12:22.235Z</time>
      </trkpt>
      <trkpt lat="38.769448" lon="-2.448395">
        <ele>1047.236634</ele>
        <time>2020-08-06T08:12:27.233Z</time>
      </trkpt>
      <trkpt lat="38.769476" lon="-2.448529">
        <ele>1047.329676</ele>
        <time>2020-08-06T08:12:32.220Z</time>
      </trkpt>
      <trkpt lat="38.769486" lon="-2.448676">
        <ele>1047.428640</ele>
        <time>2020-08-06T08:12:36.234Z</time>
      </trkpt>
      <trkpt lat="38.769512" lon="-2.448818">
        <ele>1047.526466</ele>
        <time>2020-08-06T08:12:39.234Z</time>
      </trkpt>
      <trkpt lat="38.769476" lon="-2.448935">
        <ele>1047.610825</ele>
        <time>2020-08-06T08:12:42.221Z</time>
      </trkpt>
      <trkpt lat="38.769400" lon="-2.449047">
        <ele>1047.710405</ele>
        <time>2020-08-06T08:12:46.248Z</time>
      </trkpt>
      <trkpt lat="38.769332" lon="-2.449168">
        <ele>1047.810440</ele>
        <time>2020-08-06T08:12:50.244Z</time>
      </trkpt>
      <trkpt lat="38.769267" lon="-2.449290">
        <ele>1047.909542</ele>
        <time>2020-08-06T08:12:54.236Z</time>
      </trkpt>
      <trkpt lat="38.769210" lon="-2.449388">
        <ele>1047.991542</ele>
        <time>2020-08-06T08:12:57.235Z</time>
      </trkpt>
      <trkpt lat="38.769150" lon="-2.449502">
        <ele>1048.083789</ele>
        <time>2020-08-06T08:13:00.246Z</time>
      </trkpt>
      <trkpt lat="38.769079" lon="-2.449626">
        <ele>1048.186970</ele>
        <time>2020-08-06T08:13:03.230Z</time>
      </trkpt>
      <trkpt lat="38.769013" lon="-2.449744">
        <ele>1048.284368</ele>
        <time>2020-08-06T08:13:06.250Z</time>
      </trkpt>
      <trkpt lat="38.768956" lon="-2.449855">
        <ele>1048.373510</ele>
        <time>2020-08-06T08:13:09.238Z</time>
      </trkpt>
      <trkpt lat="38.768905" lon="-2.449955">
        <ele>1048.453651</ele>
        <time>2020-08-06T08:13:12.252Z</time>
      </trkpt>
      <trkpt lat="38.768849" lon="-2.450045">
        <ele>1048.530878</ele>
        <time>2020-08-06T08:13:15.243Z</time>
      </trkpt>
      <trkpt lat="38.768809" lon="-2.450155">
        <ele>1048.612282</ele>
        <time>2020-08-06T08:13:18.244Z</time>
      </trkpt>
      <trkpt lat="38.768780" lon="-2.450272">
        <ele>1048.694621</ele>
        <time>2020-08-06T08:13:21.228Z</time>
      </trkpt>
      <trkpt lat="38.768721" lon="-2.450406">
        <ele>1048.805620</ele>
        <time>2020-08-06T08:13:25.223Z</time>
      </trkpt>
      <trkpt lat="38.768643" lon="-2.450528">
        <ele>1048.933030</ele>
        <time>2020-08-06T08:13:28.235Z</time>
      </trkpt>
      <trkpt lat="38.768600" lon="-2.450630">
        <ele>1049.026670</ele>
        <time>2020-08-06T08:13:30.230Z</time>
      </trkpt>
      <trkpt lat="38.768561" lon="-2.450734">
        <ele>1049.119865</ele>
        <time>2020-08-06T08:13:32.244Z</time>
      </trkpt>
      <trkpt lat="38.768501" lon="-2.450877">
        <ele>1049.251006</ele>
        <time>2020-08-06T08:13:35.235Z</time>
      </trkpt>
      <trkpt lat="38.768441" lon="-2.451016">
        <ele>1049.379311</ele>
        <time>2020-08-06T08:13:38.239Z</time>
      </trkpt>
      <trkpt lat="38.768381" lon="-2.451158">
        <ele>1049.509741</ele>
        <time>2020-08-06T08:13:41.249Z</time>
      </trkpt>
      <trkpt lat="38.768322" lon="-2.451303">
        <ele>1049.641823</ele>
        <time>2020-08-06T08:13:44.232Z</time>
      </trkpt>
      <trkpt lat="38.768272" lon="-2.451402">
        <ele>1049.737079</ele>
        <time>2020-08-06T08:13:46.234Z</time>
      </trkpt>
      <trkpt lat="38.768228" lon="-2.451503">
        <ele>1049.830511</ele>
        <time>2020-08-06T08:13:48.248Z</time>
      </trkpt>
      <trkpt lat="38.768170" lon="-2.451656">
        <ele>1049.967898</ele>
        <time>2020-08-06T08:13:51.234Z</time>
      </trkpt>
      <trkpt lat="38.768103" lon="-2.451803">
        <ele>1050.105405</ele>
        <time>2020-08-06T08:13:54.235Z</time>
      </trkpt>
      <trkpt lat="38.768039" lon="-2.451948">
        <ele>1050.239962</ele>
        <time>2020-08-06T08:13:57.257Z</time>
      </trkpt>
      <trkpt lat="38.767976" lon="-2.452094">
        <ele>1050.374719</ele>
        <time>2020-08-06T08:14:00.250Z</time>
      </trkpt>
      <trkpt lat="38.767914" lon="-2.452237">
        <ele>1050.506854</ele>
        <time>2020-08-06T08:14:03.236Z</time>
      </trkpt>
      <trkpt lat="38.767854" lon="-2.452384">
        <ele>1050.633293</ele>
        <time>2020-08-06T08:14:06.238Z</time>
      </trkpt>
      <trkpt lat="38.767792" lon="-2.452525">
        <ele>1050.709822</ele>
        <time>2020-08-06T08:14:09.234Z</time>
      </trkpt>
      <trkpt lat="38.767735" lon="-2.452665">
        <ele>1050.784488</ele>
        <time>2020-08-06T08:14:12.235Z</time>
      </trkpt>
      <trkpt lat="38.767676" lon="-2.452801">
        <ele>1050.858066</ele>
        <time>2020-08-06T08:14:15.233Z</time>
      </trkpt>
      <trkpt lat="38.767620" lon="-2.452942">
        <ele>1050.932875</ele>
        <time>2020-08-06T08:14:18.233Z</time>
      </trkpt>
      <trkpt lat="38.767554" lon="-2.453085">
        <ele>1051.011436</ele>
        <time>2020-08-06T08:14:21.243Z</time>
      </trkpt>
      <trkpt lat="38.767496" lon="-2.453226">
        <ele>1051.086803</ele>
        <time>2020-08-06T08:14:24.234Z</time>
      </trkpt>
      <trkpt lat="38.767438" lon="-2.453368">
        <ele>1051.162588</ele>
        <time>2020-08-06T08:14:27.239Z</time>
      </trkpt>
      <trkpt lat="38.767378" lon="-2.453509">
        <ele>1051.238529</ele>
        <time>2020-08-06T08:14:30.233Z</time>
      </trkpt>
      <trkpt lat="38.767320" lon="-2.453641">
        <ele>1051.310161</ele>
        <time>2020-08-06T08:14:33.235Z</time>
      </trkpt>
      <trkpt lat="38.767260" lon="-2.453764">
        <ele>1051.378753</ele>
        <time>2020-08-06T08:14:36.243Z</time>
      </trkpt>
      <trkpt lat="38.767208" lon="-2.453892">
        <ele>1051.446988</ele>
        <time>2020-08-06T08:14:39.234Z</time>
      </trkpt>
      <trkpt lat="38.767155" lon="-2.454023">
        <ele>1051.516761</ele>
        <time>2020-08-06T08:14:42.236Z</time>
      </trkpt>
      <trkpt lat="38.767101" lon="-2.454157">
        <ele>1051.588072</ele>
        <time>2020-08-06T08:14:45.232Z</time>
      </trkpt>
      <trkpt lat="38.767048" lon="-2.454293">
        <ele>1051.659952</ele>
        <time>2020-08-06T08:14:48.242Z</time>
      </trkpt>
      <trkpt lat="38.766992" lon="-2.454428">
        <ele>1051.734021</ele>
        <time>2020-08-06T08:14:51.231Z</time>
      </trkpt>
      <trkpt lat="38.766933" lon="-2.454568">
        <ele>1051.816279</ele>
        <time>2020-08-06T08:14:54.237Z</time>
      </trkpt>
      <trkpt lat="38.766867" lon="-2.454709">
        <ele>1051.901285</ele>
        <time>2020-08-06T08:14:57.247Z</time>
      </trkpt>
      <trkpt lat="38.766824" lon="-2.454813">
        <ele>1051.962132</ele>
        <time>2020-08-06T08:14:59.243Z</time>
      </trkpt>
      <trkpt lat="38.766760" lon="-2.454965">
        <ele>1052.051423</ele>
        <time>2020-08-06T08:15:02.234Z</time>
      </trkpt>
      <trkpt lat="38.766701" lon="-2.455121">
        <ele>1052.141043</ele>
        <time>2020-08-06T08:15:05.236Z</time>
      </trkpt>
      <trkpt lat="38.766636" lon="-2.455266">
        <ele>1052.227496</ele>
        <time>2020-08-06T08:15:08.241Z</time>
      </trkpt>
      <trkpt lat="38.766587" lon="-2.455371">
        <ele>1052.290747</ele>
        <time>2020-08-06T08:15:10.239Z</time>
      </trkpt>
      <trkpt lat="38.766543" lon="-2.455484">
        <ele>1052.356034</ele>
        <time>2020-08-06T08:15:12.245Z</time>
      </trkpt>
      <trkpt lat="38.766499" lon="-2.455591">
        <ele>1052.418562</ele>
        <time>2020-08-06T08:15:14.233Z</time>
      </trkpt>
      <trkpt lat="38.766455" lon="-2.455694">
        <ele>1052.479269</ele>
        <time>2020-08-06T08:15:16.228Z</time>
      </trkpt>
      <trkpt lat="38.766405" lon="-2.455795">
        <ele>1052.541108</ele>
        <time>2020-08-06T08:15:18.231Z</time>
      </trkpt>
      <trkpt lat="38.766337" lon="-2.455946">
        <ele>1052.631242</ele>
        <time>2020-08-06T08:15:21.234Z</time>
      </trkpt>
      <trkpt lat="38.766273" lon="-2.456091">
        <ele>1052.717367</ele>
        <time>2020-08-06T08:15:24.236Z</time>
      </trkpt>
      <trkpt lat="38.766215" lon="-2.456237">
        <ele>1052.802064</ele>
        <time>2020-08-06T08:15:27.235Z</time>
      </trkpt>
      <trkpt lat="38.766170" lon="-2.456337">
        <ele>1052.861744</ele>
        <time>2020-08-06T08:15:29.238Z</time>
      </trkpt>
      <trkpt lat="38.766106" lon="-2.456484">
        <ele>1052.962455</ele>
        <time>2020-08-06T08:15:32.233Z</time>
      </trkpt>
      <trkpt lat="38.766045" lon="-2.456634">
        <ele>1053.077616</ele>
        <time>2020-08-06T08:15:35.251Z</time>
      </trkpt>
      <trkpt lat="38.765989" lon="-2.456783">
        <ele>1053.190211</ele>
        <time>2020-08-06T08:15:38.232Z</time>
      </trkpt>
      <trkpt lat="38.765925" lon="-2.456930">
        <ele>1053.304820</ele>
        <time>2020-08-06T08:15:41.244Z</time>
      </trkpt>
      <trkpt lat="38.765866" lon="-2.457079">
        <ele>1053.418577</ele>
        <time>2020-08-06T08:15:44.242Z</time>
      </trkpt>
      <trkpt lat="38.765803" lon="-2.457224">
        <ele>1053.531571</ele>
        <time>2020-08-06T08:15:47.240Z</time>
      </trkpt>
      <trkpt lat="38.765743" lon="-2.457365">
        <ele>1053.640916</ele>
        <time>2020-08-06T08:15:50.233Z</time>
      </trkpt>
      <trkpt lat="38.765702" lon="-2.457468">
        <ele>1053.719638</ele>
        <time>2020-08-06T08:15:52.238Z</time>
      </trkpt>
      <trkpt lat="38.765639" lon="-2.457617">
        <ele>1053.835019</ele>
        <time>2020-08-06T08:15:55.241Z</time>
      </trkpt>
      <trkpt lat="38.765578" lon="-2.457763">
        <ele>1053.947774</ele>
        <time>2020-08-06T08:15:58.246Z</time>
      </trkpt>
      <trkpt lat="38.765517" lon="-2.457906">
        <ele>1054.058732</ele>
        <time>2020-08-06T08:16:01.231Z</time>
      </trkpt>
      <trkpt lat="38.765460" lon="-2.458043">
        <ele>1054.164438</ele>
        <time>2020-08-06T08:16:04.237Z</time>
      </trkpt>
      <trkpt lat="38.765406" lon="-2.458182">
        <ele>1054.270152</ele>
        <time>2020-08-06T08:16:07.232Z</time>
      </trkpt>
      <trkpt lat="38.765346" lon="-2.458313">
        <ele>1054.373574</ele>
        <time>2020-08-06T08:16:10.241Z</time>
      </trkpt>
      <trkpt lat="38.765287" lon="-2.458436">
        <ele>1054.471878</ele>
        <time>2020-08-06T08:16:13.231Z</time>
      </trkpt>
      <trkpt lat="38.765235" lon="-2.458557">
        <ele>1054.593526</ele>
        <time>2020-08-06T08:16:16.228Z</time>
      </trkpt>
      <trkpt lat="38.765182" lon="-2.458674">
        <ele>1054.713865</ele>
        <time>2020-08-06T08:16:19.247Z</time>
      </trkpt>
      <trkpt lat="38.765129" lon="-2.458782">
        <ele>1054.827354</ele>
        <time>2020-08-06T08:16:22.238Z</time>
      </trkpt>
      <trkpt lat="38.765066" lon="-2.458896">
        <ele>1054.951621</ele>
        <time>2020-08-06T08:16:25.235Z</time>
      </trkpt>
      <trkpt lat="38.765004" lon="-2.459006">
        <ele>1055.072333</ele>
        <time>2020-08-06T08:16:28.252Z</time>
      </trkpt>
      <trkpt lat="38.764942" lon="-2.459115">
        <ele>1055.192324</ele>
        <time>2020-08-06T08:16:31.232Z</time>
      </trkpt>
      <trkpt lat="38.764883" lon="-2.459228">
        <ele>1055.313271</ele>
        <time>2020-08-06T08:16:34.232Z</time>
      </trkpt>
      <trkpt lat="38.764820" lon="-2.459336">
        <ele>1055.433225</ele>
        <time>2020-08-06T08:16:37.234Z</time>
      </trkpt>
      <trkpt lat="38.764751" lon="-2.459449">
        <ele>1055.560870</ele>
        <time>2020-08-06T08:16:40.235Z</time>
      </trkpt>
      <trkpt lat="38.764685" lon="-2.459558">
        <ele>1055.683606</ele>
        <time>2020-08-06T08:16:43.235Z</time>
      </trkpt>
      <trkpt lat="38.764612" lon="-2.459660">
        <ele>1055.806739</ele>
        <time>2020-08-06T08:16:46.250Z</time>
      </trkpt>
      <trkpt lat="38.764544" lon="-2.459765">
        <ele>1055.928130</ele>
        <time>2020-08-06T08:16:49.229Z</time>
      </trkpt>
      <trkpt lat="38.764476" lon="-2.459868">
        <ele>1056.048158</ele>
        <time>2020-08-06T08:16:52.246Z</time>
      </trkpt>
      <trkpt lat="38.764409" lon="-2.459973">
        <ele>1056.168824</ele>
        <time>2020-08-06T08:16:55.240Z</time>
      </trkpt>
      <trkpt lat="38.764339" lon="-2.460075">
        <ele>1056.289670</ele>
        <time>2020-08-06T08:16:58.232Z</time>
      </trkpt>
      <trkpt lat="38.764276" lon="-2.460171">
        <ele>1056.401262</ele>
        <time>2020-08-06T08:17:01.238Z</time>
      </trkpt>
      <trkpt lat="38.764209" lon="-2.460272">
        <ele>1056.519196</ele>
        <time>2020-08-06T08:17:04.229Z</time>
      </trkpt>
      <trkpt lat="38.764141" lon="-2.460363">
        <ele>1056.682091</ele>
        <time>2020-08-06T08:17:07.232Z</time>
      </trkpt>
      <trkpt lat="38.764070" lon="-2.460458">
        <ele>1056.856346</ele>
        <time>2020-08-06T08:17:10.234Z</time>
      </trkpt>
      <trkpt lat="38.763994" lon="-2.460551">
        <ele>1057.034743</ele>
        <time>2020-08-06T08:17:13.231Z</time>
      </trkpt>
      <trkpt lat="38.763917" lon="-2.460649">
        <ele>1057.218975</ele>
        <time>2020-08-06T08:17:16.238Z</time>
      </trkpt>
      <trkpt lat="38.763839" lon="-2.460744">
        <ele>1057.401659</ele>
        <time>2020-08-06T08:17:19.238Z</time>
      </trkpt>
      <trkpt lat="38.763749" lon="-2.460851">
        <ele>1057.610077</ele>
        <time>2020-08-06T08:17:22.250Z</time>
      </trkpt>
      <trkpt lat="38.763661" lon="-2.460961">
        <ele>1057.818771</ele>
        <time>2020-08-06T08:17:25.239Z</time>
      </trkpt>
      <trkpt lat="38.763589" lon="-2.461068">
        <ele>1058.005929</ele>
        <time>2020-08-06T08:17:28.235Z</time>
      </trkpt>
      <trkpt lat="38.763512" lon="-2.461173">
        <ele>1058.196805</ele>
        <time>2020-08-06T08:17:31.240Z</time>
      </trkpt>
      <trkpt lat="38.763419" lon="-2.461291">
        <ele>1058.418981</ele>
        <time>2020-08-06T08:17:34.260Z</time>
      </trkpt>
      <trkpt lat="38.763353" lon="-2.461391">
        <ele>1058.592472</ele>
        <time>2020-08-06T08:17:36.235Z</time>
      </trkpt>
      <trkpt lat="38.763287" lon="-2.461494">
        <ele>1058.769014</ele>
        <time>2020-08-06T08:17:38.245Z</time>
      </trkpt>
      <trkpt lat="38.763205" lon="-2.461603">
        <ele>1058.969582</ele>
        <time>2020-08-06T08:17:40.231Z</time>
      </trkpt>
      <trkpt lat="38.763120" lon="-2.461714">
        <ele>1059.175602</ele>
        <time>2020-08-06T08:17:42.233Z</time>
      </trkpt>
      <trkpt lat="38.763043" lon="-2.461815">
        <ele>1059.362655</ele>
        <time>2020-08-06T08:17:44.249Z</time>
      </trkpt>
      <trkpt lat="38.762972" lon="-2.461911">
        <ele>1059.537870</ele>
        <time>2020-08-06T08:17:46.242Z</time>
      </trkpt>
      <trkpt lat="38.762879" lon="-2.462017">
        <ele>1059.742536</ele>
        <time>2020-08-06T08:17:49.237Z</time>
      </trkpt>
      <trkpt lat="38.762803" lon="-2.462098">
        <ele>1059.903696</ele>
        <time>2020-08-06T08:17:52.232Z</time>
      </trkpt>
      <trkpt lat="38.762716" lon="-2.462210">
        <ele>1060.104735</ele>
        <time>2020-08-06T08:17:56.230Z</time>
      </trkpt>
      <trkpt lat="38.762645" lon="-2.462300">
        <ele>1060.267543</ele>
        <time>2020-08-06T08:17:59.232Z</time>
      </trkpt>
      <trkpt lat="38.762575" lon="-2.462392">
        <ele>1060.431006</ele>
        <time>2020-08-06T08:18:02.236Z</time>
      </trkpt>
      <trkpt lat="38.762494" lon="-2.462501">
        <ele>1060.622483</ele>
        <time>2020-08-06T08:18:06.235Z</time>
      </trkpt>
      <trkpt lat="38.762411" lon="-2.462606">
        <ele>1060.812619</ele>
        <time>2020-08-06T08:18:10.242Z</time>
      </trkpt>
      <trkpt lat="38.762330" lon="-2.462718">
        <ele>1061.006877</ele>
        <time>2020-08-06T08:18:14.239Z</time>
      </trkpt>
      <trkpt lat="38.762266" lon="-2.462805">
        <ele>1061.158976</ele>
        <time>2020-08-06T08:18:17.229Z</time>
      </trkpt>
      <trkpt lat="38.762187" lon="-2.462901">
        <ele>1061.336467</ele>
        <time>2020-08-06T08:18:21.248Z</time>
      </trkpt>
      <trkpt lat="38.762114" lon="-2.462995">
        <ele>1061.505177</ele>
        <time>2020-08-06T08:18:25.241Z</time>
      </trkpt>
      <trkpt lat="38.762042" lon="-2.463086">
        <ele>1061.670039</ele>
        <time>2020-08-06T08:18:28.229Z</time>
      </trkpt>
      <trkpt lat="38.761965" lon="-2.463182">
        <ele>1061.845177</ele>
        <time>2020-08-06T08:18:31.243Z</time>
      </trkpt>
      <trkpt lat="38.761899" lon="-2.463268">
        <ele>1061.998625</ele>
        <time>2020-08-06T08:18:34.236Z</time>
      </trkpt>
      <trkpt lat="38.761832" lon="-2.463347">
        <ele>1062.147057</ele>
        <time>2020-08-06T08:18:37.234Z</time>
      </trkpt>
      <trkpt lat="38.761767" lon="-2.463429">
        <ele>1062.295756</ele>
        <time>2020-08-06T08:18:40.241Z</time>
      </trkpt>
      <trkpt lat="38.761705" lon="-2.463513">
        <ele>1062.442843</ele>
        <time>2020-08-06T08:18:43.230Z</time>
      </trkpt>
      <trkpt lat="38.761635" lon="-2.463594">
        <ele>1062.487802</ele>
        <time>2020-08-06T08:18:46.243Z</time>
      </trkpt>
      <trkpt lat="38.761557" lon="-2.463690">
        <ele>1062.427969</ele>
        <time>2020-08-06T08:18:49.231Z</time>
      </trkpt>
      <trkpt lat="38.761474" lon="-2.463813">
        <ele>1062.357770</ele>
        <time>2020-08-06T08:18:52.239Z</time>
      </trkpt>
      <trkpt lat="38.761415" lon="-2.463901">
        <ele>1062.307685</ele>
        <time>2020-08-06T08:18:54.238Z</time>
      </trkpt>
      <trkpt lat="38.761334" lon="-2.464013">
        <ele>1062.241761</ele>
        <time>2020-08-06T08:18:57.230Z</time>
      </trkpt>
      <trkpt lat="38.761255" lon="-2.464112">
        <ele>1062.180629</ele>
        <time>2020-08-06T08:19:00.251Z</time>
      </trkpt>
      <trkpt lat="38.761184" lon="-2.464221">
        <ele>1062.119336</ele>
        <time>2020-08-06T08:19:03.235Z</time>
      </trkpt>
      <trkpt lat="38.761104" lon="-2.464327">
        <ele>1062.055672</ele>
        <time>2020-08-06T08:19:06.226Z</time>
      </trkpt>
      <trkpt lat="38.761022" lon="-2.464436">
        <ele>1061.990309</ele>
        <time>2020-08-06T08:19:09.227Z</time>
      </trkpt>
      <trkpt lat="38.760936" lon="-2.464541">
        <ele>1061.924591</ele>
        <time>2020-08-06T08:19:12.236Z</time>
      </trkpt>
      <trkpt lat="38.760854" lon="-2.464651">
        <ele>1061.858916</ele>
        <time>2020-08-06T08:19:15.232Z</time>
      </trkpt>
      <trkpt lat="38.760773" lon="-2.464769">
        <ele>1061.791070</ele>
        <time>2020-08-06T08:19:18.233Z</time>
      </trkpt>
      <trkpt lat="38.760690" lon="-2.464878">
        <ele>1061.725321</ele>
        <time>2020-08-06T08:19:21.248Z</time>
      </trkpt>
      <trkpt lat="38.760603" lon="-2.464983">
        <ele>1061.659201</ele>
        <time>2020-08-06T08:19:24.248Z</time>
      </trkpt>
      <trkpt lat="38.760533" lon="-2.465065">
        <ele>1061.606729</ele>
        <time>2020-08-06T08:19:27.236Z</time>
      </trkpt>
      <trkpt lat="38.760462" lon="-2.465149">
        <ele>1061.553266</ele>
        <time>2020-08-06T08:19:31.249Z</time>
      </trkpt>
      <trkpt lat="38.760389" lon="-2.465241">
        <ele>1061.417710</ele>
        <time>2020-08-06T08:19:35.233Z</time>
      </trkpt>
      <trkpt lat="38.760305" lon="-2.465346">
        <ele>1061.132780</ele>
        <time>2020-08-06T08:19:40.247Z</time>
      </trkpt>
      <trkpt lat="38.760268" lon="-2.465507">
        <ele>1060.814862</ele>
        <time>2020-08-06T08:19:43.233Z</time>
      </trkpt>
      <trkpt lat="38.760282" lon="-2.465649">
        <ele>1060.543758</ele>
        <time>2020-08-06T08:19:45.240Z</time>
      </trkpt>
      <trkpt lat="38.760285" lon="-2.465821">
        <ele>1060.217892</ele>
        <time>2020-08-06T08:19:47.249Z</time>
      </trkpt>
      <trkpt lat="38.760286" lon="-2.465989">
        <ele>1059.899674</ele>
        <time>2020-08-06T08:19:49.228Z</time>
      </trkpt>
      <trkpt lat="38.760275" lon="-2.466147">
        <ele>1059.599216</ele>
        <time>2020-08-06T08:19:51.234Z</time>
      </trkpt>
      <trkpt lat="38.760298" lon="-2.466312">
        <ele>1059.281735</ele>
        <time>2020-08-06T08:19:53.233Z</time>
      </trkpt>
      <trkpt lat="38.760370" lon="-2.466464">
        <ele>1058.944875</ele>
        <time>2020-08-06T08:19:55.232Z</time>
      </trkpt>
      <trkpt lat="38.760487" lon="-2.466592">
        <ele>1058.571314</ele>
        <time>2020-08-06T08:19:57.226Z</time>
      </trkpt>
      <trkpt lat="38.760628" lon="-2.466708">
        <ele>1058.164403</ele>
        <time>2020-08-06T08:19:59.223Z</time>
      </trkpt>
      <trkpt lat="38.760764" lon="-2.466807">
        <ele>1057.784544</ele>
        <time>2020-08-06T08:20:01.242Z</time>
      </trkpt>
      <trkpt lat="38.760893" lon="-2.466897">
        <ele>1057.427830</ele>
        <time>2020-08-06T08:20:03.231Z</time>
      </trkpt>
      <trkpt lat="38.761004" lon="-2.466954">
        <ele>1057.163145</ele>
        <time>2020-08-06T08:20:05.233Z</time>
      </trkpt>
      <trkpt lat="38.761083" lon="-2.467028">
        <ele>1057.377679</ele>
        <time>2020-08-06T08:20:07.241Z</time>
      </trkpt>
      <trkpt lat="38.761180" lon="-2.467119">
        <ele>1057.641234</ele>
        <time>2020-08-06T08:20:10.227Z</time>
      </trkpt>
      <trkpt lat="38.761273" lon="-2.467201">
        <ele>1057.888730</ele>
        <time>2020-08-06T08:20:13.231Z</time>
      </trkpt>
      <trkpt lat="38.761353" lon="-2.467279">
        <ele>1058.109109</ele>
        <time>2020-08-06T08:20:16.229Z</time>
      </trkpt>
      <trkpt lat="38.761422" lon="-2.467365">
        <ele>1058.320110</ele>
        <time>2020-08-06T08:20:20.235Z</time>
      </trkpt>
      <trkpt lat="38.761502" lon="-2.467441">
        <ele>1058.538437</ele>
        <time>2020-08-06T08:20:24.235Z</time>
      </trkpt>
      <trkpt lat="38.761582" lon="-2.467516">
        <ele>1058.755750</ele>
        <time>2020-08-06T08:20:28.321Z</time>
      </trkpt>
      <trkpt lat="38.761667" lon="-2.467599">
        <ele>1058.990032</ele>
        <time>2020-08-06T08:20:32.234Z</time>
      </trkpt>
      <trkpt lat="38.761748" lon="-2.467687">
        <ele>1059.222830</ele>
        <time>2020-08-06T08:20:36.229Z</time>
      </trkpt>
      <trkpt lat="38.761822" lon="-2.467770">
        <ele>1059.438416</ele>
        <time>2020-08-06T08:20:40.233Z</time>
      </trkpt>
      <trkpt lat="38.761908" lon="-2.467877">
        <ele>1059.701177</ele>
        <time>2020-08-06T08:20:44.234Z</time>
      </trkpt>
      <trkpt lat="38.761973" lon="-2.467961">
        <ele>1059.903537</ele>
        <time>2020-08-06T08:20:47.230Z</time>
      </trkpt>
      <trkpt lat="38.762037" lon="-2.468053">
        <ele>1060.114359</ele>
        <time>2020-08-06T08:20:50.233Z</time>
      </trkpt>
      <trkpt lat="38.762105" lon="-2.468150">
        <ele>1060.337401</ele>
        <time>2020-08-06T08:20:53.232Z</time>
      </trkpt>
      <trkpt lat="38.762170" lon="-2.468258">
        <ele>1060.570688</ele>
        <time>2020-08-06T08:20:56.230Z</time>
      </trkpt>
      <trkpt lat="38.762235" lon="-2.468391">
        <ele>1060.839089</ele>
        <time>2020-08-06T08:20:59.242Z</time>
      </trkpt>
      <trkpt lat="38.762279" lon="-2.468530">
        <ele>1061.095214</ele>
        <time>2020-08-06T08:21:02.235Z</time>
      </trkpt>
      <trkpt lat="38.762319" lon="-2.468672">
        <ele>1061.072904</ele>
        <time>2020-08-06T08:21:05.242Z</time>
      </trkpt>
      <trkpt lat="38.762345" lon="-2.468824">
        <ele>1061.049910</ele>
        <time>2020-08-06T08:21:08.234Z</time>
      </trkpt>
      <trkpt lat="38.762365" lon="-2.468973">
        <ele>1061.027569</ele>
        <time>2020-08-06T08:21:11.238Z</time>
      </trkpt>
      <trkpt lat="38.762381" lon="-2.469120">
        <ele>1061.005637</ele>
        <time>2020-08-06T08:21:14.242Z</time>
      </trkpt>
      <trkpt lat="38.762405" lon="-2.469267">
        <ele>1060.983444</ele>
        <time>2020-08-06T08:21:17.233Z</time>
      </trkpt>
      <trkpt lat="38.762427" lon="-2.469412">
        <ele>1060.961616</ele>
        <time>2020-08-06T08:21:20.236Z</time>
      </trkpt>
      <trkpt lat="38.762446" lon="-2.469560">
        <ele>1060.939452</ele>
        <time>2020-08-06T08:21:23.229Z</time>
      </trkpt>
      <trkpt lat="38.762468" lon="-2.469708">
        <ele>1060.917189</ele>
        <time>2020-08-06T08:21:26.241Z</time>
      </trkpt>
      <trkpt lat="38.762487" lon="-2.469860">
        <ele>1060.894442</ele>
        <time>2020-08-06T08:21:29.241Z</time>
      </trkpt>
      <trkpt lat="38.762511" lon="-2.470021">
        <ele>1060.870221</ele>
        <time>2020-08-06T08:21:32.253Z</time>
      </trkpt>
      <trkpt lat="38.762533" lon="-2.470134">
        <ele>1060.853011</ele>
        <time>2020-08-06T08:21:34.237Z</time>
      </trkpt>
      <trkpt lat="38.762557" lon="-2.470247">
        <ele>1060.835705</ele>
        <time>2020-08-06T08:21:36.223Z</time>
      </trkpt>
      <trkpt lat="38.762574" lon="-2.470361">
        <ele>1060.818555</ele>
        <time>2020-08-06T08:21:38.236Z</time>
      </trkpt>
      <trkpt lat="38.762589" lon="-2.470480">
        <ele>1060.800742</ele>
        <time>2020-08-06T08:21:40.231Z</time>
      </trkpt>
      <trkpt lat="38.762621" lon="-2.470603">
        <ele>1060.781582</ele>
        <time>2020-08-06T08:21:42.243Z</time>
      </trkpt>
      <trkpt lat="38.762648" lon="-2.470730">
        <ele>1060.762131</ele>
        <time>2020-08-06T08:21:44.237Z</time>
      </trkpt>
      <trkpt lat="38.762683" lon="-2.470851">
        <ele>1060.670561</ele>
        <time>2020-08-06T08:21:46.231Z</time>
      </trkpt>
      <trkpt lat="38.762732" lon="-2.470970">
        <ele>1060.523483</ele>
        <time>2020-08-06T08:21:48.235Z</time>
      </trkpt>
      <trkpt lat="38.762795" lon="-2.471075">
        <ele>1060.378685</ele>
        <time>2020-08-06T08:21:50.232Z</time>
      </trkpt>
      <trkpt lat="38.762874" lon="-2.471175">
        <ele>1060.223103</ele>
        <time>2020-08-06T08:21:52.233Z</time>
      </trkpt>
      <trkpt lat="38.762953" lon="-2.471266">
        <ele>1060.074267</ele>
        <time>2020-08-06T08:21:54.231Z</time>
      </trkpt>
      <trkpt lat="38.763023" lon="-2.471350">
        <ele>1059.939899</ele>
        <time>2020-08-06T08:21:56.233Z</time>
      </trkpt>
      <trkpt lat="38.763100" lon="-2.471447">
        <ele>1059.788615</ele>
        <time>2020-08-06T08:21:58.244Z</time>
      </trkpt>
      <trkpt lat="38.763170" lon="-2.471548">
        <ele>1059.640929</ele>
        <time>2020-08-06T08:22:00.237Z</time>
      </trkpt>
      <trkpt lat="38.763237" lon="-2.471647">
        <ele>1059.497661</ele>
        <time>2020-08-06T08:22:02.236Z</time>
      </trkpt>
      <trkpt lat="38.763308" lon="-2.471740">
        <ele>1059.355413</ele>
        <time>2020-08-06T08:22:04.248Z</time>
      </trkpt>
      <trkpt lat="38.763380" lon="-2.471833">
        <ele>1059.212182</ele>
        <time>2020-08-06T08:22:06.232Z</time>
      </trkpt>
      <trkpt lat="38.763446" lon="-2.471932">
        <ele>1059.069828</ele>
        <time>2020-08-06T08:22:08.229Z</time>
      </trkpt>
      <trkpt lat="38.763512" lon="-2.472028">
        <ele>1058.929951</ele>
        <time>2020-08-06T08:22:10.242Z</time>
      </trkpt>
      <trkpt lat="38.763582" lon="-2.472127">
        <ele>1058.783892</ele>
        <time>2020-08-06T08:22:12.233Z</time>
      </trkpt>
      <trkpt lat="38.763645" lon="-2.472224">
        <ele>1058.645921</ele>
        <time>2020-08-06T08:22:14.239Z</time>
      </trkpt>
      <trkpt lat="38.763710" lon="-2.472321">
        <ele>1058.506139</ele>
        <time>2020-08-06T08:22:16.229Z</time>
      </trkpt>
      <trkpt lat="38.763777" lon="-2.472418">
        <ele>1058.364515</ele>
        <time>2020-08-06T08:22:18.236Z</time>
      </trkpt>
      <trkpt lat="38.763840" lon="-2.472513">
        <ele>1058.229870</ele>
        <time>2020-08-06T08:22:20.235Z</time>
      </trkpt>
      <trkpt lat="38.763913" lon="-2.472607">
        <ele>1058.131578</ele>
        <time>2020-08-06T08:22:22.234Z</time>
      </trkpt>
      <trkpt lat="38.763976" lon="-2.472716">
        <ele>1058.031054</ele>
        <time>2020-08-06T08:22:24.232Z</time>
      </trkpt>
      <trkpt lat="38.764036" lon="-2.472809">
        <ele>1057.941624</ele>
        <time>2020-08-06T08:22:26.235Z</time>
      </trkpt>
      <trkpt lat="38.764100" lon="-2.472908">
        <ele>1057.846347</ele>
        <time>2020-08-06T08:22:28.233Z</time>
      </trkpt>
      <trkpt lat="38.764164" lon="-2.473001">
        <ele>1057.754447</ele>
        <time>2020-08-06T08:22:30.232Z</time>
      </trkpt>
      <trkpt lat="38.764231" lon="-2.473098">
        <ele>1057.658440</ele>
        <time>2020-08-06T08:22:32.241Z</time>
      </trkpt>
      <trkpt lat="38.764298" lon="-2.473197">
        <ele>1057.561318</ele>
        <time>2020-08-06T08:22:34.232Z</time>
      </trkpt>
      <trkpt lat="38.764364" lon="-2.473296">
        <ele>1057.464817</ele>
        <time>2020-08-06T08:22:36.237Z</time>
      </trkpt>
      <trkpt lat="38.764420" lon="-2.473405">
        <ele>1057.368107</ele>
        <time>2020-08-06T08:22:38.235Z</time>
      </trkpt>
      <trkpt lat="38.764480" lon="-2.473510">
        <ele>1057.271661</ele>
        <time>2020-08-06T08:22:40.228Z</time>
      </trkpt>
      <trkpt lat="38.764530" lon="-2.473608">
        <ele>1057.184893</ele>
        <time>2020-08-06T08:22:42.231Z</time>
      </trkpt>
      <trkpt lat="38.764573" lon="-2.473726">
        <ele>1057.088393</ele>
        <time>2020-08-06T08:22:44.235Z</time>
      </trkpt>
      <trkpt lat="38.764611" lon="-2.473839">
        <ele>1056.997220</ele>
        <time>2020-08-06T08:22:46.240Z</time>
      </trkpt>
      <trkpt lat="38.764663" lon="-2.473951">
        <ele>1056.900645</ele>
        <time>2020-08-06T08:22:48.234Z</time>
      </trkpt>
      <trkpt lat="38.764717" lon="-2.474061">
        <ele>1056.804342</ele>
        <time>2020-08-06T08:22:50.227Z</time>
      </trkpt>
      <trkpt lat="38.764768" lon="-2.474171">
        <ele>1056.709527</ele>
        <time>2020-08-06T08:22:52.243Z</time>
      </trkpt>
      <trkpt lat="38.764817" lon="-2.474284">
        <ele>1056.613732</ele>
        <time>2020-08-06T08:22:54.223Z</time>
      </trkpt>
      <trkpt lat="38.764871" lon="-2.474399">
        <ele>1056.511702</ele>
        <time>2020-08-06T08:22:56.231Z</time>
      </trkpt>
      <trkpt lat="38.764929" lon="-2.474515">
        <ele>1056.383462</ele>
        <time>2020-08-06T08:22:58.236Z</time>
      </trkpt>
      <trkpt lat="38.764982" lon="-2.474630">
        <ele>1056.259144</ele>
        <time>2020-08-06T08:23:00.237Z</time>
      </trkpt>
      <trkpt lat="38.765033" lon="-2.474751">
        <ele>1056.131141</ele>
        <time>2020-08-06T08:23:02.239Z</time>
      </trkpt>
      <trkpt lat="38.765072" lon="-2.474886">
        <ele>1055.997163</ele>
        <time>2020-08-06T08:23:04.237Z</time>
      </trkpt>
      <trkpt lat="38.765105" lon="-2.475026">
        <ele>1055.861054</ele>
        <time>2020-08-06T08:23:06.236Z</time>
      </trkpt>
      <trkpt lat="38.765144" lon="-2.475173">
        <ele>1055.716552</ele>
        <time>2020-08-06T08:23:08.247Z</time>
      </trkpt>
      <trkpt lat="38.765181" lon="-2.475324">
        <ele>1055.569254</ele>
        <time>2020-08-06T08:23:10.230Z</time>
      </trkpt>
      <trkpt lat="38.765222" lon="-2.475480">
        <ele>1055.416053</ele>
        <time>2020-08-06T08:23:12.233Z</time>
      </trkpt>
      <trkpt lat="38.765279" lon="-2.475626">
        <ele>1055.264104</ele>
        <time>2020-08-06T08:23:14.233Z</time>
      </trkpt>
      <trkpt lat="38.765364" lon="-2.475729">
        <ele>1055.124534</ele>
        <time>2020-08-06T08:23:16.231Z</time>
      </trkpt>
      <trkpt lat="38.765472" lon="-2.475784">
        <ele>1054.985844</ele>
        <time>2020-08-06T08:23:18.225Z</time>
      </trkpt>
      <trkpt lat="38.765573" lon="-2.475822">
        <ele>1054.860218</ele>
        <time>2020-08-06T08:23:20.231Z</time>
      </trkpt>
      <trkpt lat="38.765690" lon="-2.475860">
        <ele>1054.716168</ele>
        <time>2020-08-06T08:23:22.230Z</time>
      </trkpt>
      <trkpt lat="38.765802" lon="-2.475908">
        <ele>1054.575228</ele>
        <time>2020-08-06T08:23:24.245Z</time>
      </trkpt>
      <trkpt lat="38.765917" lon="-2.475943">
        <ele>1054.434161</ele>
        <time>2020-08-06T08:23:26.228Z</time>
      </trkpt>
      <trkpt lat="38.766016" lon="-2.475985">
        <ele>1054.426876</ele>
        <time>2020-08-06T08:23:28.230Z</time>
      </trkpt>
      <trkpt lat="38.766118" lon="-2.476035">
        <ele>1054.521456</ele>
        <time>2020-08-06T08:23:30.236Z</time>
      </trkpt>
      <trkpt lat="38.766214" lon="-2.476093">
        <ele>1054.613370</ele>
        <time>2020-08-06T08:23:32.231Z</time>
      </trkpt>
      <trkpt lat="38.766301" lon="-2.476173">
        <ele>1054.706091</ele>
        <time>2020-08-06T08:23:34.238Z</time>
      </trkpt>
      <trkpt lat="38.766375" lon="-2.476271">
        <ele>1054.798223</ele>
        <time>2020-08-06T08:23:36.244Z</time>
      </trkpt>
      <trkpt lat="38.766440" lon="-2.476375">
        <ele>1054.888238</ele>
        <time>2020-08-06T08:23:38.233Z</time>
      </trkpt>
      <trkpt lat="38.766505" lon="-2.476487">
        <ele>1054.982529</ele>
        <time>2020-08-06T08:23:40.237Z</time>
      </trkpt>
      <trkpt lat="38.766568" lon="-2.476578">
        <ele>1055.064714</ele>
        <time>2020-08-06T08:23:42.231Z</time>
      </trkpt>
      <trkpt lat="38.766631" lon="-2.476671">
        <ele>1055.147913</ele>
        <time>2020-08-06T08:23:44.231Z</time>
      </trkpt>
      <trkpt lat="38.766702" lon="-2.476752">
        <ele>1055.230218</ele>
        <time>2020-08-06T08:23:46.234Z</time>
      </trkpt>
      <trkpt lat="38.766774" lon="-2.476826">
        <ele>1055.310134</ele>
        <time>2020-08-06T08:23:48.230Z</time>
      </trkpt>
      <trkpt lat="38.766871" lon="-2.476898">
        <ele>1055.407207</ele>
        <time>2020-08-06T08:23:50.228Z</time>
      </trkpt>
      <trkpt lat="38.766957" lon="-2.476970">
        <ele>1055.496161</ele>
        <time>2020-08-06T08:23:52.226Z</time>
      </trkpt>
      <trkpt lat="38.767028" lon="-2.477050">
        <ele>1055.578018</ele>
        <time>2020-08-06T08:23:54.235Z</time>
      </trkpt>
      <trkpt lat="38.767110" lon="-2.477130">
        <ele>1055.667255</ele>
        <time>2020-08-06T08:23:56.236Z</time>
      </trkpt>
      <trkpt lat="38.767192" lon="-2.477225">
        <ele>1055.762966</ele>
        <time>2020-08-06T08:23:58.242Z</time>
      </trkpt>
      <trkpt lat="38.767272" lon="-2.477308">
        <ele>1055.852090</ele>
        <time>2020-08-06T08:24:00.235Z</time>
      </trkpt>
      <trkpt lat="38.767353" lon="-2.477386">
        <ele>1055.926937</ele>
        <time>2020-08-06T08:24:02.229Z</time>
      </trkpt>
      <trkpt lat="38.767433" lon="-2.477465">
        <ele>1055.754305</ele>
        <time>2020-08-06T08:24:04.232Z</time>
      </trkpt>
      <trkpt lat="38.767516" lon="-2.477548">
        <ele>1055.574352</ele>
        <time>2020-08-06T08:24:06.241Z</time>
      </trkpt>
      <trkpt lat="38.767596" lon="-2.477624">
        <ele>1055.404131</ele>
        <time>2020-08-06T08:24:08.240Z</time>
      </trkpt>
      <trkpt lat="38.767686" lon="-2.477710">
        <ele>1055.212235</ele>
        <time>2020-08-06T08:24:10.231Z</time>
      </trkpt>
      <trkpt lat="38.767770" lon="-2.477804">
        <ele>1055.021627</ele>
        <time>2020-08-06T08:24:12.232Z</time>
      </trkpt>
      <trkpt lat="38.767863" lon="-2.477892">
        <ele>1054.824022</ele>
        <time>2020-08-06T08:24:14.238Z</time>
      </trkpt>
      <trkpt lat="38.767960" lon="-2.477984">
        <ele>1054.617748</ele>
        <time>2020-08-06T08:24:16.233Z</time>
      </trkpt>
      <trkpt lat="38.768047" lon="-2.478073">
        <ele>1054.427473</ele>
        <time>2020-08-06T08:24:18.233Z</time>
      </trkpt>
      <trkpt lat="38.768135" lon="-2.478162">
        <ele>1054.235858</ele>
        <time>2020-08-06T08:24:20.228Z</time>
      </trkpt>
      <trkpt lat="38.768219" lon="-2.478250">
        <ele>1054.050411</ele>
        <time>2020-08-06T08:24:22.231Z</time>
      </trkpt>
      <trkpt lat="38.768314" lon="-2.478354">
        <ele>1053.836855</ele>
        <time>2020-08-06T08:24:24.232Z</time>
      </trkpt>
      <trkpt lat="38.768403" lon="-2.478435">
        <ele>1053.650263</ele>
        <time>2020-08-06T08:24:26.248Z</time>
      </trkpt>
      <trkpt lat="38.768493" lon="-2.478527">
        <ele>1053.453484</ele>
        <time>2020-08-06T08:24:28.235Z</time>
      </trkpt>
      <trkpt lat="38.768590" lon="-2.478620">
        <ele>1053.246415</ele>
        <time>2020-08-06T08:24:30.240Z</time>
      </trkpt>
      <trkpt lat="38.768680" lon="-2.478718">
        <ele>1053.044554</ele>
        <time>2020-08-06T08:24:32.239Z</time>
      </trkpt>
      <trkpt lat="38.768783" lon="-2.478781">
        <ele>1052.849049</ele>
        <time>2020-08-06T08:24:34.233Z</time>
      </trkpt>
      <trkpt lat="38.768899" lon="-2.478869">
        <ele>1052.610139</ele>
        <time>2020-08-06T08:24:36.228Z</time>
      </trkpt>
      <trkpt lat="38.769005" lon="-2.478969">
        <ele>1052.376877</ele>
        <time>2020-08-06T08:24:38.229Z</time>
      </trkpt>
      <trkpt lat="38.769105" lon="-2.479080">
        <ele>1052.142439</ele>
        <time>2020-08-06T08:24:40.227Z</time>
      </trkpt>
      <trkpt lat="38.769192" lon="-2.479203">
        <ele>1051.912906</ele>
        <time>2020-08-06T08:24:42.231Z</time>
      </trkpt>
      <trkpt lat="38.769280" lon="-2.479330">
        <ele>1051.678074</ele>
        <time>2020-08-06T08:24:44.231Z</time>
      </trkpt>
      <trkpt lat="38.769357" lon="-2.479448">
        <ele>1051.465401</ele>
        <time>2020-08-06T08:24:46.230Z</time>
      </trkpt>
      <trkpt lat="38.769434" lon="-2.479536">
        <ele>1051.282577</ele>
        <time>2020-08-06T08:24:48.230Z</time>
      </trkpt>
      <trkpt lat="38.769523" lon="-2.479630">
        <ele>1051.078199</ele>
        <time>2020-08-06T08:24:50.228Z</time>
      </trkpt>
      <trkpt lat="38.769616" lon="-2.479729">
        <ele>1050.863953</ele>
        <time>2020-08-06T08:24:53.242Z</time>
      </trkpt>
      <trkpt lat="38.769668" lon="-2.479839">
        <ele>1050.686158</ele>
        <time>2020-08-06T08:24:56.229Z</time>
      </trkpt>
      <trkpt lat="38.769666" lon="-2.479975">
        <ele>1050.498157</ele>
        <time>2020-08-06T08:24:59.230Z</time>
      </trkpt>
      <trkpt lat="38.769658" lon="-2.480135">
        <ele>1050.276565</ele>
        <time>2020-08-06T08:25:02.242Z</time>
      </trkpt>
      <trkpt lat="38.769659" lon="-2.480259">
        <ele>1050.105173</ele>
        <time>2020-08-06T08:25:04.242Z</time>
      </trkpt>
      <trkpt lat="38.769663" lon="-2.480401">
        <ele>1049.908785</ele>
        <time>2020-08-06T08:25:06.232Z</time>
      </trkpt>
      <trkpt lat="38.769658" lon="-2.480539">
        <ele>1049.717847</ele>
        <time>2020-08-06T08:25:08.250Z</time>
      </trkpt>
      <trkpt lat="38.769654" lon="-2.480671">
        <ele>1049.647891</ele>
        <time>2020-08-06T08:25:10.234Z</time>
      </trkpt>
      <trkpt lat="38.769651" lon="-2.480805">
        <ele>1049.615544</ele>
        <time>2020-08-06T08:25:12.231Z</time>
      </trkpt>
      <trkpt lat="38.769649" lon="-2.480941">
        <ele>1049.582723</ele>
        <time>2020-08-06T08:25:14.245Z</time>
      </trkpt>
      <trkpt lat="38.769650" lon="-2.481083">
        <ele>1049.548458</ele>
        <time>2020-08-06T08:25:16.231Z</time>
      </trkpt>
      <trkpt lat="38.769650" lon="-2.481219">
        <ele>1049.515643</ele>
        <time>2020-08-06T08:25:18.237Z</time>
      </trkpt>
      <trkpt lat="38.769639" lon="-2.481350">
        <ele>1049.483851</ele>
        <time>2020-08-06T08:25:20.231Z</time>
      </trkpt>
      <trkpt lat="38.769638" lon="-2.481491">
        <ele>1049.449828</ele>
        <time>2020-08-06T08:25:22.224Z</time>
      </trkpt>
      <trkpt lat="38.769625" lon="-2.481627">
        <ele>1049.416766</ele>
        <time>2020-08-06T08:25:24.234Z</time>
      </trkpt>
      <trkpt lat="38.769618" lon="-2.481766">
        <ele>1049.383157</ele>
        <time>2020-08-06T08:25:26.228Z</time>
      </trkpt>
      <trkpt lat="38.769617" lon="-2.481907">
        <ele>1049.349134</ele>
        <time>2020-08-06T08:25:28.237Z</time>
      </trkpt>
      <trkpt lat="38.769614" lon="-2.482047">
        <ele>1049.315340</ele>
        <time>2020-08-06T08:25:30.235Z</time>
      </trkpt>
      <trkpt lat="38.769605" lon="-2.482187">
        <ele>1049.281445</ele>
        <time>2020-08-06T08:25:32.236Z</time>
      </trkpt>
      <trkpt lat="38.769602" lon="-2.482335">
        <ele>1049.245722</ele>
        <time>2020-08-06T08:25:34.242Z</time>
      </trkpt>
      <trkpt lat="38.769600" lon="-2.482480">
        <ele>1049.210729</ele>
        <time>2020-08-06T08:25:36.235Z</time>
      </trkpt>
      <trkpt lat="38.769598" lon="-2.482616">
        <ele>1049.177908</ele>
        <time>2020-08-06T08:25:38.229Z</time>
      </trkpt>
      <trkpt lat="38.769589" lon="-2.482748">
        <ele>1049.145936</ele>
        <time>2020-08-06T08:25:40.245Z</time>
      </trkpt>
      <trkpt lat="38.769600" lon="-2.482869">
        <ele>1049.116542</ele>
        <time>2020-08-06T08:25:42.229Z</time>
      </trkpt>
      <trkpt lat="38.769591" lon="-2.482986">
        <ele>1049.359046</ele>
        <time>2020-08-06T08:25:44.232Z</time>
      </trkpt>
      <trkpt lat="38.769567" lon="-2.483159">
        <ele>1049.743644</ele>
        <time>2020-08-06T08:25:47.240Z</time>
      </trkpt>
      <trkpt lat="38.769553" lon="-2.483277">
        <ele>1050.004889</ele>
        <time>2020-08-06T08:25:49.241Z</time>
      </trkpt>
      <trkpt lat="38.769547" lon="-2.483438">
        <ele>1050.357678</ele>
        <time>2020-08-06T08:25:52.242Z</time>
      </trkpt>
      <trkpt lat="38.769548" lon="-2.483573">
        <ele>1050.653170</ele>
        <time>2020-08-06T08:25:55.236Z</time>
      </trkpt>
      <trkpt lat="38.769545" lon="-2.483724">
        <ele>1050.983777</ele>
        <time>2020-08-06T08:25:58.242Z</time>
      </trkpt>
      <trkpt lat="38.769541" lon="-2.483874">
        <ele>1051.312280</ele>
        <time>2020-08-06T08:26:01.251Z</time>
      </trkpt>
      <trkpt lat="38.769533" lon="-2.484016">
        <ele>1051.623891</ele>
        <time>2020-08-06T08:26:04.232Z</time>
      </trkpt>
      <trkpt lat="38.769523" lon="-2.484170">
        <ele>1051.962123</ele>
        <time>2020-08-06T08:26:07.229Z</time>
      </trkpt>
      <trkpt lat="38.769522" lon="-2.484326">
        <ele>1052.303578</ele>
        <time>2020-08-06T08:26:10.228Z</time>
      </trkpt>
      <trkpt lat="38.769525" lon="-2.484475">
        <ele>1052.629809</ele>
        <time>2020-08-06T08:26:13.232Z</time>
      </trkpt>
      <trkpt lat="38.769518" lon="-2.484618">
        <ele>1052.943415</ele>
        <time>2020-08-06T08:26:16.239Z</time>
      </trkpt>
      <trkpt lat="38.769497" lon="-2.484766">
        <ele>1053.272669</ele>
        <time>2020-08-06T08:26:19.248Z</time>
      </trkpt>
      <trkpt lat="38.769483" lon="-2.484908">
        <ele>1053.585945</ele>
        <time>2020-08-06T08:26:22.220Z</time>
      </trkpt>
      <trkpt lat="38.769472" lon="-2.485054">
        <ele>1053.906989</ele>
        <time>2020-08-06T08:26:25.235Z</time>
      </trkpt>
      <trkpt lat="38.769454" lon="-2.485209">
        <ele>1054.224556</ele>
        <time>2020-08-06T08:26:28.235Z</time>
      </trkpt>
      <trkpt lat="38.769432" lon="-2.485364">
        <ele>1054.467016</ele>
        <time>2020-08-06T08:26:31.234Z</time>
      </trkpt>
      <trkpt lat="38.769415" lon="-2.485514">
        <ele>1054.700287</ele>
        <time>2020-08-06T08:26:34.242Z</time>
      </trkpt>
      <trkpt lat="38.769395" lon="-2.485661">
        <ele>1054.929934</ele>
        <time>2020-08-06T08:26:37.228Z</time>
      </trkpt>
      <trkpt lat="38.769384" lon="-2.485801">
        <ele>1055.146481</ele>
        <time>2020-08-06T08:26:40.237Z</time>
      </trkpt>
      <trkpt lat="38.769379" lon="-2.485949">
        <ele>1055.374462</ele>
        <time>2020-08-06T08:26:43.234Z</time>
      </trkpt>
      <trkpt lat="38.769367" lon="-2.486094">
        <ele>1055.598865</ele>
        <time>2020-08-06T08:26:46.239Z</time>
      </trkpt>
      <trkpt lat="38.769348" lon="-2.486241">
        <ele>1055.828181</ele>
        <time>2020-08-06T08:26:49.233Z</time>
      </trkpt>
      <trkpt lat="38.769331" lon="-2.486393">
        <ele>1056.064499</ele>
        <time>2020-08-06T08:26:52.238Z</time>
      </trkpt>
      <trkpt lat="38.769313" lon="-2.486538">
        <ele>1056.290460</ele>
        <time>2020-08-06T08:26:55.235Z</time>
      </trkpt>
      <trkpt lat="38.769298" lon="-2.486680">
        <ele>1056.510990</ele>
        <time>2020-08-06T08:26:58.242Z</time>
      </trkpt>
      <trkpt lat="38.769279" lon="-2.486822">
        <ele>1056.732719</ele>
        <time>2020-08-06T08:27:01.231Z</time>
      </trkpt>
      <trkpt lat="38.769259" lon="-2.486964">
        <ele>1056.954790</ele>
        <time>2020-08-06T08:27:04.231Z</time>
      </trkpt>
      <trkpt lat="38.769240" lon="-2.487104">
        <ele>1057.173485</ele>
        <time>2020-08-06T08:27:07.235Z</time>
      </trkpt>
      <trkpt lat="38.769220" lon="-2.487243">
        <ele>1057.391014</ele>
        <time>2020-08-06T08:27:10.232Z</time>
      </trkpt>
      <trkpt lat="38.769204" lon="-2.487387">
        <ele>1057.614865</ele>
        <time>2020-08-06T08:27:13.237Z</time>
      </trkpt>
      <trkpt lat="38.769186" lon="-2.487530">
        <ele>1057.793770</ele>
        <time>2020-08-06T08:27:16.231Z</time>
      </trkpt>
      <trkpt lat="38.769170" lon="-2.487663">
        <ele>1057.926872</ele>
        <time>2020-08-06T08:27:19.238Z</time>
      </trkpt>
      <trkpt lat="38.769155" lon="-2.487790">
        <ele>1058.053916</ele>
        <time>2020-08-06T08:27:22.231Z</time>
      </trkpt>
      <trkpt lat="38.769132" lon="-2.487922">
        <ele>1058.187692</ele>
        <time>2020-08-06T08:27:25.233Z</time>
      </trkpt>
      <trkpt lat="38.769119" lon="-2.488066">
        <ele>1058.331068</ele>
        <time>2020-08-06T08:27:28.225Z</time>
      </trkpt>
      <trkpt lat="38.769100" lon="-2.488206">
        <ele>1058.471619</ele>
        <time>2020-08-06T08:27:31.239Z</time>
      </trkpt>
      <trkpt lat="38.769095" lon="-2.488341">
        <ele>1058.605293</ele>
        <time>2020-08-06T08:27:34.232Z</time>
      </trkpt>
      <trkpt lat="38.769095" lon="-2.488478">
        <ele>1058.740794</ele>
        <time>2020-08-06T08:27:37.241Z</time>
      </trkpt>
      <trkpt lat="38.769092" lon="-2.488621">
        <ele>1058.882281</ele>
        <time>2020-08-06T08:27:40.234Z</time>
      </trkpt>
      <trkpt lat="38.769095" lon="-2.488767">
        <ele>1059.026734</ele>
        <time>2020-08-06T08:27:43.229Z</time>
      </trkpt>
      <trkpt lat="38.769094" lon="-2.488916">
        <ele>1059.174110</ele>
        <time>2020-08-06T08:27:46.233Z</time>
      </trkpt>
      <trkpt lat="38.769097" lon="-2.489067">
        <ele>1059.323507</ele>
        <time>2020-08-06T08:27:49.232Z</time>
      </trkpt>
      <trkpt lat="38.769099" lon="-2.489219">
        <ele>1059.473865</ele>
        <time>2020-08-06T08:27:52.229Z</time>
      </trkpt>
      <trkpt lat="38.769103" lon="-2.489367">
        <ele>1059.620334</ele>
        <time>2020-08-06T08:27:55.233Z</time>
      </trkpt>
      <trkpt lat="38.769103" lon="-2.489516">
        <ele>1059.767704</ele>
        <time>2020-08-06T08:27:58.236Z</time>
      </trkpt>
      <trkpt lat="38.769106" lon="-2.489665">
        <ele>1059.915124</ele>
        <time>2020-08-06T08:28:01.234Z</time>
      </trkpt>
      <trkpt lat="38.769105" lon="-2.489814">
        <ele>1060.073468</ele>
        <time>2020-08-06T08:28:04.237Z</time>
      </trkpt>
      <trkpt lat="38.769109" lon="-2.489963">
        <ele>1060.245349</ele>
        <time>2020-08-06T08:28:07.228Z</time>
      </trkpt>
      <trkpt lat="38.769110" lon="-2.490108">
        <ele>1060.412524</ele>
        <time>2020-08-06T08:28:10.232Z</time>
      </trkpt>
      <trkpt lat="38.769113" lon="-2.490249">
        <ele>1060.575141</ele>
        <time>2020-08-06T08:28:13.234Z</time>
      </trkpt>
      <trkpt lat="38.769114" lon="-2.490383">
        <ele>1060.729635</ele>
        <time>2020-08-06T08:28:16.233Z</time>
      </trkpt>
      <trkpt lat="38.769121" lon="-2.490509">
        <ele>1060.875267</ele>
        <time>2020-08-06T08:28:19.251Z</time>
      </trkpt>
      <trkpt lat="38.769120" lon="-2.490631">
        <ele>1061.015926</ele>
        <time>2020-08-06T08:28:22.244Z</time>
      </trkpt>
      <trkpt lat="38.769126" lon="-2.490756">
        <ele>1061.160309</ele>
        <time>2020-08-06T08:28:25.240Z</time>
      </trkpt>
      <trkpt lat="38.769127" lon="-2.490879">
        <ele>1061.302122</ele>
        <time>2020-08-06T08:28:28.229Z</time>
      </trkpt>
      <trkpt lat="38.769136" lon="-2.490998">
        <ele>1061.439959</ele>
        <time>2020-08-06T08:28:31.232Z</time>
      </trkpt>
      <trkpt lat="38.769139" lon="-2.491115">
        <ele>1061.574919</ele>
        <time>2020-08-06T08:28:34.232Z</time>
      </trkpt>
      <trkpt lat="38.769151" lon="-2.491229">
        <ele>1061.707541</ele>
        <time>2020-08-06T08:28:37.233Z</time>
      </trkpt>
      <trkpt lat="38.769157" lon="-2.491378">
        <ele>1061.879549</ele>
        <time>2020-08-06T08:28:41.249Z</time>
      </trkpt>
      <trkpt lat="38.769166" lon="-2.491564">
        <ele>1062.094398</ele>
        <time>2020-08-06T08:28:45.235Z</time>
      </trkpt>
      <trkpt lat="38.769173" lon="-2.491718">
        <ele>1062.272243</ele>
        <time>2020-08-06T08:28:48.230Z</time>
      </trkpt>
      <trkpt lat="38.769177" lon="-2.491854">
        <ele>1062.429147</ele>
        <time>2020-08-06T08:28:51.233Z</time>
      </trkpt>
      <trkpt lat="38.769182" lon="-2.491980">
        <ele>1062.574598</ele>
        <time>2020-08-06T08:28:54.234Z</time>
      </trkpt>
      <trkpt lat="38.769183" lon="-2.492113">
        <ele>1062.912232</ele>
        <time>2020-08-06T08:28:57.234Z</time>
      </trkpt>
      <trkpt lat="38.769181" lon="-2.492249">
        <ele>1063.470129</ele>
        <time>2020-08-06T08:29:00.236Z</time>
      </trkpt>
      <trkpt lat="38.769185" lon="-2.492370">
        <ele>1063.966851</ele>
        <time>2020-08-06T08:29:03.237Z</time>
      </trkpt>
      <trkpt lat="38.769181" lon="-2.492511">
        <ele>1064.545538</ele>
        <time>2020-08-06T08:29:06.234Z</time>
      </trkpt>
      <trkpt lat="38.769183" lon="-2.492651">
        <ele>1065.119838</ele>
        <time>2020-08-06T08:29:09.235Z</time>
      </trkpt>
      <trkpt lat="38.769188" lon="-2.492776">
        <ele>1065.633194</ele>
        <time>2020-08-06T08:29:12.236Z</time>
      </trkpt>
      <trkpt lat="38.769194" lon="-2.492915">
        <ele>1066.204169</ele>
        <time>2020-08-06T08:29:16.232Z</time>
      </trkpt>
      <trkpt lat="38.769203" lon="-2.493048">
        <ele>1066.751713</ele>
        <time>2020-08-06T08:29:20.239Z</time>
      </trkpt>
      <trkpt lat="38.769208" lon="-2.493193">
        <ele>1067.347005</ele>
        <time>2020-08-06T08:29:24.227Z</time>
      </trkpt>
      <trkpt lat="38.769210" lon="-2.493341">
        <ele>1067.954112</ele>
        <time>2020-08-06T08:29:28.233Z</time>
      </trkpt>
      <trkpt lat="38.769211" lon="-2.493485">
        <ele>1068.544744</ele>
        <time>2020-08-06T08:29:32.232Z</time>
      </trkpt>
      <trkpt lat="38.769208" lon="-2.493622">
        <ele>1069.106865</ele>
        <time>2020-08-06T08:29:36.237Z</time>
      </trkpt>
      <trkpt lat="38.769207" lon="-2.493751">
        <ele>1069.635978</ele>
        <time>2020-08-06T08:29:40.228Z</time>
      </trkpt>
      <trkpt lat="38.769205" lon="-2.493884">
        <ele>1070.181573</ele>
        <time>2020-08-06T08:29:44.234Z</time>
      </trkpt>
      <trkpt lat="38.769213" lon="-2.494005">
        <ele>1070.679630</ele>
        <time>2020-08-06T08:29:48.249Z</time>
      </trkpt>
      <trkpt lat="38.769217" lon="-2.494131">
        <ele>1071.196841</ele>
        <time>2020-08-06T08:29:52.242Z</time>
      </trkpt>
      <trkpt lat="38.769220" lon="-2.494267">
        <ele>1071.754862</ele>
        <time>2020-08-06T08:29:56.238Z</time>
      </trkpt>
      <trkpt lat="38.769221" lon="-2.494410">
        <ele>1072.209799</ele>
        <time>2020-08-06T08:30:01.236Z</time>
      </trkpt>
      <trkpt lat="38.769227" lon="-2.494538">
        <ele>1072.426496</ele>
        <time>2020-08-06T08:30:05.229Z</time>
      </trkpt>
      <trkpt lat="38.769231" lon="-2.494687">
        <ele>1072.678440</ele>
        <time>2020-08-06T08:30:10.245Z</time>
      </trkpt>
      <trkpt lat="38.769234" lon="-2.494826">
        <ele>1072.913425</ele>
        <time>2020-08-06T08:30:14.229Z</time>
      </trkpt>
      <trkpt lat="38.769236" lon="-2.494954">
        <ele>1073.129775</ele>
        <time>2020-08-06T08:30:17.228Z</time>
      </trkpt>
      <trkpt lat="38.769235" lon="-2.495082">
        <ele>1073.346093</ele>
        <time>2020-08-06T08:30:21.226Z</time>
      </trkpt>
      <trkpt lat="38.769230" lon="-2.495215">
        <ele>1073.571110</ele>
        <time>2020-08-06T08:30:25.233Z</time>
      </trkpt>
      <trkpt lat="38.769237" lon="-2.495358">
        <ele>1073.813240</ele>
        <time>2020-08-06T08:30:29.249Z</time>
      </trkpt>
      <trkpt lat="38.769244" lon="-2.495507">
        <ele>1074.065491</ele>
        <time>2020-08-06T08:30:33.239Z</time>
      </trkpt>
      <trkpt lat="38.769250" lon="-2.495658">
        <ele>1074.320997</ele>
        <time>2020-08-06T08:30:37.230Z</time>
      </trkpt>
      <trkpt lat="38.769256" lon="-2.495773">
        <ele>1074.515769</ele>
        <time>2020-08-06T08:30:40.227Z</time>
      </trkpt>
      <trkpt lat="38.769259" lon="-2.495893">
        <ele>1074.718661</ele>
        <time>2020-08-06T08:30:43.229Z</time>
      </trkpt>
      <trkpt lat="38.769257" lon="-2.496022">
        <ele>1074.936700</ele>
        <time>2020-08-06T08:30:46.235Z</time>
      </trkpt>
      <trkpt lat="38.769264" lon="-2.496162">
        <ele>1075.173771</ele>
        <time>2020-08-06T08:30:49.232Z</time>
      </trkpt>
      <trkpt lat="38.769280" lon="-2.496307">
        <ele>1075.421248</ele>
        <time>2020-08-06T08:30:52.238Z</time>
      </trkpt>
      <trkpt lat="38.769288" lon="-2.496468">
        <ele>1075.693873</ele>
        <time>2020-08-06T08:30:55.237Z</time>
      </trkpt>
      <trkpt lat="38.769286" lon="-2.496590">
        <ele>1075.900085</ele>
        <time>2020-08-06T08:30:57.231Z</time>
      </trkpt>
      <trkpt lat="38.769287" lon="-2.496718">
        <ele>1075.958994</ele>
        <time>2020-08-06T08:30:59.232Z</time>
      </trkpt>
      <trkpt lat="38.769290" lon="-2.496853">
        <ele>1075.829302</ele>
        <time>2020-08-06T08:31:01.237Z</time>
      </trkpt>
      <trkpt lat="38.769292" lon="-2.496995">
        <ele>1075.692920</ele>
        <time>2020-08-06T08:31:03.235Z</time>
      </trkpt>
      <trkpt lat="38.769295" lon="-2.497141">
        <ele>1075.552669</ele>
        <time>2020-08-06T08:31:05.236Z</time>
      </trkpt>
      <trkpt lat="38.769299" lon="-2.497300">
        <ele>1075.399904</ele>
        <time>2020-08-06T08:31:07.236Z</time>
      </trkpt>
      <trkpt lat="38.769299" lon="-2.497468">
        <ele>1075.238576</ele>
        <time>2020-08-06T08:31:09.228Z</time>
      </trkpt>
      <trkpt lat="38.769306" lon="-2.497640">
        <ele>1075.073182</ele>
        <time>2020-08-06T08:31:11.232Z</time>
      </trkpt>
      <trkpt lat="38.769308" lon="-2.497822">
        <ele>1074.898393</ele>
        <time>2020-08-06T08:31:13.238Z</time>
      </trkpt>
      <trkpt lat="38.769312" lon="-2.498023">
        <ele>1074.705313</ele>
        <time>2020-08-06T08:31:15.238Z</time>
      </trkpt>
      <trkpt lat="38.769312" lon="-2.498243">
        <ele>1074.494050</ele>
        <time>2020-08-06T08:31:17.238Z</time>
      </trkpt>
      <trkpt lat="38.769313" lon="-2.498359">
        <ele>1074.382650</ele>
        <time>2020-08-06T08:31:18.219Z</time>
      </trkpt>
      <trkpt lat="38.769313" lon="-2.498481">
        <ele>1074.265495</ele>
        <time>2020-08-06T08:31:19.230Z</time>
      </trkpt>
      <trkpt lat="38.769314" lon="-2.498602">
        <ele>1074.149294</ele>
        <time>2020-08-06T08:31:20.240Z</time>
      </trkpt>
      <trkpt lat="38.769314" lon="-2.498726">
        <ele>1074.030219</ele>
        <time>2020-08-06T08:31:21.236Z</time>
      </trkpt>
      <trkpt lat="38.769321" lon="-2.498853">
        <ele>1073.907958</ele>
        <time>2020-08-06T08:31:22.226Z</time>
      </trkpt>
      <trkpt lat="38.769321" lon="-2.498985">
        <ele>1073.758584</ele>
        <time>2020-08-06T08:31:23.234Z</time>
      </trkpt>
      <trkpt lat="38.769327" lon="-2.499115">
        <ele>1073.488706</ele>
        <time>2020-08-06T08:31:24.247Z</time>
      </trkpt>
      <trkpt lat="38.769334" lon="-2.499250">
        <ele>1073.208319</ele>
        <time>2020-08-06T08:31:25.239Z</time>
      </trkpt>
      <trkpt lat="38.769334" lon="-2.499388">
        <ele>1072.922334</ele>
        <time>2020-08-06T08:31:26.228Z</time>
      </trkpt>
      <trkpt lat="38.769342" lon="-2.499524">
        <ele>1072.639692</ele>
        <time>2020-08-06T08:31:27.229Z</time>
      </trkpt>
      <trkpt lat="38.769358" lon="-2.499655">
        <ele>1072.364902</ele>
        <time>2020-08-06T08:31:28.228Z</time>
      </trkpt>
      <trkpt lat="38.769354" lon="-2.499806">
        <ele>1072.051796</ele>
        <time>2020-08-06T08:31:29.235Z</time>
      </trkpt>
      <trkpt lat="38.769352" lon="-2.499952">
        <ele>1071.749185</ele>
        <time>2020-08-06T08:31:30.246Z</time>
      </trkpt>
      <trkpt lat="38.769360" lon="-2.500084">
        <ele>1071.474808</ele>
        <time>2020-08-06T08:31:31.242Z</time>
      </trkpt>
      <trkpt lat="38.769366" lon="-2.500220">
        <ele>1071.192517</ele>
        <time>2020-08-06T08:31:32.235Z</time>
      </trkpt>
      <trkpt lat="38.769370" lon="-2.500361">
        <ele>1070.900121</ele>
        <time>2020-08-06T08:31:33.232Z</time>
      </trkpt>
      <trkpt lat="38.769385" lon="-2.500489">
        <ele>1070.631880</ele>
        <time>2020-08-06T08:31:34.236Z</time>
      </trkpt>
      <trkpt lat="38.769400" lon="-2.500620">
        <ele>1070.357489</ele>
        <time>2020-08-06T08:31:35.231Z</time>
      </trkpt>
      <trkpt lat="38.769409" lon="-2.500756">
        <ele>1070.074635</ele>
        <time>2020-08-06T08:31:36.232Z</time>
      </trkpt>
      <trkpt lat="38.769407" lon="-2.500900">
        <ele>1069.776168</ele>
        <time>2020-08-06T08:31:37.234Z</time>
      </trkpt>
      <trkpt lat="38.769442" lon="-2.501016">
        <ele>1069.518402</ele>
        <time>2020-08-06T08:31:38.234Z</time>
      </trkpt>
      <trkpt lat="38.769453" lon="-2.501148">
        <ele>1069.243293</ele>
        <time>2020-08-06T08:31:39.233Z</time>
      </trkpt>
      <trkpt lat="38.769461" lon="-2.501290">
        <ele>1068.975541</ele>
        <time>2020-08-06T08:31:40.233Z</time>
      </trkpt>
      <trkpt lat="38.769473" lon="-2.501425">
        <ele>1068.801112</ele>
        <time>2020-08-06T08:31:41.226Z</time>
      </trkpt>
      <trkpt lat="38.769495" lon="-2.501553">
        <ele>1068.632847</ele>
        <time>2020-08-06T08:31:42.231Z</time>
      </trkpt>
      <trkpt lat="38.769504" lon="-2.501688">
        <ele>1068.458908</ele>
        <time>2020-08-06T08:31:43.237Z</time>
      </trkpt>
      <trkpt lat="38.769517" lon="-2.501820">
        <ele>1068.288106</ele>
        <time>2020-08-06T08:31:44.233Z</time>
      </trkpt>
      <trkpt lat="38.769534" lon="-2.501954">
        <ele>1068.113821</ele>
        <time>2020-08-06T08:31:45.230Z</time>
      </trkpt>
      <trkpt lat="38.769553" lon="-2.502087">
        <ele>1067.940240</ele>
        <time>2020-08-06T08:31:46.228Z</time>
      </trkpt>
      <trkpt lat="38.769560" lon="-2.502227">
        <ele>1067.760146</ele>
        <time>2020-08-06T08:31:47.230Z</time>
      </trkpt>
      <trkpt lat="38.769573" lon="-2.502363">
        <ele>1067.584248</ele>
        <time>2020-08-06T08:31:48.234Z</time>
      </trkpt>
      <trkpt lat="38.769594" lon="-2.502498">
        <ele>1067.407526</ele>
        <time>2020-08-06T08:31:49.234Z</time>
      </trkpt>
      <trkpt lat="38.769608" lon="-2.502630">
        <ele>1067.236511</ele>
        <time>2020-08-06T08:31:50.230Z</time>
      </trkpt>
      <trkpt lat="38.769620" lon="-2.502761">
        <ele>1067.067183</ele>
        <time>2020-08-06T08:31:51.234Z</time>
      </trkpt>
      <trkpt lat="38.769630" lon="-2.502894">
        <ele>1066.895652</ele>
        <time>2020-08-06T08:31:52.236Z</time>
      </trkpt>
      <trkpt lat="38.769638" lon="-2.503029">
        <ele>1066.721846</ele>
        <time>2020-08-06T08:31:53.235Z</time>
      </trkpt>
      <trkpt lat="38.769654" lon="-2.503159">
        <ele>1066.552892</ele>
        <time>2020-08-06T08:31:54.228Z</time>
      </trkpt>
      <trkpt lat="38.769665" lon="-2.503298">
        <ele>1066.373534</ele>
        <time>2020-08-06T08:31:55.229Z</time>
      </trkpt>
      <trkpt lat="38.769684" lon="-2.503425">
        <ele>1066.207524</ele>
        <time>2020-08-06T08:31:56.243Z</time>
      </trkpt>
      <trkpt lat="38.769698" lon="-2.503550">
        <ele>1066.056098</ele>
        <time>2020-08-06T08:31:57.233Z</time>
      </trkpt>
      <trkpt lat="38.769708" lon="-2.503674">
        <ele>1066.027254</ele>
        <time>2020-08-06T08:31:58.234Z</time>
      </trkpt>
      <trkpt lat="38.769722" lon="-2.503804">
        <ele>1065.996889</ele>
        <time>2020-08-06T08:31:59.229Z</time>
      </trkpt>
      <trkpt lat="38.769732" lon="-2.503936">
        <ele>1065.966202</ele>
        <time>2020-08-06T08:32:00.238Z</time>
      </trkpt>
      <trkpt lat="38.769742" lon="-2.504051">
        <ele>1065.939429</ele>
        <time>2020-08-06T08:32:01.232Z</time>
      </trkpt>
      <trkpt lat="38.769746" lon="-2.504174">
        <ele>1065.910944</ele>
        <time>2020-08-06T08:32:02.231Z</time>
      </trkpt>
      <trkpt lat="38.769759" lon="-2.504295">
        <ele>1065.882683</ele>
        <time>2020-08-06T08:32:03.229Z</time>
      </trkpt>
      <trkpt lat="38.769772" lon="-2.504416">
        <ele>1065.854421</ele>
        <time>2020-08-06T08:32:04.233Z</time>
      </trkpt>
      <trkpt lat="38.769786" lon="-2.504534">
        <ele>1065.826804</ele>
        <time>2020-08-06T08:32:05.232Z</time>
      </trkpt>
      <trkpt lat="38.769813" lon="-2.504752">
        <ele>1065.775731</ele>
        <time>2020-08-06T08:32:07.229Z</time>
      </trkpt>
      <trkpt lat="38.769824" lon="-2.504869">
        <ele>1065.748463</ele>
        <time>2020-08-06T08:32:08.237Z</time>
      </trkpt>
      <trkpt lat="38.769837" lon="-2.504983">
        <ele>1065.721805</ele>
        <time>2020-08-06T08:32:09.228Z</time>
      </trkpt>
      <trkpt lat="38.769855" lon="-2.505206">
        <ele>1065.669932</ele>
        <time>2020-08-06T08:32:11.234Z</time>
      </trkpt>
      <trkpt lat="38.769875" lon="-2.505414">
        <ele>1065.621440</ele>
        <time>2020-08-06T08:32:13.241Z</time>
      </trkpt>
      <trkpt lat="38.769892" lon="-2.505615">
        <ele>1065.574660</ele>
        <time>2020-08-06T08:32:15.250Z</time>
      </trkpt>
      <trkpt lat="38.769909" lon="-2.505817">
        <ele>1065.527650</ele>
        <time>2020-08-06T08:32:17.230Z</time>
      </trkpt>
      <trkpt lat="38.769923" lon="-2.506019">
        <ele>1065.548786</ele>
        <time>2020-08-06T08:32:19.242Z</time>
      </trkpt>
      <trkpt lat="38.769941" lon="-2.506215">
        <ele>1065.573847</ele>
        <time>2020-08-06T08:32:21.235Z</time>
      </trkpt>
      <trkpt lat="38.769963" lon="-2.506406">
        <ele>1065.598364</ele>
        <time>2020-08-06T08:32:23.225Z</time>
      </trkpt>
      <trkpt lat="38.769985" lon="-2.506575">
        <ele>1065.620122</ele>
        <time>2020-08-06T08:32:25.232Z</time>
      </trkpt>
      <trkpt lat="38.770002" lon="-2.506749">
        <ele>1065.642390</ele>
        <time>2020-08-06T08:32:27.229Z</time>
      </trkpt>
      <trkpt lat="38.770026" lon="-2.506918">
        <ele>1065.664203</ele>
        <time>2020-08-06T08:32:29.233Z</time>
      </trkpt>
      <trkpt lat="38.770043" lon="-2.507082">
        <ele>1065.685212</ele>
        <time>2020-08-06T08:32:31.230Z</time>
      </trkpt>
      <trkpt lat="38.770061" lon="-2.507252">
        <ele>1065.706998</ele>
        <time>2020-08-06T08:32:33.236Z</time>
      </trkpt>
      <trkpt lat="38.770088" lon="-2.507406">
        <ele>1065.727042</ele>
        <time>2020-08-06T08:32:35.233Z</time>
      </trkpt>
      <trkpt lat="38.770115" lon="-2.507570">
        <ele>1065.748326</ele>
        <time>2020-08-06T08:32:37.242Z</time>
      </trkpt>
      <trkpt lat="38.770143" lon="-2.507728">
        <ele>1065.768902</ele>
        <time>2020-08-06T08:32:39.238Z</time>
      </trkpt>
      <trkpt lat="38.770172" lon="-2.507885">
        <ele>1065.789390</ele>
        <time>2020-08-06T08:32:41.243Z</time>
      </trkpt>
      <trkpt lat="38.770204" lon="-2.508045">
        <ele>1065.810365</ele>
        <time>2020-08-06T08:32:43.238Z</time>
      </trkpt>
      <trkpt lat="38.770230" lon="-2.508202">
        <ele>1065.802010</ele>
        <time>2020-08-06T08:32:45.244Z</time>
      </trkpt>
      <trkpt lat="38.770259" lon="-2.508356">
        <ele>1065.778102</ele>
        <time>2020-08-06T08:32:47.233Z</time>
      </trkpt>
      <trkpt lat="38.770285" lon="-2.508515">
        <ele>1065.753585</ele>
        <time>2020-08-06T08:32:49.241Z</time>
      </trkpt>
      <trkpt lat="38.770314" lon="-2.508678">
        <ele>1065.728354</ele>
        <time>2020-08-06T08:32:51.238Z</time>
      </trkpt>
      <trkpt lat="38.770347" lon="-2.508844">
        <ele>1065.702502</ele>
        <time>2020-08-06T08:32:53.242Z</time>
      </trkpt>
      <trkpt lat="38.770386" lon="-2.509004">
        <ele>1065.677204</ele>
        <time>2020-08-06T08:32:55.295Z</time>
      </trkpt>
      <trkpt lat="38.770421" lon="-2.509156">
        <ele>1065.653286</ele>
        <time>2020-08-06T08:32:57.228Z</time>
      </trkpt>
      <trkpt lat="38.770451" lon="-2.509313">
        <ele>1065.628892</ele>
        <time>2020-08-06T08:32:59.232Z</time>
      </trkpt>
      <trkpt lat="38.770474" lon="-2.509469">
        <ele>1065.604933</ele>
        <time>2020-08-06T08:33:01.221Z</time>
      </trkpt>
      <trkpt lat="38.770508" lon="-2.509628">
        <ele>1065.580053</ele>
        <time>2020-08-06T08:33:03.234Z</time>
      </trkpt>
      <trkpt lat="38.770540" lon="-2.509782">
        <ele>1065.556001</ele>
        <time>2020-08-06T08:33:05.234Z</time>
      </trkpt>
      <trkpt lat="38.770570" lon="-2.509943">
        <ele>1065.531021</ele>
        <time>2020-08-06T08:33:07.221Z</time>
      </trkpt>
      <trkpt lat="38.770607" lon="-2.510096">
        <ele>1065.506846</ele>
        <time>2020-08-06T08:33:09.233Z</time>
      </trkpt>
      <trkpt lat="38.770650" lon="-2.510247">
        <ele>1065.482587</ele>
        <time>2020-08-06T08:33:11.231Z</time>
      </trkpt>
      <trkpt lat="38.770675" lon="-2.510392">
        <ele>1065.466756</ele>
        <time>2020-08-06T08:33:13.229Z</time>
      </trkpt>
      <trkpt lat="38.770706" lon="-2.510536">
        <ele>1065.460167</ele>
        <time>2020-08-06T08:33:15.220Z</time>
      </trkpt>
      <trkpt lat="38.770733" lon="-2.510678">
        <ele>1065.453719</ele>
        <time>2020-08-06T08:33:17.231Z</time>
      </trkpt>
      <trkpt lat="38.770759" lon="-2.510823">
        <ele>1065.447156</ele>
        <time>2020-08-06T08:33:19.229Z</time>
      </trkpt>
      <trkpt lat="38.770784" lon="-2.510972">
        <ele>1065.440433</ele>
        <time>2020-08-06T08:33:21.246Z</time>
      </trkpt>
      <trkpt lat="38.770810" lon="-2.511118">
        <ele>1065.433827</ele>
        <time>2020-08-06T08:33:23.246Z</time>
      </trkpt>
      <trkpt lat="38.770836" lon="-2.511260">
        <ele>1065.427392</ele>
        <time>2020-08-06T08:33:25.219Z</time>
      </trkpt>
      <trkpt lat="38.770852" lon="-2.511407">
        <ele>1065.420845</ele>
        <time>2020-08-06T08:33:27.231Z</time>
      </trkpt>
      <trkpt lat="38.770880" lon="-2.511556">
        <ele>1065.414084</ele>
        <time>2020-08-06T08:33:29.234Z</time>
      </trkpt>
      <trkpt lat="38.770902" lon="-2.511701">
        <ele>1065.407568</ele>
        <time>2020-08-06T08:33:31.231Z</time>
      </trkpt>
      <trkpt lat="38.770916" lon="-2.511849">
        <ele>1065.400992</ele>
        <time>2020-08-06T08:33:33.231Z</time>
      </trkpt>
      <trkpt lat="38.770918" lon="-2.512003">
        <ele>1065.394197</ele>
        <time>2020-08-06T08:33:35.229Z</time>
      </trkpt>
      <trkpt lat="38.770929" lon="-2.512145">
        <ele>1065.387903</ele>
        <time>2020-08-06T08:33:37.233Z</time>
      </trkpt>
      <trkpt lat="38.770926" lon="-2.512297">
        <ele>1065.381196</ele>
        <time>2020-08-06T08:33:39.241Z</time>
      </trkpt>
      <trkpt lat="38.770929" lon="-2.512442">
        <ele>1065.374797</ele>
        <time>2020-08-06T08:33:41.244Z</time>
      </trkpt>
      <trkpt lat="38.770926" lon="-2.512591">
        <ele>1065.368222</ele>
        <time>2020-08-06T08:33:43.239Z</time>
      </trkpt>
      <trkpt lat="38.770919" lon="-2.512741">
        <ele>1065.347572</ele>
        <time>2020-08-06T08:33:45.235Z</time>
      </trkpt>
      <trkpt lat="38.770907" lon="-2.512887">
        <ele>1065.326250</ele>
        <time>2020-08-06T08:33:47.233Z</time>
      </trkpt>
      <trkpt lat="38.770888" lon="-2.513037">
        <ele>1065.304179</ele>
        <time>2020-08-06T08:33:49.224Z</time>
      </trkpt>
      <trkpt lat="38.770870" lon="-2.513191">
        <ele>1065.281562</ele>
        <time>2020-08-06T08:33:51.232Z</time>
      </trkpt>
      <trkpt lat="38.770862" lon="-2.513347">
        <ele>1065.258856</ele>
        <time>2020-08-06T08:33:53.221Z</time>
      </trkpt>
      <trkpt lat="38.770854" lon="-2.513487">
        <ele>1065.238469</ele>
        <time>2020-08-06T08:33:55.243Z</time>
      </trkpt>
      <trkpt lat="38.770828" lon="-2.513640">
        <ele>1065.215725</ele>
        <time>2020-08-06T08:33:57.232Z</time>
      </trkpt>
      <trkpt lat="38.770796" lon="-2.513785">
        <ele>1065.193839</ele>
        <time>2020-08-06T08:33:59.236Z</time>
      </trkpt>
      <trkpt lat="38.770768" lon="-2.513933">
        <ele>1065.171720</ele>
        <time>2020-08-06T08:34:01.230Z</time>
      </trkpt>
      <trkpt lat="38.770739" lon="-2.514096">
        <ele>1065.147437</ele>
        <time>2020-08-06T08:34:03.232Z</time>
      </trkpt>
      <trkpt lat="38.770715" lon="-2.514249">
        <ele>1065.124771</ele>
        <time>2020-08-06T08:34:05.245Z</time>
      </trkpt>
      <trkpt lat="38.770692" lon="-2.514399">
        <ele>1065.102568</ele>
        <time>2020-08-06T08:34:07.237Z</time>
      </trkpt>
      <trkpt lat="38.770661" lon="-2.514552">
        <ele>1065.079608</ele>
        <time>2020-08-06T08:34:09.229Z</time>
      </trkpt>
      <trkpt lat="38.770636" lon="-2.514708">
        <ele>1065.056477</ele>
        <time>2020-08-06T08:34:11.233Z</time>
      </trkpt>
      <trkpt lat="38.770609" lon="-2.514859">
        <ele>1065.033977</ele>
        <time>2020-08-06T08:34:13.239Z</time>
      </trkpt>
      <trkpt lat="38.770583" lon="-2.515012">
        <ele>1064.990203</ele>
        <time>2020-08-06T08:34:15.229Z</time>
      </trkpt>
      <trkpt lat="38.770554" lon="-2.515165">
        <ele>1064.944878</ele>
        <time>2020-08-06T08:34:17.231Z</time>
      </trkpt>
      <trkpt lat="38.770526" lon="-2.515314">
        <ele>1064.900759</ele>
        <time>2020-08-06T08:34:19.227Z</time>
      </trkpt>
      <trkpt lat="38.770499" lon="-2.515464">
        <ele>1064.856445</ele>
        <time>2020-08-06T08:34:21.227Z</time>
      </trkpt>
      <trkpt lat="38.770474" lon="-2.515615">
        <ele>1064.812009</ele>
        <time>2020-08-06T08:34:23.230Z</time>
      </trkpt>
      <trkpt lat="38.770444" lon="-2.515765">
        <ele>1064.767433</ele>
        <time>2020-08-06T08:34:25.229Z</time>
      </trkpt>
      <trkpt lat="38.770414" lon="-2.515912">
        <ele>1064.723692</ele>
        <time>2020-08-06T08:34:27.236Z</time>
      </trkpt>
      <trkpt lat="38.770382" lon="-2.516058">
        <ele>1064.680036</ele>
        <time>2020-08-06T08:34:29.233Z</time>
      </trkpt>
      <trkpt lat="38.770366" lon="-2.516200">
        <ele>1064.638735</ele>
        <time>2020-08-06T08:34:31.234Z</time>
      </trkpt>
      <trkpt lat="38.770336" lon="-2.516352">
        <ele>1064.593601</ele>
        <time>2020-08-06T08:34:33.226Z</time>
      </trkpt>
      <trkpt lat="38.770316" lon="-2.516509">
        <ele>1064.547808</ele>
        <time>2020-08-06T08:34:35.235Z</time>
      </trkpt>
      <trkpt lat="38.770295" lon="-2.516655">
        <ele>1064.505072</ele>
        <time>2020-08-06T08:34:37.230Z</time>
      </trkpt>
      <trkpt lat="38.770267" lon="-2.516806">
        <ele>1064.460393</ele>
        <time>2020-08-06T08:34:39.229Z</time>
      </trkpt>
      <trkpt lat="38.770238" lon="-2.516957">
        <ele>1064.415627</ele>
        <time>2020-08-06T08:34:41.236Z</time>
      </trkpt>
      <trkpt lat="38.770209" lon="-2.517106">
        <ele>1064.371420</ele>
        <time>2020-08-06T08:34:43.236Z</time>
      </trkpt>
      <trkpt lat="38.770187" lon="-2.517245">
        <ele>1064.432890</ele>
        <time>2020-08-06T08:34:45.232Z</time>
      </trkpt>
      <trkpt lat="38.770170" lon="-2.517384">
        <ele>1064.501459</ele>
        <time>2020-08-06T08:34:47.235Z</time>
      </trkpt>
      <trkpt lat="38.770138" lon="-2.517528">
        <ele>1064.574431</ele>
        <time>2020-08-06T08:34:49.225Z</time>
      </trkpt>
      <trkpt lat="38.770109" lon="-2.517670">
        <ele>1064.645969</ele>
        <time>2020-08-06T08:34:51.232Z</time>
      </trkpt>
      <trkpt lat="38.770080" lon="-2.517809">
        <ele>1064.716093</ele>
        <time>2020-08-06T08:34:53.237Z</time>
      </trkpt>
      <trkpt lat="38.770052" lon="-2.517956">
        <ele>1064.789840</ele>
        <time>2020-08-06T08:34:55.241Z</time>
      </trkpt>
      <trkpt lat="38.770031" lon="-2.518094">
        <ele>1064.858362</ele>
        <time>2020-08-06T08:34:57.231Z</time>
      </trkpt>
      <trkpt lat="38.770005" lon="-2.518235">
        <ele>1064.928974</ele>
        <time>2020-08-06T08:34:59.235Z</time>
      </trkpt>
      <trkpt lat="38.769987" lon="-2.518381">
        <ele>1065.001010</ele>
        <time>2020-08-06T08:35:01.237Z</time>
      </trkpt>
      <trkpt lat="38.769955" lon="-2.518519">
        <ele>1065.071175</ele>
        <time>2020-08-06T08:35:03.239Z</time>
      </trkpt>
      <trkpt lat="38.769931" lon="-2.518664">
        <ele>1065.143415</ele>
        <time>2020-08-06T08:35:05.231Z</time>
      </trkpt>
      <trkpt lat="38.769910" lon="-2.518804">
        <ele>1065.212895</ele>
        <time>2020-08-06T08:35:07.229Z</time>
      </trkpt>
      <trkpt lat="38.769883" lon="-2.518948">
        <ele>1065.285073</ele>
        <time>2020-08-06T08:35:09.239Z</time>
      </trkpt>
      <trkpt lat="38.769857" lon="-2.519090">
        <ele>1065.356159</ele>
        <time>2020-08-06T08:35:11.228Z</time>
      </trkpt>
      <trkpt lat="38.769833" lon="-2.519241">
        <ele>1065.431262</ele>
        <time>2020-08-06T08:35:13.228Z</time>
      </trkpt>
      <trkpt lat="38.769814" lon="-2.519389">
        <ele>1065.486947</ele>
        <time>2020-08-06T08:35:15.225Z</time>
      </trkpt>
      <trkpt lat="38.769790" lon="-2.519538">
        <ele>1065.448878</ele>
        <time>2020-08-06T08:35:17.228Z</time>
      </trkpt>
      <trkpt lat="38.769769" lon="-2.519693">
        <ele>1065.409514</ele>
        <time>2020-08-06T08:35:19.229Z</time>
      </trkpt>
      <trkpt lat="38.769745" lon="-2.519838">
        <ele>1065.372425</ele>
        <time>2020-08-06T08:35:21.237Z</time>
      </trkpt>
      <trkpt lat="38.769725" lon="-2.519989">
        <ele>1065.334102</ele>
        <time>2020-08-06T08:35:23.230Z</time>
      </trkpt>
      <trkpt lat="38.769704" lon="-2.520134">
        <ele>1065.297200</ele>
        <time>2020-08-06T08:35:25.237Z</time>
      </trkpt>
      <trkpt lat="38.769683" lon="-2.520277">
        <ele>1065.260791</ele>
        <time>2020-08-06T08:35:27.238Z</time>
      </trkpt>
      <trkpt lat="38.769666" lon="-2.520417">
        <ele>1065.225339</ele>
        <time>2020-08-06T08:35:29.231Z</time>
      </trkpt>
      <trkpt lat="38.769649" lon="-2.520564">
        <ele>1065.188155</ele>
        <time>2020-08-06T08:35:31.237Z</time>
      </trkpt>
      <trkpt lat="38.769638" lon="-2.520713">
        <ele>1065.150707</ele>
        <time>2020-08-06T08:35:33.232Z</time>
      </trkpt>
      <trkpt lat="38.769614" lon="-2.520853">
        <ele>1065.114840</ele>
        <time>2020-08-06T08:35:35.242Z</time>
      </trkpt>
      <trkpt lat="38.769604" lon="-2.520985">
        <ele>1065.081657</ele>
        <time>2020-08-06T08:35:37.234Z</time>
      </trkpt>
      <trkpt lat="38.769589" lon="-2.521121">
        <ele>1065.047289</ele>
        <time>2020-08-06T08:35:39.233Z</time>
      </trkpt>
      <trkpt lat="38.769574" lon="-2.521256">
        <ele>1065.013169</ele>
        <time>2020-08-06T08:35:41.236Z</time>
      </trkpt>
      <trkpt lat="38.769561" lon="-2.521392">
        <ele>1064.978886</ele>
        <time>2020-08-06T08:35:43.246Z</time>
      </trkpt>
      <trkpt lat="38.769552" lon="-2.521527">
        <ele>1064.944984</ele>
        <time>2020-08-06T08:35:45.231Z</time>
      </trkpt>
      <trkpt lat="38.769537" lon="-2.521665">
        <ele>1064.917684</ele>
        <time>2020-08-06T08:35:47.235Z</time>
      </trkpt>
      <trkpt lat="38.769512" lon="-2.521805">
        <ele>1064.931057</ele>
        <time>2020-08-06T08:35:49.233Z</time>
      </trkpt>
      <trkpt lat="38.769494" lon="-2.521942">
        <ele>1064.943993</ele>
        <time>2020-08-06T08:35:51.232Z</time>
      </trkpt>
      <trkpt lat="38.769482" lon="-2.522080">
        <ele>1064.956921</ele>
        <time>2020-08-06T08:35:53.228Z</time>
      </trkpt>
      <trkpt lat="38.769465" lon="-2.522221">
        <ele>1064.970206</ele>
        <time>2020-08-06T08:35:55.228Z</time>
      </trkpt>
      <trkpt lat="38.769457" lon="-2.522359">
        <ele>1064.983090</ele>
        <time>2020-08-06T08:35:57.232Z</time>
      </trkpt>
      <trkpt lat="38.769441" lon="-2.522505">
        <ele>1064.996818</ele>
        <time>2020-08-06T08:35:59.238Z</time>
      </trkpt>
      <trkpt lat="38.769421" lon="-2.522653">
        <ele>1065.010804</ele>
        <time>2020-08-06T08:36:01.231Z</time>
      </trkpt>
      <trkpt lat="38.769405" lon="-2.522798">
        <ele>1065.024439</ele>
        <time>2020-08-06T08:36:03.230Z</time>
      </trkpt>
      <trkpt lat="38.769387" lon="-2.522943">
        <ele>1065.038110</ele>
        <time>2020-08-06T08:36:05.235Z</time>
      </trkpt>
      <trkpt lat="38.769377" lon="-2.523088">
        <ele>1065.051663</ele>
        <time>2020-08-06T08:36:07.229Z</time>
      </trkpt>
      <trkpt lat="38.769357" lon="-2.523226">
        <ele>1065.064733</ele>
        <time>2020-08-06T08:36:09.228Z</time>
      </trkpt>
      <trkpt lat="38.769335" lon="-2.523386">
        <ele>1065.079860</ele>
        <time>2020-08-06T08:36:11.232Z</time>
      </trkpt>
      <trkpt lat="38.769319" lon="-2.523549">
        <ele>1065.095157</ele>
        <time>2020-08-06T08:36:13.231Z</time>
      </trkpt>
      <trkpt lat="38.769309" lon="-2.523716">
        <ele>1065.110752</ele>
        <time>2020-08-06T08:36:15.235Z</time>
      </trkpt>
      <trkpt lat="38.769295" lon="-2.523870">
        <ele>1065.125188</ele>
        <time>2020-08-06T08:36:17.240Z</time>
      </trkpt>
      <trkpt lat="38.769278" lon="-2.524019">
        <ele>1065.143233</ele>
        <time>2020-08-06T08:36:19.230Z</time>
      </trkpt>
      <trkpt lat="38.769258" lon="-2.524164">
        <ele>1065.163227</ele>
        <time>2020-08-06T08:36:21.232Z</time>
      </trkpt>
      <trkpt lat="38.769233" lon="-2.524314">
        <ele>1065.184054</ele>
        <time>2020-08-06T08:36:23.241Z</time>
      </trkpt>
      <trkpt lat="38.769214" lon="-2.524463">
        <ele>1065.204554</ele>
        <time>2020-08-06T08:36:25.233Z</time>
      </trkpt>
      <trkpt lat="38.769201" lon="-2.524618">
        <ele>1065.225722</ele>
        <time>2020-08-06T08:36:27.242Z</time>
      </trkpt>
      <trkpt lat="38.769182" lon="-2.524771">
        <ele>1065.246758</ele>
        <time>2020-08-06T08:36:29.246Z</time>
      </trkpt>
      <trkpt lat="38.769164" lon="-2.524920">
        <ele>1065.267231</ele>
        <time>2020-08-06T08:36:31.232Z</time>
      </trkpt>
      <trkpt lat="38.769146" lon="-2.525067">
        <ele>1065.287436</ele>
        <time>2020-08-06T08:36:33.238Z</time>
      </trkpt>
      <trkpt lat="38.769128" lon="-2.525219">
        <ele>1065.308311</ele>
        <time>2020-08-06T08:36:35.243Z</time>
      </trkpt>
      <trkpt lat="38.769111" lon="-2.525363">
        <ele>1065.328086</ele>
        <time>2020-08-06T08:36:37.238Z</time>
      </trkpt>
      <trkpt lat="38.769095" lon="-2.525513">
        <ele>1065.348643</ele>
        <time>2020-08-06T08:36:39.238Z</time>
      </trkpt>
      <trkpt lat="38.769076" lon="-2.525655">
        <ele>1065.368206</ele>
        <time>2020-08-06T08:36:41.231Z</time>
      </trkpt>
      <trkpt lat="38.769060" lon="-2.525804">
        <ele>1065.388629</ele>
        <time>2020-08-06T08:36:43.228Z</time>
      </trkpt>
      <trkpt lat="38.769048" lon="-2.525945">
        <ele>1065.407888</ele>
        <time>2020-08-06T08:36:45.240Z</time>
      </trkpt>
      <trkpt lat="38.769036" lon="-2.526079">
        <ele>1065.426202</ele>
        <time>2020-08-06T08:36:47.232Z</time>
      </trkpt>
      <trkpt lat="38.769017" lon="-2.526215">
        <ele>1065.446321</ele>
        <time>2020-08-06T08:36:49.231Z</time>
      </trkpt>
      <trkpt lat="38.768999" lon="-2.526349">
        <ele>1065.484120</ele>
        <time>2020-08-06T08:36:51.228Z</time>
      </trkpt>
      <trkpt lat="38.768977" lon="-2.526476">
        <ele>1065.520285</ele>
        <time>2020-08-06T08:36:53.243Z</time>
      </trkpt>
      <trkpt lat="38.768956" lon="-2.526608">
        <ele>1065.557735</ele>
        <time>2020-08-06T08:36:55.231Z</time>
      </trkpt>
      <trkpt lat="38.768926" lon="-2.526732">
        <ele>1065.593827</ele>
        <time>2020-08-06T08:36:57.230Z</time>
      </trkpt>
      <trkpt lat="38.768900" lon="-2.526863">
        <ele>1065.631404</ele>
        <time>2020-08-06T08:36:59.231Z</time>
      </trkpt>
      <trkpt lat="38.768869" lon="-2.526992">
        <ele>1065.668929</ele>
        <time>2020-08-06T08:37:01.238Z</time>
      </trkpt>
      <trkpt lat="38.768837" lon="-2.527122">
        <ele>1065.706825</ele>
        <time>2020-08-06T08:37:03.229Z</time>
      </trkpt>
      <trkpt lat="38.768793" lon="-2.527261">
        <ele>1065.748528</ele>
        <time>2020-08-06T08:37:05.233Z</time>
      </trkpt>
      <trkpt lat="38.768753" lon="-2.527396">
        <ele>1065.788675</ele>
        <time>2020-08-06T08:37:07.226Z</time>
      </trkpt>
      <trkpt lat="38.768709" lon="-2.527536">
        <ele>1065.830635</ele>
        <time>2020-08-06T08:37:09.227Z</time>
      </trkpt>
      <trkpt lat="38.768664" lon="-2.527671">
        <ele>1065.871449</ele>
        <time>2020-08-06T08:37:11.229Z</time>
      </trkpt>
      <trkpt lat="38.768613" lon="-2.527814">
        <ele>1065.915163</ele>
        <time>2020-08-06T08:37:13.229Z</time>
      </trkpt>
      <trkpt lat="38.768559" lon="-2.527953">
        <ele>1065.958334</ele>
        <time>2020-08-06T08:37:15.227Z</time>
      </trkpt>
      <trkpt lat="38.768506" lon="-2.528100">
        <ele>1066.003355</ele>
        <time>2020-08-06T08:37:17.229Z</time>
      </trkpt>
      <trkpt lat="38.768453" lon="-2.528251">
        <ele>1066.049389</ele>
        <time>2020-08-06T08:37:19.237Z</time>
      </trkpt>
      <trkpt lat="38.768394" lon="-2.528393">
        <ele>1066.061354</ele>
        <time>2020-08-06T08:37:21.236Z</time>
      </trkpt>
      <trkpt lat="38.768347" lon="-2.528556">
        <ele>1065.937018</ele>
        <time>2020-08-06T08:37:23.229Z</time>
      </trkpt>
      <trkpt lat="38.768295" lon="-2.528717">
        <ele>1065.812341</ele>
        <time>2020-08-06T08:37:25.242Z</time>
      </trkpt>
      <trkpt lat="38.768237" lon="-2.528885">
        <ele>1065.680891</ele>
        <time>2020-08-06T08:37:27.240Z</time>
      </trkpt>
      <trkpt lat="38.768198" lon="-2.529058">
        <ele>1065.552050</ele>
        <time>2020-08-06T08:37:29.245Z</time>
      </trkpt>
      <trkpt lat="38.768171" lon="-2.529239">
        <ele>1065.420207</ele>
        <time>2020-08-06T08:37:31.245Z</time>
      </trkpt>
      <trkpt lat="38.768144" lon="-2.529424">
        <ele>1065.285552</ele>
        <time>2020-08-06T08:37:33.238Z</time>
      </trkpt>
      <trkpt lat="38.768119" lon="-2.529610">
        <ele>1065.150517</ele>
        <time>2020-08-06T08:37:35.230Z</time>
      </trkpt>
      <trkpt lat="38.768120" lon="-2.529798">
        <ele>1065.016011</ele>
        <time>2020-08-06T08:37:37.238Z</time>
      </trkpt>
      <trkpt lat="38.768119" lon="-2.529977">
        <ele>1064.887944</ele>
        <time>2020-08-06T08:37:39.236Z</time>
      </trkpt>
      <trkpt lat="38.768111" lon="-2.530154">
        <ele>1064.761099</ele>
        <time>2020-08-06T08:37:41.232Z</time>
      </trkpt>
      <trkpt lat="38.768121" lon="-2.530330">
        <ele>1064.634847</ele>
        <time>2020-08-06T08:37:43.238Z</time>
      </trkpt>
      <trkpt lat="38.768133" lon="-2.530504">
        <ele>1064.509875</ele>
        <time>2020-08-06T08:37:45.230Z</time>
      </trkpt>
      <trkpt lat="38.768134" lon="-2.530673">
        <ele>1064.431624</ele>
        <time>2020-08-06T08:37:47.227Z</time>
      </trkpt>
      <trkpt lat="38.768145" lon="-2.530846">
        <ele>1064.423742</ele>
        <time>2020-08-06T08:37:49.227Z</time>
      </trkpt>
      <trkpt lat="38.768155" lon="-2.531022">
        <ele>1064.415729</ele>
        <time>2020-08-06T08:37:51.239Z</time>
      </trkpt>
      <trkpt lat="38.768170" lon="-2.531186">
        <ele>1064.408231</ele>
        <time>2020-08-06T08:37:53.230Z</time>
      </trkpt>
      <trkpt lat="38.768187" lon="-2.531352">
        <ele>1064.400628</ele>
        <time>2020-08-06T08:37:55.235Z</time>
      </trkpt>
      <trkpt lat="38.768207" lon="-2.531515">
        <ele>1064.393135</ele>
        <time>2020-08-06T08:37:57.232Z</time>
      </trkpt>
      <trkpt lat="38.768235" lon="-2.531668">
        <ele>1064.385999</ele>
        <time>2020-08-06T08:37:59.226Z</time>
      </trkpt>
      <trkpt lat="38.768260" lon="-2.531818">
        <ele>1064.379034</ele>
        <time>2020-08-06T08:38:01.235Z</time>
      </trkpt>
      <trkpt lat="38.768282" lon="-2.531964">
        <ele>1064.372282</ele>
        <time>2020-08-06T08:38:03.230Z</time>
      </trkpt>
      <trkpt lat="38.768298" lon="-2.532116">
        <ele>1064.365317</ele>
        <time>2020-08-06T08:38:05.217Z</time>
      </trkpt>
      <trkpt lat="38.768321" lon="-2.532269">
        <ele>1064.358242</ele>
        <time>2020-08-06T08:38:07.231Z</time>
      </trkpt>
      <trkpt lat="38.768343" lon="-2.532426">
        <ele>1064.350998</ele>
        <time>2020-08-06T08:38:09.235Z</time>
      </trkpt>
      <trkpt lat="38.768370" lon="-2.532584">
        <ele>1064.343653</ele>
        <time>2020-08-06T08:38:11.235Z</time>
      </trkpt>
      <trkpt lat="38.768393" lon="-2.532732">
        <ele>1064.336801</ele>
        <time>2020-08-06T08:38:13.232Z</time>
      </trkpt>
      <trkpt lat="38.768416" lon="-2.532883">
        <ele>1064.329814</ele>
        <time>2020-08-06T08:38:15.231Z</time>
      </trkpt>
      <trkpt lat="38.768439" lon="-2.533034">
        <ele>1064.285382</ele>
        <time>2020-08-06T08:38:17.232Z</time>
      </trkpt>
      <trkpt lat="38.768461" lon="-2.533195">
        <ele>1064.237881</ele>
        <time>2020-08-06T08:38:19.255Z</time>
      </trkpt>
      <trkpt lat="38.768486" lon="-2.533349">
        <ele>1064.192168</ele>
        <time>2020-08-06T08:38:21.234Z</time>
      </trkpt>
      <trkpt lat="38.768510" lon="-2.533506">
        <ele>1064.145674</ele>
        <time>2020-08-06T08:38:23.240Z</time>
      </trkpt>
      <trkpt lat="38.768537" lon="-2.533664">
        <ele>1064.098668</ele>
        <time>2020-08-06T08:38:25.235Z</time>
      </trkpt>
      <trkpt lat="38.768552" lon="-2.533830">
        <ele>1064.050104</ele>
        <time>2020-08-06T08:38:27.228Z</time>
      </trkpt>
      <trkpt lat="38.768572" lon="-2.533989">
        <ele>1064.003300</ele>
        <time>2020-08-06T08:38:29.236Z</time>
      </trkpt>
      <trkpt lat="38.768589" lon="-2.534150">
        <ele>1063.956085</ele>
        <time>2020-08-06T08:38:31.234Z</time>
      </trkpt>
      <trkpt lat="38.768600" lon="-2.534312">
        <ele>1063.908828</ele>
        <time>2020-08-06T08:38:33.233Z</time>
      </trkpt>
      <trkpt lat="38.768612" lon="-2.534475">
        <ele>1063.861249</ele>
        <time>2020-08-06T08:38:35.231Z</time>
      </trkpt>
      <trkpt lat="38.768625" lon="-2.534633">
        <ele>1063.815078</ele>
        <time>2020-08-06T08:38:37.231Z</time>
      </trkpt>
      <trkpt lat="38.768634" lon="-2.534796">
        <ele>1063.767590</ele>
        <time>2020-08-06T08:38:39.230Z</time>
      </trkpt>
      <trkpt lat="38.768645" lon="-2.534956">
        <ele>1063.720913</ele>
        <time>2020-08-06T08:38:41.232Z</time>
      </trkpt>
      <trkpt lat="38.768659" lon="-2.535111">
        <ele>1063.675567</ele>
        <time>2020-08-06T08:38:43.234Z</time>
      </trkpt>
      <trkpt lat="38.768681" lon="-2.535252">
        <ele>1063.753682</ele>
        <time>2020-08-06T08:38:45.224Z</time>
      </trkpt>
      <trkpt lat="38.768696" lon="-2.535405">
        <ele>1063.918905</ele>
        <time>2020-08-06T08:38:47.229Z</time>
      </trkpt>
      <trkpt lat="38.768704" lon="-2.535559">
        <ele>1064.084274</ele>
        <time>2020-08-06T08:38:49.236Z</time>
      </trkpt>
      <trkpt lat="38.768707" lon="-2.535715">
        <ele>1064.251471</ele>
        <time>2020-08-06T08:38:51.231Z</time>
      </trkpt>
      <trkpt lat="38.768720" lon="-2.535863">
        <ele>1064.411048</ele>
        <time>2020-08-06T08:38:53.230Z</time>
      </trkpt>
      <trkpt lat="38.768735" lon="-2.536012">
        <ele>1064.572020</ele>
        <time>2020-08-06T08:38:55.235Z</time>
      </trkpt>
      <trkpt lat="38.768746" lon="-2.536165">
        <ele>1064.736647</ele>
        <time>2020-08-06T08:38:57.227Z</time>
      </trkpt>
      <trkpt lat="38.768750" lon="-2.536327">
        <ele>1064.910309</ele>
        <time>2020-08-06T08:38:59.233Z</time>
      </trkpt>
      <trkpt lat="38.768756" lon="-2.536479">
        <ele>1065.073377</ele>
        <time>2020-08-06T08:39:01.227Z</time>
      </trkpt>
      <trkpt lat="38.768761" lon="-2.536621">
        <ele>1065.225678</ele>
        <time>2020-08-06T08:39:03.236Z</time>
      </trkpt>
      <trkpt lat="38.768767" lon="-2.536753">
        <ele>1065.367350</ele>
        <time>2020-08-06T08:39:05.234Z</time>
      </trkpt>
      <trkpt lat="38.768773" lon="-2.536882">
        <ele>1065.505812</ele>
        <time>2020-08-06T08:39:07.230Z</time>
      </trkpt>
      <trkpt lat="38.768775" lon="-2.537005">
        <ele>1065.637629</ele>
        <time>2020-08-06T08:39:09.236Z</time>
      </trkpt>
      <trkpt lat="38.768773" lon="-2.537123">
        <ele>1065.764090</ele>
        <time>2020-08-06T08:39:11.228Z</time>
      </trkpt>
      <trkpt lat="38.768761" lon="-2.537244">
        <ele>1065.894780</ele>
        <time>2020-08-06T08:39:13.233Z</time>
      </trkpt>
      <trkpt lat="38.768753" lon="-2.537416">
        <ele>1066.079396</ele>
        <time>2020-08-06T08:39:16.244Z</time>
      </trkpt>
      <trkpt lat="38.768742" lon="-2.537534">
        <ele>1066.143714</ele>
        <time>2020-08-06T08:39:18.233Z</time>
      </trkpt>
      <trkpt lat="38.768736" lon="-2.537700">
        <ele>1066.173437</ele>
        <time>2020-08-06T08:39:21.235Z</time>
      </trkpt>
      <trkpt lat="38.768723" lon="-2.537864">
        <ele>1066.202921</ele>
        <time>2020-08-06T08:39:24.234Z</time>
      </trkpt>
      <trkpt lat="38.768712" lon="-2.538036">
        <ele>1066.233788</ele>
        <time>2020-08-06T08:39:27.234Z</time>
      </trkpt>
      <trkpt lat="38.768707" lon="-2.538156">
        <ele>1066.255282</ele>
        <time>2020-08-06T08:39:29.233Z</time>
      </trkpt>
      <trkpt lat="38.768698" lon="-2.538319">
        <ele>1066.284509</ele>
        <time>2020-08-06T08:39:32.238Z</time>
      </trkpt>
      <trkpt lat="38.768698" lon="-2.538436">
        <ele>1066.305436</ele>
        <time>2020-08-06T08:39:34.231Z</time>
      </trkpt>
      <trkpt lat="38.768693" lon="-2.538554">
        <ele>1066.326572</ele>
        <time>2020-08-06T08:39:36.240Z</time>
      </trkpt>
      <trkpt lat="38.768691" lon="-2.538724">
        <ele>1066.356982</ele>
        <time>2020-08-06T08:39:39.226Z</time>
      </trkpt>
      <trkpt lat="38.768684" lon="-2.538844">
        <ele>1066.378505</ele>
        <time>2020-08-06T08:39:41.247Z</time>
      </trkpt>
      <trkpt lat="38.768652" lon="-2.538981">
        <ele>1066.404085</ele>
        <time>2020-08-06T08:39:43.231Z</time>
      </trkpt>
      <trkpt lat="38.768646" lon="-2.539101">
        <ele>1066.425592</ele>
        <time>2020-08-06T08:39:45.233Z</time>
      </trkpt>
      <trkpt lat="38.768635" lon="-2.539218">
        <ele>1066.446670</ele>
        <time>2020-08-06T08:39:47.233Z</time>
      </trkpt>
      <trkpt lat="38.768617" lon="-2.539338">
        <ele>1066.468527</ele>
        <time>2020-08-06T08:39:49.234Z</time>
      </trkpt>
      <trkpt lat="38.768612" lon="-2.539463">
        <ele>1066.490914</ele>
        <time>2020-08-06T08:39:51.235Z</time>
      </trkpt>
      <trkpt lat="38.768594" lon="-2.539580">
        <ele>1066.512244</ele>
        <time>2020-08-06T08:39:53.241Z</time>
      </trkpt>
      <trkpt lat="38.768577" lon="-2.539704">
        <ele>1066.534763</ele>
        <time>2020-08-06T08:39:55.231Z</time>
      </trkpt>
      <trkpt lat="38.768548" lon="-2.539821">
        <ele>1066.469597</ele>
        <time>2020-08-06T08:39:57.233Z</time>
      </trkpt>
      <trkpt lat="38.768520" lon="-2.539936">
        <ele>1066.346985</ele>
        <time>2020-08-06T08:39:59.231Z</time>
      </trkpt>
      <trkpt lat="38.768487" lon="-2.540062">
        <ele>1066.211710</ele>
        <time>2020-08-06T08:40:01.239Z</time>
      </trkpt>
      <trkpt lat="38.768453" lon="-2.540196">
        <ele>1066.068295</ele>
        <time>2020-08-06T08:40:03.247Z</time>
      </trkpt>
      <trkpt lat="38.768422" lon="-2.540330">
        <ele>1065.926043</ele>
        <time>2020-08-06T08:40:05.239Z</time>
      </trkpt>
      <trkpt lat="38.768387" lon="-2.540454">
        <ele>1065.791830</ele>
        <time>2020-08-06T08:40:07.236Z</time>
      </trkpt>
      <trkpt lat="38.768355" lon="-2.540588">
        <ele>1065.649201</ele>
        <time>2020-08-06T08:40:09.233Z</time>
      </trkpt>
      <trkpt lat="38.768323" lon="-2.540715">
        <ele>1065.513368</ele>
        <time>2020-08-06T08:40:11.226Z</time>
      </trkpt>
      <trkpt lat="38.768289" lon="-2.540845">
        <ele>1065.373818</ele>
        <time>2020-08-06T08:40:13.220Z</time>
      </trkpt>
      <trkpt lat="38.768242" lon="-2.540981">
        <ele>1065.222420</ele>
        <time>2020-08-06T08:40:15.236Z</time>
      </trkpt>
      <trkpt lat="38.768203" lon="-2.541112">
        <ele>1065.079709</ele>
        <time>2020-08-06T08:40:17.250Z</time>
      </trkpt>
      <trkpt lat="38.768172" lon="-2.541243">
        <ele>1064.940380</ele>
        <time>2020-08-06T08:40:19.249Z</time>
      </trkpt>
      <trkpt lat="38.768141" lon="-2.541375">
        <ele>1064.800078</ele>
        <time>2020-08-06T08:40:21.243Z</time>
      </trkpt>
      <trkpt lat="38.768109" lon="-2.541511">
        <ele>1064.655501</ele>
        <time>2020-08-06T08:40:23.240Z</time>
      </trkpt>
      <trkpt lat="38.768085" lon="-2.541644">
        <ele>1064.516565</ele>
        <time>2020-08-06T08:40:25.226Z</time>
      </trkpt>
      <trkpt lat="38.768050" lon="-2.541788">
        <ele>1064.363056</ele>
        <time>2020-08-06T08:40:27.224Z</time>
      </trkpt>
      <trkpt lat="38.768037" lon="-2.541928">
        <ele>1064.219566</ele>
        <time>2020-08-06T08:40:29.233Z</time>
      </trkpt>
      <trkpt lat="38.768024" lon="-2.542072">
        <ele>1064.028330</ele>
        <time>2020-08-06T08:40:31.233Z</time>
      </trkpt>
      <trkpt lat="38.768007" lon="-2.542221">
        <ele>1063.821007</ele>
        <time>2020-08-06T08:40:33.255Z</time>
      </trkpt>
      <trkpt lat="38.767988" lon="-2.542374">
        <ele>1063.607705</ele>
        <time>2020-08-06T08:40:35.228Z</time>
      </trkpt>
      <trkpt lat="38.767977" lon="-2.542534">
        <ele>1063.386567</ele>
        <time>2020-08-06T08:40:37.231Z</time>
      </trkpt>
      <trkpt lat="38.767975" lon="-2.542694">
        <ele>1063.166255</ele>
        <time>2020-08-06T08:40:39.230Z</time>
      </trkpt>
      <trkpt lat="38.767970" lon="-2.542861">
        <ele>1062.936164</ele>
        <time>2020-08-06T08:40:41.223Z</time>
      </trkpt>
      <trkpt lat="38.767969" lon="-2.543035">
        <ele>1062.696599</ele>
        <time>2020-08-06T08:40:43.234Z</time>
      </trkpt>
      <trkpt lat="38.767970" lon="-2.543209">
        <ele>1062.457033</ele>
        <time>2020-08-06T08:40:45.231Z</time>
      </trkpt>
      <trkpt lat="38.767974" lon="-2.543389">
        <ele>1062.209114</ele>
        <time>2020-08-06T08:40:47.232Z</time>
      </trkpt>
      <trkpt lat="38.767982" lon="-2.543578">
        <ele>1061.948520</ele>
        <time>2020-08-06T08:40:49.231Z</time>
      </trkpt>
      <trkpt lat="38.767986" lon="-2.543771">
        <ele>1061.682709</ele>
        <time>2020-08-06T08:40:51.225Z</time>
      </trkpt>
      <trkpt lat="38.767997" lon="-2.543970">
        <ele>1061.408043</ele>
        <time>2020-08-06T08:40:53.230Z</time>
      </trkpt>
      <trkpt lat="38.768015" lon="-2.544164">
        <ele>1061.139065</ele>
        <time>2020-08-06T08:40:55.227Z</time>
      </trkpt>
      <trkpt lat="38.768035" lon="-2.544365">
        <ele>1060.915433</ele>
        <time>2020-08-06T08:40:57.251Z</time>
      </trkpt>
      <trkpt lat="38.768060" lon="-2.544581">
        <ele>1060.718925</ele>
        <time>2020-08-06T08:40:59.234Z</time>
      </trkpt>
      <trkpt lat="38.768090" lon="-2.544794">
        <ele>1060.524146</ele>
        <time>2020-08-06T08:41:01.232Z</time>
      </trkpt>
      <trkpt lat="38.768099" lon="-2.545025">
        <ele>1060.316011</ele>
        <time>2020-08-06T08:41:03.229Z</time>
      </trkpt>
      <trkpt lat="38.768118" lon="-2.545258">
        <ele>1060.105192</ele>
        <time>2020-08-06T08:41:05.235Z</time>
      </trkpt>
      <trkpt lat="38.768126" lon="-2.545376">
        <ele>1059.998604</ele>
        <time>2020-08-06T08:41:06.230Z</time>
      </trkpt>
      <trkpt lat="38.768139" lon="-2.545498">
        <ele>1059.887796</ele>
        <time>2020-08-06T08:41:07.233Z</time>
      </trkpt>
      <trkpt lat="38.768145" lon="-2.545622">
        <ele>1059.775995</ele>
        <time>2020-08-06T08:41:08.237Z</time>
      </trkpt>
      <trkpt lat="38.768157" lon="-2.545740">
        <ele>1059.668908</ele>
        <time>2020-08-06T08:41:09.235Z</time>
      </trkpt>
      <trkpt lat="38.768165" lon="-2.545864">
        <ele>1059.556940</ele>
        <time>2020-08-06T08:41:10.232Z</time>
      </trkpt>
      <trkpt lat="38.768178" lon="-2.545988">
        <ele>1059.444349</ele>
        <time>2020-08-06T08:41:11.231Z</time>
      </trkpt>
      <trkpt lat="38.768188" lon="-2.546114">
        <ele>1059.330377</ele>
        <time>2020-08-06T08:41:12.232Z</time>
      </trkpt>
      <trkpt lat="38.768198" lon="-2.546239">
        <ele>1059.217299</ele>
        <time>2020-08-06T08:41:13.250Z</time>
      </trkpt>
      <trkpt lat="38.768204" lon="-2.546368">
        <ele>1059.101007</ele>
        <time>2020-08-06T08:41:14.235Z</time>
      </trkpt>
      <trkpt lat="38.768213" lon="-2.546494">
        <ele>1058.987146</ele>
        <time>2020-08-06T08:41:15.232Z</time>
      </trkpt>
      <trkpt lat="38.768221" lon="-2.546620">
        <ele>1058.936790</ele>
        <time>2020-08-06T08:41:16.238Z</time>
      </trkpt>
      <trkpt lat="38.768217" lon="-2.546750">
        <ele>1058.924953</ele>
        <time>2020-08-06T08:41:17.233Z</time>
      </trkpt>
      <trkpt lat="38.768218" lon="-2.546878">
        <ele>1058.913306</ele>
        <time>2020-08-06T08:41:18.234Z</time>
      </trkpt>
      <trkpt lat="38.768224" lon="-2.547001">
        <ele>1058.902092</ele>
        <time>2020-08-06T08:41:19.242Z</time>
      </trkpt>
      <trkpt lat="38.768243" lon="-2.547228">
        <ele>1058.881319</ele>
        <time>2020-08-06T08:41:21.242Z</time>
      </trkpt>
      <trkpt lat="38.768264" lon="-2.547450">
        <ele>1058.860972</ele>
        <time>2020-08-06T08:41:23.231Z</time>
      </trkpt>
      <trkpt lat="38.768326" lon="-2.547629">
        <ele>1058.843150</ele>
        <time>2020-08-06T08:41:25.225Z</time>
      </trkpt>
      <trkpt lat="38.768352" lon="-2.547838">
        <ele>1058.823893</ele>
        <time>2020-08-06T08:41:27.232Z</time>
      </trkpt>
      <trkpt lat="38.768381" lon="-2.548021">
        <ele>1058.806902</ele>
        <time>2020-08-06T08:41:29.227Z</time>
      </trkpt>
      <trkpt lat="38.768412" lon="-2.548211">
        <ele>1058.789240</ele>
        <time>2020-08-06T08:41:31.227Z</time>
      </trkpt>
      <trkpt lat="38.768442" lon="-2.548388">
        <ele>1058.772759</ele>
        <time>2020-08-06T08:41:33.235Z</time>
      </trkpt>
      <trkpt lat="38.768478" lon="-2.548553">
        <ele>1058.757170</ele>
        <time>2020-08-06T08:41:35.232Z</time>
      </trkpt>
      <trkpt lat="38.768507" lon="-2.548715">
        <ele>1058.742046</ele>
        <time>2020-08-06T08:41:37.229Z</time>
      </trkpt>
      <trkpt lat="38.768545" lon="-2.548859">
        <ele>1058.859616</ele>
        <time>2020-08-06T08:41:39.229Z</time>
      </trkpt>
      <trkpt lat="38.768579" lon="-2.549007">
        <ele>1059.163059</ele>
        <time>2020-08-06T08:41:41.227Z</time>
      </trkpt>
      <trkpt lat="38.768611" lon="-2.549155">
        <ele>1059.465114</ele>
        <time>2020-08-06T08:41:43.229Z</time>
      </trkpt>
      <trkpt lat="38.768642" lon="-2.549288">
        <ele>1059.738122</ele>
        <time>2020-08-06T08:41:45.229Z</time>
      </trkpt>
      <trkpt lat="38.768682" lon="-2.549420">
        <ele>1060.016643</ele>
        <time>2020-08-06T08:41:47.231Z</time>
      </trkpt>
      <trkpt lat="38.768713" lon="-2.549575">
        <ele>1060.331349</ele>
        <time>2020-08-06T08:41:49.248Z</time>
      </trkpt>
      <trkpt lat="38.768741" lon="-2.549732">
        <ele>1060.648094</ele>
        <time>2020-08-06T08:41:51.242Z</time>
      </trkpt>
      <trkpt lat="38.768775" lon="-2.549896">
        <ele>1060.981838</ele>
        <time>2020-08-06T08:41:53.247Z</time>
      </trkpt>
      <trkpt lat="38.768828" lon="-2.550042">
        <ele>1061.298571</ele>
        <time>2020-08-06T08:41:55.224Z</time>
      </trkpt>
      <trkpt lat="38.768873" lon="-2.550185">
        <ele>1061.601849</ele>
        <time>2020-08-06T08:41:57.234Z</time>
      </trkpt>
      <trkpt lat="38.768922" lon="-2.550318">
        <ele>1061.891150</ele>
        <time>2020-08-06T08:41:59.234Z</time>
      </trkpt>
      <trkpt lat="38.768960" lon="-2.550459">
        <ele>1062.184551</ele>
        <time>2020-08-06T08:42:01.235Z</time>
      </trkpt>
      <trkpt lat="38.768998" lon="-2.550601">
        <ele>1062.479812</ele>
        <time>2020-08-06T08:42:03.229Z</time>
      </trkpt>
      <trkpt lat="38.769036" lon="-2.550734">
        <ele>1062.758390</ele>
        <time>2020-08-06T08:42:05.236Z</time>
      </trkpt>
      <trkpt lat="38.769077" lon="-2.550867">
        <ele>1063.039661</ele>
        <time>2020-08-06T08:42:07.225Z</time>
      </trkpt>
      <trkpt lat="38.769118" lon="-2.551002">
        <ele>1063.272059</ele>
        <time>2020-08-06T08:42:09.231Z</time>
      </trkpt>
      <trkpt lat="38.769151" lon="-2.551129">
        <ele>1063.277379</ele>
        <time>2020-08-06T08:42:11.238Z</time>
      </trkpt>
      <trkpt lat="38.769191" lon="-2.551256">
        <ele>1063.282822</ele>
        <time>2020-08-06T08:42:13.234Z</time>
      </trkpt>
      <trkpt lat="38.769226" lon="-2.551382">
        <ele>1063.288138</ele>
        <time>2020-08-06T08:42:15.231Z</time>
      </trkpt>
      <trkpt lat="38.769269" lon="-2.551506">
        <ele>1063.293531</ele>
        <time>2020-08-06T08:42:17.229Z</time>
      </trkpt>
      <trkpt lat="38.769306" lon="-2.551625">
        <ele>1063.298622</ele>
        <time>2020-08-06T08:42:19.229Z</time>
      </trkpt>
      <trkpt lat="38.769350" lon="-2.551743">
        <ele>1063.303820</ele>
        <time>2020-08-06T08:42:21.226Z</time>
      </trkpt>
      <trkpt lat="38.769387" lon="-2.551865">
        <ele>1063.309023</ele>
        <time>2020-08-06T08:42:23.237Z</time>
      </trkpt>
      <trkpt lat="38.769419" lon="-2.551984">
        <ele>1063.314025</ele>
        <time>2020-08-06T08:42:25.244Z</time>
      </trkpt>
      <trkpt lat="38.769457" lon="-2.552091">
        <ele>1063.318698</ele>
        <time>2020-08-06T08:42:27.235Z</time>
      </trkpt>
      <trkpt lat="38.769496" lon="-2.552202">
        <ele>1063.323536</ele>
        <time>2020-08-06T08:42:29.236Z</time>
      </trkpt>
      <trkpt lat="38.769532" lon="-2.552310">
        <ele>1063.328204</ele>
        <time>2020-08-06T08:42:31.228Z</time>
      </trkpt>
      <trkpt lat="38.769580" lon="-2.552423">
        <ele>1063.333317</ele>
        <time>2020-08-06T08:42:33.231Z</time>
      </trkpt>
      <trkpt lat="38.769630" lon="-2.552557">
        <ele>1063.339221</ele>
        <time>2020-08-06T08:42:35.244Z</time>
      </trkpt>
      <trkpt lat="38.769671" lon="-2.552695">
        <ele>1063.345090</ele>
        <time>2020-08-06T08:42:37.235Z</time>
      </trkpt>
      <trkpt lat="38.769699" lon="-2.552813">
        <ele>1063.349991</ele>
        <time>2020-08-06T08:42:39.242Z</time>
      </trkpt>
      <trkpt lat="38.769726" lon="-2.552931">
        <ele>1063.354879</ele>
        <time>2020-08-06T08:42:41.234Z</time>
      </trkpt>
      <trkpt lat="38.769764" lon="-2.553083">
        <ele>1063.361222</ele>
        <time>2020-08-06T08:42:44.244Z</time>
      </trkpt>
      <trkpt lat="38.769803" lon="-2.553234">
        <ele>1063.321555</ele>
        <time>2020-08-06T08:42:47.232Z</time>
      </trkpt>
      <trkpt lat="38.769831" lon="-2.553402">
        <ele>1063.264180</ele>
        <time>2020-08-06T08:42:50.229Z</time>
      </trkpt>
      <trkpt lat="38.769857" lon="-2.553516">
        <ele>1063.224512</ele>
        <time>2020-08-06T08:42:52.231Z</time>
      </trkpt>
      <trkpt lat="38.769885" lon="-2.553682">
        <ele>1063.167790</ele>
        <time>2020-08-06T08:42:55.238Z</time>
      </trkpt>
      <trkpt lat="38.769914" lon="-2.553852">
        <ele>1063.109672</ele>
        <time>2020-08-06T08:42:58.234Z</time>
      </trkpt>
      <trkpt lat="38.769931" lon="-2.553972">
        <ele>1063.068940</ele>
        <time>2020-08-06T08:43:00.235Z</time>
      </trkpt>
      <trkpt lat="38.769948" lon="-2.554089">
        <ele>1063.029193</ele>
        <time>2020-08-06T08:43:02.244Z</time>
      </trkpt>
      <trkpt lat="38.769966" lon="-2.554206">
        <ele>1062.989365</ele>
        <time>2020-08-06T08:43:04.237Z</time>
      </trkpt>
      <trkpt lat="38.769988" lon="-2.554321">
        <ele>1062.949819</ele>
        <time>2020-08-06T08:43:06.227Z</time>
      </trkpt>
      <trkpt lat="38.770012" lon="-2.554442">
        <ele>1062.908122</ele>
        <time>2020-08-06T08:43:08.238Z</time>
      </trkpt>
      <trkpt lat="38.770032" lon="-2.554567">
        <ele>1062.865505</ele>
        <time>2020-08-06T08:43:10.232Z</time>
      </trkpt>
      <trkpt lat="38.770059" lon="-2.554704">
        <ele>1062.818313</ele>
        <time>2020-08-06T08:43:12.235Z</time>
      </trkpt>
      <trkpt lat="38.770085" lon="-2.554838">
        <ele>1062.772196</ele>
        <time>2020-08-06T08:43:14.233Z</time>
      </trkpt>
      <trkpt lat="38.770109" lon="-2.554978">
        <ele>1062.724323</ele>
        <time>2020-08-06T08:43:16.226Z</time>
      </trkpt>
      <trkpt lat="38.770127" lon="-2.555109">
        <ele>1062.679899</ele>
        <time>2020-08-06T08:43:18.236Z</time>
      </trkpt>
      <trkpt lat="38.770149" lon="-2.555243">
        <ele>1062.634166</ele>
        <time>2020-08-06T08:43:20.239Z</time>
      </trkpt>
      <trkpt lat="38.770173" lon="-2.555370">
        <ele>1062.586975</ele>
        <time>2020-08-06T08:43:22.235Z</time>
      </trkpt>
      <trkpt lat="38.770195" lon="-2.555508">
        <ele>1062.440663</ele>
        <time>2020-08-06T08:43:24.229Z</time>
      </trkpt>
      <trkpt lat="38.770220" lon="-2.555639">
        <ele>1062.300571</ele>
        <time>2020-08-06T08:43:26.238Z</time>
      </trkpt>
      <trkpt lat="38.770268" lon="-2.555760">
        <ele>1062.159550</ele>
        <time>2020-08-06T08:43:28.230Z</time>
      </trkpt>
      <trkpt lat="38.770291" lon="-2.555897">
        <ele>1062.013982</ele>
        <time>2020-08-06T08:43:30.234Z</time>
      </trkpt>
      <trkpt lat="38.770314" lon="-2.556031">
        <ele>1061.871458</ele>
        <time>2020-08-06T08:43:32.229Z</time>
      </trkpt>
      <trkpt lat="38.770345" lon="-2.556148">
        <ele>1061.743100</ele>
        <time>2020-08-06T08:43:34.240Z</time>
      </trkpt>
      <trkpt lat="38.770368" lon="-2.556281">
        <ele>1061.601590</ele>
        <time>2020-08-06T08:43:36.232Z</time>
      </trkpt>
      <trkpt lat="38.770385" lon="-2.556417">
        <ele>1061.458518</ele>
        <time>2020-08-06T08:43:38.232Z</time>
      </trkpt>
      <trkpt lat="38.770409" lon="-2.556561">
        <ele>1061.305561</ele>
        <time>2020-08-06T08:43:40.235Z</time>
      </trkpt>
      <trkpt lat="38.770429" lon="-2.556711">
        <ele>1061.147488</ele>
        <time>2020-08-06T08:43:42.237Z</time>
      </trkpt>
      <trkpt lat="38.770455" lon="-2.556858">
        <ele>1060.990915</ele>
        <time>2020-08-06T08:43:44.236Z</time>
      </trkpt>
      <trkpt lat="38.770477" lon="-2.557011">
        <ele>1060.829308</ele>
        <time>2020-08-06T08:43:46.231Z</time>
      </trkpt>
      <trkpt lat="38.770506" lon="-2.557166">
        <ele>1060.663733</ele>
        <time>2020-08-06T08:43:48.229Z</time>
      </trkpt>
      <trkpt lat="38.770538" lon="-2.557320">
        <ele>1060.498184</ele>
        <time>2020-08-06T08:43:50.240Z</time>
      </trkpt>
      <trkpt lat="38.770569" lon="-2.557476">
        <ele>1060.330962</ele>
        <time>2020-08-06T08:43:52.231Z</time>
      </trkpt>
      <trkpt lat="38.770596" lon="-2.557641">
        <ele>1060.222250</ele>
        <time>2020-08-06T08:43:54.244Z</time>
      </trkpt>
      <trkpt lat="38.770628" lon="-2.557801">
        <ele>1060.335163</ele>
        <time>2020-08-06T08:43:56.228Z</time>
      </trkpt>
      <trkpt lat="38.770651" lon="-2.557958">
        <ele>1060.444362</ele>
        <time>2020-08-06T08:43:58.252Z</time>
      </trkpt>
      <trkpt lat="38.770676" lon="-2.558124">
        <ele>1060.559933</ele>
        <time>2020-08-06T08:44:00.248Z</time>
      </trkpt>
      <trkpt lat="38.770706" lon="-2.558279">
        <ele>1060.669104</ele>
        <time>2020-08-06T08:44:02.242Z</time>
      </trkpt>
      <trkpt lat="38.770732" lon="-2.558424">
        <ele>1060.770810</ele>
        <time>2020-08-06T08:44:04.237Z</time>
      </trkpt>
      <trkpt lat="38.770757" lon="-2.558578">
        <ele>1060.878338</ele>
        <time>2020-08-06T08:44:06.228Z</time>
      </trkpt>
      <trkpt lat="38.770785" lon="-2.558727">
        <ele>1060.983107</ele>
        <time>2020-08-06T08:44:08.235Z</time>
      </trkpt>
      <trkpt lat="38.770809" lon="-2.558870">
        <ele>1061.083097</ele>
        <time>2020-08-06T08:44:11.357Z</time>
      </trkpt>
      <trkpt lat="38.770837" lon="-2.559079">
        <ele>1061.228058</ele>
        <time>2020-08-06T08:44:13.231Z</time>
      </trkpt>
      <trkpt lat="38.770859" lon="-2.559222">
        <ele>1061.327694</ele>
        <time>2020-08-06T08:44:15.230Z</time>
      </trkpt>
      <trkpt lat="38.770887" lon="-2.559348">
        <ele>1061.417255</ele>
        <time>2020-08-06T08:44:17.230Z</time>
      </trkpt>
      <trkpt lat="38.770910" lon="-2.559476">
        <ele>1061.507046</ele>
        <time>2020-08-06T08:44:19.233Z</time>
      </trkpt>
      <trkpt lat="38.770938" lon="-2.559606">
        <ele>1061.599239</ele>
        <time>2020-08-06T08:44:21.236Z</time>
      </trkpt>
      <trkpt lat="38.770957" lon="-2.559742">
        <ele>1061.693686</ele>
        <time>2020-08-06T08:44:23.232Z</time>
      </trkpt>
      <trkpt lat="38.770977" lon="-2.559872">
        <ele>1061.777349</ele>
        <time>2020-08-06T08:44:25.242Z</time>
      </trkpt>
      <trkpt lat="38.770996" lon="-2.560000">
        <ele>1061.812348</ele>
        <time>2020-08-06T08:44:27.236Z</time>
      </trkpt>
      <trkpt lat="38.771026" lon="-2.560121">
        <ele>1061.846454</ele>
        <time>2020-08-06T08:44:29.226Z</time>
      </trkpt>
      <trkpt lat="38.771046" lon="-2.560250">
        <ele>1061.881783</ele>
        <time>2020-08-06T08:44:31.239Z</time>
      </trkpt>
      <trkpt lat="38.771066" lon="-2.560377">
        <ele>1061.916585</ele>
        <time>2020-08-06T08:44:33.243Z</time>
      </trkpt>
      <trkpt lat="38.771081" lon="-2.560509">
        <ele>1061.952415</ele>
        <time>2020-08-06T08:44:35.243Z</time>
      </trkpt>
      <trkpt lat="38.771105" lon="-2.560629">
        <ele>1061.985692</ele>
        <time>2020-08-06T08:44:37.244Z</time>
      </trkpt>
      <trkpt lat="38.771124" lon="-2.560757">
        <ele>1062.020691</ele>
        <time>2020-08-06T08:44:39.230Z</time>
      </trkpt>
      <trkpt lat="38.771145" lon="-2.560877">
        <ele>1062.053726</ele>
        <time>2020-08-06T08:44:41.235Z</time>
      </trkpt>
      <trkpt lat="38.771170" lon="-2.561000">
        <ele>1062.087869</ele>
        <time>2020-08-06T08:44:43.237Z</time>
      </trkpt>
      <trkpt lat="38.771190" lon="-2.561123">
        <ele>1062.121619</ele>
        <time>2020-08-06T08:44:45.234Z</time>
      </trkpt>
      <trkpt lat="38.771209" lon="-2.561246">
        <ele>1062.155299</ele>
        <time>2020-08-06T08:44:47.233Z</time>
      </trkpt>
      <trkpt lat="38.771230" lon="-2.561364">
        <ele>1062.187810</ele>
        <time>2020-08-06T08:44:49.242Z</time>
      </trkpt>
      <trkpt lat="38.771253" lon="-2.561481">
        <ele>1062.220221</ele>
        <time>2020-08-06T08:44:51.239Z</time>
      </trkpt>
      <trkpt lat="38.771259" lon="-2.561635">
        <ele>1062.261638</ele>
        <time>2020-08-06T08:44:53.231Z</time>
      </trkpt>
      <trkpt lat="38.771277" lon="-2.561757">
        <ele>1062.294989</ele>
        <time>2020-08-06T08:44:55.232Z</time>
      </trkpt>
      <trkpt lat="38.771336" lon="-2.561897">
        <ele>1062.337736</ele>
        <time>2020-08-06T08:44:58.229Z</time>
      </trkpt>
      <trkpt lat="38.771359" lon="-2.562010">
        <ele>1062.369106</ele>
        <time>2020-08-06T08:45:00.246Z</time>
      </trkpt>
      <trkpt lat="38.771370" lon="-2.562171">
        <ele>1062.543649</ele>
        <time>2020-08-06T08:45:03.230Z</time>
      </trkpt>
      <trkpt lat="38.771394" lon="-2.562336">
        <ele>1062.884724</ele>
        <time>2020-08-06T08:45:06.243Z</time>
      </trkpt>
      <trkpt lat="38.771413" lon="-2.562492">
        <ele>1063.205569</ele>
        <time>2020-08-06T08:45:09.235Z</time>
      </trkpt>
      <trkpt lat="38.771435" lon="-2.562648">
        <ele>1063.527714</ele>
        <time>2020-08-06T08:45:12.233Z</time>
      </trkpt>
      <trkpt lat="38.771452" lon="-2.562790">
        <ele>1063.819647</ele>
        <time>2020-08-06T08:45:15.233Z</time>
      </trkpt>
      <trkpt lat="38.771466" lon="-2.562955">
        <ele>1064.156916</ele>
        <time>2020-08-06T08:45:18.221Z</time>
      </trkpt>
      <trkpt lat="38.771479" lon="-2.563113">
        <ele>1064.479763</ele>
        <time>2020-08-06T08:45:21.236Z</time>
      </trkpt>
      <trkpt lat="38.771486" lon="-2.563246">
        <ele>1064.750641</ele>
        <time>2020-08-06T08:45:24.238Z</time>
      </trkpt>
      <trkpt lat="38.771494" lon="-2.563376">
        <ele>1065.015630</ele>
        <time>2020-08-06T08:45:27.237Z</time>
      </trkpt>
      <trkpt lat="38.771492" lon="-2.563504">
        <ele>1065.275785</ele>
        <time>2020-08-06T08:45:30.226Z</time>
      </trkpt>
      <trkpt lat="38.771500" lon="-2.563624">
        <ele>1065.520521</ele>
        <time>2020-08-06T08:45:33.231Z</time>
      </trkpt>
      <trkpt lat="38.771506" lon="-2.563762">
        <ele>1065.801380</ele>
        <time>2020-08-06T08:45:37.233Z</time>
      </trkpt>
      <trkpt lat="38.771514" lon="-2.563898">
        <ele>1066.078524</ele>
        <time>2020-08-06T08:45:41.234Z</time>
      </trkpt>
      <trkpt lat="38.771517" lon="-2.564044">
        <ele>1066.375307</ele>
        <time>2020-08-06T08:45:45.232Z</time>
      </trkpt>
      <trkpt lat="38.771512" lon="-2.564162">
        <ele>1066.615443</ele>
        <time>2020-08-06T08:45:48.239Z</time>
      </trkpt>
      <trkpt lat="38.771510" lon="-2.564310">
        <ele>1066.916232</ele>
        <time>2020-08-06T08:45:52.237Z</time>
      </trkpt>
      <trkpt lat="38.771507" lon="-2.564449">
        <ele>1067.138025</ele>
        <time>2020-08-06T08:45:55.231Z</time>
      </trkpt>
      <trkpt lat="38.771497" lon="-2.564569">
        <ele>1067.257316</ele>
        <time>2020-08-06T08:45:58.238Z</time>
      </trkpt>
      <trkpt lat="38.771492" lon="-2.564691">
        <ele>1067.378074</ele>
        <time>2020-08-06T08:46:01.227Z</time>
      </trkpt>
      <trkpt lat="38.771487" lon="-2.564835">
        <ele>1067.520552</ele>
        <time>2020-08-06T08:46:05.237Z</time>
      </trkpt>
      <trkpt lat="38.771475" lon="-2.564977">
        <ele>1067.661735</ele>
        <time>2020-08-06T08:46:09.251Z</time>
      </trkpt>
      <trkpt lat="38.771459" lon="-2.565125">
        <ele>1067.809426</ele>
        <time>2020-08-06T08:46:13.227Z</time>
      </trkpt>
      <trkpt lat="38.771438" lon="-2.565274">
        <ele>1067.959093</ele>
        <time>2020-08-06T08:46:17.231Z</time>
      </trkpt>
      <trkpt lat="38.771423" lon="-2.565409">
        <ele>1068.093883</ele>
        <time>2020-08-06T08:46:21.234Z</time>
      </trkpt>
      <trkpt lat="38.771401" lon="-2.565549">
        <ele>1068.235049</ele>
        <time>2020-08-06T08:46:25.242Z</time>
      </trkpt>
      <trkpt lat="38.771386" lon="-2.565663">
        <ele>1068.349327</ele>
        <time>2020-08-06T08:46:28.236Z</time>
      </trkpt>
      <trkpt lat="38.771375" lon="-2.565811">
        <ele>1068.496282</ele>
        <time>2020-08-06T08:46:32.233Z</time>
      </trkpt>
      <trkpt lat="38.771352" lon="-2.565962">
        <ele>1068.648360</ele>
        <time>2020-08-06T08:46:36.232Z</time>
      </trkpt>
      <trkpt lat="38.771347" lon="-2.566109">
        <ele>1068.793802</ele>
        <time>2020-08-06T08:46:40.230Z</time>
      </trkpt>
      <trkpt lat="38.771351" lon="-2.566260">
        <ele>1068.943145</ele>
        <time>2020-08-06T08:46:44.229Z</time>
      </trkpt>
      <trkpt lat="38.771361" lon="-2.566378">
        <ele>1069.060470</ele>
        <time>2020-08-06T08:46:47.233Z</time>
      </trkpt>
      <trkpt lat="38.771373" lon="-2.566494">
        <ele>1069.176136</ele>
        <time>2020-08-06T08:46:50.227Z</time>
      </trkpt>
      <trkpt lat="38.771399" lon="-2.566637">
        <ele>1069.321278</ele>
        <time>2020-08-06T08:46:54.233Z</time>
      </trkpt>
      <trkpt lat="38.771423" lon="-2.566782">
        <ele>1069.258679</ele>
        <time>2020-08-06T08:46:58.230Z</time>
      </trkpt>
      <trkpt lat="38.771442" lon="-2.566916">
        <ele>1069.130138</ele>
        <time>2020-08-06T08:47:02.227Z</time>
      </trkpt>
      <trkpt lat="38.771462" lon="-2.567043">
        <ele>1069.007856</ele>
        <time>2020-08-06T08:47:06.235Z</time>
      </trkpt>
      <trkpt lat="38.771487" lon="-2.567184">
        <ele>1068.871385</ele>
        <time>2020-08-06T08:47:10.228Z</time>
      </trkpt>
      <trkpt lat="38.771501" lon="-2.567301">
        <ele>1068.759670</ele>
        <time>2020-08-06T08:47:13.238Z</time>
      </trkpt>
      <trkpt lat="38.771509" lon="-2.567436">
        <ele>1068.631892</ele>
        <time>2020-08-06T08:47:16.234Z</time>
      </trkpt>
      <trkpt lat="38.771493" lon="-2.567607">
        <ele>1068.469347</ele>
        <time>2020-08-06T08:47:19.234Z</time>
      </trkpt>
      <trkpt lat="38.771487" lon="-2.567738">
        <ele>1068.345498</ele>
        <time>2020-08-06T08:47:21.241Z</time>
      </trkpt>
      <trkpt lat="38.771468" lon="-2.567887">
        <ele>1068.203006</ele>
        <time>2020-08-06T08:47:23.229Z</time>
      </trkpt>
      <trkpt lat="38.771451" lon="-2.568050">
        <ele>1068.047799</ele>
        <time>2020-08-06T08:47:25.241Z</time>
      </trkpt>
      <trkpt lat="38.771432" lon="-2.568229">
        <ele>1067.877304</ele>
        <time>2020-08-06T08:47:27.237Z</time>
      </trkpt>
      <trkpt lat="38.771413" lon="-2.568415">
        <ele>1067.700259</ele>
        <time>2020-08-06T08:47:29.230Z</time>
      </trkpt>
      <trkpt lat="38.771394" lon="-2.568607">
        <ele>1067.517599</ele>
        <time>2020-08-06T08:47:31.236Z</time>
      </trkpt>
      <trkpt lat="38.771374" lon="-2.568807">
        <ele>1067.327296</ele>
        <time>2020-08-06T08:47:33.240Z</time>
      </trkpt>
      <trkpt lat="38.771353" lon="-2.569003">
        <ele>1067.074235</ele>
        <time>2020-08-06T08:47:35.230Z</time>
      </trkpt>
      <trkpt lat="38.771335" lon="-2.569211">
        <ele>1066.571639</ele>
        <time>2020-08-06T08:47:37.230Z</time>
      </trkpt>
      <trkpt lat="38.771316" lon="-2.569424">
        <ele>1066.056766</ele>
        <time>2020-08-06T08:47:39.235Z</time>
      </trkpt>
      <trkpt lat="38.771293" lon="-2.569646">
        <ele>1065.518929</ele>
        <time>2020-08-06T08:47:41.231Z</time>
      </trkpt>
      <trkpt lat="38.771292" lon="-2.569872">
        <ele>1064.976163</ele>
        <time>2020-08-06T08:47:43.234Z</time>
      </trkpt>
      <trkpt lat="38.771290" lon="-2.569988">
        <ele>1064.697512</ele>
        <time>2020-08-06T08:47:44.230Z</time>
      </trkpt>
      <trkpt lat="38.771277" lon="-2.570107">
        <ele>1064.408932</ele>
        <time>2020-08-06T08:47:45.229Z</time>
      </trkpt>
      <trkpt lat="38.771263" lon="-2.570228">
        <ele>1064.115159</ele>
        <time>2020-08-06T08:47:46.229Z</time>
      </trkpt>
      <trkpt lat="38.771252" lon="-2.570349">
        <ele>1063.822599</ele>
        <time>2020-08-06T08:47:47.232Z</time>
      </trkpt>
      <trkpt lat="38.771243" lon="-2.570470">
        <ele>1063.530688</ele>
        <time>2020-08-06T08:47:48.225Z</time>
      </trkpt>
      <trkpt lat="38.771231" lon="-2.570594">
        <ele>1063.230607</ele>
        <time>2020-08-06T08:47:49.229Z</time>
      </trkpt>
      <trkpt lat="38.771220" lon="-2.570719">
        <ele>1062.928503</ele>
        <time>2020-08-06T08:47:50.228Z</time>
      </trkpt>
      <trkpt lat="38.771208" lon="-2.570845">
        <ele>1062.623654</ele>
        <time>2020-08-06T08:47:51.233Z</time>
      </trkpt>
      <trkpt lat="38.771199" lon="-2.570970">
        <ele>1062.322179</ele>
        <time>2020-08-06T08:47:52.231Z</time>
      </trkpt>
      <trkpt lat="38.771191" lon="-2.571096">
        <ele>1062.018578</ele>
        <time>2020-08-06T08:47:53.225Z</time>
      </trkpt>
      <trkpt lat="38.771175" lon="-2.571228">
        <ele>1061.697761</ele>
        <time>2020-08-06T08:47:54.237Z</time>
      </trkpt>
      <trkpt lat="38.771164" lon="-2.571355">
        <ele>1061.849165</ele>
        <time>2020-08-06T08:47:55.231Z</time>
      </trkpt>
      <trkpt lat="38.771148" lon="-2.571478">
        <ele>1062.093791</ele>
        <time>2020-08-06T08:47:56.237Z</time>
      </trkpt>
      <trkpt lat="38.771135" lon="-2.571604">
        <ele>1062.343121</ele>
        <time>2020-08-06T08:47:57.228Z</time>
      </trkpt>
      <trkpt lat="38.771119" lon="-2.571725">
        <ele>1062.583878</ele>
        <time>2020-08-06T08:47:58.229Z</time>
      </trkpt>
      <trkpt lat="38.771095" lon="-2.571843">
        <ele>1062.823108</ele>
        <time>2020-08-06T08:47:59.228Z</time>
      </trkpt>
      <trkpt lat="38.771033" lon="-2.572045">
        <ele>1063.248975</ele>
        <time>2020-08-06T08:48:01.231Z</time>
      </trkpt>
      <trkpt lat="38.770964" lon="-2.572220">
        <ele>1063.633679</ele>
        <time>2020-08-06T08:48:03.228Z</time>
      </trkpt>
      <trkpt lat="38.770881" lon="-2.572374">
        <ele>1064.000941</ele>
        <time>2020-08-06T08:48:05.231Z</time>
      </trkpt>
      <trkpt lat="38.770817" lon="-2.572514">
        <ele>1064.319310</ele>
        <time>2020-08-06T08:48:07.236Z</time>
      </trkpt>
      <trkpt lat="38.770760" lon="-2.572617">
        <ele>1064.567093</ele>
        <time>2020-08-06T08:48:09.236Z</time>
      </trkpt>
      <trkpt lat="38.770693" lon="-2.572747">
        <ele>1064.872800</ele>
        <time>2020-08-06T08:48:12.231Z</time>
      </trkpt>
      <trkpt lat="38.770624" lon="-2.572866">
        <ele>1065.163727</ele>
        <time>2020-08-06T08:48:15.227Z</time>
      </trkpt>
      <trkpt lat="38.770578" lon="-2.572968">
        <ele>1065.394887</ele>
        <time>2020-08-06T08:48:19.239Z</time>
      </trkpt>
      <trkpt lat="38.770529" lon="-2.573068">
        <ele>1065.626586</ele>
        <time>2020-08-06T08:48:23.229Z</time>
      </trkpt>
      <trkpt lat="38.770473" lon="-2.573189">
        <ele>1065.902626</ele>
        <time>2020-08-06T08:48:28.227Z</time>
      </trkpt>
      <trkpt lat="38.770375" lon="-2.573226">
        <ele>1066.159668</ele>
        <time>2020-08-06T08:48:34.243Z</time>
      </trkpt>
      <trkpt lat="38.770301" lon="-2.573309">
        <ele>1066.324518</ele>
        <time>2020-08-06T08:48:40.234Z</time>
      </trkpt>
      <trkpt lat="38.770285" lon="-2.573569">
        <ele>1066.659007</ele>
        <time>2020-08-06T08:54:05.230Z</time>
      </trkpt>
      <trkpt lat="38.770240" lon="-2.573678">
        <ele>1066.817189</ele>
        <time>2020-08-06T08:54:15.234Z</time>
      </trkpt>
      <trkpt lat="38.770194" lon="-2.573864">
        <ele>1067.067449</ele>
        <time>2020-08-06T08:55:44.241Z</time>
      </trkpt>
      <trkpt lat="38.770125" lon="-2.573966">
        <ele>1067.240641</ele>
        <time>2020-08-06T08:55:49.233Z</time>
      </trkpt>
      <trkpt lat="38.770110" lon="-2.574097">
        <ele>1067.410452</ele>
        <time>2020-08-06T08:55:54.242Z</time>
      </trkpt>
      <trkpt lat="38.770071" lon="-2.574224">
        <ele>1067.585509</ele>
        <time>2020-08-06T08:56:00.232Z</time>
      </trkpt>
      <trkpt lat="38.770026" lon="-2.574341">
        <ele>1067.752828</ele>
        <time>2020-08-06T08:56:05.229Z</time>
      </trkpt>
      <trkpt lat="38.769972" lon="-2.574454">
        <ele>1067.922808</ele>
        <time>2020-08-06T08:56:10.232Z</time>
      </trkpt>
      <trkpt lat="38.769926" lon="-2.574575">
        <ele>1068.095457</ele>
        <time>2020-08-06T08:56:15.234Z</time>
      </trkpt>
      <trkpt lat="38.769869" lon="-2.574666">
        <ele>1068.245164</ele>
        <time>2020-08-06T08:56:19.239Z</time>
      </trkpt>
      <trkpt lat="38.769822" lon="-2.574768">
        <ele>1068.397119</ele>
        <time>2020-08-06T08:56:23.232Z</time>
      </trkpt>
      <trkpt lat="38.769769" lon="-2.574878">
        <ele>1068.562960</ele>
        <time>2020-08-06T08:56:27.233Z</time>
      </trkpt>
      <trkpt lat="38.769721" lon="-2.575005">
        <ele>1068.743969</ele>
        <time>2020-08-06T08:56:32.237Z</time>
      </trkpt>
      <trkpt lat="38.769655" lon="-2.575098">
        <ele>1068.905254</ele>
        <time>2020-08-06T08:56:36.217Z</time>
      </trkpt>
      <trkpt lat="38.769617" lon="-2.575206">
        <ele>1069.057218</ele>
        <time>2020-08-06T08:56:40.234Z</time>
      </trkpt>
      <trkpt lat="38.769562" lon="-2.575314">
        <ele>1069.150953</ele>
        <time>2020-08-06T08:56:44.223Z</time>
      </trkpt>
      <trkpt lat="38.769511" lon="-2.575414">
        <ele>1069.188808</ele>
        <time>2020-08-06T08:56:48.229Z</time>
      </trkpt>
      <trkpt lat="38.769454" lon="-2.575512">
        <ele>1069.227540</ele>
        <time>2020-08-06T08:56:52.238Z</time>
      </trkpt>
      <trkpt lat="38.769390" lon="-2.575612">
        <ele>1069.268525</ele>
        <time>2020-08-06T08:56:56.235Z</time>
      </trkpt>
      <trkpt lat="38.769323" lon="-2.575722">
        <ele>1069.312744</ele>
        <time>2020-08-06T08:57:00.238Z</time>
      </trkpt>
      <trkpt lat="38.769249" lon="-2.575832">
        <ele>1069.358770</ele>
        <time>2020-08-06T08:57:04.237Z</time>
      </trkpt>
      <trkpt lat="38.769192" lon="-2.575928">
        <ele>1069.396996</ele>
        <time>2020-08-06T08:57:07.228Z</time>
      </trkpt>
      <trkpt lat="38.769135" lon="-2.576027">
        <ele>1069.435983</ele>
        <time>2020-08-06T08:57:10.231Z</time>
      </trkpt>
      <trkpt lat="38.769082" lon="-2.576125">
        <ele>1069.473766</ele>
        <time>2020-08-06T08:57:13.233Z</time>
      </trkpt>
      <trkpt lat="38.769026" lon="-2.576219">
        <ele>1069.511242</ele>
        <time>2020-08-06T08:57:16.231Z</time>
      </trkpt>
      <trkpt lat="38.768972" lon="-2.576319">
        <ele>1069.549777</ele>
        <time>2020-08-06T08:57:19.227Z</time>
      </trkpt>
      <trkpt lat="38.768913" lon="-2.576422">
        <ele>1069.590266</ele>
        <time>2020-08-06T08:57:22.231Z</time>
      </trkpt>
      <trkpt lat="38.768855" lon="-2.576517">
        <ele>1069.628491</ele>
        <time>2020-08-06T08:57:25.228Z</time>
      </trkpt>
      <trkpt lat="38.768800" lon="-2.576615">
        <ele>1069.666743</ele>
        <time>2020-08-06T08:57:28.230Z</time>
      </trkpt>
      <trkpt lat="38.768748" lon="-2.576713">
        <ele>1069.704296</ele>
        <time>2020-08-06T08:57:31.231Z</time>
      </trkpt>
      <trkpt lat="38.768676" lon="-2.576835">
        <ele>1069.752768</ele>
        <time>2020-08-06T08:57:35.231Z</time>
      </trkpt>
      <trkpt lat="38.768621" lon="-2.576928">
        <ele>1069.789746</ele>
        <time>2020-08-06T08:57:38.233Z</time>
      </trkpt>
      <trkpt lat="38.768569" lon="-2.577025">
        <ele>1069.827038</ele>
        <time>2020-08-06T08:57:41.228Z</time>
      </trkpt>
      <trkpt lat="38.768512" lon="-2.577124">
        <ele>1069.865212</ele>
        <time>2020-08-06T08:57:44.240Z</time>
      </trkpt>
      <trkpt lat="38.768456" lon="-2.577233">
        <ele>1069.902248</ele>
        <time>2020-08-06T08:57:47.237Z</time>
      </trkpt>
      <trkpt lat="38.768396" lon="-2.577336">
        <ele>1069.938727</ele>
        <time>2020-08-06T08:57:50.237Z</time>
      </trkpt>
      <trkpt lat="38.768338" lon="-2.577442">
        <ele>1069.975468</ele>
        <time>2020-08-06T08:57:53.228Z</time>
      </trkpt>
      <trkpt lat="38.768275" lon="-2.577543">
        <ele>1070.012166</ele>
        <time>2020-08-06T08:57:56.237Z</time>
      </trkpt>
      <trkpt lat="38.768214" lon="-2.577652">
        <ele>1070.050233</ele>
        <time>2020-08-06T08:57:59.233Z</time>
      </trkpt>
      <trkpt lat="38.768147" lon="-2.577764">
        <ele>1070.090285</ele>
        <time>2020-08-06T08:58:02.236Z</time>
      </trkpt>
      <trkpt lat="38.768079" lon="-2.577881">
        <ele>1070.131689</ele>
        <time>2020-08-06T08:58:05.229Z</time>
      </trkpt>
      <trkpt lat="38.768009" lon="-2.577995">
        <ele>1070.172859</ele>
        <time>2020-08-06T08:58:08.232Z</time>
      </trkpt>
      <trkpt lat="38.767937" lon="-2.578108">
        <ele>1070.214264</ele>
        <time>2020-08-06T08:58:11.227Z</time>
      </trkpt>
      <trkpt lat="38.767878" lon="-2.578219">
        <ele>1070.252379</ele>
        <time>2020-08-06T08:58:14.230Z</time>
      </trkpt>
      <trkpt lat="38.767798" lon="-2.578321">
        <ele>1070.293428</ele>
        <time>2020-08-06T08:58:17.227Z</time>
      </trkpt>
      <trkpt lat="38.767704" lon="-2.578426">
        <ele>1070.338788</ele>
        <time>2020-08-06T08:58:20.228Z</time>
      </trkpt>
      <trkpt lat="38.767608" lon="-2.578520">
        <ele>1070.382739</ele>
        <time>2020-08-06T08:58:23.241Z</time>
      </trkpt>
      <trkpt lat="38.767523" lon="-2.578630">
        <ele>1070.426679</ele>
        <time>2020-08-06T08:58:26.237Z</time>
      </trkpt>
      <trkpt lat="38.767459" lon="-2.578768">
        <ele>1070.472236</ele>
        <time>2020-08-06T08:58:29.230Z</time>
      </trkpt>
      <trkpt lat="38.767407" lon="-2.578916">
        <ele>1070.508940</ele>
        <time>2020-08-06T08:58:32.222Z</time>
      </trkpt>
      <trkpt lat="38.767357" lon="-2.579065">
        <ele>1070.477260</ele>
        <time>2020-08-06T08:58:35.233Z</time>
      </trkpt>
      <trkpt lat="38.767305" lon="-2.579205">
        <ele>1070.446974</ele>
        <time>2020-08-06T08:58:38.228Z</time>
      </trkpt>
      <trkpt lat="38.767247" lon="-2.579331">
        <ele>1070.418397</ele>
        <time>2020-08-06T08:58:41.230Z</time>
      </trkpt>
      <trkpt lat="38.767186" lon="-2.579456">
        <ele>1070.389597</ele>
        <time>2020-08-06T08:58:44.242Z</time>
      </trkpt>
      <trkpt lat="38.767122" lon="-2.579583">
        <ele>1070.360064</ele>
        <time>2020-08-06T08:58:47.232Z</time>
      </trkpt>
      <trkpt lat="38.767055" lon="-2.579710">
        <ele>1070.330117</ele>
        <time>2020-08-06T08:58:50.228Z</time>
      </trkpt>
      <trkpt lat="38.766988" lon="-2.579833">
        <ele>1070.300813</ele>
        <time>2020-08-06T08:58:53.232Z</time>
      </trkpt>
      <trkpt lat="38.766913" lon="-2.579961">
        <ele>1070.269543</ele>
        <time>2020-08-06T08:58:56.226Z</time>
      </trkpt>
      <trkpt lat="38.766836" lon="-2.580093">
        <ele>1070.237346</ele>
        <time>2020-08-06T08:58:59.245Z</time>
      </trkpt>
      <trkpt lat="38.766763" lon="-2.580224">
        <ele>1070.205899</ele>
        <time>2020-08-06T08:59:02.229Z</time>
      </trkpt>
      <trkpt lat="38.766691" lon="-2.580352">
        <ele>1070.175074</ele>
        <time>2020-08-06T08:59:05.234Z</time>
      </trkpt>
      <trkpt lat="38.766622" lon="-2.580475">
        <ele>1070.145481</ele>
        <time>2020-08-06T08:59:08.240Z</time>
      </trkpt>
      <trkpt lat="38.766547" lon="-2.580590">
        <ele>1070.116200</ele>
        <time>2020-08-06T08:59:11.235Z</time>
      </trkpt>
      <trkpt lat="38.766472" lon="-2.580703">
        <ele>1070.087217</ele>
        <time>2020-08-06T08:59:14.231Z</time>
      </trkpt>
      <trkpt lat="38.766408" lon="-2.580810">
        <ele>1070.069920</ele>
        <time>2020-08-06T08:59:17.232Z</time>
      </trkpt>
      <trkpt lat="38.766345" lon="-2.580913">
        <ele>1070.216298</ele>
        <time>2020-08-06T08:59:20.230Z</time>
      </trkpt>
      <trkpt lat="38.766286" lon="-2.581013">
        <ele>1070.356517</ele>
        <time>2020-08-06T08:59:23.232Z</time>
      </trkpt>
      <trkpt lat="38.766235" lon="-2.581109">
        <ele>1070.486407</ele>
        <time>2020-08-06T08:59:26.235Z</time>
      </trkpt>
      <trkpt lat="38.766171" lon="-2.581228">
        <ele>1070.648051</ele>
        <time>2020-08-06T08:59:30.229Z</time>
      </trkpt>
      <trkpt lat="38.766108" lon="-2.581344">
        <ele>1070.806121</ele>
        <time>2020-08-06T08:59:34.230Z</time>
      </trkpt>
      <trkpt lat="38.766042" lon="-2.581461">
        <ele>1070.967593</ele>
        <time>2020-08-06T08:59:38.233Z</time>
      </trkpt>
      <trkpt lat="38.765974" lon="-2.581581">
        <ele>1071.133465</ele>
        <time>2020-08-06T08:59:42.228Z</time>
      </trkpt>
      <trkpt lat="38.765905" lon="-2.581698">
        <ele>1071.297496</ele>
        <time>2020-08-06T08:59:46.231Z</time>
      </trkpt>
      <trkpt lat="38.765828" lon="-2.581807">
        <ele>1071.461958</ele>
        <time>2020-08-06T08:59:50.234Z</time>
      </trkpt>
      <trkpt lat="38.765746" lon="-2.581908">
        <ele>1071.624999</ele>
        <time>2020-08-06T08:59:54.231Z</time>
      </trkpt>
      <trkpt lat="38.765670" lon="-2.582013">
        <ele>1071.785196</ele>
        <time>2020-08-06T08:59:58.241Z</time>
      </trkpt>
      <trkpt lat="38.765585" lon="-2.582113">
        <ele>1071.950609</ele>
        <time>2020-08-06T09:00:02.228Z</time>
      </trkpt>
      <trkpt lat="38.765513" lon="-2.582196">
        <ele>1072.089441</ele>
        <time>2020-08-06T09:00:05.228Z</time>
      </trkpt>
      <trkpt lat="38.765436" lon="-2.582285">
        <ele>1072.238091</ele>
        <time>2020-08-06T09:00:08.229Z</time>
      </trkpt>
      <trkpt lat="38.765353" lon="-2.582380">
        <ele>1072.397626</ele>
        <time>2020-08-06T09:00:11.224Z</time>
      </trkpt>
      <trkpt lat="38.765263" lon="-2.582488">
        <ele>1072.574379</ele>
        <time>2020-08-06T09:00:14.233Z</time>
      </trkpt>
      <trkpt lat="38.765167" lon="-2.582612">
        <ele>1072.618249</ele>
        <time>2020-08-06T09:00:17.228Z</time>
      </trkpt>
      <trkpt lat="38.765101" lon="-2.582703">
        <ele>1072.592933</ele>
        <time>2020-08-06T09:00:19.232Z</time>
      </trkpt>
      <trkpt lat="38.765027" lon="-2.582789">
        <ele>1072.566844</ele>
        <time>2020-08-06T09:00:21.240Z</time>
      </trkpt>
      <trkpt lat="38.764954" lon="-2.582877">
        <ele>1072.540670</ele>
        <time>2020-08-06T09:00:23.236Z</time>
      </trkpt>
      <trkpt lat="38.764870" lon="-2.582970">
        <ele>1072.511680</ele>
        <time>2020-08-06T09:00:25.232Z</time>
      </trkpt>
      <trkpt lat="38.764800" lon="-2.583067">
        <ele>1072.484756</ele>
        <time>2020-08-06T09:00:27.232Z</time>
      </trkpt>
      <trkpt lat="38.764715" lon="-2.583168">
        <ele>1072.454484</ele>
        <time>2020-08-06T09:00:29.237Z</time>
      </trkpt>
      <trkpt lat="38.764625" lon="-2.583283">
        <ele>1072.421294</ele>
        <time>2020-08-06T09:00:31.231Z</time>
      </trkpt>
      <trkpt lat="38.764541" lon="-2.583386">
        <ele>1072.390932</ele>
        <time>2020-08-06T09:00:33.227Z</time>
      </trkpt>
      <trkpt lat="38.764448" lon="-2.583490">
        <ele>1072.358697</ele>
        <time>2020-08-06T09:00:35.229Z</time>
      </trkpt>
      <trkpt lat="38.764350" lon="-2.583590">
        <ele>1072.325979</ele>
        <time>2020-08-06T09:00:37.240Z</time>
      </trkpt>
      <trkpt lat="38.764257" lon="-2.583703">
        <ele>1072.292511</ele>
        <time>2020-08-06T09:00:39.232Z</time>
      </trkpt>
      <trkpt lat="38.764173" lon="-2.583819">
        <ele>1072.260262</ele>
        <time>2020-08-06T09:00:41.228Z</time>
      </trkpt>
      <trkpt lat="38.764084" lon="-2.583935">
        <ele>1072.227111</ele>
        <time>2020-08-06T09:00:43.236Z</time>
      </trkpt>
      <trkpt lat="38.763992" lon="-2.584046">
        <ele>1072.194112</ele>
        <time>2020-08-06T09:00:45.233Z</time>
      </trkpt>
      <trkpt lat="38.763898" lon="-2.584153">
        <ele>1072.155070</ele>
        <time>2020-08-06T09:00:47.223Z</time>
      </trkpt>
      <trkpt lat="38.763814" lon="-2.584263">
        <ele>1072.105033</ele>
        <time>2020-08-06T09:00:49.233Z</time>
      </trkpt>
      <trkpt lat="38.763713" lon="-2.584369">
        <ele>1072.050639</ele>
        <time>2020-08-06T09:00:51.227Z</time>
      </trkpt>
      <trkpt lat="38.763624" lon="-2.584475">
        <ele>1072.000017</ele>
        <time>2020-08-06T09:00:53.229Z</time>
      </trkpt>
      <trkpt lat="38.763527" lon="-2.584587">
        <ele>1071.945618</ele>
        <time>2020-08-06T09:00:55.228Z</time>
      </trkpt>
      <trkpt lat="38.763437" lon="-2.584695">
        <ele>1071.894247</ele>
        <time>2020-08-06T09:00:57.234Z</time>
      </trkpt>
      <trkpt lat="38.763348" lon="-2.584806">
        <ele>1071.842505</ele>
        <time>2020-08-06T09:00:59.237Z</time>
      </trkpt>
      <trkpt lat="38.763275" lon="-2.584914">
        <ele>1071.796055</ele>
        <time>2020-08-06T09:01:01.227Z</time>
      </trkpt>
      <trkpt lat="38.763186" lon="-2.585012">
        <ele>1071.747164</ele>
        <time>2020-08-06T09:01:03.229Z</time>
      </trkpt>
      <trkpt lat="38.763100" lon="-2.585121">
        <ele>1071.696770</ele>
        <time>2020-08-06T09:01:05.228Z</time>
      </trkpt>
      <trkpt lat="38.763016" lon="-2.585221">
        <ele>1071.649001</ele>
        <time>2020-08-06T09:01:07.229Z</time>
      </trkpt>
      <trkpt lat="38.762926" lon="-2.585319">
        <ele>1071.599794</ele>
        <time>2020-08-06T09:01:09.229Z</time>
      </trkpt>
      <trkpt lat="38.762838" lon="-2.585418">
        <ele>1071.551005</ele>
        <time>2020-08-06T09:01:11.228Z</time>
      </trkpt>
      <trkpt lat="38.762752" lon="-2.585524">
        <ele>1071.501291</ele>
        <time>2020-08-06T09:01:13.227Z</time>
      </trkpt>
      <trkpt lat="38.762669" lon="-2.585625">
        <ele>1071.453604</ele>
        <time>2020-08-06T09:01:15.223Z</time>
      </trkpt>
      <trkpt lat="38.762581" lon="-2.585723">
        <ele>1071.428843</ele>
        <time>2020-08-06T09:01:17.227Z</time>
      </trkpt>
      <trkpt lat="38.762500" lon="-2.585823">
        <ele>1071.447531</ele>
        <time>2020-08-06T09:01:19.228Z</time>
      </trkpt>
      <trkpt lat="38.762415" lon="-2.585924">
        <ele>1071.466792</ele>
        <time>2020-08-06T09:01:21.229Z</time>
      </trkpt>
      <trkpt lat="38.762329" lon="-2.586025">
        <ele>1071.486176</ele>
        <time>2020-08-06T09:01:23.237Z</time>
      </trkpt>
      <trkpt lat="38.762240" lon="-2.586123">
        <ele>1071.505674</ele>
        <time>2020-08-06T09:01:25.223Z</time>
      </trkpt>
      <trkpt lat="38.762153" lon="-2.586222">
        <ele>1071.525007</ele>
        <time>2020-08-06T09:01:27.231Z</time>
      </trkpt>
      <trkpt lat="38.762065" lon="-2.586317">
        <ele>1071.544127</ele>
        <time>2020-08-06T09:01:29.223Z</time>
      </trkpt>
      <trkpt lat="38.761990" lon="-2.586412">
        <ele>1071.561649</ele>
        <time>2020-08-06T09:01:31.235Z</time>
      </trkpt>
      <trkpt lat="38.761902" lon="-2.586510">
        <ele>1071.581022</ele>
        <time>2020-08-06T09:01:33.231Z</time>
      </trkpt>
      <trkpt lat="38.761816" lon="-2.586606">
        <ele>1071.599973</ele>
        <time>2020-08-06T09:01:35.235Z</time>
      </trkpt>
      <trkpt lat="38.761731" lon="-2.586701">
        <ele>1071.618714</ele>
        <time>2020-08-06T09:01:37.222Z</time>
      </trkpt>
      <trkpt lat="38.761650" lon="-2.586794">
        <ele>1071.636786</ele>
        <time>2020-08-06T09:01:39.231Z</time>
      </trkpt>
      <trkpt lat="38.761568" lon="-2.586895">
        <ele>1071.655684</ele>
        <time>2020-08-06T09:01:41.227Z</time>
      </trkpt>
      <trkpt lat="38.761483" lon="-2.586992">
        <ele>1071.674597</ele>
        <time>2020-08-06T09:01:43.232Z</time>
      </trkpt>
      <trkpt lat="38.761400" lon="-2.587091">
        <ele>1071.693438</ele>
        <time>2020-08-06T09:01:45.231Z</time>
      </trkpt>
      <trkpt lat="38.761320" lon="-2.587193">
        <ele>1071.712189</ele>
        <time>2020-08-06T09:01:47.229Z</time>
      </trkpt>
      <trkpt lat="38.761242" lon="-2.587296">
        <ele>1071.631543</ele>
        <time>2020-08-06T09:01:49.240Z</time>
      </trkpt>
      <trkpt lat="38.761158" lon="-2.587389">
        <ele>1071.462682</ele>
        <time>2020-08-06T09:01:51.225Z</time>
      </trkpt>
      <trkpt lat="38.761077" lon="-2.587495">
        <ele>1071.286586</ele>
        <time>2020-08-06T09:01:53.233Z</time>
      </trkpt>
      <trkpt lat="38.760995" lon="-2.587600">
        <ele>1071.110261</ele>
        <time>2020-08-06T09:01:55.231Z</time>
      </trkpt>
      <trkpt lat="38.760906" lon="-2.587703">
        <ele>1070.927844</ele>
        <time>2020-08-06T09:01:57.226Z</time>
      </trkpt>
      <trkpt lat="38.760814" lon="-2.587816">
        <ele>1070.734002</ele>
        <time>2020-08-06T09:01:59.234Z</time>
      </trkpt>
      <trkpt lat="38.760722" lon="-2.587923">
        <ele>1070.545015</ele>
        <time>2020-08-06T09:02:01.233Z</time>
      </trkpt>
      <trkpt lat="38.760625" lon="-2.588029">
        <ele>1070.351096</ele>
        <time>2020-08-06T09:02:03.233Z</time>
      </trkpt>
      <trkpt lat="38.760539" lon="-2.588147">
        <ele>1070.159451</ele>
        <time>2020-08-06T09:02:05.229Z</time>
      </trkpt>
      <trkpt lat="38.760453" lon="-2.588244">
        <ele>1069.985177</ele>
        <time>2020-08-06T09:02:07.231Z</time>
      </trkpt>
      <trkpt lat="38.760353" lon="-2.588350">
        <ele>1069.787762</ele>
        <time>2020-08-06T09:02:09.225Z</time>
      </trkpt>
      <trkpt lat="38.760251" lon="-2.588456">
        <ele>1069.587991</ele>
        <time>2020-08-06T09:02:11.222Z</time>
      </trkpt>
      <trkpt lat="38.760160" lon="-2.588567">
        <ele>1069.396888</ele>
        <time>2020-08-06T09:02:13.229Z</time>
      </trkpt>
      <trkpt lat="38.760071" lon="-2.588688">
        <ele>1069.199522</ele>
        <time>2020-08-06T09:02:15.235Z</time>
      </trkpt>
      <trkpt lat="38.759970" lon="-2.588793">
        <ele>1069.001680</ele>
        <time>2020-08-06T09:02:17.224Z</time>
      </trkpt>
      <trkpt lat="38.759878" lon="-2.588908">
        <ele>1069.051679</ele>
        <time>2020-08-06T09:02:19.232Z</time>
      </trkpt>
      <trkpt lat="38.759786" lon="-2.589015">
        <ele>1069.123433</ele>
        <time>2020-08-06T09:02:21.227Z</time>
      </trkpt>
      <trkpt lat="38.759697" lon="-2.589130">
        <ele>1069.196425</ele>
        <time>2020-08-06T09:02:23.224Z</time>
      </trkpt>
      <trkpt lat="38.759608" lon="-2.589244">
        <ele>1069.269099</ele>
        <time>2020-08-06T09:02:25.230Z</time>
      </trkpt>
      <trkpt lat="38.759516" lon="-2.589359">
        <ele>1069.343322</ele>
        <time>2020-08-06T09:02:27.224Z</time>
      </trkpt>
      <trkpt lat="38.759420" lon="-2.589469">
        <ele>1069.417698</ele>
        <time>2020-08-06T09:02:29.231Z</time>
      </trkpt>
      <trkpt lat="38.759330" lon="-2.589580">
        <ele>1069.489838</ele>
        <time>2020-08-06T09:02:31.231Z</time>
      </trkpt>
      <trkpt lat="38.759242" lon="-2.589692">
        <ele>1069.561467</ele>
        <time>2020-08-06T09:02:33.232Z</time>
      </trkpt>
      <trkpt lat="38.759150" lon="-2.589799">
        <ele>1069.633221</ele>
        <time>2020-08-06T09:02:35.234Z</time>
      </trkpt>
      <trkpt lat="38.759056" lon="-2.589900">
        <ele>1069.704070</ele>
        <time>2020-08-06T09:02:37.241Z</time>
      </trkpt>
      <trkpt lat="38.758965" lon="-2.590000">
        <ele>1069.773306</ele>
        <time>2020-08-06T09:02:39.227Z</time>
      </trkpt>
      <trkpt lat="38.758876" lon="-2.590098">
        <ele>1069.841077</ele>
        <time>2020-08-06T09:02:41.226Z</time>
      </trkpt>
      <trkpt lat="38.758793" lon="-2.590193">
        <ele>1069.905351</ele>
        <time>2020-08-06T09:02:43.238Z</time>
      </trkpt>
      <trkpt lat="38.758717" lon="-2.590293">
        <ele>1069.968259</ele>
        <time>2020-08-06T09:02:45.227Z</time>
      </trkpt>
      <trkpt lat="38.758633" lon="-2.590388">
        <ele>1070.020597</ele>
        <time>2020-08-06T09:02:47.231Z</time>
      </trkpt>
      <trkpt lat="38.758556" lon="-2.590484">
        <ele>1070.003611</ele>
        <time>2020-08-06T09:02:49.225Z</time>
      </trkpt>
      <trkpt lat="38.758473" lon="-2.590587">
        <ele>1069.985343</ele>
        <time>2020-08-06T09:02:51.234Z</time>
      </trkpt>
      <trkpt lat="38.758383" lon="-2.590692">
        <ele>1069.966098</ele>
        <time>2020-08-06T09:02:53.234Z</time>
      </trkpt>
      <trkpt lat="38.758302" lon="-2.590784">
        <ele>1069.948984</ele>
        <time>2020-08-06T09:02:55.228Z</time>
      </trkpt>
      <trkpt lat="38.758220" lon="-2.590877">
        <ele>1069.931670</ele>
        <time>2020-08-06T09:02:57.230Z</time>
      </trkpt>
      <trkpt lat="38.758146" lon="-2.590969">
        <ele>1069.915368</ele>
        <time>2020-08-06T09:02:59.232Z</time>
      </trkpt>
      <trkpt lat="38.758066" lon="-2.591069">
        <ele>1069.897698</ele>
        <time>2020-08-06T09:03:01.228Z</time>
      </trkpt>
      <trkpt lat="38.757986" lon="-2.591159">
        <ele>1069.880865</ele>
        <time>2020-08-06T09:03:03.231Z</time>
      </trkpt>
      <trkpt lat="38.757911" lon="-2.591263">
        <ele>1069.863393</ele>
        <time>2020-08-06T09:03:05.228Z</time>
      </trkpt>
      <trkpt lat="38.757832" lon="-2.591362">
        <ele>1069.845922</ele>
        <time>2020-08-06T09:03:07.235Z</time>
      </trkpt>
      <trkpt lat="38.757747" lon="-2.591448">
        <ele>1069.828798</ele>
        <time>2020-08-06T09:03:09.228Z</time>
      </trkpt>
      <trkpt lat="38.757672" lon="-2.591542">
        <ele>1069.812210</ele>
        <time>2020-08-06T09:03:11.230Z</time>
      </trkpt>
      <trkpt lat="38.757594" lon="-2.591643">
        <ele>1069.794678</ele>
        <time>2020-08-06T09:03:13.232Z</time>
      </trkpt>
      <trkpt lat="38.757518" lon="-2.591743">
        <ele>1069.777455</ele>
        <time>2020-08-06T09:03:15.231Z</time>
      </trkpt>
      <trkpt lat="38.757438" lon="-2.591840">
        <ele>1069.760041</ele>
        <time>2020-08-06T09:03:17.228Z</time>
      </trkpt>
      <trkpt lat="38.757364" lon="-2.591928">
        <ele>1069.744078</ele>
        <time>2020-08-06T09:03:19.241Z</time>
      </trkpt>
      <trkpt lat="38.757275" lon="-2.592017">
        <ele>1069.765506</ele>
        <time>2020-08-06T09:03:21.233Z</time>
      </trkpt>
      <trkpt lat="38.757188" lon="-2.592109">
        <ele>1069.803537</ele>
        <time>2020-08-06T09:03:23.231Z</time>
      </trkpt>
      <trkpt lat="38.757112" lon="-2.592196">
        <ele>1069.837896</ele>
        <time>2020-08-06T09:03:25.228Z</time>
      </trkpt>
      <trkpt lat="38.757037" lon="-2.592306">
        <ele>1069.876326</ele>
        <time>2020-08-06T09:03:27.228Z</time>
      </trkpt>
      <trkpt lat="38.756953" lon="-2.592399">
        <ele>1069.913754</ele>
        <time>2020-08-06T09:03:29.234Z</time>
      </trkpt>
      <trkpt lat="38.756874" lon="-2.592494">
        <ele>1069.950280</ele>
        <time>2020-08-06T09:03:31.232Z</time>
      </trkpt>
      <trkpt lat="38.756798" lon="-2.592597">
        <ele>1069.987574</ele>
        <time>2020-08-06T09:03:33.232Z</time>
      </trkpt>
      <trkpt lat="38.756721" lon="-2.592690">
        <ele>1070.023248</ele>
        <time>2020-08-06T09:03:35.225Z</time>
      </trkpt>
      <trkpt lat="38.756641" lon="-2.592776">
        <ele>1070.058456</ele>
        <time>2020-08-06T09:03:37.228Z</time>
      </trkpt>
      <trkpt lat="38.756558" lon="-2.592870">
        <ele>1070.095803</ele>
        <time>2020-08-06T09:03:39.234Z</time>
      </trkpt>
      <trkpt lat="38.756472" lon="-2.592972">
        <ele>1070.135312</ele>
        <time>2020-08-06T09:03:41.233Z</time>
      </trkpt>
      <trkpt lat="38.756398" lon="-2.593071">
        <ele>1070.171379</ele>
        <time>2020-08-06T09:03:43.231Z</time>
      </trkpt>
      <trkpt lat="38.756318" lon="-2.593155">
        <ele>1070.206251</ele>
        <time>2020-08-06T09:03:45.232Z</time>
      </trkpt>
      <trkpt lat="38.756244" lon="-2.593237">
        <ele>1070.239236</ele>
        <time>2020-08-06T09:03:47.228Z</time>
      </trkpt>
      <trkpt lat="38.756172" lon="-2.593326">
        <ele>1070.272964</ele>
        <time>2020-08-06T09:03:49.226Z</time>
      </trkpt>
      <trkpt lat="38.756100" lon="-2.593408">
        <ele>1070.305441</ele>
        <time>2020-08-06T09:03:51.232Z</time>
      </trkpt>
      <trkpt lat="38.756026" lon="-2.593503">
        <ele>1070.340756</ele>
        <time>2020-08-06T09:03:53.227Z</time>
      </trkpt>
      <trkpt lat="38.755946" lon="-2.593593">
        <ele>1070.181038</ele>
        <time>2020-08-06T09:03:55.226Z</time>
      </trkpt>
      <trkpt lat="38.755872" lon="-2.593687">
        <ele>1069.996354</ele>
        <time>2020-08-06T09:03:57.234Z</time>
      </trkpt>
      <trkpt lat="38.755795" lon="-2.593779">
        <ele>1069.809749</ele>
        <time>2020-08-06T09:03:59.231Z</time>
      </trkpt>
      <trkpt lat="38.755723" lon="-2.593881">
        <ele>1069.619517</ele>
        <time>2020-08-06T09:04:01.233Z</time>
      </trkpt>
      <trkpt lat="38.755654" lon="-2.593988">
        <ele>1069.427538</ele>
        <time>2020-08-06T09:04:03.239Z</time>
      </trkpt>
      <trkpt lat="38.755570" lon="-2.594095">
        <ele>1069.217606</ele>
        <time>2020-08-06T09:04:05.236Z</time>
      </trkpt>
      <trkpt lat="38.755498" lon="-2.594213">
        <ele>1069.010440</ele>
        <time>2020-08-06T09:04:07.226Z</time>
      </trkpt>
      <trkpt lat="38.755417" lon="-2.594338">
        <ele>1068.785720</ele>
        <time>2020-08-06T09:04:09.234Z</time>
      </trkpt>
      <trkpt lat="38.755335" lon="-2.594459">
        <ele>1068.564067</ele>
        <time>2020-08-06T09:04:11.232Z</time>
      </trkpt>
      <trkpt lat="38.755249" lon="-2.594578">
        <ele>1068.339734</ele>
        <time>2020-08-06T09:04:13.229Z</time>
      </trkpt>
      <trkpt lat="38.755168" lon="-2.594707">
        <ele>1068.110732</ele>
        <time>2020-08-06T09:04:15.234Z</time>
      </trkpt>
      <trkpt lat="38.755082" lon="-2.594840">
        <ele>1067.871838</ele>
        <time>2020-08-06T09:04:17.237Z</time>
      </trkpt>
      <trkpt lat="38.754997" lon="-2.594971">
        <ele>1067.636204</ele>
        <time>2020-08-06T09:04:19.233Z</time>
      </trkpt>
      <trkpt lat="38.754908" lon="-2.595115">
        <ele>1067.382144</ele>
        <time>2020-08-06T09:04:21.228Z</time>
      </trkpt>
      <trkpt lat="38.754813" lon="-2.595256">
        <ele>1067.127473</ele>
        <time>2020-08-06T09:04:23.225Z</time>
      </trkpt>
      <trkpt lat="38.754731" lon="-2.595399">
        <ele>1066.905057</ele>
        <time>2020-08-06T09:04:25.233Z</time>
      </trkpt>
      <trkpt lat="38.754631" lon="-2.595550">
        <ele>1066.656823</ele>
        <time>2020-08-06T09:04:27.234Z</time>
      </trkpt>
      <trkpt lat="38.754523" lon="-2.595687">
        <ele>1066.412722</ele>
        <time>2020-08-06T09:04:29.224Z</time>
      </trkpt>
      <trkpt lat="38.754438" lon="-2.595841">
        <ele>1066.176306</ele>
        <time>2020-08-06T09:04:31.228Z</time>
      </trkpt>
      <trkpt lat="38.754335" lon="-2.595985">
        <ele>1065.931459</ele>
        <time>2020-08-06T09:04:33.230Z</time>
      </trkpt>
      <trkpt lat="38.754239" lon="-2.596140">
        <ele>1065.683430</ele>
        <time>2020-08-06T09:04:35.227Z</time>
      </trkpt>
      <trkpt lat="38.754130" lon="-2.596291">
        <ele>1065.425599</ele>
        <time>2020-08-06T09:04:37.225Z</time>
      </trkpt>
      <trkpt lat="38.754024" lon="-2.596444">
        <ele>1065.169149</ele>
        <time>2020-08-06T09:04:39.255Z</time>
      </trkpt>
      <trkpt lat="38.753920" lon="-2.596599">
        <ele>1064.912927</ele>
        <time>2020-08-06T09:04:41.006Z</time>
      </trkpt>
      <trkpt lat="38.753822" lon="-2.596752">
        <ele>1064.664828</ele>
        <time>2020-08-06T09:04:42.985Z</time>
      </trkpt>
      <trkpt lat="38.753727" lon="-2.596892">
        <ele>1064.432283</ele>
        <time>2020-08-06T09:04:44.979Z</time>
      </trkpt>
      <trkpt lat="38.753649" lon="-2.597024">
        <ele>1064.315041</ele>
        <time>2020-08-06T09:04:46.986Z</time>
      </trkpt>
      <trkpt lat="38.753567" lon="-2.597150">
        <ele>1064.558048</ele>
        <time>2020-08-06T09:04:48.978Z</time>
      </trkpt>
      <trkpt lat="38.753477" lon="-2.597280">
        <ele>1064.815457</ele>
        <time>2020-08-06T09:04:50.974Z</time>
      </trkpt>
      <trkpt lat="38.753405" lon="-2.597404">
        <ele>1065.044377</ele>
        <time>2020-08-06T09:04:52.980Z</time>
      </trkpt>
      <trkpt lat="38.753340" lon="-2.597525">
        <ele>1065.261943</ele>
        <time>2020-08-06T09:04:54.967Z</time>
      </trkpt>
      <trkpt lat="38.753288" lon="-2.597619">
        <ele>1065.432598</ele>
        <time>2020-08-06T09:04:56.978Z</time>
      </trkpt>
      <trkpt lat="38.753201" lon="-2.597718">
        <ele>1065.653458</ele>
        <time>2020-08-06T09:04:58.979Z</time>
      </trkpt>
      <trkpt lat="38.753142" lon="-2.597830">
        <ele>1065.853596</ele>
        <time>2020-08-06T09:05:00.978Z</time>
      </trkpt>
      <trkpt lat="38.753075" lon="-2.597929">
        <ele>1066.047696</ele>
        <time>2020-08-06T09:05:02.982Z</time>
      </trkpt>
      <trkpt lat="38.753008" lon="-2.598013">
        <ele>1066.225617</ele>
        <time>2020-08-06T09:05:04.982Z</time>
      </trkpt>
      <trkpt lat="38.752943" lon="-2.598103">
        <ele>1066.407258</ele>
        <time>2020-08-06T09:05:06.982Z</time>
      </trkpt>
      <trkpt lat="38.752865" lon="-2.598222">
        <ele>1066.637443</ele>
        <time>2020-08-06T09:05:09.977Z</time>
      </trkpt>
      <trkpt lat="38.752788" lon="-2.598308">
        <ele>1066.831333</ele>
        <time>2020-08-06T09:05:11.981Z</time>
      </trkpt>
      <trkpt lat="38.752728" lon="-2.598394">
        <ele>1067.002203</ele>
        <time>2020-08-06T09:05:13.973Z</time>
      </trkpt>
      <trkpt lat="38.752650" lon="-2.598513">
        <ele>1067.232389</ele>
        <time>2020-08-06T09:05:16.989Z</time>
      </trkpt>
      <trkpt lat="38.752568" lon="-2.598635">
        <ele>1067.470881</ele>
        <time>2020-08-06T09:05:19.977Z</time>
      </trkpt>
      <trkpt lat="38.752488" lon="-2.598753">
        <ele>1067.676846</ele>
        <time>2020-08-06T09:05:22.983Z</time>
      </trkpt>
      <trkpt lat="38.752417" lon="-2.598859">
        <ele>1067.632400</ele>
        <time>2020-08-06T09:05:25.972Z</time>
      </trkpt>
      <trkpt lat="38.752346" lon="-2.598976">
        <ele>1067.585245</ele>
        <time>2020-08-06T09:05:28.972Z</time>
      </trkpt>
      <trkpt lat="38.752276" lon="-2.599093">
        <ele>1067.538339</ele>
        <time>2020-08-06T09:05:31.976Z</time>
      </trkpt>
      <trkpt lat="38.752204" lon="-2.599213">
        <ele>1067.490179</ele>
        <time>2020-08-06T09:05:34.980Z</time>
      </trkpt>
      <trkpt lat="38.752132" lon="-2.599343">
        <ele>1067.439461</ele>
        <time>2020-08-06T09:05:37.981Z</time>
      </trkpt>
      <trkpt lat="38.752065" lon="-2.599474">
        <ele>1067.389630</ele>
        <time>2020-08-06T09:05:40.966Z</time>
      </trkpt>
      <trkpt lat="38.751989" lon="-2.599606">
        <ele>1067.337440</ele>
        <time>2020-08-06T09:05:43.974Z</time>
      </trkpt>
      <trkpt lat="38.751906" lon="-2.599735">
        <ele>1067.284245</ele>
        <time>2020-08-06T09:05:46.984Z</time>
      </trkpt>
      <trkpt lat="38.751822" lon="-2.599854">
        <ele>1067.233190</ele>
        <time>2020-08-06T09:05:49.968Z</time>
      </trkpt>
      <trkpt lat="38.751755" lon="-2.599941">
        <ele>1067.194297</ele>
        <time>2020-08-06T09:05:51.978Z</time>
      </trkpt>
      <trkpt lat="38.751685" lon="-2.600093">
        <ele>1067.138148</ele>
        <time>2020-08-06T09:05:54.980Z</time>
      </trkpt>
      <trkpt lat="38.751623" lon="-2.600180">
        <ele>1067.100660</ele>
        <time>2020-08-06T09:05:56.976Z</time>
      </trkpt>
      <trkpt lat="38.751558" lon="-2.600262">
        <ele>1067.063469</ele>
        <time>2020-08-06T09:05:58.976Z</time>
      </trkpt>
      <trkpt lat="38.751487" lon="-2.600362">
        <ele>1067.020452</ele>
        <time>2020-08-06T09:06:00.978Z</time>
      </trkpt>
      <trkpt lat="38.751425" lon="-2.600469">
        <ele>1066.978051</ele>
        <time>2020-08-06T09:06:02.974Z</time>
      </trkpt>
      <trkpt lat="38.751351" lon="-2.600579">
        <ele>1066.942577</ele>
        <time>2020-08-06T09:06:04.978Z</time>
      </trkpt>
      <trkpt lat="38.751293" lon="-2.600686">
        <ele>1066.929101</ele>
        <time>2020-08-06T09:06:06.976Z</time>
      </trkpt>
      <trkpt lat="38.751231" lon="-2.600798">
        <ele>1066.914897</ele>
        <time>2020-08-06T09:06:08.977Z</time>
      </trkpt>
      <trkpt lat="38.751157" lon="-2.600918">
        <ele>1066.899076</ele>
        <time>2020-08-06T09:06:10.976Z</time>
      </trkpt>
      <trkpt lat="38.751104" lon="-2.601028">
        <ele>1066.885704</ele>
        <time>2020-08-06T09:06:12.975Z</time>
      </trkpt>
      <trkpt lat="38.751019" lon="-2.601118">
        <ele>1066.871086</ele>
        <time>2020-08-06T09:06:15.002Z</time>
      </trkpt>
      <trkpt lat="38.750936" lon="-2.601233">
        <ele>1066.854882</ele>
        <time>2020-08-06T09:06:16.980Z</time>
      </trkpt>
      <trkpt lat="38.750859" lon="-2.601360">
        <ele>1066.838246</ele>
        <time>2020-08-06T09:06:18.982Z</time>
      </trkpt>
      <trkpt lat="38.750780" lon="-2.601484">
        <ele>1066.821687</ele>
        <time>2020-08-06T09:06:20.981Z</time>
      </trkpt>
      <trkpt lat="38.750701" lon="-2.601594">
        <ele>1066.806222</ele>
        <time>2020-08-06T09:06:22.984Z</time>
      </trkpt>
      <trkpt lat="38.750622" lon="-2.601728">
        <ele>1066.788850</ele>
        <time>2020-08-06T09:06:25.011Z</time>
      </trkpt>
      <trkpt lat="38.750548" lon="-2.601839">
        <ele>1066.773748</ele>
        <time>2020-08-06T09:06:26.976Z</time>
      </trkpt>
      <trkpt lat="38.750472" lon="-2.601966">
        <ele>1066.757192</ele>
        <time>2020-08-06T09:06:28.978Z</time>
      </trkpt>
      <trkpt lat="38.750393" lon="-2.602060">
        <ele>1066.742901</ele>
        <time>2020-08-06T09:06:30.975Z</time>
      </trkpt>
      <trkpt lat="38.750322" lon="-2.602181">
        <ele>1066.727241</ele>
        <time>2020-08-06T09:06:32.977Z</time>
      </trkpt>
      <trkpt lat="38.750272" lon="-2.602289">
        <ele>1066.714252</ele>
        <time>2020-08-06T09:06:34.970Z</time>
      </trkpt>
      <trkpt lat="38.750209" lon="-2.602393">
        <ele>1066.769057</ele>
        <time>2020-08-06T09:06:36.974Z</time>
      </trkpt>
      <trkpt lat="38.750125" lon="-2.602541">
        <ele>1066.900714</ele>
        <time>2020-08-06T09:06:39.984Z</time>
      </trkpt>
      <trkpt lat="38.750057" lon="-2.602647">
        <ele>1066.999435</ele>
        <time>2020-08-06T09:06:41.984Z</time>
      </trkpt>
      <trkpt lat="38.749985" lon="-2.602738">
        <ele>1067.092674</ele>
        <time>2020-08-06T09:06:43.968Z</time>
      </trkpt>
      <trkpt lat="38.749916" lon="-2.602826">
        <ele>1067.182429</ele>
        <time>2020-08-06T09:06:45.962Z</time>
      </trkpt>
      <trkpt lat="38.749856" lon="-2.602926">
        <ele>1067.273179</ele>
        <time>2020-08-06T09:06:47.978Z</time>
      </trkpt>
      <trkpt lat="38.749802" lon="-2.603035">
        <ele>1067.366059</ele>
        <time>2020-08-06T09:06:49.966Z</time>
      </trkpt>
      <trkpt lat="38.749720" lon="-2.603169">
        <ele>1067.488570</ele>
        <time>2020-08-06T09:06:52.978Z</time>
      </trkpt>
      <trkpt lat="38.749683" lon="-2.603280">
        <ele>1067.575395</ele>
        <time>2020-08-06T09:06:54.972Z</time>
      </trkpt>
      <trkpt lat="38.749609" lon="-2.603355">
        <ele>1067.662389</ele>
        <time>2020-08-06T09:06:56.967Z</time>
      </trkpt>
      <trkpt lat="38.749529" lon="-2.603475">
        <ele>1067.775938</ele>
        <time>2020-08-06T09:06:59.976Z</time>
      </trkpt>
      <trkpt lat="38.749451" lon="-2.603544">
        <ele>1067.863334</ele>
        <time>2020-08-06T09:07:01.976Z</time>
      </trkpt>
      <trkpt lat="38.749363" lon="-2.603666">
        <ele>1067.982863</ele>
        <time>2020-08-06T09:07:04.970Z</time>
      </trkpt>
      <trkpt lat="38.749281" lon="-2.603786">
        <ele>1068.097620</ele>
        <time>2020-08-06T09:07:07.984Z</time>
      </trkpt>
      <trkpt lat="38.749199" lon="-2.603902">
        <ele>1068.210229</ele>
        <time>2020-08-06T09:07:10.977Z</time>
      </trkpt>
      <trkpt lat="38.749120" lon="-2.604020">
        <ele>1068.322087</ele>
        <time>2020-08-06T09:07:13.972Z</time>
      </trkpt>
      <trkpt lat="38.749042" lon="-2.604141">
        <ele>1068.370066</ele>
        <time>2020-08-06T09:07:16.971Z</time>
      </trkpt>
      <trkpt lat="38.748955" lon="-2.604267">
        <ele>1068.373676</ele>
        <time>2020-08-06T09:07:19.981Z</time>
      </trkpt>
      <trkpt lat="38.748873" lon="-2.604404">
        <ele>1068.377381</ele>
        <time>2020-08-06T09:07:22.973Z</time>
      </trkpt>
      <trkpt lat="38.748790" lon="-2.604542">
        <ele>1068.381120</ele>
        <time>2020-08-06T09:07:25.977Z</time>
      </trkpt>
      <trkpt lat="38.748741" lon="-2.604652">
        <ele>1068.383838</ele>
        <time>2020-08-06T09:07:27.978Z</time>
      </trkpt>
      <trkpt lat="38.748639" lon="-2.604778">
        <ele>1068.387734</ele>
        <time>2020-08-06T09:07:30.979Z</time>
      </trkpt>
      <trkpt lat="38.748574" lon="-2.604876">
        <ele>1068.390494</ele>
        <time>2020-08-06T09:07:32.969Z</time>
      </trkpt>
      <trkpt lat="38.748494" lon="-2.604968">
        <ele>1068.393450</ele>
        <time>2020-08-06T09:07:34.977Z</time>
      </trkpt>
      <trkpt lat="38.748419" lon="-2.605069">
        <ele>1068.396442</ele>
        <time>2020-08-06T09:07:36.980Z</time>
      </trkpt>
      <trkpt lat="38.748329" lon="-2.605188">
        <ele>1068.399998</ele>
        <time>2020-08-06T09:07:39.988Z</time>
      </trkpt>
      <trkpt lat="38.748254" lon="-2.605285">
        <ele>1068.402928</ele>
        <time>2020-08-06T09:07:41.971Z</time>
      </trkpt>
      <trkpt lat="38.748203" lon="-2.605415">
        <ele>1068.406050</ele>
        <time>2020-08-06T09:07:43.972Z</time>
      </trkpt>
      <trkpt lat="38.748126" lon="-2.605509">
        <ele>1068.408975</ele>
        <time>2020-08-06T09:07:45.980Z</time>
      </trkpt>
      <trkpt lat="38.748048" lon="-2.605617">
        <ele>1068.412133</ele>
        <time>2020-08-06T09:07:47.978Z</time>
      </trkpt>
      <trkpt lat="38.747980" lon="-2.605734">
        <ele>1068.415263</ele>
        <time>2020-08-06T09:07:49.980Z</time>
      </trkpt>
      <trkpt lat="38.747898" lon="-2.605823">
        <ele>1068.284788</ele>
        <time>2020-08-06T09:07:51.974Z</time>
      </trkpt>
      <trkpt lat="38.747815" lon="-2.605940">
        <ele>1067.613958</ele>
        <time>2020-08-06T09:07:53.978Z</time>
      </trkpt>
      <trkpt lat="38.747768" lon="-2.606072">
        <ele>1066.998499</ele>
        <time>2020-08-06T09:07:55.974Z</time>
      </trkpt>
      <trkpt lat="38.747714" lon="-2.606182">
        <ele>1066.447208</ele>
        <time>2020-08-06T09:07:57.977Z</time>
      </trkpt>
      <trkpt lat="38.747648" lon="-2.606288">
        <ele>1065.871910</ele>
        <time>2020-08-06T09:07:59.981Z</time>
      </trkpt>
      <trkpt lat="38.747567" lon="-2.606403">
        <ele>1065.214668</ele>
        <time>2020-08-06T09:08:01.977Z</time>
      </trkpt>
      <trkpt lat="38.747491" lon="-2.606519">
        <ele>1064.572091</ele>
        <time>2020-08-06T09:08:03.979Z</time>
      </trkpt>
      <trkpt lat="38.747379" lon="-2.606654">
        <ele>1063.736106</ele>
        <time>2020-08-06T09:08:05.977Z</time>
      </trkpt>
      <trkpt lat="38.747253" lon="-2.606718">
        <ele>1062.999059</ele>
        <time>2020-08-06T09:08:07.974Z</time>
      </trkpt>
      <trkpt lat="38.747197" lon="-2.606918">
        <ele>1062.097750</ele>
        <time>2020-08-06T09:08:10.983Z</time>
      </trkpt>
      <trkpt lat="38.747134" lon="-2.607006">
        <ele>1061.591091</ele>
        <time>2020-08-06T09:08:11.980Z</time>
      </trkpt>
      <trkpt lat="38.747087" lon="-2.607164">
        <ele>1060.873845</ele>
        <time>2020-08-06T09:08:12.985Z</time>
      </trkpt>
      <trkpt lat="38.747024" lon="-2.607334">
        <ele>1060.075530</ele>
        <time>2020-08-06T09:08:13.968Z</time>
      </trkpt>
      <trkpt lat="38.746991" lon="-2.607478">
        <ele>1059.438934</ele>
        <time>2020-08-06T09:08:14.968Z</time>
      </trkpt>
      <trkpt lat="38.746876" lon="-2.607580">
        <ele>1058.678464</ele>
        <time>2020-08-06T09:08:16.973Z</time>
      </trkpt>
      <trkpt lat="38.746782" lon="-2.607616">
        <ele>1058.655981</ele>
        <time>2020-08-06T09:08:17.983Z</time>
      </trkpt>
      <trkpt lat="38.746649" lon="-2.607768">
        <ele>1058.695775</ele>
        <time>2020-08-06T09:08:19.975Z</time>
      </trkpt>
      <trkpt lat="38.746592" lon="-2.607859">
        <ele>1058.716106</ele>
        <time>2020-08-06T09:08:20.974Z</time>
      </trkpt>
      <trkpt lat="38.746496" lon="-2.608022">
        <ele>1058.751687</ele>
        <time>2020-08-06T09:08:22.978Z</time>
      </trkpt>
      <trkpt lat="38.746397" lon="-2.608175">
        <ele>1058.786317</ele>
        <time>2020-08-06T09:08:24.975Z</time>
      </trkpt>
      <trkpt lat="38.746290" lon="-2.608318">
        <ele>1058.820838</ele>
        <time>2020-08-06T09:08:26.979Z</time>
      </trkpt>
      <trkpt lat="38.746198" lon="-2.608459">
        <ele>1058.852862</ele>
        <time>2020-08-06T09:08:28.982Z</time>
      </trkpt>
      <trkpt lat="38.746107" lon="-2.608604">
        <ele>1058.885283</ele>
        <time>2020-08-06T09:08:30.977Z</time>
      </trkpt>
      <trkpt lat="38.746026" lon="-2.608722">
        <ele>1058.912666</ele>
        <time>2020-08-06T09:08:32.972Z</time>
      </trkpt>
      <trkpt lat="38.745949" lon="-2.608849">
        <ele>1058.940688</ele>
        <time>2020-08-06T09:08:34.970Z</time>
      </trkpt>
      <trkpt lat="38.745876" lon="-2.608957">
        <ele>1058.965584</ele>
        <time>2020-08-06T09:08:36.982Z</time>
      </trkpt>
      <trkpt lat="38.745822" lon="-2.609075">
        <ele>1058.989416</ele>
        <time>2020-08-06T09:08:38.977Z</time>
      </trkpt>
      <trkpt lat="38.745733" lon="-2.609193">
        <ele>1059.018011</ele>
        <time>2020-08-06T09:08:41.985Z</time>
      </trkpt>
      <trkpt lat="38.745655" lon="-2.609261">
        <ele>1059.069209</ele>
        <time>2020-08-06T09:08:43.972Z</time>
      </trkpt>
      <trkpt lat="38.745552" lon="-2.609348">
        <ele>1059.640779</ele>
        <time>2020-08-06T09:08:46.978Z</time>
      </trkpt>
      <trkpt lat="38.745496" lon="-2.609438">
        <ele>1060.056894</ele>
        <time>2020-08-06T09:08:49.980Z</time>
      </trkpt>
      <trkpt lat="38.745437" lon="-2.609529">
        <ele>1060.484590</ele>
        <time>2020-08-06T09:08:52.972Z</time>
      </trkpt>
      <trkpt lat="38.745369" lon="-2.609635">
        <ele>1060.980645</ele>
        <time>2020-08-06T09:08:56.972Z</time>
      </trkpt>
      <trkpt lat="38.745321" lon="-2.609742">
        <ele>1061.426775</ele>
        <time>2020-08-06T09:09:00.986Z</time>
      </trkpt>
      <trkpt lat="38.745250" lon="-2.609839">
        <ele>1061.907566</ele>
        <time>2020-08-06T09:09:04.968Z</time>
      </trkpt>
      <trkpt lat="38.745185" lon="-2.609955">
        <ele>1062.423804</ele>
        <time>2020-08-06T09:09:08.979Z</time>
      </trkpt>
      <trkpt lat="38.745117" lon="-2.610062">
        <ele>1062.922657</ele>
        <time>2020-08-06T09:09:12.970Z</time>
      </trkpt>
      <trkpt lat="38.745043" lon="-2.610174">
        <ele>1063.453179</ele>
        <time>2020-08-06T09:09:16.968Z</time>
      </trkpt>
      <trkpt lat="38.744976" lon="-2.610266">
        <ele>1063.908110</ele>
        <time>2020-08-06T09:09:19.977Z</time>
      </trkpt>
      <trkpt lat="38.744911" lon="-2.610373">
        <ele>1064.398300</ele>
        <time>2020-08-06T09:09:23.970Z</time>
      </trkpt>
      <trkpt lat="38.744854" lon="-2.610488">
        <ele>1064.890771</ele>
        <time>2020-08-06T09:09:28.975Z</time>
      </trkpt>
      <trkpt lat="38.744779" lon="-2.610599">
        <ele>1065.421564</ele>
        <time>2020-08-06T09:09:33.970Z</time>
      </trkpt>
      <trkpt lat="38.744710" lon="-2.610688">
        <ele>1065.875118</ele>
        <time>2020-08-06T09:09:37.982Z</time>
      </trkpt>
      <trkpt lat="38.744642" lon="-2.610775">
        <ele>1066.320282</ele>
        <time>2020-08-06T09:09:41.981Z</time>
      </trkpt>
      <trkpt lat="38.744570" lon="-2.610863">
        <ele>1066.781240</ele>
        <time>2020-08-06T09:09:45.980Z</time>
      </trkpt>
      <trkpt lat="38.744492" lon="-2.610965">
        <ele>1067.297533</ele>
        <time>2020-08-06T09:09:49.975Z</time>
      </trkpt>
      <trkpt lat="38.744405" lon="-2.611071">
        <ele>1067.628161</ele>
        <time>2020-08-06T09:09:53.981Z</time>
      </trkpt>
      <trkpt lat="38.744330" lon="-2.611183">
        <ele>1067.911617</ele>
        <time>2020-08-06T09:09:57.972Z</time>
      </trkpt>
      <trkpt lat="38.744272" lon="-2.611282">
        <ele>1068.149374</ele>
        <time>2020-08-06T09:10:00.980Z</time>
      </trkpt>
      <trkpt lat="38.744208" lon="-2.611378">
        <ele>1068.391879</ele>
        <time>2020-08-06T09:10:03.974Z</time>
      </trkpt>
      <trkpt lat="38.744141" lon="-2.611472">
        <ele>1068.636397</ele>
        <time>2020-08-06T09:10:06.976Z</time>
      </trkpt>
      <trkpt lat="38.744067" lon="-2.611583">
        <ele>1068.916793</ele>
        <time>2020-08-06T09:10:09.980Z</time>
      </trkpt>
      <trkpt lat="38.744005" lon="-2.611696">
        <ele>1069.182089</ele>
        <time>2020-08-06T09:10:12.981Z</time>
      </trkpt>
      <trkpt lat="38.743945" lon="-2.611808">
        <ele>1069.442998</ele>
        <time>2020-08-06T09:10:15.975Z</time>
      </trkpt>
      <trkpt lat="38.743870" lon="-2.611933">
        <ele>1069.745831</ele>
        <time>2020-08-06T09:10:18.975Z</time>
      </trkpt>
      <trkpt lat="38.743794" lon="-2.612065">
        <ele>1070.060882</ele>
        <time>2020-08-06T09:10:21.981Z</time>
      </trkpt>
      <trkpt lat="38.743712" lon="-2.612195">
        <ele>1070.381928</ele>
        <time>2020-08-06T09:10:24.984Z</time>
      </trkpt>
      <trkpt lat="38.743619" lon="-2.612318">
        <ele>1070.710880</ele>
        <time>2020-08-06T09:10:27.978Z</time>
      </trkpt>
      <trkpt lat="38.743531" lon="-2.612444">
        <ele>1071.035653</ele>
        <time>2020-08-06T09:10:30.982Z</time>
      </trkpt>
      <trkpt lat="38.743445" lon="-2.612565">
        <ele>1071.350002</ele>
        <time>2020-08-06T09:10:33.975Z</time>
      </trkpt>
      <trkpt lat="38.743361" lon="-2.612686">
        <ele>1071.661055</ele>
        <time>2020-08-06T09:10:36.977Z</time>
      </trkpt>
      <trkpt lat="38.743281" lon="-2.612817">
        <ele>1071.763612</ele>
        <time>2020-08-06T09:10:39.977Z</time>
      </trkpt>
      <trkpt lat="38.743198" lon="-2.612947">
        <ele>1071.697000</ele>
        <time>2020-08-06T09:10:42.977Z</time>
      </trkpt>
      <trkpt lat="38.743134" lon="-2.613035">
        <ele>1071.649294</ele>
        <time>2020-08-06T09:10:44.975Z</time>
      </trkpt>
      <trkpt lat="38.743064" lon="-2.613122">
        <ele>1071.599734</ele>
        <time>2020-08-06T09:10:46.974Z</time>
      </trkpt>
      <trkpt lat="38.742976" lon="-2.613246">
        <ele>1071.533263</ele>
        <time>2020-08-06T09:10:49.986Z</time>
      </trkpt>
      <trkpt lat="38.742923" lon="-2.613357">
        <ele>1071.481660</ele>
        <time>2020-08-06T09:10:51.976Z</time>
      </trkpt>
      <trkpt lat="38.742877" lon="-2.613472">
        <ele>1071.430416</ele>
        <time>2020-08-06T09:10:53.976Z</time>
      </trkpt>
      <trkpt lat="38.742817" lon="-2.613563">
        <ele>1071.383170</ele>
        <time>2020-08-06T09:10:55.982Z</time>
      </trkpt>
      <trkpt lat="38.742765" lon="-2.613666">
        <ele>1071.334523</ele>
        <time>2020-08-06T09:10:57.975Z</time>
      </trkpt>
      <trkpt lat="38.742690" lon="-2.613768">
        <ele>1071.278942</ele>
        <time>2020-08-06T09:10:59.970Z</time>
      </trkpt>
      <trkpt lat="38.742644" lon="-2.613920">
        <ele>1071.214297</ele>
        <time>2020-08-06T09:11:01.977Z</time>
      </trkpt>
      <trkpt lat="38.742537" lon="-2.614047">
        <ele>1071.140173</ele>
        <time>2020-08-06T09:11:03.961Z</time>
      </trkpt>
      <trkpt lat="38.742414" lon="-2.614133">
        <ele>1071.068953</ele>
        <time>2020-08-06T09:11:05.975Z</time>
      </trkpt>
      <trkpt lat="38.742285" lon="-2.614281">
        <ele>1070.980953</ele>
        <time>2020-08-06T09:11:07.967Z</time>
      </trkpt>
      <trkpt lat="38.742164" lon="-2.614446">
        <ele>1070.891155</ele>
        <time>2020-08-06T09:11:09.975Z</time>
      </trkpt>
      <trkpt lat="38.742063" lon="-2.614583">
        <ele>1070.445179</ele>
        <time>2020-08-06T09:11:11.973Z</time>
      </trkpt>
      <trkpt lat="38.742024" lon="-2.614743">
        <ele>1070.026146</ele>
        <time>2020-08-06T09:11:13.969Z</time>
      </trkpt>
      <trkpt lat="38.741923" lon="-2.614880">
        <ele>1069.554913</ele>
        <time>2020-08-06T09:11:15.981Z</time>
      </trkpt>
      <trkpt lat="38.741838" lon="-2.615007">
        <ele>1069.136587</ele>
        <time>2020-08-06T09:11:17.985Z</time>
      </trkpt>
      <trkpt lat="38.741736" lon="-2.615116">
        <ele>1068.711023</ele>
        <time>2020-08-06T09:11:19.985Z</time>
      </trkpt>
      <trkpt lat="38.741657" lon="-2.615233">
        <ele>1068.324186</ele>
        <time>2020-08-06T09:11:21.972Z</time>
      </trkpt>
      <trkpt lat="38.741573" lon="-2.615365">
        <ele>1067.898330</ele>
        <time>2020-08-06T09:11:23.985Z</time>
      </trkpt>
      <trkpt lat="38.741491" lon="-2.615480">
        <ele>1067.508836</ele>
        <time>2020-08-06T09:11:25.978Z</time>
      </trkpt>
      <trkpt lat="38.741412" lon="-2.615616">
        <ele>1067.084948</ele>
        <time>2020-08-06T09:11:27.971Z</time>
      </trkpt>
      <trkpt lat="38.741334" lon="-2.615750">
        <ele>1066.666983</ele>
        <time>2020-08-06T09:11:29.976Z</time>
      </trkpt>
      <trkpt lat="38.741253" lon="-2.615861">
        <ele>1066.287006</ele>
        <time>2020-08-06T09:11:31.975Z</time>
      </trkpt>
      <trkpt lat="38.741184" lon="-2.615989">
        <ele>1065.898055</ele>
        <time>2020-08-06T09:11:33.978Z</time>
      </trkpt>
      <trkpt lat="38.741090" lon="-2.616120">
        <ele>1065.453089</ele>
        <time>2020-08-06T09:11:35.979Z</time>
      </trkpt>
      <trkpt lat="38.741004" lon="-2.616235">
        <ele>1065.114746</ele>
        <time>2020-08-06T09:11:37.967Z</time>
      </trkpt>
      <trkpt lat="38.740925" lon="-2.616360">
        <ele>1065.071794</ele>
        <time>2020-08-06T09:11:39.978Z</time>
      </trkpt>
      <trkpt lat="38.740859" lon="-2.616480">
        <ele>1065.032593</ele>
        <time>2020-08-06T09:11:41.979Z</time>
      </trkpt>
      <trkpt lat="38.740760" lon="-2.616601">
        <ele>1064.985775</ele>
        <time>2020-08-06T09:11:43.978Z</time>
      </trkpt>
      <trkpt lat="38.740682" lon="-2.616729">
        <ele>1064.942409</ele>
        <time>2020-08-06T09:11:45.980Z</time>
      </trkpt>
      <trkpt lat="38.740591" lon="-2.616861">
        <ele>1064.895376</ele>
        <time>2020-08-06T09:11:47.980Z</time>
      </trkpt>
      <trkpt lat="38.740521" lon="-2.616994">
        <ele>1064.852540</ele>
        <time>2020-08-06T09:11:49.969Z</time>
      </trkpt>
      <trkpt lat="38.740465" lon="-2.617114">
        <ele>1064.815206</ele>
        <time>2020-08-06T09:11:51.976Z</time>
      </trkpt>
      <trkpt lat="38.740396" lon="-2.617245">
        <ele>1064.773004</ele>
        <time>2020-08-06T09:11:53.972Z</time>
      </trkpt>
      <trkpt lat="38.740311" lon="-2.617362">
        <ele>1064.730317</ele>
        <time>2020-08-06T09:11:55.970Z</time>
      </trkpt>
      <trkpt lat="38.740221" lon="-2.617469">
        <ele>1064.688304</ele>
        <time>2020-08-06T09:11:57.980Z</time>
      </trkpt>
      <trkpt lat="38.740141" lon="-2.617583">
        <ele>1064.647364</ele>
        <time>2020-08-06T09:11:59.971Z</time>
      </trkpt>
      <trkpt lat="38.740049" lon="-2.617716">
        <ele>1064.599903</ele>
        <time>2020-08-06T09:12:01.975Z</time>
      </trkpt>
      <trkpt lat="38.739963" lon="-2.617843">
        <ele>1064.555001</ele>
        <time>2020-08-06T09:12:03.971Z</time>
      </trkpt>
      <trkpt lat="38.739896" lon="-2.617960">
        <ele>1064.516250</ele>
        <time>2020-08-06T09:12:05.979Z</time>
      </trkpt>
      <trkpt lat="38.739849" lon="-2.618073">
        <ele>1064.395243</ele>
        <time>2020-08-06T09:12:07.972Z</time>
      </trkpt>
      <trkpt lat="38.739773" lon="-2.618191">
        <ele>1064.207815</ele>
        <time>2020-08-06T09:12:09.980Z</time>
      </trkpt>
      <trkpt lat="38.739690" lon="-2.618300">
        <ele>1064.021244</ele>
        <time>2020-08-06T09:12:11.978Z</time>
      </trkpt>
      <trkpt lat="38.739618" lon="-2.618415">
        <ele>1063.840632</ele>
        <time>2020-08-06T09:12:13.979Z</time>
      </trkpt>
      <trkpt lat="38.739526" lon="-2.618526">
        <ele>1063.642257</ele>
        <time>2020-08-06T09:12:15.987Z</time>
      </trkpt>
      <trkpt lat="38.739460" lon="-2.618630">
        <ele>1063.478045</ele>
        <time>2020-08-06T09:12:17.976Z</time>
      </trkpt>
      <trkpt lat="38.739399" lon="-2.618745">
        <ele>1063.307711</ele>
        <time>2020-08-06T09:12:19.977Z</time>
      </trkpt>
      <trkpt lat="38.739312" lon="-2.618848">
        <ele>1063.121761</ele>
        <time>2020-08-06T09:12:21.977Z</time>
      </trkpt>
      <trkpt lat="38.739232" lon="-2.618960">
        <ele>1062.935756</ele>
        <time>2020-08-06T09:12:23.971Z</time>
      </trkpt>
      <trkpt lat="38.739148" lon="-2.619074">
        <ele>1062.743679</ele>
        <time>2020-08-06T09:12:25.973Z</time>
      </trkpt>
      <trkpt lat="38.739073" lon="-2.619186">
        <ele>1062.562884</ele>
        <time>2020-08-06T09:12:27.973Z</time>
      </trkpt>
      <trkpt lat="38.739015" lon="-2.619302">
        <ele>1062.394123</ele>
        <time>2020-08-06T09:12:29.976Z</time>
      </trkpt>
      <trkpt lat="38.738922" lon="-2.619416">
        <ele>1062.192080</ele>
        <time>2020-08-06T09:12:31.974Z</time>
      </trkpt>
      <trkpt lat="38.738847" lon="-2.619514">
        <ele>1062.023923</ele>
        <time>2020-08-06T09:12:33.972Z</time>
      </trkpt>
      <trkpt lat="38.738784" lon="-2.619628">
        <ele>1061.852803</ele>
        <time>2020-08-06T09:12:35.975Z</time>
      </trkpt>
      <trkpt lat="38.738724" lon="-2.619738">
        <ele>1061.688401</ele>
        <time>2020-08-06T09:12:37.974Z</time>
      </trkpt>
      <trkpt lat="38.738658" lon="-2.619861">
        <ele>1061.744650</ele>
        <time>2020-08-06T09:12:39.980Z</time>
      </trkpt>
      <trkpt lat="38.738587" lon="-2.619966">
        <ele>1061.805148</ele>
        <time>2020-08-06T09:12:41.967Z</time>
      </trkpt>
      <trkpt lat="38.738519" lon="-2.620087">
        <ele>1061.870075</ele>
        <time>2020-08-06T09:12:43.980Z</time>
      </trkpt>
      <trkpt lat="38.738457" lon="-2.620200">
        <ele>1061.930223</ele>
        <time>2020-08-06T09:12:45.976Z</time>
      </trkpt>
      <trkpt lat="38.738393" lon="-2.620316">
        <ele>1061.992081</ele>
        <time>2020-08-06T09:12:47.974Z</time>
      </trkpt>
      <trkpt lat="38.738337" lon="-2.620417">
        <ele>1062.046029</ele>
        <time>2020-08-06T09:12:49.972Z</time>
      </trkpt>
      <trkpt lat="38.738251" lon="-2.620530">
        <ele>1062.114762</ele>
        <time>2020-08-06T09:12:51.975Z</time>
      </trkpt>
      <trkpt lat="38.738159" lon="-2.620652">
        <ele>1062.188640</ele>
        <time>2020-08-06T09:12:53.979Z</time>
      </trkpt>
      <trkpt lat="38.738081" lon="-2.620766">
        <ele>1062.254659</ele>
        <time>2020-08-06T09:12:55.977Z</time>
      </trkpt>
      <trkpt lat="38.738008" lon="-2.620869">
        <ele>1062.315247</ele>
        <time>2020-08-06T09:12:57.981Z</time>
      </trkpt>
      <trkpt lat="38.737923" lon="-2.620994">
        <ele>1062.387444</ele>
        <time>2020-08-06T09:12:59.968Z</time>
      </trkpt>
      <trkpt lat="38.737831" lon="-2.621107">
        <ele>1062.458557</ele>
        <time>2020-08-06T09:13:01.981Z</time>
      </trkpt>
      <trkpt lat="38.737758" lon="-2.621225">
        <ele>1062.524126</ele>
        <time>2020-08-06T09:13:03.982Z</time>
      </trkpt>
      <trkpt lat="38.737672" lon="-2.621330">
        <ele>1062.590411</ele>
        <time>2020-08-06T09:13:05.985Z</time>
      </trkpt>
      <trkpt lat="38.737588" lon="-2.621444">
        <ele>1062.658685</ele>
        <time>2020-08-06T09:13:07.979Z</time>
      </trkpt>
      <trkpt lat="38.737504" lon="-2.621566">
        <ele>1062.449847</ele>
        <time>2020-08-06T09:13:09.970Z</time>
      </trkpt>
      <trkpt lat="38.737419" lon="-2.621680">
        <ele>1062.078888</ele>
        <time>2020-08-06T09:13:11.984Z</time>
      </trkpt>
      <trkpt lat="38.737332" lon="-2.621780">
        <ele>1061.726520</ele>
        <time>2020-08-06T09:13:13.972Z</time>
      </trkpt>
      <trkpt lat="38.737250" lon="-2.621909">
        <ele>1061.335083</ele>
        <time>2020-08-06T09:13:15.970Z</time>
      </trkpt>
      <trkpt lat="38.737160" lon="-2.622007">
        <ele>1060.978992</ele>
        <time>2020-08-06T09:13:17.983Z</time>
      </trkpt>
      <trkpt lat="38.737085" lon="-2.622092">
        <ele>1060.677114</ele>
        <time>2020-08-06T09:13:19.979Z</time>
      </trkpt>
      <trkpt lat="38.737020" lon="-2.622207">
        <ele>1060.343052</ele>
        <time>2020-08-06T09:13:21.977Z</time>
      </trkpt>
      <trkpt lat="38.736951" lon="-2.622297">
        <ele>1060.046211</ele>
        <time>2020-08-06T09:13:23.969Z</time>
      </trkpt>
      <trkpt lat="38.736872" lon="-2.622396">
        <ele>1059.713067</ele>
        <time>2020-08-06T09:13:25.973Z</time>
      </trkpt>
      <trkpt lat="38.736779" lon="-2.622494">
        <ele>1059.350032</ele>
        <time>2020-08-06T09:13:27.976Z</time>
      </trkpt>
      <trkpt lat="38.736706" lon="-2.622601">
        <ele>1059.015651</ele>
        <time>2020-08-06T09:13:29.976Z</time>
      </trkpt>
      <trkpt lat="38.736623" lon="-2.622722">
        <ele>1058.636627</ele>
        <time>2020-08-06T09:13:31.975Z</time>
      </trkpt>
      <trkpt lat="38.736523" lon="-2.622821">
        <ele>1058.255615</ele>
        <time>2020-08-06T09:13:33.978Z</time>
      </trkpt>
      <trkpt lat="38.736432" lon="-2.622925">
        <ele>1057.887982</ele>
        <time>2020-08-06T09:13:35.974Z</time>
      </trkpt>
      <trkpt lat="38.736324" lon="-2.623020">
        <ele>1057.493003</ele>
        <time>2020-08-06T09:13:37.964Z</time>
      </trkpt>
      <trkpt lat="38.736224" lon="-2.623099">
        <ele>1057.409632</ele>
        <time>2020-08-06T09:13:39.983Z</time>
      </trkpt>
      <trkpt lat="38.736125" lon="-2.623192">
        <ele>1057.854162</ele>
        <time>2020-08-06T09:13:41.977Z</time>
      </trkpt>
      <trkpt lat="38.736052" lon="-2.623290">
        <ele>1058.237000</ele>
        <time>2020-08-06T09:13:43.968Z</time>
      </trkpt>
      <trkpt lat="38.735961" lon="-2.623389">
        <ele>1058.669276</ele>
        <time>2020-08-06T09:13:45.969Z</time>
      </trkpt>
      <trkpt lat="38.735881" lon="-2.623496">
        <ele>1059.088015</ele>
        <time>2020-08-06T09:13:47.979Z</time>
      </trkpt>
      <trkpt lat="38.735789" lon="-2.623590">
        <ele>1059.514115</ele>
        <time>2020-08-06T09:13:49.965Z</time>
      </trkpt>
      <trkpt lat="38.735711" lon="-2.623688">
        <ele>1059.909678</ele>
        <time>2020-08-06T09:13:51.957Z</time>
      </trkpt>
      <trkpt lat="38.735626" lon="-2.623770">
        <ele>1060.294970</ele>
        <time>2020-08-06T09:13:53.962Z</time>
      </trkpt>
      <trkpt lat="38.735542" lon="-2.623862">
        <ele>1060.695122</ele>
        <time>2020-08-06T09:13:55.960Z</time>
      </trkpt>
      <trkpt lat="38.735464" lon="-2.623943">
        <ele>1061.058690</ele>
        <time>2020-08-06T09:13:57.978Z</time>
      </trkpt>
      <trkpt lat="38.735390" lon="-2.624031">
        <ele>1061.424269</ele>
        <time>2020-08-06T09:13:59.980Z</time>
      </trkpt>
      <trkpt lat="38.735310" lon="-2.624127">
        <ele>1061.821156</ele>
        <time>2020-08-06T09:14:01.975Z</time>
      </trkpt>
      <trkpt lat="38.735238" lon="-2.624205">
        <ele>1062.162577</ele>
        <time>2020-08-06T09:14:03.964Z</time>
      </trkpt>
      <trkpt lat="38.735156" lon="-2.624287">
        <ele>1062.539244</ele>
        <time>2020-08-06T09:14:05.979Z</time>
      </trkpt>
      <trkpt lat="38.735070" lon="-2.624363">
        <ele>1062.917566</ele>
        <time>2020-08-06T09:14:07.971Z</time>
      </trkpt>
      <trkpt lat="38.734990" lon="-2.624442">
        <ele>1063.283316</ele>
        <time>2020-08-06T09:14:09.976Z</time>
      </trkpt>
      <trkpt lat="38.734912" lon="-2.624527">
        <ele>1063.654102</ele>
        <time>2020-08-06T09:14:11.964Z</time>
      </trkpt>
      <trkpt lat="38.734830" lon="-2.624600">
        <ele>1063.735129</ele>
        <time>2020-08-06T09:14:13.967Z</time>
      </trkpt>
      <trkpt lat="38.734760" lon="-2.624682">
        <ele>1063.675958</ele>
        <time>2020-08-06T09:14:15.973Z</time>
      </trkpt>
      <trkpt lat="38.734690" lon="-2.624767">
        <ele>1063.615792</ele>
        <time>2020-08-06T09:14:17.962Z</time>
      </trkpt>
      <trkpt lat="38.734616" lon="-2.624849">
        <ele>1063.554755</ele>
        <time>2020-08-06T09:14:19.976Z</time>
      </trkpt>
      <trkpt lat="38.734515" lon="-2.624940">
        <ele>1063.477721</ele>
        <time>2020-08-06T09:14:21.979Z</time>
      </trkpt>
      <trkpt lat="38.734425" lon="-2.625033">
        <ele>1063.405586</ele>
        <time>2020-08-06T09:14:23.984Z</time>
      </trkpt>
      <trkpt lat="38.734364" lon="-2.625130">
        <ele>1063.344937</ele>
        <time>2020-08-06T09:14:25.976Z</time>
      </trkpt>
      <trkpt lat="38.734281" lon="-2.625204">
        <ele>1063.281849</ele>
        <time>2020-08-06T09:14:27.978Z</time>
      </trkpt>
      <trkpt lat="38.734212" lon="-2.625283">
        <ele>1063.224120</ele>
        <time>2020-08-06T09:14:29.975Z</time>
      </trkpt>
      <trkpt lat="38.734117" lon="-2.625367">
        <ele>1063.152105</ele>
        <time>2020-08-06T09:14:31.968Z</time>
      </trkpt>
      <trkpt lat="38.734037" lon="-2.625453">
        <ele>1063.086954</ele>
        <time>2020-08-06T09:14:33.980Z</time>
      </trkpt>
      <trkpt lat="38.733955" lon="-2.625531">
        <ele>1063.023237</ele>
        <time>2020-08-06T09:14:35.976Z</time>
      </trkpt>
      <trkpt lat="38.733875" lon="-2.625614">
        <ele>1062.959015</ele>
        <time>2020-08-06T09:14:37.973Z</time>
      </trkpt>
      <trkpt lat="38.733797" lon="-2.625697">
        <ele>1062.895759</ele>
        <time>2020-08-06T09:14:39.965Z</time>
      </trkpt>
      <trkpt lat="38.733720" lon="-2.625775">
        <ele>1062.834519</ele>
        <time>2020-08-06T09:14:41.969Z</time>
      </trkpt>
      <trkpt lat="38.733645" lon="-2.625861">
        <ele>1062.771727</ele>
        <time>2020-08-06T09:14:43.982Z</time>
      </trkpt>
      <trkpt lat="38.733562" lon="-2.625942">
        <ele>1062.706634</ele>
        <time>2020-08-06T09:14:45.967Z</time>
      </trkpt>
      <trkpt lat="38.733481" lon="-2.626018">
        <ele>1062.668901</ele>
        <time>2020-08-06T09:14:47.981Z</time>
      </trkpt>
      <trkpt lat="38.733405" lon="-2.626108">
        <ele>1062.765391</ele>
        <time>2020-08-06T09:14:49.977Z</time>
      </trkpt>
      <trkpt lat="38.733327" lon="-2.626199">
        <ele>1062.863748</ele>
        <time>2020-08-06T09:14:51.982Z</time>
      </trkpt>
      <trkpt lat="38.733233" lon="-2.626292">
        <ele>1062.974484</ele>
        <time>2020-08-06T09:14:53.982Z</time>
      </trkpt>
      <trkpt lat="38.733135" lon="-2.626387">
        <ele>1063.089067</ele>
        <time>2020-08-06T09:14:55.980Z</time>
      </trkpt>
      <trkpt lat="38.733065" lon="-2.626469">
        <ele>1063.177499</ele>
        <time>2020-08-06T09:14:57.974Z</time>
      </trkpt>
      <trkpt lat="38.732983" lon="-2.626540">
        <ele>1063.269781</ele>
        <time>2020-08-06T09:14:59.970Z</time>
      </trkpt>
      <trkpt lat="38.732905" lon="-2.626622">
        <ele>1063.363856</ele>
        <time>2020-08-06T09:15:01.977Z</time>
      </trkpt>
      <trkpt lat="38.732823" lon="-2.626751">
        <ele>1063.484915</ele>
        <time>2020-08-06T09:15:03.979Z</time>
      </trkpt>
      <trkpt lat="38.732743" lon="-2.626840">
        <ele>1063.583700</ele>
        <time>2020-08-06T09:15:05.964Z</time>
      </trkpt>
      <trkpt lat="38.732669" lon="-2.626910">
        <ele>1063.669467</ele>
        <time>2020-08-06T09:15:07.979Z</time>
      </trkpt>
      <trkpt lat="38.732573" lon="-2.626986">
        <ele>1063.774692</ele>
        <time>2020-08-06T09:15:09.971Z</time>
      </trkpt>
      <trkpt lat="38.732495" lon="-2.627086">
        <ele>1063.877570</ele>
        <time>2020-08-06T09:15:11.975Z</time>
      </trkpt>
      <trkpt lat="38.732427" lon="-2.627175">
        <ele>1063.968201</ele>
        <time>2020-08-06T09:15:13.970Z</time>
      </trkpt>
      <trkpt lat="38.732346" lon="-2.627267">
        <ele>1064.069126</ele>
        <time>2020-08-06T09:15:15.979Z</time>
      </trkpt>
      <trkpt lat="38.732279" lon="-2.627361">
        <ele>1064.161758</ele>
        <time>2020-08-06T09:15:17.976Z</time>
      </trkpt>
      <trkpt lat="38.732175" lon="-2.627456">
        <ele>1064.280853</ele>
        <time>2020-08-06T09:15:20.982Z</time>
      </trkpt>
      <trkpt lat="38.732088" lon="-2.627549">
        <ele>1064.332888</ele>
        <time>2020-08-06T09:15:22.967Z</time>
      </trkpt>
      <trkpt lat="38.732001" lon="-2.627638">
        <ele>1064.335717</ele>
        <time>2020-08-06T09:15:24.973Z</time>
      </trkpt>
      <trkpt lat="38.731914" lon="-2.627722">
        <ele>1064.338486</ele>
        <time>2020-08-06T09:15:26.973Z</time>
      </trkpt>
      <trkpt lat="38.731830" lon="-2.627800">
        <ele>1064.341122</ele>
        <time>2020-08-06T09:15:28.974Z</time>
      </trkpt>
      <trkpt lat="38.731730" lon="-2.627867">
        <ele>1064.343990</ele>
        <time>2020-08-06T09:15:31.395Z</time>
      </trkpt>
      <trkpt lat="38.731626" lon="-2.627945">
        <ele>1064.347053</ele>
        <time>2020-08-06T09:15:33.408Z</time>
      </trkpt>
      <trkpt lat="38.731536" lon="-2.628085">
        <ele>1064.350650</ele>
        <time>2020-08-06T09:15:36.401Z</time>
      </trkpt>
      <trkpt lat="38.731458" lon="-2.628165">
        <ele>1064.353189</ele>
        <time>2020-08-06T09:15:38.384Z</time>
      </trkpt>
      <trkpt lat="38.731368" lon="-2.628250">
        <ele>1064.356031</ele>
        <time>2020-08-06T09:15:40.388Z</time>
      </trkpt>
      <trkpt lat="38.731302" lon="-2.628331">
        <ele>1064.358353</ele>
        <time>2020-08-06T09:15:42.378Z</time>
      </trkpt>
      <trkpt lat="38.731218" lon="-2.628432">
        <ele>1064.361281</ele>
        <time>2020-08-06T09:15:44.376Z</time>
      </trkpt>
      <trkpt lat="38.731144" lon="-2.628535">
        <ele>1064.364057</ele>
        <time>2020-08-06T09:15:46.376Z</time>
      </trkpt>
      <trkpt lat="38.731044" lon="-2.628630">
        <ele>1064.367221</ele>
        <time>2020-08-06T09:15:48.388Z</time>
      </trkpt>
      <trkpt lat="38.730972" lon="-2.628727">
        <ele>1064.369876</ele>
        <time>2020-08-06T09:15:50.383Z</time>
      </trkpt>
      <trkpt lat="38.730883" lon="-2.628828">
        <ele>1064.372897</ele>
        <time>2020-08-06T09:15:52.371Z</time>
      </trkpt>
      <trkpt lat="38.730795" lon="-2.628915">
        <ele>1064.375722</ele>
        <time>2020-08-06T09:15:54.387Z</time>
      </trkpt>
      <trkpt lat="38.730701" lon="-2.629022">
        <ele>1064.364792</ele>
        <time>2020-08-06T09:15:56.379Z</time>
      </trkpt>
      <trkpt lat="38.730608" lon="-2.629112">
        <ele>1064.344674</ele>
        <time>2020-08-06T09:15:58.372Z</time>
      </trkpt>
      <trkpt lat="38.730524" lon="-2.629209">
        <ele>1064.325156</ele>
        <time>2020-08-06T09:16:00.373Z</time>
      </trkpt>
      <trkpt lat="38.730428" lon="-2.629315">
        <ele>1064.303281</ele>
        <time>2020-08-06T09:16:02.383Z</time>
      </trkpt>
      <trkpt lat="38.730328" lon="-2.629401">
        <ele>1064.282491</ele>
        <time>2020-08-06T09:16:04.392Z</time>
      </trkpt>
      <trkpt lat="38.730237" lon="-2.629512">
        <ele>1064.260805</ele>
        <time>2020-08-06T09:16:06.379Z</time>
      </trkpt>
      <trkpt lat="38.730147" lon="-2.629618">
        <ele>1064.239704</ele>
        <time>2020-08-06T09:16:08.381Z</time>
      </trkpt>
      <trkpt lat="38.730056" lon="-2.629709">
        <ele>1064.219778</ele>
        <time>2020-08-06T09:16:10.384Z</time>
      </trkpt>
      <trkpt lat="38.729966" lon="-2.629820">
        <ele>1064.198217</ele>
        <time>2020-08-06T09:16:12.394Z</time>
      </trkpt>
      <trkpt lat="38.729879" lon="-2.629924">
        <ele>1064.177679</ele>
        <time>2020-08-06T09:16:14.386Z</time>
      </trkpt>
      <trkpt lat="38.729778" lon="-2.630016">
        <ele>1064.156288</ele>
        <time>2020-08-06T09:16:16.381Z</time>
      </trkpt>
      <trkpt lat="38.729679" lon="-2.630103">
        <ele>1064.135565</ele>
        <time>2020-08-06T09:16:18.387Z</time>
      </trkpt>
      <trkpt lat="38.729596" lon="-2.630208">
        <ele>1064.115433</ele>
        <time>2020-08-06T09:16:20.382Z</time>
      </trkpt>
      <trkpt lat="38.729496" lon="-2.630303">
        <ele>1064.093944</ele>
        <time>2020-08-06T09:16:22.394Z</time>
      </trkpt>
      <trkpt lat="38.729407" lon="-2.630416">
        <ele>1064.072317</ele>
        <time>2020-08-06T09:16:24.387Z</time>
      </trkpt>
      <trkpt lat="38.729316" lon="-2.630521">
        <ele>1063.922807</ele>
        <time>2020-08-06T09:16:26.382Z</time>
      </trkpt>
      <trkpt lat="38.729221" lon="-2.630611">
        <ele>1063.732398</ele>
        <time>2020-08-06T09:16:28.377Z</time>
      </trkpt>
      <trkpt lat="38.729141" lon="-2.630724">
        <ele>1063.540518</ele>
        <time>2020-08-06T09:16:30.396Z</time>
      </trkpt>
      <trkpt lat="38.729041" lon="-2.630817">
        <ele>1063.341377</ele>
        <time>2020-08-06T09:16:32.380Z</time>
      </trkpt>
      <trkpt lat="38.728943" lon="-2.630909">
        <ele>1063.145583</ele>
        <time>2020-08-06T09:16:34.380Z</time>
      </trkpt>
      <trkpt lat="38.728859" lon="-2.631010">
        <ele>1062.959943</ele>
        <time>2020-08-06T09:16:36.384Z</time>
      </trkpt>
      <trkpt lat="38.728755" lon="-2.631099">
        <ele>1062.758384</ele>
        <time>2020-08-06T09:16:38.385Z</time>
      </trkpt>
      <trkpt lat="38.728660" lon="-2.631195">
        <ele>1062.563396</ele>
        <time>2020-08-06T09:16:40.386Z</time>
      </trkpt>
      <trkpt lat="38.728577" lon="-2.631295">
        <ele>1062.379792</ele>
        <time>2020-08-06T09:16:42.390Z</time>
      </trkpt>
      <trkpt lat="38.728498" lon="-2.631386">
        <ele>1062.208594</ele>
        <time>2020-08-06T09:16:44.378Z</time>
      </trkpt>
      <trkpt lat="38.728414" lon="-2.631478">
        <ele>1062.030505</ele>
        <time>2020-08-06T09:16:46.390Z</time>
      </trkpt>
      <trkpt lat="38.728324" lon="-2.631552">
        <ele>1061.858157</ele>
        <time>2020-08-06T09:16:48.387Z</time>
      </trkpt>
      <trkpt lat="38.728247" lon="-2.631631">
        <ele>1061.699184</ele>
        <time>2020-08-06T09:16:50.388Z</time>
      </trkpt>
      <trkpt lat="38.728160" lon="-2.631713">
        <ele>1061.525122</ele>
        <time>2020-08-06T09:16:52.391Z</time>
      </trkpt>
      <trkpt lat="38.728081" lon="-2.631812">
        <ele>1061.347043</ele>
        <time>2020-08-06T09:16:54.389Z</time>
      </trkpt>
      <trkpt lat="38.727991" lon="-2.631902">
        <ele>1061.165032</ele>
        <time>2020-08-06T09:16:56.406Z</time>
      </trkpt>
      <trkpt lat="38.727918" lon="-2.631993">
        <ele>1061.075820</ele>
        <time>2020-08-06T09:16:58.409Z</time>
      </trkpt>
      <trkpt lat="38.727833" lon="-2.632079">
        <ele>1060.980947</ele>
        <time>2020-08-06T09:17:00.391Z</time>
      </trkpt>
      <trkpt lat="38.727747" lon="-2.632171">
        <ele>1060.882809</ele>
        <time>2020-08-06T09:17:02.388Z</time>
      </trkpt>
      <trkpt lat="38.727648" lon="-2.632258">
        <ele>1060.777647</ele>
        <time>2020-08-06T09:17:04.388Z</time>
      </trkpt>
      <trkpt lat="38.727586" lon="-2.632365">
        <ele>1060.686548</ele>
        <time>2020-08-06T09:17:06.383Z</time>
      </trkpt>
      <trkpt lat="38.727502" lon="-2.632460">
        <ele>1060.588404</ele>
        <time>2020-08-06T09:17:08.390Z</time>
      </trkpt>
      <trkpt lat="38.727426" lon="-2.632546">
        <ele>1060.499586</ele>
        <time>2020-08-06T09:17:10.389Z</time>
      </trkpt>
      <trkpt lat="38.727336" lon="-2.632639">
        <ele>1060.398305</ele>
        <time>2020-08-06T09:17:12.397Z</time>
      </trkpt>
      <trkpt lat="38.727241" lon="-2.632731">
        <ele>1060.293991</ele>
        <time>2020-08-06T09:17:14.388Z</time>
      </trkpt>
      <trkpt lat="38.727161" lon="-2.632812">
        <ele>1060.204673</ele>
        <time>2020-08-06T09:17:16.384Z</time>
      </trkpt>
      <trkpt lat="38.727086" lon="-2.632903">
        <ele>1060.114196</ele>
        <time>2020-08-06T09:17:18.382Z</time>
      </trkpt>
      <trkpt lat="38.726994" lon="-2.632989">
        <ele>1060.014436</ele>
        <time>2020-08-06T09:17:20.384Z</time>
      </trkpt>
      <trkpt lat="38.726911" lon="-2.633079">
        <ele>1059.919189</ele>
        <time>2020-08-06T09:17:22.392Z</time>
      </trkpt>
      <trkpt lat="38.726830" lon="-2.633174">
        <ele>1059.823001</ele>
        <time>2020-08-06T09:17:24.388Z</time>
      </trkpt>
      <trkpt lat="38.726760" lon="-2.633279">
        <ele>1059.728599</ele>
        <time>2020-08-06T09:17:26.383Z</time>
      </trkpt>
      <trkpt lat="38.726669" lon="-2.633377">
        <ele>1059.624469</ele>
        <time>2020-08-06T09:17:28.385Z</time>
      </trkpt>
      <trkpt lat="38.726561" lon="-2.633487">
        <ele>1059.739121</ele>
        <time>2020-08-06T09:17:31.386Z</time>
      </trkpt>
      <trkpt lat="38.726473" lon="-2.633583">
        <ele>1059.908976</ele>
        <time>2020-08-06T09:17:33.385Z</time>
      </trkpt>
      <trkpt lat="38.726384" lon="-2.633661">
        <ele>1060.067451</ele>
        <time>2020-08-06T09:17:35.391Z</time>
      </trkpt>
      <trkpt lat="38.726296" lon="-2.633751">
        <ele>1060.232930</ele>
        <time>2020-08-06T09:17:37.381Z</time>
      </trkpt>
      <trkpt lat="38.726218" lon="-2.633836">
        <ele>1060.383416</ele>
        <time>2020-08-06T09:17:39.382Z</time>
      </trkpt>
      <trkpt lat="38.726139" lon="-2.633914">
        <ele>1060.529993</ele>
        <time>2020-08-06T09:17:41.384Z</time>
      </trkpt>
      <trkpt lat="38.726056" lon="-2.633989">
        <ele>1060.679262</ele>
        <time>2020-08-06T09:17:43.381Z</time>
      </trkpt>
      <trkpt lat="38.725984" lon="-2.634079">
        <ele>1060.827087</ele>
        <time>2020-08-06T09:17:45.381Z</time>
      </trkpt>
      <trkpt lat="38.725916" lon="-2.634158">
        <ele>1060.961986</ele>
        <time>2020-08-06T09:17:47.379Z</time>
      </trkpt>
      <trkpt lat="38.725843" lon="-2.634231">
        <ele>1061.098080</ele>
        <time>2020-08-06T09:17:49.385Z</time>
      </trkpt>
      <trkpt lat="38.725770" lon="-2.634305">
        <ele>1061.234882</ele>
        <time>2020-08-06T09:17:51.388Z</time>
      </trkpt>
      <trkpt lat="38.725700" lon="-2.634381">
        <ele>1061.369725</ele>
        <time>2020-08-06T09:17:53.385Z</time>
      </trkpt>
      <trkpt lat="38.725593" lon="-2.634487">
        <ele>1061.568502</ele>
        <time>2020-08-06T09:17:56.369Z</time>
      </trkpt>
      <trkpt lat="38.725526" lon="-2.634576">
        <ele>1061.710330</ele>
        <time>2020-08-06T09:17:59.673Z</time>
      </trkpt>
      <trkpt lat="38.725429" lon="-2.634685">
        <ele>1061.899943</ele>
        <time>2020-08-06T09:18:01.427Z</time>
      </trkpt>
      <trkpt lat="38.725308" lon="-2.634809">
        <ele>1062.127656</ele>
        <time>2020-08-06T09:18:04.390Z</time>
      </trkpt>
      <trkpt lat="38.725243" lon="-2.634894">
        <ele>1062.236541</ele>
        <time>2020-08-06T09:18:06.407Z</time>
      </trkpt>
      <trkpt lat="38.725161" lon="-2.635005">
        <ele>1062.243555</ele>
        <time>2020-08-06T09:18:09.397Z</time>
      </trkpt>
      <trkpt lat="38.725069" lon="-2.635074">
        <ele>1062.249823</ele>
        <time>2020-08-06T09:18:11.392Z</time>
      </trkpt>
      <trkpt lat="38.724972" lon="-2.635164">
        <ele>1062.256865</ele>
        <time>2020-08-06T09:18:14.413Z</time>
      </trkpt>
      <trkpt lat="38.724903" lon="-2.635239">
        <ele>1062.262186</ele>
        <time>2020-08-06T09:18:16.414Z</time>
      </trkpt>
      <trkpt lat="38.724794" lon="-2.635346">
        <ele>1062.270259</ele>
        <time>2020-08-06T09:18:19.385Z</time>
      </trkpt>
      <trkpt lat="38.724686" lon="-2.635454">
        <ele>1062.278315</ele>
        <time>2020-08-06T09:18:22.388Z</time>
      </trkpt>
      <trkpt lat="38.724620" lon="-2.635547">
        <ele>1062.284083</ele>
        <time>2020-08-06T09:18:25.378Z</time>
      </trkpt>
      <trkpt lat="38.724532" lon="-2.635622">
        <ele>1062.290298</ele>
        <time>2020-08-06T09:18:28.391Z</time>
      </trkpt>
      <trkpt lat="38.724435" lon="-2.635688">
        <ele>1062.296756</ele>
        <time>2020-08-06T09:18:30.386Z</time>
      </trkpt>
      <trkpt lat="38.724344" lon="-2.635840">
        <ele>1062.305546</ele>
        <time>2020-08-06T09:18:34.390Z</time>
      </trkpt>
      <trkpt lat="38.724239" lon="-2.635958">
        <ele>1062.313758</ele>
        <time>2020-08-06T09:18:37.388Z</time>
      </trkpt>
      <trkpt lat="38.724165" lon="-2.636042">
        <ele>1062.319571</ele>
        <time>2020-08-06T09:18:39.391Z</time>
      </trkpt>
      <trkpt lat="38.724095" lon="-2.636116">
        <ele>1062.324907</ele>
        <time>2020-08-06T09:18:41.381Z</time>
      </trkpt>
      <trkpt lat="38.724013" lon="-2.636206">
        <ele>1062.331256</ele>
        <time>2020-08-06T09:18:43.395Z</time>
      </trkpt>
      <trkpt lat="38.723924" lon="-2.636287">
        <ele>1062.337675</ele>
        <time>2020-08-06T09:18:45.387Z</time>
      </trkpt>
      <trkpt lat="38.723837" lon="-2.636384">
        <ele>1062.335104</ele>
        <time>2020-08-06T09:18:47.378Z</time>
      </trkpt>
      <trkpt lat="38.723746" lon="-2.636472">
        <ele>1062.322757</ele>
        <time>2020-08-06T09:18:49.394Z</time>
      </trkpt>
      <trkpt lat="38.723676" lon="-2.636549">
        <ele>1062.312765</ele>
        <time>2020-08-06T09:18:51.387Z</time>
      </trkpt>
      <trkpt lat="38.723595" lon="-2.636642">
        <ele>1062.300986</ele>
        <time>2020-08-06T09:18:53.386Z</time>
      </trkpt>
      <trkpt lat="38.723507" lon="-2.636732">
        <ele>1062.288792</ele>
        <time>2020-08-06T09:18:55.383Z</time>
      </trkpt>
      <trkpt lat="38.723413" lon="-2.636826">
        <ele>1062.275878</ele>
        <time>2020-08-06T09:18:57.393Z</time>
      </trkpt>
      <trkpt lat="38.723335" lon="-2.636914">
        <ele>1062.264623</ele>
        <time>2020-08-06T09:18:59.399Z</time>
      </trkpt>
      <trkpt lat="38.723274" lon="-2.637004">
        <ele>1062.254548</ele>
        <time>2020-08-06T09:19:01.383Z</time>
      </trkpt>
      <trkpt lat="38.723206" lon="-2.637085">
        <ele>1062.244493</ele>
        <time>2020-08-06T09:19:03.383Z</time>
      </trkpt>
      <trkpt lat="38.723106" lon="-2.637184">
        <ele>1062.230806</ele>
        <time>2020-08-06T09:19:05.385Z</time>
      </trkpt>
      <trkpt lat="38.723009" lon="-2.637282">
        <ele>1062.217428</ele>
        <time>2020-08-06T09:19:07.381Z</time>
      </trkpt>
      <trkpt lat="38.722920" lon="-2.637387">
        <ele>1062.204326</ele>
        <time>2020-08-06T09:19:09.386Z</time>
      </trkpt>
      <trkpt lat="38.722849" lon="-2.637499">
        <ele>1062.192130</ele>
        <time>2020-08-06T09:19:11.384Z</time>
      </trkpt>
      <trkpt lat="38.722785" lon="-2.637620">
        <ele>1062.179777</ele>
        <time>2020-08-06T09:19:13.380Z</time>
      </trkpt>
      <trkpt lat="38.722706" lon="-2.637752">
        <ele>1062.165718</ele>
        <time>2020-08-06T09:19:15.387Z</time>
      </trkpt>
      <trkpt lat="38.722631" lon="-2.637860">
        <ele>1062.153499</ele>
        <time>2020-08-06T09:19:17.391Z</time>
      </trkpt>
      <trkpt lat="38.722575" lon="-2.637977">
        <ele>1062.064670</ele>
        <time>2020-08-06T09:19:19.396Z</time>
      </trkpt>
      <trkpt lat="38.722528" lon="-2.638102">
        <ele>1061.849067</ele>
        <time>2020-08-06T09:19:21.384Z</time>
      </trkpt>
      <trkpt lat="38.722476" lon="-2.638226">
        <ele>1061.630327</ele>
        <time>2020-08-06T09:19:23.387Z</time>
      </trkpt>
      <trkpt lat="38.722435" lon="-2.638359">
        <ele>1061.408124</ele>
        <time>2020-08-06T09:19:25.385Z</time>
      </trkpt>
      <trkpt lat="38.722396" lon="-2.638485">
        <ele>1061.197501</ele>
        <time>2020-08-06T09:19:27.384Z</time>
      </trkpt>
      <trkpt lat="38.722344" lon="-2.638589">
        <ele>1061.005568</ele>
        <time>2020-08-06T09:19:29.385Z</time>
      </trkpt>
      <trkpt lat="38.722281" lon="-2.638754">
        <ele>1060.720136</ele>
        <time>2020-08-06T09:19:32.379Z</time>
      </trkpt>
      <trkpt lat="38.722240" lon="-2.638871">
        <ele>1060.520845</ele>
        <time>2020-08-06T09:19:34.390Z</time>
      </trkpt>
      <trkpt lat="38.722195" lon="-2.638987">
        <ele>1060.319552</ele>
        <time>2020-08-06T09:19:36.383Z</time>
      </trkpt>
      <trkpt lat="38.722148" lon="-2.639097">
        <ele>1060.124680</ele>
        <time>2020-08-06T09:19:38.384Z</time>
      </trkpt>
      <trkpt lat="38.722089" lon="-2.639208">
        <ele>1059.915985</ele>
        <time>2020-08-06T09:19:40.381Z</time>
      </trkpt>
      <trkpt lat="38.722038" lon="-2.639322">
        <ele>1059.711796</ele>
        <time>2020-08-06T09:19:42.383Z</time>
      </trkpt>
      <trkpt lat="38.721987" lon="-2.639440">
        <ele>1059.502193</ele>
        <time>2020-08-06T09:19:44.395Z</time>
      </trkpt>
      <trkpt lat="38.721921" lon="-2.639551">
        <ele>1059.285342</ele>
        <time>2020-08-06T09:19:46.392Z</time>
      </trkpt>
      <trkpt lat="38.721887" lon="-2.639664">
        <ele>1059.097156</ele>
        <time>2020-08-06T09:19:48.382Z</time>
      </trkpt>
      <trkpt lat="38.721839" lon="-2.639787">
        <ele>1058.883463</ele>
        <time>2020-08-06T09:19:50.382Z</time>
      </trkpt>
      <trkpt lat="38.721774" lon="-2.639960">
        <ele>1058.585106</ele>
        <time>2020-08-06T09:19:53.376Z</time>
      </trkpt>
      <trkpt lat="38.721725" lon="-2.640071">
        <ele>1058.619321</ele>
        <time>2020-08-06T09:19:55.380Z</time>
      </trkpt>
      <trkpt lat="38.721667" lon="-2.640198">
        <ele>1058.690416</ele>
        <time>2020-08-06T09:19:57.390Z</time>
      </trkpt>
      <trkpt lat="38.721618" lon="-2.640321">
        <ele>1058.757138</ele>
        <time>2020-08-06T09:19:59.381Z</time>
      </trkpt>
      <trkpt lat="38.721583" lon="-2.640443">
        <ele>1058.819937</ele>
        <time>2020-08-06T09:20:01.380Z</time>
      </trkpt>
      <trkpt lat="38.721531" lon="-2.640609">
        <ele>1058.906358</ele>
        <time>2020-08-06T09:20:04.392Z</time>
      </trkpt>
      <trkpt lat="38.721472" lon="-2.640749">
        <ele>1058.983231</ele>
        <time>2020-08-06T09:20:06.378Z</time>
      </trkpt>
      <trkpt lat="38.721421" lon="-2.640891">
        <ele>1059.058754</ele>
        <time>2020-08-06T09:20:08.381Z</time>
      </trkpt>
      <trkpt lat="38.721378" lon="-2.641029">
        <ele>1059.130545</ele>
        <time>2020-08-06T09:20:10.386Z</time>
      </trkpt>
      <trkpt lat="38.721317" lon="-2.641166">
        <ele>1059.206753</ele>
        <time>2020-08-06T09:20:12.389Z</time>
      </trkpt>
      <trkpt lat="38.721238" lon="-2.641327">
        <ele>1059.298640</ele>
        <time>2020-08-06T09:20:14.392Z</time>
      </trkpt>
      <trkpt lat="38.721186" lon="-2.641467">
        <ele>1059.373550</ele>
        <time>2020-08-06T09:20:16.384Z</time>
      </trkpt>
      <trkpt lat="38.721129" lon="-2.641612">
        <ele>1059.451993</ele>
        <time>2020-08-06T09:20:18.396Z</time>
      </trkpt>
      <trkpt lat="38.721084" lon="-2.641722">
        <ele>1059.511999</ele>
        <time>2020-08-06T09:20:20.381Z</time>
      </trkpt>
      <trkpt lat="38.721031" lon="-2.641869">
        <ele>1059.590234</ele>
        <time>2020-08-06T09:20:22.385Z</time>
      </trkpt>
      <trkpt lat="38.720975" lon="-2.641991">
        <ele>1059.658619</ele>
        <time>2020-08-06T09:20:24.395Z</time>
      </trkpt>
      <trkpt lat="38.720898" lon="-2.642155">
        <ele>1059.649703</ele>
        <time>2020-08-06T09:20:26.395Z</time>
      </trkpt>
      <trkpt lat="38.720849" lon="-2.642289">
        <ele>1059.622055</ele>
        <time>2020-08-06T09:20:28.389Z</time>
      </trkpt>
      <trkpt lat="38.720813" lon="-2.642411">
        <ele>1059.597686</ele>
        <time>2020-08-06T09:20:30.388Z</time>
      </trkpt>
      <trkpt lat="38.720760" lon="-2.642543">
        <ele>1059.569950</ele>
        <time>2020-08-06T09:20:32.390Z</time>
      </trkpt>
      <trkpt lat="38.720687" lon="-2.642706">
        <ele>1059.534837</ele>
        <time>2020-08-06T09:20:34.392Z</time>
      </trkpt>
      <trkpt lat="38.720634" lon="-2.642839">
        <ele>1059.506935</ele>
        <time>2020-08-06T09:20:36.382Z</time>
      </trkpt>
      <trkpt lat="38.720568" lon="-2.642976">
        <ele>1059.476853</ele>
        <time>2020-08-06T09:20:38.392Z</time>
      </trkpt>
      <trkpt lat="38.720526" lon="-2.643122">
        <ele>1059.447781</ele>
        <time>2020-08-06T09:20:40.389Z</time>
      </trkpt>
      <trkpt lat="38.720458" lon="-2.643273">
        <ele>1059.415207</ele>
        <time>2020-08-06T09:20:42.399Z</time>
      </trkpt>
      <trkpt lat="38.720375" lon="-2.643412">
        <ele>1059.382505</ele>
        <time>2020-08-06T09:20:44.389Z</time>
      </trkpt>
      <trkpt lat="38.720295" lon="-2.643557">
        <ele>1059.349325</ele>
        <time>2020-08-06T09:20:46.383Z</time>
      </trkpt>
      <trkpt lat="38.720249" lon="-2.643679">
        <ele>1059.324010</ele>
        <time>2020-08-06T09:20:48.388Z</time>
      </trkpt>
      <trkpt lat="38.720206" lon="-2.643809">
        <ele>1059.297629</ele>
        <time>2020-08-06T09:20:50.386Z</time>
      </trkpt>
      <trkpt lat="38.720131" lon="-2.643953">
        <ele>1059.265282</ele>
        <time>2020-08-06T09:20:52.387Z</time>
      </trkpt>
      <trkpt lat="38.720077" lon="-2.644092">
        <ele>1059.223417</ele>
        <time>2020-08-06T09:20:54.382Z</time>
      </trkpt>
      <trkpt lat="38.720011" lon="-2.644242">
        <ele>1059.153644</ele>
        <time>2020-08-06T09:20:56.387Z</time>
      </trkpt>
      <trkpt lat="38.719946" lon="-2.644356">
        <ele>1059.096436</ele>
        <time>2020-08-06T09:20:58.386Z</time>
      </trkpt>
      <trkpt lat="38.719897" lon="-2.644475">
        <ele>1059.041919</ele>
        <time>2020-08-06T09:21:00.393Z</time>
      </trkpt>
      <trkpt lat="38.719852" lon="-2.644606">
        <ele>1058.983925</ele>
        <time>2020-08-06T09:21:02.391Z</time>
      </trkpt>
      <trkpt lat="38.719787" lon="-2.644732">
        <ele>1058.922724</ele>
        <time>2020-08-06T09:21:04.381Z</time>
      </trkpt>
      <trkpt lat="38.719731" lon="-2.644864">
        <ele>1058.861847</ele>
        <time>2020-08-06T09:21:06.388Z</time>
      </trkpt>
      <trkpt lat="38.719671" lon="-2.644977">
        <ele>1058.806467</ele>
        <time>2020-08-06T09:21:08.386Z</time>
      </trkpt>
      <trkpt lat="38.719607" lon="-2.645084">
        <ele>1058.751840</ele>
        <time>2020-08-06T09:21:10.389Z</time>
      </trkpt>
      <trkpt lat="38.719572" lon="-2.645224">
        <ele>1058.692276</ele>
        <time>2020-08-06T09:21:12.387Z</time>
      </trkpt>
      <trkpt lat="38.719514" lon="-2.645337">
        <ele>1058.637473</ele>
        <time>2020-08-06T09:21:14.380Z</time>
      </trkpt>
      <trkpt lat="38.719465" lon="-2.645458">
        <ele>1058.582237</ele>
        <time>2020-08-06T09:21:16.390Z</time>
      </trkpt>
      <trkpt lat="38.719391" lon="-2.645585">
        <ele>1058.518015</ele>
        <time>2020-08-06T09:21:18.382Z</time>
      </trkpt>
      <trkpt lat="38.719336" lon="-2.645715">
        <ele>1058.458098</ele>
        <time>2020-08-06T09:21:20.395Z</time>
      </trkpt>
      <trkpt lat="38.719269" lon="-2.645831">
        <ele>1058.399621</ele>
        <time>2020-08-06T09:21:22.382Z</time>
      </trkpt>
      <trkpt lat="38.719236" lon="-2.645958">
        <ele>1058.345386</ele>
        <time>2020-08-06T09:21:24.385Z</time>
      </trkpt>
      <trkpt lat="38.719166" lon="-2.646068">
        <ele>1058.347805</ele>
        <time>2020-08-06T09:21:26.382Z</time>
      </trkpt>
      <trkpt lat="38.719098" lon="-2.646182">
        <ele>1058.427069</ele>
        <time>2020-08-06T09:21:28.388Z</time>
      </trkpt>
      <trkpt lat="38.719041" lon="-2.646292">
        <ele>1058.500009</ele>
        <time>2020-08-06T09:21:30.390Z</time>
      </trkpt>
      <trkpt lat="38.718983" lon="-2.646424">
        <ele>1058.583689</ele>
        <time>2020-08-06T09:21:32.384Z</time>
      </trkpt>
      <trkpt lat="38.718915" lon="-2.646563">
        <ele>1058.674313</ele>
        <time>2020-08-06T09:21:34.387Z</time>
      </trkpt>
      <trkpt lat="38.718868" lon="-2.646682">
        <ele>1058.747987</ele>
        <time>2020-08-06T09:21:36.388Z</time>
      </trkpt>
      <trkpt lat="38.718792" lon="-2.646817">
        <ele>1058.839941</ele>
        <time>2020-08-06T09:21:38.377Z</time>
      </trkpt>
      <trkpt lat="38.718737" lon="-2.646912">
        <ele>1058.905285</ele>
        <time>2020-08-06T09:21:40.395Z</time>
      </trkpt>
      <trkpt lat="38.718702" lon="-2.647040">
        <ele>1058.980205</ele>
        <time>2020-08-06T09:21:42.384Z</time>
      </trkpt>
      <trkpt lat="38.718659" lon="-2.647176">
        <ele>1059.061261</ele>
        <time>2020-08-06T09:21:44.385Z</time>
      </trkpt>
      <trkpt lat="38.718598" lon="-2.647308">
        <ele>1059.146004</ele>
        <time>2020-08-06T09:21:46.382Z</time>
      </trkpt>
      <trkpt lat="38.718519" lon="-2.647432">
        <ele>1059.234432</ele>
        <time>2020-08-06T09:21:48.378Z</time>
      </trkpt>
      <trkpt lat="38.718457" lon="-2.647590">
        <ele>1059.332123</ele>
        <time>2020-08-06T09:21:51.372Z</time>
      </trkpt>
      <trkpt lat="38.718404" lon="-2.647737">
        <ele>1059.421572</ele>
        <time>2020-08-06T09:21:54.375Z</time>
      </trkpt>
      <trkpt lat="38.718341" lon="-2.647848">
        <ele>1059.497392</ele>
        <time>2020-08-06T09:21:56.379Z</time>
      </trkpt>
      <trkpt lat="38.718294" lon="-2.647971">
        <ele>1059.573044</ele>
        <time>2020-08-06T09:21:58.390Z</time>
      </trkpt>
      <trkpt lat="38.718253" lon="-2.648091">
        <ele>1059.503221</ele>
        <time>2020-08-06T09:22:00.376Z</time>
      </trkpt>
      <trkpt lat="38.718201" lon="-2.648195">
        <ele>1059.406468</ele>
        <time>2020-08-06T09:22:02.378Z</time>
      </trkpt>
      <trkpt lat="38.718146" lon="-2.648298">
        <ele>1059.308704</ele>
        <time>2020-08-06T09:22:04.397Z</time>
      </trkpt>
      <trkpt lat="38.718095" lon="-2.648423">
        <ele>1059.198215</ele>
        <time>2020-08-06T09:22:06.388Z</time>
      </trkpt>
      <trkpt lat="38.718063" lon="-2.648532">
        <ele>1059.106993</ele>
        <time>2020-08-06T09:22:08.383Z</time>
      </trkpt>
      <trkpt lat="38.718014" lon="-2.648705">
        <ele>1058.962832</ele>
        <time>2020-08-06T09:22:11.381Z</time>
      </trkpt>
      <trkpt lat="38.717975" lon="-2.648827">
        <ele>1058.859561</ele>
        <time>2020-08-06T09:22:13.374Z</time>
      </trkpt>
      <trkpt lat="38.717909" lon="-2.648959">
        <ele>1058.736759</ele>
        <time>2020-08-06T09:22:15.378Z</time>
      </trkpt>
      <trkpt lat="38.717853" lon="-2.649097">
        <ele>1058.614919</ele>
        <time>2020-08-06T09:22:17.382Z</time>
      </trkpt>
      <trkpt lat="38.717817" lon="-2.649203">
        <ele>1058.524366</ele>
        <time>2020-08-06T09:22:19.383Z</time>
      </trkpt>
      <trkpt lat="38.717738" lon="-2.649333">
        <ele>1058.395297</ele>
        <time>2020-08-06T09:22:21.398Z</time>
      </trkpt>
      <trkpt lat="38.717695" lon="-2.649436">
        <ele>1058.303795</ele>
        <time>2020-08-06T09:22:23.381Z</time>
      </trkpt>
      <trkpt lat="38.717646" lon="-2.649545">
        <ele>1058.205259</ele>
        <time>2020-08-06T09:22:25.389Z</time>
      </trkpt>
      <trkpt lat="38.717577" lon="-2.649652">
        <ele>1058.096526</ele>
        <time>2020-08-06T09:22:27.386Z</time>
      </trkpt>
      <trkpt lat="38.717518" lon="-2.649813">
        <ele>1057.957199</ele>
        <time>2020-08-06T09:22:30.386Z</time>
      </trkpt>
      <trkpt lat="38.717486" lon="-2.649971">
        <ele>1057.829337</ele>
        <time>2020-08-06T09:22:33.382Z</time>
      </trkpt>
      <trkpt lat="38.717426" lon="-2.650095">
        <ele>1057.733936</ele>
        <time>2020-08-06T09:22:35.378Z</time>
      </trkpt>
      <trkpt lat="38.717377" lon="-2.650240">
        <ele>1057.645652</ele>
        <time>2020-08-06T09:22:38.390Z</time>
      </trkpt>
      <trkpt lat="38.717316" lon="-2.650363">
        <ele>1057.564224</ele>
        <time>2020-08-06T09:22:40.387Z</time>
      </trkpt>
      <trkpt lat="38.717273" lon="-2.650480">
        <ele>1057.491967</ele>
        <time>2020-08-06T09:22:42.393Z</time>
      </trkpt>
      <trkpt lat="38.717193" lon="-2.650620">
        <ele>1057.395014</ele>
        <time>2020-08-06T09:22:44.380Z</time>
      </trkpt>
      <trkpt lat="38.717144" lon="-2.650740">
        <ele>1057.319343</ele>
        <time>2020-08-06T09:22:46.383Z</time>
      </trkpt>
      <trkpt lat="38.717087" lon="-2.650857">
        <ele>1057.242278</ele>
        <time>2020-08-06T09:22:48.385Z</time>
      </trkpt>
      <trkpt lat="38.717030" lon="-2.650980">
        <ele>1057.162350</ele>
        <time>2020-08-06T09:22:50.378Z</time>
      </trkpt>
      <trkpt lat="38.716986" lon="-2.651085">
        <ele>1057.095760</ele>
        <time>2020-08-06T09:22:52.382Z</time>
      </trkpt>
      <trkpt lat="38.716936" lon="-2.651224">
        <ele>1057.010244</ele>
        <time>2020-08-06T09:22:54.382Z</time>
      </trkpt>
      <trkpt lat="38.716867" lon="-2.651349">
        <ele>1056.924695</ele>
        <time>2020-08-06T09:22:56.392Z</time>
      </trkpt>
      <trkpt lat="38.716824" lon="-2.651486">
        <ele>1056.842191</ele>
        <time>2020-08-06T09:22:58.378Z</time>
      </trkpt>
      <trkpt lat="38.716776" lon="-2.651595">
        <ele>1056.772261</ele>
        <time>2020-08-06T09:23:00.398Z</time>
      </trkpt>
      <trkpt lat="38.716709" lon="-2.651713">
        <ele>1056.690725</ele>
        <time>2020-08-06T09:23:02.380Z</time>
      </trkpt>
      <trkpt lat="38.716661" lon="-2.651832">
        <ele>1056.615879</ele>
        <time>2020-08-06T09:23:04.383Z</time>
      </trkpt>
      <trkpt lat="38.716625" lon="-2.651950">
        <ele>1056.545091</ele>
        <time>2020-08-06T09:23:06.381Z</time>
      </trkpt>
      <trkpt lat="38.716574" lon="-2.652066">
        <ele>1056.510891</ele>
        <time>2020-08-06T09:23:08.387Z</time>
      </trkpt>
      <trkpt lat="38.716521" lon="-2.652180">
        <ele>1056.570529</ele>
        <time>2020-08-06T09:23:10.384Z</time>
      </trkpt>
      <trkpt lat="38.716445" lon="-2.652276">
        <ele>1056.631992</ele>
        <time>2020-08-06T09:23:12.387Z</time>
      </trkpt>
      <trkpt lat="38.716407" lon="-2.652421">
        <ele>1056.700735</ele>
        <time>2020-08-06T09:23:14.384Z</time>
      </trkpt>
      <trkpt lat="38.716384" lon="-2.652611">
        <ele>1056.787146</ele>
        <time>2020-08-06T09:23:17.389Z</time>
      </trkpt>
      <trkpt lat="38.716309" lon="-2.652733">
        <ele>1056.856949</ele>
        <time>2020-08-06T09:23:19.377Z</time>
      </trkpt>
      <trkpt lat="38.716264" lon="-2.652833">
        <ele>1056.908830</ele>
        <time>2020-08-06T09:23:22.372Z</time>
      </trkpt>
      <trkpt lat="38.716172" lon="-2.652957">
        <ele>1056.985730</ele>
        <time>2020-08-06T09:23:24.399Z</time>
      </trkpt>
      <trkpt lat="38.716114" lon="-2.653049">
        <ele>1057.038886</ele>
        <time>2020-08-06T09:23:26.386Z</time>
      </trkpt>
      <trkpt lat="38.716081" lon="-2.653189">
        <ele>1057.104613</ele>
        <time>2020-08-06T09:23:28.382Z</time>
      </trkpt>
      <trkpt lat="38.716004" lon="-2.653301">
        <ele>1057.171700</ele>
        <time>2020-08-06T09:23:30.383Z</time>
      </trkpt>
      <trkpt lat="38.715921" lon="-2.653438">
        <ele>1057.249652</ele>
        <time>2020-08-06T09:23:33.386Z</time>
      </trkpt>
      <trkpt lat="38.715871" lon="-2.653571">
        <ele>1057.316001</ele>
        <time>2020-08-06T09:23:35.390Z</time>
      </trkpt>
      <trkpt lat="38.715781" lon="-2.653672">
        <ele>1057.384905</ele>
        <time>2020-08-06T09:23:37.387Z</time>
      </trkpt>
      <trkpt lat="38.715712" lon="-2.653772">
        <ele>1057.444899</ele>
        <time>2020-08-06T09:23:39.391Z</time>
      </trkpt>
      <trkpt lat="38.715623" lon="-2.653857">
        <ele>1057.508831</ele>
        <time>2020-08-06T09:23:41.387Z</time>
      </trkpt>
      <trkpt lat="38.715560" lon="-2.653948">
        <ele>1057.448030</ele>
        <time>2020-08-06T09:23:43.383Z</time>
      </trkpt>
      <trkpt lat="38.715500" lon="-2.654063">
        <ele>1057.302283</ele>
        <time>2020-08-06T09:23:45.384Z</time>
      </trkpt>
      <trkpt lat="38.715448" lon="-2.654161">
        <ele>1057.177425</ele>
        <time>2020-08-06T09:23:47.389Z</time>
      </trkpt>
      <trkpt lat="38.715379" lon="-2.654304">
        <ele>1057.000290</ele>
        <time>2020-08-06T09:23:50.389Z</time>
      </trkpt>
      <trkpt lat="38.715321" lon="-2.654405">
        <ele>1056.868170</ele>
        <time>2020-08-06T09:23:52.385Z</time>
      </trkpt>
      <trkpt lat="38.715261" lon="-2.654512">
        <ele>1056.729350</ele>
        <time>2020-08-06T09:23:54.390Z</time>
      </trkpt>
      <trkpt lat="38.715200" lon="-2.654657">
        <ele>1056.555798</ele>
        <time>2020-08-06T09:23:57.386Z</time>
      </trkpt>
      <trkpt lat="38.715143" lon="-2.654758">
        <ele>1056.424474</ele>
        <time>2020-08-06T09:23:59.389Z</time>
      </trkpt>
      <trkpt lat="38.715091" lon="-2.654863">
        <ele>1056.293452</ele>
        <time>2020-08-06T09:24:01.370Z</time>
      </trkpt>
      <trkpt lat="38.715008" lon="-2.654994">
        <ele>1056.115667</ele>
        <time>2020-08-06T09:24:04.393Z</time>
      </trkpt>
      <trkpt lat="38.714959" lon="-2.655101">
        <ele>1055.984957</ele>
        <time>2020-08-06T09:24:06.389Z</time>
      </trkpt>
      <trkpt lat="38.714899" lon="-2.655231">
        <ele>1055.825829</ele>
        <time>2020-08-06T09:24:09.394Z</time>
      </trkpt>
      <trkpt lat="38.714842" lon="-2.655350">
        <ele>1055.678719</ele>
        <time>2020-08-06T09:24:11.383Z</time>
      </trkpt>
      <trkpt lat="38.714780" lon="-2.655449">
        <ele>1055.544978</ele>
        <time>2020-08-06T09:24:13.381Z</time>
      </trkpt>
      <trkpt lat="38.714716" lon="-2.655555">
        <ele>1055.403772</ele>
        <time>2020-08-06T09:24:15.387Z</time>
      </trkpt>
      <trkpt lat="38.714649" lon="-2.655633">
        <ele>1055.281555</ele>
        <time>2020-08-06T09:24:17.391Z</time>
      </trkpt>
      <trkpt lat="38.714590" lon="-2.655747">
        <ele>1055.137432</ele>
        <time>2020-08-06T09:24:19.378Z</time>
      </trkpt>
      <trkpt lat="38.714518" lon="-2.655873">
        <ele>1055.044479</ele>
        <time>2020-08-06T09:24:21.390Z</time>
      </trkpt>
      <trkpt lat="38.714455" lon="-2.656001">
        <ele>1054.974561</ele>
        <time>2020-08-06T09:24:23.380Z</time>
      </trkpt>
      <trkpt lat="38.714406" lon="-2.656138">
        <ele>1054.904935</ele>
        <time>2020-08-06T09:24:25.390Z</time>
      </trkpt>
      <trkpt lat="38.714358" lon="-2.656261">
        <ele>1054.841398</ele>
        <time>2020-08-06T09:24:27.395Z</time>
      </trkpt>
      <trkpt lat="38.714300" lon="-2.656373">
        <ele>1054.779295</ele>
        <time>2020-08-06T09:24:29.379Z</time>
      </trkpt>
      <trkpt lat="38.714243" lon="-2.656502">
        <ele>1054.710804</ele>
        <time>2020-08-06T09:24:31.388Z</time>
      </trkpt>
      <trkpt lat="38.714183" lon="-2.656610">
        <ele>1054.649553</ele>
        <time>2020-08-06T09:24:33.384Z</time>
      </trkpt>
      <trkpt lat="38.714103" lon="-2.656742">
        <ele>1054.572334</ele>
        <time>2020-08-06T09:24:35.399Z</time>
      </trkpt>
      <trkpt lat="38.714048" lon="-2.656862">
        <ele>1054.508036</ele>
        <time>2020-08-06T09:24:37.380Z</time>
      </trkpt>
      <trkpt lat="38.713972" lon="-2.656990">
        <ele>1054.433726</ele>
        <time>2020-08-06T09:24:39.379Z</time>
      </trkpt>
      <trkpt lat="38.713908" lon="-2.657105">
        <ele>1054.368466</ele>
        <time>2020-08-06T09:24:41.382Z</time>
      </trkpt>
      <trkpt lat="38.713863" lon="-2.657212">
        <ele>1054.312308</ele>
        <time>2020-08-06T09:24:43.382Z</time>
      </trkpt>
      <trkpt lat="38.713807" lon="-2.657331">
        <ele>1054.248105</ele>
        <time>2020-08-06T09:24:45.378Z</time>
      </trkpt>
      <trkpt lat="38.713736" lon="-2.657458">
        <ele>1054.175925</ele>
        <time>2020-08-06T09:24:47.387Z</time>
      </trkpt>
      <trkpt lat="38.713652" lon="-2.657586">
        <ele>1054.098654</ele>
        <time>2020-08-06T09:24:49.390Z</time>
      </trkpt>
      <trkpt lat="38.713592" lon="-2.657709">
        <ele>1054.040418</ele>
        <time>2020-08-06T09:24:51.378Z</time>
      </trkpt>
      <trkpt lat="38.713519" lon="-2.657825">
        <ele>1054.131757</ele>
        <time>2020-08-06T09:24:53.384Z</time>
      </trkpt>
      <trkpt lat="38.713461" lon="-2.657938">
        <ele>1054.214657</ele>
        <time>2020-08-06T09:24:55.389Z</time>
      </trkpt>
      <trkpt lat="38.713394" lon="-2.658057">
        <ele>1054.304597</ele>
        <time>2020-08-06T09:24:57.381Z</time>
      </trkpt>
      <trkpt lat="38.713329" lon="-2.658192">
        <ele>1054.401825</ele>
        <time>2020-08-06T09:24:59.380Z</time>
      </trkpt>
      <trkpt lat="38.713271" lon="-2.658318">
        <ele>1054.491488</ele>
        <time>2020-08-06T09:25:01.381Z</time>
      </trkpt>
      <trkpt lat="38.713192" lon="-2.658430">
        <ele>1054.584024</ele>
        <time>2020-08-06T09:25:03.384Z</time>
      </trkpt>
      <trkpt lat="38.713106" lon="-2.658552">
        <ele>1054.684794</ele>
        <time>2020-08-06T09:25:05.390Z</time>
      </trkpt>
      <trkpt lat="38.713031" lon="-2.658654">
        <ele>1054.770695</ele>
        <time>2020-08-06T09:25:07.385Z</time>
      </trkpt>
      <trkpt lat="38.712968" lon="-2.658754">
        <ele>1054.849470</ele>
        <time>2020-08-06T09:25:09.398Z</time>
      </trkpt>
      <trkpt lat="38.712878" lon="-2.658844">
        <ele>1054.939139</ele>
        <time>2020-08-06T09:25:11.388Z</time>
      </trkpt>
      <trkpt lat="38.712820" lon="-2.658952">
        <ele>1055.019496</ele>
        <time>2020-08-06T09:25:13.381Z</time>
      </trkpt>
      <trkpt lat="38.712744" lon="-2.659051">
        <ele>1055.104617</ele>
        <time>2020-08-06T09:25:15.389Z</time>
      </trkpt>
      <trkpt lat="38.712674" lon="-2.659150">
        <ele>1055.186502</ele>
        <time>2020-08-06T09:25:17.388Z</time>
      </trkpt>
      <trkpt lat="38.712609" lon="-2.659243">
        <ele>1055.263026</ele>
        <time>2020-08-06T09:25:19.385Z</time>
      </trkpt>
      <trkpt lat="38.712536" lon="-2.659364">
        <ele>1055.356771</ele>
        <time>2020-08-06T09:25:22.379Z</time>
      </trkpt>
      <trkpt lat="38.712458" lon="-2.659498">
        <ele>1055.471669</ele>
        <time>2020-08-06T09:25:25.386Z</time>
      </trkpt>
      <trkpt lat="38.712390" lon="-2.659585">
        <ele>1055.632401</ele>
        <time>2020-08-06T09:25:27.385Z</time>
      </trkpt>
      <trkpt lat="38.712321" lon="-2.659679">
        <ele>1055.800854</ele>
        <time>2020-08-06T09:25:29.386Z</time>
      </trkpt>
      <trkpt lat="38.712243" lon="-2.659793">
        <ele>1055.998759</ele>
        <time>2020-08-06T09:25:32.388Z</time>
      </trkpt>
      <trkpt lat="38.712143" lon="-2.659864">
        <ele>1056.189994</ele>
        <time>2020-08-06T09:25:34.389Z</time>
      </trkpt>
      <trkpt lat="38.712074" lon="-2.659991">
        <ele>1056.391989</ele>
        <time>2020-08-06T09:25:37.385Z</time>
      </trkpt>
      <trkpt lat="38.712012" lon="-2.660103">
        <ele>1056.571233</ele>
        <time>2020-08-06T09:25:40.385Z</time>
      </trkpt>
      <trkpt lat="38.711932" lon="-2.660197">
        <ele>1056.752790</ele>
        <time>2020-08-06T09:25:43.393Z</time>
      </trkpt>
      <trkpt lat="38.711861" lon="-2.660277">
        <ele>1056.910935</ele>
        <time>2020-08-06T09:25:46.394Z</time>
      </trkpt>
      <trkpt lat="38.711796" lon="-2.660382">
        <ele>1057.085883</ele>
        <time>2020-08-06T09:25:49.375Z</time>
      </trkpt>
      <trkpt lat="38.711721" lon="-2.660488">
        <ele>1057.272654</ele>
        <time>2020-08-06T09:25:52.388Z</time>
      </trkpt>
      <trkpt lat="38.711651" lon="-2.660590">
        <ele>1057.449960</ele>
        <time>2020-08-06T09:25:55.391Z</time>
      </trkpt>
      <trkpt lat="38.711590" lon="-2.660705">
        <ele>1057.631466</ele>
        <time>2020-08-06T09:25:58.370Z</time>
      </trkpt>
      <trkpt lat="38.711529" lon="-2.660828">
        <ele>1057.821699</ele>
        <time>2020-08-06T09:26:01.371Z</time>
      </trkpt>
      <trkpt lat="38.711481" lon="-2.660957">
        <ele>1058.008246</ele>
        <time>2020-08-06T09:26:04.395Z</time>
      </trkpt>
      <trkpt lat="38.711485" lon="-2.661076">
        <ele>1058.163719</ele>
        <time>2020-08-06T09:26:07.378Z</time>
      </trkpt>
      <trkpt lat="38.711472" lon="-2.661211">
        <ele>1058.341270</ele>
        <time>2020-08-06T09:26:10.379Z</time>
      </trkpt>
      <trkpt lat="38.711424" lon="-2.661358">
        <ele>1058.419467</ele>
        <time>2020-08-06T09:26:13.389Z</time>
      </trkpt>
      <trkpt lat="38.711372" lon="-2.661507">
        <ele>1058.332845</ele>
        <time>2020-08-06T09:26:16.391Z</time>
      </trkpt>
      <trkpt lat="38.711341" lon="-2.661618">
        <ele>1058.270279</ele>
        <time>2020-08-06T09:26:18.392Z</time>
      </trkpt>
      <trkpt lat="38.711348" lon="-2.661747">
        <ele>1058.201654</ele>
        <time>2020-08-06T09:26:20.385Z</time>
      </trkpt>
      <trkpt lat="38.711397" lon="-2.661857">
        <ele>1058.134435</ele>
        <time>2020-08-06T09:26:22.376Z</time>
      </trkpt>
      <trkpt lat="38.711349" lon="-2.661974">
        <ele>1058.064284</ele>
        <time>2020-08-06T09:26:24.380Z</time>
      </trkpt>
      <trkpt lat="38.711251" lon="-2.662055">
        <ele>1057.984974</ele>
        <time>2020-08-06T09:26:26.377Z</time>
      </trkpt>
      <trkpt lat="38.711244" lon="-2.662198">
        <ele>1057.908935</ele>
        <time>2020-08-06T09:26:29.395Z</time>
      </trkpt>
      <trkpt lat="38.711152" lon="-2.662371">
        <ele>1057.797831</ele>
        <time>2020-08-06T09:26:32.378Z</time>
      </trkpt>
      <trkpt lat="38.711097" lon="-2.662487">
        <ele>1057.725796</ele>
        <time>2020-08-06T09:26:34.373Z</time>
      </trkpt>
      <trkpt lat="38.711021" lon="-2.662596">
        <ele>1057.648222</ele>
        <time>2020-08-06T09:26:36.378Z</time>
      </trkpt>
      <trkpt lat="38.711008" lon="-2.662735">
        <ele>1057.573927</ele>
        <time>2020-08-06T09:26:39.385Z</time>
      </trkpt>
      <trkpt lat="38.710948" lon="-2.662837">
        <ele>1057.506137</ele>
        <time>2020-08-06T09:26:41.375Z</time>
      </trkpt>
      <trkpt lat="38.710911" lon="-2.662952">
        <ele>1057.440123</ele>
        <time>2020-08-06T09:26:43.380Z</time>
      </trkpt>
      <trkpt lat="38.710846" lon="-2.663069">
        <ele>1057.363902</ele>
        <time>2020-08-06T09:26:45.379Z</time>
      </trkpt>
      <trkpt lat="38.710788" lon="-2.663187">
        <ele>1057.289891</ele>
        <time>2020-08-06T09:26:47.380Z</time>
      </trkpt>
      <trkpt lat="38.710733" lon="-2.663297">
        <ele>1057.245075</ele>
        <time>2020-08-06T09:26:49.383Z</time>
      </trkpt>
      <trkpt lat="38.710638" lon="-2.663422">
        <ele>1057.325101</ele>
        <time>2020-08-06T09:26:51.385Z</time>
      </trkpt>
      <trkpt lat="38.710560" lon="-2.663557">
        <ele>1057.402140</ele>
        <time>2020-08-06T09:26:54.387Z</time>
      </trkpt>
      <trkpt lat="38.710505" lon="-2.663698">
        <ele>1057.474435</ele>
        <time>2020-08-06T09:26:57.396Z</time>
      </trkpt>
      <trkpt lat="38.710463" lon="-2.663824">
        <ele>1057.537274</ele>
        <time>2020-08-06T09:27:00.394Z</time>
      </trkpt>
      <trkpt lat="38.710391" lon="-2.663956">
        <ele>1057.611136</ele>
        <time>2020-08-06T09:27:03.380Z</time>
      </trkpt>
      <trkpt lat="38.710342" lon="-2.664076">
        <ele>1057.673251</ele>
        <time>2020-08-06T09:27:06.392Z</time>
      </trkpt>
      <trkpt lat="38.710283" lon="-2.664177">
        <ele>1057.731114</ele>
        <time>2020-08-06T09:27:09.387Z</time>
      </trkpt>
      <trkpt lat="38.710227" lon="-2.664288">
        <ele>1057.791734</ele>
        <time>2020-08-06T09:27:12.387Z</time>
      </trkpt>
      <trkpt lat="38.710175" lon="-2.664396">
        <ele>1057.849936</ele>
        <time>2020-08-06T09:27:15.376Z</time>
      </trkpt>
      <trkpt lat="38.710123" lon="-2.664501">
        <ele>1057.906971</ele>
        <time>2020-08-06T09:27:18.385Z</time>
      </trkpt>
      <trkpt lat="38.710068" lon="-2.664616">
        <ele>1057.968832</ele>
        <time>2020-08-06T09:27:21.385Z</time>
      </trkpt>
      <trkpt lat="38.710028" lon="-2.664731">
        <ele>1058.026576</ele>
        <time>2020-08-06T09:27:24.378Z</time>
      </trkpt>
      <trkpt lat="38.709991" lon="-2.664861">
        <ele>1058.090040</ele>
        <time>2020-08-06T09:27:27.394Z</time>
      </trkpt>
      <trkpt lat="38.709967" lon="-2.665016">
        <ele>1058.162513</ele>
        <time>2020-08-06T09:27:30.390Z</time>
      </trkpt>
      <trkpt lat="38.709952" lon="-2.665135">
        <ele>1058.217797</ele>
        <time>2020-08-06T09:27:32.387Z</time>
      </trkpt>
      <trkpt lat="38.709899" lon="-2.665261">
        <ele>1058.283445</ele>
        <time>2020-08-06T09:27:34.379Z</time>
      </trkpt>
      <trkpt lat="38.709836" lon="-2.665370">
        <ele>1058.340913</ele>
        <time>2020-08-06T09:27:36.374Z</time>
      </trkpt>
      <trkpt lat="38.709801" lon="-2.665484">
        <ele>1058.392236</ele>
        <time>2020-08-06T09:27:38.389Z</time>
      </trkpt>
      <trkpt lat="38.709740" lon="-2.665641">
        <ele>1058.465713</ele>
        <time>2020-08-06T09:27:41.388Z</time>
      </trkpt>
      <trkpt lat="38.709708" lon="-2.665770">
        <ele>1058.522422</ele>
        <time>2020-08-06T09:27:43.377Z</time>
      </trkpt>
      <trkpt lat="38.709653" lon="-2.665911">
        <ele>1058.588462</ele>
        <time>2020-08-06T09:27:45.386Z</time>
      </trkpt>
      <trkpt lat="38.709600" lon="-2.666052">
        <ele>1058.654030</ele>
        <time>2020-08-06T09:27:47.384Z</time>
      </trkpt>
      <trkpt lat="38.709519" lon="-2.666177">
        <ele>1058.722100</ele>
        <time>2020-08-06T09:27:49.385Z</time>
      </trkpt>
      <trkpt lat="38.709461" lon="-2.666307">
        <ele>1058.784837</ele>
        <time>2020-08-06T09:27:51.387Z</time>
      </trkpt>
      <trkpt lat="38.709405" lon="-2.666426">
        <ele>1058.843055</ele>
        <time>2020-08-06T09:27:53.388Z</time>
      </trkpt>
      <trkpt lat="38.709333" lon="-2.666518">
        <ele>1058.897643</ele>
        <time>2020-08-06T09:27:55.383Z</time>
      </trkpt>
      <trkpt lat="38.709296" lon="-2.666625">
        <ele>1058.946675</ele>
        <time>2020-08-06T09:27:57.542Z</time>
      </trkpt>
      <trkpt lat="38.709215" lon="-2.666738">
        <ele>1059.010958</ele>
        <time>2020-08-06T09:28:01.518Z</time>
      </trkpt>
      <trkpt lat="38.709154" lon="-2.666833">
        <ele>1059.062501</ele>
        <time>2020-08-06T09:28:04.520Z</time>
      </trkpt>
      <trkpt lat="38.709089" lon="-2.666924">
        <ele>1059.114185</ele>
        <time>2020-08-06T09:28:08.532Z</time>
      </trkpt>
      <trkpt lat="38.709015" lon="-2.667031">
        <ele>1059.174085</ele>
        <time>2020-08-06T09:28:12.532Z</time>
      </trkpt>
      <trkpt lat="38.708952" lon="-2.667127">
        <ele>1059.226636</ele>
        <time>2020-08-06T09:28:16.524Z</time>
      </trkpt>
      <trkpt lat="38.708874" lon="-2.667214">
        <ele>1059.340442</ele>
        <time>2020-08-06T09:28:20.522Z</time>
      </trkpt>
      <trkpt lat="38.708810" lon="-2.667303">
        <ele>1059.506406</ele>
        <time>2020-08-06T09:28:24.549Z</time>
      </trkpt>
      <trkpt lat="38.708747" lon="-2.667396">
        <ele>1059.675288</ele>
        <time>2020-08-06T09:28:28.521Z</time>
      </trkpt>
      <trkpt lat="38.708664" lon="-2.667498">
        <ele>1059.877374</ele>
        <time>2020-08-06T09:28:32.519Z</time>
      </trkpt>
      <trkpt lat="38.708597" lon="-2.667581">
        <ele>1060.041134</ele>
        <time>2020-08-06T09:28:35.523Z</time>
      </trkpt>
      <trkpt lat="38.708521" lon="-2.667688">
        <ele>1060.239544</ele>
        <time>2020-08-06T09:28:39.511Z</time>
      </trkpt>
      <trkpt lat="38.708450" lon="-2.667777">
        <ele>1060.414079</ele>
        <time>2020-08-06T09:28:42.518Z</time>
      </trkpt>
      <trkpt lat="38.708371" lon="-2.667884">
        <ele>1060.616076</ele>
        <time>2020-08-06T09:28:45.537Z</time>
      </trkpt>
      <trkpt lat="38.708286" lon="-2.668005">
        <ele>1060.839334</ele>
        <time>2020-08-06T09:28:48.533Z</time>
      </trkpt>
      <trkpt lat="38.708205" lon="-2.668125">
        <ele>1061.056913</ele>
        <time>2020-08-06T09:28:51.528Z</time>
      </trkpt>
      <trkpt lat="38.708116" lon="-2.668244">
        <ele>1061.282946</ele>
        <time>2020-08-06T09:28:54.515Z</time>
      </trkpt>
      <trkpt lat="38.708021" lon="-2.668354">
        <ele>1061.507945</ele>
        <time>2020-08-06T09:28:57.519Z</time>
      </trkpt>
      <trkpt lat="38.707927" lon="-2.668487">
        <ele>1061.754016</ele>
        <time>2020-08-06T09:29:00.528Z</time>
      </trkpt>
      <trkpt lat="38.707832" lon="-2.668611">
        <ele>1061.992313</ele>
        <time>2020-08-06T09:29:03.514Z</time>
      </trkpt>
      <trkpt lat="38.707745" lon="-2.668718">
        <ele>1062.204219</ele>
        <time>2020-08-06T09:29:06.516Z</time>
      </trkpt>
      <trkpt lat="38.707651" lon="-2.668839">
        <ele>1062.412776</ele>
        <time>2020-08-06T09:29:09.533Z</time>
      </trkpt>
      <trkpt lat="38.707552" lon="-2.668944">
        <ele>1062.364264</ele>
        <time>2020-08-06T09:29:12.520Z</time>
      </trkpt>
      <trkpt lat="38.707472" lon="-2.669057">
        <ele>1062.319319</ele>
        <time>2020-08-06T09:29:15.517Z</time>
      </trkpt>
      <trkpt lat="38.707390" lon="-2.669177">
        <ele>1062.272332</ele>
        <time>2020-08-06T09:29:18.520Z</time>
      </trkpt>
      <trkpt lat="38.707304" lon="-2.669288">
        <ele>1062.226255</ele>
        <time>2020-08-06T09:29:21.522Z</time>
      </trkpt>
      <trkpt lat="38.707214" lon="-2.669396">
        <ele>1062.179710</ele>
        <time>2020-08-06T09:29:24.520Z</time>
      </trkpt>
      <trkpt lat="38.707139" lon="-2.669529">
        <ele>1062.131371</ele>
        <time>2020-08-06T09:29:27.536Z</time>
      </trkpt>
      <trkpt lat="38.707061" lon="-2.669624">
        <ele>1062.090749</ele>
        <time>2020-08-06T09:29:29.538Z</time>
      </trkpt>
      <trkpt lat="38.706988" lon="-2.669705">
        <ele>1062.054297</ele>
        <time>2020-08-06T09:29:31.535Z</time>
      </trkpt>
      <trkpt lat="38.706901" lon="-2.669806">
        <ele>1062.009982</ele>
        <time>2020-08-06T09:29:33.524Z</time>
      </trkpt>
      <trkpt lat="38.706838" lon="-2.669899">
        <ele>1061.973704</ele>
        <time>2020-08-06T09:29:35.523Z</time>
      </trkpt>
      <trkpt lat="38.706754" lon="-2.670021">
        <ele>1061.925775</ele>
        <time>2020-08-06T09:29:37.526Z</time>
      </trkpt>
      <trkpt lat="38.706672" lon="-2.670128">
        <ele>1061.881597</ele>
        <time>2020-08-06T09:29:39.523Z</time>
      </trkpt>
      <trkpt lat="38.706584" lon="-2.670223">
        <ele>1061.838161</ele>
        <time>2020-08-06T09:29:41.518Z</time>
      </trkpt>
      <trkpt lat="38.706504" lon="-2.670324">
        <ele>1061.795767</ele>
        <time>2020-08-06T09:29:43.527Z</time>
      </trkpt>
      <trkpt lat="38.706411" lon="-2.670418">
        <ele>1061.751053</ele>
        <time>2020-08-06T09:29:45.532Z</time>
      </trkpt>
      <trkpt lat="38.706341" lon="-2.670511">
        <ele>1061.696378</ele>
        <time>2020-08-06T09:29:47.528Z</time>
      </trkpt>
      <trkpt lat="38.706257" lon="-2.670622">
        <ele>1061.620954</ele>
        <time>2020-08-06T09:29:49.522Z</time>
      </trkpt>
      <trkpt lat="38.706187" lon="-2.670740">
        <ele>1061.548652</ele>
        <time>2020-08-06T09:29:51.532Z</time>
      </trkpt>
      <trkpt lat="38.706119" lon="-2.670841">
        <ele>1061.483583</ele>
        <time>2020-08-06T09:29:53.521Z</time>
      </trkpt>
      <trkpt lat="38.706053" lon="-2.670950">
        <ele>1061.416285</ele>
        <time>2020-08-06T09:29:55.515Z</time>
      </trkpt>
      <trkpt lat="38.706002" lon="-2.671054">
        <ele>1061.356369</ele>
        <time>2020-08-06T09:29:57.520Z</time>
      </trkpt>
      <trkpt lat="38.705926" lon="-2.671146">
        <ele>1061.291017</ele>
        <time>2020-08-06T09:29:59.517Z</time>
      </trkpt>
      <trkpt lat="38.705858" lon="-2.671234">
        <ele>1061.230607</ele>
        <time>2020-08-06T09:30:01.535Z</time>
      </trkpt>
      <trkpt lat="38.705786" lon="-2.671344">
        <ele>1061.160574</ele>
        <time>2020-08-06T09:30:03.538Z</time>
      </trkpt>
      <trkpt lat="38.705716" lon="-2.671456">
        <ele>1061.090578</ele>
        <time>2020-08-06T09:30:05.519Z</time>
      </trkpt>
      <trkpt lat="38.705625" lon="-2.671563">
        <ele>1061.013378</ele>
        <time>2020-08-06T09:30:09.011Z</time>
      </trkpt>
      <trkpt lat="38.705511" lon="-2.671749">
        <ele>1060.898010</ele>
        <time>2020-08-06T09:30:10.519Z</time>
      </trkpt>
      <trkpt lat="38.705419" lon="-2.671882">
        <ele>1060.811314</ele>
        <time>2020-08-06T09:30:12.522Z</time>
      </trkpt>
      <trkpt lat="38.705342" lon="-2.672017">
        <ele>1060.729746</ele>
        <time>2020-08-06T09:30:14.529Z</time>
      </trkpt>
      <trkpt lat="38.705243" lon="-2.672157">
        <ele>1060.637587</ele>
        <time>2020-08-06T09:30:16.522Z</time>
      </trkpt>
      <trkpt lat="38.705127" lon="-2.672294">
        <ele>1060.495528</ele>
        <time>2020-08-06T09:30:18.514Z</time>
      </trkpt>
      <trkpt lat="38.705037" lon="-2.672417">
        <ele>1060.365652</ele>
        <time>2020-08-06T09:30:20.517Z</time>
      </trkpt>
      <trkpt lat="38.704955" lon="-2.672541">
        <ele>1060.240457</ele>
        <time>2020-08-06T09:30:22.519Z</time>
      </trkpt>
      <trkpt lat="38.704850" lon="-2.672682">
        <ele>1060.090334</ele>
        <time>2020-08-06T09:30:24.516Z</time>
      </trkpt>
      <trkpt lat="38.704774" lon="-2.672809">
        <ele>1059.967058</ele>
        <time>2020-08-06T09:30:26.526Z</time>
      </trkpt>
      <trkpt lat="38.704680" lon="-2.672944">
        <ele>1059.827696</ele>
        <time>2020-08-06T09:30:28.516Z</time>
      </trkpt>
      <trkpt lat="38.704582" lon="-2.673080">
        <ele>1059.685110</ele>
        <time>2020-08-06T09:30:30.523Z</time>
      </trkpt>
      <trkpt lat="38.704487" lon="-2.673212">
        <ele>1059.546796</ele>
        <time>2020-08-06T09:30:32.520Z</time>
      </trkpt>
      <trkpt lat="38.704373" lon="-2.673356">
        <ele>1059.388794</ele>
        <time>2020-08-06T09:30:34.529Z</time>
      </trkpt>
      <trkpt lat="38.704302" lon="-2.673469">
        <ele>1059.277047</ele>
        <time>2020-08-06T09:30:36.528Z</time>
      </trkpt>
      <trkpt lat="38.704233" lon="-2.673577">
        <ele>1059.169534</ele>
        <time>2020-08-06T09:30:38.524Z</time>
      </trkpt>
      <trkpt lat="38.704161" lon="-2.673689">
        <ele>1059.057761</ele>
        <time>2020-08-06T09:30:40.524Z</time>
      </trkpt>
      <trkpt lat="38.704102" lon="-2.673804">
        <ele>1058.951751</ele>
        <time>2020-08-06T09:30:42.507Z</time>
      </trkpt>
      <trkpt lat="38.704024" lon="-2.673909">
        <ele>1058.840087</ele>
        <time>2020-08-06T09:30:44.525Z</time>
      </trkpt>
      <trkpt lat="38.703964" lon="-2.674019">
        <ele>1058.738329</ele>
        <time>2020-08-06T09:30:46.530Z</time>
      </trkpt>
      <trkpt lat="38.703899" lon="-2.674131">
        <ele>1058.632522</ele>
        <time>2020-08-06T09:30:48.528Z</time>
      </trkpt>
      <trkpt lat="38.703834" lon="-2.674253">
        <ele>1058.520542</ele>
        <time>2020-08-06T09:30:50.526Z</time>
      </trkpt>
      <trkpt lat="38.703777" lon="-2.674343">
        <ele>1058.432676</ele>
        <time>2020-08-06T09:30:52.513Z</time>
      </trkpt>
      <trkpt lat="38.703678" lon="-2.674471">
        <ele>1058.296063</ele>
        <time>2020-08-06T09:30:55.517Z</time>
      </trkpt>
      <trkpt lat="38.703612" lon="-2.674574">
        <ele>1058.195035</ele>
        <time>2020-08-06T09:30:57.518Z</time>
      </trkpt>
      <trkpt lat="38.703541" lon="-2.674681">
        <ele>1058.088565</ele>
        <time>2020-08-06T09:30:59.522Z</time>
      </trkpt>
      <trkpt lat="38.703473" lon="-2.674782">
        <ele>1057.987445</ele>
        <time>2020-08-06T09:31:01.529Z</time>
      </trkpt>
      <trkpt lat="38.703388" lon="-2.674915">
        <ele>1057.857128</ele>
        <time>2020-08-06T09:31:04.521Z</time>
      </trkpt>
      <trkpt lat="38.703310" lon="-2.675045">
        <ele>1057.732821</ele>
        <time>2020-08-06T09:31:07.524Z</time>
      </trkpt>
      <trkpt lat="38.703260" lon="-2.675147">
        <ele>1057.641510</ele>
        <time>2020-08-06T09:31:09.530Z</time>
      </trkpt>
      <trkpt lat="38.703196" lon="-2.675240">
        <ele>1057.547514</ele>
        <time>2020-08-06T09:31:11.521Z</time>
      </trkpt>
      <trkpt lat="38.703138" lon="-2.675357">
        <ele>1057.442439</ele>
        <time>2020-08-06T09:31:13.535Z</time>
      </trkpt>
      <trkpt lat="38.703069" lon="-2.675453">
        <ele>1057.343503</ele>
        <time>2020-08-06T09:31:15.523Z</time>
      </trkpt>
      <trkpt lat="38.702994" lon="-2.675557">
        <ele>1057.236156</ele>
        <time>2020-08-06T09:31:17.527Z</time>
      </trkpt>
      <trkpt lat="38.702958" lon="-2.675666">
        <ele>1057.146432</ele>
        <time>2020-08-06T09:31:19.532Z</time>
      </trkpt>
      <trkpt lat="38.702898" lon="-2.675773">
        <ele>1057.105823</ele>
        <time>2020-08-06T09:31:21.540Z</time>
      </trkpt>
      <trkpt lat="38.702837" lon="-2.675867">
        <ele>1057.135362</ele>
        <time>2020-08-06T09:31:23.520Z</time>
      </trkpt>
      <trkpt lat="38.702782" lon="-2.675984">
        <ele>1057.168364</ele>
        <time>2020-08-06T09:31:25.514Z</time>
      </trkpt>
      <trkpt lat="38.702710" lon="-2.676105">
        <ele>1057.205128</ele>
        <time>2020-08-06T09:31:27.523Z</time>
      </trkpt>
      <trkpt lat="38.702649" lon="-2.676228">
        <ele>1057.240341</ele>
        <time>2020-08-06T09:31:29.511Z</time>
      </trkpt>
      <trkpt lat="38.702602" lon="-2.676341">
        <ele>1057.271279</ele>
        <time>2020-08-06T09:31:31.515Z</time>
      </trkpt>
      <trkpt lat="38.702545" lon="-2.676456">
        <ele>1057.304196</ele>
        <time>2020-08-06T09:31:33.518Z</time>
      </trkpt>
      <trkpt lat="38.702465" lon="-2.676559">
        <ele>1057.339308</ele>
        <time>2020-08-06T09:31:35.523Z</time>
      </trkpt>
      <trkpt lat="38.702410" lon="-2.676684">
        <ele>1057.373980</ele>
        <time>2020-08-06T09:31:37.522Z</time>
      </trkpt>
      <trkpt lat="38.702342" lon="-2.676781">
        <ele>1057.405484</ele>
        <time>2020-08-06T09:31:39.528Z</time>
      </trkpt>
      <trkpt lat="38.702262" lon="-2.676899">
        <ele>1057.443252</ele>
        <time>2020-08-06T09:31:41.526Z</time>
      </trkpt>
      <trkpt lat="38.702197" lon="-2.676993">
        <ele>1057.473597</ele>
        <time>2020-08-06T09:31:43.529Z</time>
      </trkpt>
      <trkpt lat="38.702125" lon="-2.677107">
        <ele>1057.509032</ele>
        <time>2020-08-06T09:31:45.522Z</time>
      </trkpt>
      <trkpt lat="38.702055" lon="-2.677203">
        <ele>1057.540777</ele>
        <time>2020-08-06T09:31:47.526Z</time>
      </trkpt>
      <trkpt lat="38.701976" lon="-2.677331">
        <ele>1057.580207</ele>
        <time>2020-08-06T09:31:49.515Z</time>
      </trkpt>
      <trkpt lat="38.701929" lon="-2.677444">
        <ele>1057.611146</ele>
        <time>2020-08-06T09:31:51.522Z</time>
      </trkpt>
      <trkpt lat="38.701867" lon="-2.677564">
        <ele>1057.645919</ele>
        <time>2020-08-06T09:31:53.525Z</time>
      </trkpt>
      <trkpt lat="38.701800" lon="-2.677671">
        <ele>1057.762467</ele>
        <time>2020-08-06T09:31:55.530Z</time>
      </trkpt>
      <trkpt lat="38.701707" lon="-2.677826">
        <ele>1057.938068</ele>
        <time>2020-08-06T09:31:58.515Z</time>
      </trkpt>
      <trkpt lat="38.701659" lon="-2.677939">
        <ele>1058.053620</ele>
        <time>2020-08-06T09:32:00.529Z</time>
      </trkpt>
      <trkpt lat="38.701608" lon="-2.678048">
        <ele>1058.167765</ele>
        <time>2020-08-06T09:32:02.527Z</time>
      </trkpt>
      <trkpt lat="38.701554" lon="-2.678168">
        <ele>1058.292178</ele>
        <time>2020-08-06T09:32:04.526Z</time>
      </trkpt>
      <trkpt lat="38.701505" lon="-2.678270">
        <ele>1058.399755</ele>
        <time>2020-08-06T09:32:06.520Z</time>
      </trkpt>
      <trkpt lat="38.701451" lon="-2.678381">
        <ele>1058.517234</ele>
        <time>2020-08-06T09:32:08.532Z</time>
      </trkpt>
      <trkpt lat="38.701377" lon="-2.678479">
        <ele>1058.639710</ele>
        <time>2020-08-06T09:32:10.521Z</time>
      </trkpt>
      <trkpt lat="38.701332" lon="-2.678578">
        <ele>1058.742610</ele>
        <time>2020-08-06T09:32:12.516Z</time>
      </trkpt>
      <trkpt lat="38.701250" lon="-2.678690">
        <ele>1058.880541</ele>
        <time>2020-08-06T09:32:15.517Z</time>
      </trkpt>
      <trkpt lat="38.701203" lon="-2.678806">
        <ele>1058.997932</ele>
        <time>2020-08-06T09:32:18.515Z</time>
      </trkpt>
      <trkpt lat="38.701133" lon="-2.678884">
        <ele>1059.104693</ele>
        <time>2020-08-06T09:32:20.518Z</time>
      </trkpt>
      <trkpt lat="38.701086" lon="-2.678986">
        <ele>1059.211082</ele>
        <time>2020-08-06T09:32:22.517Z</time>
      </trkpt>
      <trkpt lat="38.701019" lon="-2.679118">
        <ele>1059.352509</ele>
        <time>2020-08-06T09:32:25.524Z</time>
      </trkpt>
      <trkpt lat="38.700959" lon="-2.679222">
        <ele>1059.468670</ele>
        <time>2020-08-06T09:32:28.527Z</time>
      </trkpt>
      <trkpt lat="38.700894" lon="-2.679329">
        <ele>1059.590456</ele>
        <time>2020-08-06T09:32:31.520Z</time>
      </trkpt>
      <trkpt lat="38.700828" lon="-2.679418">
        <ele>1059.700725</ele>
        <time>2020-08-06T09:32:34.534Z</time>
      </trkpt>
      <trkpt lat="38.700777" lon="-2.679529">
        <ele>1059.709028</ele>
        <time>2020-08-06T09:32:37.529Z</time>
      </trkpt>
      <trkpt lat="38.700731" lon="-2.679640">
        <ele>1059.698267</ele>
        <time>2020-08-06T09:32:40.527Z</time>
      </trkpt>
      <trkpt lat="38.700674" lon="-2.679755">
        <ele>1059.686602</ele>
        <time>2020-08-06T09:32:43.526Z</time>
      </trkpt>
      <trkpt lat="38.700613" lon="-2.679889">
        <ele>1059.673319</ele>
        <time>2020-08-06T09:32:46.530Z</time>
      </trkpt>
      <trkpt lat="38.700561" lon="-2.680014">
        <ele>1059.661191</ele>
        <time>2020-08-06T09:32:49.519Z</time>
      </trkpt>
      <trkpt lat="38.700493" lon="-2.680126">
        <ele>1059.649041</ele>
        <time>2020-08-06T09:32:52.527Z</time>
      </trkpt>
      <trkpt lat="38.700433" lon="-2.680236">
        <ele>1059.637550</ele>
        <time>2020-08-06T09:32:55.515Z</time>
      </trkpt>
      <trkpt lat="38.700386" lon="-2.680356">
        <ele>1059.626053</ele>
        <time>2020-08-06T09:32:58.536Z</time>
      </trkpt>
      <trkpt lat="38.700343" lon="-2.680477">
        <ele>1059.614669</ele>
        <time>2020-08-06T09:33:01.527Z</time>
      </trkpt>
      <trkpt lat="38.700292" lon="-2.680591">
        <ele>1059.603418</ele>
        <time>2020-08-06T09:33:04.515Z</time>
      </trkpt>
      <trkpt lat="38.700236" lon="-2.680710">
        <ele>1059.591520</ele>
        <time>2020-08-06T09:33:07.537Z</time>
      </trkpt>
      <trkpt lat="38.700169" lon="-2.680826">
        <ele>1059.579163</ele>
        <time>2020-08-06T09:33:10.517Z</time>
      </trkpt>
      <trkpt lat="38.700109" lon="-2.680944">
        <ele>1059.567104</ele>
        <time>2020-08-06T09:33:13.527Z</time>
      </trkpt>
      <trkpt lat="38.700048" lon="-2.681047">
        <ele>1059.556033</ele>
        <time>2020-08-06T09:33:16.521Z</time>
      </trkpt>
      <trkpt lat="38.699984" lon="-2.681170">
        <ele>1059.543375</ele>
        <time>2020-08-06T09:33:19.530Z</time>
      </trkpt>
      <trkpt lat="38.699913" lon="-2.681298">
        <ele>1059.529929</ele>
        <time>2020-08-06T09:33:22.505Z</time>
      </trkpt>
      <trkpt lat="38.699848" lon="-2.681426">
        <ele>1059.450716</ele>
        <time>2020-08-06T09:33:25.527Z</time>
      </trkpt>
      <trkpt lat="38.699790" lon="-2.681558">
        <ele>1059.232736</ele>
        <time>2020-08-06T09:33:28.529Z</time>
      </trkpt>
      <trkpt lat="38.699735" lon="-2.681688">
        <ele>1059.019950</ele>
        <time>2020-08-06T09:33:31.527Z</time>
      </trkpt>
      <trkpt lat="38.699681" lon="-2.681788">
        <ele>1058.844965</ele>
        <time>2020-08-06T09:33:33.521Z</time>
      </trkpt>
      <trkpt lat="38.699578" lon="-2.681908">
        <ele>1058.588286</ele>
        <time>2020-08-06T09:33:35.525Z</time>
      </trkpt>
      <trkpt lat="38.699524" lon="-2.682005">
        <ele>1058.416832</ele>
        <time>2020-08-06T09:33:37.528Z</time>
      </trkpt>
      <trkpt lat="38.699466" lon="-2.682111">
        <ele>1058.230547</ele>
        <time>2020-08-06T09:33:40.520Z</time>
      </trkpt>
      <trkpt lat="38.699407" lon="-2.682242">
        <ele>1058.012903</ele>
        <time>2020-08-06T09:33:43.524Z</time>
      </trkpt>
      <trkpt lat="38.699348" lon="-2.682360">
        <ele>1057.811245</ele>
        <time>2020-08-06T09:33:45.524Z</time>
      </trkpt>
      <trkpt lat="38.699299" lon="-2.682470">
        <ele>1057.628988</ele>
        <time>2020-08-06T09:33:48.526Z</time>
      </trkpt>
      <trkpt lat="38.699233" lon="-2.682609">
        <ele>1057.394859</ele>
        <time>2020-08-06T09:33:51.527Z</time>
      </trkpt>
      <trkpt lat="38.699163" lon="-2.682743">
        <ele>1057.162826</ele>
        <time>2020-08-06T09:33:54.517Z</time>
      </trkpt>
      <trkpt lat="38.699086" lon="-2.682874">
        <ele>1056.926835</ele>
        <time>2020-08-06T09:33:57.517Z</time>
      </trkpt>
      <trkpt lat="38.698987" lon="-2.682993">
        <ele>1056.676550</ele>
        <time>2020-08-06T09:33:59.525Z</time>
      </trkpt>
      <trkpt lat="38.698914" lon="-2.683091">
        <ele>1056.481605</ele>
        <time>2020-08-06T09:34:01.508Z</time>
      </trkpt>
      <trkpt lat="38.698851" lon="-2.683231">
        <ele>1056.249056</ele>
        <time>2020-08-06T09:34:04.520Z</time>
      </trkpt>
      <trkpt lat="38.698802" lon="-2.683330">
        <ele>1056.240177</ele>
        <time>2020-08-06T09:34:06.524Z</time>
      </trkpt>
      <trkpt lat="38.698745" lon="-2.683425">
        <ele>1056.289421</ele>
        <time>2020-08-06T09:34:08.516Z</time>
      </trkpt>
      <trkpt lat="38.698684" lon="-2.683538">
        <ele>1056.345884</ele>
        <time>2020-08-06T09:34:11.534Z</time>
      </trkpt>
      <trkpt lat="38.698633" lon="-2.683655">
        <ele>1056.400956</ele>
        <time>2020-08-06T09:34:13.529Z</time>
      </trkpt>
      <trkpt lat="38.698559" lon="-2.683788">
        <ele>1056.468080</ele>
        <time>2020-08-06T09:34:16.524Z</time>
      </trkpt>
      <trkpt lat="38.698507" lon="-2.683890">
        <ele>1056.518147</ele>
        <time>2020-08-06T09:34:18.529Z</time>
      </trkpt>
      <trkpt lat="38.698409" lon="-2.684028">
        <ele>1056.594822</ele>
        <time>2020-08-06T09:34:20.518Z</time>
      </trkpt>
      <trkpt lat="38.698333" lon="-2.684147">
        <ele>1056.658012</ele>
        <time>2020-08-06T09:34:22.504Z</time>
      </trkpt>
      <trkpt lat="38.698248" lon="-2.684282">
        <ele>1056.729294</ele>
        <time>2020-08-06T09:34:25.523Z</time>
      </trkpt>
      <trkpt lat="38.698195" lon="-2.684377">
        <ele>1056.777283</ele>
        <time>2020-08-06T09:34:27.519Z</time>
      </trkpt>
      <trkpt lat="38.698137" lon="-2.684490">
        <ele>1056.832864</ele>
        <time>2020-08-06T09:34:29.522Z</time>
      </trkpt>
      <trkpt lat="38.698053" lon="-2.684600">
        <ele>1056.896108</ele>
        <time>2020-08-06T09:34:31.524Z</time>
      </trkpt>
      <trkpt lat="38.697983" lon="-2.684705">
        <ele>1056.952858</ele>
        <time>2020-08-06T09:34:33.521Z</time>
      </trkpt>
      <trkpt lat="38.697925" lon="-2.684819">
        <ele>1057.008782</ele>
        <time>2020-08-06T09:34:35.528Z</time>
      </trkpt>
      <trkpt lat="38.697875" lon="-2.684927">
        <ele>1057.060386</ele>
        <time>2020-08-06T09:34:37.524Z</time>
      </trkpt>
      <trkpt lat="38.697833" lon="-2.685030">
        <ele>1057.108144</ele>
        <time>2020-08-06T09:34:39.539Z</time>
      </trkpt>
      <trkpt lat="38.697774" lon="-2.685137">
        <ele>1057.153671</ele>
        <time>2020-08-06T09:34:41.537Z</time>
      </trkpt>
      <trkpt lat="38.697716" lon="-2.685247">
        <ele>1057.163844</ele>
        <time>2020-08-06T09:34:43.520Z</time>
      </trkpt>
      <trkpt lat="38.697661" lon="-2.685347">
        <ele>1057.173220</ele>
        <time>2020-08-06T09:34:45.524Z</time>
      </trkpt>
      <trkpt lat="38.697588" lon="-2.685494">
        <ele>1057.186573</ele>
        <time>2020-08-06T09:34:48.531Z</time>
      </trkpt>
      <trkpt lat="38.697517" lon="-2.685616">
        <ele>1057.198236</ele>
        <time>2020-08-06T09:34:51.513Z</time>
      </trkpt>
      <trkpt lat="38.697453" lon="-2.685730">
        <ele>1057.208999</ele>
        <time>2020-08-06T09:34:54.524Z</time>
      </trkpt>
      <trkpt lat="38.697374" lon="-2.685849">
        <ele>1057.220972</ele>
        <time>2020-08-06T09:34:57.516Z</time>
      </trkpt>
      <trkpt lat="38.697323" lon="-2.685959">
        <ele>1057.230777</ele>
        <time>2020-08-06T09:35:00.533Z</time>
      </trkpt>
      <trkpt lat="38.697264" lon="-2.686087">
        <ele>1057.242170</ele>
        <time>2020-08-06T09:35:04.526Z</time>
      </trkpt>
      <trkpt lat="38.697203" lon="-2.686176">
        <ele>1057.251248</ele>
        <time>2020-08-06T09:35:07.515Z</time>
      </trkpt>
      <trkpt lat="38.697149" lon="-2.686273">
        <ele>1057.260379</ele>
        <time>2020-08-06T09:35:10.535Z</time>
      </trkpt>
      <trkpt lat="38.697091" lon="-2.686369">
        <ele>1057.269683</ele>
        <time>2020-08-06T09:35:13.528Z</time>
      </trkpt>
      <trkpt lat="38.697020" lon="-2.686485">
        <ele>1057.280981</ele>
        <time>2020-08-06T09:35:16.519Z</time>
      </trkpt>
      <trkpt lat="38.696943" lon="-2.686598">
        <ele>1057.292478</ele>
        <time>2020-08-06T09:35:19.521Z</time>
      </trkpt>
      <trkpt lat="38.696878" lon="-2.686704">
        <ele>1057.302809</ele>
        <time>2020-08-06T09:35:22.514Z</time>
      </trkpt>
      <trkpt lat="38.696807" lon="-2.686818">
        <ele>1057.313986</ele>
        <time>2020-08-06T09:35:25.514Z</time>
      </trkpt>
      <trkpt lat="38.696735" lon="-2.686932">
        <ele>1057.325226</ele>
        <time>2020-08-06T09:35:28.525Z</time>
      </trkpt>
      <trkpt lat="38.696671" lon="-2.687045">
        <ele>1057.315307</ele>
        <time>2020-08-06T09:35:31.529Z</time>
      </trkpt>
      <trkpt lat="38.696624" lon="-2.687159">
        <ele>1057.298168</ele>
        <time>2020-08-06T09:35:34.526Z</time>
      </trkpt>
      <trkpt lat="38.696569" lon="-2.687279">
        <ele>1057.279668</ele>
        <time>2020-08-06T09:35:37.526Z</time>
      </trkpt>
      <trkpt lat="38.696504" lon="-2.687407">
        <ele>1057.259367</ele>
        <time>2020-08-06T09:35:40.520Z</time>
      </trkpt>
      <trkpt lat="38.696440" lon="-2.687528">
        <ele>1057.239936</ele>
        <time>2020-08-06T09:35:43.514Z</time>
      </trkpt>
      <trkpt lat="38.696373" lon="-2.687646">
        <ele>1057.220537</ele>
        <time>2020-08-06T09:35:46.535Z</time>
      </trkpt>
      <trkpt lat="38.696289" lon="-2.687780">
        <ele>1057.197689</ele>
        <time>2020-08-06T09:35:49.526Z</time>
      </trkpt>
      <trkpt lat="38.696233" lon="-2.687874">
        <ele>1057.181969</ele>
        <time>2020-08-06T09:35:51.521Z</time>
      </trkpt>
      <trkpt lat="38.696147" lon="-2.687996">
        <ele>1057.160114</ele>
        <time>2020-08-06T09:35:54.516Z</time>
      </trkpt>
      <trkpt lat="38.696072" lon="-2.688105">
        <ele>1057.140797</ele>
        <time>2020-08-06T09:35:57.522Z</time>
      </trkpt>
      <trkpt lat="38.696020" lon="-2.688211">
        <ele>1057.124153</ele>
        <time>2020-08-06T09:36:00.534Z</time>
      </trkpt>
      <trkpt lat="38.695952" lon="-2.688329">
        <ele>1057.104654</ele>
        <time>2020-08-06T09:36:03.516Z</time>
      </trkpt>
      <trkpt lat="38.695904" lon="-2.688451">
        <ele>1057.086491</ele>
        <time>2020-08-06T09:36:06.517Z</time>
      </trkpt>
      <trkpt lat="38.695856" lon="-2.688556">
        <ele>1057.070314</ele>
        <time>2020-08-06T09:36:09.515Z</time>
      </trkpt>
      <trkpt lat="38.695807" lon="-2.688695">
        <ele>1057.050038</ele>
        <time>2020-08-06T09:36:13.528Z</time>
      </trkpt>
      <trkpt lat="38.695744" lon="-2.688802">
        <ele>1057.032220</ele>
        <time>2020-08-06T09:36:16.536Z</time>
      </trkpt>
      <trkpt lat="38.695684" lon="-2.688902">
        <ele>1057.047741</ele>
        <time>2020-08-06T09:36:19.533Z</time>
      </trkpt>
      <trkpt lat="38.695626" lon="-2.688998">
        <ele>1057.110909</ele>
        <time>2020-08-06T09:36:21.515Z</time>
      </trkpt>
      <trkpt lat="38.695559" lon="-2.689140">
        <ele>1057.197246</ele>
        <time>2020-08-06T09:36:24.527Z</time>
      </trkpt>
      <trkpt lat="38.695509" lon="-2.689237">
        <ele>1057.257731</ele>
        <time>2020-08-06T09:36:26.536Z</time>
      </trkpt>
      <trkpt lat="38.695462" lon="-2.689338">
        <ele>1057.318915</ele>
        <time>2020-08-06T09:36:28.514Z</time>
      </trkpt>
      <trkpt lat="38.695416" lon="-2.689471">
        <ele>1057.394608</ele>
        <time>2020-08-06T09:36:31.521Z</time>
      </trkpt>
      <trkpt lat="38.695355" lon="-2.689601">
        <ele>1057.473532</ele>
        <time>2020-08-06T09:36:34.529Z</time>
      </trkpt>
      <trkpt lat="38.695285" lon="-2.689745">
        <ele>1057.561803</ele>
        <time>2020-08-06T09:36:37.558Z</time>
      </trkpt>
      <trkpt lat="38.695235" lon="-2.689888">
        <ele>1057.643334</ele>
        <time>2020-08-06T09:36:40.519Z</time>
      </trkpt>
      <trkpt lat="38.695198" lon="-2.690040">
        <ele>1057.726180</ele>
        <time>2020-08-06T09:36:43.552Z</time>
      </trkpt>
      <trkpt lat="38.695166" lon="-2.690185">
        <ele>1057.804584</ele>
        <time>2020-08-06T09:36:46.519Z</time>
      </trkpt>
      <trkpt lat="38.695142" lon="-2.690329">
        <ele>1057.881200</ele>
        <time>2020-08-06T09:36:49.552Z</time>
      </trkpt>
      <trkpt lat="38.695134" lon="-2.690455">
        <ele>1057.946977</ele>
        <time>2020-08-06T09:36:52.526Z</time>
      </trkpt>
      <trkpt lat="38.695148" lon="-2.690573">
        <ele>1058.009080</ele>
        <time>2020-08-06T09:36:55.544Z</time>
      </trkpt>
      <trkpt lat="38.695044" lon="-2.690793">
        <ele>1058.142910</ele>
        <time>2020-08-06T09:36:58.528Z</time>
      </trkpt>
      <trkpt lat="38.695074" lon="-2.690904">
        <ele>1058.204031</ele>
        <time>2020-08-06T09:37:03.549Z</time>
      </trkpt>
      <trkpt lat="38.695090" lon="-2.691097">
        <ele>1058.282286</ele>
        <time>2020-08-06T09:37:06.509Z</time>
      </trkpt>
      <trkpt lat="38.695032" lon="-2.691209">
        <ele>1058.333276</ele>
        <time>2020-08-06T09:37:11.531Z</time>
      </trkpt>
      <trkpt lat="38.695000" lon="-2.691328">
        <ele>1058.381024</ele>
        <time>2020-08-06T09:37:16.518Z</time>
      </trkpt>
      <trkpt lat="38.694991" lon="-2.691445">
        <ele>1058.425624</ele>
        <time>2020-08-06T09:37:20.551Z</time>
      </trkpt>
      <trkpt lat="38.695009" lon="-2.691563">
        <ele>1058.471235</ele>
        <time>2020-08-06T09:37:25.532Z</time>
      </trkpt>
      <trkpt lat="38.694996" lon="-2.691399">
        <ele>1058.533770</ele>
        <time>2020-08-06T09:40:35.822Z</time>
      </trkpt>
      <trkpt lat="38.695035" lon="-2.691286">
        <ele>1058.580642</ele>
        <time>2020-08-06T09:40:41.833Z</time>
      </trkpt>
      <trkpt lat="38.695031" lon="-2.691168">
        <ele>1058.625448</ele>
        <time>2020-08-06T09:40:48.832Z</time>
      </trkpt>
      <trkpt lat="38.695039" lon="-2.691047">
        <ele>1058.671515</ele>
        <time>2020-08-06T09:40:56.843Z</time>
      </trkpt>
      <trkpt lat="38.695037" lon="-2.690908">
        <ele>1058.724254</ele>
        <time>2020-08-06T09:52:11.908Z</time>
      </trkpt>
      <trkpt lat="38.695050" lon="-2.690788">
        <ele>1058.770214</ele>
        <time>2020-08-06T09:52:21.822Z</time>
      </trkpt>
      <trkpt lat="38.695049" lon="-2.691107">
        <ele>1058.891230</ele>
        <time>2020-08-06T09:54:49.829Z</time>
      </trkpt>
      <trkpt lat="38.695025" lon="-2.691218">
        <ele>1058.934924</ele>
        <time>2020-08-06T09:54:53.818Z</time>
      </trkpt>
      <trkpt lat="38.695018" lon="-2.691359">
        <ele>1058.988522</ele>
        <time>2020-08-06T09:54:58.829Z</time>
      </trkpt>
      <trkpt lat="38.695067" lon="-2.691468">
        <ele>1059.036240</ele>
        <time>2020-08-06T09:55:02.837Z</time>
      </trkpt>
      <trkpt lat="38.695132" lon="-2.691580">
        <ele>1059.089187</ele>
        <time>2020-08-06T09:55:06.830Z</time>
      </trkpt>
      <trkpt lat="38.695192" lon="-2.691679">
        <ele>1059.072895</ele>
        <time>2020-08-06T09:55:10.812Z</time>
      </trkpt>
      <trkpt lat="38.695238" lon="-2.691781">
        <ele>1059.048647</ele>
        <time>2020-08-06T09:55:14.807Z</time>
      </trkpt>
      <trkpt lat="38.695292" lon="-2.691876">
        <ele>1059.024456</ele>
        <time>2020-08-06T09:55:17.814Z</time>
      </trkpt>
      <trkpt lat="38.695354" lon="-2.691970">
        <ele>1058.999124</ele>
        <time>2020-08-06T09:55:20.816Z</time>
      </trkpt>
      <trkpt lat="38.695415" lon="-2.692069">
        <ele>1058.973161</ele>
        <time>2020-08-06T09:55:23.826Z</time>
      </trkpt>
      <trkpt lat="38.695476" lon="-2.692174">
        <ele>1058.946218</ele>
        <time>2020-08-06T09:55:26.811Z</time>
      </trkpt>
      <trkpt lat="38.695539" lon="-2.692276">
        <ele>1058.919443</ele>
        <time>2020-08-06T09:55:29.814Z</time>
      </trkpt>
      <trkpt lat="38.695600" lon="-2.692381">
        <ele>1058.892500</ele>
        <time>2020-08-06T09:55:32.812Z</time>
      </trkpt>
      <trkpt lat="38.695670" lon="-2.692479">
        <ele>1058.865156</ele>
        <time>2020-08-06T09:55:35.827Z</time>
      </trkpt>
      <trkpt lat="38.695741" lon="-2.692584">
        <ele>1058.836560</ele>
        <time>2020-08-06T09:55:38.814Z</time>
      </trkpt>
      <trkpt lat="38.695813" lon="-2.692687">
        <ele>1058.808098</ele>
        <time>2020-08-06T09:55:41.814Z</time>
      </trkpt>
      <trkpt lat="38.695884" lon="-2.692790">
        <ele>1058.779812</ele>
        <time>2020-08-06T09:55:44.814Z</time>
      </trkpt>
      <trkpt lat="38.695953" lon="-2.692893">
        <ele>1058.751872</ele>
        <time>2020-08-06T09:55:47.812Z</time>
      </trkpt>
      <trkpt lat="38.696027" lon="-2.692985">
        <ele>1058.724679</ele>
        <time>2020-08-06T09:55:50.814Z</time>
      </trkpt>
      <trkpt lat="38.696099" lon="-2.693072">
        <ele>1058.698578</ele>
        <time>2020-08-06T09:55:53.814Z</time>
      </trkpt>
      <trkpt lat="38.696162" lon="-2.693158">
        <ele>1058.674300</ele>
        <time>2020-08-06T09:55:56.808Z</time>
      </trkpt>
      <trkpt lat="38.696232" lon="-2.693268">
        <ele>1058.645086</ele>
        <time>2020-08-06T09:56:00.827Z</time>
      </trkpt>
      <trkpt lat="38.696302" lon="-2.693371">
        <ele>1058.628813</ele>
        <time>2020-08-06T09:56:04.821Z</time>
      </trkpt>
      <trkpt lat="38.696376" lon="-2.693477">
        <ele>1058.685773</ele>
        <time>2020-08-06T09:56:08.821Z</time>
      </trkpt>
      <trkpt lat="38.696458" lon="-2.693558">
        <ele>1058.738907</ele>
        <time>2020-08-06T09:56:12.834Z</time>
      </trkpt>
      <trkpt lat="38.696528" lon="-2.693654">
        <ele>1058.791525</ele>
        <time>2020-08-06T09:56:23.819Z</time>
      </trkpt>
      <trkpt lat="38.696596" lon="-2.693755">
        <ele>1058.844948</ele>
        <time>2020-08-06T09:56:28.809Z</time>
      </trkpt>
      <trkpt lat="38.696675" lon="-2.693838">
        <ele>1058.897375</ele>
        <time>2020-08-06T09:56:32.810Z</time>
      </trkpt>
      <trkpt lat="38.696740" lon="-2.693934">
        <ele>1058.948276</ele>
        <time>2020-08-06T09:56:36.813Z</time>
      </trkpt>
      <trkpt lat="38.696821" lon="-2.694031">
        <ele>1059.005171</ele>
        <time>2020-08-06T09:56:40.831Z</time>
      </trkpt>
      <trkpt lat="38.696900" lon="-2.694142">
        <ele>1059.065337</ele>
        <time>2020-08-06T09:56:44.817Z</time>
      </trkpt>
      <trkpt lat="38.696976" lon="-2.694256">
        <ele>1059.125385</ele>
        <time>2020-08-06T09:56:48.823Z</time>
      </trkpt>
      <trkpt lat="38.697055" lon="-2.694359">
        <ele>1059.183223</ele>
        <time>2020-08-06T09:56:52.835Z</time>
      </trkpt>
      <trkpt lat="38.697135" lon="-2.694462">
        <ele>1059.241422</ele>
        <time>2020-08-06T09:56:56.817Z</time>
      </trkpt>
      <trkpt lat="38.697210" lon="-2.694556">
        <ele>1059.295261</ele>
        <time>2020-08-06T09:57:00.832Z</time>
      </trkpt>
      <trkpt lat="38.697277" lon="-2.694656">
        <ele>1059.348046</ele>
        <time>2020-08-06T09:57:04.821Z</time>
      </trkpt>
      <trkpt lat="38.697349" lon="-2.694744">
        <ele>1059.399108</ele>
        <time>2020-08-06T09:57:08.813Z</time>
      </trkpt>
      <trkpt lat="38.697418" lon="-2.694844">
        <ele>1059.452567</ele>
        <time>2020-08-06T09:57:12.820Z</time>
      </trkpt>
      <trkpt lat="38.697492" lon="-2.694947">
        <ele>1059.508636</ele>
        <time>2020-08-06T09:57:16.812Z</time>
      </trkpt>
      <trkpt lat="38.697568" lon="-2.695056">
        <ele>1059.486813</ele>
        <time>2020-08-06T09:57:20.813Z</time>
      </trkpt>
      <trkpt lat="38.697647" lon="-2.695161">
        <ele>1059.342684</ele>
        <time>2020-08-06T09:57:24.811Z</time>
      </trkpt>
      <trkpt lat="38.697709" lon="-2.695245">
        <ele>1059.228430</ele>
        <time>2020-08-06T09:57:27.811Z</time>
      </trkpt>
      <trkpt lat="38.697776" lon="-2.695337">
        <ele>1059.104079</ele>
        <time>2020-08-06T09:57:30.827Z</time>
      </trkpt>
      <trkpt lat="38.697849" lon="-2.695435">
        <ele>1058.970202</ele>
        <time>2020-08-06T09:57:33.810Z</time>
      </trkpt>
      <trkpt lat="38.697934" lon="-2.695529">
        <ele>1058.828029</ele>
        <time>2020-08-06T09:57:36.824Z</time>
      </trkpt>
      <trkpt lat="38.698026" lon="-2.695624">
        <ele>1058.678416</ele>
        <time>2020-08-06T09:57:39.809Z</time>
      </trkpt>
      <trkpt lat="38.698109" lon="-2.695728">
        <ele>1058.531420</ele>
        <time>2020-08-06T09:57:42.822Z</time>
      </trkpt>
      <trkpt lat="38.698184" lon="-2.695836">
        <ele>1058.388558</ele>
        <time>2020-08-06T09:57:45.822Z</time>
      </trkpt>
      <trkpt lat="38.698261" lon="-2.695941">
        <ele>1058.246176</ele>
        <time>2020-08-06T09:57:48.829Z</time>
      </trkpt>
      <trkpt lat="38.698343" lon="-2.696041">
        <ele>1058.102835</ele>
        <time>2020-08-06T09:57:51.837Z</time>
      </trkpt>
      <trkpt lat="38.698425" lon="-2.696145">
        <ele>1057.956742</ele>
        <time>2020-08-06T09:57:54.836Z</time>
      </trkpt>
      <trkpt lat="38.698503" lon="-2.696257">
        <ele>1057.808402</ele>
        <time>2020-08-06T09:57:57.841Z</time>
      </trkpt>
      <trkpt lat="38.698590" lon="-2.696364">
        <ele>1057.655706</ele>
        <time>2020-08-06T09:58:00.839Z</time>
      </trkpt>
      <trkpt lat="38.698678" lon="-2.696472">
        <ele>1057.501412</ele>
        <time>2020-08-06T09:58:03.836Z</time>
      </trkpt>
      <trkpt lat="38.698767" lon="-2.696586">
        <ele>1057.342065</ele>
        <time>2020-08-06T09:58:06.840Z</time>
      </trkpt>
      <trkpt lat="38.698854" lon="-2.696705">
        <ele>1057.266524</ele>
        <time>2020-08-06T09:58:09.831Z</time>
      </trkpt>
      <trkpt lat="38.698942" lon="-2.696823">
        <ele>1057.266524</ele>
        <time>2020-08-06T09:58:12.841Z</time>
      </trkpt>
      <trkpt lat="38.699025" lon="-2.696949">
        <ele>1057.266524</ele>
        <time>2020-08-06T09:58:15.811Z</time>
      </trkpt>
      <trkpt lat="38.699100" lon="-2.697070">
        <ele>1057.266524</ele>
        <time>2020-08-06T09:58:18.822Z</time>
      </trkpt>
      <trkpt lat="38.699132" lon="-2.697205">
        <ele>1057.266524</ele>
        <time>2020-08-06T09:58:21.810Z</time>
      </trkpt>
      <trkpt lat="38.699152" lon="-2.697354">
        <ele>1057.266524</ele>
        <time>2020-08-06T09:58:24.821Z</time>
      </trkpt>
      <trkpt lat="38.699177" lon="-2.697499">
        <ele>1057.266524</ele>
        <time>2020-08-06T09:58:27.808Z</time>
      </trkpt>
      <trkpt lat="38.699240" lon="-2.697606">
        <ele>1057.266524</ele>
        <time>2020-08-06T09:58:30.812Z</time>
      </trkpt>
      <trkpt lat="38.699311" lon="-2.697684">
        <ele>1057.266524</ele>
        <time>2020-08-06T09:58:33.828Z</time>
      </trkpt>
      <trkpt lat="38.699367" lon="-2.697791">
        <ele>1057.266524</ele>
        <time>2020-08-06T09:58:37.831Z</time>
      </trkpt>
      <trkpt lat="38.699295" lon="-2.697932">
        <ele>1057.266524</ele>
        <time>2020-08-06T10:02:31.829Z</time>
      </trkpt>
      <trkpt lat="38.699208" lon="-2.697972">
        <ele>1057.266524</ele>
        <time>2020-08-06T10:02:51.831Z</time>
      </trkpt>
      <trkpt lat="38.699247" lon="-2.697839">
        <ele>1057.266524</ele>
        <time>2020-08-06T10:13:57.999Z</time>
      </trkpt>
      <trkpt lat="38.699359" lon="-2.697907">
        <ele>1056.221991</ele>
        <time>2020-08-07T05:46:18.458Z</time>
      </trkpt>
      <trkpt lat="38.699495" lon="-2.697762">
        <ele>1056.221991</ele>
        <time>2020-08-07T05:52:04.551Z</time>
      </trkpt>
      <trkpt lat="38.699264" lon="-2.697561">
        <ele>1056.221991</ele>
        <time>2020-08-07T06:36:36.901Z</time>
      </trkpt>
      <trkpt lat="38.699196" lon="-2.697444">
        <ele>1056.221991</ele>
        <time>2020-08-07T06:36:40.898Z</time>
      </trkpt>
      <trkpt lat="38.699174" lon="-2.697327">
        <ele>1056.221991</ele>
        <time>2020-08-07T06:36:43.896Z</time>
      </trkpt>
      <trkpt lat="38.699115" lon="-2.697212">
        <ele>1056.221991</ele>
        <time>2020-08-07T06:36:47.910Z</time>
      </trkpt>
      <trkpt lat="38.699029" lon="-2.697159">
        <ele>1056.221991</ele>
        <time>2020-08-07T06:36:53.900Z</time>
      </trkpt>
      <trkpt lat="38.698853" lon="-2.696859">
        <ele>1056.382883</ele>
        <time>2020-08-07T06:37:44.884Z</time>
      </trkpt>
      <trkpt lat="38.698776" lon="-2.696766">
        <ele>1056.448276</ele>
        <time>2020-08-07T06:37:50.886Z</time>
      </trkpt>
      <trkpt lat="38.698718" lon="-2.696678">
        <ele>1056.503830</ele>
        <time>2020-08-07T06:38:03.895Z</time>
      </trkpt>
      <trkpt lat="38.698651" lon="-2.696592">
        <ele>1056.562437</ele>
        <time>2020-08-07T06:38:11.884Z</time>
      </trkpt>
      <trkpt lat="38.698583" lon="-2.696509">
        <ele>1056.620476</ele>
        <time>2020-08-07T06:38:18.889Z</time>
      </trkpt>
      <trkpt lat="38.698501" lon="-2.696432">
        <ele>1056.683303</ele>
        <time>2020-08-07T06:38:26.888Z</time>
      </trkpt>
      <trkpt lat="38.698435" lon="-2.696345">
        <ele>1056.741821</ele>
        <time>2020-08-07T06:38:34.879Z</time>
      </trkpt>
      <trkpt lat="38.698364" lon="-2.696251">
        <ele>1056.804913</ele>
        <time>2020-08-07T06:38:42.881Z</time>
      </trkpt>
      <trkpt lat="38.698308" lon="-2.696158">
        <ele>1056.861567</ele>
        <time>2020-08-07T06:38:49.892Z</time>
      </trkpt>
      <trkpt lat="38.698246" lon="-2.696062">
        <ele>1056.921666</ele>
        <time>2020-08-07T06:38:57.899Z</time>
      </trkpt>
      <trkpt lat="38.698186" lon="-2.695974">
        <ele>1056.978025</ele>
        <time>2020-08-07T06:39:05.884Z</time>
      </trkpt>
      <trkpt lat="38.698121" lon="-2.695887">
        <ele>1057.036114</ele>
        <time>2020-08-07T06:39:14.879Z</time>
      </trkpt>
      <trkpt lat="38.698057" lon="-2.695797">
        <ele>1057.094838</ele>
        <time>2020-08-07T06:39:21.898Z</time>
      </trkpt>
      <trkpt lat="38.697981" lon="-2.695714">
        <ele>1057.156551</ele>
        <time>2020-08-07T06:39:29.890Z</time>
      </trkpt>
      <trkpt lat="38.697912" lon="-2.695631">
        <ele>1057.215039</ele>
        <time>2020-08-07T06:39:36.888Z</time>
      </trkpt>
      <trkpt lat="38.697838" lon="-2.695548">
        <ele>1057.275817</ele>
        <time>2020-08-07T06:39:43.894Z</time>
      </trkpt>
      <trkpt lat="38.697765" lon="-2.695455">
        <ele>1057.347568</ele>
        <time>2020-08-07T06:39:50.889Z</time>
      </trkpt>
      <trkpt lat="38.697688" lon="-2.695371">
        <ele>1057.496237</ele>
        <time>2020-08-07T06:39:57.898Z</time>
      </trkpt>
      <trkpt lat="38.697632" lon="-2.695271">
        <ele>1057.637453</ele>
        <time>2020-08-07T06:40:04.891Z</time>
      </trkpt>
      <trkpt lat="38.697571" lon="-2.695180">
        <ele>1057.775087</ele>
        <time>2020-08-07T06:40:11.903Z</time>
      </trkpt>
      <trkpt lat="38.697505" lon="-2.695082">
        <ele>1057.923604</ele>
        <time>2020-08-07T06:40:18.883Z</time>
      </trkpt>
      <trkpt lat="38.697437" lon="-2.694997">
        <ele>1058.063263</ele>
        <time>2020-08-07T06:40:25.890Z</time>
      </trkpt>
      <trkpt lat="38.697375" lon="-2.694905">
        <ele>1058.202726</ele>
        <time>2020-08-07T06:40:32.882Z</time>
      </trkpt>
      <trkpt lat="38.697303" lon="-2.694827">
        <ele>1058.341337</ele>
        <time>2020-08-07T06:40:39.900Z</time>
      </trkpt>
      <trkpt lat="38.697219" lon="-2.694753">
        <ele>1058.491198</ele>
        <time>2020-08-07T06:40:46.911Z</time>
      </trkpt>
      <trkpt lat="38.697143" lon="-2.694670">
        <ele>1058.638004</ele>
        <time>2020-08-07T06:40:53.906Z</time>
      </trkpt>
      <trkpt lat="38.697077" lon="-2.694590">
        <ele>1058.771569</ele>
        <time>2020-08-07T06:41:00.911Z</time>
      </trkpt>
      <trkpt lat="38.697022" lon="-2.694498">
        <ele>1058.904535</ele>
        <time>2020-08-07T06:41:06.896Z</time>
      </trkpt>
      <trkpt lat="38.696961" lon="-2.694412">
        <ele>1059.037871</ele>
        <time>2020-08-07T06:41:13.881Z</time>
      </trkpt>
      <trkpt lat="38.696915" lon="-2.694313">
        <ele>1059.170066</ele>
        <time>2020-08-07T06:41:20.882Z</time>
      </trkpt>
      <trkpt lat="38.696852" lon="-2.694211">
        <ele>1059.319312</ele>
        <time>2020-08-07T06:41:27.882Z</time>
      </trkpt>
      <trkpt lat="38.696789" lon="-2.694110">
        <ele>1059.467659</ele>
        <time>2020-08-07T06:41:34.894Z</time>
      </trkpt>
      <trkpt lat="38.696730" lon="-2.694007">
        <ele>1059.614252</ele>
        <time>2020-08-07T06:41:42.909Z</time>
      </trkpt>
      <trkpt lat="38.696661" lon="-2.693911">
        <ele>1059.763992</ele>
        <time>2020-08-07T06:41:50.894Z</time>
      </trkpt>
      <trkpt lat="38.696584" lon="-2.693828">
        <ele>1059.911921</ele>
        <time>2020-08-07T06:41:57.883Z</time>
      </trkpt>
      <trkpt lat="38.696522" lon="-2.693742">
        <ele>1059.963295</ele>
        <time>2020-08-07T06:42:04.896Z</time>
      </trkpt>
      <trkpt lat="38.696441" lon="-2.693665">
        <ele>1059.932042</ele>
        <time>2020-08-07T06:42:11.899Z</time>
      </trkpt>
      <trkpt lat="38.696392" lon="-2.693554">
        <ele>1059.901202</ele>
        <time>2020-08-07T06:42:18.888Z</time>
      </trkpt>
      <trkpt lat="38.696324" lon="-2.693474">
        <ele>1059.872597</ele>
        <time>2020-08-07T06:42:25.893Z</time>
      </trkpt>
      <trkpt lat="38.696248" lon="-2.693411">
        <ele>1059.844549</ele>
        <time>2020-08-07T06:42:32.897Z</time>
      </trkpt>
      <trkpt lat="38.696180" lon="-2.693322">
        <ele>1059.814429</ele>
        <time>2020-08-07T06:42:39.903Z</time>
      </trkpt>
      <trkpt lat="38.696120" lon="-2.693220">
        <ele>1059.783540</ele>
        <time>2020-08-07T06:42:46.904Z</time>
      </trkpt>
      <trkpt lat="38.696064" lon="-2.693130">
        <ele>1059.755704</ele>
        <time>2020-08-07T06:42:52.903Z</time>
      </trkpt>
      <trkpt lat="38.696005" lon="-2.693037">
        <ele>1059.726721</ele>
        <time>2020-08-07T06:42:59.887Z</time>
      </trkpt>
      <trkpt lat="38.695955" lon="-2.692940">
        <ele>1059.698608</ele>
        <time>2020-08-07T06:43:06.907Z</time>
      </trkpt>
      <trkpt lat="38.695894" lon="-2.692852">
        <ele>1059.670145</ele>
        <time>2020-08-07T06:43:13.881Z</time>
      </trkpt>
      <trkpt lat="38.695835" lon="-2.692759">
        <ele>1059.641161</ele>
        <time>2020-08-07T06:43:20.898Z</time>
      </trkpt>
      <trkpt lat="38.695752" lon="-2.692692">
        <ele>1059.610764</ele>
        <time>2020-08-07T06:43:28.890Z</time>
      </trkpt>
      <trkpt lat="38.695684" lon="-2.692618">
        <ele>1059.583119</ele>
        <time>2020-08-07T06:43:34.918Z</time>
      </trkpt>
      <trkpt lat="38.695623" lon="-2.692522">
        <ele>1059.553181</ele>
        <time>2020-08-07T06:43:42.905Z</time>
      </trkpt>
      <trkpt lat="38.695570" lon="-2.692424">
        <ele>1059.524348</ele>
        <time>2020-08-07T06:43:49.892Z</time>
      </trkpt>
      <trkpt lat="38.695520" lon="-2.692321">
        <ele>1059.495013</ele>
        <time>2020-08-07T06:43:56.917Z</time>
      </trkpt>
      <trkpt lat="38.695483" lon="-2.692202">
        <ele>1059.464035</ele>
        <time>2020-08-07T06:44:05.881Z</time>
      </trkpt>
      <trkpt lat="38.695421" lon="-2.692107">
        <ele>1059.434086</ele>
        <time>2020-08-07T06:44:13.894Z</time>
      </trkpt>
      <trkpt lat="38.695373" lon="-2.692002">
        <ele>1059.472510</ele>
        <time>2020-08-07T06:44:20.889Z</time>
      </trkpt>
      <trkpt lat="38.695360" lon="-2.691590">
        <ele>1059.802339</ele>
        <time>2020-08-07T06:45:04.891Z</time>
      </trkpt>
      <trkpt lat="38.695267" lon="-2.691532">
        <ele>1059.908345</ele>
        <time>2020-08-07T06:45:10.896Z</time>
      </trkpt>
      <trkpt lat="38.695177" lon="-2.691495">
        <ele>1060.005216</ele>
        <time>2020-08-07T06:45:18.884Z</time>
      </trkpt>
      <trkpt lat="38.695099" lon="-2.691424">
        <ele>1060.103277</ele>
        <time>2020-08-07T06:45:26.884Z</time>
      </trkpt>
      <trkpt lat="38.694881" lon="-2.691362">
        <ele>1060.332140</ele>
        <time>2020-08-07T06:47:31.439Z</time>
      </trkpt>
      <trkpt lat="38.694970" lon="-2.691322">
        <ele>1060.428804</ele>
        <time>2020-08-07T06:47:41.437Z</time>
      </trkpt>
      <trkpt lat="38.695022" lon="-2.691422">
        <ele>1060.524922</ele>
        <time>2020-08-07T06:47:49.438Z</time>
      </trkpt>
      <trkpt lat="38.695029" lon="-2.691544">
        <ele>1060.622774</ele>
        <time>2020-08-07T06:47:56.439Z</time>
      </trkpt>
      <trkpt lat="38.695014" lon="-2.691663">
        <ele>1060.719196</ele>
        <time>2020-08-07T06:48:05.438Z</time>
      </trkpt>
      <trkpt lat="38.695042" lon="-2.691775">
        <ele>1060.813269</ele>
        <time>2020-08-07T06:48:11.433Z</time>
      </trkpt>
      <trkpt lat="38.695035" lon="-2.691917">
        <ele>1060.927082</ele>
        <time>2020-08-07T06:48:16.446Z</time>
      </trkpt>
      <trkpt lat="38.694994" lon="-2.692031">
        <ele>1061.027487</ele>
        <time>2020-08-07T06:48:21.440Z</time>
      </trkpt>
      <trkpt lat="38.694958" lon="-2.692142">
        <ele>1061.123638</ele>
        <time>2020-08-07T06:48:27.442Z</time>
      </trkpt>
      <trkpt lat="38.694941" lon="-2.692262">
        <ele>1061.221195</ele>
        <time>2020-08-07T06:48:35.418Z</time>
      </trkpt>
      <trkpt lat="38.694940" lon="-2.692392">
        <ele>1061.190244</ele>
        <time>2020-08-07T06:48:42.434Z</time>
      </trkpt>
      <trkpt lat="38.694998" lon="-2.692496">
        <ele>1061.067697</ele>
        <time>2020-08-07T06:48:46.435Z</time>
      </trkpt>
      <trkpt lat="38.695010" lon="-2.692612">
        <ele>1060.955511</ele>
        <time>2020-08-07T06:48:53.427Z</time>
      </trkpt>
      <trkpt lat="38.694966" lon="-2.692735">
        <ele>1060.825791</ele>
        <time>2020-08-07T06:49:00.418Z</time>
      </trkpt>
      <trkpt lat="38.694922" lon="-2.692854">
        <ele>1060.699547</ele>
        <time>2020-08-07T06:49:07.415Z</time>
      </trkpt>
      <trkpt lat="38.694897" lon="-2.692966">
        <ele>1060.587864</ele>
        <time>2020-08-07T06:49:14.427Z</time>
      </trkpt>
      <trkpt lat="38.694863" lon="-2.693076">
        <ele>1060.474434</ele>
        <time>2020-08-07T06:49:19.447Z</time>
      </trkpt>
      <trkpt lat="38.694782" lon="-2.693149">
        <ele>1060.352786</ele>
        <time>2020-08-07T06:49:26.434Z</time>
      </trkpt>
      <trkpt lat="38.694736" lon="-2.693255">
        <ele>1060.236508</ele>
        <time>2020-08-07T06:49:33.436Z</time>
      </trkpt>
      <trkpt lat="38.694708" lon="-2.693370">
        <ele>1060.121013</ele>
        <time>2020-08-07T06:49:39.427Z</time>
      </trkpt>
      <trkpt lat="38.694656" lon="-2.693481">
        <ele>1059.996895</ele>
        <time>2020-08-07T06:49:48.418Z</time>
      </trkpt>
      <trkpt lat="38.694592" lon="-2.693579">
        <ele>1059.874387</ele>
        <time>2020-08-07T06:49:57.436Z</time>
      </trkpt>
      <trkpt lat="38.694541" lon="-2.693680">
        <ele>1059.759056</ele>
        <time>2020-08-07T06:50:04.426Z</time>
      </trkpt>
      <trkpt lat="38.694499" lon="-2.693796">
        <ele>1059.636458</ele>
        <time>2020-08-07T06:50:11.426Z</time>
      </trkpt>
      <trkpt lat="38.694458" lon="-2.693907">
        <ele>1059.518722</ele>
        <time>2020-08-07T06:50:17.430Z</time>
      </trkpt>
      <trkpt lat="38.694368" lon="-2.693942">
        <ele>1059.403188</ele>
        <time>2020-08-07T06:50:24.444Z</time>
      </trkpt>
      <trkpt lat="38.694290" lon="-2.694016">
        <ele>1059.283967</ele>
        <time>2020-08-07T06:50:31.436Z</time>
      </trkpt>
      <trkpt lat="38.694209" lon="-2.694081">
        <ele>1059.166563</ele>
        <time>2020-08-07T06:50:39.434Z</time>
      </trkpt>
      <trkpt lat="38.694131" lon="-2.694157">
        <ele>1059.063889</ele>
        <time>2020-08-07T06:50:47.420Z</time>
      </trkpt>
      <trkpt lat="38.694073" lon="-2.694254">
        <ele>1059.199520</ele>
        <time>2020-08-07T06:50:55.421Z</time>
      </trkpt>
      <trkpt lat="38.694015" lon="-2.694344">
        <ele>1059.329069</ele>
        <time>2020-08-07T06:51:06.422Z</time>
      </trkpt>
      <trkpt lat="38.693959" lon="-2.694447">
        <ele>1059.468400</ele>
        <time>2020-08-07T06:51:12.431Z</time>
      </trkpt>
      <trkpt lat="38.693914" lon="-2.694562">
        <ele>1059.611190</ele>
        <time>2020-08-07T06:51:19.427Z</time>
      </trkpt>
      <trkpt lat="38.693847" lon="-2.694657">
        <ele>1059.753309</ele>
        <time>2020-08-07T06:51:25.447Z</time>
      </trkpt>
      <trkpt lat="38.693761" lon="-2.694735">
        <ele>1059.903156</ele>
        <time>2020-08-07T06:51:32.422Z</time>
      </trkpt>
      <trkpt lat="38.693672" lon="-2.694791">
        <ele>1060.044165</ele>
        <time>2020-08-07T06:51:41.440Z</time>
      </trkpt>
      <trkpt lat="38.693605" lon="-2.694883">
        <ele>1060.183832</ele>
        <time>2020-08-07T06:51:48.438Z</time>
      </trkpt>
      <trkpt lat="38.693543" lon="-2.694979">
        <ele>1060.322139</ele>
        <time>2020-08-07T06:51:55.442Z</time>
      </trkpt>
      <trkpt lat="38.693474" lon="-2.695060">
        <ele>1060.455227</ele>
        <time>2020-08-07T06:52:02.430Z</time>
      </trkpt>
      <trkpt lat="38.693405" lon="-2.695137">
        <ele>1060.585356</ele>
        <time>2020-08-07T06:52:10.432Z</time>
      </trkpt>
      <trkpt lat="38.693336" lon="-2.695211">
        <ele>1060.713324</ele>
        <time>2020-08-07T06:52:18.421Z</time>
      </trkpt>
      <trkpt lat="38.693261" lon="-2.695289">
        <ele>1060.850700</ele>
        <time>2020-08-07T06:52:26.432Z</time>
      </trkpt>
      <trkpt lat="38.693172" lon="-2.695395">
        <ele>1061.023510</ele>
        <time>2020-08-07T06:53:20.426Z</time>
      </trkpt>
      <trkpt lat="38.693109" lon="-2.695493">
        <ele>1061.164435</ele>
        <time>2020-08-07T06:53:26.421Z</time>
      </trkpt>
      <trkpt lat="38.693043" lon="-2.695595">
        <ele>1061.311500</ele>
        <time>2020-08-07T06:53:33.413Z</time>
      </trkpt>
      <trkpt lat="38.692999" lon="-2.695704">
        <ele>1061.447712</ele>
        <time>2020-08-07T06:53:40.423Z</time>
      </trkpt>
      <trkpt lat="38.692930" lon="-2.695787">
        <ele>1061.582310</ele>
        <time>2020-08-07T06:53:46.425Z</time>
      </trkpt>
      <trkpt lat="38.692860" lon="-2.695865">
        <ele>1061.671436</ele>
        <time>2020-08-07T06:53:53.415Z</time>
      </trkpt>
      <trkpt lat="38.692805" lon="-2.695971">
        <ele>1061.753393</ele>
        <time>2020-08-07T06:54:01.421Z</time>
      </trkpt>
      <trkpt lat="38.692743" lon="-2.696062">
        <ele>1061.831170</ele>
        <time>2020-08-07T06:54:09.416Z</time>
      </trkpt>
      <trkpt lat="38.692741" lon="-2.696180">
        <ele>1061.907166</ele>
        <time>2020-08-07T06:54:13.423Z</time>
      </trkpt>
      <trkpt lat="38.692720" lon="-2.696291">
        <ele>1061.980707</ele>
        <time>2020-08-07T06:54:19.431Z</time>
      </trkpt>
      <trkpt lat="38.692685" lon="-2.696414">
        <ele>1062.065004</ele>
        <time>2020-08-07T06:54:26.416Z</time>
      </trkpt>
      <trkpt lat="38.692606" lon="-2.696488">
        <ele>1062.145736</ele>
        <time>2020-08-07T06:54:32.443Z</time>
      </trkpt>
      <trkpt lat="38.692529" lon="-2.696551">
        <ele>1062.221105</ele>
        <time>2020-08-07T06:54:37.437Z</time>
      </trkpt>
      <trkpt lat="38.692457" lon="-2.696635">
        <ele>1062.301437</ele>
        <time>2020-08-07T06:54:44.441Z</time>
      </trkpt>
      <trkpt lat="38.692379" lon="-2.696698">
        <ele>1062.377503</ele>
        <time>2020-08-07T06:55:04.428Z</time>
      </trkpt>
      <trkpt lat="38.692331" lon="-2.696803">
        <ele>1062.455854</ele>
        <time>2020-08-07T06:55:12.423Z</time>
      </trkpt>
      <trkpt lat="38.692284" lon="-2.696911">
        <ele>1062.535473</ele>
        <time>2020-08-07T06:55:20.426Z</time>
      </trkpt>
      <trkpt lat="38.692248" lon="-2.697019">
        <ele>1062.611089</ele>
        <time>2020-08-07T06:55:28.445Z</time>
      </trkpt>
      <trkpt lat="38.692203" lon="-2.697138">
        <ele>1062.696231</ele>
        <time>2020-08-07T06:55:38.420Z</time>
      </trkpt>
      <trkpt lat="38.692166" lon="-2.697250">
        <ele>1062.774541</ele>
        <time>2020-08-07T06:55:46.437Z</time>
      </trkpt>
      <trkpt lat="38.692130" lon="-2.697370">
        <ele>1062.857319</ele>
        <time>2020-08-07T06:55:54.426Z</time>
      </trkpt>
      <trkpt lat="38.692080" lon="-2.697479">
        <ele>1062.938726</ele>
        <time>2020-08-07T06:56:03.444Z</time>
      </trkpt>
      <trkpt lat="38.692035" lon="-2.697600">
        <ele>1063.025029</ele>
        <time>2020-08-07T06:56:10.439Z</time>
      </trkpt>
      <trkpt lat="38.692089" lon="-2.697702">
        <ele>1063.085211</ele>
        <time>2020-08-07T06:56:16.434Z</time>
      </trkpt>
      <trkpt lat="38.692159" lon="-2.697790">
        <ele>1062.978868</ele>
        <time>2020-08-07T06:56:21.439Z</time>
      </trkpt>
      <trkpt lat="38.692205" lon="-2.697908">
        <ele>1062.867234</ele>
        <time>2020-08-07T06:56:27.442Z</time>
      </trkpt>
      <trkpt lat="38.692195" lon="-2.698031">
        <ele>1062.762569</ele>
        <time>2020-08-07T06:56:34.427Z</time>
      </trkpt>
      <trkpt lat="38.692150" lon="-2.698133">
        <ele>1062.663404</ele>
        <time>2020-08-07T06:56:41.430Z</time>
      </trkpt>
      <trkpt lat="38.692115" lon="-2.698245">
        <ele>1062.561296</ele>
        <time>2020-08-07T06:56:48.440Z</time>
      </trkpt>
      <trkpt lat="38.692091" lon="-2.698359">
        <ele>1062.461363</ele>
        <time>2020-08-07T06:56:55.440Z</time>
      </trkpt>
      <trkpt lat="38.692050" lon="-2.698468">
        <ele>1062.358956</ele>
        <time>2020-08-07T06:57:03.416Z</time>
      </trkpt>
      <trkpt lat="38.692025" lon="-2.698579">
        <ele>1062.261177</ele>
        <time>2020-08-07T06:57:10.426Z</time>
      </trkpt>
      <trkpt lat="38.691999" lon="-2.698693">
        <ele>1062.160658</ele>
        <time>2020-08-07T06:57:22.428Z</time>
      </trkpt>
      <trkpt lat="38.691954" lon="-2.698801">
        <ele>1062.057042</ele>
        <time>2020-08-07T06:57:29.424Z</time>
      </trkpt>
      <trkpt lat="38.691900" lon="-2.698904">
        <ele>1061.952026</ele>
        <time>2020-08-07T06:57:36.427Z</time>
      </trkpt>
      <trkpt lat="38.691871" lon="-2.699025">
        <ele>1061.844897</ele>
        <time>2020-08-07T06:57:45.424Z</time>
      </trkpt>
      <trkpt lat="38.691813" lon="-2.699132">
        <ele>1061.734640</ele>
        <time>2020-08-07T06:57:52.416Z</time>
      </trkpt>
      <trkpt lat="38.691762" lon="-2.699233">
        <ele>1061.632828</ele>
        <time>2020-08-07T06:57:58.424Z</time>
      </trkpt>
      <trkpt lat="38.691700" lon="-2.699335">
        <ele>1061.523409</ele>
        <time>2020-08-07T06:58:06.430Z</time>
      </trkpt>
      <trkpt lat="38.691632" lon="-2.699421">
        <ele>1061.419799</ele>
        <time>2020-08-07T06:58:12.424Z</time>
      </trkpt>
      <trkpt lat="38.691568" lon="-2.699518">
        <ele>1061.312299</ele>
        <time>2020-08-07T06:58:21.436Z</time>
      </trkpt>
      <trkpt lat="38.691536" lon="-2.699646">
        <ele>1061.198543</ele>
        <time>2020-08-07T06:58:27.423Z</time>
      </trkpt>
      <trkpt lat="38.691488" lon="-2.699761">
        <ele>1061.094145</ele>
        <time>2020-08-07T06:58:34.418Z</time>
      </trkpt>
      <trkpt lat="38.691452" lon="-2.699868">
        <ele>1061.005767</ele>
        <time>2020-08-07T06:58:40.431Z</time>
      </trkpt>
      <trkpt lat="38.691403" lon="-2.699981">
        <ele>1060.907718</ele>
        <time>2020-08-07T06:58:47.441Z</time>
      </trkpt>
      <trkpt lat="38.691370" lon="-2.700100">
        <ele>1060.811930</ele>
        <time>2020-08-07T06:58:54.422Z</time>
      </trkpt>
      <trkpt lat="38.691313" lon="-2.700209">
        <ele>1060.712414</ele>
        <time>2020-08-07T06:59:02.439Z</time>
      </trkpt>
      <trkpt lat="38.691293" lon="-2.700332">
        <ele>1060.617116</ele>
        <time>2020-08-07T06:59:09.428Z</time>
      </trkpt>
      <trkpt lat="38.691248" lon="-2.700439">
        <ele>1060.524926</ele>
        <time>2020-08-07T06:59:17.436Z</time>
      </trkpt>
      <trkpt lat="38.691323" lon="-2.700518">
        <ele>1060.430573</ele>
        <time>2020-08-07T06:59:33.433Z</time>
      </trkpt>
      <trkpt lat="38.691339" lon="-2.700632">
        <ele>1060.342718</ele>
        <time>2020-08-07T06:59:43.435Z</time>
      </trkpt>
      <trkpt lat="38.691416" lon="-2.700896">
        <ele>1060.128952</ele>
        <time>2020-08-07T07:04:32.787Z</time>
      </trkpt>
      <trkpt lat="38.691462" lon="-2.701222">
        <ele>1059.877675</ele>
        <time>2020-08-07T07:30:59.812Z</time>
      </trkpt>
      <trkpt lat="38.691444" lon="-2.701352">
        <ele>1059.777531</ele>
        <time>2020-08-07T07:31:02.758Z</time>
      </trkpt>
      <trkpt lat="38.691417" lon="-2.701500">
        <ele>1059.662249</ele>
        <time>2020-08-07T07:31:05.777Z</time>
      </trkpt>
      <trkpt lat="38.691397" lon="-2.701648">
        <ele>1059.548322</ele>
        <time>2020-08-07T07:31:08.756Z</time>
      </trkpt>
      <trkpt lat="38.691385" lon="-2.701801">
        <ele>1059.431688</ele>
        <time>2020-08-07T07:31:11.765Z</time>
      </trkpt>
      <trkpt lat="38.691366" lon="-2.701961">
        <ele>1059.352377</ele>
        <time>2020-08-07T07:31:14.770Z</time>
      </trkpt>
      <trkpt lat="38.691328" lon="-2.702128">
        <ele>1059.284897</ele>
        <time>2020-08-07T07:31:17.757Z</time>
      </trkpt>
      <trkpt lat="38.691297" lon="-2.702288">
        <ele>1059.220945</ele>
        <time>2020-08-07T07:31:20.766Z</time>
      </trkpt>
      <trkpt lat="38.691270" lon="-2.702419">
        <ele>1059.168385</ele>
        <time>2020-08-07T07:31:23.765Z</time>
      </trkpt>
      <trkpt lat="38.691235" lon="-2.702562">
        <ele>1059.110248</ele>
        <time>2020-08-07T07:31:26.773Z</time>
      </trkpt>
      <trkpt lat="38.691127" lon="-2.702916">
        <ele>1058.962805</ele>
        <time>2020-08-07T07:32:05.045Z</time>
      </trkpt>
      <trkpt lat="38.691088" lon="-2.703068">
        <ele>1058.900736</ele>
        <time>2020-08-07T07:32:08.031Z</time>
      </trkpt>
      <trkpt lat="38.691042" lon="-2.703224">
        <ele>1058.836045</ele>
        <time>2020-08-07T07:32:11.023Z</time>
      </trkpt>
      <trkpt lat="38.690998" lon="-2.703386">
        <ele>1058.769505</ele>
        <time>2020-08-07T07:32:14.026Z</time>
      </trkpt>
      <trkpt lat="38.690979" lon="-2.703500">
        <ele>1058.724285</ele>
        <time>2020-08-07T07:32:16.029Z</time>
      </trkpt>
      <trkpt lat="38.690958" lon="-2.703614">
        <ele>1058.678846</ele>
        <time>2020-08-07T07:32:18.038Z</time>
      </trkpt>
      <trkpt lat="38.690937" lon="-2.703726">
        <ele>1058.634162</ele>
        <time>2020-08-07T07:32:20.036Z</time>
      </trkpt>
      <trkpt lat="38.690909" lon="-2.703888">
        <ele>1058.569796</ele>
        <time>2020-08-07T07:32:23.022Z</time>
      </trkpt>
      <trkpt lat="38.690889" lon="-2.704000">
        <ele>1058.525225</ele>
        <time>2020-08-07T07:32:25.057Z</time>
      </trkpt>
      <trkpt lat="38.690869" lon="-2.704113">
        <ele>1058.507271</ele>
        <time>2020-08-07T07:32:27.031Z</time>
      </trkpt>
      <trkpt lat="38.690825" lon="-2.704269">
        <ele>1058.516384</ele>
        <time>2020-08-07T07:32:30.023Z</time>
      </trkpt>
      <trkpt lat="38.690777" lon="-2.704406">
        <ele>1058.524635</ele>
        <time>2020-08-07T07:32:33.035Z</time>
      </trkpt>
      <trkpt lat="38.690743" lon="-2.704518">
        <ele>1058.531237</ele>
        <time>2020-08-07T07:32:35.046Z</time>
      </trkpt>
      <trkpt lat="38.690708" lon="-2.704625">
        <ele>1058.537611</ele>
        <time>2020-08-07T07:32:37.039Z</time>
      </trkpt>
      <trkpt lat="38.690670" lon="-2.704749">
        <ele>1058.544930</ele>
        <time>2020-08-07T07:32:39.035Z</time>
      </trkpt>
      <trkpt lat="38.690651" lon="-2.704877">
        <ele>1058.552089</ele>
        <time>2020-08-07T07:32:41.037Z</time>
      </trkpt>
      <trkpt lat="38.690616" lon="-2.705042">
        <ele>1058.561483</ele>
        <time>2020-08-07T07:32:44.038Z</time>
      </trkpt>
      <trkpt lat="38.690603" lon="-2.705167">
        <ele>1058.568412</ele>
        <time>2020-08-07T07:32:47.034Z</time>
      </trkpt>
      <trkpt lat="38.690614" lon="-2.705296">
        <ele>1058.575541</ele>
        <time>2020-08-07T07:32:50.035Z</time>
      </trkpt>
      <trkpt lat="38.690613" lon="-2.705447">
        <ele>1058.583838</ele>
        <time>2020-08-07T07:32:53.036Z</time>
      </trkpt>
      <trkpt lat="38.690601" lon="-2.705609">
        <ele>1058.592778</ele>
        <time>2020-08-07T07:32:56.035Z</time>
      </trkpt>
      <trkpt lat="38.690596" lon="-2.705779">
        <ele>1058.602125</ele>
        <time>2020-08-07T07:32:59.036Z</time>
      </trkpt>
      <trkpt lat="38.690590" lon="-2.705948">
        <ele>1058.611420</ele>
        <time>2020-08-07T07:33:02.046Z</time>
      </trkpt>
      <trkpt lat="38.690591" lon="-2.706067">
        <ele>1058.617958</ele>
        <time>2020-08-07T07:33:04.031Z</time>
      </trkpt>
      <trkpt lat="38.690567" lon="-2.706194">
        <ele>1058.625137</ele>
        <time>2020-08-07T07:33:06.027Z</time>
      </trkpt>
      <trkpt lat="38.690550" lon="-2.706314">
        <ele>1058.629317</ele>
        <time>2020-08-07T07:33:08.035Z</time>
      </trkpt>
      <trkpt lat="38.690528" lon="-2.706431">
        <ele>1058.623199</ele>
        <time>2020-08-07T07:33:10.024Z</time>
      </trkpt>
      <trkpt lat="38.690521" lon="-2.706554">
        <ele>1058.616929</ele>
        <time>2020-08-07T07:33:12.049Z</time>
      </trkpt>
      <trkpt lat="38.690517" lon="-2.706695">
        <ele>1058.609756</ele>
        <time>2020-08-07T07:33:14.039Z</time>
      </trkpt>
      <trkpt lat="38.690496" lon="-2.706829">
        <ele>1058.602808</ele>
        <time>2020-08-07T07:33:16.053Z</time>
      </trkpt>
      <trkpt lat="38.690480" lon="-2.706959">
        <ele>1058.596117</ele>
        <time>2020-08-07T07:33:18.045Z</time>
      </trkpt>
      <trkpt lat="38.690462" lon="-2.707079">
        <ele>1058.589905</ele>
        <time>2020-08-07T07:33:20.031Z</time>
      </trkpt>
      <trkpt lat="38.690442" lon="-2.707209">
        <ele>1058.583168</ele>
        <time>2020-08-07T07:33:22.039Z</time>
      </trkpt>
      <trkpt lat="38.690429" lon="-2.707330">
        <ele>1058.576959</ele>
        <time>2020-08-07T07:33:24.027Z</time>
      </trkpt>
      <trkpt lat="38.690422" lon="-2.707487">
        <ele>1058.568964</ele>
        <time>2020-08-07T07:33:27.035Z</time>
      </trkpt>
      <trkpt lat="38.690388" lon="-2.707652">
        <ele>1058.560289</ele>
        <time>2020-08-07T07:33:30.029Z</time>
      </trkpt>
      <trkpt lat="38.690386" lon="-2.707769">
        <ele>1058.554339</ele>
        <time>2020-08-07T07:33:32.036Z</time>
      </trkpt>
      <trkpt lat="38.690376" lon="-2.707893">
        <ele>1058.548001</ele>
        <time>2020-08-07T07:33:34.034Z</time>
      </trkpt>
      <trkpt lat="38.690349" lon="-2.708036">
        <ele>1058.540522</ele>
        <time>2020-08-07T07:33:36.037Z</time>
      </trkpt>
      <trkpt lat="38.690322" lon="-2.708159">
        <ele>1058.534026</ele>
        <time>2020-08-07T07:33:38.078Z</time>
      </trkpt>
      <trkpt lat="38.690293" lon="-2.708308">
        <ele>1058.526219</ele>
        <time>2020-08-07T07:33:40.038Z</time>
      </trkpt>
      <trkpt lat="38.690267" lon="-2.708451">
        <ele>1058.518755</ele>
        <time>2020-08-07T07:33:42.028Z</time>
      </trkpt>
      <trkpt lat="38.690255" lon="-2.708604">
        <ele>1058.495905</ele>
        <time>2020-08-07T07:33:44.027Z</time>
      </trkpt>
      <trkpt lat="38.690234" lon="-2.708752">
        <ele>1058.441151</ele>
        <time>2020-08-07T07:33:46.028Z</time>
      </trkpt>
      <trkpt lat="38.690202" lon="-2.708904">
        <ele>1058.383847</ele>
        <time>2020-08-07T07:33:48.025Z</time>
      </trkpt>
      <trkpt lat="38.690175" lon="-2.709059">
        <ele>1058.326040</ele>
        <time>2020-08-07T07:33:50.026Z</time>
      </trkpt>
      <trkpt lat="38.690135" lon="-2.709210">
        <ele>1058.267997</ele>
        <time>2020-08-07T07:33:52.028Z</time>
      </trkpt>
      <trkpt lat="38.690104" lon="-2.709355">
        <ele>1058.213274</ele>
        <time>2020-08-07T07:33:54.027Z</time>
      </trkpt>
      <trkpt lat="38.690063" lon="-2.709487">
        <ele>1058.161562</ele>
        <time>2020-08-07T07:33:56.022Z</time>
      </trkpt>
      <trkpt lat="38.689995" lon="-2.709631">
        <ele>1058.100301</ele>
        <time>2020-08-07T07:33:58.039Z</time>
      </trkpt>
      <trkpt lat="38.689963" lon="-2.709754">
        <ele>1058.053108</ele>
        <time>2020-08-07T07:34:00.036Z</time>
      </trkpt>
      <trkpt lat="38.689944" lon="-2.709876">
        <ele>1058.007825</ele>
        <time>2020-08-07T07:34:02.022Z</time>
      </trkpt>
      <trkpt lat="38.689928" lon="-2.710046">
        <ele>1057.945498</ele>
        <time>2020-08-07T07:34:05.032Z</time>
      </trkpt>
      <trkpt lat="38.689885" lon="-2.710162">
        <ele>1057.898755</ele>
        <time>2020-08-07T07:34:07.039Z</time>
      </trkpt>
      <trkpt lat="38.689818" lon="-2.710282">
        <ele>1057.845051</ele>
        <time>2020-08-07T07:34:10.025Z</time>
      </trkpt>
      <trkpt lat="38.689771" lon="-2.710397">
        <ele>1057.797800</ele>
        <time>2020-08-07T07:34:12.042Z</time>
      </trkpt>
      <trkpt lat="38.689738" lon="-2.710511">
        <ele>1057.753543</ele>
        <time>2020-08-07T07:34:14.029Z</time>
      </trkpt>
      <trkpt lat="38.689686" lon="-2.710623">
        <ele>1057.706108</ele>
        <time>2020-08-07T07:34:16.037Z</time>
      </trkpt>
      <trkpt lat="38.689650" lon="-2.710738">
        <ele>1057.676455</ele>
        <time>2020-08-07T07:34:18.028Z</time>
      </trkpt>
      <trkpt lat="38.689589" lon="-2.710829">
        <ele>1057.682405</ele>
        <time>2020-08-07T07:34:20.029Z</time>
      </trkpt>
      <trkpt lat="38.689509" lon="-2.710939">
        <ele>1057.689863</ele>
        <time>2020-08-07T07:34:23.041Z</time>
      </trkpt>
      <trkpt lat="38.689423" lon="-2.710989">
        <ele>1057.695864</ele>
        <time>2020-08-07T07:34:25.024Z</time>
      </trkpt>
      <trkpt lat="38.689364" lon="-2.711124">
        <ele>1057.703539</ele>
        <time>2020-08-07T07:34:28.055Z</time>
      </trkpt>
      <trkpt lat="38.689334" lon="-2.711233">
        <ele>1057.709272</ele>
        <time>2020-08-07T07:34:30.027Z</time>
      </trkpt>
      <trkpt lat="38.689311" lon="-2.711372">
        <ele>1057.716320</ele>
        <time>2020-08-07T07:34:32.040Z</time>
      </trkpt>
      <trkpt lat="38.689283" lon="-2.711537">
        <ele>1057.724696</ele>
        <time>2020-08-07T07:34:35.032Z</time>
      </trkpt>
      <trkpt lat="38.689247" lon="-2.711654">
        <ele>1057.730935</ele>
        <time>2020-08-07T07:34:37.030Z</time>
      </trkpt>
      <trkpt lat="38.689236" lon="-2.711777">
        <ele>1057.737076</ele>
        <time>2020-08-07T07:34:39.029Z</time>
      </trkpt>
      <trkpt lat="38.689208" lon="-2.711889">
        <ele>1057.742909</ele>
        <time>2020-08-07T07:34:41.029Z</time>
      </trkpt>
      <trkpt lat="38.689175" lon="-2.712008">
        <ele>1057.749174</ele>
        <time>2020-08-07T07:34:43.037Z</time>
      </trkpt>
      <trkpt lat="38.689130" lon="-2.712178">
        <ele>1057.758078</ele>
        <time>2020-08-07T07:34:46.025Z</time>
      </trkpt>
      <trkpt lat="38.689104" lon="-2.712299">
        <ele>1057.764304</ele>
        <time>2020-08-07T07:34:48.028Z</time>
      </trkpt>
      <trkpt lat="38.689087" lon="-2.712424">
        <ele>1057.770598</ele>
        <time>2020-08-07T07:34:50.032Z</time>
      </trkpt>
      <trkpt lat="38.689072" lon="-2.712544">
        <ele>1057.776626</ele>
        <time>2020-08-07T07:34:52.022Z</time>
      </trkpt>
      <trkpt lat="38.689062" lon="-2.712663">
        <ele>1057.782563</ele>
        <time>2020-08-07T07:34:54.040Z</time>
      </trkpt>
      <trkpt lat="38.689033" lon="-2.712838">
        <ele>1057.830484</ele>
        <time>2020-08-07T07:34:57.023Z</time>
      </trkpt>
      <trkpt lat="38.689005" lon="-2.712963">
        <ele>1057.936463</ele>
        <time>2020-08-07T07:34:59.030Z</time>
      </trkpt>
      <trkpt lat="38.688977" lon="-2.713082">
        <ele>1058.037752</ele>
        <time>2020-08-07T07:35:01.032Z</time>
      </trkpt>
      <trkpt lat="38.688945" lon="-2.713201">
        <ele>1058.140323</ele>
        <time>2020-08-07T07:35:03.033Z</time>
      </trkpt>
      <trkpt lat="38.688909" lon="-2.713316">
        <ele>1058.241298</ele>
        <time>2020-08-07T07:35:05.035Z</time>
      </trkpt>
      <trkpt lat="38.688901" lon="-2.713433">
        <ele>1058.337011</ele>
        <time>2020-08-07T07:35:07.052Z</time>
      </trkpt>
      <trkpt lat="38.688868" lon="-2.713552">
        <ele>1058.439928</ele>
        <time>2020-08-07T07:35:09.054Z</time>
      </trkpt>
      <trkpt lat="38.688832" lon="-2.713699">
        <ele>1058.565482</ele>
        <time>2020-08-07T07:35:12.032Z</time>
      </trkpt>
      <trkpt lat="38.688796" lon="-2.713814">
        <ele>1058.666457</ele>
        <time>2020-08-07T07:35:14.042Z</time>
      </trkpt>
      <trkpt lat="38.688764" lon="-2.713935">
        <ele>1058.770571</ele>
        <time>2020-08-07T07:35:16.040Z</time>
      </trkpt>
      <trkpt lat="38.688756" lon="-2.714101">
        <ele>1058.906109</ele>
        <time>2020-08-07T07:35:19.040Z</time>
      </trkpt>
      <trkpt lat="38.688729" lon="-2.714253">
        <ele>1059.033148</ele>
        <time>2020-08-07T07:35:22.056Z</time>
      </trkpt>
      <trkpt lat="38.688726" lon="-2.714371">
        <ele>1059.129362</ele>
        <time>2020-08-07T07:35:24.038Z</time>
      </trkpt>
      <trkpt lat="38.688714" lon="-2.714487">
        <ele>1059.224722</ele>
        <time>2020-08-07T07:35:26.030Z</time>
      </trkpt>
      <trkpt lat="38.688709" lon="-2.714603">
        <ele>1059.319399</ele>
        <time>2020-08-07T07:35:28.026Z</time>
      </trkpt>
      <trkpt lat="38.688675" lon="-2.714767">
        <ele>1059.457684</ele>
        <time>2020-08-07T07:35:31.038Z</time>
      </trkpt>
      <trkpt lat="38.688665" lon="-2.714881">
        <ele>1059.551173</ele>
        <time>2020-08-07T07:35:33.042Z</time>
      </trkpt>
      <trkpt lat="38.688620" lon="-2.714998">
        <ele>1059.657468</ele>
        <time>2020-08-07T07:35:35.029Z</time>
      </trkpt>
      <trkpt lat="38.688589" lon="-2.715156">
        <ele>1059.553975</ele>
        <time>2020-08-07T07:35:38.041Z</time>
      </trkpt>
      <trkpt lat="38.688566" lon="-2.715306">
        <ele>1059.440114</ele>
        <time>2020-08-07T07:35:41.047Z</time>
      </trkpt>
      <trkpt lat="38.688563" lon="-2.715430">
        <ele>1059.347709</ele>
        <time>2020-08-07T07:35:43.035Z</time>
      </trkpt>
      <trkpt lat="38.688562" lon="-2.715597">
        <ele>1059.223317</ele>
        <time>2020-08-07T07:35:46.048Z</time>
      </trkpt>
      <trkpt lat="38.688590" lon="-2.715736">
        <ele>1059.116391</ele>
        <time>2020-08-07T07:35:48.030Z</time>
      </trkpt>
      <trkpt lat="38.688576" lon="-2.715855">
        <ele>1059.026754</ele>
        <time>2020-08-07T07:35:50.033Z</time>
      </trkpt>
      <trkpt lat="38.688572" lon="-2.715996">
        <ele>1058.921662</ele>
        <time>2020-08-07T07:35:52.034Z</time>
      </trkpt>
      <trkpt lat="38.688552" lon="-2.716147">
        <ele>1058.807583</ele>
        <time>2020-08-07T07:35:54.039Z</time>
      </trkpt>
      <trkpt lat="38.688538" lon="-2.716291">
        <ele>1058.699497</ele>
        <time>2020-08-07T07:35:56.038Z</time>
      </trkpt>
      <trkpt lat="38.688547" lon="-2.716455">
        <ele>1058.577041</ele>
        <time>2020-08-07T07:35:58.038Z</time>
      </trkpt>
      <trkpt lat="38.688517" lon="-2.716606">
        <ele>1058.460984</ele>
        <time>2020-08-07T07:36:00.057Z</time>
      </trkpt>
      <trkpt lat="38.688508" lon="-2.716746">
        <ele>1058.356353</ele>
        <time>2020-08-07T07:36:02.041Z</time>
      </trkpt>
      <trkpt lat="38.688507" lon="-2.716911">
        <ele>1058.233450</ele>
        <time>2020-08-07T07:36:04.039Z</time>
      </trkpt>
      <trkpt lat="38.688498" lon="-2.717072">
        <ele>1058.113223</ele>
        <time>2020-08-07T07:36:06.056Z</time>
      </trkpt>
      <trkpt lat="38.688487" lon="-2.717238">
        <ele>1057.989135</ele>
        <time>2020-08-07T07:36:08.055Z</time>
      </trkpt>
      <trkpt lat="38.688463" lon="-2.717416">
        <ele>1057.836328</ele>
        <time>2020-08-07T07:36:10.043Z</time>
      </trkpt>
      <trkpt lat="38.688429" lon="-2.717567">
        <ele>1057.696972</ele>
        <time>2020-08-07T07:36:12.047Z</time>
      </trkpt>
      <trkpt lat="38.688393" lon="-2.717720">
        <ele>1057.555271</ele>
        <time>2020-08-07T07:36:14.037Z</time>
      </trkpt>
      <trkpt lat="38.688361" lon="-2.717866">
        <ele>1057.420800</ele>
        <time>2020-08-07T07:36:16.032Z</time>
      </trkpt>
      <trkpt lat="38.688336" lon="-2.718018">
        <ele>1057.283057</ele>
        <time>2020-08-07T07:36:18.031Z</time>
      </trkpt>
      <trkpt lat="38.688304" lon="-2.718169">
        <ele>1057.144312</ele>
        <time>2020-08-07T07:36:20.041Z</time>
      </trkpt>
      <trkpt lat="38.688274" lon="-2.718305">
        <ele>1057.018993</ele>
        <time>2020-08-07T07:36:22.049Z</time>
      </trkpt>
      <trkpt lat="38.688267" lon="-2.718440">
        <ele>1056.899019</ele>
        <time>2020-08-07T07:36:24.032Z</time>
      </trkpt>
      <trkpt lat="38.688251" lon="-2.718589">
        <ele>1056.765651</ele>
        <time>2020-08-07T07:36:26.035Z</time>
      </trkpt>
      <trkpt lat="38.688261" lon="-2.718749">
        <ele>1056.623319</ele>
        <time>2020-08-07T07:36:28.038Z</time>
      </trkpt>
      <trkpt lat="38.688250" lon="-2.718921">
        <ele>1056.470289</ele>
        <time>2020-08-07T07:36:30.044Z</time>
      </trkpt>
      <trkpt lat="38.688231" lon="-2.719081">
        <ele>1056.326778</ele>
        <time>2020-08-07T07:36:32.033Z</time>
      </trkpt>
      <trkpt lat="38.688213" lon="-2.719241">
        <ele>1056.183434</ele>
        <time>2020-08-07T07:36:34.045Z</time>
      </trkpt>
      <trkpt lat="38.688237" lon="-2.719389">
        <ele>1056.049394</ele>
        <time>2020-08-07T07:36:36.036Z</time>
      </trkpt>
      <trkpt lat="38.688243" lon="-2.719554">
        <ele>1055.910690</ele>
        <time>2020-08-07T07:36:38.029Z</time>
      </trkpt>
      <trkpt lat="38.688216" lon="-2.719725">
        <ele>1056.041387</ele>
        <time>2020-08-07T07:36:40.033Z</time>
      </trkpt>
      <trkpt lat="38.688217" lon="-2.719886">
        <ele>1056.162001</ele>
        <time>2020-08-07T07:36:42.027Z</time>
      </trkpt>
      <trkpt lat="38.688187" lon="-2.720052">
        <ele>1056.289646</ele>
        <time>2020-08-07T07:36:44.025Z</time>
      </trkpt>
      <trkpt lat="38.688173" lon="-2.720195">
        <ele>1056.397612</ele>
        <time>2020-08-07T07:36:46.038Z</time>
      </trkpt>
      <trkpt lat="38.688152" lon="-2.720351">
        <ele>1056.516202</ele>
        <time>2020-08-07T07:36:48.044Z</time>
      </trkpt>
      <trkpt lat="38.688153" lon="-2.720510">
        <ele>1056.635318</ele>
        <time>2020-08-07T07:36:50.026Z</time>
      </trkpt>
      <trkpt lat="38.688147" lon="-2.720658">
        <ele>1056.746339</ele>
        <time>2020-08-07T07:36:52.024Z</time>
      </trkpt>
      <trkpt lat="38.688138" lon="-2.720812">
        <ele>1056.862028</ele>
        <time>2020-08-07T07:36:54.029Z</time>
      </trkpt>
      <trkpt lat="38.688174" lon="-2.720968">
        <ele>1056.983893</ele>
        <time>2020-08-07T07:36:56.027Z</time>
      </trkpt>
      <trkpt lat="38.688163" lon="-2.721126">
        <ele>1057.102726</ele>
        <time>2020-08-07T07:36:58.036Z</time>
      </trkpt>
      <trkpt lat="38.688111" lon="-2.721277">
        <ele>1057.226365</ele>
        <time>2020-08-07T07:37:00.050Z</time>
      </trkpt>
      <trkpt lat="38.688110" lon="-2.721435">
        <ele>1057.344732</ele>
        <time>2020-08-07T07:37:02.043Z</time>
      </trkpt>
      <trkpt lat="38.688111" lon="-2.721601">
        <ele>1057.469092</ele>
        <time>2020-08-07T07:37:04.049Z</time>
      </trkpt>
      <trkpt lat="38.688093" lon="-2.721752">
        <ele>1057.583523</ele>
        <time>2020-08-07T07:37:06.035Z</time>
      </trkpt>
      <trkpt lat="38.688082" lon="-2.721909">
        <ele>1057.695954</ele>
        <time>2020-08-07T07:37:08.042Z</time>
      </trkpt>
      <trkpt lat="38.688079" lon="-2.722055">
        <ele>1057.796300</ele>
        <time>2020-08-07T07:37:10.045Z</time>
      </trkpt>
      <trkpt lat="38.688090" lon="-2.722203">
        <ele>1057.898446</ele>
        <time>2020-08-07T07:37:12.049Z</time>
      </trkpt>
      <trkpt lat="38.688113" lon="-2.722360">
        <ele>1058.008198</ele>
        <time>2020-08-07T07:37:14.031Z</time>
      </trkpt>
      <trkpt lat="38.688131" lon="-2.722500">
        <ele>1058.105683</ele>
        <time>2020-08-07T07:37:16.059Z</time>
      </trkpt>
      <trkpt lat="38.688139" lon="-2.722644">
        <ele>1058.204870</ele>
        <time>2020-08-07T07:37:18.030Z</time>
      </trkpt>
      <trkpt lat="38.688142" lon="-2.722787">
        <ele>1058.303155</ele>
        <time>2020-08-07T07:37:20.040Z</time>
      </trkpt>
      <trkpt lat="38.688131" lon="-2.722929">
        <ele>1058.401197</ele>
        <time>2020-08-07T07:37:22.042Z</time>
      </trkpt>
      <trkpt lat="38.688106" lon="-2.723049">
        <ele>1058.486531</ele>
        <time>2020-08-07T07:37:24.048Z</time>
      </trkpt>
      <trkpt lat="38.688071" lon="-2.723176">
        <ele>1058.579067</ele>
        <time>2020-08-07T07:37:26.040Z</time>
      </trkpt>
      <trkpt lat="38.688074" lon="-2.723315">
        <ele>1058.674605</ele>
        <time>2020-08-07T07:37:28.042Z</time>
      </trkpt>
      <trkpt lat="38.688086" lon="-2.723446">
        <ele>1058.765228</ele>
        <time>2020-08-07T07:37:30.056Z</time>
      </trkpt>
      <trkpt lat="38.688102" lon="-2.723584">
        <ele>1058.861083</ele>
        <time>2020-08-07T07:37:32.040Z</time>
      </trkpt>
      <trkpt lat="38.688108" lon="-2.723719">
        <ele>1058.953987</ele>
        <time>2020-08-07T07:37:34.037Z</time>
      </trkpt>
      <trkpt lat="38.688115" lon="-2.723843">
        <ele>1059.039405</ele>
        <time>2020-08-07T07:37:36.039Z</time>
      </trkpt>
      <trkpt lat="38.688117" lon="-2.723975">
        <ele>1059.130114</ele>
        <time>2020-08-07T07:37:38.039Z</time>
      </trkpt>
      <trkpt lat="38.688124" lon="-2.724123">
        <ele>1059.227718</ele>
        <time>2020-08-07T07:37:40.037Z</time>
      </trkpt>
      <trkpt lat="38.688132" lon="-2.724252">
        <ele>1059.292031</ele>
        <time>2020-08-07T07:37:42.047Z</time>
      </trkpt>
      <trkpt lat="38.688148" lon="-2.724373">
        <ele>1059.353023</ele>
        <time>2020-08-07T07:37:44.041Z</time>
      </trkpt>
      <trkpt lat="38.688185" lon="-2.724511">
        <ele>1059.425540</ele>
        <time>2020-08-07T07:37:46.032Z</time>
      </trkpt>
      <trkpt lat="38.688180" lon="-2.724650">
        <ele>1059.494695</ele>
        <time>2020-08-07T07:37:48.043Z</time>
      </trkpt>
      <trkpt lat="38.688149" lon="-2.724793">
        <ele>1059.568454</ele>
        <time>2020-08-07T07:37:50.037Z</time>
      </trkpt>
      <trkpt lat="38.688160" lon="-2.724929">
        <ele>1059.636406</ele>
        <time>2020-08-07T07:37:52.037Z</time>
      </trkpt>
      <trkpt lat="38.688165" lon="-2.725083">
        <ele>1059.713008</ele>
        <time>2020-08-07T07:37:54.037Z</time>
      </trkpt>
      <trkpt lat="38.688159" lon="-2.725213">
        <ele>1059.777729</ele>
        <time>2020-08-07T07:37:56.036Z</time>
      </trkpt>
      <trkpt lat="38.688146" lon="-2.725356">
        <ele>1059.849278</ele>
        <time>2020-08-07T07:37:58.027Z</time>
      </trkpt>
      <trkpt lat="38.688137" lon="-2.725493">
        <ele>1059.917606</ele>
        <time>2020-08-07T07:38:00.042Z</time>
      </trkpt>
      <trkpt lat="38.688119" lon="-2.725621">
        <ele>1059.982245</ele>
        <time>2020-08-07T07:38:02.035Z</time>
      </trkpt>
      <trkpt lat="38.688080" lon="-2.725758">
        <ele>1060.054719</ele>
        <time>2020-08-07T07:38:04.040Z</time>
      </trkpt>
      <trkpt lat="38.688116" lon="-2.725897">
        <ele>1060.127503</ele>
        <time>2020-08-07T07:38:06.026Z</time>
      </trkpt>
      <trkpt lat="38.688097" lon="-2.726046">
        <ele>1060.202536</ele>
        <time>2020-08-07T07:38:08.033Z</time>
      </trkpt>
      <trkpt lat="38.688120" lon="-2.726175">
        <ele>1060.268299</ele>
        <time>2020-08-07T07:38:10.059Z</time>
      </trkpt>
      <trkpt lat="38.688090" lon="-2.726299">
        <ele>1060.332817</ele>
        <time>2020-08-07T07:38:12.024Z</time>
      </trkpt>
      <trkpt lat="38.688088" lon="-2.726436">
        <ele>1060.256124</ele>
        <time>2020-08-07T07:38:14.031Z</time>
      </trkpt>
      <trkpt lat="38.688114" lon="-2.726588">
        <ele>1060.047471</ele>
        <time>2020-08-07T07:38:16.021Z</time>
      </trkpt>
      <trkpt lat="38.688125" lon="-2.726716">
        <ele>1059.874798</ele>
        <time>2020-08-07T07:38:18.027Z</time>
      </trkpt>
      <trkpt lat="38.688103" lon="-2.726841">
        <ele>1059.702977</ele>
        <time>2020-08-07T07:38:20.035Z</time>
      </trkpt>
      <trkpt lat="38.688091" lon="-2.726979">
        <ele>1059.516788</ele>
        <time>2020-08-07T07:38:22.026Z</time>
      </trkpt>
      <trkpt lat="38.688087" lon="-2.727113">
        <ele>1059.336976</ele>
        <time>2020-08-07T07:38:24.028Z</time>
      </trkpt>
      <trkpt lat="38.688081" lon="-2.727247">
        <ele>1059.157000</ele>
        <time>2020-08-07T07:38:26.033Z</time>
      </trkpt>
      <trkpt lat="38.688070" lon="-2.727386">
        <ele>1058.969659</ele>
        <time>2020-08-07T07:38:28.035Z</time>
      </trkpt>
      <trkpt lat="38.688059" lon="-2.727530">
        <ele>1058.775646</ele>
        <time>2020-08-07T07:38:30.031Z</time>
      </trkpt>
      <trkpt lat="38.688061" lon="-2.727662">
        <ele>1058.598614</ele>
        <time>2020-08-07T07:38:32.050Z</time>
      </trkpt>
      <trkpt lat="38.688085" lon="-2.727807">
        <ele>1058.399860</ele>
        <time>2020-08-07T07:38:34.039Z</time>
      </trkpt>
      <trkpt lat="38.688076" lon="-2.727924">
        <ele>1058.242214</ele>
        <time>2020-08-07T07:38:36.033Z</time>
      </trkpt>
      <trkpt lat="38.688058" lon="-2.728063">
        <ele>1058.053281</ele>
        <time>2020-08-07T07:38:38.041Z</time>
      </trkpt>
      <trkpt lat="38.688029" lon="-2.728201">
        <ele>1057.861647</ele>
        <time>2020-08-07T07:38:40.032Z</time>
      </trkpt>
      <trkpt lat="38.688023" lon="-2.728334">
        <ele>1057.683010</ele>
        <time>2020-08-07T07:38:42.035Z</time>
      </trkpt>
      <trkpt lat="38.688031" lon="-2.728461">
        <ele>1057.512161</ele>
        <time>2020-08-07T07:38:44.042Z</time>
      </trkpt>
      <trkpt lat="38.688045" lon="-2.728591">
        <ele>1057.336193</ele>
        <time>2020-08-07T07:38:46.035Z</time>
      </trkpt>
      <trkpt lat="38.687997" lon="-2.728722">
        <ele>1057.295284</ele>
        <time>2020-08-07T07:38:48.038Z</time>
      </trkpt>
      <trkpt lat="38.687979" lon="-2.728836">
        <ele>1057.323354</ele>
        <time>2020-08-07T07:38:50.029Z</time>
      </trkpt>
      <trkpt lat="38.687955" lon="-2.728960">
        <ele>1057.354187</ele>
        <time>2020-08-07T07:38:52.037Z</time>
      </trkpt>
      <trkpt lat="38.687929" lon="-2.729090">
        <ele>1057.386576</ele>
        <time>2020-08-07T07:38:54.035Z</time>
      </trkpt>
      <trkpt lat="38.687890" lon="-2.729198">
        <ele>1057.415295</ele>
        <time>2020-08-07T07:38:56.022Z</time>
      </trkpt>
      <trkpt lat="38.687867" lon="-2.729335">
        <ele>1057.449115</ele>
        <time>2020-08-07T07:38:58.029Z</time>
      </trkpt>
      <trkpt lat="38.687896" lon="-2.729453">
        <ele>1057.478972</ele>
        <time>2020-08-07T07:39:00.023Z</time>
      </trkpt>
      <trkpt lat="38.687875" lon="-2.729566">
        <ele>1057.507006</ele>
        <time>2020-08-07T07:39:02.036Z</time>
      </trkpt>
      <trkpt lat="38.687841" lon="-2.729745">
        <ele>1057.551468</ele>
        <time>2020-08-07T07:39:05.043Z</time>
      </trkpt>
      <trkpt lat="38.687816" lon="-2.729905">
        <ele>1057.590849</ele>
        <time>2020-08-07T07:39:08.020Z</time>
      </trkpt>
      <trkpt lat="38.687823" lon="-2.730021">
        <ele>1057.618928</ele>
        <time>2020-08-07T07:39:10.034Z</time>
      </trkpt>
      <trkpt lat="38.687805" lon="-2.730144">
        <ele>1057.649131</ele>
        <time>2020-08-07T07:39:12.030Z</time>
      </trkpt>
      <trkpt lat="38.687784" lon="-2.730282">
        <ele>1057.683063</ele>
        <time>2020-08-07T07:39:14.038Z</time>
      </trkpt>
      <trkpt lat="38.687776" lon="-2.730416">
        <ele>1057.715498</ele>
        <time>2020-08-07T07:39:16.026Z</time>
      </trkpt>
      <trkpt lat="38.687756" lon="-2.730555">
        <ele>1057.749610</ele>
        <time>2020-08-07T07:39:18.028Z</time>
      </trkpt>
      <trkpt lat="38.687759" lon="-2.730675">
        <ele>1057.778586</ele>
        <time>2020-08-07T07:39:20.030Z</time>
      </trkpt>
      <trkpt lat="38.687779" lon="-2.730808">
        <ele>1057.811275</ele>
        <time>2020-08-07T07:39:22.046Z</time>
      </trkpt>
      <trkpt lat="38.687755" lon="-2.730941">
        <ele>1057.846181</ele>
        <time>2020-08-07T07:39:24.035Z</time>
      </trkpt>
      <trkpt lat="38.687760" lon="-2.731066">
        <ele>1057.880050</ele>
        <time>2020-08-07T07:39:26.034Z</time>
      </trkpt>
      <trkpt lat="38.687770" lon="-2.731219">
        <ele>1057.921597</ele>
        <time>2020-08-07T07:39:29.029Z</time>
      </trkpt>
      <trkpt lat="38.687760" lon="-2.731358">
        <ele>1057.959370</ele>
        <time>2020-08-07T07:39:31.038Z</time>
      </trkpt>
      <trkpt lat="38.687738" lon="-2.731482">
        <ele>1057.993780</ele>
        <time>2020-08-07T07:39:33.040Z</time>
      </trkpt>
      <trkpt lat="38.687723" lon="-2.731627">
        <ele>1058.033361</ele>
        <time>2020-08-07T07:39:35.028Z</time>
      </trkpt>
      <trkpt lat="38.687698" lon="-2.731759">
        <ele>1058.070117</ele>
        <time>2020-08-07T07:39:37.032Z</time>
      </trkpt>
      <trkpt lat="38.687725" lon="-2.731882">
        <ele>1058.104692</ele>
        <time>2020-08-07T07:39:39.036Z</time>
      </trkpt>
      <trkpt lat="38.687718" lon="-2.732005">
        <ele>1058.138064</ele>
        <time>2020-08-07T07:39:41.036Z</time>
      </trkpt>
      <trkpt lat="38.687673" lon="-2.732127">
        <ele>1058.174578</ele>
        <time>2020-08-07T07:39:43.029Z</time>
      </trkpt>
      <trkpt lat="38.687669" lon="-2.732258">
        <ele>1058.210053</ele>
        <time>2020-08-07T07:39:45.033Z</time>
      </trkpt>
      <trkpt lat="38.687673" lon="-2.732375">
        <ele>1058.241744</ele>
        <time>2020-08-07T07:39:47.039Z</time>
      </trkpt>
      <trkpt lat="38.687664" lon="-2.732496">
        <ele>1058.274635</ele>
        <time>2020-08-07T07:39:49.036Z</time>
      </trkpt>
      <trkpt lat="38.687670" lon="-2.732617">
        <ele>1058.307444</ele>
        <time>2020-08-07T07:39:51.033Z</time>
      </trkpt>
      <trkpt lat="38.687655" lon="-2.732750">
        <ele>1058.343808</ele>
        <time>2020-08-07T07:39:53.035Z</time>
      </trkpt>
      <trkpt lat="38.687660" lon="-2.732875">
        <ele>1058.377677</ele>
        <time>2020-08-07T07:39:55.040Z</time>
      </trkpt>
      <trkpt lat="38.687655" lon="-2.733011">
        <ele>1058.414520</ele>
        <time>2020-08-07T07:39:57.037Z</time>
      </trkpt>
      <trkpt lat="38.687649" lon="-2.733167">
        <ele>1058.426631</ele>
        <time>2020-08-07T07:39:59.032Z</time>
      </trkpt>
      <trkpt lat="38.687655" lon="-2.733309">
        <ele>1058.241542</ele>
        <time>2020-08-07T07:40:01.030Z</time>
      </trkpt>
      <trkpt lat="38.687674" lon="-2.733475">
        <ele>1058.023176</ele>
        <time>2020-08-07T07:40:03.034Z</time>
      </trkpt>
      <trkpt lat="38.687650" lon="-2.733653">
        <ele>1057.788071</ele>
        <time>2020-08-07T07:40:05.051Z</time>
      </trkpt>
      <trkpt lat="38.687672" lon="-2.733808">
        <ele>1057.583025</ele>
        <time>2020-08-07T07:40:07.047Z</time>
      </trkpt>
      <trkpt lat="38.687710" lon="-2.733999">
        <ele>1057.326483</ele>
        <time>2020-08-07T07:40:09.029Z</time>
      </trkpt>
      <trkpt lat="38.687712" lon="-2.734164">
        <ele>1057.111703</ele>
        <time>2020-08-07T07:40:11.027Z</time>
      </trkpt>
      <trkpt lat="38.687707" lon="-2.734329">
        <ele>1056.896788</ele>
        <time>2020-08-07T07:40:13.037Z</time>
      </trkpt>
      <trkpt lat="38.687715" lon="-2.734487">
        <ele>1056.690713</ele>
        <time>2020-08-07T07:40:15.036Z</time>
      </trkpt>
      <trkpt lat="38.687746" lon="-2.734645">
        <ele>1056.478673</ele>
        <time>2020-08-07T07:40:17.031Z</time>
      </trkpt>
      <trkpt lat="38.687761" lon="-2.734791">
        <ele>1056.287010</ele>
        <time>2020-08-07T07:40:19.022Z</time>
      </trkpt>
      <trkpt lat="38.687759" lon="-2.734941">
        <ele>1056.091751</ele>
        <time>2020-08-07T07:40:21.026Z</time>
      </trkpt>
      <trkpt lat="38.687770" lon="-2.735089">
        <ele>1055.898252</ele>
        <time>2020-08-07T07:40:23.031Z</time>
      </trkpt>
      <trkpt lat="38.687765" lon="-2.735238">
        <ele>1055.704144</ele>
        <time>2020-08-07T07:40:25.023Z</time>
      </trkpt>
      <trkpt lat="38.687779" lon="-2.735369">
        <ele>1055.532052</ele>
        <time>2020-08-07T07:40:27.045Z</time>
      </trkpt>
      <trkpt lat="38.687804" lon="-2.735503">
        <ele>1055.503194</ele>
        <time>2020-08-07T07:40:29.025Z</time>
      </trkpt>
      <trkpt lat="38.687775" lon="-2.735620">
        <ele>1055.584424</ele>
        <time>2020-08-07T07:40:31.026Z</time>
      </trkpt>
      <trkpt lat="38.687776" lon="-2.735752">
        <ele>1055.671774</ele>
        <time>2020-08-07T07:40:33.040Z</time>
      </trkpt>
      <trkpt lat="38.687798" lon="-2.735893">
        <ele>1055.766921</ele>
        <time>2020-08-07T07:40:35.033Z</time>
      </trkpt>
      <trkpt lat="38.687819" lon="-2.736035">
        <ele>1055.862555</ele>
        <time>2020-08-07T07:40:37.026Z</time>
      </trkpt>
      <trkpt lat="38.687817" lon="-2.736165">
        <ele>1055.948594</ele>
        <time>2020-08-07T07:40:39.027Z</time>
      </trkpt>
      <trkpt lat="38.687816" lon="-2.736291">
        <ele>1056.031974</ele>
        <time>2020-08-07T07:40:41.065Z</time>
      </trkpt>
      <trkpt lat="38.687808" lon="-2.736431">
        <ele>1056.124862</ele>
        <time>2020-08-07T07:40:43.041Z</time>
      </trkpt>
      <trkpt lat="38.687802" lon="-2.736584">
        <ele>1056.226231</ele>
        <time>2020-08-07T07:40:45.040Z</time>
      </trkpt>
      <trkpt lat="38.687807" lon="-2.736732">
        <ele>1056.324256</ele>
        <time>2020-08-07T07:40:47.027Z</time>
      </trkpt>
      <trkpt lat="38.687808" lon="-2.736888">
        <ele>1056.427486</ele>
        <time>2020-08-07T07:40:49.026Z</time>
      </trkpt>
      <trkpt lat="38.687807" lon="-2.737039">
        <ele>1056.527408</ele>
        <time>2020-08-07T07:40:51.036Z</time>
      </trkpt>
      <trkpt lat="38.687807" lon="-2.737175">
        <ele>1056.617401</ele>
        <time>2020-08-07T07:40:53.035Z</time>
      </trkpt>
      <trkpt lat="38.687806" lon="-2.737309">
        <ele>1056.706074</ele>
        <time>2020-08-07T07:40:55.026Z</time>
      </trkpt>
      <trkpt lat="38.687803" lon="-2.737440">
        <ele>1056.792796</ele>
        <time>2020-08-07T07:40:57.048Z</time>
      </trkpt>
      <trkpt lat="38.687802" lon="-2.737557">
        <ele>1056.870221</ele>
        <time>2020-08-07T07:40:59.047Z</time>
      </trkpt>
      <trkpt lat="38.687798" lon="-2.737699">
        <ele>1056.964245</ele>
        <time>2020-08-07T07:41:01.031Z</time>
      </trkpt>
      <trkpt lat="38.687791" lon="-2.737823">
        <ele>1056.969543</ele>
        <time>2020-08-07T07:41:03.040Z</time>
      </trkpt>
      <trkpt lat="38.687786" lon="-2.737955">
        <ele>1056.959806</ele>
        <time>2020-08-07T07:41:05.042Z</time>
      </trkpt>
      <trkpt lat="38.687781" lon="-2.738086">
        <ele>1056.950142</ele>
        <time>2020-08-07T07:41:07.043Z</time>
      </trkpt>
      <trkpt lat="38.687761" lon="-2.738211">
        <ele>1056.940741</ele>
        <time>2020-08-07T07:41:09.036Z</time>
      </trkpt>
      <trkpt lat="38.687760" lon="-2.738351">
        <ele>1056.930425</ele>
        <time>2020-08-07T07:41:11.035Z</time>
      </trkpt>
      <trkpt lat="38.687749" lon="-2.738475">
        <ele>1056.921230</ele>
        <time>2020-08-07T07:41:13.032Z</time>
      </trkpt>
      <trkpt lat="38.687731" lon="-2.738596">
        <ele>1056.912155</ele>
        <time>2020-08-07T07:41:15.026Z</time>
      </trkpt>
      <trkpt lat="38.687709" lon="-2.738730">
        <ele>1056.902066</ele>
        <time>2020-08-07T07:41:17.026Z</time>
      </trkpt>
      <trkpt lat="38.687676" lon="-2.738851">
        <ele>1056.892622</ele>
        <time>2020-08-07T07:41:19.028Z</time>
      </trkpt>
      <trkpt lat="38.687649" lon="-2.738974">
        <ele>1056.883208</ele>
        <time>2020-08-07T07:41:21.034Z</time>
      </trkpt>
      <trkpt lat="38.687629" lon="-2.739106">
        <ele>1056.873301</ele>
        <time>2020-08-07T07:41:23.038Z</time>
      </trkpt>
      <trkpt lat="38.687619" lon="-2.739242">
        <ele>1056.863236</ele>
        <time>2020-08-07T07:41:25.030Z</time>
      </trkpt>
      <trkpt lat="38.687591" lon="-2.739370">
        <ele>1056.853442</ele>
        <time>2020-08-07T07:41:27.039Z</time>
      </trkpt>
      <trkpt lat="38.687573" lon="-2.739503">
        <ele>1056.843496</ele>
        <time>2020-08-07T07:41:29.033Z</time>
      </trkpt>
      <trkpt lat="38.687547" lon="-2.739628">
        <ele>1056.833965</ele>
        <time>2020-08-07T07:41:31.041Z</time>
      </trkpt>
      <trkpt lat="38.687523" lon="-2.739767">
        <ele>1056.823476</ele>
        <time>2020-08-07T07:41:33.039Z</time>
      </trkpt>
      <trkpt lat="38.687493" lon="-2.739894">
        <ele>1056.813699</ele>
        <time>2020-08-07T07:41:35.035Z</time>
      </trkpt>
      <trkpt lat="38.687464" lon="-2.740022">
        <ele>1056.806107</ele>
        <time>2020-08-07T07:41:37.025Z</time>
      </trkpt>
      <trkpt lat="38.687423" lon="-2.740132">
        <ele>1056.802689</ele>
        <time>2020-08-07T07:41:39.022Z</time>
      </trkpt>
      <trkpt lat="38.687387" lon="-2.740283">
        <ele>1056.798262</ele>
        <time>2020-08-07T07:41:41.028Z</time>
      </trkpt>
      <trkpt lat="38.687341" lon="-2.740405">
        <ele>1056.794462</ele>
        <time>2020-08-07T07:41:43.027Z</time>
      </trkpt>
      <trkpt lat="38.687303" lon="-2.740524">
        <ele>1056.790857</ele>
        <time>2020-08-07T07:41:45.033Z</time>
      </trkpt>
      <trkpt lat="38.687261" lon="-2.740648">
        <ele>1056.787066</ele>
        <time>2020-08-07T07:41:47.042Z</time>
      </trkpt>
      <trkpt lat="38.687203" lon="-2.740763">
        <ele>1056.783227</ele>
        <time>2020-08-07T07:41:49.032Z</time>
      </trkpt>
      <trkpt lat="38.687152" lon="-2.740865">
        <ele>1056.779830</ele>
        <time>2020-08-07T07:41:51.034Z</time>
      </trkpt>
      <trkpt lat="38.687091" lon="-2.740954">
        <ele>1056.776509</ele>
        <time>2020-08-07T07:41:53.030Z</time>
      </trkpt>
      <trkpt lat="38.687046" lon="-2.741056">
        <ele>1056.773223</ele>
        <time>2020-08-07T07:41:55.040Z</time>
      </trkpt>
      <trkpt lat="38.686991" lon="-2.741211">
        <ele>1056.768449</ele>
        <time>2020-08-07T07:41:58.062Z</time>
      </trkpt>
      <trkpt lat="38.686943" lon="-2.741317">
        <ele>1056.765013</ele>
        <time>2020-08-07T07:42:00.048Z</time>
      </trkpt>
      <trkpt lat="38.686907" lon="-2.741434">
        <ele>1056.761486</ele>
        <time>2020-08-07T07:42:02.043Z</time>
      </trkpt>
      <trkpt lat="38.686875" lon="-2.741544">
        <ele>1056.758194</ele>
        <time>2020-08-07T07:42:04.045Z</time>
      </trkpt>
      <trkpt lat="38.686822" lon="-2.741666">
        <ele>1056.754279</ele>
        <time>2020-08-07T07:42:06.036Z</time>
      </trkpt>
      <trkpt lat="38.686756" lon="-2.741791">
        <ele>1056.750047</ele>
        <time>2020-08-07T07:42:08.036Z</time>
      </trkpt>
      <trkpt lat="38.686690" lon="-2.741897">
        <ele>1056.746245</ele>
        <time>2020-08-07T07:42:10.040Z</time>
      </trkpt>
      <trkpt lat="38.686626" lon="-2.742007">
        <ele>1056.731061</ele>
        <time>2020-08-07T07:42:12.040Z</time>
      </trkpt>
      <trkpt lat="38.686557" lon="-2.742115">
        <ele>1056.631315</ele>
        <time>2020-08-07T07:42:14.055Z</time>
      </trkpt>
      <trkpt lat="38.686517" lon="-2.742232">
        <ele>1056.540025</ele>
        <time>2020-08-07T07:42:16.045Z</time>
      </trkpt>
      <trkpt lat="38.686434" lon="-2.742321">
        <ele>1056.440922</ele>
        <time>2020-08-07T07:42:18.031Z</time>
      </trkpt>
      <trkpt lat="38.686378" lon="-2.742427">
        <ele>1056.349443</ele>
        <time>2020-08-07T07:42:20.041Z</time>
      </trkpt>
      <trkpt lat="38.686306" lon="-2.742529">
        <ele>1056.251156</ele>
        <time>2020-08-07T07:42:22.038Z</time>
      </trkpt>
      <trkpt lat="38.686231" lon="-2.742634">
        <ele>1056.149434</ele>
        <time>2020-08-07T07:42:24.045Z</time>
      </trkpt>
      <trkpt lat="38.686160" lon="-2.742732">
        <ele>1056.053873</ele>
        <time>2020-08-07T07:42:26.041Z</time>
      </trkpt>
      <trkpt lat="38.686106" lon="-2.742836">
        <ele>1055.964601</ele>
        <time>2020-08-07T07:42:28.041Z</time>
      </trkpt>
      <trkpt lat="38.686036" lon="-2.742948">
        <ele>1055.862055</ele>
        <time>2020-08-07T07:42:30.040Z</time>
      </trkpt>
      <trkpt lat="38.685975" lon="-2.743045">
        <ele>1055.773029</ele>
        <time>2020-08-07T07:42:32.039Z</time>
      </trkpt>
      <trkpt lat="38.685925" lon="-2.743161">
        <ele>1055.678322</ele>
        <time>2020-08-07T07:42:34.037Z</time>
      </trkpt>
      <trkpt lat="38.685844" lon="-2.743259">
        <ele>1055.576312</ele>
        <time>2020-08-07T07:42:36.040Z</time>
      </trkpt>
      <trkpt lat="38.685783" lon="-2.743360">
        <ele>1055.485041</ele>
        <time>2020-08-07T07:42:38.032Z</time>
      </trkpt>
      <trkpt lat="38.685703" lon="-2.743459">
        <ele>1055.383199</ele>
        <time>2020-08-07T07:42:40.040Z</time>
      </trkpt>
      <trkpt lat="38.685632" lon="-2.743551">
        <ele>1055.290734</ele>
        <time>2020-08-07T07:42:42.043Z</time>
      </trkpt>
      <trkpt lat="38.685580" lon="-2.743670">
        <ele>1055.193264</ele>
        <time>2020-08-07T07:42:44.034Z</time>
      </trkpt>
      <trkpt lat="38.685518" lon="-2.743772">
        <ele>1055.100867</ele>
        <time>2020-08-07T07:42:46.034Z</time>
      </trkpt>
      <trkpt lat="38.685446" lon="-2.743870">
        <ele>1055.130829</ele>
        <time>2020-08-07T07:42:48.037Z</time>
      </trkpt>
      <trkpt lat="38.685378" lon="-2.743975">
        <ele>1055.168015</ele>
        <time>2020-08-07T07:42:50.049Z</time>
      </trkpt>
      <trkpt lat="38.685342" lon="-2.744107">
        <ele>1055.206125</ele>
        <time>2020-08-07T07:42:52.034Z</time>
      </trkpt>
      <trkpt lat="38.685270" lon="-2.744206">
        <ele>1055.243005</ele>
        <time>2020-08-07T07:42:54.040Z</time>
      </trkpt>
      <trkpt lat="38.685200" lon="-2.744306">
        <ele>1055.279615</ele>
        <time>2020-08-07T07:42:56.047Z</time>
      </trkpt>
      <trkpt lat="38.685134" lon="-2.744412">
        <ele>1055.316572</ele>
        <time>2020-08-07T07:42:58.028Z</time>
      </trkpt>
      <trkpt lat="38.685077" lon="-2.744512">
        <ele>1055.350321</ele>
        <time>2020-08-07T07:43:00.038Z</time>
      </trkpt>
      <trkpt lat="38.685014" lon="-2.744628">
        <ele>1055.388838</ele>
        <time>2020-08-07T07:43:02.034Z</time>
      </trkpt>
      <trkpt lat="38.684968" lon="-2.744738">
        <ele>1055.422851</ele>
        <time>2020-08-07T07:43:04.033Z</time>
      </trkpt>
      <trkpt lat="38.684899" lon="-2.744832">
        <ele>1055.458020</ele>
        <time>2020-08-07T07:43:06.041Z</time>
      </trkpt>
      <trkpt lat="38.684821" lon="-2.744926">
        <ele>1055.495413</ele>
        <time>2020-08-07T07:43:08.035Z</time>
      </trkpt>
      <trkpt lat="38.684746" lon="-2.745020">
        <ele>1055.532049</ele>
        <time>2020-08-07T07:43:10.043Z</time>
      </trkpt>
      <trkpt lat="38.684672" lon="-2.745138">
        <ele>1055.573305</ele>
        <time>2020-08-07T07:43:12.027Z</time>
      </trkpt>
      <trkpt lat="38.684604" lon="-2.745257">
        <ele>1055.613502</ele>
        <time>2020-08-07T07:43:14.044Z</time>
      </trkpt>
      <trkpt lat="38.684535" lon="-2.745374">
        <ele>1055.653470</ele>
        <time>2020-08-07T07:43:16.037Z</time>
      </trkpt>
      <trkpt lat="38.684453" lon="-2.745479">
        <ele>1055.693952</ele>
        <time>2020-08-07T07:43:18.035Z</time>
      </trkpt>
      <trkpt lat="38.684367" lon="-2.745595">
        <ele>1055.714835</ele>
        <time>2020-08-07T07:43:20.033Z</time>
      </trkpt>
      <trkpt lat="38.684289" lon="-2.745709">
        <ele>1055.686712</ele>
        <time>2020-08-07T07:43:22.026Z</time>
      </trkpt>
      <trkpt lat="38.684202" lon="-2.745832">
        <ele>1055.655919</ele>
        <time>2020-08-07T07:43:24.122Z</time>
      </trkpt>
      <trkpt lat="38.684110" lon="-2.745929">
        <ele>1055.627602</ele>
        <time>2020-08-07T07:43:26.048Z</time>
      </trkpt>
      <trkpt lat="38.684025" lon="-2.746035">
        <ele>1055.599410</ele>
        <time>2020-08-07T07:43:28.027Z</time>
      </trkpt>
      <trkpt lat="38.683951" lon="-2.746158">
        <ele>1055.570601</ele>
        <time>2020-08-07T07:43:30.029Z</time>
      </trkpt>
      <trkpt lat="38.683876" lon="-2.746284">
        <ele>1055.541206</ele>
        <time>2020-08-07T07:43:32.055Z</time>
      </trkpt>
      <trkpt lat="38.683788" lon="-2.746411">
        <ele>1055.509702</ele>
        <time>2020-08-07T07:43:34.037Z</time>
      </trkpt>
      <trkpt lat="38.683709" lon="-2.746524">
        <ele>1055.481561</ele>
        <time>2020-08-07T07:43:36.043Z</time>
      </trkpt>
      <trkpt lat="38.683644" lon="-2.746641">
        <ele>1055.454919</ele>
        <time>2020-08-07T07:43:38.044Z</time>
      </trkpt>
      <trkpt lat="38.683555" lon="-2.746771">
        <ele>1055.422841</ele>
        <time>2020-08-07T07:43:40.030Z</time>
      </trkpt>
      <trkpt lat="38.683479" lon="-2.746895">
        <ele>1055.393594</ele>
        <time>2020-08-07T07:43:42.039Z</time>
      </trkpt>
      <trkpt lat="38.683423" lon="-2.747023">
        <ele>1055.366372</ele>
        <time>2020-08-07T07:43:44.037Z</time>
      </trkpt>
      <trkpt lat="38.683352" lon="-2.747143">
        <ele>1055.338438</ele>
        <time>2020-08-07T07:43:46.049Z</time>
      </trkpt>
      <trkpt lat="38.683276" lon="-2.747270">
        <ele>1055.308751</ele>
        <time>2020-08-07T07:43:48.037Z</time>
      </trkpt>
      <trkpt lat="38.683204" lon="-2.747402">
        <ele>1055.381604</ele>
        <time>2020-08-07T07:43:50.589Z</time>
      </trkpt>
      <trkpt lat="38.683127" lon="-2.747520">
        <ele>1055.518647</ele>
        <time>2020-08-07T07:43:52.591Z</time>
      </trkpt>
      <trkpt lat="38.683047" lon="-2.747630">
        <ele>1055.652611</ele>
        <time>2020-08-07T07:43:54.597Z</time>
      </trkpt>
      <trkpt lat="38.682974" lon="-2.747755">
        <ele>1055.791713</ele>
        <time>2020-08-07T07:43:56.592Z</time>
      </trkpt>
      <trkpt lat="38.682900" lon="-2.747861">
        <ele>1055.918427</ele>
        <time>2020-08-07T07:43:58.602Z</time>
      </trkpt>
      <trkpt lat="38.682833" lon="-2.747976">
        <ele>1056.046292</ele>
        <time>2020-08-07T07:44:00.592Z</time>
      </trkpt>
      <trkpt lat="38.682756" lon="-2.748086">
        <ele>1056.177945</ele>
        <time>2020-08-07T07:44:02.599Z</time>
      </trkpt>
      <trkpt lat="38.682684" lon="-2.748187">
        <ele>1056.299823</ele>
        <time>2020-08-07T07:44:04.600Z</time>
      </trkpt>
      <trkpt lat="38.682612" lon="-2.748297">
        <ele>1056.427737</ele>
        <time>2020-08-07T07:44:06.604Z</time>
      </trkpt>
      <trkpt lat="38.682513" lon="-2.748390">
        <ele>1056.567871</ele>
        <time>2020-08-07T07:44:08.613Z</time>
      </trkpt>
      <trkpt lat="38.682438" lon="-2.748497">
        <ele>1056.696011</ele>
        <time>2020-08-07T07:44:10.596Z</time>
      </trkpt>
      <trkpt lat="38.682355" lon="-2.748594">
        <ele>1056.824256</ele>
        <time>2020-08-07T07:44:12.596Z</time>
      </trkpt>
      <trkpt lat="38.682268" lon="-2.748699">
        <ele>1056.960697</ele>
        <time>2020-08-07T07:44:14.598Z</time>
      </trkpt>
      <trkpt lat="38.682176" lon="-2.748781">
        <ele>1057.088631</ele>
        <time>2020-08-07T07:44:16.586Z</time>
      </trkpt>
      <trkpt lat="38.682082" lon="-2.748880">
        <ele>1057.227538</ele>
        <time>2020-08-07T07:44:18.600Z</time>
      </trkpt>
      <trkpt lat="38.682001" lon="-2.748988">
        <ele>1057.345851</ele>
        <time>2020-08-07T07:44:20.611Z</time>
      </trkpt>
      <trkpt lat="38.681916" lon="-2.749081">
        <ele>1057.302453</ele>
        <time>2020-08-07T07:44:22.594Z</time>
      </trkpt>
      <trkpt lat="38.681839" lon="-2.749185">
        <ele>1057.259012</ele>
        <time>2020-08-07T07:44:24.601Z</time>
      </trkpt>
      <trkpt lat="38.681748" lon="-2.749290">
        <ele>1057.211464</ele>
        <time>2020-08-07T07:44:26.610Z</time>
      </trkpt>
      <trkpt lat="38.681679" lon="-2.749399">
        <ele>1057.168932</ele>
        <time>2020-08-07T07:44:28.598Z</time>
      </trkpt>
      <trkpt lat="38.681591" lon="-2.749507">
        <ele>1057.121619</ele>
        <time>2020-08-07T07:44:30.593Z</time>
      </trkpt>
      <trkpt lat="38.681518" lon="-2.749613">
        <ele>1057.078778</ele>
        <time>2020-08-07T07:44:32.602Z</time>
      </trkpt>
      <trkpt lat="38.681440" lon="-2.749721">
        <ele>1057.034187</ele>
        <time>2020-08-07T07:44:34.582Z</time>
      </trkpt>
      <trkpt lat="38.681364" lon="-2.749824">
        <ele>1056.991233</ele>
        <time>2020-08-07T07:44:36.596Z</time>
      </trkpt>
      <trkpt lat="38.681288" lon="-2.749933">
        <ele>1056.946940</ele>
        <time>2020-08-07T07:44:38.616Z</time>
      </trkpt>
      <trkpt lat="38.681221" lon="-2.750046">
        <ele>1056.903934</ele>
        <time>2020-08-07T07:44:40.608Z</time>
      </trkpt>
      <trkpt lat="38.681150" lon="-2.750153">
        <ele>1056.861373</ele>
        <time>2020-08-07T07:44:42.590Z</time>
      </trkpt>
      <trkpt lat="38.681073" lon="-2.750269">
        <ele>1056.815225</ele>
        <time>2020-08-07T07:44:44.601Z</time>
      </trkpt>
      <trkpt lat="38.681002" lon="-2.750384">
        <ele>1056.770789</ele>
        <time>2020-08-07T07:44:46.595Z</time>
      </trkpt>
      <trkpt lat="38.680912" lon="-2.750489">
        <ele>1056.723528</ele>
        <time>2020-08-07T07:44:48.617Z</time>
      </trkpt>
      <trkpt lat="38.680840" lon="-2.750598">
        <ele>1056.680253</ele>
        <time>2020-08-07T07:44:50.590Z</time>
      </trkpt>
      <trkpt lat="38.680777" lon="-2.750714">
        <ele>1056.551102</ele>
        <time>2020-08-07T07:44:52.593Z</time>
      </trkpt>
      <trkpt lat="38.680717" lon="-2.750836">
        <ele>1056.237331</ele>
        <time>2020-08-07T07:44:54.587Z</time>
      </trkpt>
      <trkpt lat="38.680662" lon="-2.750938">
        <ele>1055.967570</ele>
        <time>2020-08-07T07:44:56.599Z</time>
      </trkpt>
      <trkpt lat="38.680605" lon="-2.751032">
        <ele>1055.708559</ele>
        <time>2020-08-07T07:44:58.579Z</time>
      </trkpt>
      <trkpt lat="38.680541" lon="-2.751140">
        <ele>1055.413500</ele>
        <time>2020-08-07T07:45:00.590Z</time>
      </trkpt>
      <trkpt lat="38.680462" lon="-2.751248">
        <ele>1055.091434</ele>
        <time>2020-08-07T07:45:02.589Z</time>
      </trkpt>
      <trkpt lat="38.680387" lon="-2.751363">
        <ele>1054.765347</ele>
        <time>2020-08-07T07:45:04.593Z</time>
      </trkpt>
      <trkpt lat="38.680304" lon="-2.751482">
        <ele>1054.418091</ele>
        <time>2020-08-07T07:45:06.580Z</time>
      </trkpt>
      <trkpt lat="38.680224" lon="-2.751606">
        <ele>1054.068034</ele>
        <time>2020-08-07T07:45:08.592Z</time>
      </trkpt>
      <trkpt lat="38.680161" lon="-2.751745">
        <ele>1053.718274</ele>
        <time>2020-08-07T07:45:10.583Z</time>
      </trkpt>
      <trkpt lat="38.680070" lon="-2.751870">
        <ele>1053.346339</ele>
        <time>2020-08-07T07:45:12.606Z</time>
      </trkpt>
      <trkpt lat="38.679975" lon="-2.751970">
        <ele>1053.003584</ele>
        <time>2020-08-07T07:45:14.630Z</time>
      </trkpt>
      <trkpt lat="38.679895" lon="-2.752094">
        <ele>1052.653526</ele>
        <time>2020-08-07T07:45:16.607Z</time>
      </trkpt>
      <trkpt lat="38.679815" lon="-2.752200">
        <ele>1052.332688</ele>
        <time>2020-08-07T07:45:18.587Z</time>
      </trkpt>
      <trkpt lat="38.679741" lon="-2.752315">
        <ele>1052.008380</ele>
        <time>2020-08-07T07:45:20.614Z</time>
      </trkpt>
      <trkpt lat="38.679667" lon="-2.752443">
        <ele>1051.661775</ele>
        <time>2020-08-07T07:45:22.598Z</time>
      </trkpt>
      <trkpt lat="38.679584" lon="-2.752550">
        <ele>1051.601301</ele>
        <time>2020-08-07T07:45:24.601Z</time>
      </trkpt>
      <trkpt lat="38.679531" lon="-2.752659">
        <ele>1051.567931</ele>
        <time>2020-08-07T07:45:26.621Z</time>
      </trkpt>
      <trkpt lat="38.679460" lon="-2.752759">
        <ele>1051.532804</ele>
        <time>2020-08-07T07:45:28.580Z</time>
      </trkpt>
      <trkpt lat="38.679381" lon="-2.752869">
        <ele>1051.493963</ele>
        <time>2020-08-07T07:45:30.590Z</time>
      </trkpt>
      <trkpt lat="38.679307" lon="-2.752938">
        <ele>1051.463495</ele>
        <time>2020-08-07T07:45:32.593Z</time>
      </trkpt>
      <trkpt lat="38.679247" lon="-2.753038">
        <ele>1051.430720</ele>
        <time>2020-08-07T07:45:34.587Z</time>
      </trkpt>
      <trkpt lat="38.679192" lon="-2.753160">
        <ele>1051.394111</ele>
        <time>2020-08-07T07:45:36.590Z</time>
      </trkpt>
      <trkpt lat="38.679108" lon="-2.753258">
        <ele>1051.356290</ele>
        <time>2020-08-07T07:45:38.585Z</time>
      </trkpt>
      <trkpt lat="38.679025" lon="-2.753369">
        <ele>1051.316348</ele>
        <time>2020-08-07T07:45:40.591Z</time>
      </trkpt>
      <trkpt lat="38.678940" lon="-2.753478">
        <ele>1051.276312</ele>
        <time>2020-08-07T07:45:42.574Z</time>
      </trkpt>
      <trkpt lat="38.678871" lon="-2.753587">
        <ele>1051.239844</ele>
        <time>2020-08-07T07:45:44.588Z</time>
      </trkpt>
      <trkpt lat="38.678806" lon="-2.753708">
        <ele>1051.201675</ele>
        <time>2020-08-07T07:45:46.572Z</time>
      </trkpt>
      <trkpt lat="38.678737" lon="-2.753817">
        <ele>1051.165208</ele>
        <time>2020-08-07T07:45:48.576Z</time>
      </trkpt>
      <trkpt lat="38.678660" lon="-2.753920">
        <ele>1051.128149</ele>
        <time>2020-08-07T07:45:50.586Z</time>
      </trkpt>
      <trkpt lat="38.678579" lon="-2.754023">
        <ele>1051.090156</ele>
        <time>2020-08-07T07:45:52.593Z</time>
      </trkpt>
      <trkpt lat="38.678492" lon="-2.754153">
        <ele>1051.045660</ele>
        <time>2020-08-07T07:45:54.593Z</time>
      </trkpt>
      <trkpt lat="38.678421" lon="-2.754254">
        <ele>1051.160456</ele>
        <time>2020-08-07T07:45:56.590Z</time>
      </trkpt>
      <trkpt lat="38.678334" lon="-2.754346">
        <ele>1051.320387</ele>
        <time>2020-08-07T07:45:58.589Z</time>
      </trkpt>
      <trkpt lat="38.678268" lon="-2.754452">
        <ele>1051.470439</ele>
        <time>2020-08-07T07:46:00.589Z</time>
      </trkpt>
      <trkpt lat="38.678179" lon="-2.754549">
        <ele>1051.636097</ele>
        <time>2020-08-07T07:46:02.592Z</time>
      </trkpt>
      <trkpt lat="38.678107" lon="-2.754651">
        <ele>1051.788284</ele>
        <time>2020-08-07T07:46:04.583Z</time>
      </trkpt>
      <trkpt lat="38.678039" lon="-2.754764">
        <ele>1051.946183</ele>
        <time>2020-08-07T07:46:06.589Z</time>
      </trkpt>
      <trkpt lat="38.677948" lon="-2.754885">
        <ele>1052.132124</ele>
        <time>2020-08-07T07:46:08.584Z</time>
      </trkpt>
      <trkpt lat="38.677871" lon="-2.754996">
        <ele>1052.296459</ele>
        <time>2020-08-07T07:46:10.584Z</time>
      </trkpt>
      <trkpt lat="38.677793" lon="-2.755091">
        <ele>1052.449039</ele>
        <time>2020-08-07T07:46:12.587Z</time>
      </trkpt>
      <trkpt lat="38.677706" lon="-2.755205">
        <ele>1052.625472</ele>
        <time>2020-08-07T07:46:14.598Z</time>
      </trkpt>
      <trkpt lat="38.677608" lon="-2.755301">
        <ele>1052.800368</ele>
        <time>2020-08-07T07:46:16.589Z</time>
      </trkpt>
      <trkpt lat="38.677502" lon="-2.755409">
        <ele>1052.992375</ele>
        <time>2020-08-07T07:46:18.585Z</time>
      </trkpt>
      <trkpt lat="38.677414" lon="-2.755515">
        <ele>1053.163620</ele>
        <time>2020-08-07T07:46:20.588Z</time>
      </trkpt>
      <trkpt lat="38.677325" lon="-2.755599">
        <ele>1053.320339</ele>
        <time>2020-08-07T07:46:22.577Z</time>
      </trkpt>
      <trkpt lat="38.677227" lon="-2.755700">
        <ele>1053.498652</ele>
        <time>2020-08-07T07:46:24.581Z</time>
      </trkpt>
      <trkpt lat="38.677144" lon="-2.755792">
        <ele>1053.694492</ele>
        <time>2020-08-07T07:46:26.581Z</time>
      </trkpt>
      <trkpt lat="38.677075" lon="-2.755907">
        <ele>1053.953542</ele>
        <time>2020-08-07T07:46:28.586Z</time>
      </trkpt>
      <trkpt lat="38.677002" lon="-2.755998">
        <ele>1054.186585</ele>
        <time>2020-08-07T07:46:30.596Z</time>
      </trkpt>
      <trkpt lat="38.676915" lon="-2.756096">
        <ele>1054.451638</ele>
        <time>2020-08-07T07:46:32.579Z</time>
      </trkpt>
      <trkpt lat="38.676831" lon="-2.756183">
        <ele>1054.698776</ele>
        <time>2020-08-07T07:46:34.589Z</time>
      </trkpt>
      <trkpt lat="38.676744" lon="-2.756282">
        <ele>1054.965012</ele>
        <time>2020-08-07T07:46:36.599Z</time>
      </trkpt>
      <trkpt lat="38.676659" lon="-2.756372">
        <ele>1055.217313</ele>
        <time>2020-08-07T07:46:38.590Z</time>
      </trkpt>
      <trkpt lat="38.676575" lon="-2.756465">
        <ele>1055.471325</ele>
        <time>2020-08-07T07:46:40.583Z</time>
      </trkpt>
      <trkpt lat="38.676496" lon="-2.756559">
        <ele>1055.718009</ele>
        <time>2020-08-07T07:46:42.593Z</time>
      </trkpt>
      <trkpt lat="38.676414" lon="-2.756666">
        <ele>1055.985809</ele>
        <time>2020-08-07T07:46:44.588Z</time>
      </trkpt>
      <trkpt lat="38.676343" lon="-2.756778">
        <ele>1056.243492</ele>
        <time>2020-08-07T07:46:46.592Z</time>
      </trkpt>
      <trkpt lat="38.676281" lon="-2.756886">
        <ele>1056.482926</ele>
        <time>2020-08-07T07:46:48.584Z</time>
      </trkpt>
      <trkpt lat="38.676211" lon="-2.756983">
        <ele>1056.718855</ele>
        <time>2020-08-07T07:46:50.594Z</time>
      </trkpt>
      <trkpt lat="38.676139" lon="-2.757068">
        <ele>1056.942867</ele>
        <time>2020-08-07T07:46:52.604Z</time>
      </trkpt>
      <trkpt lat="38.676076" lon="-2.757175">
        <ele>1057.182236</ele>
        <time>2020-08-07T07:46:54.579Z</time>
      </trkpt>
      <trkpt lat="38.676010" lon="-2.757289">
        <ele>1057.435727</ele>
        <time>2020-08-07T07:46:56.591Z</time>
      </trkpt>
      <trkpt lat="38.675934" lon="-2.757375">
        <ele>1057.667731</ele>
        <time>2020-08-07T07:46:58.584Z</time>
      </trkpt>
      <trkpt lat="38.675851" lon="-2.757473">
        <ele>1057.739991</ele>
        <time>2020-08-07T07:47:00.593Z</time>
      </trkpt>
      <trkpt lat="38.675774" lon="-2.757571">
        <ele>1057.780578</ele>
        <time>2020-08-07T07:47:02.593Z</time>
      </trkpt>
      <trkpt lat="38.675681" lon="-2.757655">
        <ele>1057.823127</ele>
        <time>2020-08-07T07:47:04.581Z</time>
      </trkpt>
      <trkpt lat="38.675591" lon="-2.757740">
        <ele>1057.864937</ele>
        <time>2020-08-07T07:47:06.601Z</time>
      </trkpt>
      <trkpt lat="38.675496" lon="-2.757847">
        <ele>1057.912237</ele>
        <time>2020-08-07T07:47:08.602Z</time>
      </trkpt>
      <trkpt lat="38.675396" lon="-2.757921">
        <ele>1057.955419</ele>
        <time>2020-08-07T07:47:10.587Z</time>
      </trkpt>
      <trkpt lat="38.675322" lon="-2.758025">
        <ele>1057.996494</ele>
        <time>2020-08-07T07:47:12.611Z</time>
      </trkpt>
      <trkpt lat="38.675229" lon="-2.758115">
        <ele>1058.040076</ele>
        <time>2020-08-07T07:47:14.598Z</time>
      </trkpt>
      <trkpt lat="38.675156" lon="-2.758223">
        <ele>1058.081776</ele>
        <time>2020-08-07T07:47:16.599Z</time>
      </trkpt>
      <trkpt lat="38.675052" lon="-2.758329">
        <ele>1058.131471</ele>
        <time>2020-08-07T07:47:18.589Z</time>
      </trkpt>
      <trkpt lat="38.674959" lon="-2.758439">
        <ele>1058.178802</ele>
        <time>2020-08-07T07:47:20.595Z</time>
      </trkpt>
      <trkpt lat="38.674863" lon="-2.758549">
        <ele>1058.226963</ele>
        <time>2020-08-07T07:47:22.586Z</time>
      </trkpt>
      <trkpt lat="38.674785" lon="-2.758678">
        <ele>1058.274593</ele>
        <time>2020-08-07T07:47:24.592Z</time>
      </trkpt>
      <trkpt lat="38.674696" lon="-2.758808">
        <ele>1058.325065</ele>
        <time>2020-08-07T07:47:26.608Z</time>
      </trkpt>
      <trkpt lat="38.674620" lon="-2.758952">
        <ele>1058.375805</ele>
        <time>2020-08-07T07:47:28.606Z</time>
      </trkpt>
      <trkpt lat="38.674537" lon="-2.759093">
        <ele>1058.575667</ele>
        <time>2020-08-07T07:47:30.590Z</time>
      </trkpt>
      <trkpt lat="38.674460" lon="-2.759235">
        <ele>1058.772404</ele>
        <time>2020-08-07T07:47:32.588Z</time>
      </trkpt>
      <trkpt lat="38.674400" lon="-2.759357">
        <ele>1058.936480</ele>
        <time>2020-08-07T07:47:34.613Z</time>
      </trkpt>
      <trkpt lat="38.674321" lon="-2.759491">
        <ele>1059.127554</ele>
        <time>2020-08-07T07:47:36.598Z</time>
      </trkpt>
      <trkpt lat="38.674246" lon="-2.759646">
        <ele>1059.335062</ele>
        <time>2020-08-07T07:47:38.599Z</time>
      </trkpt>
      <trkpt lat="38.674184" lon="-2.759812">
        <ele>1059.544461</ele>
        <time>2020-08-07T07:47:40.593Z</time>
      </trkpt>
      <trkpt lat="38.674125" lon="-2.759979">
        <ele>1059.753047</ele>
        <time>2020-08-07T07:47:42.621Z</time>
      </trkpt>
      <trkpt lat="38.674056" lon="-2.760118">
        <ele>1059.940484</ele>
        <time>2020-08-07T07:47:44.594Z</time>
      </trkpt>
      <trkpt lat="38.674004" lon="-2.760261">
        <ele>1060.119993</ele>
        <time>2020-08-07T07:47:46.595Z</time>
      </trkpt>
      <trkpt lat="38.673929" lon="-2.760388">
        <ele>1060.301198</ele>
        <time>2020-08-07T07:47:48.598Z</time>
      </trkpt>
      <trkpt lat="38.673875" lon="-2.760533">
        <ele>1060.484009</ele>
        <time>2020-08-07T07:47:50.613Z</time>
      </trkpt>
      <trkpt lat="38.673809" lon="-2.760658">
        <ele>1060.655727</ele>
        <time>2020-08-07T07:47:52.598Z</time>
      </trkpt>
      <trkpt lat="38.673733" lon="-2.760799">
        <ele>1060.850700</ele>
        <time>2020-08-07T07:47:54.594Z</time>
      </trkpt>
      <trkpt lat="38.673652" lon="-2.760940">
        <ele>1060.882650</ele>
        <time>2020-08-07T07:47:56.592Z</time>
      </trkpt>
      <trkpt lat="38.673568" lon="-2.761073">
        <ele>1060.452561</ele>
        <time>2020-08-07T07:47:58.590Z</time>
      </trkpt>
      <trkpt lat="38.673502" lon="-2.761222">
        <ele>1060.021867</ele>
        <time>2020-08-07T07:48:00.597Z</time>
      </trkpt>
      <trkpt lat="38.673416" lon="-2.761359">
        <ele>1059.579906</ele>
        <time>2020-08-07T07:48:02.581Z</time>
      </trkpt>
      <trkpt lat="38.673333" lon="-2.761466">
        <ele>1059.200691</ele>
        <time>2020-08-07T07:48:04.593Z</time>
      </trkpt>
      <trkpt lat="38.673257" lon="-2.761595">
        <ele>1058.794390</ele>
        <time>2020-08-07T07:48:06.600Z</time>
      </trkpt>
      <trkpt lat="38.673172" lon="-2.761702">
        <ele>1058.410608</ele>
        <time>2020-08-07T07:48:08.600Z</time>
      </trkpt>
      <trkpt lat="38.673117" lon="-2.761842">
        <ele>1058.016582</ele>
        <time>2020-08-07T07:48:10.590Z</time>
      </trkpt>
      <trkpt lat="38.673060" lon="-2.761977">
        <ele>1057.630722</ele>
        <time>2020-08-07T07:48:12.598Z</time>
      </trkpt>
      <trkpt lat="38.672999" lon="-2.762110">
        <ele>1057.242914</ele>
        <time>2020-08-07T07:48:14.587Z</time>
      </trkpt>
      <trkpt lat="38.672934" lon="-2.762228">
        <ele>1056.879839</ele>
        <time>2020-08-07T07:48:16.586Z</time>
      </trkpt>
      <trkpt lat="38.672879" lon="-2.762341">
        <ele>1056.545056</ele>
        <time>2020-08-07T07:48:18.596Z</time>
      </trkpt>
      <trkpt lat="38.672803" lon="-2.762437">
        <ele>1056.201328</ele>
        <time>2020-08-07T07:48:20.588Z</time>
      </trkpt>
      <trkpt lat="38.672710" lon="-2.762512">
        <ele>1055.847429</ele>
        <time>2020-08-07T07:48:22.608Z</time>
      </trkpt>
      <trkpt lat="38.672622" lon="-2.762578">
        <ele>1055.519042</ele>
        <time>2020-08-07T07:48:24.588Z</time>
      </trkpt>
      <trkpt lat="38.672531" lon="-2.762669">
        <ele>1055.226920</ele>
        <time>2020-08-07T07:48:26.587Z</time>
      </trkpt>
      <trkpt lat="38.672468" lon="-2.762770">
        <ele>1055.344694</ele>
        <time>2020-08-07T07:48:28.589Z</time>
      </trkpt>
      <trkpt lat="38.672377" lon="-2.762858">
        <ele>1055.477746</ele>
        <time>2020-08-07T07:48:30.597Z</time>
      </trkpt>
      <trkpt lat="38.672314" lon="-2.762952">
        <ele>1055.590608</ele>
        <time>2020-08-07T07:48:32.589Z</time>
      </trkpt>
      <trkpt lat="38.672241" lon="-2.763052">
        <ele>1055.715330</ele>
        <time>2020-08-07T07:48:34.583Z</time>
      </trkpt>
      <trkpt lat="38.672176" lon="-2.763155">
        <ele>1055.835987</ele>
        <time>2020-08-07T07:48:36.579Z</time>
      </trkpt>
      <trkpt lat="38.672090" lon="-2.763248">
        <ele>1055.967322</ele>
        <time>2020-08-07T07:48:38.580Z</time>
      </trkpt>
      <trkpt lat="38.672031" lon="-2.763341">
        <ele>1056.076492</ele>
        <time>2020-08-07T07:48:40.595Z</time>
      </trkpt>
      <trkpt lat="38.671940" lon="-2.763420">
        <ele>1056.204771</ele>
        <time>2020-08-07T07:48:42.591Z</time>
      </trkpt>
      <trkpt lat="38.671860" lon="-2.763493">
        <ele>1056.319389</ele>
        <time>2020-08-07T07:48:44.589Z</time>
      </trkpt>
      <trkpt lat="38.671757" lon="-2.763556">
        <ele>1056.452579</ele>
        <time>2020-08-07T07:48:46.595Z</time>
      </trkpt>
      <trkpt lat="38.671666" lon="-2.763634">
        <ele>1056.580349</ele>
        <time>2020-08-07T07:48:48.608Z</time>
      </trkpt>
      <trkpt lat="38.671579" lon="-2.763701">
        <ele>1056.698805</ele>
        <time>2020-08-07T07:48:50.594Z</time>
      </trkpt>
      <trkpt lat="38.671490" lon="-2.763776">
        <ele>1056.823119</ele>
        <time>2020-08-07T07:48:52.593Z</time>
      </trkpt>
      <trkpt lat="38.671407" lon="-2.763851">
        <ele>1056.941647</ele>
        <time>2020-08-07T07:48:54.589Z</time>
      </trkpt>
      <trkpt lat="38.671336" lon="-2.763932">
        <ele>1057.052595</ele>
        <time>2020-08-07T07:48:56.588Z</time>
      </trkpt>
      <trkpt lat="38.671260" lon="-2.764003">
        <ele>1057.162362</ele>
        <time>2020-08-07T07:48:58.596Z</time>
      </trkpt>
      <trkpt lat="38.671146" lon="-2.764094">
        <ele>1057.304369</ele>
        <time>2020-08-07T07:49:01.582Z</time>
      </trkpt>
      <trkpt lat="38.671069" lon="-2.764162">
        <ele>1057.303075</ele>
        <time>2020-08-07T07:49:03.596Z</time>
      </trkpt>
      <trkpt lat="38.670987" lon="-2.764215">
        <ele>1057.301805</ele>
        <time>2020-08-07T07:49:05.594Z</time>
      </trkpt>
      <trkpt lat="38.670902" lon="-2.764318">
        <ele>1057.300186</ele>
        <time>2020-08-07T07:49:08.595Z</time>
      </trkpt>
      <trkpt lat="38.670808" lon="-2.764433">
        <ele>1057.298388</ele>
        <time>2020-08-07T07:49:11.586Z</time>
      </trkpt>
      <trkpt lat="38.670739" lon="-2.764512">
        <ele>1057.297107</ele>
        <time>2020-08-07T07:49:13.592Z</time>
      </trkpt>
      <trkpt lat="38.670632" lon="-2.764593">
        <ele>1057.295388</ele>
        <time>2020-08-07T07:49:16.586Z</time>
      </trkpt>
      <trkpt lat="38.670519" lon="-2.764673">
        <ele>1057.293602</ele>
        <time>2020-08-07T07:49:19.598Z</time>
      </trkpt>
      <trkpt lat="38.670430" lon="-2.764754">
        <ele>1057.292091</ele>
        <time>2020-08-07T07:49:22.578Z</time>
      </trkpt>
      <trkpt lat="38.670331" lon="-2.764835">
        <ele>1057.290466</ele>
        <time>2020-08-07T07:49:25.591Z</time>
      </trkpt>
      <trkpt lat="38.670236" lon="-2.764906">
        <ele>1057.288944</ele>
        <time>2020-08-07T07:49:28.592Z</time>
      </trkpt>
      <trkpt lat="38.670118" lon="-2.764939">
        <ele>1057.287273</ele>
        <time>2020-08-07T07:49:31.592Z</time>
      </trkpt>
      <trkpt lat="38.670000" lon="-2.764981">
        <ele>1057.285579</ele>
        <time>2020-08-07T07:49:34.592Z</time>
      </trkpt>
      <trkpt lat="38.669906" lon="-2.765094">
        <ele>1057.283796</ele>
        <time>2020-08-07T07:49:37.596Z</time>
      </trkpt>
      <trkpt lat="38.669806" lon="-2.765190">
        <ele>1057.282067</ele>
        <time>2020-08-07T07:49:40.584Z</time>
      </trkpt>
      <trkpt lat="38.669702" lon="-2.765274">
        <ele>1057.280366</ele>
        <time>2020-08-07T07:49:43.598Z</time>
      </trkpt>
      <trkpt lat="38.669604" lon="-2.765371">
        <ele>1057.295773</ele>
        <time>2020-08-07T07:49:46.583Z</time>
      </trkpt>
      <trkpt lat="38.669505" lon="-2.765465">
        <ele>1057.323063</ele>
        <time>2020-08-07T07:49:49.594Z</time>
      </trkpt>
      <trkpt lat="38.669421" lon="-2.765578">
        <ele>1057.350040</ele>
        <time>2020-08-07T07:49:52.595Z</time>
      </trkpt>
      <trkpt lat="38.669332" lon="-2.765686">
        <ele>1057.377190</ele>
        <time>2020-08-07T07:49:55.598Z</time>
      </trkpt>
      <trkpt lat="38.669248" lon="-2.765810">
        <ele>1057.405575</ele>
        <time>2020-08-07T07:49:58.591Z</time>
      </trkpt>
      <trkpt lat="38.669192" lon="-2.765907">
        <ele>1057.426433</ele>
        <time>2020-08-07T07:50:00.601Z</time>
      </trkpt>
      <trkpt lat="38.669126" lon="-2.766006">
        <ele>1057.448941</ele>
        <time>2020-08-07T07:50:02.593Z</time>
      </trkpt>
      <trkpt lat="38.669069" lon="-2.766108">
        <ele>1057.470628</ele>
        <time>2020-08-07T07:50:04.593Z</time>
      </trkpt>
      <trkpt lat="38.669014" lon="-2.766203">
        <ele>1057.491077</ele>
        <time>2020-08-07T07:50:06.596Z</time>
      </trkpt>
      <trkpt lat="38.668959" lon="-2.766306">
        <ele>1057.512652</ele>
        <time>2020-08-07T07:50:08.592Z</time>
      </trkpt>
      <trkpt lat="38.668913" lon="-2.766410">
        <ele>1057.533319</ele>
        <time>2020-08-07T07:50:10.576Z</time>
      </trkpt>
      <trkpt lat="38.668847" lon="-2.766495">
        <ele>1057.554045</ele>
        <time>2020-08-07T07:50:12.599Z</time>
      </trkpt>
      <trkpt lat="38.668773" lon="-2.766572">
        <ele>1057.575159</ele>
        <time>2020-08-07T07:50:14.599Z</time>
      </trkpt>
      <trkpt lat="38.668656" lon="-2.766658">
        <ele>1057.605032</ele>
        <time>2020-08-07T07:50:17.586Z</time>
      </trkpt>
      <trkpt lat="38.668555" lon="-2.766744">
        <ele>1057.631890</ele>
        <time>2020-08-07T07:50:20.587Z</time>
      </trkpt>
      <trkpt lat="38.668474" lon="-2.766859">
        <ele>1057.658669</ele>
        <time>2020-08-07T07:50:23.599Z</time>
      </trkpt>
      <trkpt lat="38.668398" lon="-2.766972">
        <ele>1057.653010</ele>
        <time>2020-08-07T07:50:26.597Z</time>
      </trkpt>
      <trkpt lat="38.668333" lon="-2.767096">
        <ele>1057.553720</ele>
        <time>2020-08-07T07:50:29.594Z</time>
      </trkpt>
      <trkpt lat="38.668251" lon="-2.767293">
        <ele>1057.405306</ele>
        <time>2020-08-07T07:52:05.587Z</time>
      </trkpt>
      <trkpt lat="38.668226" lon="-2.767406">
        <ele>1057.327226</ele>
        <time>2020-08-07T07:52:08.578Z</time>
      </trkpt>
      <trkpt lat="38.668192" lon="-2.767532">
        <ele>1057.238600</ele>
        <time>2020-08-07T07:52:12.599Z</time>
      </trkpt>
      <trkpt lat="38.668153" lon="-2.767650">
        <ele>1057.153414</ele>
        <time>2020-08-07T07:52:15.593Z</time>
      </trkpt>
      <trkpt lat="38.668121" lon="-2.767764">
        <ele>1057.072878</ele>
        <time>2020-08-07T07:52:18.591Z</time>
      </trkpt>
      <trkpt lat="38.668083" lon="-2.767889">
        <ele>1056.983701</ele>
        <time>2020-08-07T07:52:21.579Z</time>
      </trkpt>
      <trkpt lat="38.668042" lon="-2.768015">
        <ele>1056.892953</ele>
        <time>2020-08-07T07:52:24.589Z</time>
      </trkpt>
      <trkpt lat="38.668007" lon="-2.768127">
        <ele>1056.812753</ele>
        <time>2020-08-07T07:52:27.602Z</time>
      </trkpt>
      <trkpt lat="38.667973" lon="-2.768241">
        <ele>1056.731624</ele>
        <time>2020-08-07T07:52:30.590Z</time>
      </trkpt>
      <trkpt lat="38.667927" lon="-2.768379">
        <ele>1056.631871</ele>
        <time>2020-08-07T07:52:34.583Z</time>
      </trkpt>
      <trkpt lat="38.667893" lon="-2.768503">
        <ele>1056.544500</ele>
        <time>2020-08-07T07:52:37.583Z</time>
      </trkpt>
      <trkpt lat="38.667866" lon="-2.768648">
        <ele>1056.445400</ele>
        <time>2020-08-07T07:52:40.600Z</time>
      </trkpt>
      <trkpt lat="38.667854" lon="-2.768763">
        <ele>1056.368268</ele>
        <time>2020-08-07T07:52:42.586Z</time>
      </trkpt>
      <trkpt lat="38.667824" lon="-2.768882">
        <ele>1056.285134</ele>
        <time>2020-08-07T07:52:44.596Z</time>
      </trkpt>
      <trkpt lat="38.667783" lon="-2.769003">
        <ele>1056.197445</ele>
        <time>2020-08-07T07:52:46.597Z</time>
      </trkpt>
      <trkpt lat="38.667729" lon="-2.769140">
        <ele>1056.159100</ele>
        <time>2020-08-07T07:52:48.597Z</time>
      </trkpt>
      <trkpt lat="38.667693" lon="-2.769267">
        <ele>1056.181269</ele>
        <time>2020-08-07T07:52:50.601Z</time>
      </trkpt>
      <trkpt lat="38.667648" lon="-2.769409">
        <ele>1056.206415</ele>
        <time>2020-08-07T07:52:52.574Z</time>
      </trkpt>
      <trkpt lat="38.667634" lon="-2.769544">
        <ele>1056.228760</ele>
        <time>2020-08-07T07:52:54.591Z</time>
      </trkpt>
      <trkpt lat="38.667599" lon="-2.769722">
        <ele>1056.258878</ele>
        <time>2020-08-07T07:52:57.583Z</time>
      </trkpt>
      <trkpt lat="38.667568" lon="-2.769847">
        <ele>1056.280398</ele>
        <time>2020-08-07T07:52:59.601Z</time>
      </trkpt>
      <trkpt lat="38.667527" lon="-2.769959">
        <ele>1056.300694</ele>
        <time>2020-08-07T07:53:01.592Z</time>
      </trkpt>
      <trkpt lat="38.667506" lon="-2.770081">
        <ele>1056.321193</ele>
        <time>2020-08-07T07:53:03.596Z</time>
      </trkpt>
      <trkpt lat="38.667469" lon="-2.770253">
        <ele>1056.350466</ele>
        <time>2020-08-07T07:53:06.572Z</time>
      </trkpt>
      <trkpt lat="38.667500" lon="-2.770414">
        <ele>1056.377674</ele>
        <time>2020-08-07T07:53:09.590Z</time>
      </trkpt>
      <trkpt lat="38.667505" lon="-2.770590">
        <ele>1056.406571</ele>
        <time>2020-08-07T07:53:12.593Z</time>
      </trkpt>
      <trkpt lat="38.667476" lon="-2.770711">
        <ele>1056.427339</ele>
        <time>2020-08-07T07:53:14.605Z</time>
      </trkpt>
      <trkpt lat="38.667445" lon="-2.770869">
        <ele>1056.454070</ele>
        <time>2020-08-07T07:53:17.598Z</time>
      </trkpt>
      <trkpt lat="38.667438" lon="-2.771031">
        <ele>1056.480691</ele>
        <time>2020-08-07T07:53:20.588Z</time>
      </trkpt>
      <trkpt lat="38.667434" lon="-2.771191">
        <ele>1056.506958</ele>
        <time>2020-08-07T07:53:23.600Z</time>
      </trkpt>
      <trkpt lat="38.667411" lon="-2.771347">
        <ele>1056.367294</ele>
        <time>2020-08-07T07:53:26.593Z</time>
      </trkpt>
      <trkpt lat="38.667386" lon="-2.771499">
        <ele>1055.897753</ele>
        <time>2020-08-07T07:53:29.595Z</time>
      </trkpt>
      <trkpt lat="38.667344" lon="-2.771647">
        <ele>1055.421752</ele>
        <time>2020-08-07T07:53:32.586Z</time>
      </trkpt>
      <trkpt lat="38.667312" lon="-2.771791">
        <ele>1054.969190</ele>
        <time>2020-08-07T07:53:35.604Z</time>
      </trkpt>
      <trkpt lat="38.667278" lon="-2.771933">
        <ele>1054.520229</ele>
        <time>2020-08-07T07:53:38.612Z</time>
      </trkpt>
      <trkpt lat="38.667253" lon="-2.772054">
        <ele>1054.141887</ele>
        <time>2020-08-07T07:53:41.589Z</time>
      </trkpt>
      <trkpt lat="38.667202" lon="-2.772187">
        <ele>1053.693993</ele>
        <time>2020-08-07T07:53:45.592Z</time>
      </trkpt>
      <trkpt lat="38.667155" lon="-2.772449">
        <ele>1052.881396</ele>
        <time>2020-08-07T07:56:02.595Z</time>
      </trkpt>
      <trkpt lat="38.667198" lon="-2.772570">
        <ele>1052.479539</ele>
        <time>2020-08-07T07:56:06.594Z</time>
      </trkpt>
      <trkpt lat="38.667243" lon="-2.772706">
        <ele>1052.033053</ele>
        <time>2020-08-07T07:56:10.608Z</time>
      </trkpt>
      <trkpt lat="38.667254" lon="-2.772824">
        <ele>1051.673835</ele>
        <time>2020-08-07T07:56:13.577Z</time>
      </trkpt>
      <trkpt lat="38.667232" lon="-2.772966">
        <ele>1051.236235</ele>
        <time>2020-08-07T07:56:17.578Z</time>
      </trkpt>
      <trkpt lat="38.667181" lon="-2.773072">
        <ele>1050.859874</ele>
        <time>2020-08-07T07:56:20.594Z</time>
      </trkpt>
      <trkpt lat="38.667118" lon="-2.773167">
        <ele>1050.483112</ele>
        <time>2020-08-07T07:56:23.590Z</time>
      </trkpt>
      <trkpt lat="38.667063" lon="-2.773288">
        <ele>1050.059893</ele>
        <time>2020-08-07T07:56:27.582Z</time>
      </trkpt>
      <trkpt lat="38.667008" lon="-2.773419">
        <ele>1049.610293</ele>
        <time>2020-08-07T07:56:31.584Z</time>
      </trkpt>
      <trkpt lat="38.666975" lon="-2.773526">
        <ele>1049.717180</ele>
        <time>2020-08-07T07:56:34.592Z</time>
      </trkpt>
      <trkpt lat="38.666956" lon="-2.773643">
        <ele>1049.905892</ele>
        <time>2020-08-07T07:56:37.583Z</time>
      </trkpt>
      <trkpt lat="38.666921" lon="-2.773753">
        <ele>1050.093465</ele>
        <time>2020-08-07T07:56:40.604Z</time>
      </trkpt>
      <trkpt lat="38.666873" lon="-2.773855">
        <ele>1050.281529</ele>
        <time>2020-08-07T07:56:43.588Z</time>
      </trkpt>
      <trkpt lat="38.666805" lon="-2.773973">
        <ele>1050.513122</ele>
        <time>2020-08-07T07:56:47.596Z</time>
      </trkpt>
      <trkpt lat="38.666753" lon="-2.774098">
        <ele>1050.736782</ele>
        <time>2020-08-07T07:56:51.593Z</time>
      </trkpt>
      <trkpt lat="38.666711" lon="-2.774203">
        <ele>1050.923082</ele>
        <time>2020-08-07T07:56:54.591Z</time>
      </trkpt>
      <trkpt lat="38.666659" lon="-2.774324">
        <ele>1051.141188</ele>
        <time>2020-08-07T07:56:58.591Z</time>
      </trkpt>
      <trkpt lat="38.666623" lon="-2.774443">
        <ele>1051.342717</ele>
        <time>2020-08-07T07:57:02.589Z</time>
      </trkpt>
      <trkpt lat="38.666570" lon="-2.774577">
        <ele>1051.579921</ele>
        <time>2020-08-07T07:57:06.583Z</time>
      </trkpt>
      <trkpt lat="38.666516" lon="-2.774673">
        <ele>1051.766761</ele>
        <time>2020-08-07T07:57:09.580Z</time>
      </trkpt>
      <trkpt lat="38.666457" lon="-2.774782">
        <ele>1051.976203</ele>
        <time>2020-08-07T07:57:13.586Z</time>
      </trkpt>
      <trkpt lat="38.666377" lon="-2.774897">
        <ele>1052.219426</ele>
        <time>2020-08-07T07:57:17.581Z</time>
      </trkpt>
      <trkpt lat="38.666306" lon="-2.774980">
        <ele>1052.413844</ele>
        <time>2020-08-07T07:57:20.588Z</time>
      </trkpt>
      <trkpt lat="38.666243" lon="-2.775071">
        <ele>1052.605899</ele>
        <time>2020-08-07T07:57:23.585Z</time>
      </trkpt>
      <trkpt lat="38.666179" lon="-2.775165">
        <ele>1052.802847</ele>
        <time>2020-08-07T07:57:26.591Z</time>
      </trkpt>
      <trkpt lat="38.666118" lon="-2.775265">
        <ele>1053.003239</ele>
        <time>2020-08-07T07:57:29.583Z</time>
      </trkpt>
      <trkpt lat="38.666050" lon="-2.775364">
        <ele>1053.182070</ele>
        <time>2020-08-07T07:57:32.591Z</time>
      </trkpt>
      <trkpt lat="38.665978" lon="-2.775461">
        <ele>1052.899924</ele>
        <time>2020-08-07T07:57:35.589Z</time>
      </trkpt>
      <trkpt lat="38.665900" lon="-2.775550">
        <ele>1052.617870</ele>
        <time>2020-08-07T07:57:38.588Z</time>
      </trkpt>
      <trkpt lat="38.665828" lon="-2.775656">
        <ele>1052.321684</ele>
        <time>2020-08-07T07:57:41.583Z</time>
      </trkpt>
      <trkpt lat="38.665758" lon="-2.775768">
        <ele>1052.019246</ele>
        <time>2020-08-07T07:57:44.591Z</time>
      </trkpt>
      <trkpt lat="38.665683" lon="-2.775866">
        <ele>1051.729957</ele>
        <time>2020-08-07T07:57:47.589Z</time>
      </trkpt>
      <trkpt lat="38.665615" lon="-2.775965">
        <ele>1051.451988</ele>
        <time>2020-08-07T07:57:50.593Z</time>
      </trkpt>
      <trkpt lat="38.665541" lon="-2.776056">
        <ele>1051.175000</ele>
        <time>2020-08-07T07:57:53.597Z</time>
      </trkpt>
      <trkpt lat="38.665461" lon="-2.776139">
        <ele>1050.897023</ele>
        <time>2020-08-07T07:57:56.592Z</time>
      </trkpt>
      <trkpt lat="38.665372" lon="-2.776225">
        <ele>1050.596003</ele>
        <time>2020-08-07T07:57:59.594Z</time>
      </trkpt>
      <trkpt lat="38.665286" lon="-2.776314">
        <ele>1050.297475</ele>
        <time>2020-08-07T07:58:02.600Z</time>
      </trkpt>
      <trkpt lat="38.665197" lon="-2.776405">
        <ele>1049.989991</ele>
        <time>2020-08-07T07:58:05.592Z</time>
      </trkpt>
      <trkpt lat="38.665124" lon="-2.776499">
        <ele>1049.710496</ele>
        <time>2020-08-07T07:58:08.610Z</time>
      </trkpt>
      <trkpt lat="38.665066" lon="-2.776599">
        <ele>1049.447881</ele>
        <time>2020-08-07T07:58:11.596Z</time>
      </trkpt>
      <trkpt lat="38.664996" lon="-2.776706">
        <ele>1049.153596</ele>
        <time>2020-08-07T07:58:14.594Z</time>
      </trkpt>
      <trkpt lat="38.664925" lon="-2.776809">
        <ele>1048.863944</ele>
        <time>2020-08-07T07:58:17.590Z</time>
      </trkpt>
      <trkpt lat="38.664848" lon="-2.776900">
        <ele>1048.581057</ele>
        <time>2020-08-07T07:58:20.602Z</time>
      </trkpt>
      <trkpt lat="38.664762" lon="-2.776966">
        <ele>1048.356399</ele>
        <time>2020-08-07T07:58:23.592Z</time>
      </trkpt>
      <trkpt lat="38.664672" lon="-2.777006">
        <ele>1048.466557</ele>
        <time>2020-08-07T07:58:26.602Z</time>
      </trkpt>
      <trkpt lat="38.664579" lon="-2.777040">
        <ele>1048.578390</ele>
        <time>2020-08-07T07:58:29.591Z</time>
      </trkpt>
      <trkpt lat="38.664477" lon="-2.777113">
        <ele>1048.713502</ele>
        <time>2020-08-07T07:58:33.594Z</time>
      </trkpt>
      <trkpt lat="38.664400" lon="-2.777174">
        <ele>1048.818196</ele>
        <time>2020-08-07T07:58:36.595Z</time>
      </trkpt>
      <trkpt lat="38.664316" lon="-2.777246">
        <ele>1048.935073</ele>
        <time>2020-08-07T07:58:39.592Z</time>
      </trkpt>
      <trkpt lat="38.664237" lon="-2.777328">
        <ele>1049.052657</ele>
        <time>2020-08-07T07:58:42.597Z</time>
      </trkpt>
      <trkpt lat="38.664155" lon="-2.777413">
        <ele>1049.174642</ele>
        <time>2020-08-07T07:58:45.605Z</time>
      </trkpt>
      <trkpt lat="38.664064" lon="-2.777495">
        <ele>1049.303303</ele>
        <time>2020-08-07T07:58:48.604Z</time>
      </trkpt>
      <trkpt lat="38.663988" lon="-2.777578">
        <ele>1049.418797</ele>
        <time>2020-08-07T07:58:51.603Z</time>
      </trkpt>
      <trkpt lat="38.663907" lon="-2.777651">
        <ele>1049.533326</ele>
        <time>2020-08-07T07:58:54.598Z</time>
      </trkpt>
      <trkpt lat="38.663827" lon="-2.777741">
        <ele>1049.656453</ele>
        <time>2020-08-07T07:58:57.603Z</time>
      </trkpt>
      <trkpt lat="38.663747" lon="-2.777833">
        <ele>1049.780780</ele>
        <time>2020-08-07T07:59:00.601Z</time>
      </trkpt>
      <trkpt lat="38.663668" lon="-2.777921">
        <ele>1049.901849</ele>
        <time>2020-08-07T07:59:03.588Z</time>
      </trkpt>
      <trkpt lat="38.663593" lon="-2.778016">
        <ele>1050.023826</ele>
        <time>2020-08-07T07:59:06.597Z</time>
      </trkpt>
      <trkpt lat="38.663516" lon="-2.778109">
        <ele>1050.146211</ele>
        <time>2020-08-07T07:59:09.591Z</time>
      </trkpt>
      <trkpt lat="38.663446" lon="-2.778197">
        <ele>1050.259634</ele>
        <time>2020-08-07T07:59:12.591Z</time>
      </trkpt>
      <trkpt lat="38.663358" lon="-2.778273">
        <ele>1050.382365</ele>
        <time>2020-08-07T07:59:15.622Z</time>
      </trkpt>
      <trkpt lat="38.663275" lon="-2.778353">
        <ele>1050.479659</ele>
        <time>2020-08-07T07:59:18.604Z</time>
      </trkpt>
      <trkpt lat="38.663198" lon="-2.778428">
        <ele>1050.559637</ele>
        <time>2020-08-07T07:59:21.603Z</time>
      </trkpt>
      <trkpt lat="38.663108" lon="-2.778524">
        <ele>1050.656471</ele>
        <time>2020-08-07T07:59:25.591Z</time>
      </trkpt>
      <trkpt lat="38.663030" lon="-2.778590">
        <ele>1050.733760</ele>
        <time>2020-08-07T07:59:28.598Z</time>
      </trkpt>
      <trkpt lat="38.662959" lon="-2.778672">
        <ele>1050.812801</ele>
        <time>2020-08-07T07:59:32.448Z</time>
      </trkpt>
      <trkpt lat="38.662896" lon="-2.778758">
        <ele>1050.888925</ele>
        <time>2020-08-07T07:59:35.460Z</time>
      </trkpt>
      <trkpt lat="38.662829" lon="-2.778837">
        <ele>1050.964218</ele>
        <time>2020-08-07T07:59:38.472Z</time>
      </trkpt>
      <trkpt lat="38.662751" lon="-2.778926">
        <ele>1051.050585</ele>
        <time>2020-08-07T07:59:41.453Z</time>
      </trkpt>
      <trkpt lat="38.662677" lon="-2.779022">
        <ele>1051.137667</ele>
        <time>2020-08-07T07:59:44.471Z</time>
      </trkpt>
      <trkpt lat="38.662601" lon="-2.779116">
        <ele>1051.225018</ele>
        <time>2020-08-07T07:59:47.450Z</time>
      </trkpt>
      <trkpt lat="38.662527" lon="-2.779210">
        <ele>1051.311186</ele>
        <time>2020-08-07T07:59:50.452Z</time>
      </trkpt>
      <trkpt lat="38.662463" lon="-2.779300">
        <ele>1051.389768</ele>
        <time>2020-08-07T07:59:53.461Z</time>
      </trkpt>
      <trkpt lat="38.662392" lon="-2.779388">
        <ele>1051.471454</ele>
        <time>2020-08-07T07:59:56.515Z</time>
      </trkpt>
      <trkpt lat="38.662318" lon="-2.779469">
        <ele>1051.551934</ele>
        <time>2020-08-07T07:59:59.453Z</time>
      </trkpt>
      <trkpt lat="38.662242" lon="-2.779558">
        <ele>1051.637074</ele>
        <time>2020-08-07T08:00:02.457Z</time>
      </trkpt>
      <trkpt lat="38.662166" lon="-2.779649">
        <ele>1051.723090</ele>
        <time>2020-08-07T08:00:05.468Z</time>
      </trkpt>
      <trkpt lat="38.662095" lon="-2.779741">
        <ele>1051.806593</ele>
        <time>2020-08-07T08:00:08.450Z</time>
      </trkpt>
      <trkpt lat="38.662017" lon="-2.779840">
        <ele>1051.897383</ele>
        <time>2020-08-07T08:00:11.448Z</time>
      </trkpt>
      <trkpt lat="38.661936" lon="-2.779938">
        <ele>1051.807644</ele>
        <time>2020-08-07T08:00:14.457Z</time>
      </trkpt>
      <trkpt lat="38.661854" lon="-2.780037">
        <ele>1051.689282</ele>
        <time>2020-08-07T08:00:17.461Z</time>
      </trkpt>
      <trkpt lat="38.661775" lon="-2.780125">
        <ele>1051.579313</ele>
        <time>2020-08-07T08:00:20.444Z</time>
      </trkpt>
      <trkpt lat="38.661696" lon="-2.780215">
        <ele>1051.468260</ele>
        <time>2020-08-07T08:00:23.474Z</time>
      </trkpt>
      <trkpt lat="38.661609" lon="-2.780292">
        <ele>1051.357186</ele>
        <time>2020-08-07T08:00:26.468Z</time>
      </trkpt>
      <trkpt lat="38.661518" lon="-2.780356">
        <ele>1051.248145</ele>
        <time>2020-08-07T08:00:29.465Z</time>
      </trkpt>
      <trkpt lat="38.661429" lon="-2.780437">
        <ele>1051.133467</ele>
        <time>2020-08-07T08:00:32.465Z</time>
      </trkpt>
      <trkpt lat="38.661337" lon="-2.780514">
        <ele>1051.018034</ele>
        <time>2020-08-07T08:00:35.450Z</time>
      </trkpt>
      <trkpt lat="38.661250" lon="-2.780589">
        <ele>1050.907885</ele>
        <time>2020-08-07T08:00:38.467Z</time>
      </trkpt>
      <trkpt lat="38.661162" lon="-2.780664">
        <ele>1050.796862</ele>
        <time>2020-08-07T08:00:41.463Z</time>
      </trkpt>
      <trkpt lat="38.661083" lon="-2.780744">
        <ele>1050.691082</ele>
        <time>2020-08-07T08:00:44.447Z</time>
      </trkpt>
      <trkpt lat="38.661008" lon="-2.780811">
        <ele>1050.595038</ele>
        <time>2020-08-07T08:00:47.456Z</time>
      </trkpt>
      <trkpt lat="38.660930" lon="-2.780871">
        <ele>1050.499472</ele>
        <time>2020-08-07T08:00:50.460Z</time>
      </trkpt>
      <trkpt lat="38.660844" lon="-2.780926">
        <ele>1050.398510</ele>
        <time>2020-08-07T08:00:53.457Z</time>
      </trkpt>
      <trkpt lat="38.660756" lon="-2.780980">
        <ele>1050.296021</ele>
        <time>2020-08-07T08:00:56.440Z</time>
      </trkpt>
      <trkpt lat="38.660682" lon="-2.781055">
        <ele>1050.196904</ele>
        <time>2020-08-07T08:00:59.455Z</time>
      </trkpt>
      <trkpt lat="38.660623" lon="-2.781151">
        <ele>1050.096709</ele>
        <time>2020-08-07T08:01:02.454Z</time>
      </trkpt>
      <trkpt lat="38.660557" lon="-2.781253">
        <ele>1050.009864</ele>
        <time>2020-08-07T08:01:05.460Z</time>
      </trkpt>
      <trkpt lat="38.660481" lon="-2.781331">
        <ele>1049.976762</ele>
        <time>2020-08-07T08:01:08.460Z</time>
      </trkpt>
      <trkpt lat="38.660396" lon="-2.781420">
        <ele>1049.939444</ele>
        <time>2020-08-07T08:01:12.450Z</time>
      </trkpt>
      <trkpt lat="38.660316" lon="-2.781502">
        <ele>1049.904617</ele>
        <time>2020-08-07T08:01:16.469Z</time>
      </trkpt>
      <trkpt lat="38.660220" lon="-2.781599">
        <ele>1049.863055</ele>
        <time>2020-08-07T08:01:20.455Z</time>
      </trkpt>
      <trkpt lat="38.660138" lon="-2.781678">
        <ele>1049.828179</ele>
        <time>2020-08-07T08:01:23.460Z</time>
      </trkpt>
      <trkpt lat="38.660060" lon="-2.781773">
        <ele>1049.791593</ele>
        <time>2020-08-07T08:01:26.438Z</time>
      </trkpt>
      <trkpt lat="38.659986" lon="-2.781894">
        <ele>1049.750802</ele>
        <time>2020-08-07T08:01:29.453Z</time>
      </trkpt>
      <trkpt lat="38.659917" lon="-2.782041">
        <ele>1049.705282</ele>
        <time>2020-08-07T08:01:32.445Z</time>
      </trkpt>
      <trkpt lat="38.659879" lon="-2.782146">
        <ele>1049.674567</ele>
        <time>2020-08-07T08:01:34.448Z</time>
      </trkpt>
      <trkpt lat="38.659823" lon="-2.782298">
        <ele>1049.629961</ele>
        <time>2020-08-07T08:01:37.459Z</time>
      </trkpt>
      <trkpt lat="38.659749" lon="-2.782429">
        <ele>1049.587049</ele>
        <time>2020-08-07T08:01:40.446Z</time>
      </trkpt>
      <trkpt lat="38.659667" lon="-2.782549">
        <ele>1049.544728</ele>
        <time>2020-08-07T08:01:43.442Z</time>
      </trkpt>
      <trkpt lat="38.659570" lon="-2.782653">
        <ele>1049.501730</ele>
        <time>2020-08-07T08:01:46.454Z</time>
      </trkpt>
      <trkpt lat="38.659473" lon="-2.782747">
        <ele>1049.460386</ele>
        <time>2020-08-07T08:01:49.445Z</time>
      </trkpt>
      <trkpt lat="38.659373" lon="-2.782853">
        <ele>1049.416265</ele>
        <time>2020-08-07T08:01:52.439Z</time>
      </trkpt>
      <trkpt lat="38.659273" lon="-2.782961">
        <ele>1049.444243</ele>
        <time>2020-08-07T08:01:55.448Z</time>
      </trkpt>
      <trkpt lat="38.659174" lon="-2.783064">
        <ele>1049.485398</ele>
        <time>2020-08-07T08:01:58.466Z</time>
      </trkpt>
      <trkpt lat="38.659067" lon="-2.783160">
        <ele>1049.527552</ele>
        <time>2020-08-07T08:02:01.452Z</time>
      </trkpt>
      <trkpt lat="38.658961" lon="-2.783241">
        <ele>1049.567379</ele>
        <time>2020-08-07T08:02:04.453Z</time>
      </trkpt>
      <trkpt lat="38.658858" lon="-2.783318">
        <ele>1049.605860</ele>
        <time>2020-08-07T08:02:07.443Z</time>
      </trkpt>
      <trkpt lat="38.658758" lon="-2.783401">
        <ele>1049.644310</ele>
        <time>2020-08-07T08:02:10.458Z</time>
      </trkpt>
      <trkpt lat="38.658668" lon="-2.783514">
        <ele>1049.684977</ele>
        <time>2020-08-07T08:02:13.457Z</time>
      </trkpt>
      <trkpt lat="38.658581" lon="-2.783623">
        <ele>1049.724248</ele>
        <time>2020-08-07T08:02:16.446Z</time>
      </trkpt>
      <trkpt lat="38.658488" lon="-2.783727">
        <ele>1049.764085</ele>
        <time>2020-08-07T08:02:19.460Z</time>
      </trkpt>
      <trkpt lat="38.658390" lon="-2.783837">
        <ele>1049.806132</ele>
        <time>2020-08-07T08:02:22.463Z</time>
      </trkpt>
      <trkpt lat="38.658301" lon="-2.783949">
        <ele>1049.846392</ele>
        <time>2020-08-07T08:02:25.467Z</time>
      </trkpt>
      <trkpt lat="38.658203" lon="-2.784050">
        <ele>1049.886980</ele>
        <time>2020-08-07T08:02:28.470Z</time>
      </trkpt>
      <trkpt lat="38.658096" lon="-2.784136">
        <ele>1049.927741</ele>
        <time>2020-08-07T08:02:31.464Z</time>
      </trkpt>
      <trkpt lat="38.657987" lon="-2.784204">
        <ele>1049.966861</ele>
        <time>2020-08-07T08:02:34.481Z</time>
      </trkpt>
      <trkpt lat="38.657881" lon="-2.784262">
        <ele>1050.005015</ele>
        <time>2020-08-07T08:02:37.476Z</time>
      </trkpt>
      <trkpt lat="38.657777" lon="-2.784316">
        <ele>1050.043586</ele>
        <time>2020-08-07T08:02:40.464Z</time>
      </trkpt>
      <trkpt lat="38.657675" lon="-2.784380">
        <ele>1050.082625</ele>
        <time>2020-08-07T08:02:43.464Z</time>
      </trkpt>
      <trkpt lat="38.657578" lon="-2.784453">
        <ele>1050.121295</ele>
        <time>2020-08-07T08:02:46.469Z</time>
      </trkpt>
      <trkpt lat="38.657474" lon="-2.784521">
        <ele>1050.161429</ele>
        <time>2020-08-07T08:02:49.448Z</time>
      </trkpt>
      <trkpt lat="38.657369" lon="-2.784579">
        <ele>1050.200732</ele>
        <time>2020-08-07T08:02:52.451Z</time>
      </trkpt>
      <trkpt lat="38.657277" lon="-2.784654">
        <ele>1050.238215</ele>
        <time>2020-08-07T08:02:55.457Z</time>
      </trkpt>
      <trkpt lat="38.657194" lon="-2.784735">
        <ele>1050.274082</ele>
        <time>2020-08-07T08:02:58.451Z</time>
      </trkpt>
      <trkpt lat="38.657098" lon="-2.784806">
        <ele>1050.312184</ele>
        <time>2020-08-07T08:03:01.451Z</time>
      </trkpt>
      <trkpt lat="38.656998" lon="-2.784882">
        <ele>1050.352151</ele>
        <time>2020-08-07T08:03:04.465Z</time>
      </trkpt>
      <trkpt lat="38.656910" lon="-2.784964">
        <ele>1050.389556</ele>
        <time>2020-08-07T08:03:07.457Z</time>
      </trkpt>
      <trkpt lat="38.656817" lon="-2.785044">
        <ele>1050.428062</ele>
        <time>2020-08-07T08:03:10.462Z</time>
      </trkpt>
      <trkpt lat="38.656714" lon="-2.785106">
        <ele>1050.467179</ele>
        <time>2020-08-07T08:03:13.461Z</time>
      </trkpt>
      <trkpt lat="38.656596" lon="-2.785151">
        <ele>1050.509495</ele>
        <time>2020-08-07T08:03:16.462Z</time>
      </trkpt>
      <trkpt lat="38.656484" lon="-2.785190">
        <ele>1050.549387</ele>
        <time>2020-08-07T08:03:19.453Z</time>
      </trkpt>
      <trkpt lat="38.656375" lon="-2.785227">
        <ele>1050.588144</ele>
        <time>2020-08-07T08:03:22.460Z</time>
      </trkpt>
      <trkpt lat="38.656263" lon="-2.785277">
        <ele>1050.801510</ele>
        <time>2020-08-07T08:03:25.449Z</time>
      </trkpt>
      <trkpt lat="38.656163" lon="-2.785357">
        <ele>1051.168582</ele>
        <time>2020-08-07T08:03:28.466Z</time>
      </trkpt>
      <trkpt lat="38.656078" lon="-2.785435">
        <ele>1051.494127</ele>
        <time>2020-08-07T08:03:31.470Z</time>
      </trkpt>
      <trkpt lat="38.656005" lon="-2.785503">
        <ele>1051.775153</ele>
        <time>2020-08-07T08:03:34.444Z</time>
      </trkpt>
      <trkpt lat="38.655934" lon="-2.785594">
        <ele>1052.087879</ele>
        <time>2020-08-07T08:03:37.498Z</time>
      </trkpt>
      <trkpt lat="38.655876" lon="-2.785705">
        <ele>1052.412567</ele>
        <time>2020-08-07T08:03:40.438Z</time>
      </trkpt>
      <trkpt lat="38.655833" lon="-2.785806">
        <ele>1052.692227</ele>
        <time>2020-08-07T08:03:43.447Z</time>
      </trkpt>
      <trkpt lat="38.655778" lon="-2.785936">
        <ele>1053.051671</ele>
        <time>2020-08-07T08:03:47.444Z</time>
      </trkpt>
      <trkpt lat="38.655743" lon="-2.786060">
        <ele>1053.372214</ele>
        <time>2020-08-07T08:03:51.447Z</time>
      </trkpt>
      <trkpt lat="38.655738" lon="-2.786197">
        <ele>1053.705637</ele>
        <time>2020-08-07T08:03:55.447Z</time>
      </trkpt>
      <trkpt lat="38.655745" lon="-2.786331">
        <ele>1054.032132</ele>
        <time>2020-08-07T08:03:59.454Z</time>
      </trkpt>
      <trkpt lat="38.655741" lon="-2.786470">
        <ele>1054.370283</ele>
        <time>2020-08-07T08:04:03.452Z</time>
      </trkpt>
      <trkpt lat="38.655712" lon="-2.786587">
        <ele>1054.668705</ele>
        <time>2020-08-07T08:04:06.456Z</time>
      </trkpt>
      <trkpt lat="38.655679" lon="-2.786696">
        <ele>1054.952912</ele>
        <time>2020-08-07T08:04:09.456Z</time>
      </trkpt>
      <trkpt lat="38.655647" lon="-2.786839">
        <ele>1055.314551</ele>
        <time>2020-08-07T08:04:13.452Z</time>
      </trkpt>
      <trkpt lat="38.655625" lon="-2.786962">
        <ele>1055.621319</ele>
        <time>2020-08-07T08:04:16.451Z</time>
      </trkpt>
      <trkpt lat="38.655598" lon="-2.787084">
        <ele>1055.929594</ele>
        <time>2020-08-07T08:04:19.444Z</time>
      </trkpt>
      <trkpt lat="38.655561" lon="-2.787193">
        <ele>1056.217532</ele>
        <time>2020-08-07T08:04:22.463Z</time>
      </trkpt>
      <trkpt lat="38.655517" lon="-2.787305">
        <ele>1056.495976</ele>
        <time>2020-08-07T08:04:25.468Z</time>
      </trkpt>
      <trkpt lat="38.655484" lon="-2.787419">
        <ele>1056.765994</ele>
        <time>2020-08-07T08:04:28.451Z</time>
      </trkpt>
      <trkpt lat="38.655455" lon="-2.787543">
        <ele>1057.053471</ele>
        <time>2020-08-07T08:04:31.456Z</time>
      </trkpt>
      <trkpt lat="38.655422" lon="-2.787674">
        <ele>1057.359173</ele>
        <time>2020-08-07T08:04:34.453Z</time>
      </trkpt>
      <trkpt lat="38.655381" lon="-2.787799">
        <ele>1057.660281</ele>
        <time>2020-08-07T08:04:37.468Z</time>
      </trkpt>
      <trkpt lat="38.655325" lon="-2.787912">
        <ele>1057.957513</ele>
        <time>2020-08-07T08:04:40.450Z</time>
      </trkpt>
      <trkpt lat="38.655270" lon="-2.788026">
        <ele>1058.255119</ele>
        <time>2020-08-07T08:04:43.457Z</time>
      </trkpt>
      <trkpt lat="38.655217" lon="-2.788147">
        <ele>1058.563235</ele>
        <time>2020-08-07T08:04:46.460Z</time>
      </trkpt>
      <trkpt lat="38.655172" lon="-2.788274">
        <ele>1058.872968</ele>
        <time>2020-08-07T08:04:49.458Z</time>
      </trkpt>
      <trkpt lat="38.655137" lon="-2.788403">
        <ele>1059.176266</ele>
        <time>2020-08-07T08:04:52.454Z</time>
      </trkpt>
      <trkpt lat="38.655092" lon="-2.788576">
        <ele>1059.581239</ele>
        <time>2020-08-07T08:04:56.452Z</time>
      </trkpt>
      <trkpt lat="38.655054" lon="-2.788692">
        <ele>1059.860615</ele>
        <time>2020-08-07T08:04:59.462Z</time>
      </trkpt>
      <trkpt lat="38.655012" lon="-2.788814">
        <ele>1060.156727</ele>
        <time>2020-08-07T08:05:02.450Z</time>
      </trkpt>
      <trkpt lat="38.654977" lon="-2.788936">
        <ele>1060.445385</ele>
        <time>2020-08-07T08:05:05.454Z</time>
      </trkpt>
      <trkpt lat="38.654937" lon="-2.789056">
        <ele>1060.735160</ele>
        <time>2020-08-07T08:05:08.467Z</time>
      </trkpt>
      <trkpt lat="38.654890" lon="-2.789163">
        <ele>1061.007812</ele>
        <time>2020-08-07T08:05:11.447Z</time>
      </trkpt>
      <trkpt lat="38.654839" lon="-2.789273">
        <ele>1061.291926</ele>
        <time>2020-08-07T08:05:14.454Z</time>
      </trkpt>
      <trkpt lat="38.654786" lon="-2.789385">
        <ele>1061.489453</ele>
        <time>2020-08-07T08:05:17.454Z</time>
      </trkpt>
      <trkpt lat="38.654736" lon="-2.789481">
        <ele>1061.653939</ele>
        <time>2020-08-07T08:05:20.458Z</time>
      </trkpt>
      <trkpt lat="38.654674" lon="-2.789599">
        <ele>1061.856671</ele>
        <time>2020-08-07T08:05:24.489Z</time>
      </trkpt>
      <trkpt lat="38.654606" lon="-2.789716">
        <ele>1062.064568</ele>
        <time>2020-08-07T08:05:28.462Z</time>
      </trkpt>
      <trkpt lat="38.654546" lon="-2.789845">
        <ele>1062.278596</ele>
        <time>2020-08-07T08:05:32.459Z</time>
      </trkpt>
      <trkpt lat="38.654497" lon="-2.789955">
        <ele>1062.459112</ele>
        <time>2020-08-07T08:05:35.456Z</time>
      </trkpt>
      <trkpt lat="38.654436" lon="-2.790064">
        <ele>1062.650264</ele>
        <time>2020-08-07T08:05:38.450Z</time>
      </trkpt>
      <trkpt lat="38.654376" lon="-2.790178">
        <ele>1062.846228</ele>
        <time>2020-08-07T08:05:41.462Z</time>
      </trkpt>
      <trkpt lat="38.654324" lon="-2.790300">
        <ele>1063.044351</ele>
        <time>2020-08-07T08:05:44.452Z</time>
      </trkpt>
      <trkpt lat="38.654266" lon="-2.790453">
        <ele>1063.286784</ele>
        <time>2020-08-07T08:05:48.442Z</time>
      </trkpt>
      <trkpt lat="38.654217" lon="-2.790566">
        <ele>1063.471028</ele>
        <time>2020-08-07T08:05:51.453Z</time>
      </trkpt>
      <trkpt lat="38.654162" lon="-2.790677">
        <ele>1063.658416</ele>
        <time>2020-08-07T08:05:54.449Z</time>
      </trkpt>
      <trkpt lat="38.654103" lon="-2.790791">
        <ele>1063.853366</ele>
        <time>2020-08-07T08:05:57.447Z</time>
      </trkpt>
      <trkpt lat="38.654048" lon="-2.790906">
        <ele>1064.045593</ele>
        <time>2020-08-07T08:06:00.463Z</time>
      </trkpt>
      <trkpt lat="38.653990" lon="-2.791022">
        <ele>1064.241936</ele>
        <time>2020-08-07T08:06:03.458Z</time>
      </trkpt>
      <trkpt lat="38.653932" lon="-2.791144">
        <ele>1064.445533</ele>
        <time>2020-08-07T08:06:06.456Z</time>
      </trkpt>
      <trkpt lat="38.653878" lon="-2.791265">
        <ele>1064.606807</ele>
        <time>2020-08-07T08:06:09.467Z</time>
      </trkpt>
      <trkpt lat="38.653820" lon="-2.791387">
        <ele>1064.614402</ele>
        <time>2020-08-07T08:06:12.459Z</time>
      </trkpt>
      <trkpt lat="38.653761" lon="-2.791507">
        <ele>1064.621942</ele>
        <time>2020-08-07T08:06:15.457Z</time>
      </trkpt>
      <trkpt lat="38.653702" lon="-2.791632">
        <ele>1064.629708</ele>
        <time>2020-08-07T08:06:18.464Z</time>
      </trkpt>
      <trkpt lat="38.653641" lon="-2.791760">
        <ele>1064.637681</ele>
        <time>2020-08-07T08:06:21.447Z</time>
      </trkpt>
      <trkpt lat="38.653577" lon="-2.791892">
        <ele>1064.645943</ele>
        <time>2020-08-07T08:06:24.460Z</time>
      </trkpt>
      <trkpt lat="38.653522" lon="-2.792013">
        <ele>1064.653387</ele>
        <time>2020-08-07T08:06:27.449Z</time>
      </trkpt>
      <trkpt lat="38.653468" lon="-2.792148">
        <ele>1064.661452</ele>
        <time>2020-08-07T08:06:30.453Z</time>
      </trkpt>
      <trkpt lat="38.653403" lon="-2.792286">
        <ele>1064.670021</ele>
        <time>2020-08-07T08:06:33.450Z</time>
      </trkpt>
      <trkpt lat="38.653329" lon="-2.792427">
        <ele>1064.679054</ele>
        <time>2020-08-07T08:06:36.456Z</time>
      </trkpt>
      <trkpt lat="38.653280" lon="-2.792526">
        <ele>1064.685287</ele>
        <time>2020-08-07T08:06:38.455Z</time>
      </trkpt>
      <trkpt lat="38.653225" lon="-2.792617">
        <ele>1064.691405</ele>
        <time>2020-08-07T08:06:40.456Z</time>
      </trkpt>
      <trkpt lat="38.653162" lon="-2.792764">
        <ele>1064.700321</ele>
        <time>2020-08-07T08:06:43.466Z</time>
      </trkpt>
      <trkpt lat="38.653117" lon="-2.792866">
        <ele>1064.706551</ele>
        <time>2020-08-07T08:06:45.458Z</time>
      </trkpt>
      <trkpt lat="38.653047" lon="-2.793002">
        <ele>1064.715211</ele>
        <time>2020-08-07T08:06:48.445Z</time>
      </trkpt>
      <trkpt lat="38.652988" lon="-2.793144">
        <ele>1064.723764</ele>
        <time>2020-08-07T08:06:51.446Z</time>
      </trkpt>
      <trkpt lat="38.652930" lon="-2.793277">
        <ele>1064.678994</ele>
        <time>2020-08-07T08:06:54.465Z</time>
      </trkpt>
      <trkpt lat="38.652862" lon="-2.793401">
        <ele>1064.581600</ele>
        <time>2020-08-07T08:06:57.451Z</time>
      </trkpt>
      <trkpt lat="38.652790" lon="-2.793533">
        <ele>1064.478106</ele>
        <time>2020-08-07T08:07:00.461Z</time>
      </trkpt>
      <trkpt lat="38.652708" lon="-2.793665">
        <ele>1064.369688</ele>
        <time>2020-08-07T08:07:03.450Z</time>
      </trkpt>
      <trkpt lat="38.652672" lon="-2.793775">
        <ele>1064.293023</ele>
        <time>2020-08-07T08:07:05.457Z</time>
      </trkpt>
      <trkpt lat="38.652594" lon="-2.793923">
        <ele>1064.178254</ele>
        <time>2020-08-07T08:07:08.468Z</time>
      </trkpt>
      <trkpt lat="38.652547" lon="-2.794027">
        <ele>1064.101018</ele>
        <time>2020-08-07T08:07:10.459Z</time>
      </trkpt>
      <trkpt lat="38.652502" lon="-2.794141">
        <ele>1064.018911</ele>
        <time>2020-08-07T08:07:12.459Z</time>
      </trkpt>
      <trkpt lat="38.652421" lon="-2.794273">
        <ele>1063.911003</ele>
        <time>2020-08-07T08:07:15.453Z</time>
      </trkpt>
      <trkpt lat="38.652375" lon="-2.794386">
        <ele>1063.829092</ele>
        <time>2020-08-07T08:07:17.471Z</time>
      </trkpt>
      <trkpt lat="38.652316" lon="-2.794537">
        <ele>1063.720560</ele>
        <time>2020-08-07T08:07:20.452Z</time>
      </trkpt>
      <trkpt lat="38.652258" lon="-2.794690">
        <ele>1063.611239</ele>
        <time>2020-08-07T08:07:23.455Z</time>
      </trkpt>
      <trkpt lat="38.652202" lon="-2.794827">
        <ele>1063.511843</ele>
        <time>2020-08-07T08:07:26.457Z</time>
      </trkpt>
      <trkpt lat="38.652135" lon="-2.794972">
        <ele>1063.403546</ele>
        <time>2020-08-07T08:07:29.455Z</time>
      </trkpt>
      <trkpt lat="38.652067" lon="-2.795103">
        <ele>1063.302436</ele>
        <time>2020-08-07T08:07:32.450Z</time>
      </trkpt>
      <trkpt lat="38.651995" lon="-2.795234">
        <ele>1063.210259</ele>
        <time>2020-08-07T08:07:35.451Z</time>
      </trkpt>
      <trkpt lat="38.651934" lon="-2.795369">
        <ele>1063.132584</ele>
        <time>2020-08-07T08:07:38.471Z</time>
      </trkpt>
      <trkpt lat="38.651873" lon="-2.795491">
        <ele>1063.060440</ele>
        <time>2020-08-07T08:07:41.469Z</time>
      </trkpt>
      <trkpt lat="38.651809" lon="-2.795614">
        <ele>1062.986833</ele>
        <time>2020-08-07T08:07:44.460Z</time>
      </trkpt>
      <trkpt lat="38.651752" lon="-2.795734">
        <ele>1062.916884</ele>
        <time>2020-08-07T08:07:47.460Z</time>
      </trkpt>
      <trkpt lat="38.651693" lon="-2.795846">
        <ele>1062.849603</ele>
        <time>2020-08-07T08:07:50.459Z</time>
      </trkpt>
      <trkpt lat="38.651628" lon="-2.795959">
        <ele>1062.779709</ele>
        <time>2020-08-07T08:07:53.444Z</time>
      </trkpt>
      <trkpt lat="38.651570" lon="-2.796079">
        <ele>1062.709427</ele>
        <time>2020-08-07T08:07:56.450Z</time>
      </trkpt>
      <trkpt lat="38.651516" lon="-2.796203">
        <ele>1062.638720</ele>
        <time>2020-08-07T08:07:59.461Z</time>
      </trkpt>
      <trkpt lat="38.651463" lon="-2.796328">
        <ele>1062.567884</ele>
        <time>2020-08-07T08:08:02.450Z</time>
      </trkpt>
      <trkpt lat="38.651407" lon="-2.796472">
        <ele>1062.487770</ele>
        <time>2020-08-07T08:08:05.469Z</time>
      </trkpt>
      <trkpt lat="38.651343" lon="-2.796615">
        <ele>1062.405687</ele>
        <time>2020-08-07T08:08:08.463Z</time>
      </trkpt>
      <trkpt lat="38.651288" lon="-2.796769">
        <ele>1062.321352</ele>
        <time>2020-08-07T08:08:11.450Z</time>
      </trkpt>
      <trkpt lat="38.651242" lon="-2.796875">
        <ele>1062.260959</ele>
        <time>2020-08-07T08:08:13.457Z</time>
      </trkpt>
      <trkpt lat="38.651190" lon="-2.796983">
        <ele>1062.197772</ele>
        <time>2020-08-07T08:08:15.456Z</time>
      </trkpt>
      <trkpt lat="38.651137" lon="-2.797096">
        <ele>1062.132126</ele>
        <time>2020-08-07T08:08:17.456Z</time>
      </trkpt>
      <trkpt lat="38.651085" lon="-2.797205">
        <ele>1062.055056</ele>
        <time>2020-08-07T08:08:19.462Z</time>
      </trkpt>
      <trkpt lat="38.651035" lon="-2.797305">
        <ele>1061.970948</ele>
        <time>2020-08-07T08:08:21.460Z</time>
      </trkpt>
      <trkpt lat="38.650975" lon="-2.797418">
        <ele>1061.874157</ele>
        <time>2020-08-07T08:08:23.447Z</time>
      </trkpt>
      <trkpt lat="38.650919" lon="-2.797527">
        <ele>1061.781739</ele>
        <time>2020-08-07T08:08:25.456Z</time>
      </trkpt>
      <trkpt lat="38.650855" lon="-2.797641">
        <ele>1061.682289</ele>
        <time>2020-08-07T08:08:27.447Z</time>
      </trkpt>
      <trkpt lat="38.650803" lon="-2.797755">
        <ele>1061.588772</ele>
        <time>2020-08-07T08:08:29.444Z</time>
      </trkpt>
      <trkpt lat="38.650748" lon="-2.797875">
        <ele>1061.490214</ele>
        <time>2020-08-07T08:08:31.448Z</time>
      </trkpt>
      <trkpt lat="38.650700" lon="-2.797975">
        <ele>1061.407070</ele>
        <time>2020-08-07T08:08:33.453Z</time>
      </trkpt>
      <trkpt lat="38.650642" lon="-2.798087">
        <ele>1061.311878</ele>
        <time>2020-08-07T08:08:35.461Z</time>
      </trkpt>
      <trkpt lat="38.650589" lon="-2.798195">
        <ele>1061.221527</ele>
        <time>2020-08-07T08:08:37.461Z</time>
      </trkpt>
      <trkpt lat="38.650543" lon="-2.798296">
        <ele>1061.138707</ele>
        <time>2020-08-07T08:08:39.448Z</time>
      </trkpt>
      <trkpt lat="38.650482" lon="-2.798391">
        <ele>1061.051589</ele>
        <time>2020-08-07T08:08:41.473Z</time>
      </trkpt>
      <trkpt lat="38.650434" lon="-2.798536">
        <ele>1060.940033</ele>
        <time>2020-08-07T08:08:44.456Z</time>
      </trkpt>
      <trkpt lat="38.650357" lon="-2.798674">
        <ele>1060.819895</ele>
        <time>2020-08-07T08:08:47.457Z</time>
      </trkpt>
      <trkpt lat="38.650303" lon="-2.798820">
        <ele>1060.705464</ele>
        <time>2020-08-07T08:08:50.479Z</time>
      </trkpt>
      <trkpt lat="38.650242" lon="-2.798941">
        <ele>1060.603448</ele>
        <time>2020-08-07T08:08:53.466Z</time>
      </trkpt>
      <trkpt lat="38.650188" lon="-2.799078">
        <ele>1060.494744</ele>
        <time>2020-08-07T08:08:56.454Z</time>
      </trkpt>
      <trkpt lat="38.650124" lon="-2.799206">
        <ele>1060.335333</ele>
        <time>2020-08-07T08:08:59.444Z</time>
      </trkpt>
      <trkpt lat="38.650063" lon="-2.799333">
        <ele>1060.162994</ele>
        <time>2020-08-07T08:09:02.446Z</time>
      </trkpt>
      <trkpt lat="38.649994" lon="-2.799463">
        <ele>1059.981310</ele>
        <time>2020-08-07T08:09:05.441Z</time>
      </trkpt>
      <trkpt lat="38.649939" lon="-2.799602">
        <ele>1059.801196</ele>
        <time>2020-08-07T08:09:08.448Z</time>
      </trkpt>
      <trkpt lat="38.649884" lon="-2.799740">
        <ele>1059.622112</ele>
        <time>2020-08-07T08:09:11.449Z</time>
      </trkpt>
      <trkpt lat="38.649829" lon="-2.799876">
        <ele>1059.445085</ele>
        <time>2020-08-07T08:09:14.449Z</time>
      </trkpt>
      <trkpt lat="38.649770" lon="-2.800010">
        <ele>1059.267275</ele>
        <time>2020-08-07T08:09:17.446Z</time>
      </trkpt>
      <trkpt lat="38.649709" lon="-2.800135">
        <ele>1059.096900</ele>
        <time>2020-08-07T08:09:20.445Z</time>
      </trkpt>
      <trkpt lat="38.649650" lon="-2.800265">
        <ele>1058.923103</ele>
        <time>2020-08-07T08:09:23.445Z</time>
      </trkpt>
      <trkpt lat="38.649592" lon="-2.800395">
        <ele>1058.750045</ele>
        <time>2020-08-07T08:09:26.454Z</time>
      </trkpt>
      <trkpt lat="38.649539" lon="-2.800524">
        <ele>1058.581559</ele>
        <time>2020-08-07T08:09:29.454Z</time>
      </trkpt>
      <trkpt lat="38.649482" lon="-2.800652">
        <ele>1058.411242</ele>
        <time>2020-08-07T08:09:32.448Z</time>
      </trkpt>
      <trkpt lat="38.649410" lon="-2.800761">
        <ele>1058.246227</ele>
        <time>2020-08-07T08:09:35.471Z</time>
      </trkpt>
      <trkpt lat="38.649339" lon="-2.800869">
        <ele>1058.083049</ele>
        <time>2020-08-07T08:09:38.451Z</time>
      </trkpt>
      <trkpt lat="38.649282" lon="-2.800990">
        <ele>1057.919711</ele>
        <time>2020-08-07T08:09:41.446Z</time>
      </trkpt>
      <trkpt lat="38.649238" lon="-2.801108">
        <ele>1057.756902</ele>
        <time>2020-08-07T08:09:44.454Z</time>
      </trkpt>
      <trkpt lat="38.649186" lon="-2.801229">
        <ele>1057.548686</ele>
        <time>2020-08-07T08:09:47.461Z</time>
      </trkpt>
      <trkpt lat="38.649142" lon="-2.801352">
        <ele>1057.344723</ele>
        <time>2020-08-07T08:09:50.456Z</time>
      </trkpt>
      <trkpt lat="38.649086" lon="-2.801468">
        <ele>1057.139125</ele>
        <time>2020-08-07T08:09:53.457Z</time>
      </trkpt>
      <trkpt lat="38.649028" lon="-2.801583">
        <ele>1056.932740</ele>
        <time>2020-08-07T08:09:56.459Z</time>
      </trkpt>
      <trkpt lat="38.648977" lon="-2.801699">
        <ele>1056.732049</ele>
        <time>2020-08-07T08:09:59.444Z</time>
      </trkpt>
      <trkpt lat="38.648921" lon="-2.801825">
        <ele>1056.513484</ele>
        <time>2020-08-07T08:10:02.448Z</time>
      </trkpt>
      <trkpt lat="38.648859" lon="-2.801961">
        <ele>1056.276072</ele>
        <time>2020-08-07T08:10:05.473Z</time>
      </trkpt>
      <trkpt lat="38.648794" lon="-2.802108">
        <ele>1056.021396</ele>
        <time>2020-08-07T08:10:08.457Z</time>
      </trkpt>
      <trkpt lat="38.648731" lon="-2.802254">
        <ele>1055.769920</ele>
        <time>2020-08-07T08:10:11.450Z</time>
      </trkpt>
      <trkpt lat="38.648670" lon="-2.802400">
        <ele>1055.520289</ele>
        <time>2020-08-07T08:10:14.456Z</time>
      </trkpt>
      <trkpt lat="38.648600" lon="-2.802546">
        <ele>1055.262007</ele>
        <time>2020-08-07T08:10:17.450Z</time>
      </trkpt>
      <trkpt lat="38.648545" lon="-2.802683">
        <ele>1055.029772</ele>
        <time>2020-08-07T08:10:20.459Z</time>
      </trkpt>
      <trkpt lat="38.648479" lon="-2.802813">
        <ele>1054.796009</ele>
        <time>2020-08-07T08:10:23.447Z</time>
      </trkpt>
      <trkpt lat="38.648412" lon="-2.802947">
        <ele>1054.556132</ele>
        <time>2020-08-07T08:10:26.442Z</time>
      </trkpt>
      <trkpt lat="38.648340" lon="-2.803082">
        <ele>1054.355129</ele>
        <time>2020-08-07T08:10:29.450Z</time>
      </trkpt>
      <trkpt lat="38.648267" lon="-2.803218">
        <ele>1054.556510</ele>
        <time>2020-08-07T08:10:32.456Z</time>
      </trkpt>
      <trkpt lat="38.648215" lon="-2.803360">
        <ele>1054.747898</ele>
        <time>2020-08-07T08:10:35.450Z</time>
      </trkpt>
      <trkpt lat="38.648170" lon="-2.803495">
        <ele>1054.927018</ele>
        <time>2020-08-07T08:10:38.461Z</time>
      </trkpt>
      <trkpt lat="38.648107" lon="-2.803617">
        <ele>1055.105498</ele>
        <time>2020-08-07T08:10:41.443Z</time>
      </trkpt>
      <trkpt lat="38.648042" lon="-2.803732">
        <ele>1055.278730</ele>
        <time>2020-08-07T08:10:44.463Z</time>
      </trkpt>
      <trkpt lat="38.647985" lon="-2.803851">
        <ele>1055.449085</ele>
        <time>2020-08-07T08:10:47.444Z</time>
      </trkpt>
      <trkpt lat="38.647929" lon="-2.803965">
        <ele>1055.613431</ele>
        <time>2020-08-07T08:10:50.447Z</time>
      </trkpt>
      <trkpt lat="38.647881" lon="-2.804077">
        <ele>1055.769333</ele>
        <time>2020-08-07T08:10:53.452Z</time>
      </trkpt>
      <trkpt lat="38.647810" lon="-2.804196">
        <ele>1055.952078</ele>
        <time>2020-08-07T08:10:57.443Z</time>
      </trkpt>
      <trkpt lat="38.647750" lon="-2.804305">
        <ele>1056.114812</ele>
        <time>2020-08-07T08:11:01.444Z</time>
      </trkpt>
      <trkpt lat="38.647694" lon="-2.804412">
        <ele>1056.271994</ele>
        <time>2020-08-07T08:11:14.466Z</time>
      </trkpt>
      <trkpt lat="38.647660" lon="-2.804522">
        <ele>1056.416360</ele>
        <time>2020-08-07T08:11:19.446Z</time>
      </trkpt>
      <trkpt lat="38.647615" lon="-2.804691">
        <ele>1056.634252</ele>
        <time>2020-08-07T08:12:34.471Z</time>
      </trkpt>
      <trkpt lat="38.647570" lon="-2.804814">
        <ele>1056.800005</ele>
        <time>2020-08-07T08:12:38.447Z</time>
      </trkpt>
      <trkpt lat="38.647529" lon="-2.804917">
        <ele>1056.941083</ele>
        <time>2020-08-07T08:12:42.470Z</time>
      </trkpt>
      <trkpt lat="38.647505" lon="-2.805039">
        <ele>1057.094614</ele>
        <time>2020-08-07T08:12:46.440Z</time>
      </trkpt>
      <trkpt lat="38.647459" lon="-2.805166">
        <ele>1057.252296</ele>
        <time>2020-08-07T08:12:50.459Z</time>
      </trkpt>
      <trkpt lat="38.647424" lon="-2.805292">
        <ele>1057.397641</ele>
        <time>2020-08-07T08:12:53.445Z</time>
      </trkpt>
      <trkpt lat="38.647382" lon="-2.805418">
        <ele>1057.546532</ele>
        <time>2020-08-07T08:12:56.452Z</time>
      </trkpt>
      <trkpt lat="38.647335" lon="-2.805541">
        <ele>1057.695355</ele>
        <time>2020-08-07T08:12:59.449Z</time>
      </trkpt>
      <trkpt lat="38.647292" lon="-2.805666">
        <ele>1057.843804</ele>
        <time>2020-08-07T08:13:02.446Z</time>
      </trkpt>
      <trkpt lat="38.647244" lon="-2.805789">
        <ele>1057.993243</ele>
        <time>2020-08-07T08:13:05.460Z</time>
      </trkpt>
      <trkpt lat="38.647195" lon="-2.805910">
        <ele>1058.141377</ele>
        <time>2020-08-07T08:13:08.465Z</time>
      </trkpt>
      <trkpt lat="38.647148" lon="-2.806028">
        <ele>1058.285338</ele>
        <time>2020-08-07T08:13:11.479Z</time>
      </trkpt>
      <trkpt lat="38.647097" lon="-2.806147">
        <ele>1058.432865</ele>
        <time>2020-08-07T08:13:14.451Z</time>
      </trkpt>
      <trkpt lat="38.647052" lon="-2.806277">
        <ele>1058.587409</ele>
        <time>2020-08-07T08:13:17.457Z</time>
      </trkpt>
      <trkpt lat="38.647015" lon="-2.806408">
        <ele>1058.738809</ele>
        <time>2020-08-07T08:13:20.473Z</time>
      </trkpt>
      <trkpt lat="38.646987" lon="-2.806543">
        <ele>1058.890617</ele>
        <time>2020-08-07T08:13:23.468Z</time>
      </trkpt>
      <trkpt lat="38.646978" lon="-2.806669">
        <ele>1059.028130</ele>
        <time>2020-08-07T08:13:26.464Z</time>
      </trkpt>
      <trkpt lat="38.646972" lon="-2.806792">
        <ele>1059.162072</ele>
        <time>2020-08-07T08:13:29.446Z</time>
      </trkpt>
      <trkpt lat="38.646965" lon="-2.806925">
        <ele>1059.306949</ele>
        <time>2020-08-07T08:13:32.469Z</time>
      </trkpt>
      <trkpt lat="38.646943" lon="-2.807058">
        <ele>1059.454705</ele>
        <time>2020-08-07T08:13:35.456Z</time>
      </trkpt>
      <trkpt lat="38.646926" lon="-2.807200">
        <ele>1059.610839</ele>
        <time>2020-08-07T08:13:38.467Z</time>
      </trkpt>
      <trkpt lat="38.646916" lon="-2.807356">
        <ele>1059.819614</ele>
        <time>2020-08-07T08:13:41.450Z</time>
      </trkpt>
      <trkpt lat="38.646913" lon="-2.807514">
        <ele>1060.041391</ele>
        <time>2020-08-07T08:13:44.463Z</time>
      </trkpt>
      <trkpt lat="38.646910" lon="-2.807671">
        <ele>1060.261764</ele>
        <time>2020-08-07T08:13:47.466Z</time>
      </trkpt>
      <trkpt lat="38.646914" lon="-2.807830">
        <ele>1060.484994</ele>
        <time>2020-08-07T08:13:50.460Z</time>
      </trkpt>
      <trkpt lat="38.646918" lon="-2.807989">
        <ele>1060.708224</ele>
        <time>2020-08-07T08:13:53.474Z</time>
      </trkpt>
      <trkpt lat="38.646907" lon="-2.808149">
        <ele>1060.933610</ele>
        <time>2020-08-07T08:13:56.459Z</time>
      </trkpt>
      <trkpt lat="38.646908" lon="-2.808300">
        <ele>1061.145506</ele>
        <time>2020-08-07T08:13:59.462Z</time>
      </trkpt>
      <trkpt lat="38.646914" lon="-2.808447">
        <ele>1061.352063</ele>
        <time>2020-08-07T08:14:02.452Z</time>
      </trkpt>
      <trkpt lat="38.646921" lon="-2.808609">
        <ele>1061.579735</ele>
        <time>2020-08-07T08:14:05.455Z</time>
      </trkpt>
      <trkpt lat="38.646929" lon="-2.808774">
        <ele>1061.811714</ele>
        <time>2020-08-07T08:14:08.454Z</time>
      </trkpt>
      <trkpt lat="38.646935" lon="-2.808940">
        <ele>1062.044900</ele>
        <time>2020-08-07T08:14:11.451Z</time>
      </trkpt>
      <trkpt lat="38.646931" lon="-2.809106">
        <ele>1062.277948</ele>
        <time>2020-08-07T08:14:14.450Z</time>
      </trkpt>
      <trkpt lat="38.646922" lon="-2.809274">
        <ele>1062.514245</ele>
        <time>2020-08-07T08:14:17.448Z</time>
      </trkpt>
      <trkpt lat="38.646916" lon="-2.809441">
        <ele>1062.748833</ele>
        <time>2020-08-07T08:14:20.442Z</time>
      </trkpt>
      <trkpt lat="38.646901" lon="-2.809601">
        <ele>1062.921712</ele>
        <time>2020-08-07T08:14:23.462Z</time>
      </trkpt>
      <trkpt lat="38.646876" lon="-2.809761">
        <ele>1063.022592</ele>
        <time>2020-08-07T08:14:26.440Z</time>
      </trkpt>
      <trkpt lat="38.646873" lon="-2.809916">
        <ele>1063.118450</ele>
        <time>2020-08-07T08:14:29.447Z</time>
      </trkpt>
      <trkpt lat="38.646889" lon="-2.810073">
        <ele>1063.216338</ele>
        <time>2020-08-07T08:14:32.446Z</time>
      </trkpt>
      <trkpt lat="38.646907" lon="-2.810223">
        <ele>1063.310164</ele>
        <time>2020-08-07T08:14:35.453Z</time>
      </trkpt>
      <trkpt lat="38.646915" lon="-2.810355">
        <ele>1063.392019</ele>
        <time>2020-08-07T08:14:38.447Z</time>
      </trkpt>
      <trkpt lat="38.646902" lon="-2.810469">
        <ele>1063.463247</ele>
        <time>2020-08-07T08:14:41.447Z</time>
      </trkpt>
      <trkpt lat="38.646896" lon="-2.810600">
        <ele>1063.544376</ele>
        <time>2020-08-07T08:14:45.457Z</time>
      </trkpt>
      <trkpt lat="38.646846" lon="-2.810722">
        <ele>1063.629557</ele>
        <time>2020-08-07T08:14:49.458Z</time>
      </trkpt>
      <trkpt lat="38.646810" lon="-2.810865">
        <ele>1063.722447</ele>
        <time>2020-08-07T08:14:53.447Z</time>
      </trkpt>
      <trkpt lat="38.646783" lon="-2.811005">
        <ele>1063.811602</ele>
        <time>2020-08-07T08:14:57.462Z</time>
      </trkpt>
      <trkpt lat="38.646762" lon="-2.811143">
        <ele>1063.898525</ele>
        <time>2020-08-07T08:15:01.467Z</time>
      </trkpt>
      <trkpt lat="38.646751" lon="-2.811283">
        <ele>1063.985517</ele>
        <time>2020-08-07T08:15:05.443Z</time>
      </trkpt>
      <trkpt lat="38.646759" lon="-2.811421">
        <ele>1064.071070</ele>
        <time>2020-08-07T08:15:09.453Z</time>
      </trkpt>
      <trkpt lat="38.646757" lon="-2.811547">
        <ele>1064.148986</ele>
        <time>2020-08-07T08:15:13.444Z</time>
      </trkpt>
      <trkpt lat="38.646750" lon="-2.811675">
        <ele>1064.228316</ele>
        <time>2020-08-07T08:15:17.447Z</time>
      </trkpt>
      <trkpt lat="38.646740" lon="-2.811794">
        <ele>1064.302313</ele>
        <time>2020-08-07T08:15:21.454Z</time>
      </trkpt>
      <trkpt lat="38.646738" lon="-2.811925">
        <ele>1064.327291</ele>
        <time>2020-08-07T08:15:25.455Z</time>
      </trkpt>
      <trkpt lat="38.646714" lon="-2.812053">
        <ele>1064.351488</ele>
        <time>2020-08-07T08:15:29.446Z</time>
      </trkpt>
      <trkpt lat="38.646678" lon="-2.812176">
        <ele>1064.375633</ele>
        <time>2020-08-07T08:15:33.442Z</time>
      </trkpt>
      <trkpt lat="38.646649" lon="-2.812312">
        <ele>1064.401547</ele>
        <time>2020-08-07T08:15:37.441Z</time>
      </trkpt>
      <trkpt lat="38.646621" lon="-2.812459">
        <ele>1064.429360</ele>
        <time>2020-08-07T08:15:41.448Z</time>
      </trkpt>
      <trkpt lat="38.646606" lon="-2.812575">
        <ele>1064.450973</ele>
        <time>2020-08-07T08:15:44.458Z</time>
      </trkpt>
      <trkpt lat="38.646586" lon="-2.812688">
        <ele>1064.472271</ele>
        <time>2020-08-07T08:15:47.466Z</time>
      </trkpt>
      <trkpt lat="38.646559" lon="-2.812798">
        <ele>1064.493466</ele>
        <time>2020-08-07T08:15:50.458Z</time>
      </trkpt>
      <trkpt lat="38.646538" lon="-2.812923">
        <ele>1064.516968</ele>
        <time>2020-08-07T08:15:53.444Z</time>
      </trkpt>
      <trkpt lat="38.646513" lon="-2.813043">
        <ele>1064.539798</ele>
        <time>2020-08-07T08:15:56.439Z</time>
      </trkpt>
      <trkpt lat="38.646463" lon="-2.813182">
        <ele>1064.567928</ele>
        <time>2020-08-07T08:16:00.465Z</time>
      </trkpt>
      <trkpt lat="38.646428" lon="-2.813290">
        <ele>1064.589421</ele>
        <time>2020-08-07T08:16:03.250Z</time>
      </trkpt>
      <trkpt lat="38.646393" lon="-2.813403">
        <ele>1064.611766</ele>
        <time>2020-08-07T08:16:06.259Z</time>
      </trkpt>
      <trkpt lat="38.646355" lon="-2.813518">
        <ele>1064.634719</ele>
        <time>2020-08-07T08:16:09.259Z</time>
      </trkpt>
      <trkpt lat="38.646315" lon="-2.813627">
        <ele>1064.656857</ele>
        <time>2020-08-07T08:16:12.255Z</time>
      </trkpt>
      <trkpt lat="38.646277" lon="-2.813742">
        <ele>1064.679810</ele>
        <time>2020-08-07T08:16:15.248Z</time>
      </trkpt>
      <trkpt lat="38.646233" lon="-2.813848">
        <ele>1064.701876</ele>
        <time>2020-08-07T08:16:18.245Z</time>
      </trkpt>
      <trkpt lat="38.646191" lon="-2.813956">
        <ele>1064.724053</ele>
        <time>2020-08-07T08:16:21.258Z</time>
      </trkpt>
      <trkpt lat="38.646145" lon="-2.814056">
        <ele>1064.601322</ele>
        <time>2020-08-07T08:16:24.255Z</time>
      </trkpt>
      <trkpt lat="38.646088" lon="-2.814150">
        <ele>1064.452652</ele>
        <time>2020-08-07T08:16:27.257Z</time>
      </trkpt>
      <trkpt lat="38.646013" lon="-2.814226">
        <ele>1064.299662</ele>
        <time>2020-08-07T08:16:30.257Z</time>
      </trkpt>
      <trkpt lat="38.645941" lon="-2.814303">
        <ele>1064.149606</ele>
        <time>2020-08-07T08:16:33.260Z</time>
      </trkpt>
      <trkpt lat="38.645871" lon="-2.814404">
        <ele>1063.980914</ele>
        <time>2020-08-07T08:16:36.250Z</time>
      </trkpt>
      <trkpt lat="38.645811" lon="-2.814519">
        <ele>1063.808140</ele>
        <time>2020-08-07T08:16:39.256Z</time>
      </trkpt>
      <trkpt lat="38.645751" lon="-2.814644">
        <ele>1063.624847</ele>
        <time>2020-08-07T08:16:42.257Z</time>
      </trkpt>
      <trkpt lat="38.645713" lon="-2.814786">
        <ele>1063.437326</ele>
        <time>2020-08-07T08:16:45.256Z</time>
      </trkpt>
      <trkpt lat="38.645678" lon="-2.814927">
        <ele>1063.252495</ele>
        <time>2020-08-07T08:16:48.270Z</time>
      </trkpt>
      <trkpt lat="38.645629" lon="-2.815066">
        <ele>1063.061977</ele>
        <time>2020-08-07T08:16:51.260Z</time>
      </trkpt>
      <trkpt lat="38.645587" lon="-2.815211">
        <ele>1062.868776</ele>
        <time>2020-08-07T08:16:54.255Z</time>
      </trkpt>
      <trkpt lat="38.645526" lon="-2.815349">
        <ele>1062.670680</ele>
        <time>2020-08-07T08:16:57.267Z</time>
      </trkpt>
      <trkpt lat="38.645471" lon="-2.815482">
        <ele>1062.482673</ele>
        <time>2020-08-07T08:17:00.265Z</time>
      </trkpt>
      <trkpt lat="38.645414" lon="-2.815627">
        <ele>1062.279876</ele>
        <time>2020-08-07T08:17:03.264Z</time>
      </trkpt>
      <trkpt lat="38.645350" lon="-2.815776">
        <ele>1062.067441</ele>
        <time>2020-08-07T08:17:06.266Z</time>
      </trkpt>
      <trkpt lat="38.645294" lon="-2.815874">
        <ele>1061.915742</ele>
        <time>2020-08-07T08:17:08.258Z</time>
      </trkpt>
      <trkpt lat="38.645221" lon="-2.816006">
        <ele>1061.777843</ele>
        <time>2020-08-07T08:17:11.264Z</time>
      </trkpt>
      <trkpt lat="38.645143" lon="-2.816130">
        <ele>1061.672620</ele>
        <time>2020-08-07T08:17:15.266Z</time>
      </trkpt>
      <trkpt lat="38.645053" lon="-2.816260">
        <ele>1061.557810</ele>
        <time>2020-08-07T08:17:18.252Z</time>
      </trkpt>
      <trkpt lat="38.644999" lon="-2.816352">
        <ele>1061.481753</ele>
        <time>2020-08-07T08:17:20.265Z</time>
      </trkpt>
      <trkpt lat="38.644943" lon="-2.816444">
        <ele>1061.404667</ele>
        <time>2020-08-07T08:17:22.262Z</time>
      </trkpt>
      <trkpt lat="38.644895" lon="-2.816542">
        <ele>1061.328218</ele>
        <time>2020-08-07T08:17:24.257Z</time>
      </trkpt>
      <trkpt lat="38.644833" lon="-2.816690">
        <ele>1061.217224</ele>
        <time>2020-08-07T08:17:27.274Z</time>
      </trkpt>
      <trkpt lat="38.644767" lon="-2.816827">
        <ele>1061.110844</ele>
        <time>2020-08-07T08:17:30.248Z</time>
      </trkpt>
      <trkpt lat="38.644699" lon="-2.816962">
        <ele>1061.004678</ele>
        <time>2020-08-07T08:17:33.238Z</time>
      </trkpt>
      <trkpt lat="38.644640" lon="-2.817104">
        <ele>1060.898379</ele>
        <time>2020-08-07T08:17:36.257Z</time>
      </trkpt>
      <trkpt lat="38.644591" lon="-2.817245">
        <ele>1060.796385</ele>
        <time>2020-08-07T08:17:39.258Z</time>
      </trkpt>
      <trkpt lat="38.644537" lon="-2.817392">
        <ele>1060.689024</ele>
        <time>2020-08-07T08:17:42.252Z</time>
      </trkpt>
      <trkpt lat="38.644471" lon="-2.817531">
        <ele>1060.581516</ele>
        <time>2020-08-07T08:17:45.237Z</time>
      </trkpt>
      <trkpt lat="38.644405" lon="-2.817664">
        <ele>1060.477376</ele>
        <time>2020-08-07T08:17:48.245Z</time>
      </trkpt>
      <trkpt lat="38.644349" lon="-2.817797">
        <ele>1060.377518</ele>
        <time>2020-08-07T08:17:51.243Z</time>
      </trkpt>
      <trkpt lat="38.644307" lon="-2.817903">
        <ele>1060.270590</ele>
        <time>2020-08-07T08:17:53.246Z</time>
      </trkpt>
      <trkpt lat="38.644248" lon="-2.818009">
        <ele>1060.100330</ele>
        <time>2020-08-07T08:17:55.258Z</time>
      </trkpt>
      <trkpt lat="38.644194" lon="-2.818111">
        <ele>1059.939147</ele>
        <time>2020-08-07T08:17:57.243Z</time>
      </trkpt>
      <trkpt lat="38.644146" lon="-2.818227">
        <ele>1059.767434</ele>
        <time>2020-08-07T08:18:00.236Z</time>
      </trkpt>
      <trkpt lat="38.644098" lon="-2.818331">
        <ele>1059.609420</ele>
        <time>2020-08-07T08:18:02.244Z</time>
      </trkpt>
      <trkpt lat="38.644044" lon="-2.818443">
        <ele>1059.437253</ele>
        <time>2020-08-07T08:18:04.261Z</time>
      </trkpt>
      <trkpt lat="38.643979" lon="-2.818528">
        <ele>1059.281650</ele>
        <time>2020-08-07T08:18:06.266Z</time>
      </trkpt>
      <trkpt lat="38.643895" lon="-2.818645">
        <ele>1059.073774</ele>
        <time>2020-08-07T08:18:08.242Z</time>
      </trkpt>
      <trkpt lat="38.643838" lon="-2.818734">
        <ele>1058.923222</ele>
        <time>2020-08-07T08:18:10.237Z</time>
      </trkpt>
      <trkpt lat="38.643741" lon="-2.818857">
        <ele>1058.694582</ele>
        <time>2020-08-07T08:18:13.252Z</time>
      </trkpt>
      <trkpt lat="38.643661" lon="-2.818940">
        <ele>1058.522135</ele>
        <time>2020-08-07T08:18:15.247Z</time>
      </trkpt>
      <trkpt lat="38.643580" lon="-2.819048">
        <ele>1058.326279</ele>
        <time>2020-08-07T08:18:18.256Z</time>
      </trkpt>
      <trkpt lat="38.643474" lon="-2.819165">
        <ele>1058.091893</ele>
        <time>2020-08-07T08:18:21.249Z</time>
      </trkpt>
      <trkpt lat="38.643387" lon="-2.819256">
        <ele>1057.903748</ele>
        <time>2020-08-07T08:18:23.281Z</time>
      </trkpt>
      <trkpt lat="38.643319" lon="-2.819352">
        <ele>1057.734224</ele>
        <time>2020-08-07T08:18:25.242Z</time>
      </trkpt>
      <trkpt lat="38.643253" lon="-2.819480">
        <ele>1057.533596</ele>
        <time>2020-08-07T08:18:28.271Z</time>
      </trkpt>
      <trkpt lat="38.643169" lon="-2.819574">
        <ele>1057.346756</ele>
        <time>2020-08-07T08:18:30.272Z</time>
      </trkpt>
      <trkpt lat="38.643106" lon="-2.819664">
        <ele>1057.471856</ele>
        <time>2020-08-07T08:18:32.258Z</time>
      </trkpt>
      <trkpt lat="38.643013" lon="-2.819776">
        <ele>1057.734876</ele>
        <time>2020-08-07T08:18:35.239Z</time>
      </trkpt>
      <trkpt lat="38.642933" lon="-2.819890">
        <ele>1057.981465</ele>
        <time>2020-08-07T08:18:38.240Z</time>
      </trkpt>
      <trkpt lat="38.642866" lon="-2.819989">
        <ele>1058.192236</ele>
        <time>2020-08-07T08:18:41.253Z</time>
      </trkpt>
      <trkpt lat="38.642789" lon="-2.820096">
        <ele>1058.426335</ele>
        <time>2020-08-07T08:18:44.246Z</time>
      </trkpt>
      <trkpt lat="38.642710" lon="-2.820210">
        <ele>1058.671552</ele>
        <time>2020-08-07T08:18:47.233Z</time>
      </trkpt>
      <trkpt lat="38.642639" lon="-2.820331">
        <ele>1058.915063</ele>
        <time>2020-08-07T08:18:50.234Z</time>
      </trkpt>
      <trkpt lat="38.642598" lon="-2.820460">
        <ele>1059.139153</ele>
        <time>2020-08-07T08:18:53.244Z</time>
      </trkpt>
      <trkpt lat="38.642572" lon="-2.820593">
        <ele>1059.359753</ele>
        <time>2020-08-07T08:18:56.237Z</time>
      </trkpt>
      <trkpt lat="38.642544" lon="-2.820727">
        <ele>1059.582944</ele>
        <time>2020-08-07T08:18:59.255Z</time>
      </trkpt>
      <trkpt lat="38.642524" lon="-2.820865">
        <ele>1059.808779</ele>
        <time>2020-08-07T08:19:02.240Z</time>
      </trkpt>
      <trkpt lat="38.642484" lon="-2.820996">
        <ele>1060.035095</ele>
        <time>2020-08-07T08:19:05.243Z</time>
      </trkpt>
      <trkpt lat="38.642436" lon="-2.821112">
        <ele>1060.246316</ele>
        <time>2020-08-07T08:19:08.251Z</time>
      </trkpt>
      <trkpt lat="38.642400" lon="-2.821227">
        <ele>1060.445663</ele>
        <time>2020-08-07T08:19:11.248Z</time>
      </trkpt>
      <trkpt lat="38.642364" lon="-2.821349">
        <ele>1060.655505</ele>
        <time>2020-08-07T08:19:14.244Z</time>
      </trkpt>
      <trkpt lat="38.642315" lon="-2.821482">
        <ele>1060.892118</ele>
        <time>2020-08-07T08:19:18.249Z</time>
      </trkpt>
      <trkpt lat="38.642278" lon="-2.821599">
        <ele>1061.060642</ele>
        <time>2020-08-07T08:19:22.242Z</time>
      </trkpt>
      <trkpt lat="38.642211" lon="-2.821696">
        <ele>1061.171986</ele>
        <time>2020-08-07T08:19:26.251Z</time>
      </trkpt>
      <trkpt lat="38.642175" lon="-2.821811">
        <ele>1061.278518</ele>
        <time>2020-08-07T08:19:29.249Z</time>
      </trkpt>
      <trkpt lat="38.642109" lon="-2.821926">
        <ele>1061.401228</ele>
        <time>2020-08-07T08:19:33.252Z</time>
      </trkpt>
      <trkpt lat="38.642041" lon="-2.822022">
        <ele>1061.512666</ele>
        <time>2020-08-07T08:19:37.254Z</time>
      </trkpt>
      <trkpt lat="38.641996" lon="-2.822129">
        <ele>1061.617163</ele>
        <time>2020-08-07T08:19:41.254Z</time>
      </trkpt>
      <trkpt lat="38.641938" lon="-2.822248">
        <ele>1061.737777</ele>
        <time>2020-08-07T08:19:46.238Z</time>
      </trkpt>
      <trkpt lat="38.641866" lon="-2.822349">
        <ele>1061.855358</ele>
        <time>2020-08-07T08:19:51.260Z</time>
      </trkpt>
      <trkpt lat="38.641806" lon="-2.822452">
        <ele>1061.965845</ele>
        <time>2020-08-07T08:19:56.247Z</time>
      </trkpt>
      <trkpt lat="38.641745" lon="-2.822552">
        <ele>1062.074950</ele>
        <time>2020-08-07T08:20:00.259Z</time>
      </trkpt>
      <trkpt lat="38.641696" lon="-2.822663">
        <ele>1062.184586</ele>
        <time>2020-08-07T08:20:04.265Z</time>
      </trkpt>
      <trkpt lat="38.641668" lon="-2.822783">
        <ele>1062.292278</ele>
        <time>2020-08-07T08:20:08.256Z</time>
      </trkpt>
      <trkpt lat="38.641647" lon="-2.822907">
        <ele>1062.401380</ele>
        <time>2020-08-07T08:20:12.243Z</time>
      </trkpt>
      <trkpt lat="38.641612" lon="-2.823019">
        <ele>1062.505109</ele>
        <time>2020-08-07T08:20:16.254Z</time>
      </trkpt>
      <trkpt lat="38.641559" lon="-2.823136">
        <ele>1062.621411</ele>
        <time>2020-08-07T08:20:21.264Z</time>
      </trkpt>
      <trkpt lat="38.641492" lon="-2.823250">
        <ele>1062.744089</ele>
        <time>2020-08-07T08:20:26.256Z</time>
      </trkpt>
      <trkpt lat="38.641453" lon="-2.823364">
        <ele>1062.851106</ele>
        <time>2020-08-07T08:20:30.266Z</time>
      </trkpt>
      <trkpt lat="38.641404" lon="-2.823472">
        <ele>1062.958504</ele>
        <time>2020-08-07T08:20:34.247Z</time>
      </trkpt>
      <trkpt lat="38.641330" lon="-2.823549">
        <ele>1062.885180</ele>
        <time>2020-08-07T08:20:38.250Z</time>
      </trkpt>
      <trkpt lat="38.641263" lon="-2.823667">
        <ele>1062.652135</ele>
        <time>2020-08-07T08:20:43.263Z</time>
      </trkpt>
      <trkpt lat="38.641210" lon="-2.823785">
        <ele>1062.434688</ele>
        <time>2020-08-07T08:20:48.265Z</time>
      </trkpt>
      <trkpt lat="38.641165" lon="-2.823884">
        <ele>1062.251707</ele>
        <time>2020-08-07T08:20:52.233Z</time>
      </trkpt>
      <trkpt lat="38.641111" lon="-2.824005">
        <ele>1062.029086</ele>
        <time>2020-08-07T08:20:57.239Z</time>
      </trkpt>
      <trkpt lat="38.641055" lon="-2.824121">
        <ele>1061.811241</ele>
        <time>2020-08-07T08:21:03.256Z</time>
      </trkpt>
      <trkpt lat="38.641012" lon="-2.824242">
        <ele>1061.598880</ele>
        <time>2020-08-07T08:21:08.249Z</time>
      </trkpt>
      <trkpt lat="38.640973" lon="-2.824367">
        <ele>1061.383853</ele>
        <time>2020-08-07T08:21:12.243Z</time>
      </trkpt>
      <trkpt lat="38.640909" lon="-2.824495">
        <ele>1061.141068</ele>
        <time>2020-08-07T08:21:16.251Z</time>
      </trkpt>
      <trkpt lat="38.640866" lon="-2.824598">
        <ele>1060.954499</ele>
        <time>2020-08-07T08:21:19.245Z</time>
      </trkpt>
      <trkpt lat="38.640816" lon="-2.824704">
        <ele>1060.756684</ele>
        <time>2020-08-07T08:21:22.239Z</time>
      </trkpt>
      <trkpt lat="38.640774" lon="-2.824809">
        <ele>1060.568232</ele>
        <time>2020-08-07T08:21:25.267Z</time>
      </trkpt>
      <trkpt lat="38.640738" lon="-2.824944">
        <ele>1060.340349</ele>
        <time>2020-08-07T08:21:29.261Z</time>
      </trkpt>
      <trkpt lat="38.640735" lon="-2.825065">
        <ele>1060.146956</ele>
        <time>2020-08-07T08:21:32.256Z</time>
      </trkpt>
      <trkpt lat="38.640698" lon="-2.825202">
        <ele>1059.915387</ele>
        <time>2020-08-07T08:21:36.260Z</time>
      </trkpt>
      <trkpt lat="38.640640" lon="-2.825331">
        <ele>1059.677608</ele>
        <time>2020-08-07T08:21:40.258Z</time>
      </trkpt>
      <trkpt lat="38.640574" lon="-2.825456">
        <ele>1059.436578</ele>
        <time>2020-08-07T08:21:44.255Z</time>
      </trkpt>
      <trkpt lat="38.640513" lon="-2.825578">
        <ele>1059.257459</ele>
        <time>2020-08-07T08:21:48.252Z</time>
      </trkpt>
      <trkpt lat="38.640451" lon="-2.825676">
        <ele>1059.145816</ele>
        <time>2020-08-07T08:21:52.252Z</time>
      </trkpt>
      <trkpt lat="38.640405" lon="-2.825788">
        <ele>1059.033797</ele>
        <time>2020-08-07T08:21:56.265Z</time>
      </trkpt>
      <trkpt lat="38.640279" lon="-2.825959">
        <ele>1058.825690</ele>
        <time>2020-08-07T08:23:56.243Z</time>
      </trkpt>
      <trkpt lat="38.640222" lon="-2.826074">
        <ele>1058.705118</ele>
        <time>2020-08-07T08:24:01.244Z</time>
      </trkpt>
      <trkpt lat="38.640181" lon="-2.826196">
        <ele>1058.587545</ele>
        <time>2020-08-07T08:24:05.256Z</time>
      </trkpt>
      <trkpt lat="38.640122" lon="-2.826320">
        <ele>1058.459010</ele>
        <time>2020-08-07T08:24:09.254Z</time>
      </trkpt>
      <trkpt lat="38.640064" lon="-2.826431">
        <ele>1058.340786</ele>
        <time>2020-08-07T08:24:12.258Z</time>
      </trkpt>
      <trkpt lat="38.640007" lon="-2.826557">
        <ele>1058.211887</ele>
        <time>2020-08-07T08:24:15.258Z</time>
      </trkpt>
      <trkpt lat="38.639952" lon="-2.826681">
        <ele>1058.085650</ele>
        <time>2020-08-07T08:24:18.247Z</time>
      </trkpt>
      <trkpt lat="38.639902" lon="-2.826812">
        <ele>1057.956576</ele>
        <time>2020-08-07T08:24:21.240Z</time>
      </trkpt>
      <trkpt lat="38.639847" lon="-2.826939">
        <ele>1057.828024</ele>
        <time>2020-08-07T08:24:24.252Z</time>
      </trkpt>
      <trkpt lat="38.639773" lon="-2.827048">
        <ele>1057.700177</ele>
        <time>2020-08-07T08:24:27.265Z</time>
      </trkpt>
      <trkpt lat="38.639702" lon="-2.827159">
        <ele>1057.573168</ele>
        <time>2020-08-07T08:24:30.257Z</time>
      </trkpt>
      <trkpt lat="38.639621" lon="-2.827271">
        <ele>1057.438045</ele>
        <time>2020-08-07T08:24:33.261Z</time>
      </trkpt>
      <trkpt lat="38.639559" lon="-2.827389">
        <ele>1057.312149</ele>
        <time>2020-08-07T08:24:36.263Z</time>
      </trkpt>
      <trkpt lat="38.639481" lon="-2.827504">
        <ele>1057.245304</ele>
        <time>2020-08-07T08:24:39.245Z</time>
      </trkpt>
      <trkpt lat="38.639419" lon="-2.827625">
        <ele>1057.198896</ele>
        <time>2020-08-07T08:24:42.251Z</time>
      </trkpt>
      <trkpt lat="38.639379" lon="-2.827751">
        <ele>1057.155280</ele>
        <time>2020-08-07T08:24:45.247Z</time>
      </trkpt>
      <trkpt lat="38.639343" lon="-2.827870">
        <ele>1057.114356</ele>
        <time>2020-08-07T08:24:48.246Z</time>
      </trkpt>
      <trkpt lat="38.639302" lon="-2.827978">
        <ele>1057.075848</ele>
        <time>2020-08-07T08:24:51.257Z</time>
      </trkpt>
      <trkpt lat="38.639262" lon="-2.828116">
        <ele>1057.028645</ele>
        <time>2020-08-07T08:24:55.258Z</time>
      </trkpt>
      <trkpt lat="38.639256" lon="-2.828255">
        <ele>1056.984001</ele>
        <time>2020-08-07T08:24:59.254Z</time>
      </trkpt>
      <trkpt lat="38.639281" lon="-2.828399">
        <ele>1056.936695</ele>
        <time>2020-08-07T08:25:03.259Z</time>
      </trkpt>
      <trkpt lat="38.639319" lon="-2.828532">
        <ele>1056.891280</ele>
        <time>2020-08-07T08:25:07.264Z</time>
      </trkpt>
      <trkpt lat="38.639288" lon="-2.828683">
        <ele>1056.841212</ele>
        <time>2020-08-07T08:25:11.252Z</time>
      </trkpt>
      <trkpt lat="38.639249" lon="-2.828820">
        <ele>1056.794451</ele>
        <time>2020-08-07T08:25:14.241Z</time>
      </trkpt>
      <trkpt lat="38.639193" lon="-2.828954">
        <ele>1056.745715</ele>
        <time>2020-08-07T08:25:17.264Z</time>
      </trkpt>
      <trkpt lat="38.639123" lon="-2.829063">
        <ele>1056.700462</ele>
        <time>2020-08-07T08:25:20.268Z</time>
      </trkpt>
      <trkpt lat="38.639075" lon="-2.829181">
        <ele>1056.657797</ele>
        <time>2020-08-07T08:25:23.267Z</time>
      </trkpt>
      <trkpt lat="38.639050" lon="-2.829304">
        <ele>1056.617039</ele>
        <time>2020-08-07T08:25:26.260Z</time>
      </trkpt>
      <trkpt lat="38.639044" lon="-2.829433">
        <ele>1056.575597</ele>
        <time>2020-08-07T08:25:29.241Z</time>
      </trkpt>
      <trkpt lat="38.638991" lon="-2.829561">
        <ele>1056.547911</ele>
        <time>2020-08-07T08:25:32.250Z</time>
      </trkpt>
      <trkpt lat="38.638910" lon="-2.829680">
        <ele>1056.555491</ele>
        <time>2020-08-07T08:25:35.252Z</time>
      </trkpt>
      <trkpt lat="38.638841" lon="-2.829802">
        <ele>1056.562725</ele>
        <time>2020-08-07T08:25:38.267Z</time>
      </trkpt>
      <trkpt lat="38.638769" lon="-2.829899">
        <ele>1056.569151</ele>
        <time>2020-08-07T08:25:41.257Z</time>
      </trkpt>
      <trkpt lat="38.638716" lon="-2.829999">
        <ele>1056.574954</ele>
        <time>2020-08-07T08:25:44.257Z</time>
      </trkpt>
      <trkpt lat="38.638661" lon="-2.830101">
        <ele>1056.580906</ele>
        <time>2020-08-07T08:25:47.257Z</time>
      </trkpt>
      <trkpt lat="38.638624" lon="-2.830224">
        <ele>1056.587236</ele>
        <time>2020-08-07T08:25:50.258Z</time>
      </trkpt>
      <trkpt lat="38.638595" lon="-2.830344">
        <ele>1056.593268</ele>
        <time>2020-08-07T08:25:53.268Z</time>
      </trkpt>
      <trkpt lat="38.638571" lon="-2.830456">
        <ele>1056.598846</ele>
        <time>2020-08-07T08:25:56.326Z</time>
      </trkpt>
      <trkpt lat="38.638535" lon="-2.830564">
        <ele>1056.604485</ele>
        <time>2020-08-07T08:25:59.252Z</time>
      </trkpt>
      <trkpt lat="38.638499" lon="-2.830694">
        <ele>1056.611109</ele>
        <time>2020-08-07T08:26:02.247Z</time>
      </trkpt>
      <trkpt lat="38.638462" lon="-2.830840">
        <ele>1056.618480</ele>
        <time>2020-08-07T08:26:05.245Z</time>
      </trkpt>
      <trkpt lat="38.638428" lon="-2.830971">
        <ele>1056.625109</ele>
        <time>2020-08-07T08:26:08.246Z</time>
      </trkpt>
      <trkpt lat="38.638405" lon="-2.831089">
        <ele>1056.630950</ele>
        <time>2020-08-07T08:26:11.245Z</time>
      </trkpt>
      <trkpt lat="38.638398" lon="-2.831233">
        <ele>1056.637878</ele>
        <time>2020-08-07T08:26:15.234Z</time>
      </trkpt>
      <trkpt lat="38.638386" lon="-2.831359">
        <ele>1056.643974</ele>
        <time>2020-08-07T08:26:19.258Z</time>
      </trkpt>
      <trkpt lat="38.638364" lon="-2.831491">
        <ele>1056.650456</ele>
        <time>2020-08-07T08:26:23.257Z</time>
      </trkpt>
      <trkpt lat="38.638347" lon="-2.831617">
        <ele>1056.662107</ele>
        <time>2020-08-07T08:26:26.261Z</time>
      </trkpt>
      <trkpt lat="38.638328" lon="-2.831751">
        <ele>1056.734528</ele>
        <time>2020-08-07T08:26:29.257Z</time>
      </trkpt>
      <trkpt lat="38.638306" lon="-2.831892">
        <ele>1056.810989</ele>
        <time>2020-08-07T08:26:32.258Z</time>
      </trkpt>
      <trkpt lat="38.638297" lon="-2.832033">
        <ele>1056.886218</ele>
        <time>2020-08-07T08:26:35.249Z</time>
      </trkpt>
      <trkpt lat="38.638282" lon="-2.832171">
        <ele>1056.960309</ele>
        <time>2020-08-07T08:26:38.252Z</time>
      </trkpt>
      <trkpt lat="38.638272" lon="-2.832301">
        <ele>1057.029773</ele>
        <time>2020-08-07T08:26:41.257Z</time>
      </trkpt>
      <trkpt lat="38.638240" lon="-2.832432">
        <ele>1057.102761</ele>
        <time>2020-08-07T08:26:44.276Z</time>
      </trkpt>
      <trkpt lat="38.638216" lon="-2.832549">
        <ele>1057.167088</ele>
        <time>2020-08-07T08:26:47.273Z</time>
      </trkpt>
      <trkpt lat="38.638188" lon="-2.832663">
        <ele>1057.230636</ele>
        <time>2020-08-07T08:26:50.239Z</time>
      </trkpt>
      <trkpt lat="38.638143" lon="-2.832792">
        <ele>1057.305764</ele>
        <time>2020-08-07T08:26:53.260Z</time>
      </trkpt>
      <trkpt lat="38.638107" lon="-2.832918">
        <ele>1057.377108</ele>
        <time>2020-08-07T08:26:56.231Z</time>
      </trkpt>
      <trkpt lat="38.638090" lon="-2.833044">
        <ele>1057.445103</ele>
        <time>2020-08-07T08:26:59.235Z</time>
      </trkpt>
      <trkpt lat="38.638063" lon="-2.833162">
        <ele>1057.510489</ele>
        <time>2020-08-07T08:27:02.237Z</time>
      </trkpt>
      <trkpt lat="38.638039" lon="-2.833299">
        <ele>1057.585151</ele>
        <time>2020-08-07T08:27:05.254Z</time>
      </trkpt>
      <trkpt lat="38.638025" lon="-2.833440">
        <ele>1057.660734</ele>
        <time>2020-08-07T08:27:08.244Z</time>
      </trkpt>
      <trkpt lat="38.638030" lon="-2.833574">
        <ele>1057.732072</ele>
        <time>2020-08-07T08:27:11.244Z</time>
      </trkpt>
      <trkpt lat="38.638049" lon="-2.833695">
        <ele>1057.797703</ele>
        <time>2020-08-07T08:27:14.243Z</time>
      </trkpt>
      <trkpt lat="38.638059" lon="-2.833817">
        <ele>1057.862935</ele>
        <time>2020-08-07T08:27:17.238Z</time>
      </trkpt>
      <trkpt lat="38.638079" lon="-2.833934">
        <ele>1057.852837</ele>
        <time>2020-08-07T08:27:20.239Z</time>
      </trkpt>
      <trkpt lat="38.638110" lon="-2.834079">
        <ele>1057.804761</ele>
        <time>2020-08-07T08:27:24.240Z</time>
      </trkpt>
      <trkpt lat="38.638086" lon="-2.834200">
        <ele>1057.764838</ele>
        <time>2020-08-07T08:27:27.257Z</time>
      </trkpt>
      <trkpt lat="38.638047" lon="-2.834318">
        <ele>1057.723863</ele>
        <time>2020-08-07T08:27:30.241Z</time>
      </trkpt>
      <trkpt lat="38.638013" lon="-2.834437">
        <ele>1057.683341</ele>
        <time>2020-08-07T08:27:33.645Z</time>
      </trkpt>
      <trkpt lat="38.638005" lon="-2.834564">
        <ele>1057.642595</ele>
        <time>2020-08-07T08:27:36.644Z</time>
      </trkpt>
      <trkpt lat="38.638034" lon="-2.834697">
        <ele>1057.598436</ele>
        <time>2020-08-07T08:27:39.635Z</time>
      </trkpt>
      <trkpt lat="38.638071" lon="-2.834828">
        <ele>1057.553888</ele>
        <time>2020-08-07T08:27:42.650Z</time>
      </trkpt>
      <trkpt lat="38.638086" lon="-2.834964">
        <ele>1057.509964</ele>
        <time>2020-08-07T08:27:45.644Z</time>
      </trkpt>
      <trkpt lat="38.638082" lon="-2.835099">
        <ele>1057.466761</ele>
        <time>2020-08-07T08:27:48.661Z</time>
      </trkpt>
      <trkpt lat="38.638092" lon="-2.835223">
        <ele>1057.426895</ele>
        <time>2020-08-07T08:27:51.653Z</time>
      </trkpt>
      <trkpt lat="38.638098" lon="-2.835350">
        <ele>1057.386207</ele>
        <time>2020-08-07T08:27:54.649Z</time>
      </trkpt>
      <trkpt lat="38.638107" lon="-2.835478">
        <ele>1057.345108</ele>
        <time>2020-08-07T08:27:57.670Z</time>
      </trkpt>
      <trkpt lat="38.638129" lon="-2.835596">
        <ele>1057.306312</ele>
        <time>2020-08-07T08:28:00.651Z</time>
      </trkpt>
      <trkpt lat="38.638157" lon="-2.835714">
        <ele>1057.266873</ele>
        <time>2020-08-07T08:28:03.660Z</time>
      </trkpt>
      <trkpt lat="38.638176" lon="-2.835853">
        <ele>1057.221746</ele>
        <time>2020-08-07T08:28:06.655Z</time>
      </trkpt>
      <trkpt lat="38.638195" lon="-2.835990">
        <ele>1057.177249</ele>
        <time>2020-08-07T08:28:09.650Z</time>
      </trkpt>
      <trkpt lat="38.638212" lon="-2.836124">
        <ele>1057.165719</ele>
        <time>2020-08-07T08:28:12.642Z</time>
      </trkpt>
      <trkpt lat="38.638229" lon="-2.836261">
        <ele>1057.258387</ele>
        <time>2020-08-07T08:28:15.659Z</time>
      </trkpt>
      <trkpt lat="38.638243" lon="-2.836404">
        <ele>1057.354664</ele>
        <time>2020-08-07T08:28:18.658Z</time>
      </trkpt>
      <trkpt lat="38.638233" lon="-2.836548">
        <ele>1057.451241</ele>
        <time>2020-08-07T08:28:21.652Z</time>
      </trkpt>
      <trkpt lat="38.638216" lon="-2.836692">
        <ele>1057.548531</ele>
        <time>2020-08-07T08:28:24.651Z</time>
      </trkpt>
      <trkpt lat="38.638197" lon="-2.836840">
        <ele>1057.648726</ele>
        <time>2020-08-07T08:28:27.641Z</time>
      </trkpt>
      <trkpt lat="38.638188" lon="-2.836985">
        <ele>1057.745897</ele>
        <time>2020-08-07T08:28:30.670Z</time>
      </trkpt>
      <trkpt lat="38.638192" lon="-2.837113">
        <ele>1057.831474</ele>
        <time>2020-08-07T08:28:33.641Z</time>
      </trkpt>
      <trkpt lat="38.638191" lon="-2.837236">
        <ele>1057.913647</ele>
        <time>2020-08-07T08:28:36.654Z</time>
      </trkpt>
      <trkpt lat="38.638196" lon="-2.837363">
        <ele>1057.998596</ele>
        <time>2020-08-07T08:28:39.637Z</time>
      </trkpt>
      <trkpt lat="38.638203" lon="-2.837503">
        <ele>1058.092312</ele>
        <time>2020-08-07T08:28:42.649Z</time>
      </trkpt>
      <trkpt lat="38.638185" lon="-2.837643">
        <ele>1058.187096</ele>
        <time>2020-08-07T08:28:45.657Z</time>
      </trkpt>
      <trkpt lat="38.638163" lon="-2.837788">
        <ele>1058.285772</ele>
        <time>2020-08-07T08:28:48.659Z</time>
      </trkpt>
      <trkpt lat="38.638158" lon="-2.837932">
        <ele>1058.382064</ele>
        <time>2020-08-07T08:28:51.634Z</time>
      </trkpt>
      <trkpt lat="38.638180" lon="-2.838071">
        <ele>1058.476808</ele>
        <time>2020-08-07T08:28:54.631Z</time>
      </trkpt>
      <trkpt lat="38.638190" lon="-2.838211">
        <ele>1058.570724</ele>
        <time>2020-08-07T08:28:57.661Z</time>
      </trkpt>
      <trkpt lat="38.638192" lon="-2.838353">
        <ele>1058.665600</ele>
        <time>2020-08-07T08:29:00.649Z</time>
      </trkpt>
      <trkpt lat="38.638199" lon="-2.838490">
        <ele>1058.607713</ele>
        <time>2020-08-07T08:29:03.657Z</time>
      </trkpt>
      <trkpt lat="38.638214" lon="-2.838616">
        <ele>1058.522740</ele>
        <time>2020-08-07T08:29:06.642Z</time>
      </trkpt>
      <trkpt lat="38.638235" lon="-2.838732">
        <ele>1058.443353</ele>
        <time>2020-08-07T08:29:09.634Z</time>
      </trkpt>
      <trkpt lat="38.638249" lon="-2.838858">
        <ele>1058.358504</ele>
        <time>2020-08-07T08:29:12.634Z</time>
      </trkpt>
      <trkpt lat="38.638250" lon="-2.838988">
        <ele>1058.271830</ele>
        <time>2020-08-07T08:29:15.631Z</time>
      </trkpt>
      <trkpt lat="38.638242" lon="-2.839136">
        <ele>1058.172924</ele>
        <time>2020-08-07T08:29:18.641Z</time>
      </trkpt>
      <trkpt lat="38.638244" lon="-2.839283">
        <ele>1058.074905</ele>
        <time>2020-08-07T08:29:21.645Z</time>
      </trkpt>
      <trkpt lat="38.638290" lon="-2.839407">
        <ele>1057.983385</ele>
        <time>2020-08-07T08:29:24.641Z</time>
      </trkpt>
      <trkpt lat="38.638357" lon="-2.839525">
        <ele>1057.886127</ele>
        <time>2020-08-07T08:29:27.642Z</time>
      </trkpt>
      <trkpt lat="38.638421" lon="-2.839653">
        <ele>1057.784804</ele>
        <time>2020-08-07T08:29:30.632Z</time>
      </trkpt>
      <trkpt lat="38.638490" lon="-2.839785">
        <ele>1057.678913</ele>
        <time>2020-08-07T08:29:33.658Z</time>
      </trkpt>
      <trkpt lat="38.638562" lon="-2.839932">
        <ele>1057.563235</ele>
        <time>2020-08-07T08:29:36.661Z</time>
      </trkpt>
      <trkpt lat="38.638614" lon="-2.840089">
        <ele>1057.449544</ele>
        <time>2020-08-07T08:29:39.646Z</time>
      </trkpt>
      <trkpt lat="38.638663" lon="-2.840231">
        <ele>1057.346047</ele>
        <time>2020-08-07T08:29:42.631Z</time>
      </trkpt>
      <trkpt lat="38.638695" lon="-2.840386">
        <ele>1057.239162</ele>
        <time>2020-08-07T08:29:45.639Z</time>
      </trkpt>
      <trkpt lat="38.638714" lon="-2.840502">
        <ele>1057.160144</ele>
        <time>2020-08-07T08:29:47.645Z</time>
      </trkpt>
      <trkpt lat="38.638704" lon="-2.840630">
        <ele>1057.022539</ele>
        <time>2020-08-07T08:29:49.639Z</time>
      </trkpt>
      <trkpt lat="38.638710" lon="-2.840760">
        <ele>1056.873949</ele>
        <time>2020-08-07T08:29:51.653Z</time>
      </trkpt>
      <trkpt lat="38.638695" lon="-2.840882">
        <ele>1056.733032</ele>
        <time>2020-08-07T08:29:53.641Z</time>
      </trkpt>
      <trkpt lat="38.638673" lon="-2.841001">
        <ele>1056.593500</ele>
        <time>2020-08-07T08:29:55.644Z</time>
      </trkpt>
      <trkpt lat="38.638634" lon="-2.841110">
        <ele>1056.456703</ele>
        <time>2020-08-07T08:29:57.642Z</time>
      </trkpt>
      <trkpt lat="38.638625" lon="-2.841237">
        <ele>1056.311199</ele>
        <time>2020-08-07T08:30:00.655Z</time>
      </trkpt>
      <trkpt lat="38.638587" lon="-2.841346">
        <ele>1056.175003</ele>
        <time>2020-08-07T08:30:02.640Z</time>
      </trkpt>
      <trkpt lat="38.638566" lon="-2.841499">
        <ele>1055.997753</ele>
        <time>2020-08-07T08:30:05.651Z</time>
      </trkpt>
      <trkpt lat="38.638577" lon="-2.841648">
        <ele>1055.826985</ele>
        <time>2020-08-07T08:30:08.649Z</time>
      </trkpt>
      <trkpt lat="38.638617" lon="-2.841769">
        <ele>1055.677067</ele>
        <time>2020-08-07T08:30:11.649Z</time>
      </trkpt>
      <trkpt lat="38.638667" lon="-2.841885">
        <ele>1055.525894</ele>
        <time>2020-08-07T08:30:14.653Z</time>
      </trkpt>
      <trkpt lat="38.638718" lon="-2.842002">
        <ele>1055.373015</ele>
        <time>2020-08-07T08:30:17.644Z</time>
      </trkpt>
      <trkpt lat="38.638748" lon="-2.842126">
        <ele>1055.224898</ele>
        <time>2020-08-07T08:30:20.649Z</time>
      </trkpt>
      <trkpt lat="38.638766" lon="-2.842255">
        <ele>1055.075378</ele>
        <time>2020-08-07T08:30:23.639Z</time>
      </trkpt>
      <trkpt lat="38.638795" lon="-2.842366">
        <ele>1054.941829</ele>
        <time>2020-08-07T08:30:26.645Z</time>
      </trkpt>
      <trkpt lat="38.638833" lon="-2.842495">
        <ele>1054.784519</ele>
        <time>2020-08-07T08:30:30.630Z</time>
      </trkpt>
      <trkpt lat="38.638874" lon="-2.842611">
        <ele>1054.639242</ele>
        <time>2020-08-07T08:30:34.638Z</time>
      </trkpt>
      <trkpt lat="38.638911" lon="-2.842732">
        <ele>1054.518373</ele>
        <time>2020-08-07T08:30:38.646Z</time>
      </trkpt>
      <trkpt lat="38.638959" lon="-2.842869">
        <ele>1054.509700</ele>
        <time>2020-08-07T08:30:42.632Z</time>
      </trkpt>
      <trkpt lat="38.638981" lon="-2.842989">
        <ele>1054.502581</ele>
        <time>2020-08-07T08:30:45.644Z</time>
      </trkpt>
      <trkpt lat="38.639002" lon="-2.843114">
        <ele>1054.495196</ele>
        <time>2020-08-07T08:30:48.634Z</time>
      </trkpt>
      <trkpt lat="38.639043" lon="-2.843228">
        <ele>1054.487947</ele>
        <time>2020-08-07T08:30:51.632Z</time>
      </trkpt>
      <trkpt lat="38.639086" lon="-2.843372">
        <ele>1054.479042</ele>
        <time>2020-08-07T08:30:54.628Z</time>
      </trkpt>
      <trkpt lat="38.639102" lon="-2.843517">
        <ele>1054.470584</ele>
        <time>2020-08-07T08:30:57.646Z</time>
      </trkpt>
      <trkpt lat="38.639096" lon="-2.843644">
        <ele>1054.463235</ele>
        <time>2020-08-07T08:31:00.635Z</time>
      </trkpt>
      <trkpt lat="38.639098" lon="-2.843769">
        <ele>1054.456014</ele>
        <time>2020-08-07T08:31:03.650Z</time>
      </trkpt>
      <trkpt lat="38.639116" lon="-2.843895">
        <ele>1054.448616</ele>
        <time>2020-08-07T08:31:06.637Z</time>
      </trkpt>
      <trkpt lat="38.639131" lon="-2.844030">
        <ele>1054.440740</ele>
        <time>2020-08-07T08:31:09.654Z</time>
      </trkpt>
      <trkpt lat="38.639121" lon="-2.844165">
        <ele>1054.432907</ele>
        <time>2020-08-07T08:31:12.639Z</time>
      </trkpt>
      <trkpt lat="38.639112" lon="-2.844295">
        <ele>1054.425369</ele>
        <time>2020-08-07T08:31:15.644Z</time>
      </trkpt>
      <trkpt lat="38.639111" lon="-2.844418">
        <ele>1054.418264</ele>
        <time>2020-08-07T08:31:18.642Z</time>
      </trkpt>
      <trkpt lat="38.639115" lon="-2.844540">
        <ele>1054.411212</ele>
        <time>2020-08-07T08:31:21.651Z</time>
      </trkpt>
      <trkpt lat="38.639130" lon="-2.844663">
        <ele>1054.404021</ele>
        <time>2020-08-07T08:31:24.640Z</time>
      </trkpt>
      <trkpt lat="38.639056" lon="-2.844741">
        <ele>1054.396933</ele>
        <time>2020-08-07T08:31:33.653Z</time>
      </trkpt>
      <trkpt lat="38.638898" lon="-2.844760">
        <ele>1054.392678</ele>
        <time>2020-08-07T08:32:09.653Z</time>
      </trkpt>
      <trkpt lat="38.638796" lon="-2.844754">
        <ele>1054.419723</ele>
        <time>2020-08-07T08:32:13.649Z</time>
      </trkpt>
      <trkpt lat="38.638702" lon="-2.844766">
        <ele>1054.444745</ele>
        <time>2020-08-07T08:32:16.651Z</time>
      </trkpt>
      <trkpt lat="38.638589" lon="-2.844798">
        <ele>1054.475399</ele>
        <time>2020-08-07T08:32:20.636Z</time>
      </trkpt>
      <trkpt lat="38.638497" lon="-2.844834">
        <ele>1054.500880</ele>
        <time>2020-08-07T08:32:24.644Z</time>
      </trkpt>
      <trkpt lat="38.638408" lon="-2.844859">
        <ele>1054.525014</ele>
        <time>2020-08-07T08:32:28.641Z</time>
      </trkpt>
      <trkpt lat="38.638307" lon="-2.844866">
        <ele>1054.551806</ele>
        <time>2020-08-07T08:32:32.637Z</time>
      </trkpt>
      <trkpt lat="38.638207" lon="-2.844877">
        <ele>1054.578390</ele>
        <time>2020-08-07T08:32:36.655Z</time>
      </trkpt>
      <trkpt lat="38.638103" lon="-2.844882">
        <ele>1054.605957</ele>
        <time>2020-08-07T08:32:40.649Z</time>
      </trkpt>
      <trkpt lat="38.638005" lon="-2.844883">
        <ele>1054.631915</ele>
        <time>2020-08-07T08:32:43.656Z</time>
      </trkpt>
      <trkpt lat="38.637896" lon="-2.844886">
        <ele>1054.660793</ele>
        <time>2020-08-07T08:32:47.643Z</time>
      </trkpt>
      <trkpt lat="38.637781" lon="-2.844870">
        <ele>1054.691432</ele>
        <time>2020-08-07T08:32:51.661Z</time>
      </trkpt>
      <trkpt lat="38.637681" lon="-2.844852">
        <ele>1054.718180</ele>
        <time>2020-08-07T08:32:54.632Z</time>
      </trkpt>
      <trkpt lat="38.637577" lon="-2.844834">
        <ele>1054.745977</ele>
        <time>2020-08-07T08:32:57.643Z</time>
      </trkpt>
      <trkpt lat="38.637466" lon="-2.844831">
        <ele>1054.775385</ele>
        <time>2020-08-07T08:33:00.633Z</time>
      </trkpt>
      <trkpt lat="38.637354" lon="-2.844850">
        <ele>1054.805310</ele>
        <time>2020-08-07T08:33:03.655Z</time>
      </trkpt>
      <trkpt lat="38.637258" lon="-2.844878">
        <ele>1054.831389</ele>
        <time>2020-08-07T08:33:06.653Z</time>
      </trkpt>
      <trkpt lat="38.637173" lon="-2.844923">
        <ele>1054.855752</ele>
        <time>2020-08-07T08:33:09.643Z</time>
      </trkpt>
      <trkpt lat="38.637078" lon="-2.845003">
        <ele>1054.921534</ele>
        <time>2020-08-07T08:33:13.631Z</time>
      </trkpt>
      <trkpt lat="38.637002" lon="-2.845083">
        <ele>1054.988667</ele>
        <time>2020-08-07T08:33:16.651Z</time>
      </trkpt>
      <trkpt lat="38.636914" lon="-2.845126">
        <ele>1055.052934</ele>
        <time>2020-08-07T08:33:19.649Z</time>
      </trkpt>
      <trkpt lat="38.636799" lon="-2.845143">
        <ele>1055.131920</ele>
        <time>2020-08-07T08:33:23.637Z</time>
      </trkpt>
      <trkpt lat="38.636684" lon="-2.845163">
        <ele>1055.211105</ele>
        <time>2020-08-07T08:33:27.629Z</time>
      </trkpt>
      <trkpt lat="38.636572" lon="-2.845191">
        <ele>1055.288966</ele>
        <time>2020-08-07T08:33:31.632Z</time>
      </trkpt>
      <trkpt lat="38.636456" lon="-2.845205">
        <ele>1055.368464</ele>
        <time>2020-08-07T08:33:35.634Z</time>
      </trkpt>
      <trkpt lat="38.636358" lon="-2.845223">
        <ele>1055.436014</ele>
        <time>2020-08-07T08:33:38.638Z</time>
      </trkpt>
      <trkpt lat="38.636255" lon="-2.845261">
        <ele>1055.509151</ele>
        <time>2020-08-07T08:33:41.636Z</time>
      </trkpt>
      <trkpt lat="38.636159" lon="-2.845310">
        <ele>1055.579665</ele>
        <time>2020-08-07T08:33:44.636Z</time>
      </trkpt>
      <trkpt lat="38.636056" lon="-2.845344">
        <ele>1055.652241</ele>
        <time>2020-08-07T08:33:47.634Z</time>
      </trkpt>
      <trkpt lat="38.635951" lon="-2.845357">
        <ele>1055.724217</ele>
        <time>2020-08-07T08:33:50.647Z</time>
      </trkpt>
      <trkpt lat="38.635845" lon="-2.845380">
        <ele>1055.797572</ele>
        <time>2020-08-07T08:33:53.639Z</time>
      </trkpt>
      <trkpt lat="38.635742" lon="-2.845410">
        <ele>1055.869645</ele>
        <time>2020-08-07T08:33:56.636Z</time>
      </trkpt>
      <trkpt lat="38.635645" lon="-2.845462">
        <ele>1055.941396</ele>
        <time>2020-08-07T08:33:59.652Z</time>
      </trkpt>
      <trkpt lat="38.635554" lon="-2.845533">
        <ele>1056.014108</ele>
        <time>2020-08-07T08:34:02.634Z</time>
      </trkpt>
      <trkpt lat="38.635473" lon="-2.845596">
        <ele>1056.078775</ele>
        <time>2020-08-07T08:34:05.627Z</time>
      </trkpt>
      <trkpt lat="38.635373" lon="-2.845679">
        <ele>1056.125595</ele>
        <time>2020-08-07T08:34:09.638Z</time>
      </trkpt>
      <trkpt lat="38.635275" lon="-2.845763">
        <ele>1056.166202</ele>
        <time>2020-08-07T08:34:13.641Z</time>
      </trkpt>
      <trkpt lat="38.635169" lon="-2.845830">
        <ele>1056.206905</ele>
        <time>2020-08-07T08:34:17.644Z</time>
      </trkpt>
      <trkpt lat="38.635086" lon="-2.845882">
        <ele>1056.238721</ele>
        <time>2020-08-07T08:34:20.650Z</time>
      </trkpt>
      <trkpt lat="38.634986" lon="-2.845949">
        <ele>1056.277582</ele>
        <time>2020-08-07T08:34:24.644Z</time>
      </trkpt>
      <trkpt lat="38.634907" lon="-2.846054">
        <ele>1056.316791</ele>
        <time>2020-08-07T08:34:28.635Z</time>
      </trkpt>
      <trkpt lat="38.634837" lon="-2.846129">
        <ele>1056.348220</ele>
        <time>2020-08-07T08:34:31.637Z</time>
      </trkpt>
      <trkpt lat="38.634761" lon="-2.846201">
        <ele>1056.380774</ele>
        <time>2020-08-07T08:34:34.638Z</time>
      </trkpt>
      <trkpt lat="38.634674" lon="-2.846289">
        <ele>1056.418950</ele>
        <time>2020-08-07T08:34:38.639Z</time>
      </trkpt>
      <trkpt lat="38.634589" lon="-2.846358">
        <ele>1056.453604</ele>
        <time>2020-08-07T08:34:42.642Z</time>
      </trkpt>
      <trkpt lat="38.634481" lon="-2.846430">
        <ele>1056.495530</ele>
        <time>2020-08-07T08:34:46.651Z</time>
      </trkpt>
      <trkpt lat="38.634385" lon="-2.846487">
        <ele>1056.531966</ele>
        <time>2020-08-07T08:34:50.644Z</time>
      </trkpt>
      <trkpt lat="38.634278" lon="-2.846539">
        <ele>1056.571372</ele>
        <time>2020-08-07T08:34:54.636Z</time>
      </trkpt>
      <trkpt lat="38.634163" lon="-2.846534">
        <ele>1056.610990</ele>
        <time>2020-08-07T08:34:58.631Z</time>
      </trkpt>
      <trkpt lat="38.634052" lon="-2.846519">
        <ele>1056.649421</ele>
        <time>2020-08-07T08:35:01.641Z</time>
      </trkpt>
      <trkpt lat="38.633951" lon="-2.846524">
        <ele>1056.684222</ele>
        <time>2020-08-07T08:35:04.621Z</time>
      </trkpt>
      <trkpt lat="38.633832" lon="-2.846564">
        <ele>1056.758992</ele>
        <time>2020-08-07T08:35:08.637Z</time>
      </trkpt>
      <trkpt lat="38.633743" lon="-2.846627">
        <ele>1056.861396</ele>
        <time>2020-08-07T08:35:11.627Z</time>
      </trkpt>
      <trkpt lat="38.633656" lon="-2.846662">
        <ele>1056.953222</ele>
        <time>2020-08-07T08:35:14.646Z</time>
      </trkpt>
      <trkpt lat="38.633562" lon="-2.846657">
        <ele>1057.047954</ele>
        <time>2020-08-07T08:35:17.647Z</time>
      </trkpt>
      <trkpt lat="38.633446" lon="-2.846653">
        <ele>1057.164799</ele>
        <time>2020-08-07T08:35:21.649Z</time>
      </trkpt>
      <trkpt lat="38.633356" lon="-2.846663">
        <ele>1057.255763</ele>
        <time>2020-08-07T08:35:24.660Z</time>
      </trkpt>
      <trkpt lat="38.633263" lon="-2.846642">
        <ele>1057.350852</ele>
        <time>2020-08-07T08:35:27.654Z</time>
      </trkpt>
      <trkpt lat="38.633156" lon="-2.846623">
        <ele>1057.459624</ele>
        <time>2020-08-07T08:35:31.623Z</time>
      </trkpt>
      <trkpt lat="38.633062" lon="-2.846547">
        <ele>1057.571572</ele>
        <time>2020-08-07T08:35:35.651Z</time>
      </trkpt>
      <trkpt lat="38.632960" lon="-2.846507">
        <ele>1057.678989</ele>
        <time>2020-08-07T08:35:39.649Z</time>
      </trkpt>
      <trkpt lat="38.632841" lon="-2.846480">
        <ele>1057.800680</ele>
        <time>2020-08-07T08:35:43.654Z</time>
      </trkpt>
      <trkpt lat="38.632745" lon="-2.846462">
        <ele>1057.898376</ele>
        <time>2020-08-07T08:35:46.666Z</time>
      </trkpt>
      <trkpt lat="38.632634" lon="-2.846470">
        <ele>1058.010321</ele>
        <time>2020-08-07T08:35:50.661Z</time>
      </trkpt>
      <trkpt lat="38.632528" lon="-2.846440">
        <ele>1058.119632</ele>
        <time>2020-08-07T08:35:54.646Z</time>
      </trkpt>
      <trkpt lat="38.632428" lon="-2.846409">
        <ele>1058.223235</ele>
        <time>2020-08-07T08:35:58.655Z</time>
      </trkpt>
      <trkpt lat="38.632320" lon="-2.846428">
        <ele>1058.333004</ele>
        <time>2020-08-07T08:36:02.640Z</time>
      </trkpt>
      <trkpt lat="38.632213" lon="-2.846401">
        <ele>1058.442818</ele>
        <time>2020-08-07T08:36:06.649Z</time>
      </trkpt>
      <trkpt lat="38.632118" lon="-2.846346">
        <ele>1058.521078</ele>
        <time>2020-08-07T08:36:10.646Z</time>
      </trkpt>
      <trkpt lat="38.632018" lon="-2.846304">
        <ele>1058.522033</ele>
        <time>2020-08-07T08:36:14.648Z</time>
      </trkpt>
      <trkpt lat="38.631910" lon="-2.846286">
        <ele>1058.523022</ele>
        <time>2020-08-07T08:36:18.632Z</time>
      </trkpt>
      <trkpt lat="38.631804" lon="-2.846284">
        <ele>1058.523984</ele>
        <time>2020-08-07T08:36:22.649Z</time>
      </trkpt>
      <trkpt lat="38.631701" lon="-2.846295">
        <ele>1058.524922</ele>
        <time>2020-08-07T08:36:26.638Z</time>
      </trkpt>
      <trkpt lat="38.631597" lon="-2.846292">
        <ele>1058.525866</ele>
        <time>2020-08-07T08:36:30.651Z</time>
      </trkpt>
      <trkpt lat="38.631489" lon="-2.846271">
        <ele>1058.526858</ele>
        <time>2020-08-07T08:36:34.650Z</time>
      </trkpt>
      <trkpt lat="38.631376" lon="-2.846260">
        <ele>1058.527886</ele>
        <time>2020-08-07T08:36:38.650Z</time>
      </trkpt>
      <trkpt lat="38.631266" lon="-2.846241">
        <ele>1058.528894</ele>
        <time>2020-08-07T08:36:42.651Z</time>
      </trkpt>
      <trkpt lat="38.631153" lon="-2.846236">
        <ele>1058.529920</ele>
        <time>2020-08-07T08:36:46.650Z</time>
      </trkpt>
      <trkpt lat="38.631037" lon="-2.846228">
        <ele>1058.530975</ele>
        <time>2020-08-07T08:36:50.652Z</time>
      </trkpt>
      <trkpt lat="38.630920" lon="-2.846195">
        <ele>1058.532062</ele>
        <time>2020-08-07T08:36:54.653Z</time>
      </trkpt>
      <trkpt lat="38.630806" lon="-2.846152">
        <ele>1058.533141</ele>
        <time>2020-08-07T08:36:58.658Z</time>
      </trkpt>
      <trkpt lat="38.630714" lon="-2.846152">
        <ele>1058.533976</ele>
        <time>2020-08-07T08:37:01.634Z</time>
      </trkpt>
      <trkpt lat="38.630602" lon="-2.846139">
        <ele>1058.534997</ele>
        <time>2020-08-07T08:37:05.629Z</time>
      </trkpt>
      <trkpt lat="38.630500" lon="-2.846119">
        <ele>1058.535933</ele>
        <time>2020-08-07T08:37:09.637Z</time>
      </trkpt>
      <trkpt lat="38.630401" lon="-2.846152">
        <ele>1058.536862</ele>
        <time>2020-08-07T08:37:13.632Z</time>
      </trkpt>
      <trkpt lat="38.630326" lon="-2.846249">
        <ele>1058.439611</ele>
        <time>2020-08-07T08:37:18.666Z</time>
      </trkpt>
      <trkpt lat="38.630267" lon="-2.846353">
        <ele>1058.306728</ele>
        <time>2020-08-07T08:37:24.646Z</time>
      </trkpt>
      <trkpt lat="38.630215" lon="-2.846458">
        <ele>1058.178195</ele>
        <time>2020-08-07T08:37:28.644Z</time>
      </trkpt>
      <trkpt lat="38.630148" lon="-2.846536">
        <ele>1058.058338</ele>
        <time>2020-08-07T08:37:31.652Z</time>
      </trkpt>
      <trkpt lat="38.630074" lon="-2.846612">
        <ele>1057.932779</ele>
        <time>2020-08-07T08:37:34.652Z</time>
      </trkpt>
      <trkpt lat="38.630002" lon="-2.846703">
        <ele>1057.798870</ele>
        <time>2020-08-07T08:37:37.639Z</time>
      </trkpt>
      <trkpt lat="38.629950" lon="-2.846806">
        <ele>1057.672079</ele>
        <time>2020-08-07T08:37:40.639Z</time>
      </trkpt>
      <trkpt lat="38.629905" lon="-2.846916">
        <ele>1057.543703</ele>
        <time>2020-08-07T08:37:43.643Z</time>
      </trkpt>
      <trkpt lat="38.629846" lon="-2.847039">
        <ele>1057.394477</ele>
        <time>2020-08-07T08:37:46.630Z</time>
      </trkpt>
      <trkpt lat="38.629776" lon="-2.847182">
        <ele>1057.220006</ele>
        <time>2020-08-07T08:37:49.641Z</time>
      </trkpt>
      <trkpt lat="38.629727" lon="-2.847313">
        <ele>1057.069843</ele>
        <time>2020-08-07T08:37:52.662Z</time>
      </trkpt>
      <trkpt lat="38.629641" lon="-2.847422">
        <ele>1056.909675</ele>
        <time>2020-08-07T08:37:55.638Z</time>
      </trkpt>
      <trkpt lat="38.629547" lon="-2.847526">
        <ele>1056.745243</ele>
        <time>2020-08-07T08:37:58.652Z</time>
      </trkpt>
      <trkpt lat="38.629448" lon="-2.847624">
        <ele>1056.579616</ele>
        <time>2020-08-07T08:38:01.639Z</time>
      </trkpt>
      <trkpt lat="38.629378" lon="-2.847749">
        <ele>1056.420606</ele>
        <time>2020-08-07T08:38:04.649Z</time>
      </trkpt>
      <trkpt lat="38.629299" lon="-2.847866">
        <ele>1056.260719</ele>
        <time>2020-08-07T08:38:07.640Z</time>
      </trkpt>
      <trkpt lat="38.629213" lon="-2.847975">
        <ele>1056.190913</ele>
        <time>2020-08-07T08:38:10.662Z</time>
      </trkpt>
      <trkpt lat="38.629152" lon="-2.848094">
        <ele>1056.280397</ele>
        <time>2020-08-07T08:38:13.630Z</time>
      </trkpt>
      <trkpt lat="38.629084" lon="-2.848204">
        <ele>1056.368588</ele>
        <time>2020-08-07T08:38:16.637Z</time>
      </trkpt>
      <trkpt lat="38.629034" lon="-2.848299">
        <ele>1056.440605</ele>
        <time>2020-08-07T08:38:19.645Z</time>
      </trkpt>
      <trkpt lat="38.628962" lon="-2.848384">
        <ele>1056.519430</ele>
        <time>2020-08-07T08:38:23.635Z</time>
      </trkpt>
      <trkpt lat="38.628880" lon="-2.848450">
        <ele>1056.597384</ele>
        <time>2020-08-07T08:38:28.638Z</time>
      </trkpt>
      <trkpt lat="38.628816" lon="-2.848533">
        <ele>1056.670705</ele>
        <time>2020-08-07T08:38:32.644Z</time>
      </trkpt>
      <trkpt lat="38.628759" lon="-2.848643">
        <ele>1056.753694</ele>
        <time>2020-08-07T08:38:36.642Z</time>
      </trkpt>
      <trkpt lat="38.628675" lon="-2.848739">
        <ele>1056.844318</ele>
        <time>2020-08-07T08:38:40.639Z</time>
      </trkpt>
      <trkpt lat="38.628588" lon="-2.848847">
        <ele>1056.941852</ele>
        <time>2020-08-07T08:38:44.641Z</time>
      </trkpt>
      <trkpt lat="38.628530" lon="-2.848936">
        <ele>1057.014720</ele>
        <time>2020-08-07T08:38:47.635Z</time>
      </trkpt>
      <trkpt lat="38.628461" lon="-2.849035">
        <ele>1057.098133</ele>
        <time>2020-08-07T08:38:51.639Z</time>
      </trkpt>
      <trkpt lat="38.628384" lon="-2.849124">
        <ele>1057.181626</ele>
        <time>2020-08-07T08:38:55.642Z</time>
      </trkpt>
      <trkpt lat="38.628306" lon="-2.849229">
        <ele>1057.272721</ele>
        <time>2020-08-07T08:38:59.656Z</time>
      </trkpt>
      <trkpt lat="38.628237" lon="-2.849341">
        <ele>1057.362398</ele>
        <time>2020-08-07T08:39:03.642Z</time>
      </trkpt>
      <trkpt lat="38.628169" lon="-2.849439">
        <ele>1057.444807</ele>
        <time>2020-08-07T08:39:06.651Z</time>
      </trkpt>
      <trkpt lat="38.628087" lon="-2.849521">
        <ele>1057.528549</ele>
        <time>2020-08-07T08:39:09.659Z</time>
      </trkpt>
      <trkpt lat="38.627992" lon="-2.849603">
        <ele>1057.610601</ele>
        <time>2020-08-07T08:39:13.657Z</time>
      </trkpt>
      <trkpt lat="38.627887" lon="-2.849682">
        <ele>1057.648237</ele>
        <time>2020-08-07T08:39:17.644Z</time>
      </trkpt>
      <trkpt lat="38.627828" lon="-2.849786">
        <ele>1057.679265</ele>
        <time>2020-08-07T08:39:20.643Z</time>
      </trkpt>
      <trkpt lat="38.627764" lon="-2.849884">
        <ele>1057.710100</ele>
        <time>2020-08-07T08:39:23.645Z</time>
      </trkpt>
      <trkpt lat="38.627690" lon="-2.849967">
        <ele>1057.740503</ele>
        <time>2020-08-07T08:39:26.664Z</time>
      </trkpt>
      <trkpt lat="38.627621" lon="-2.850044">
        <ele>1057.768790</ele>
        <time>2020-08-07T08:39:29.637Z</time>
      </trkpt>
      <trkpt lat="38.627547" lon="-2.850141">
        <ele>1057.801519</ele>
        <time>2020-08-07T08:39:33.634Z</time>
      </trkpt>
      <trkpt lat="38.627467" lon="-2.850232">
        <ele>1057.834591</ele>
        <time>2020-08-07T08:39:37.654Z</time>
      </trkpt>
      <trkpt lat="38.627368" lon="-2.850285">
        <ele>1057.867751</ele>
        <time>2020-08-07T08:39:40.657Z</time>
      </trkpt>
      <trkpt lat="38.627272" lon="-2.850331">
        <ele>1057.899426</ele>
        <time>2020-08-07T08:39:43.656Z</time>
      </trkpt>
      <trkpt lat="38.627195" lon="-2.850413">
        <ele>1057.930378</ele>
        <time>2020-08-07T08:39:46.637Z</time>
      </trkpt>
      <trkpt lat="38.627128" lon="-2.850510">
        <ele>1057.961634</ele>
        <time>2020-08-07T08:39:49.637Z</time>
      </trkpt>
      <trkpt lat="38.627079" lon="-2.850633">
        <ele>1057.994965</ele>
        <time>2020-08-07T08:39:53.629Z</time>
      </trkpt>
      <trkpt lat="38.627023" lon="-2.850747">
        <ele>1058.027474</ele>
        <time>2020-08-07T08:39:58.627Z</time>
      </trkpt>
      <trkpt lat="38.626955" lon="-2.850834">
        <ele>1058.057183</ele>
        <time>2020-08-07T08:40:08.629Z</time>
      </trkpt>
      <trkpt lat="38.626886" lon="-2.850939">
        <ele>1058.090306</ele>
        <time>2020-08-07T08:40:13.636Z</time>
      </trkpt>
      <trkpt lat="38.626805" lon="-2.851034">
        <ele>1058.124254</ele>
        <time>2020-08-07T08:40:17.639Z</time>
      </trkpt>
      <trkpt lat="38.626739" lon="-2.851121">
        <ele>1058.153530</ele>
        <time>2020-08-07T08:40:21.652Z</time>
      </trkpt>
      <trkpt lat="38.626656" lon="-2.851185">
        <ele>1058.236240</ele>
        <time>2020-08-07T08:40:25.637Z</time>
      </trkpt>
      <trkpt lat="38.626575" lon="-2.851251">
        <ele>1058.332814</ele>
        <time>2020-08-07T08:40:29.638Z</time>
      </trkpt>
      <trkpt lat="38.626494" lon="-2.851321">
        <ele>1058.431111</ele>
        <time>2020-08-07T08:40:33.650Z</time>
      </trkpt>
      <trkpt lat="38.626407" lon="-2.851387">
        <ele>1058.532827</ele>
        <time>2020-08-07T08:40:37.633Z</time>
      </trkpt>
      <trkpt lat="38.626321" lon="-2.851443">
        <ele>1058.629872</ele>
        <time>2020-08-07T08:40:40.636Z</time>
      </trkpt>
      <trkpt lat="38.626237" lon="-2.851511">
        <ele>1058.729836</ele>
        <time>2020-08-07T08:40:43.639Z</time>
      </trkpt>
      <trkpt lat="38.626152" lon="-2.851587">
        <ele>1058.834118</ele>
        <time>2020-08-07T08:40:46.643Z</time>
      </trkpt>
      <trkpt lat="38.626053" lon="-2.851644">
        <ele>1058.943300</ele>
        <time>2020-08-07T08:40:49.649Z</time>
      </trkpt>
      <trkpt lat="38.625945" lon="-2.851706">
        <ele>1059.062348</ele>
        <time>2020-08-07T08:40:52.644Z</time>
      </trkpt>
      <trkpt lat="38.625840" lon="-2.851772">
        <ele>1059.180001</ele>
        <time>2020-08-07T08:40:55.660Z</time>
      </trkpt>
      <trkpt lat="38.625737" lon="-2.851830">
        <ele>1059.293177</ele>
        <time>2020-08-07T08:40:58.642Z</time>
      </trkpt>
      <trkpt lat="38.625636" lon="-2.851888">
        <ele>1059.404516</ele>
        <time>2020-08-07T08:41:01.659Z</time>
      </trkpt>
      <trkpt lat="38.625530" lon="-2.851948">
        <ele>1059.521087</ele>
        <time>2020-08-07T08:41:04.638Z</time>
      </trkpt>
      <trkpt lat="38.625439" lon="-2.852020">
        <ele>1059.628687</ele>
        <time>2020-08-07T08:41:07.632Z</time>
      </trkpt>
      <trkpt lat="38.625348" lon="-2.852088">
        <ele>1059.734668</ele>
        <time>2020-08-07T08:41:10.649Z</time>
      </trkpt>
      <trkpt lat="38.625243" lon="-2.852159">
        <ele>1059.854105</ele>
        <time>2020-08-07T08:41:13.636Z</time>
      </trkpt>
      <trkpt lat="38.625130" lon="-2.852228">
        <ele>1059.974041</ele>
        <time>2020-08-07T08:41:16.643Z</time>
      </trkpt>
      <trkpt lat="38.625021" lon="-2.852293">
        <ele>1060.028684</ele>
        <time>2020-08-07T08:41:19.648Z</time>
      </trkpt>
      <trkpt lat="38.624922" lon="-2.852361">
        <ele>1060.079740</ele>
        <time>2020-08-07T08:41:22.651Z</time>
      </trkpt>
      <trkpt lat="38.624830" lon="-2.852427">
        <ele>1060.127666</ele>
        <time>2020-08-07T08:41:25.655Z</time>
      </trkpt>
      <trkpt lat="38.624737" lon="-2.852492">
        <ele>1060.175817</ele>
        <time>2020-08-07T08:41:28.643Z</time>
      </trkpt>
      <trkpt lat="38.624634" lon="-2.852544">
        <ele>1060.226131</ele>
        <time>2020-08-07T08:41:31.646Z</time>
      </trkpt>
      <trkpt lat="38.624534" lon="-2.852598">
        <ele>1060.275452</ele>
        <time>2020-08-07T08:41:34.639Z</time>
      </trkpt>
      <trkpt lat="38.624446" lon="-2.852662">
        <ele>1060.321445</ele>
        <time>2020-08-07T08:41:37.652Z</time>
      </trkpt>
      <trkpt lat="38.624352" lon="-2.852727">
        <ele>1060.369996</ele>
        <time>2020-08-07T08:41:40.647Z</time>
      </trkpt>
      <trkpt lat="38.624258" lon="-2.852793">
        <ele>1060.418716</ele>
        <time>2020-08-07T08:41:43.653Z</time>
      </trkpt>
      <trkpt lat="38.624162" lon="-2.852850">
        <ele>1060.466805</ele>
        <time>2020-08-07T08:41:46.648Z</time>
      </trkpt>
      <trkpt lat="38.624073" lon="-2.852901">
        <ele>1060.511117</ele>
        <time>2020-08-07T08:41:49.651Z</time>
      </trkpt>
      <trkpt lat="38.623989" lon="-2.852950">
        <ele>1060.553066</ele>
        <time>2020-08-07T08:41:52.659Z</time>
      </trkpt>
      <trkpt lat="38.623901" lon="-2.853006">
        <ele>1060.597724</ele>
        <time>2020-08-07T08:41:55.640Z</time>
      </trkpt>
      <trkpt lat="38.623810" lon="-2.853078">
        <ele>1060.646339</ele>
        <time>2020-08-07T08:41:58.653Z</time>
      </trkpt>
      <trkpt lat="38.623724" lon="-2.853142">
        <ele>1060.691545</ele>
        <time>2020-08-07T08:42:01.644Z</time>
      </trkpt>
      <trkpt lat="38.623645" lon="-2.853203">
        <ele>1060.733470</ele>
        <time>2020-08-07T08:42:04.641Z</time>
      </trkpt>
      <trkpt lat="38.623545" lon="-2.853278">
        <ele>1060.786139</ele>
        <time>2020-08-07T08:42:08.650Z</time>
      </trkpt>
      <trkpt lat="38.623445" lon="-2.853345">
        <ele>1060.803153</ele>
        <time>2020-08-07T08:42:12.652Z</time>
      </trkpt>
      <trkpt lat="38.623354" lon="-2.853415">
        <ele>1060.818960</ele>
        <time>2020-08-07T08:42:16.639Z</time>
      </trkpt>
      <trkpt lat="38.623267" lon="-2.853487">
        <ele>1060.834384</ele>
        <time>2020-08-07T08:42:20.628Z</time>
      </trkpt>
      <trkpt lat="38.623170" lon="-2.853552">
        <ele>1060.850685</ele>
        <time>2020-08-07T08:42:24.632Z</time>
      </trkpt>
      <trkpt lat="38.623078" lon="-2.853608">
        <ele>1060.865852</ele>
        <time>2020-08-07T08:42:28.632Z</time>
      </trkpt>
      <trkpt lat="38.622991" lon="-2.853657">
        <ele>1060.880003</ele>
        <time>2020-08-07T08:42:32.655Z</time>
      </trkpt>
      <trkpt lat="38.622884" lon="-2.853712">
        <ele>1060.897170</ele>
        <time>2020-08-07T08:42:36.642Z</time>
      </trkpt>
      <trkpt lat="38.622785" lon="-2.853756">
        <ele>1060.912773</ele>
        <time>2020-08-07T08:42:40.646Z</time>
      </trkpt>
      <trkpt lat="38.622688" lon="-2.853807">
        <ele>1060.928385</ele>
        <time>2020-08-07T08:42:44.661Z</time>
      </trkpt>
      <trkpt lat="38.622604" lon="-2.853851">
        <ele>1060.941898</ele>
        <time>2020-08-07T08:42:48.637Z</time>
      </trkpt>
      <trkpt lat="38.622511" lon="-2.853898">
        <ele>1060.956784</ele>
        <time>2020-08-07T08:42:53.641Z</time>
      </trkpt>
      <trkpt lat="38.622426" lon="-2.853940">
        <ele>1060.970349</ele>
        <time>2020-08-07T08:42:57.642Z</time>
      </trkpt>
      <trkpt lat="38.622322" lon="-2.853982">
        <ele>1060.986585</ele>
        <time>2020-08-07T08:43:01.639Z</time>
      </trkpt>
      <trkpt lat="38.622227" lon="-2.854039">
        <ele>1061.002206</ele>
        <time>2020-08-07T08:43:05.625Z</time>
      </trkpt>
      <trkpt lat="38.622137" lon="-2.854104">
        <ele>1061.017591</ele>
        <time>2020-08-07T08:43:09.643Z</time>
      </trkpt>
      <trkpt lat="38.622044" lon="-2.854168">
        <ele>1061.033312</ele>
        <time>2020-08-07T08:43:13.642Z</time>
      </trkpt>
      <trkpt lat="38.621965" lon="-2.854231">
        <ele>1061.047169</ele>
        <time>2020-08-07T08:43:17.638Z</time>
      </trkpt>
      <trkpt lat="38.621869" lon="-2.854276">
        <ele>1061.235145</ele>
        <time>2020-08-07T08:43:21.631Z</time>
      </trkpt>
      <trkpt lat="38.621779" lon="-2.854325">
        <ele>1061.558179</ele>
        <time>2020-08-07T08:43:25.643Z</time>
      </trkpt>
      <trkpt lat="38.621699" lon="-2.854387">
        <ele>1061.867072</ele>
        <time>2020-08-07T08:43:29.639Z</time>
      </trkpt>
      <trkpt lat="38.621602" lon="-2.854446">
        <ele>1062.221787</ele>
        <time>2020-08-07T08:43:33.629Z</time>
      </trkpt>
      <trkpt lat="38.621520" lon="-2.854503">
        <ele>1062.529986</ele>
        <time>2020-08-07T08:43:36.634Z</time>
      </trkpt>
      <trkpt lat="38.621424" lon="-2.854578">
        <ele>1062.901462</ele>
        <time>2020-08-07T08:43:40.644Z</time>
      </trkpt>
      <trkpt lat="38.621339" lon="-2.854659">
        <ele>1063.251472</ele>
        <time>2020-08-07T08:43:44.650Z</time>
      </trkpt>
      <trkpt lat="38.621234" lon="-2.854725">
        <ele>1063.637838</ele>
        <time>2020-08-07T08:43:48.640Z</time>
      </trkpt>
      <trkpt lat="38.621141" lon="-2.854782">
        <ele>1063.978407</ele>
        <time>2020-08-07T08:43:52.652Z</time>
      </trkpt>
      <trkpt lat="38.621050" lon="-2.854845">
        <ele>1064.320119</ele>
        <time>2020-08-07T08:43:56.652Z</time>
      </trkpt>
      <trkpt lat="38.620956" lon="-2.854906">
        <ele>1064.668215</ele>
        <time>2020-08-07T08:44:00.654Z</time>
      </trkpt>
      <trkpt lat="38.620867" lon="-2.854959">
        <ele>1064.992430</ele>
        <time>2020-08-07T08:44:04.648Z</time>
      </trkpt>
      <trkpt lat="38.620773" lon="-2.855011">
        <ele>1065.330658</ele>
        <time>2020-08-07T08:44:08.650Z</time>
      </trkpt>
      <trkpt lat="38.620675" lon="-2.855057">
        <ele>1065.675420</ele>
        <time>2020-08-07T08:44:12.648Z</time>
      </trkpt>
      <trkpt lat="38.620577" lon="-2.855113">
        <ele>1066.029896</ele>
        <time>2020-08-07T08:44:16.643Z</time>
      </trkpt>
      <trkpt lat="38.620486" lon="-2.855176">
        <ele>1066.371609</ele>
        <time>2020-08-07T08:44:20.648Z</time>
      </trkpt>
      <trkpt lat="38.620391" lon="-2.855240">
        <ele>1066.726193</ele>
        <time>2020-08-07T08:44:25.648Z</time>
      </trkpt>
      <trkpt lat="38.620297" lon="-2.855286">
        <ele>1066.984030</ele>
        <time>2020-08-07T08:44:29.657Z</time>
      </trkpt>
      <trkpt lat="38.620207" lon="-2.855338">
        <ele>1066.928131</ele>
        <time>2020-08-07T08:44:33.651Z</time>
      </trkpt>
      <trkpt lat="38.620112" lon="-2.855398">
        <ele>1066.868161</ele>
        <time>2020-08-07T08:44:37.647Z</time>
      </trkpt>
      <trkpt lat="38.620021" lon="-2.855452">
        <ele>1066.811378</ele>
        <time>2020-08-07T08:44:41.652Z</time>
      </trkpt>
      <trkpt lat="38.619922" lon="-2.855519">
        <ele>1066.747982</ele>
        <time>2020-08-07T08:44:45.659Z</time>
      </trkpt>
      <trkpt lat="38.619832" lon="-2.855577">
        <ele>1066.690940</ele>
        <time>2020-08-07T08:44:49.654Z</time>
      </trkpt>
      <trkpt lat="38.619754" lon="-2.855673">
        <ele>1066.629681</ele>
        <time>2020-08-07T08:44:54.641Z</time>
      </trkpt>
      <trkpt lat="38.619686" lon="-2.855759">
        <ele>1066.575564</ele>
        <time>2020-08-07T08:44:58.661Z</time>
      </trkpt>
      <trkpt lat="38.619623" lon="-2.855850">
        <ele>1066.521788</ele>
        <time>2020-08-07T08:45:02.644Z</time>
      </trkpt>
      <trkpt lat="38.619543" lon="-2.855938">
        <ele>1066.462072</ele>
        <time>2020-08-07T08:45:06.646Z</time>
      </trkpt>
      <trkpt lat="38.619482" lon="-2.856035">
        <ele>1066.406999</ele>
        <time>2020-08-07T08:45:10.658Z</time>
      </trkpt>
      <trkpt lat="38.619417" lon="-2.856125">
        <ele>1066.352790</ele>
        <time>2020-08-07T08:45:14.630Z</time>
      </trkpt>
      <trkpt lat="38.619355" lon="-2.856219">
        <ele>1066.298380</ele>
        <time>2020-08-07T08:45:18.639Z</time>
      </trkpt>
      <trkpt lat="38.619282" lon="-2.856321">
        <ele>1066.237200</ele>
        <time>2020-08-07T08:45:22.640Z</time>
      </trkpt>
      <trkpt lat="38.619202" lon="-2.856418">
        <ele>1066.174817</ele>
        <time>2020-08-07T08:45:26.628Z</time>
      </trkpt>
      <trkpt lat="38.619125" lon="-2.856510">
        <ele>1066.115186</ele>
        <time>2020-08-07T08:45:30.636Z</time>
      </trkpt>
      <trkpt lat="38.619059" lon="-2.856605">
        <ele>1066.058958</ele>
        <time>2020-08-07T08:45:34.632Z</time>
      </trkpt>
      <trkpt lat="38.618990" lon="-2.856706">
        <ele>1065.999617</ele>
        <time>2020-08-07T08:45:38.639Z</time>
      </trkpt>
      <trkpt lat="38.618911" lon="-2.856802">
        <ele>1066.049645</ele>
        <time>2020-08-07T08:45:42.642Z</time>
      </trkpt>
      <trkpt lat="38.618851" lon="-2.856908">
        <ele>1066.158495</ele>
        <time>2020-08-07T08:45:46.646Z</time>
      </trkpt>
      <trkpt lat="38.618792" lon="-2.857014">
        <ele>1066.266723</ele>
        <time>2020-08-07T08:45:50.630Z</time>
      </trkpt>
      <trkpt lat="38.618717" lon="-2.857114">
        <ele>1066.381995</ele>
        <time>2020-08-07T08:45:54.638Z</time>
      </trkpt>
      <trkpt lat="38.618648" lon="-2.857201">
        <ele>1066.485085</ele>
        <time>2020-08-07T08:45:58.633Z</time>
      </trkpt>
      <trkpt lat="38.618592" lon="-2.857300">
        <ele>1066.586723</ele>
        <time>2020-08-07T08:46:02.643Z</time>
      </trkpt>
      <trkpt lat="38.618512" lon="-2.857385">
        <ele>1066.697387</ele>
        <time>2020-08-07T08:46:06.636Z</time>
      </trkpt>
      <trkpt lat="38.618458" lon="-2.857502">
        <ele>1066.810390</ele>
        <time>2020-08-07T08:46:11.633Z</time>
      </trkpt>
      <trkpt lat="38.618372" lon="-2.857575">
        <ele>1066.920225</ele>
        <time>2020-08-07T08:46:15.632Z</time>
      </trkpt>
      <trkpt lat="38.618294" lon="-2.857651">
        <ele>1067.024563</ele>
        <time>2020-08-07T08:46:18.632Z</time>
      </trkpt>
      <trkpt lat="38.618188" lon="-2.857781">
        <ele>1067.180818</ele>
        <time>2020-08-07T08:46:23.648Z</time>
      </trkpt>
      <trkpt lat="38.618127" lon="-2.857887">
        <ele>1067.290296</ele>
        <time>2020-08-07T08:46:27.642Z</time>
      </trkpt>
      <trkpt lat="38.618068" lon="-2.857981">
        <ele>1067.390565</ele>
        <time>2020-08-07T08:46:31.638Z</time>
      </trkpt>
      <trkpt lat="38.617983" lon="-2.858061">
        <ele>1067.502862</ele>
        <time>2020-08-07T08:46:35.645Z</time>
      </trkpt>
      <trkpt lat="38.617895" lon="-2.858143">
        <ele>1067.618717</ele>
        <time>2020-08-07T08:46:39.647Z</time>
      </trkpt>
      <trkpt lat="38.617818" lon="-2.858226">
        <ele>1067.725865</ele>
        <time>2020-08-07T08:46:43.648Z</time>
      </trkpt>
      <trkpt lat="38.617752" lon="-2.858322">
        <ele>1067.832204</ele>
        <time>2020-08-07T08:46:47.649Z</time>
      </trkpt>
      <trkpt lat="38.617686" lon="-2.858408">
        <ele>1067.987853</ele>
        <time>2020-08-07T08:46:51.647Z</time>
      </trkpt>
      <trkpt lat="38.617634" lon="-2.858521">
        <ele>1068.243033</ele>
        <time>2020-08-07T08:46:55.650Z</time>
      </trkpt>
      <trkpt lat="38.617560" lon="-2.858630">
        <ele>1068.524009</ele>
        <time>2020-08-07T08:46:59.644Z</time>
      </trkpt>
      <trkpt lat="38.617485" lon="-2.858733">
        <ele>1068.797971</ele>
        <time>2020-08-07T08:47:03.645Z</time>
      </trkpt>
      <trkpt lat="38.617405" lon="-2.858833">
        <ele>1069.076460</ele>
        <time>2020-08-07T08:47:07.646Z</time>
      </trkpt>
      <trkpt lat="38.617324" lon="-2.858940">
        <ele>1069.366359</ele>
        <time>2020-08-07T08:47:11.649Z</time>
      </trkpt>
      <trkpt lat="38.617247" lon="-2.859052">
        <ele>1069.656647</ele>
        <time>2020-08-07T08:47:15.629Z</time>
      </trkpt>
      <trkpt lat="38.617190" lon="-2.859144">
        <ele>1069.885116</ele>
        <time>2020-08-07T08:47:21.652Z</time>
      </trkpt>
      <trkpt lat="38.617102" lon="-2.859168">
        <ele>1070.109192</ele>
        <time>2020-08-07T08:47:40.648Z</time>
      </trkpt>
      <trkpt lat="38.617039" lon="-2.859257">
        <ele>1070.342875</ele>
        <time>2020-08-07T08:47:51.644Z</time>
      </trkpt>
      <trkpt lat="38.617043" lon="-2.859397">
        <ele>1070.615475</ele>
        <time>2020-08-07T08:48:14.628Z</time>
      </trkpt>
      <trkpt lat="38.617012" lon="-2.859521">
        <ele>1070.868809</ele>
        <time>2020-08-07T08:48:18.642Z</time>
      </trkpt>
      <trkpt lat="38.616985" lon="-2.859642">
        <ele>1071.113670</ele>
        <time>2020-08-07T08:48:21.639Z</time>
      </trkpt>
      <trkpt lat="38.616965" lon="-2.859777">
        <ele>1071.381039</ele>
        <time>2020-08-07T08:48:25.634Z</time>
      </trkpt>
      <trkpt lat="38.616963" lon="-2.859919">
        <ele>1071.657394</ele>
        <time>2020-08-07T08:48:30.637Z</time>
      </trkpt>
      <trkpt lat="38.616959" lon="-2.860041">
        <ele>1071.894996</ele>
        <time>2020-08-07T08:48:34.650Z</time>
      </trkpt>
      <trkpt lat="38.616949" lon="-2.860179">
        <ele>1072.164675</ele>
        <time>2020-08-07T08:48:39.639Z</time>
      </trkpt>
      <trkpt lat="38.616943" lon="-2.860317">
        <ele>1072.446213</ele>
        <time>2020-08-07T08:48:44.641Z</time>
      </trkpt>
      <trkpt lat="38.616918" lon="-2.860445">
        <ele>1072.754142</ele>
        <time>2020-08-07T08:48:48.654Z</time>
      </trkpt>
      <trkpt lat="38.616886" lon="-2.860555">
        <ele>1073.028087</ele>
        <time>2020-08-07T08:48:51.663Z</time>
      </trkpt>
      <trkpt lat="38.616859" lon="-2.860666">
        <ele>1073.299412</ele>
        <time>2020-08-07T08:48:54.654Z</time>
      </trkpt>
      <trkpt lat="38.616859" lon="-2.860805">
        <ele>1073.623823</ele>
        <time>2020-08-07T08:48:58.652Z</time>
      </trkpt>
      <trkpt lat="38.616856" lon="-2.860929">
        <ele>1073.913364</ele>
        <time>2020-08-07T08:49:01.660Z</time>
      </trkpt>
      <trkpt lat="38.616856" lon="-2.861060">
        <ele>1074.219103</ele>
        <time>2020-08-07T08:49:05.653Z</time>
      </trkpt>
      <trkpt lat="38.616851" lon="-2.861183">
        <ele>1074.506560</ele>
        <time>2020-08-07T08:49:09.653Z</time>
      </trkpt>
      <trkpt lat="38.616849" lon="-2.861298">
        <ele>1074.775024</ele>
        <time>2020-08-07T08:49:13.642Z</time>
      </trkpt>
      <trkpt lat="38.616832" lon="-2.861421">
        <ele>1075.066549</ele>
        <time>2020-08-07T08:49:17.650Z</time>
      </trkpt>
      <trkpt lat="38.616823" lon="-2.861551">
        <ele>1075.371143</ele>
        <time>2020-08-07T08:49:20.579Z</time>
      </trkpt>
      <trkpt lat="38.616821" lon="-2.861680">
        <ele>1075.672275</ele>
        <time>2020-08-07T08:49:24.601Z</time>
      </trkpt>
      <trkpt lat="38.616817" lon="-2.861798">
        <ele>1075.947933</ele>
        <time>2020-08-07T08:49:28.595Z</time>
      </trkpt>
      <trkpt lat="38.616815" lon="-2.861932">
        <ele>1076.260731</ele>
        <time>2020-08-07T08:49:32.595Z</time>
      </trkpt>
      <trkpt lat="38.616795" lon="-2.862072">
        <ele>1076.592892</ele>
        <time>2020-08-07T08:49:36.582Z</time>
      </trkpt>
      <trkpt lat="38.616792" lon="-2.862212">
        <ele>1076.919760</ele>
        <time>2020-08-07T08:49:41.577Z</time>
      </trkpt>
      <trkpt lat="38.616786" lon="-2.862338">
        <ele>1077.214376</ele>
        <time>2020-08-07T08:49:45.599Z</time>
      </trkpt>
      <trkpt lat="38.616776" lon="-2.862476">
        <ele>1077.537835</ele>
        <time>2020-08-07T08:49:49.583Z</time>
      </trkpt>
      <trkpt lat="38.616766" lon="-2.862626">
        <ele>1077.574307</ele>
        <time>2020-08-07T08:49:53.586Z</time>
      </trkpt>
      <trkpt lat="38.616759" lon="-2.862772">
        <ele>1077.179939</ele>
        <time>2020-08-07T08:49:57.585Z</time>
      </trkpt>
      <trkpt lat="38.616748" lon="-2.862920">
        <ele>1076.779118</ele>
        <time>2020-08-07T08:50:01.582Z</time>
      </trkpt>
      <trkpt lat="38.616731" lon="-2.863037">
        <ele>1076.458269</ele>
        <time>2020-08-07T08:50:04.588Z</time>
      </trkpt>
      <trkpt lat="38.616710" lon="-2.863154">
        <ele>1076.134612</ele>
        <time>2020-08-07T08:50:07.584Z</time>
      </trkpt>
      <trkpt lat="38.616684" lon="-2.863287">
        <ele>1075.764980</ele>
        <time>2020-08-07T08:50:10.593Z</time>
      </trkpt>
      <trkpt lat="38.616663" lon="-2.863447">
        <ele>1075.327563</ele>
        <time>2020-08-07T08:50:13.582Z</time>
      </trkpt>
      <trkpt lat="38.616651" lon="-2.863609">
        <ele>1074.888839</ele>
        <time>2020-08-07T08:50:16.589Z</time>
      </trkpt>
      <trkpt lat="38.616636" lon="-2.863767">
        <ele>1074.459725</ele>
        <time>2020-08-07T08:50:19.584Z</time>
      </trkpt>
      <trkpt lat="38.616620" lon="-2.863925">
        <ele>1074.030181</ele>
        <time>2020-08-07T08:50:22.580Z</time>
      </trkpt>
      <trkpt lat="38.616592" lon="-2.864074">
        <ele>1073.617009</ele>
        <time>2020-08-07T08:50:25.595Z</time>
      </trkpt>
      <trkpt lat="38.616595" lon="-2.864194">
        <ele>1073.293313</ele>
        <time>2020-08-07T08:50:28.586Z</time>
      </trkpt>
      <trkpt lat="38.616597" lon="-2.864322">
        <ele>1072.948145</ele>
        <time>2020-08-07T08:50:31.576Z</time>
      </trkpt>
      <trkpt lat="38.616610" lon="-2.864441">
        <ele>1072.624190</ele>
        <time>2020-08-07T08:50:34.590Z</time>
      </trkpt>
      <trkpt lat="38.616623" lon="-2.864563">
        <ele>1072.292223</ele>
        <time>2020-08-07T08:50:37.589Z</time>
      </trkpt>
      <trkpt lat="38.616622" lon="-2.864688">
        <ele>1071.955195</ele>
        <time>2020-08-07T08:50:40.597Z</time>
      </trkpt>
      <trkpt lat="38.616618" lon="-2.864820">
        <ele>1071.599044</ele>
        <time>2020-08-07T08:50:43.583Z</time>
      </trkpt>
      <trkpt lat="38.616618" lon="-2.864940">
        <ele>1071.644742</ele>
        <time>2020-08-07T08:50:46.599Z</time>
      </trkpt>
      <trkpt lat="38.616600" lon="-2.865066">
        <ele>1071.787593</ele>
        <time>2020-08-07T08:50:49.580Z</time>
      </trkpt>
      <trkpt lat="38.616581" lon="-2.865190">
        <ele>1071.928517</ele>
        <time>2020-08-07T08:50:52.589Z</time>
      </trkpt>
      <trkpt lat="38.616559" lon="-2.865317">
        <ele>1072.073593</ele>
        <time>2020-08-07T08:50:55.585Z</time>
      </trkpt>
      <trkpt lat="38.616527" lon="-2.865459">
        <ele>1072.238414</ele>
        <time>2020-08-07T08:50:58.585Z</time>
      </trkpt>
      <trkpt lat="38.616493" lon="-2.865591">
        <ele>1072.393420</ele>
        <time>2020-08-07T08:51:01.578Z</time>
      </trkpt>
      <trkpt lat="38.616472" lon="-2.865704">
        <ele>1072.522959</ele>
        <time>2020-08-07T08:51:04.594Z</time>
      </trkpt>
      <trkpt lat="38.616432" lon="-2.865868">
        <ele>1072.714564</ele>
        <time>2020-08-07T08:51:08.595Z</time>
      </trkpt>
      <trkpt lat="38.616390" lon="-2.866003">
        <ele>1072.876619</ele>
        <time>2020-08-07T08:51:11.576Z</time>
      </trkpt>
      <trkpt lat="38.616367" lon="-2.866148">
        <ele>1073.041630</ele>
        <time>2020-08-07T08:51:15.589Z</time>
      </trkpt>
      <trkpt lat="38.616345" lon="-2.866275">
        <ele>1073.186706</ele>
        <time>2020-08-07T08:51:19.571Z</time>
      </trkpt>
      <trkpt lat="38.616346" lon="-2.866393">
        <ele>1073.318314</ele>
        <time>2020-08-07T08:51:23.578Z</time>
      </trkpt>
      <trkpt lat="38.616353" lon="-2.866532">
        <ele>1073.473655</ele>
        <time>2020-08-07T08:51:27.582Z</time>
      </trkpt>
      <trkpt lat="38.616357" lon="-2.866666">
        <ele>1073.623208</ele>
        <time>2020-08-07T08:51:31.569Z</time>
      </trkpt>
      <trkpt lat="38.616355" lon="-2.866784">
        <ele>1073.754839</ele>
        <time>2020-08-07T08:51:34.587Z</time>
      </trkpt>
      <trkpt lat="38.616349" lon="-2.866928">
        <ele>1073.915664</ele>
        <time>2020-08-07T08:51:38.581Z</time>
      </trkpt>
      <trkpt lat="38.616313" lon="-2.867051">
        <ele>1074.062148</ele>
        <time>2020-08-07T08:51:41.575Z</time>
      </trkpt>
      <trkpt lat="38.616285" lon="-2.867193">
        <ele>1074.320353</ele>
        <time>2020-08-07T08:51:45.583Z</time>
      </trkpt>
      <trkpt lat="38.616233" lon="-2.867330">
        <ele>1074.622881</ele>
        <time>2020-08-07T08:51:49.585Z</time>
      </trkpt>
      <trkpt lat="38.616197" lon="-2.867438">
        <ele>1074.856104</ele>
        <time>2020-08-07T08:51:52.582Z</time>
      </trkpt>
      <trkpt lat="38.616163" lon="-2.867555">
        <ele>1075.104050</ele>
        <time>2020-08-07T08:51:55.580Z</time>
      </trkpt>
      <trkpt lat="38.616131" lon="-2.867663">
        <ele>1075.333474</ele>
        <time>2020-08-07T08:51:58.592Z</time>
      </trkpt>
      <trkpt lat="38.616086" lon="-2.867805">
        <ele>1075.637841</ele>
        <time>2020-08-07T08:52:02.587Z</time>
      </trkpt>
      <trkpt lat="38.616048" lon="-2.867948">
        <ele>1075.937856</ele>
        <time>2020-08-07T08:52:06.578Z</time>
      </trkpt>
      <trkpt lat="38.616033" lon="-2.868069">
        <ele>1076.181202</ele>
        <time>2020-08-07T08:52:09.579Z</time>
      </trkpt>
      <trkpt lat="38.616024" lon="-2.868185">
        <ele>1076.412743</ele>
        <time>2020-08-07T08:52:12.587Z</time>
      </trkpt>
      <trkpt lat="38.616007" lon="-2.868307">
        <ele>1076.658892</ele>
        <time>2020-08-07T08:52:15.571Z</time>
      </trkpt>
      <trkpt lat="38.615986" lon="-2.868430">
        <ele>1076.908969</ele>
        <time>2020-08-07T08:52:18.586Z</time>
      </trkpt>
      <trkpt lat="38.615954" lon="-2.868551">
        <ele>1077.162703</ele>
        <time>2020-08-07T08:52:21.578Z</time>
      </trkpt>
      <trkpt lat="38.615939" lon="-2.868705">
        <ele>1077.470957</ele>
        <time>2020-08-07T08:52:25.579Z</time>
      </trkpt>
      <trkpt lat="38.615928" lon="-2.868827">
        <ele>1077.714892</ele>
        <time>2020-08-07T08:52:28.577Z</time>
      </trkpt>
      <trkpt lat="38.615900" lon="-2.868957">
        <ele>1077.982739</ele>
        <time>2020-08-07T08:52:31.571Z</time>
      </trkpt>
      <trkpt lat="38.615864" lon="-2.869086">
        <ele>1078.254822</ele>
        <time>2020-08-07T08:52:34.581Z</time>
      </trkpt>
      <trkpt lat="38.615835" lon="-2.869211">
        <ele>1078.513821</ele>
        <time>2020-08-07T08:52:37.612Z</time>
      </trkpt>
      <trkpt lat="38.615812" lon="-2.869353">
        <ele>1078.820439</ele>
        <time>2020-08-07T08:52:40.572Z</time>
      </trkpt>
      <trkpt lat="38.615786" lon="-2.869516">
        <ele>1079.199775</ele>
        <time>2020-08-07T08:52:43.572Z</time>
      </trkpt>
      <trkpt lat="38.615755" lon="-2.869625">
        <ele>1079.464268</ele>
        <time>2020-08-07T08:52:45.588Z</time>
      </trkpt>
      <trkpt lat="38.615742" lon="-2.869739">
        <ele>1079.726964</ele>
        <time>2020-08-07T08:52:47.584Z</time>
      </trkpt>
      <trkpt lat="38.615717" lon="-2.869860">
        <ele>1080.012350</ele>
        <time>2020-08-07T08:52:49.590Z</time>
      </trkpt>
      <trkpt lat="38.615694" lon="-2.869976">
        <ele>1080.285235</ele>
        <time>2020-08-07T08:52:51.583Z</time>
      </trkpt>
      <trkpt lat="38.615666" lon="-2.870100">
        <ele>1080.579549</ele>
        <time>2020-08-07T08:52:53.574Z</time>
      </trkpt>
      <trkpt lat="38.615648" lon="-2.870222">
        <ele>1080.862649</ele>
        <time>2020-08-07T08:52:55.575Z</time>
      </trkpt>
      <trkpt lat="38.615628" lon="-2.870357">
        <ele>1081.175959</ele>
        <time>2020-08-07T08:52:57.578Z</time>
      </trkpt>
      <trkpt lat="38.615604" lon="-2.870488">
        <ele>1081.482766</ele>
        <time>2020-08-07T08:52:59.579Z</time>
      </trkpt>
      <trkpt lat="38.615590" lon="-2.870630">
        <ele>1081.809121</ele>
        <time>2020-08-07T08:53:01.583Z</time>
      </trkpt>
      <trkpt lat="38.615562" lon="-2.870771">
        <ele>1082.140849</ele>
        <time>2020-08-07T08:53:03.590Z</time>
      </trkpt>
      <trkpt lat="38.615589" lon="-2.870918">
        <ele>1082.485174</ele>
        <time>2020-08-07T08:53:06.589Z</time>
      </trkpt>
      <trkpt lat="38.615560" lon="-2.871078">
        <ele>1082.859693</ele>
        <time>2020-08-07T08:53:08.573Z</time>
      </trkpt>
      <trkpt lat="38.615588" lon="-2.871252">
        <ele>1083.264773</ele>
        <time>2020-08-07T08:53:11.572Z</time>
      </trkpt>
      <trkpt lat="38.615586" lon="-2.871385">
        <ele>1083.568095</ele>
        <time>2020-08-07T08:53:13.578Z</time>
      </trkpt>
      <trkpt lat="38.615599" lon="-2.871509">
        <ele>1083.853373</ele>
        <time>2020-08-07T08:53:15.572Z</time>
      </trkpt>
      <trkpt lat="38.615599" lon="-2.871692">
        <ele>1083.863217</ele>
        <time>2020-08-07T08:53:18.589Z</time>
      </trkpt>
      <trkpt lat="38.615579" lon="-2.871847">
        <ele>1083.798814</ele>
        <time>2020-08-07T08:53:20.592Z</time>
      </trkpt>
      <trkpt lat="38.615575" lon="-2.871997">
        <ele>1083.737286</ele>
        <time>2020-08-07T08:53:22.574Z</time>
      </trkpt>
      <trkpt lat="38.615560" lon="-2.872158">
        <ele>1083.670816</ele>
        <time>2020-08-07T08:53:24.580Z</time>
      </trkpt>
      <trkpt lat="38.615537" lon="-2.872312">
        <ele>1083.606540</ele>
        <time>2020-08-07T08:53:26.573Z</time>
      </trkpt>
      <trkpt lat="38.615503" lon="-2.872462">
        <ele>1083.542512</ele>
        <time>2020-08-07T08:53:28.576Z</time>
      </trkpt>
      <trkpt lat="38.615429" lon="-2.872595">
        <ele>1083.475577</ele>
        <time>2020-08-07T08:53:30.600Z</time>
      </trkpt>
      <trkpt lat="38.615384" lon="-2.872724">
        <ele>1083.417662</ele>
        <time>2020-08-07T08:53:32.577Z</time>
      </trkpt>
      <trkpt lat="38.615332" lon="-2.872872">
        <ele>1083.351137</ele>
        <time>2020-08-07T08:53:34.588Z</time>
      </trkpt>
      <trkpt lat="38.615295" lon="-2.873009">
        <ele>1083.291713</ele>
        <time>2020-08-07T08:53:36.576Z</time>
      </trkpt>
      <trkpt lat="38.615255" lon="-2.873132">
        <ele>1083.237096</ele>
        <time>2020-08-07T08:53:38.569Z</time>
      </trkpt>
      <trkpt lat="38.615212" lon="-2.873255">
        <ele>1083.181855</ele>
        <time>2020-08-07T08:53:40.579Z</time>
      </trkpt>
      <trkpt lat="38.615166" lon="-2.873369">
        <ele>1083.129256</ele>
        <time>2020-08-07T08:53:42.574Z</time>
      </trkpt>
      <trkpt lat="38.615120" lon="-2.873485">
        <ele>1083.075927</ele>
        <time>2020-08-07T08:53:44.575Z</time>
      </trkpt>
      <trkpt lat="38.615063" lon="-2.873626">
        <ele>1083.010845</ele>
        <time>2020-08-07T08:53:46.589Z</time>
      </trkpt>
      <trkpt lat="38.615026" lon="-2.873751">
        <ele>1082.885540</ele>
        <time>2020-08-07T08:53:48.572Z</time>
      </trkpt>
      <trkpt lat="38.615032" lon="-2.873885">
        <ele>1082.678752</ele>
        <time>2020-08-07T08:53:50.589Z</time>
      </trkpt>
      <trkpt lat="38.615029" lon="-2.874032">
        <ele>1082.452195</ele>
        <time>2020-08-07T08:53:52.572Z</time>
      </trkpt>
      <trkpt lat="38.615024" lon="-2.874213">
        <ele>1082.173160</ele>
        <time>2020-08-07T08:53:54.579Z</time>
      </trkpt>
      <trkpt lat="38.615017" lon="-2.874387">
        <ele>1081.904728</ele>
        <time>2020-08-07T08:53:56.571Z</time>
      </trkpt>
      <trkpt lat="38.614987" lon="-2.874570">
        <ele>1081.616646</ele>
        <time>2020-08-07T08:53:58.582Z</time>
      </trkpt>
      <trkpt lat="38.614967" lon="-2.874761">
        <ele>1081.319747</ele>
        <time>2020-08-07T08:54:00.576Z</time>
      </trkpt>
      <trkpt lat="38.614938" lon="-2.874934">
        <ele>1081.047145</ele>
        <time>2020-08-07T08:54:02.580Z</time>
      </trkpt>
      <trkpt lat="38.614888" lon="-2.875123">
        <ele>1080.739720</ele>
        <time>2020-08-07T08:54:04.574Z</time>
      </trkpt>
      <trkpt lat="38.614839" lon="-2.875297">
        <ele>1080.454763</ele>
        <time>2020-08-07T08:54:06.581Z</time>
      </trkpt>
      <trkpt lat="38.614811" lon="-2.875421">
        <ele>1080.255902</ele>
        <time>2020-08-07T08:54:08.586Z</time>
      </trkpt>
      <trkpt lat="38.614758" lon="-2.875567">
        <ele>1080.007872</ele>
        <time>2020-08-07T08:54:10.585Z</time>
      </trkpt>
      <trkpt lat="38.614725" lon="-2.875688">
        <ele>1079.810420</ele>
        <time>2020-08-07T08:54:12.571Z</time>
      </trkpt>
      <trkpt lat="38.614686" lon="-2.875803">
        <ele>1079.617273</ele>
        <time>2020-08-07T08:54:14.579Z</time>
      </trkpt>
      <trkpt lat="38.614641" lon="-2.875910">
        <ele>1079.439602</ele>
        <time>2020-08-07T08:54:16.565Z</time>
      </trkpt>
      <trkpt lat="38.614593" lon="-2.876008">
        <ele>1079.601245</ele>
        <time>2020-08-07T08:54:19.584Z</time>
      </trkpt>
      <trkpt lat="38.614517" lon="-2.876103">
        <ele>1079.791259</ele>
        <time>2020-08-07T08:54:22.608Z</time>
      </trkpt>
      <trkpt lat="38.614447" lon="-2.876185">
        <ele>1079.960989</ele>
        <time>2020-08-07T08:54:26.598Z</time>
      </trkpt>
      <trkpt lat="38.614384" lon="-2.876322">
        <ele>1080.183151</ele>
        <time>2020-08-07T08:54:30.601Z</time>
      </trkpt>
      <trkpt lat="38.614298" lon="-2.876417">
        <ele>1080.386345</ele>
        <time>2020-08-07T08:54:34.589Z</time>
      </trkpt>
      <trkpt lat="38.614226" lon="-2.876516">
        <ele>1080.575361</ele>
        <time>2020-08-07T08:54:38.575Z</time>
      </trkpt>
      <trkpt lat="38.614186" lon="-2.876631">
        <ele>1080.751285</ele>
        <time>2020-08-07T08:54:42.585Z</time>
      </trkpt>
      <trkpt lat="38.614120" lon="-2.876732">
        <ele>1080.935294</ele>
        <time>2020-08-07T08:54:47.588Z</time>
      </trkpt>
      <trkpt lat="38.613876" lon="-2.876914">
        <ele>1081.440426</ele>
        <time>2020-08-07T08:55:27.595Z</time>
      </trkpt>
      <trkpt lat="38.613787" lon="-2.876980">
        <ele>1081.624405</ele>
        <time>2020-08-07T08:55:29.583Z</time>
      </trkpt>
      <trkpt lat="38.613715" lon="-2.877055">
        <ele>1081.790450</ele>
        <time>2020-08-07T08:55:31.590Z</time>
      </trkpt>
      <trkpt lat="38.613633" lon="-2.877171">
        <ele>1082.009066</ele>
        <time>2020-08-07T08:55:34.605Z</time>
      </trkpt>
      <trkpt lat="38.613555" lon="-2.877262">
        <ele>1082.197845</ele>
        <time>2020-08-07T08:55:37.578Z</time>
      </trkpt>
      <trkpt lat="38.613484" lon="-2.877343">
        <ele>1082.367968</ele>
        <time>2020-08-07T08:55:40.583Z</time>
      </trkpt>
      <trkpt lat="38.613385" lon="-2.877405">
        <ele>1082.565103</ele>
        <time>2020-08-07T08:55:43.581Z</time>
      </trkpt>
      <trkpt lat="38.613283" lon="-2.877410">
        <ele>1082.551346</ele>
        <time>2020-08-07T08:55:45.581Z</time>
      </trkpt>
      <trkpt lat="38.613177" lon="-2.877434">
        <ele>1082.348279</ele>
        <time>2020-08-07T08:55:47.591Z</time>
      </trkpt>
      <trkpt lat="38.613070" lon="-2.877476">
        <ele>1082.137150</ele>
        <time>2020-08-07T08:55:49.584Z</time>
      </trkpt>
      <trkpt lat="38.612973" lon="-2.877525">
        <ele>1081.940428</ele>
        <time>2020-08-07T08:55:51.583Z</time>
      </trkpt>
      <trkpt lat="38.612873" lon="-2.877576">
        <ele>1081.737358</ele>
        <time>2020-08-07T08:55:54.578Z</time>
      </trkpt>
      <trkpt lat="38.612789" lon="-2.877642">
        <ele>1081.551416</ele>
        <time>2020-08-07T08:55:59.608Z</time>
      </trkpt>
      <trkpt lat="38.612696" lon="-2.877680">
        <ele>1081.367254</ele>
        <time>2020-08-07T08:56:04.595Z</time>
      </trkpt>
      <trkpt lat="38.612608" lon="-2.877731">
        <ele>1081.185019</ele>
        <time>2020-08-07T08:56:08.585Z</time>
      </trkpt>
      <trkpt lat="38.612527" lon="-2.877783">
        <ele>1081.014071</ele>
        <time>2020-08-07T08:56:12.583Z</time>
      </trkpt>
      <trkpt lat="38.612440" lon="-2.877832">
        <ele>1080.834762</ele>
        <time>2020-08-07T08:56:16.584Z</time>
      </trkpt>
      <trkpt lat="38.612342" lon="-2.877893">
        <ele>1080.629185</ele>
        <time>2020-08-07T08:56:20.596Z</time>
      </trkpt>
      <trkpt lat="38.612238" lon="-2.877944">
        <ele>1080.419086</ele>
        <time>2020-08-07T08:56:24.588Z</time>
      </trkpt>
      <trkpt lat="38.612130" lon="-2.878020">
        <ele>1080.186583</ele>
        <time>2020-08-07T08:56:28.588Z</time>
      </trkpt>
      <trkpt lat="38.612031" lon="-2.878097">
        <ele>1079.968041</ele>
        <time>2020-08-07T08:56:31.579Z</time>
      </trkpt>
      <trkpt lat="38.611919" lon="-2.878176">
        <ele>1079.726795</ele>
        <time>2020-08-07T08:56:34.574Z</time>
      </trkpt>
      <trkpt lat="38.611801" lon="-2.878242">
        <ele>1079.483865</ele>
        <time>2020-08-07T08:56:37.580Z</time>
      </trkpt>
      <trkpt lat="38.611706" lon="-2.878298">
        <ele>1079.286557</ele>
        <time>2020-08-07T08:56:39.584Z</time>
      </trkpt>
      <trkpt lat="38.611603" lon="-2.878330">
        <ele>1079.211904</ele>
        <time>2020-08-07T08:56:41.591Z</time>
      </trkpt>
      <trkpt lat="38.611488" lon="-2.878357">
        <ele>1079.151549</ele>
        <time>2020-08-07T08:56:43.586Z</time>
      </trkpt>
      <trkpt lat="38.611392" lon="-2.878413">
        <ele>1079.097087</ele>
        <time>2020-08-07T08:56:45.577Z</time>
      </trkpt>
      <trkpt lat="38.611295" lon="-2.878456">
        <ele>1079.044095</ele>
        <time>2020-08-07T08:56:47.569Z</time>
      </trkpt>
      <trkpt lat="38.611207" lon="-2.878514">
        <ele>1078.992997</ele>
        <time>2020-08-07T08:56:49.582Z</time>
      </trkpt>
      <trkpt lat="38.611108" lon="-2.878550">
        <ele>1078.939869</ele>
        <time>2020-08-07T08:56:51.653Z</time>
      </trkpt>
      <trkpt lat="38.611013" lon="-2.878642">
        <ele>1078.878370</ele>
        <time>2020-08-07T08:56:53.584Z</time>
      </trkpt>
      <trkpt lat="38.610930" lon="-2.878715">
        <ele>1078.826381</ele>
        <time>2020-08-07T08:56:55.574Z</time>
      </trkpt>
      <trkpt lat="38.610838" lon="-2.878795">
        <ele>1078.768964</ele>
        <time>2020-08-07T08:56:57.582Z</time>
      </trkpt>
      <trkpt lat="38.610741" lon="-2.878884">
        <ele>1078.707351</ele>
        <time>2020-08-07T08:57:00.580Z</time>
      </trkpt>
      <trkpt lat="38.610660" lon="-2.878974">
        <ele>1078.651977</ele>
        <time>2020-08-07T08:57:02.583Z</time>
      </trkpt>
      <trkpt lat="38.610593" lon="-2.879084">
        <ele>1078.595718</ele>
        <time>2020-08-07T08:57:04.588Z</time>
      </trkpt>
      <trkpt lat="38.610535" lon="-2.879193">
        <ele>1078.542524</ele>
        <time>2020-08-07T08:57:06.584Z</time>
      </trkpt>
      <trkpt lat="38.610471" lon="-2.879312">
        <ele>1078.484252</ele>
        <time>2020-08-07T08:57:08.584Z</time>
      </trkpt>
      <trkpt lat="38.610442" lon="-2.879425">
        <ele>1078.436276</ele>
        <time>2020-08-07T08:57:10.586Z</time>
      </trkpt>
      <trkpt lat="38.610398" lon="-2.879531">
        <ele>1078.387860</ele>
        <time>2020-08-07T08:57:12.582Z</time>
      </trkpt>
      <trkpt lat="38.610336" lon="-2.879677">
        <ele>1078.386540</ele>
        <time>2020-08-07T08:57:15.574Z</time>
      </trkpt>
      <trkpt lat="38.610274" lon="-2.879799">
        <ele>1078.721911</ele>
        <time>2020-08-07T08:57:18.680Z</time>
      </trkpt>
      <trkpt lat="38.610216" lon="-2.879918">
        <ele>1079.045113</ele>
        <time>2020-08-07T08:57:22.592Z</time>
      </trkpt>
      <trkpt lat="38.610161" lon="-2.880040">
        <ele>1079.369691</ele>
        <time>2020-08-07T08:57:26.595Z</time>
      </trkpt>
      <trkpt lat="38.610120" lon="-2.880143">
        <ele>1079.636074</ele>
        <time>2020-08-07T08:57:29.586Z</time>
      </trkpt>
      <trkpt lat="38.610069" lon="-2.880240">
        <ele>1079.905496</ele>
        <time>2020-08-07T08:57:33.604Z</time>
      </trkpt>
      <trkpt lat="38.610008" lon="-2.880331">
        <ele>1080.181791</ele>
        <time>2020-08-07T08:57:39.585Z</time>
      </trkpt>
      <trkpt lat="38.609919" lon="-2.880413">
        <ele>1080.505208</ele>
        <time>2020-08-07T08:58:02.584Z</time>
      </trkpt>
      <trkpt lat="38.609833" lon="-2.880486">
        <ele>1080.809551</ele>
        <time>2020-08-07T08:58:06.576Z</time>
      </trkpt>
      <trkpt lat="38.609762" lon="-2.880579">
        <ele>1081.109174</ele>
        <time>2020-08-07T08:58:09.581Z</time>
      </trkpt>
      <trkpt lat="38.609680" lon="-2.880683">
        <ele>1081.449643</ele>
        <time>2020-08-07T08:58:12.589Z</time>
      </trkpt>
      <trkpt lat="38.609619" lon="-2.880780">
        <ele>1081.736575</ele>
        <time>2020-08-07T08:58:16.626Z</time>
      </trkpt>
      <trkpt lat="38.609536" lon="-2.880876">
        <ele>1082.066510</ele>
        <time>2020-08-07T08:58:21.592Z</time>
      </trkpt>
      <trkpt lat="38.609457" lon="-2.880947">
        <ele>1082.351204</ele>
        <time>2020-08-07T08:58:25.597Z</time>
      </trkpt>
      <trkpt lat="38.609383" lon="-2.881022">
        <ele>1082.629589</ele>
        <time>2020-08-07T08:58:30.586Z</time>
      </trkpt>
      <trkpt lat="38.609472" lon="-2.881052">
        <ele>1082.901011</ele>
        <time>2020-08-07T08:58:46.571Z</time>
      </trkpt>
      <trkpt lat="38.609516" lon="-2.881159">
        <ele>1083.179649</ele>
        <time>2020-08-07T08:58:52.588Z</time>
      </trkpt>
      <trkpt lat="38.609532" lon="-2.881277">
        <ele>1083.455641</ele>
        <time>2020-08-07T08:58:57.590Z</time>
      </trkpt>
      <trkpt lat="38.609461" lon="-2.881381">
        <ele>1083.548134</ele>
        <time>2020-08-07T08:59:02.578Z</time>
      </trkpt>
      <trkpt lat="38.609381" lon="-2.881451">
        <ele>1083.369369</ele>
        <time>2020-08-07T08:59:07.606Z</time>
      </trkpt>
      <trkpt lat="38.609310" lon="-2.881523">
        <ele>1083.202268</ele>
        <time>2020-08-07T08:59:13.594Z</time>
      </trkpt>
      <trkpt lat="38.609242" lon="-2.881632">
        <ele>1083.001225</ele>
        <time>2020-08-07T08:59:19.589Z</time>
      </trkpt>
      <trkpt lat="38.609178" lon="-2.881745">
        <ele>1082.800062</ele>
        <time>2020-08-07T08:59:24.575Z</time>
      </trkpt>
      <trkpt lat="38.609099" lon="-2.881821">
        <ele>1082.617755</ele>
        <time>2020-08-07T08:59:29.583Z</time>
      </trkpt>
      <trkpt lat="38.609013" lon="-2.881861">
        <ele>1082.448966</ele>
        <time>2020-08-07T08:59:33.592Z</time>
      </trkpt>
      <trkpt lat="38.608924" lon="-2.881899">
        <ele>1082.275900</ele>
        <time>2020-08-07T08:59:37.596Z</time>
      </trkpt>
      <trkpt lat="38.608831" lon="-2.881967">
        <ele>1082.078325</ele>
        <time>2020-08-07T08:59:42.593Z</time>
      </trkpt>
      <trkpt lat="38.608751" lon="-2.882067">
        <ele>1081.872041</ele>
        <time>2020-08-07T08:59:46.586Z</time>
      </trkpt>
      <trkpt lat="38.608712" lon="-2.882181">
        <ele>1081.692661</ele>
        <time>2020-08-07T08:59:50.579Z</time>
      </trkpt>
      <trkpt lat="38.608722" lon="-2.882304">
        <ele>1081.514409</ele>
        <time>2020-08-07T08:59:55.590Z</time>
      </trkpt>
      <trkpt lat="38.608712" lon="-2.882424">
        <ele>1081.340458</ele>
        <time>2020-08-07T09:00:00.579Z</time>
      </trkpt>
      <trkpt lat="38.608649" lon="-2.882559">
        <ele>1081.113807</ele>
        <time>2020-08-07T09:00:04.585Z</time>
      </trkpt>
      <trkpt lat="38.608592" lon="-2.882676">
        <ele>1080.915070</ele>
        <time>2020-08-07T09:00:07.579Z</time>
      </trkpt>
      <trkpt lat="38.608491" lon="-2.882765">
        <ele>1080.688868</ele>
        <time>2020-08-07T09:00:10.578Z</time>
      </trkpt>
      <trkpt lat="38.608380" lon="-2.882822">
        <ele>1080.468248</ele>
        <time>2020-08-07T09:00:13.568Z</time>
      </trkpt>
      <trkpt lat="38.608284" lon="-2.882884">
        <ele>1080.219311</ele>
        <time>2020-08-07T09:00:16.565Z</time>
      </trkpt>
      <trkpt lat="38.608175" lon="-2.882956">
        <ele>1079.751221</ele>
        <time>2020-08-07T09:00:20.583Z</time>
      </trkpt>
      <trkpt lat="38.608085" lon="-2.883025">
        <ele>1079.350861</ele>
        <time>2020-08-07T09:00:24.579Z</time>
      </trkpt>
      <trkpt lat="38.608010" lon="-2.883102">
        <ele>1078.983937</ele>
        <time>2020-08-07T09:00:29.581Z</time>
      </trkpt>
      <trkpt lat="38.607766" lon="-2.883220">
        <ele>1077.988557</ele>
        <time>2020-08-07T09:01:59.586Z</time>
      </trkpt>
      <trkpt lat="38.607680" lon="-2.883183">
        <ele>1077.642329</ele>
        <time>2020-08-07T09:02:02.572Z</time>
      </trkpt>
      <trkpt lat="38.607610" lon="-2.882846">
        <ele>1076.602504</ele>
        <time>2020-08-07T09:14:47.617Z</time>
      </trkpt>
      <trkpt lat="38.607564" lon="-2.882743">
        <ele>1076.248737</ele>
        <time>2020-08-07T09:14:52.568Z</time>
      </trkpt>
      <trkpt lat="38.607499" lon="-2.882650">
        <ele>1075.876670</ele>
        <time>2020-08-07T09:14:57.579Z</time>
      </trkpt>
      <trkpt lat="38.607400" lon="-2.882637">
        <ele>1075.496899</ele>
        <time>2020-08-07T09:15:02.566Z</time>
      </trkpt>
      <trkpt lat="38.607316" lon="-2.882718">
        <ele>1075.095536</ele>
        <time>2020-08-07T09:15:07.584Z</time>
      </trkpt>
      <trkpt lat="38.607237" lon="-2.882780">
        <ele>1074.741893</ele>
        <time>2020-08-07T09:15:11.580Z</time>
      </trkpt>
      <trkpt lat="38.607131" lon="-2.882823">
        <ele>1074.317557</ele>
        <time>2020-08-07T09:15:16.580Z</time>
      </trkpt>
      <trkpt lat="38.607037" lon="-2.882864">
        <ele>1073.938586</ele>
        <time>2020-08-07T09:15:21.578Z</time>
      </trkpt>
      <trkpt lat="38.606940" lon="-2.882896">
        <ele>1073.556330</ele>
        <time>2020-08-07T09:15:27.581Z</time>
      </trkpt>
      <trkpt lat="38.606835" lon="-2.882937">
        <ele>1073.368305</ele>
        <time>2020-08-07T09:15:33.590Z</time>
      </trkpt>
      <trkpt lat="38.606740" lon="-2.882958">
        <ele>1073.269103</ele>
        <time>2020-08-07T09:15:38.581Z</time>
      </trkpt>
      <trkpt lat="38.606649" lon="-2.882990">
        <ele>1073.171995</ele>
        <time>2020-08-07T09:15:45.597Z</time>
      </trkpt>
      <trkpt lat="38.606555" lon="-2.883016">
        <ele>1073.073037</ele>
        <time>2020-08-07T09:15:50.610Z</time>
      </trkpt>
      <trkpt lat="38.606470" lon="-2.883085">
        <ele>1072.969459</ele>
        <time>2020-08-07T09:15:55.584Z</time>
      </trkpt>
      <trkpt lat="38.606391" lon="-2.883140">
        <ele>1072.876918</ele>
        <time>2020-08-07T09:15:59.586Z</time>
      </trkpt>
      <trkpt lat="38.606297" lon="-2.883191">
        <ele>1072.771859</ele>
        <time>2020-08-07T09:16:05.600Z</time>
      </trkpt>
      <trkpt lat="38.606215" lon="-2.883240">
        <ele>1072.678736</ele>
        <time>2020-08-07T09:16:09.574Z</time>
      </trkpt>
      <trkpt lat="38.606125" lon="-2.883330">
        <ele>1072.561204</ele>
        <time>2020-08-07T09:16:13.582Z</time>
      </trkpt>
      <trkpt lat="38.606061" lon="-2.883430">
        <ele>1072.457268</ele>
        <time>2020-08-07T09:16:16.577Z</time>
      </trkpt>
      <trkpt lat="38.605981" lon="-2.883522">
        <ele>1072.346593</ele>
        <time>2020-08-07T09:16:19.579Z</time>
      </trkpt>
      <trkpt lat="38.605880" lon="-2.883599">
        <ele>1072.225620</ele>
        <time>2020-08-07T09:16:22.584Z</time>
      </trkpt>
      <trkpt lat="38.605789" lon="-2.883668">
        <ele>1072.116778</ele>
        <time>2020-08-07T09:16:25.577Z</time>
      </trkpt>
      <trkpt lat="38.605706" lon="-2.883756">
        <ele>1072.005867</ele>
        <time>2020-08-07T09:16:28.568Z</time>
      </trkpt>
      <trkpt lat="38.605642" lon="-2.883847">
        <ele>1071.907423</ele>
        <time>2020-08-07T09:16:31.589Z</time>
      </trkpt>
      <trkpt lat="38.605581" lon="-2.883936">
        <ele>1071.812231</ele>
        <time>2020-08-07T09:16:34.588Z</time>
      </trkpt>
      <trkpt lat="38.605504" lon="-2.884024">
        <ele>1071.706000</ele>
        <time>2020-08-07T09:16:38.568Z</time>
      </trkpt>
      <trkpt lat="38.605411" lon="-2.884075">
        <ele>1071.596993</ele>
        <time>2020-08-07T09:16:42.577Z</time>
      </trkpt>
      <trkpt lat="38.605325" lon="-2.884148">
        <ele>1070.905810</ele>
        <time>2020-08-07T09:16:46.571Z</time>
      </trkpt>
      <trkpt lat="38.605292" lon="-2.884258">
        <ele>1070.289122</ele>
        <time>2020-08-07T09:16:50.582Z</time>
      </trkpt>
      <trkpt lat="38.605282" lon="-2.884379">
        <ele>1069.652296</ele>
        <time>2020-08-07T09:16:55.588Z</time>
      </trkpt>
      <trkpt lat="38.605218" lon="-2.884515">
        <ele>1068.821396</ele>
        <time>2020-08-07T09:16:59.573Z</time>
      </trkpt>
      <trkpt lat="38.605135" lon="-2.884637">
        <ele>1067.974795</ele>
        <time>2020-08-07T09:17:02.570Z</time>
      </trkpt>
      <trkpt lat="38.605045" lon="-2.884745">
        <ele>1067.148447</ele>
        <time>2020-08-07T09:17:05.559Z</time>
      </trkpt>
      <trkpt lat="38.604970" lon="-2.884837">
        <ele>1066.452621</ele>
        <time>2020-08-07T09:17:08.574Z</time>
      </trkpt>
      <trkpt lat="38.604895" lon="-2.884908">
        <ele>1065.827796</ele>
        <time>2020-08-07T09:17:11.575Z</time>
      </trkpt>
      <trkpt lat="38.604813" lon="-2.884999">
        <ele>1065.100845</ele>
        <time>2020-08-07T09:17:15.576Z</time>
      </trkpt>
      <trkpt lat="38.604759" lon="-2.885096">
        <ele>1064.477510</ele>
        <time>2020-08-07T09:17:22.579Z</time>
      </trkpt>
      <trkpt lat="38.604725" lon="-2.885213">
        <ele>1063.824178</ele>
        <time>2020-08-07T09:17:40.581Z</time>
      </trkpt>
      <trkpt lat="38.604645" lon="-2.885285">
        <ele>1063.169130</ele>
        <time>2020-08-07T09:17:50.580Z</time>
      </trkpt>
      <trkpt lat="38.604603" lon="-2.885387">
        <ele>1062.565698</ele>
        <time>2020-08-07T09:17:55.568Z</time>
      </trkpt>
      <trkpt lat="38.604577" lon="-2.885516">
        <ele>1061.868433</ele>
        <time>2020-08-07T09:18:01.600Z</time>
      </trkpt>
      <trkpt lat="38.604526" lon="-2.885630">
        <ele>1061.180916</ele>
        <time>2020-08-07T09:18:07.575Z</time>
      </trkpt>
      <trkpt lat="38.604468" lon="-2.885742">
        <ele>1060.477693</ele>
        <time>2020-08-07T09:18:12.567Z</time>
      </trkpt>
      <trkpt lat="38.604424" lon="-2.885848">
        <ele>1059.849492</ele>
        <time>2020-08-07T09:18:20.577Z</time>
      </trkpt>
      <trkpt lat="38.604347" lon="-2.885941">
        <ele>1059.492125</ele>
        <time>2020-08-07T09:18:24.586Z</time>
      </trkpt>
      <trkpt lat="38.604274" lon="-2.886044">
        <ele>1059.379708</ele>
        <time>2020-08-07T09:18:26.578Z</time>
      </trkpt>
      <trkpt lat="38.604215" lon="-2.886168">
        <ele>1059.262339</ele>
        <time>2020-08-07T09:18:28.576Z</time>
      </trkpt>
      <trkpt lat="38.604132" lon="-2.886268">
        <ele>1059.144402</ele>
        <time>2020-08-07T09:18:30.580Z</time>
      </trkpt>
      <trkpt lat="38.604068" lon="-2.886396">
        <ele>1059.021551</ele>
        <time>2020-08-07T09:18:32.575Z</time>
      </trkpt>
      <trkpt lat="38.604008" lon="-2.886559">
        <ele>1058.875884</ele>
        <time>2020-08-07T09:18:34.588Z</time>
      </trkpt>
      <trkpt lat="38.603962" lon="-2.886700">
        <ele>1058.752356</ele>
        <time>2020-08-07T09:18:36.578Z</time>
      </trkpt>
      <trkpt lat="38.603920" lon="-2.886863">
        <ele>1058.613598</ele>
        <time>2020-08-07T09:18:39.583Z</time>
      </trkpt>
      <trkpt lat="38.603904" lon="-2.887015">
        <ele>1058.489602</ele>
        <time>2020-08-07T09:18:42.583Z</time>
      </trkpt>
      <trkpt lat="38.603874" lon="-2.887163">
        <ele>1058.365989</ele>
        <time>2020-08-07T09:18:45.604Z</time>
      </trkpt>
      <trkpt lat="38.603855" lon="-2.887288">
        <ele>1058.263037</ele>
        <time>2020-08-07T09:18:48.588Z</time>
      </trkpt>
      <trkpt lat="38.603838" lon="-2.887416">
        <ele>1058.158070</ele>
        <time>2020-08-07T09:18:52.583Z</time>
      </trkpt>
      <trkpt lat="38.603791" lon="-2.887544">
        <ele>1058.043733</ele>
        <time>2020-08-07T09:18:56.578Z</time>
      </trkpt>
      <trkpt lat="38.603743" lon="-2.887655">
        <ele>1057.941170</ele>
        <time>2020-08-07T09:19:00.592Z</time>
      </trkpt>
      <trkpt lat="38.603675" lon="-2.887764">
        <ele>1057.828411</ele>
        <time>2020-08-07T09:19:06.587Z</time>
      </trkpt>
      <trkpt lat="38.603613" lon="-2.887853">
        <ele>1057.732019</ele>
        <time>2020-08-07T09:19:10.603Z</time>
      </trkpt>
      <trkpt lat="38.603544" lon="-2.887947">
        <ele>1057.589383</ele>
        <time>2020-08-07T09:19:14.577Z</time>
      </trkpt>
      <trkpt lat="38.603460" lon="-2.888055">
        <ele>1057.396553</ele>
        <time>2020-08-07T09:19:18.577Z</time>
      </trkpt>
      <trkpt lat="38.603386" lon="-2.888128">
        <ele>1057.245243</ele>
        <time>2020-08-07T09:19:21.571Z</time>
      </trkpt>
      <trkpt lat="38.603298" lon="-2.888201">
        <ele>1057.075413</ele>
        <time>2020-08-07T09:19:24.569Z</time>
      </trkpt>
      <trkpt lat="38.603201" lon="-2.888298">
        <ele>1056.876058</ele>
        <time>2020-08-07T09:19:27.569Z</time>
      </trkpt>
      <trkpt lat="38.603098" lon="-2.888396">
        <ele>1056.668207</ele>
        <time>2020-08-07T09:19:30.578Z</time>
      </trkpt>
      <trkpt lat="38.603014" lon="-2.888514">
        <ele>1056.466209</ele>
        <time>2020-08-07T09:19:33.571Z</time>
      </trkpt>
      <trkpt lat="38.602940" lon="-2.888616">
        <ele>1056.290077</ele>
        <time>2020-08-07T09:19:36.576Z</time>
      </trkpt>
      <trkpt lat="38.602873" lon="-2.888698">
        <ele>1056.139941</ele>
        <time>2020-08-07T09:19:39.574Z</time>
      </trkpt>
      <trkpt lat="38.602810" lon="-2.888810">
        <ele>1055.965305</ele>
        <time>2020-08-07T09:19:43.572Z</time>
      </trkpt>
      <trkpt lat="38.602749" lon="-2.888927">
        <ele>1055.787312</ele>
        <time>2020-08-07T09:19:47.575Z</time>
      </trkpt>
      <trkpt lat="38.602689" lon="-2.889034">
        <ele>1055.620648</ele>
        <time>2020-08-07T09:19:51.575Z</time>
      </trkpt>
      <trkpt lat="38.602621" lon="-2.889134">
        <ele>1055.452894</ele>
        <time>2020-08-07T09:19:55.573Z</time>
      </trkpt>
      <trkpt lat="38.602553" lon="-2.889237">
        <ele>1055.282258</ele>
        <time>2020-08-07T09:19:59.577Z</time>
      </trkpt>
      <trkpt lat="38.602470" lon="-2.889347">
        <ele>1055.088752</ele>
        <time>2020-08-07T09:20:03.573Z</time>
      </trkpt>
      <trkpt lat="38.602402" lon="-2.889431">
        <ele>1054.935695</ele>
        <time>2020-08-07T09:20:06.576Z</time>
      </trkpt>
      <trkpt lat="38.602316" lon="-2.889516">
        <ele>1054.799719</ele>
        <time>2020-08-07T09:20:09.568Z</time>
      </trkpt>
      <trkpt lat="38.602239" lon="-2.889592">
        <ele>1054.913310</ele>
        <time>2020-08-07T09:20:11.572Z</time>
      </trkpt>
      <trkpt lat="38.602173" lon="-2.889717">
        <ele>1055.051019</ele>
        <time>2020-08-07T09:20:13.579Z</time>
      </trkpt>
      <trkpt lat="38.602075" lon="-2.889809">
        <ele>1055.192994</ele>
        <time>2020-08-07T09:20:15.578Z</time>
      </trkpt>
      <trkpt lat="38.601988" lon="-2.889938">
        <ele>1055.348540</ele>
        <time>2020-08-07T09:20:17.581Z</time>
      </trkpt>
      <trkpt lat="38.601911" lon="-2.890088">
        <ele>1055.512366</ele>
        <time>2020-08-07T09:20:19.572Z</time>
      </trkpt>
      <trkpt lat="38.601853" lon="-2.890258">
        <ele>1055.681696</ele>
        <time>2020-08-07T09:20:21.596Z</time>
      </trkpt>
      <trkpt lat="38.601778" lon="-2.890415">
        <ele>1055.849670</ele>
        <time>2020-08-07T09:20:23.585Z</time>
      </trkpt>
      <trkpt lat="38.601738" lon="-2.890547">
        <ele>1055.978909</ele>
        <time>2020-08-07T09:20:25.582Z</time>
      </trkpt>
      <trkpt lat="38.601690" lon="-2.890678">
        <ele>1056.110985</ele>
        <time>2020-08-07T09:20:27.580Z</time>
      </trkpt>
      <trkpt lat="38.601628" lon="-2.890802">
        <ele>1056.245365</ele>
        <time>2020-08-07T09:20:29.588Z</time>
      </trkpt>
      <trkpt lat="38.601566" lon="-2.890916">
        <ele>1056.372150</ele>
        <time>2020-08-07T09:20:31.583Z</time>
      </trkpt>
      <trkpt lat="38.601515" lon="-2.891051">
        <ele>1056.509030</ele>
        <time>2020-08-07T09:20:33.585Z</time>
      </trkpt>
      <trkpt lat="38.601450" lon="-2.891193">
        <ele>1056.659256</ele>
        <time>2020-08-07T09:20:35.604Z</time>
      </trkpt>
      <trkpt lat="38.601391" lon="-2.891343">
        <ele>1056.812551</ele>
        <time>2020-08-07T09:20:37.575Z</time>
      </trkpt>
      <trkpt lat="38.601353" lon="-2.891487">
        <ele>1056.798639</ele>
        <time>2020-08-07T09:20:39.580Z</time>
      </trkpt>
      <trkpt lat="38.601321" lon="-2.891634">
        <ele>1056.622286</ele>
        <time>2020-08-07T09:20:41.588Z</time>
      </trkpt>
      <trkpt lat="38.601278" lon="-2.891774">
        <ele>1056.448443</ele>
        <time>2020-08-07T09:20:43.583Z</time>
      </trkpt>
      <trkpt lat="38.601259" lon="-2.891902">
        <ele>1056.297871</ele>
        <time>2020-08-07T09:20:45.575Z</time>
      </trkpt>
      <trkpt lat="38.601239" lon="-2.892034">
        <ele>1056.142481</ele>
        <time>2020-08-07T09:20:47.585Z</time>
      </trkpt>
      <trkpt lat="38.601227" lon="-2.892166">
        <ele>1055.988902</ele>
        <time>2020-08-07T09:20:49.584Z</time>
      </trkpt>
      <trkpt lat="38.601170" lon="-2.892295">
        <ele>1055.817639</ele>
        <time>2020-08-07T09:20:51.570Z</time>
      </trkpt>
      <trkpt lat="38.601098" lon="-2.892415">
        <ele>1055.642799</ele>
        <time>2020-08-07T09:20:53.572Z</time>
      </trkpt>
      <trkpt lat="38.601032" lon="-2.892576">
        <ele>1055.432689</ele>
        <time>2020-08-07T09:20:55.576Z</time>
      </trkpt>
      <trkpt lat="38.600996" lon="-2.892683">
        <ele>1055.298058</ele>
        <time>2020-08-07T09:20:57.564Z</time>
      </trkpt>
      <trkpt lat="38.600937" lon="-2.892809">
        <ele>1055.128304</ele>
        <time>2020-08-07T09:20:59.575Z</time>
      </trkpt>
      <trkpt lat="38.600871" lon="-2.892929">
        <ele>1054.958720</ele>
        <time>2020-08-07T09:21:01.585Z</time>
      </trkpt>
      <trkpt lat="38.600791" lon="-2.893059">
        <ele>1054.767494</ele>
        <time>2020-08-07T09:21:03.577Z</time>
      </trkpt>
      <trkpt lat="38.600734" lon="-2.893188">
        <ele>1054.596231</ele>
        <time>2020-08-07T09:21:05.585Z</time>
      </trkpt>
      <trkpt lat="38.600664" lon="-2.893306">
        <ele>1054.425021</ele>
        <time>2020-08-07T09:21:07.597Z</time>
      </trkpt>
      <trkpt lat="38.600613" lon="-2.893441">
        <ele>1054.251731</ele>
        <time>2020-08-07T09:21:09.589Z</time>
      </trkpt>
      <trkpt lat="38.600537" lon="-2.893557">
        <ele>1053.533159</ele>
        <time>2020-08-07T09:21:11.599Z</time>
      </trkpt>
      <trkpt lat="38.600450" lon="-2.893661">
        <ele>1052.707403</ele>
        <time>2020-08-07T09:21:13.577Z</time>
      </trkpt>
      <trkpt lat="38.600370" lon="-2.893767">
        <ele>1051.908667</ele>
        <time>2020-08-07T09:21:15.583Z</time>
      </trkpt>
      <trkpt lat="38.600296" lon="-2.893870">
        <ele>1051.150306</ele>
        <time>2020-08-07T09:21:17.571Z</time>
      </trkpt>
      <trkpt lat="38.600214" lon="-2.893985">
        <ele>1050.306503</ele>
        <time>2020-08-07T09:21:19.580Z</time>
      </trkpt>
      <trkpt lat="38.600131" lon="-2.894097">
        <ele>1049.469882</ele>
        <time>2020-08-07T09:21:21.585Z</time>
      </trkpt>
      <trkpt lat="38.600046" lon="-2.894219">
        <ele>1048.583966</ele>
        <time>2020-08-07T09:21:23.568Z</time>
      </trkpt>
      <trkpt lat="38.599955" lon="-2.894350">
        <ele>1047.633941</ele>
        <time>2020-08-07T09:21:25.573Z</time>
      </trkpt>
      <trkpt lat="38.599856" lon="-2.894477">
        <ele>1046.661653</ele>
        <time>2020-08-07T09:21:27.576Z</time>
      </trkpt>
      <trkpt lat="38.599732" lon="-2.894611">
        <ele>1045.535952</ele>
        <time>2020-08-07T09:21:29.574Z</time>
      </trkpt>
      <trkpt lat="38.599639" lon="-2.894747">
        <ele>1044.556424</ele>
        <time>2020-08-07T09:21:31.568Z</time>
      </trkpt>
      <trkpt lat="38.599574" lon="-2.894908">
        <ele>1043.574172</ele>
        <time>2020-08-07T09:21:33.570Z</time>
      </trkpt>
      <trkpt lat="38.599468" lon="-2.895087">
        <ele>1042.356844</ele>
        <time>2020-08-07T09:21:35.578Z</time>
      </trkpt>
      <trkpt lat="38.599406" lon="-2.895226">
        <ele>1041.745095</ele>
        <time>2020-08-07T09:21:37.587Z</time>
      </trkpt>
      <trkpt lat="38.599347" lon="-2.895348">
        <ele>1041.732543</ele>
        <time>2020-08-07T09:21:39.593Z</time>
      </trkpt>
      <trkpt lat="38.599325" lon="-2.895488">
        <ele>1041.720049</ele>
        <time>2020-08-07T09:21:41.577Z</time>
      </trkpt>
      <trkpt lat="38.599268" lon="-2.895612">
        <ele>1041.707462</ele>
        <time>2020-08-07T09:21:43.579Z</time>
      </trkpt>
      <trkpt lat="38.599208" lon="-2.895729">
        <ele>1041.695219</ele>
        <time>2020-08-07T09:21:45.577Z</time>
      </trkpt>
      <trkpt lat="38.599140" lon="-2.895854">
        <ele>1041.681893</ele>
        <time>2020-08-07T09:21:47.576Z</time>
      </trkpt>
      <trkpt lat="38.599048" lon="-2.895985">
        <ele>1041.666484</ele>
        <time>2020-08-07T09:21:49.592Z</time>
      </trkpt>
      <trkpt lat="38.598987" lon="-2.896128">
        <ele>1041.652230</ele>
        <time>2020-08-07T09:21:51.577Z</time>
      </trkpt>
      <trkpt lat="38.598947" lon="-2.896244">
        <ele>1041.641137</ele>
        <time>2020-08-07T09:21:53.578Z</time>
      </trkpt>
      <trkpt lat="38.598898" lon="-2.896355">
        <ele>1041.629983</ele>
        <time>2020-08-07T09:21:55.565Z</time>
      </trkpt>
      <trkpt lat="38.598854" lon="-2.896478">
        <ele>1041.618148</ele>
        <time>2020-08-07T09:21:58.589Z</time>
      </trkpt>
      <trkpt lat="38.598788" lon="-2.896583">
        <ele>1041.606358</ele>
        <time>2020-08-07T09:22:01.591Z</time>
      </trkpt>
      <trkpt lat="38.598732" lon="-2.896679">
        <ele>1041.595877</ele>
        <time>2020-08-07T09:22:03.580Z</time>
      </trkpt>
      <trkpt lat="38.598681" lon="-2.896775">
        <ele>1041.585721</ele>
        <time>2020-08-07T09:22:05.580Z</time>
      </trkpt>
      <trkpt lat="38.598611" lon="-2.896874">
        <ele>1041.574040</ele>
        <time>2020-08-07T09:22:07.595Z</time>
      </trkpt>
      <trkpt lat="38.598505" lon="-2.896975">
        <ele>1041.559245</ele>
        <time>2020-08-07T09:22:09.579Z</time>
      </trkpt>
      <trkpt lat="38.598428" lon="-2.897103">
        <ele>1041.567797</ele>
        <time>2020-08-07T09:22:11.595Z</time>
      </trkpt>
      <trkpt lat="38.598369" lon="-2.897257">
        <ele>1041.673503</ele>
        <time>2020-08-07T09:22:13.577Z</time>
      </trkpt>
      <trkpt lat="38.598322" lon="-2.897428">
        <ele>1041.785224</ele>
        <time>2020-08-07T09:22:15.572Z</time>
      </trkpt>
      <trkpt lat="38.598277" lon="-2.897584">
        <ele>1041.887712</ele>
        <time>2020-08-07T09:22:17.571Z</time>
      </trkpt>
      <trkpt lat="38.598238" lon="-2.897724">
        <ele>1041.979317</ele>
        <time>2020-08-07T09:22:19.577Z</time>
      </trkpt>
      <trkpt lat="38.598187" lon="-2.897873">
        <ele>1042.079572</ele>
        <time>2020-08-07T09:22:22.577Z</time>
      </trkpt>
      <trkpt lat="38.598117" lon="-2.898014">
        <ele>1042.182526</ele>
        <time>2020-08-07T09:22:25.577Z</time>
      </trkpt>
      <trkpt lat="38.598068" lon="-2.898121">
        <ele>1042.258962</ele>
        <time>2020-08-07T09:22:27.584Z</time>
      </trkpt>
      <trkpt lat="38.598023" lon="-2.898233">
        <ele>1042.336579</ele>
        <time>2020-08-07T09:22:29.572Z</time>
      </trkpt>
      <trkpt lat="38.597976" lon="-2.898360">
        <ele>1042.423186</ele>
        <time>2020-08-07T09:22:31.581Z</time>
      </trkpt>
      <trkpt lat="38.597887" lon="-2.898476">
        <ele>1042.523375</ele>
        <time>2020-08-07T09:22:33.579Z</time>
      </trkpt>
      <trkpt lat="38.597791" lon="-2.898591">
        <ele>1042.627083</ele>
        <time>2020-08-07T09:22:35.578Z</time>
      </trkpt>
      <trkpt lat="38.597721" lon="-2.898722">
        <ele>1042.724891</ele>
        <time>2020-08-07T09:22:37.594Z</time>
      </trkpt>
      <trkpt lat="38.597664" lon="-2.898872">
        <ele>1042.827691</ele>
        <time>2020-08-07T09:22:39.588Z</time>
      </trkpt>
      <trkpt lat="38.597597" lon="-2.899012">
        <ele>1042.928871</ele>
        <time>2020-08-07T09:22:41.579Z</time>
      </trkpt>
      <trkpt lat="38.597562" lon="-2.899152">
        <ele>1043.147746</ele>
        <time>2020-08-07T09:22:44.586Z</time>
      </trkpt>
      <trkpt lat="38.597527" lon="-2.899268">
        <ele>1043.409554</ele>
        <time>2020-08-07T09:22:47.578Z</time>
      </trkpt>
      <trkpt lat="38.597484" lon="-2.899403">
        <ele>1043.716497</ele>
        <time>2020-08-07T09:22:51.585Z</time>
      </trkpt>
      <trkpt lat="38.597420" lon="-2.899527">
        <ele>1044.029375</ele>
        <time>2020-08-07T09:22:55.582Z</time>
      </trkpt>
      <trkpt lat="38.597386" lon="-2.899639">
        <ele>1044.282357</ele>
        <time>2020-08-07T09:22:59.585Z</time>
      </trkpt>
      <trkpt lat="38.597351" lon="-2.899750">
        <ele>1044.534373</ele>
        <time>2020-08-07T09:23:03.582Z</time>
      </trkpt>
      <trkpt lat="38.597305" lon="-2.899871">
        <ele>1044.817682</ele>
        <time>2020-08-07T09:23:08.582Z</time>
      </trkpt>
      <trkpt lat="38.597266" lon="-2.900006">
        <ele>1045.120724</ele>
        <time>2020-08-07T09:23:13.596Z</time>
      </trkpt>
      <trkpt lat="38.597229" lon="-2.900116">
        <ele>1045.372870</ele>
        <time>2020-08-07T09:23:17.572Z</time>
      </trkpt>
      <trkpt lat="38.597191" lon="-2.900229">
        <ele>1045.631884</ele>
        <time>2020-08-07T09:23:21.572Z</time>
      </trkpt>
      <trkpt lat="38.597149" lon="-2.900351">
        <ele>1045.912573</ele>
        <time>2020-08-07T09:23:26.576Z</time>
      </trkpt>
      <trkpt lat="38.597109" lon="-2.900465">
        <ele>1046.175683</ele>
        <time>2020-08-07T09:23:31.570Z</time>
      </trkpt>
      <trkpt lat="38.597082" lon="-2.900576">
        <ele>1046.420454</ele>
        <time>2020-08-07T09:23:35.589Z</time>
      </trkpt>
      <trkpt lat="38.597048" lon="-2.900683">
        <ele>1046.663653</ele>
        <time>2020-08-07T09:23:40.599Z</time>
      </trkpt>
      <trkpt lat="38.597015" lon="-2.900804">
        <ele>1046.933488</ele>
        <time>2020-08-07T09:23:45.582Z</time>
      </trkpt>
      <trkpt lat="38.596984" lon="-2.900932">
        <ele>1047.215639</ele>
        <time>2020-08-07T09:23:51.590Z</time>
      </trkpt>
      <trkpt lat="38.596960" lon="-2.901066">
        <ele>1047.505093</ele>
        <time>2020-08-07T09:23:56.603Z</time>
      </trkpt>
      <trkpt lat="38.596933" lon="-2.901179">
        <ele>1047.753888</ele>
        <time>2020-08-07T09:24:00.602Z</time>
      </trkpt>
      <trkpt lat="38.596901" lon="-2.901318">
        <ele>1047.419925</ele>
        <time>2020-08-07T09:24:04.583Z</time>
      </trkpt>
      <trkpt lat="38.596871" lon="-2.901427">
        <ele>1047.033762</ele>
        <time>2020-08-07T09:24:07.594Z</time>
      </trkpt>
      <trkpt lat="38.596844" lon="-2.901554">
        <ele>1046.593954</ele>
        <time>2020-08-07T09:24:10.583Z</time>
      </trkpt>
      <trkpt lat="38.596810" lon="-2.901701">
        <ele>1046.081675</ele>
        <time>2020-08-07T09:24:13.610Z</time>
      </trkpt>
      <trkpt lat="38.596789" lon="-2.901859">
        <ele>1045.546117</ele>
        <time>2020-08-07T09:24:16.568Z</time>
      </trkpt>
      <trkpt lat="38.596788" lon="-2.902031">
        <ele>1044.971340</ele>
        <time>2020-08-07T09:24:19.572Z</time>
      </trkpt>
      <trkpt lat="38.596797" lon="-2.902152">
        <ele>1044.565176</ele>
        <time>2020-08-07T09:24:21.566Z</time>
      </trkpt>
      <trkpt lat="38.596796" lon="-2.902321">
        <ele>1044.000424</ele>
        <time>2020-08-07T09:24:24.588Z</time>
      </trkpt>
      <trkpt lat="38.596787" lon="-2.902494">
        <ele>1043.421042</ele>
        <time>2020-08-07T09:24:27.573Z</time>
      </trkpt>
      <trkpt lat="38.596782" lon="-2.902632">
        <ele>1042.959401</ele>
        <time>2020-08-07T09:24:30.584Z</time>
      </trkpt>
      <trkpt lat="38.596728" lon="-2.902779">
        <ele>1042.416626</ele>
        <time>2020-08-07T09:24:33.577Z</time>
      </trkpt>
      <trkpt lat="38.596656" lon="-2.902882">
        <ele>1041.954854</ele>
        <time>2020-08-07T09:24:36.578Z</time>
      </trkpt>
      <trkpt lat="38.596586" lon="-2.902956">
        <ele>1041.566621</ele>
        <time>2020-08-07T09:24:39.577Z</time>
      </trkpt>
      <trkpt lat="38.596493" lon="-2.903032">
        <ele>1041.094805</ele>
        <time>2020-08-07T09:24:42.568Z</time>
      </trkpt>
      <trkpt lat="38.596397" lon="-2.903103">
        <ele>1040.620709</ele>
        <time>2020-08-07T09:24:45.576Z</time>
      </trkpt>
      <trkpt lat="38.596296" lon="-2.903145">
        <ele>1040.166636</ele>
        <time>2020-08-07T09:24:47.577Z</time>
      </trkpt>
      <trkpt lat="38.596209" lon="-2.903211">
        <ele>1039.668328</ele>
        <time>2020-08-07T09:24:49.601Z</time>
      </trkpt>
      <trkpt lat="38.596124" lon="-2.903266">
        <ele>1039.191845</ele>
        <time>2020-08-07T09:24:51.583Z</time>
      </trkpt>
      <trkpt lat="38.596020" lon="-2.903291">
        <ele>1038.662495</ele>
        <time>2020-08-07T09:24:54.570Z</time>
      </trkpt>
      <trkpt lat="38.595916" lon="-2.903329">
        <ele>1038.121449</ele>
        <time>2020-08-07T09:24:56.578Z</time>
      </trkpt>
      <trkpt lat="38.595806" lon="-2.903354">
        <ele>1037.562573</ele>
        <time>2020-08-07T09:24:58.584Z</time>
      </trkpt>
      <trkpt lat="38.595713" lon="-2.903363">
        <ele>1037.096022</ele>
        <time>2020-08-07T09:25:00.579Z</time>
      </trkpt>
      <trkpt lat="38.595606" lon="-2.903391">
        <ele>1036.549686</ele>
        <time>2020-08-07T09:25:02.566Z</time>
      </trkpt>
      <trkpt lat="38.595512" lon="-2.903448">
        <ele>1036.029326</ele>
        <time>2020-08-07T09:25:04.583Z</time>
      </trkpt>
      <trkpt lat="38.595412" lon="-2.903499">
        <ele>1035.490812</ele>
        <time>2020-08-07T09:25:06.593Z</time>
      </trkpt>
      <trkpt lat="38.595320" lon="-2.903531">
        <ele>1035.013890</ele>
        <time>2020-08-07T09:25:08.565Z</time>
      </trkpt>
      <trkpt lat="38.595215" lon="-2.903575">
        <ele>1034.461186</ele>
        <time>2020-08-07T09:25:10.565Z</time>
      </trkpt>
      <trkpt lat="38.595124" lon="-2.903623">
        <ele>1033.968802</ele>
        <time>2020-08-07T09:25:12.571Z</time>
      </trkpt>
      <trkpt lat="38.595024" lon="-2.903674">
        <ele>1033.430288</ele>
        <time>2020-08-07T09:25:14.580Z</time>
      </trkpt>
      <trkpt lat="38.594897" lon="-2.903705">
        <ele>1032.783527</ele>
        <time>2020-08-07T09:25:16.575Z</time>
      </trkpt>
      <trkpt lat="38.594781" lon="-2.903727">
        <ele>1032.196910</ele>
        <time>2020-08-07T09:25:18.583Z</time>
      </trkpt>
      <trkpt lat="38.594683" lon="-2.903753">
        <ele>1031.696247</ele>
        <time>2020-08-07T09:25:20.577Z</time>
      </trkpt>
      <trkpt lat="38.594593" lon="-2.903779">
        <ele>1031.234699</ele>
        <time>2020-08-07T09:25:22.573Z</time>
      </trkpt>
      <trkpt lat="38.594495" lon="-2.903804">
        <ele>1029.813686</ele>
        <time>2020-08-07T09:25:24.576Z</time>
      </trkpt>
      <trkpt lat="38.594392" lon="-2.903849">
        <ele>1027.981077</ele>
        <time>2020-08-07T09:25:26.586Z</time>
      </trkpt>
      <trkpt lat="38.594265" lon="-2.903858">
        <ele>1025.839407</ele>
        <time>2020-08-07T09:25:28.567Z</time>
      </trkpt>
      <trkpt lat="38.594132" lon="-2.903916">
        <ele>1023.473481</ele>
        <time>2020-08-07T09:25:30.576Z</time>
      </trkpt>
      <trkpt lat="38.593979" lon="-2.903960">
        <ele>1020.833034</ele>
        <time>2020-08-07T09:25:32.581Z</time>
      </trkpt>
      <trkpt lat="38.593817" lon="-2.903959">
        <ele>1018.105289</ele>
        <time>2020-08-07T09:25:35.031Z</time>
      </trkpt>
      <trkpt lat="38.593663" lon="-2.903926">
        <ele>1015.476161</ele>
        <time>2020-08-07T09:25:37.023Z</time>
      </trkpt>
      <trkpt lat="38.593527" lon="-2.903917">
        <ele>1013.183168</ele>
        <time>2020-08-07T09:25:39.015Z</time>
      </trkpt>
      <trkpt lat="38.593384" lon="-2.903918">
        <ele>1010.775335</ele>
        <time>2020-08-07T09:25:40.999Z</time>
      </trkpt>
      <trkpt lat="38.593250" lon="-2.903863">
        <ele>1008.405820</ele>
        <time>2020-08-07T09:25:43.024Z</time>
      </trkpt>
      <trkpt lat="38.593119" lon="-2.903776">
        <ele>1005.920623</ele>
        <time>2020-08-07T09:25:45.009Z</time>
      </trkpt>
      <trkpt lat="38.592969" lon="-2.903690">
        <ele>1003.152971</ele>
        <time>2020-08-07T09:25:47.011Z</time>
      </trkpt>
      <trkpt lat="38.592853" lon="-2.903624">
        <ele>1001.015370</ele>
        <time>2020-08-07T09:25:49.011Z</time>
      </trkpt>
      <trkpt lat="38.592728" lon="-2.903540">
        <ele>999.982397</ele>
        <time>2020-08-07T09:25:51.010Z</time>
      </trkpt>
      <trkpt lat="38.592631" lon="-2.903430">
        <ele>999.132964</ele>
        <time>2020-08-07T09:25:53.008Z</time>
      </trkpt>
      <trkpt lat="38.592534" lon="-2.903374">
        <ele>998.435570</ele>
        <time>2020-08-07T09:25:55.001Z</time>
      </trkpt>
      <trkpt lat="38.592430" lon="-2.903306">
        <ele>997.670180</ele>
        <time>2020-08-07T09:25:57.003Z</time>
      </trkpt>
      <trkpt lat="38.592330" lon="-2.903270">
        <ele>996.989397</ele>
        <time>2020-08-07T09:25:59.003Z</time>
      </trkpt>
      <trkpt lat="38.592204" lon="-2.903244">
        <ele>996.153005</ele>
        <time>2020-08-07T09:26:01.037Z</time>
      </trkpt>
      <trkpt lat="38.592088" lon="-2.903208">
        <ele>995.370773</ele>
        <time>2020-08-07T09:26:04.023Z</time>
      </trkpt>
      <trkpt lat="38.591964" lon="-2.903137">
        <ele>994.480492</ele>
        <time>2020-08-07T09:26:07.015Z</time>
      </trkpt>
      <trkpt lat="38.591833" lon="-2.903083">
        <ele>993.578545</ele>
        <time>2020-08-07T09:26:09.008Z</time>
      </trkpt>
      <trkpt lat="38.591673" lon="-2.903039">
        <ele>992.506062</ele>
        <time>2020-08-07T09:26:11.013Z</time>
      </trkpt>
      <trkpt lat="38.591504" lon="-2.902988">
        <ele>991.368156</ele>
        <time>2020-08-07T09:26:13.023Z</time>
      </trkpt>
      <trkpt lat="38.591379" lon="-2.902953">
        <ele>990.529600</ele>
        <time>2020-08-07T09:26:15.011Z</time>
      </trkpt>
      <trkpt lat="38.591269" lon="-2.902932">
        <ele>989.800751</ele>
        <time>2020-08-07T09:26:18.006Z</time>
      </trkpt>
      <trkpt lat="38.591173" lon="-2.902868">
        <ele>989.091343</ele>
        <time>2020-08-07T09:26:22.010Z</time>
      </trkpt>
      <trkpt lat="38.591070" lon="-2.902863">
        <ele>989.174895</ele>
        <time>2020-08-07T09:26:43.021Z</time>
      </trkpt>
      <trkpt lat="38.590968" lon="-2.902828">
        <ele>989.308677</ele>
        <time>2020-08-07T09:26:46.016Z</time>
      </trkpt>
      <trkpt lat="38.590868" lon="-2.902786">
        <ele>989.442010</ele>
        <time>2020-08-07T09:26:48.020Z</time>
      </trkpt>
      <trkpt lat="38.590739" lon="-2.902773">
        <ele>989.605935</ele>
        <time>2020-08-07T09:26:51.019Z</time>
      </trkpt>
      <trkpt lat="38.590637" lon="-2.902736">
        <ele>989.740243</ele>
        <time>2020-08-07T09:26:54.014Z</time>
      </trkpt>
      <trkpt lat="38.590507" lon="-2.902714">
        <ele>989.906364</ele>
        <time>2020-08-07T09:26:57.019Z</time>
      </trkpt>
      <trkpt lat="38.590385" lon="-2.902639">
        <ele>990.077832</ele>
        <time>2020-08-07T09:27:00.048Z</time>
      </trkpt>
      <trkpt lat="38.590260" lon="-2.902622">
        <ele>990.237076</ele>
        <time>2020-08-07T09:27:03.001Z</time>
      </trkpt>
      <trkpt lat="38.590131" lon="-2.902605">
        <ele>990.401360</ele>
        <time>2020-08-07T09:27:06.022Z</time>
      </trkpt>
      <trkpt lat="38.590033" lon="-2.902590">
        <ele>990.526393</ele>
        <time>2020-08-07T09:27:08.012Z</time>
      </trkpt>
      <trkpt lat="38.589927" lon="-2.902549">
        <ele>990.666678</ele>
        <time>2020-08-07T09:27:10.007Z</time>
      </trkpt>
      <trkpt lat="38.589837" lon="-2.902515">
        <ele>990.785558</ele>
        <time>2020-08-07T09:27:12.031Z</time>
      </trkpt>
      <trkpt lat="38.589753" lon="-2.902445">
        <ele>990.912554</ele>
        <time>2020-08-07T09:27:14.018Z</time>
      </trkpt>
      <trkpt lat="38.589672" lon="-2.902362">
        <ele>991.044021</ele>
        <time>2020-08-07T09:27:16.026Z</time>
      </trkpt>
      <trkpt lat="38.589583" lon="-2.902288">
        <ele>991.178486</ele>
        <time>2020-08-07T09:27:18.028Z</time>
      </trkpt>
      <trkpt lat="38.589492" lon="-2.902200">
        <ele>991.322993</ele>
        <time>2020-08-07T09:27:20.012Z</time>
      </trkpt>
      <trkpt lat="38.589390" lon="-2.902106">
        <ele>990.206169</ele>
        <time>2020-08-07T09:27:22.032Z</time>
      </trkpt>
      <trkpt lat="38.589306" lon="-2.902030">
        <ele>989.240563</ele>
        <time>2020-08-07T09:27:24.014Z</time>
      </trkpt>
      <trkpt lat="38.589185" lon="-2.901991">
        <ele>988.069434</ele>
        <time>2020-08-07T09:27:26.013Z</time>
      </trkpt>
      <trkpt lat="38.589090" lon="-2.901907">
        <ele>986.985586</ele>
        <time>2020-08-07T09:27:28.024Z</time>
      </trkpt>
      <trkpt lat="38.588975" lon="-2.901831">
        <ele>985.770757</ele>
        <time>2020-08-07T09:27:30.006Z</time>
      </trkpt>
      <trkpt lat="38.588878" lon="-2.901747">
        <ele>984.671414</ele>
        <time>2020-08-07T09:27:32.011Z</time>
      </trkpt>
      <trkpt lat="38.588782" lon="-2.901662">
        <ele>983.575673</ele>
        <time>2020-08-07T09:27:34.016Z</time>
      </trkpt>
      <trkpt lat="38.588686" lon="-2.901585">
        <ele>982.512234</ele>
        <time>2020-08-07T09:27:36.012Z</time>
      </trkpt>
      <trkpt lat="38.588592" lon="-2.901485">
        <ele>981.364834</ele>
        <time>2020-08-07T09:27:39.012Z</time>
      </trkpt>
      <trkpt lat="38.588508" lon="-2.901420">
        <ele>980.443461</ele>
        <time>2020-08-07T09:27:42.009Z</time>
      </trkpt>
      <trkpt lat="38.588410" lon="-2.901304">
        <ele>979.190394</ele>
        <time>2020-08-07T09:27:45.009Z</time>
      </trkpt>
      <trkpt lat="38.588313" lon="-2.901225">
        <ele>978.111182</ele>
        <time>2020-08-07T09:27:47.022Z</time>
      </trkpt>
      <trkpt lat="38.588247" lon="-2.901143">
        <ele>977.247708</ele>
        <time>2020-08-07T09:27:49.017Z</time>
      </trkpt>
      <trkpt lat="38.588187" lon="-2.901045">
        <ele>976.334475</ele>
        <time>2020-08-07T09:27:51.023Z</time>
      </trkpt>
      <trkpt lat="38.588125" lon="-2.900956">
        <ele>975.459884</ele>
        <time>2020-08-07T09:27:53.002Z</time>
      </trkpt>
      <trkpt lat="38.588150" lon="-2.901073">
        <ele>974.570060</ele>
        <time>2020-08-07T09:28:22.009Z</time>
      </trkpt>
      <trkpt lat="38.588118" lon="-2.901274">
        <ele>974.420534</ele>
        <time>2020-08-07T09:30:18.014Z</time>
      </trkpt>
      <trkpt lat="38.588100" lon="-2.901573">
        <ele>974.374745</ele>
        <time>2020-08-07T09:30:47.010Z</time>
      </trkpt>
      <trkpt lat="38.588099" lon="-2.901693">
        <ele>974.356422</ele>
        <time>2020-08-07T09:30:52.007Z</time>
      </trkpt>
      <trkpt lat="38.588069" lon="-2.901811">
        <ele>974.337476</ele>
        <time>2020-08-07T09:30:57.001Z</time>
      </trkpt>
      <trkpt lat="38.588058" lon="-2.901948">
        <ele>974.316447</ele>
        <time>2020-08-07T09:31:03.015Z</time>
      </trkpt>
      <trkpt lat="38.588038" lon="-2.902060">
        <ele>974.298906</ele>
        <time>2020-08-07T09:31:07.011Z</time>
      </trkpt>
      <trkpt lat="38.588017" lon="-2.902189">
        <ele>974.278786</ele>
        <time>2020-08-07T09:31:10.997Z</time>
      </trkpt>
      <trkpt lat="38.588005" lon="-2.902333">
        <ele>974.256674</ele>
        <time>2020-08-07T09:31:16.002Z</time>
      </trkpt>
      <trkpt lat="38.588000" lon="-2.902478">
        <ele>974.234513</ele>
        <time>2020-08-07T09:31:21.001Z</time>
      </trkpt>
      <trkpt lat="38.587968" lon="-2.902603">
        <ele>974.214430</ele>
        <time>2020-08-07T09:31:25.005Z</time>
      </trkpt>
      <trkpt lat="38.587948" lon="-2.902719">
        <ele>974.196292</ele>
        <time>2020-08-07T09:31:29.012Z</time>
      </trkpt>
      <trkpt lat="38.587933" lon="-2.902843">
        <ele>974.177133</ele>
        <time>2020-08-07T09:31:33.005Z</time>
      </trkpt>
      <trkpt lat="38.587904" lon="-2.902960">
        <ele>974.158392</ele>
        <time>2020-08-07T09:31:37.032Z</time>
      </trkpt>
      <trkpt lat="38.587877" lon="-2.903084">
        <ele>974.138738</ele>
        <time>2020-08-07T09:31:41.014Z</time>
      </trkpt>
      <trkpt lat="38.587861" lon="-2.903200">
        <ele>974.120752</ele>
        <time>2020-08-07T09:31:45.008Z</time>
      </trkpt>
      <trkpt lat="38.587835" lon="-2.903317">
        <ele>974.102180</ele>
        <time>2020-08-07T09:31:49.011Z</time>
      </trkpt>
      <trkpt lat="38.587788" lon="-2.903444">
        <ele>974.522445</ele>
        <time>2020-08-07T09:31:53.022Z</time>
      </trkpt>
      <trkpt lat="38.587757" lon="-2.903573">
        <ele>975.028919</ele>
        <time>2020-08-07T09:31:57.007Z</time>
      </trkpt>
      <trkpt lat="38.587718" lon="-2.903711">
        <ele>975.579616</ele>
        <time>2020-08-07T09:32:01.001Z</time>
      </trkpt>
      <trkpt lat="38.587697" lon="-2.903833">
        <ele>976.048429</ele>
        <time>2020-08-07T09:32:05.000Z</time>
      </trkpt>
      <trkpt lat="38.587699" lon="-2.903958">
        <ele>976.517628</ele>
        <time>2020-08-07T09:32:09.002Z</time>
      </trkpt>
      <trkpt lat="38.587704" lon="-2.904097">
        <ele>977.039821</ele>
        <time>2020-08-07T09:32:14.012Z</time>
      </trkpt>
      <trkpt lat="38.587704" lon="-2.904236">
        <ele>977.561461</ele>
        <time>2020-08-07T09:32:18.008Z</time>
      </trkpt>
      <trkpt lat="38.587707" lon="-2.904369">
        <ele>978.060793</ele>
        <time>2020-08-07T09:32:22.004Z</time>
      </trkpt>
      <trkpt lat="38.587712" lon="-2.904499">
        <ele>978.549248</ele>
        <time>2020-08-07T09:32:26.009Z</time>
      </trkpt>
      <trkpt lat="38.587717" lon="-2.904627">
        <ele>979.030207</ele>
        <time>2020-08-07T09:32:30.019Z</time>
      </trkpt>
      <trkpt lat="38.587707" lon="-2.904746">
        <ele>979.479365</ele>
        <time>2020-08-07T09:32:34.013Z</time>
      </trkpt>
      <trkpt lat="38.587674" lon="-2.904876">
        <ele>979.992312</ele>
        <time>2020-08-07T09:32:38.014Z</time>
      </trkpt>
      <trkpt lat="38.587645" lon="-2.905003">
        <ele>980.488840</ele>
        <time>2020-08-07T09:32:42.031Z</time>
      </trkpt>
      <trkpt lat="38.587616" lon="-2.905129">
        <ele>980.981766</ele>
        <time>2020-08-07T09:32:46.006Z</time>
      </trkpt>
      <trkpt lat="38.587587" lon="-2.905267">
        <ele>981.518044</ele>
        <time>2020-08-07T09:32:50.011Z</time>
      </trkpt>
      <trkpt lat="38.587567" lon="-2.905391">
        <ele>981.993197</ele>
        <time>2020-08-07T09:32:54.052Z</time>
      </trkpt>
      <trkpt lat="38.587560" lon="-2.905531">
        <ele>982.519665</ele>
        <time>2020-08-07T09:32:58.018Z</time>
      </trkpt>
      <trkpt lat="38.587538" lon="-2.905665">
        <ele>983.407682</ele>
        <time>2020-08-07T09:33:02.004Z</time>
      </trkpt>
      <trkpt lat="38.587515" lon="-2.905783">
        <ele>984.433229</ele>
        <time>2020-08-07T09:33:06.001Z</time>
      </trkpt>
      <trkpt lat="38.587476" lon="-2.905901">
        <ele>985.513603</ele>
        <time>2020-08-07T09:33:11.037Z</time>
      </trkpt>
      <trkpt lat="38.587387" lon="-2.905971">
        <ele>986.640715</ele>
        <time>2020-08-07T09:33:16.023Z</time>
      </trkpt>
      <trkpt lat="38.587290" lon="-2.906042">
        <ele>987.846368</ele>
        <time>2020-08-07T09:33:21.024Z</time>
      </trkpt>
      <trkpt lat="38.587206" lon="-2.906086">
        <ele>988.825616</ele>
        <time>2020-08-07T09:33:25.018Z</time>
      </trkpt>
      <trkpt lat="38.587114" lon="-2.906140">
        <ele>989.917630</ele>
        <time>2020-08-07T09:33:30.013Z</time>
      </trkpt>
      <trkpt lat="38.587010" lon="-2.906192">
        <ele>991.122275</ele>
        <time>2020-08-07T09:33:35.006Z</time>
      </trkpt>
      <trkpt lat="38.586916" lon="-2.906238">
        <ele>992.208048</ele>
        <time>2020-08-07T09:33:40.020Z</time>
      </trkpt>
      <trkpt lat="38.586810" lon="-2.906283">
        <ele>993.412941</ele>
        <time>2020-08-07T09:33:45.016Z</time>
      </trkpt>
      <trkpt lat="38.586723" lon="-2.906331">
        <ele>994.435099</ele>
        <time>2020-08-07T09:33:49.022Z</time>
      </trkpt>
      <trkpt lat="38.586635" lon="-2.906399">
        <ele>995.544225</ele>
        <time>2020-08-07T09:33:54.019Z</time>
      </trkpt>
      <trkpt lat="38.586542" lon="-2.906479">
        <ele>996.753272</ele>
        <time>2020-08-07T09:33:59.015Z</time>
      </trkpt>
      <trkpt lat="38.586471" lon="-2.906549">
        <ele>997.720323</ele>
        <time>2020-08-07T09:34:03.021Z</time>
      </trkpt>
      <trkpt lat="38.586400" lon="-2.906630">
        <ele>998.746632</ele>
        <time>2020-08-07T09:34:07.008Z</time>
      </trkpt>
      <trkpt lat="38.586322" lon="-2.906708">
        <ele>999.814706</ele>
        <time>2020-08-07T09:34:11.019Z</time>
      </trkpt>
      <trkpt lat="38.586246" lon="-2.906797">
        <ele>1000.926271</ele>
        <time>2020-08-07T09:34:14.991Z</time>
      </trkpt>
      <trkpt lat="38.586172" lon="-2.906909">
        <ele>1002.158892</ele>
        <time>2020-08-07T09:34:19.027Z</time>
      </trkpt>
      <trkpt lat="38.586114" lon="-2.907004">
        <ele>1003.009221</ele>
        <time>2020-08-07T09:34:23.036Z</time>
      </trkpt>
      <trkpt lat="38.586051" lon="-2.907102">
        <ele>1003.904286</ele>
        <time>2020-08-07T09:34:27.048Z</time>
      </trkpt>
      <trkpt lat="38.585987" lon="-2.907198">
        <ele>1004.794331</ele>
        <time>2020-08-07T09:34:31.041Z</time>
      </trkpt>
      <trkpt lat="38.585920" lon="-2.907277">
        <ele>1005.616612</ele>
        <time>2020-08-07T09:34:35.014Z</time>
      </trkpt>
      <trkpt lat="38.585853" lon="-2.907359">
        <ele>1006.453381</ele>
        <time>2020-08-07T09:34:39.021Z</time>
      </trkpt>
      <trkpt lat="38.585782" lon="-2.907464">
        <ele>1007.432748</ele>
        <time>2020-08-07T09:34:43.011Z</time>
      </trkpt>
      <trkpt lat="38.585731" lon="-2.907568">
        <ele>1008.298801</ele>
        <time>2020-08-07T09:34:47.020Z</time>
      </trkpt>
      <trkpt lat="38.585688" lon="-2.907674">
        <ele>1009.141241</ele>
        <time>2020-08-07T09:34:50.999Z</time>
      </trkpt>
      <trkpt lat="38.585634" lon="-2.907780">
        <ele>1010.033766</ele>
        <time>2020-08-07T09:34:55.029Z</time>
      </trkpt>
      <trkpt lat="38.585582" lon="-2.907884">
        <ele>1010.904650</ele>
        <time>2020-08-07T09:34:59.018Z</time>
      </trkpt>
      <trkpt lat="38.585531" lon="-2.907998">
        <ele>1011.831219</ele>
        <time>2020-08-07T09:35:03.005Z</time>
      </trkpt>
      <trkpt lat="38.585476" lon="-2.908119">
        <ele>1012.818600</ele>
        <time>2020-08-07T09:35:07.012Z</time>
      </trkpt>
      <trkpt lat="38.585433" lon="-2.908239">
        <ele>1013.749812</ele>
        <time>2020-08-07T09:35:11.028Z</time>
      </trkpt>
      <trkpt lat="38.585373" lon="-2.908357">
        <ele>1014.742823</ele>
        <time>2020-08-07T09:35:15.010Z</time>
      </trkpt>
      <trkpt lat="38.585307" lon="-2.908466">
        <ele>1015.715438</ele>
        <time>2020-08-07T09:35:19.008Z</time>
      </trkpt>
      <trkpt lat="38.585237" lon="-2.908566">
        <ele>1016.662370</ele>
        <time>2020-08-07T09:35:23.030Z</time>
      </trkpt>
      <trkpt lat="38.585175" lon="-2.908669">
        <ele>1017.579422</ele>
        <time>2020-08-07T09:35:27.002Z</time>
      </trkpt>
      <trkpt lat="38.585101" lon="-2.908790">
        <ele>1018.068589</ele>
        <time>2020-08-07T09:35:31.008Z</time>
      </trkpt>
      <trkpt lat="38.585035" lon="-2.908914">
        <ele>1016.982302</ele>
        <time>2020-08-07T09:35:35.012Z</time>
      </trkpt>
      <trkpt lat="38.584970" lon="-2.909013">
        <ele>1016.046107</ele>
        <time>2020-08-07T09:35:38.007Z</time>
      </trkpt>
      <trkpt lat="38.584899" lon="-2.909095">
        <ele>1015.160022</ele>
        <time>2020-08-07T09:35:41.008Z</time>
      </trkpt>
      <trkpt lat="38.584826" lon="-2.909181">
        <ele>1014.240731</ele>
        <time>2020-08-07T09:35:44.030Z</time>
      </trkpt>
      <trkpt lat="38.584703" lon="-2.909273">
        <ele>1012.920860</ele>
        <time>2020-08-07T09:35:47.005Z</time>
      </trkpt>
      <trkpt lat="38.584577" lon="-2.909355">
        <ele>1011.611309</ele>
        <time>2020-08-07T09:35:50.013Z</time>
      </trkpt>
      <trkpt lat="38.584464" lon="-2.909411">
        <ele>1010.488735</ele>
        <time>2020-08-07T09:35:52.017Z</time>
      </trkpt>
      <trkpt lat="38.584339" lon="-2.909512">
        <ele>1009.119171</ele>
        <time>2020-08-07T09:35:54.012Z</time>
      </trkpt>
      <trkpt lat="38.584214" lon="-2.909563">
        <ele>1007.903769</ele>
        <time>2020-08-07T09:35:56.009Z</time>
      </trkpt>
      <trkpt lat="38.584081" lon="-2.909644">
        <ele>1006.539232</ele>
        <time>2020-08-07T09:35:58.001Z</time>
      </trkpt>
      <trkpt lat="38.583928" lon="-2.909698">
        <ele>1005.068966</ele>
        <time>2020-08-07T09:36:00.001Z</time>
      </trkpt>
      <trkpt lat="38.583757" lon="-2.909740">
        <ele>1003.455977</ele>
        <time>2020-08-07T09:36:02.014Z</time>
      </trkpt>
      <trkpt lat="38.583595" lon="-2.909769">
        <ele>1001.940669</ele>
        <time>2020-08-07T09:36:04.012Z</time>
      </trkpt>
      <trkpt lat="38.583422" lon="-2.909786">
        <ele>999.024817</ele>
        <time>2020-08-07T09:36:06.024Z</time>
      </trkpt>
      <trkpt lat="38.583254" lon="-2.909799">
        <ele>995.981607</ele>
        <time>2020-08-07T09:36:08.005Z</time>
      </trkpt>
      <trkpt lat="38.583114" lon="-2.909837">
        <ele>993.393873</ele>
        <time>2020-08-07T09:36:10.017Z</time>
      </trkpt>
      <trkpt lat="38.583004" lon="-2.909842">
        <ele>991.403676</ele>
        <time>2020-08-07T09:36:12.021Z</time>
      </trkpt>
      <trkpt lat="38.582924" lon="-2.909764">
        <ele>989.584935</ele>
        <time>2020-08-07T09:36:14.027Z</time>
      </trkpt>
      <trkpt lat="38.582835" lon="-2.909722">
        <ele>987.869696</ele>
        <time>2020-08-07T09:36:16.021Z</time>
      </trkpt>
      <trkpt lat="38.582763" lon="-2.909653">
        <ele>986.243054</ele>
        <time>2020-08-07T09:36:18.037Z</time>
      </trkpt>
      <trkpt lat="38.582685" lon="-2.909591">
        <ele>984.582629</ele>
        <time>2020-08-07T09:36:20.012Z</time>
      </trkpt>
      <trkpt lat="38.582550" lon="-2.909563">
        <ele>982.109780</ele>
        <time>2020-08-07T09:36:22.028Z</time>
      </trkpt>
      <trkpt lat="38.582408" lon="-2.909540">
        <ele>979.521737</ele>
        <time>2020-08-07T09:36:24.025Z</time>
      </trkpt>
      <trkpt lat="38.582272" lon="-2.909486">
        <ele>976.946952</ele>
        <time>2020-08-07T09:36:26.042Z</time>
      </trkpt>
      <trkpt lat="38.582129" lon="-2.909465">
        <ele>974.344346</ele>
        <time>2020-08-07T09:36:28.042Z</time>
      </trkpt>
      <trkpt lat="38.581993" lon="-2.909472">
        <ele>971.883300</ele>
        <time>2020-08-07T09:36:30.017Z</time>
      </trkpt>
      <trkpt lat="38.581848" lon="-2.909533">
        <ele>969.176431</ele>
        <time>2020-08-07T09:36:32.010Z</time>
      </trkpt>
      <trkpt lat="38.581720" lon="-2.909566">
        <ele>968.807629</ele>
        <time>2020-08-07T09:36:34.018Z</time>
      </trkpt>
      <trkpt lat="38.581598" lon="-2.909642">
        <ele>968.424356</ele>
        <time>2020-08-07T09:36:36.019Z</time>
      </trkpt>
      <trkpt lat="38.581467" lon="-2.909733">
        <ele>968.003315</ele>
        <time>2020-08-07T09:36:38.008Z</time>
      </trkpt>
      <trkpt lat="38.581350" lon="-2.909803">
        <ele>967.638494</ele>
        <time>2020-08-07T09:36:39.999Z</time>
      </trkpt>
      <trkpt lat="38.581241" lon="-2.909898">
        <ele>967.265962</ele>
        <time>2020-08-07T09:36:42.020Z</time>
      </trkpt>
      <trkpt lat="38.581129" lon="-2.909952">
        <ele>966.927897</ele>
        <time>2020-08-07T09:36:44.018Z</time>
      </trkpt>
      <trkpt lat="38.581031" lon="-2.910006">
        <ele>966.626511</ele>
        <time>2020-08-07T09:36:46.018Z</time>
      </trkpt>
      <trkpt lat="38.580951" lon="-2.910071">
        <ele>966.358827</ele>
        <time>2020-08-07T09:36:48.019Z</time>
      </trkpt>
      <trkpt lat="38.580846" lon="-2.910107">
        <ele>966.051789</ele>
        <time>2020-08-07T09:36:50.002Z</time>
      </trkpt>
      <trkpt lat="38.580757" lon="-2.910161">
        <ele>965.773568</ele>
        <time>2020-08-07T09:36:52.006Z</time>
      </trkpt>
      <trkpt lat="38.580640" lon="-2.910202">
        <ele>965.430928</ele>
        <time>2020-08-07T09:36:55.014Z</time>
      </trkpt>
      <trkpt lat="38.580531" lon="-2.910205">
        <ele>965.122989</ele>
        <time>2020-08-07T09:36:58.018Z</time>
      </trkpt>
      <trkpt lat="38.580418" lon="-2.910193">
        <ele>964.802725</ele>
        <time>2020-08-07T09:37:01.017Z</time>
      </trkpt>
      <trkpt lat="38.580304" lon="-2.910195">
        <ele>964.480704</ele>
        <time>2020-08-07T09:37:04.019Z</time>
      </trkpt>
      <trkpt lat="38.580186" lon="-2.910172">
        <ele>964.143569</ele>
        <time>2020-08-07T09:37:07.007Z</time>
      </trkpt>
      <trkpt lat="38.580085" lon="-2.910171">
        <ele>963.357317</ele>
        <time>2020-08-07T09:37:10.020Z</time>
      </trkpt>
      <trkpt lat="38.579984" lon="-2.910184">
        <ele>962.490812</ele>
        <time>2020-08-07T09:37:13.006Z</time>
      </trkpt>
      <trkpt lat="38.579877" lon="-2.910209">
        <ele>961.562334</ele>
        <time>2020-08-07T09:37:15.007Z</time>
      </trkpt>
      <trkpt lat="38.579746" lon="-2.910256">
        <ele>960.400949</ele>
        <time>2020-08-07T09:37:17.014Z</time>
      </trkpt>
      <trkpt lat="38.579605" lon="-2.910297">
        <ele>959.166648</ele>
        <time>2020-08-07T09:37:19.011Z</time>
      </trkpt>
      <trkpt lat="38.579453" lon="-2.910385">
        <ele>957.742452</ele>
        <time>2020-08-07T09:37:21.005Z</time>
      </trkpt>
      <trkpt lat="38.579298" lon="-2.910475">
        <ele>956.289423</ele>
        <time>2020-08-07T09:37:23.009Z</time>
      </trkpt>
      <trkpt lat="38.579220" lon="-2.910537">
        <ele>955.505529</ele>
        <time>2020-08-07T09:37:24.000Z</time>
      </trkpt>
      <trkpt lat="38.579140" lon="-2.910599">
        <ele>954.707083</ele>
        <time>2020-08-07T09:37:25.028Z</time>
      </trkpt>
      <trkpt lat="38.578981" lon="-2.910715">
        <ele>953.144609</ele>
        <time>2020-08-07T09:37:27.034Z</time>
      </trkpt>
      <trkpt lat="38.578895" lon="-2.910759">
        <ele>952.353960</ele>
        <time>2020-08-07T09:37:28.043Z</time>
      </trkpt>
      <trkpt lat="38.578810" lon="-2.910822">
        <ele>951.515390</ele>
        <time>2020-08-07T09:37:29.027Z</time>
      </trkpt>
      <trkpt lat="38.578737" lon="-2.910897">
        <ele>950.716148</ele>
        <time>2020-08-07T09:37:30.015Z</time>
      </trkpt>
      <trkpt lat="38.578656" lon="-2.910963">
        <ele>949.896362</ele>
        <time>2020-08-07T09:37:30.995Z</time>
      </trkpt>
      <trkpt lat="38.578510" lon="-2.911109">
        <ele>948.727507</ele>
        <time>2020-08-07T09:37:33.005Z</time>
      </trkpt>
      <trkpt lat="38.578433" lon="-2.911198">
        <ele>948.676888</ele>
        <time>2020-08-07T09:37:33.996Z</time>
      </trkpt>
      <trkpt lat="38.578356" lon="-2.911285">
        <ele>948.626777</ele>
        <time>2020-08-07T09:37:35.012Z</time>
      </trkpt>
      <trkpt lat="38.578285" lon="-2.911362">
        <ele>948.581375</ele>
        <time>2020-08-07T09:37:36.025Z</time>
      </trkpt>
      <trkpt lat="38.578212" lon="-2.911452">
        <ele>948.531922</ele>
        <time>2020-08-07T09:37:37.012Z</time>
      </trkpt>
      <trkpt lat="38.578138" lon="-2.911536">
        <ele>948.483664</ele>
        <time>2020-08-07T09:37:38.037Z</time>
      </trkpt>
      <trkpt lat="38.578063" lon="-2.911606">
        <ele>948.438379</ele>
        <time>2020-08-07T09:37:39.019Z</time>
      </trkpt>
      <trkpt lat="38.577967" lon="-2.911687">
        <ele>948.382285</ele>
        <time>2020-08-07T09:37:40.012Z</time>
      </trkpt>
      <trkpt lat="38.577878" lon="-2.911770">
        <ele>948.328562</ele>
        <time>2020-08-07T09:37:41.032Z</time>
      </trkpt>
      <trkpt lat="38.577812" lon="-2.911858">
        <ele>948.282061</ele>
        <time>2020-08-07T09:37:42.007Z</time>
      </trkpt>
      <trkpt lat="38.577733" lon="-2.911925">
        <ele>948.235827</ele>
        <time>2020-08-07T09:37:43.029Z</time>
      </trkpt>
      <trkpt lat="38.577662" lon="-2.912002">
        <ele>948.190425</ele>
        <time>2020-08-07T09:37:44.014Z</time>
      </trkpt>
      <trkpt lat="38.577520" lon="-2.912145">
        <ele>948.102273</ele>
        <time>2020-08-07T09:37:46.040Z</time>
      </trkpt>
      <trkpt lat="38.577453" lon="-2.912224">
        <ele>948.057827</ele>
        <time>2020-08-07T09:37:47.043Z</time>
      </trkpt>
      <trkpt lat="38.577383" lon="-2.912296">
        <ele>948.014015</ele>
        <time>2020-08-07T09:37:47.994Z</time>
      </trkpt>
      <trkpt lat="38.577254" lon="-2.912423">
        <ele>947.934615</ele>
        <time>2020-08-07T09:37:50.023Z</time>
      </trkpt>
      <trkpt lat="38.577131" lon="-2.912583">
        <ele>947.799693</ele>
        <time>2020-08-07T09:37:52.001Z</time>
      </trkpt>
      <trkpt lat="38.577071" lon="-2.912674">
        <ele>947.668719</ele>
        <time>2020-08-07T09:37:53.005Z</time>
      </trkpt>
      <trkpt lat="38.576986" lon="-2.912869">
        <ele>947.423079</ele>
        <time>2020-08-07T09:37:55.008Z</time>
      </trkpt>
      <trkpt lat="38.576889" lon="-2.913037">
        <ele>947.193295</ele>
        <time>2020-08-07T09:37:57.010Z</time>
      </trkpt>
      <trkpt lat="38.576760" lon="-2.913163">
        <ele>946.964871</ele>
        <time>2020-08-07T09:37:59.012Z</time>
      </trkpt>
      <trkpt lat="38.576604" lon="-2.913242">
        <ele>946.728746</ele>
        <time>2020-08-07T09:38:01.019Z</time>
      </trkpt>
      <trkpt lat="38.576448" lon="-2.913306">
        <ele>946.498184</ele>
        <time>2020-08-07T09:38:03.009Z</time>
      </trkpt>
      <trkpt lat="38.576287" lon="-2.913362">
        <ele>946.263373</ele>
        <time>2020-08-07T09:38:05.017Z</time>
      </trkpt>
      <trkpt lat="38.576180" lon="-2.913360">
        <ele>946.112771</ele>
        <time>2020-08-07T09:38:06.003Z</time>
      </trkpt>
      <trkpt lat="38.576121" lon="-2.913481">
        <ele>945.955871</ele>
        <time>2020-08-07T09:38:07.028Z</time>
      </trkpt>
      <trkpt lat="38.576017" lon="-2.913431">
        <ele>945.799510</ele>
        <time>2020-08-07T09:38:09.031Z</time>
      </trkpt>
      <trkpt lat="38.575925" lon="-2.913412">
        <ele>945.668357</ele>
        <time>2020-08-07T09:38:10.028Z</time>
      </trkpt>
      <trkpt lat="38.575790" lon="-2.913411">
        <ele>945.478362</ele>
        <time>2020-08-07T09:38:12.014Z</time>
      </trkpt>
      <trkpt lat="38.575635" lon="-2.913416">
        <ele>945.266137</ele>
        <time>2020-08-07T09:38:14.029Z</time>
      </trkpt>
      <trkpt lat="38.575537" lon="-2.913397">
        <ele>945.136607</ele>
        <time>2020-08-07T09:38:15.043Z</time>
      </trkpt>
      <trkpt lat="38.575382" lon="-2.913465">
        <ele>944.922469</ele>
        <time>2020-08-07T09:38:17.015Z</time>
      </trkpt>
      <trkpt lat="38.575237" lon="-2.913501">
        <ele>944.729445</ele>
        <time>2020-08-07T09:38:19.035Z</time>
      </trkpt>
      <trkpt lat="38.575105" lon="-2.913559">
        <ele>944.547052</ele>
        <time>2020-08-07T09:38:21.021Z</time>
      </trkpt>
      <trkpt lat="38.575010" lon="-2.913595">
        <ele>944.417571</ele>
        <time>2020-08-07T09:38:22.009Z</time>
      </trkpt>
      <trkpt lat="38.574870" lon="-2.913640">
        <ele>944.228929</ele>
        <time>2020-08-07T09:38:24.000Z</time>
      </trkpt>
      <trkpt lat="38.574741" lon="-2.913701">
        <ele>944.049200</ele>
        <time>2020-08-07T09:38:26.021Z</time>
      </trkpt>
      <trkpt lat="38.574612" lon="-2.913764">
        <ele>943.868752</ele>
        <time>2020-08-07T09:38:28.024Z</time>
      </trkpt>
      <trkpt lat="38.574512" lon="-2.913785">
        <ele>943.736321</ele>
        <time>2020-08-07T09:38:30.018Z</time>
      </trkpt>
      <trkpt lat="38.574423" lon="-2.913853">
        <ele>943.600846</ele>
        <time>2020-08-07T09:38:32.009Z</time>
      </trkpt>
      <trkpt lat="38.574336" lon="-2.913934">
        <ele>943.460224</ele>
        <time>2020-08-07T09:38:36.012Z</time>
      </trkpt>
      <trkpt lat="38.574234" lon="-2.913951">
        <ele>943.325803</ele>
        <time>2020-08-07T09:38:39.034Z</time>
      </trkpt>
      <trkpt lat="38.574159" lon="-2.914020">
        <ele>943.205073</ele>
        <time>2020-08-07T09:38:43.015Z</time>
      </trkpt>
      <trkpt lat="38.574077" lon="-2.914072">
        <ele>943.085468</ele>
        <time>2020-08-07T09:38:47.016Z</time>
      </trkpt>
      <trkpt lat="38.573981" lon="-2.914143">
        <ele>943.074781</ele>
        <time>2020-08-07T09:38:51.998Z</time>
      </trkpt>
      <trkpt lat="38.573904" lon="-2.914211">
        <ele>943.262940</ele>
        <time>2020-08-07T09:38:56.025Z</time>
      </trkpt>
      <trkpt lat="38.573765" lon="-2.914559">
        <ele>943.877306</ele>
        <time>2020-08-07T09:40:32.008Z</time>
      </trkpt>
      <trkpt lat="38.573723" lon="-2.914693">
        <ele>944.104270</ele>
        <time>2020-08-07T09:40:37.012Z</time>
      </trkpt>
      <trkpt lat="38.573686" lon="-2.914819">
        <ele>944.315871</ele>
        <time>2020-08-07T09:40:42.018Z</time>
      </trkpt>
      <trkpt lat="38.573643" lon="-2.914928">
        <ele>944.507812</ele>
        <time>2020-08-07T09:40:46.019Z</time>
      </trkpt>
      <trkpt lat="38.573601" lon="-2.915033">
        <ele>944.693237</ele>
        <time>2020-08-07T09:40:50.021Z</time>
      </trkpt>
      <trkpt lat="38.573561" lon="-2.915152">
        <ele>944.896879</ele>
        <time>2020-08-07T09:40:55.011Z</time>
      </trkpt>
      <trkpt lat="38.573521" lon="-2.915258">
        <ele>945.081922</ele>
        <time>2020-08-07T09:40:59.013Z</time>
      </trkpt>
      <trkpt lat="38.573481" lon="-2.915367">
        <ele>945.271223</ele>
        <time>2020-08-07T09:41:02.997Z</time>
      </trkpt>
      <trkpt lat="38.573441" lon="-2.915474">
        <ele>945.457683</ele>
        <time>2020-08-07T09:41:07.007Z</time>
      </trkpt>
      <trkpt lat="38.573391" lon="-2.915585">
        <ele>945.659083</ele>
        <time>2020-08-07T09:41:11.027Z</time>
      </trkpt>
      <trkpt lat="38.573332" lon="-2.915699">
        <ele>945.874018</ele>
        <time>2020-08-07T09:41:16.018Z</time>
      </trkpt>
      <trkpt lat="38.573267" lon="-2.915794">
        <ele>946.072489</ele>
        <time>2020-08-07T09:41:20.020Z</time>
      </trkpt>
      <trkpt lat="38.573207" lon="-2.915913">
        <ele>946.295105</ele>
        <time>2020-08-07T09:41:24.036Z</time>
      </trkpt>
      <trkpt lat="38.573151" lon="-2.916019">
        <ele>946.496232</ele>
        <time>2020-08-07T09:41:28.001Z</time>
      </trkpt>
      <trkpt lat="38.573091" lon="-2.916130">
        <ele>946.689665</ele>
        <time>2020-08-07T09:41:32.021Z</time>
      </trkpt>
      <trkpt lat="38.573034" lon="-2.916239">
        <ele>946.856475</ele>
        <time>2020-08-07T09:41:36.012Z</time>
      </trkpt>
      <trkpt lat="38.572974" lon="-2.916339">
        <ele>947.016823</ele>
        <time>2020-08-07T09:41:40.012Z</time>
      </trkpt>
      <trkpt lat="38.572906" lon="-2.916448">
        <ele>947.194209</ele>
        <time>2020-08-07T09:41:45.019Z</time>
      </trkpt>
      <trkpt lat="38.572840" lon="-2.916533">
        <ele>947.346598</ele>
        <time>2020-08-07T09:41:49.014Z</time>
      </trkpt>
      <trkpt lat="38.572784" lon="-2.916624">
        <ele>947.493912</ele>
        <time>2020-08-07T09:41:53.012Z</time>
      </trkpt>
      <trkpt lat="38.572735" lon="-2.916727">
        <ele>947.647283</ele>
        <time>2020-08-07T09:41:57.020Z</time>
      </trkpt>
      <trkpt lat="38.572682" lon="-2.916820">
        <ele>947.793678</ele>
        <time>2020-08-07T09:42:01.025Z</time>
      </trkpt>
      <trkpt lat="38.572630" lon="-2.916926">
        <ele>947.952862</ele>
        <time>2020-08-07T09:42:04.997Z</time>
      </trkpt>
      <trkpt lat="38.572567" lon="-2.917039">
        <ele>948.129409</ele>
        <time>2020-08-07T09:42:09.004Z</time>
      </trkpt>
      <trkpt lat="38.572511" lon="-2.917141">
        <ele>948.287955</ele>
        <time>2020-08-07T09:42:13.016Z</time>
      </trkpt>
      <trkpt lat="38.572442" lon="-2.917236">
        <ele>948.452901</ele>
        <time>2020-08-07T09:42:17.003Z</time>
      </trkpt>
      <trkpt lat="38.572371" lon="-2.917333">
        <ele>948.621928</ele>
        <time>2020-08-07T09:42:21.018Z</time>
      </trkpt>
      <trkpt lat="38.572307" lon="-2.917432">
        <ele>948.785337</ele>
        <time>2020-08-07T09:42:25.011Z</time>
      </trkpt>
      <trkpt lat="38.572241" lon="-2.917538">
        <ele>948.957712</ele>
        <time>2020-08-07T09:42:29.003Z</time>
      </trkpt>
      <trkpt lat="38.572171" lon="-2.917642">
        <ele>949.132279</ele>
        <time>2020-08-07T09:42:33.002Z</time>
      </trkpt>
      <trkpt lat="38.572093" lon="-2.917736">
        <ele>949.306646</ele>
        <time>2020-08-07T09:42:37.023Z</time>
      </trkpt>
      <trkpt lat="38.572025" lon="-2.917837">
        <ele>949.476198</ele>
        <time>2020-08-07T09:42:41.009Z</time>
      </trkpt>
      <trkpt lat="38.571956" lon="-2.917940">
        <ele>949.728859</ele>
        <time>2020-08-07T09:42:45.006Z</time>
      </trkpt>
      <trkpt lat="38.571882" lon="-2.918041">
        <ele>950.030934</ele>
        <time>2020-08-07T09:42:49.028Z</time>
      </trkpt>
      <trkpt lat="38.571818" lon="-2.918147">
        <ele>950.323213</ele>
        <time>2020-08-07T09:42:53.015Z</time>
      </trkpt>
      <trkpt lat="38.571767" lon="-2.918248">
        <ele>950.585604</ele>
        <time>2020-08-07T09:42:57.018Z</time>
      </trkpt>
      <trkpt lat="38.571703" lon="-2.918341">
        <ele>950.855985</ele>
        <time>2020-08-07T09:43:01.019Z</time>
      </trkpt>
      <trkpt lat="38.571647" lon="-2.918440">
        <ele>951.122655</ele>
        <time>2020-08-07T09:43:05.015Z</time>
      </trkpt>
      <trkpt lat="38.571599" lon="-2.918538">
        <ele>951.375027</ele>
        <time>2020-08-07T09:43:09.037Z</time>
      </trkpt>
      <trkpt lat="38.571542" lon="-2.918641">
        <ele>951.650421</ele>
        <time>2020-08-07T09:43:13.049Z</time>
      </trkpt>
      <trkpt lat="38.571469" lon="-2.918753">
        <ele>951.968640</ele>
        <time>2020-08-07T09:43:17.014Z</time>
      </trkpt>
      <trkpt lat="38.571393" lon="-2.918868">
        <ele>952.297259</ele>
        <time>2020-08-07T09:43:21.033Z</time>
      </trkpt>
      <trkpt lat="38.571318" lon="-2.918980">
        <ele>952.619082</ele>
        <time>2020-08-07T09:43:25.020Z</time>
      </trkpt>
      <trkpt lat="38.571266" lon="-2.919089">
        <ele>952.897746</ele>
        <time>2020-08-07T09:43:29.033Z</time>
      </trkpt>
      <trkpt lat="38.571215" lon="-2.919194">
        <ele>953.167513</ele>
        <time>2020-08-07T09:43:33.042Z</time>
      </trkpt>
      <trkpt lat="38.571160" lon="-2.919301">
        <ele>953.446972</ele>
        <time>2020-08-07T09:43:37.022Z</time>
      </trkpt>
      <trkpt lat="38.571090" lon="-2.919422">
        <ele>953.775467</ele>
        <time>2020-08-07T09:43:41.031Z</time>
      </trkpt>
      <trkpt lat="38.571030" lon="-2.919527">
        <ele>954.059295</ele>
        <time>2020-08-07T09:43:45.033Z</time>
      </trkpt>
      <trkpt lat="38.570982" lon="-2.919645">
        <ele>954.349584</ele>
        <time>2020-08-07T09:43:49.004Z</time>
      </trkpt>
      <trkpt lat="38.570922" lon="-2.919755">
        <ele>954.583315</ele>
        <time>2020-08-07T09:43:53.010Z</time>
      </trkpt>
      <trkpt lat="38.570856" lon="-2.919862">
        <ele>954.674147</ele>
        <time>2020-08-07T09:43:57.042Z</time>
      </trkpt>
      <trkpt lat="38.570792" lon="-2.919971">
        <ele>954.764996</ele>
        <time>2020-08-07T09:44:01.008Z</time>
      </trkpt>
      <trkpt lat="38.570730" lon="-2.920089">
        <ele>954.859747</ele>
        <time>2020-08-07T09:44:05.011Z</time>
      </trkpt>
      <trkpt lat="38.570678" lon="-2.920204">
        <ele>954.948286</ele>
        <time>2020-08-07T09:44:09.015Z</time>
      </trkpt>
      <trkpt lat="38.570625" lon="-2.920317">
        <ele>955.036108</ele>
        <time>2020-08-07T09:44:13.006Z</time>
      </trkpt>
      <trkpt lat="38.570557" lon="-2.920428">
        <ele>955.130090</ele>
        <time>2020-08-07T09:44:17.010Z</time>
      </trkpt>
      <trkpt lat="38.570490" lon="-2.920539">
        <ele>955.223549</ele>
        <time>2020-08-07T09:44:21.017Z</time>
      </trkpt>
      <trkpt lat="38.570433" lon="-2.920638">
        <ele>955.305489</ele>
        <time>2020-08-07T09:44:25.025Z</time>
      </trkpt>
      <trkpt lat="38.570386" lon="-2.920747">
        <ele>955.388450</ele>
        <time>2020-08-07T09:44:29.007Z</time>
      </trkpt>
      <trkpt lat="38.570332" lon="-2.920874">
        <ele>955.484798</ele>
        <time>2020-08-07T09:44:34.016Z</time>
      </trkpt>
      <trkpt lat="38.570272" lon="-2.920981">
        <ele>955.572555</ele>
        <time>2020-08-07T09:44:38.022Z</time>
      </trkpt>
      <trkpt lat="38.570214" lon="-2.921100">
        <ele>955.666013</ele>
        <time>2020-08-07T09:44:42.012Z</time>
      </trkpt>
      <trkpt lat="38.570164" lon="-2.921220">
        <ele>955.756637</ele>
        <time>2020-08-07T09:44:46.028Z</time>
      </trkpt>
      <trkpt lat="38.570103" lon="-2.921344">
        <ele>955.854277</ele>
        <time>2020-08-07T09:44:50.021Z</time>
      </trkpt>
      <trkpt lat="38.570050" lon="-2.921465">
        <ele>955.946713</ele>
        <time>2020-08-07T09:44:54.030Z</time>
      </trkpt>
      <trkpt lat="38.570004" lon="-2.921577">
        <ele>956.031030</ele>
        <time>2020-08-07T09:44:57.999Z</time>
      </trkpt>
      <trkpt lat="38.569955" lon="-2.921677">
        <ele>956.155977</ele>
        <time>2020-08-07T09:45:02.005Z</time>
      </trkpt>
      <trkpt lat="38.569899" lon="-2.921779">
        <ele>956.440560</ele>
        <time>2020-08-07T09:45:06.012Z</time>
      </trkpt>
      <trkpt lat="38.569795" lon="-2.921838">
        <ele>956.772818</ele>
        <time>2020-08-07T09:45:10.010Z</time>
      </trkpt>
      <trkpt lat="38.569701" lon="-2.921910">
        <ele>957.092798</ele>
        <time>2020-08-07T09:45:14.033Z</time>
      </trkpt>
      <trkpt lat="38.569661" lon="-2.922036">
        <ele>957.403308</ele>
        <time>2020-08-07T09:45:19.025Z</time>
      </trkpt>
      <trkpt lat="38.569600" lon="-2.922130">
        <ele>957.682239</ele>
        <time>2020-08-07T09:45:24.006Z</time>
      </trkpt>
      <trkpt lat="38.569522" lon="-2.922224">
        <ele>957.995218</ele>
        <time>2020-08-07T09:45:28.018Z</time>
      </trkpt>
      <trkpt lat="38.569439" lon="-2.922320">
        <ele>958.322025</ele>
        <time>2020-08-07T09:45:33.020Z</time>
      </trkpt>
      <trkpt lat="38.569375" lon="-2.922411">
        <ele>958.601502</ele>
        <time>2020-08-07T09:45:37.018Z</time>
      </trkpt>
      <trkpt lat="38.569302" lon="-2.922506">
        <ele>958.905644</ele>
        <time>2020-08-07T09:45:41.005Z</time>
      </trkpt>
      <trkpt lat="38.569223" lon="-2.922567">
        <ele>959.175140</ele>
        <time>2020-08-07T09:45:45.000Z</time>
      </trkpt>
      <trkpt lat="38.569129" lon="-2.922642">
        <ele>959.498693</ele>
        <time>2020-08-07T09:45:50.014Z</time>
      </trkpt>
      <trkpt lat="38.569053" lon="-2.922733">
        <ele>959.802726</ele>
        <time>2020-08-07T09:45:54.030Z</time>
      </trkpt>
      <trkpt lat="38.568993" lon="-2.922833">
        <ele>960.090546</ele>
        <time>2020-08-07T09:46:09.009Z</time>
      </trkpt>
      <trkpt lat="38.568931" lon="-2.922934">
        <ele>960.383750</ele>
        <time>2020-08-07T09:46:18.021Z</time>
      </trkpt>
      <trkpt lat="38.568900" lon="-2.923042">
        <ele>960.646444</ele>
        <time>2020-08-07T09:46:26.999Z</time>
      </trkpt>
      <trkpt lat="38.568926" lon="-2.923164">
        <ele>960.935175</ele>
        <time>2020-08-07T09:46:38.028Z</time>
      </trkpt>
      <trkpt lat="38.568968" lon="-2.923275">
        <ele>961.216746</ele>
        <time>2020-08-07T09:46:46.025Z</time>
      </trkpt>
      <trkpt lat="38.568824" lon="-2.923534">
        <ele>962.119566</ele>
        <time>2020-08-07T09:48:18.020Z</time>
      </trkpt>
      <trkpt lat="38.568750" lon="-2.923617">
        <ele>962.492007</ele>
        <time>2020-08-07T09:48:26.005Z</time>
      </trkpt>
      <trkpt lat="38.568670" lon="-2.923684">
        <ele>962.853857</ele>
        <time>2020-08-07T09:48:34.012Z</time>
      </trkpt>
      <trkpt lat="38.568602" lon="-2.923765">
        <ele>963.205484</ele>
        <time>2020-08-07T09:48:44.034Z</time>
      </trkpt>
      <trkpt lat="38.568525" lon="-2.923833">
        <ele>963.559565</ele>
        <time>2020-08-07T09:48:52.028Z</time>
      </trkpt>
      <trkpt lat="38.568459" lon="-2.923920">
        <ele>963.918212</ele>
        <time>2020-08-07T09:49:00.016Z</time>
      </trkpt>
      <trkpt lat="38.568373" lon="-2.923969">
        <ele>964.274471</ele>
        <time>2020-08-07T09:49:08.011Z</time>
      </trkpt>
      <trkpt lat="38.568293" lon="-2.924025">
        <ele>964.619568</ele>
        <time>2020-08-07T09:49:17.021Z</time>
      </trkpt>
      <trkpt lat="38.568202" lon="-2.924063">
        <ele>964.981806</ele>
        <time>2020-08-07T09:49:27.020Z</time>
      </trkpt>
      <trkpt lat="38.568116" lon="-2.924122">
        <ele>965.351094</ele>
        <time>2020-08-07T09:49:35.023Z</time>
      </trkpt>
      <trkpt lat="38.568030" lon="-2.924173">
        <ele>965.709802</ele>
        <time>2020-08-07T09:49:44.012Z</time>
      </trkpt>
      <trkpt lat="38.567938" lon="-2.924198">
        <ele>966.065706</ele>
        <time>2020-08-07T09:49:52.015Z</time>
      </trkpt>
      <trkpt lat="38.567856" lon="-2.924258">
        <ele>966.423188</ele>
        <time>2020-08-07T09:50:02.004Z</time>
      </trkpt>
      <trkpt lat="38.567791" lon="-2.924344">
        <ele>966.777079</ele>
        <time>2020-08-07T09:50:12.017Z</time>
      </trkpt>
      <trkpt lat="38.567714" lon="-2.924423">
        <ele>967.150614</ele>
        <time>2020-08-07T09:50:25.022Z</time>
      </trkpt>
      <trkpt lat="38.567624" lon="-2.924461">
        <ele>967.509256</ele>
        <time>2020-08-07T09:50:33.003Z</time>
      </trkpt>
      <trkpt lat="38.567541" lon="-2.924509">
        <ele>967.853948</ele>
        <time>2020-08-07T09:50:50.011Z</time>
      </trkpt>
      <trkpt lat="38.567610" lon="-2.924587">
        <ele>968.226979</ele>
        <time>2020-08-07T09:51:12.020Z</time>
      </trkpt>
      <trkpt lat="38.567575" lon="-2.924696">
        <ele>968.737505</ele>
        <time>2020-08-07T09:51:23.032Z</time>
      </trkpt>
      <trkpt lat="38.567525" lon="-2.924792">
        <ele>969.237266</ele>
        <time>2020-08-07T09:51:32.024Z</time>
      </trkpt>
      <trkpt lat="38.567493" lon="-2.924900">
        <ele>969.737657</ele>
        <time>2020-08-07T09:51:44.029Z</time>
      </trkpt>
      <trkpt lat="38.567407" lon="-2.924939">
        <ele>970.243277</ele>
        <time>2020-08-07T09:51:53.011Z</time>
      </trkpt>
      <trkpt lat="38.567328" lon="-2.925000">
        <ele>970.754632</ele>
        <time>2020-08-07T09:52:02.014Z</time>
      </trkpt>
      <trkpt lat="38.567238" lon="-2.925004">
        <ele>971.253649</ele>
        <time>2020-08-07T09:52:09.998Z</time>
      </trkpt>
      <trkpt lat="38.567156" lon="-2.924956">
        <ele>971.753365</ele>
        <time>2020-08-07T09:52:19.011Z</time>
      </trkpt>
      <trkpt lat="38.567065" lon="-2.924914">
        <ele>972.289451</ele>
        <time>2020-08-07T09:52:29.008Z</time>
      </trkpt>
      <trkpt lat="38.566971" lon="-2.924883">
        <ele>972.827369</ele>
        <time>2020-08-07T09:52:39.017Z</time>
      </trkpt>
      <trkpt lat="38.566875" lon="-2.924862">
        <ele>973.367058</ele>
        <time>2020-08-07T09:52:49.007Z</time>
      </trkpt>
      <trkpt lat="38.566775" lon="-2.924835">
        <ele>973.933400</ele>
        <time>2020-08-07T09:52:58.013Z</time>
      </trkpt>
      <trkpt lat="38.566685" lon="-2.924814">
        <ele>974.440347</ele>
        <time>2020-08-07T09:53:05.005Z</time>
      </trkpt>
      <trkpt lat="38.566597" lon="-2.924758">
        <ele>974.985007</ele>
        <time>2020-08-07T09:53:11.016Z</time>
      </trkpt>
      <trkpt lat="38.566503" lon="-2.924738">
        <ele>975.513047</ele>
        <time>2020-08-07T09:53:19.006Z</time>
      </trkpt>
      <trkpt lat="38.566405" lon="-2.924764">
        <ele>976.067654</ele>
        <time>2020-08-07T09:53:27.007Z</time>
      </trkpt>
      <trkpt lat="38.566325" lon="-2.924822">
        <ele>976.577228</ele>
        <time>2020-08-07T09:53:36.012Z</time>
      </trkpt>
      <trkpt lat="38.566238" lon="-2.924867">
        <ele>977.097253</ele>
        <time>2020-08-07T09:53:47.010Z</time>
      </trkpt>
      <trkpt lat="38.566151" lon="-2.924912">
        <ele>977.617278</ele>
        <time>2020-08-07T09:53:56.003Z</time>
      </trkpt>
      <trkpt lat="38.566061" lon="-2.924943">
        <ele>978.102840</ele>
        <time>2020-08-07T09:54:04.033Z</time>
      </trkpt>
      <trkpt lat="38.566038" lon="-2.925190">
        <ele>977.270224</ele>
        <time>2020-08-07T09:56:02.019Z</time>
      </trkpt>
      <trkpt lat="38.566016" lon="-2.925304">
        <ele>976.877185</ele>
        <time>2020-08-07T09:56:13.010Z</time>
      </trkpt>
      <trkpt lat="38.565994" lon="-2.925439">
        <ele>976.415594</ele>
        <time>2020-08-07T09:56:19.006Z</time>
      </trkpt>
      <trkpt lat="38.565951" lon="-2.925556">
        <ele>975.982858</ele>
        <time>2020-08-07T09:56:24.012Z</time>
      </trkpt>
      <trkpt lat="38.565955" lon="-2.925675">
        <ele>975.584165</ele>
        <time>2020-08-07T09:56:29.036Z</time>
      </trkpt>
      <trkpt lat="38.565966" lon="-2.925814">
        <ele>975.116518</ele>
        <time>2020-08-07T09:56:35.014Z</time>
      </trkpt>
      <trkpt lat="38.565939" lon="-2.925939">
        <ele>974.682437</ele>
        <time>2020-08-07T09:56:40.014Z</time>
      </trkpt>
      <trkpt lat="38.565927" lon="-2.926058">
        <ele>974.280814</ele>
        <time>2020-08-07T09:56:44.015Z</time>
      </trkpt>
      <trkpt lat="38.565923" lon="-2.926203">
        <ele>973.795158</ele>
        <time>2020-08-07T09:56:49.005Z</time>
      </trkpt>
      <trkpt lat="38.565949" lon="-2.926329">
        <ele>973.358962</ele>
        <time>2020-08-07T09:56:52.995Z</time>
      </trkpt>
      <trkpt lat="38.565968" lon="-2.926467">
        <ele>972.889932</ele>
        <time>2020-08-07T09:56:57.010Z</time>
      </trkpt>
      <trkpt lat="38.565996" lon="-2.926601">
        <ele>972.425658</ele>
        <time>2020-08-07T09:57:00.994Z</time>
      </trkpt>
      <trkpt lat="38.566030" lon="-2.926724">
        <ele>971.988973</ele>
        <time>2020-08-07T09:57:05.034Z</time>
      </trkpt>
      <trkpt lat="38.566051" lon="-2.926861">
        <ele>971.521669</ele>
        <time>2020-08-07T09:57:09.009Z</time>
      </trkpt>
      <trkpt lat="38.566073" lon="-2.926986">
        <ele>971.092792</ele>
        <time>2020-08-07T09:57:13.041Z</time>
      </trkpt>
      <trkpt lat="38.566130" lon="-2.927090">
        <ele>970.667671</ele>
        <time>2020-08-07T09:57:17.029Z</time>
      </trkpt>
      <trkpt lat="38.566202" lon="-2.927195">
        <ele>970.416347</ele>
        <time>2020-08-07T09:57:20.996Z</time>
      </trkpt>
      <trkpt lat="38.566284" lon="-2.927265">
        <ele>970.416347</ele>
        <time>2020-08-07T09:57:24.998Z</time>
      </trkpt>
      <trkpt lat="38.566289" lon="-2.927404">
        <ele>970.416347</ele>
        <time>2020-08-07T09:57:29.997Z</time>
      </trkpt>
      <trkpt lat="38.566316" lon="-2.927523">
        <ele>970.416347</ele>
        <time>2020-08-07T09:57:33.996Z</time>
      </trkpt>
      <trkpt lat="38.566317" lon="-2.927674">
        <ele>970.416347</ele>
        <time>2020-08-07T09:57:38.005Z</time>
      </trkpt>
      <trkpt lat="38.566318" lon="-2.927812">
        <ele>970.416347</ele>
        <time>2020-08-07T09:57:42.000Z</time>
      </trkpt>
      <trkpt lat="38.566347" lon="-2.927927">
        <ele>970.416347</ele>
        <time>2020-08-07T09:57:45.999Z</time>
      </trkpt>
      <trkpt lat="38.566423" lon="-2.928030">
        <ele>970.416347</ele>
        <time>2020-08-07T09:57:51.018Z</time>
      </trkpt>
      <trkpt lat="38.566455" lon="-2.928137">
        <ele>970.416347</ele>
        <time>2020-08-07T09:57:55.991Z</time>
      </trkpt>
      <trkpt lat="38.566422" lon="-2.928261">
        <ele>970.416347</ele>
        <time>2020-08-07T09:58:00.995Z</time>
      </trkpt>
      <trkpt lat="38.566350" lon="-2.928347">
        <ele>970.416347</ele>
        <time>2020-08-07T09:58:04.013Z</time>
      </trkpt>
      <trkpt lat="38.566269" lon="-2.928453">
        <ele>970.416347</ele>
        <time>2020-08-07T09:58:07.001Z</time>
      </trkpt>
      <trkpt lat="38.566197" lon="-2.928597">
        <ele>970.416347</ele>
        <time>2020-08-07T09:58:10.011Z</time>
      </trkpt>
      <trkpt lat="38.566138" lon="-2.928704">
        <ele>970.416347</ele>
        <time>2020-08-07T09:58:13.001Z</time>
      </trkpt>
      <trkpt lat="38.566070" lon="-2.928628">
        <ele>970.416347</ele>
        <time>2020-08-07T09:58:37.001Z</time>
      </trkpt>
      <trkpt lat="38.566016" lon="-2.929111">
        <ele>977.452294</ele>
        <time>2020-08-08T05:02:33.996Z</time>
      </trkpt>
      <trkpt lat="38.566066" lon="-2.929012">
        <ele>977.452294</ele>
        <time>2020-08-08T05:06:26.291Z</time>
      </trkpt>
      <trkpt lat="38.566104" lon="-2.928884">
        <ele>977.452294</ele>
        <time>2020-08-08T05:06:33.296Z</time>
      </trkpt>
      <trkpt lat="38.566126" lon="-2.928748">
        <ele>977.452294</ele>
        <time>2020-08-08T05:06:38.294Z</time>
      </trkpt>
      <trkpt lat="38.566165" lon="-2.928621">
        <ele>977.452294</ele>
        <time>2020-08-08T05:06:43.302Z</time>
      </trkpt>
      <trkpt lat="38.566233" lon="-2.928505">
        <ele>977.452294</ele>
        <time>2020-08-08T05:06:48.296Z</time>
      </trkpt>
      <trkpt lat="38.566297" lon="-2.928420">
        <ele>977.452294</ele>
        <time>2020-08-08T05:06:52.301Z</time>
      </trkpt>
      <trkpt lat="38.566359" lon="-2.928336">
        <ele>977.452294</ele>
        <time>2020-08-08T05:06:56.273Z</time>
      </trkpt>
      <trkpt lat="38.566385" lon="-2.928219">
        <ele>977.452294</ele>
        <time>2020-08-08T05:07:01.279Z</time>
      </trkpt>
      <trkpt lat="38.566341" lon="-2.928112">
        <ele>977.450169</ele>
        <time>2020-08-08T05:07:05.290Z</time>
      </trkpt>
      <trkpt lat="38.566277" lon="-2.927992">
        <ele>977.120062</ele>
        <time>2020-08-08T05:07:09.293Z</time>
      </trkpt>
      <trkpt lat="38.566245" lon="-2.927880">
        <ele>976.849074</ele>
        <time>2020-08-08T05:07:12.291Z</time>
      </trkpt>
      <trkpt lat="38.566225" lon="-2.927750">
        <ele>976.547977</ele>
        <time>2020-08-08T05:07:15.286Z</time>
      </trkpt>
      <trkpt lat="38.566214" lon="-2.927615">
        <ele>976.239521</ele>
        <time>2020-08-08T05:07:18.285Z</time>
      </trkpt>
      <trkpt lat="38.566216" lon="-2.927477">
        <ele>975.925854</ele>
        <time>2020-08-08T05:07:21.279Z</time>
      </trkpt>
      <trkpt lat="38.566201" lon="-2.927343">
        <ele>975.618226</ele>
        <time>2020-08-08T05:07:24.286Z</time>
      </trkpt>
      <trkpt lat="38.566152" lon="-2.927239">
        <ele>975.342286</ele>
        <time>2020-08-08T05:07:27.279Z</time>
      </trkpt>
      <trkpt lat="38.566061" lon="-2.927286">
        <ele>975.057042</ele>
        <time>2020-08-08T05:07:31.285Z</time>
      </trkpt>
      <trkpt lat="38.566037" lon="-2.927421">
        <ele>974.742416</ele>
        <time>2020-08-08T05:07:34.295Z</time>
      </trkpt>
      <trkpt lat="38.566032" lon="-2.927542">
        <ele>974.467052</ele>
        <time>2020-08-08T05:07:36.298Z</time>
      </trkpt>
      <trkpt lat="38.566026" lon="-2.927670">
        <ele>974.175641</ele>
        <time>2020-08-08T05:07:38.298Z</time>
      </trkpt>
      <trkpt lat="38.566000" lon="-2.927800">
        <ele>973.870696</ele>
        <time>2020-08-08T05:07:40.303Z</time>
      </trkpt>
      <trkpt lat="38.565958" lon="-2.927927">
        <ele>973.557325</ele>
        <time>2020-08-08T05:07:42.297Z</time>
      </trkpt>
      <trkpt lat="38.565915" lon="-2.928080">
        <ele>973.187843</ele>
        <time>2020-08-08T05:07:44.295Z</time>
      </trkpt>
      <trkpt lat="38.565856" lon="-2.928222">
        <ele>972.822405</ele>
        <time>2020-08-08T05:07:46.289Z</time>
      </trkpt>
      <trkpt lat="38.565795" lon="-2.928393">
        <ele>972.395262</ele>
        <time>2020-08-08T05:07:48.314Z</time>
      </trkpt>
      <trkpt lat="38.565751" lon="-2.928553">
        <ele>972.078349</ele>
        <time>2020-08-08T05:07:50.301Z</time>
      </trkpt>
      <trkpt lat="38.565696" lon="-2.928684">
        <ele>971.848289</ele>
        <time>2020-08-08T05:07:52.304Z</time>
      </trkpt>
      <trkpt lat="38.565670" lon="-2.928807">
        <ele>971.651147</ele>
        <time>2020-08-08T05:07:57.291Z</time>
      </trkpt>
      <trkpt lat="38.565579" lon="-2.928904">
        <ele>971.416731</ele>
        <time>2020-08-08T05:08:34.300Z</time>
      </trkpt>
      <trkpt lat="38.565510" lon="-2.928996">
        <ele>971.219487</ele>
        <time>2020-08-08T05:08:36.280Z</time>
      </trkpt>
      <trkpt lat="38.565348" lon="-2.929252">
        <ele>970.709923</ele>
        <time>2020-08-08T05:08:40.298Z</time>
      </trkpt>
      <trkpt lat="38.565260" lon="-2.929401">
        <ele>970.421008</ele>
        <time>2020-08-08T05:08:42.283Z</time>
      </trkpt>
      <trkpt lat="38.565154" lon="-2.929561">
        <ele>970.096534</ele>
        <time>2020-08-08T05:08:44.287Z</time>
      </trkpt>
      <trkpt lat="38.565042" lon="-2.929707">
        <ele>969.780071</ele>
        <time>2020-08-08T05:08:46.276Z</time>
      </trkpt>
      <trkpt lat="38.564932" lon="-2.929862">
        <ele>969.456194</ele>
        <time>2020-08-08T05:08:48.286Z</time>
      </trkpt>
      <trkpt lat="38.564837" lon="-2.930040">
        <ele>969.122741</ele>
        <time>2020-08-08T05:08:50.294Z</time>
      </trkpt>
      <trkpt lat="38.564723" lon="-2.930201">
        <ele>968.786670</ele>
        <time>2020-08-08T05:08:52.289Z</time>
      </trkpt>
      <trkpt lat="38.564686" lon="-2.930311">
        <ele>968.596250</ele>
        <time>2020-08-08T05:08:53.292Z</time>
      </trkpt>
      <trkpt lat="38.564650" lon="-2.930417">
        <ele>968.403058</ele>
        <time>2020-08-08T05:08:54.282Z</time>
      </trkpt>
      <trkpt lat="38.564614" lon="-2.930526">
        <ele>968.205256</ele>
        <time>2020-08-08T05:08:55.276Z</time>
      </trkpt>
      <trkpt lat="38.564586" lon="-2.930752">
        <ele>967.822743</ele>
        <time>2020-08-08T05:08:57.285Z</time>
      </trkpt>
      <trkpt lat="38.564573" lon="-2.930877">
        <ele>967.611942</ele>
        <time>2020-08-08T05:08:58.295Z</time>
      </trkpt>
      <trkpt lat="38.564508" lon="-2.930969">
        <ele>967.404663</ele>
        <time>2020-08-08T05:08:59.278Z</time>
      </trkpt>
      <trkpt lat="38.564392" lon="-2.931134">
        <ele>967.033736</ele>
        <time>2020-08-08T05:09:01.282Z</time>
      </trkpt>
      <trkpt lat="38.564250" lon="-2.931271">
        <ele>966.653449</ele>
        <time>2020-08-08T05:09:03.283Z</time>
      </trkpt>
      <trkpt lat="38.564148" lon="-2.931280">
        <ele>966.434859</ele>
        <time>2020-08-08T05:09:04.276Z</time>
      </trkpt>
      <trkpt lat="38.563990" lon="-2.931327">
        <ele>966.088044</ele>
        <time>2020-08-08T05:09:06.274Z</time>
      </trkpt>
      <trkpt lat="38.563854" lon="-2.931423">
        <ele>965.755933</ele>
        <time>2020-08-08T05:09:08.278Z</time>
      </trkpt>
      <trkpt lat="38.563780" lon="-2.931499">
        <ele>965.553026</ele>
        <time>2020-08-08T05:09:09.287Z</time>
      </trkpt>
      <trkpt lat="38.563689" lon="-2.931685">
        <ele>965.186238</ele>
        <time>2020-08-08T05:09:11.289Z</time>
      </trkpt>
      <trkpt lat="38.563608" lon="-2.931878">
        <ele>964.820061</ele>
        <time>2020-08-08T05:09:13.442Z</time>
      </trkpt>
      <trkpt lat="38.563484" lon="-2.932044">
        <ele>965.057979</ele>
        <time>2020-08-08T05:09:15.278Z</time>
      </trkpt>
      <trkpt lat="38.563349" lon="-2.932182">
        <ele>965.287283</ele>
        <time>2020-08-08T05:09:17.293Z</time>
      </trkpt>
      <trkpt lat="38.563216" lon="-2.932318">
        <ele>965.513218</ele>
        <time>2020-08-08T05:09:19.290Z</time>
      </trkpt>
      <trkpt lat="38.563111" lon="-2.932476">
        <ele>965.728340</ele>
        <time>2020-08-08T05:09:21.294Z</time>
      </trkpt>
      <trkpt lat="38.562988" lon="-2.932602">
        <ele>965.937434</ele>
        <time>2020-08-08T05:09:23.297Z</time>
      </trkpt>
      <trkpt lat="38.562850" lon="-2.932689">
        <ele>966.141570</ele>
        <time>2020-08-08T05:09:25.281Z</time>
      </trkpt>
      <trkpt lat="38.562707" lon="-2.932779">
        <ele>966.353033</ele>
        <time>2020-08-08T05:09:27.283Z</time>
      </trkpt>
      <trkpt lat="38.562593" lon="-2.932882">
        <ele>966.538227</ele>
        <time>2020-08-08T05:09:29.282Z</time>
      </trkpt>
      <trkpt lat="38.562487" lon="-2.932975">
        <ele>966.708781</ele>
        <time>2020-08-08T05:09:31.283Z</time>
      </trkpt>
      <trkpt lat="38.562410" lon="-2.933048">
        <ele>966.835955</ele>
        <time>2020-08-08T05:09:33.285Z</time>
      </trkpt>
      <trkpt lat="38.562334" lon="-2.933120">
        <ele>966.961445</ele>
        <time>2020-08-08T05:09:35.278Z</time>
      </trkpt>
      <trkpt lat="38.562267" lon="-2.933234">
        <ele>967.109399</ele>
        <time>2020-08-08T05:09:38.283Z</time>
      </trkpt>
      <trkpt lat="38.562203" lon="-2.933324">
        <ele>967.206229</ele>
        <time>2020-08-08T05:09:41.288Z</time>
      </trkpt>
      <trkpt lat="38.562123" lon="-2.933423">
        <ele>967.205667</ele>
        <time>2020-08-08T05:09:46.290Z</time>
      </trkpt>
      <trkpt lat="38.562068" lon="-2.933516">
        <ele>967.205207</ele>
        <time>2020-08-08T05:09:51.283Z</time>
      </trkpt>
      <trkpt lat="38.561994" lon="-2.933620">
        <ele>967.204651</ele>
        <time>2020-08-08T05:09:56.271Z</time>
      </trkpt>
      <trkpt lat="38.561928" lon="-2.933715">
        <ele>967.204150</ele>
        <time>2020-08-08T05:10:00.296Z</time>
      </trkpt>
      <trkpt lat="38.561875" lon="-2.933823">
        <ele>967.203646</ele>
        <time>2020-08-08T05:10:04.302Z</time>
      </trkpt>
      <trkpt lat="38.561832" lon="-2.933931">
        <ele>967.203168</ele>
        <time>2020-08-08T05:10:08.294Z</time>
      </trkpt>
      <trkpt lat="38.561793" lon="-2.934043">
        <ele>967.202684</ele>
        <time>2020-08-08T05:10:12.294Z</time>
      </trkpt>
      <trkpt lat="38.561768" lon="-2.934159">
        <ele>967.202209</ele>
        <time>2020-08-08T05:10:16.295Z</time>
      </trkpt>
      <trkpt lat="38.561739" lon="-2.934268">
        <ele>967.201754</ele>
        <time>2020-08-08T05:10:20.288Z</time>
      </trkpt>
      <trkpt lat="38.561683" lon="-2.934371">
        <ele>967.201259</ele>
        <time>2020-08-08T05:10:24.294Z</time>
      </trkpt>
      <trkpt lat="38.561624" lon="-2.934478">
        <ele>967.200742</ele>
        <time>2020-08-08T05:10:28.289Z</time>
      </trkpt>
      <trkpt lat="38.561569" lon="-2.934576">
        <ele>967.200266</ele>
        <time>2020-08-08T05:10:32.287Z</time>
      </trkpt>
      <trkpt lat="38.561503" lon="-2.934671">
        <ele>967.199765</ele>
        <time>2020-08-08T05:10:36.280Z</time>
      </trkpt>
      <trkpt lat="38.561450" lon="-2.934768">
        <ele>967.199297</ele>
        <time>2020-08-08T05:10:41.300Z</time>
      </trkpt>
      <trkpt lat="38.561386" lon="-2.934864">
        <ele>967.198799</ele>
        <time>2020-08-08T05:10:46.298Z</time>
      </trkpt>
      <trkpt lat="38.561329" lon="-2.934978">
        <ele>967.198265</ele>
        <time>2020-08-08T05:10:52.283Z</time>
      </trkpt>
      <trkpt lat="38.561276" lon="-2.935081">
        <ele>967.197778</ele>
        <time>2020-08-08T05:10:58.269Z</time>
      </trkpt>
      <trkpt lat="38.561198" lon="-2.935141">
        <ele>967.197319</ele>
        <time>2020-08-08T05:11:03.269Z</time>
      </trkpt>
      <trkpt lat="38.561126" lon="-2.935213">
        <ele>967.448948</ele>
        <time>2020-08-08T05:11:09.290Z</time>
      </trkpt>
      <trkpt lat="38.561058" lon="-2.935307">
        <ele>967.765274</ele>
        <time>2020-08-08T05:11:16.281Z</time>
      </trkpt>
      <trkpt lat="38.560980" lon="-2.935386">
        <ele>968.079595</ele>
        <time>2020-08-08T05:11:23.269Z</time>
      </trkpt>
      <trkpt lat="38.560917" lon="-2.935496">
        <ele>968.416407</ele>
        <time>2020-08-08T05:11:30.290Z</time>
      </trkpt>
      <trkpt lat="38.560875" lon="-2.935615">
        <ele>968.738918</ele>
        <time>2020-08-08T05:11:36.277Z</time>
      </trkpt>
      <trkpt lat="38.560833" lon="-2.935719">
        <ele>969.028059</ele>
        <time>2020-08-08T05:11:42.279Z</time>
      </trkpt>
      <trkpt lat="38.560782" lon="-2.935817">
        <ele>969.318850</ele>
        <time>2020-08-08T05:11:48.276Z</time>
      </trkpt>
      <trkpt lat="38.560710" lon="-2.935908">
        <ele>969.638638</ele>
        <time>2020-08-08T05:11:54.283Z</time>
      </trkpt>
      <trkpt lat="38.560651" lon="-2.936015">
        <ele>969.962058</ele>
        <time>2020-08-08T05:12:01.288Z</time>
      </trkpt>
      <trkpt lat="38.560590" lon="-2.936117">
        <ele>970.279263</ele>
        <time>2020-08-08T05:12:07.275Z</time>
      </trkpt>
      <trkpt lat="38.560524" lon="-2.936215">
        <ele>970.598754</ele>
        <time>2020-08-08T05:12:12.277Z</time>
      </trkpt>
      <trkpt lat="38.560461" lon="-2.936314">
        <ele>970.914055</ele>
        <time>2020-08-08T05:12:18.289Z</time>
      </trkpt>
      <trkpt lat="38.560403" lon="-2.936405">
        <ele>971.204058</ele>
        <time>2020-08-08T05:12:24.286Z</time>
      </trkpt>
      <trkpt lat="38.560345" lon="-2.936496">
        <ele>971.494062</ele>
        <time>2020-08-08T05:12:30.288Z</time>
      </trkpt>
      <trkpt lat="38.560254" lon="-2.936538">
        <ele>971.799684</ele>
        <time>2020-08-08T05:12:35.286Z</time>
      </trkpt>
      <trkpt lat="38.560169" lon="-2.936576">
        <ele>972.084138</ele>
        <time>2020-08-08T05:12:41.277Z</time>
      </trkpt>
      <trkpt lat="38.560067" lon="-2.936558">
        <ele>972.409414</ele>
        <time>2020-08-08T05:12:46.278Z</time>
      </trkpt>
      <trkpt lat="38.559962" lon="-2.936522">
        <ele>972.752828</ele>
        <time>2020-08-08T05:12:51.277Z</time>
      </trkpt>
      <trkpt lat="38.559866" lon="-2.936501">
        <ele>972.889340</ele>
        <time>2020-08-08T05:12:56.292Z</time>
      </trkpt>
      <trkpt lat="38.559774" lon="-2.936481">
        <ele>972.905732</ele>
        <time>2020-08-08T05:13:00.304Z</time>
      </trkpt>
      <trkpt lat="38.559665" lon="-2.936464">
        <ele>972.925020</ele>
        <time>2020-08-08T05:13:05.278Z</time>
      </trkpt>
      <trkpt lat="38.559573" lon="-2.936413">
        <ele>972.942633</ele>
        <time>2020-08-08T05:13:10.278Z</time>
      </trkpt>
      <trkpt lat="38.559486" lon="-2.936368">
        <ele>972.959117</ele>
        <time>2020-08-08T05:13:14.294Z</time>
      </trkpt>
      <trkpt lat="38.559393" lon="-2.936341">
        <ele>972.975868</ele>
        <time>2020-08-08T05:13:18.289Z</time>
      </trkpt>
      <trkpt lat="38.559278" lon="-2.936310">
        <ele>972.996512</ele>
        <time>2020-08-08T05:13:23.294Z</time>
      </trkpt>
      <trkpt lat="38.559174" lon="-2.936260">
        <ele>973.016029</ele>
        <time>2020-08-08T05:13:28.293Z</time>
      </trkpt>
      <trkpt lat="38.559078" lon="-2.936190">
        <ele>973.035440</ele>
        <time>2020-08-08T05:13:33.288Z</time>
      </trkpt>
      <trkpt lat="38.558996" lon="-2.936129">
        <ele>973.052103</ele>
        <time>2020-08-08T05:13:37.295Z</time>
      </trkpt>
      <trkpt lat="38.558901" lon="-2.936054">
        <ele>973.071714</ele>
        <time>2020-08-08T05:13:42.293Z</time>
      </trkpt>
      <trkpt lat="38.558819" lon="-2.935976">
        <ele>973.089665</ele>
        <time>2020-08-08T05:13:46.297Z</time>
      </trkpt>
      <trkpt lat="38.558739" lon="-2.935917">
        <ele>973.105887</ele>
        <time>2020-08-08T05:13:49.283Z</time>
      </trkpt>
      <trkpt lat="38.558623" lon="-2.935881">
        <ele>973.126854</ele>
        <time>2020-08-08T05:13:53.282Z</time>
      </trkpt>
      <trkpt lat="38.558528" lon="-2.935855">
        <ele>973.143919</ele>
        <time>2020-08-08T05:13:56.288Z</time>
      </trkpt>
      <trkpt lat="38.558425" lon="-2.935815">
        <ele>973.162827</ele>
        <time>2020-08-08T05:13:59.288Z</time>
      </trkpt>
      <trkpt lat="38.558322" lon="-2.935766">
        <ele>973.182130</ele>
        <time>2020-08-08T05:14:02.290Z</time>
      </trkpt>
      <trkpt lat="38.558233" lon="-2.935729">
        <ele>973.296706</ele>
        <time>2020-08-08T05:14:05.295Z</time>
      </trkpt>
      <trkpt lat="38.558149" lon="-2.935639">
        <ele>973.876576</ele>
        <time>2020-08-08T05:14:09.272Z</time>
      </trkpt>
      <trkpt lat="38.558076" lon="-2.935548">
        <ele>974.416012</ele>
        <time>2020-08-08T05:14:13.307Z</time>
      </trkpt>
      <trkpt lat="38.557983" lon="-2.935453">
        <ele>975.045845</ele>
        <time>2020-08-08T05:14:17.289Z</time>
      </trkpt>
      <trkpt lat="38.557914" lon="-2.935375">
        <ele>975.533157</ele>
        <time>2020-08-08T05:14:20.298Z</time>
      </trkpt>
      <trkpt lat="38.557836" lon="-2.935272">
        <ele>976.126446</ele>
        <time>2020-08-08T05:14:24.284Z</time>
      </trkpt>
      <trkpt lat="38.557771" lon="-2.935189">
        <ele>976.612500</ele>
        <time>2020-08-08T05:14:28.278Z</time>
      </trkpt>
      <trkpt lat="38.557709" lon="-2.935103">
        <ele>977.096506</ele>
        <time>2020-08-08T05:14:32.289Z</time>
      </trkpt>
      <trkpt lat="38.557636" lon="-2.935031">
        <ele>977.584326</ele>
        <time>2020-08-08T05:14:35.276Z</time>
      </trkpt>
      <trkpt lat="38.557546" lon="-2.934937">
        <ele>978.199211</ele>
        <time>2020-08-08T05:14:39.295Z</time>
      </trkpt>
      <trkpt lat="38.557470" lon="-2.934863">
        <ele>978.704665</ele>
        <time>2020-08-08T05:14:42.277Z</time>
      </trkpt>
      <trkpt lat="38.557393" lon="-2.934793">
        <ele>979.204571</ele>
        <time>2020-08-08T05:14:45.278Z</time>
      </trkpt>
      <trkpt lat="38.557313" lon="-2.934724">
        <ele>979.715173</ele>
        <time>2020-08-08T05:14:48.284Z</time>
      </trkpt>
      <trkpt lat="38.557238" lon="-2.934651">
        <ele>980.213911</ele>
        <time>2020-08-08T05:14:51.287Z</time>
      </trkpt>
      <trkpt lat="38.557142" lon="-2.934566">
        <ele>980.831770</ele>
        <time>2020-08-08T05:14:55.291Z</time>
      </trkpt>
      <trkpt lat="38.557060" lon="-2.934506">
        <ele>981.331678</ele>
        <time>2020-08-08T05:14:58.291Z</time>
      </trkpt>
      <trkpt lat="38.556967" lon="-2.934438">
        <ele>981.898547</ele>
        <time>2020-08-08T05:15:01.288Z</time>
      </trkpt>
      <trkpt lat="38.556871" lon="-2.934367">
        <ele>982.485366</ele>
        <time>2020-08-08T05:15:04.290Z</time>
      </trkpt>
      <trkpt lat="38.556782" lon="-2.934304">
        <ele>982.502306</ele>
        <time>2020-08-08T05:15:07.283Z</time>
      </trkpt>
      <trkpt lat="38.556696" lon="-2.934237">
        <ele>982.141878</ele>
        <time>2020-08-08T05:15:10.281Z</time>
      </trkpt>
      <trkpt lat="38.556612" lon="-2.934182">
        <ele>981.804113</ele>
        <time>2020-08-08T05:15:13.289Z</time>
      </trkpt>
      <trkpt lat="38.556508" lon="-2.934103">
        <ele>981.371165</ele>
        <time>2020-08-08T05:15:17.308Z</time>
      </trkpt>
      <trkpt lat="38.556422" lon="-2.934051">
        <ele>981.030686</ele>
        <time>2020-08-08T05:15:20.287Z</time>
      </trkpt>
      <trkpt lat="38.556333" lon="-2.934003">
        <ele>980.684972</ele>
        <time>2020-08-08T05:15:23.305Z</time>
      </trkpt>
      <trkpt lat="38.556242" lon="-2.933952">
        <ele>980.329365</ele>
        <time>2020-08-08T05:15:26.298Z</time>
      </trkpt>
      <trkpt lat="38.556151" lon="-2.933914">
        <ele>979.986739</ele>
        <time>2020-08-08T05:15:29.303Z</time>
      </trkpt>
      <trkpt lat="38.556054" lon="-2.933873">
        <ele>979.621090</ele>
        <time>2020-08-08T05:15:32.294Z</time>
      </trkpt>
      <trkpt lat="38.555939" lon="-2.933806">
        <ele>979.168785</ele>
        <time>2020-08-08T05:15:35.300Z</time>
      </trkpt>
      <trkpt lat="38.555827" lon="-2.933760">
        <ele>978.747754</ele>
        <time>2020-08-08T05:15:38.288Z</time>
      </trkpt>
      <trkpt lat="38.555711" lon="-2.933695">
        <ele>978.294465</ele>
        <time>2020-08-08T05:15:41.289Z</time>
      </trkpt>
      <trkpt lat="38.555628" lon="-2.933651">
        <ele>977.972882</ele>
        <time>2020-08-08T05:15:43.291Z</time>
      </trkpt>
      <trkpt lat="38.555540" lon="-2.933601">
        <ele>977.628228</ele>
        <time>2020-08-08T05:15:45.293Z</time>
      </trkpt>
      <trkpt lat="38.555444" lon="-2.933552">
        <ele>977.258272</ele>
        <time>2020-08-08T05:15:47.284Z</time>
      </trkpt>
      <trkpt lat="38.555349" lon="-2.933515">
        <ele>976.902834</ele>
        <time>2020-08-08T05:15:49.292Z</time>
      </trkpt>
      <trkpt lat="38.555237" lon="-2.933430">
        <ele>976.436690</ele>
        <time>2020-08-08T05:15:52.291Z</time>
      </trkpt>
      <trkpt lat="38.555155" lon="-2.933379">
        <ele>976.371716</ele>
        <time>2020-08-08T05:15:54.299Z</time>
      </trkpt>
      <trkpt lat="38.555046" lon="-2.933389">
        <ele>976.601131</ele>
        <time>2020-08-08T05:15:57.298Z</time>
      </trkpt>
      <trkpt lat="38.554926" lon="-2.933340">
        <ele>976.865583</ele>
        <time>2020-08-08T05:16:00.308Z</time>
      </trkpt>
      <trkpt lat="38.554816" lon="-2.933307">
        <ele>977.102779</ele>
        <time>2020-08-08T05:16:03.297Z</time>
      </trkpt>
      <trkpt lat="38.554686" lon="-2.933264">
        <ele>977.384675</ele>
        <time>2020-08-08T05:16:06.286Z</time>
      </trkpt>
      <trkpt lat="38.554554" lon="-2.933230">
        <ele>977.667352</ele>
        <time>2020-08-08T05:16:09.296Z</time>
      </trkpt>
      <trkpt lat="38.554468" lon="-2.933185">
        <ele>977.862425</ele>
        <time>2020-08-08T05:16:11.291Z</time>
      </trkpt>
      <trkpt lat="38.554383" lon="-2.933145">
        <ele>978.052568</ele>
        <time>2020-08-08T05:16:13.300Z</time>
      </trkpt>
      <trkpt lat="38.554283" lon="-2.933114">
        <ele>978.268582</ele>
        <time>2020-08-08T05:16:15.293Z</time>
      </trkpt>
      <trkpt lat="38.554192" lon="-2.933085">
        <ele>978.465465</ele>
        <time>2020-08-08T05:16:17.284Z</time>
      </trkpt>
      <trkpt lat="38.554104" lon="-2.933054">
        <ele>978.657088</ele>
        <time>2020-08-08T05:16:19.308Z</time>
      </trkpt>
      <trkpt lat="38.553996" lon="-2.933015">
        <ele>978.892683</ele>
        <time>2020-08-08T05:16:21.278Z</time>
      </trkpt>
      <trkpt lat="38.553860" lon="-2.932936">
        <ele>979.206270</ele>
        <time>2020-08-08T05:16:24.286Z</time>
      </trkpt>
      <trkpt lat="38.553732" lon="-2.932921">
        <ele>979.476110</ele>
        <time>2020-08-08T05:16:27.282Z</time>
      </trkpt>
      <trkpt lat="38.553608" lon="-2.932852">
        <ele>979.760007</ele>
        <time>2020-08-08T05:16:30.298Z</time>
      </trkpt>
      <trkpt lat="38.553514" lon="-2.932869">
        <ele>979.959308</ele>
        <time>2020-08-08T05:16:32.283Z</time>
      </trkpt>
      <trkpt lat="38.553423" lon="-2.932939">
        <ele>979.858693</ele>
        <time>2020-08-08T05:16:35.292Z</time>
      </trkpt>
      <trkpt lat="38.553313" lon="-2.932971">
        <ele>979.511556</ele>
        <time>2020-08-08T05:16:38.278Z</time>
      </trkpt>
      <trkpt lat="38.553192" lon="-2.933022">
        <ele>979.119514</ele>
        <time>2020-08-08T05:16:41.281Z</time>
      </trkpt>
      <trkpt lat="38.553108" lon="-2.933075">
        <ele>978.831279</ele>
        <time>2020-08-08T05:16:43.295Z</time>
      </trkpt>
      <trkpt lat="38.553013" lon="-2.933119">
        <ele>978.520363</ele>
        <time>2020-08-08T05:16:45.294Z</time>
      </trkpt>
      <trkpt lat="38.552917" lon="-2.933157">
        <ele>978.211126</ele>
        <time>2020-08-08T05:16:47.283Z</time>
      </trkpt>
      <trkpt lat="38.552834" lon="-2.933221">
        <ele>977.912879</ele>
        <time>2020-08-08T05:16:49.272Z</time>
      </trkpt>
      <trkpt lat="38.552733" lon="-2.933267">
        <ele>977.582960</ele>
        <time>2020-08-08T05:16:51.293Z</time>
      </trkpt>
      <trkpt lat="38.552641" lon="-2.933323">
        <ele>977.269423</ele>
        <time>2020-08-08T05:16:53.293Z</time>
      </trkpt>
      <trkpt lat="38.552545" lon="-2.933402">
        <ele>976.918129</ele>
        <time>2020-08-08T05:16:56.283Z</time>
      </trkpt>
      <trkpt lat="38.552429" lon="-2.933464">
        <ele>976.531251</ele>
        <time>2020-08-08T05:16:59.274Z</time>
      </trkpt>
      <trkpt lat="38.552295" lon="-2.933522">
        <ele>976.095929</ele>
        <time>2020-08-08T05:17:02.293Z</time>
      </trkpt>
      <trkpt lat="38.552173" lon="-2.933603">
        <ele>975.672927</ele>
        <time>2020-08-08T05:17:05.286Z</time>
      </trkpt>
      <trkpt lat="38.552064" lon="-2.933665">
        <ele>975.305828</ele>
        <time>2020-08-08T05:17:08.281Z</time>
      </trkpt>
      <trkpt lat="38.551943" lon="-2.933713">
        <ele>974.915986</ele>
        <time>2020-08-08T05:17:11.290Z</time>
      </trkpt>
      <trkpt lat="38.551854" lon="-2.933745">
        <ele>974.631498</ele>
        <time>2020-08-08T05:17:13.287Z</time>
      </trkpt>
      <trkpt lat="38.551759" lon="-2.933770">
        <ele>974.472384</ele>
        <time>2020-08-08T05:17:15.279Z</time>
      </trkpt>
      <trkpt lat="38.551658" lon="-2.933807">
        <ele>974.394892</ele>
        <time>2020-08-08T05:17:17.291Z</time>
      </trkpt>
      <trkpt lat="38.551514" lon="-2.933832">
        <ele>974.287707</ele>
        <time>2020-08-08T05:17:20.296Z</time>
      </trkpt>
      <trkpt lat="38.551404" lon="-2.933838">
        <ele>974.206500</ele>
        <time>2020-08-08T05:17:23.296Z</time>
      </trkpt>
      <trkpt lat="38.551289" lon="-2.933867">
        <ele>974.120045</ele>
        <time>2020-08-08T05:17:26.278Z</time>
      </trkpt>
      <trkpt lat="38.551149" lon="-2.933877">
        <ele>974.016623</ele>
        <time>2020-08-08T05:17:29.282Z</time>
      </trkpt>
      <trkpt lat="38.551051" lon="-2.933906">
        <ele>973.942431</ele>
        <time>2020-08-08T05:17:31.286Z</time>
      </trkpt>
      <trkpt lat="38.550923" lon="-2.933936">
        <ele>973.846448</ele>
        <time>2020-08-08T05:17:34.276Z</time>
      </trkpt>
      <trkpt lat="38.550790" lon="-2.933956">
        <ele>973.747675</ele>
        <time>2020-08-08T05:17:37.290Z</time>
      </trkpt>
      <trkpt lat="38.550691" lon="-2.933956">
        <ele>973.674655</ele>
        <time>2020-08-08T05:17:39.282Z</time>
      </trkpt>
      <trkpt lat="38.550555" lon="-2.933977">
        <ele>973.573616</ele>
        <time>2020-08-08T05:17:42.288Z</time>
      </trkpt>
      <trkpt lat="38.550461" lon="-2.933972">
        <ele>973.504224</ele>
        <time>2020-08-08T05:17:44.289Z</time>
      </trkpt>
      <trkpt lat="38.550335" lon="-2.933983">
        <ele>973.411073</ele>
        <time>2020-08-08T05:17:47.277Z</time>
      </trkpt>
      <trkpt lat="38.550220" lon="-2.934012">
        <ele>973.324619</ele>
        <time>2020-08-08T05:17:50.274Z</time>
      </trkpt>
      <trkpt lat="38.550102" lon="-2.934055">
        <ele>973.234119</ele>
        <time>2020-08-08T05:17:53.289Z</time>
      </trkpt>
      <trkpt lat="38.549992" lon="-2.934108">
        <ele>973.704369</ele>
        <time>2020-08-08T05:17:56.280Z</time>
      </trkpt>
      <trkpt lat="38.549894" lon="-2.934171">
        <ele>974.689656</ele>
        <time>2020-08-08T05:17:59.273Z</time>
      </trkpt>
      <trkpt lat="38.549809" lon="-2.934249">
        <ele>975.629449</ele>
        <time>2020-08-08T05:18:02.292Z</time>
      </trkpt>
      <trkpt lat="38.549737" lon="-2.934339">
        <ele>976.533893</ele>
        <time>2020-08-08T05:18:05.291Z</time>
      </trkpt>
      <trkpt lat="38.549662" lon="-2.934438">
        <ele>977.502165</ele>
        <time>2020-08-08T05:18:08.287Z</time>
      </trkpt>
      <trkpt lat="38.549593" lon="-2.934541">
        <ele>978.454904</ele>
        <time>2020-08-08T05:18:11.279Z</time>
      </trkpt>
      <trkpt lat="38.549524" lon="-2.934638">
        <ele>979.376040</ele>
        <time>2020-08-08T05:18:14.284Z</time>
      </trkpt>
      <trkpt lat="38.549452" lon="-2.934727">
        <ele>980.275590</ele>
        <time>2020-08-08T05:18:17.281Z</time>
      </trkpt>
      <trkpt lat="38.549376" lon="-2.934814">
        <ele>981.191879</ele>
        <time>2020-08-08T05:18:20.294Z</time>
      </trkpt>
      <trkpt lat="38.549294" lon="-2.934892">
        <ele>982.109915</ele>
        <time>2020-08-08T05:18:23.296Z</time>
      </trkpt>
      <trkpt lat="38.549209" lon="-2.934971">
        <ele>983.053824</ele>
        <time>2020-08-08T05:18:26.285Z</time>
      </trkpt>
      <trkpt lat="38.549124" lon="-2.935054">
        <ele>984.014524</ele>
        <time>2020-08-08T05:18:29.281Z</time>
      </trkpt>
      <trkpt lat="38.549038" lon="-2.935141">
        <ele>984.999563</ele>
        <time>2020-08-08T05:18:32.302Z</time>
      </trkpt>
      <trkpt lat="38.548931" lon="-2.935210">
        <ele>986.076015</ele>
        <time>2020-08-08T05:18:35.279Z</time>
      </trkpt>
      <trkpt lat="38.548845" lon="-2.935250">
        <ele>986.898039</ele>
        <time>2020-08-08T05:18:37.278Z</time>
      </trkpt>
      <trkpt lat="38.548742" lon="-2.935296">
        <ele>987.878058</ele>
        <time>2020-08-08T05:18:39.279Z</time>
      </trkpt>
      <trkpt lat="38.548656" lon="-2.935362">
        <ele>988.779023</ele>
        <time>2020-08-08T05:18:41.298Z</time>
      </trkpt>
      <trkpt lat="38.548567" lon="-2.935431">
        <ele>989.364331</ele>
        <time>2020-08-08T05:18:43.281Z</time>
      </trkpt>
      <trkpt lat="38.548480" lon="-2.935529">
        <ele>989.415790</ele>
        <time>2020-08-08T05:18:45.285Z</time>
      </trkpt>
      <trkpt lat="38.548381" lon="-2.935586">
        <ele>989.463978</ele>
        <time>2020-08-08T05:18:47.298Z</time>
      </trkpt>
      <trkpt lat="38.548286" lon="-2.935638">
        <ele>989.509842</ele>
        <time>2020-08-08T05:18:49.293Z</time>
      </trkpt>
      <trkpt lat="38.548186" lon="-2.935700">
        <ele>989.559167</ele>
        <time>2020-08-08T05:18:51.296Z</time>
      </trkpt>
      <trkpt lat="38.548076" lon="-2.935753">
        <ele>989.611338</ele>
        <time>2020-08-08T05:18:53.304Z</time>
      </trkpt>
      <trkpt lat="38.547966" lon="-2.935818">
        <ele>989.665120</ele>
        <time>2020-08-08T05:18:55.282Z</time>
      </trkpt>
      <trkpt lat="38.547846" lon="-2.935856">
        <ele>989.719988</ele>
        <time>2020-08-08T05:18:57.294Z</time>
      </trkpt>
      <trkpt lat="38.547728" lon="-2.935908">
        <ele>989.775382</ele>
        <time>2020-08-08T05:18:59.299Z</time>
      </trkpt>
      <trkpt lat="38.547610" lon="-2.935962">
        <ele>989.831007</ele>
        <time>2020-08-08T05:19:01.279Z</time>
      </trkpt>
      <trkpt lat="38.547484" lon="-2.936016">
        <ele>989.889986</ele>
        <time>2020-08-08T05:19:03.300Z</time>
      </trkpt>
      <trkpt lat="38.547357" lon="-2.936049">
        <ele>989.947504</ele>
        <time>2020-08-08T05:19:05.291Z</time>
      </trkpt>
      <trkpt lat="38.547248" lon="-2.936074">
        <ele>989.996653</ele>
        <time>2020-08-08T05:19:06.832Z</time>
      </trkpt>
      <trkpt lat="38.547150" lon="-2.936115">
        <ele>990.042417</ele>
        <time>2020-08-08T05:19:08.824Z</time>
      </trkpt>
      <trkpt lat="38.547040" lon="-2.936172">
        <ele>990.095094</ele>
        <time>2020-08-08T05:19:10.822Z</time>
      </trkpt>
      <trkpt lat="38.546923" lon="-2.936229">
        <ele>990.091945</ele>
        <time>2020-08-08T05:19:12.831Z</time>
      </trkpt>
      <trkpt lat="38.546825" lon="-2.936272">
        <ele>989.704136</ele>
        <time>2020-08-08T05:19:14.830Z</time>
      </trkpt>
      <trkpt lat="38.546696" lon="-2.936346">
        <ele>989.174926</ele>
        <time>2020-08-08T05:19:16.828Z</time>
      </trkpt>
      <trkpt lat="38.546583" lon="-2.936426">
        <ele>988.691463</ele>
        <time>2020-08-08T05:19:18.832Z</time>
      </trkpt>
      <trkpt lat="38.546451" lon="-2.936486">
        <ele>988.167099</ele>
        <time>2020-08-08T05:19:20.825Z</time>
      </trkpt>
      <trkpt lat="38.546325" lon="-2.936508">
        <ele>987.691108</ele>
        <time>2020-08-08T05:19:22.821Z</time>
      </trkpt>
      <trkpt lat="38.546209" lon="-2.936568">
        <ele>987.222742</ele>
        <time>2020-08-08T05:19:24.827Z</time>
      </trkpt>
      <trkpt lat="38.546097" lon="-2.936619">
        <ele>986.777737</ele>
        <time>2020-08-08T05:19:26.841Z</time>
      </trkpt>
      <trkpt lat="38.545975" lon="-2.936642">
        <ele>986.316158</ele>
        <time>2020-08-08T05:19:28.824Z</time>
      </trkpt>
      <trkpt lat="38.545859" lon="-2.936692">
        <ele>985.857965</ele>
        <time>2020-08-08T05:19:30.834Z</time>
      </trkpt>
      <trkpt lat="38.545749" lon="-2.936747">
        <ele>985.415877</ele>
        <time>2020-08-08T05:19:32.848Z</time>
      </trkpt>
      <trkpt lat="38.545641" lon="-2.936801">
        <ele>984.981826</ele>
        <time>2020-08-08T05:19:34.831Z</time>
      </trkpt>
      <trkpt lat="38.545531" lon="-2.936860">
        <ele>984.535340</ele>
        <time>2020-08-08T05:19:36.831Z</time>
      </trkpt>
      <trkpt lat="38.545436" lon="-2.936932">
        <ele>984.121982</ele>
        <time>2020-08-08T05:19:38.828Z</time>
      </trkpt>
      <trkpt lat="38.545350" lon="-2.937020">
        <ele>983.709694</ele>
        <time>2020-08-08T05:19:40.821Z</time>
      </trkpt>
      <trkpt lat="38.545246" lon="-2.937085">
        <ele>983.145920</ele>
        <time>2020-08-08T05:19:42.835Z</time>
      </trkpt>
      <trkpt lat="38.545158" lon="-2.937155">
        <ele>982.385159</ele>
        <time>2020-08-08T05:19:44.833Z</time>
      </trkpt>
      <trkpt lat="38.545060" lon="-2.937229">
        <ele>981.549719</ele>
        <time>2020-08-08T05:19:46.826Z</time>
      </trkpt>
      <trkpt lat="38.544952" lon="-2.937352">
        <ele>980.488062</ele>
        <time>2020-08-08T05:19:49.825Z</time>
      </trkpt>
      <trkpt lat="38.544862" lon="-2.937424">
        <ele>979.708767</ele>
        <time>2020-08-08T05:19:51.820Z</time>
      </trkpt>
      <trkpt lat="38.544788" lon="-2.937494">
        <ele>979.033078</ele>
        <time>2020-08-08T05:19:53.819Z</time>
      </trkpt>
      <trkpt lat="38.544674" lon="-2.937595">
        <ele>978.015010</ele>
        <time>2020-08-08T05:19:56.830Z</time>
      </trkpt>
      <trkpt lat="38.544613" lon="-2.937741">
        <ele>977.064712</ele>
        <time>2020-08-08T05:19:59.831Z</time>
      </trkpt>
      <trkpt lat="38.544538" lon="-2.937821">
        <ele>976.347757</ele>
        <time>2020-08-08T05:20:01.816Z</time>
      </trkpt>
      <trkpt lat="38.544458" lon="-2.937893">
        <ele>975.629631</ele>
        <time>2020-08-08T05:20:03.818Z</time>
      </trkpt>
      <trkpt lat="38.544356" lon="-2.937946">
        <ele>974.821445</ele>
        <time>2020-08-08T05:20:05.829Z</time>
      </trkpt>
      <trkpt lat="38.544252" lon="-2.938040">
        <ele>973.886558</ele>
        <time>2020-08-08T05:20:08.818Z</time>
      </trkpt>
      <trkpt lat="38.544147" lon="-2.938136">
        <ele>972.939034</ele>
        <time>2020-08-08T05:20:11.831Z</time>
      </trkpt>
      <trkpt lat="38.544062" lon="-2.938243">
        <ele>972.063445</ele>
        <time>2020-08-08T05:20:14.818Z</time>
      </trkpt>
      <trkpt lat="38.543965" lon="-2.938341">
        <ele>971.155965</ele>
        <time>2020-08-08T05:20:17.813Z</time>
      </trkpt>
      <trkpt lat="38.543873" lon="-2.938427">
        <ele>970.319409</ele>
        <time>2020-08-08T05:20:20.821Z</time>
      </trkpt>
      <trkpt lat="38.543781" lon="-2.938512">
        <ele>970.549242</ele>
        <time>2020-08-08T05:20:23.823Z</time>
      </trkpt>
      <trkpt lat="38.543682" lon="-2.938586">
        <ele>970.944722</ele>
        <time>2020-08-08T05:20:26.827Z</time>
      </trkpt>
      <trkpt lat="38.543584" lon="-2.938660">
        <ele>971.337228</ele>
        <time>2020-08-08T05:20:29.820Z</time>
      </trkpt>
      <trkpt lat="38.543489" lon="-2.938731">
        <ele>971.716715</ele>
        <time>2020-08-08T05:20:32.825Z</time>
      </trkpt>
      <trkpt lat="38.543400" lon="-2.938791">
        <ele>972.063697</ele>
        <time>2020-08-08T05:20:35.829Z</time>
      </trkpt>
      <trkpt lat="38.543305" lon="-2.938852">
        <ele>972.430313</ele>
        <time>2020-08-08T05:20:38.817Z</time>
      </trkpt>
      <trkpt lat="38.543209" lon="-2.938904">
        <ele>972.789868</ele>
        <time>2020-08-08T05:20:41.824Z</time>
      </trkpt>
      <trkpt lat="38.543121" lon="-2.938964">
        <ele>973.133804</ele>
        <time>2020-08-08T05:20:44.832Z</time>
      </trkpt>
      <trkpt lat="38.543029" lon="-2.939041">
        <ele>973.513013</ele>
        <time>2020-08-08T05:20:48.818Z</time>
      </trkpt>
      <trkpt lat="38.542939" lon="-2.939120">
        <ele>973.889498</ele>
        <time>2020-08-08T05:20:52.867Z</time>
      </trkpt>
      <trkpt lat="38.542851" lon="-2.939207">
        <ele>974.273123</ele>
        <time>2020-08-08T05:20:56.825Z</time>
      </trkpt>
      <trkpt lat="38.542780" lon="-2.939277">
        <ele>974.582321</ele>
        <time>2020-08-08T05:20:59.823Z</time>
      </trkpt>
      <trkpt lat="38.542678" lon="-2.939344">
        <ele>974.977790</ele>
        <time>2020-08-08T05:21:02.821Z</time>
      </trkpt>
      <trkpt lat="38.542561" lon="-2.939418">
        <ele>975.427952</ele>
        <time>2020-08-08T05:21:05.816Z</time>
      </trkpt>
      <trkpt lat="38.542476" lon="-2.939493">
        <ele>975.784116</ele>
        <time>2020-08-08T05:21:07.823Z</time>
      </trkpt>
      <trkpt lat="38.542370" lon="-2.939562">
        <ele>976.194324</ele>
        <time>2020-08-08T05:21:09.839Z</time>
      </trkpt>
      <trkpt lat="38.542276" lon="-2.939636">
        <ele>976.636293</ele>
        <time>2020-08-08T05:21:11.835Z</time>
      </trkpt>
      <trkpt lat="38.542164" lon="-2.939714">
        <ele>977.241771</ele>
        <time>2020-08-08T05:21:13.824Z</time>
      </trkpt>
      <trkpt lat="38.542058" lon="-2.939757">
        <ele>977.769722</ele>
        <time>2020-08-08T05:21:15.822Z</time>
      </trkpt>
      <trkpt lat="38.541990" lon="-2.939841">
        <ele>978.218614</ele>
        <time>2020-08-08T05:21:17.843Z</time>
      </trkpt>
      <trkpt lat="38.541892" lon="-2.939887">
        <ele>978.714227</ele>
        <time>2020-08-08T05:21:19.842Z</time>
      </trkpt>
      <trkpt lat="38.541806" lon="-2.939935">
        <ele>979.159715</ele>
        <time>2020-08-08T05:21:21.824Z</time>
      </trkpt>
      <trkpt lat="38.541714" lon="-2.939981">
        <ele>979.628691</ele>
        <time>2020-08-08T05:21:23.831Z</time>
      </trkpt>
      <trkpt lat="38.541628" lon="-2.940031">
        <ele>980.077202</ele>
        <time>2020-08-08T05:21:25.824Z</time>
      </trkpt>
      <trkpt lat="38.541516" lon="-2.940096">
        <ele>980.661131</ele>
        <time>2020-08-08T05:21:28.830Z</time>
      </trkpt>
      <trkpt lat="38.541422" lon="-2.940130">
        <ele>981.124905</ele>
        <time>2020-08-08T05:21:30.825Z</time>
      </trkpt>
      <trkpt lat="38.541300" lon="-2.940188">
        <ele>981.742838</ele>
        <time>2020-08-08T05:21:33.825Z</time>
      </trkpt>
      <trkpt lat="38.541186" lon="-2.940241">
        <ele>982.318717</ele>
        <time>2020-08-08T05:21:36.823Z</time>
      </trkpt>
      <trkpt lat="38.541075" lon="-2.940313">
        <ele>982.909624</ele>
        <time>2020-08-08T05:21:39.836Z</time>
      </trkpt>
      <trkpt lat="38.540962" lon="-2.940372">
        <ele>983.489095</ele>
        <time>2020-08-08T05:21:42.839Z</time>
      </trkpt>
      <trkpt lat="38.540847" lon="-2.940433">
        <ele>984.080173</ele>
        <time>2020-08-08T05:21:45.829Z</time>
      </trkpt>
      <trkpt lat="38.540736" lon="-2.940491">
        <ele>984.649450</ele>
        <time>2020-08-08T05:21:48.842Z</time>
      </trkpt>
      <trkpt lat="38.540645" lon="-2.940568">
        <ele>985.011932</ele>
        <time>2020-08-08T05:21:51.820Z</time>
      </trkpt>
      <trkpt lat="38.540551" lon="-2.940627">
        <ele>985.151402</ele>
        <time>2020-08-08T05:21:54.824Z</time>
      </trkpt>
      <trkpt lat="38.540454" lon="-2.940676">
        <ele>985.290313</ele>
        <time>2020-08-08T05:21:57.831Z</time>
      </trkpt>
      <trkpt lat="38.540345" lon="-2.940718">
        <ele>985.441938</ele>
        <time>2020-08-08T05:22:00.830Z</time>
      </trkpt>
      <trkpt lat="38.540237" lon="-2.940760">
        <ele>985.592288</ele>
        <time>2020-08-08T05:22:03.834Z</time>
      </trkpt>
      <trkpt lat="38.540130" lon="-2.940809">
        <ele>985.743665</ele>
        <time>2020-08-08T05:22:06.827Z</time>
      </trkpt>
      <trkpt lat="38.540020" lon="-2.940861">
        <ele>985.899866</ele>
        <time>2020-08-08T05:22:09.832Z</time>
      </trkpt>
      <trkpt lat="38.539905" lon="-2.940912">
        <ele>986.061985</ele>
        <time>2020-08-08T05:22:12.834Z</time>
      </trkpt>
      <trkpt lat="38.539793" lon="-2.940955">
        <ele>986.217736</ele>
        <time>2020-08-08T05:22:15.825Z</time>
      </trkpt>
      <trkpt lat="38.539681" lon="-2.941010">
        <ele>986.377531</ele>
        <time>2020-08-08T05:22:18.826Z</time>
      </trkpt>
      <trkpt lat="38.539581" lon="-2.941074">
        <ele>986.526475</ele>
        <time>2020-08-08T05:22:21.834Z</time>
      </trkpt>
      <trkpt lat="38.539487" lon="-2.941134">
        <ele>986.666408</ele>
        <time>2020-08-08T05:22:24.859Z</time>
      </trkpt>
      <trkpt lat="38.539383" lon="-2.941182">
        <ele>986.813673</ele>
        <time>2020-08-08T05:22:27.831Z</time>
      </trkpt>
      <trkpt lat="38.539287" lon="-2.941226">
        <ele>986.949501</ele>
        <time>2020-08-08T05:22:30.841Z</time>
      </trkpt>
      <trkpt lat="38.539191" lon="-2.941267">
        <ele>987.084307</ele>
        <time>2020-08-08T05:22:33.841Z</time>
      </trkpt>
      <trkpt lat="38.539081" lon="-2.941292">
        <ele>987.233110</ele>
        <time>2020-08-08T05:22:36.821Z</time>
      </trkpt>
      <trkpt lat="38.538974" lon="-2.941303">
        <ele>987.191523</ele>
        <time>2020-08-08T05:22:39.829Z</time>
      </trkpt>
      <trkpt lat="38.538871" lon="-2.941314">
        <ele>986.460457</ele>
        <time>2020-08-08T05:22:42.830Z</time>
      </trkpt>
      <trkpt lat="38.538775" lon="-2.941329">
        <ele>985.776389</ele>
        <time>2020-08-08T05:22:45.818Z</time>
      </trkpt>
      <trkpt lat="38.538682" lon="-2.941344">
        <ele>985.113378</ele>
        <time>2020-08-08T05:22:48.837Z</time>
      </trkpt>
      <trkpt lat="38.538573" lon="-2.941356">
        <ele>984.339558</ele>
        <time>2020-08-08T05:22:51.826Z</time>
      </trkpt>
      <trkpt lat="38.538469" lon="-2.941376">
        <ele>983.595682</ele>
        <time>2020-08-08T05:22:54.818Z</time>
      </trkpt>
      <trkpt lat="38.538374" lon="-2.941396">
        <ele>982.914690</ele>
        <time>2020-08-08T05:22:57.822Z</time>
      </trkpt>
      <trkpt lat="38.538279" lon="-2.941423">
        <ele>982.226343</ele>
        <time>2020-08-08T05:23:00.832Z</time>
      </trkpt>
      <trkpt lat="38.538171" lon="-2.941449">
        <ele>981.449024</ele>
        <time>2020-08-08T05:23:03.831Z</time>
      </trkpt>
      <trkpt lat="38.538045" lon="-2.941492">
        <ele>980.526610</ele>
        <time>2020-08-08T05:23:06.823Z</time>
      </trkpt>
      <trkpt lat="38.537955" lon="-2.941527">
        <ele>979.861232</ele>
        <time>2020-08-08T05:23:08.829Z</time>
      </trkpt>
      <trkpt lat="38.537864" lon="-2.941549">
        <ele>979.206174</ele>
        <time>2020-08-08T05:23:10.826Z</time>
      </trkpt>
      <trkpt lat="38.537706" lon="-2.941577">
        <ele>978.077941</ele>
        <time>2020-08-08T05:23:13.838Z</time>
      </trkpt>
      <trkpt lat="38.537595" lon="-2.941604">
        <ele>977.278744</ele>
        <time>2020-08-08T05:23:15.834Z</time>
      </trkpt>
      <trkpt lat="38.537484" lon="-2.941637">
        <ele>976.472683</ele>
        <time>2020-08-08T05:23:17.827Z</time>
      </trkpt>
      <trkpt lat="38.537375" lon="-2.941655">
        <ele>975.695312</ele>
        <time>2020-08-08T05:23:19.830Z</time>
      </trkpt>
      <trkpt lat="38.537265" lon="-2.941688">
        <ele>974.896138</ele>
        <time>2020-08-08T05:23:21.831Z</time>
      </trkpt>
      <trkpt lat="38.537155" lon="-2.941735">
        <ele>975.364689</ele>
        <time>2020-08-08T05:23:23.850Z</time>
      </trkpt>
      <trkpt lat="38.537030" lon="-2.941785">
        <ele>976.612879</ele>
        <time>2020-08-08T05:23:25.823Z</time>
      </trkpt>
      <trkpt lat="38.536906" lon="-2.941831">
        <ele>977.843336</ele>
        <time>2020-08-08T05:23:27.831Z</time>
      </trkpt>
      <trkpt lat="38.536797" lon="-2.941878">
        <ele>978.939592</ele>
        <time>2020-08-08T05:23:29.826Z</time>
      </trkpt>
      <trkpt lat="38.536684" lon="-2.941946">
        <ele>980.129812</ele>
        <time>2020-08-08T05:23:31.809Z</time>
      </trkpt>
      <trkpt lat="38.536594" lon="-2.941958">
        <ele>980.992158</ele>
        <time>2020-08-08T05:23:33.823Z</time>
      </trkpt>
      <trkpt lat="38.536478" lon="-2.941925">
        <ele>982.124670</ele>
        <time>2020-08-08T05:23:35.830Z</time>
      </trkpt>
      <trkpt lat="38.536370" lon="-2.941940">
        <ele>983.159959</ele>
        <time>2020-08-08T05:23:37.864Z</time>
      </trkpt>
      <trkpt lat="38.536271" lon="-2.941958">
        <ele>984.112917</ele>
        <time>2020-08-08T05:23:39.826Z</time>
      </trkpt>
      <trkpt lat="38.536174" lon="-2.941990">
        <ele>985.067602</ele>
        <time>2020-08-08T05:23:41.837Z</time>
      </trkpt>
      <trkpt lat="38.536058" lon="-2.942000">
        <ele>986.175586</ele>
        <time>2020-08-08T05:23:43.828Z</time>
      </trkpt>
      <trkpt lat="38.535958" lon="-2.942009">
        <ele>987.130938</ele>
        <time>2020-08-08T05:23:45.825Z</time>
      </trkpt>
      <trkpt lat="38.535829" lon="-2.942020">
        <ele>988.363031</ele>
        <time>2020-08-08T05:23:47.825Z</time>
      </trkpt>
      <trkpt lat="38.535737" lon="-2.942037">
        <ele>989.248896</ele>
        <time>2020-08-08T05:23:49.817Z</time>
      </trkpt>
      <trkpt lat="38.535641" lon="-2.942060">
        <ele>990.179697</ele>
        <time>2020-08-08T05:23:51.829Z</time>
      </trkpt>
      <trkpt lat="38.535544" lon="-2.942078">
        <ele>991.113789</ele>
        <time>2020-08-08T05:23:53.836Z</time>
      </trkpt>
      <trkpt lat="38.535428" lon="-2.942087">
        <ele>992.031491</ele>
        <time>2020-08-08T05:23:55.840Z</time>
      </trkpt>
      <trkpt lat="38.535305" lon="-2.942111">
        <ele>992.723109</ele>
        <time>2020-08-08T05:23:57.820Z</time>
      </trkpt>
      <trkpt lat="38.535196" lon="-2.942116">
        <ele>993.329380</ele>
        <time>2020-08-08T05:23:59.821Z</time>
      </trkpt>
      <trkpt lat="38.535078" lon="-2.942112">
        <ele>993.985518</ele>
        <time>2020-08-08T05:24:01.820Z</time>
      </trkpt>
      <trkpt lat="38.534958" lon="-2.942085">
        <ele>994.662795</ele>
        <time>2020-08-08T05:24:03.815Z</time>
      </trkpt>
      <trkpt lat="38.534839" lon="-2.942070">
        <ele>995.327469</ele>
        <time>2020-08-08T05:24:05.821Z</time>
      </trkpt>
      <trkpt lat="38.534723" lon="-2.942039">
        <ele>995.986197</ele>
        <time>2020-08-08T05:24:07.823Z</time>
      </trkpt>
      <trkpt lat="38.534597" lon="-2.941992">
        <ele>996.715779</ele>
        <time>2020-08-08T05:24:09.826Z</time>
      </trkpt>
      <trkpt lat="38.534476" lon="-2.941967">
        <ele>997.397089</ele>
        <time>2020-08-08T05:24:11.812Z</time>
      </trkpt>
      <trkpt lat="38.534351" lon="-2.941966">
        <ele>998.091920</ele>
        <time>2020-08-08T05:24:13.827Z</time>
      </trkpt>
      <trkpt lat="38.534234" lon="-2.941983">
        <ele>998.746456</ele>
        <time>2020-08-08T05:24:15.825Z</time>
      </trkpt>
      <trkpt lat="38.534138" lon="-2.941940">
        <ele>999.311883</ele>
        <time>2020-08-08T05:24:16.825Z</time>
      </trkpt>
      <trkpt lat="38.534007" lon="-2.941937">
        <ele>1000.040168</ele>
        <time>2020-08-08T05:24:18.829Z</time>
      </trkpt>
      <trkpt lat="38.533864" lon="-2.941948">
        <ele>1000.836477</ele>
        <time>2020-08-08T05:24:20.823Z</time>
      </trkpt>
      <trkpt lat="38.533716" lon="-2.941981">
        <ele>1001.671560</ele>
        <time>2020-08-08T05:24:22.839Z</time>
      </trkpt>
      <trkpt lat="38.533577" lon="-2.942014">
        <ele>1001.444017</ele>
        <time>2020-08-08T05:24:24.830Z</time>
      </trkpt>
      <trkpt lat="38.533449" lon="-2.942034">
        <ele>1001.113757</ele>
        <time>2020-08-08T05:24:26.843Z</time>
      </trkpt>
      <trkpt lat="38.533328" lon="-2.942078">
        <ele>1000.791570</ele>
        <time>2020-08-08T05:24:28.831Z</time>
      </trkpt>
      <trkpt lat="38.533205" lon="-2.942108">
        <ele>1000.470873</ele>
        <time>2020-08-08T05:24:30.832Z</time>
      </trkpt>
      <trkpt lat="38.533065" lon="-2.942137">
        <ele>1000.107642</ele>
        <time>2020-08-08T05:24:32.833Z</time>
      </trkpt>
      <trkpt lat="38.532938" lon="-2.942156">
        <ele>999.780162</ele>
        <time>2020-08-08T05:24:34.835Z</time>
      </trkpt>
      <trkpt lat="38.532837" lon="-2.942205">
        <ele>999.503490</ele>
        <time>2020-08-08T05:24:36.836Z</time>
      </trkpt>
      <trkpt lat="38.532717" lon="-2.942209">
        <ele>999.196053</ele>
        <time>2020-08-08T05:24:38.829Z</time>
      </trkpt>
      <trkpt lat="38.532589" lon="-2.942206">
        <ele>998.868177</ele>
        <time>2020-08-08T05:24:40.838Z</time>
      </trkpt>
      <trkpt lat="38.532463" lon="-2.942208">
        <ele>998.545454</ele>
        <time>2020-08-08T05:24:42.817Z</time>
      </trkpt>
      <trkpt lat="38.532331" lon="-2.942222">
        <ele>998.206227</ele>
        <time>2020-08-08T05:24:44.829Z</time>
      </trkpt>
      <trkpt lat="38.532202" lon="-2.942215">
        <ele>997.875547</ele>
        <time>2020-08-08T05:24:46.836Z</time>
      </trkpt>
      <trkpt lat="38.532075" lon="-2.942213">
        <ele>997.550263</ele>
        <time>2020-08-08T05:24:48.828Z</time>
      </trkpt>
      <trkpt lat="38.531948" lon="-2.942202">
        <ele>997.224257</ele>
        <time>2020-08-08T05:24:50.834Z</time>
      </trkpt>
      <trkpt lat="38.531805" lon="-2.942211">
        <ele>996.995368</ele>
        <time>2020-08-08T05:24:52.837Z</time>
      </trkpt>
      <trkpt lat="38.531680" lon="-2.942237">
        <ele>996.820205</ele>
        <time>2020-08-08T05:24:54.818Z</time>
      </trkpt>
      <trkpt lat="38.531594" lon="-2.942299">
        <ele>996.683645</ele>
        <time>2020-08-08T05:24:56.838Z</time>
      </trkpt>
      <trkpt lat="38.531472" lon="-2.942336">
        <ele>996.510222</ele>
        <time>2020-08-08T05:24:58.822Z</time>
      </trkpt>
      <trkpt lat="38.531330" lon="-2.942354">
        <ele>996.312856</ele>
        <time>2020-08-08T05:25:00.833Z</time>
      </trkpt>
      <trkpt lat="38.531191" lon="-2.942360">
        <ele>996.120493</ele>
        <time>2020-08-08T05:25:02.807Z</time>
      </trkpt>
      <trkpt lat="38.531054" lon="-2.942373">
        <ele>995.930485</ele>
        <time>2020-08-08T05:25:04.832Z</time>
      </trkpt>
      <trkpt lat="38.530941" lon="-2.942387">
        <ele>995.773460</ele>
        <time>2020-08-08T05:25:06.828Z</time>
      </trkpt>
      <trkpt lat="38.530827" lon="-2.942401">
        <ele>995.615059</ele>
        <time>2020-08-08T05:25:08.831Z</time>
      </trkpt>
      <trkpt lat="38.530716" lon="-2.942412">
        <ele>995.461073</ele>
        <time>2020-08-08T05:25:10.833Z</time>
      </trkpt>
      <trkpt lat="38.530598" lon="-2.942420">
        <ele>995.297636</ele>
        <time>2020-08-08T05:25:12.828Z</time>
      </trkpt>
      <trkpt lat="38.530498" lon="-2.942454">
        <ele>995.154515</ele>
        <time>2020-08-08T05:25:14.841Z</time>
      </trkpt>
      <trkpt lat="38.530402" lon="-2.942532">
        <ele>994.997185</ele>
        <time>2020-08-08T05:25:16.827Z</time>
      </trkpt>
      <trkpt lat="38.530288" lon="-2.942584">
        <ele>994.829773</ele>
        <time>2020-08-08T05:25:18.817Z</time>
      </trkpt>
      <trkpt lat="38.530193" lon="-2.942638">
        <ele>994.685972</ele>
        <time>2020-08-08T05:25:20.817Z</time>
      </trkpt>
      <trkpt lat="38.530096" lon="-2.942691">
        <ele>994.587975</ele>
        <time>2020-08-08T05:25:22.817Z</time>
      </trkpt>
      <trkpt lat="38.529998" lon="-2.942739">
        <ele>994.496578</ele>
        <time>2020-08-08T05:25:24.841Z</time>
      </trkpt>
      <trkpt lat="38.529877" lon="-2.942787">
        <ele>994.386245</ele>
        <time>2020-08-08T05:25:26.821Z</time>
      </trkpt>
      <trkpt lat="38.529791" lon="-2.942843">
        <ele>994.302192</ele>
        <time>2020-08-08T05:25:28.838Z</time>
      </trkpt>
      <trkpt lat="38.529679" lon="-2.942875">
        <ele>994.202247</ele>
        <time>2020-08-08T05:25:30.825Z</time>
      </trkpt>
      <trkpt lat="38.529502" lon="-2.942861">
        <ele>994.047807</ele>
        <time>2020-08-08T05:25:32.828Z</time>
      </trkpt>
      <trkpt lat="38.529384" lon="-2.942876">
        <ele>993.944537</ele>
        <time>2020-08-08T05:25:34.832Z</time>
      </trkpt>
      <trkpt lat="38.529238" lon="-2.942861">
        <ele>993.816979</ele>
        <time>2020-08-08T05:25:36.817Z</time>
      </trkpt>
      <trkpt lat="38.529107" lon="-2.942856">
        <ele>993.702843</ele>
        <time>2020-08-08T05:25:38.825Z</time>
      </trkpt>
      <trkpt lat="38.528981" lon="-2.942854">
        <ele>993.593104</ele>
        <time>2020-08-08T05:25:40.828Z</time>
      </trkpt>
      <trkpt lat="38.528849" lon="-2.942838">
        <ele>993.477633</ele>
        <time>2020-08-08T05:25:42.821Z</time>
      </trkpt>
      <trkpt lat="38.528730" lon="-2.942828">
        <ele>993.373775</ele>
        <time>2020-08-08T05:25:44.812Z</time>
      </trkpt>
      <trkpt lat="38.528596" lon="-2.942816">
        <ele>993.256791</ele>
        <time>2020-08-08T05:25:46.824Z</time>
      </trkpt>
      <trkpt lat="38.528487" lon="-2.942801">
        <ele>993.161317</ele>
        <time>2020-08-08T05:25:48.820Z</time>
      </trkpt>
      <trkpt lat="38.528376" lon="-2.942807">
        <ele>993.106095</ele>
        <time>2020-08-08T05:25:50.818Z</time>
      </trkpt>
      <trkpt lat="38.528241" lon="-2.942807">
        <ele>993.115479</ele>
        <time>2020-08-08T05:25:52.826Z</time>
      </trkpt>
      <trkpt lat="38.528113" lon="-2.942783">
        <ele>993.124471</ele>
        <time>2020-08-08T05:25:54.823Z</time>
      </trkpt>
      <trkpt lat="38.527985" lon="-2.942777">
        <ele>993.133374</ele>
        <time>2020-08-08T05:25:56.822Z</time>
      </trkpt>
      <trkpt lat="38.527859" lon="-2.942853">
        <ele>993.143058</ele>
        <time>2020-08-08T05:25:58.828Z</time>
      </trkpt>
      <trkpt lat="38.527748" lon="-2.942846">
        <ele>993.150783</ele>
        <time>2020-08-08T05:26:00.835Z</time>
      </trkpt>
      <trkpt lat="38.527639" lon="-2.942826">
        <ele>993.158437</ele>
        <time>2020-08-08T05:26:02.840Z</time>
      </trkpt>
      <trkpt lat="38.527523" lon="-2.942784">
        <ele>993.166817</ele>
        <time>2020-08-08T05:26:04.826Z</time>
      </trkpt>
      <trkpt lat="38.527389" lon="-2.942760">
        <ele>993.176223</ele>
        <time>2020-08-08T05:26:06.812Z</time>
      </trkpt>
      <trkpt lat="38.527279" lon="-2.942721">
        <ele>993.184157</ele>
        <time>2020-08-08T05:26:08.833Z</time>
      </trkpt>
      <trkpt lat="38.527174" lon="-2.942679">
        <ele>993.191805</ele>
        <time>2020-08-08T05:26:10.826Z</time>
      </trkpt>
      <trkpt lat="38.527060" lon="-2.942664">
        <ele>993.199770</ele>
        <time>2020-08-08T05:26:12.811Z</time>
      </trkpt>
      <trkpt lat="38.526940" lon="-2.942603">
        <ele>993.208747</ele>
        <time>2020-08-08T05:26:14.823Z</time>
      </trkpt>
      <trkpt lat="38.526847" lon="-2.942514">
        <ele>993.216822</ele>
        <time>2020-08-08T05:26:16.818Z</time>
      </trkpt>
      <trkpt lat="38.526718" lon="-2.942508">
        <ele>993.225794</ele>
        <time>2020-08-08T05:26:19.815Z</time>
      </trkpt>
      <trkpt lat="38.526611" lon="-2.942492">
        <ele>993.112276</ele>
        <time>2020-08-08T05:26:21.816Z</time>
      </trkpt>
      <trkpt lat="38.526512" lon="-2.942473">
        <ele>992.958428</ele>
        <time>2020-08-08T05:26:23.818Z</time>
      </trkpt>
      <trkpt lat="38.526420" lon="-2.942496">
        <ele>992.814365</ele>
        <time>2020-08-08T05:26:25.813Z</time>
      </trkpt>
      <trkpt lat="38.526327" lon="-2.942466">
        <ele>992.666963</ele>
        <time>2020-08-08T05:26:27.816Z</time>
      </trkpt>
      <trkpt lat="38.526194" lon="-2.942440">
        <ele>992.460194</ele>
        <time>2020-08-08T05:26:30.821Z</time>
      </trkpt>
      <trkpt lat="38.526089" lon="-2.942426">
        <ele>992.297956</ele>
        <time>2020-08-08T05:26:32.829Z</time>
      </trkpt>
      <trkpt lat="38.525999" lon="-2.942387">
        <ele>992.151913</ele>
        <time>2020-08-08T05:26:34.821Z</time>
      </trkpt>
      <trkpt lat="38.525894" lon="-2.942333">
        <ele>991.977980</ele>
        <time>2020-08-08T05:26:36.829Z</time>
      </trkpt>
      <trkpt lat="38.525769" lon="-2.942306">
        <ele>991.783158</ele>
        <time>2020-08-08T05:26:38.817Z</time>
      </trkpt>
      <trkpt lat="38.525641" lon="-2.942243">
        <ele>991.572371</ele>
        <time>2020-08-08T05:26:40.827Z</time>
      </trkpt>
      <trkpt lat="38.525511" lon="-2.942172">
        <ele>991.355116</ele>
        <time>2020-08-08T05:26:42.822Z</time>
      </trkpt>
      <trkpt lat="38.525388" lon="-2.942162">
        <ele>991.165709</ele>
        <time>2020-08-08T05:26:44.831Z</time>
      </trkpt>
      <trkpt lat="38.525272" lon="-2.942147">
        <ele>990.986532</ele>
        <time>2020-08-08T05:26:47.816Z</time>
      </trkpt>
      <trkpt lat="38.525178" lon="-2.942159">
        <ele>990.841355</ele>
        <time>2020-08-08T05:26:49.814Z</time>
      </trkpt>
      <trkpt lat="38.525070" lon="-2.942142">
        <ele>990.674128</ele>
        <time>2020-08-08T05:26:51.825Z</time>
      </trkpt>
      <trkpt lat="38.524965" lon="-2.942135">
        <ele>990.512546</ele>
        <time>2020-08-08T05:26:53.836Z</time>
      </trkpt>
      <trkpt lat="38.524852" lon="-2.942106">
        <ele>990.346473</ele>
        <time>2020-08-08T05:26:55.828Z</time>
      </trkpt>
      <trkpt lat="38.524742" lon="-2.942069">
        <ele>990.186703</ele>
        <time>2020-08-08T05:26:57.830Z</time>
      </trkpt>
      <trkpt lat="38.524641" lon="-2.941999">
        <ele>990.025322</ele>
        <time>2020-08-08T05:26:59.840Z</time>
      </trkpt>
      <trkpt lat="38.524533" lon="-2.941948">
        <ele>989.863600</ele>
        <time>2020-08-08T05:27:01.822Z</time>
      </trkpt>
      <trkpt lat="38.524422" lon="-2.941895">
        <ele>989.697162</ele>
        <time>2020-08-08T05:27:03.822Z</time>
      </trkpt>
      <trkpt lat="38.524320" lon="-2.941851">
        <ele>989.545950</ele>
        <time>2020-08-08T05:27:05.832Z</time>
      </trkpt>
      <trkpt lat="38.524226" lon="-2.941857">
        <ele>989.413750</ele>
        <time>2020-08-08T05:27:07.819Z</time>
      </trkpt>
      <trkpt lat="38.524122" lon="-2.941865">
        <ele>989.267403</ele>
        <time>2020-08-08T05:27:09.817Z</time>
      </trkpt>
      <trkpt lat="38.524040" lon="-2.941925">
        <ele>989.134686</ele>
        <time>2020-08-08T05:27:11.814Z</time>
      </trkpt>
      <trkpt lat="38.523941" lon="-2.941922">
        <ele>988.995588</ele>
        <time>2020-08-08T05:27:13.821Z</time>
      </trkpt>
      <trkpt lat="38.523822" lon="-2.941927">
        <ele>988.828346</ele>
        <time>2020-08-08T05:27:16.821Z</time>
      </trkpt>
      <trkpt lat="38.523691" lon="-2.941894">
        <ele>988.640799</ele>
        <time>2020-08-08T05:27:19.821Z</time>
      </trkpt>
      <trkpt lat="38.523597" lon="-2.941879">
        <ele>988.507738</ele>
        <time>2020-08-08T05:27:21.824Z</time>
      </trkpt>
      <trkpt lat="38.523498" lon="-2.941859">
        <ele>988.366953</ele>
        <time>2020-08-08T05:27:23.824Z</time>
      </trkpt>
      <trkpt lat="38.523408" lon="-2.941880">
        <ele>988.238447</ele>
        <time>2020-08-08T05:27:25.823Z</time>
      </trkpt>
      <trkpt lat="38.523307" lon="-2.941847">
        <ele>988.092017</ele>
        <time>2020-08-08T05:27:27.839Z</time>
      </trkpt>
      <trkpt lat="38.523190" lon="-2.941858">
        <ele>987.927658</ele>
        <time>2020-08-08T05:27:30.815Z</time>
      </trkpt>
      <trkpt lat="38.523095" lon="-2.941959">
        <ele>987.761331</ele>
        <time>2020-08-08T05:27:33.829Z</time>
      </trkpt>
      <trkpt lat="38.523011" lon="-2.942004">
        <ele>987.638733</ele>
        <time>2020-08-08T05:27:35.850Z</time>
      </trkpt>
      <trkpt lat="38.522909" lon="-2.942078">
        <ele>987.480862</ele>
        <time>2020-08-08T05:27:37.842Z</time>
      </trkpt>
      <trkpt lat="38.522827" lon="-2.942183">
        <ele>987.324627</ele>
        <time>2020-08-08T05:27:39.830Z</time>
      </trkpt>
      <trkpt lat="38.522714" lon="-2.942266">
        <ele>987.149198</ele>
        <time>2020-08-08T05:27:41.827Z</time>
      </trkpt>
      <trkpt lat="38.522593" lon="-2.942343">
        <ele>986.967257</ele>
        <time>2020-08-08T05:27:43.819Z</time>
      </trkpt>
      <trkpt lat="38.522486" lon="-2.942414">
        <ele>986.804979</ele>
        <time>2020-08-08T05:27:45.834Z</time>
      </trkpt>
      <trkpt lat="38.522370" lon="-2.942484">
        <ele>986.632311</ele>
        <time>2020-08-08T05:27:47.847Z</time>
      </trkpt>
      <trkpt lat="38.522246" lon="-2.942555">
        <ele>986.449419</ele>
        <time>2020-08-08T05:27:49.830Z</time>
      </trkpt>
      <trkpt lat="38.522148" lon="-2.942614">
        <ele>986.303606</ele>
        <time>2020-08-08T05:27:51.856Z</time>
      </trkpt>
      <trkpt lat="38.522029" lon="-2.942653">
        <ele>986.138245</ele>
        <time>2020-08-08T05:27:53.833Z</time>
      </trkpt>
      <trkpt lat="38.521923" lon="-2.942699">
        <ele>985.987565</ele>
        <time>2020-08-08T05:27:55.842Z</time>
      </trkpt>
      <trkpt lat="38.521822" lon="-2.942735">
        <ele>985.846427</ele>
        <time>2020-08-08T05:27:57.822Z</time>
      </trkpt>
      <trkpt lat="38.521684" lon="-2.942761">
        <ele>985.658665</ele>
        <time>2020-08-08T05:27:59.832Z</time>
      </trkpt>
      <trkpt lat="38.521557" lon="-2.942815">
        <ele>985.454115</ele>
        <time>2020-08-08T05:28:01.825Z</time>
      </trkpt>
      <trkpt lat="38.521428" lon="-2.942887">
        <ele>985.142738</ele>
        <time>2020-08-08T05:28:03.822Z</time>
      </trkpt>
      <trkpt lat="38.521282" lon="-2.942971">
        <ele>984.788565</ele>
        <time>2020-08-08T05:28:05.845Z</time>
      </trkpt>
      <trkpt lat="38.521143" lon="-2.943079">
        <ele>984.428734</ele>
        <time>2020-08-08T05:28:07.824Z</time>
      </trkpt>
      <trkpt lat="38.521058" lon="-2.943131">
        <ele>984.220280</ele>
        <time>2020-08-08T05:28:08.827Z</time>
      </trkpt>
      <trkpt lat="38.520942" lon="-2.943269">
        <ele>983.869731</ele>
        <time>2020-08-08T05:28:10.835Z</time>
      </trkpt>
      <trkpt lat="38.520801" lon="-2.943387">
        <ele>983.496919</ele>
        <time>2020-08-08T05:28:12.831Z</time>
      </trkpt>
      <trkpt lat="38.520643" lon="-2.943485">
        <ele>983.108433</ele>
        <time>2020-08-08T05:28:14.816Z</time>
      </trkpt>
      <trkpt lat="38.520506" lon="-2.943585">
        <ele>982.759443</ele>
        <time>2020-08-08T05:28:16.823Z</time>
      </trkpt>
      <trkpt lat="38.520398" lon="-2.943727">
        <ele>982.416701</ele>
        <time>2020-08-08T05:28:18.819Z</time>
      </trkpt>
      <trkpt lat="38.520256" lon="-2.943848">
        <ele>982.039181</ele>
        <time>2020-08-08T05:28:20.840Z</time>
      </trkpt>
      <trkpt lat="38.520202" lon="-2.943943">
        <ele>981.835953</ele>
        <time>2020-08-08T05:28:21.814Z</time>
      </trkpt>
      <trkpt lat="38.520092" lon="-2.944073">
        <ele>981.493443</ele>
        <time>2020-08-08T05:28:23.810Z</time>
      </trkpt>
      <trkpt lat="38.520023" lon="-2.944231">
        <ele>981.075365</ele>
        <time>2020-08-08T05:28:25.832Z</time>
      </trkpt>
      <trkpt lat="38.519957" lon="-2.944312">
        <ele>980.805153</ele>
        <time>2020-08-08T05:28:26.832Z</time>
      </trkpt>
      <trkpt lat="38.519837" lon="-2.944461">
        <ele>980.311086</ele>
        <time>2020-08-08T05:28:28.811Z</time>
      </trkpt>
      <trkpt lat="38.519717" lon="-2.944596">
        <ele>979.838988</ele>
        <time>2020-08-08T05:28:30.829Z</time>
      </trkpt>
      <trkpt lat="38.519583" lon="-2.944715">
        <ele>979.357123</ele>
        <time>2020-08-08T05:28:32.830Z</time>
      </trkpt>
      <trkpt lat="38.519489" lon="-2.944865">
        <ele>978.913079</ele>
        <time>2020-08-08T05:28:34.845Z</time>
      </trkpt>
      <trkpt lat="38.519368" lon="-2.944947">
        <ele>978.508627</ele>
        <time>2020-08-08T05:28:36.834Z</time>
      </trkpt>
      <trkpt lat="38.519256" lon="-2.945002">
        <ele>978.154303</ele>
        <time>2020-08-08T05:28:38.843Z</time>
      </trkpt>
      <trkpt lat="38.519158" lon="-2.944998">
        <ele>977.864748</ele>
        <time>2020-08-08T05:28:40.809Z</time>
      </trkpt>
      <trkpt lat="38.519082" lon="-2.944870">
        <ele>977.493480</ele>
        <time>2020-08-08T05:28:43.827Z</time>
      </trkpt>
      <trkpt lat="38.519031" lon="-2.944706">
        <ele>977.085717</ele>
        <time>2020-08-08T05:28:46.834Z</time>
      </trkpt>
      <trkpt lat="38.518998" lon="-2.944586">
        <ele>976.791825</ele>
        <time>2020-08-08T05:28:48.834Z</time>
      </trkpt>
      <trkpt lat="38.518922" lon="-2.944427">
        <ele>976.361316</ele>
        <time>2020-08-08T05:28:50.834Z</time>
      </trkpt>
      <trkpt lat="38.518876" lon="-2.944300">
        <ele>975.804447</ele>
        <time>2020-08-08T05:28:52.825Z</time>
      </trkpt>
      <trkpt lat="38.518826" lon="-2.944168">
        <ele>975.044922</ele>
        <time>2020-08-08T05:28:54.842Z</time>
      </trkpt>
      <trkpt lat="38.518771" lon="-2.944034">
        <ele>974.261245</ele>
        <time>2020-08-08T05:28:56.831Z</time>
      </trkpt>
      <trkpt lat="38.518706" lon="-2.943910">
        <ele>973.488245</ele>
        <time>2020-08-08T05:28:58.824Z</time>
      </trkpt>
      <trkpt lat="38.518615" lon="-2.943798">
        <ele>972.652012</ele>
        <time>2020-08-08T05:29:00.827Z</time>
      </trkpt>
      <trkpt lat="38.518513" lon="-2.943704">
        <ele>971.819636</ele>
        <time>2020-08-08T05:29:02.821Z</time>
      </trkpt>
      <trkpt lat="38.518394" lon="-2.943626">
        <ele>970.934396</ele>
        <time>2020-08-08T05:29:04.819Z</time>
      </trkpt>
      <trkpt lat="38.518281" lon="-2.943570">
        <ele>970.132156</ele>
        <time>2020-08-08T05:29:06.817Z</time>
      </trkpt>
      <trkpt lat="38.518162" lon="-2.943521">
        <ele>969.304590</ele>
        <time>2020-08-08T05:29:08.827Z</time>
      </trkpt>
      <trkpt lat="38.518022" lon="-2.943467">
        <ele>968.336608</ele>
        <time>2020-08-08T05:29:11.833Z</time>
      </trkpt>
      <trkpt lat="38.517923" lon="-2.943455">
        <ele>967.678357</ele>
        <time>2020-08-08T05:29:13.830Z</time>
      </trkpt>
      <trkpt lat="38.517817" lon="-2.943440">
        <ele>966.972424</ele>
        <time>2020-08-08T05:29:15.829Z</time>
      </trkpt>
      <trkpt lat="38.517716" lon="-2.943420">
        <ele>966.295898</ele>
        <time>2020-08-08T05:29:17.823Z</time>
      </trkpt>
      <trkpt lat="38.517574" lon="-2.943405">
        <ele>965.352753</ele>
        <time>2020-08-08T05:29:20.835Z</time>
      </trkpt>
      <trkpt lat="38.517482" lon="-2.943339">
        <ele>964.654405</ele>
        <time>2020-08-08T05:29:22.823Z</time>
      </trkpt>
      <trkpt lat="38.517399" lon="-2.943260">
        <ele>963.887633</ele>
        <time>2020-08-08T05:29:24.841Z</time>
      </trkpt>
      <trkpt lat="38.517324" lon="-2.943139">
        <ele>962.901875</ele>
        <time>2020-08-08T05:29:26.833Z</time>
      </trkpt>
      <trkpt lat="38.517232" lon="-2.943051">
        <ele>961.964015</ele>
        <time>2020-08-08T05:29:28.819Z</time>
      </trkpt>
      <trkpt lat="38.517121" lon="-2.942972">
        <ele>960.927091</ele>
        <time>2020-08-08T05:29:31.828Z</time>
      </trkpt>
      <trkpt lat="38.517027" lon="-2.942860">
        <ele>959.878236</ele>
        <time>2020-08-08T05:29:33.817Z</time>
      </trkpt>
      <trkpt lat="38.516939" lon="-2.942750">
        <ele>958.873619</ele>
        <time>2020-08-08T05:29:35.824Z</time>
      </trkpt>
      <trkpt lat="38.516855" lon="-2.942661">
        <ele>957.983106</ele>
        <time>2020-08-08T05:29:37.819Z</time>
      </trkpt>
      <trkpt lat="38.516740" lon="-2.942517">
        <ele>956.669136</ele>
        <time>2020-08-08T05:29:39.839Z</time>
      </trkpt>
      <trkpt lat="38.516633" lon="-2.942421">
        <ele>955.602156</ele>
        <time>2020-08-08T05:29:41.822Z</time>
      </trkpt>
      <trkpt lat="38.516522" lon="-2.942302">
        <ele>954.419707</ele>
        <time>2020-08-08T05:29:43.828Z</time>
      </trkpt>
      <trkpt lat="38.516380" lon="-2.942252">
        <ele>953.217587</ele>
        <time>2020-08-08T05:29:45.841Z</time>
      </trkpt>
      <trkpt lat="38.516292" lon="-2.942135">
        <ele>952.181218</ele>
        <time>2020-08-08T05:29:47.845Z</time>
      </trkpt>
      <trkpt lat="38.516198" lon="-2.942040">
        <ele>951.203155</ele>
        <time>2020-08-08T05:29:49.836Z</time>
      </trkpt>
      <trkpt lat="38.516066" lon="-2.941940">
        <ele>949.950787</ele>
        <time>2020-08-08T05:29:51.813Z</time>
      </trkpt>
      <trkpt lat="38.515919" lon="-2.941850">
        <ele>949.783762</ele>
        <time>2020-08-08T05:29:53.837Z</time>
      </trkpt>
      <trkpt lat="38.515802" lon="-2.941773">
        <ele>949.934536</ele>
        <time>2020-08-08T05:29:55.842Z</time>
      </trkpt>
      <trkpt lat="38.515689" lon="-2.941606">
        <ele>950.132455</ele>
        <time>2020-08-08T05:29:57.818Z</time>
      </trkpt>
      <trkpt lat="38.515563" lon="-2.941467">
        <ele>950.323152</ele>
        <time>2020-08-08T05:29:59.829Z</time>
      </trkpt>
      <trkpt lat="38.515451" lon="-2.941340">
        <ele>950.494693</ele>
        <time>2020-08-08T05:30:01.828Z</time>
      </trkpt>
      <trkpt lat="38.515331" lon="-2.941222">
        <ele>950.668160</ele>
        <time>2020-08-08T05:30:03.840Z</time>
      </trkpt>
      <trkpt lat="38.515228" lon="-2.941118">
        <ele>950.818550</ele>
        <time>2020-08-08T05:30:05.836Z</time>
      </trkpt>
      <trkpt lat="38.515131" lon="-2.941003">
        <ele>950.970135</ele>
        <time>2020-08-08T05:30:07.832Z</time>
      </trkpt>
      <trkpt lat="38.515024" lon="-2.940864">
        <ele>951.144933</ele>
        <time>2020-08-08T05:30:09.830Z</time>
      </trkpt>
      <trkpt lat="38.514928" lon="-2.940744">
        <ele>951.298781</ele>
        <time>2020-08-08T05:30:11.845Z</time>
      </trkpt>
      <trkpt lat="38.514829" lon="-2.940629">
        <ele>951.452053</ele>
        <time>2020-08-08T05:30:13.818Z</time>
      </trkpt>
      <trkpt lat="38.514763" lon="-2.940533">
        <ele>951.566613</ele>
        <time>2020-08-08T05:30:15.820Z</time>
      </trkpt>
      <trkpt lat="38.514691" lon="-2.940447">
        <ele>951.679520</ele>
        <time>2020-08-08T05:30:17.822Z</time>
      </trkpt>
      <trkpt lat="38.514623" lon="-2.940337">
        <ele>951.545215</ele>
        <time>2020-08-08T05:30:21.837Z</time>
      </trkpt>
      <trkpt lat="38.514562" lon="-2.940194">
        <ele>951.326015</ele>
        <time>2020-08-08T05:30:24.823Z</time>
      </trkpt>
      <trkpt lat="38.514511" lon="-2.940055">
        <ele>951.119395</ele>
        <time>2020-08-08T05:30:27.820Z</time>
      </trkpt>
      <trkpt lat="38.514465" lon="-2.939884">
        <ele>950.876032</ele>
        <time>2020-08-08T05:30:30.838Z</time>
      </trkpt>
      <trkpt lat="38.514422" lon="-2.939740">
        <ele>950.668595</ele>
        <time>2020-08-08T05:30:32.825Z</time>
      </trkpt>
      <trkpt lat="38.514352" lon="-2.939596">
        <ele>950.440436</ele>
        <time>2020-08-08T05:30:34.844Z</time>
      </trkpt>
      <trkpt lat="38.514236" lon="-2.939485">
        <ele>950.191181</ele>
        <time>2020-08-08T05:30:36.836Z</time>
      </trkpt>
      <trkpt lat="38.514131" lon="-2.939393">
        <ele>949.972207</ele>
        <time>2020-08-08T05:30:38.835Z</time>
      </trkpt>
      <trkpt lat="38.514027" lon="-2.939340">
        <ele>949.779624</ele>
        <time>2020-08-08T05:30:40.827Z</time>
      </trkpt>
      <trkpt lat="38.513927" lon="-2.939263">
        <ele>949.578813</ele>
        <time>2020-08-08T05:30:42.841Z</time>
      </trkpt>
      <trkpt lat="38.513858" lon="-2.939115">
        <ele>949.346947</ele>
        <time>2020-08-08T05:30:45.827Z</time>
      </trkpt>
      <trkpt lat="38.513839" lon="-2.938974">
        <ele>949.154386</ele>
        <time>2020-08-08T05:30:47.822Z</time>
      </trkpt>
      <trkpt lat="38.513815" lon="-2.938845">
        <ele>948.975929</ele>
        <time>2020-08-08T05:30:49.827Z</time>
      </trkpt>
      <trkpt lat="38.513798" lon="-2.938698">
        <ele>948.775937</ele>
        <time>2020-08-08T05:30:51.831Z</time>
      </trkpt>
      <trkpt lat="38.513785" lon="-2.938564">
        <ele>948.595341</ele>
        <time>2020-08-08T05:30:53.822Z</time>
      </trkpt>
      <trkpt lat="38.513770" lon="-2.938430">
        <ele>948.428674</ele>
        <time>2020-08-08T05:30:55.850Z</time>
      </trkpt>
      <trkpt lat="38.513761" lon="-2.938293">
        <ele>948.259400</ele>
        <time>2020-08-08T05:30:57.833Z</time>
      </trkpt>
      <trkpt lat="38.513752" lon="-2.938169">
        <ele>948.106069</ele>
        <time>2020-08-08T05:30:59.831Z</time>
      </trkpt>
      <trkpt lat="38.513736" lon="-2.938038">
        <ele>947.942823</ele>
        <time>2020-08-08T05:31:01.859Z</time>
      </trkpt>
      <trkpt lat="38.513713" lon="-2.937916">
        <ele>947.788312</ele>
        <time>2020-08-08T05:31:03.835Z</time>
      </trkpt>
      <trkpt lat="38.513693" lon="-2.937796">
        <ele>947.637247</ele>
        <time>2020-08-08T05:31:05.834Z</time>
      </trkpt>
      <trkpt lat="38.513666" lon="-2.937680">
        <ele>947.488237</ele>
        <time>2020-08-08T05:31:07.845Z</time>
      </trkpt>
      <trkpt lat="38.513647" lon="-2.937564">
        <ele>947.342316</ele>
        <time>2020-08-08T05:31:09.834Z</time>
      </trkpt>
      <trkpt lat="38.513620" lon="-2.937442">
        <ele>947.186210</ele>
        <time>2020-08-08T05:31:11.813Z</time>
      </trkpt>
      <trkpt lat="38.513570" lon="-2.937283">
        <ele>946.975223</ele>
        <time>2020-08-08T05:31:14.833Z</time>
      </trkpt>
      <trkpt lat="38.513537" lon="-2.937170">
        <ele>946.826717</ele>
        <time>2020-08-08T05:31:16.849Z</time>
      </trkpt>
      <trkpt lat="38.513488" lon="-2.937045">
        <ele>946.654576</ele>
        <time>2020-08-08T05:31:18.843Z</time>
      </trkpt>
      <trkpt lat="38.513447" lon="-2.936923">
        <ele>946.491094</ele>
        <time>2020-08-08T05:31:20.848Z</time>
      </trkpt>
      <trkpt lat="38.513398" lon="-2.936802">
        <ele>946.323342</ele>
        <time>2020-08-08T05:31:22.851Z</time>
      </trkpt>
      <trkpt lat="38.513344" lon="-2.936692">
        <ele>946.163456</ele>
        <time>2020-08-08T05:31:24.816Z</time>
      </trkpt>
      <trkpt lat="38.513295" lon="-2.936580">
        <ele>946.005463</ele>
        <time>2020-08-08T05:31:26.844Z</time>
      </trkpt>
      <trkpt lat="38.513249" lon="-2.936479">
        <ele>945.861574</ele>
        <time>2020-08-08T05:31:28.829Z</time>
      </trkpt>
      <trkpt lat="38.513205" lon="-2.936373">
        <ele>945.650177</ele>
        <time>2020-08-08T05:31:30.833Z</time>
      </trkpt>
      <trkpt lat="38.513153" lon="-2.936224">
        <ele>945.247560</ele>
        <time>2020-08-08T05:31:33.821Z</time>
      </trkpt>
      <trkpt lat="38.513108" lon="-2.936107">
        <ele>944.925832</ele>
        <time>2020-08-08T05:31:35.829Z</time>
      </trkpt>
      <trkpt lat="38.513063" lon="-2.935986">
        <ele>944.595217</ele>
        <time>2020-08-08T05:31:37.841Z</time>
      </trkpt>
      <trkpt lat="38.513008" lon="-2.935875">
        <ele>944.270987</ele>
        <time>2020-08-08T05:31:39.858Z</time>
      </trkpt>
      <trkpt lat="38.512945" lon="-2.935762">
        <ele>943.928580</ele>
        <time>2020-08-08T05:31:41.831Z</time>
      </trkpt>
      <trkpt lat="38.512867" lon="-2.935645">
        <ele>943.549260</ele>
        <time>2020-08-08T05:31:43.850Z</time>
      </trkpt>
      <trkpt lat="38.512794" lon="-2.935525">
        <ele>943.174155</ele>
        <time>2020-08-08T05:31:45.821Z</time>
      </trkpt>
      <trkpt lat="38.512714" lon="-2.935393">
        <ele>942.762119</ele>
        <time>2020-08-08T05:31:47.826Z</time>
      </trkpt>
      <trkpt lat="38.512616" lon="-2.935250">
        <ele>942.293006</ele>
        <time>2020-08-08T05:31:49.821Z</time>
      </trkpt>
      <trkpt lat="38.512512" lon="-2.935105">
        <ele>941.807589</ele>
        <time>2020-08-08T05:31:51.827Z</time>
      </trkpt>
      <trkpt lat="38.512394" lon="-2.934981">
        <ele>941.325777</ele>
        <time>2020-08-08T05:31:53.845Z</time>
      </trkpt>
      <trkpt lat="38.512278" lon="-2.934864">
        <ele>940.859715</ele>
        <time>2020-08-08T05:31:55.831Z</time>
      </trkpt>
      <trkpt lat="38.512145" lon="-2.934736">
        <ele>940.334613</ele>
        <time>2020-08-08T05:31:57.825Z</time>
      </trkpt>
      <trkpt lat="38.512015" lon="-2.934604">
        <ele>939.976722</ele>
        <time>2020-08-08T05:31:59.838Z</time>
      </trkpt>
      <trkpt lat="38.511889" lon="-2.934449">
        <ele>939.736596</ele>
        <time>2020-08-08T05:32:01.820Z</time>
      </trkpt>
      <trkpt lat="38.511766" lon="-2.934286">
        <ele>939.493308</ele>
        <time>2020-08-08T05:32:03.826Z</time>
      </trkpt>
      <trkpt lat="38.511647" lon="-2.934123">
        <ele>939.253801</ele>
        <time>2020-08-08T05:32:05.824Z</time>
      </trkpt>
      <trkpt lat="38.511581" lon="-2.934041">
        <ele>939.127416</ele>
        <time>2020-08-08T05:32:06.826Z</time>
      </trkpt>
      <trkpt lat="38.511442" lon="-2.933891">
        <ele>938.877626</ele>
        <time>2020-08-08T05:32:08.827Z</time>
      </trkpt>
      <trkpt lat="38.511307" lon="-2.933748">
        <ele>938.636874</ele>
        <time>2020-08-08T05:32:10.822Z</time>
      </trkpt>
      <trkpt lat="38.511165" lon="-2.933617">
        <ele>938.396412</ele>
        <time>2020-08-08T05:32:12.818Z</time>
      </trkpt>
      <trkpt lat="38.511044" lon="-2.933482">
        <ele>938.175872</ele>
        <time>2020-08-08T05:32:14.816Z</time>
      </trkpt>
      <trkpt lat="38.510935" lon="-2.933338">
        <ele>937.960620</ele>
        <time>2020-08-08T05:32:16.826Z</time>
      </trkpt>
      <trkpt lat="38.510804" lon="-2.933211">
        <ele>937.734856</ele>
        <time>2020-08-08T05:32:18.830Z</time>
      </trkpt>
      <trkpt lat="38.510664" lon="-2.933101">
        <ele>937.144642</ele>
        <time>2020-08-08T05:32:20.844Z</time>
      </trkpt>
      <trkpt lat="38.510507" lon="-2.933116">
        <ele>936.301705</ele>
        <time>2020-08-08T05:32:22.826Z</time>
      </trkpt>
      <trkpt lat="38.510371" lon="-2.933058">
        <ele>935.534076</ele>
        <time>2020-08-08T05:32:24.839Z</time>
      </trkpt>
      <trkpt lat="38.510243" lon="-2.933000">
        <ele>934.806950</ele>
        <time>2020-08-08T05:32:26.834Z</time>
      </trkpt>
      <trkpt lat="38.510098" lon="-2.932986">
        <ele>934.028396</ele>
        <time>2020-08-08T05:32:28.831Z</time>
      </trkpt>
      <trkpt lat="38.509964" lon="-2.932959">
        <ele>933.302086</ele>
        <time>2020-08-08T05:32:30.830Z</time>
      </trkpt>
      <trkpt lat="38.509828" lon="-2.932917">
        <ele>932.552972</ele>
        <time>2020-08-08T05:32:32.836Z</time>
      </trkpt>
      <trkpt lat="38.509684" lon="-2.932887">
        <ele>931.771807</ele>
        <time>2020-08-08T05:32:34.834Z</time>
      </trkpt>
      <trkpt lat="38.509532" lon="-2.932881">
        <ele>930.957599</ele>
        <time>2020-08-08T05:32:36.827Z</time>
      </trkpt>
      <trkpt lat="38.509410" lon="-2.932887">
        <ele>930.303917</ele>
        <time>2020-08-08T05:32:38.827Z</time>
      </trkpt>
      <trkpt lat="38.509286" lon="-2.932880">
        <ele>929.639364</ele>
        <time>2020-08-08T05:32:40.833Z</time>
      </trkpt>
      <trkpt lat="38.509172" lon="-2.932895">
        <ele>929.025772</ele>
        <time>2020-08-08T05:32:42.847Z</time>
      </trkpt>
      <trkpt lat="38.509074" lon="-2.932966">
        <ele>928.422619</ele>
        <time>2020-08-08T05:32:44.833Z</time>
      </trkpt>
      <trkpt lat="38.508973" lon="-2.933004">
        <ele>928.061824</ele>
        <time>2020-08-08T05:32:46.835Z</time>
      </trkpt>
      <trkpt lat="38.508866" lon="-2.933012">
        <ele>928.285770</ele>
        <time>2020-08-08T05:32:48.816Z</time>
      </trkpt>
      <trkpt lat="38.508753" lon="-2.933008">
        <ele>928.521961</ele>
        <time>2020-08-08T05:32:50.840Z</time>
      </trkpt>
      <trkpt lat="38.508631" lon="-2.932974">
        <ele>928.782857</ele>
        <time>2020-08-08T05:32:52.827Z</time>
      </trkpt>
      <trkpt lat="38.508512" lon="-2.932922">
        <ele>929.045627</ele>
        <time>2020-08-08T05:32:54.834Z</time>
      </trkpt>
      <trkpt lat="38.508398" lon="-2.932864">
        <ele>929.301999</ele>
        <time>2020-08-08T05:32:56.821Z</time>
      </trkpt>
      <trkpt lat="38.508286" lon="-2.932817">
        <ele>929.548304</ele>
        <time>2020-08-08T05:32:58.811Z</time>
      </trkpt>
      <trkpt lat="38.508180" lon="-2.932819">
        <ele>929.769802</ele>
        <time>2020-08-08T05:33:00.840Z</time>
      </trkpt>
      <trkpt lat="38.508075" lon="-2.932716">
        <ele>930.046370</ele>
        <time>2020-08-08T05:33:02.838Z</time>
      </trkpt>
      <trkpt lat="38.507980" lon="-2.932659">
        <ele>930.265650</ele>
        <time>2020-08-08T05:33:04.829Z</time>
      </trkpt>
      <trkpt lat="38.507878" lon="-2.932595">
        <ele>930.503070</ele>
        <time>2020-08-08T05:33:06.837Z</time>
      </trkpt>
      <trkpt lat="38.507787" lon="-2.932530">
        <ele>930.720889</ele>
        <time>2020-08-08T05:33:08.840Z</time>
      </trkpt>
      <trkpt lat="38.507695" lon="-2.932436">
        <ele>930.966999</ele>
        <time>2020-08-08T05:33:10.836Z</time>
      </trkpt>
      <trkpt lat="38.507595" lon="-2.932353">
        <ele>931.216139</ele>
        <time>2020-08-08T05:33:12.825Z</time>
      </trkpt>
      <trkpt lat="38.507495" lon="-2.932272">
        <ele>931.463513</ele>
        <time>2020-08-08T05:33:14.847Z</time>
      </trkpt>
      <trkpt lat="38.507399" lon="-2.932193">
        <ele>931.702085</ele>
        <time>2020-08-08T05:33:16.843Z</time>
      </trkpt>
      <trkpt lat="38.507315" lon="-2.932105">
        <ele>931.762918</ele>
        <time>2020-08-08T05:33:18.828Z</time>
      </trkpt>
      <trkpt lat="38.507220" lon="-2.932013">
        <ele>931.762918</ele>
        <time>2020-08-08T05:33:20.827Z</time>
      </trkpt>
      <trkpt lat="38.507147" lon="-2.931912">
        <ele>931.762918</ele>
        <time>2020-08-08T05:33:22.832Z</time>
      </trkpt>
      <trkpt lat="38.507030" lon="-2.931837">
        <ele>931.762918</ele>
        <time>2020-08-08T05:33:24.836Z</time>
      </trkpt>
      <trkpt lat="38.506940" lon="-2.931755">
        <ele>931.762918</ele>
        <time>2020-08-08T05:33:26.821Z</time>
      </trkpt>
      <trkpt lat="38.506847" lon="-2.931684">
        <ele>931.762918</ele>
        <time>2020-08-08T05:33:28.842Z</time>
      </trkpt>
      <trkpt lat="38.506758" lon="-2.931628">
        <ele>931.762918</ele>
        <time>2020-08-08T05:33:30.824Z</time>
      </trkpt>
      <trkpt lat="38.506667" lon="-2.931580">
        <ele>931.762918</ele>
        <time>2020-08-08T05:33:32.822Z</time>
      </trkpt>
      <trkpt lat="38.506564" lon="-2.931523">
        <ele>931.762918</ele>
        <time>2020-08-08T05:33:34.815Z</time>
      </trkpt>
      <trkpt lat="38.506470" lon="-2.931465">
        <ele>931.762918</ele>
        <time>2020-08-08T05:33:36.833Z</time>
      </trkpt>
      <trkpt lat="38.506370" lon="-2.931389">
        <ele>931.762918</ele>
        <time>2020-08-08T05:33:38.827Z</time>
      </trkpt>
      <trkpt lat="38.506268" lon="-2.931321">
        <ele>931.762918</ele>
        <time>2020-08-08T05:33:40.839Z</time>
      </trkpt>
      <trkpt lat="38.506165" lon="-2.931270">
        <ele>931.762918</ele>
        <time>2020-08-08T05:33:42.831Z</time>
      </trkpt>
      <trkpt lat="38.506076" lon="-2.931192">
        <ele>931.762918</ele>
        <time>2020-08-08T05:33:44.844Z</time>
      </trkpt>
      <trkpt lat="38.505985" lon="-2.931159">
        <ele>931.762918</ele>
        <time>2020-08-08T05:33:46.825Z</time>
      </trkpt>
      <trkpt lat="38.470686" lon="-2.896853">
        <ele>881.468871</ele>
        <time>2020-08-08T06:25:39.298Z</time>
      </trkpt>
      <trkpt lat="38.470715" lon="-2.897024">
        <ele>881.468871</ele>
        <time>2020-08-08T06:27:41.423Z</time>
      </trkpt>
      <trkpt lat="38.470785" lon="-2.897218">
        <ele>881.468871</ele>
        <time>2020-08-08T06:28:11.412Z</time>
      </trkpt>
      <trkpt lat="38.470840" lon="-2.897338">
        <ele>881.468871</ele>
        <time>2020-08-08T06:28:15.417Z</time>
      </trkpt>
      <trkpt lat="38.470900" lon="-2.897432">
        <ele>881.468871</ele>
        <time>2020-08-08T06:28:18.413Z</time>
      </trkpt>
      <trkpt lat="38.470960" lon="-2.897525">
        <ele>881.468871</ele>
        <time>2020-08-08T06:28:21.412Z</time>
      </trkpt>
      <trkpt lat="38.470998" lon="-2.897653">
        <ele>881.468871</ele>
        <time>2020-08-08T06:28:24.414Z</time>
      </trkpt>
      <trkpt lat="38.471009" lon="-2.897792">
        <ele>881.468871</ele>
        <time>2020-08-08T06:28:27.419Z</time>
      </trkpt>
      <trkpt lat="38.471019" lon="-2.897913">
        <ele>881.522245</ele>
        <time>2020-08-08T06:28:30.405Z</time>
      </trkpt>
      <trkpt lat="38.471015" lon="-2.898056">
        <ele>881.923792</ele>
        <time>2020-08-08T06:28:34.425Z</time>
      </trkpt>
      <trkpt lat="38.470998" lon="-2.898173">
        <ele>882.257727</ele>
        <time>2020-08-08T06:28:38.430Z</time>
      </trkpt>
      <trkpt lat="38.470961" lon="-2.898297">
        <ele>882.630114</ele>
        <time>2020-08-08T06:28:43.407Z</time>
      </trkpt>
      <trkpt lat="38.470905" lon="-2.898425">
        <ele>883.041589</ele>
        <time>2020-08-08T06:28:47.401Z</time>
      </trkpt>
      <trkpt lat="38.470841" lon="-2.898518">
        <ele>883.389055</ele>
        <time>2020-08-08T06:28:50.411Z</time>
      </trkpt>
      <trkpt lat="38.470785" lon="-2.898610">
        <ele>883.716076</ele>
        <time>2020-08-08T06:28:53.416Z</time>
      </trkpt>
      <trkpt lat="38.470718" lon="-2.898731">
        <ele>884.131970</ele>
        <time>2020-08-08T06:28:57.411Z</time>
      </trkpt>
      <trkpt lat="38.470650" lon="-2.898832">
        <ele>884.505786</ele>
        <time>2020-08-08T06:29:01.416Z</time>
      </trkpt>
      <trkpt lat="38.470592" lon="-2.898950">
        <ele>884.896771</ele>
        <time>2020-08-08T06:29:06.407Z</time>
      </trkpt>
      <trkpt lat="38.470517" lon="-2.899057">
        <ele>885.299793</ele>
        <time>2020-08-08T06:29:10.405Z</time>
      </trkpt>
      <trkpt lat="38.470460" lon="-2.899164">
        <ele>885.662975</ele>
        <time>2020-08-08T06:29:15.404Z</time>
      </trkpt>
      <trkpt lat="38.470421" lon="-2.899272">
        <ele>885.996734</ele>
        <time>2020-08-08T06:29:20.404Z</time>
      </trkpt>
      <trkpt lat="38.470380" lon="-2.899396">
        <ele>886.374468</ele>
        <time>2020-08-08T06:29:26.405Z</time>
      </trkpt>
      <trkpt lat="38.470351" lon="-2.899514">
        <ele>886.721537</ele>
        <time>2020-08-08T06:29:32.417Z</time>
      </trkpt>
      <trkpt lat="38.470348" lon="-2.899649">
        <ele>887.100534</ele>
        <time>2020-08-08T06:29:38.401Z</time>
      </trkpt>
      <trkpt lat="38.470389" lon="-2.899787">
        <ele>887.514742</ele>
        <time>2020-08-08T06:29:43.403Z</time>
      </trkpt>
      <trkpt lat="38.470396" lon="-2.899909">
        <ele>887.858023</ele>
        <time>2020-08-08T06:29:47.422Z</time>
      </trkpt>
      <trkpt lat="38.470386" lon="-2.900034">
        <ele>888.402629</ele>
        <time>2020-08-08T06:29:52.414Z</time>
      </trkpt>
      <trkpt lat="38.470400" lon="-2.900157">
        <ele>888.978523</ele>
        <time>2020-08-08T06:29:57.418Z</time>
      </trkpt>
      <trkpt lat="38.470426" lon="-2.900280">
        <ele>889.568832</ele>
        <time>2020-08-08T06:30:03.401Z</time>
      </trkpt>
      <trkpt lat="38.470434" lon="-2.900414">
        <ele>890.191504</ele>
        <time>2020-08-08T06:30:08.424Z</time>
      </trkpt>
      <trkpt lat="38.470423" lon="-2.900551">
        <ele>890.829603</ele>
        <time>2020-08-08T06:30:13.394Z</time>
      </trkpt>
      <trkpt lat="38.470415" lon="-2.900688">
        <ele>891.466136</ele>
        <time>2020-08-08T06:30:18.416Z</time>
      </trkpt>
      <trkpt lat="38.470397" lon="-2.900820">
        <ele>892.086946</ele>
        <time>2020-08-08T06:30:23.416Z</time>
      </trkpt>
      <trkpt lat="38.470406" lon="-2.900937">
        <ele>892.631659</ele>
        <time>2020-08-08T06:30:27.401Z</time>
      </trkpt>
      <trkpt lat="38.470436" lon="-2.901055">
        <ele>893.206498</ele>
        <time>2020-08-08T06:30:31.396Z</time>
      </trkpt>
      <trkpt lat="38.470423" lon="-2.901169">
        <ele>893.740274</ele>
        <time>2020-08-08T06:30:35.401Z</time>
      </trkpt>
      <trkpt lat="38.470389" lon="-2.901297">
        <ele>894.366547</ele>
        <time>2020-08-08T06:30:40.409Z</time>
      </trkpt>
      <trkpt lat="38.470398" lon="-2.901433">
        <ele>894.998930</ele>
        <time>2020-08-08T06:30:45.404Z</time>
      </trkpt>
      <trkpt lat="38.470387" lon="-2.901554">
        <ele>895.563333</ele>
        <time>2020-08-08T06:30:49.406Z</time>
      </trkpt>
      <trkpt lat="38.470356" lon="-2.901689">
        <ele>896.215185</ele>
        <time>2020-08-08T06:30:53.416Z</time>
      </trkpt>
      <trkpt lat="38.470321" lon="-2.901801">
        <ele>896.773932</ele>
        <time>2020-08-08T06:30:56.405Z</time>
      </trkpt>
      <trkpt lat="38.470279" lon="-2.901924">
        <ele>897.395679</ele>
        <time>2020-08-08T06:31:00.420Z</time>
      </trkpt>
      <trkpt lat="38.470263" lon="-2.902061">
        <ele>898.037473</ele>
        <time>2020-08-08T06:31:05.406Z</time>
      </trkpt>
      <trkpt lat="38.470253" lon="-2.902188">
        <ele>898.578951</ele>
        <time>2020-08-08T06:31:11.409Z</time>
      </trkpt>
      <trkpt lat="38.470233" lon="-2.902308">
        <ele>898.734974</ele>
        <time>2020-08-08T06:31:15.417Z</time>
      </trkpt>
      <trkpt lat="38.470209" lon="-2.902423">
        <ele>898.886326</ele>
        <time>2020-08-08T06:31:19.406Z</time>
      </trkpt>
      <trkpt lat="38.470176" lon="-2.902561">
        <ele>899.069824</ele>
        <time>2020-08-08T06:31:24.413Z</time>
      </trkpt>
      <trkpt lat="38.470155" lon="-2.902677">
        <ele>899.221234</ele>
        <time>2020-08-08T06:31:28.406Z</time>
      </trkpt>
      <trkpt lat="38.470133" lon="-2.902807">
        <ele>899.390373</ele>
        <time>2020-08-08T06:31:32.416Z</time>
      </trkpt>
      <trkpt lat="38.470109" lon="-2.902945">
        <ele>899.570145</ele>
        <time>2020-08-08T06:31:36.405Z</time>
      </trkpt>
      <trkpt lat="38.470090" lon="-2.903063">
        <ele>899.723347</ele>
        <time>2020-08-08T06:31:40.407Z</time>
      </trkpt>
      <trkpt lat="38.470063" lon="-2.903187">
        <ele>899.887023</ele>
        <time>2020-08-08T06:31:45.415Z</time>
      </trkpt>
      <trkpt lat="38.470034" lon="-2.903310">
        <ele>900.050381</ele>
        <time>2020-08-08T06:31:50.407Z</time>
      </trkpt>
      <trkpt lat="38.470002" lon="-2.903446">
        <ele>900.230974</ele>
        <time>2020-08-08T06:31:55.411Z</time>
      </trkpt>
      <trkpt lat="38.469975" lon="-2.903573">
        <ele>900.398329</ele>
        <time>2020-08-08T06:31:59.408Z</time>
      </trkpt>
      <trkpt lat="38.469949" lon="-2.903703">
        <ele>900.568959</ele>
        <time>2020-08-08T06:32:04.409Z</time>
      </trkpt>
      <trkpt lat="38.469934" lon="-2.903818">
        <ele>900.717221</ele>
        <time>2020-08-08T06:32:08.407Z</time>
      </trkpt>
      <trkpt lat="38.469905" lon="-2.903942">
        <ele>900.881797</ele>
        <time>2020-08-08T06:32:12.405Z</time>
      </trkpt>
      <trkpt lat="38.469870" lon="-2.904049">
        <ele>901.029268</ele>
        <time>2020-08-08T06:32:16.419Z</time>
      </trkpt>
      <trkpt lat="38.469837" lon="-2.904158">
        <ele>901.177887</ele>
        <time>2020-08-08T06:32:20.431Z</time>
      </trkpt>
      <trkpt lat="38.469815" lon="-2.904280">
        <ele>901.337097</ele>
        <time>2020-08-08T06:32:24.407Z</time>
      </trkpt>
      <trkpt lat="38.469783" lon="-2.904399">
        <ele>901.481564</ele>
        <time>2020-08-08T06:32:29.418Z</time>
      </trkpt>
      <trkpt lat="38.469806" lon="-2.904516">
        <ele>901.481564</ele>
        <time>2020-08-08T06:32:33.407Z</time>
      </trkpt>
      <trkpt lat="38.469827" lon="-2.904643">
        <ele>901.481564</ele>
        <time>2020-08-08T06:32:38.406Z</time>
      </trkpt>
      <trkpt lat="38.469837" lon="-2.904780">
        <ele>901.481564</ele>
        <time>2020-08-08T06:32:43.416Z</time>
      </trkpt>
      <trkpt lat="38.469849" lon="-2.904895">
        <ele>901.481564</ele>
        <time>2020-08-08T06:32:47.420Z</time>
      </trkpt>
      <trkpt lat="38.469876" lon="-2.905011">
        <ele>901.481564</ele>
        <time>2020-08-08T06:32:51.409Z</time>
      </trkpt>
      <trkpt lat="38.469902" lon="-2.905145">
        <ele>901.481564</ele>
        <time>2020-08-08T06:32:56.408Z</time>
      </trkpt>
      <trkpt lat="38.469924" lon="-2.905268">
        <ele>901.481564</ele>
        <time>2020-08-08T06:33:00.420Z</time>
      </trkpt>
      <trkpt lat="38.469931" lon="-2.905393">
        <ele>901.481564</ele>
        <time>2020-08-08T06:33:04.431Z</time>
      </trkpt>
      <trkpt lat="38.469954" lon="-2.905525">
        <ele>901.481564</ele>
        <time>2020-08-08T06:33:08.418Z</time>
      </trkpt>
      <trkpt lat="38.469976" lon="-2.905658">
        <ele>901.481564</ele>
        <time>2020-08-08T06:33:12.413Z</time>
      </trkpt>
      <trkpt lat="38.469992" lon="-2.905776">
        <ele>901.481564</ele>
        <time>2020-08-08T06:33:16.418Z</time>
      </trkpt>
      <trkpt lat="38.470009" lon="-2.905896">
        <ele>901.481564</ele>
        <time>2020-08-08T06:33:21.409Z</time>
      </trkpt>
      <trkpt lat="38.470041" lon="-2.906005">
        <ele>901.481564</ele>
        <time>2020-08-08T06:33:25.418Z</time>
      </trkpt>
      <trkpt lat="38.470059" lon="-2.906121">
        <ele>901.481564</ele>
        <time>2020-08-08T06:33:29.423Z</time>
      </trkpt>
      <trkpt lat="38.470073" lon="-2.906238">
        <ele>901.481564</ele>
        <time>2020-08-08T06:33:32.409Z</time>
      </trkpt>
      <trkpt lat="38.470091" lon="-2.906350">
        <ele>901.481564</ele>
        <time>2020-08-08T06:33:35.406Z</time>
      </trkpt>
      <trkpt lat="38.470108" lon="-2.906465">
        <ele>901.481564</ele>
        <time>2020-08-08T06:33:38.411Z</time>
      </trkpt>
      <trkpt lat="38.470136" lon="-2.906597">
        <ele>901.481564</ele>
        <time>2020-08-08T06:33:42.408Z</time>
      </trkpt>
      <trkpt lat="38.470137" lon="-2.906739">
        <ele>901.481564</ele>
        <time>2020-08-08T06:33:46.420Z</time>
      </trkpt>
      <trkpt lat="38.470144" lon="-2.906855">
        <ele>901.481564</ele>
        <time>2020-08-08T06:33:50.409Z</time>
      </trkpt>
      <trkpt lat="38.470165" lon="-2.906970">
        <ele>901.481564</ele>
        <time>2020-08-08T06:33:54.405Z</time>
      </trkpt>
      <trkpt lat="38.470190" lon="-2.907102">
        <ele>901.481564</ele>
        <time>2020-08-08T06:33:59.412Z</time>
      </trkpt>
      <trkpt lat="38.470213" lon="-2.907226">
        <ele>901.481564</ele>
        <time>2020-08-08T06:34:04.404Z</time>
      </trkpt>
      <trkpt lat="38.470224" lon="-2.907359">
        <ele>901.481564</ele>
        <time>2020-08-08T06:34:09.410Z</time>
      </trkpt>
      <trkpt lat="38.470218" lon="-2.907489">
        <ele>901.481564</ele>
        <time>2020-08-08T06:34:14.412Z</time>
      </trkpt>
      <trkpt lat="38.470215" lon="-2.907619">
        <ele>901.481564</ele>
        <time>2020-08-08T06:34:19.419Z</time>
      </trkpt>
      <trkpt lat="38.470174" lon="-2.907731">
        <ele>901.481564</ele>
        <time>2020-08-08T06:34:27.410Z</time>
      </trkpt>
      <trkpt lat="38.470187" lon="-2.907717">
        <ele>901.481564</ele>
        <time>2020-08-08T06:34:35.898Z</time>
      </trkpt>
      <trkpt lat="38.470737" lon="-2.911893">
        <ele>907.875719</ele>
        <time>2020-08-08T06:41:22.794Z</time>
      </trkpt>
      <trkpt lat="38.470748" lon="-2.912182">
        <ele>907.875719</ele>
        <time>2020-08-08T06:41:32.217Z</time>
      </trkpt>
      <trkpt lat="38.470750" lon="-2.912350">
        <ele>907.875719</ele>
        <time>2020-08-08T06:41:35.206Z</time>
      </trkpt>
      <trkpt lat="38.470727" lon="-2.912514">
        <ele>907.875719</ele>
        <time>2020-08-08T06:41:38.211Z</time>
      </trkpt>
      <trkpt lat="38.470706" lon="-2.912670">
        <ele>907.875719</ele>
        <time>2020-08-08T06:41:41.224Z</time>
      </trkpt>
      <trkpt lat="38.470672" lon="-2.912779">
        <ele>907.875719</ele>
        <time>2020-08-08T06:41:44.211Z</time>
      </trkpt>
      <trkpt lat="38.470746" lon="-2.912551">
        <ele>907.875719</ele>
        <time>2020-08-08T06:42:51.209Z</time>
      </trkpt>
      <trkpt lat="38.470735" lon="-2.912427">
        <ele>907.875719</ele>
        <time>2020-08-08T06:42:59.207Z</time>
      </trkpt>
      <trkpt lat="38.470739" lon="-2.912301">
        <ele>907.875719</ele>
        <time>2020-08-08T06:43:07.196Z</time>
      </trkpt>
      <trkpt lat="38.470714" lon="-2.912185">
        <ele>907.875719</ele>
        <time>2020-08-08T06:43:15.209Z</time>
      </trkpt>
      <trkpt lat="38.470711" lon="-2.912060">
        <ele>907.875719</ele>
        <time>2020-08-08T06:43:24.203Z</time>
      </trkpt>
      <trkpt lat="38.470720" lon="-2.911940">
        <ele>907.875719</ele>
        <time>2020-08-08T06:43:33.208Z</time>
      </trkpt>
      <trkpt lat="38.470706" lon="-2.911819">
        <ele>907.875719</ele>
        <time>2020-08-08T06:43:45.203Z</time>
      </trkpt>
      <trkpt lat="38.470743" lon="-2.911749">
        <ele>907.875719</ele>
        <time>2020-08-08T06:45:31.673Z</time>
      </trkpt>
      <trkpt lat="38.470761" lon="-2.911679">
        <ele>908.131498</ele>
        <time>2020-08-08T06:47:07.666Z</time>
      </trkpt>
      <trkpt lat="38.470851" lon="-2.911700">
        <ele>908.131498</ele>
        <time>2020-08-08T06:48:08.206Z</time>
      </trkpt>
      <trkpt lat="38.470944" lon="-2.911716">
        <ele>908.131498</ele>
        <time>2020-08-08T06:48:13.228Z</time>
      </trkpt>
      <trkpt lat="38.471031" lon="-2.911663">
        <ele>908.131498</ele>
        <time>2020-08-08T06:48:18.206Z</time>
      </trkpt>
      <trkpt lat="38.471103" lon="-2.911592">
        <ele>908.131498</ele>
        <time>2020-08-08T06:48:23.220Z</time>
      </trkpt>
      <trkpt lat="38.471197" lon="-2.911565">
        <ele>908.131498</ele>
        <time>2020-08-08T06:48:27.204Z</time>
      </trkpt>
      <trkpt lat="38.471304" lon="-2.911532">
        <ele>908.131498</ele>
        <time>2020-08-08T06:48:32.216Z</time>
      </trkpt>
      <trkpt lat="38.471395" lon="-2.911503">
        <ele>908.131498</ele>
        <time>2020-08-08T06:48:36.227Z</time>
      </trkpt>
      <trkpt lat="38.471514" lon="-2.911474">
        <ele>908.131498</ele>
        <time>2020-08-08T06:48:40.219Z</time>
      </trkpt>
      <trkpt lat="38.471638" lon="-2.911455">
        <ele>908.118561</ele>
        <time>2020-08-08T06:48:44.219Z</time>
      </trkpt>
      <trkpt lat="38.471743" lon="-2.911474">
        <ele>908.048583</ele>
        <time>2020-08-08T06:48:47.216Z</time>
      </trkpt>
      <trkpt lat="38.471839" lon="-2.911494">
        <ele>907.984399</ele>
        <time>2020-08-08T06:48:50.202Z</time>
      </trkpt>
      <trkpt lat="38.471957" lon="-2.911531">
        <ele>907.904224</ele>
        <time>2020-08-08T06:48:54.223Z</time>
      </trkpt>
      <trkpt lat="38.472057" lon="-2.911576">
        <ele>907.834262</ele>
        <time>2020-08-08T06:48:57.226Z</time>
      </trkpt>
      <trkpt lat="38.472157" lon="-2.911658">
        <ele>907.755848</ele>
        <time>2020-08-08T06:49:00.226Z</time>
      </trkpt>
      <trkpt lat="38.472257" lon="-2.911750">
        <ele>907.674527</ele>
        <time>2020-08-08T06:49:03.231Z</time>
      </trkpt>
      <trkpt lat="38.472333" lon="-2.911816">
        <ele>907.613885</ele>
        <time>2020-08-08T06:49:05.218Z</time>
      </trkpt>
      <trkpt lat="38.472418" lon="-2.911911">
        <ele>907.539356</ele>
        <time>2020-08-08T06:49:08.213Z</time>
      </trkpt>
      <trkpt lat="38.472508" lon="-2.912005">
        <ele>907.462641</ele>
        <time>2020-08-08T06:49:12.232Z</time>
      </trkpt>
      <trkpt lat="38.472567" lon="-2.912097">
        <ele>907.401203</ele>
        <time>2020-08-08T06:49:15.216Z</time>
      </trkpt>
      <trkpt lat="38.472632" lon="-2.912196">
        <ele>907.334455</ele>
        <time>2020-08-08T06:49:18.216Z</time>
      </trkpt>
      <trkpt lat="38.472720" lon="-2.912240">
        <ele>907.272096</ele>
        <time>2020-08-08T06:49:21.228Z</time>
      </trkpt>
      <trkpt lat="38.472812" lon="-2.912259">
        <ele>907.210601</ele>
        <time>2020-08-08T06:49:24.217Z</time>
      </trkpt>
      <trkpt lat="38.472894" lon="-2.912318">
        <ele>907.148498</ele>
        <time>2020-08-08T06:49:27.218Z</time>
      </trkpt>
      <trkpt lat="38.472964" lon="-2.912395">
        <ele>907.087540</ele>
        <time>2020-08-08T06:49:30.232Z</time>
      </trkpt>
      <trkpt lat="38.473028" lon="-2.912489">
        <ele>907.023184</ele>
        <time>2020-08-08T06:49:33.216Z</time>
      </trkpt>
      <trkpt lat="38.473113" lon="-2.912553">
        <ele>906.958076</ele>
        <time>2020-08-08T06:49:36.221Z</time>
      </trkpt>
      <trkpt lat="38.473202" lon="-2.912605">
        <ele>906.886713</ele>
        <time>2020-08-08T06:49:39.223Z</time>
      </trkpt>
      <trkpt lat="38.473289" lon="-2.912648">
        <ele>906.816994</ele>
        <time>2020-08-08T06:49:42.216Z</time>
      </trkpt>
      <trkpt lat="38.473373" lon="-2.912713">
        <ele>906.743594</ele>
        <time>2020-08-08T06:49:45.214Z</time>
      </trkpt>
      <trkpt lat="38.473445" lon="-2.912808">
        <ele>906.666229</ele>
        <time>2020-08-08T06:49:48.211Z</time>
      </trkpt>
      <trkpt lat="38.473517" lon="-2.912930">
        <ele>906.576835</ele>
        <time>2020-08-08T06:49:51.206Z</time>
      </trkpt>
      <trkpt lat="38.473611" lon="-2.913011">
        <ele>906.492090</ele>
        <time>2020-08-08T06:49:54.211Z</time>
      </trkpt>
      <trkpt lat="38.473731" lon="-2.913065">
        <ele>906.397003</ele>
        <time>2020-08-08T06:49:57.222Z</time>
      </trkpt>
      <trkpt lat="38.473832" lon="-2.913096">
        <ele>906.319370</ele>
        <time>2020-08-08T06:49:59.244Z</time>
      </trkpt>
      <trkpt lat="38.473931" lon="-2.913136">
        <ele>906.241768</ele>
        <time>2020-08-08T06:50:01.098Z</time>
      </trkpt>
      <trkpt lat="38.474039" lon="-2.913185">
        <ele>906.156111</ele>
        <time>2020-08-08T06:50:04.107Z</time>
      </trkpt>
      <trkpt lat="38.474110" lon="-2.913263">
        <ele>906.086121</ele>
        <time>2020-08-08T06:50:06.125Z</time>
      </trkpt>
      <trkpt lat="38.474187" lon="-2.913329">
        <ele>906.016818</ele>
        <time>2020-08-08T06:50:08.118Z</time>
      </trkpt>
      <trkpt lat="38.474272" lon="-2.913372">
        <ele>905.948491</ele>
        <time>2020-08-08T06:50:10.106Z</time>
      </trkpt>
      <trkpt lat="38.474370" lon="-2.913428">
        <ele>905.868253</ele>
        <time>2020-08-08T06:50:12.119Z</time>
      </trkpt>
      <trkpt lat="38.474456" lon="-2.913497">
        <ele>905.792352</ele>
        <time>2020-08-08T06:50:14.122Z</time>
      </trkpt>
      <trkpt lat="38.474562" lon="-2.913525">
        <ele>905.711455</ele>
        <time>2020-08-08T06:50:16.106Z</time>
      </trkpt>
      <trkpt lat="38.474679" lon="-2.913584">
        <ele>905.617445</ele>
        <time>2020-08-08T06:50:19.118Z</time>
      </trkpt>
      <trkpt lat="38.474787" lon="-2.913604">
        <ele>905.604237</ele>
        <time>2020-08-08T06:50:21.108Z</time>
      </trkpt>
      <trkpt lat="38.474877" lon="-2.913639">
        <ele>905.608428</ele>
        <time>2020-08-08T06:50:23.112Z</time>
      </trkpt>
      <trkpt lat="38.474986" lon="-2.913692">
        <ele>905.613624</ele>
        <time>2020-08-08T06:50:26.117Z</time>
      </trkpt>
      <trkpt lat="38.475077" lon="-2.913736">
        <ele>905.617958</ele>
        <time>2020-08-08T06:50:29.094Z</time>
      </trkpt>
      <trkpt lat="38.475158" lon="-2.913803">
        <ele>905.622257</ele>
        <time>2020-08-08T06:50:32.101Z</time>
      </trkpt>
      <trkpt lat="38.475260" lon="-2.913871">
        <ele>905.627382</ele>
        <time>2020-08-08T06:50:35.113Z</time>
      </trkpt>
      <trkpt lat="38.475353" lon="-2.913949">
        <ele>905.632338</ele>
        <time>2020-08-08T06:50:38.117Z</time>
      </trkpt>
      <trkpt lat="38.475456" lon="-2.914012">
        <ele>905.637425</ele>
        <time>2020-08-08T06:50:41.109Z</time>
      </trkpt>
      <trkpt lat="38.475556" lon="-2.914047">
        <ele>905.642044</ele>
        <time>2020-08-08T06:50:44.118Z</time>
      </trkpt>
      <trkpt lat="38.475661" lon="-2.914074">
        <ele>905.646816</ele>
        <time>2020-08-08T06:50:47.102Z</time>
      </trkpt>
      <trkpt lat="38.475778" lon="-2.914088">
        <ele>905.652050</ele>
        <time>2020-08-08T06:50:51.092Z</time>
      </trkpt>
      <trkpt lat="38.475874" lon="-2.914152">
        <ele>905.656874</ele>
        <time>2020-08-08T06:50:55.104Z</time>
      </trkpt>
      <trkpt lat="38.475956" lon="-2.914203">
        <ele>905.660937</ele>
        <time>2020-08-08T06:50:59.113Z</time>
      </trkpt>
      <trkpt lat="38.476010" lon="-2.914299">
        <ele>905.665060</ele>
        <time>2020-08-08T06:51:02.104Z</time>
      </trkpt>
      <trkpt lat="38.476076" lon="-2.914395">
        <ele>905.669515</ele>
        <time>2020-08-08T06:51:05.119Z</time>
      </trkpt>
      <trkpt lat="38.476170" lon="-2.914485">
        <ele>905.674748</ele>
        <time>2020-08-08T06:51:09.099Z</time>
      </trkpt>
      <trkpt lat="38.476279" lon="-2.914507">
        <ele>905.679664</ele>
        <time>2020-08-08T06:51:13.112Z</time>
      </trkpt>
      <trkpt lat="38.476366" lon="-2.914545">
        <ele>906.171758</ele>
        <time>2020-08-08T06:51:17.114Z</time>
      </trkpt>
      <trkpt lat="38.476448" lon="-2.914619">
        <ele>906.848989</ele>
        <time>2020-08-08T06:51:21.110Z</time>
      </trkpt>
      <trkpt lat="38.476539" lon="-2.914676">
        <ele>907.532643</ele>
        <time>2020-08-08T06:51:25.108Z</time>
      </trkpt>
      <trkpt lat="38.476625" lon="-2.914751">
        <ele>908.235047</ele>
        <time>2020-08-08T06:51:29.096Z</time>
      </trkpt>
      <trkpt lat="38.476711" lon="-2.914817">
        <ele>908.911793</ele>
        <time>2020-08-08T06:51:33.110Z</time>
      </trkpt>
      <trkpt lat="38.476818" lon="-2.914886">
        <ele>909.720303</ele>
        <time>2020-08-08T06:51:37.112Z</time>
      </trkpt>
      <trkpt lat="38.476919" lon="-2.914959">
        <ele>910.503082</ele>
        <time>2020-08-08T06:51:41.120Z</time>
      </trkpt>
      <trkpt lat="38.477009" lon="-2.915041">
        <ele>911.248768</ele>
        <time>2020-08-08T06:51:46.183Z</time>
      </trkpt>
      <trkpt lat="38.477088" lon="-2.915101">
        <ele>911.868728</ele>
        <time>2020-08-08T06:51:50.104Z</time>
      </trkpt>
      <trkpt lat="38.477173" lon="-2.915144">
        <ele>912.485408</ele>
        <time>2020-08-08T06:52:13.129Z</time>
      </trkpt>
      <trkpt lat="38.477263" lon="-2.915223">
        <ele>913.222007</ele>
        <time>2020-08-08T06:52:17.097Z</time>
      </trkpt>
      <trkpt lat="38.477348" lon="-2.915275">
        <ele>913.857724</ele>
        <time>2020-08-08T06:52:20.123Z</time>
      </trkpt>
      <trkpt lat="38.477444" lon="-2.915305">
        <ele>914.524373</ele>
        <time>2020-08-08T06:52:24.099Z</time>
      </trkpt>
      <trkpt lat="38.477544" lon="-2.915353">
        <ele>915.244958</ele>
        <time>2020-08-08T06:52:27.111Z</time>
      </trkpt>
      <trkpt lat="38.477627" lon="-2.915424">
        <ele>915.918764</ele>
        <time>2020-08-08T06:52:30.121Z</time>
      </trkpt>
      <trkpt lat="38.477711" lon="-2.915480">
        <ele>916.557898</ele>
        <time>2020-08-08T06:52:33.102Z</time>
      </trkpt>
      <trkpt lat="38.477814" lon="-2.915520">
        <ele>917.284067</ele>
        <time>2020-08-08T06:52:37.105Z</time>
      </trkpt>
      <trkpt lat="38.477907" lon="-2.915549">
        <ele>918.108097</ele>
        <time>2020-08-08T06:52:42.103Z</time>
      </trkpt>
      <trkpt lat="38.478009" lon="-2.915597">
        <ele>919.960363</ele>
        <time>2020-08-08T06:52:46.102Z</time>
      </trkpt>
      <trkpt lat="38.478108" lon="-2.915630">
        <ele>921.703807</ele>
        <time>2020-08-08T06:52:49.108Z</time>
      </trkpt>
      <trkpt lat="38.478197" lon="-2.915660">
        <ele>923.272274</ele>
        <time>2020-08-08T06:52:52.092Z</time>
      </trkpt>
      <trkpt lat="38.478299" lon="-2.915679">
        <ele>925.028730</ele>
        <time>2020-08-08T06:52:57.109Z</time>
      </trkpt>
      <trkpt lat="38.478389" lon="-2.915698">
        <ele>926.583127</ele>
        <time>2020-08-08T06:53:02.102Z</time>
      </trkpt>
      <trkpt lat="38.478462" lon="-2.915785">
        <ele>928.284358</ele>
        <time>2020-08-08T06:53:07.112Z</time>
      </trkpt>
      <trkpt lat="38.478546" lon="-2.915832">
        <ele>929.847002</ele>
        <time>2020-08-08T06:53:12.114Z</time>
      </trkpt>
      <trkpt lat="38.478629" lon="-2.915890">
        <ele>931.459109</ele>
        <time>2020-08-08T06:53:17.100Z</time>
      </trkpt>
      <trkpt lat="38.478720" lon="-2.915910">
        <ele>933.032527</ele>
        <time>2020-08-08T06:53:21.115Z</time>
      </trkpt>
      <trkpt lat="38.478814" lon="-2.915937">
        <ele>934.674275</ele>
        <time>2020-08-08T06:53:25.114Z</time>
      </trkpt>
      <trkpt lat="38.478916" lon="-2.915938">
        <ele>936.412400</ele>
        <time>2020-08-08T06:53:29.104Z</time>
      </trkpt>
      <trkpt lat="38.479011" lon="-2.915981">
        <ele>938.129814</ele>
        <time>2020-08-08T06:53:33.111Z</time>
      </trkpt>
      <trkpt lat="38.479107" lon="-2.916009">
        <ele>939.807747</ele>
        <time>2020-08-08T06:53:37.123Z</time>
      </trkpt>
      <trkpt lat="38.479207" lon="-2.916015">
        <ele>941.513619</ele>
        <time>2020-08-08T06:53:41.115Z</time>
      </trkpt>
      <trkpt lat="38.479315" lon="-2.916028">
        <ele>943.362085</ele>
        <time>2020-08-08T06:53:45.108Z</time>
      </trkpt>
      <trkpt lat="38.479421" lon="-2.916012">
        <ele>945.180884</ele>
        <time>2020-08-08T06:53:49.104Z</time>
      </trkpt>
      <trkpt lat="38.479519" lon="-2.915977">
        <ele>946.914836</ele>
        <time>2020-08-08T06:53:53.112Z</time>
      </trkpt>
      <trkpt lat="38.479631" lon="-2.915980">
        <ele>948.086719</ele>
        <time>2020-08-08T06:53:57.111Z</time>
      </trkpt>
      <trkpt lat="38.479748" lon="-2.915991">
        <ele>946.015566</ele>
        <time>2020-08-08T06:54:01.111Z</time>
      </trkpt>
      <trkpt lat="38.479844" lon="-2.915998">
        <ele>944.317984</ele>
        <time>2020-08-08T06:54:04.129Z</time>
      </trkpt>
      <trkpt lat="38.479939" lon="-2.916027">
        <ele>942.593591</ele>
        <time>2020-08-08T06:54:07.112Z</time>
      </trkpt>
      <trkpt lat="38.480032" lon="-2.916030">
        <ele>940.951207</ele>
        <time>2020-08-08T06:54:11.109Z</time>
      </trkpt>
      <trkpt lat="38.480135" lon="-2.916063">
        <ele>939.076482</ele>
        <time>2020-08-08T06:54:15.108Z</time>
      </trkpt>
      <trkpt lat="38.480241" lon="-2.916096">
        <ele>937.150341</ele>
        <time>2020-08-08T06:54:19.107Z</time>
      </trkpt>
      <trkpt lat="38.480340" lon="-2.916106">
        <ele>935.397099</ele>
        <time>2020-08-08T06:54:23.110Z</time>
      </trkpt>
      <trkpt lat="38.480436" lon="-2.916090">
        <ele>933.687911</ele>
        <time>2020-08-08T06:54:27.104Z</time>
      </trkpt>
      <trkpt lat="38.480536" lon="-2.916087">
        <ele>931.921983</ele>
        <time>2020-08-08T06:54:31.110Z</time>
      </trkpt>
      <trkpt lat="38.480640" lon="-2.916069">
        <ele>930.069148</ele>
        <time>2020-08-08T06:54:36.112Z</time>
      </trkpt>
      <trkpt lat="38.480747" lon="-2.916039">
        <ele>928.135162</ele>
        <time>2020-08-08T06:54:41.124Z</time>
      </trkpt>
      <trkpt lat="38.480854" lon="-2.916081">
        <ele>926.158972</ele>
        <time>2020-08-08T06:54:45.125Z</time>
      </trkpt>
      <trkpt lat="38.480947" lon="-2.916119">
        <ele>924.435167</ele>
        <time>2020-08-08T06:54:49.119Z</time>
      </trkpt>
      <trkpt lat="38.481039" lon="-2.916122">
        <ele>922.810432</ele>
        <time>2020-08-08T06:54:54.122Z</time>
      </trkpt>
      <trkpt lat="38.481146" lon="-2.916127">
        <ele>920.920146</ele>
        <time>2020-08-08T06:54:59.121Z</time>
      </trkpt>
      <trkpt lat="38.481254" lon="-2.916116">
        <ele>919.007419</ele>
        <time>2020-08-08T06:55:05.128Z</time>
      </trkpt>
      <trkpt lat="38.481361" lon="-2.916102">
        <ele>917.108514</ele>
        <time>2020-08-08T06:55:11.098Z</time>
      </trkpt>
      <trkpt lat="38.481452" lon="-2.916085">
        <ele>916.820300</ele>
        <time>2020-08-08T06:55:16.099Z</time>
      </trkpt>
      <trkpt lat="38.481553" lon="-2.916074">
        <ele>916.984993</ele>
        <time>2020-08-08T06:55:21.121Z</time>
      </trkpt>
      <trkpt lat="38.481647" lon="-2.916054">
        <ele>917.139821</ele>
        <time>2020-08-08T06:55:26.111Z</time>
      </trkpt>
      <trkpt lat="38.481732" lon="-2.916098">
        <ele>917.288831</ele>
        <time>2020-08-08T06:55:31.117Z</time>
      </trkpt>
      <trkpt lat="38.481818" lon="-2.916164">
        <ele>917.451833</ele>
        <time>2020-08-08T06:55:37.100Z</time>
      </trkpt>
      <trkpt lat="38.481917" lon="-2.916197">
        <ele>917.618067</ele>
        <time>2020-08-08T06:55:42.103Z</time>
      </trkpt>
      <trkpt lat="38.482012" lon="-2.916219">
        <ele>917.774932</ele>
        <time>2020-08-08T06:55:46.111Z</time>
      </trkpt>
      <trkpt lat="38.482098" lon="-2.916258">
        <ele>917.923202</ele>
        <time>2020-08-08T06:55:50.111Z</time>
      </trkpt>
      <trkpt lat="38.482188" lon="-2.916340">
        <ele>918.102808</ele>
        <time>2020-08-08T06:55:55.110Z</time>
      </trkpt>
      <trkpt lat="38.482285" lon="-2.916410">
        <ele>918.283815</ele>
        <time>2020-08-08T06:55:59.111Z</time>
      </trkpt>
      <trkpt lat="38.482384" lon="-2.916441">
        <ele>918.449425</ele>
        <time>2020-08-08T06:56:04.118Z</time>
      </trkpt>
      <trkpt lat="38.482483" lon="-2.916464">
        <ele>918.612911</ele>
        <time>2020-08-08T06:56:09.099Z</time>
      </trkpt>
      <trkpt lat="38.482569" lon="-2.916526">
        <ele>918.773353</ele>
        <time>2020-08-08T06:56:14.121Z</time>
      </trkpt>
      <trkpt lat="38.482638" lon="-2.916609">
        <ele>918.927337</ele>
        <time>2020-08-08T06:56:18.132Z</time>
      </trkpt>
      <trkpt lat="38.482724" lon="-2.916648">
        <ele>919.075606</ele>
        <time>2020-08-08T06:56:23.092Z</time>
      </trkpt>
      <trkpt lat="38.482816" lon="-2.916649">
        <ele>919.225087</ele>
        <time>2020-08-08T06:56:27.096Z</time>
      </trkpt>
      <trkpt lat="38.482910" lon="-2.916696">
        <ele>919.389093</ele>
        <time>2020-08-08T06:56:31.117Z</time>
      </trkpt>
      <trkpt lat="38.482988" lon="-2.916758">
        <ele>919.538351</ele>
        <time>2020-08-08T06:56:35.109Z</time>
      </trkpt>
      <trkpt lat="38.483089" lon="-2.916804">
        <ele>919.645993</ele>
        <time>2020-08-08T06:56:40.119Z</time>
      </trkpt>
      <trkpt lat="38.483181" lon="-2.916876">
        <ele>919.679834</ele>
        <time>2020-08-08T06:56:45.107Z</time>
      </trkpt>
      <trkpt lat="38.483279" lon="-2.916935">
        <ele>919.713816</ele>
        <time>2020-08-08T06:56:50.110Z</time>
      </trkpt>
      <trkpt lat="38.483368" lon="-2.916984">
        <ele>919.744215</ele>
        <time>2020-08-08T06:56:54.109Z</time>
      </trkpt>
      <trkpt lat="38.483463" lon="-2.917015">
        <ele>919.774969</ele>
        <time>2020-08-08T06:56:59.111Z</time>
      </trkpt>
      <trkpt lat="38.483562" lon="-2.917060">
        <ele>919.807929</ele>
        <time>2020-08-08T06:57:04.113Z</time>
      </trkpt>
      <trkpt lat="38.483648" lon="-2.917100">
        <ele>919.836637</ele>
        <time>2020-08-08T06:57:08.120Z</time>
      </trkpt>
      <trkpt lat="38.483746" lon="-2.917137">
        <ele>919.868690</ele>
        <time>2020-08-08T06:57:12.117Z</time>
      </trkpt>
      <trkpt lat="38.483839" lon="-2.917170">
        <ele>919.898965</ele>
        <time>2020-08-08T06:57:16.119Z</time>
      </trkpt>
      <trkpt lat="38.483930" lon="-2.917208">
        <ele>919.928995</ele>
        <time>2020-08-08T06:57:20.110Z</time>
      </trkpt>
      <trkpt lat="38.484040" lon="-2.917233">
        <ele>919.964040</ele>
        <time>2020-08-08T06:57:24.103Z</time>
      </trkpt>
      <trkpt lat="38.484153" lon="-2.917264">
        <ele>920.000292</ele>
        <time>2020-08-08T06:57:28.120Z</time>
      </trkpt>
      <trkpt lat="38.484263" lon="-2.917286">
        <ele>920.035216</ele>
        <time>2020-08-08T06:57:32.107Z</time>
      </trkpt>
      <trkpt lat="38.484349" lon="-2.917337">
        <ele>920.064956</ele>
        <time>2020-08-08T06:57:36.142Z</time>
      </trkpt>
      <trkpt lat="38.484459" lon="-2.917365">
        <ele>920.100137</ele>
        <time>2020-08-08T06:57:40.117Z</time>
      </trkpt>
      <trkpt lat="38.484552" lon="-2.917361">
        <ele>920.129324</ele>
        <time>2020-08-08T06:57:43.110Z</time>
      </trkpt>
      <trkpt lat="38.484652" lon="-2.917383">
        <ele>920.161152</ele>
        <time>2020-08-08T06:57:47.112Z</time>
      </trkpt>
      <trkpt lat="38.484757" lon="-2.917410">
        <ele>920.196139</ele>
        <time>2020-08-08T06:57:51.113Z</time>
      </trkpt>
      <trkpt lat="38.484863" lon="-2.917436">
        <ele>920.322149</ele>
        <time>2020-08-08T06:57:55.127Z</time>
      </trkpt>
      <trkpt lat="38.484957" lon="-2.917470">
        <ele>920.436202</ele>
        <time>2020-08-08T06:57:58.114Z</time>
      </trkpt>
      <trkpt lat="38.485059" lon="-2.917509">
        <ele>920.560500</ele>
        <time>2020-08-08T06:58:01.115Z</time>
      </trkpt>
      <trkpt lat="38.485150" lon="-2.917555">
        <ele>920.674752</ele>
        <time>2020-08-08T06:58:04.117Z</time>
      </trkpt>
      <trkpt lat="38.485227" lon="-2.917621">
        <ele>920.783003</ele>
        <time>2020-08-08T06:58:08.100Z</time>
      </trkpt>
      <trkpt lat="38.485315" lon="-2.917703">
        <ele>920.910163</ele>
        <time>2020-08-08T06:58:12.108Z</time>
      </trkpt>
      <trkpt lat="38.485405" lon="-2.917790">
        <ele>921.041923</ele>
        <time>2020-08-08T06:58:16.115Z</time>
      </trkpt>
      <trkpt lat="38.485471" lon="-2.917882">
        <ele>921.155962</ele>
        <time>2020-08-08T06:58:20.118Z</time>
      </trkpt>
      <trkpt lat="38.485545" lon="-2.917974">
        <ele>921.276509</ele>
        <time>2020-08-08T06:58:24.116Z</time>
      </trkpt>
      <trkpt lat="38.485615" lon="-2.918052">
        <ele>921.384948</ele>
        <time>2020-08-08T06:58:28.119Z</time>
      </trkpt>
      <trkpt lat="38.485697" lon="-2.918150">
        <ele>921.516038</ele>
        <time>2020-08-08T06:58:32.107Z</time>
      </trkpt>
      <trkpt lat="38.485774" lon="-2.918240">
        <ele>921.637878</ele>
        <time>2020-08-08T06:58:36.112Z</time>
      </trkpt>
      <trkpt lat="38.485850" lon="-2.918343">
        <ele>921.767229</ele>
        <time>2020-08-08T06:58:41.110Z</time>
      </trkpt>
      <trkpt lat="38.485923" lon="-2.918444">
        <ele>921.892854</ele>
        <time>2020-08-08T06:58:46.098Z</time>
      </trkpt>
      <trkpt lat="38.485995" lon="-2.918560">
        <ele>922.028140</ele>
        <time>2020-08-08T06:58:49.115Z</time>
      </trkpt>
      <trkpt lat="38.486070" lon="-2.918657">
        <ele>922.152734</ele>
        <time>2020-08-08T06:58:53.109Z</time>
      </trkpt>
      <trkpt lat="38.486139" lon="-2.918752">
        <ele>922.271163</ele>
        <time>2020-08-08T06:58:58.117Z</time>
      </trkpt>
      <trkpt lat="38.486184" lon="-2.918852">
        <ele>922.552215</ele>
        <time>2020-08-08T06:59:02.104Z</time>
      </trkpt>
      <trkpt lat="38.486237" lon="-2.918948">
        <ele>922.888062</ele>
        <time>2020-08-08T06:59:07.109Z</time>
      </trkpt>
      <trkpt lat="38.486321" lon="-2.919006">
        <ele>923.236798</ele>
        <time>2020-08-08T06:59:13.116Z</time>
      </trkpt>
      <trkpt lat="38.486429" lon="-2.919072">
        <ele>923.674052</ele>
        <time>2020-08-08T06:59:18.109Z</time>
      </trkpt>
      <trkpt lat="38.486536" lon="-2.919159">
        <ele>924.137284</ele>
        <time>2020-08-08T06:59:21.106Z</time>
      </trkpt>
      <trkpt lat="38.486632" lon="-2.919244">
        <ele>924.563881</ele>
        <time>2020-08-08T06:59:24.109Z</time>
      </trkpt>
      <trkpt lat="38.486699" lon="-2.919341">
        <ele>924.933719</ele>
        <time>2020-08-08T06:59:28.126Z</time>
      </trkpt>
      <trkpt lat="38.486756" lon="-2.919454">
        <ele>925.318037</ele>
        <time>2020-08-08T06:59:33.111Z</time>
      </trkpt>
      <trkpt lat="38.486809" lon="-2.919553">
        <ele>925.660927</ele>
        <time>2020-08-08T06:59:37.105Z</time>
      </trkpt>
      <trkpt lat="38.486876" lon="-2.919635">
        <ele>925.999801</ele>
        <time>2020-08-08T06:59:41.112Z</time>
      </trkpt>
      <trkpt lat="38.486951" lon="-2.919710">
        <ele>926.347661</ele>
        <time>2020-08-08T06:59:45.098Z</time>
      </trkpt>
      <trkpt lat="38.487035" lon="-2.919787">
        <ele>926.725258</ele>
        <time>2020-08-08T06:59:49.128Z</time>
      </trkpt>
      <trkpt lat="38.487105" lon="-2.919865">
        <ele>927.064502</ele>
        <time>2020-08-08T07:00:42.112Z</time>
      </trkpt>
      <trkpt lat="38.487188" lon="-2.919920">
        <ele>927.405995</ele>
        <time>2020-08-08T07:00:49.101Z</time>
      </trkpt>
      <trkpt lat="38.487250" lon="-2.920016">
        <ele>927.761801</ele>
        <time>2020-08-08T07:00:58.099Z</time>
      </trkpt>
      <trkpt lat="38.487309" lon="-2.920128">
        <ele>928.147747</ele>
        <time>2020-08-08T07:01:04.123Z</time>
      </trkpt>
      <trkpt lat="38.487351" lon="-2.920231">
        <ele>928.479766</ele>
        <time>2020-08-08T07:01:19.118Z</time>
      </trkpt>
      <trkpt lat="38.487421" lon="-2.920309">
        <ele>928.819010</ele>
        <time>2020-08-08T07:01:26.103Z</time>
      </trkpt>
      <trkpt lat="38.487480" lon="-2.920408">
        <ele>929.125541</ele>
        <time>2020-08-08T07:01:30.114Z</time>
      </trkpt>
      <trkpt lat="38.487535" lon="-2.920517">
        <ele>929.437742</ele>
        <time>2020-08-08T07:01:35.117Z</time>
      </trkpt>
      <trkpt lat="38.487591" lon="-2.920635">
        <ele>929.769946</ele>
        <time>2020-08-08T07:01:40.112Z</time>
      </trkpt>
      <trkpt lat="38.487648" lon="-2.920735">
        <ele>930.067750</ele>
        <time>2020-08-08T07:01:44.113Z</time>
      </trkpt>
      <trkpt lat="38.487715" lon="-2.920825">
        <ele>930.366756</ele>
        <time>2020-08-08T07:01:50.105Z</time>
      </trkpt>
      <trkpt lat="38.487781" lon="-2.920914">
        <ele>930.661899</ele>
        <time>2020-08-08T07:02:05.097Z</time>
      </trkpt>
      <trkpt lat="38.487847" lon="-2.920999">
        <ele>930.950127</ele>
        <time>2020-08-08T07:02:13.107Z</time>
      </trkpt>
      <trkpt lat="38.487883" lon="-2.921116">
        <ele>931.252769</ele>
        <time>2020-08-08T07:02:19.109Z</time>
      </trkpt>
      <trkpt lat="38.487927" lon="-2.921230">
        <ele>931.558759</ele>
        <time>2020-08-08T07:02:24.108Z</time>
      </trkpt>
      <trkpt lat="38.487956" lon="-2.921346">
        <ele>931.851911</ele>
        <time>2020-08-08T07:02:28.115Z</time>
      </trkpt>
      <trkpt lat="38.487999" lon="-2.921449">
        <ele>932.132932</ele>
        <time>2020-08-08T07:02:32.113Z</time>
      </trkpt>
      <trkpt lat="38.488053" lon="-2.921543">
        <ele>932.413629</ele>
        <time>2020-08-08T07:02:36.119Z</time>
      </trkpt>
      <trkpt lat="38.488105" lon="-2.921642">
        <ele>932.700644</ele>
        <time>2020-08-08T07:02:40.111Z</time>
      </trkpt>
      <trkpt lat="38.488156" lon="-2.921749">
        <ele>933.002231</ele>
        <time>2020-08-08T07:02:43.114Z</time>
      </trkpt>
      <trkpt lat="38.488219" lon="-2.921837">
        <ele>933.289323</ele>
        <time>2020-08-08T07:02:47.112Z</time>
      </trkpt>
      <trkpt lat="38.488279" lon="-2.921929">
        <ele>933.577602</ele>
        <time>2020-08-08T07:02:53.108Z</time>
      </trkpt>
      <trkpt lat="38.488326" lon="-2.922029">
        <ele>933.858402</ele>
        <time>2020-08-08T07:02:57.104Z</time>
      </trkpt>
      <trkpt lat="38.488359" lon="-2.922159">
        <ele>934.187403</ele>
        <time>2020-08-08T07:03:01.107Z</time>
      </trkpt>
      <trkpt lat="38.488388" lon="-2.922288">
        <ele>934.472903</ele>
        <time>2020-08-08T07:03:05.336Z</time>
      </trkpt>
      <trkpt lat="38.488444" lon="-2.922405">
        <ele>934.695502</ele>
        <time>2020-08-08T07:03:09.318Z</time>
      </trkpt>
      <trkpt lat="38.488490" lon="-2.922521">
        <ele>934.906572</ele>
        <time>2020-08-08T07:03:14.324Z</time>
      </trkpt>
      <trkpt lat="38.488534" lon="-2.922648">
        <ele>935.132002</ele>
        <time>2020-08-08T07:03:19.316Z</time>
      </trkpt>
      <trkpt lat="38.488587" lon="-2.922752">
        <ele>935.333435</ele>
        <time>2020-08-08T07:03:23.316Z</time>
      </trkpt>
      <trkpt lat="38.488644" lon="-2.922863">
        <ele>935.548916</ele>
        <time>2020-08-08T07:03:27.313Z</time>
      </trkpt>
      <trkpt lat="38.488711" lon="-2.922961">
        <ele>935.760118</ele>
        <time>2020-08-08T07:03:32.321Z</time>
      </trkpt>
      <trkpt lat="38.488779" lon="-2.923060">
        <ele>935.973907</ele>
        <time>2020-08-08T07:03:37.312Z</time>
      </trkpt>
      <trkpt lat="38.488844" lon="-2.923147">
        <ele>936.169123</ele>
        <time>2020-08-08T07:03:41.321Z</time>
      </trkpt>
      <trkpt lat="38.488898" lon="-2.923242">
        <ele>936.359692</ele>
        <time>2020-08-08T07:03:46.314Z</time>
      </trkpt>
      <trkpt lat="38.488962" lon="-2.923326">
        <ele>936.549963</ele>
        <time>2020-08-08T07:03:50.329Z</time>
      </trkpt>
      <trkpt lat="38.489024" lon="-2.923434">
        <ele>936.767356</ele>
        <time>2020-08-08T07:03:55.315Z</time>
      </trkpt>
      <trkpt lat="38.489072" lon="-2.923541">
        <ele>936.967533</ele>
        <time>2020-08-08T07:04:00.289Z</time>
      </trkpt>
      <trkpt lat="38.489116" lon="-2.923641">
        <ele>937.153733</ele>
        <time>2020-08-08T07:04:05.321Z</time>
      </trkpt>
      <trkpt lat="38.489175" lon="-2.923757">
        <ele>937.378277</ele>
        <time>2020-08-08T07:04:09.325Z</time>
      </trkpt>
      <trkpt lat="38.489242" lon="-2.923857">
        <ele>937.591933</ele>
        <time>2020-08-08T07:04:14.316Z</time>
      </trkpt>
      <trkpt lat="38.489315" lon="-2.923951">
        <ele>937.806862</ele>
        <time>2020-08-08T07:04:19.322Z</time>
      </trkpt>
      <trkpt lat="38.489388" lon="-2.924034">
        <ele>938.009508</ele>
        <time>2020-08-08T07:04:23.310Z</time>
      </trkpt>
      <trkpt lat="38.489466" lon="-2.924113">
        <ele>938.390690</ele>
        <time>2020-08-08T07:04:27.325Z</time>
      </trkpt>
      <trkpt lat="38.489533" lon="-2.924192">
        <ele>938.942816</ele>
        <time>2020-08-08T07:04:31.339Z</time>
      </trkpt>
      <trkpt lat="38.489608" lon="-2.924288">
        <ele>939.585734</ele>
        <time>2020-08-08T07:04:36.317Z</time>
      </trkpt>
      <trkpt lat="38.489680" lon="-2.924389">
        <ele>940.233269</ele>
        <time>2020-08-08T07:04:41.328Z</time>
      </trkpt>
      <trkpt lat="38.489753" lon="-2.924485">
        <ele>940.867688</ele>
        <time>2020-08-08T07:04:46.309Z</time>
      </trkpt>
      <trkpt lat="38.489815" lon="-2.924588">
        <ele>941.483583</ele>
        <time>2020-08-08T07:04:50.324Z</time>
      </trkpt>
      <trkpt lat="38.489876" lon="-2.924697">
        <ele>942.118715</ele>
        <time>2020-08-08T07:04:55.320Z</time>
      </trkpt>
      <trkpt lat="38.489943" lon="-2.924812">
        <ele>942.798240</ele>
        <time>2020-08-08T07:05:00.313Z</time>
      </trkpt>
      <trkpt lat="38.490008" lon="-2.924904">
        <ele>943.385696</ele>
        <time>2020-08-08T07:05:22.309Z</time>
      </trkpt>
      <trkpt lat="38.490055" lon="-2.925021">
        <ele>944.009045</ele>
        <time>2020-08-08T07:05:29.308Z</time>
      </trkpt>
      <trkpt lat="38.490117" lon="-2.925128">
        <ele>944.640073</ele>
        <time>2020-08-08T07:05:35.322Z</time>
      </trkpt>
      <trkpt lat="38.490168" lon="-2.925230">
        <ele>945.213775</ele>
        <time>2020-08-08T07:05:40.330Z</time>
      </trkpt>
      <trkpt lat="38.490261" lon="-2.925265">
        <ele>945.800889</ele>
        <time>2020-08-08T07:05:46.312Z</time>
      </trkpt>
      <trkpt lat="38.490377" lon="-2.925336">
        <ele>946.579812</ele>
        <time>2020-08-08T07:08:27.331Z</time>
      </trkpt>
      <trkpt lat="38.490497" lon="-2.925350">
        <ele>947.309530</ele>
        <time>2020-08-08T07:08:57.310Z</time>
      </trkpt>
      <trkpt lat="38.490608" lon="-2.925377">
        <ele>947.993797</ele>
        <time>2020-08-08T07:09:03.297Z</time>
      </trkpt>
      <trkpt lat="38.490712" lon="-2.925404">
        <ele>948.636470</ele>
        <time>2020-08-08T07:09:08.308Z</time>
      </trkpt>
      <trkpt lat="38.490812" lon="-2.925426">
        <ele>948.956048</ele>
        <time>2020-08-08T07:09:13.312Z</time>
      </trkpt>
      <trkpt lat="38.490907" lon="-2.925464">
        <ele>948.798672</ele>
        <time>2020-08-08T07:09:18.296Z</time>
      </trkpt>
      <trkpt lat="38.491000" lon="-2.925499">
        <ele>948.645401</ele>
        <time>2020-08-08T07:09:23.305Z</time>
      </trkpt>
      <trkpt lat="38.491092" lon="-2.925533">
        <ele>948.493994</ele>
        <time>2020-08-08T07:09:28.311Z</time>
      </trkpt>
      <trkpt lat="38.491193" lon="-2.925560">
        <ele>948.330863</ele>
        <time>2020-08-08T07:09:33.301Z</time>
      </trkpt>
      <trkpt lat="38.491311" lon="-2.925590">
        <ele>948.140657</ele>
        <time>2020-08-08T07:09:37.308Z</time>
      </trkpt>
      <trkpt lat="38.491401" lon="-2.925602">
        <ele>947.997601</ele>
        <time>2020-08-08T07:09:40.313Z</time>
      </trkpt>
      <trkpt lat="38.491504" lon="-2.925611">
        <ele>947.834386</ele>
        <time>2020-08-08T07:09:43.313Z</time>
      </trkpt>
      <trkpt lat="38.491626" lon="-2.925599">
        <ele>947.640943</ele>
        <time>2020-08-08T07:09:46.309Z</time>
      </trkpt>
      <trkpt lat="38.491720" lon="-2.925590">
        <ele>947.491920</ele>
        <time>2020-08-08T07:09:48.309Z</time>
      </trkpt>
      <trkpt lat="38.491815" lon="-2.925602">
        <ele>947.341001</ele>
        <time>2020-08-08T07:09:50.320Z</time>
      </trkpt>
      <trkpt lat="38.491907" lon="-2.925614">
        <ele>947.194800</ele>
        <time>2020-08-08T07:09:52.310Z</time>
      </trkpt>
      <trkpt lat="38.491998" lon="-2.925627">
        <ele>947.050040</ele>
        <time>2020-08-08T07:09:54.312Z</time>
      </trkpt>
      <trkpt lat="38.492091" lon="-2.925644">
        <ele>946.901517</ele>
        <time>2020-08-08T07:09:56.309Z</time>
      </trkpt>
      <trkpt lat="38.492184" lon="-2.925688">
        <ele>946.744735</ele>
        <time>2020-08-08T07:09:58.304Z</time>
      </trkpt>
      <trkpt lat="38.492277" lon="-2.925705">
        <ele>946.596212</ele>
        <time>2020-08-08T07:10:00.299Z</time>
      </trkpt>
      <trkpt lat="38.492408" lon="-2.925740">
        <ele>946.384632</ele>
        <time>2020-08-08T07:10:03.311Z</time>
      </trkpt>
      <trkpt lat="38.492498" lon="-2.925768">
        <ele>946.238192</ele>
        <time>2020-08-08T07:10:05.308Z</time>
      </trkpt>
      <trkpt lat="38.492598" lon="-2.925775">
        <ele>946.011308</ele>
        <time>2020-08-08T07:10:07.295Z</time>
      </trkpt>
      <trkpt lat="38.492735" lon="-2.925769">
        <ele>945.636083</ele>
        <time>2020-08-08T07:10:10.312Z</time>
      </trkpt>
      <trkpt lat="38.492834" lon="-2.925783">
        <ele>945.363440</ele>
        <time>2020-08-08T07:10:12.315Z</time>
      </trkpt>
      <trkpt lat="38.492924" lon="-2.925794">
        <ele>945.115962</ele>
        <time>2020-08-08T07:10:14.317Z</time>
      </trkpt>
      <trkpt lat="38.493035" lon="-2.925816">
        <ele>944.808492</ele>
        <time>2020-08-08T07:10:16.311Z</time>
      </trkpt>
      <trkpt lat="38.493145" lon="-2.925843">
        <ele>944.501888</ele>
        <time>2020-08-08T07:10:18.310Z</time>
      </trkpt>
      <trkpt lat="38.493270" lon="-2.925826">
        <ele>944.157798</ele>
        <time>2020-08-08T07:10:20.314Z</time>
      </trkpt>
      <trkpt lat="38.493370" lon="-2.925846">
        <ele>943.880739</ele>
        <time>2020-08-08T07:10:22.305Z</time>
      </trkpt>
      <trkpt lat="38.493477" lon="-2.925839">
        <ele>943.587469</ele>
        <time>2020-08-08T07:10:24.314Z</time>
      </trkpt>
      <trkpt lat="38.493596" lon="-2.925830">
        <ele>943.261165</ele>
        <time>2020-08-08T07:10:26.319Z</time>
      </trkpt>
      <trkpt lat="38.493688" lon="-2.925828">
        <ele>943.009301</ele>
        <time>2020-08-08T07:10:28.324Z</time>
      </trkpt>
      <trkpt lat="38.493777" lon="-2.925809">
        <ele>942.762308</ele>
        <time>2020-08-08T07:10:30.307Z</time>
      </trkpt>
      <trkpt lat="38.493879" lon="-2.925798">
        <ele>942.482114</ele>
        <time>2020-08-08T07:10:32.291Z</time>
      </trkpt>
      <trkpt lat="38.493970" lon="-2.925805">
        <ele>942.232573</ele>
        <time>2020-08-08T07:10:34.309Z</time>
      </trkpt>
      <trkpt lat="38.494078" lon="-2.925796">
        <ele>941.936321</ele>
        <time>2020-08-08T07:10:36.327Z</time>
      </trkpt>
      <trkpt lat="38.494173" lon="-2.925785">
        <ele>941.675216</ele>
        <time>2020-08-08T07:10:38.317Z</time>
      </trkpt>
      <trkpt lat="38.494265" lon="-2.925769">
        <ele>941.421066</ele>
        <time>2020-08-08T07:10:40.308Z</time>
      </trkpt>
      <trkpt lat="38.494393" lon="-2.925754">
        <ele>941.415393</ele>
        <time>2020-08-08T07:10:43.311Z</time>
      </trkpt>
      <trkpt lat="38.494483" lon="-2.925721">
        <ele>941.649230</ele>
        <time>2020-08-08T07:10:46.311Z</time>
      </trkpt>
      <trkpt lat="38.494590" lon="-2.925709">
        <ele>941.917477</ele>
        <time>2020-08-08T07:10:49.321Z</time>
      </trkpt>
      <trkpt lat="38.494691" lon="-2.925688">
        <ele>942.173031</ele>
        <time>2020-08-08T07:10:52.318Z</time>
      </trkpt>
      <trkpt lat="38.494807" lon="-2.925683">
        <ele>942.462893</ele>
        <time>2020-08-08T07:10:56.308Z</time>
      </trkpt>
      <trkpt lat="38.494906" lon="-2.925715">
        <ele>942.717923</ele>
        <time>2020-08-08T07:10:59.319Z</time>
      </trkpt>
      <trkpt lat="38.495007" lon="-2.925766">
        <ele>942.989143</ele>
        <time>2020-08-08T07:11:02.308Z</time>
      </trkpt>
      <trkpt lat="38.495115" lon="-2.925794">
        <ele>943.264357</ele>
        <time>2020-08-08T07:11:05.313Z</time>
      </trkpt>
      <trkpt lat="38.495214" lon="-2.925812">
        <ele>943.514089</ele>
        <time>2020-08-08T07:11:08.310Z</time>
      </trkpt>
      <trkpt lat="38.495310" lon="-2.925837">
        <ele>943.758768</ele>
        <time>2020-08-08T07:11:12.307Z</time>
      </trkpt>
      <trkpt lat="38.495414" lon="-2.925866">
        <ele>944.024609</ele>
        <time>2020-08-08T07:11:17.328Z</time>
      </trkpt>
      <trkpt lat="38.495506" lon="-2.925868">
        <ele>944.254402</ele>
        <time>2020-08-08T07:11:22.325Z</time>
      </trkpt>
      <trkpt lat="38.495603" lon="-2.925878">
        <ele>944.497436</ele>
        <time>2020-08-08T07:11:27.312Z</time>
      </trkpt>
      <trkpt lat="38.495696" lon="-2.925891">
        <ele>944.731079</ele>
        <time>2020-08-08T07:11:32.309Z</time>
      </trkpt>
      <trkpt lat="38.495802" lon="-2.925881">
        <ele>944.996522</ele>
        <time>2020-08-08T07:11:37.308Z</time>
      </trkpt>
      <trkpt lat="38.495902" lon="-2.925897">
        <ele>945.248211</ele>
        <time>2020-08-08T07:11:41.299Z</time>
      </trkpt>
      <trkpt lat="38.496020" lon="-2.925911">
        <ele>945.544171</ele>
        <time>2020-08-08T07:11:45.307Z</time>
      </trkpt>
      <trkpt lat="38.496115" lon="-2.925918">
        <ele>945.708359</ele>
        <time>2020-08-08T07:11:48.311Z</time>
      </trkpt>
      <trkpt lat="38.496225" lon="-2.925951">
        <ele>945.468003</ele>
        <time>2020-08-08T07:11:51.317Z</time>
      </trkpt>
      <trkpt lat="38.496342" lon="-2.925983">
        <ele>945.213481</ele>
        <time>2020-08-08T07:11:54.315Z</time>
      </trkpt>
      <trkpt lat="38.496458" lon="-2.926024">
        <ele>944.957457</ele>
        <time>2020-08-08T07:11:57.318Z</time>
      </trkpt>
      <trkpt lat="38.496579" lon="-2.926072">
        <ele>944.687944</ele>
        <time>2020-08-08T07:12:00.316Z</time>
      </trkpt>
      <trkpt lat="38.496698" lon="-2.926132">
        <ele>944.415810</ele>
        <time>2020-08-08T07:12:03.313Z</time>
      </trkpt>
      <trkpt lat="38.496807" lon="-2.926199">
        <ele>944.158508</ele>
        <time>2020-08-08T07:12:06.304Z</time>
      </trkpt>
      <trkpt lat="38.496922" lon="-2.926290">
        <ele>943.870765</ele>
        <time>2020-08-08T07:12:09.311Z</time>
      </trkpt>
      <trkpt lat="38.497004" lon="-2.926343">
        <ele>943.675286</ele>
        <time>2020-08-08T07:12:11.326Z</time>
      </trkpt>
      <trkpt lat="38.497101" lon="-2.926423">
        <ele>943.429695</ele>
        <time>2020-08-08T07:12:13.324Z</time>
      </trkpt>
      <trkpt lat="38.497203" lon="-2.926504">
        <ele>943.174228</ele>
        <time>2020-08-08T07:12:15.309Z</time>
      </trkpt>
      <trkpt lat="38.497292" lon="-2.926582">
        <ele>942.944651</ele>
        <time>2020-08-08T07:12:17.325Z</time>
      </trkpt>
      <trkpt lat="38.497383" lon="-2.926684">
        <ele>942.687147</ele>
        <time>2020-08-08T07:12:19.306Z</time>
      </trkpt>
      <trkpt lat="38.497475" lon="-2.926771">
        <ele>942.443675</ele>
        <time>2020-08-08T07:12:21.320Z</time>
      </trkpt>
      <trkpt lat="38.497580" lon="-2.926854">
        <ele>942.181030</ele>
        <time>2020-08-08T07:12:23.304Z</time>
      </trkpt>
      <trkpt lat="38.497706" lon="-2.926918">
        <ele>941.844621</ele>
        <time>2020-08-08T07:12:25.308Z</time>
      </trkpt>
      <trkpt lat="38.497831" lon="-2.926991">
        <ele>940.954170</ele>
        <time>2020-08-08T07:12:27.308Z</time>
      </trkpt>
      <trkpt lat="38.497977" lon="-2.927030">
        <ele>939.987794</ele>
        <time>2020-08-08T07:12:29.309Z</time>
      </trkpt>
      <trkpt lat="38.498130" lon="-2.927096">
        <ele>938.941548</ele>
        <time>2020-08-08T07:12:31.309Z</time>
      </trkpt>
      <trkpt lat="38.498280" lon="-2.927161">
        <ele>937.915339</ele>
        <time>2020-08-08T07:12:33.315Z</time>
      </trkpt>
      <trkpt lat="38.498440" lon="-2.927204">
        <ele>936.856026</ele>
        <time>2020-08-08T07:12:35.305Z</time>
      </trkpt>
      <trkpt lat="38.498599" lon="-2.927270">
        <ele>935.772878</ele>
        <time>2020-08-08T07:12:37.318Z</time>
      </trkpt>
      <trkpt lat="38.498780" lon="-2.927307">
        <ele>934.585276</ele>
        <time>2020-08-08T07:12:39.304Z</time>
      </trkpt>
      <trkpt lat="38.498947" lon="-2.927316">
        <ele>933.502331</ele>
        <time>2020-08-08T07:12:41.314Z</time>
      </trkpt>
      <trkpt lat="38.499125" lon="-2.927295">
        <ele>932.344173</ele>
        <time>2020-08-08T07:12:43.307Z</time>
      </trkpt>
      <trkpt lat="38.499223" lon="-2.927307">
        <ele>931.706328</ele>
        <time>2020-08-08T07:12:44.311Z</time>
      </trkpt>
      <trkpt lat="38.499406" lon="-2.927319">
        <ele>930.519120</ele>
        <time>2020-08-08T07:12:46.305Z</time>
      </trkpt>
      <trkpt lat="38.499575" lon="-2.927328">
        <ele>930.107774</ele>
        <time>2020-08-08T07:12:48.309Z</time>
      </trkpt>
      <trkpt lat="38.499752" lon="-2.927349">
        <ele>929.895178</ele>
        <time>2020-08-08T07:12:50.303Z</time>
      </trkpt>
      <trkpt lat="38.499851" lon="-2.927362">
        <ele>929.776154</ele>
        <time>2020-08-08T07:12:51.300Z</time>
      </trkpt>
      <trkpt lat="38.499943" lon="-2.927375">
        <ele>929.665454</ele>
        <time>2020-08-08T07:12:52.297Z</time>
      </trkpt>
      <trkpt lat="38.500105" lon="-2.927418">
        <ele>929.467572</ele>
        <time>2020-08-08T07:12:54.306Z</time>
      </trkpt>
      <trkpt lat="38.500210" lon="-2.927421">
        <ele>929.341964</ele>
        <time>2020-08-08T07:12:57.309Z</time>
      </trkpt>
      <trkpt lat="38.500563" lon="-2.927572">
        <ele>928.896760</ele>
        <time>2020-08-08T07:15:17.619Z</time>
      </trkpt>
      <trkpt lat="38.500680" lon="-2.927564">
        <ele>928.756632</ele>
        <time>2020-08-08T07:15:19.603Z</time>
      </trkpt>
      <trkpt lat="38.500790" lon="-2.927604">
        <ele>928.619853</ele>
        <time>2020-08-08T07:15:21.625Z</time>
      </trkpt>
      <trkpt lat="38.500912" lon="-2.927619">
        <ele>928.473271</ele>
        <time>2020-08-08T07:15:23.611Z</time>
      </trkpt>
      <trkpt lat="38.501029" lon="-2.927666">
        <ele>928.326591</ele>
        <time>2020-08-08T07:15:25.614Z</time>
      </trkpt>
      <trkpt lat="38.501156" lon="-2.927727">
        <ele>928.164328</ele>
        <time>2020-08-08T07:15:27.605Z</time>
      </trkpt>
      <trkpt lat="38.501262" lon="-2.927783">
        <ele>927.988849</ele>
        <time>2020-08-08T07:15:29.608Z</time>
      </trkpt>
      <trkpt lat="38.501364" lon="-2.927850">
        <ele>927.789504</ele>
        <time>2020-08-08T07:15:31.599Z</time>
      </trkpt>
      <trkpt lat="38.501464" lon="-2.927913">
        <ele>927.595712</ele>
        <time>2020-08-08T07:15:33.606Z</time>
      </trkpt>
      <trkpt lat="38.501568" lon="-2.927971">
        <ele>927.398478</ele>
        <time>2020-08-08T07:15:35.614Z</time>
      </trkpt>
      <trkpt lat="38.501684" lon="-2.928011">
        <ele>927.189640</ele>
        <time>2020-08-08T07:15:37.615Z</time>
      </trkpt>
      <trkpt lat="38.501770" lon="-2.928054">
        <ele>927.029123</ele>
        <time>2020-08-08T07:15:39.609Z</time>
      </trkpt>
      <trkpt lat="38.501848" lon="-2.928124">
        <ele>926.863451</ele>
        <time>2020-08-08T07:15:41.606Z</time>
      </trkpt>
      <trkpt lat="38.501954" lon="-2.928153">
        <ele>926.675032</ele>
        <time>2020-08-08T07:15:43.605Z</time>
      </trkpt>
      <trkpt lat="38.502063" lon="-2.928184">
        <ele>926.480938</ele>
        <time>2020-08-08T07:15:46.602Z</time>
      </trkpt>
      <trkpt lat="38.502176" lon="-2.928193">
        <ele>926.284146</ele>
        <time>2020-08-08T07:15:49.599Z</time>
      </trkpt>
      <trkpt lat="38.502275" lon="-2.928202">
        <ele>926.111635</ele>
        <time>2020-08-08T07:15:53.604Z</time>
      </trkpt>
      <trkpt lat="38.502376" lon="-2.928231">
        <ele>925.931705</ele>
        <time>2020-08-08T07:15:57.612Z</time>
      </trkpt>
      <trkpt lat="38.502464" lon="-2.928269">
        <ele>925.770250</ele>
        <time>2020-08-08T07:16:00.607Z</time>
      </trkpt>
      <trkpt lat="38.502551" lon="-2.928301">
        <ele>925.612891</ele>
        <time>2020-08-08T07:16:03.599Z</time>
      </trkpt>
      <trkpt lat="38.502634" lon="-2.928362">
        <ele>925.446465</ele>
        <time>2020-08-08T07:16:06.594Z</time>
      </trkpt>
      <trkpt lat="38.502712" lon="-2.928427">
        <ele>925.284607</ele>
        <time>2020-08-08T07:16:09.613Z</time>
      </trkpt>
      <trkpt lat="38.502787" lon="-2.928506">
        <ele>925.115665</ele>
        <time>2020-08-08T07:16:12.602Z</time>
      </trkpt>
      <trkpt lat="38.502859" lon="-2.928589">
        <ele>924.980445</ele>
        <time>2020-08-08T07:16:15.609Z</time>
      </trkpt>
      <trkpt lat="38.502938" lon="-2.928661">
        <ele>924.958917</ele>
        <time>2020-08-08T07:16:18.606Z</time>
      </trkpt>
      <trkpt lat="38.503017" lon="-2.928752">
        <ele>924.935321</ele>
        <time>2020-08-08T07:16:21.607Z</time>
      </trkpt>
      <trkpt lat="38.503088" lon="-2.928841">
        <ele>924.913256</ele>
        <time>2020-08-08T07:16:24.600Z</time>
      </trkpt>
      <trkpt lat="38.503168" lon="-2.928924">
        <ele>924.890394</ele>
        <time>2020-08-08T07:16:27.605Z</time>
      </trkpt>
      <trkpt lat="38.503252" lon="-2.928989">
        <ele>924.868608</ele>
        <time>2020-08-08T07:16:30.605Z</time>
      </trkpt>
      <trkpt lat="38.503335" lon="-2.929062">
        <ele>924.846254</ele>
        <time>2020-08-08T07:16:33.607Z</time>
      </trkpt>
      <trkpt lat="38.503422" lon="-2.929143">
        <ele>924.822373</ele>
        <time>2020-08-08T07:16:36.611Z</time>
      </trkpt>
      <trkpt lat="38.503493" lon="-2.929238">
        <ele>924.799566</ele>
        <time>2020-08-08T07:16:39.604Z</time>
      </trkpt>
      <trkpt lat="38.503579" lon="-2.929290">
        <ele>924.778458</ele>
        <time>2020-08-08T07:16:42.600Z</time>
      </trkpt>
      <trkpt lat="38.503666" lon="-2.929348">
        <ele>924.756688</ele>
        <time>2020-08-08T07:16:45.599Z</time>
      </trkpt>
      <trkpt lat="38.503751" lon="-2.929423">
        <ele>924.733772</ele>
        <time>2020-08-08T07:16:48.615Z</time>
      </trkpt>
      <trkpt lat="38.503830" lon="-2.929499">
        <ele>924.711834</ele>
        <time>2020-08-08T07:16:51.603Z</time>
      </trkpt>
      <trkpt lat="38.503908" lon="-2.929565">
        <ele>924.691079</ele>
        <time>2020-08-08T07:16:54.598Z</time>
      </trkpt>
      <trkpt lat="38.503992" lon="-2.929662">
        <ele>924.665962</ele>
        <time>2020-08-08T07:16:58.603Z</time>
      </trkpt>
      <trkpt lat="38.504081" lon="-2.929750">
        <ele>924.640996</ele>
        <time>2020-08-08T07:17:02.600Z</time>
      </trkpt>
      <trkpt lat="38.504174" lon="-2.929844">
        <ele>924.614690</ele>
        <time>2020-08-08T07:17:06.594Z</time>
      </trkpt>
      <trkpt lat="38.504252" lon="-2.929917">
        <ele>924.593240</ele>
        <time>2020-08-08T07:17:09.603Z</time>
      </trkpt>
      <trkpt lat="38.504333" lon="-2.930000">
        <ele>924.870155</ele>
        <time>2020-08-08T07:17:12.615Z</time>
      </trkpt>
      <trkpt lat="38.504417" lon="-2.930084">
        <ele>925.287920</ele>
        <time>2020-08-08T07:17:15.612Z</time>
      </trkpt>
      <trkpt lat="38.504501" lon="-2.930188">
        <ele>925.746014</ele>
        <time>2020-08-08T07:17:18.609Z</time>
      </trkpt>
      <trkpt lat="38.504590" lon="-2.930272">
        <ele>926.179368</ele>
        <time>2020-08-08T07:17:21.604Z</time>
      </trkpt>
      <trkpt lat="38.504683" lon="-2.930370">
        <ele>926.651492</ele>
        <time>2020-08-08T07:17:24.609Z</time>
      </trkpt>
      <trkpt lat="38.504776" lon="-2.930464">
        <ele>927.115911</ele>
        <time>2020-08-08T07:17:27.608Z</time>
      </trkpt>
      <trkpt lat="38.504876" lon="-2.930531">
        <ele>927.558148</ele>
        <time>2020-08-08T07:17:30.613Z</time>
      </trkpt>
      <trkpt lat="38.504968" lon="-2.930619">
        <ele>928.008246</ele>
        <time>2020-08-08T07:17:33.612Z</time>
      </trkpt>
      <trkpt lat="38.505068" lon="-2.930692">
        <ele>928.459316</ele>
        <time>2020-08-08T07:17:36.614Z</time>
      </trkpt>
      <trkpt lat="38.505167" lon="-2.930745">
        <ele>928.879718</ele>
        <time>2020-08-08T07:17:39.600Z</time>
      </trkpt>
      <trkpt lat="38.505261" lon="-2.930774">
        <ele>929.258461</ele>
        <time>2020-08-08T07:17:42.604Z</time>
      </trkpt>
      <trkpt lat="38.505351" lon="-2.930810">
        <ele>929.627826</ele>
        <time>2020-08-08T07:17:45.601Z</time>
      </trkpt>
      <trkpt lat="38.505443" lon="-2.930871">
        <ele>930.033776</ele>
        <time>2020-08-08T07:17:48.602Z</time>
      </trkpt>
      <trkpt lat="38.505556" lon="-2.930950">
        <ele>930.538264</ele>
        <time>2020-08-08T07:17:51.604Z</time>
      </trkpt>
      <trkpt lat="38.505659" lon="-2.931017">
        <ele>930.990938</ele>
        <time>2020-08-08T07:17:54.606Z</time>
      </trkpt>
      <trkpt lat="38.505765" lon="-2.931057">
        <ele>931.423828</ele>
        <time>2020-08-08T07:17:57.602Z</time>
      </trkpt>
      <trkpt lat="38.505880" lon="-2.931087">
        <ele>931.675476</ele>
        <time>2020-08-08T07:18:00.608Z</time>
      </trkpt>
      <trkpt lat="38.505993" lon="-2.931109">
        <ele>931.754384</ele>
        <time>2020-08-08T07:18:03.601Z</time>
      </trkpt>
      <trkpt lat="38.506097" lon="-2.931145">
        <ele>931.828766</ele>
        <time>2020-08-08T07:18:06.595Z</time>
      </trkpt>
      <trkpt lat="38.506201" lon="-2.931189">
        <ele>931.904392</ele>
        <time>2020-08-08T07:18:09.609Z</time>
      </trkpt>
      <trkpt lat="38.506308" lon="-2.931251">
        <ele>931.985497</ele>
        <time>2020-08-08T07:18:12.604Z</time>
      </trkpt>
      <trkpt lat="38.506416" lon="-2.931325">
        <ele>932.070093</ele>
        <time>2020-08-08T07:18:15.606Z</time>
      </trkpt>
      <trkpt lat="38.506520" lon="-2.931388">
        <ele>932.149546</ele>
        <time>2020-08-08T07:18:18.607Z</time>
      </trkpt>
      <trkpt lat="38.506621" lon="-2.931450">
        <ele>932.226896</ele>
        <time>2020-08-08T07:18:21.604Z</time>
      </trkpt>
      <trkpt lat="38.506720" lon="-2.931509">
        <ele>932.302306</ele>
        <time>2020-08-08T07:18:24.606Z</time>
      </trkpt>
      <trkpt lat="38.506809" lon="-2.931560">
        <ele>932.369640</ele>
        <time>2020-08-08T07:18:27.613Z</time>
      </trkpt>
      <trkpt lat="38.506911" lon="-2.931602">
        <ele>932.443618</ele>
        <time>2020-08-08T07:18:30.605Z</time>
      </trkpt>
      <trkpt lat="38.507026" lon="-2.931639">
        <ele>932.525484</ele>
        <time>2020-08-08T07:18:33.600Z</time>
      </trkpt>
      <trkpt lat="38.507137" lon="-2.931707">
        <ele>932.610461</ele>
        <time>2020-08-08T07:18:36.612Z</time>
      </trkpt>
      <trkpt lat="38.507234" lon="-2.931790">
        <ele>932.691048</ele>
        <time>2020-08-08T07:18:39.602Z</time>
      </trkpt>
      <trkpt lat="38.507322" lon="-2.931856">
        <ele>932.761486</ele>
        <time>2020-08-08T07:18:42.603Z</time>
      </trkpt>
      <trkpt lat="38.507424" lon="-2.931942">
        <ele>932.845845</ele>
        <time>2020-08-08T07:18:46.600Z</time>
      </trkpt>
      <trkpt lat="38.507504" lon="-2.932025">
        <ele>933.163309</ele>
        <time>2020-08-08T07:18:49.603Z</time>
      </trkpt>
      <trkpt lat="38.507611" lon="-2.932090">
        <ele>933.699213</ele>
        <time>2020-08-08T07:18:52.601Z</time>
      </trkpt>
      <trkpt lat="38.507716" lon="-2.932160">
        <ele>934.234914</ele>
        <time>2020-08-08T07:18:56.602Z</time>
      </trkpt>
      <trkpt lat="38.507787" lon="-2.932288">
        <ele>934.790272</ele>
        <time>2020-08-08T07:18:59.603Z</time>
      </trkpt>
      <trkpt lat="38.507844" lon="-2.932418">
        <ele>935.317738</ele>
        <time>2020-08-08T07:19:02.614Z</time>
      </trkpt>
      <trkpt lat="38.507923" lon="-2.932505">
        <ele>935.789469</ele>
        <time>2020-08-08T07:19:06.604Z</time>
      </trkpt>
      <trkpt lat="38.508010" lon="-2.932604">
        <ele>936.316410</ele>
        <time>2020-08-08T07:19:09.605Z</time>
      </trkpt>
      <trkpt lat="38.508123" lon="-2.932661">
        <ele>936.865931</ele>
        <time>2020-08-08T07:19:12.600Z</time>
      </trkpt>
      <trkpt lat="38.508225" lon="-2.932715">
        <ele>937.365342</ele>
        <time>2020-08-08T07:19:15.599Z</time>
      </trkpt>
      <trkpt lat="38.508318" lon="-2.932764">
        <ele>937.820368</ele>
        <time>2020-08-08T07:19:18.599Z</time>
      </trkpt>
      <trkpt lat="38.508402" lon="-2.932830">
        <ele>938.266405</ele>
        <time>2020-08-08T07:19:21.600Z</time>
      </trkpt>
      <trkpt lat="38.508495" lon="-2.932894">
        <ele>938.744198</ele>
        <time>2020-08-08T07:19:24.605Z</time>
      </trkpt>
      <trkpt lat="38.508594" lon="-2.932969">
        <ele>939.264787</ele>
        <time>2020-08-08T07:19:27.614Z</time>
      </trkpt>
      <trkpt lat="38.508689" lon="-2.933008">
        <ele>939.716137</ele>
        <time>2020-08-08T07:19:30.602Z</time>
      </trkpt>
      <trkpt lat="38.508797" lon="-2.933032">
        <ele>940.211994</ele>
        <time>2020-08-08T07:19:34.604Z</time>
      </trkpt>
      <trkpt lat="38.508890" lon="-2.933031">
        <ele>940.632683</ele>
        <time>2020-08-08T07:19:37.605Z</time>
      </trkpt>
      <trkpt lat="38.508989" lon="-2.932995">
        <ele>940.980563</ele>
        <time>2020-08-08T07:19:42.602Z</time>
      </trkpt>
      <trkpt lat="38.509103" lon="-2.933009">
        <ele>940.818810</ele>
        <time>2020-08-08T07:19:46.600Z</time>
      </trkpt>
      <trkpt lat="38.509193" lon="-2.932996">
        <ele>940.690888</ele>
        <time>2020-08-08T07:19:51.604Z</time>
      </trkpt>
      <trkpt lat="38.509284" lon="-2.932946">
        <ele>940.550986</ele>
        <time>2020-08-08T07:19:57.604Z</time>
      </trkpt>
      <trkpt lat="38.509389" lon="-2.932909">
        <ele>940.397152</ele>
        <time>2020-08-08T07:20:02.611Z</time>
      </trkpt>
      <trkpt lat="38.509491" lon="-2.932902">
        <ele>940.252883</ele>
        <time>2020-08-08T07:20:06.609Z</time>
      </trkpt>
      <trkpt lat="38.509596" lon="-2.932889">
        <ele>940.103889</ele>
        <time>2020-08-08T07:20:10.608Z</time>
      </trkpt>
      <trkpt lat="38.509702" lon="-2.932893">
        <ele>939.954113</ele>
        <time>2020-08-08T07:20:13.602Z</time>
      </trkpt>
      <trkpt lat="38.509792" lon="-2.932909">
        <ele>939.825775</ele>
        <time>2020-08-08T07:20:16.619Z</time>
      </trkpt>
      <trkpt lat="38.509900" lon="-2.932933">
        <ele>939.670950</ele>
        <time>2020-08-08T07:20:20.606Z</time>
      </trkpt>
      <trkpt lat="38.510009" lon="-2.932947">
        <ele>939.516226</ele>
        <time>2020-08-08T07:20:25.605Z</time>
      </trkpt>
      <trkpt lat="38.510116" lon="-2.932957">
        <ele>939.364699</ele>
        <time>2020-08-08T07:20:29.602Z</time>
      </trkpt>
      <trkpt lat="38.510212" lon="-2.932970">
        <ele>939.228352</ele>
        <time>2020-08-08T07:20:33.610Z</time>
      </trkpt>
      <trkpt lat="38.510320" lon="-2.932992">
        <ele>939.073890</ele>
        <time>2020-08-08T07:20:37.601Z</time>
      </trkpt>
      <trkpt lat="38.510417" lon="-2.933008">
        <ele>938.935753</ele>
        <time>2020-08-08T07:20:41.608Z</time>
      </trkpt>
      <trkpt lat="38.510513" lon="-2.933025">
        <ele>938.798870</ele>
        <time>2020-08-08T07:20:45.602Z</time>
      </trkpt>
      <trkpt lat="38.510611" lon="-2.933082">
        <ele>938.646797</ele>
        <time>2020-08-08T07:20:49.599Z</time>
      </trkpt>
      <trkpt lat="38.510699" lon="-2.933143">
        <ele>938.505402</ele>
        <time>2020-08-08T07:20:53.599Z</time>
      </trkpt>
      <trkpt lat="38.510791" lon="-2.933191">
        <ele>938.532098</ele>
        <time>2020-08-08T07:20:57.604Z</time>
      </trkpt>
      <trkpt lat="38.510881" lon="-2.933235">
        <ele>938.616368</ele>
        <time>2020-08-08T07:21:01.611Z</time>
      </trkpt>
      <trkpt lat="38.510973" lon="-2.933278">
        <ele>938.702036</ele>
        <time>2020-08-08T07:21:05.599Z</time>
      </trkpt>
      <trkpt lat="38.511072" lon="-2.933341">
        <ele>938.798754</ele>
        <time>2020-08-08T07:21:09.597Z</time>
      </trkpt>
      <trkpt lat="38.511151" lon="-2.933429">
        <ele>938.890402</ele>
        <time>2020-08-08T07:21:12.602Z</time>
      </trkpt>
      <trkpt lat="38.511234" lon="-2.933518">
        <ele>938.985154</ele>
        <time>2020-08-08T07:21:16.609Z</time>
      </trkpt>
      <trkpt lat="38.511327" lon="-2.933612">
        <ele>939.088847</ele>
        <time>2020-08-08T07:21:20.610Z</time>
      </trkpt>
      <trkpt lat="38.511421" lon="-2.933697">
        <ele>939.189550</ele>
        <time>2020-08-08T07:21:24.604Z</time>
      </trkpt>
      <trkpt lat="38.511509" lon="-2.933784">
        <ele>939.286848</ele>
        <time>2020-08-08T07:21:28.604Z</time>
      </trkpt>
      <trkpt lat="38.511574" lon="-2.933875">
        <ele>939.371162</ele>
        <time>2020-08-08T07:21:31.606Z</time>
      </trkpt>
      <trkpt lat="38.511635" lon="-2.933965">
        <ele>939.452641</ele>
        <time>2020-08-08T07:21:34.602Z</time>
      </trkpt>
      <trkpt lat="38.511689" lon="-2.934059">
        <ele>939.532439</ele>
        <time>2020-08-08T07:21:37.600Z</time>
      </trkpt>
      <trkpt lat="38.511762" lon="-2.934174">
        <ele>939.633772</ele>
        <time>2020-08-08T07:21:41.602Z</time>
      </trkpt>
      <trkpt lat="38.511838" lon="-2.934278">
        <ele>939.731149</ele>
        <time>2020-08-08T07:21:45.613Z</time>
      </trkpt>
      <trkpt lat="38.511922" lon="-2.934373">
        <ele>939.829243</ele>
        <time>2020-08-08T07:21:49.603Z</time>
      </trkpt>
      <trkpt lat="38.512003" lon="-2.934472">
        <ele>939.927260</ele>
        <time>2020-08-08T07:21:53.619Z</time>
      </trkpt>
      <trkpt lat="38.512083" lon="-2.934556">
        <ele>940.017807</ele>
        <time>2020-08-08T07:21:57.619Z</time>
      </trkpt>
      <trkpt lat="38.512167" lon="-2.934636">
        <ele>939.994394</ele>
        <time>2020-08-08T07:22:01.604Z</time>
      </trkpt>
      <trkpt lat="38.512234" lon="-2.934713">
        <ele>939.940374</ele>
        <time>2020-08-08T07:22:04.609Z</time>
      </trkpt>
      <trkpt lat="38.512323" lon="-2.934806">
        <ele>939.871451</ele>
        <time>2020-08-08T07:22:08.615Z</time>
      </trkpt>
      <trkpt lat="38.512414" lon="-2.934900">
        <ele>939.801302</ele>
        <time>2020-08-08T07:22:12.617Z</time>
      </trkpt>
      <trkpt lat="38.512505" lon="-2.934974">
        <ele>939.736638</ele>
        <time>2020-08-08T07:22:16.597Z</time>
      </trkpt>
      <trkpt lat="38.512585" lon="-2.935070">
        <ele>939.670848</ele>
        <time>2020-08-08T07:22:20.597Z</time>
      </trkpt>
      <trkpt lat="38.512659" lon="-2.935187">
        <ele>939.600275</ele>
        <time>2020-08-08T07:22:24.619Z</time>
      </trkpt>
      <trkpt lat="38.512746" lon="-2.935268">
        <ele>939.535743</ele>
        <time>2020-08-08T07:22:29.602Z</time>
      </trkpt>
      <trkpt lat="38.512811" lon="-2.935356">
        <ele>939.478974</ele>
        <time>2020-08-08T07:22:33.607Z</time>
      </trkpt>
      <trkpt lat="38.512861" lon="-2.935458">
        <ele>939.422512</ele>
        <time>2020-08-08T07:22:37.604Z</time>
      </trkpt>
      <trkpt lat="38.512909" lon="-2.935560">
        <ele>939.366676</ele>
        <time>2020-08-08T07:22:41.601Z</time>
      </trkpt>
      <trkpt lat="38.512982" lon="-2.935658">
        <ele>939.303203</ele>
        <time>2020-08-08T07:22:46.606Z</time>
      </trkpt>
      <trkpt lat="38.513017" lon="-2.935769">
        <ele>939.247064</ele>
        <time>2020-08-08T07:22:50.613Z</time>
      </trkpt>
      <trkpt lat="38.513051" lon="-2.935886">
        <ele>939.188516</ele>
        <time>2020-08-08T07:22:54.615Z</time>
      </trkpt>
      <trkpt lat="38.513104" lon="-2.936005">
        <ele>939.124283</ele>
        <time>2020-08-08T07:22:59.608Z</time>
      </trkpt>
      <trkpt lat="38.513141" lon="-2.936126">
        <ele>939.063341</ele>
        <time>2020-08-08T07:23:03.613Z</time>
      </trkpt>
      <trkpt lat="38.513180" lon="-2.936237">
        <ele>939.006262</ele>
        <time>2020-08-08T07:23:07.599Z</time>
      </trkpt>
      <trkpt lat="38.513220" lon="-2.936345">
        <ele>939.151606</ele>
        <time>2020-08-08T07:23:11.600Z</time>
      </trkpt>
      <trkpt lat="38.513258" lon="-2.936461">
        <ele>940.032024</ele>
        <time>2020-08-08T07:23:15.606Z</time>
      </trkpt>
      <trkpt lat="38.513316" lon="-2.936574">
        <ele>940.978158</ele>
        <time>2020-08-08T07:23:19.604Z</time>
      </trkpt>
      <trkpt lat="38.513374" lon="-2.936686">
        <ele>941.918446</ele>
        <time>2020-08-08T07:23:23.608Z</time>
      </trkpt>
      <trkpt lat="38.513438" lon="-2.936813">
        <ele>942.976016</ele>
        <time>2020-08-08T07:23:27.603Z</time>
      </trkpt>
      <trkpt lat="38.513482" lon="-2.936920">
        <ele>943.822272</ele>
        <time>2020-08-08T07:23:30.604Z</time>
      </trkpt>
      <trkpt lat="38.513522" lon="-2.937024">
        <ele>944.633582</ele>
        <time>2020-08-08T07:23:33.608Z</time>
      </trkpt>
      <trkpt lat="38.513566" lon="-2.937146">
        <ele>945.574066</ele>
        <time>2020-08-08T07:23:37.607Z</time>
      </trkpt>
      <trkpt lat="38.513599" lon="-2.937254">
        <ele>946.385779</ele>
        <time>2020-08-08T07:23:42.602Z</time>
      </trkpt>
      <trkpt lat="38.513623" lon="-2.937375">
        <ele>947.259691</ele>
        <time>2020-08-08T07:23:47.607Z</time>
      </trkpt>
      <trkpt lat="38.513666" lon="-2.937504">
        <ele>948.241353</ele>
        <time>2020-08-08T07:23:51.605Z</time>
      </trkpt>
      <trkpt lat="38.513700" lon="-2.937625">
        <ele>949.141438</ele>
        <time>2020-08-08T07:23:54.602Z</time>
      </trkpt>
      <trkpt lat="38.513714" lon="-2.937763">
        <ele>950.115659</ele>
        <time>2020-08-08T07:23:57.603Z</time>
      </trkpt>
      <trkpt lat="38.513723" lon="-2.937908">
        <ele>951.133988</ele>
        <time>2020-08-08T07:24:00.596Z</time>
      </trkpt>
      <trkpt lat="38.513736" lon="-2.938042">
        <ele>952.079302</ele>
        <time>2020-08-08T07:24:03.603Z</time>
      </trkpt>
      <trkpt lat="38.513750" lon="-2.938169">
        <ele>952.977205</ele>
        <time>2020-08-08T07:24:06.608Z</time>
      </trkpt>
      <trkpt lat="38.513763" lon="-2.938415">
        <ele>954.703366</ele>
        <time>2020-08-08T07:24:13.618Z</time>
      </trkpt>
      <trkpt lat="38.513757" lon="-2.938554">
        <ele>955.220183</ele>
        <time>2020-08-08T07:24:16.605Z</time>
      </trkpt>
      <trkpt lat="38.513777" lon="-2.938677">
        <ele>955.452316</ele>
        <time>2020-08-08T07:24:19.604Z</time>
      </trkpt>
      <trkpt lat="38.513803" lon="-2.938816">
        <ele>955.716395</ele>
        <time>2020-08-08T07:24:23.600Z</time>
      </trkpt>
      <trkpt lat="38.513789" lon="-2.938944">
        <ele>955.955211</ele>
        <time>2020-08-08T07:24:27.599Z</time>
      </trkpt>
      <trkpt lat="38.513782" lon="-2.939091">
        <ele>956.227338</ele>
        <time>2020-08-08T07:24:31.613Z</time>
      </trkpt>
      <trkpt lat="38.513809" lon="-2.939225">
        <ele>956.483019</ele>
        <time>2020-08-08T07:24:35.610Z</time>
      </trkpt>
      <trkpt lat="38.513875" lon="-2.939325">
        <ele>956.724753</ele>
        <time>2020-08-08T07:24:39.605Z</time>
      </trkpt>
      <trkpt lat="38.513994" lon="-2.939352">
        <ele>957.010167</ele>
        <time>2020-08-08T07:24:43.590Z</time>
      </trkpt>
      <trkpt lat="38.514096" lon="-2.939380">
        <ele>957.256535</ele>
        <time>2020-08-08T07:24:46.606Z</time>
      </trkpt>
      <trkpt lat="38.514174" lon="-2.939464">
        <ele>957.497409</ele>
        <time>2020-08-08T07:24:49.601Z</time>
      </trkpt>
      <trkpt lat="38.514246" lon="-2.939545">
        <ele>957.723928</ele>
        <time>2020-08-08T07:24:52.606Z</time>
      </trkpt>
      <trkpt lat="38.514318" lon="-2.939661">
        <ele>957.997519</ele>
        <time>2020-08-08T07:24:56.603Z</time>
      </trkpt>
      <trkpt lat="38.514400" lon="-2.939771">
        <ele>958.278251</ele>
        <time>2020-08-08T07:25:00.182Z</time>
      </trkpt>
      <trkpt lat="38.514445" lon="-2.939893">
        <ele>958.527471</ele>
        <time>2020-08-08T07:25:05.170Z</time>
      </trkpt>
      <trkpt lat="38.514464" lon="-2.940012">
        <ele>958.751887</ele>
        <time>2020-08-08T07:25:10.175Z</time>
      </trkpt>
      <trkpt lat="38.514510" lon="-2.940116">
        <ele>958.972633</ele>
        <time>2020-08-08T07:25:15.171Z</time>
      </trkpt>
      <trkpt lat="38.514530" lon="-2.940251">
        <ele>959.226513</ele>
        <time>2020-08-08T07:25:20.169Z</time>
      </trkpt>
      <trkpt lat="38.514563" lon="-2.940369">
        <ele>959.229697</ele>
        <time>2020-08-08T07:25:26.170Z</time>
      </trkpt>
      <trkpt lat="38.514638" lon="-2.940461">
        <ele>959.112359</ele>
        <time>2020-08-08T07:25:31.174Z</time>
      </trkpt>
      <trkpt lat="38.514709" lon="-2.940550">
        <ele>959.000107</ele>
        <time>2020-08-08T07:25:35.178Z</time>
      </trkpt>
      <trkpt lat="38.514790" lon="-2.940616">
        <ele>958.891679</ele>
        <time>2020-08-08T07:25:38.172Z</time>
      </trkpt>
      <trkpt lat="38.514886" lon="-2.940711">
        <ele>958.754636</ele>
        <time>2020-08-08T07:25:41.173Z</time>
      </trkpt>
      <trkpt lat="38.514976" lon="-2.940786">
        <ele>958.633363</ele>
        <time>2020-08-08T07:25:44.179Z</time>
      </trkpt>
      <trkpt lat="38.515065" lon="-2.940846">
        <ele>958.519788</ele>
        <time>2020-08-08T07:25:47.173Z</time>
      </trkpt>
      <trkpt lat="38.515129" lon="-2.940939">
        <ele>958.410405</ele>
        <time>2020-08-08T07:25:50.169Z</time>
      </trkpt>
      <trkpt lat="38.515191" lon="-2.941033">
        <ele>958.301827</ele>
        <time>2020-08-08T07:25:53.171Z</time>
      </trkpt>
      <trkpt lat="38.515256" lon="-2.941126">
        <ele>958.191696</ele>
        <time>2020-08-08T07:25:57.183Z</time>
      </trkpt>
      <trkpt lat="38.515329" lon="-2.941194">
        <ele>958.089736</ele>
        <time>2020-08-08T07:26:00.171Z</time>
      </trkpt>
      <trkpt lat="38.515417" lon="-2.941257">
        <ele>957.975886</ele>
        <time>2020-08-08T07:26:03.172Z</time>
      </trkpt>
      <trkpt lat="38.515525" lon="-2.941256">
        <ele>957.853980</ele>
        <time>2020-08-08T07:26:07.171Z</time>
      </trkpt>
      <trkpt lat="38.515620" lon="-2.941273">
        <ele>957.745705</ele>
        <time>2020-08-08T07:26:12.162Z</time>
      </trkpt>
      <trkpt lat="38.515684" lon="-2.941358">
        <ele>957.641524</ele>
        <time>2020-08-08T07:26:17.168Z</time>
      </trkpt>
      <trkpt lat="38.515732" lon="-2.941463">
        <ele>957.534125</ele>
        <time>2020-08-08T07:26:20.171Z</time>
      </trkpt>
      <trkpt lat="38.515822" lon="-2.941565">
        <ele>957.398352</ele>
        <time>2020-08-08T07:26:24.175Z</time>
      </trkpt>
      <trkpt lat="38.515896" lon="-2.941653">
        <ele>957.284262</ele>
        <time>2020-08-08T07:26:27.170Z</time>
      </trkpt>
      <trkpt lat="38.515978" lon="-2.941766">
        <ele>958.085338</ele>
        <time>2020-08-08T07:26:31.177Z</time>
      </trkpt>
      <trkpt lat="38.516082" lon="-2.941832">
        <ele>958.935197</ele>
        <time>2020-08-08T07:26:35.170Z</time>
      </trkpt>
      <trkpt lat="38.516160" lon="-2.941923">
        <ele>959.708173</ele>
        <time>2020-08-08T07:26:39.175Z</time>
      </trkpt>
      <trkpt lat="38.516240" lon="-2.941999">
        <ele>960.437740</ele>
        <time>2020-08-08T07:26:43.169Z</time>
      </trkpt>
      <trkpt lat="38.516319" lon="-2.942065">
        <ele>961.128523</ele>
        <time>2020-08-08T07:26:47.174Z</time>
      </trkpt>
      <trkpt lat="38.516417" lon="-2.942101">
        <ele>961.874834</ele>
        <time>2020-08-08T07:26:52.198Z</time>
      </trkpt>
      <trkpt lat="38.516513" lon="-2.942143">
        <ele>962.617495</ele>
        <time>2020-08-08T07:26:57.159Z</time>
      </trkpt>
      <trkpt lat="38.516611" lon="-2.942204">
        <ele>963.415309</ele>
        <time>2020-08-08T07:27:01.168Z</time>
      </trkpt>
      <trkpt lat="38.516706" lon="-2.942255">
        <ele>964.169472</ele>
        <time>2020-08-08T07:27:05.176Z</time>
      </trkpt>
      <trkpt lat="38.516768" lon="-2.942381">
        <ele>965.021861</ele>
        <time>2020-08-08T07:27:09.159Z</time>
      </trkpt>
      <trkpt lat="38.516845" lon="-2.942472">
        <ele>965.789444</ele>
        <time>2020-08-08T07:27:13.175Z</time>
      </trkpt>
      <trkpt lat="38.516921" lon="-2.942559">
        <ele>966.536195</ele>
        <time>2020-08-08T07:27:17.171Z</time>
      </trkpt>
      <trkpt lat="38.516987" lon="-2.942652">
        <ele>967.255213</ele>
        <time>2020-08-08T07:27:21.162Z</time>
      </trkpt>
      <trkpt lat="38.517066" lon="-2.942729">
        <ele>967.982374</ele>
        <time>2020-08-08T07:27:25.172Z</time>
      </trkpt>
      <trkpt lat="38.517153" lon="-2.942822">
        <ele>968.812497</ele>
        <time>2020-08-08T07:27:30.168Z</time>
      </trkpt>
      <trkpt lat="38.517226" lon="-2.942914">
        <ele>969.562857</ele>
        <time>2020-08-08T07:27:34.173Z</time>
      </trkpt>
      <trkpt lat="38.517295" lon="-2.943010">
        <ele>970.309365</ele>
        <time>2020-08-08T07:27:38.167Z</time>
      </trkpt>
      <trkpt lat="38.517378" lon="-2.943096">
        <ele>970.744911</ele>
        <time>2020-08-08T07:27:43.179Z</time>
      </trkpt>
      <trkpt lat="38.517451" lon="-2.943167">
        <ele>971.060375</ele>
        <time>2020-08-08T07:27:49.166Z</time>
      </trkpt>
      <trkpt lat="38.517503" lon="-2.943272">
        <ele>971.394735</ele>
        <time>2020-08-08T07:27:53.169Z</time>
      </trkpt>
      <trkpt lat="38.517585" lon="-2.943334">
        <ele>971.722376</ele>
        <time>2020-08-08T07:27:57.163Z</time>
      </trkpt>
      <trkpt lat="38.517684" lon="-2.943345">
        <ele>972.064114</ele>
        <time>2020-08-08T07:28:01.171Z</time>
      </trkpt>
      <trkpt lat="38.517779" lon="-2.943361">
        <ele>972.393636</ele>
        <time>2020-08-08T07:28:05.180Z</time>
      </trkpt>
      <trkpt lat="38.517874" lon="-2.943379">
        <ele>972.723904</ele>
        <time>2020-08-08T07:28:09.177Z</time>
      </trkpt>
      <trkpt lat="38.517966" lon="-2.943404">
        <ele>973.047357</ele>
        <time>2020-08-08T07:28:13.173Z</time>
      </trkpt>
      <trkpt lat="38.518060" lon="-2.943421">
        <ele>973.373836</ele>
        <time>2020-08-08T07:28:17.170Z</time>
      </trkpt>
      <trkpt lat="38.518152" lon="-2.943439">
        <ele>973.693903</ele>
        <time>2020-08-08T07:28:21.173Z</time>
      </trkpt>
      <trkpt lat="38.518250" lon="-2.943467">
        <ele>974.039236</ele>
        <time>2020-08-08T07:28:25.176Z</time>
      </trkpt>
      <trkpt lat="38.518339" lon="-2.943518">
        <ele>974.374654</ele>
        <time>2020-08-08T07:28:30.169Z</time>
      </trkpt>
      <trkpt lat="38.518439" lon="-2.943532">
        <ele>974.720604</ele>
        <time>2020-08-08T07:28:36.175Z</time>
      </trkpt>
      <trkpt lat="38.518533" lon="-2.943583">
        <ele>975.071782</ele>
        <time>2020-08-08T07:28:41.164Z</time>
      </trkpt>
      <trkpt lat="38.518616" lon="-2.943672">
        <ele>975.444361</ele>
        <time>2020-08-08T07:28:46.163Z</time>
      </trkpt>
      <trkpt lat="38.518706" lon="-2.943752">
        <ele>975.821356</ele>
        <time>2020-08-08T07:28:51.170Z</time>
      </trkpt>
      <trkpt lat="38.518773" lon="-2.943854">
        <ele>976.179696</ele>
        <time>2020-08-08T07:28:55.178Z</time>
      </trkpt>
      <trkpt lat="38.518826" lon="-2.943954">
        <ele>976.504680</ele>
        <time>2020-08-08T07:28:59.177Z</time>
      </trkpt>
      <trkpt lat="38.518873" lon="-2.944073">
        <ele>977.276748</ele>
        <time>2020-08-08T07:29:04.172Z</time>
      </trkpt>
      <trkpt lat="38.518895" lon="-2.944209">
        <ele>978.293713</ele>
        <time>2020-08-08T07:29:09.179Z</time>
      </trkpt>
      <trkpt lat="38.518927" lon="-2.944340">
        <ele>979.298668</ele>
        <time>2020-08-08T07:29:14.179Z</time>
      </trkpt>
      <trkpt lat="38.518966" lon="-2.944462">
        <ele>980.263742</ele>
        <time>2020-08-08T07:29:20.164Z</time>
      </trkpt>
      <trkpt lat="38.519013" lon="-2.944581">
        <ele>981.239891</ele>
        <time>2020-08-08T07:29:25.191Z</time>
      </trkpt>
      <trkpt lat="38.519037" lon="-2.944702">
        <ele>982.153978</ele>
        <time>2020-08-08T07:29:30.171Z</time>
      </trkpt>
      <trkpt lat="38.519065" lon="-2.944829">
        <ele>983.120191</ele>
        <time>2020-08-08T07:29:35.182Z</time>
      </trkpt>
      <trkpt lat="38.519072" lon="-2.944947">
        <ele>983.986761</ele>
        <time>2020-08-08T07:29:40.175Z</time>
      </trkpt>
      <trkpt lat="38.518970" lon="-2.944954">
        <ele>984.942794</ele>
        <time>2020-08-08T07:29:46.168Z</time>
      </trkpt>
      <trkpt lat="38.518868" lon="-2.944918">
        <ele>985.933181</ele>
        <time>2020-08-08T07:29:52.165Z</time>
      </trkpt>
      <trkpt lat="38.518770" lon="-2.944906">
        <ele>986.854601</ele>
        <time>2020-08-08T07:29:57.177Z</time>
      </trkpt>
      <trkpt lat="38.518673" lon="-2.944900">
        <ele>987.763524</ele>
        <time>2020-08-08T07:30:02.172Z</time>
      </trkpt>
      <trkpt lat="38.518542" lon="-2.944965">
        <ele>989.078755</ele>
        <time>2020-08-08T07:32:40.178Z</time>
      </trkpt>
      <trkpt lat="38.518436" lon="-2.944979">
        <ele>990.076133</ele>
        <time>2020-08-08T07:32:45.186Z</time>
      </trkpt>
      <trkpt lat="38.518336" lon="-2.944977">
        <ele>991.012186</ele>
        <time>2020-08-08T07:32:50.168Z</time>
      </trkpt>
      <trkpt lat="38.518238" lon="-2.944978">
        <ele>991.929435</ele>
        <time>2020-08-08T07:32:55.184Z</time>
      </trkpt>
      <trkpt lat="38.518145" lon="-2.944987">
        <ele>992.802350</ele>
        <time>2020-08-08T07:33:13.161Z</time>
      </trkpt>
      <trkpt lat="38.518061" lon="-2.945060">
        <ele>993.633877</ele>
        <time>2020-08-08T07:33:19.168Z</time>
      </trkpt>
      <trkpt lat="38.517990" lon="-2.945145">
        <ele>994.177319</ele>
        <time>2020-08-08T07:33:24.162Z</time>
      </trkpt>
      <trkpt lat="38.517911" lon="-2.945234">
        <ele>994.765597</ele>
        <time>2020-08-08T07:33:29.169Z</time>
      </trkpt>
      <trkpt lat="38.517852" lon="-2.945332">
        <ele>995.306056</ele>
        <time>2020-08-08T07:33:35.171Z</time>
      </trkpt>
      <trkpt lat="38.517774" lon="-2.945423">
        <ele>995.896013</ele>
        <time>2020-08-08T07:33:41.177Z</time>
      </trkpt>
      <trkpt lat="38.517692" lon="-2.945495">
        <ele>996.451764</ele>
        <time>2020-08-08T07:33:46.169Z</time>
      </trkpt>
      <trkpt lat="38.517612" lon="-2.945573">
        <ele>997.013851</ele>
        <time>2020-08-08T07:33:51.175Z</time>
      </trkpt>
      <trkpt lat="38.517523" lon="-2.945650">
        <ele>997.614222</ele>
        <time>2020-08-08T07:33:58.173Z</time>
      </trkpt>
      <trkpt lat="38.517448" lon="-2.945735">
        <ele>998.174182</ele>
        <time>2020-08-08T07:34:04.169Z</time>
      </trkpt>
      <trkpt lat="38.517408" lon="-2.945848">
        <ele>998.716272</ele>
        <time>2020-08-08T07:34:17.179Z</time>
      </trkpt>
      <trkpt lat="38.517304" lon="-2.946128">
        <ele>1000.070982</ele>
        <time>2020-08-08T07:38:21.168Z</time>
      </trkpt>
      <trkpt lat="38.517254" lon="-2.946248">
        <ele>1000.665209</ele>
        <time>2020-08-08T07:38:27.172Z</time>
      </trkpt>
      <trkpt lat="38.517211" lon="-2.946367">
        <ele>1001.238119</ele>
        <time>2020-08-08T07:38:34.169Z</time>
      </trkpt>
      <trkpt lat="38.517157" lon="-2.946483">
        <ele>1001.828081</ele>
        <time>2020-08-08T07:38:43.142Z</time>
      </trkpt>
      <trkpt lat="38.517099" lon="-2.946598">
        <ele>1002.426096</ele>
        <time>2020-08-08T07:38:50.155Z</time>
      </trkpt>
      <trkpt lat="38.517034" lon="-2.946680">
        <ele>1002.936290</ele>
        <time>2020-08-08T07:38:59.175Z</time>
      </trkpt>
      <trkpt lat="38.516884" lon="-2.946909">
        <ele>1003.287005</ele>
        <time>2020-08-08T07:39:36.157Z</time>
      </trkpt>
      <trkpt lat="38.516792" lon="-2.946968">
        <ele>1003.116825</ele>
        <time>2020-08-08T07:39:44.154Z</time>
      </trkpt>
      <trkpt lat="38.516712" lon="-2.947063">
        <ele>1002.936279</ele>
        <time>2020-08-08T07:39:52.157Z</time>
      </trkpt>
      <trkpt lat="38.516648" lon="-2.947166">
        <ele>1002.766134</ele>
        <time>2020-08-08T07:40:10.153Z</time>
      </trkpt>
      <trkpt lat="38.516571" lon="-2.947227">
        <ele>1002.616356</ele>
        <time>2020-08-08T07:40:28.157Z</time>
      </trkpt>
      <trkpt lat="38.516480" lon="-2.947318">
        <ele>1002.425323</ele>
        <time>2020-08-08T07:40:33.157Z</time>
      </trkpt>
      <trkpt lat="38.516391" lon="-2.947389">
        <ele>1002.251866</ele>
        <time>2020-08-08T07:40:37.158Z</time>
      </trkpt>
      <trkpt lat="38.516310" lon="-2.947467">
        <ele>1002.084189</ele>
        <time>2020-08-08T07:40:41.161Z</time>
      </trkpt>
      <trkpt lat="38.516224" lon="-2.947532">
        <ele>1001.919002</ele>
        <time>2020-08-08T07:40:45.143Z</time>
      </trkpt>
      <trkpt lat="38.516126" lon="-2.947598">
        <ele>1001.735858</ele>
        <time>2020-08-08T07:40:50.151Z</time>
      </trkpt>
      <trkpt lat="38.516043" lon="-2.947656">
        <ele>1001.579460</ele>
        <time>2020-08-08T07:40:54.155Z</time>
      </trkpt>
      <trkpt lat="38.515964" lon="-2.947726">
        <ele>1001.420528</ele>
        <time>2020-08-08T07:40:58.163Z</time>
      </trkpt>
      <trkpt lat="38.515884" lon="-2.947810">
        <ele>1001.249349</ele>
        <time>2020-08-08T07:41:03.149Z</time>
      </trkpt>
      <trkpt lat="38.515807" lon="-2.947902">
        <ele>1001.075077</ele>
        <time>2020-08-08T07:41:07.158Z</time>
      </trkpt>
      <trkpt lat="38.515752" lon="-2.947998">
        <ele>1000.921157</ele>
        <time>2020-08-08T07:41:11.160Z</time>
      </trkpt>
      <trkpt lat="38.515702" lon="-2.948101">
        <ele>1000.764354</ele>
        <time>2020-08-08T07:41:15.165Z</time>
      </trkpt>
      <trkpt lat="38.515634" lon="-2.948208">
        <ele>1000.586031</ele>
        <time>2020-08-08T07:41:19.156Z</time>
      </trkpt>
      <trkpt lat="38.515578" lon="-2.948300">
        <ele>1001.039680</ele>
        <time>2020-08-08T07:41:23.159Z</time>
      </trkpt>
      <trkpt lat="38.515529" lon="-2.948408">
        <ele>1001.894596</ele>
        <time>2020-08-08T07:41:27.163Z</time>
      </trkpt>
      <trkpt lat="38.515489" lon="-2.948523">
        <ele>1002.756413</ele>
        <time>2020-08-08T07:41:31.154Z</time>
      </trkpt>
      <trkpt lat="38.515458" lon="-2.948665">
        <ele>1003.765958</ele>
        <time>2020-08-08T07:41:35.159Z</time>
      </trkpt>
      <trkpt lat="38.515441" lon="-2.948791">
        <ele>1004.641530</ele>
        <time>2020-08-08T07:41:38.149Z</time>
      </trkpt>
      <trkpt lat="38.515426" lon="-2.948922">
        <ele>1005.548163</ele>
        <time>2020-08-08T07:41:41.158Z</time>
      </trkpt>
      <trkpt lat="38.515411" lon="-2.949054">
        <ele>1006.461572</ele>
        <time>2020-08-08T07:41:44.151Z</time>
      </trkpt>
      <trkpt lat="38.515384" lon="-2.949189">
        <ele>1007.415766</ele>
        <time>2020-08-08T07:41:47.159Z</time>
      </trkpt>
      <trkpt lat="38.515341" lon="-2.949337">
        <ele>1008.496875</ele>
        <time>2020-08-08T07:41:50.145Z</time>
      </trkpt>
      <trkpt lat="38.515336" lon="-2.949465">
        <ele>1009.374502</ele>
        <time>2020-08-08T07:41:52.167Z</time>
      </trkpt>
      <trkpt lat="38.515305" lon="-2.949599">
        <ele>1010.331394</ele>
        <time>2020-08-08T07:41:54.169Z</time>
      </trkpt>
      <trkpt lat="38.515295" lon="-2.949758">
        <ele>1011.423728</ele>
        <time>2020-08-08T07:41:56.144Z</time>
      </trkpt>
      <trkpt lat="38.515311" lon="-2.949910">
        <ele>1012.473991</ele>
        <time>2020-08-08T07:41:58.162Z</time>
      </trkpt>
      <trkpt lat="38.515316" lon="-2.950076">
        <ele>1013.611590</ele>
        <time>2020-08-08T07:42:00.155Z</time>
      </trkpt>
      <trkpt lat="38.515297" lon="-2.950247">
        <ele>1014.794335</ele>
        <time>2020-08-08T07:42:02.156Z</time>
      </trkpt>
      <trkpt lat="38.515289" lon="-2.950407">
        <ele>1015.892240</ele>
        <time>2020-08-08T07:42:04.151Z</time>
      </trkpt>
      <trkpt lat="38.515303" lon="-2.950574">
        <ele>1016.497748</ele>
        <time>2020-08-08T07:42:06.153Z</time>
      </trkpt>
      <trkpt lat="38.515333" lon="-2.950740">
        <ele>1016.838528</ele>
        <time>2020-08-08T07:42:08.160Z</time>
      </trkpt>
      <trkpt lat="38.515357" lon="-2.950925">
        <ele>1017.213622</ele>
        <time>2020-08-08T07:42:10.155Z</time>
      </trkpt>
      <trkpt lat="38.515378" lon="-2.951107">
        <ele>1017.581601</ele>
        <time>2020-08-08T07:42:12.155Z</time>
      </trkpt>
      <trkpt lat="38.515407" lon="-2.951344">
        <ele>1018.061417</ele>
        <time>2020-08-08T07:42:14.157Z</time>
      </trkpt>
      <trkpt lat="38.515402" lon="-2.951459">
        <ele>1018.291798</ele>
        <time>2020-08-08T07:42:15.154Z</time>
      </trkpt>
      <trkpt lat="38.515380" lon="-2.951679">
        <ele>1018.735427</ele>
        <time>2020-08-08T07:42:17.157Z</time>
      </trkpt>
      <trkpt lat="38.515408" lon="-2.951860">
        <ele>1019.104476</ele>
        <time>2020-08-08T07:42:19.155Z</time>
      </trkpt>
      <trkpt lat="38.515399" lon="-2.951984">
        <ele>1019.353569</ele>
        <time>2020-08-08T07:42:20.146Z</time>
      </trkpt>
      <trkpt lat="38.515418" lon="-2.952105">
        <ele>1019.600423</ele>
        <time>2020-08-08T07:42:21.148Z</time>
      </trkpt>
      <trkpt lat="38.515410" lon="-2.952220">
        <ele>1019.831356</ele>
        <time>2020-08-08T07:42:22.154Z</time>
      </trkpt>
      <trkpt lat="38.515413" lon="-2.952344">
        <ele>1020.079503</ele>
        <time>2020-08-08T07:42:23.143Z</time>
      </trkpt>
      <trkpt lat="38.515425" lon="-2.952464">
        <ele>1020.321482</ele>
        <time>2020-08-08T07:42:24.159Z</time>
      </trkpt>
      <trkpt lat="38.515432" lon="-2.952697">
        <ele>1020.787879</ele>
        <time>2020-08-08T07:42:26.155Z</time>
      </trkpt>
      <trkpt lat="38.515445" lon="-2.952815">
        <ele>1020.347146</ele>
        <time>2020-08-08T07:42:27.157Z</time>
      </trkpt>
      <trkpt lat="38.515441" lon="-2.952937">
        <ele>1019.522489</ele>
        <time>2020-08-08T07:42:28.159Z</time>
      </trkpt>
      <trkpt lat="38.515454" lon="-2.953061">
        <ele>1018.677565</ele>
        <time>2020-08-08T07:42:29.153Z</time>
      </trkpt>
      <trkpt lat="38.515474" lon="-2.953190">
        <ele>1017.789419</ele>
        <time>2020-08-08T07:42:30.156Z</time>
      </trkpt>
      <trkpt lat="38.515478" lon="-2.953408">
        <ele>1016.316740</ele>
        <time>2020-08-08T07:42:32.157Z</time>
      </trkpt>
      <trkpt lat="38.515483" lon="-2.953621">
        <ele>1014.877587</ele>
        <time>2020-08-08T07:42:34.155Z</time>
      </trkpt>
      <trkpt lat="38.515471" lon="-2.953743">
        <ele>1014.047169</ele>
        <time>2020-08-08T07:42:35.154Z</time>
      </trkpt>
      <trkpt lat="38.515462" lon="-2.953943">
        <ele>1012.694227</ele>
        <time>2020-08-08T07:42:37.160Z</time>
      </trkpt>
      <trkpt lat="38.515443" lon="-2.954128">
        <ele>1011.434103</ele>
        <time>2020-08-08T07:42:39.160Z</time>
      </trkpt>
      <trkpt lat="38.515456" lon="-2.954269">
        <ele>1010.475264</ele>
        <time>2020-08-08T07:42:41.149Z</time>
      </trkpt>
      <trkpt lat="38.515438" lon="-2.954396">
        <ele>1009.603605</ele>
        <time>2020-08-08T07:42:43.154Z</time>
      </trkpt>
      <trkpt lat="38.515438" lon="-2.954541">
        <ele>1008.624340</ele>
        <time>2020-08-08T07:42:46.153Z</time>
      </trkpt>
      <trkpt lat="38.515441" lon="-2.954663">
        <ele>1007.799999</ele>
        <time>2020-08-08T07:42:51.154Z</time>
      </trkpt>
      <trkpt lat="38.515436" lon="-2.954786">
        <ele>1006.968192</ele>
        <time>2020-08-08T07:42:54.155Z</time>
      </trkpt>
      <trkpt lat="38.515420" lon="-2.954915">
        <ele>1006.086106</ele>
        <time>2020-08-08T07:42:58.157Z</time>
      </trkpt>
      <trkpt lat="38.515392" lon="-2.955045">
        <ele>1004.792175</ele>
        <time>2020-08-08T07:43:02.165Z</time>
      </trkpt>
      <trkpt lat="38.515373" lon="-2.955184">
        <ele>1001.700240</ele>
        <time>2020-08-08T07:43:07.151Z</time>
      </trkpt>
      <trkpt lat="38.515371" lon="-2.955298">
        <ele>999.201613</ele>
        <time>2020-08-08T07:43:11.149Z</time>
      </trkpt>
      <trkpt lat="38.515363" lon="-2.955428">
        <ele>996.344219</ele>
        <time>2020-08-08T07:43:15.153Z</time>
      </trkpt>
      <trkpt lat="38.515369" lon="-2.955546">
        <ele>993.753116</ele>
        <time>2020-08-08T07:43:19.150Z</time>
      </trkpt>
      <trkpt lat="38.515422" lon="-2.955665">
        <ele>990.752713</ele>
        <time>2020-08-08T07:43:23.154Z</time>
      </trkpt>
      <trkpt lat="38.515458" lon="-2.955799">
        <ele>987.648209</ele>
        <time>2020-08-08T07:43:27.159Z</time>
      </trkpt>
      <trkpt lat="38.515468" lon="-2.955927">
        <ele>984.829494</ele>
        <time>2020-08-08T07:43:31.159Z</time>
      </trkpt>
      <trkpt lat="38.515514" lon="-2.956068">
        <ele>981.482058</ele>
        <time>2020-08-08T07:43:35.149Z</time>
      </trkpt>
      <trkpt lat="38.515540" lon="-2.956195">
        <ele>978.605524</ele>
        <time>2020-08-08T07:43:38.158Z</time>
      </trkpt>
      <trkpt lat="38.515569" lon="-2.956321">
        <ele>975.727613</ele>
        <time>2020-08-08T07:43:41.161Z</time>
      </trkpt>
      <trkpt lat="38.515590" lon="-2.956463">
        <ele>972.560987</ele>
        <time>2020-08-08T07:43:44.151Z</time>
      </trkpt>
      <trkpt lat="38.515614" lon="-2.956612">
        <ele>969.227604</ele>
        <time>2020-08-08T07:43:47.151Z</time>
      </trkpt>
      <trkpt lat="38.515598" lon="-2.956758">
        <ele>965.997195</ele>
        <time>2020-08-08T07:43:49.154Z</time>
      </trkpt>
      <trkpt lat="38.515602" lon="-2.956895">
        <ele>962.993133</ele>
        <time>2020-08-08T07:43:51.147Z</time>
      </trkpt>
      <trkpt lat="38.515629" lon="-2.957035">
        <ele>959.833611</ele>
        <time>2020-08-08T07:43:53.156Z</time>
      </trkpt>
      <trkpt lat="38.515643" lon="-2.957195">
        <ele>956.305805</ele>
        <time>2020-08-08T07:43:55.155Z</time>
      </trkpt>
      <trkpt lat="38.515653" lon="-2.957333">
        <ele>957.150385</ele>
        <time>2020-08-08T07:43:57.153Z</time>
      </trkpt>
      <trkpt lat="38.515691" lon="-2.957489">
        <ele>961.714430</ele>
        <time>2020-08-08T07:43:59.154Z</time>
      </trkpt>
      <trkpt lat="38.515701" lon="-2.957682">
        <ele>967.117555</ele>
        <time>2020-08-08T07:44:01.152Z</time>
      </trkpt>
      <trkpt lat="38.515697" lon="-2.957849">
        <ele>971.784766</ele>
        <time>2020-08-08T07:44:03.160Z</time>
      </trkpt>
      <trkpt lat="38.515689" lon="-2.958015">
        <ele>976.430645</ele>
        <time>2020-08-08T07:44:05.156Z</time>
      </trkpt>
      <trkpt lat="38.515687" lon="-2.958207">
        <ele>981.794504</ele>
        <time>2020-08-08T07:44:07.164Z</time>
      </trkpt>
      <trkpt lat="38.515681" lon="-2.958383">
        <ele>986.715603</ele>
        <time>2020-08-08T07:44:09.160Z</time>
      </trkpt>
      <trkpt lat="38.515689" lon="-2.958557">
        <ele>991.584554</ele>
        <time>2020-08-08T07:44:11.153Z</time>
      </trkpt>
      <trkpt lat="38.515682" lon="-2.958726">
        <ele>996.312059</ele>
        <time>2020-08-08T07:44:13.156Z</time>
      </trkpt>
      <trkpt lat="38.515627" lon="-2.958904">
        <ele>1001.658039</ele>
        <time>2020-08-08T07:44:15.162Z</time>
      </trkpt>
      <trkpt lat="38.515628" lon="-2.959081">
        <ele>1006.602541</ele>
        <time>2020-08-08T07:44:17.149Z</time>
      </trkpt>
      <trkpt lat="38.515600" lon="-2.959207">
        <ele>1010.261468</ele>
        <time>2020-08-08T07:44:18.147Z</time>
      </trkpt>
      <trkpt lat="38.515572" lon="-2.959407">
        <ele>1015.937061</ele>
        <time>2020-08-08T07:44:20.161Z</time>
      </trkpt>
      <trkpt lat="38.515575" lon="-2.959626">
        <ele>1019.480312</ele>
        <time>2020-08-08T07:44:22.158Z</time>
      </trkpt>
      <trkpt lat="38.515607" lon="-2.959828">
        <ele>1020.064135</ele>
        <time>2020-08-08T07:44:24.156Z</time>
      </trkpt>
      <trkpt lat="38.515590" lon="-2.960041">
        <ele>1020.670639</ele>
        <time>2020-08-08T07:44:26.153Z</time>
      </trkpt>
      <trkpt lat="38.515586" lon="-2.960156">
        <ele>1020.996725</ele>
        <time>2020-08-08T07:44:27.162Z</time>
      </trkpt>
      <trkpt lat="38.515574" lon="-2.960270">
        <ele>1021.322566</ele>
        <time>2020-08-08T07:44:28.157Z</time>
      </trkpt>
      <trkpt lat="38.515585" lon="-2.960468">
        <ele>1021.884860</ele>
        <time>2020-08-08T07:44:30.154Z</time>
      </trkpt>
      <trkpt lat="38.515600" lon="-2.960661">
        <ele>1022.434269</ele>
        <time>2020-08-08T07:44:32.163Z</time>
      </trkpt>
      <trkpt lat="38.515585" lon="-2.960858">
        <ele>1022.994954</ele>
        <time>2020-08-08T07:44:34.160Z</time>
      </trkpt>
      <trkpt lat="38.515567" lon="-2.961053">
        <ele>1023.551169</ele>
        <time>2020-08-08T07:44:36.153Z</time>
      </trkpt>
      <trkpt lat="38.515564" lon="-2.961230">
        <ele>1024.052681</ele>
        <time>2020-08-08T07:44:38.149Z</time>
      </trkpt>
      <trkpt lat="38.515537" lon="-2.961418">
        <ele>1024.594132</ele>
        <time>2020-08-08T07:44:40.159Z</time>
      </trkpt>
      <trkpt lat="38.515520" lon="-2.961593">
        <ele>1025.093668</ele>
        <time>2020-08-08T07:44:42.153Z</time>
      </trkpt>
      <trkpt lat="38.515501" lon="-2.961782">
        <ele>1025.633456</ele>
        <time>2020-08-08T07:44:44.141Z</time>
      </trkpt>
      <trkpt lat="38.515485" lon="-2.961958">
        <ele>1025.144939</ele>
        <time>2020-08-08T07:44:46.150Z</time>
      </trkpt>
      <trkpt lat="38.515482" lon="-2.962139">
        <ele>1024.487124</ele>
        <time>2020-08-08T07:44:48.157Z</time>
      </trkpt>
      <trkpt lat="38.515443" lon="-2.962309">
        <ele>1023.843421</ele>
        <time>2020-08-08T07:44:50.155Z</time>
      </trkpt>
      <trkpt lat="38.515370" lon="-2.962490">
        <ele>1023.103523</ele>
        <time>2020-08-08T07:44:52.160Z</time>
      </trkpt>
      <trkpt lat="38.515308" lon="-2.962692">
        <ele>1022.315098</ele>
        <time>2020-08-08T07:44:54.147Z</time>
      </trkpt>
      <trkpt lat="38.515265" lon="-2.962910">
        <ele>1021.498206</ele>
        <time>2020-08-08T07:44:56.142Z</time>
      </trkpt>
      <trkpt lat="38.515239" lon="-2.963021">
        <ele>1021.077199</ele>
        <time>2020-08-08T07:44:57.153Z</time>
      </trkpt>
      <trkpt lat="38.515206" lon="-2.963133">
        <ele>1020.642345</ele>
        <time>2020-08-08T07:44:58.156Z</time>
      </trkpt>
      <trkpt lat="38.515181" lon="-2.963245">
        <ele>1020.219153</ele>
        <time>2020-08-08T07:44:59.151Z</time>
      </trkpt>
      <trkpt lat="38.515155" lon="-2.963364">
        <ele>1019.770220</ele>
        <time>2020-08-08T07:45:00.150Z</time>
      </trkpt>
      <trkpt lat="38.515142" lon="-2.963478">
        <ele>1019.351621</ele>
        <time>2020-08-08T07:45:01.145Z</time>
      </trkpt>
      <trkpt lat="38.515109" lon="-2.963588">
        <ele>1018.923559</ele>
        <time>2020-08-08T07:45:02.144Z</time>
      </trkpt>
      <trkpt lat="38.515061" lon="-2.963706">
        <ele>1018.440320</ele>
        <time>2020-08-08T07:45:03.141Z</time>
      </trkpt>
      <trkpt lat="38.515034" lon="-2.963821">
        <ele>1018.004057</ele>
        <time>2020-08-08T07:45:04.163Z</time>
      </trkpt>
      <trkpt lat="38.514979" lon="-2.963939">
        <ele>1017.504989</ele>
        <time>2020-08-08T07:45:05.162Z</time>
      </trkpt>
      <trkpt lat="38.514902" lon="-2.964036">
        <ele>1016.994255</ele>
        <time>2020-08-08T07:45:06.140Z</time>
      </trkpt>
      <trkpt lat="38.514828" lon="-2.964122">
        <ele>1016.518162</ele>
        <time>2020-08-08T07:45:07.152Z</time>
      </trkpt>
      <trkpt lat="38.514773" lon="-2.964220">
        <ele>1016.068984</ele>
        <time>2020-08-08T07:45:08.157Z</time>
      </trkpt>
      <trkpt lat="38.514729" lon="-2.964329">
        <ele>1015.612179</ele>
        <time>2020-08-08T07:45:09.154Z</time>
      </trkpt>
      <trkpt lat="38.514641" lon="-2.964514">
        <ele>1014.805822</ele>
        <time>2020-08-08T07:45:11.167Z</time>
      </trkpt>
      <trkpt lat="38.514555" lon="-2.964696">
        <ele>1014.013954</ele>
        <time>2020-08-08T07:45:13.156Z</time>
      </trkpt>
      <trkpt lat="38.514481" lon="-2.964867">
        <ele>1013.286156</ele>
        <time>2020-08-08T07:45:15.153Z</time>
      </trkpt>
      <trkpt lat="38.514441" lon="-2.965033">
        <ele>1012.639243</ele>
        <time>2020-08-08T07:45:17.154Z</time>
      </trkpt>
      <trkpt lat="38.514400" lon="-2.965201">
        <ele>1011.983805</ele>
        <time>2020-08-08T07:45:19.153Z</time>
      </trkpt>
      <trkpt lat="38.514349" lon="-2.965353">
        <ele>1011.367833</ele>
        <time>2020-08-08T07:45:21.153Z</time>
      </trkpt>
      <trkpt lat="38.514279" lon="-2.965494">
        <ele>1010.745897</ele>
        <time>2020-08-08T07:45:23.169Z</time>
      </trkpt>
      <trkpt lat="38.514210" lon="-2.965650">
        <ele>1010.078475</ele>
        <time>2020-08-08T07:45:25.154Z</time>
      </trkpt>
      <trkpt lat="38.514133" lon="-2.965773">
        <ele>1009.491789</ele>
        <time>2020-08-08T07:45:27.152Z</time>
      </trkpt>
      <trkpt lat="38.514037" lon="-2.965869">
        <ele>1008.911571</ele>
        <time>2020-08-08T07:45:29.147Z</time>
      </trkpt>
      <trkpt lat="38.513934" lon="-2.965957">
        <ele>1007.886599</ele>
        <time>2020-08-08T07:45:31.145Z</time>
      </trkpt>
      <trkpt lat="38.513826" lon="-2.966018">
        <ele>1006.799094</ele>
        <time>2020-08-08T07:45:33.149Z</time>
      </trkpt>
      <trkpt lat="38.513729" lon="-2.966122">
        <ele>1005.632965</ele>
        <time>2020-08-08T07:45:35.148Z</time>
      </trkpt>
      <trkpt lat="38.513663" lon="-2.966276">
        <ele>1004.367586</ele>
        <time>2020-08-08T07:45:37.146Z</time>
      </trkpt>
      <trkpt lat="38.513594" lon="-2.966453">
        <ele>1002.942482</ele>
        <time>2020-08-08T07:45:39.151Z</time>
      </trkpt>
      <trkpt lat="38.513546" lon="-2.966622">
        <ele>1001.646817</ele>
        <time>2020-08-08T07:45:41.159Z</time>
      </trkpt>
      <trkpt lat="38.513509" lon="-2.966754">
        <ele>1000.636352</ele>
        <time>2020-08-08T07:45:43.149Z</time>
      </trkpt>
      <trkpt lat="38.513483" lon="-2.966935">
        <ele>999.310162</ele>
        <time>2020-08-08T07:45:46.155Z</time>
      </trkpt>
      <trkpt lat="38.513463" lon="-2.967055">
        <ele>998.425972</ele>
        <time>2020-08-08T07:45:48.154Z</time>
      </trkpt>
      <trkpt lat="38.513427" lon="-2.967171">
        <ele>997.526655</ele>
        <time>2020-08-08T07:45:50.157Z</time>
      </trkpt>
      <trkpt lat="38.513397" lon="-2.967292">
        <ele>996.611929</ele>
        <time>2020-08-08T07:45:51.928Z</time>
      </trkpt>
      <trkpt lat="38.513367" lon="-2.967418">
        <ele>995.662790</ele>
        <time>2020-08-08T07:45:53.940Z</time>
      </trkpt>
      <trkpt lat="38.513311" lon="-2.967542">
        <ele>994.631010</ele>
        <time>2020-08-08T07:45:55.954Z</time>
      </trkpt>
      <trkpt lat="38.513269" lon="-2.967647">
        <ele>993.781176</ele>
        <time>2020-08-08T07:45:57.930Z</time>
      </trkpt>
      <trkpt lat="38.513237" lon="-2.967768">
        <ele>992.860716</ele>
        <time>2020-08-08T07:45:59.945Z</time>
      </trkpt>
      <trkpt lat="38.513130" lon="-2.967830">
        <ele>991.917777</ele>
        <time>2020-08-08T07:46:03.932Z</time>
      </trkpt>
      <trkpt lat="38.513050" lon="-2.967760">
        <ele>991.305259</ele>
        <time>2020-08-08T07:46:05.943Z</time>
      </trkpt>
      <trkpt lat="38.512950" lon="-2.967671">
        <ele>990.535398</ele>
        <time>2020-08-08T07:46:07.932Z</time>
      </trkpt>
      <trkpt lat="38.512855" lon="-2.967574">
        <ele>989.767196</ele>
        <time>2020-08-08T07:46:09.941Z</time>
      </trkpt>
      <trkpt lat="38.512771" lon="-2.967474">
        <ele>989.041945</ele>
        <time>2020-08-08T07:46:11.937Z</time>
      </trkpt>
      <trkpt lat="38.512680" lon="-2.967383">
        <ele>988.311961</ele>
        <time>2020-08-08T07:46:13.941Z</time>
      </trkpt>
      <trkpt lat="38.512592" lon="-2.967296">
        <ele>987.609079</ele>
        <time>2020-08-08T07:46:15.940Z</time>
      </trkpt>
      <trkpt lat="38.512501" lon="-2.967232">
        <ele>986.952871</ele>
        <time>2020-08-08T07:46:17.940Z</time>
      </trkpt>
      <trkpt lat="38.512412" lon="-2.967174">
        <ele>986.321720</ele>
        <time>2020-08-08T07:46:19.940Z</time>
      </trkpt>
      <trkpt lat="38.512330" lon="-2.967104">
        <ele>985.698733</ele>
        <time>2020-08-08T07:46:21.935Z</time>
      </trkpt>
      <trkpt lat="38.512239" lon="-2.967046">
        <ele>985.056299</ele>
        <time>2020-08-08T07:46:23.935Z</time>
      </trkpt>
      <trkpt lat="38.512120" lon="-2.966953">
        <ele>984.175075</ele>
        <time>2020-08-08T07:46:26.940Z</time>
      </trkpt>
      <trkpt lat="38.512019" lon="-2.966883">
        <ele>983.449204</ele>
        <time>2020-08-08T07:46:28.939Z</time>
      </trkpt>
      <trkpt lat="38.511915" lon="-2.966803">
        <ele>982.682332</ele>
        <time>2020-08-08T07:46:30.937Z</time>
      </trkpt>
      <trkpt lat="38.511816" lon="-2.966710">
        <ele>981.906098</ele>
        <time>2020-08-08T07:46:32.940Z</time>
      </trkpt>
      <trkpt lat="38.511688" lon="-2.966602">
        <ele>980.937097</ele>
        <time>2020-08-08T07:46:34.948Z</time>
      </trkpt>
      <trkpt lat="38.511561" lon="-2.966491">
        <ele>980.535736</ele>
        <time>2020-08-08T07:46:36.946Z</time>
      </trkpt>
      <trkpt lat="38.511438" lon="-2.966378">
        <ele>980.190043</ele>
        <time>2020-08-08T07:46:38.940Z</time>
      </trkpt>
      <trkpt lat="38.511301" lon="-2.966263">
        <ele>979.815993</ele>
        <time>2020-08-08T07:46:40.940Z</time>
      </trkpt>
      <trkpt lat="38.511171" lon="-2.966143">
        <ele>979.450032</ele>
        <time>2020-08-08T07:46:42.934Z</time>
      </trkpt>
      <trkpt lat="38.511039" lon="-2.966008">
        <ele>979.064217</ele>
        <time>2020-08-08T07:46:44.941Z</time>
      </trkpt>
      <trkpt lat="38.510910" lon="-2.965882">
        <ele>978.693697</ele>
        <time>2020-08-08T07:46:46.953Z</time>
      </trkpt>
      <trkpt lat="38.510792" lon="-2.965759">
        <ele>978.346200</ele>
        <time>2020-08-08T07:46:48.936Z</time>
      </trkpt>
      <trkpt lat="38.510669" lon="-2.965626">
        <ele>977.978514</ele>
        <time>2020-08-08T07:46:50.953Z</time>
      </trkpt>
      <trkpt lat="38.510609" lon="-2.965539">
        <ele>977.771432</ele>
        <time>2020-08-08T07:46:51.939Z</time>
      </trkpt>
      <trkpt lat="38.510487" lon="-2.965412">
        <ele>977.412346</ele>
        <time>2020-08-08T07:46:53.937Z</time>
      </trkpt>
      <trkpt lat="38.510369" lon="-2.965265">
        <ele>977.036291</ele>
        <time>2020-08-08T07:46:55.944Z</time>
      </trkpt>
      <trkpt lat="38.510270" lon="-2.965190">
        <ele>976.773655</ele>
        <time>2020-08-08T07:46:57.928Z</time>
      </trkpt>
      <trkpt lat="38.510189" lon="-2.965063">
        <ele>975.810593</ele>
        <time>2020-08-08T07:46:59.944Z</time>
      </trkpt>
      <trkpt lat="38.510116" lon="-2.964984">
        <ele>975.055695</ele>
        <time>2020-08-08T07:47:03.942Z</time>
      </trkpt>
      <trkpt lat="38.509875" lon="-2.964769">
        <ele>972.736232</ele>
        <time>2020-08-08T07:47:37.937Z</time>
      </trkpt>
      <trkpt lat="38.509814" lon="-2.964673">
        <ele>971.972572</ele>
        <time>2020-08-08T07:47:40.935Z</time>
      </trkpt>
      <trkpt lat="38.509732" lon="-2.964599">
        <ele>971.180372</ele>
        <time>2020-08-08T07:47:43.925Z</time>
      </trkpt>
      <trkpt lat="38.509643" lon="-2.964526">
        <ele>970.345793</ele>
        <time>2020-08-08T07:47:47.940Z</time>
      </trkpt>
      <trkpt lat="38.509527" lon="-2.964489">
        <ele>969.402277</ele>
        <time>2020-08-08T07:47:51.938Z</time>
      </trkpt>
      <trkpt lat="38.509442" lon="-2.964449">
        <ele>968.687451</ele>
        <time>2020-08-08T07:47:54.942Z</time>
      </trkpt>
      <trkpt lat="38.509336" lon="-2.964399">
        <ele>967.795770</ele>
        <time>2020-08-08T07:47:58.935Z</time>
      </trkpt>
      <trkpt lat="38.509240" lon="-2.964352">
        <ele>966.984477</ele>
        <time>2020-08-08T07:48:03.944Z</time>
      </trkpt>
      <trkpt lat="38.509161" lon="-2.964289">
        <ele>966.249607</ele>
        <time>2020-08-08T07:48:08.935Z</time>
      </trkpt>
      <trkpt lat="38.509073" lon="-2.964239">
        <ele>965.489594</ele>
        <time>2020-08-08T07:48:12.940Z</time>
      </trkpt>
      <trkpt lat="38.508966" lon="-2.964182">
        <ele>964.574758</ele>
        <time>2020-08-08T07:48:15.938Z</time>
      </trkpt>
      <trkpt lat="38.508871" lon="-2.964104">
        <ele>963.683650</ele>
        <time>2020-08-08T07:48:18.931Z</time>
      </trkpt>
      <trkpt lat="38.508762" lon="-2.964041">
        <ele>962.739571</ele>
        <time>2020-08-08T07:48:21.940Z</time>
      </trkpt>
      <trkpt lat="38.508647" lon="-2.963977">
        <ele>962.428231</ele>
        <time>2020-08-08T07:48:24.943Z</time>
      </trkpt>
      <trkpt lat="38.508512" lon="-2.963902">
        <ele>962.239856</ele>
        <time>2020-08-08T07:48:27.936Z</time>
      </trkpt>
      <trkpt lat="38.508405" lon="-2.963853">
        <ele>962.094405</ele>
        <time>2020-08-08T07:48:29.949Z</time>
      </trkpt>
      <trkpt lat="38.508303" lon="-2.963777">
        <ele>961.943312</ele>
        <time>2020-08-08T07:48:31.951Z</time>
      </trkpt>
      <trkpt lat="38.508224" lon="-2.963722">
        <ele>961.828189</ele>
        <time>2020-08-08T07:48:33.942Z</time>
      </trkpt>
      <trkpt lat="38.508102" lon="-2.963661">
        <ele>961.660544</ele>
        <time>2020-08-08T07:48:36.949Z</time>
      </trkpt>
      <trkpt lat="38.507983" lon="-2.963612">
        <ele>961.500553</ele>
        <time>2020-08-08T07:48:39.953Z</time>
      </trkpt>
      <trkpt lat="38.507882" lon="-2.963557">
        <ele>961.360061</ele>
        <time>2020-08-08T07:48:41.943Z</time>
      </trkpt>
      <trkpt lat="38.507781" lon="-2.963479">
        <ele>961.209046</ele>
        <time>2020-08-08T07:48:43.940Z</time>
      </trkpt>
      <trkpt lat="38.507668" lon="-2.963392">
        <ele>961.040227</ele>
        <time>2020-08-08T07:48:46.936Z</time>
      </trkpt>
      <trkpt lat="38.507554" lon="-2.963311">
        <ele>960.873311</ele>
        <time>2020-08-08T07:48:49.939Z</time>
      </trkpt>
      <trkpt lat="38.507456" lon="-2.963287">
        <ele>960.745621</ele>
        <time>2020-08-08T07:48:51.938Z</time>
      </trkpt>
      <trkpt lat="38.507358" lon="-2.963225">
        <ele>960.605686</ele>
        <time>2020-08-08T07:48:53.939Z</time>
      </trkpt>
      <trkpt lat="38.507250" lon="-2.963170">
        <ele>960.456911</ele>
        <time>2020-08-08T07:48:55.936Z</time>
      </trkpt>
      <trkpt lat="38.507155" lon="-2.963127">
        <ele>960.327941</ele>
        <time>2020-08-08T07:48:57.942Z</time>
      </trkpt>
      <trkpt lat="38.507056" lon="-2.963091">
        <ele>959.926711</ele>
        <time>2020-08-08T07:48:59.942Z</time>
      </trkpt>
      <trkpt lat="38.506945" lon="-2.963088">
        <ele>959.163528</ele>
        <time>2020-08-08T07:49:01.940Z</time>
      </trkpt>
      <trkpt lat="38.506847" lon="-2.963066">
        <ele>958.479562</ele>
        <time>2020-08-08T07:49:03.935Z</time>
      </trkpt>
      <trkpt lat="38.506750" lon="-2.963041">
        <ele>957.799359</ele>
        <time>2020-08-08T07:49:05.953Z</time>
      </trkpt>
      <trkpt lat="38.506654" lon="-2.963029">
        <ele>957.136307</ele>
        <time>2020-08-08T07:49:08.940Z</time>
      </trkpt>
      <trkpt lat="38.506557" lon="-2.963002">
        <ele>956.453896</ele>
        <time>2020-08-08T07:49:40.937Z</time>
      </trkpt>
      <trkpt lat="38.506448" lon="-2.962977">
        <ele>955.692659</ele>
        <time>2020-08-08T07:49:43.938Z</time>
      </trkpt>
      <trkpt lat="38.506326" lon="-2.962927">
        <ele>954.811959</ele>
        <time>2020-08-08T07:49:46.938Z</time>
      </trkpt>
      <trkpt lat="38.506238" lon="-2.962890">
        <ele>954.175147</ele>
        <time>2020-08-08T07:49:48.945Z</time>
      </trkpt>
      <trkpt lat="38.506146" lon="-2.962857">
        <ele>953.518299</ele>
        <time>2020-08-08T07:49:50.943Z</time>
      </trkpt>
      <trkpt lat="38.506031" lon="-2.962813">
        <ele>952.693118</ele>
        <time>2020-08-08T07:49:52.943Z</time>
      </trkpt>
      <trkpt lat="38.505939" lon="-2.962796">
        <ele>952.054134</ele>
        <time>2020-08-08T07:49:54.939Z</time>
      </trkpt>
      <trkpt lat="38.505833" lon="-2.962752">
        <ele>951.288014</ele>
        <time>2020-08-08T07:49:56.935Z</time>
      </trkpt>
      <trkpt lat="38.505736" lon="-2.962728">
        <ele>950.608854</ele>
        <time>2020-08-08T07:49:58.931Z</time>
      </trkpt>
      <trkpt lat="38.505629" lon="-2.962704">
        <ele>949.862094</ele>
        <time>2020-08-08T07:50:00.946Z</time>
      </trkpt>
      <trkpt lat="38.505539" lon="-2.962701">
        <ele>949.243224</ele>
        <time>2020-08-08T07:50:02.949Z</time>
      </trkpt>
      <trkpt lat="38.505433" lon="-2.962705">
        <ele>948.514264</ele>
        <time>2020-08-08T07:50:04.938Z</time>
      </trkpt>
      <trkpt lat="38.505333" lon="-2.962703">
        <ele>947.833387</ele>
        <time>2020-08-08T07:50:06.936Z</time>
      </trkpt>
      <trkpt lat="38.505209" lon="-2.962684">
        <ele>947.059238</ele>
        <time>2020-08-08T07:50:08.942Z</time>
      </trkpt>
      <trkpt lat="38.505105" lon="-2.962691">
        <ele>946.413676</ele>
        <time>2020-08-08T07:50:10.937Z</time>
      </trkpt>
      <trkpt lat="38.504999" lon="-2.962672">
        <ele>945.750178</ele>
        <time>2020-08-08T07:50:12.947Z</time>
      </trkpt>
      <trkpt lat="38.504875" lon="-2.962643">
        <ele>944.968768</ele>
        <time>2020-08-08T07:50:14.936Z</time>
      </trkpt>
      <trkpt lat="38.504778" lon="-2.962665">
        <ele>944.358094</ele>
        <time>2020-08-08T07:50:16.933Z</time>
      </trkpt>
      <trkpt lat="38.504679" lon="-2.962666">
        <ele>943.744400</ele>
        <time>2020-08-08T07:50:18.945Z</time>
      </trkpt>
      <trkpt lat="38.504571" lon="-2.962660">
        <ele>943.074304</ele>
        <time>2020-08-08T07:50:20.952Z</time>
      </trkpt>
      <trkpt lat="38.504465" lon="-2.962651">
        <ele>942.415790</ele>
        <time>2020-08-08T07:50:22.939Z</time>
      </trkpt>
      <trkpt lat="38.504372" lon="-2.962674">
        <ele>941.828610</ele>
        <time>2020-08-08T07:50:24.940Z</time>
      </trkpt>
      <trkpt lat="38.504267" lon="-2.962696">
        <ele>941.169052</ele>
        <time>2020-08-08T07:50:26.937Z</time>
      </trkpt>
      <trkpt lat="38.504166" lon="-2.962727">
        <ele>940.525173</ele>
        <time>2020-08-08T07:50:28.941Z</time>
      </trkpt>
      <trkpt lat="38.504068" lon="-2.962785">
        <ele>939.855706</ele>
        <time>2020-08-08T07:50:30.944Z</time>
      </trkpt>
      <trkpt lat="38.503970" lon="-2.962821">
        <ele>939.223627</ele>
        <time>2020-08-08T07:50:32.939Z</time>
      </trkpt>
      <trkpt lat="38.503867" lon="-2.962860">
        <ele>938.557719</ele>
        <time>2020-08-08T07:50:34.928Z</time>
      </trkpt>
      <trkpt lat="38.503762" lon="-2.962895">
        <ele>937.885072</ele>
        <time>2020-08-08T07:50:36.944Z</time>
      </trkpt>
      <trkpt lat="38.503642" lon="-2.962922">
        <ele>937.129781</ele>
        <time>2020-08-08T07:50:38.942Z</time>
      </trkpt>
      <trkpt lat="38.503534" lon="-2.962960">
        <ele>937.002536</ele>
        <time>2020-08-08T07:50:40.944Z</time>
      </trkpt>
      <trkpt lat="38.503418" lon="-2.962993">
        <ele>937.616564</ele>
        <time>2020-08-08T07:50:42.952Z</time>
      </trkpt>
      <trkpt lat="38.503314" lon="-2.963020">
        <ele>938.164893</ele>
        <time>2020-08-08T07:50:44.936Z</time>
      </trkpt>
      <trkpt lat="38.503219" lon="-2.963075">
        <ele>938.703772</ele>
        <time>2020-08-08T07:50:46.939Z</time>
      </trkpt>
      <trkpt lat="38.503103" lon="-2.963114">
        <ele>939.323524</ele>
        <time>2020-08-08T07:50:48.939Z</time>
      </trkpt>
      <trkpt lat="38.502993" lon="-2.963136">
        <ele>939.898796</ele>
        <time>2020-08-08T07:50:50.941Z</time>
      </trkpt>
      <trkpt lat="38.502897" lon="-2.963171">
        <ele>940.414607</ele>
        <time>2020-08-08T07:50:52.966Z</time>
      </trkpt>
      <trkpt lat="38.502799" lon="-2.963185">
        <ele>940.924113</ele>
        <time>2020-08-08T07:50:54.931Z</time>
      </trkpt>
      <trkpt lat="38.502684" lon="-2.963218">
        <ele>941.533098</ele>
        <time>2020-08-08T07:50:56.942Z</time>
      </trkpt>
      <trkpt lat="38.502583" lon="-2.963243">
        <ele>942.064649</ele>
        <time>2020-08-08T07:50:58.945Z</time>
      </trkpt>
      <trkpt lat="38.502478" lon="-2.963281">
        <ele>942.628507</ele>
        <time>2020-08-08T07:51:00.940Z</time>
      </trkpt>
      <trkpt lat="38.502376" lon="-2.963322">
        <ele>943.180985</ele>
        <time>2020-08-08T07:51:02.933Z</time>
      </trkpt>
      <trkpt lat="38.502237" lon="-2.963360">
        <ele>943.915429</ele>
        <time>2020-08-08T07:51:04.934Z</time>
      </trkpt>
      <trkpt lat="38.502131" lon="-2.963470">
        <ele>944.620973</ele>
        <time>2020-08-08T07:51:06.945Z</time>
      </trkpt>
      <trkpt lat="38.502045" lon="-2.963590">
        <ele>945.278912</ele>
        <time>2020-08-08T07:51:08.938Z</time>
      </trkpt>
      <trkpt lat="38.501983" lon="-2.963712">
        <ele>945.867106</ele>
        <time>2020-08-08T07:51:10.949Z</time>
      </trkpt>
      <trkpt lat="38.501917" lon="-2.963828">
        <ele>945.820855</ele>
        <time>2020-08-08T07:51:12.934Z</time>
      </trkpt>
      <trkpt lat="38.501847" lon="-2.963942">
        <ele>945.509743</ele>
        <time>2020-08-08T07:51:14.940Z</time>
      </trkpt>
      <trkpt lat="38.501784" lon="-2.964048">
        <ele>945.223964</ele>
        <time>2020-08-08T07:51:16.934Z</time>
      </trkpt>
      <trkpt lat="38.501687" lon="-2.964158">
        <ele>944.868156</ele>
        <time>2020-08-08T07:51:18.950Z</time>
      </trkpt>
      <trkpt lat="38.501621" lon="-2.964274">
        <ele>944.560232</ele>
        <time>2020-08-08T07:51:20.943Z</time>
      </trkpt>
      <trkpt lat="38.501548" lon="-2.964347">
        <ele>944.305916</ele>
        <time>2020-08-08T07:51:22.939Z</time>
      </trkpt>
      <trkpt lat="38.501453" lon="-2.964468">
        <ele>943.937918</ele>
        <time>2020-08-08T07:51:24.934Z</time>
      </trkpt>
      <trkpt lat="38.501361" lon="-2.964550">
        <ele>943.630178</ele>
        <time>2020-08-08T07:51:26.934Z</time>
      </trkpt>
      <trkpt lat="38.501245" lon="-2.964609">
        <ele>943.287645</ele>
        <time>2020-08-08T07:51:28.942Z</time>
      </trkpt>
      <trkpt lat="38.501164" lon="-2.964726">
        <ele>942.952252</ele>
        <time>2020-08-08T07:51:30.944Z</time>
      </trkpt>
      <trkpt lat="38.501074" lon="-2.964794">
        <ele>942.665400</ele>
        <time>2020-08-08T07:51:32.939Z</time>
      </trkpt>
      <trkpt lat="38.500979" lon="-2.964888">
        <ele>942.335759</ele>
        <time>2020-08-08T07:51:35.940Z</time>
      </trkpt>
      <trkpt lat="38.500894" lon="-2.964971">
        <ele>942.042264</ele>
        <time>2020-08-08T07:51:38.942Z</time>
      </trkpt>
      <trkpt lat="38.500815" lon="-2.965046">
        <ele>941.772252</ele>
        <time>2020-08-08T07:51:40.942Z</time>
      </trkpt>
      <trkpt lat="38.500721" lon="-2.965155">
        <ele>941.424002</ele>
        <time>2020-08-08T07:51:43.939Z</time>
      </trkpt>
      <trkpt lat="38.500656" lon="-2.965236">
        <ele>941.174910</ele>
        <time>2020-08-08T07:51:45.938Z</time>
      </trkpt>
      <trkpt lat="38.500596" lon="-2.965329">
        <ele>941.205705</ele>
        <time>2020-08-08T07:51:47.941Z</time>
      </trkpt>
      <trkpt lat="38.500527" lon="-2.965418">
        <ele>941.352615</ele>
        <time>2020-08-08T07:51:49.941Z</time>
      </trkpt>
      <trkpt lat="38.500467" lon="-2.965511">
        <ele>941.493955</ele>
        <time>2020-08-08T07:51:51.945Z</time>
      </trkpt>
      <trkpt lat="38.500384" lon="-2.965575">
        <ele>941.639215</ele>
        <time>2020-08-08T07:51:53.940Z</time>
      </trkpt>
      <trkpt lat="38.500338" lon="-2.965714">
        <ele>941.816191</ele>
        <time>2020-08-08T07:51:55.942Z</time>
      </trkpt>
      <trkpt lat="38.500261" lon="-2.965779">
        <ele>941.954475</ele>
        <time>2020-08-08T07:51:57.934Z</time>
      </trkpt>
      <trkpt lat="38.500195" lon="-2.965859">
        <ele>942.090789</ele>
        <time>2020-08-08T07:51:59.938Z</time>
      </trkpt>
      <trkpt lat="38.500124" lon="-2.965930">
        <ele>942.225885</ele>
        <time>2020-08-08T07:52:01.946Z</time>
      </trkpt>
      <trkpt lat="38.500041" lon="-2.965988">
        <ele>942.367638</ele>
        <time>2020-08-08T07:52:03.943Z</time>
      </trkpt>
      <trkpt lat="38.499947" lon="-2.966028">
        <ele>942.516095</ele>
        <time>2020-08-08T07:52:05.939Z</time>
      </trkpt>
      <trkpt lat="38.499847" lon="-2.966112">
        <ele>942.695417</ele>
        <time>2020-08-08T07:52:08.941Z</time>
      </trkpt>
      <trkpt lat="38.499767" lon="-2.966165">
        <ele>942.830445</ele>
        <time>2020-08-08T07:52:10.939Z</time>
      </trkpt>
      <trkpt lat="38.499686" lon="-2.966245">
        <ele>942.983849</ele>
        <time>2020-08-08T07:52:13.944Z</time>
      </trkpt>
      <trkpt lat="38.499547" lon="-2.966244">
        <ele>943.192134</ele>
        <time>2020-08-08T07:52:16.940Z</time>
      </trkpt>
      <trkpt lat="38.499451" lon="-2.966284">
        <ele>943.343438</ele>
        <time>2020-08-08T07:52:19.945Z</time>
      </trkpt>
      <trkpt lat="38.499342" lon="-2.966325">
        <ele>943.513696</ele>
        <time>2020-08-08T07:52:22.938Z</time>
      </trkpt>
      <trkpt lat="38.499241" lon="-2.966381">
        <ele>943.678671</ele>
        <time>2020-08-08T07:52:25.937Z</time>
      </trkpt>
      <trkpt lat="38.499157" lon="-2.966445">
        <ele>943.891642</ele>
        <time>2020-08-08T07:52:28.930Z</time>
      </trkpt>
      <trkpt lat="38.499067" lon="-2.966512">
        <ele>944.436530</ele>
        <time>2020-08-08T07:52:31.944Z</time>
      </trkpt>
      <trkpt lat="38.498974" lon="-2.966578">
        <ele>944.993036</ele>
        <time>2020-08-08T07:52:34.944Z</time>
      </trkpt>
      <trkpt lat="38.498882" lon="-2.966640">
        <ele>945.537145</ele>
        <time>2020-08-08T07:52:37.942Z</time>
      </trkpt>
      <trkpt lat="38.498801" lon="-2.966705">
        <ele>946.037508</ele>
        <time>2020-08-08T07:52:40.946Z</time>
      </trkpt>
      <trkpt lat="38.498725" lon="-2.966772">
        <ele>946.520526</ele>
        <time>2020-08-08T07:52:43.934Z</time>
      </trkpt>
      <trkpt lat="38.498639" lon="-2.966843">
        <ele>947.056148</ele>
        <time>2020-08-08T07:52:46.945Z</time>
      </trkpt>
      <trkpt lat="38.498547" lon="-2.966925">
        <ele>947.642943</ele>
        <time>2020-08-08T07:52:50.938Z</time>
      </trkpt>
      <trkpt lat="38.498466" lon="-2.967001">
        <ele>948.168644</ele>
        <time>2020-08-08T07:52:54.934Z</time>
      </trkpt>
      <trkpt lat="38.498380" lon="-2.967081">
        <ele>948.725124</ele>
        <time>2020-08-08T07:52:58.946Z</time>
      </trkpt>
      <trkpt lat="38.498301" lon="-2.967177">
        <ele>949.295444</ele>
        <time>2020-08-08T07:53:02.938Z</time>
      </trkpt>
      <trkpt lat="38.498233" lon="-2.967285">
        <ele>949.862936</ele>
        <time>2020-08-08T07:53:07.944Z</time>
      </trkpt>
      <trkpt lat="38.498170" lon="-2.967394">
        <ele>950.417697</ele>
        <time>2020-08-08T07:53:11.938Z</time>
      </trkpt>
      <trkpt lat="38.498125" lon="-2.967496">
        <ele>950.897076</ele>
        <time>2020-08-08T07:53:15.940Z</time>
      </trkpt>
      <trkpt lat="38.498101" lon="-2.967611">
        <ele>951.384351</ele>
        <time>2020-08-08T07:53:19.946Z</time>
      </trkpt>
      <trkpt lat="38.498060" lon="-2.967737">
        <ele>951.943020</ele>
        <time>2020-08-08T07:53:23.938Z</time>
      </trkpt>
      <trkpt lat="38.498046" lon="-2.967863">
        <ele>952.464051</ele>
        <time>2020-08-08T07:53:27.942Z</time>
      </trkpt>
      <trkpt lat="38.498025" lon="-2.968014">
        <ele>953.091946</ele>
        <time>2020-08-08T07:53:31.945Z</time>
      </trkpt>
      <trkpt lat="38.498002" lon="-2.968156">
        <ele>953.041539</ele>
        <time>2020-08-08T07:53:34.936Z</time>
      </trkpt>
      <trkpt lat="38.497972" lon="-2.968270">
        <ele>952.870397</ele>
        <time>2020-08-08T07:53:36.951Z</time>
      </trkpt>
      <trkpt lat="38.497928" lon="-2.968410">
        <ele>952.655720</ele>
        <time>2020-08-08T07:53:38.949Z</time>
      </trkpt>
      <trkpt lat="38.497899" lon="-2.968549">
        <ele>952.451022</ele>
        <time>2020-08-08T07:53:40.940Z</time>
      </trkpt>
      <trkpt lat="38.497847" lon="-2.968683">
        <ele>952.238192</ele>
        <time>2020-08-08T07:53:42.942Z</time>
      </trkpt>
      <trkpt lat="38.497792" lon="-2.968816">
        <ele>952.024143</ele>
        <time>2020-08-08T07:53:44.951Z</time>
      </trkpt>
      <trkpt lat="38.497719" lon="-2.968948">
        <ele>951.794150</ele>
        <time>2020-08-08T07:53:46.949Z</time>
      </trkpt>
      <trkpt lat="38.497654" lon="-2.969092">
        <ele>951.557605</ele>
        <time>2020-08-08T07:53:48.928Z</time>
      </trkpt>
      <trkpt lat="38.497584" lon="-2.969233">
        <ele>951.320005</ele>
        <time>2020-08-08T07:53:50.938Z</time>
      </trkpt>
      <trkpt lat="38.497498" lon="-2.969377">
        <ele>951.062252</ele>
        <time>2020-08-08T07:53:52.947Z</time>
      </trkpt>
      <trkpt lat="38.497404" lon="-2.969503">
        <ele>950.814551</ele>
        <time>2020-08-08T07:53:54.949Z</time>
      </trkpt>
      <trkpt lat="38.497314" lon="-2.969624">
        <ele>950.577017</ele>
        <time>2020-08-08T07:53:56.946Z</time>
      </trkpt>
      <trkpt lat="38.497220" lon="-2.969730">
        <ele>950.349067</ele>
        <time>2020-08-08T07:53:58.942Z</time>
      </trkpt>
      <trkpt lat="38.497134" lon="-2.969851">
        <ele>950.116484</ele>
        <time>2020-08-08T07:54:00.943Z</time>
      </trkpt>
      <trkpt lat="38.497058" lon="-2.969972">
        <ele>949.860987</ele>
        <time>2020-08-08T07:54:02.945Z</time>
      </trkpt>
      <trkpt lat="38.496971" lon="-2.970092">
        <ele>949.434411</ele>
        <time>2020-08-08T07:54:04.925Z</time>
      </trkpt>
      <trkpt lat="38.496889" lon="-2.970209">
        <ele>949.024837</ele>
        <time>2020-08-08T07:54:06.944Z</time>
      </trkpt>
      <trkpt lat="38.496792" lon="-2.970317">
        <ele>948.596129</ele>
        <time>2020-08-08T07:54:08.940Z</time>
      </trkpt>
      <trkpt lat="38.496695" lon="-2.970446">
        <ele>948.129612</ele>
        <time>2020-08-08T07:54:10.929Z</time>
      </trkpt>
      <trkpt lat="38.496609" lon="-2.970536">
        <ele>947.759203</ele>
        <time>2020-08-08T07:54:12.945Z</time>
      </trkpt>
      <trkpt lat="38.496511" lon="-2.970672">
        <ele>947.277104</ele>
        <time>2020-08-08T07:54:14.937Z</time>
      </trkpt>
      <trkpt lat="38.496431" lon="-2.970792">
        <ele>946.866020</ele>
        <time>2020-08-08T07:54:16.946Z</time>
      </trkpt>
      <trkpt lat="38.496348" lon="-2.970927">
        <ele>946.418323</ele>
        <time>2020-08-08T07:54:18.935Z</time>
      </trkpt>
      <trkpt lat="38.496264" lon="-2.971021">
        <ele>946.046256</ele>
        <time>2020-08-08T07:54:20.956Z</time>
      </trkpt>
      <trkpt lat="38.496168" lon="-2.971136">
        <ele>945.607775</ele>
        <time>2020-08-08T07:54:23.938Z</time>
      </trkpt>
      <trkpt lat="38.496064" lon="-2.971234">
        <ele>945.177190</ele>
        <time>2020-08-08T07:54:25.942Z</time>
      </trkpt>
      <trkpt lat="38.495944" lon="-2.971290">
        <ele>944.751505</ele>
        <time>2020-08-08T07:54:27.941Z</time>
      </trkpt>
      <trkpt lat="38.495835" lon="-2.971337">
        <ele>944.368183</ele>
        <time>2020-08-08T07:54:29.945Z</time>
      </trkpt>
      <trkpt lat="38.495716" lon="-2.971408">
        <ele>943.908935</ele>
        <time>2020-08-08T07:54:31.949Z</time>
      </trkpt>
      <trkpt lat="38.495590" lon="-2.971459">
        <ele>942.769206</ele>
        <time>2020-08-08T07:54:33.943Z</time>
      </trkpt>
      <trkpt lat="38.495447" lon="-2.971513">
        <ele>941.483371</ele>
        <time>2020-08-08T07:54:35.942Z</time>
      </trkpt>
      <trkpt lat="38.495315" lon="-2.971576">
        <ele>940.268299</ele>
        <time>2020-08-08T07:54:37.942Z</time>
      </trkpt>
      <trkpt lat="38.495171" lon="-2.971641">
        <ele>938.951358</ele>
        <time>2020-08-08T07:54:39.938Z</time>
      </trkpt>
      <trkpt lat="38.495016" lon="-2.971711">
        <ele>937.533738</ele>
        <time>2020-08-08T07:54:41.943Z</time>
      </trkpt>
      <trkpt lat="38.494860" lon="-2.971767">
        <ele>936.136446</ele>
        <time>2020-08-08T07:54:43.947Z</time>
      </trkpt>
      <trkpt lat="38.494712" lon="-2.971832">
        <ele>934.786932</ele>
        <time>2020-08-08T07:54:45.938Z</time>
      </trkpt>
      <trkpt lat="38.494565" lon="-2.971904">
        <ele>933.429384</ele>
        <time>2020-08-08T07:54:47.943Z</time>
      </trkpt>
      <trkpt lat="38.494419" lon="-2.971933">
        <ele>932.155285</ele>
        <time>2020-08-08T07:54:49.932Z</time>
      </trkpt>
      <trkpt lat="38.494260" lon="-2.971984">
        <ele>930.741664</ele>
        <time>2020-08-08T07:54:51.938Z</time>
      </trkpt>
      <trkpt lat="38.494111" lon="-2.972018">
        <ele>929.436488</ele>
        <time>2020-08-08T07:54:53.936Z</time>
      </trkpt>
      <trkpt lat="38.493988" lon="-2.972094">
        <ele>928.317975</ele>
        <time>2020-08-08T07:54:55.939Z</time>
      </trkpt>
      <trkpt lat="38.493854" lon="-2.972150">
        <ele>927.514408</ele>
        <time>2020-08-08T07:54:57.937Z</time>
      </trkpt>
      <trkpt lat="38.493727" lon="-2.972216">
        <ele>926.732969</ele>
        <time>2020-08-08T07:54:59.940Z</time>
      </trkpt>
      <trkpt lat="38.493598" lon="-2.972238">
        <ele>925.991197</ele>
        <time>2020-08-08T07:55:01.939Z</time>
      </trkpt>
      <trkpt lat="38.493496" lon="-2.972266">
        <ele>925.396569</ele>
        <time>2020-08-08T07:55:03.932Z</time>
      </trkpt>
      <trkpt lat="38.493369" lon="-2.972251">
        <ele>924.669630</ele>
        <time>2020-08-08T07:55:05.941Z</time>
      </trkpt>
      <trkpt lat="38.493232" lon="-2.972270">
        <ele>923.884195</ele>
        <time>2020-08-08T07:55:07.931Z</time>
      </trkpt>
      <trkpt lat="38.493097" lon="-2.972278">
        <ele>923.113919</ele>
        <time>2020-08-08T07:55:09.936Z</time>
      </trkpt>
      <trkpt lat="38.492947" lon="-2.972282">
        <ele>922.258790</ele>
        <time>2020-08-08T07:55:11.942Z</time>
      </trkpt>
      <trkpt lat="38.492789" lon="-2.972291">
        <ele>921.357355</ele>
        <time>2020-08-08T07:55:13.940Z</time>
      </trkpt>
      <trkpt lat="38.492632" lon="-2.972296">
        <ele>920.462237</ele>
        <time>2020-08-08T07:55:15.948Z</time>
      </trkpt>
      <trkpt lat="38.492468" lon="-2.972305">
        <ele>919.526637</ele>
        <time>2020-08-08T07:55:17.934Z</time>
      </trkpt>
      <trkpt lat="38.492303" lon="-2.972326">
        <ele>918.581545</ele>
        <time>2020-08-08T07:55:19.947Z</time>
      </trkpt>
      <trkpt lat="38.492141" lon="-2.972368">
        <ele>918.225221</ele>
        <time>2020-08-08T07:55:21.939Z</time>
      </trkpt>
      <trkpt lat="38.492051" lon="-2.972394">
        <ele>918.266405</ele>
        <time>2020-08-08T07:55:22.939Z</time>
      </trkpt>
      <trkpt lat="38.491896" lon="-2.972478">
        <ele>918.341552</ele>
        <time>2020-08-08T07:55:24.934Z</time>
      </trkpt>
      <trkpt lat="38.491761" lon="-2.972581">
        <ele>918.411732</ele>
        <time>2020-08-08T07:55:26.931Z</time>
      </trkpt>
      <trkpt lat="38.491618" lon="-2.972665">
        <ele>918.481979</ele>
        <time>2020-08-08T07:55:28.931Z</time>
      </trkpt>
      <trkpt lat="38.491492" lon="-2.972731">
        <ele>918.542759</ele>
        <time>2020-08-08T07:55:30.940Z</time>
      </trkpt>
      <trkpt lat="38.491380" lon="-2.972785">
        <ele>918.596189</ele>
        <time>2020-08-08T07:55:32.934Z</time>
      </trkpt>
      <trkpt lat="38.491265" lon="-2.972829">
        <ele>918.649769</ele>
        <time>2020-08-08T07:55:34.933Z</time>
      </trkpt>
      <trkpt lat="38.491147" lon="-2.972855">
        <ele>918.703213</ele>
        <time>2020-08-08T07:55:36.945Z</time>
      </trkpt>
      <trkpt lat="38.491041" lon="-2.972885">
        <ele>918.751670</ele>
        <time>2020-08-08T07:55:38.939Z</time>
      </trkpt>
      <trkpt lat="38.490930" lon="-2.972907">
        <ele>918.801805</ele>
        <time>2020-08-08T07:55:40.935Z</time>
      </trkpt>
      <trkpt lat="38.490803" lon="-2.972925">
        <ele>918.858837</ele>
        <time>2020-08-08T07:55:42.938Z</time>
      </trkpt>
      <trkpt lat="38.490678" lon="-2.972932">
        <ele>918.914681</ele>
        <time>2020-08-08T07:55:44.936Z</time>
      </trkpt>
      <trkpt lat="38.490566" lon="-2.972941">
        <ele>918.964768</ele>
        <time>2020-08-08T07:55:46.933Z</time>
      </trkpt>
      <trkpt lat="38.490456" lon="-2.972948">
        <ele>919.014129</ele>
        <time>2020-08-08T07:55:48.966Z</time>
      </trkpt>
      <trkpt lat="38.490354" lon="-2.972955">
        <ele>919.060047</ele>
        <time>2020-08-08T07:55:50.944Z</time>
      </trkpt>
      <trkpt lat="38.490249" lon="-2.972942">
        <ele>919.107469</ele>
        <time>2020-08-08T07:55:52.944Z</time>
      </trkpt>
      <trkpt lat="38.490151" lon="-2.972929">
        <ele>919.151759</ele>
        <time>2020-08-08T07:55:54.942Z</time>
      </trkpt>
      <trkpt lat="38.490044" lon="-2.972915">
        <ele>919.200110</ele>
        <time>2020-08-08T07:55:56.940Z</time>
      </trkpt>
      <trkpt lat="38.489937" lon="-2.972869">
        <ele>919.250859</ele>
        <time>2020-08-08T07:55:58.951Z</time>
      </trkpt>
      <trkpt lat="38.489844" lon="-2.972816">
        <ele>919.296636</ele>
        <time>2020-08-08T07:56:00.943Z</time>
      </trkpt>
      <trkpt lat="38.489738" lon="-2.972760">
        <ele>919.348199</ele>
        <time>2020-08-08T07:56:02.949Z</time>
      </trkpt>
      <trkpt lat="38.489630" lon="-2.972714">
        <ele>919.399375</ele>
        <time>2020-08-08T07:56:04.957Z</time>
      </trkpt>
      <trkpt lat="38.489520" lon="-2.972680">
        <ele>919.450249</ele>
        <time>2020-08-08T07:56:06.947Z</time>
      </trkpt>
      <trkpt lat="38.489406" lon="-2.972646">
        <ele>919.502873</ele>
        <time>2020-08-08T07:56:08.940Z</time>
      </trkpt>
      <trkpt lat="38.489306" lon="-2.972603">
        <ele>919.550304</ele>
        <time>2020-08-08T07:56:10.949Z</time>
      </trkpt>
      <trkpt lat="38.489199" lon="-2.972587">
        <ele>919.598731</ele>
        <time>2020-08-08T07:56:12.940Z</time>
      </trkpt>
      <trkpt lat="38.489099" lon="-2.972582">
        <ele>919.643719</ele>
        <time>2020-08-08T07:56:14.945Z</time>
      </trkpt>
      <trkpt lat="38.488973" lon="-2.972567">
        <ele>919.700604</ele>
        <time>2020-08-08T07:56:17.938Z</time>
      </trkpt>
      <trkpt lat="38.488879" lon="-2.972596">
        <ele>919.744074</ele>
        <time>2020-08-08T07:56:20.935Z</time>
      </trkpt>
      <trkpt lat="38.488768" lon="-2.972619">
        <ele>919.793764</ele>
        <time>2020-08-08T07:56:23.940Z</time>
      </trkpt>
      <trkpt lat="38.488661" lon="-2.972646">
        <ele>919.775359</ele>
        <time>2020-08-08T07:56:26.938Z</time>
      </trkpt>
      <trkpt lat="38.488553" lon="-2.972704">
        <ele>919.755590</ele>
        <time>2020-08-08T07:56:30.913Z</time>
      </trkpt>
      <trkpt lat="38.488473" lon="-2.972756">
        <ele>919.740444</ele>
        <time>2020-08-08T07:56:33.921Z</time>
      </trkpt>
      <trkpt lat="38.488376" lon="-2.972811">
        <ele>919.722536</ele>
        <time>2020-08-08T07:56:36.913Z</time>
      </trkpt>
      <trkpt lat="38.488265" lon="-2.972866">
        <ele>919.702445</ele>
        <time>2020-08-08T07:56:39.913Z</time>
      </trkpt>
      <trkpt lat="38.488163" lon="-2.972929">
        <ele>919.683327</ele>
        <time>2020-08-08T07:56:42.911Z</time>
      </trkpt>
      <trkpt lat="38.488068" lon="-2.972997">
        <ele>919.664952</ele>
        <time>2020-08-08T07:56:45.912Z</time>
      </trkpt>
      <trkpt lat="38.487957" lon="-2.973054">
        <ele>919.644765</ele>
        <time>2020-08-08T07:56:48.916Z</time>
      </trkpt>
      <trkpt lat="38.487838" lon="-2.973106">
        <ele>919.623542</ele>
        <time>2020-08-08T07:56:51.911Z</time>
      </trkpt>
      <trkpt lat="38.487724" lon="-2.973171">
        <ele>919.602476</ele>
        <time>2020-08-08T07:56:54.913Z</time>
      </trkpt>
      <trkpt lat="38.487609" lon="-2.973246">
        <ele>919.580688</ele>
        <time>2020-08-08T07:56:57.904Z</time>
      </trkpt>
      <trkpt lat="38.487501" lon="-2.973324">
        <ele>919.559753</ele>
        <time>2020-08-08T07:57:00.931Z</time>
      </trkpt>
      <trkpt lat="38.487403" lon="-2.973408">
        <ele>919.539838</ele>
        <time>2020-08-08T07:57:03.919Z</time>
      </trkpt>
      <trkpt lat="38.487307" lon="-2.973492">
        <ele>919.520204</ele>
        <time>2020-08-08T07:57:06.917Z</time>
      </trkpt>
      <trkpt lat="38.487218" lon="-2.973566">
        <ele>919.502285</ele>
        <time>2020-08-08T07:57:09.917Z</time>
      </trkpt>
      <trkpt lat="38.487128" lon="-2.973637">
        <ele>919.477789</ele>
        <time>2020-08-08T07:57:12.917Z</time>
      </trkpt>
      <trkpt lat="38.487032" lon="-2.973713">
        <ele>919.437794</ele>
        <time>2020-08-08T07:57:15.918Z</time>
      </trkpt>
      <trkpt lat="38.486942" lon="-2.973791">
        <ele>919.399280</ele>
        <time>2020-08-08T07:57:18.921Z</time>
      </trkpt>
      <trkpt lat="38.486858" lon="-2.973871">
        <ele>919.362177</ele>
        <time>2020-08-08T07:57:21.922Z</time>
      </trkpt>
      <trkpt lat="38.486779" lon="-2.973956">
        <ele>919.325601</ele>
        <time>2020-08-08T07:57:24.918Z</time>
      </trkpt>
      <trkpt lat="38.486714" lon="-2.974052">
        <ele>919.290415</ele>
        <time>2020-08-08T07:57:27.913Z</time>
      </trkpt>
      <trkpt lat="38.486650" lon="-2.974144">
        <ele>919.256297</ele>
        <time>2020-08-08T07:57:30.918Z</time>
      </trkpt>
      <trkpt lat="38.486567" lon="-2.974250">
        <ele>919.214736</ele>
        <time>2020-08-08T07:57:33.912Z</time>
      </trkpt>
      <trkpt lat="38.486487" lon="-2.974388">
        <ele>919.167134</ele>
        <time>2020-08-08T07:57:36.919Z</time>
      </trkpt>
      <trkpt lat="38.486424" lon="-2.974485">
        <ele>919.132196</ele>
        <time>2020-08-08T07:57:38.919Z</time>
      </trkpt>
      <trkpt lat="38.486352" lon="-2.974596">
        <ele>919.092235</ele>
        <time>2020-08-08T07:57:40.914Z</time>
      </trkpt>
      <trkpt lat="38.486279" lon="-2.974710">
        <ele>919.051407</ele>
        <time>2020-08-08T07:57:42.920Z</time>
      </trkpt>
      <trkpt lat="38.486210" lon="-2.974811">
        <ele>919.014246</ele>
        <time>2020-08-08T07:57:44.918Z</time>
      </trkpt>
      <trkpt lat="38.486153" lon="-2.974928">
        <ele>918.976045</ele>
        <time>2020-08-08T07:57:46.928Z</time>
      </trkpt>
      <trkpt lat="38.486101" lon="-2.975075">
        <ele>918.931329</ele>
        <time>2020-08-08T07:57:48.915Z</time>
      </trkpt>
      <trkpt lat="38.486047" lon="-2.975215">
        <ele>918.888065</ele>
        <time>2020-08-08T07:57:50.919Z</time>
      </trkpt>
      <trkpt lat="38.485980" lon="-2.975346">
        <ele>918.716772</ele>
        <time>2020-08-08T07:57:52.915Z</time>
      </trkpt>
      <trkpt lat="38.485922" lon="-2.975497">
        <ele>917.995473</ele>
        <time>2020-08-08T07:57:54.900Z</time>
      </trkpt>
      <trkpt lat="38.485846" lon="-2.975621">
        <ele>917.320107</ele>
        <time>2020-08-08T07:57:56.917Z</time>
      </trkpt>
      <trkpt lat="38.485799" lon="-2.975758">
        <ele>916.678656</ele>
        <time>2020-08-08T07:57:58.920Z</time>
      </trkpt>
      <trkpt lat="38.485760" lon="-2.975881">
        <ele>916.109559</ele>
        <time>2020-08-08T07:58:00.930Z</time>
      </trkpt>
      <trkpt lat="38.485703" lon="-2.976030">
        <ele>915.398371</ele>
        <time>2020-08-08T07:58:02.923Z</time>
      </trkpt>
      <trkpt lat="38.485640" lon="-2.976176">
        <ele>914.683442</ele>
        <time>2020-08-08T07:58:04.912Z</time>
      </trkpt>
      <trkpt lat="38.485586" lon="-2.976319">
        <ele>914.002578</ele>
        <time>2020-08-08T07:58:06.915Z</time>
      </trkpt>
      <trkpt lat="38.485523" lon="-2.976464">
        <ele>913.291401</ele>
        <time>2020-08-08T07:58:08.927Z</time>
      </trkpt>
      <trkpt lat="38.485441" lon="-2.976600">
        <ele>912.555226</ele>
        <time>2020-08-08T07:58:10.912Z</time>
      </trkpt>
      <trkpt lat="38.485375" lon="-2.976738">
        <ele>911.861714</ele>
        <time>2020-08-08T07:58:12.916Z</time>
      </trkpt>
      <trkpt lat="38.485305" lon="-2.976824">
        <ele>911.329661</ele>
        <time>2020-08-08T07:58:14.919Z</time>
      </trkpt>
      <trkpt lat="38.485234" lon="-2.976956">
        <ele>910.642836</ele>
        <time>2020-08-08T07:58:17.915Z</time>
      </trkpt>
      <trkpt lat="38.485207" lon="-2.977099">
        <ele>910.012012</ele>
        <time>2020-08-08T07:58:21.921Z</time>
      </trkpt>
      <trkpt lat="38.485300" lon="-2.976903">
        <ele>909.029126</ele>
        <time>2020-08-08T08:08:48.928Z</time>
      </trkpt>
      <trkpt lat="38.485368" lon="-2.976797">
        <ele>909.623455</ele>
        <time>2020-08-08T08:08:55.910Z</time>
      </trkpt>
      <trkpt lat="38.485425" lon="-2.976687">
        <ele>910.255465</ele>
        <time>2020-08-08T08:09:01.914Z</time>
      </trkpt>
      <trkpt lat="38.485488" lon="-2.976595">
        <ele>910.841086</ele>
        <time>2020-08-08T08:09:06.914Z</time>
      </trkpt>
      <trkpt lat="38.485551" lon="-2.976496">
        <ele>911.452347</ele>
        <time>2020-08-08T08:09:12.913Z</time>
      </trkpt>
      <trkpt lat="38.485607" lon="-2.976386">
        <ele>912.080998</ele>
        <time>2020-08-08T08:09:18.908Z</time>
      </trkpt>
      <trkpt lat="38.485662" lon="-2.976272">
        <ele>912.722567</ele>
        <time>2020-08-08T08:09:24.932Z</time>
      </trkpt>
      <trkpt lat="38.485693" lon="-2.976147">
        <ele>913.350766</ele>
        <time>2020-08-08T08:09:30.921Z</time>
      </trkpt>
      <trkpt lat="38.485719" lon="-2.976026">
        <ele>913.951908</ele>
        <time>2020-08-08T08:09:36.909Z</time>
      </trkpt>
      <trkpt lat="38.485770" lon="-2.975906">
        <ele>914.606088</ele>
        <time>2020-08-08T08:09:42.903Z</time>
      </trkpt>
      <trkpt lat="38.485805" lon="-2.975798">
        <ele>915.166095</ele>
        <time>2020-08-08T08:09:47.911Z</time>
      </trkpt>
      <trkpt lat="38.485851" lon="-2.975686">
        <ele>915.772050</ele>
        <time>2020-08-08T08:09:52.931Z</time>
      </trkpt>
      <trkpt lat="38.485902" lon="-2.975576">
        <ele>916.384553</ele>
        <time>2020-08-08T08:09:57.921Z</time>
      </trkpt>
      <trkpt lat="38.485958" lon="-2.975476">
        <ele>916.973620</ele>
        <time>2020-08-08T08:10:02.915Z</time>
      </trkpt>
      <trkpt lat="38.485996" lon="-2.975353">
        <ele>917.607134</ele>
        <time>2020-08-08T08:10:07.912Z</time>
      </trkpt>
      <trkpt lat="38.486047" lon="-2.975256">
        <ele>918.166949</ele>
        <time>2020-08-08T08:10:12.933Z</time>
      </trkpt>
      <trkpt lat="38.486104" lon="-2.975136">
        <ele>918.839424</ele>
        <time>2020-08-08T08:10:18.903Z</time>
      </trkpt>
      <trkpt lat="38.486144" lon="-2.975029">
        <ele>919.407507</ele>
        <time>2020-08-08T08:10:23.915Z</time>
      </trkpt>
      <trkpt lat="38.486183" lon="-2.974896">
        <ele>919.983961</ele>
        <time>2020-08-08T08:10:29.917Z</time>
      </trkpt>
      <trkpt lat="38.486237" lon="-2.974791">
        <ele>919.800233</ele>
        <time>2020-08-08T08:10:34.923Z</time>
      </trkpt>
      <trkpt lat="38.486294" lon="-2.974675">
        <ele>919.599941</ele>
        <time>2020-08-08T08:10:39.919Z</time>
      </trkpt>
      <trkpt lat="38.486367" lon="-2.974590">
        <ele>919.415410</ele>
        <time>2020-08-08T08:10:43.922Z</time>
      </trkpt>
      <trkpt lat="38.486440" lon="-2.974502">
        <ele>919.227896</ele>
        <time>2020-08-08T08:10:48.915Z</time>
      </trkpt>
      <trkpt lat="38.486512" lon="-2.974404">
        <ele>919.031344</ele>
        <time>2020-08-08T08:10:53.924Z</time>
      </trkpt>
      <trkpt lat="38.486580" lon="-2.974323">
        <ele>918.857646</ele>
        <time>2020-08-08T08:10:57.901Z</time>
      </trkpt>
      <trkpt lat="38.486622" lon="-2.974206">
        <ele>918.669413</ele>
        <time>2020-08-08T08:11:01.932Z</time>
      </trkpt>
      <trkpt lat="38.486679" lon="-2.974082">
        <ele>918.459121</ele>
        <time>2020-08-08T08:11:06.915Z</time>
      </trkpt>
      <trkpt lat="38.486749" lon="-2.973972">
        <ele>918.251806</ele>
        <time>2020-08-08T08:11:09.911Z</time>
      </trkpt>
      <trkpt lat="38.486848" lon="-2.973853">
        <ele>917.997850</ele>
        <time>2020-08-08T08:11:12.916Z</time>
      </trkpt>
      <trkpt lat="38.486951" lon="-2.973769">
        <ele>917.769554</ele>
        <time>2020-08-08T08:11:14.912Z</time>
      </trkpt>
      <trkpt lat="38.487053" lon="-2.973679">
        <ele>917.537960</ele>
        <time>2020-08-08T08:11:17.938Z</time>
      </trkpt>
      <trkpt lat="38.487134" lon="-2.973594">
        <ele>917.342125</ele>
        <time>2020-08-08T08:11:19.904Z</time>
      </trkpt>
      <trkpt lat="38.487236" lon="-2.973529">
        <ele>917.129171</ele>
        <time>2020-08-08T08:11:21.914Z</time>
      </trkpt>
      <trkpt lat="38.487328" lon="-2.973457">
        <ele>916.927605</ele>
        <time>2020-08-08T08:11:23.923Z</time>
      </trkpt>
      <trkpt lat="38.487425" lon="-2.973388">
        <ele>916.720187</ele>
        <time>2020-08-08T08:11:25.918Z</time>
      </trkpt>
      <trkpt lat="38.487521" lon="-2.973321">
        <ele>916.404881</ele>
        <time>2020-08-08T08:11:27.924Z</time>
      </trkpt>
      <trkpt lat="38.487612" lon="-2.973248">
        <ele>916.035589</ele>
        <time>2020-08-08T08:11:29.902Z</time>
      </trkpt>
      <trkpt lat="38.487700" lon="-2.973183">
        <ele>915.686241</ele>
        <time>2020-08-08T08:11:31.937Z</time>
      </trkpt>
      <trkpt lat="38.487784" lon="-2.973121">
        <ele>915.352833</ele>
        <time>2020-08-08T08:11:33.928Z</time>
      </trkpt>
      <trkpt lat="38.487890" lon="-2.973067">
        <ele>914.960638</ele>
        <time>2020-08-08T08:11:35.919Z</time>
      </trkpt>
      <trkpt lat="38.488035" lon="-2.973010">
        <ele>914.439245</ele>
        <time>2020-08-08T08:11:38.896Z</time>
      </trkpt>
      <trkpt lat="38.488123" lon="-2.972958">
        <ele>914.106023</ele>
        <time>2020-08-08T08:11:40.926Z</time>
      </trkpt>
      <trkpt lat="38.488226" lon="-2.972896">
        <ele>913.714709</ele>
        <time>2020-08-08T08:11:42.917Z</time>
      </trkpt>
      <trkpt lat="38.488337" lon="-2.972819">
        <ele>913.280617</ele>
        <time>2020-08-08T08:11:44.903Z</time>
      </trkpt>
      <trkpt lat="38.488445" lon="-2.972746">
        <ele>912.860695</ele>
        <time>2020-08-08T08:11:46.916Z</time>
      </trkpt>
      <trkpt lat="38.488536" lon="-2.972698">
        <ele>912.522339</ele>
        <time>2020-08-08T08:11:48.928Z</time>
      </trkpt>
      <trkpt lat="38.488667" lon="-2.972633">
        <ele>912.039356</ele>
        <time>2020-08-08T08:11:51.910Z</time>
      </trkpt>
      <trkpt lat="38.488752" lon="-2.972591">
        <ele>911.726140</ele>
        <time>2020-08-08T08:11:53.914Z</time>
      </trkpt>
      <trkpt lat="38.488863" lon="-2.972555">
        <ele>911.332556</ele>
        <time>2020-08-08T08:11:55.931Z</time>
      </trkpt>
      <trkpt lat="38.488984" lon="-2.972548">
        <ele>910.916277</ele>
        <time>2020-08-08T08:11:57.933Z</time>
      </trkpt>
      <trkpt lat="38.489118" lon="-2.972546">
        <ele>910.474942</ele>
        <time>2020-08-08T08:11:59.913Z</time>
      </trkpt>
      <trkpt lat="38.489203" lon="-2.972587">
        <ele>910.725648</ele>
        <time>2020-08-08T08:12:00.908Z</time>
      </trkpt>
      <trkpt lat="38.489337" lon="-2.972598">
        <ele>911.096166</ele>
        <time>2020-08-08T08:12:02.920Z</time>
      </trkpt>
      <trkpt lat="38.489450" lon="-2.972639">
        <ele>911.420306</ele>
        <time>2020-08-08T08:12:04.920Z</time>
      </trkpt>
      <trkpt lat="38.489543" lon="-2.972654">
        <ele>911.678964</ele>
        <time>2020-08-08T08:12:06.932Z</time>
      </trkpt>
      <trkpt lat="38.489645" lon="-2.972682">
        <ele>911.966844</ele>
        <time>2020-08-08T08:12:08.922Z</time>
      </trkpt>
      <trkpt lat="38.489731" lon="-2.972719">
        <ele>912.217244</ele>
        <time>2020-08-08T08:12:10.943Z</time>
      </trkpt>
      <trkpt lat="38.489848" lon="-2.972756">
        <ele>912.549833</ele>
        <time>2020-08-08T08:12:13.917Z</time>
      </trkpt>
      <trkpt lat="38.489956" lon="-2.972810">
        <ele>912.869855</ele>
        <time>2020-08-08T08:12:16.924Z</time>
      </trkpt>
      <trkpt lat="38.490062" lon="-2.972856">
        <ele>913.178761</ele>
        <time>2020-08-08T08:12:19.922Z</time>
      </trkpt>
      <trkpt lat="38.490181" lon="-2.972892">
        <ele>913.516206</ele>
        <time>2020-08-08T08:12:22.905Z</time>
      </trkpt>
      <trkpt lat="38.490304" lon="-2.972910">
        <ele>913.857827</ele>
        <time>2020-08-08T08:12:25.920Z</time>
      </trkpt>
      <trkpt lat="38.490424" lon="-2.972903">
        <ele>914.189297</ele>
        <time>2020-08-08T08:12:28.920Z</time>
      </trkpt>
      <trkpt lat="38.490543" lon="-2.972894">
        <ele>914.518237</ele>
        <time>2020-08-08T08:12:31.927Z</time>
      </trkpt>
      <trkpt lat="38.490655" lon="-2.972884">
        <ele>914.828040</ele>
        <time>2020-08-08T08:12:34.924Z</time>
      </trkpt>
      <trkpt lat="38.490767" lon="-2.972874">
        <ele>915.137843</ele>
        <time>2020-08-08T08:12:37.922Z</time>
      </trkpt>
      <trkpt lat="38.490878" lon="-2.972851">
        <ele>915.452483</ele>
        <time>2020-08-08T08:12:40.908Z</time>
      </trkpt>
      <trkpt lat="38.490984" lon="-2.972830">
        <ele>915.817527</ele>
        <time>2020-08-08T08:12:43.921Z</time>
      </trkpt>
      <trkpt lat="38.491091" lon="-2.972806">
        <ele>916.187232</ele>
        <time>2020-08-08T08:12:46.929Z</time>
      </trkpt>
      <trkpt lat="38.491198" lon="-2.972771">
        <ele>916.563113</ele>
        <time>2020-08-08T08:12:49.916Z</time>
      </trkpt>
      <trkpt lat="38.491310" lon="-2.972719">
        <ele>916.968651</ele>
        <time>2020-08-08T08:12:52.913Z</time>
      </trkpt>
      <trkpt lat="38.491416" lon="-2.972672">
        <ele>917.350490</ele>
        <time>2020-08-08T08:12:55.919Z</time>
      </trkpt>
      <trkpt lat="38.491535" lon="-2.972607">
        <ele>917.790922</ele>
        <time>2020-08-08T08:12:58.918Z</time>
      </trkpt>
      <trkpt lat="38.491630" lon="-2.972558">
        <ele>918.139572</ele>
        <time>2020-08-08T08:13:00.916Z</time>
      </trkpt>
      <trkpt lat="38.491731" lon="-2.972504">
        <ele>918.512172</ele>
        <time>2020-08-08T08:13:02.921Z</time>
      </trkpt>
      <trkpt lat="38.491846" lon="-2.972413">
        <ele>918.972516</ele>
        <time>2020-08-08T08:13:05.913Z</time>
      </trkpt>
      <trkpt lat="38.491935" lon="-2.972358">
        <ele>919.308965</ele>
        <time>2020-08-08T08:13:07.904Z</time>
      </trkpt>
      <trkpt lat="38.492051" lon="-2.972332">
        <ele>919.709758</ele>
        <time>2020-08-08T08:13:10.932Z</time>
      </trkpt>
      <trkpt lat="38.492155" lon="-2.972300">
        <ele>920.073804</ele>
        <time>2020-08-08T08:13:13.925Z</time>
      </trkpt>
      <trkpt lat="38.492282" lon="-2.972285">
        <ele>920.507845</ele>
        <time>2020-08-08T08:13:16.923Z</time>
      </trkpt>
      <trkpt lat="38.492392" lon="-2.972270">
        <ele>920.884317</ele>
        <time>2020-08-08T08:13:20.911Z</time>
      </trkpt>
      <trkpt lat="38.492507" lon="-2.972255">
        <ele>921.277712</ele>
        <time>2020-08-08T08:13:24.908Z</time>
      </trkpt>
      <trkpt lat="38.492620" lon="-2.972259">
        <ele>921.643437</ele>
        <time>2020-08-08T08:13:29.930Z</time>
      </trkpt>
      <trkpt lat="38.492729" lon="-2.972241">
        <ele>921.954020</ele>
        <time>2020-08-08T08:13:33.930Z</time>
      </trkpt>
      <trkpt lat="38.492820" lon="-2.972225">
        <ele>922.213597</ele>
        <time>2020-08-08T08:13:37.919Z</time>
      </trkpt>
      <trkpt lat="38.492917" lon="-2.972237">
        <ele>922.488989</ele>
        <time>2020-08-08T08:13:41.537Z</time>
      </trkpt>
      <trkpt lat="38.493008" lon="-2.972232">
        <ele>922.746381</ele>
        <time>2020-08-08T08:13:45.529Z</time>
      </trkpt>
      <trkpt lat="38.493099" lon="-2.972243">
        <ele>923.004683</ele>
        <time>2020-08-08T08:13:49.529Z</time>
      </trkpt>
      <trkpt lat="38.493190" lon="-2.972238">
        <ele>923.262075</ele>
        <time>2020-08-08T08:13:53.528Z</time>
      </trkpt>
      <trkpt lat="38.493288" lon="-2.972228">
        <ele>923.539893</ele>
        <time>2020-08-08T08:13:57.534Z</time>
      </trkpt>
      <trkpt lat="38.493389" lon="-2.972212">
        <ele>923.827491</ele>
        <time>2020-08-08T08:14:01.546Z</time>
      </trkpt>
      <trkpt lat="38.493494" lon="-2.972204">
        <ele>924.124735</ele>
        <time>2020-08-08T08:14:06.542Z</time>
      </trkpt>
      <trkpt lat="38.493584" lon="-2.972187">
        <ele>924.381827</ele>
        <time>2020-08-08T08:14:10.518Z</time>
      </trkpt>
      <trkpt lat="38.493673" lon="-2.972150">
        <ele>924.646309</ele>
        <time>2020-08-08T08:14:14.519Z</time>
      </trkpt>
      <trkpt lat="38.493768" lon="-2.972100">
        <ele>924.936652</ele>
        <time>2020-08-08T08:14:18.536Z</time>
      </trkpt>
      <trkpt lat="38.493875" lon="-2.972080">
        <ele>925.242238</ele>
        <time>2020-08-08T08:14:22.532Z</time>
      </trkpt>
      <trkpt lat="38.493984" lon="-2.972058">
        <ele>925.554078</ele>
        <time>2020-08-08T08:14:26.524Z</time>
      </trkpt>
      <trkpt lat="38.494085" lon="-2.972034">
        <ele>925.844385</ele>
        <time>2020-08-08T08:14:30.524Z</time>
      </trkpt>
      <trkpt lat="38.494198" lon="-2.971997">
        <ele>926.174028</ele>
        <time>2020-08-08T08:14:34.558Z</time>
      </trkpt>
      <trkpt lat="38.494308" lon="-2.971947">
        <ele>926.503959</ele>
        <time>2020-08-08T08:14:38.533Z</time>
      </trkpt>
      <trkpt lat="38.494417" lon="-2.971901">
        <ele>926.780292</ele>
        <time>2020-08-08T08:14:42.533Z</time>
      </trkpt>
      <trkpt lat="38.494519" lon="-2.971869">
        <ele>927.003980</ele>
        <time>2020-08-08T08:14:46.534Z</time>
      </trkpt>
      <trkpt lat="38.494625" lon="-2.971839">
        <ele>927.235207</ele>
        <time>2020-08-08T08:14:50.539Z</time>
      </trkpt>
      <trkpt lat="38.494719" lon="-2.971810">
        <ele>927.441157</ele>
        <time>2020-08-08T08:14:53.537Z</time>
      </trkpt>
      <trkpt lat="38.494834" lon="-2.971764">
        <ele>927.697801</ele>
        <time>2020-08-08T08:14:57.522Z</time>
      </trkpt>
      <trkpt lat="38.494924" lon="-2.971722">
        <ele>927.901864</ele>
        <time>2020-08-08T08:15:01.541Z</time>
      </trkpt>
      <trkpt lat="38.495015" lon="-2.971673">
        <ele>928.112180</ele>
        <time>2020-08-08T08:15:05.557Z</time>
      </trkpt>
      <trkpt lat="38.495112" lon="-2.971622">
        <ele>928.335573</ele>
        <time>2020-08-08T08:15:10.530Z</time>
      </trkpt>
      <trkpt lat="38.495214" lon="-2.971574">
        <ele>928.567074</ele>
        <time>2020-08-08T08:15:15.513Z</time>
      </trkpt>
      <trkpt lat="38.495312" lon="-2.971538">
        <ele>928.784245</ele>
        <time>2020-08-08T08:15:20.533Z</time>
      </trkpt>
      <trkpt lat="38.495427" lon="-2.971502">
        <ele>929.036411</ele>
        <time>2020-08-08T08:15:25.542Z</time>
      </trkpt>
      <trkpt lat="38.495517" lon="-2.971482">
        <ele>929.230967</ele>
        <time>2020-08-08T08:15:29.614Z</time>
      </trkpt>
      <trkpt lat="38.495618" lon="-2.971437">
        <ele>929.458775</ele>
        <time>2020-08-08T08:15:34.541Z</time>
      </trkpt>
      <trkpt lat="38.495707" lon="-2.971375">
        <ele>929.674666</ele>
        <time>2020-08-08T08:15:39.522Z</time>
      </trkpt>
      <trkpt lat="38.495799" lon="-2.971312">
        <ele>929.896970</ele>
        <time>2020-08-08T08:15:44.533Z</time>
      </trkpt>
      <trkpt lat="38.495891" lon="-2.971285">
        <ele>930.098010</ele>
        <time>2020-08-08T08:15:49.534Z</time>
      </trkpt>
      <trkpt lat="38.495986" lon="-2.971265">
        <ele>930.303065</ele>
        <time>2020-08-08T08:15:54.523Z</time>
      </trkpt>
      <trkpt lat="38.496088" lon="-2.971226">
        <ele>930.712259</ele>
        <time>2020-08-08T08:15:59.536Z</time>
      </trkpt>
      <trkpt lat="38.496175" lon="-2.971150">
        <ele>931.558347</ele>
        <time>2020-08-08T08:16:04.529Z</time>
      </trkpt>
      <trkpt lat="38.496237" lon="-2.971062">
        <ele>932.302308</ele>
        <time>2020-08-08T08:16:08.547Z</time>
      </trkpt>
      <trkpt lat="38.496322" lon="-2.970970">
        <ele>933.196630</ele>
        <time>2020-08-08T08:16:13.525Z</time>
      </trkpt>
      <trkpt lat="38.496384" lon="-2.970877">
        <ele>933.964227</ele>
        <time>2020-08-08T08:16:17.531Z</time>
      </trkpt>
      <trkpt lat="38.496447" lon="-2.970779">
        <ele>934.761072</ele>
        <time>2020-08-08T08:16:21.534Z</time>
      </trkpt>
      <trkpt lat="38.496505" lon="-2.970667">
        <ele>935.604895</ele>
        <time>2020-08-08T08:16:26.532Z</time>
      </trkpt>
      <trkpt lat="38.496562" lon="-2.970575">
        <ele>936.342154</ele>
        <time>2020-08-08T08:16:30.529Z</time>
      </trkpt>
      <trkpt lat="38.496652" lon="-2.970510">
        <ele>937.172126</ele>
        <time>2020-08-08T08:16:34.528Z</time>
      </trkpt>
      <trkpt lat="38.496731" lon="-2.970427">
        <ele>937.993228</ele>
        <time>2020-08-08T08:16:39.523Z</time>
      </trkpt>
      <trkpt lat="38.496802" lon="-2.970345">
        <ele>938.761573</ele>
        <time>2020-08-08T08:16:44.520Z</time>
      </trkpt>
      <trkpt lat="38.496876" lon="-2.970279">
        <ele>939.486075</ele>
        <time>2020-08-08T08:16:48.531Z</time>
      </trkpt>
      <trkpt lat="38.496931" lon="-2.970184">
        <ele>940.228542</ele>
        <time>2020-08-08T08:16:53.518Z</time>
      </trkpt>
      <trkpt lat="38.496987" lon="-2.970074">
        <ele>941.053046</ele>
        <time>2020-08-08T08:16:58.556Z</time>
      </trkpt>
      <trkpt lat="38.497059" lon="-2.969972">
        <ele>941.916092</ele>
        <time>2020-08-08T08:17:03.528Z</time>
      </trkpt>
      <trkpt lat="38.497124" lon="-2.969869">
        <ele>942.747434</ele>
        <time>2020-08-08T08:17:08.539Z</time>
      </trkpt>
      <trkpt lat="38.497190" lon="-2.969778">
        <ele>943.526965</ele>
        <time>2020-08-08T08:17:12.528Z</time>
      </trkpt>
      <trkpt lat="38.497243" lon="-2.969680">
        <ele>944.275424</ele>
        <time>2020-08-08T08:17:16.529Z</time>
      </trkpt>
      <trkpt lat="38.497295" lon="-2.969569">
        <ele>945.018557</ele>
        <time>2020-08-08T08:17:20.524Z</time>
      </trkpt>
      <trkpt lat="38.497351" lon="-2.969450">
        <ele>945.561450</ele>
        <time>2020-08-08T08:17:24.528Z</time>
      </trkpt>
      <trkpt lat="38.497398" lon="-2.969346">
        <ele>946.030988</ele>
        <time>2020-08-08T08:17:27.524Z</time>
      </trkpt>
      <trkpt lat="38.497466" lon="-2.969263">
        <ele>946.500782</ele>
        <time>2020-08-08T08:17:30.542Z</time>
      </trkpt>
      <trkpt lat="38.497557" lon="-2.969192">
        <ele>947.033439</ele>
        <time>2020-08-08T08:17:33.534Z</time>
      </trkpt>
      <trkpt lat="38.497629" lon="-2.969105">
        <ele>947.528490</ele>
        <time>2020-08-08T08:17:36.515Z</time>
      </trkpt>
      <trkpt lat="38.497703" lon="-2.969005">
        <ele>948.066564</ele>
        <time>2020-08-08T08:17:40.525Z</time>
      </trkpt>
      <trkpt lat="38.497783" lon="-2.968899">
        <ele>948.642305</ele>
        <time>2020-08-08T08:17:44.542Z</time>
      </trkpt>
      <trkpt lat="38.497840" lon="-2.968802">
        <ele>949.116552</ele>
        <time>2020-08-08T08:17:47.525Z</time>
      </trkpt>
      <trkpt lat="38.497901" lon="-2.968672">
        <ele>949.709173</ele>
        <time>2020-08-08T08:17:51.534Z</time>
      </trkpt>
      <trkpt lat="38.497935" lon="-2.968546">
        <ele>950.230260</ele>
        <time>2020-08-08T08:17:55.522Z</time>
      </trkpt>
      <trkpt lat="38.497936" lon="-2.968424">
        <ele>950.707275</ele>
        <time>2020-08-08T08:18:00.516Z</time>
      </trkpt>
      <trkpt lat="38.497947" lon="-2.968291">
        <ele>951.230167</ele>
        <time>2020-08-08T08:18:04.517Z</time>
      </trkpt>
      <trkpt lat="38.497963" lon="-2.968162">
        <ele>951.740818</ele>
        <time>2020-08-08T08:18:08.536Z</time>
      </trkpt>
      <trkpt lat="38.497989" lon="-2.968049">
        <ele>952.201316</ele>
        <time>2020-08-08T08:18:12.523Z</time>
      </trkpt>
      <trkpt lat="38.497982" lon="-2.967912">
        <ele>952.738091</ele>
        <time>2020-08-08T08:18:17.527Z</time>
      </trkpt>
      <trkpt lat="38.498003" lon="-2.967800">
        <ele>953.188374</ele>
        <time>2020-08-08T08:18:21.538Z</time>
      </trkpt>
      <trkpt lat="38.498026" lon="-2.967678">
        <ele>953.679006</ele>
        <time>2020-08-08T08:18:25.552Z</time>
      </trkpt>
      <trkpt lat="38.498127" lon="-2.967484">
        <ele>952.900895</ele>
        <time>2020-08-08T08:19:17.537Z</time>
      </trkpt>
      <trkpt lat="38.498189" lon="-2.967354">
        <ele>952.061631</ele>
        <time>2020-08-08T08:19:20.539Z</time>
      </trkpt>
      <trkpt lat="38.498281" lon="-2.967246">
        <ele>951.181591</ele>
        <time>2020-08-08T08:19:22.529Z</time>
      </trkpt>
      <trkpt lat="38.498371" lon="-2.967130">
        <ele>950.281107</ele>
        <time>2020-08-08T08:19:24.528Z</time>
      </trkpt>
      <trkpt lat="38.498470" lon="-2.966988">
        <ele>949.232708</ele>
        <time>2020-08-08T08:19:26.520Z</time>
      </trkpt>
      <trkpt lat="38.498572" lon="-2.966892">
        <ele>948.340335</ele>
        <time>2020-08-08T08:19:28.530Z</time>
      </trkpt>
      <trkpt lat="38.498707" lon="-2.966780">
        <ele>947.206516</ele>
        <time>2020-08-08T08:19:30.515Z</time>
      </trkpt>
      <trkpt lat="38.498851" lon="-2.966660">
        <ele>945.995506</ele>
        <time>2020-08-08T08:19:32.519Z</time>
      </trkpt>
      <trkpt lat="38.499002" lon="-2.966547">
        <ele>944.762852</ele>
        <time>2020-08-08T08:19:34.536Z</time>
      </trkpt>
      <trkpt lat="38.499160" lon="-2.966455">
        <ele>943.539770</ele>
        <time>2020-08-08T08:19:36.534Z</time>
      </trkpt>
      <trkpt lat="38.499256" lon="-2.966419">
        <ele>942.835016</ele>
        <time>2020-08-08T08:19:37.515Z</time>
      </trkpt>
      <trkpt lat="38.499381" lon="-2.966329">
        <ele>941.824339</ele>
        <time>2020-08-08T08:19:39.527Z</time>
      </trkpt>
      <trkpt lat="38.499502" lon="-2.966245">
        <ele>941.188453</ele>
        <time>2020-08-08T08:19:41.533Z</time>
      </trkpt>
      <trkpt lat="38.499647" lon="-2.966178">
        <ele>941.096598</ele>
        <time>2020-08-08T08:19:43.517Z</time>
      </trkpt>
      <trkpt lat="38.499783" lon="-2.966084">
        <ele>941.004486</ele>
        <time>2020-08-08T08:19:45.532Z</time>
      </trkpt>
      <trkpt lat="38.499902" lon="-2.965991">
        <ele>940.921386</ele>
        <time>2020-08-08T08:19:47.545Z</time>
      </trkpt>
      <trkpt lat="38.500031" lon="-2.965920">
        <ele>940.837712</ele>
        <time>2020-08-08T08:19:49.535Z</time>
      </trkpt>
      <trkpt lat="38.500133" lon="-2.965812">
        <ele>940.758797</ele>
        <time>2020-08-08T08:19:51.543Z</time>
      </trkpt>
      <trkpt lat="38.500238" lon="-2.965708">
        <ele>940.679654</ele>
        <time>2020-08-08T08:19:53.541Z</time>
      </trkpt>
      <trkpt lat="38.500328" lon="-2.965606">
        <ele>940.607988</ele>
        <time>2020-08-08T08:19:55.539Z</time>
      </trkpt>
      <trkpt lat="38.500412" lon="-2.965511">
        <ele>940.541162</ele>
        <time>2020-08-08T08:19:57.530Z</time>
      </trkpt>
      <trkpt lat="38.500499" lon="-2.965418">
        <ele>940.473589</ele>
        <time>2020-08-08T08:19:59.544Z</time>
      </trkpt>
      <trkpt lat="38.500577" lon="-2.965324">
        <ele>940.409716</ele>
        <time>2020-08-08T08:20:01.514Z</time>
      </trkpt>
      <trkpt lat="38.500669" lon="-2.965242">
        <ele>940.342893</ele>
        <time>2020-08-08T08:20:03.537Z</time>
      </trkpt>
      <trkpt lat="38.500760" lon="-2.965145">
        <ele>940.272296</ele>
        <time>2020-08-08T08:20:05.532Z</time>
      </trkpt>
      <trkpt lat="38.500839" lon="-2.965049">
        <ele>940.207350</ele>
        <time>2020-08-08T08:20:07.553Z</time>
      </trkpt>
      <trkpt lat="38.500908" lon="-2.964956">
        <ele>940.148503</ele>
        <time>2020-08-08T08:20:09.525Z</time>
      </trkpt>
      <trkpt lat="38.500971" lon="-2.964865">
        <ele>940.325535</ele>
        <time>2020-08-08T08:20:11.542Z</time>
      </trkpt>
      <trkpt lat="38.501055" lon="-2.964764">
        <ele>940.540286</ele>
        <time>2020-08-08T08:20:14.538Z</time>
      </trkpt>
      <trkpt lat="38.501155" lon="-2.964703">
        <ele>940.746601</ele>
        <time>2020-08-08T08:20:17.537Z</time>
      </trkpt>
      <trkpt lat="38.501242" lon="-2.964620">
        <ele>940.948750</ele>
        <time>2020-08-08T08:20:21.514Z</time>
      </trkpt>
      <trkpt lat="38.501330" lon="-2.964575">
        <ele>941.125228</ele>
        <time>2020-08-08T08:20:26.514Z</time>
      </trkpt>
      <trkpt lat="38.501408" lon="-2.964510">
        <ele>941.298608</ele>
        <time>2020-08-08T08:20:30.522Z</time>
      </trkpt>
      <trkpt lat="38.501484" lon="-2.964440">
        <ele>941.473038</ele>
        <time>2020-08-08T08:20:34.525Z</time>
      </trkpt>
      <trkpt lat="38.501554" lon="-2.964363">
        <ele>941.645009</ele>
        <time>2020-08-08T08:20:38.538Z</time>
      </trkpt>
      <trkpt lat="38.501623" lon="-2.964273">
        <ele>941.828588</ele>
        <time>2020-08-08T08:20:42.522Z</time>
      </trkpt>
      <trkpt lat="38.501680" lon="-2.964183">
        <ele>941.997288</ele>
        <time>2020-08-08T08:20:45.536Z</time>
      </trkpt>
      <trkpt lat="38.501739" lon="-2.964080">
        <ele>942.183275</ele>
        <time>2020-08-08T08:20:48.541Z</time>
      </trkpt>
      <trkpt lat="38.501799" lon="-2.963974">
        <ele>942.373891</ele>
        <time>2020-08-08T08:20:51.543Z</time>
      </trkpt>
      <trkpt lat="38.501866" lon="-2.963860">
        <ele>942.581623</ele>
        <time>2020-08-08T08:20:54.543Z</time>
      </trkpt>
      <trkpt lat="38.501932" lon="-2.963746">
        <ele>942.788243</ele>
        <time>2020-08-08T08:20:57.536Z</time>
      </trkpt>
      <trkpt lat="38.501994" lon="-2.963646">
        <ele>942.974136</ele>
        <time>2020-08-08T08:21:00.539Z</time>
      </trkpt>
      <trkpt lat="38.502050" lon="-2.963546">
        <ele>943.153305</ele>
        <time>2020-08-08T08:21:03.539Z</time>
      </trkpt>
      <trkpt lat="38.502118" lon="-2.963450">
        <ele>943.341973</ele>
        <time>2020-08-08T08:21:06.545Z</time>
      </trkpt>
      <trkpt lat="38.502203" lon="-2.963359">
        <ele>943.530770</ele>
        <time>2020-08-08T08:21:10.545Z</time>
      </trkpt>
      <trkpt lat="38.502292" lon="-2.963317">
        <ele>943.647144</ele>
        <time>2020-08-08T08:21:13.555Z</time>
      </trkpt>
      <trkpt lat="38.502380" lon="-2.963277">
        <ele>943.761711</ele>
        <time>2020-08-08T08:21:16.532Z</time>
      </trkpt>
      <trkpt lat="38.502480" lon="-2.963262">
        <ele>943.885214</ele>
        <time>2020-08-08T08:21:20.529Z</time>
      </trkpt>
      <trkpt lat="38.502600" lon="-2.963250">
        <ele>944.032856</ele>
        <time>2020-08-08T08:21:24.525Z</time>
      </trkpt>
      <trkpt lat="38.502708" lon="-2.963207">
        <ele>944.171611</ele>
        <time>2020-08-08T08:21:28.538Z</time>
      </trkpt>
      <trkpt lat="38.502808" lon="-2.963188">
        <ele>944.295619</ele>
        <time>2020-08-08T08:21:31.541Z</time>
      </trkpt>
      <trkpt lat="38.502903" lon="-2.963173">
        <ele>944.413033</ele>
        <time>2020-08-08T08:21:34.544Z</time>
      </trkpt>
      <trkpt lat="38.503008" lon="-2.963145">
        <ele>944.544601</ele>
        <time>2020-08-08T08:21:37.528Z</time>
      </trkpt>
      <trkpt lat="38.503107" lon="-2.963104">
        <ele>944.672253</ele>
        <time>2020-08-08T08:21:40.532Z</time>
      </trkpt>
      <trkpt lat="38.503217" lon="-2.963058">
        <ele>944.814221</ele>
        <time>2020-08-08T08:21:43.543Z</time>
      </trkpt>
      <trkpt lat="38.503329" lon="-2.963017">
        <ele>944.957126</ele>
        <time>2020-08-08T08:21:46.543Z</time>
      </trkpt>
      <trkpt lat="38.503442" lon="-2.962970">
        <ele>945.102890</ele>
        <time>2020-08-08T08:21:49.538Z</time>
      </trkpt>
      <trkpt lat="38.503561" lon="-2.962937">
        <ele>945.252253</ele>
        <time>2020-08-08T08:21:52.534Z</time>
      </trkpt>
      <trkpt lat="38.503675" lon="-2.962903">
        <ele>945.395844</ele>
        <time>2020-08-08T08:21:55.547Z</time>
      </trkpt>
      <trkpt lat="38.503777" lon="-2.962891">
        <ele>945.521487</ele>
        <time>2020-08-08T08:21:58.536Z</time>
      </trkpt>
      <trkpt lat="38.503890" lon="-2.962848">
        <ele>945.666108</ele>
        <time>2020-08-08T08:22:02.537Z</time>
      </trkpt>
      <trkpt lat="38.503979" lon="-2.962812">
        <ele>945.800139</ele>
        <time>2020-08-08T08:22:05.519Z</time>
      </trkpt>
      <trkpt lat="38.504093" lon="-2.962759">
        <ele>945.986314</ele>
        <time>2020-08-08T08:22:09.522Z</time>
      </trkpt>
      <trkpt lat="38.504203" lon="-2.962729">
        <ele>946.158933</ele>
        <time>2020-08-08T08:22:12.534Z</time>
      </trkpt>
      <trkpt lat="38.504299" lon="-2.962701">
        <ele>946.310052</ele>
        <time>2020-08-08T08:22:15.525Z</time>
      </trkpt>
      <trkpt lat="38.504396" lon="-2.962679">
        <ele>946.461244</ele>
        <time>2020-08-08T08:22:18.537Z</time>
      </trkpt>
      <trkpt lat="38.504509" lon="-2.962647">
        <ele>946.638872</ele>
        <time>2020-08-08T08:22:22.543Z</time>
      </trkpt>
      <trkpt lat="38.504613" lon="-2.962630">
        <ele>946.799781</ele>
        <time>2020-08-08T08:22:26.547Z</time>
      </trkpt>
      <trkpt lat="38.504721" lon="-2.962648">
        <ele>946.966932</ele>
        <time>2020-08-08T08:22:30.515Z</time>
      </trkpt>
      <trkpt lat="38.504816" lon="-2.962661">
        <ele>947.113562</ele>
        <time>2020-08-08T08:22:33.518Z</time>
      </trkpt>
      <trkpt lat="38.504920" lon="-2.962678">
        <ele>947.274471</ele>
        <time>2020-08-08T08:22:36.527Z</time>
      </trkpt>
      <trkpt lat="38.505028" lon="-2.962703">
        <ele>947.442915</ele>
        <time>2020-08-08T08:22:39.523Z</time>
      </trkpt>
      <trkpt lat="38.505137" lon="-2.962719">
        <ele>947.611297</ele>
        <time>2020-08-08T08:22:42.527Z</time>
      </trkpt>
      <trkpt lat="38.505248" lon="-2.962723">
        <ele>947.781716</ele>
        <time>2020-08-08T08:22:45.525Z</time>
      </trkpt>
      <trkpt lat="38.505366" lon="-2.962737">
        <ele>947.963589</ele>
        <time>2020-08-08T08:22:48.524Z</time>
      </trkpt>
      <trkpt lat="38.505460" lon="-2.962743">
        <ele>948.108030</ele>
        <time>2020-08-08T08:22:51.518Z</time>
      </trkpt>
      <trkpt lat="38.505571" lon="-2.962760">
        <ele>948.279600</ele>
        <time>2020-08-08T08:22:55.514Z</time>
      </trkpt>
      <trkpt lat="38.505689" lon="-2.962768">
        <ele>948.460949</ele>
        <time>2020-08-08T08:22:59.520Z</time>
      </trkpt>
      <trkpt lat="38.505794" lon="-2.962794">
        <ele>948.948697</ele>
        <time>2020-08-08T08:23:03.539Z</time>
      </trkpt>
      <trkpt lat="38.505890" lon="-2.962825">
        <ele>949.404515</ele>
        <time>2020-08-08T08:23:06.531Z</time>
      </trkpt>
      <trkpt lat="38.505983" lon="-2.962843">
        <ele>949.837515</ele>
        <time>2020-08-08T08:23:09.517Z</time>
      </trkpt>
      <trkpt lat="38.506082" lon="-2.962869">
        <ele>950.302777</ele>
        <time>2020-08-08T08:23:12.521Z</time>
      </trkpt>
      <trkpt lat="38.506172" lon="-2.962907">
        <ele>950.739112</ele>
        <time>2020-08-08T08:23:15.541Z</time>
      </trkpt>
      <trkpt lat="38.506289" lon="-2.962951">
        <ele>951.300550</ele>
        <time>2020-08-08T08:23:19.546Z</time>
      </trkpt>
      <trkpt lat="38.506382" lon="-2.962984">
        <ele>951.744865</ele>
        <time>2020-08-08T08:23:22.537Z</time>
      </trkpt>
      <trkpt lat="38.506476" lon="-2.963016">
        <ele>952.192676</ele>
        <time>2020-08-08T08:23:25.544Z</time>
      </trkpt>
      <trkpt lat="38.506592" lon="-2.963015">
        <ele>952.726684</ele>
        <time>2020-08-08T08:23:28.528Z</time>
      </trkpt>
      <trkpt lat="38.506687" lon="-2.963046">
        <ele>953.178040</ele>
        <time>2020-08-08T08:23:31.546Z</time>
      </trkpt>
      <trkpt lat="38.506800" lon="-2.963081">
        <ele>953.713287</ele>
        <time>2020-08-08T08:23:35.533Z</time>
      </trkpt>
      <trkpt lat="38.506911" lon="-2.963105">
        <ele>954.231527</ele>
        <time>2020-08-08T08:23:38.529Z</time>
      </trkpt>
      <trkpt lat="38.507019" lon="-2.963121">
        <ele>954.732025</ele>
        <time>2020-08-08T08:23:42.535Z</time>
      </trkpt>
      <trkpt lat="38.507127" lon="-2.963136">
        <ele>955.232121</ele>
        <time>2020-08-08T08:23:46.535Z</time>
      </trkpt>
      <trkpt lat="38.507230" lon="-2.963152">
        <ele>955.709762</ele>
        <time>2020-08-08T08:23:50.524Z</time>
      </trkpt>
      <trkpt lat="38.507325" lon="-2.963196">
        <ele>956.174923</ele>
        <time>2020-08-08T08:23:54.521Z</time>
      </trkpt>
      <trkpt lat="38.507420" lon="-2.963213">
        <ele>956.616514</ele>
        <time>2020-08-08T08:23:58.531Z</time>
      </trkpt>
      <trkpt lat="38.507518" lon="-2.963227">
        <ele>956.555413</ele>
        <time>2020-08-08T08:24:02.523Z</time>
      </trkpt>
      <trkpt lat="38.507608" lon="-2.963265">
        <ele>956.305168</ele>
        <time>2020-08-08T08:24:06.519Z</time>
      </trkpt>
      <trkpt lat="38.507701" lon="-2.963325">
        <ele>956.030120</ele>
        <time>2020-08-08T08:24:11.540Z</time>
      </trkpt>
      <trkpt lat="38.507792" lon="-2.963376">
        <ele>955.767780</ele>
        <time>2020-08-08T08:24:16.550Z</time>
      </trkpt>
      <trkpt lat="38.507885" lon="-2.963420">
        <ele>955.505961</ele>
        <time>2020-08-08T08:24:21.535Z</time>
      </trkpt>
      <trkpt lat="38.507969" lon="-2.963471">
        <ele>955.260434</ele>
        <time>2020-08-08T08:24:25.540Z</time>
      </trkpt>
      <trkpt lat="38.508068" lon="-2.963537">
        <ele>954.965633</ele>
        <time>2020-08-08T08:24:30.543Z</time>
      </trkpt>
      <trkpt lat="38.508152" lon="-2.963589">
        <ele>954.719212</ele>
        <time>2020-08-08T08:24:34.527Z</time>
      </trkpt>
      <trkpt lat="38.508241" lon="-2.963632">
        <ele>954.468008</ele>
        <time>2020-08-08T08:24:38.526Z</time>
      </trkpt>
      <trkpt lat="38.508334" lon="-2.963698">
        <ele>954.187156</ele>
        <time>2020-08-08T08:24:42.520Z</time>
      </trkpt>
      <trkpt lat="38.508428" lon="-2.963758">
        <ele>953.909749</ele>
        <time>2020-08-08T08:24:46.532Z</time>
      </trkpt>
      <trkpt lat="38.508508" lon="-2.963812">
        <ele>953.670886</ele>
        <time>2020-08-08T08:24:50.533Z</time>
      </trkpt>
      <trkpt lat="38.508604" lon="-2.963863">
        <ele>953.396406</ele>
        <time>2020-08-08T08:24:56.543Z</time>
      </trkpt>
      <trkpt lat="38.508694" lon="-2.963871">
        <ele>953.158221</ele>
        <time>2020-08-08T08:24:59.535Z</time>
      </trkpt>
      <trkpt lat="38.508796" lon="-2.963915">
        <ele>952.874000</ele>
        <time>2020-08-08T08:25:03.548Z</time>
      </trkpt>
      <trkpt lat="38.508889" lon="-2.963977">
        <ele>952.597066</ele>
        <time>2020-08-08T08:25:07.543Z</time>
      </trkpt>
      <trkpt lat="38.508972" lon="-2.964048">
        <ele>952.333374</ele>
        <time>2020-08-08T08:25:11.552Z</time>
      </trkpt>
      <trkpt lat="38.509062" lon="-2.964121">
        <ele>952.051943</ele>
        <time>2020-08-08T08:25:15.543Z</time>
      </trkpt>
      <trkpt lat="38.509160" lon="-2.964189">
        <ele>952.371390</ele>
        <time>2020-08-08T08:25:19.543Z</time>
      </trkpt>
      <trkpt lat="38.509258" lon="-2.964258">
        <ele>952.841244</ele>
        <time>2020-08-08T08:25:23.553Z</time>
      </trkpt>
      <trkpt lat="38.509340" lon="-2.964310">
        <ele>953.225648</ele>
        <time>2020-08-08T08:25:26.530Z</time>
      </trkpt>
      <trkpt lat="38.509447" lon="-2.964376">
        <ele>953.724572</ele>
        <time>2020-08-08T08:25:30.549Z</time>
      </trkpt>
      <trkpt lat="38.509532" lon="-2.964431">
        <ele>954.124655</ele>
        <time>2020-08-08T08:25:33.548Z</time>
      </trkpt>
      <trkpt lat="38.509635" lon="-2.964490">
        <ele>954.598643</ele>
        <time>2020-08-08T08:25:37.542Z</time>
      </trkpt>
      <trkpt lat="38.509730" lon="-2.964521">
        <ele>955.010373</ele>
        <time>2020-08-08T08:25:40.551Z</time>
      </trkpt>
      <trkpt lat="38.509837" lon="-2.964581">
        <ele>955.501047</ele>
        <time>2020-08-08T08:25:44.532Z</time>
      </trkpt>
      <trkpt lat="38.509926" lon="-2.964638">
        <ele>955.919088</ele>
        <time>2020-08-08T08:25:48.547Z</time>
      </trkpt>
      <trkpt lat="38.510013" lon="-2.964708">
        <ele>956.350803</ele>
        <time>2020-08-08T08:25:53.547Z</time>
      </trkpt>
      <trkpt lat="38.510093" lon="-2.964779">
        <ele>956.759810</ele>
        <time>2020-08-08T08:25:58.536Z</time>
      </trkpt>
      <trkpt lat="38.510162" lon="-2.964853">
        <ele>957.138070</ele>
        <time>2020-08-08T08:26:02.550Z</time>
      </trkpt>
      <trkpt lat="38.510236" lon="-2.964941">
        <ele>957.562543</ele>
        <time>2020-08-08T08:26:07.535Z</time>
      </trkpt>
      <trkpt lat="38.510310" lon="-2.965041">
        <ele>958.014799</ele>
        <time>2020-08-08T08:26:12.539Z</time>
      </trkpt>
      <trkpt lat="38.510387" lon="-2.965122">
        <ele>958.433597</ele>
        <time>2020-08-08T08:26:16.541Z</time>
      </trkpt>
      <trkpt lat="38.510473" lon="-2.965216">
        <ele>958.908806</ele>
        <time>2020-08-08T08:26:21.531Z</time>
      </trkpt>
      <trkpt lat="38.510542" lon="-2.965294">
        <ele>959.295646</ele>
        <time>2020-08-08T08:26:25.542Z</time>
      </trkpt>
      <trkpt lat="38.510610" lon="-2.965372">
        <ele>959.658621</ele>
        <time>2020-08-08T08:26:29.538Z</time>
      </trkpt>
      <trkpt lat="38.510669" lon="-2.965475">
        <ele>960.012125</ele>
        <time>2020-08-08T08:26:34.533Z</time>
      </trkpt>
      <trkpt lat="38.510750" lon="-2.965557">
        <ele>960.377842</ele>
        <time>2020-08-08T08:26:39.536Z</time>
      </trkpt>
      <trkpt lat="38.510818" lon="-2.965638">
        <ele>960.706836</ele>
        <time>2020-08-08T08:26:43.551Z</time>
      </trkpt>
      <trkpt lat="38.510893" lon="-2.965730">
        <ele>961.074761</ele>
        <time>2020-08-08T08:26:47.539Z</time>
      </trkpt>
      <trkpt lat="38.510969" lon="-2.965818">
        <ele>961.437720</ele>
        <time>2020-08-08T08:26:51.553Z</time>
      </trkpt>
      <trkpt lat="38.511051" lon="-2.965891">
        <ele>961.791402</ele>
        <time>2020-08-08T08:26:55.546Z</time>
      </trkpt>
      <trkpt lat="38.511136" lon="-2.965964">
        <ele>962.153848</ele>
        <time>2020-08-08T08:26:59.545Z</time>
      </trkpt>
      <trkpt lat="38.511209" lon="-2.966042">
        <ele>962.490609</ele>
        <time>2020-08-08T08:27:03.542Z</time>
      </trkpt>
      <trkpt lat="38.511287" lon="-2.966127">
        <ele>962.853398</ele>
        <time>2020-08-08T08:27:07.552Z</time>
      </trkpt>
      <trkpt lat="38.511370" lon="-2.966220">
        <ele>963.244064</ele>
        <time>2020-08-08T08:27:12.537Z</time>
      </trkpt>
      <trkpt lat="38.511449" lon="-2.966299">
        <ele>963.599078</ele>
        <time>2020-08-08T08:27:16.545Z</time>
      </trkpt>
      <trkpt lat="38.511531" lon="-2.966369">
        <ele>963.948078</ele>
        <time>2020-08-08T08:27:20.529Z</time>
      </trkpt>
      <trkpt lat="38.511615" lon="-2.966436">
        <ele>964.298517</ele>
        <time>2020-08-08T08:27:24.548Z</time>
      </trkpt>
      <trkpt lat="38.511701" lon="-2.966491">
        <ele>964.638867</ele>
        <time>2020-08-08T08:27:28.536Z</time>
      </trkpt>
      <trkpt lat="38.511773" lon="-2.966582">
        <ele>964.997253</ele>
        <time>2020-08-08T08:27:33.529Z</time>
      </trkpt>
      <trkpt lat="38.511852" lon="-2.966652">
        <ele>965.337475</ele>
        <time>2020-08-08T08:27:37.550Z</time>
      </trkpt>
      <trkpt lat="38.511949" lon="-2.966685">
        <ele>965.692728</ele>
        <time>2020-08-08T08:27:42.529Z</time>
      </trkpt>
      <trkpt lat="38.512027" lon="-2.966746">
        <ele>965.889686</ele>
        <time>2020-08-08T08:27:47.548Z</time>
      </trkpt>
      <trkpt lat="38.512117" lon="-2.966819">
        <ele>965.803925</ele>
        <time>2020-08-08T08:27:52.530Z</time>
      </trkpt>
      <trkpt lat="38.512214" lon="-2.966877">
        <ele>965.717766</ele>
        <time>2020-08-08T08:27:57.556Z</time>
      </trkpt>
      <trkpt lat="38.512306" lon="-2.966947">
        <ele>965.631624</ele>
        <time>2020-08-08T08:28:02.541Z</time>
      </trkpt>
      <trkpt lat="38.512384" lon="-2.967019">
        <ele>965.554213</ele>
        <time>2020-08-08T08:28:12.546Z</time>
      </trkpt>
      <trkpt lat="38.512467" lon="-2.967093">
        <ele>965.472793</ele>
        <time>2020-08-08T08:28:20.552Z</time>
      </trkpt>
      <trkpt lat="38.512538" lon="-2.967174">
        <ele>965.396222</ele>
        <time>2020-08-08T08:28:28.563Z</time>
      </trkpt>
      <trkpt lat="38.512624" lon="-2.967237">
        <ele>965.316471</ele>
        <time>2020-08-08T08:28:37.536Z</time>
      </trkpt>
      <trkpt lat="38.512703" lon="-2.967302">
        <ele>965.240880</ele>
        <time>2020-08-08T08:28:45.539Z</time>
      </trkpt>
      <trkpt lat="38.512773" lon="-2.967388">
        <ele>965.162760</ele>
        <time>2020-08-08T08:28:54.535Z</time>
      </trkpt>
      <trkpt lat="38.512856" lon="-2.967450">
        <ele>965.085414</ele>
        <time>2020-08-08T08:29:02.536Z</time>
      </trkpt>
      <trkpt lat="38.512926" lon="-2.967539">
        <ele>965.005974</ele>
        <time>2020-08-08T08:29:10.545Z</time>
      </trkpt>
      <trkpt lat="38.512985" lon="-2.967640">
        <ele>964.926627</ele>
        <time>2020-08-08T08:29:18.535Z</time>
      </trkpt>
      <trkpt lat="38.513074" lon="-2.967701">
        <ele>964.845377</ele>
        <time>2020-08-08T08:29:26.533Z</time>
      </trkpt>
      <trkpt lat="38.513146" lon="-2.967795">
        <ele>964.762569</ele>
        <time>2020-08-08T08:29:34.526Z</time>
      </trkpt>
      <trkpt lat="38.513228" lon="-2.967862">
        <ele>964.684266</ele>
        <time>2020-08-08T08:29:56.540Z</time>
      </trkpt>
      <trkpt lat="38.513297" lon="-2.967937">
        <ele>964.611391</ele>
        <time>2020-08-08T08:30:03.526Z</time>
      </trkpt>
      <trkpt lat="38.513365" lon="-2.968014">
        <ele>964.538297</ele>
        <time>2020-08-08T08:30:11.536Z</time>
      </trkpt>
      <trkpt lat="38.513425" lon="-2.968106">
        <ele>964.523785</ele>
        <time>2020-08-08T08:30:23.547Z</time>
      </trkpt>
      <trkpt lat="38.513495" lon="-2.968191">
        <ele>965.935451</ele>
        <time>2020-08-08T08:30:30.531Z</time>
      </trkpt>
      <trkpt lat="38.513564" lon="-2.968274">
        <ele>967.320773</ele>
        <time>2020-08-08T08:30:37.528Z</time>
      </trkpt>
      <trkpt lat="38.513646" lon="-2.968349">
        <ele>968.794978</ele>
        <time>2020-08-08T08:30:44.527Z</time>
      </trkpt>
      <trkpt lat="38.513743" lon="-2.968398">
        <ele>970.319863</ele>
        <time>2020-08-08T08:30:51.545Z</time>
      </trkpt>
      <trkpt lat="38.513833" lon="-2.968466">
        <ele>971.848389</ele>
        <time>2020-08-08T08:30:59.537Z</time>
      </trkpt>
      <trkpt lat="38.513902" lon="-2.968541">
        <ele>973.172664</ele>
        <time>2020-08-08T08:31:05.550Z</time>
      </trkpt>
      <trkpt lat="38.513972" lon="-2.968621">
        <ele>974.545554</ele>
        <time>2020-08-08T08:31:11.541Z</time>
      </trkpt>
      <trkpt lat="38.514030" lon="-2.968720">
        <ele>975.960325</ele>
        <time>2020-08-08T08:31:18.560Z</time>
      </trkpt>
      <trkpt lat="38.514104" lon="-2.968786">
        <ele>977.279591</ele>
        <time>2020-08-08T08:31:25.531Z</time>
      </trkpt>
      <trkpt lat="38.514183" lon="-2.968851">
        <ele>978.653210</ele>
        <time>2020-08-08T08:31:34.528Z</time>
      </trkpt>
      <trkpt lat="38.514264" lon="-2.968919">
        <ele>980.070051</ele>
        <time>2020-08-08T08:31:48.529Z</time>
      </trkpt>
      <trkpt lat="38.514348" lon="-2.969013">
        <ele>981.702354</ele>
        <time>2020-08-08T08:31:53.556Z</time>
      </trkpt>
      <trkpt lat="38.514405" lon="-2.969105">
        <ele>983.044749</ele>
        <time>2020-08-08T08:31:58.539Z</time>
      </trkpt>
      <trkpt lat="38.514432" lon="-2.969223">
        <ele>984.451122</ele>
        <time>2020-08-08T08:32:02.541Z</time>
      </trkpt>
      <trkpt lat="38.514451" lon="-2.969349">
        <ele>985.918998</ele>
        <time>2020-08-08T08:32:06.524Z</time>
      </trkpt>
      <trkpt lat="38.514449" lon="-2.969476">
        <ele>987.372085</ele>
        <time>2020-08-08T08:32:10.525Z</time>
      </trkpt>
      <trkpt lat="38.514430" lon="-2.969601">
        <ele>988.828730</ele>
        <time>2020-08-08T08:32:14.557Z</time>
      </trkpt>
      <trkpt lat="38.514377" lon="-2.969724">
        <ele>990.435014</ele>
        <time>2020-08-08T08:32:18.531Z</time>
      </trkpt>
      <trkpt lat="38.514326" lon="-2.969820">
        <ele>990.328575</ele>
        <time>2020-08-08T08:32:21.525Z</time>
      </trkpt>
      <trkpt lat="38.514259" lon="-2.969942">
        <ele>989.589944</ele>
        <time>2020-08-08T08:32:25.545Z</time>
      </trkpt>
      <trkpt lat="38.514194" lon="-2.970059">
        <ele>988.878861</ele>
        <time>2020-08-08T08:32:29.528Z</time>
      </trkpt>
      <trkpt lat="38.514131" lon="-2.970171">
        <ele>988.195301</ele>
        <time>2020-08-08T08:32:33.538Z</time>
      </trkpt>
      <trkpt lat="38.514073" lon="-2.970291">
        <ele>987.496326</ele>
        <time>2020-08-08T08:32:37.525Z</time>
      </trkpt>
      <trkpt lat="38.514016" lon="-2.970387">
        <ele>986.899128</ele>
        <time>2020-08-08T08:32:40.531Z</time>
      </trkpt>
      <trkpt lat="38.513967" lon="-2.970485">
        <ele>986.322794</ele>
        <time>2020-08-08T08:32:43.538Z</time>
      </trkpt>
      <trkpt lat="38.513929" lon="-2.970624">
        <ele>985.593135</ele>
        <time>2020-08-08T08:32:47.527Z</time>
      </trkpt>
      <trkpt lat="38.513934" lon="-2.970757">
        <ele>984.933283</ele>
        <time>2020-08-08T08:32:51.553Z</time>
      </trkpt>
      <trkpt lat="38.513966" lon="-2.970881">
        <ele>984.286232</ele>
        <time>2020-08-08T08:32:55.548Z</time>
      </trkpt>
      <trkpt lat="38.513996" lon="-2.971010">
        <ele>983.619324</ele>
        <time>2020-08-08T08:32:59.551Z</time>
      </trkpt>
      <trkpt lat="38.514054" lon="-2.971121">
        <ele>982.957878</ele>
        <time>2020-08-08T08:33:03.534Z</time>
      </trkpt>
      <trkpt lat="38.514107" lon="-2.971243">
        <ele>982.266365</ele>
        <time>2020-08-08T08:33:07.548Z</time>
      </trkpt>
      <trkpt lat="38.514168" lon="-2.971358">
        <ele>981.577867</ele>
        <time>2020-08-08T08:33:11.552Z</time>
      </trkpt>
      <trkpt lat="38.514224" lon="-2.971455">
        <ele>980.980496</ele>
        <time>2020-08-08T08:33:14.521Z</time>
      </trkpt>
      <trkpt lat="38.514285" lon="-2.971581">
        <ele>980.246240</ele>
        <time>2020-08-08T08:33:17.556Z</time>
      </trkpt>
      <trkpt lat="38.514381" lon="-2.971701">
        <ele>979.395772</ele>
        <time>2020-08-08T08:33:20.549Z</time>
      </trkpt>
      <trkpt lat="38.514444" lon="-2.971792">
        <ele>979.301168</ele>
        <time>2020-08-08T08:33:22.561Z</time>
      </trkpt>
      <trkpt lat="38.514534" lon="-2.971872">
        <ele>979.217717</ele>
        <time>2020-08-08T08:33:24.528Z</time>
      </trkpt>
      <trkpt lat="38.514625" lon="-2.971970">
        <ele>979.127132</ele>
        <time>2020-08-08T08:33:26.539Z</time>
      </trkpt>
      <trkpt lat="38.514720" lon="-2.972040">
        <ele>979.043658</ele>
        <time>2020-08-08T08:33:28.541Z</time>
      </trkpt>
      <trkpt lat="38.514820" lon="-2.972143">
        <ele>978.945892</ele>
        <time>2020-08-08T08:33:30.545Z</time>
      </trkpt>
      <trkpt lat="38.514926" lon="-2.972253">
        <ele>978.841953</ele>
        <time>2020-08-08T08:33:32.551Z</time>
      </trkpt>
      <trkpt lat="38.515009" lon="-2.972309">
        <ele>978.770508</ele>
        <time>2020-08-08T08:33:33.541Z</time>
      </trkpt>
      <trkpt lat="38.515102" lon="-2.972447">
        <ele>978.662029</ele>
        <time>2020-08-08T08:33:35.535Z</time>
      </trkpt>
      <trkpt lat="38.515179" lon="-2.972610">
        <ele>978.548622</ele>
        <time>2020-08-08T08:33:37.545Z</time>
      </trkpt>
      <trkpt lat="38.515246" lon="-2.972759">
        <ele>978.446264</ele>
        <time>2020-08-08T08:33:39.523Z</time>
      </trkpt>
      <trkpt lat="38.515311" lon="-2.972847">
        <ele>978.374185</ele>
        <time>2020-08-08T08:33:41.550Z</time>
      </trkpt>
      <trkpt lat="38.515370" lon="-2.972980">
        <ele>978.283123</ele>
        <time>2020-08-08T08:33:43.538Z</time>
      </trkpt>
      <trkpt lat="38.515500" lon="-2.973085">
        <ele>978.166059</ele>
        <time>2020-08-08T08:33:45.547Z</time>
      </trkpt>
      <trkpt lat="38.515619" lon="-2.973145">
        <ele>978.068679</ele>
        <time>2020-08-08T08:33:47.535Z</time>
      </trkpt>
      <trkpt lat="38.515736" lon="-2.973219">
        <ele>977.573538</ele>
        <time>2020-08-08T08:33:49.547Z</time>
      </trkpt>
      <trkpt lat="38.515836" lon="-2.973290">
        <ele>976.410472</ele>
        <time>2020-08-08T08:33:51.534Z</time>
      </trkpt>
      <trkpt lat="38.515930" lon="-2.973384">
        <ele>975.196980</ele>
        <time>2020-08-08T08:33:53.532Z</time>
      </trkpt>
      <trkpt lat="38.516046" lon="-2.973472">
        <ele>973.825474</ele>
        <time>2020-08-08T08:33:55.539Z</time>
      </trkpt>
      <trkpt lat="38.516137" lon="-2.973563">
        <ele>972.650712</ele>
        <time>2020-08-08T08:33:57.534Z</time>
      </trkpt>
      <trkpt lat="38.516242" lon="-2.973635">
        <ele>971.439215</ele>
        <time>2020-08-08T08:33:59.548Z</time>
      </trkpt>
      <trkpt lat="38.516358" lon="-2.973692">
        <ele>970.175663</ele>
        <time>2020-08-08T08:34:01.540Z</time>
      </trkpt>
      <trkpt lat="38.516475" lon="-2.973754">
        <ele>968.887912</ele>
        <time>2020-08-08T08:34:03.553Z</time>
      </trkpt>
      <trkpt lat="38.516595" lon="-2.973814">
        <ele>967.577813</ele>
        <time>2020-08-08T08:34:05.546Z</time>
      </trkpt>
      <trkpt lat="38.516706" lon="-2.973876">
        <ele>966.346192</ele>
        <time>2020-08-08T08:34:07.530Z</time>
      </trkpt>
      <trkpt lat="38.516834" lon="-2.973940">
        <ele>964.948755</ele>
        <time>2020-08-08T08:34:09.549Z</time>
      </trkpt>
      <trkpt lat="38.516976" lon="-2.973996">
        <ele>963.437854</ele>
        <time>2020-08-08T08:34:11.525Z</time>
      </trkpt>
      <trkpt lat="38.517123" lon="-2.974071">
        <ele>961.828599</ele>
        <time>2020-08-08T08:34:13.593Z</time>
      </trkpt>
      <trkpt lat="38.517277" lon="-2.974124">
        <ele>960.207088</ele>
        <time>2020-08-08T08:34:15.538Z</time>
      </trkpt>
      <trkpt lat="38.517420" lon="-2.974183">
        <ele>959.630848</ele>
        <time>2020-08-08T08:34:17.533Z</time>
      </trkpt>
      <trkpt lat="38.517580" lon="-2.974235">
        <ele>959.495541</ele>
        <time>2020-08-08T08:34:19.550Z</time>
      </trkpt>
      <trkpt lat="38.517727" lon="-2.974285">
        <ele>959.370869</ele>
        <time>2020-08-08T08:34:21.555Z</time>
      </trkpt>
      <trkpt lat="38.517867" lon="-2.974325">
        <ele>959.253295</ele>
        <time>2020-08-08T08:34:23.549Z</time>
      </trkpt>
      <trkpt lat="38.517990" lon="-2.974354">
        <ele>959.150785</ele>
        <time>2020-08-08T08:34:25.549Z</time>
      </trkpt>
      <trkpt lat="38.518100" lon="-2.974385">
        <ele>959.058465</ele>
        <time>2020-08-08T08:34:27.535Z</time>
      </trkpt>
      <trkpt lat="38.518210" lon="-2.974370">
        <ele>958.967799</ele>
        <time>2020-08-08T08:34:30.543Z</time>
      </trkpt>
      <trkpt lat="38.518293" lon="-2.974313">
        <ele>958.890576</ele>
        <time>2020-08-08T08:34:34.528Z</time>
      </trkpt>
      <trkpt lat="38.518373" lon="-2.974261">
        <ele>958.817017</ele>
        <time>2020-08-08T08:34:38.528Z</time>
      </trkpt>
      <trkpt lat="38.518470" lon="-2.974201">
        <ele>958.728696</ele>
        <time>2020-08-08T08:34:43.547Z</time>
      </trkpt>
      <trkpt lat="38.518561" lon="-2.974180">
        <ele>958.652908</ele>
        <time>2020-08-08T08:34:47.524Z</time>
      </trkpt>
      <trkpt lat="38.518652" lon="-2.974168">
        <ele>958.577930</ele>
        <time>2020-08-08T08:34:51.537Z</time>
      </trkpt>
      <trkpt lat="38.518747" lon="-2.974158">
        <ele>958.499806</ele>
        <time>2020-08-08T08:34:56.532Z</time>
      </trkpt>
      <trkpt lat="38.518858" lon="-2.974142">
        <ele>958.408255</ele>
        <time>2020-08-08T08:35:02.541Z</time>
      </trkpt>
      <trkpt lat="38.518956" lon="-2.974163">
        <ele>958.326815</ele>
        <time>2020-08-08T08:35:08.532Z</time>
      </trkpt>
      <trkpt lat="38.519061" lon="-2.974169">
        <ele>958.240673</ele>
        <time>2020-08-08T08:35:12.524Z</time>
      </trkpt>
      <trkpt lat="38.519166" lon="-2.974225">
        <ele>959.391324</ele>
        <time>2020-08-08T08:35:18.533Z</time>
      </trkpt>
      <trkpt lat="38.519261" lon="-2.974252">
        <ele>960.381704</ele>
        <time>2020-08-08T08:35:22.554Z</time>
      </trkpt>
      <trkpt lat="38.519354" lon="-2.974255">
        <ele>961.328419</ele>
        <time>2020-08-08T08:35:41.528Z</time>
      </trkpt>
      <trkpt lat="38.519449" lon="-2.974283">
        <ele>962.320558</ele>
        <time>2020-08-08T08:35:49.528Z</time>
      </trkpt>
      <trkpt lat="38.519601" lon="-2.974320">
        <ele>963.895188</ele>
        <time>2020-08-08T08:36:20.554Z</time>
      </trkpt>
      <trkpt lat="38.519692" lon="-2.974372">
        <ele>964.909587</ele>
        <time>2020-08-08T08:36:29.548Z</time>
      </trkpt>
      <trkpt lat="38.519779" lon="-2.974423">
        <ele>965.883620</ele>
        <time>2020-08-08T08:36:37.539Z</time>
      </trkpt>
      <trkpt lat="38.519861" lon="-2.974484">
        <ele>966.849141</ele>
        <time>2020-08-08T08:36:46.670Z</time>
      </trkpt>
      <trkpt lat="38.519943" lon="-2.974549">
        <ele>967.831069</ele>
        <time>2020-08-08T08:36:54.675Z</time>
      </trkpt>
      <trkpt lat="38.520041" lon="-2.974564">
        <ele>968.835490</ele>
        <time>2020-08-08T08:37:02.670Z</time>
      </trkpt>
      <trkpt lat="38.520135" lon="-2.974597">
        <ele>969.827508</ele>
        <time>2020-08-08T08:37:10.691Z</time>
      </trkpt>
      <trkpt lat="38.520211" lon="-2.974664">
        <ele>970.767051</ele>
        <time>2020-08-08T08:37:19.666Z</time>
      </trkpt>
      <trkpt lat="38.520296" lon="-2.974703">
        <ele>971.686098</ele>
        <time>2020-08-08T08:37:27.676Z</time>
      </trkpt>
      <trkpt lat="38.520385" lon="-2.974761">
        <ele>972.702739</ele>
        <time>2020-08-08T08:37:36.677Z</time>
      </trkpt>
      <trkpt lat="38.520459" lon="-2.974841">
        <ele>973.689052</ele>
        <time>2020-08-08T08:37:49.674Z</time>
      </trkpt>
      <trkpt lat="38.520547" lon="-2.974872">
        <ele>974.617974</ele>
        <time>2020-08-08T08:37:57.682Z</time>
      </trkpt>
      <trkpt lat="38.520579" lon="-2.974983">
        <ele>975.559836</ele>
        <time>2020-08-08T08:38:05.663Z</time>
      </trkpt>
      <trkpt lat="38.520611" lon="-2.975098">
        <ele>976.531643</ele>
        <time>2020-08-08T08:38:14.668Z</time>
      </trkpt>
      <trkpt lat="38.520658" lon="-2.975208">
        <ele>976.307036</ele>
        <time>2020-08-08T08:38:25.679Z</time>
      </trkpt>
      <trkpt lat="38.520716" lon="-2.975309">
        <ele>976.067176</ele>
        <time>2020-08-08T08:38:33.681Z</time>
      </trkpt>
      <trkpt lat="38.520778" lon="-2.975402">
        <ele>975.833257</ele>
        <time>2020-08-08T08:38:42.672Z</time>
      </trkpt>
      <trkpt lat="38.520835" lon="-2.975496">
        <ele>975.605571</ele>
        <time>2020-08-08T08:38:49.692Z</time>
      </trkpt>
      <trkpt lat="38.520900" lon="-2.975594">
        <ele>975.359603</ele>
        <time>2020-08-08T08:38:57.660Z</time>
      </trkpt>
      <trkpt lat="38.520972" lon="-2.975678">
        <ele>975.121060</ele>
        <time>2020-08-08T08:39:06.688Z</time>
      </trkpt>
      <trkpt lat="38.521044" lon="-2.975758">
        <ele>974.887610</ele>
        <time>2020-08-08T08:39:15.681Z</time>
      </trkpt>
      <trkpt lat="38.521103" lon="-2.975850">
        <ele>974.659869</ele>
        <time>2020-08-08T08:39:23.684Z</time>
      </trkpt>
      <trkpt lat="38.521162" lon="-2.975942">
        <ele>974.432127</ele>
        <time>2020-08-08T08:39:33.673Z</time>
      </trkpt>
      <trkpt lat="38.521220" lon="-2.976035">
        <ele>974.204435</ele>
        <time>2020-08-08T08:39:42.684Z</time>
      </trkpt>
      <trkpt lat="38.521286" lon="-2.976121">
        <ele>973.973803</ele>
        <time>2020-08-08T08:39:51.665Z</time>
      </trkpt>
      <trkpt lat="38.521356" lon="-2.976209">
        <ele>973.733545</ele>
        <time>2020-08-08T08:40:00.670Z</time>
      </trkpt>
      <trkpt lat="38.521429" lon="-2.976281">
        <ele>973.507913</ele>
        <time>2020-08-08T08:40:08.672Z</time>
      </trkpt>
      <trkpt lat="38.521497" lon="-2.976365">
        <ele>973.276505</ele>
        <time>2020-08-08T08:40:17.683Z</time>
      </trkpt>
      <trkpt lat="38.521525" lon="-2.976487">
        <ele>973.033097</ele>
        <time>2020-08-08T08:40:26.671Z</time>
      </trkpt>
      <trkpt lat="38.521586" lon="-2.976582">
        <ele>972.797812</ele>
        <time>2020-08-08T08:40:35.682Z</time>
      </trkpt>
      <trkpt lat="38.521667" lon="-2.976646">
        <ele>972.564791</ele>
        <time>2020-08-08T08:40:43.673Z</time>
      </trkpt>
      <trkpt lat="38.521741" lon="-2.976722">
        <ele>972.332499</ele>
        <time>2020-08-08T08:40:52.699Z</time>
      </trkpt>
      <trkpt lat="38.521803" lon="-2.976806">
        <ele>972.034229</ele>
        <time>2020-08-08T08:41:01.665Z</time>
      </trkpt>
      <trkpt lat="38.521832" lon="-2.976923">
        <ele>971.220071</ele>
        <time>2020-08-08T08:41:10.676Z</time>
      </trkpt>
      <trkpt lat="38.521886" lon="-2.977032">
        <ele>970.364229</ele>
        <time>2020-08-08T08:41:18.669Z</time>
      </trkpt>
      <trkpt lat="38.521949" lon="-2.977115">
        <ele>969.597096</ele>
        <time>2020-08-08T08:41:25.679Z</time>
      </trkpt>
      <trkpt lat="38.521996" lon="-2.977224">
        <ele>968.771483</ele>
        <time>2020-08-08T08:41:33.663Z</time>
      </trkpt>
      <trkpt lat="38.522066" lon="-2.977300">
        <ele>967.992736</ele>
        <time>2020-08-08T08:41:40.686Z</time>
      </trkpt>
      <trkpt lat="38.522113" lon="-2.977404">
        <ele>967.196012</ele>
        <time>2020-08-08T08:41:49.681Z</time>
      </trkpt>
      <trkpt lat="38.522180" lon="-2.977493">
        <ele>966.376690</ele>
        <time>2020-08-08T08:41:58.685Z</time>
      </trkpt>
      <trkpt lat="38.522236" lon="-2.977588">
        <ele>965.587640</ele>
        <time>2020-08-08T08:42:06.690Z</time>
      </trkpt>
      <trkpt lat="38.522310" lon="-2.977678">
        <ele>964.721544</ele>
        <time>2020-08-08T08:42:15.667Z</time>
      </trkpt>
      <trkpt lat="38.522362" lon="-2.977777">
        <ele>963.930540</ele>
        <time>2020-08-08T08:42:22.663Z</time>
      </trkpt>
      <trkpt lat="38.522419" lon="-2.977880">
        <ele>963.093626</ele>
        <time>2020-08-08T08:42:40.684Z</time>
      </trkpt>
      <trkpt lat="38.522496" lon="-2.977959">
        <ele>962.256439</ele>
        <time>2020-08-08T08:42:49.671Z</time>
      </trkpt>
      <trkpt lat="38.522582" lon="-2.978017">
        <ele>961.431972</ele>
        <time>2020-08-08T08:42:59.669Z</time>
      </trkpt>
      <trkpt lat="38.522663" lon="-2.978079">
        <ele>960.631448</ele>
        <time>2020-08-08T08:43:09.672Z</time>
      </trkpt>
      <trkpt lat="38.522749" lon="-2.978136">
        <ele>959.810056</ele>
        <time>2020-08-08T08:43:20.689Z</time>
      </trkpt>
      <trkpt lat="38.522837" lon="-2.978183">
        <ele>959.001391</ele>
        <time>2020-08-08T08:43:30.678Z</time>
      </trkpt>
      <trkpt lat="38.522925" lon="-2.978219">
        <ele>958.217962</ele>
        <time>2020-08-08T08:43:39.678Z</time>
      </trkpt>
      <trkpt lat="38.523022" lon="-2.978258">
        <ele>957.355776</ele>
        <time>2020-08-08T08:43:47.668Z</time>
      </trkpt>
      <trkpt lat="38.523104" lon="-2.978306">
        <ele>957.868029</ele>
        <time>2020-08-08T08:43:54.681Z</time>
      </trkpt>
      <trkpt lat="38.523197" lon="-2.978349">
        <ele>960.585732</ele>
        <time>2020-08-08T08:44:03.688Z</time>
      </trkpt>
      <trkpt lat="38.523288" lon="-2.978387">
        <ele>963.216477</ele>
        <time>2020-08-08T08:44:12.677Z</time>
      </trkpt>
      <trkpt lat="38.523375" lon="-2.978429">
        <ele>965.772070</ele>
        <time>2020-08-08T08:44:21.662Z</time>
      </trkpt>
      <trkpt lat="38.523459" lon="-2.978487">
        <ele>968.395656</ele>
        <time>2020-08-08T08:44:31.676Z</time>
      </trkpt>
      <trkpt lat="38.523554" lon="-2.978499">
        <ele>971.018969</ele>
        <time>2020-08-08T08:44:41.673Z</time>
      </trkpt>
      <trkpt lat="38.523650" lon="-2.978499">
        <ele>973.657046</ele>
        <time>2020-08-08T08:44:51.666Z</time>
      </trkpt>
      <trkpt lat="38.523743" lon="-2.978466">
        <ele>976.309332</ele>
        <time>2020-08-08T08:45:01.673Z</time>
      </trkpt>
      <trkpt lat="38.523846" lon="-2.978464">
        <ele>979.140095</ele>
        <time>2020-08-08T08:45:17.665Z</time>
      </trkpt>
      <trkpt lat="38.523947" lon="-2.978428">
        <ele>982.021464</ele>
        <time>2020-08-08T08:45:21.656Z</time>
      </trkpt>
      <trkpt lat="38.524056" lon="-2.978389">
        <ele>985.131919</ele>
        <time>2020-08-08T08:45:25.661Z</time>
      </trkpt>
      <trkpt lat="38.524159" lon="-2.978339">
        <ele>988.159603</ele>
        <time>2020-08-08T08:45:29.663Z</time>
      </trkpt>
      <trkpt lat="38.524246" lon="-2.978285">
        <ele>990.817326</ele>
        <time>2020-08-08T08:45:33.676Z</time>
      </trkpt>
      <trkpt lat="38.524327" lon="-2.978232">
        <ele>993.317895</ele>
        <time>2020-08-08T08:45:37.677Z</time>
      </trkpt>
      <trkpt lat="38.524408" lon="-2.978174">
        <ele>995.869240</ele>
        <time>2020-08-08T08:45:41.690Z</time>
      </trkpt>
      <trkpt lat="38.524500" lon="-2.978115">
        <ele>998.697752</ele>
        <time>2020-08-08T08:45:45.665Z</time>
      </trkpt>
      <trkpt lat="38.524604" lon="-2.978042">
        <ele>1001.958231</ele>
        <time>2020-08-08T08:45:49.678Z</time>
      </trkpt>
      <trkpt lat="38.524680" lon="-2.977977">
        <ele>1004.471099</ele>
        <time>2020-08-08T08:45:52.667Z</time>
      </trkpt>
      <trkpt lat="38.524754" lon="-2.977902">
        <ele>1006.395053</ele>
        <time>2020-08-08T08:45:55.688Z</time>
      </trkpt>
      <trkpt lat="38.524828" lon="-2.977822">
        <ele>1006.666679</ele>
        <time>2020-08-08T08:45:58.675Z</time>
      </trkpt>
      <trkpt lat="38.524912" lon="-2.977732">
        <ele>1006.973867</ele>
        <time>2020-08-08T08:46:01.671Z</time>
      </trkpt>
      <trkpt lat="38.525006" lon="-2.977639">
        <ele>1007.307012</ele>
        <time>2020-08-08T08:46:04.678Z</time>
      </trkpt>
      <trkpt lat="38.525111" lon="-2.977537">
        <ele>1007.676628</ele>
        <time>2020-08-08T08:46:07.673Z</time>
      </trkpt>
      <trkpt lat="38.525214" lon="-2.977429">
        <ele>1008.049999</ele>
        <time>2020-08-08T08:46:10.665Z</time>
      </trkpt>
      <trkpt lat="38.525283" lon="-2.977352">
        <ele>1008.306710</ele>
        <time>2020-08-08T08:46:12.663Z</time>
      </trkpt>
      <trkpt lat="38.525380" lon="-2.977240">
        <ele>1008.673057</ele>
        <time>2020-08-08T08:46:15.660Z</time>
      </trkpt>
      <trkpt lat="38.525440" lon="-2.977150">
        <ele>1008.932321</ele>
        <time>2020-08-08T08:46:17.679Z</time>
      </trkpt>
      <trkpt lat="38.525531" lon="-2.977015">
        <ele>1009.323040</ele>
        <time>2020-08-08T08:46:20.665Z</time>
      </trkpt>
      <trkpt lat="38.525602" lon="-2.976930">
        <ele>1009.595675</ele>
        <time>2020-08-08T08:46:22.666Z</time>
      </trkpt>
      <trkpt lat="38.525668" lon="-2.976835">
        <ele>1009.874247</ele>
        <time>2020-08-08T08:46:24.668Z</time>
      </trkpt>
      <trkpt lat="38.525735" lon="-2.976750">
        <ele>1010.138811</ele>
        <time>2020-08-08T08:46:26.666Z</time>
      </trkpt>
      <trkpt lat="38.525823" lon="-2.976660">
        <ele>1010.454670</ele>
        <time>2020-08-08T08:46:28.671Z</time>
      </trkpt>
      <trkpt lat="38.525901" lon="-2.976568">
        <ele>1010.752124</ele>
        <time>2020-08-08T08:46:30.681Z</time>
      </trkpt>
      <trkpt lat="38.525992" lon="-2.976461">
        <ele>1011.098657</ele>
        <time>2020-08-08T08:46:32.668Z</time>
      </trkpt>
      <trkpt lat="38.526118" lon="-2.976359">
        <ele>1011.106420</ele>
        <time>2020-08-08T08:46:34.684Z</time>
      </trkpt>
      <trkpt lat="38.526198" lon="-2.976221">
        <ele>1010.498281</ele>
        <time>2020-08-08T08:46:36.687Z</time>
      </trkpt>
      <trkpt lat="38.526288" lon="-2.976102">
        <ele>1009.912243</ele>
        <time>2020-08-08T08:46:38.662Z</time>
      </trkpt>
      <trkpt lat="38.526401" lon="-2.975989">
        <ele>1009.262917</ele>
        <time>2020-08-08T08:46:40.676Z</time>
      </trkpt>
      <trkpt lat="38.526525" lon="-2.975860">
        <ele>1008.539340</ele>
        <time>2020-08-08T08:46:42.674Z</time>
      </trkpt>
      <trkpt lat="38.526616" lon="-2.975803">
        <ele>1008.080700</ele>
        <time>2020-08-08T08:46:43.682Z</time>
      </trkpt>
      <trkpt lat="38.526750" lon="-2.975663">
        <ele>1007.297436</ele>
        <time>2020-08-08T08:46:45.672Z</time>
      </trkpt>
      <trkpt lat="38.526862" lon="-2.975520">
        <ele>1006.580992</ele>
        <time>2020-08-08T08:46:47.682Z</time>
      </trkpt>
      <trkpt lat="38.527000" lon="-2.975375">
        <ele>1005.772505</ele>
        <time>2020-08-08T08:46:49.676Z</time>
      </trkpt>
      <trkpt lat="38.527137" lon="-2.975239">
        <ele>1004.987449</ele>
        <time>2020-08-08T08:46:51.660Z</time>
      </trkpt>
      <trkpt lat="38.527229" lon="-2.975080">
        <ele>1004.287241</ele>
        <time>2020-08-08T08:46:53.669Z</time>
      </trkpt>
      <trkpt lat="38.527345" lon="-2.974934">
        <ele>1003.550467</ele>
        <time>2020-08-08T08:46:55.686Z</time>
      </trkpt>
      <trkpt lat="38.527471" lon="-2.974812">
        <ele>1002.823452</ele>
        <time>2020-08-08T08:46:57.673Z</time>
      </trkpt>
      <trkpt lat="38.527607" lon="-2.974709">
        <ele>1002.086364</ele>
        <time>2020-08-08T08:46:59.668Z</time>
      </trkpt>
      <trkpt lat="38.527725" lon="-2.974623">
        <ele>1001.453006</ele>
        <time>2020-08-08T08:47:01.659Z</time>
      </trkpt>
      <trkpt lat="38.527845" lon="-2.974574">
        <ele>1000.865616</ele>
        <time>2020-08-08T08:47:03.661Z</time>
      </trkpt>
      <trkpt lat="38.527989" lon="-2.974529">
        <ele>1000.174400</ele>
        <time>2020-08-08T08:47:05.672Z</time>
      </trkpt>
      <trkpt lat="38.528075" lon="-2.974474">
        <ele>999.726012</ele>
        <time>2020-08-08T08:47:06.688Z</time>
      </trkpt>
      <trkpt lat="38.528216" lon="-2.974438">
        <ele>999.055571</ele>
        <time>2020-08-08T08:47:08.666Z</time>
      </trkpt>
      <trkpt lat="38.528309" lon="-2.974367">
        <ele>998.550479</ele>
        <time>2020-08-08T08:47:10.662Z</time>
      </trkpt>
      <trkpt lat="38.528424" lon="-2.974307">
        <ele>997.971312</ele>
        <time>2020-08-08T08:47:12.664Z</time>
      </trkpt>
      <trkpt lat="38.528536" lon="-2.974239">
        <ele>997.393166</ele>
        <time>2020-08-08T08:47:14.667Z</time>
      </trkpt>
      <trkpt lat="38.528640" lon="-2.974179">
        <ele>996.861133</ele>
        <time>2020-08-08T08:47:16.678Z</time>
      </trkpt>
      <trkpt lat="38.528753" lon="-2.974118">
        <ele>996.289181</ele>
        <time>2020-08-08T08:47:18.660Z</time>
      </trkpt>
      <trkpt lat="38.528856" lon="-2.974057">
        <ele>995.759872</ele>
        <time>2020-08-08T08:47:20.656Z</time>
      </trkpt>
      <trkpt lat="38.528963" lon="-2.974012">
        <ele>995.234645</ele>
        <time>2020-08-08T08:47:22.670Z</time>
      </trkpt>
      <trkpt lat="38.529075" lon="-2.973953">
        <ele>994.813506</ele>
        <time>2020-08-08T08:47:24.667Z</time>
      </trkpt>
      <trkpt lat="38.529177" lon="-2.973903">
        <ele>994.753472</ele>
        <time>2020-08-08T08:47:26.662Z</time>
      </trkpt>
      <trkpt lat="38.529279" lon="-2.973884">
        <ele>994.696828</ele>
        <time>2020-08-08T08:47:28.657Z</time>
      </trkpt>
      <trkpt lat="38.529383" lon="-2.973881">
        <ele>994.639661</ele>
        <time>2020-08-08T08:47:30.682Z</time>
      </trkpt>
      <trkpt lat="38.529496" lon="-2.973862">
        <ele>994.577028</ele>
        <time>2020-08-08T08:47:33.663Z</time>
      </trkpt>
      <trkpt lat="38.529610" lon="-2.973863">
        <ele>994.514379</ele>
        <time>2020-08-08T08:47:36.683Z</time>
      </trkpt>
      <trkpt lat="38.529711" lon="-2.973881">
        <ele>994.458339</ele>
        <time>2020-08-08T08:47:40.675Z</time>
      </trkpt>
      <trkpt lat="38.529804" lon="-2.973876">
        <ele>994.407187</ele>
        <time>2020-08-08T08:47:43.682Z</time>
      </trkpt>
      <trkpt lat="38.529897" lon="-2.973877">
        <ele>994.356078</ele>
        <time>2020-08-08T08:47:46.669Z</time>
      </trkpt>
      <trkpt lat="38.530013" lon="-2.973874">
        <ele>994.292319</ele>
        <time>2020-08-08T08:47:50.670Z</time>
      </trkpt>
      <trkpt lat="38.530106" lon="-2.973867">
        <ele>994.241123</ele>
        <time>2020-08-08T08:47:53.678Z</time>
      </trkpt>
      <trkpt lat="38.530198" lon="-2.973867">
        <ele>994.190566</ele>
        <time>2020-08-08T08:47:56.672Z</time>
      </trkpt>
      <trkpt lat="38.530315" lon="-2.973862">
        <ele>994.126234</ele>
        <time>2020-08-08T08:48:00.683Z</time>
      </trkpt>
      <trkpt lat="38.530435" lon="-2.973850">
        <ele>994.060088</ele>
        <time>2020-08-08T08:48:04.682Z</time>
      </trkpt>
      <trkpt lat="38.530555" lon="-2.973841">
        <ele>993.994030</ele>
        <time>2020-08-08T08:48:08.679Z</time>
      </trkpt>
      <trkpt lat="38.530648" lon="-2.973825">
        <ele>993.942462</ele>
        <time>2020-08-08T08:48:11.688Z</time>
      </trkpt>
      <trkpt lat="38.530739" lon="-2.973804">
        <ele>993.891645</ele>
        <time>2020-08-08T08:48:14.671Z</time>
      </trkpt>
      <trkpt lat="38.530853" lon="-2.973777">
        <ele>993.826498</ele>
        <time>2020-08-08T08:48:18.671Z</time>
      </trkpt>
      <trkpt lat="38.530962" lon="-2.973736">
        <ele>993.758585</ele>
        <time>2020-08-08T08:48:22.665Z</time>
      </trkpt>
      <trkpt lat="38.531044" lon="-2.973687">
        <ele>993.704481</ele>
        <time>2020-08-08T08:48:25.684Z</time>
      </trkpt>
      <trkpt lat="38.531133" lon="-2.973633">
        <ele>993.645596</ele>
        <time>2020-08-08T08:48:28.692Z</time>
      </trkpt>
      <trkpt lat="38.531220" lon="-2.973580">
        <ele>993.587991</ele>
        <time>2020-08-08T08:48:31.668Z</time>
      </trkpt>
      <trkpt lat="38.531310" lon="-2.973521">
        <ele>993.527535</ele>
        <time>2020-08-08T08:48:34.669Z</time>
      </trkpt>
      <trkpt lat="38.531412" lon="-2.973463">
        <ele>993.460808</ele>
        <time>2020-08-08T08:48:37.658Z</time>
      </trkpt>
      <trkpt lat="38.531531" lon="-2.973408">
        <ele>993.385173</ele>
        <time>2020-08-08T08:48:40.659Z</time>
      </trkpt>
      <trkpt lat="38.531639" lon="-2.973347">
        <ele>993.314599</ele>
        <time>2020-08-08T08:48:43.677Z</time>
      </trkpt>
      <trkpt lat="38.531746" lon="-2.973294">
        <ele>993.246010</ele>
        <time>2020-08-08T08:48:46.663Z</time>
      </trkpt>
      <trkpt lat="38.531852" lon="-2.973243">
        <ele>993.178313</ele>
        <time>2020-08-08T08:48:49.663Z</time>
      </trkpt>
      <trkpt lat="38.531950" lon="-2.973187">
        <ele>993.114150</ele>
        <time>2020-08-08T08:48:52.664Z</time>
      </trkpt>
      <trkpt lat="38.532049" lon="-2.973143">
        <ele>993.051501</ele>
        <time>2020-08-08T08:48:55.663Z</time>
      </trkpt>
      <trkpt lat="38.532142" lon="-2.973093">
        <ele>992.991197</ele>
        <time>2020-08-08T08:48:58.659Z</time>
      </trkpt>
      <trkpt lat="38.532234" lon="-2.973042">
        <ele>992.931259</ele>
        <time>2020-08-08T08:49:01.672Z</time>
      </trkpt>
      <trkpt lat="38.532333" lon="-2.972999">
        <ele>992.868763</ele>
        <time>2020-08-08T08:49:04.665Z</time>
      </trkpt>
      <trkpt lat="38.532433" lon="-2.972952">
        <ele>992.805079</ele>
        <time>2020-08-08T08:49:07.677Z</time>
      </trkpt>
      <trkpt lat="38.532535" lon="-2.972911">
        <ele>992.681618</ele>
        <time>2020-08-08T08:49:10.682Z</time>
      </trkpt>
      <trkpt lat="38.532627" lon="-2.972871">
        <ele>992.500119</ele>
        <time>2020-08-08T08:49:13.678Z</time>
      </trkpt>
      <trkpt lat="38.532727" lon="-2.972834">
        <ele>992.305679</ele>
        <time>2020-08-08T08:49:16.722Z</time>
      </trkpt>
      <trkpt lat="38.532831" lon="-2.972808">
        <ele>992.107755</ele>
        <time>2020-08-08T08:49:19.817Z</time>
      </trkpt>
      <trkpt lat="38.532942" lon="-2.972791">
        <ele>991.898953</ele>
        <time>2020-08-08T08:49:22.820Z</time>
      </trkpt>
      <trkpt lat="38.533056" lon="-2.972777">
        <ele>991.685050</ele>
        <time>2020-08-08T08:49:25.819Z</time>
      </trkpt>
      <trkpt lat="38.533172" lon="-2.972773">
        <ele>991.468313</ele>
        <time>2020-08-08T08:49:28.823Z</time>
      </trkpt>
      <trkpt lat="38.533295" lon="-2.972767">
        <ele>991.238414</ele>
        <time>2020-08-08T08:49:31.821Z</time>
      </trkpt>
      <trkpt lat="38.533385" lon="-2.972756">
        <ele>991.069550</ele>
        <time>2020-08-08T08:49:33.815Z</time>
      </trkpt>
      <trkpt lat="38.533476" lon="-2.972738">
        <ele>990.897563</ele>
        <time>2020-08-08T08:49:35.798Z</time>
      </trkpt>
      <trkpt lat="38.533619" lon="-2.972720">
        <ele>990.629185</ele>
        <time>2020-08-08T08:49:38.810Z</time>
      </trkpt>
      <trkpt lat="38.533740" lon="-2.972704">
        <ele>990.401982</ele>
        <time>2020-08-08T08:49:41.810Z</time>
      </trkpt>
      <trkpt lat="38.533869" lon="-2.972694">
        <ele>990.160601</ele>
        <time>2020-08-08T08:49:44.804Z</time>
      </trkpt>
      <trkpt lat="38.533985" lon="-2.972677">
        <ele>989.942524</ele>
        <time>2020-08-08T08:49:46.814Z</time>
      </trkpt>
      <trkpt lat="38.534087" lon="-2.972666">
        <ele>989.751337</ele>
        <time>2020-08-08T08:49:48.811Z</time>
      </trkpt>
      <trkpt lat="38.534216" lon="-2.972642">
        <ele>989.507861</ele>
        <time>2020-08-08T08:49:51.798Z</time>
      </trkpt>
      <trkpt lat="38.534313" lon="-2.972632">
        <ele>989.504014</ele>
        <time>2020-08-08T08:49:53.801Z</time>
      </trkpt>
      <trkpt lat="38.534411" lon="-2.972614">
        <ele>989.712191</ele>
        <time>2020-08-08T08:49:55.812Z</time>
      </trkpt>
      <trkpt lat="38.534526" lon="-2.972585">
        <ele>989.958657</ele>
        <time>2020-08-08T08:49:57.809Z</time>
      </trkpt>
      <trkpt lat="38.534628" lon="-2.972555">
        <ele>990.178731</ele>
        <time>2020-08-08T08:49:59.808Z</time>
      </trkpt>
      <trkpt lat="38.534752" lon="-2.972506">
        <ele>990.451634</ele>
        <time>2020-08-08T08:50:01.813Z</time>
      </trkpt>
      <trkpt lat="38.534868" lon="-2.972495">
        <ele>990.696213</ele>
        <time>2020-08-08T08:50:03.810Z</time>
      </trkpt>
      <trkpt lat="38.534992" lon="-2.972474">
        <ele>990.959221</ele>
        <time>2020-08-08T08:50:05.802Z</time>
      </trkpt>
      <trkpt lat="38.535110" lon="-2.972476">
        <ele>991.207357</ele>
        <time>2020-08-08T08:50:07.803Z</time>
      </trkpt>
      <trkpt lat="38.535232" lon="-2.972482">
        <ele>991.464072</ele>
        <time>2020-08-08T08:50:09.812Z</time>
      </trkpt>
      <trkpt lat="38.535338" lon="-2.972489">
        <ele>991.687252</ele>
        <time>2020-08-08T08:50:11.804Z</time>
      </trkpt>
      <trkpt lat="38.535460" lon="-2.972561">
        <ele>991.969792</ele>
        <time>2020-08-08T08:50:14.835Z</time>
      </trkpt>
      <trkpt lat="38.535540" lon="-2.972639">
        <ele>992.181344</ele>
        <time>2020-08-08T08:50:16.814Z</time>
      </trkpt>
      <trkpt lat="38.535609" lon="-2.972715">
        <ele>992.372850</ele>
        <time>2020-08-08T08:50:18.816Z</time>
      </trkpt>
      <trkpt lat="38.535700" lon="-2.972821">
        <ele>992.631708</ele>
        <time>2020-08-08T08:50:21.796Z</time>
      </trkpt>
      <trkpt lat="38.535782" lon="-2.972881">
        <ele>992.830370</ele>
        <time>2020-08-08T08:50:24.808Z</time>
      </trkpt>
      <trkpt lat="38.535873" lon="-2.972972">
        <ele>993.073297</ele>
        <time>2020-08-08T08:50:28.815Z</time>
      </trkpt>
      <trkpt lat="38.535940" lon="-2.973071">
        <ele>992.957640</ele>
        <time>2020-08-08T08:50:32.819Z</time>
      </trkpt>
      <trkpt lat="38.536018" lon="-2.973166">
        <ele>992.410246</ele>
        <time>2020-08-08T08:50:36.796Z</time>
      </trkpt>
      <trkpt lat="38.536088" lon="-2.973259">
        <ele>991.897282</ele>
        <time>2020-08-08T08:50:40.829Z</time>
      </trkpt>
      <trkpt lat="38.536165" lon="-2.973349">
        <ele>991.367163</ele>
        <time>2020-08-08T08:50:44.817Z</time>
      </trkpt>
      <trkpt lat="38.536252" lon="-2.973439">
        <ele>990.798510</ele>
        <time>2020-08-08T08:50:48.800Z</time>
      </trkpt>
      <trkpt lat="38.536335" lon="-2.973528">
        <ele>990.248071</ele>
        <time>2020-08-08T08:50:52.817Z</time>
      </trkpt>
      <trkpt lat="38.536414" lon="-2.973633">
        <ele>989.669033</ele>
        <time>2020-08-08T08:50:56.803Z</time>
      </trkpt>
      <trkpt lat="38.536500" lon="-2.973738">
        <ele>989.064794</ele>
        <time>2020-08-08T08:51:00.794Z</time>
      </trkpt>
      <trkpt lat="38.536587" lon="-2.973843">
        <ele>988.456871</ele>
        <time>2020-08-08T08:51:04.801Z</time>
      </trkpt>
      <trkpt lat="38.536665" lon="-2.973914">
        <ele>987.970349</ele>
        <time>2020-08-08T08:51:07.808Z</time>
      </trkpt>
      <trkpt lat="38.536752" lon="-2.973964">
        <ele>987.485680</ele>
        <time>2020-08-08T08:51:10.800Z</time>
      </trkpt>
      <trkpt lat="38.536840" lon="-2.973990">
        <ele>987.026757</ele>
        <time>2020-08-08T08:51:13.811Z</time>
      </trkpt>
      <trkpt lat="38.536958" lon="-2.974006">
        <ele>986.423825</ele>
        <time>2020-08-08T08:51:17.814Z</time>
      </trkpt>
      <trkpt lat="38.537056" lon="-2.974033">
        <ele>985.914446</ele>
        <time>2020-08-08T08:51:20.814Z</time>
      </trkpt>
      <trkpt lat="38.537170" lon="-2.974073">
        <ele>985.313780</ele>
        <time>2020-08-08T08:51:23.793Z</time>
      </trkpt>
      <trkpt lat="38.537289" lon="-2.974124">
        <ele>984.676059</ele>
        <time>2020-08-08T08:51:26.809Z</time>
      </trkpt>
      <trkpt lat="38.537403" lon="-2.974199">
        <ele>984.100444</ele>
        <time>2020-08-08T08:51:29.790Z</time>
      </trkpt>
      <trkpt lat="38.537481" lon="-2.974261">
        <ele>984.895811</ele>
        <time>2020-08-08T08:51:31.803Z</time>
      </trkpt>
      <trkpt lat="38.537586" lon="-2.974358">
        <ele>986.017625</ele>
        <time>2020-08-08T08:51:34.796Z</time>
      </trkpt>
      <trkpt lat="38.537695" lon="-2.974447">
        <ele>987.137617</ele>
        <time>2020-08-08T08:51:37.802Z</time>
      </trkpt>
      <trkpt lat="38.537799" lon="-2.974537">
        <ele>988.225151</ele>
        <time>2020-08-08T08:51:40.798Z</time>
      </trkpt>
      <trkpt lat="38.537894" lon="-2.974628">
        <ele>989.253124</ele>
        <time>2020-08-08T08:51:43.809Z</time>
      </trkpt>
      <trkpt lat="38.537977" lon="-2.974726">
        <ele>990.231514</ele>
        <time>2020-08-08T08:51:46.813Z</time>
      </trkpt>
      <trkpt lat="38.538060" lon="-2.974818">
        <ele>991.182799</ele>
        <time>2020-08-08T08:51:49.789Z</time>
      </trkpt>
      <trkpt lat="38.538144" lon="-2.974909">
        <ele>992.136250</ele>
        <time>2020-08-08T08:51:52.809Z</time>
      </trkpt>
      <trkpt lat="38.538237" lon="-2.974990">
        <ele>993.110731</ele>
        <time>2020-08-08T08:51:55.814Z</time>
      </trkpt>
      <trkpt lat="38.538328" lon="-2.975072">
        <ele>994.074833</ele>
        <time>2020-08-08T08:51:58.808Z</time>
      </trkpt>
      <trkpt lat="38.538422" lon="-2.975155">
        <ele>995.064117</ele>
        <time>2020-08-08T08:52:01.818Z</time>
      </trkpt>
      <trkpt lat="38.538508" lon="-2.975244">
        <ele>996.022264</ele>
        <time>2020-08-08T08:52:04.798Z</time>
      </trkpt>
      <trkpt lat="38.538606" lon="-2.975358">
        <ele>997.169637</ele>
        <time>2020-08-08T08:52:07.817Z</time>
      </trkpt>
      <trkpt lat="38.538666" lon="-2.975445">
        <ele>997.955278</ele>
        <time>2020-08-08T08:52:09.800Z</time>
      </trkpt>
      <trkpt lat="38.538737" lon="-2.975587">
        <ele>999.096834</ele>
        <time>2020-08-08T08:52:12.807Z</time>
      </trkpt>
      <trkpt lat="38.538791" lon="-2.975692">
        <ele>999.597676</ele>
        <time>2020-08-08T08:52:14.799Z</time>
      </trkpt>
      <trkpt lat="38.538852" lon="-2.975802">
        <ele>999.510125</ele>
        <time>2020-08-08T08:52:16.829Z</time>
      </trkpt>
      <trkpt lat="38.538904" lon="-2.975930">
        <ele>999.416474</ele>
        <time>2020-08-08T08:52:18.813Z</time>
      </trkpt>
      <trkpt lat="38.538951" lon="-2.976084">
        <ele>999.309140</ele>
        <time>2020-08-08T08:52:20.805Z</time>
      </trkpt>
      <trkpt lat="38.539011" lon="-2.976240">
        <ele>999.196267</ele>
        <time>2020-08-08T08:52:22.806Z</time>
      </trkpt>
      <trkpt lat="38.539076" lon="-2.976416">
        <ele>999.069893</ele>
        <time>2020-08-08T08:52:24.797Z</time>
      </trkpt>
      <trkpt lat="38.539149" lon="-2.976616">
        <ele>998.926591</ele>
        <time>2020-08-08T08:52:26.799Z</time>
      </trkpt>
      <trkpt lat="38.539221" lon="-2.976827">
        <ele>998.777120</ele>
        <time>2020-08-08T08:52:28.804Z</time>
      </trkpt>
      <trkpt lat="38.539257" lon="-2.976939">
        <ele>998.698499</ele>
        <time>2020-08-08T08:52:29.810Z</time>
      </trkpt>
      <trkpt lat="38.539293" lon="-2.977049">
        <ele>998.621077</ele>
        <time>2020-08-08T08:52:30.822Z</time>
      </trkpt>
      <trkpt lat="38.539334" lon="-2.977172">
        <ele>998.534264</ele>
        <time>2020-08-08T08:52:31.795Z</time>
      </trkpt>
      <trkpt lat="38.539358" lon="-2.977292">
        <ele>998.453842</ele>
        <time>2020-08-08T08:52:32.803Z</time>
      </trkpt>
      <trkpt lat="38.539394" lon="-2.977414">
        <ele>998.369179</ele>
        <time>2020-08-08T08:52:33.799Z</time>
      </trkpt>
      <trkpt lat="38.539411" lon="-2.977543">
        <ele>998.284240</ele>
        <time>2020-08-08T08:52:34.798Z</time>
      </trkpt>
      <trkpt lat="38.539438" lon="-2.977665">
        <ele>998.201917</ele>
        <time>2020-08-08T08:52:35.792Z</time>
      </trkpt>
      <trkpt lat="38.539467" lon="-2.977797">
        <ele>998.467876</ele>
        <time>2020-08-08T08:52:36.802Z</time>
      </trkpt>
      <trkpt lat="38.539498" lon="-2.977927">
        <ele>999.780354</ele>
        <time>2020-08-08T08:52:37.799Z</time>
      </trkpt>
      <trkpt lat="38.539522" lon="-2.978058">
        <ele>1001.079681</ele>
        <time>2020-08-08T08:52:38.794Z</time>
      </trkpt>
      <trkpt lat="38.539557" lon="-2.978194">
        <ele>1002.462317</ele>
        <time>2020-08-08T08:52:39.801Z</time>
      </trkpt>
      <trkpt lat="38.539581" lon="-2.978329">
        <ele>1003.799283</ele>
        <time>2020-08-08T08:52:40.806Z</time>
      </trkpt>
      <trkpt lat="38.539616" lon="-2.978466">
        <ele>1005.191095</ele>
        <time>2020-08-08T08:52:41.812Z</time>
      </trkpt>
      <trkpt lat="38.539657" lon="-2.978600">
        <ele>1006.580638</ele>
        <time>2020-08-08T08:52:42.796Z</time>
      </trkpt>
      <trkpt lat="38.539688" lon="-2.978740">
        <ele>1007.985769</ele>
        <time>2020-08-08T08:52:43.790Z</time>
      </trkpt>
      <trkpt lat="38.539734" lon="-2.978869">
        <ele>1009.354892</ele>
        <time>2020-08-08T08:52:44.803Z</time>
      </trkpt>
      <trkpt lat="38.539771" lon="-2.979009">
        <ele>1010.781982</ele>
        <time>2020-08-08T08:52:45.797Z</time>
      </trkpt>
      <trkpt lat="38.539820" lon="-2.979151">
        <ele>1012.280812</ele>
        <time>2020-08-08T08:52:46.796Z</time>
      </trkpt>
      <trkpt lat="38.539854" lon="-2.979287">
        <ele>1013.659635</ele>
        <time>2020-08-08T08:52:47.793Z</time>
      </trkpt>
      <trkpt lat="38.539909" lon="-2.979416">
        <ele>1015.078456</ele>
        <time>2020-08-08T08:52:48.798Z</time>
      </trkpt>
      <trkpt lat="38.539969" lon="-2.979542">
        <ele>1016.503012</ele>
        <time>2020-08-08T08:52:49.816Z</time>
      </trkpt>
      <trkpt lat="38.540027" lon="-2.979676">
        <ele>1017.981985</ele>
        <time>2020-08-08T08:52:50.801Z</time>
      </trkpt>
      <trkpt lat="38.540085" lon="-2.979813">
        <ele>1019.486372</ele>
        <time>2020-08-08T08:52:51.794Z</time>
      </trkpt>
      <trkpt lat="38.540136" lon="-2.979957">
        <ele>1019.791927</ele>
        <time>2020-08-08T08:52:52.789Z</time>
      </trkpt>
      <trkpt lat="38.540188" lon="-2.980103">
        <ele>1018.520938</ele>
        <time>2020-08-08T08:52:53.793Z</time>
      </trkpt>
      <trkpt lat="38.540236" lon="-2.980248">
        <ele>1017.273499</ele>
        <time>2020-08-08T08:52:54.807Z</time>
      </trkpt>
      <trkpt lat="38.540276" lon="-2.980398">
        <ele>1016.017928</ele>
        <time>2020-08-08T08:52:55.817Z</time>
      </trkpt>
      <trkpt lat="38.540323" lon="-2.980540">
        <ele>1014.796326</ele>
        <time>2020-08-08T08:52:56.797Z</time>
      </trkpt>
      <trkpt lat="38.540348" lon="-2.980701">
        <ele>1013.495882</ele>
        <time>2020-08-08T08:52:57.800Z</time>
      </trkpt>
      <trkpt lat="38.540370" lon="-2.980851">
        <ele>1012.286769</ele>
        <time>2020-08-08T08:52:58.798Z</time>
      </trkpt>
      <trkpt lat="38.540390" lon="-2.981009">
        <ele>1011.018700</ele>
        <time>2020-08-08T08:52:59.812Z</time>
      </trkpt>
      <trkpt lat="38.540395" lon="-2.981174">
        <ele>1009.710479</ele>
        <time>2020-08-08T08:53:00.806Z</time>
      </trkpt>
      <trkpt lat="38.540412" lon="-2.981334">
        <ele>1008.431210</ele>
        <time>2020-08-08T08:53:01.795Z</time>
      </trkpt>
      <trkpt lat="38.540432" lon="-2.981491">
        <ele>1007.170963</ele>
        <time>2020-08-08T08:53:02.789Z</time>
      </trkpt>
      <trkpt lat="38.540446" lon="-2.981645">
        <ele>1005.942660</ele>
        <time>2020-08-08T08:53:03.808Z</time>
      </trkpt>
      <trkpt lat="38.540459" lon="-2.981790">
        <ele>1004.786351</ele>
        <time>2020-08-08T08:53:04.798Z</time>
      </trkpt>
      <trkpt lat="38.540493" lon="-2.981911">
        <ele>1003.767726</ele>
        <time>2020-08-08T08:53:05.794Z</time>
      </trkpt>
      <trkpt lat="38.540510" lon="-2.982038">
        <ele>1002.746920</ele>
        <time>2020-08-08T08:53:06.799Z</time>
      </trkpt>
      <trkpt lat="38.540526" lon="-2.982157">
        <ele>1002.141178</ele>
        <time>2020-08-08T08:53:07.796Z</time>
      </trkpt>
      <trkpt lat="38.540532" lon="-2.982282">
        <ele>1002.193662</ele>
        <time>2020-08-08T08:53:08.793Z</time>
      </trkpt>
      <trkpt lat="38.540554" lon="-2.982400">
        <ele>1002.244499</ele>
        <time>2020-08-08T08:53:09.798Z</time>
      </trkpt>
      <trkpt lat="38.540654" lon="-2.982578">
        <ele>1002.336343</ele>
        <time>2020-08-08T08:53:11.791Z</time>
      </trkpt>
      <trkpt lat="38.540798" lon="-2.982584">
        <ele>1002.413538</ele>
        <time>2020-08-08T08:53:13.789Z</time>
      </trkpt>
      <trkpt lat="38.540936" lon="-2.982477">
        <ele>1002.500012</ele>
        <time>2020-08-08T08:53:15.811Z</time>
      </trkpt>
      <trkpt lat="38.541060" lon="-2.982390">
        <ele>1002.575797</ele>
        <time>2020-08-08T08:53:17.807Z</time>
      </trkpt>
      <trkpt lat="38.541202" lon="-2.982297">
        <ele>1002.661282</ele>
        <time>2020-08-08T08:53:19.796Z</time>
      </trkpt>
      <trkpt lat="38.541335" lon="-2.982221">
        <ele>1002.739336</ele>
        <time>2020-08-08T08:53:21.800Z</time>
      </trkpt>
      <trkpt lat="38.541491" lon="-2.982140">
        <ele>1002.829550</ele>
        <time>2020-08-08T08:53:23.802Z</time>
      </trkpt>
      <trkpt lat="38.541646" lon="-2.982097">
        <ele>1002.914530</ele>
        <time>2020-08-08T08:53:25.787Z</time>
      </trkpt>
      <trkpt lat="38.541823" lon="-2.982048">
        <ele>1003.011563</ele>
        <time>2020-08-08T08:53:27.792Z</time>
      </trkpt>
      <trkpt lat="38.541919" lon="-2.982023">
        <ele>1003.064056</ele>
        <time>2020-08-08T08:53:28.807Z</time>
      </trkpt>
      <trkpt lat="38.542105" lon="-2.981962">
        <ele>1005.448866</ele>
        <time>2020-08-08T08:53:30.815Z</time>
      </trkpt>
      <trkpt lat="38.542201" lon="-2.981950">
        <ele>1006.980481</ele>
        <time>2020-08-08T08:53:31.808Z</time>
      </trkpt>
      <trkpt lat="38.542299" lon="-2.981952">
        <ele>1008.536784</ele>
        <time>2020-08-08T08:53:32.805Z</time>
      </trkpt>
      <trkpt lat="38.542399" lon="-2.981966">
        <ele>1010.134137</ele>
        <time>2020-08-08T08:53:33.797Z</time>
      </trkpt>
      <trkpt lat="38.542507" lon="-2.981995">
        <ele>1011.886441</ele>
        <time>2020-08-08T08:53:34.813Z</time>
      </trkpt>
      <trkpt lat="38.542612" lon="-2.982012">
        <ele>1013.567011</ele>
        <time>2020-08-08T08:53:35.796Z</time>
      </trkpt>
      <trkpt lat="38.542709" lon="-2.982060">
        <ele>1015.218576</ele>
        <time>2020-08-08T08:53:36.804Z</time>
      </trkpt>
      <trkpt lat="38.542809" lon="-2.982088">
        <ele>1016.844069</ele>
        <time>2020-08-08T08:53:37.792Z</time>
      </trkpt>
      <trkpt lat="38.542916" lon="-2.982110">
        <ele>1018.564911</ele>
        <time>2020-08-08T08:53:38.788Z</time>
      </trkpt>
      <trkpt lat="38.543015" lon="-2.982143">
        <ele>1020.189441</ele>
        <time>2020-08-08T08:53:39.788Z</time>
      </trkpt>
      <trkpt lat="38.543106" lon="-2.982175">
        <ele>1021.688051</ele>
        <time>2020-08-08T08:53:40.807Z</time>
      </trkpt>
      <trkpt lat="38.543200" lon="-2.982208">
        <ele>1023.235886</ele>
        <time>2020-08-08T08:53:41.803Z</time>
      </trkpt>
      <trkpt lat="38.543289" lon="-2.982246">
        <ele>1024.725801</ele>
        <time>2020-08-08T08:53:42.807Z</time>
      </trkpt>
      <trkpt lat="38.543345" lon="-2.982341">
        <ele>1026.203190</ele>
        <time>2020-08-08T08:53:43.793Z</time>
      </trkpt>
      <trkpt lat="38.543470" lon="-2.982478">
        <ele>1028.817464</ele>
        <time>2020-08-08T08:53:45.801Z</time>
      </trkpt>
      <trkpt lat="38.543541" lon="-2.982556">
        <ele>1030.303858</ele>
        <time>2020-08-08T08:53:46.807Z</time>
      </trkpt>
      <trkpt lat="38.543650" lon="-2.982589">
        <ele>1030.909343</ele>
        <time>2020-08-08T08:53:47.821Z</time>
      </trkpt>
      <trkpt lat="38.543793" lon="-2.982734">
        <ele>1025.996502</ele>
        <time>2020-08-08T08:53:49.806Z</time>
      </trkpt>
      <trkpt lat="38.543867" lon="-2.982814">
        <ele>1023.387955</ele>
        <time>2020-08-08T08:53:50.800Z</time>
      </trkpt>
      <trkpt lat="38.544019" lon="-2.982963">
        <ele>1018.232284</ele>
        <time>2020-08-08T08:53:52.802Z</time>
      </trkpt>
      <trkpt lat="38.544090" lon="-2.983047">
        <ele>1015.628426</ele>
        <time>2020-08-08T08:53:53.823Z</time>
      </trkpt>
      <trkpt lat="38.544170" lon="-2.983130">
        <ele>1012.855207</ele>
        <time>2020-08-08T08:53:54.813Z</time>
      </trkpt>
      <trkpt lat="38.544257" lon="-2.983210">
        <ele>1009.970589</ele>
        <time>2020-08-08T08:53:55.791Z</time>
      </trkpt>
      <trkpt lat="38.544339" lon="-2.983291">
        <ele>1007.181304</ele>
        <time>2020-08-08T08:53:56.812Z</time>
      </trkpt>
      <trkpt lat="38.544432" lon="-2.983367">
        <ele>1004.210283</ele>
        <time>2020-08-08T08:53:57.819Z</time>
      </trkpt>
      <trkpt lat="38.544507" lon="-2.983450">
        <ele>1001.540233</ele>
        <time>2020-08-08T08:53:58.802Z</time>
      </trkpt>
      <trkpt lat="38.544585" lon="-2.983542">
        <ele>998.683690</ele>
        <time>2020-08-08T08:53:59.800Z</time>
      </trkpt>
      <trkpt lat="38.544656" lon="-2.983627">
        <ele>996.065497</ele>
        <time>2020-08-08T08:54:00.807Z</time>
      </trkpt>
      <trkpt lat="38.544725" lon="-2.983739">
        <ele>993.063897</ele>
        <time>2020-08-08T08:54:01.791Z</time>
      </trkpt>
      <trkpt lat="38.544790" lon="-2.983853">
        <ele>990.093786</ele>
        <time>2020-08-08T08:54:02.823Z</time>
      </trkpt>
      <trkpt lat="38.544820" lon="-2.983968">
        <ele>987.541562</ele>
        <time>2020-08-08T08:54:03.823Z</time>
      </trkpt>
      <trkpt lat="38.544875" lon="-2.984090">
        <ele>984.576958</ele>
        <time>2020-08-08T08:54:04.807Z</time>
      </trkpt>
      <trkpt lat="38.544928" lon="-2.984213">
        <ele>982.077697</ele>
        <time>2020-08-08T08:54:05.809Z</time>
      </trkpt>
      <trkpt lat="38.544951" lon="-2.984348">
        <ele>979.994451</ele>
        <time>2020-08-08T08:54:06.808Z</time>
      </trkpt>
      <trkpt lat="38.544983" lon="-2.984478">
        <ele>977.939543</ele>
        <time>2020-08-08T08:54:07.799Z</time>
      </trkpt>
      <trkpt lat="38.545000" lon="-2.984619">
        <ele>975.788453</ele>
        <time>2020-08-08T08:54:08.821Z</time>
      </trkpt>
      <trkpt lat="38.545014" lon="-2.984754">
        <ele>973.735127</ele>
        <time>2020-08-08T08:54:09.796Z</time>
      </trkpt>
      <trkpt lat="38.545036" lon="-2.984896">
        <ele>971.552470</ele>
        <time>2020-08-08T08:54:10.796Z</time>
      </trkpt>
      <trkpt lat="38.545042" lon="-2.985038">
        <ele>969.408293</ele>
        <time>2020-08-08T08:54:11.800Z</time>
      </trkpt>
      <trkpt lat="38.545051" lon="-2.985177">
        <ele>967.305303</ele>
        <time>2020-08-08T08:54:12.814Z</time>
      </trkpt>
      <trkpt lat="38.545063" lon="-2.985305">
        <ele>965.361523</ele>
        <time>2020-08-08T08:54:13.800Z</time>
      </trkpt>
      <trkpt lat="38.545071" lon="-2.985443">
        <ele>963.275073</ele>
        <time>2020-08-08T08:54:14.811Z</time>
      </trkpt>
      <trkpt lat="38.545081" lon="-2.985578">
        <ele>961.230456</ele>
        <time>2020-08-08T08:54:15.793Z</time>
      </trkpt>
      <trkpt lat="38.545089" lon="-2.985715">
        <ele>959.159043</ele>
        <time>2020-08-08T08:54:16.816Z</time>
      </trkpt>
      <trkpt lat="38.545100" lon="-2.985847">
        <ele>957.157503</ele>
        <time>2020-08-08T08:54:17.808Z</time>
      </trkpt>
      <trkpt lat="38.545105" lon="-2.985984">
        <ele>955.089592</ele>
        <time>2020-08-08T08:54:18.821Z</time>
      </trkpt>
      <trkpt lat="38.545111" lon="-2.986115">
        <ele>953.111012</ele>
        <time>2020-08-08T08:54:19.794Z</time>
      </trkpt>
      <trkpt lat="38.545112" lon="-2.986249">
        <ele>951.090491</ele>
        <time>2020-08-08T08:54:20.794Z</time>
      </trkpt>
      <trkpt lat="38.545111" lon="-2.986381">
        <ele>949.100123</ele>
        <time>2020-08-08T08:54:21.819Z</time>
      </trkpt>
      <trkpt lat="38.545110" lon="-2.986509">
        <ele>948.259069</ele>
        <time>2020-08-08T08:54:22.797Z</time>
      </trkpt>
      <trkpt lat="38.545098" lon="-2.986640">
        <ele>947.831976</ele>
        <time>2020-08-08T08:54:23.811Z</time>
      </trkpt>
      <trkpt lat="38.545090" lon="-2.986773">
        <ele>947.400034</ele>
        <time>2020-08-08T08:54:24.803Z</time>
      </trkpt>
      <trkpt lat="38.545079" lon="-2.986906">
        <ele>946.966963</ele>
        <time>2020-08-08T08:54:25.788Z</time>
      </trkpt>
      <trkpt lat="38.545067" lon="-2.987038">
        <ele>946.536654</ele>
        <time>2020-08-08T08:54:26.798Z</time>
      </trkpt>
      <trkpt lat="38.545053" lon="-2.987172">
        <ele>946.098892</ele>
        <time>2020-08-08T08:54:27.814Z</time>
      </trkpt>
      <trkpt lat="38.545040" lon="-2.987309">
        <ele>945.652016</ele>
        <time>2020-08-08T08:54:28.809Z</time>
      </trkpt>
      <trkpt lat="38.545025" lon="-2.987443">
        <ele>945.213687</ele>
        <time>2020-08-08T08:54:29.798Z</time>
      </trkpt>
      <trkpt lat="38.545010" lon="-2.987576">
        <ele>944.778562</ele>
        <time>2020-08-08T08:54:30.806Z</time>
      </trkpt>
      <trkpt lat="38.544999" lon="-2.987708">
        <ele>944.348711</ele>
        <time>2020-08-08T08:54:31.807Z</time>
      </trkpt>
      <trkpt lat="38.544984" lon="-2.987844">
        <ele>943.903969</ele>
        <time>2020-08-08T08:54:32.810Z</time>
      </trkpt>
      <trkpt lat="38.544971" lon="-2.987981">
        <ele>943.457093</ele>
        <time>2020-08-08T08:54:33.800Z</time>
      </trkpt>
      <trkpt lat="38.544959" lon="-2.988114">
        <ele>943.023566</ele>
        <time>2020-08-08T08:54:34.804Z</time>
      </trkpt>
      <trkpt lat="38.544957" lon="-2.988248">
        <ele>942.589579</ele>
        <time>2020-08-08T08:54:35.801Z</time>
      </trkpt>
      <trkpt lat="38.544973" lon="-2.988376">
        <ele>942.169839</ele>
        <time>2020-08-08T08:54:36.809Z</time>
      </trkpt>
      <trkpt lat="38.544990" lon="-2.988517">
        <ele>941.707870</ele>
        <time>2020-08-08T08:54:37.793Z</time>
      </trkpt>
      <trkpt lat="38.545030" lon="-2.988650">
        <ele>941.246457</ele>
        <time>2020-08-08T08:54:38.791Z</time>
      </trkpt>
      <trkpt lat="38.545078" lon="-2.988769">
        <ele>940.939699</ele>
        <time>2020-08-08T08:54:39.817Z</time>
      </trkpt>
      <trkpt lat="38.545122" lon="-2.988895">
        <ele>940.683464</ele>
        <time>2020-08-08T08:54:40.789Z</time>
      </trkpt>
      <trkpt lat="38.545168" lon="-2.989020">
        <ele>940.426939</ele>
        <time>2020-08-08T08:54:41.817Z</time>
      </trkpt>
      <trkpt lat="38.545219" lon="-2.989147">
        <ele>940.161841</ele>
        <time>2020-08-08T08:54:42.810Z</time>
      </trkpt>
      <trkpt lat="38.545268" lon="-2.989276">
        <ele>939.895542</ele>
        <time>2020-08-08T08:54:43.803Z</time>
      </trkpt>
      <trkpt lat="38.545315" lon="-2.989410">
        <ele>939.622838</ele>
        <time>2020-08-08T08:54:44.800Z</time>
      </trkpt>
      <trkpt lat="38.545352" lon="-2.989543">
        <ele>939.360710</ele>
        <time>2020-08-08T08:54:45.814Z</time>
      </trkpt>
      <trkpt lat="38.545381" lon="-2.989684">
        <ele>939.089983</ele>
        <time>2020-08-08T08:54:46.805Z</time>
      </trkpt>
      <trkpt lat="38.545409" lon="-2.989840">
        <ele>938.792774</ele>
        <time>2020-08-08T08:54:47.809Z</time>
      </trkpt>
      <trkpt lat="38.545442" lon="-2.989980">
        <ele>938.521255</ele>
        <time>2020-08-08T08:54:48.803Z</time>
      </trkpt>
      <trkpt lat="38.545480" lon="-2.990118">
        <ele>938.249583</ele>
        <time>2020-08-08T08:54:49.816Z</time>
      </trkpt>
      <trkpt lat="38.545506" lon="-2.990260">
        <ele>937.978772</ele>
        <time>2020-08-08T08:54:50.819Z</time>
      </trkpt>
      <trkpt lat="38.545528" lon="-2.990404">
        <ele>937.706322</ele>
        <time>2020-08-08T08:54:51.796Z</time>
      </trkpt>
      <trkpt lat="38.545539" lon="-2.990549">
        <ele>937.435806</ele>
        <time>2020-08-08T08:54:52.802Z</time>
      </trkpt>
      <trkpt lat="38.545536" lon="-2.990693">
        <ele>937.168316</ele>
        <time>2020-08-08T08:54:53.804Z</time>
      </trkpt>
      <trkpt lat="38.545530" lon="-2.990841">
        <ele>936.893123</ele>
        <time>2020-08-08T08:54:54.805Z</time>
      </trkpt>
      <trkpt lat="38.545525" lon="-2.990981">
        <ele>936.384589</ele>
        <time>2020-08-08T08:54:55.811Z</time>
      </trkpt>
      <trkpt lat="38.545516" lon="-2.991131">
        <ele>935.770005</ele>
        <time>2020-08-08T08:54:56.804Z</time>
      </trkpt>
      <trkpt lat="38.545511" lon="-2.991280">
        <ele>935.160746</ele>
        <time>2020-08-08T08:54:57.791Z</time>
      </trkpt>
      <trkpt lat="38.545513" lon="-2.991423">
        <ele>934.576465</ele>
        <time>2020-08-08T08:54:58.800Z</time>
      </trkpt>
      <trkpt lat="38.545521" lon="-2.991545">
        <ele>934.076318</ele>
        <time>2020-08-08T08:54:59.804Z</time>
      </trkpt>
      <trkpt lat="38.545572" lon="-2.991790">
        <ele>933.040594</ele>
        <time>2020-08-08T08:55:01.801Z</time>
      </trkpt>
      <trkpt lat="38.545611" lon="-2.991907">
        <ele>932.521023</ele>
        <time>2020-08-08T08:55:02.802Z</time>
      </trkpt>
      <trkpt lat="38.545654" lon="-2.992024">
        <ele>931.992911</ele>
        <time>2020-08-08T08:55:03.794Z</time>
      </trkpt>
      <trkpt lat="38.545688" lon="-2.992151">
        <ele>931.444534</ele>
        <time>2020-08-08T08:55:04.801Z</time>
      </trkpt>
      <trkpt lat="38.545729" lon="-2.992276">
        <ele>930.890794</ele>
        <time>2020-08-08T08:55:05.810Z</time>
      </trkpt>
      <trkpt lat="38.545756" lon="-2.992399">
        <ele>930.368897</ele>
        <time>2020-08-08T08:55:06.798Z</time>
      </trkpt>
      <trkpt lat="38.545790" lon="-2.992522">
        <ele>929.835955</ele>
        <time>2020-08-08T08:55:07.794Z</time>
      </trkpt>
      <trkpt lat="38.545809" lon="-2.992649">
        <ele>929.307727</ele>
        <time>2020-08-08T08:55:08.808Z</time>
      </trkpt>
      <trkpt lat="38.545823" lon="-2.992784">
        <ele>928.751396</ele>
        <time>2020-08-08T08:55:09.804Z</time>
      </trkpt>
      <trkpt lat="38.545846" lon="-2.992905">
        <ele>928.242696</ele>
        <time>2020-08-08T08:55:10.812Z</time>
      </trkpt>
      <trkpt lat="38.545866" lon="-2.993022">
        <ele>927.753444</ele>
        <time>2020-08-08T08:55:11.793Z</time>
      </trkpt>
      <trkpt lat="38.545890" lon="-2.993135">
        <ele>927.069355</ele>
        <time>2020-08-08T08:55:12.835Z</time>
      </trkpt>
      <trkpt lat="38.545927" lon="-2.993330">
        <ele>925.256461</ele>
        <time>2020-08-08T08:55:14.818Z</time>
      </trkpt>
      <trkpt lat="38.545956" lon="-2.993531">
        <ele>923.409824</ele>
        <time>2020-08-08T08:55:16.824Z</time>
      </trkpt>
      <trkpt lat="38.546016" lon="-2.993695">
        <ele>921.774018</ele>
        <time>2020-08-08T08:55:18.813Z</time>
      </trkpt>
      <trkpt lat="38.546065" lon="-2.993865">
        <ele>920.137119</ele>
        <time>2020-08-08T08:55:20.791Z</time>
      </trkpt>
      <trkpt lat="38.546092" lon="-2.994033">
        <ele>918.587560</ele>
        <time>2020-08-08T08:55:22.809Z</time>
      </trkpt>
      <trkpt lat="38.546112" lon="-2.994155">
        <ele>917.461363</ele>
        <time>2020-08-08T08:55:24.819Z</time>
      </trkpt>
      <trkpt lat="38.546083" lon="-2.994309">
        <ele>916.030244</ele>
        <time>2020-08-08T08:55:27.799Z</time>
      </trkpt>
      <trkpt lat="38.546041" lon="-2.994417">
        <ele>914.940519</ele>
        <time>2020-08-08T08:55:30.803Z</time>
      </trkpt>
      <trkpt lat="38.546070" lon="-2.994290">
        <ele>913.745196</ele>
        <time>2020-08-08T08:56:18.818Z</time>
      </trkpt>
      <trkpt lat="38.546169" lon="-2.994266">
        <ele>912.581188</ele>
        <time>2020-08-08T08:56:23.795Z</time>
      </trkpt>
      <trkpt lat="38.546293" lon="-2.994398">
        <ele>910.717287</ele>
        <time>2020-08-08T08:58:39.850Z</time>
      </trkpt>
      <trkpt lat="38.546383" lon="-2.994461">
        <ele>909.532009</ele>
        <time>2020-08-08T08:58:56.795Z</time>
      </trkpt>
      <trkpt lat="38.546452" lon="-2.994548">
        <ele>908.412560</ele>
        <time>2020-08-08T08:58:59.796Z</time>
      </trkpt>
      <trkpt lat="38.546530" lon="-2.994667">
        <ele>907.009779</ele>
        <time>2020-08-08T08:59:02.798Z</time>
      </trkpt>
      <trkpt lat="38.546619" lon="-2.994748">
        <ele>906.491263</ele>
        <time>2020-08-08T08:59:04.809Z</time>
      </trkpt>
      <trkpt lat="38.546687" lon="-2.994842">
        <ele>906.269841</ele>
        <time>2020-08-08T08:59:06.798Z</time>
      </trkpt>
      <trkpt lat="38.546774" lon="-2.994951">
        <ele>906.000527</ele>
        <time>2020-08-08T08:59:08.797Z</time>
      </trkpt>
      <trkpt lat="38.546867" lon="-2.995048">
        <ele>905.735164</ele>
        <time>2020-08-08T08:59:10.803Z</time>
      </trkpt>
      <trkpt lat="38.546962" lon="-2.995155">
        <ele>905.455243</ele>
        <time>2020-08-08T08:59:12.798Z</time>
      </trkpt>
      <trkpt lat="38.547076" lon="-2.995270">
        <ele>905.134184</ele>
        <time>2020-08-08T08:59:14.820Z</time>
      </trkpt>
      <trkpt lat="38.547172" lon="-2.995363">
        <ele>904.867882</ele>
        <time>2020-08-08T08:59:16.811Z</time>
      </trkpt>
      <trkpt lat="38.547273" lon="-2.995477">
        <ele>904.570006</ele>
        <time>2020-08-08T08:59:18.795Z</time>
      </trkpt>
      <trkpt lat="38.547367" lon="-2.995587">
        <ele>904.288265</ele>
        <time>2020-08-08T08:59:20.790Z</time>
      </trkpt>
      <trkpt lat="38.547454" lon="-2.995698">
        <ele>904.016520</ele>
        <time>2020-08-08T08:59:22.796Z</time>
      </trkpt>
      <trkpt lat="38.547552" lon="-2.995752">
        <ele>903.780575</ele>
        <time>2020-08-08T08:59:24.818Z</time>
      </trkpt>
      <trkpt lat="38.547635" lon="-2.995842">
        <ele>903.539954</ele>
        <time>2020-08-08T08:59:26.815Z</time>
      </trkpt>
      <trkpt lat="38.547751" lon="-2.995943">
        <ele>903.229656</ele>
        <time>2020-08-08T08:59:29.814Z</time>
      </trkpt>
      <trkpt lat="38.547827" lon="-2.996020">
        <ele>903.015260</ele>
        <time>2020-08-08T08:59:31.827Z</time>
      </trkpt>
      <trkpt lat="38.547915" lon="-2.996148">
        <ele>902.720558</ele>
        <time>2020-08-08T08:59:34.821Z</time>
      </trkpt>
      <trkpt lat="38.547980" lon="-2.996240">
        <ele>902.888179</ele>
        <time>2020-08-08T08:59:36.806Z</time>
      </trkpt>
      <trkpt lat="38.548071" lon="-2.996338">
        <ele>903.170610</ele>
        <time>2020-08-08T08:59:39.797Z</time>
      </trkpt>
      <trkpt lat="38.548151" lon="-2.996443">
        <ele>903.442760</ele>
        <time>2020-08-08T08:59:42.814Z</time>
      </trkpt>
      <trkpt lat="38.548202" lon="-2.996561">
        <ele>903.693060</ele>
        <time>2020-08-08T08:59:45.790Z</time>
      </trkpt>
      <trkpt lat="38.548205" lon="-2.996685">
        <ele>903.923382</ele>
        <time>2020-08-08T08:59:48.793Z</time>
      </trkpt>
      <trkpt lat="38.548200" lon="-2.996820">
        <ele>904.174296</ele>
        <time>2020-08-08T08:59:52.789Z</time>
      </trkpt>
      <trkpt lat="38.548180" lon="-2.996943">
        <ele>904.407535</ele>
        <time>2020-08-08T08:59:56.795Z</time>
      </trkpt>
      <trkpt lat="38.548137" lon="-2.997160">
        <ele>904.823136</ele>
        <time>2020-08-08T09:01:56.806Z</time>
      </trkpt>
      <trkpt lat="38.548118" lon="-2.997277">
        <ele>905.044985</ele>
        <time>2020-08-08T09:01:59.793Z</time>
      </trkpt>
      <trkpt lat="38.548118" lon="-2.997424">
        <ele>905.317898</ele>
        <time>2020-08-08T09:02:03.799Z</time>
      </trkpt>
      <trkpt lat="38.548106" lon="-2.997578">
        <ele>905.605222</ele>
        <time>2020-08-08T09:02:07.820Z</time>
      </trkpt>
      <trkpt lat="38.548097" lon="-2.997724">
        <ele>905.877119</ele>
        <time>2020-08-08T09:02:11.795Z</time>
      </trkpt>
      <trkpt lat="38.548061" lon="-2.997851">
        <ele>906.127910</ele>
        <time>2020-08-08T09:02:15.817Z</time>
      </trkpt>
      <trkpt lat="38.548000" lon="-2.997766">
        <ele>906.342086</ele>
        <time>2020-08-08T09:02:22.817Z</time>
      </trkpt>
      <trkpt lat="38.548068" lon="-2.997646">
        <ele>906.617206</ele>
        <time>2020-08-08T09:02:25.805Z</time>
      </trkpt>
      <trkpt lat="38.548097" lon="-2.997506">
        <ele>906.886085</ele>
        <time>2020-08-08T09:02:28.797Z</time>
      </trkpt>
      <trkpt lat="38.548111" lon="-2.997380">
        <ele>906.909348</ele>
        <time>2020-08-08T09:02:31.822Z</time>
      </trkpt>
      <trkpt lat="38.548122" lon="-2.997255">
        <ele>906.836321</ele>
        <time>2020-08-08T09:02:34.800Z</time>
      </trkpt>
      <trkpt lat="38.548127" lon="-2.997125">
        <ele>906.760757</ele>
        <time>2020-08-08T09:02:37.791Z</time>
      </trkpt>
      <trkpt lat="38.548147" lon="-2.996977">
        <ele>906.673562</ele>
        <time>2020-08-08T09:02:40.796Z</time>
      </trkpt>
      <trkpt lat="38.548161" lon="-2.996822">
        <ele>906.582978</ele>
        <time>2020-08-08T09:02:43.808Z</time>
      </trkpt>
      <trkpt lat="38.548170" lon="-2.996655">
        <ele>906.485795</ele>
        <time>2020-08-08T09:02:46.794Z</time>
      </trkpt>
      <trkpt lat="38.548131" lon="-2.996550">
        <ele>906.418311</ele>
        <time>2020-08-08T09:02:48.803Z</time>
      </trkpt>
      <trkpt lat="38.548093" lon="-2.996437">
        <ele>906.346901</ele>
        <time>2020-08-08T09:02:51.801Z</time>
      </trkpt>
      <trkpt lat="38.548022" lon="-2.996356">
        <ele>906.276267</ele>
        <time>2020-08-08T09:02:54.805Z</time>
      </trkpt>
      <trkpt lat="38.547940" lon="-2.996268">
        <ele>906.196798</ele>
        <time>2020-08-08T09:02:57.802Z</time>
      </trkpt>
      <trkpt lat="38.547862" lon="-2.996191">
        <ele>906.123649</ele>
        <time>2020-08-08T09:03:00.806Z</time>
      </trkpt>
      <trkpt lat="38.547788" lon="-2.996115">
        <ele>906.053191</ele>
        <time>2020-08-08T09:03:03.804Z</time>
      </trkpt>
      <trkpt lat="38.547708" lon="-2.996030">
        <ele>905.975978</ele>
        <time>2020-08-08T09:03:06.797Z</time>
      </trkpt>
      <trkpt lat="38.547634" lon="-2.995937">
        <ele>905.898955</ele>
        <time>2020-08-08T09:03:09.800Z</time>
      </trkpt>
      <trkpt lat="38.547547" lon="-2.995848">
        <ele>905.816247</ele>
        <time>2020-08-08T09:03:13.795Z</time>
      </trkpt>
      <trkpt lat="38.547445" lon="-2.995758">
        <ele>905.724252</ele>
        <time>2020-08-08T09:03:17.797Z</time>
      </trkpt>
      <trkpt lat="38.547348" lon="-2.995654">
        <ele>905.630283</ele>
        <time>2020-08-08T09:03:20.807Z</time>
      </trkpt>
      <trkpt lat="38.547267" lon="-2.995555">
        <ele>905.788659</ele>
        <time>2020-08-08T09:03:23.800Z</time>
      </trkpt>
      <trkpt lat="38.547196" lon="-2.995463">
        <ele>905.946535</ele>
        <time>2020-08-08T09:03:26.803Z</time>
      </trkpt>
      <trkpt lat="38.547124" lon="-2.995369">
        <ele>906.107248</ele>
        <time>2020-08-08T09:03:29.798Z</time>
      </trkpt>
      <trkpt lat="38.547052" lon="-2.995270">
        <ele>906.272380</ele>
        <time>2020-08-08T09:03:32.804Z</time>
      </trkpt>
      <trkpt lat="38.546975" lon="-2.995182">
        <ele>906.433677</ele>
        <time>2020-08-08T09:03:35.796Z</time>
      </trkpt>
      <trkpt lat="38.546890" lon="-2.995113">
        <ele>906.590926</ele>
        <time>2020-08-08T09:03:38.800Z</time>
      </trkpt>
      <trkpt lat="38.546798" lon="-2.995031">
        <ele>906.766079</ele>
        <time>2020-08-08T09:03:42.822Z</time>
      </trkpt>
      <trkpt lat="38.546717" lon="-2.994944">
        <ele>906.931298</ele>
        <time>2020-08-08T09:03:46.794Z</time>
      </trkpt>
      <trkpt lat="38.546644" lon="-2.994842">
        <ele>907.100183</ele>
        <time>2020-08-08T09:03:50.795Z</time>
      </trkpt>
      <trkpt lat="38.546562" lon="-2.994751">
        <ele>907.269763</ele>
        <time>2020-08-08T09:03:54.813Z</time>
      </trkpt>
      <trkpt lat="38.546483" lon="-2.994687">
        <ele>907.415828</ele>
        <time>2020-08-08T09:03:57.807Z</time>
      </trkpt>
      <trkpt lat="38.546401" lon="-2.994589">
        <ele>907.591132</ele>
        <time>2020-08-08T09:04:01.799Z</time>
      </trkpt>
      <trkpt lat="38.546320" lon="-2.994508">
        <ele>907.751735</ele>
        <time>2020-08-08T09:04:05.790Z</time>
      </trkpt>
      <trkpt lat="38.546247" lon="-2.994433">
        <ele>907.897994</ele>
        <time>2020-08-08T09:04:08.804Z</time>
      </trkpt>
      <trkpt lat="38.546152" lon="-2.994358">
        <ele>908.072371</ele>
        <time>2020-08-08T09:04:12.802Z</time>
      </trkpt>
      <trkpt lat="38.546056" lon="-2.994410">
        <ele>908.235205</ele>
        <time>2020-08-08T09:04:16.787Z</time>
      </trkpt>
      <trkpt lat="38.546004" lon="-2.994508">
        <ele>908.379862</ele>
        <time>2020-08-08T09:04:20.809Z</time>
      </trkpt>
      <trkpt lat="38.545948" lon="-2.994616">
        <ele>908.538671</ele>
        <time>2020-08-08T09:04:24.801Z</time>
      </trkpt>
      <trkpt lat="38.545896" lon="-2.994730">
        <ele>908.700691</ele>
        <time>2020-08-08T09:04:28.792Z</time>
      </trkpt>
      <trkpt lat="38.545829" lon="-2.994849">
        <ele>908.880704</ele>
        <time>2020-08-08T09:04:32.799Z</time>
      </trkpt>
      <trkpt lat="38.545779" lon="-2.994950">
        <ele>909.027453</ele>
        <time>2020-08-08T09:04:35.814Z</time>
      </trkpt>
      <trkpt lat="38.545720" lon="-2.995057">
        <ele>909.188182</ele>
        <time>2020-08-08T09:04:38.800Z</time>
      </trkpt>
      <trkpt lat="38.545653" lon="-2.995173">
        <ele>909.365219</ele>
        <time>2020-08-08T09:04:41.814Z</time>
      </trkpt>
      <trkpt lat="38.545586" lon="-2.995301">
        <ele>909.554310</ele>
        <time>2020-08-08T09:04:44.786Z</time>
      </trkpt>
      <trkpt lat="38.545512" lon="-2.995435">
        <ele>909.755698</ele>
        <time>2020-08-08T09:04:47.786Z</time>
      </trkpt>
      <trkpt lat="38.545441" lon="-2.995565">
        <ele>909.950361</ele>
        <time>2020-08-08T09:04:50.786Z</time>
      </trkpt>
      <trkpt lat="38.545379" lon="-2.995679">
        <ele>910.120830</ele>
        <time>2020-08-08T09:04:53.819Z</time>
      </trkpt>
      <trkpt lat="38.545319" lon="-2.995785">
        <ele>910.281472</ele>
        <time>2020-08-08T09:04:56.801Z</time>
      </trkpt>
      <trkpt lat="38.545268" lon="-2.995880">
        <ele>910.422935</ele>
        <time>2020-08-08T09:04:59.789Z</time>
      </trkpt>
      <trkpt lat="38.545217" lon="-2.995978">
        <ele>910.567450</ele>
        <time>2020-08-08T09:05:02.804Z</time>
      </trkpt>
      <trkpt lat="38.545159" lon="-2.996073">
        <ele>910.715410</ele>
        <time>2020-08-08T09:05:05.789Z</time>
      </trkpt>
      <trkpt lat="38.545092" lon="-2.996164">
        <ele>910.868845</ele>
        <time>2020-08-08T09:05:08.794Z</time>
      </trkpt>
      <trkpt lat="38.545038" lon="-2.996267">
        <ele>911.021081</ele>
        <time>2020-08-08T09:05:11.794Z</time>
      </trkpt>
      <trkpt lat="38.544995" lon="-2.996370">
        <ele>911.164421</ele>
        <time>2020-08-08T09:05:14.795Z</time>
      </trkpt>
      <trkpt lat="38.544947" lon="-2.996471">
        <ele>911.299199</ele>
        <time>2020-08-08T09:05:17.792Z</time>
      </trkpt>
      <trkpt lat="38.544891" lon="-2.996565">
        <ele>911.415531</ele>
        <time>2020-08-08T09:05:20.794Z</time>
      </trkpt>
      <trkpt lat="38.544831" lon="-2.996668">
        <ele>911.541970</ele>
        <time>2020-08-08T09:05:23.809Z</time>
      </trkpt>
      <trkpt lat="38.544776" lon="-2.996769">
        <ele>911.663133</ele>
        <time>2020-08-08T09:05:26.799Z</time>
      </trkpt>
      <trkpt lat="38.544706" lon="-2.996890">
        <ele>911.811304</ele>
        <time>2020-08-08T09:05:29.809Z</time>
      </trkpt>
      <trkpt lat="38.544628" lon="-2.997021">
        <ele>911.973394</ele>
        <time>2020-08-08T09:05:32.795Z</time>
      </trkpt>
      <trkpt lat="38.544559" lon="-2.997156">
        <ele>912.132165</ele>
        <time>2020-08-08T09:05:35.802Z</time>
      </trkpt>
      <trkpt lat="38.544469" lon="-2.997256">
        <ele>912.282254</ele>
        <time>2020-08-08T09:05:38.801Z</time>
      </trkpt>
      <trkpt lat="38.544394" lon="-2.997352">
        <ele>912.415841</ele>
        <time>2020-08-08T09:05:40.803Z</time>
      </trkpt>
      <trkpt lat="38.544313" lon="-2.997473">
        <ele>912.572642</ele>
        <time>2020-08-08T09:05:43.800Z</time>
      </trkpt>
      <trkpt lat="38.544255" lon="-2.997564">
        <ele>912.688213</ele>
        <time>2020-08-08T09:05:45.790Z</time>
      </trkpt>
      <trkpt lat="38.544212" lon="-2.997679">
        <ele>912.813705</ele>
        <time>2020-08-08T09:05:47.787Z</time>
      </trkpt>
      <trkpt lat="38.544168" lon="-2.997802">
        <ele>912.946864</ele>
        <time>2020-08-08T09:05:49.801Z</time>
      </trkpt>
      <trkpt lat="38.544093" lon="-2.997945">
        <ele>913.116373</ele>
        <time>2020-08-08T09:05:52.794Z</time>
      </trkpt>
      <trkpt lat="38.544032" lon="-2.998056">
        <ele>913.249932</ele>
        <time>2020-08-08T09:05:54.795Z</time>
      </trkpt>
      <trkpt lat="38.543969" lon="-2.998150">
        <ele>913.371806</ele>
        <time>2020-08-08T09:05:56.790Z</time>
      </trkpt>
      <trkpt lat="38.543885" lon="-2.998228">
        <ele>913.502485</ele>
        <time>2020-08-08T09:05:58.810Z</time>
      </trkpt>
      <trkpt lat="38.543835" lon="-2.998330">
        <ele>913.409905</ele>
        <time>2020-08-08T09:06:00.816Z</time>
      </trkpt>
      <trkpt lat="38.543763" lon="-2.998447">
        <ele>913.245537</ele>
        <time>2020-08-08T09:06:03.795Z</time>
      </trkpt>
      <trkpt lat="38.543704" lon="-2.998558">
        <ele>913.097362</ele>
        <time>2020-08-08T09:06:06.808Z</time>
      </trkpt>
      <trkpt lat="38.543644" lon="-2.998654">
        <ele>912.961686</ele>
        <time>2020-08-08T09:06:09.803Z</time>
      </trkpt>
      <trkpt lat="38.543580" lon="-2.998743">
        <ele>912.828203</ele>
        <time>2020-08-08T09:06:12.787Z</time>
      </trkpt>
      <trkpt lat="38.543522" lon="-2.998836">
        <ele>912.696876</ele>
        <time>2020-08-08T09:06:15.795Z</time>
      </trkpt>
      <trkpt lat="38.543467" lon="-2.998928">
        <ele>912.569027</ele>
        <time>2020-08-08T09:06:18.810Z</time>
      </trkpt>
      <trkpt lat="38.543390" lon="-2.999036">
        <ele>912.407679</ele>
        <time>2020-08-08T09:06:22.801Z</time>
      </trkpt>
      <trkpt lat="38.543320" lon="-2.999146">
        <ele>912.251109</ele>
        <time>2020-08-08T09:06:26.812Z</time>
      </trkpt>
      <trkpt lat="38.543263" lon="-2.999235">
        <ele>912.124105</ele>
        <time>2020-08-08T09:06:29.816Z</time>
      </trkpt>
      <trkpt lat="38.543189" lon="-2.999343">
        <ele>911.965578</ele>
        <time>2020-08-08T09:06:33.796Z</time>
      </trkpt>
      <trkpt lat="38.543112" lon="-2.999406">
        <ele>911.836532</ele>
        <time>2020-08-08T09:06:36.799Z</time>
      </trkpt>
      <trkpt lat="38.543029" lon="-2.999458">
        <ele>911.706056</ele>
        <time>2020-08-08T09:06:39.799Z</time>
      </trkpt>
      <trkpt lat="38.542923" lon="-2.999513">
        <ele>911.544571</ele>
        <time>2020-08-08T09:06:43.813Z</time>
      </trkpt>
      <trkpt lat="38.542829" lon="-2.999542">
        <ele>911.408070</ele>
        <time>2020-08-08T09:06:47.803Z</time>
      </trkpt>
      <trkpt lat="38.542732" lon="-2.999535">
        <ele>911.270924</ele>
        <time>2020-08-08T09:06:51.817Z</time>
      </trkpt>
      <trkpt lat="38.542636" lon="-2.999570">
        <ele>911.130005</ele>
        <time>2020-08-08T09:06:56.806Z</time>
      </trkpt>
      <trkpt lat="38.542538" lon="-2.999628">
        <ele>910.981934</ele>
        <time>2020-08-08T09:07:01.811Z</time>
      </trkpt>
      <trkpt lat="38.542444" lon="-2.999644">
        <ele>910.967135</ele>
        <time>2020-08-08T09:07:05.815Z</time>
      </trkpt>
      <trkpt lat="38.542351" lon="-2.999661">
        <ele>910.952474</ele>
        <time>2020-08-08T09:07:09.816Z</time>
      </trkpt>
      <trkpt lat="38.542260" lon="-2.999670">
        <ele>910.938229</ele>
        <time>2020-08-08T09:07:17.808Z</time>
      </trkpt>
      <trkpt lat="38.542341" lon="-2.999616">
        <ele>910.923973</ele>
        <time>2020-08-08T09:07:25.802Z</time>
      </trkpt>
      <trkpt lat="38.542446" lon="-2.999572">
        <ele>910.906729</ele>
        <time>2020-08-08T09:07:30.791Z</time>
      </trkpt>
      <trkpt lat="38.542542" lon="-2.999532">
        <ele>910.890971</ele>
        <time>2020-08-08T09:07:34.801Z</time>
      </trkpt>
      <trkpt lat="38.542633" lon="-2.999522">
        <ele>910.876717</ele>
        <time>2020-08-08T09:07:37.801Z</time>
      </trkpt>
      <trkpt lat="38.542737" lon="-2.999495">
        <ele>910.860155</ele>
        <time>2020-08-08T09:07:40.807Z</time>
      </trkpt>
      <trkpt lat="38.542848" lon="-2.999485">
        <ele>910.842789</ele>
        <time>2020-08-08T09:07:43.802Z</time>
      </trkpt>
      <trkpt lat="38.542967" lon="-2.999452">
        <ele>910.823786</ele>
        <time>2020-08-08T09:07:46.798Z</time>
      </trkpt>
      <trkpt lat="38.543073" lon="-2.999394">
        <ele>910.805792</ele>
        <time>2020-08-08T09:07:49.824Z</time>
      </trkpt>
      <trkpt lat="38.543157" lon="-2.999315">
        <ele>910.789518</ele>
        <time>2020-08-08T09:07:52.788Z</time>
      </trkpt>
      <trkpt lat="38.543231" lon="-2.999210">
        <ele>910.772266</ele>
        <time>2020-08-08T09:07:55.802Z</time>
      </trkpt>
      <trkpt lat="38.543306" lon="-2.999089">
        <ele>910.753420</ele>
        <time>2020-08-08T09:07:58.790Z</time>
      </trkpt>
      <trkpt lat="38.543372" lon="-2.998974">
        <ele>910.736009</ele>
        <time>2020-08-08T09:08:01.796Z</time>
      </trkpt>
      <trkpt lat="38.543452" lon="-2.998867">
        <ele>910.717941</ele>
        <time>2020-08-08T09:08:04.788Z</time>
      </trkpt>
      <trkpt lat="38.543533" lon="-2.998743">
        <ele>910.727793</ele>
        <time>2020-08-08T09:08:07.797Z</time>
      </trkpt>
      <trkpt lat="38.543616" lon="-2.998622">
        <ele>910.871583</ele>
        <time>2020-08-08T09:08:10.796Z</time>
      </trkpt>
      <trkpt lat="38.543679" lon="-2.998527">
        <ele>910.982860</ele>
        <time>2020-08-08T09:08:13.813Z</time>
      </trkpt>
      <trkpt lat="38.543738" lon="-2.998425">
        <ele>911.096203</ele>
        <time>2020-08-08T09:08:17.803Z</time>
      </trkpt>
      <trkpt lat="38.543800" lon="-2.998335">
        <ele>911.203354</ele>
        <time>2020-08-08T09:08:21.808Z</time>
      </trkpt>
      <trkpt lat="38.543863" lon="-2.998232">
        <ele>911.320174</ele>
        <time>2020-08-08T09:08:26.794Z</time>
      </trkpt>
      <trkpt lat="38.543925" lon="-2.998141">
        <ele>911.427996</ele>
        <time>2020-08-08T09:08:33.801Z</time>
      </trkpt>
      <trkpt lat="38.543964" lon="-2.998030">
        <ele>911.536713</ele>
        <time>2020-08-08T09:08:51.813Z</time>
      </trkpt>
      <trkpt lat="38.543895" lon="-2.998213">
        <ele>911.718215</ele>
        <time>2020-08-08T09:10:48.808Z</time>
      </trkpt>
      <trkpt lat="38.543834" lon="-2.998312">
        <ele>911.830814</ele>
        <time>2020-08-08T09:10:52.799Z</time>
      </trkpt>
      <trkpt lat="38.543782" lon="-2.998407">
        <ele>911.934410</ele>
        <time>2020-08-08T09:10:56.810Z</time>
      </trkpt>
      <trkpt lat="38.543714" lon="-2.998497">
        <ele>912.046208</ele>
        <time>2020-08-08T09:11:00.790Z</time>
      </trkpt>
      <trkpt lat="38.543640" lon="-2.998599">
        <ele>912.170505</ele>
        <time>2020-08-08T09:11:05.802Z</time>
      </trkpt>
      <trkpt lat="38.543587" lon="-2.998701">
        <ele>912.279912</ele>
        <time>2020-08-08T09:11:10.790Z</time>
      </trkpt>
      <trkpt lat="38.543526" lon="-2.998788">
        <ele>912.384300</ele>
        <time>2020-08-08T09:11:14.813Z</time>
      </trkpt>
      <trkpt lat="38.543452" lon="-2.998888">
        <ele>912.507294</ele>
        <time>2020-08-08T09:11:18.784Z</time>
      </trkpt>
      <trkpt lat="38.543387" lon="-2.998987">
        <ele>912.622776</ele>
        <time>2020-08-08T09:11:22.799Z</time>
      </trkpt>
      <trkpt lat="38.543329" lon="-2.999080">
        <ele>912.729045</ele>
        <time>2020-08-08T09:11:26.782Z</time>
      </trkpt>
      <trkpt lat="38.543277" lon="-2.999179">
        <ele>912.919529</ele>
        <time>2020-08-08T09:11:30.798Z</time>
      </trkpt>
      <trkpt lat="38.543210" lon="-2.999276">
        <ele>913.157625</ele>
        <time>2020-08-08T09:11:34.803Z</time>
      </trkpt>
      <trkpt lat="38.543122" lon="-2.999344">
        <ele>913.399500</ele>
        <time>2020-08-08T09:11:38.807Z</time>
      </trkpt>
      <trkpt lat="38.543025" lon="-2.999398">
        <ele>913.648368</ele>
        <time>2020-08-08T09:11:42.788Z</time>
      </trkpt>
      <trkpt lat="38.542911" lon="-2.999404">
        <ele>913.916761</ele>
        <time>2020-08-08T09:11:58.790Z</time>
      </trkpt>
      <trkpt lat="38.542816" lon="-2.999437">
        <ele>914.148334</ele>
        <time>2020-08-08T09:12:01.797Z</time>
      </trkpt>
      <trkpt lat="38.542684" lon="-2.999499">
        <ele>914.479132</ele>
        <time>2020-08-08T09:12:33.800Z</time>
      </trkpt>
      <trkpt lat="38.542571" lon="-2.999540">
        <ele>914.755442</ele>
        <time>2020-08-08T09:12:36.789Z</time>
      </trkpt>
      <trkpt lat="38.542463" lon="-2.999563">
        <ele>915.012994</ele>
        <time>2020-08-08T09:12:39.818Z</time>
      </trkpt>
      <trkpt lat="38.542360" lon="-2.999585">
        <ele>915.258642</ele>
        <time>2020-08-08T09:12:42.806Z</time>
      </trkpt>
      <trkpt lat="38.542258" lon="-2.999606">
        <ele>915.501671</ele>
        <time>2020-08-08T09:12:45.797Z</time>
      </trkpt>
      <trkpt lat="38.542164" lon="-2.999621">
        <ele>915.724506</ele>
        <time>2020-08-08T09:12:48.801Z</time>
      </trkpt>
      <trkpt lat="38.542065" lon="-2.999648">
        <ele>915.962626</ele>
        <time>2020-08-08T09:12:51.799Z</time>
      </trkpt>
      <trkpt lat="38.541968" lon="-2.999677">
        <ele>916.196958</ele>
        <time>2020-08-08T09:12:54.801Z</time>
      </trkpt>
      <trkpt lat="38.541870" lon="-2.999706">
        <ele>916.433581</ele>
        <time>2020-08-08T09:12:57.812Z</time>
      </trkpt>
      <trkpt lat="38.541781" lon="-2.999751">
        <ele>916.658715</ele>
        <time>2020-08-08T09:13:00.795Z</time>
      </trkpt>
      <trkpt lat="38.541698" lon="-2.999810">
        <ele>916.882107</ele>
        <time>2020-08-08T09:13:03.795Z</time>
      </trkpt>
      <trkpt lat="38.541608" lon="-2.999886">
        <ele>917.256484</ele>
        <time>2020-08-08T09:13:07.793Z</time>
      </trkpt>
      <trkpt lat="38.541520" lon="-2.999971">
        <ele>917.726762</ele>
        <time>2020-08-08T09:13:11.786Z</time>
      </trkpt>
      <trkpt lat="38.541443" lon="-3.000056">
        <ele>918.160537</ele>
        <time>2020-08-08T09:13:14.821Z</time>
      </trkpt>
      <trkpt lat="38.541368" lon="-3.000129">
        <ele>918.562464</ele>
        <time>2020-08-08T09:13:17.786Z</time>
      </trkpt>
      <trkpt lat="38.541283" lon="-3.000207">
        <ele>919.008596</ele>
        <time>2020-08-08T09:13:20.788Z</time>
      </trkpt>
      <trkpt lat="38.541203" lon="-3.000271">
        <ele>919.410991</ele>
        <time>2020-08-08T09:13:23.808Z</time>
      </trkpt>
      <trkpt lat="38.541115" lon="-3.000347">
        <ele>919.863810</ele>
        <time>2020-08-08T09:13:26.790Z</time>
      </trkpt>
      <trkpt lat="38.541036" lon="-3.000412">
        <ele>920.264392</ele>
        <time>2020-08-08T09:13:29.785Z</time>
      </trkpt>
      <trkpt lat="38.540958" lon="-3.000484">
        <ele>920.674609</ele>
        <time>2020-08-08T09:13:32.785Z</time>
      </trkpt>
      <trkpt lat="38.540860" lon="-3.000562">
        <ele>921.166837</ele>
        <time>2020-08-08T09:13:35.791Z</time>
      </trkpt>
      <trkpt lat="38.540770" lon="-3.000640">
        <ele>921.630457</ele>
        <time>2020-08-08T09:13:37.798Z</time>
      </trkpt>
      <trkpt lat="38.540671" lon="-3.000718">
        <ele>922.126311</ele>
        <time>2020-08-08T09:13:39.790Z</time>
      </trkpt>
      <trkpt lat="38.540572" lon="-3.000793">
        <ele>922.616989</ele>
        <time>2020-08-08T09:13:41.784Z</time>
      </trkpt>
      <trkpt lat="38.540486" lon="-3.000884">
        <ele>923.092995</ele>
        <time>2020-08-08T09:13:43.779Z</time>
      </trkpt>
      <trkpt lat="38.540402" lon="-3.000950">
        <ele>923.513402</ele>
        <time>2020-08-08T09:13:45.799Z</time>
      </trkpt>
      <trkpt lat="38.540295" lon="-3.001067">
        <ele>924.113758</ele>
        <time>2020-08-08T09:13:48.787Z</time>
      </trkpt>
      <trkpt lat="38.540214" lon="-3.001126">
        <ele>924.511262</ele>
        <time>2020-08-08T09:13:50.800Z</time>
      </trkpt>
      <trkpt lat="38.540134" lon="-3.001198">
        <ele>925.850461</ele>
        <time>2020-08-08T09:13:52.792Z</time>
      </trkpt>
      <trkpt lat="38.540041" lon="-3.001253">
        <ele>927.770185</ele>
        <time>2020-08-08T09:13:54.798Z</time>
      </trkpt>
      <trkpt lat="38.539952" lon="-3.001314">
        <ele>929.662083</ele>
        <time>2020-08-08T09:13:56.793Z</time>
      </trkpt>
      <trkpt lat="38.539834" lon="-3.001405">
        <ele>932.243847</ele>
        <time>2020-08-08T09:13:59.804Z</time>
      </trkpt>
      <trkpt lat="38.539747" lon="-3.001455">
        <ele>934.030893</ele>
        <time>2020-08-08T09:14:01.810Z</time>
      </trkpt>
      <trkpt lat="38.539641" lon="-3.001547">
        <ele>936.431172</ele>
        <time>2020-08-08T09:14:04.806Z</time>
      </trkpt>
      <trkpt lat="38.539548" lon="-3.001595">
        <ele>938.310141</ele>
        <time>2020-08-08T09:14:06.820Z</time>
      </trkpt>
      <trkpt lat="38.539428" lon="-3.001668">
        <ele>940.799857</ele>
        <time>2020-08-08T09:14:09.810Z</time>
      </trkpt>
      <trkpt lat="38.539287" lon="-3.001747">
        <ele>943.684011</ele>
        <time>2020-08-08T09:14:12.805Z</time>
      </trkpt>
      <trkpt lat="38.539196" lon="-3.001822">
        <ele>945.712439</ele>
        <time>2020-08-08T09:14:14.814Z</time>
      </trkpt>
      <trkpt lat="38.539110" lon="-3.001910">
        <ele>947.776156</ele>
        <time>2020-08-08T09:14:16.791Z</time>
      </trkpt>
      <trkpt lat="38.539030" lon="-3.001991">
        <ele>949.688040</ele>
        <time>2020-08-08T09:14:18.809Z</time>
      </trkpt>
      <trkpt lat="38.538948" lon="-3.002078">
        <ele>951.684409</ele>
        <time>2020-08-08T09:14:20.816Z</time>
      </trkpt>
      <trkpt lat="38.538887" lon="-3.002193">
        <ele>953.720593</ele>
        <time>2020-08-08T09:14:22.792Z</time>
      </trkpt>
      <trkpt lat="38.538815" lon="-3.002289">
        <ele>955.669604</ele>
        <time>2020-08-08T09:14:24.807Z</time>
      </trkpt>
      <trkpt lat="38.538736" lon="-3.002358">
        <ele>957.462078</ele>
        <time>2020-08-08T09:14:26.795Z</time>
      </trkpt>
      <trkpt lat="38.538647" lon="-3.002463">
        <ele>958.014491</ele>
        <time>2020-08-08T09:14:30.798Z</time>
      </trkpt>
      <trkpt lat="38.538572" lon="-3.002593">
        <ele>957.430616</ele>
        <time>2020-08-08T09:14:33.796Z</time>
      </trkpt>
      <trkpt lat="38.538485" lon="-3.002702">
        <ele>956.867721</ele>
        <time>2020-08-08T09:14:36.790Z</time>
      </trkpt>
      <trkpt lat="38.538420" lon="-3.002787">
        <ele>956.438054</ele>
        <time>2020-08-08T09:14:38.809Z</time>
      </trkpt>
      <trkpt lat="38.538347" lon="-3.002892">
        <ele>955.930279</ele>
        <time>2020-08-08T09:14:40.803Z</time>
      </trkpt>
      <trkpt lat="38.538275" lon="-3.002984">
        <ele>955.459875</ele>
        <time>2020-08-08T09:14:42.806Z</time>
      </trkpt>
      <trkpt lat="38.538212" lon="-3.003075">
        <ele>955.020621</ele>
        <time>2020-08-08T09:14:44.798Z</time>
      </trkpt>
      <trkpt lat="38.538153" lon="-3.003166">
        <ele>954.593393</ele>
        <time>2020-08-08T09:14:46.789Z</time>
      </trkpt>
      <trkpt lat="38.538087" lon="-3.003256">
        <ele>954.147474</ele>
        <time>2020-08-08T09:14:48.794Z</time>
      </trkpt>
      <trkpt lat="38.538038" lon="-3.003358">
        <ele>953.714809</ele>
        <time>2020-08-08T09:14:50.797Z</time>
      </trkpt>
      <trkpt lat="38.537985" lon="-3.003460">
        <ele>953.272190</ele>
        <time>2020-08-08T09:14:52.795Z</time>
      </trkpt>
      <trkpt lat="38.537923" lon="-3.003566">
        <ele>952.793773</ele>
        <time>2020-08-08T09:14:54.798Z</time>
      </trkpt>
      <trkpt lat="38.537866" lon="-3.003662">
        <ele>952.358129</ele>
        <time>2020-08-08T09:14:56.805Z</time>
      </trkpt>
      <trkpt lat="38.537819" lon="-3.003761">
        <ele>951.939534</ele>
        <time>2020-08-08T09:14:58.807Z</time>
      </trkpt>
      <trkpt lat="38.537756" lon="-3.003850">
        <ele>951.505665</ele>
        <time>2020-08-08T09:15:00.802Z</time>
      </trkpt>
      <trkpt lat="38.537700" lon="-3.003941">
        <ele>951.087147</ele>
        <time>2020-08-08T09:15:02.796Z</time>
      </trkpt>
      <trkpt lat="38.537645" lon="-3.004033">
        <ele>950.668603</ele>
        <time>2020-08-08T09:15:04.788Z</time>
      </trkpt>
      <trkpt lat="38.537583" lon="-3.004124">
        <ele>950.232396</ele>
        <time>2020-08-08T09:15:06.784Z</time>
      </trkpt>
      <trkpt lat="38.537499" lon="-3.004262">
        <ele>950.453153</ele>
        <time>2020-08-08T09:15:09.806Z</time>
      </trkpt>
      <trkpt lat="38.537418" lon="-3.004397">
        <ele>951.024317</ele>
        <time>2020-08-08T09:15:12.797Z</time>
      </trkpt>
      <trkpt lat="38.537351" lon="-3.004535">
        <ele>951.569565</ele>
        <time>2020-08-08T09:15:15.798Z</time>
      </trkpt>
      <trkpt lat="38.537281" lon="-3.004646">
        <ele>952.048211</ele>
        <time>2020-08-08T09:15:17.795Z</time>
      </trkpt>
      <trkpt lat="38.537222" lon="-3.004750">
        <ele>952.479494</ele>
        <time>2020-08-08T09:15:19.809Z</time>
      </trkpt>
      <trkpt lat="38.537143" lon="-3.004894">
        <ele>953.069946</ele>
        <time>2020-08-08T09:15:22.793Z</time>
      </trkpt>
      <trkpt lat="38.537081" lon="-3.005013">
        <ele>953.549934</ele>
        <time>2020-08-08T09:15:24.811Z</time>
      </trkpt>
      <trkpt lat="38.537011" lon="-3.005134">
        <ele>954.055154</ele>
        <time>2020-08-08T09:15:26.785Z</time>
      </trkpt>
      <trkpt lat="38.536946" lon="-3.005256">
        <ele>954.550688</ele>
        <time>2020-08-08T09:15:28.803Z</time>
      </trkpt>
      <trkpt lat="38.536869" lon="-3.005366">
        <ele>955.046234</ele>
        <time>2020-08-08T09:15:30.814Z</time>
      </trkpt>
      <trkpt lat="38.536798" lon="-3.005476">
        <ele>955.524993</ele>
        <time>2020-08-08T09:15:32.801Z</time>
      </trkpt>
      <trkpt lat="38.536745" lon="-3.005585">
        <ele>955.955843</ele>
        <time>2020-08-08T09:15:34.803Z</time>
      </trkpt>
      <trkpt lat="38.536681" lon="-3.005697">
        <ele>956.421470</ele>
        <time>2020-08-08T09:15:36.798Z</time>
      </trkpt>
      <trkpt lat="38.536606" lon="-3.005832">
        <ele>956.977342</ele>
        <time>2020-08-08T09:15:38.805Z</time>
      </trkpt>
      <trkpt lat="38.536537" lon="-3.005948">
        <ele>957.466561</ele>
        <time>2020-08-08T09:15:40.794Z</time>
      </trkpt>
      <trkpt lat="38.536471" lon="-3.006073">
        <ele>956.752283</ele>
        <time>2020-08-08T09:15:42.797Z</time>
      </trkpt>
      <trkpt lat="38.536399" lon="-3.006183">
        <ele>954.449545</ele>
        <time>2020-08-08T09:15:44.799Z</time>
      </trkpt>
      <trkpt lat="38.536342" lon="-3.006297">
        <ele>952.277353</ele>
        <time>2020-08-08T09:15:46.801Z</time>
      </trkpt>
      <trkpt lat="38.536284" lon="-3.006398">
        <ele>950.265774</ele>
        <time>2020-08-08T09:15:48.804Z</time>
      </trkpt>
      <trkpt lat="38.536219" lon="-3.006516">
        <ele>947.948712</ele>
        <time>2020-08-08T09:15:50.799Z</time>
      </trkpt>
      <trkpt lat="38.536154" lon="-3.006632">
        <ele>945.657828</ele>
        <time>2020-08-08T09:15:52.797Z</time>
      </trkpt>
      <trkpt lat="38.536077" lon="-3.006759">
        <ele>943.078107</ele>
        <time>2020-08-08T09:15:54.794Z</time>
      </trkpt>
      <trkpt lat="38.536035" lon="-3.006861">
        <ele>941.227492</ele>
        <time>2020-08-08T09:15:56.800Z</time>
      </trkpt>
      <trkpt lat="38.535970" lon="-3.006975">
        <ele>938.962629</ele>
        <time>2020-08-08T09:15:58.794Z</time>
      </trkpt>
      <trkpt lat="38.535911" lon="-3.007071">
        <ele>937.002559</ele>
        <time>2020-08-08T09:16:00.814Z</time>
      </trkpt>
      <trkpt lat="38.535844" lon="-3.007173">
        <ele>934.864166</ele>
        <time>2020-08-08T09:16:02.798Z</time>
      </trkpt>
      <trkpt lat="38.535776" lon="-3.007296">
        <ele>932.446006</ele>
        <time>2020-08-08T09:16:04.794Z</time>
      </trkpt>
      <trkpt lat="38.535695" lon="-3.007431">
        <ele>929.714431</ele>
        <time>2020-08-08T09:16:06.787Z</time>
      </trkpt>
      <trkpt lat="38.535618" lon="-3.007564">
        <ele>927.057908</ele>
        <time>2020-08-08T09:16:08.803Z</time>
      </trkpt>
      <trkpt lat="38.535538" lon="-3.007704">
        <ele>924.274365</ele>
        <time>2020-08-08T09:16:10.808Z</time>
      </trkpt>
      <trkpt lat="38.535445" lon="-3.007833">
        <ele>921.457836</ele>
        <time>2020-08-08T09:16:12.808Z</time>
      </trkpt>
      <trkpt lat="38.535363" lon="-3.007978">
        <ele>920.538839</ele>
        <time>2020-08-08T09:16:14.801Z</time>
      </trkpt>
      <trkpt lat="38.535288" lon="-3.008128">
        <ele>920.151343</ele>
        <time>2020-08-08T09:16:16.796Z</time>
      </trkpt>
      <trkpt lat="38.535206" lon="-3.008282">
        <ele>919.745851</ele>
        <time>2020-08-08T09:16:18.810Z</time>
      </trkpt>
      <trkpt lat="38.535115" lon="-3.008443">
        <ele>919.313501</ele>
        <time>2020-08-08T09:16:20.817Z</time>
      </trkpt>
      <trkpt lat="38.535027" lon="-3.008600">
        <ele>918.893093</ele>
        <time>2020-08-08T09:16:22.789Z</time>
      </trkpt>
      <trkpt lat="38.534932" lon="-3.008756">
        <ele>918.462769</ele>
        <time>2020-08-08T09:16:24.801Z</time>
      </trkpt>
      <trkpt lat="38.534854" lon="-3.008918">
        <ele>918.048708</ele>
        <time>2020-08-08T09:16:26.798Z</time>
      </trkpt>
      <trkpt lat="38.534768" lon="-3.009084">
        <ele>917.615324</ele>
        <time>2020-08-08T09:16:28.804Z</time>
      </trkpt>
      <trkpt lat="38.534672" lon="-3.009246">
        <ele>917.172946</ele>
        <time>2020-08-08T09:16:30.801Z</time>
      </trkpt>
      <trkpt lat="38.534599" lon="-3.009429">
        <ele>916.725813</ele>
        <time>2020-08-08T09:16:32.795Z</time>
      </trkpt>
      <trkpt lat="38.534530" lon="-3.009633">
        <ele>916.242043</ele>
        <time>2020-08-08T09:16:34.794Z</time>
      </trkpt>
      <trkpt lat="38.534497" lon="-3.009741">
        <ele>915.989666</ele>
        <time>2020-08-08T09:16:35.819Z</time>
      </trkpt>
      <trkpt lat="38.534460" lon="-3.009854">
        <ele>916.028585</ele>
        <time>2020-08-08T09:16:36.800Z</time>
      </trkpt>
      <trkpt lat="38.534428" lon="-3.009962">
        <ele>916.432168</ele>
        <time>2020-08-08T09:16:37.794Z</time>
      </trkpt>
      <trkpt lat="38.534369" lon="-3.010170">
        <ele>917.205356</ele>
        <time>2020-08-08T09:16:39.801Z</time>
      </trkpt>
      <trkpt lat="38.534323" lon="-3.010282">
        <ele>917.647420</ele>
        <time>2020-08-08T09:16:40.798Z</time>
      </trkpt>
      <trkpt lat="38.534290" lon="-3.010401">
        <ele>918.088635</ele>
        <time>2020-08-08T09:16:41.806Z</time>
      </trkpt>
      <trkpt lat="38.534271" lon="-3.010521">
        <ele>918.516490</ele>
        <time>2020-08-08T09:16:42.792Z</time>
      </trkpt>
      <trkpt lat="38.534251" lon="-3.010651">
        <ele>918.979490</ele>
        <time>2020-08-08T09:16:43.789Z</time>
      </trkpt>
      <trkpt lat="38.534236" lon="-3.010788">
        <ele>919.462916</ele>
        <time>2020-08-08T09:16:44.797Z</time>
      </trkpt>
      <trkpt lat="38.534224" lon="-3.010913">
        <ele>919.903018</ele>
        <time>2020-08-08T09:16:45.799Z</time>
      </trkpt>
      <trkpt lat="38.534221" lon="-3.011038">
        <ele>920.340047</ele>
        <time>2020-08-08T09:16:46.807Z</time>
      </trkpt>
      <trkpt lat="38.534221" lon="-3.011162">
        <ele>920.773377</ele>
        <time>2020-08-08T09:16:47.805Z</time>
      </trkpt>
      <trkpt lat="38.534223" lon="-3.011299">
        <ele>921.252220</ele>
        <time>2020-08-08T09:16:48.810Z</time>
      </trkpt>
      <trkpt lat="38.534221" lon="-3.011426">
        <ele>921.696123</ele>
        <time>2020-08-08T09:16:49.805Z</time>
      </trkpt>
      <trkpt lat="38.534211" lon="-3.011557">
        <ele>922.156090</ele>
        <time>2020-08-08T09:16:50.804Z</time>
      </trkpt>
      <trkpt lat="38.534196" lon="-3.011693">
        <ele>922.636056</ele>
        <time>2020-08-08T09:16:51.799Z</time>
      </trkpt>
      <trkpt lat="38.534177" lon="-3.011829">
        <ele>923.118841</ele>
        <time>2020-08-08T09:16:52.798Z</time>
      </trkpt>
      <trkpt lat="38.534168" lon="-3.011983">
        <ele>923.658509</ele>
        <time>2020-08-08T09:16:53.792Z</time>
      </trkpt>
      <trkpt lat="38.534148" lon="-3.012144">
        <ele>925.146141</ele>
        <time>2020-08-08T09:16:54.816Z</time>
      </trkpt>
      <trkpt lat="38.534142" lon="-3.012294">
        <ele>927.037633</ele>
        <time>2020-08-08T09:16:55.803Z</time>
      </trkpt>
      <trkpt lat="38.534119" lon="-3.012455">
        <ele>929.098720</ele>
        <time>2020-08-08T09:16:56.798Z</time>
      </trkpt>
      <trkpt lat="38.534097" lon="-3.012612">
        <ele>931.107373</ele>
        <time>2020-08-08T09:16:57.797Z</time>
      </trkpt>
      <trkpt lat="38.534094" lon="-3.012777">
        <ele>933.185862</ele>
        <time>2020-08-08T09:16:58.787Z</time>
      </trkpt>
      <trkpt lat="38.534073" lon="-3.012934">
        <ele>935.191739</ele>
        <time>2020-08-08T09:16:59.809Z</time>
      </trkpt>
      <trkpt lat="38.534062" lon="-3.013096">
        <ele>937.239559</ele>
        <time>2020-08-08T09:17:00.808Z</time>
      </trkpt>
      <trkpt lat="38.534036" lon="-3.013258">
        <ele>939.322206</ele>
        <time>2020-08-08T09:17:01.808Z</time>
      </trkpt>
      <trkpt lat="38.534012" lon="-3.013419">
        <ele>941.386250</ele>
        <time>2020-08-08T09:17:02.801Z</time>
      </trkpt>
      <trkpt lat="38.533996" lon="-3.013572">
        <ele>943.330200</ele>
        <time>2020-08-08T09:17:03.786Z</time>
      </trkpt>
      <trkpt lat="38.533990" lon="-3.013741">
        <ele>945.460696</ele>
        <time>2020-08-08T09:17:04.793Z</time>
      </trkpt>
      <trkpt lat="38.533974" lon="-3.013886">
        <ele>947.304835</ele>
        <time>2020-08-08T09:17:05.811Z</time>
      </trkpt>
      <trkpt lat="38.533970" lon="-3.014007">
        <ele>948.830011</ele>
        <time>2020-08-08T09:17:06.799Z</time>
      </trkpt>
      <trkpt lat="38.533979" lon="-3.014223">
        <ele>951.554069</ele>
        <time>2020-08-08T09:17:08.796Z</time>
      </trkpt>
      <trkpt lat="38.533964" lon="-3.014339">
        <ele>952.746983</ele>
        <time>2020-08-08T09:17:09.803Z</time>
      </trkpt>
      <trkpt lat="38.533943" lon="-3.014471">
        <ele>952.028642</ele>
        <time>2020-08-08T09:17:10.811Z</time>
      </trkpt>
      <trkpt lat="38.533910" lon="-3.014600">
        <ele>951.304857</ele>
        <time>2020-08-08T09:17:11.796Z</time>
      </trkpt>
      <trkpt lat="38.533870" lon="-3.014729">
        <ele>950.564848</ele>
        <time>2020-08-08T09:17:12.808Z</time>
      </trkpt>
      <trkpt lat="38.533827" lon="-3.014855">
        <ele>949.831751</ele>
        <time>2020-08-08T09:17:13.799Z</time>
      </trkpt>
      <trkpt lat="38.533792" lon="-3.014980">
        <ele>949.123731</ele>
        <time>2020-08-08T09:17:14.795Z</time>
      </trkpt>
      <trkpt lat="38.533763" lon="-3.015102">
        <ele>948.443752</ele>
        <time>2020-08-08T09:17:15.809Z</time>
      </trkpt>
      <trkpt lat="38.533722" lon="-3.015210">
        <ele>947.803565</ele>
        <time>2020-08-08T09:17:16.811Z</time>
      </trkpt>
      <trkpt lat="38.533684" lon="-3.015335">
        <ele>947.088392</ele>
        <time>2020-08-08T09:17:17.797Z</time>
      </trkpt>
      <trkpt lat="38.533660" lon="-3.015452">
        <ele>946.443356</ele>
        <time>2020-08-08T09:17:18.816Z</time>
      </trkpt>
      <trkpt lat="38.533638" lon="-3.015573">
        <ele>945.780882</ele>
        <time>2020-08-08T09:17:19.816Z</time>
      </trkpt>
      <trkpt lat="38.533579" lon="-3.015760">
        <ele>944.705582</ele>
        <time>2020-08-08T09:17:21.794Z</time>
      </trkpt>
      <trkpt lat="38.533529" lon="-3.015946">
        <ele>943.656739</ele>
        <time>2020-08-08T09:17:23.787Z</time>
      </trkpt>
      <trkpt lat="38.533476" lon="-3.016136">
        <ele>942.581003</ele>
        <time>2020-08-08T09:17:25.806Z</time>
      </trkpt>
      <trkpt lat="38.533441" lon="-3.016297">
        <ele>941.689877</ele>
        <time>2020-08-08T09:17:27.794Z</time>
      </trkpt>
      <trkpt lat="38.533389" lon="-3.016470">
        <ele>940.701529</ele>
        <time>2020-08-08T09:17:29.803Z</time>
      </trkpt>
      <trkpt lat="38.533327" lon="-3.016635">
        <ele>938.525731</ele>
        <time>2020-08-08T09:17:31.803Z</time>
      </trkpt>
      <trkpt lat="38.533266" lon="-3.016767">
        <ele>936.547729</ele>
        <time>2020-08-08T09:17:33.799Z</time>
      </trkpt>
      <trkpt lat="38.533188" lon="-3.016902">
        <ele>934.382406</ele>
        <time>2020-08-08T09:17:35.791Z</time>
      </trkpt>
      <trkpt lat="38.533099" lon="-3.017033">
        <ele>932.143829</ele>
        <time>2020-08-08T09:17:37.793Z</time>
      </trkpt>
      <trkpt lat="38.533027" lon="-3.017158">
        <ele>930.141074</ele>
        <time>2020-08-08T09:17:39.808Z</time>
      </trkpt>
      <trkpt lat="38.532951" lon="-3.017267">
        <ele>928.257230</ele>
        <time>2020-08-08T09:17:41.798Z</time>
      </trkpt>
      <trkpt lat="38.532866" lon="-3.017380">
        <ele>926.234647</ele>
        <time>2020-08-08T09:17:43.785Z</time>
      </trkpt>
      <trkpt lat="38.532787" lon="-3.017472">
        <ele>924.472096</ele>
        <time>2020-08-08T09:17:45.818Z</time>
      </trkpt>
      <trkpt lat="38.532733" lon="-3.017584">
        <ele>922.774672</ele>
        <time>2020-08-08T09:17:48.797Z</time>
      </trkpt>
      <trkpt lat="38.532665" lon="-3.017681">
        <ele>921.094187</ele>
        <time>2020-08-08T09:17:51.786Z</time>
      </trkpt>
      <trkpt lat="38.532597" lon="-3.017795">
        <ele>919.244562</ele>
        <time>2020-08-08T09:17:55.795Z</time>
      </trkpt>
      <trkpt lat="38.532523" lon="-3.017893">
        <ele>917.487218</ele>
        <time>2020-08-08T09:17:58.799Z</time>
      </trkpt>
      <trkpt lat="38.532447" lon="-3.017995">
        <ele>915.669793</ele>
        <time>2020-08-08T09:18:01.796Z</time>
      </trkpt>
      <trkpt lat="38.532371" lon="-3.018087">
        <ele>913.943493</ele>
        <time>2020-08-08T09:18:04.796Z</time>
      </trkpt>
      <trkpt lat="38.532294" lon="-3.018177">
        <ele>912.222696</ele>
        <time>2020-08-08T09:18:07.798Z</time>
      </trkpt>
      <trkpt lat="38.532215" lon="-3.018278">
        <ele>910.846109</ele>
        <time>2020-08-08T09:18:11.798Z</time>
      </trkpt>
      <trkpt lat="38.532142" lon="-3.018392">
        <ele>910.631938</ele>
        <time>2020-08-08T09:18:15.807Z</time>
      </trkpt>
      <trkpt lat="38.532064" lon="-3.018492">
        <ele>910.426647</ele>
        <time>2020-08-08T09:18:19.804Z</time>
      </trkpt>
      <trkpt lat="38.531998" lon="-3.018593">
        <ele>910.235330</ele>
        <time>2020-08-08T09:18:23.818Z</time>
      </trkpt>
      <trkpt lat="38.531931" lon="-3.018708">
        <ele>910.026879</ele>
        <time>2020-08-08T09:18:28.791Z</time>
      </trkpt>
      <trkpt lat="38.531871" lon="-3.018803">
        <ele>909.849380</ele>
        <time>2020-08-08T09:18:32.795Z</time>
      </trkpt>
      <trkpt lat="38.531799" lon="-3.018888">
        <ele>909.667248</ele>
        <time>2020-08-08T09:18:36.794Z</time>
      </trkpt>
      <trkpt lat="38.531730" lon="-3.018993">
        <ele>909.467894</ele>
        <time>2020-08-08T09:18:40.804Z</time>
      </trkpt>
      <trkpt lat="38.531648" lon="-3.019106">
        <ele>909.243824</ele>
        <time>2020-08-08T09:18:44.788Z</time>
      </trkpt>
      <trkpt lat="38.531577" lon="-3.019196">
        <ele>909.058008</ele>
        <time>2020-08-08T09:18:47.790Z</time>
      </trkpt>
      <trkpt lat="38.531509" lon="-3.019289">
        <ele>908.872947</ele>
        <time>2020-08-08T09:18:50.783Z</time>
      </trkpt>
      <trkpt lat="38.531436" lon="-3.019389">
        <ele>908.674106</ele>
        <time>2020-08-08T09:18:53.806Z</time>
      </trkpt>
      <trkpt lat="38.531364" lon="-3.019489">
        <ele>908.476528</ele>
        <time>2020-08-08T09:18:56.799Z</time>
      </trkpt>
      <trkpt lat="38.531299" lon="-3.019585">
        <ele>908.291952</ele>
        <time>2020-08-08T09:18:59.804Z</time>
      </trkpt>
      <trkpt lat="38.531225" lon="-3.019686">
        <ele>908.090780</ele>
        <time>2020-08-08T09:19:02.796Z</time>
      </trkpt>
      <trkpt lat="38.531149" lon="-3.019795">
        <ele>907.878514</ele>
        <time>2020-08-08T09:19:05.800Z</time>
      </trkpt>
      <trkpt lat="38.531074" lon="-3.019904">
        <ele>907.667480</ele>
        <time>2020-08-08T09:19:08.800Z</time>
      </trkpt>
      <trkpt lat="38.530998" lon="-3.020001">
        <ele>907.543548</ele>
        <time>2020-08-08T09:19:11.806Z</time>
      </trkpt>
      <trkpt lat="38.530921" lon="-3.020102">
        <ele>907.502040</ele>
        <time>2020-08-08T09:19:14.791Z</time>
      </trkpt>
      <trkpt lat="38.530843" lon="-3.020208">
        <ele>907.459210</ele>
        <time>2020-08-08T09:19:17.800Z</time>
      </trkpt>
      <trkpt lat="38.530755" lon="-3.020328">
        <ele>907.410800</ele>
        <time>2020-08-08T09:19:20.797Z</time>
      </trkpt>
      <trkpt lat="38.530690" lon="-3.020418">
        <ele>907.374749</ele>
        <time>2020-08-08T09:19:22.808Z</time>
      </trkpt>
      <trkpt lat="38.530617" lon="-3.020517">
        <ele>907.334708</ele>
        <time>2020-08-08T09:19:24.799Z</time>
      </trkpt>
      <trkpt lat="38.530556" lon="-3.020602">
        <ele>907.300759</ele>
        <time>2020-08-08T09:19:26.806Z</time>
      </trkpt>
      <trkpt lat="38.530498" lon="-3.020699">
        <ele>907.264825</ele>
        <time>2020-08-08T09:19:28.799Z</time>
      </trkpt>
      <trkpt lat="38.530413" lon="-3.020816">
        <ele>907.217831</ele>
        <time>2020-08-08T09:19:31.801Z</time>
      </trkpt>
      <trkpt lat="38.530328" lon="-3.020950">
        <ele>907.167056</ele>
        <time>2020-08-08T09:19:34.790Z</time>
      </trkpt>
      <trkpt lat="38.530244" lon="-3.021058">
        <ele>907.122233</ele>
        <time>2020-08-08T09:19:37.806Z</time>
      </trkpt>
      <trkpt lat="38.530174" lon="-3.021147">
        <ele>907.085088</ele>
        <time>2020-08-08T09:19:39.789Z</time>
      </trkpt>
      <trkpt lat="38.530106" lon="-3.021238">
        <ele>907.048050</ele>
        <time>2020-08-08T09:19:41.793Z</time>
      </trkpt>
      <trkpt lat="38.530045" lon="-3.021332">
        <ele>907.012104</ele>
        <time>2020-08-08T09:19:43.790Z</time>
      </trkpt>
      <trkpt lat="38.529984" lon="-3.021427">
        <ele>906.975931</ele>
        <time>2020-08-08T09:19:45.798Z</time>
      </trkpt>
      <trkpt lat="38.529912" lon="-3.021520">
        <ele>906.937421</ele>
        <time>2020-08-08T09:19:47.795Z</time>
      </trkpt>
      <trkpt lat="38.529844" lon="-3.021624">
        <ele>906.897528</ele>
        <time>2020-08-08T09:19:49.813Z</time>
      </trkpt>
      <trkpt lat="38.529775" lon="-3.021725">
        <ele>906.860294</ele>
        <time>2020-08-08T09:19:51.813Z</time>
      </trkpt>
      <trkpt lat="38.529708" lon="-3.021818">
        <ele>906.826051</ele>
        <time>2020-08-08T09:19:53.805Z</time>
      </trkpt>
      <trkpt lat="38.529627" lon="-3.021917">
        <ele>906.787250</ele>
        <time>2020-08-08T09:19:55.805Z</time>
      </trkpt>
      <trkpt lat="38.529549" lon="-3.021998">
        <ele>906.752456</ele>
        <time>2020-08-08T09:19:57.810Z</time>
      </trkpt>
      <trkpt lat="38.529483" lon="-3.022099">
        <ele>906.716812</ele>
        <time>2020-08-08T09:19:59.784Z</time>
      </trkpt>
      <trkpt lat="38.529418" lon="-3.022185">
        <ele>906.684423</ele>
        <time>2020-08-08T09:20:01.804Z</time>
      </trkpt>
      <trkpt lat="38.529350" lon="-3.022283">
        <ele>906.648943</ele>
        <time>2020-08-08T09:20:03.801Z</time>
      </trkpt>
      <trkpt lat="38.529287" lon="-3.022383">
        <ele>906.614166</ele>
        <time>2020-08-08T09:20:05.801Z</time>
      </trkpt>
      <trkpt lat="38.529209" lon="-3.022504">
        <ele>906.571700</ele>
        <time>2020-08-08T09:20:08.800Z</time>
      </trkpt>
      <trkpt lat="38.529139" lon="-3.022616">
        <ele>906.532872</ele>
        <time>2020-08-08T09:20:10.821Z</time>
      </trkpt>
      <trkpt lat="38.529066" lon="-3.022718">
        <ele>906.495428</ele>
        <time>2020-08-08T09:20:12.800Z</time>
      </trkpt>
      <trkpt lat="38.528986" lon="-3.022831">
        <ele>906.454149</ele>
        <time>2020-08-08T09:20:14.800Z</time>
      </trkpt>
      <trkpt lat="38.528912" lon="-3.022911">
        <ele>906.420594</ele>
        <time>2020-08-08T09:20:16.819Z</time>
      </trkpt>
      <trkpt lat="38.528824" lon="-3.022990">
        <ele>906.383363</ele>
        <time>2020-08-08T09:20:18.818Z</time>
      </trkpt>
      <trkpt lat="38.528738" lon="-3.023041">
        <ele>906.350539</ele>
        <time>2020-08-08T09:20:20.794Z</time>
      </trkpt>
      <trkpt lat="38.528657" lon="-3.023106">
        <ele>906.317427</ele>
        <time>2020-08-08T09:20:22.792Z</time>
      </trkpt>
      <trkpt lat="38.528530" lon="-3.023167">
        <ele>906.270454</ele>
        <time>2020-08-08T09:20:25.788Z</time>
      </trkpt>
      <trkpt lat="38.528448" lon="-3.023215">
        <ele>907.391996</ele>
        <time>2020-08-08T09:20:27.791Z</time>
      </trkpt>
      <trkpt lat="38.528346" lon="-3.023258">
        <ele>909.135218</ele>
        <time>2020-08-08T09:20:29.799Z</time>
      </trkpt>
      <trkpt lat="38.528234" lon="-3.023344">
        <ele>911.255793</ele>
        <time>2020-08-08T09:20:32.814Z</time>
      </trkpt>
      <trkpt lat="38.528149" lon="-3.023412">
        <ele>912.883294</ele>
        <time>2020-08-08T09:20:34.798Z</time>
      </trkpt>
      <trkpt lat="38.528058" lon="-3.023475">
        <ele>914.562981</ele>
        <time>2020-08-08T09:20:36.800Z</time>
      </trkpt>
      <trkpt lat="38.527950" lon="-3.023525">
        <ele>916.427304</ele>
        <time>2020-08-08T09:20:38.799Z</time>
      </trkpt>
      <trkpt lat="38.527815" lon="-3.023576">
        <ele>918.712113</ele>
        <time>2020-08-08T09:20:40.793Z</time>
      </trkpt>
      <trkpt lat="38.527666" lon="-3.023603">
        <ele>921.154643</ele>
        <time>2020-08-08T09:20:42.808Z</time>
      </trkpt>
      <trkpt lat="38.527515" lon="-3.023597">
        <ele>923.606639</ele>
        <time>2020-08-08T09:20:44.816Z</time>
      </trkpt>
      <trkpt lat="38.527350" lon="-3.023559">
        <ele>926.327797</ele>
        <time>2020-08-08T09:20:46.790Z</time>
      </trkpt>
      <trkpt lat="38.527197" lon="-3.023495">
        <ele>928.940652</ele>
        <time>2020-08-08T09:20:48.799Z</time>
      </trkpt>
      <trkpt lat="38.527047" lon="-3.023379">
        <ele>931.786106</ele>
        <time>2020-08-08T09:20:50.793Z</time>
      </trkpt>
      <trkpt lat="38.526978" lon="-3.023301">
        <ele>933.281123</ele>
        <time>2020-08-08T09:20:51.785Z</time>
      </trkpt>
      <trkpt lat="38.526903" lon="-3.023237">
        <ele>934.744739</ele>
        <time>2020-08-08T09:20:52.791Z</time>
      </trkpt>
      <trkpt lat="38.526837" lon="-3.023158">
        <ele>934.634316</ele>
        <time>2020-08-08T09:20:53.794Z</time>
      </trkpt>
      <trkpt lat="38.526757" lon="-3.023099">
        <ele>933.004558</ele>
        <time>2020-08-08T09:20:54.801Z</time>
      </trkpt>
      <trkpt lat="38.526685" lon="-3.023028">
        <ele>931.399950</ele>
        <time>2020-08-08T09:20:55.808Z</time>
      </trkpt>
      <trkpt lat="38.526540" lon="-3.022900">
        <ele>928.290490</ele>
        <time>2020-08-08T09:20:57.798Z</time>
      </trkpt>
      <trkpt lat="38.526423" lon="-3.022753">
        <ele>925.395623</ele>
        <time>2020-08-08T09:20:59.800Z</time>
      </trkpt>
      <trkpt lat="38.526284" lon="-3.022626">
        <ele>922.380728</ele>
        <time>2020-08-08T09:21:01.814Z</time>
      </trkpt>
      <trkpt lat="38.526154" lon="-3.022508">
        <ele>919.567264</ele>
        <time>2020-08-08T09:21:03.820Z</time>
      </trkpt>
      <trkpt lat="38.526014" lon="-3.022394">
        <ele>916.638195</ele>
        <time>2020-08-08T09:21:05.024Z</time>
      </trkpt>
      <trkpt lat="38.525870" lon="-3.022301">
        <ele>913.791308</ele>
        <time>2020-08-08T09:21:07.039Z</time>
      </trkpt>
      <trkpt lat="38.525746" lon="-3.022203">
        <ele>911.218794</ele>
        <time>2020-08-08T09:21:09.030Z</time>
      </trkpt>
      <trkpt lat="38.525603" lon="-3.022114">
        <ele>908.412252</ele>
        <time>2020-08-08T09:21:11.031Z</time>
      </trkpt>
      <trkpt lat="38.525466" lon="-3.022014">
        <ele>905.628409</ele>
        <time>2020-08-08T09:21:13.033Z</time>
      </trkpt>
      <trkpt lat="38.525327" lon="-3.021918">
        <ele>903.473609</ele>
        <time>2020-08-08T09:21:15.026Z</time>
      </trkpt>
      <trkpt lat="38.525202" lon="-3.021812">
        <ele>902.736272</ele>
        <time>2020-08-08T09:21:17.046Z</time>
      </trkpt>
      <trkpt lat="38.525076" lon="-3.021702">
        <ele>901.986268</ele>
        <time>2020-08-08T09:21:19.016Z</time>
      </trkpt>
      <trkpt lat="38.525018" lon="-3.021607">
        <ele>901.522873</ele>
        <time>2020-08-08T09:21:20.020Z</time>
      </trkpt>
      <trkpt lat="38.524910" lon="-3.021447">
        <ele>900.710238</ele>
        <time>2020-08-08T09:21:22.008Z</time>
      </trkpt>
      <trkpt lat="38.524804" lon="-3.021270">
        <ele>899.853060</ele>
        <time>2020-08-08T09:21:24.039Z</time>
      </trkpt>
      <trkpt lat="38.524749" lon="-3.021174">
        <ele>899.395490</ele>
        <time>2020-08-08T09:21:25.019Z</time>
      </trkpt>
      <trkpt lat="38.524684" lon="-3.021078">
        <ele>898.907266</ele>
        <time>2020-08-08T09:21:26.015Z</time>
      </trkpt>
      <trkpt lat="38.524544" lon="-3.020936">
        <ele>898.028782</ele>
        <time>2020-08-08T09:21:28.032Z</time>
      </trkpt>
      <trkpt lat="38.524470" lon="-3.020863">
        <ele>897.569316</ele>
        <time>2020-08-08T09:21:29.018Z</time>
      </trkpt>
      <trkpt lat="38.524324" lon="-3.020769">
        <ele>896.765776</ele>
        <time>2020-08-08T09:21:31.022Z</time>
      </trkpt>
      <trkpt lat="38.524183" lon="-3.020688">
        <ele>896.005931</ele>
        <time>2020-08-08T09:21:33.012Z</time>
      </trkpt>
      <trkpt lat="38.524070" lon="-3.020635">
        <ele>895.414282</ele>
        <time>2020-08-08T09:21:35.020Z</time>
      </trkpt>
      <trkpt lat="38.523977" lon="-3.020601">
        <ele>894.938822</ele>
        <time>2020-08-08T09:21:37.049Z</time>
      </trkpt>
      <trkpt lat="38.523858" lon="-3.020547">
        <ele>895.839257</ele>
        <time>2020-08-08T09:21:40.024Z</time>
      </trkpt>
      <trkpt lat="38.523743" lon="-3.020543">
        <ele>896.812707</ele>
        <time>2020-08-08T09:21:44.023Z</time>
      </trkpt>
      <trkpt lat="38.523628" lon="-3.020538">
        <ele>897.786360</ele>
        <time>2020-08-08T09:21:48.035Z</time>
      </trkpt>
      <trkpt lat="38.523532" lon="-3.020549">
        <ele>898.601935</ele>
        <time>2020-08-08T09:21:51.028Z</time>
      </trkpt>
      <trkpt lat="38.523426" lon="-3.020586">
        <ele>899.531714</ele>
        <time>2020-08-08T09:21:54.019Z</time>
      </trkpt>
      <trkpt lat="38.523298" lon="-3.020662">
        <ele>900.725957</ele>
        <time>2020-08-08T09:21:57.026Z</time>
      </trkpt>
      <trkpt lat="38.523193" lon="-3.020732">
        <ele>901.728018</ele>
        <time>2020-08-08T09:21:59.041Z</time>
      </trkpt>
      <trkpt lat="38.523091" lon="-3.020799">
        <ele>902.698405</ele>
        <time>2020-08-08T09:22:01.014Z</time>
      </trkpt>
      <trkpt lat="38.522994" lon="-3.020880">
        <ele>903.678821</ele>
        <time>2020-08-08T09:22:03.024Z</time>
      </trkpt>
      <trkpt lat="38.522877" lon="-3.020966">
        <ele>904.820861</ele>
        <time>2020-08-08T09:22:05.049Z</time>
      </trkpt>
      <trkpt lat="38.522748" lon="-3.021061">
        <ele>906.080627</ele>
        <time>2020-08-08T09:22:07.058Z</time>
      </trkpt>
      <trkpt lat="38.522618" lon="-3.021160">
        <ele>907.361082</ele>
        <time>2020-08-08T09:22:09.026Z</time>
      </trkpt>
      <trkpt lat="38.522502" lon="-3.021289">
        <ele>908.662136</ele>
        <time>2020-08-08T09:22:11.021Z</time>
      </trkpt>
      <trkpt lat="38.522386" lon="-3.021451">
        <ele>910.077155</ele>
        <time>2020-08-08T09:22:13.024Z</time>
      </trkpt>
      <trkpt lat="38.522272" lon="-3.021626">
        <ele>908.570135</ele>
        <time>2020-08-08T09:22:15.036Z</time>
      </trkpt>
      <trkpt lat="38.522213" lon="-3.021716">
        <ele>907.793081</ele>
        <time>2020-08-08T09:22:16.024Z</time>
      </trkpt>
      <trkpt lat="38.522154" lon="-3.021802">
        <ele>907.036126</ele>
        <time>2020-08-08T09:22:17.028Z</time>
      </trkpt>
      <trkpt lat="38.522090" lon="-3.021891">
        <ele>906.236139</ele>
        <time>2020-08-08T09:22:18.023Z</time>
      </trkpt>
      <trkpt lat="38.522026" lon="-3.021984">
        <ele>905.416468</ele>
        <time>2020-08-08T09:22:19.017Z</time>
      </trkpt>
      <trkpt lat="38.521951" lon="-3.022076">
        <ele>904.537172</ele>
        <time>2020-08-08T09:22:20.022Z</time>
      </trkpt>
      <trkpt lat="38.521884" lon="-3.022170">
        <ele>903.695642</ele>
        <time>2020-08-08T09:22:21.029Z</time>
      </trkpt>
      <trkpt lat="38.521821" lon="-3.022275">
        <ele>902.819949</ele>
        <time>2020-08-08T09:22:22.031Z</time>
      </trkpt>
      <trkpt lat="38.521757" lon="-3.022374">
        <ele>901.970056</ele>
        <time>2020-08-08T09:22:23.023Z</time>
      </trkpt>
      <trkpt lat="38.521697" lon="-3.022469">
        <ele>901.162069</ele>
        <time>2020-08-08T09:22:24.046Z</time>
      </trkpt>
      <trkpt lat="38.521625" lon="-3.022569">
        <ele>900.262690</ele>
        <time>2020-08-08T09:22:25.014Z</time>
      </trkpt>
      <trkpt lat="38.521562" lon="-3.022674">
        <ele>899.386996</ele>
        <time>2020-08-08T09:22:26.021Z</time>
      </trkpt>
      <trkpt lat="38.521492" lon="-3.022777">
        <ele>898.484092</ele>
        <time>2020-08-08T09:22:27.022Z</time>
      </trkpt>
      <trkpt lat="38.521427" lon="-3.022871">
        <ele>897.653858</ele>
        <time>2020-08-08T09:22:28.028Z</time>
      </trkpt>
      <trkpt lat="38.521367" lon="-3.022970">
        <ele>896.825103</ele>
        <time>2020-08-08T09:22:29.009Z</time>
      </trkpt>
      <trkpt lat="38.521301" lon="-3.023063">
        <ele>895.994156</ele>
        <time>2020-08-08T09:22:30.030Z</time>
      </trkpt>
      <trkpt lat="38.521232" lon="-3.023155">
        <ele>895.150741</ele>
        <time>2020-08-08T09:22:31.020Z</time>
      </trkpt>
      <trkpt lat="38.521167" lon="-3.023234">
        <ele>894.537080</ele>
        <time>2020-08-08T09:22:32.030Z</time>
      </trkpt>
      <trkpt lat="38.521095" lon="-3.023312">
        <ele>893.974922</ele>
        <time>2020-08-08T09:22:33.018Z</time>
      </trkpt>
      <trkpt lat="38.521024" lon="-3.023386">
        <ele>893.429260</ele>
        <time>2020-08-08T09:22:34.019Z</time>
      </trkpt>
      <trkpt lat="38.520891" lon="-3.023518">
        <ele>892.426315</ele>
        <time>2020-08-08T09:22:36.032Z</time>
      </trkpt>
      <trkpt lat="38.520774" lon="-3.023638">
        <ele>891.532822</ele>
        <time>2020-08-08T09:22:38.020Z</time>
      </trkpt>
      <trkpt lat="38.520630" lon="-3.023745">
        <ele>890.540730</ele>
        <time>2020-08-08T09:22:40.020Z</time>
      </trkpt>
      <trkpt lat="38.520555" lon="-3.023870">
        <ele>889.806661</ele>
        <time>2020-08-08T09:22:42.027Z</time>
      </trkpt>
      <trkpt lat="38.520422" lon="-3.023978">
        <ele>888.868140</ele>
        <time>2020-08-08T09:22:44.023Z</time>
      </trkpt>
      <trkpt lat="38.520298" lon="-3.024075">
        <ele>888.002231</ele>
        <time>2020-08-08T09:22:46.025Z</time>
      </trkpt>
      <trkpt lat="38.520189" lon="-3.024176">
        <ele>887.200352</ele>
        <time>2020-08-08T09:22:48.027Z</time>
      </trkpt>
      <trkpt lat="38.520065" lon="-3.024271">
        <ele>886.339271</ele>
        <time>2020-08-08T09:22:50.019Z</time>
      </trkpt>
      <trkpt lat="38.519946" lon="-3.024364">
        <ele>885.508492</ele>
        <time>2020-08-08T09:22:52.028Z</time>
      </trkpt>
      <trkpt lat="38.519828" lon="-3.024465">
        <ele>884.662626</ele>
        <time>2020-08-08T09:22:54.026Z</time>
      </trkpt>
      <trkpt lat="38.519720" lon="-3.024567">
        <ele>884.663457</ele>
        <time>2020-08-08T09:22:56.021Z</time>
      </trkpt>
      <trkpt lat="38.519625" lon="-3.024640">
        <ele>885.727915</ele>
        <time>2020-08-08T09:22:58.027Z</time>
      </trkpt>
      <trkpt lat="38.519508" lon="-3.024722">
        <ele>887.009287</ele>
        <time>2020-08-08T09:23:00.032Z</time>
      </trkpt>
      <trkpt lat="38.519358" lon="-3.024778">
        <ele>888.509917</ele>
        <time>2020-08-08T09:23:02.028Z</time>
      </trkpt>
      <trkpt lat="38.519199" lon="-3.024816">
        <ele>890.063246</ele>
        <time>2020-08-08T09:23:04.023Z</time>
      </trkpt>
      <trkpt lat="38.519019" lon="-3.024818">
        <ele>891.791838</ele>
        <time>2020-08-08T09:23:06.029Z</time>
      </trkpt>
      <trkpt lat="38.518926" lon="-3.024809">
        <ele>892.687467</ele>
        <time>2020-08-08T09:23:07.013Z</time>
      </trkpt>
      <trkpt lat="38.518828" lon="-3.024804">
        <ele>893.629303</ele>
        <time>2020-08-08T09:23:08.019Z</time>
      </trkpt>
      <trkpt lat="38.518732" lon="-3.024795">
        <ele>894.553661</ele>
        <time>2020-08-08T09:23:09.019Z</time>
      </trkpt>
      <trkpt lat="38.518635" lon="-3.024781">
        <ele>895.491065</ele>
        <time>2020-08-08T09:23:10.023Z</time>
      </trkpt>
      <trkpt lat="38.518543" lon="-3.024777">
        <ele>896.375045</ele>
        <time>2020-08-08T09:23:11.018Z</time>
      </trkpt>
      <trkpt lat="38.518447" lon="-3.024774">
        <ele>897.297202</ele>
        <time>2020-08-08T09:23:12.031Z</time>
      </trkpt>
      <trkpt lat="38.518350" lon="-3.024768">
        <ele>898.229776</ele>
        <time>2020-08-08T09:23:13.013Z</time>
      </trkpt>
      <trkpt lat="38.518256" lon="-3.024762">
        <ele>899.133576</ele>
        <time>2020-08-08T09:23:14.022Z</time>
      </trkpt>
      <trkpt lat="38.518090" lon="-3.024744">
        <ele>900.733388</ele>
        <time>2020-08-08T09:23:16.016Z</time>
      </trkpt>
      <trkpt lat="38.517919" lon="-3.024737">
        <ele>900.833689</ele>
        <time>2020-08-08T09:23:18.030Z</time>
      </trkpt>
      <trkpt lat="38.517763" lon="-3.024736">
        <ele>899.859568</ele>
        <time>2020-08-08T09:23:20.018Z</time>
      </trkpt>
      <trkpt lat="38.517614" lon="-3.024740">
        <ele>898.928964</ele>
        <time>2020-08-08T09:23:22.026Z</time>
      </trkpt>
      <trkpt lat="38.517475" lon="-3.024738">
        <ele>898.060953</ele>
        <time>2020-08-08T09:23:24.013Z</time>
      </trkpt>
      <trkpt lat="38.517330" lon="-3.024716">
        <ele>897.149174</ele>
        <time>2020-08-08T09:23:26.040Z</time>
      </trkpt>
      <trkpt lat="38.517202" lon="-3.024699">
        <ele>896.345601</ele>
        <time>2020-08-08T09:23:28.022Z</time>
      </trkpt>
      <trkpt lat="38.517080" lon="-3.024688">
        <ele>895.581905</ele>
        <time>2020-08-08T09:23:30.031Z</time>
      </trkpt>
      <trkpt lat="38.516960" lon="-3.024682">
        <ele>894.832017</ele>
        <time>2020-08-08T09:23:32.025Z</time>
      </trkpt>
      <trkpt lat="38.516846" lon="-3.024665">
        <ele>894.115339</ele>
        <time>2020-08-08T09:23:34.032Z</time>
      </trkpt>
      <trkpt lat="38.516742" lon="-3.024660">
        <ele>893.465474</ele>
        <time>2020-08-08T09:23:36.039Z</time>
      </trkpt>
      <trkpt lat="38.516635" lon="-3.024664">
        <ele>892.797049</ele>
        <time>2020-08-08T09:23:38.028Z</time>
      </trkpt>
      <trkpt lat="38.516534" lon="-3.024680">
        <ele>892.161550</ele>
        <time>2020-08-08T09:23:40.013Z</time>
      </trkpt>
      <trkpt lat="38.516443" lon="-3.024697">
        <ele>891.587282</ele>
        <time>2020-08-08T09:23:42.033Z</time>
      </trkpt>
      <trkpt lat="38.516306" lon="-3.024736">
        <ele>890.710851</ele>
        <time>2020-08-08T09:23:45.023Z</time>
      </trkpt>
      <trkpt lat="38.516184" lon="-3.024798">
        <ele>889.964284</ele>
        <time>2020-08-08T09:23:48.019Z</time>
      </trkpt>
      <trkpt lat="38.516075" lon="-3.024831">
        <ele>889.425307</ele>
        <time>2020-08-08T09:23:51.029Z</time>
      </trkpt>
      <trkpt lat="38.515952" lon="-3.024874">
        <ele>888.811741</ele>
        <time>2020-08-08T09:23:54.025Z</time>
      </trkpt>
      <trkpt lat="38.515834" lon="-3.024918">
        <ele>888.220302</ele>
        <time>2020-08-08T09:23:57.038Z</time>
      </trkpt>
      <trkpt lat="38.515720" lon="-3.024945">
        <ele>887.662442</ele>
        <time>2020-08-08T09:24:00.009Z</time>
      </trkpt>
      <trkpt lat="38.515602" lon="-3.024961">
        <ele>887.091489</ele>
        <time>2020-08-08T09:24:03.015Z</time>
      </trkpt>
      <trkpt lat="38.515478" lon="-3.024977">
        <ele>886.491819</ele>
        <time>2020-08-08T09:24:06.022Z</time>
      </trkpt>
      <trkpt lat="38.515343" lon="-3.024970">
        <ele>885.841720</ele>
        <time>2020-08-08T09:24:09.015Z</time>
      </trkpt>
      <trkpt lat="38.515244" lon="-3.024952">
        <ele>885.360577</ele>
        <time>2020-08-08T09:24:11.020Z</time>
      </trkpt>
      <trkpt lat="38.515142" lon="-3.024949">
        <ele>884.869665</ele>
        <time>2020-08-08T09:24:13.013Z</time>
      </trkpt>
      <trkpt lat="38.515013" lon="-3.024940">
        <ele>884.248046</ele>
        <time>2020-08-08T09:24:16.022Z</time>
      </trkpt>
      <trkpt lat="38.514923" lon="-3.024935">
        <ele>883.814594</ele>
        <time>2020-08-08T09:24:18.026Z</time>
      </trkpt>
      <trkpt lat="38.514802" lon="-3.024945">
        <ele>883.231176</ele>
        <time>2020-08-08T09:24:21.025Z</time>
      </trkpt>
      <trkpt lat="38.514670" lon="-3.024956">
        <ele>882.594698</ele>
        <time>2020-08-08T09:24:24.010Z</time>
      </trkpt>
      <trkpt lat="38.514570" lon="-3.024958">
        <ele>882.113480</ele>
        <time>2020-08-08T09:24:26.027Z</time>
      </trkpt>
      <trkpt lat="38.514477" lon="-3.024978">
        <ele>881.659712</ele>
        <time>2020-08-08T09:24:28.023Z</time>
      </trkpt>
      <trkpt lat="38.514386" lon="-3.025006">
        <ele>881.270525</ele>
        <time>2020-08-08T09:24:30.029Z</time>
      </trkpt>
      <trkpt lat="38.514293" lon="-3.025039">
        <ele>880.888088</ele>
        <time>2020-08-08T09:24:32.038Z</time>
      </trkpt>
      <trkpt lat="38.514190" lon="-3.025085">
        <ele>880.455767</ele>
        <time>2020-08-08T09:24:34.034Z</time>
      </trkpt>
      <trkpt lat="38.514078" lon="-3.025169">
        <ele>879.941213</ele>
        <time>2020-08-08T09:24:36.036Z</time>
      </trkpt>
      <trkpt lat="38.513949" lon="-3.025246">
        <ele>879.377071</ele>
        <time>2020-08-08T09:24:38.029Z</time>
      </trkpt>
      <trkpt lat="38.513814" lon="-3.025328">
        <ele>878.784815</ele>
        <time>2020-08-08T09:24:40.024Z</time>
      </trkpt>
      <trkpt lat="38.513670" lon="-3.025411">
        <ele>878.158894</ele>
        <time>2020-08-08T09:24:42.032Z</time>
      </trkpt>
      <trkpt lat="38.513527" lon="-3.025486">
        <ele>877.546423</ele>
        <time>2020-08-08T09:24:44.033Z</time>
      </trkpt>
      <trkpt lat="38.513369" lon="-3.025536">
        <ele>876.901467</ele>
        <time>2020-08-08T09:24:46.006Z</time>
      </trkpt>
      <trkpt lat="38.513232" lon="-3.025535">
        <ele>876.358618</ele>
        <time>2020-08-08T09:24:48.035Z</time>
      </trkpt>
      <trkpt lat="38.513131" lon="-3.025529">
        <ele>875.957990</ele>
        <time>2020-08-08T09:24:50.032Z</time>
      </trkpt>
      <trkpt lat="38.513032" lon="-3.025508">
        <ele>875.560352</ele>
        <time>2020-08-08T09:24:52.024Z</time>
      </trkpt>
      <trkpt lat="38.512931" lon="-3.025457">
        <ele>875.130051</ele>
        <time>2020-08-08T09:24:56.022Z</time>
      </trkpt>
      <trkpt lat="38.512845" lon="-3.025423">
        <ele>874.773358</ele>
        <time>2020-08-08T09:25:00.034Z</time>
      </trkpt>
      <trkpt lat="38.512747" lon="-3.025365">
        <ele>874.430239</ele>
        <time>2020-08-08T09:25:04.033Z</time>
      </trkpt>
      <trkpt lat="38.512642" lon="-3.025287">
        <ele>874.436601</ele>
        <time>2020-08-08T09:25:08.020Z</time>
      </trkpt>
      <trkpt lat="38.512562" lon="-3.025231">
        <ele>874.441379</ele>
        <time>2020-08-08T09:25:11.014Z</time>
      </trkpt>
      <trkpt lat="38.512475" lon="-3.025182">
        <ele>874.446360</ele>
        <time>2020-08-08T09:25:14.031Z</time>
      </trkpt>
      <trkpt lat="38.512359" lon="-3.025152">
        <ele>874.452559</ele>
        <time>2020-08-08T09:25:18.026Z</time>
      </trkpt>
      <trkpt lat="38.512259" lon="-3.025125">
        <ele>874.457913</ele>
        <time>2020-08-08T09:25:22.023Z</time>
      </trkpt>
      <trkpt lat="38.512155" lon="-3.025109">
        <ele>874.463401</ele>
        <time>2020-08-08T09:25:26.052Z</time>
      </trkpt>
      <trkpt lat="38.512055" lon="-3.025085">
        <ele>874.468731</ele>
        <time>2020-08-08T09:25:30.024Z</time>
      </trkpt>
      <trkpt lat="38.511955" lon="-3.025064">
        <ele>874.474040</ele>
        <time>2020-08-08T09:25:34.009Z</time>
      </trkpt>
      <trkpt lat="38.511859" lon="-3.025046">
        <ele>874.479122</ele>
        <time>2020-08-08T09:25:38.030Z</time>
      </trkpt>
      <trkpt lat="38.511755" lon="-3.025031">
        <ele>874.484605</ele>
        <time>2020-08-08T09:25:42.029Z</time>
      </trkpt>
      <trkpt lat="38.511648" lon="-3.024996">
        <ele>874.490391</ele>
        <time>2020-08-08T09:25:47.030Z</time>
      </trkpt>
      <trkpt lat="38.511547" lon="-3.024955">
        <ele>874.495942</ele>
        <time>2020-08-08T09:25:52.035Z</time>
      </trkpt>
      <trkpt lat="38.511446" lon="-3.024913">
        <ele>874.501506</ele>
        <time>2020-08-08T09:25:57.028Z</time>
      </trkpt>
      <trkpt lat="38.511351" lon="-3.024874">
        <ele>874.506733</ele>
        <time>2020-08-08T09:26:01.036Z</time>
      </trkpt>
      <trkpt lat="38.511258" lon="-3.024831">
        <ele>874.511914</ele>
        <time>2020-08-08T09:26:05.015Z</time>
      </trkpt>
      <trkpt lat="38.511172" lon="-3.024793">
        <ele>874.516680</ele>
        <time>2020-08-08T09:26:09.029Z</time>
      </trkpt>
      <trkpt lat="38.511061" lon="-3.024742">
        <ele>874.522859</ele>
        <time>2020-08-08T09:26:13.029Z</time>
      </trkpt>
      <trkpt lat="38.510968" lon="-3.024699">
        <ele>875.153584</ele>
        <time>2020-08-08T09:26:17.018Z</time>
      </trkpt>
      <trkpt lat="38.510863" lon="-3.024674">
        <ele>875.905931</ele>
        <time>2020-08-08T09:26:22.012Z</time>
      </trkpt>
      <trkpt lat="38.510771" lon="-3.024671">
        <ele>876.554189</ele>
        <time>2020-08-08T09:26:26.024Z</time>
      </trkpt>
      <trkpt lat="38.510677" lon="-3.024669">
        <ele>877.216417</ele>
        <time>2020-08-08T09:26:30.027Z</time>
      </trkpt>
      <trkpt lat="38.510574" lon="-3.024675">
        <ele>877.942702</ele>
        <time>2020-08-08T09:26:35.029Z</time>
      </trkpt>
      <trkpt lat="38.510479" lon="-3.024671">
        <ele>878.612245</ele>
        <time>2020-08-08T09:26:39.032Z</time>
      </trkpt>
      <trkpt lat="38.510384" lon="-3.024673">
        <ele>879.281515</ele>
        <time>2020-08-08T09:26:43.044Z</time>
      </trkpt>
      <trkpt lat="38.510279" lon="-3.024669">
        <ele>880.021463</ele>
        <time>2020-08-08T09:26:47.007Z</time>
      </trkpt>
      <trkpt lat="38.510169" lon="-3.024689">
        <ele>880.804105</ele>
        <time>2020-08-08T09:26:52.024Z</time>
      </trkpt>
      <trkpt lat="38.510070" lon="-3.024707">
        <ele>881.508484</ele>
        <time>2020-08-08T09:26:57.043Z</time>
      </trkpt>
      <trkpt lat="38.509974" lon="-3.024735">
        <ele>882.202095</ele>
        <time>2020-08-08T09:27:01.032Z</time>
      </trkpt>
      <trkpt lat="38.509880" lon="-3.024752">
        <ele>882.870828</ele>
        <time>2020-08-08T09:27:05.016Z</time>
      </trkpt>
      <trkpt lat="38.509765" lon="-3.024777">
        <ele>883.692525</ele>
        <time>2020-08-08T09:27:10.026Z</time>
      </trkpt>
      <trkpt lat="38.509671" lon="-3.024774">
        <ele>884.354867</ele>
        <time>2020-08-08T09:27:14.015Z</time>
      </trkpt>
      <trkpt lat="38.509571" lon="-3.024768">
        <ele>885.060043</ele>
        <time>2020-08-08T09:27:18.024Z</time>
      </trkpt>
      <trkpt lat="38.509460" lon="-3.024757">
        <ele>885.844274</ele>
        <time>2020-08-08T09:27:23.026Z</time>
      </trkpt>
      <trkpt lat="38.509361" lon="-3.024756">
        <ele>886.541651</ele>
        <time>2020-08-08T09:27:27.024Z</time>
      </trkpt>
      <trkpt lat="38.509267" lon="-3.024745">
        <ele>887.225615</ele>
        <time>2020-08-08T09:27:31.021Z</time>
      </trkpt>
      <trkpt lat="38.509155" lon="-3.024714">
        <ele>889.166796</ele>
        <time>2020-08-08T09:27:35.034Z</time>
      </trkpt>
      <trkpt lat="38.509056" lon="-3.024667">
        <ele>890.955758</ele>
        <time>2020-08-08T09:27:38.020Z</time>
      </trkpt>
      <trkpt lat="38.508970" lon="-3.024616">
        <ele>892.561739</ele>
        <time>2020-08-08T09:27:41.035Z</time>
      </trkpt>
      <trkpt lat="38.508884" lon="-3.024567">
        <ele>894.156743</ele>
        <time>2020-08-08T09:27:44.027Z</time>
      </trkpt>
      <trkpt lat="38.508797" lon="-3.024526">
        <ele>895.727468</ele>
        <time>2020-08-08T09:27:47.020Z</time>
      </trkpt>
      <trkpt lat="38.508697" lon="-3.024470">
        <ele>897.576890</ele>
        <time>2020-08-08T09:27:51.039Z</time>
      </trkpt>
      <trkpt lat="38.508602" lon="-3.024439">
        <ele>899.237750</ele>
        <time>2020-08-08T09:27:54.028Z</time>
      </trkpt>
      <trkpt lat="38.508489" lon="-3.024424">
        <ele>901.162180</ele>
        <time>2020-08-08T09:27:57.016Z</time>
      </trkpt>
      <trkpt lat="38.508358" lon="-3.024469">
        <ele>903.459987</ele>
        <time>2020-08-08T09:28:00.037Z</time>
      </trkpt>
      <trkpt lat="38.508253" lon="-3.024509">
        <ele>905.315951</ele>
        <time>2020-08-08T09:28:02.018Z</time>
      </trkpt>
      <trkpt lat="38.508147" lon="-3.024558">
        <ele>907.225371</ele>
        <time>2020-08-08T09:28:04.013Z</time>
      </trkpt>
      <trkpt lat="38.508058" lon="-3.024629">
        <ele>909.002600</ele>
        <time>2020-08-08T09:28:06.015Z</time>
      </trkpt>
      <trkpt lat="38.507961" lon="-3.024764">
        <ele>911.431998</ele>
        <time>2020-08-08T09:28:09.017Z</time>
      </trkpt>
      <trkpt lat="38.507905" lon="-3.024856">
        <ele>912.976986</ele>
        <time>2020-08-08T09:28:11.009Z</time>
      </trkpt>
      <trkpt lat="38.507834" lon="-3.024970">
        <ele>914.908278</ele>
        <time>2020-08-08T09:28:14.028Z</time>
      </trkpt>
      <trkpt lat="38.507786" lon="-3.025090">
        <ele>916.694682</ele>
        <time>2020-08-08T09:28:17.019Z</time>
      </trkpt>
      <trkpt lat="38.507757" lon="-3.025235">
        <ele>918.605390</ele>
        <time>2020-08-08T09:28:21.031Z</time>
      </trkpt>
      <trkpt lat="38.507725" lon="-3.025351">
        <ele>920.118675</ele>
        <time>2020-08-08T09:28:24.034Z</time>
      </trkpt>
      <trkpt lat="38.507693" lon="-3.025474">
        <ele>921.713442</ele>
        <time>2020-08-08T09:28:27.031Z</time>
      </trkpt>
      <trkpt lat="38.507659" lon="-3.025585">
        <ele>923.180021</ele>
        <time>2020-08-08T09:28:30.022Z</time>
      </trkpt>
      <trkpt lat="38.507629" lon="-3.025698">
        <ele>924.648145</ele>
        <time>2020-08-08T09:28:33.020Z</time>
      </trkpt>
      <trkpt lat="38.507600" lon="-3.025812">
        <ele>926.122990</ele>
        <time>2020-08-08T09:28:36.013Z</time>
      </trkpt>
      <trkpt lat="38.507574" lon="-3.025922">
        <ele>927.536760</ele>
        <time>2020-08-08T09:28:39.038Z</time>
      </trkpt>
      <trkpt lat="38.507536" lon="-3.026050">
        <ele>929.221128</ele>
        <time>2020-08-08T09:28:42.019Z</time>
      </trkpt>
      <trkpt lat="38.507492" lon="-3.026183">
        <ele>930.997716</ele>
        <time>2020-08-08T09:28:45.029Z</time>
      </trkpt>
      <trkpt lat="38.507424" lon="-3.026309">
        <ele>932.880882</ele>
        <time>2020-08-08T09:28:48.039Z</time>
      </trkpt>
      <trkpt lat="38.507350" lon="-3.026387">
        <ele>934.389080</ele>
        <time>2020-08-08T09:28:50.017Z</time>
      </trkpt>
      <trkpt lat="38.507274" lon="-3.026454">
        <ele>935.840763</ele>
        <time>2020-08-08T09:28:52.021Z</time>
      </trkpt>
      <trkpt lat="38.507170" lon="-3.026525">
        <ele>937.694639</ele>
        <time>2020-08-08T09:28:54.018Z</time>
      </trkpt>
      <trkpt lat="38.507068" lon="-3.026613">
        <ele>939.629627</ele>
        <time>2020-08-08T09:28:56.012Z</time>
      </trkpt>
      <trkpt lat="38.506945" lon="-3.026691">
        <ele>941.788549</ele>
        <time>2020-08-08T09:28:58.035Z</time>
      </trkpt>
      <trkpt lat="38.506837" lon="-3.026799">
        <ele>943.944718</ele>
        <time>2020-08-08T09:29:00.022Z</time>
      </trkpt>
      <trkpt lat="38.506763" lon="-3.026924">
        <ele>945.873184</ele>
        <time>2020-08-08T09:29:02.015Z</time>
      </trkpt>
      <trkpt lat="38.506701" lon="-3.027049">
        <ele>946.098994</ele>
        <time>2020-08-08T09:29:04.024Z</time>
      </trkpt>
      <trkpt lat="38.506626" lon="-3.027190">
        <ele>946.288909</ele>
        <time>2020-08-08T09:29:07.024Z</time>
      </trkpt>
      <trkpt lat="38.506561" lon="-3.027319">
        <ele>946.459820</ele>
        <time>2020-08-08T09:29:11.025Z</time>
      </trkpt>
      <trkpt lat="38.506501" lon="-3.027405">
        <ele>946.588165</ele>
        <time>2020-08-08T09:29:14.022Z</time>
      </trkpt>
      <trkpt lat="38.506426" lon="-3.027508">
        <ele>946.744889</ele>
        <time>2020-08-08T09:29:18.022Z</time>
      </trkpt>
      <trkpt lat="38.506338" lon="-3.027605">
        <ele>946.910320</ele>
        <time>2020-08-08T09:29:22.018Z</time>
      </trkpt>
      <trkpt lat="38.506255" lon="-3.027699">
        <ele>947.068193</ele>
        <time>2020-08-08T09:29:26.013Z</time>
      </trkpt>
      <trkpt lat="38.506165" lon="-3.027798">
        <ele>947.237235</ele>
        <time>2020-08-08T09:29:30.028Z</time>
      </trkpt>
      <trkpt lat="38.506096" lon="-3.027878">
        <ele>947.369859</ele>
        <time>2020-08-08T09:29:33.022Z</time>
      </trkpt>
      <trkpt lat="38.506020" lon="-3.027958">
        <ele>947.510023</ele>
        <time>2020-08-08T09:29:36.018Z</time>
      </trkpt>
      <trkpt lat="38.505941" lon="-3.028034">
        <ele>947.650784</ele>
        <time>2020-08-08T09:29:39.031Z</time>
      </trkpt>
      <trkpt lat="38.505852" lon="-3.028126">
        <ele>947.813737</ele>
        <time>2020-08-08T09:29:42.013Z</time>
      </trkpt>
      <trkpt lat="38.505762" lon="-3.028227">
        <ele>947.984242</ele>
        <time>2020-08-08T09:29:45.009Z</time>
      </trkpt>
      <trkpt lat="38.505677" lon="-3.028331">
        <ele>948.151758</ele>
        <time>2020-08-08T09:29:48.017Z</time>
      </trkpt>
      <trkpt lat="38.505589" lon="-3.028436">
        <ele>948.323144</ele>
        <time>2020-08-08T09:29:51.020Z</time>
      </trkpt>
      <trkpt lat="38.505506" lon="-3.028532">
        <ele>948.482504</ele>
        <time>2020-08-08T09:29:54.026Z</time>
      </trkpt>
      <trkpt lat="38.505426" lon="-3.028624">
        <ele>945.780186</ele>
        <time>2020-08-08T09:29:57.026Z</time>
      </trkpt>
      <trkpt lat="38.505351" lon="-3.028713">
        <ele>942.847196</ele>
        <time>2020-08-08T09:30:00.007Z</time>
      </trkpt>
      <trkpt lat="38.505260" lon="-3.028805">
        <ele>939.522055</ele>
        <time>2020-08-08T09:30:03.023Z</time>
      </trkpt>
      <trkpt lat="38.505162" lon="-3.028895">
        <ele>936.063740</ele>
        <time>2020-08-08T09:30:06.026Z</time>
      </trkpt>
      <trkpt lat="38.505051" lon="-3.028976">
        <ele>932.400794</ele>
        <time>2020-08-08T09:30:09.015Z</time>
      </trkpt>
      <trkpt lat="38.504940" lon="-3.029038">
        <ele>928.929362</ele>
        <time>2020-08-08T09:30:12.035Z</time>
      </trkpt>
      <trkpt lat="38.504840" lon="-3.029085">
        <ele>925.876056</ele>
        <time>2020-08-08T09:30:15.032Z</time>
      </trkpt>
      <trkpt lat="38.504743" lon="-3.029135">
        <ele>922.878774</ele>
        <time>2020-08-08T09:30:18.040Z</time>
      </trkpt>
      <trkpt lat="38.504630" lon="-3.029186">
        <ele>919.444584</ele>
        <time>2020-08-08T09:30:21.023Z</time>
      </trkpt>
      <trkpt lat="38.504529" lon="-3.029208">
        <ele>916.508556</ele>
        <time>2020-08-08T09:30:23.034Z</time>
      </trkpt>
      <trkpt lat="38.504431" lon="-3.029236">
        <ele>913.630904</ele>
        <time>2020-08-08T09:30:25.026Z</time>
      </trkpt>
      <trkpt lat="38.504300" lon="-3.029251">
        <ele>909.861895</ele>
        <time>2020-08-08T09:30:27.019Z</time>
      </trkpt>
      <trkpt lat="38.504160" lon="-3.029274">
        <ele>905.817002</ele>
        <time>2020-08-08T09:30:29.032Z</time>
      </trkpt>
      <trkpt lat="38.504002" lon="-3.029275">
        <ele>901.289260</ele>
        <time>2020-08-08T09:30:31.030Z</time>
      </trkpt>
      <trkpt lat="38.503847" lon="-3.029289">
        <ele>896.967744</ele>
        <time>2020-08-08T09:30:33.033Z</time>
      </trkpt>
      <trkpt lat="38.503698" lon="-3.029294">
        <ele>897.302027</ele>
        <time>2020-08-08T09:30:35.034Z</time>
      </trkpt>
      <trkpt lat="38.503560" lon="-3.029295">
        <ele>897.611530</ele>
        <time>2020-08-08T09:30:37.005Z</time>
      </trkpt>
      <trkpt lat="38.503447" lon="-3.029282">
        <ele>897.865985</ele>
        <time>2020-08-08T09:30:39.023Z</time>
      </trkpt>
      <trkpt lat="38.503354" lon="-3.029274">
        <ele>898.075032</ele>
        <time>2020-08-08T09:30:41.024Z</time>
      </trkpt>
      <trkpt lat="38.503253" lon="-3.029290">
        <ele>898.303283</ele>
        <time>2020-08-08T09:30:44.025Z</time>
      </trkpt>
      <trkpt lat="38.503155" lon="-3.029291">
        <ele>898.523079</ele>
        <time>2020-08-08T09:30:48.017Z</time>
      </trkpt>
      <trkpt lat="38.503048" lon="-3.029292">
        <ele>898.763058</ele>
        <time>2020-08-08T09:30:52.012Z</time>
      </trkpt>
      <trkpt lat="38.502942" lon="-3.029291">
        <ele>899.000795</ele>
        <time>2020-08-08T09:30:56.011Z</time>
      </trkpt>
      <trkpt lat="38.502838" lon="-3.029303">
        <ele>899.234989</ele>
        <time>2020-08-08T09:31:00.011Z</time>
      </trkpt>
      <trkpt lat="38.502724" lon="-3.029308">
        <ele>899.490812</ele>
        <time>2020-08-08T09:31:04.028Z</time>
      </trkpt>
      <trkpt lat="38.502607" lon="-3.029315">
        <ele>899.753500</ele>
        <time>2020-08-08T09:31:08.015Z</time>
      </trkpt>
      <trkpt lat="38.502497" lon="-3.029325">
        <ele>900.000825</ele>
        <time>2020-08-08T09:31:12.016Z</time>
      </trkpt>
      <trkpt lat="38.502392" lon="-3.029356">
        <ele>900.242517</ele>
        <time>2020-08-08T09:31:16.015Z</time>
      </trkpt>
      <trkpt lat="38.502294" lon="-3.029394">
        <ele>900.472202</ele>
        <time>2020-08-08T09:31:20.012Z</time>
      </trkpt>
      <trkpt lat="38.502190" lon="-3.029436">
        <ele>900.716818</ele>
        <time>2020-08-08T09:31:25.011Z</time>
      </trkpt>
      <trkpt lat="38.502097" lon="-3.029492">
        <ele>900.947392</ele>
        <time>2020-08-08T09:31:30.017Z</time>
      </trkpt>
      <trkpt lat="38.501998" lon="-3.029551">
        <ele>900.831684</ele>
        <time>2020-08-08T09:31:36.018Z</time>
      </trkpt>
      <trkpt lat="38.501915" lon="-3.029603">
        <ele>900.665625</ele>
        <time>2020-08-08T09:31:41.027Z</time>
      </trkpt>
      <trkpt lat="38.501821" lon="-3.029655">
        <ele>900.481618</ele>
        <time>2020-08-08T09:31:46.023Z</time>
      </trkpt>
      <trkpt lat="38.501732" lon="-3.029717">
        <ele>900.299521</ele>
        <time>2020-08-08T09:31:51.023Z</time>
      </trkpt>
      <trkpt lat="38.501647" lon="-3.029787">
        <ele>900.117862</ele>
        <time>2020-08-08T09:31:56.021Z</time>
      </trkpt>
      <trkpt lat="38.501564" lon="-3.029838">
        <ele>899.952417</ele>
        <time>2020-08-08T09:32:00.024Z</time>
      </trkpt>
      <trkpt lat="38.501474" lon="-3.029876">
        <ele>899.782142</ele>
        <time>2020-08-08T09:32:05.015Z</time>
      </trkpt>
      <trkpt lat="38.501389" lon="-3.029921">
        <ele>899.616861</ele>
        <time>2020-08-08T09:32:10.016Z</time>
      </trkpt>
      <trkpt lat="38.501302" lon="-3.029956">
        <ele>899.453010</ele>
        <time>2020-08-08T09:32:15.007Z</time>
      </trkpt>
      <trkpt lat="38.501201" lon="-3.029958">
        <ele>899.271551</ele>
        <time>2020-08-08T09:32:20.018Z</time>
      </trkpt>
      <trkpt lat="38.501103" lon="-3.029954">
        <ele>899.095413</ele>
        <time>2020-08-08T09:32:24.017Z</time>
      </trkpt>
      <trkpt lat="38.501010" lon="-3.029947">
        <ele>898.928057</ele>
        <time>2020-08-08T09:32:28.007Z</time>
      </trkpt>
      <trkpt lat="38.500911" lon="-3.029940">
        <ele>898.749941</ele>
        <time>2020-08-08T09:32:32.016Z</time>
      </trkpt>
      <trkpt lat="38.500818" lon="-3.029913">
        <ele>898.578617</ele>
        <time>2020-08-08T09:32:36.011Z</time>
      </trkpt>
      <trkpt lat="38.500722" lon="-3.029898">
        <ele>898.404877</ele>
        <time>2020-08-08T09:32:41.008Z</time>
      </trkpt>
      <trkpt lat="38.500615" lon="-3.029874">
        <ele>898.209722</ele>
        <time>2020-08-08T09:32:46.009Z</time>
      </trkpt>
      <trkpt lat="38.500524" lon="-3.029859">
        <ele>898.044894</ele>
        <time>2020-08-08T09:32:50.013Z</time>
      </trkpt>
      <trkpt lat="38.500426" lon="-3.029830">
        <ele>897.864187</ele>
        <time>2020-08-08T09:32:54.018Z</time>
      </trkpt>
      <trkpt lat="38.500328" lon="-3.029797">
        <ele>898.125327</ele>
        <time>2020-08-08T09:32:58.022Z</time>
      </trkpt>
      <trkpt lat="38.500230" lon="-3.029756">
        <ele>898.980948</ele>
        <time>2020-08-08T09:33:02.015Z</time>
      </trkpt>
      <trkpt lat="38.500137" lon="-3.029696">
        <ele>899.845388</ele>
        <time>2020-08-08T09:33:06.017Z</time>
      </trkpt>
      <trkpt lat="38.500050" lon="-3.029625">
        <ele>900.701931</ele>
        <time>2020-08-08T09:33:10.019Z</time>
      </trkpt>
      <trkpt lat="38.499982" lon="-3.029549">
        <ele>901.451533</ele>
        <time>2020-08-08T09:33:14.047Z</time>
      </trkpt>
      <trkpt lat="38.499917" lon="-3.029461">
        <ele>902.237294</ele>
        <time>2020-08-08T09:33:18.029Z</time>
      </trkpt>
      <trkpt lat="38.499840" lon="-3.029359">
        <ele>903.157565</ele>
        <time>2020-08-08T09:33:23.021Z</time>
      </trkpt>
      <trkpt lat="38.499782" lon="-3.029263">
        <ele>903.945102</ele>
        <time>2020-08-08T09:33:27.021Z</time>
      </trkpt>
      <trkpt lat="38.499735" lon="-3.029139">
        <ele>904.839779</ele>
        <time>2020-08-08T09:33:32.012Z</time>
      </trkpt>
      <trkpt lat="38.499681" lon="-3.029012">
        <ele>905.778328</ele>
        <time>2020-08-08T09:33:37.033Z</time>
      </trkpt>
      <trkpt lat="38.499628" lon="-3.028914">
        <ele>906.551869</ele>
        <time>2020-08-08T09:33:41.027Z</time>
      </trkpt>
      <trkpt lat="38.499574" lon="-3.028808">
        <ele>907.373180</ele>
        <time>2020-08-08T09:33:45.025Z</time>
      </trkpt>
      <trkpt lat="38.499511" lon="-3.028716">
        <ele>908.167005</ele>
        <time>2020-08-08T09:33:49.027Z</time>
      </trkpt>
      <trkpt lat="38.499410" lon="-3.028656">
        <ele>909.091186</ele>
        <time>2020-08-08T09:33:54.039Z</time>
      </trkpt>
      <trkpt lat="38.499314" lon="-3.028598">
        <ele>909.972290</ele>
        <time>2020-08-08T09:33:59.036Z</time>
      </trkpt>
      <trkpt lat="38.499219" lon="-3.028551">
        <ele>910.817566</ele>
        <time>2020-08-08T09:34:04.032Z</time>
      </trkpt>
      <trkpt lat="38.499118" lon="-3.028525">
        <ele>911.672441</ele>
        <time>2020-08-08T09:34:09.019Z</time>
      </trkpt>
      <trkpt lat="38.499017" lon="-3.028505">
        <ele>912.520483</ele>
        <time>2020-08-08T09:34:13.027Z</time>
      </trkpt>
      <trkpt lat="38.498904" lon="-3.028484">
        <ele>911.962748</ele>
        <time>2020-08-08T09:34:18.022Z</time>
      </trkpt>
      <trkpt lat="38.498810" lon="-3.028471">
        <ele>911.238935</ele>
        <time>2020-08-08T09:34:22.023Z</time>
      </trkpt>
      <trkpt lat="38.498711" lon="-3.028455">
        <ele>910.475009</ele>
        <time>2020-08-08T09:34:26.033Z</time>
      </trkpt>
      <trkpt lat="38.498620" lon="-3.028423">
        <ele>909.752465</ele>
        <time>2020-08-08T09:34:30.026Z</time>
      </trkpt>
      <trkpt lat="38.498528" lon="-3.028393">
        <ele>909.025592</ele>
        <time>2020-08-08T09:34:34.026Z</time>
      </trkpt>
      <trkpt lat="38.498422" lon="-3.028374">
        <ele>908.206172</ele>
        <time>2020-08-08T09:34:38.027Z</time>
      </trkpt>
      <trkpt lat="38.498315" lon="-3.028337">
        <ele>907.357574</ele>
        <time>2020-08-08T09:34:42.010Z</time>
      </trkpt>
      <trkpt lat="38.498216" lon="-3.028301">
        <ele>906.569593</ele>
        <time>2020-08-08T09:34:46.012Z</time>
      </trkpt>
      <trkpt lat="38.498116" lon="-3.028261">
        <ele>905.767415</ele>
        <time>2020-08-08T09:34:50.011Z</time>
      </trkpt>
      <trkpt lat="38.498013" lon="-3.028221">
        <ele>904.943291</ele>
        <time>2020-08-08T09:34:54.028Z</time>
      </trkpt>
      <trkpt lat="38.497907" lon="-3.028177">
        <ele>904.090068</ele>
        <time>2020-08-08T09:34:58.022Z</time>
      </trkpt>
      <trkpt lat="38.497796" lon="-3.028131">
        <ele>903.196740</ele>
        <time>2020-08-08T09:35:02.009Z</time>
      </trkpt>
      <trkpt lat="38.497678" lon="-3.028103">
        <ele>902.277954</ele>
        <time>2020-08-08T09:35:06.028Z</time>
      </trkpt>
      <trkpt lat="38.497570" lon="-3.028074">
        <ele>901.433108</ele>
        <time>2020-08-08T09:35:10.026Z</time>
      </trkpt>
      <trkpt lat="38.497479" lon="-3.028061">
        <ele>900.732123</ele>
        <time>2020-08-08T09:35:13.025Z</time>
      </trkpt>
      <trkpt lat="38.497389" lon="-3.028062">
        <ele>900.043109</ele>
        <time>2020-08-08T09:35:16.021Z</time>
      </trkpt>
      <trkpt lat="38.497274" lon="-3.028080">
        <ele>899.156154</ele>
        <time>2020-08-08T09:35:20.024Z</time>
      </trkpt>
      <trkpt lat="38.497169" lon="-3.028108">
        <ele>898.973749</ele>
        <time>2020-08-08T09:35:24.024Z</time>
      </trkpt>
      <trkpt lat="38.497059" lon="-3.028142">
        <ele>899.060388</ele>
        <time>2020-08-08T09:35:29.022Z</time>
      </trkpt>
      <trkpt lat="38.496949" lon="-3.028183">
        <ele>899.148109</ele>
        <time>2020-08-08T09:35:33.014Z</time>
      </trkpt>
      <trkpt lat="38.496860" lon="-3.028217">
        <ele>899.219223</ele>
        <time>2020-08-08T09:35:37.005Z</time>
      </trkpt>
      <trkpt lat="38.496762" lon="-3.028233">
        <ele>899.294857</ele>
        <time>2020-08-08T09:35:41.020Z</time>
      </trkpt>
      <trkpt lat="38.496654" lon="-3.028249">
        <ele>899.378091</ele>
        <time>2020-08-08T09:35:45.023Z</time>
      </trkpt>
      <trkpt lat="38.496545" lon="-3.028277">
        <ele>899.463206</ele>
        <time>2020-08-08T09:35:49.019Z</time>
      </trkpt>
      <trkpt lat="38.496429" lon="-3.028288">
        <ele>899.552254</ele>
        <time>2020-08-08T09:35:53.008Z</time>
      </trkpt>
      <trkpt lat="38.496325" lon="-3.028305">
        <ele>899.632520</ele>
        <time>2020-08-08T09:35:56.012Z</time>
      </trkpt>
      <trkpt lat="38.496231" lon="-3.028337">
        <ele>899.706993</ele>
        <time>2020-08-08T09:35:59.045Z</time>
      </trkpt>
      <trkpt lat="38.496141" lon="-3.028369">
        <ele>899.778510</ele>
        <time>2020-08-08T09:36:02.012Z</time>
      </trkpt>
      <trkpt lat="38.496044" lon="-3.028402">
        <ele>899.855356</ele>
        <time>2020-08-08T09:36:05.016Z</time>
      </trkpt>
      <trkpt lat="38.495955" lon="-3.028420">
        <ele>899.924339</ele>
        <time>2020-08-08T09:36:08.015Z</time>
      </trkpt>
      <trkpt lat="38.495867" lon="-3.028442">
        <ele>899.992985</ele>
        <time>2020-08-08T09:36:11.009Z</time>
      </trkpt>
      <trkpt lat="38.495769" lon="-3.028467">
        <ele>900.069490</ele>
        <time>2020-08-08T09:36:14.031Z</time>
      </trkpt>
      <trkpt lat="38.495653" lon="-3.028494">
        <ele>900.159755</ele>
        <time>2020-08-08T09:36:17.035Z</time>
      </trkpt>
      <trkpt lat="38.495529" lon="-3.028550">
        <ele>900.260439</ele>
        <time>2020-08-08T09:36:20.011Z</time>
      </trkpt>
      <trkpt lat="38.495428" lon="-3.028590">
        <ele>900.512067</ele>
        <time>2020-08-08T09:36:22.010Z</time>
      </trkpt>
      <trkpt lat="38.495339" lon="-3.028616">
        <ele>900.826648</ele>
        <time>2020-08-08T09:36:24.011Z</time>
      </trkpt>
      <trkpt lat="38.495239" lon="-3.028665">
        <ele>901.195687</ele>
        <time>2020-08-08T09:36:26.023Z</time>
      </trkpt>
      <trkpt lat="38.495133" lon="-3.028725">
        <ele>901.595168</ele>
        <time>2020-08-08T09:36:28.018Z</time>
      </trkpt>
      <trkpt lat="38.495036" lon="-3.028786">
        <ele>901.967691</ele>
        <time>2020-08-08T09:36:30.026Z</time>
      </trkpt>
      <trkpt lat="38.494949" lon="-3.028882">
        <ele>902.363787</ele>
        <time>2020-08-08T09:36:32.011Z</time>
      </trkpt>
      <trkpt lat="38.494857" lon="-3.028952">
        <ele>902.732743</ele>
        <time>2020-08-08T09:36:34.010Z</time>
      </trkpt>
      <trkpt lat="38.494779" lon="-3.029012">
        <ele>903.046457</ele>
        <time>2020-08-08T09:36:36.011Z</time>
      </trkpt>
      <trkpt lat="38.494700" lon="-3.029072">
        <ele>903.363128</ele>
        <time>2020-08-08T09:36:39.021Z</time>
      </trkpt>
      <trkpt lat="38.494613" lon="-3.029146">
        <ele>903.723255</ele>
        <time>2020-08-08T09:36:42.021Z</time>
      </trkpt>
      <trkpt lat="38.494520" lon="-3.029228">
        <ele>904.112602</ele>
        <time>2020-08-08T09:36:45.020Z</time>
      </trkpt>
      <trkpt lat="38.494428" lon="-3.029323">
        <ele>904.520192</ele>
        <time>2020-08-08T09:36:48.012Z</time>
      </trkpt>
      <trkpt lat="38.494334" lon="-3.029422">
        <ele>904.939942</ele>
        <time>2020-08-08T09:36:51.015Z</time>
      </trkpt>
      <trkpt lat="38.494240" lon="-3.029530">
        <ele>905.375534</ele>
        <time>2020-08-08T09:36:54.022Z</time>
      </trkpt>
      <trkpt lat="38.494148" lon="-3.029577">
        <ele>905.716939</ele>
        <time>2020-08-08T09:36:56.031Z</time>
      </trkpt>
      <trkpt lat="38.494047" lon="-3.029633">
        <ele>906.096311</ele>
        <time>2020-08-08T09:36:58.027Z</time>
      </trkpt>
      <trkpt lat="38.493937" lon="-3.029690">
        <ele>906.482043</ele>
        <time>2020-08-08T09:37:01.381Z</time>
      </trkpt>
      <trkpt lat="38.493813" lon="-3.029737">
        <ele>906.241050</ele>
        <time>2020-08-08T09:37:03.354Z</time>
      </trkpt>
      <trkpt lat="38.493670" lon="-3.029770">
        <ele>905.970297</ele>
        <time>2020-08-08T09:37:05.351Z</time>
      </trkpt>
      <trkpt lat="38.493523" lon="-3.029808">
        <ele>905.690852</ele>
        <time>2020-08-08T09:37:07.376Z</time>
      </trkpt>
      <trkpt lat="38.493391" lon="-3.029838">
        <ele>905.441044</ele>
        <time>2020-08-08T09:37:09.350Z</time>
      </trkpt>
      <trkpt lat="38.493250" lon="-3.029865">
        <ele>905.175394</ele>
        <time>2020-08-08T09:37:11.334Z</time>
      </trkpt>
      <trkpt lat="38.493106" lon="-3.029922">
        <ele>904.894508</ele>
        <time>2020-08-08T09:37:13.366Z</time>
      </trkpt>
      <trkpt lat="38.492977" lon="-3.029946">
        <ele>904.651616</ele>
        <time>2020-08-08T09:37:15.351Z</time>
      </trkpt>
      <trkpt lat="38.492840" lon="-3.029982">
        <ele>904.391010</ele>
        <time>2020-08-08T09:37:17.351Z</time>
      </trkpt>
      <trkpt lat="38.492682" lon="-3.029971">
        <ele>904.096183</ele>
        <time>2020-08-08T09:37:19.352Z</time>
      </trkpt>
      <trkpt lat="38.492522" lon="-3.029969">
        <ele>903.798052</ele>
        <time>2020-08-08T09:37:21.337Z</time>
      </trkpt>
      <trkpt lat="38.492350" lon="-3.029962">
        <ele>903.477413</ele>
        <time>2020-08-08T09:37:23.401Z</time>
      </trkpt>
      <trkpt lat="38.492257" lon="-3.029953">
        <ele>903.303637</ele>
        <time>2020-08-08T09:37:24.352Z</time>
      </trkpt>
      <trkpt lat="38.492080" lon="-3.029944">
        <ele>902.668605</ele>
        <time>2020-08-08T09:37:26.388Z</time>
      </trkpt>
      <trkpt lat="38.491909" lon="-3.029935">
        <ele>901.761531</ele>
        <time>2020-08-08T09:37:28.352Z</time>
      </trkpt>
      <trkpt lat="38.491741" lon="-3.029935">
        <ele>900.871125</ele>
        <time>2020-08-08T09:37:30.360Z</time>
      </trkpt>
      <trkpt lat="38.491576" lon="-3.029935">
        <ele>899.996619</ele>
        <time>2020-08-08T09:37:32.341Z</time>
      </trkpt>
      <trkpt lat="38.491424" lon="-3.029970">
        <ele>899.178035</ele>
        <time>2020-08-08T09:37:34.350Z</time>
      </trkpt>
      <trkpt lat="38.491270" lon="-3.030029">
        <ele>898.325923</ele>
        <time>2020-08-08T09:37:36.348Z</time>
      </trkpt>
      <trkpt lat="38.491130" lon="-3.030124">
        <ele>897.485755</ele>
        <time>2020-08-08T09:37:38.358Z</time>
      </trkpt>
      <trkpt lat="38.491005" lon="-3.030258">
        <ele>896.620934</ele>
        <time>2020-08-08T09:37:40.351Z</time>
      </trkpt>
      <trkpt lat="38.490924" lon="-3.030449">
        <ele>895.719768</ele>
        <time>2020-08-08T09:37:42.340Z</time>
      </trkpt>
      <trkpt lat="38.490842" lon="-3.030627">
        <ele>894.862954</ele>
        <time>2020-08-08T09:37:44.362Z</time>
      </trkpt>
      <trkpt lat="38.490783" lon="-3.030827">
        <ele>893.976306</ele>
        <time>2020-08-08T09:37:46.351Z</time>
      </trkpt>
      <trkpt lat="38.490757" lon="-3.030940">
        <ele>893.541951</ele>
        <time>2020-08-08T09:37:47.351Z</time>
      </trkpt>
      <trkpt lat="38.490731" lon="-3.031053">
        <ele>893.277309</ele>
        <time>2020-08-08T09:37:48.353Z</time>
      </trkpt>
      <trkpt lat="38.490692" lon="-3.031157">
        <ele>893.018197</ele>
        <time>2020-08-08T09:37:49.355Z</time>
      </trkpt>
      <trkpt lat="38.490622" lon="-3.031367">
        <ele>892.505341</ele>
        <time>2020-08-08T09:37:51.346Z</time>
      </trkpt>
      <trkpt lat="38.490586" lon="-3.031475">
        <ele>892.241586</ele>
        <time>2020-08-08T09:37:52.363Z</time>
      </trkpt>
      <trkpt lat="38.490547" lon="-3.031582">
        <ele>891.976379</ele>
        <time>2020-08-08T09:37:53.348Z</time>
      </trkpt>
      <trkpt lat="38.490511" lon="-3.031696">
        <ele>891.700170</ele>
        <time>2020-08-08T09:37:54.352Z</time>
      </trkpt>
      <trkpt lat="38.490471" lon="-3.031806">
        <ele>891.427639</ele>
        <time>2020-08-08T09:37:55.361Z</time>
      </trkpt>
      <trkpt lat="38.490434" lon="-3.031918">
        <ele>891.154489</ele>
        <time>2020-08-08T09:37:56.360Z</time>
      </trkpt>
      <trkpt lat="38.490392" lon="-3.032027">
        <ele>890.881507</ele>
        <time>2020-08-08T09:37:57.353Z</time>
      </trkpt>
      <trkpt lat="38.490351" lon="-3.032141">
        <ele>890.599613</ele>
        <time>2020-08-08T09:37:58.351Z</time>
      </trkpt>
      <trkpt lat="38.490311" lon="-3.032249">
        <ele>890.331151</ele>
        <time>2020-08-08T09:37:59.344Z</time>
      </trkpt>
      <trkpt lat="38.490264" lon="-3.032361">
        <ele>890.045610</ele>
        <time>2020-08-08T09:38:00.357Z</time>
      </trkpt>
      <trkpt lat="38.490216" lon="-3.032467">
        <ele>889.770450</ele>
        <time>2020-08-08T09:38:01.351Z</time>
      </trkpt>
      <trkpt lat="38.490156" lon="-3.032571">
        <ele>889.480153</ele>
        <time>2020-08-08T09:38:02.353Z</time>
      </trkpt>
      <trkpt lat="38.490085" lon="-3.032673">
        <ele>889.173449</ele>
        <time>2020-08-08T09:38:03.352Z</time>
      </trkpt>
      <trkpt lat="38.490009" lon="-3.032758">
        <ele>888.883492</ele>
        <time>2020-08-08T09:38:04.350Z</time>
      </trkpt>
      <trkpt lat="38.489929" lon="-3.032840">
        <ele>888.589064</ele>
        <time>2020-08-08T09:38:05.351Z</time>
      </trkpt>
      <trkpt lat="38.489836" lon="-3.032904">
        <ele>888.358901</ele>
        <time>2020-08-08T09:38:06.348Z</time>
      </trkpt>
      <trkpt lat="38.489740" lon="-3.032966">
        <ele>888.193908</ele>
        <time>2020-08-08T09:38:07.341Z</time>
      </trkpt>
      <trkpt lat="38.489642" lon="-3.033009">
        <ele>888.034974</ele>
        <time>2020-08-08T09:38:08.356Z</time>
      </trkpt>
      <trkpt lat="38.489543" lon="-3.033058">
        <ele>887.872127</ele>
        <time>2020-08-08T09:38:09.352Z</time>
      </trkpt>
      <trkpt lat="38.489453" lon="-3.033095">
        <ele>887.727110</ele>
        <time>2020-08-08T09:38:10.354Z</time>
      </trkpt>
      <trkpt lat="38.489369" lon="-3.033164">
        <ele>887.573935</ele>
        <time>2020-08-08T09:38:11.355Z</time>
      </trkpt>
      <trkpt lat="38.489296" lon="-3.033232">
        <ele>887.435362</ele>
        <time>2020-08-08T09:38:12.348Z</time>
      </trkpt>
      <trkpt lat="38.489224" lon="-3.033316">
        <ele>887.285808</ele>
        <time>2020-08-08T09:38:13.357Z</time>
      </trkpt>
      <trkpt lat="38.489155" lon="-3.033407">
        <ele>887.133699</ele>
        <time>2020-08-08T09:38:14.356Z</time>
      </trkpt>
      <trkpt lat="38.489081" lon="-3.033495">
        <ele>886.978633</ele>
        <time>2020-08-08T09:38:15.341Z</time>
      </trkpt>
      <trkpt lat="38.489025" lon="-3.033605">
        <ele>886.821094</ele>
        <time>2020-08-08T09:38:16.336Z</time>
      </trkpt>
      <trkpt lat="38.488959" lon="-3.033691">
        <ele>886.676495</ele>
        <time>2020-08-08T09:38:17.335Z</time>
      </trkpt>
      <trkpt lat="38.488888" lon="-3.033779">
        <ele>886.524765</ele>
        <time>2020-08-08T09:38:18.336Z</time>
      </trkpt>
      <trkpt lat="38.488814" lon="-3.033860">
        <ele>886.375299</ele>
        <time>2020-08-08T09:38:19.366Z</time>
      </trkpt>
      <trkpt lat="38.488728" lon="-3.033924">
        <ele>886.222642</ele>
        <time>2020-08-08T09:38:20.343Z</time>
      </trkpt>
      <trkpt lat="38.488642" lon="-3.033994">
        <ele>886.066235</ele>
        <time>2020-08-08T09:38:21.343Z</time>
      </trkpt>
      <trkpt lat="38.488553" lon="-3.034055">
        <ele>885.911319</ele>
        <time>2020-08-08T09:38:22.340Z</time>
      </trkpt>
      <trkpt lat="38.488453" lon="-3.034112">
        <ele>885.743361</ele>
        <time>2020-08-08T09:38:23.348Z</time>
      </trkpt>
      <trkpt lat="38.488352" lon="-3.034171">
        <ele>885.313684</ele>
        <time>2020-08-08T09:38:24.341Z</time>
      </trkpt>
      <trkpt lat="38.488251" lon="-3.034235">
        <ele>884.736375</ele>
        <time>2020-08-08T09:38:25.339Z</time>
      </trkpt>
      <trkpt lat="38.488154" lon="-3.034287">
        <ele>884.197713</ele>
        <time>2020-08-08T09:38:26.348Z</time>
      </trkpt>
      <trkpt lat="38.488054" lon="-3.034347">
        <ele>883.631986</ele>
        <time>2020-08-08T09:38:27.336Z</time>
      </trkpt>
      <trkpt lat="38.487958" lon="-3.034403">
        <ele>883.091582</ele>
        <time>2020-08-08T09:38:28.335Z</time>
      </trkpt>
      <trkpt lat="38.487872" lon="-3.034454">
        <ele>882.606074</ele>
        <time>2020-08-08T09:38:29.338Z</time>
      </trkpt>
      <trkpt lat="38.487705" lon="-3.034538">
        <ele>881.687030</ele>
        <time>2020-08-08T09:38:31.352Z</time>
      </trkpt>
      <trkpt lat="38.487540" lon="-3.034629">
        <ele>880.766751</ele>
        <time>2020-08-08T09:38:33.362Z</time>
      </trkpt>
      <trkpt lat="38.487452" lon="-3.034672">
        <ele>880.284296</ele>
        <time>2020-08-08T09:38:34.350Z</time>
      </trkpt>
      <trkpt lat="38.487360" lon="-3.034696">
        <ele>879.803473</ele>
        <time>2020-08-08T09:38:35.340Z</time>
      </trkpt>
      <trkpt lat="38.487276" lon="-3.034757">
        <ele>879.308704</ele>
        <time>2020-08-08T09:38:36.345Z</time>
      </trkpt>
      <trkpt lat="38.487192" lon="-3.034804">
        <ele>878.839123</ele>
        <time>2020-08-08T09:38:37.350Z</time>
      </trkpt>
      <trkpt lat="38.487115" lon="-3.034886">
        <ele>878.325809</ele>
        <time>2020-08-08T09:38:38.340Z</time>
      </trkpt>
      <trkpt lat="38.487036" lon="-3.034953">
        <ele>877.840251</ele>
        <time>2020-08-08T09:38:39.344Z</time>
      </trkpt>
      <trkpt lat="38.486967" lon="-3.035048">
        <ele>877.320797</ele>
        <time>2020-08-08T09:38:40.352Z</time>
      </trkpt>
      <trkpt lat="38.486908" lon="-3.035154">
        <ele>876.799462</ele>
        <time>2020-08-08T09:38:41.342Z</time>
      </trkpt>
      <trkpt lat="38.486877" lon="-3.035279">
        <ele>876.211289</ele>
        <time>2020-08-08T09:38:42.347Z</time>
      </trkpt>
      <trkpt lat="38.486835" lon="-3.035392">
        <ele>875.552768</ele>
        <time>2020-08-08T09:38:43.343Z</time>
      </trkpt>
      <trkpt lat="38.486768" lon="-3.035612">
        <ele>874.310054</ele>
        <time>2020-08-08T09:38:45.347Z</time>
      </trkpt>
      <trkpt lat="38.486725" lon="-3.035735">
        <ele>873.600901</ele>
        <time>2020-08-08T09:38:46.347Z</time>
      </trkpt>
      <trkpt lat="38.486690" lon="-3.035846">
        <ele>872.970935</ele>
        <time>2020-08-08T09:38:47.342Z</time>
      </trkpt>
      <trkpt lat="38.486646" lon="-3.035965">
        <ele>872.278109</ele>
        <time>2020-08-08T09:38:48.352Z</time>
      </trkpt>
      <trkpt lat="38.486590" lon="-3.036076">
        <ele>871.582915</ele>
        <time>2020-08-08T09:38:49.351Z</time>
      </trkpt>
      <trkpt lat="38.486513" lon="-3.036179">
        <ele>870.833130</ele>
        <time>2020-08-08T09:38:50.353Z</time>
      </trkpt>
      <trkpt lat="38.486430" lon="-3.036271">
        <ele>870.094106</ele>
        <time>2020-08-08T09:38:51.341Z</time>
      </trkpt>
      <trkpt lat="38.486351" lon="-3.036349">
        <ele>869.422622</ele>
        <time>2020-08-08T09:38:52.349Z</time>
      </trkpt>
      <trkpt lat="38.486255" lon="-3.036404">
        <ele>868.715037</ele>
        <time>2020-08-08T09:38:53.336Z</time>
      </trkpt>
      <trkpt lat="38.486158" lon="-3.036431">
        <ele>868.047371</ele>
        <time>2020-08-08T09:38:54.362Z</time>
      </trkpt>
      <trkpt lat="38.486060" lon="-3.036439">
        <ele>867.386941</ele>
        <time>2020-08-08T09:38:55.348Z</time>
      </trkpt>
      <trkpt lat="38.485966" lon="-3.036432">
        <ele>866.753684</ele>
        <time>2020-08-08T09:38:56.349Z</time>
      </trkpt>
      <trkpt lat="38.485848" lon="-3.036428">
        <ele>865.959811</ele>
        <time>2020-08-08T09:38:57.360Z</time>
      </trkpt>
      <trkpt lat="38.485743" lon="-3.036418">
        <ele>865.251688</ele>
        <time>2020-08-08T09:38:58.358Z</time>
      </trkpt>
      <trkpt lat="38.485638" lon="-3.036402">
        <ele>864.540519</ele>
        <time>2020-08-08T09:38:59.345Z</time>
      </trkpt>
      <trkpt lat="38.485539" lon="-3.036391">
        <ele>863.931013</ele>
        <time>2020-08-08T09:39:00.343Z</time>
      </trkpt>
      <trkpt lat="38.485440" lon="-3.036383">
        <ele>863.341586</ele>
        <time>2020-08-08T09:39:01.361Z</time>
      </trkpt>
      <trkpt lat="38.485338" lon="-3.036383">
        <ele>862.735508</ele>
        <time>2020-08-08T09:39:02.346Z</time>
      </trkpt>
      <trkpt lat="38.485240" lon="-3.036375">
        <ele>862.152012</ele>
        <time>2020-08-08T09:39:03.362Z</time>
      </trkpt>
      <trkpt lat="38.485142" lon="-3.036365">
        <ele>861.567848</ele>
        <time>2020-08-08T09:39:04.368Z</time>
      </trkpt>
      <trkpt lat="38.485041" lon="-3.036351">
        <ele>860.964190</ele>
        <time>2020-08-08T09:39:05.342Z</time>
      </trkpt>
      <trkpt lat="38.484950" lon="-3.036343">
        <ele>860.422195</ele>
        <time>2020-08-08T09:39:06.356Z</time>
      </trkpt>
      <trkpt lat="38.484852" lon="-3.036344">
        <ele>859.839868</ele>
        <time>2020-08-08T09:39:07.338Z</time>
      </trkpt>
      <trkpt lat="38.484761" lon="-3.036331">
        <ele>859.295781</ele>
        <time>2020-08-08T09:39:08.341Z</time>
      </trkpt>
      <trkpt lat="38.484670" lon="-3.036311">
        <ele>858.747122</ele>
        <time>2020-08-08T09:39:09.338Z</time>
      </trkpt>
      <trkpt lat="38.484579" lon="-3.036276">
        <ele>858.182432</ele>
        <time>2020-08-08T09:39:10.360Z</time>
      </trkpt>
      <trkpt lat="38.484416" lon="-3.036192">
        <ele>857.138063</ele>
        <time>2020-08-08T09:39:12.341Z</time>
      </trkpt>
      <trkpt lat="38.484330" lon="-3.036137">
        <ele>856.566600</ele>
        <time>2020-08-08T09:39:13.354Z</time>
      </trkpt>
      <trkpt lat="38.484247" lon="-3.036085">
        <ele>856.017305</ele>
        <time>2020-08-08T09:39:14.350Z</time>
      </trkpt>
      <trkpt lat="38.484083" lon="-3.036012">
        <ele>854.985369</ele>
        <time>2020-08-08T09:39:16.348Z</time>
      </trkpt>
      <trkpt lat="38.483911" lon="-3.036011">
        <ele>853.963346</ele>
        <time>2020-08-08T09:39:18.351Z</time>
      </trkpt>
      <trkpt lat="38.483813" lon="-3.036029">
        <ele>853.375354</ele>
        <time>2020-08-08T09:39:19.358Z</time>
      </trkpt>
      <trkpt lat="38.483716" lon="-3.036038">
        <ele>852.798029</ele>
        <time>2020-08-08T09:39:20.351Z</time>
      </trkpt>
      <trkpt lat="38.483620" lon="-3.036058">
        <ele>852.220628</ele>
        <time>2020-08-08T09:39:21.362Z</time>
      </trkpt>
      <trkpt lat="38.483517" lon="-3.036070">
        <ele>851.606665</ele>
        <time>2020-08-08T09:39:22.370Z</time>
      </trkpt>
      <trkpt lat="38.483419" lon="-3.036069">
        <ele>851.024902</ele>
        <time>2020-08-08T09:39:23.354Z</time>
      </trkpt>
      <trkpt lat="38.483322" lon="-3.036039">
        <ele>850.432459</ele>
        <time>2020-08-08T09:39:24.341Z</time>
      </trkpt>
      <trkpt lat="38.483226" lon="-3.035992">
        <ele>849.822170</ele>
        <time>2020-08-08T09:39:25.352Z</time>
      </trkpt>
      <trkpt lat="38.483139" lon="-3.035959">
        <ele>849.283438</ele>
        <time>2020-08-08T09:39:26.340Z</time>
      </trkpt>
      <trkpt lat="38.483042" lon="-3.035925">
        <ele>848.686348</ele>
        <time>2020-08-08T09:39:27.340Z</time>
      </trkpt>
      <trkpt lat="38.482953" lon="-3.035905">
        <ele>848.149917</ele>
        <time>2020-08-08T09:39:28.347Z</time>
      </trkpt>
      <trkpt lat="38.482855" lon="-3.035898">
        <ele>847.567264</ele>
        <time>2020-08-08T09:39:29.345Z</time>
      </trkpt>
      <trkpt lat="38.482740" lon="-3.035894">
        <ele>846.884351</ele>
        <time>2020-08-08T09:39:30.335Z</time>
      </trkpt>
      <trkpt lat="38.482639" lon="-3.035915">
        <ele>846.276909</ele>
        <time>2020-08-08T09:39:31.333Z</time>
      </trkpt>
      <trkpt lat="38.482528" lon="-3.035933">
        <ele>845.612706</ele>
        <time>2020-08-08T09:39:32.344Z</time>
      </trkpt>
      <trkpt lat="38.482424" lon="-3.035985">
        <ele>844.949741</ele>
        <time>2020-08-08T09:39:33.357Z</time>
      </trkpt>
      <trkpt lat="38.482323" lon="-3.036022">
        <ele>844.326022</ele>
        <time>2020-08-08T09:39:34.341Z</time>
      </trkpt>
      <trkpt lat="38.482212" lon="-3.036044">
        <ele>843.659224</ele>
        <time>2020-08-08T09:39:35.344Z</time>
      </trkpt>
      <trkpt lat="38.482105" lon="-3.036046">
        <ele>843.023985</ele>
        <time>2020-08-08T09:39:36.339Z</time>
      </trkpt>
      <trkpt lat="38.482006" lon="-3.036062">
        <ele>842.547450</ele>
        <time>2020-08-08T09:39:37.339Z</time>
      </trkpt>
      <trkpt lat="38.481902" lon="-3.036025">
        <ele>842.034351</ele>
        <time>2020-08-08T09:39:38.352Z</time>
      </trkpt>
      <trkpt lat="38.481803" lon="-3.035994">
        <ele>841.549896</ele>
        <time>2020-08-08T09:39:39.351Z</time>
      </trkpt>
      <trkpt lat="38.481639" lon="-3.035908">
        <ele>840.707325</ele>
        <time>2020-08-08T09:39:41.344Z</time>
      </trkpt>
      <trkpt lat="38.481550" lon="-3.035867">
        <ele>840.257664</ele>
        <time>2020-08-08T09:39:42.337Z</time>
      </trkpt>
      <trkpt lat="38.481453" lon="-3.035828">
        <ele>839.774349</ele>
        <time>2020-08-08T09:39:43.341Z</time>
      </trkpt>
      <trkpt lat="38.481274" lon="-3.035783">
        <ele>838.907285</ele>
        <time>2020-08-08T09:39:45.349Z</time>
      </trkpt>
      <trkpt lat="38.481181" lon="-3.035783">
        <ele>838.465277</ele>
        <time>2020-08-08T09:39:46.344Z</time>
      </trkpt>
      <trkpt lat="38.481087" lon="-3.035790">
        <ele>838.017757</ele>
        <time>2020-08-08T09:39:47.361Z</time>
      </trkpt>
      <trkpt lat="38.480903" lon="-3.035795">
        <ele>837.143049</ele>
        <time>2020-08-08T09:39:49.364Z</time>
      </trkpt>
      <trkpt lat="38.480808" lon="-3.035817">
        <ele>836.684176</ele>
        <time>2020-08-08T09:39:50.351Z</time>
      </trkpt>
      <trkpt lat="38.480642" lon="-3.035843">
        <ele>835.889307</ele>
        <time>2020-08-08T09:39:52.330Z</time>
      </trkpt>
      <trkpt lat="38.480470" lon="-3.035875">
        <ele>835.063205</ele>
        <time>2020-08-08T09:39:54.342Z</time>
      </trkpt>
      <trkpt lat="38.480294" lon="-3.035897">
        <ele>834.316840</ele>
        <time>2020-08-08T09:39:56.356Z</time>
      </trkpt>
      <trkpt lat="38.480199" lon="-3.035912">
        <ele>834.039284</ele>
        <time>2020-08-08T09:39:57.350Z</time>
      </trkpt>
      <trkpt lat="38.480099" lon="-3.035919">
        <ele>833.748892</ele>
        <time>2020-08-08T09:39:58.353Z</time>
      </trkpt>
      <trkpt lat="38.480007" lon="-3.035949">
        <ele>833.473577</ele>
        <time>2020-08-08T09:39:59.366Z</time>
      </trkpt>
      <trkpt lat="38.479915" lon="-3.035979">
        <ele>833.198261</ele>
        <time>2020-08-08T09:40:00.357Z</time>
      </trkpt>
      <trkpt lat="38.479822" lon="-3.036018">
        <ele>832.914442</ele>
        <time>2020-08-08T09:40:01.354Z</time>
      </trkpt>
      <trkpt lat="38.479735" lon="-3.036069">
        <ele>832.636885</ele>
        <time>2020-08-08T09:40:02.344Z</time>
      </trkpt>
      <trkpt lat="38.479646" lon="-3.036121">
        <ele>832.353111</ele>
        <time>2020-08-08T09:40:03.363Z</time>
      </trkpt>
      <trkpt lat="38.479561" lon="-3.036174">
        <ele>832.078853</ele>
        <time>2020-08-08T09:40:04.348Z</time>
      </trkpt>
      <trkpt lat="38.479485" lon="-3.036241">
        <ele>831.811101</ele>
        <time>2020-08-08T09:40:05.362Z</time>
      </trkpt>
      <trkpt lat="38.479409" lon="-3.036323">
        <ele>831.522646</ele>
        <time>2020-08-08T09:40:06.350Z</time>
      </trkpt>
      <trkpt lat="38.479329" lon="-3.036412">
        <ele>831.215042</ele>
        <time>2020-08-08T09:40:07.341Z</time>
      </trkpt>
      <trkpt lat="38.479252" lon="-3.036492">
        <ele>830.927252</ele>
        <time>2020-08-08T09:40:08.355Z</time>
      </trkpt>
      <trkpt lat="38.479177" lon="-3.036581">
        <ele>830.630428</ele>
        <time>2020-08-08T09:40:09.349Z</time>
      </trkpt>
      <trkpt lat="38.479100" lon="-3.036673">
        <ele>830.324719</ele>
        <time>2020-08-08T09:40:10.353Z</time>
      </trkpt>
      <trkpt lat="38.479022" lon="-3.036744">
        <ele>830.047005</ele>
        <time>2020-08-08T09:40:11.356Z</time>
      </trkpt>
      <trkpt lat="38.478947" lon="-3.036824">
        <ele>829.763689</ele>
        <time>2020-08-08T09:40:12.343Z</time>
      </trkpt>
      <trkpt lat="38.478864" lon="-3.036910">
        <ele>829.453807</ele>
        <time>2020-08-08T09:40:13.356Z</time>
      </trkpt>
      <trkpt lat="38.478792" lon="-3.037020">
        <ele>829.163958</ele>
        <time>2020-08-08T09:40:14.357Z</time>
      </trkpt>
      <trkpt lat="38.478704" lon="-3.037095">
        <ele>828.947915</ele>
        <time>2020-08-08T09:40:15.355Z</time>
      </trkpt>
      <trkpt lat="38.478620" lon="-3.037177">
        <ele>828.732012</ele>
        <time>2020-08-08T09:40:16.357Z</time>
      </trkpt>
      <trkpt lat="38.478534" lon="-3.037259">
        <ele>828.512850</ele>
        <time>2020-08-08T09:40:17.362Z</time>
      </trkpt>
      <trkpt lat="38.478388" lon="-3.037394">
        <ele>828.144770</ele>
        <time>2020-08-08T09:40:19.359Z</time>
      </trkpt>
      <trkpt lat="38.478313" lon="-3.037466">
        <ele>827.953172</ele>
        <time>2020-08-08T09:40:20.348Z</time>
      </trkpt>
      <trkpt lat="38.478241" lon="-3.037541">
        <ele>827.763441</ele>
        <time>2020-08-08T09:40:21.356Z</time>
      </trkpt>
      <trkpt lat="38.478100" lon="-3.037691">
        <ele>827.388707</ele>
        <time>2020-08-08T09:40:23.357Z</time>
      </trkpt>
      <trkpt lat="38.478026" lon="-3.037762">
        <ele>827.199702</ele>
        <time>2020-08-08T09:40:24.357Z</time>
      </trkpt>
      <trkpt lat="38.477893" lon="-3.037906">
        <ele>826.843647</ele>
        <time>2020-08-08T09:40:26.360Z</time>
      </trkpt>
      <trkpt lat="38.477812" lon="-3.037974">
        <ele>826.645702</ele>
        <time>2020-08-08T09:40:27.365Z</time>
      </trkpt>
      <trkpt lat="38.477648" lon="-3.038072">
        <ele>826.275944</ele>
        <time>2020-08-08T09:40:29.422Z</time>
      </trkpt>
      <trkpt lat="38.477549" lon="-3.038070">
        <ele>826.073739</ele>
        <time>2020-08-08T09:40:30.343Z</time>
      </trkpt>
      <trkpt lat="38.477455" lon="-3.038089">
        <ele>825.879383</ele>
        <time>2020-08-08T09:40:31.360Z</time>
      </trkpt>
      <trkpt lat="38.477295" lon="-3.038122">
        <ele>825.468730</ele>
        <time>2020-08-08T09:40:33.358Z</time>
      </trkpt>
      <trkpt lat="38.477124" lon="-3.038132">
        <ele>824.094880</ele>
        <time>2020-08-08T09:40:35.357Z</time>
      </trkpt>
      <trkpt lat="38.476963" lon="-3.038174">
        <ele>822.776055</ele>
        <time>2020-08-08T09:40:37.349Z</time>
      </trkpt>
      <trkpt lat="38.476798" lon="-3.038279">
        <ele>821.296564</ele>
        <time>2020-08-08T09:40:39.355Z</time>
      </trkpt>
      <trkpt lat="38.476710" lon="-3.038313">
        <ele>820.558693</ele>
        <time>2020-08-08T09:40:40.366Z</time>
      </trkpt>
      <trkpt lat="38.476623" lon="-3.038361">
        <ele>819.798100</ele>
        <time>2020-08-08T09:40:41.353Z</time>
      </trkpt>
      <trkpt lat="38.476524" lon="-3.038396">
        <ele>818.973674</ele>
        <time>2020-08-08T09:40:42.361Z</time>
      </trkpt>
      <trkpt lat="38.476428" lon="-3.038426">
        <ele>818.180475</ele>
        <time>2020-08-08T09:40:43.349Z</time>
      </trkpt>
      <trkpt lat="38.476331" lon="-3.038452">
        <ele>817.385017</ele>
        <time>2020-08-08T09:40:44.349Z</time>
      </trkpt>
      <trkpt lat="38.476217" lon="-3.038459">
        <ele>816.469019</ele>
        <time>2020-08-08T09:40:45.356Z</time>
      </trkpt>
      <trkpt lat="38.476118" lon="-3.038497">
        <ele>815.639366</ele>
        <time>2020-08-08T09:40:46.364Z</time>
      </trkpt>
      <trkpt lat="38.476016" lon="-3.038529">
        <ele>814.796405</ele>
        <time>2020-08-08T09:40:47.366Z</time>
      </trkpt>
      <trkpt lat="38.475895" lon="-3.038564">
        <ele>813.800695</ele>
        <time>2020-08-08T09:40:48.371Z</time>
      </trkpt>
      <trkpt lat="38.475793" lon="-3.038610">
        <ele>812.932539</ele>
        <time>2020-08-08T09:40:49.358Z</time>
      </trkpt>
      <trkpt lat="38.475688" lon="-3.038650">
        <ele>812.053150</ele>
        <time>2020-08-08T09:40:50.351Z</time>
      </trkpt>
      <trkpt lat="38.475609" lon="-3.038727">
        <ele>811.255609</ele>
        <time>2020-08-08T09:40:51.352Z</time>
      </trkpt>
      <trkpt lat="38.475527" lon="-3.038800">
        <ele>811.721682</ele>
        <time>2020-08-08T09:40:52.367Z</time>
      </trkpt>
      <trkpt lat="38.475451" lon="-3.038888">
        <ele>812.419113</ele>
        <time>2020-08-08T09:40:53.348Z</time>
      </trkpt>
      <trkpt lat="38.475380" lon="-3.038989">
        <ele>813.141641</ele>
        <time>2020-08-08T09:40:54.346Z</time>
      </trkpt>
      <trkpt lat="38.475292" lon="-3.039192">
        <ele>814.376763</ele>
        <time>2020-08-08T09:40:56.357Z</time>
      </trkpt>
      <trkpt lat="38.475250" lon="-3.039314">
        <ele>815.086158</ele>
        <time>2020-08-08T09:40:57.356Z</time>
      </trkpt>
      <trkpt lat="38.475211" lon="-3.039443">
        <ele>815.822222</ele>
        <time>2020-08-08T09:40:58.351Z</time>
      </trkpt>
      <trkpt lat="38.475194" lon="-3.039565">
        <ele>816.481811</ele>
        <time>2020-08-08T09:40:59.349Z</time>
      </trkpt>
      <trkpt lat="38.475144" lon="-3.039673">
        <ele>817.149670</ele>
        <time>2020-08-08T09:41:00.357Z</time>
      </trkpt>
      <trkpt lat="38.475119" lon="-3.039879">
        <ele>818.259268</ele>
        <time>2020-08-08T09:41:02.360Z</time>
      </trkpt>
      <trkpt lat="38.475069" lon="-3.040060">
        <ele>819.280916</ele>
        <time>2020-08-08T09:41:04.349Z</time>
      </trkpt>
      <trkpt lat="38.475047" lon="-3.040206">
        <ele>820.072313</ele>
        <time>2020-08-08T09:41:06.362Z</time>
      </trkpt>
      <trkpt lat="38.475040" lon="-3.040331">
        <ele>820.739366</ele>
        <time>2020-08-08T09:41:08.360Z</time>
      </trkpt>
      <trkpt lat="38.475008" lon="-3.040471">
        <ele>821.515674</ele>
        <time>2020-08-08T09:41:11.357Z</time>
      </trkpt>
      <trkpt lat="38.474964" lon="-3.040596">
        <ele>822.245188</ele>
        <time>2020-08-08T09:41:15.356Z</time>
      </trkpt>
      <trkpt lat="38.474904" lon="-3.040707">
        <ele>822.963173</ele>
        <time>2020-08-08T09:41:20.352Z</time>
      </trkpt>
      <trkpt lat="38.474862" lon="-3.040816">
        <ele>823.675856</ele>
        <time>2020-08-08T09:41:24.345Z</time>
      </trkpt>
      <trkpt lat="38.474806" lon="-3.040921">
        <ele>824.537586</ele>
        <time>2020-08-08T09:41:29.350Z</time>
      </trkpt>
      <trkpt lat="38.474748" lon="-3.041025">
        <ele>825.403656</ele>
        <time>2020-08-08T09:41:34.345Z</time>
      </trkpt>
      <trkpt lat="38.474670" lon="-3.041127">
        <ele>826.370758</ele>
        <time>2020-08-08T09:41:40.342Z</time>
      </trkpt>
      <trkpt lat="38.474609" lon="-3.041226">
        <ele>827.225264</ele>
        <time>2020-08-08T09:41:45.366Z</time>
      </trkpt>
      <trkpt lat="38.474541" lon="-3.041306">
        <ele>828.026202</ele>
        <time>2020-08-08T09:41:49.357Z</time>
      </trkpt>
      <trkpt lat="38.474466" lon="-3.041398">
        <ele>828.927083</ele>
        <time>2020-08-08T09:41:54.359Z</time>
      </trkpt>
      <trkpt lat="38.474397" lon="-3.041500">
        <ele>829.841406</ele>
        <time>2020-08-08T09:41:59.362Z</time>
      </trkpt>
      <trkpt lat="38.474334" lon="-3.041582">
        <ele>830.620665</ele>
        <time>2020-08-08T09:42:03.354Z</time>
      </trkpt>
      <trkpt lat="38.474267" lon="-3.041668">
        <ele>831.443580</ele>
        <time>2020-08-08T09:42:07.353Z</time>
      </trkpt>
      <trkpt lat="38.474199" lon="-3.041752">
        <ele>832.263143</ele>
        <time>2020-08-08T09:42:11.355Z</time>
      </trkpt>
      <trkpt lat="38.474142" lon="-3.041868">
        <ele>833.192071</ele>
        <time>2020-08-08T09:42:16.352Z</time>
      </trkpt>
      <trkpt lat="38.474109" lon="-3.041976">
        <ele>833.978416</ele>
        <time>2020-08-08T09:42:21.349Z</time>
      </trkpt>
      <trkpt lat="38.474075" lon="-3.042093">
        <ele>834.824897</ele>
        <time>2020-08-08T09:42:26.344Z</time>
      </trkpt>
      <trkpt lat="38.474034" lon="-3.042210">
        <ele>835.694342</ele>
        <time>2020-08-08T09:42:31.345Z</time>
      </trkpt>
      <trkpt lat="38.474000" lon="-3.042317">
        <ele>836.477592</ele>
        <time>2020-08-08T09:42:36.357Z</time>
      </trkpt>
      <trkpt lat="38.473967" lon="-3.042425">
        <ele>837.263939</ele>
        <time>2020-08-08T09:42:41.346Z</time>
      </trkpt>
      <trkpt lat="38.473923" lon="-3.042540">
        <ele>838.132116</ele>
        <time>2020-08-08T09:42:46.350Z</time>
      </trkpt>
      <trkpt lat="38.473881" lon="-3.042652">
        <ele>838.962141</ele>
        <time>2020-08-08T09:42:51.353Z</time>
      </trkpt>
      <trkpt lat="38.473840" lon="-3.042755">
        <ele>839.318247</ele>
        <time>2020-08-08T09:42:55.356Z</time>
      </trkpt>
      <trkpt lat="38.473796" lon="-3.042870">
        <ele>839.712720</ele>
        <time>2020-08-08T09:43:00.354Z</time>
      </trkpt>
      <trkpt lat="38.473757" lon="-3.042989">
        <ele>840.110298</ele>
        <time>2020-08-08T09:43:05.351Z</time>
      </trkpt>
      <trkpt lat="38.473706" lon="-3.043092">
        <ele>840.485888</ele>
        <time>2020-08-08T09:43:09.341Z</time>
      </trkpt>
      <trkpt lat="38.473656" lon="-3.043203">
        <ele>840.880557</ele>
        <time>2020-08-08T09:43:13.351Z</time>
      </trkpt>
      <trkpt lat="38.473600" lon="-3.043322">
        <ele>841.308453</ele>
        <time>2020-08-08T09:43:18.352Z</time>
      </trkpt>
      <trkpt lat="38.473534" lon="-3.043419">
        <ele>841.704517</ele>
        <time>2020-08-08T09:43:23.354Z</time>
      </trkpt>
      <trkpt lat="38.473467" lon="-3.043498">
        <ele>842.063457</ele>
        <time>2020-08-08T09:43:27.357Z</time>
      </trkpt>
      <trkpt lat="38.473372" lon="-3.043564">
        <ele>842.489162</ele>
        <time>2020-08-08T09:43:32.352Z</time>
      </trkpt>
      <trkpt lat="38.473267" lon="-3.043591">
        <ele>842.910787</ele>
        <time>2020-08-08T09:43:37.335Z</time>
      </trkpt>
      <trkpt lat="38.473163" lon="-3.043591">
        <ele>843.320183</ele>
        <time>2020-08-08T09:43:42.353Z</time>
      </trkpt>
      <trkpt lat="38.473063" lon="-3.043573">
        <ele>843.717722</ele>
        <time>2020-08-08T09:43:47.358Z</time>
      </trkpt>
      <trkpt lat="38.472960" lon="-3.043533">
        <ele>844.141508</ele>
        <time>2020-08-08T09:43:53.366Z</time>
      </trkpt>
      <trkpt lat="38.472873" lon="-3.043471">
        <ele>844.533681</ele>
        <time>2020-08-08T09:43:59.356Z</time>
      </trkpt>
      <trkpt lat="38.472783" lon="-3.043412">
        <ele>844.931903</ele>
        <time>2020-08-08T09:44:05.363Z</time>
      </trkpt>
      <trkpt lat="38.472694" lon="-3.043339">
        <ele>845.348268</ele>
        <time>2020-08-08T09:44:10.333Z</time>
      </trkpt>
      <trkpt lat="38.472612" lon="-3.043250">
        <ele>845.771859</ele>
        <time>2020-08-08T09:44:15.356Z</time>
      </trkpt>
      <trkpt lat="38.472531" lon="-3.043166">
        <ele>846.287270</ele>
        <time>2020-08-08T09:44:20.351Z</time>
      </trkpt>
      <trkpt lat="38.472469" lon="-3.043058">
        <ele>846.987486</ele>
        <time>2020-08-08T09:44:25.342Z</time>
      </trkpt>
      <trkpt lat="38.472417" lon="-3.042938">
        <ele>847.704602</ele>
        <time>2020-08-08T09:44:30.353Z</time>
      </trkpt>
      <trkpt lat="38.472372" lon="-3.042824">
        <ele>848.372127</ele>
        <time>2020-08-08T09:44:34.370Z</time>
      </trkpt>
      <trkpt lat="38.472347" lon="-3.042691">
        <ele>849.087280</ele>
        <time>2020-08-08T09:44:38.338Z</time>
      </trkpt>
      <trkpt lat="38.472331" lon="-3.042555">
        <ele>849.806341</ele>
        <time>2020-08-08T09:44:43.355Z</time>
      </trkpt>
      <trkpt lat="38.472330" lon="-3.042435">
        <ele>850.433798</ele>
        <time>2020-08-08T09:44:47.351Z</time>
      </trkpt>
      <trkpt lat="38.472337" lon="-3.042313">
        <ele>851.073387</ele>
        <time>2020-08-08T09:44:51.364Z</time>
      </trkpt>
      <trkpt lat="38.472351" lon="-3.042181">
        <ele>851.769854</ele>
        <time>2020-08-08T09:44:56.372Z</time>
      </trkpt>
      <trkpt lat="38.472370" lon="-3.042052">
        <ele>852.456164</ele>
        <time>2020-08-08T09:45:00.356Z</time>
      </trkpt>
      <trkpt lat="38.472385" lon="-3.041931">
        <ele>853.096695</ele>
        <time>2020-08-08T09:45:04.343Z</time>
      </trkpt>
      <trkpt lat="38.472399" lon="-3.041798">
        <ele>853.798343</ele>
        <time>2020-08-08T09:45:08.338Z</time>
      </trkpt>
      <trkpt lat="38.472396" lon="-3.041664">
        <ele>854.499250</ele>
        <time>2020-08-08T09:45:12.354Z</time>
      </trkpt>
      <trkpt lat="38.472392" lon="-3.041536">
        <ele>855.169031</ele>
        <time>2020-08-08T09:45:16.352Z</time>
      </trkpt>
      <trkpt lat="38.472389" lon="-3.041402">
        <ele>855.869937</ele>
        <time>2020-08-08T09:45:20.367Z</time>
      </trkpt>
      <trkpt lat="38.472378" lon="-3.041261">
        <ele>856.610808</ele>
        <time>2020-08-08T09:45:24.364Z</time>
      </trkpt>
      <trkpt lat="38.472353" lon="-3.041127">
        <ele>857.331046</ele>
        <time>2020-08-08T09:45:28.369Z</time>
      </trkpt>
      <trkpt lat="38.472316" lon="-3.040991">
        <ele>858.052675</ele>
        <time>2020-08-08T09:45:32.357Z</time>
      </trkpt>
      <trkpt lat="38.472285" lon="-3.040845">
        <ele>858.222278</ele>
        <time>2020-08-08T09:45:36.360Z</time>
      </trkpt>
      <trkpt lat="38.472254" lon="-3.040705">
        <ele>858.385398</ele>
        <time>2020-08-08T09:45:40.348Z</time>
      </trkpt>
      <trkpt lat="38.472214" lon="-3.040564">
        <ele>858.553540</ele>
        <time>2020-08-08T09:45:44.349Z</time>
      </trkpt>
      <trkpt lat="38.472188" lon="-3.040426">
        <ele>858.712678</ele>
        <time>2020-08-08T09:45:48.340Z</time>
      </trkpt>
      <trkpt lat="38.472165" lon="-3.040315">
        <ele>858.841412</ele>
        <time>2020-08-08T09:45:51.361Z</time>
      </trkpt>
      <trkpt lat="38.472141" lon="-3.040199">
        <ele>858.975932</ele>
        <time>2020-08-08T09:45:54.353Z</time>
      </trkpt>
      <trkpt lat="38.472101" lon="-3.040084">
        <ele>859.117018</ele>
        <time>2020-08-08T09:45:57.353Z</time>
      </trkpt>
      <trkpt lat="38.472049" lon="-3.039978">
        <ele>859.257265</ele>
        <time>2020-08-08T09:46:00.350Z</time>
      </trkpt>
      <trkpt lat="38.471995" lon="-3.039875">
        <ele>859.396246</ele>
        <time>2020-08-08T09:46:03.354Z</time>
      </trkpt>
      <trkpt lat="38.471920" lon="-3.039765">
        <ele>859.559786</ele>
        <time>2020-08-08T09:46:07.341Z</time>
      </trkpt>
      <trkpt lat="38.471845" lon="-3.039671">
        <ele>859.710261</ele>
        <time>2020-08-08T09:46:11.331Z</time>
      </trkpt>
      <trkpt lat="38.471780" lon="-3.039585">
        <ele>859.844281</ele>
        <time>2020-08-08T09:46:15.347Z</time>
      </trkpt>
      <trkpt lat="38.471696" lon="-3.039511">
        <ele>859.990410</ele>
        <time>2020-08-08T09:46:19.358Z</time>
      </trkpt>
      <trkpt lat="38.471596" lon="-3.039461">
        <ele>860.144196</ele>
        <time>2020-08-08T09:46:23.360Z</time>
      </trkpt>
      <trkpt lat="38.471496" lon="-3.039409">
        <ele>860.298814</ele>
        <time>2020-08-08T09:46:28.347Z</time>
      </trkpt>
      <trkpt lat="38.471408" lon="-3.039368">
        <ele>860.432956</ele>
        <time>2020-08-08T09:46:32.340Z</time>
      </trkpt>
      <trkpt lat="38.471304" lon="-3.039334">
        <ele>860.586690</ele>
        <time>2020-08-08T09:46:36.345Z</time>
      </trkpt>
      <trkpt lat="38.471211" lon="-3.039313">
        <ele>860.531179</ele>
        <time>2020-08-08T09:46:40.357Z</time>
      </trkpt>
      <trkpt lat="38.471120" lon="-3.039282">
        <ele>860.413873</ele>
        <time>2020-08-08T09:46:44.341Z</time>
      </trkpt>
      <trkpt lat="38.471017" lon="-3.039197">
        <ele>860.261134</ele>
        <time>2020-08-08T09:46:48.348Z</time>
      </trkpt>
      <trkpt lat="38.470939" lon="-3.039138">
        <ele>860.148224</ele>
        <time>2020-08-08T09:46:52.353Z</time>
      </trkpt>
      <trkpt lat="38.470861" lon="-3.039064">
        <ele>860.027204</ele>
        <time>2020-08-08T09:46:56.341Z</time>
      </trkpt>
      <trkpt lat="38.470796" lon="-3.038973">
        <ele>859.907082</ele>
        <time>2020-08-08T09:47:01.336Z</time>
      </trkpt>
      <trkpt lat="38.470750" lon="-3.038861">
        <ele>859.783747</ele>
        <time>2020-08-08T09:47:05.349Z</time>
      </trkpt>
      <trkpt lat="38.470675" lon="-3.038762">
        <ele>859.649410</ele>
        <time>2020-08-08T09:47:10.351Z</time>
      </trkpt>
      <trkpt lat="38.470635" lon="-3.038640">
        <ele>859.520428</ele>
        <time>2020-08-08T09:47:14.345Z</time>
      </trkpt>
      <trkpt lat="38.470598" lon="-3.038508">
        <ele>859.383705</ele>
        <time>2020-08-08T09:47:18.344Z</time>
      </trkpt>
      <trkpt lat="38.470572" lon="-3.038393">
        <ele>859.266979</ele>
        <time>2020-08-08T09:47:21.344Z</time>
      </trkpt>
      <trkpt lat="38.470535" lon="-3.038267">
        <ele>859.135750</ele>
        <time>2020-08-08T09:47:24.340Z</time>
      </trkpt>
      <trkpt lat="38.470492" lon="-3.038138">
        <ele>858.999026</ele>
        <time>2020-08-08T09:47:27.357Z</time>
      </trkpt>
      <trkpt lat="38.470449" lon="-3.037988">
        <ele>858.843254</ele>
        <time>2020-08-08T09:47:30.342Z</time>
      </trkpt>
      <trkpt lat="38.470404" lon="-3.037835">
        <ele>858.683873</ele>
        <time>2020-08-08T09:47:33.365Z</time>
      </trkpt>
      <trkpt lat="38.470365" lon="-3.037674">
        <ele>858.519527</ele>
        <time>2020-08-08T09:47:36.355Z</time>
      </trkpt>
      <trkpt lat="38.470306" lon="-3.037549">
        <ele>858.378096</ele>
        <time>2020-08-08T09:47:38.370Z</time>
      </trkpt>
      <trkpt lat="38.470272" lon="-3.037416">
        <ele>858.292165</ele>
        <time>2020-08-08T09:47:40.354Z</time>
      </trkpt>
      <trkpt lat="38.470248" lon="-3.037277">
        <ele>858.204741</ele>
        <time>2020-08-08T09:47:42.345Z</time>
      </trkpt>
      <trkpt lat="38.470214" lon="-3.037131">
        <ele>858.111187</ele>
        <time>2020-08-08T09:47:44.346Z</time>
      </trkpt>
      <trkpt lat="38.470174" lon="-3.036977">
        <ele>858.011533</ele>
        <time>2020-08-08T09:47:46.340Z</time>
      </trkpt>
      <trkpt lat="38.470129" lon="-3.036825">
        <ele>857.911725</ele>
        <time>2020-08-08T09:47:48.346Z</time>
      </trkpt>
      <trkpt lat="38.470096" lon="-3.036659">
        <ele>857.806534</ele>
        <time>2020-08-08T09:47:50.353Z</time>
      </trkpt>
      <trkpt lat="38.470049" lon="-3.036513">
        <ele>857.709578</ele>
        <time>2020-08-08T09:47:52.338Z</time>
      </trkpt>
      <trkpt lat="38.470016" lon="-3.036330">
        <ele>857.594239</ele>
        <time>2020-08-08T09:47:54.347Z</time>
      </trkpt>
      <trkpt lat="38.469981" lon="-3.036149">
        <ele>857.479730</ele>
        <time>2020-08-08T09:47:56.353Z</time>
      </trkpt>
      <trkpt lat="38.469931" lon="-3.035976">
        <ele>857.366466</ele>
        <time>2020-08-08T09:47:58.344Z</time>
      </trkpt>
      <trkpt lat="38.469889" lon="-3.035812">
        <ele>857.260487</ele>
        <time>2020-08-08T09:48:00.353Z</time>
      </trkpt>
      <trkpt lat="38.469839" lon="-3.035636">
        <ele>857.145493</ele>
        <time>2020-08-08T09:48:02.347Z</time>
      </trkpt>
      <trkpt lat="38.469807" lon="-3.035452">
        <ele>857.029727</ele>
        <time>2020-08-08T09:48:04.353Z</time>
      </trkpt>
      <trkpt lat="38.469764" lon="-3.035274">
        <ele>857.052739</ele>
        <time>2020-08-08T09:48:06.347Z</time>
      </trkpt>
      <trkpt lat="38.469699" lon="-3.035118">
        <ele>857.223886</ele>
        <time>2020-08-08T09:48:08.359Z</time>
      </trkpt>
      <trkpt lat="38.469610" lon="-3.034994">
        <ele>857.386805</ele>
        <time>2020-08-08T09:48:10.334Z</time>
      </trkpt>
      <trkpt lat="38.469508" lon="-3.034896">
        <ele>857.544691</ele>
        <time>2020-08-08T09:48:12.341Z</time>
      </trkpt>
      <trkpt lat="38.469391" lon="-3.034817">
        <ele>857.708399</ele>
        <time>2020-08-08T09:48:14.350Z</time>
      </trkpt>
      <trkpt lat="38.469278" lon="-3.034774">
        <ele>857.854251</ele>
        <time>2020-08-08T09:48:16.358Z</time>
      </trkpt>
      <trkpt lat="38.469178" lon="-3.034749">
        <ele>857.980298</ele>
        <time>2020-08-08T09:48:18.370Z</time>
      </trkpt>
      <trkpt lat="38.469082" lon="-3.034754">
        <ele>858.099148</ele>
        <time>2020-08-08T09:48:20.354Z</time>
      </trkpt>
      <trkpt lat="38.468958" lon="-3.034735">
        <ele>858.253635</ele>
        <time>2020-08-08T09:48:23.361Z</time>
      </trkpt>
      <trkpt lat="38.468848" lon="-3.034739">
        <ele>858.389759</ele>
        <time>2020-08-08T09:48:27.341Z</time>
      </trkpt>
      <trkpt lat="38.468737" lon="-3.034718">
        <ele>858.528564</ele>
        <time>2020-08-08T09:48:31.355Z</time>
      </trkpt>
      <trkpt lat="38.468634" lon="-3.034670">
        <ele>858.664190</ele>
        <time>2020-08-08T09:48:35.355Z</time>
      </trkpt>
      <trkpt lat="38.468541" lon="-3.034615">
        <ele>858.790964</ele>
        <time>2020-08-08T09:48:39.336Z</time>
      </trkpt>
      <trkpt lat="38.468455" lon="-3.034559">
        <ele>858.910374</ele>
        <time>2020-08-08T09:48:43.335Z</time>
      </trkpt>
      <trkpt lat="38.468372" lon="-3.034504">
        <ele>859.026040</ele>
        <time>2020-08-08T09:48:47.350Z</time>
      </trkpt>
      <trkpt lat="38.468293" lon="-3.034446">
        <ele>859.138757</ele>
        <time>2020-08-08T09:48:51.343Z</time>
      </trkpt>
      <trkpt lat="38.468217" lon="-3.034379">
        <ele>859.470019</ele>
        <time>2020-08-08T09:48:55.355Z</time>
      </trkpt>
      <trkpt lat="38.468139" lon="-3.034311">
        <ele>860.013423</ele>
        <time>2020-08-08T09:48:59.346Z</time>
      </trkpt>
      <trkpt lat="38.468058" lon="-3.034230">
        <ele>860.605367</ele>
        <time>2020-08-08T09:49:03.360Z</time>
      </trkpt>
      <trkpt lat="38.467975" lon="-3.034122">
        <ele>861.287152</ele>
        <time>2020-08-08T09:49:07.356Z</time>
      </trkpt>
      <trkpt lat="38.467896" lon="-3.034031">
        <ele>861.899290</ele>
        <time>2020-08-08T09:49:11.369Z</time>
      </trkpt>
      <trkpt lat="38.467827" lon="-3.033945">
        <ele>862.454041</ele>
        <time>2020-08-08T09:49:15.364Z</time>
      </trkpt>
      <trkpt lat="38.467762" lon="-3.033837">
        <ele>863.067742</ele>
        <time>2020-08-08T09:49:20.353Z</time>
      </trkpt>
      <trkpt lat="38.467700" lon="-3.033739">
        <ele>863.635371</ele>
        <time>2020-08-08T09:49:24.356Z</time>
      </trkpt>
      <trkpt lat="38.467636" lon="-3.033629">
        <ele>864.252792</ele>
        <time>2020-08-08T09:49:28.357Z</time>
      </trkpt>
      <trkpt lat="38.467579" lon="-3.033528">
        <ele>864.813703</ele>
        <time>2020-08-08T09:49:32.339Z</time>
      </trkpt>
      <trkpt lat="38.467527" lon="-3.033416">
        <ele>865.400331</ele>
        <time>2020-08-08T09:49:36.348Z</time>
      </trkpt>
      <trkpt lat="38.467484" lon="-3.033295">
        <ele>865.998985</ele>
        <time>2020-08-08T09:49:40.342Z</time>
      </trkpt>
      <trkpt lat="38.467444" lon="-3.033161">
        <ele>866.645072</ele>
        <time>2020-08-08T09:49:44.351Z</time>
      </trkpt>
      <trkpt lat="38.467418" lon="-3.033038">
        <ele>867.219054</ele>
        <time>2020-08-08T09:49:48.341Z</time>
      </trkpt>
      <trkpt lat="38.467392" lon="-3.032906">
        <ele>867.832273</ele>
        <time>2020-08-08T09:49:53.351Z</time>
      </trkpt>
      <trkpt lat="38.467340" lon="-3.032791">
        <ele>868.430567</ele>
        <time>2020-08-08T09:49:58.347Z</time>
      </trkpt>
      <trkpt lat="38.467314" lon="-3.032652">
        <ele>869.074416</ele>
        <time>2020-08-08T09:50:03.349Z</time>
      </trkpt>
      <trkpt lat="38.467283" lon="-3.032521">
        <ele>869.626151</ele>
        <time>2020-08-08T09:50:07.341Z</time>
      </trkpt>
      <trkpt lat="38.467258" lon="-3.032388">
        <ele>869.972288</ele>
        <time>2020-08-08T09:50:11.340Z</time>
      </trkpt>
      <trkpt lat="38.467247" lon="-3.032253">
        <ele>870.315767</ele>
        <time>2020-08-08T09:50:15.359Z</time>
      </trkpt>
      <trkpt lat="38.467207" lon="-3.032121">
        <ele>870.673956</ele>
        <time>2020-08-08T09:50:19.332Z</time>
      </trkpt>
      <trkpt lat="38.467156" lon="-3.031995">
        <ele>871.032902</ele>
        <time>2020-08-08T09:50:23.336Z</time>
      </trkpt>
      <trkpt lat="38.467123" lon="-3.031878">
        <ele>871.347611</ele>
        <time>2020-08-08T09:50:27.346Z</time>
      </trkpt>
      <trkpt lat="38.467078" lon="-3.031751">
        <ele>871.700380</ele>
        <time>2020-08-08T09:50:31.340Z</time>
      </trkpt>
      <trkpt lat="38.467043" lon="-3.031607">
        <ele>872.081946</ele>
        <time>2020-08-08T09:50:35.360Z</time>
      </trkpt>
      <trkpt lat="38.467017" lon="-3.031470">
        <ele>872.438682</ele>
        <time>2020-08-08T09:50:39.355Z</time>
      </trkpt>
      <trkpt lat="38.466986" lon="-3.031346">
        <ele>872.768089</ele>
        <time>2020-08-08T09:50:43.341Z</time>
      </trkpt>
      <trkpt lat="38.466942" lon="-3.031210">
        <ele>873.140480</ele>
        <time>2020-08-08T09:50:47.351Z</time>
      </trkpt>
      <trkpt lat="38.466897" lon="-3.031079">
        <ele>873.502496</ele>
        <time>2020-08-08T09:50:51.336Z</time>
      </trkpt>
      <trkpt lat="38.466846" lon="-3.030965">
        <ele>873.834760</ele>
        <time>2020-08-08T09:50:55.337Z</time>
      </trkpt>
      <trkpt lat="38.466784" lon="-3.030863">
        <ele>874.161540</ele>
        <time>2020-08-08T09:50:59.353Z</time>
      </trkpt>
      <trkpt lat="38.466727" lon="-3.030763">
        <ele>874.474561</ele>
        <time>2020-08-08T09:51:03.349Z</time>
      </trkpt>
      <trkpt lat="38.466664" lon="-3.030661">
        <ele>874.803334</ele>
        <time>2020-08-08T09:51:07.339Z</time>
      </trkpt>
      <trkpt lat="38.466606" lon="-3.030548">
        <ele>875.145265</ele>
        <time>2020-08-08T09:51:11.343Z</time>
      </trkpt>
      <trkpt lat="38.466531" lon="-3.030431">
        <ele>875.394841</ele>
        <time>2020-08-08T09:51:15.332Z</time>
      </trkpt>
      <trkpt lat="38.466474" lon="-3.030343">
        <ele>875.459489</ele>
        <time>2020-08-08T09:51:18.354Z</time>
      </trkpt>
      <trkpt lat="38.466407" lon="-3.030235">
        <ele>875.537487</ele>
        <time>2020-08-08T09:51:22.345Z</time>
      </trkpt>
      <trkpt lat="38.466337" lon="-3.030127">
        <ele>875.616849</ele>
        <time>2020-08-08T09:51:26.363Z</time>
      </trkpt>
      <trkpt lat="38.466269" lon="-3.030025">
        <ele>875.692680</ele>
        <time>2020-08-08T09:51:30.364Z</time>
      </trkpt>
      <trkpt lat="38.466209" lon="-3.029931">
        <ele>875.761330</ele>
        <time>2020-08-08T09:51:34.345Z</time>
      </trkpt>
      <trkpt lat="38.466143" lon="-3.029844">
        <ele>875.829901</ele>
        <time>2020-08-08T09:51:38.354Z</time>
      </trkpt>
      <trkpt lat="38.466069" lon="-3.029768">
        <ele>875.898551</ele>
        <time>2020-08-08T09:51:42.354Z</time>
      </trkpt>
      <trkpt lat="38.465989" lon="-3.029672">
        <ele>875.977911</ele>
        <time>2020-08-08T09:51:46.341Z</time>
      </trkpt>
      <trkpt lat="38.465905" lon="-3.029567">
        <ele>876.062884</ele>
        <time>2020-08-08T09:51:50.358Z</time>
      </trkpt>
      <trkpt lat="38.465834" lon="-3.029458">
        <ele>876.143144</ele>
        <time>2020-08-08T09:51:53.333Z</time>
      </trkpt>
      <trkpt lat="38.465755" lon="-3.029318">
        <ele>876.240828</ele>
        <time>2020-08-08T09:51:56.351Z</time>
      </trkpt>
      <trkpt lat="38.465674" lon="-3.029245">
        <ele>876.312499</ele>
        <time>2020-08-08T09:51:58.355Z</time>
      </trkpt>
      <trkpt lat="38.465603" lon="-3.029160">
        <ele>876.382854</ele>
        <time>2020-08-08T09:52:00.358Z</time>
      </trkpt>
      <trkpt lat="38.465506" lon="-3.029062">
        <ele>876.472269</ele>
        <time>2020-08-08T09:52:02.342Z</time>
      </trkpt>
      <trkpt lat="38.465417" lon="-3.028945">
        <ele>876.564606</ele>
        <time>2020-08-08T09:52:04.356Z</time>
      </trkpt>
      <trkpt lat="38.465327" lon="-3.028827">
        <ele>876.658744</ele>
        <time>2020-08-08T09:52:06.334Z</time>
      </trkpt>
      <trkpt lat="38.465237" lon="-3.028716">
        <ele>876.827796</ele>
        <time>2020-08-08T09:52:08.360Z</time>
      </trkpt>
      <trkpt lat="38.465155" lon="-3.028603">
        <ele>876.990793</ele>
        <time>2020-08-08T09:52:10.342Z</time>
      </trkpt>
      <trkpt lat="38.465076" lon="-3.028504">
        <ele>877.140339</ele>
        <time>2020-08-08T09:52:12.340Z</time>
      </trkpt>
      <trkpt lat="38.464987" lon="-3.028396">
        <ele>877.306220</ele>
        <time>2020-08-08T09:52:15.346Z</time>
      </trkpt>
      <trkpt lat="38.464906" lon="-3.028293">
        <ele>877.460664</ele>
        <time>2020-08-08T09:52:18.336Z</time>
      </trkpt>
      <trkpt lat="38.464830" lon="-3.028200">
        <ele>877.602881</ele>
        <time>2020-08-08T09:52:21.337Z</time>
      </trkpt>
      <trkpt lat="38.464743" lon="-3.028104">
        <ele>877.758232</ele>
        <time>2020-08-08T09:52:24.350Z</time>
      </trkpt>
      <trkpt lat="38.464657" lon="-3.028004">
        <ele>877.915381</ele>
        <time>2020-08-08T09:52:27.335Z</time>
      </trkpt>
      <trkpt lat="38.464578" lon="-3.027916">
        <ele>878.057021</ele>
        <time>2020-08-08T09:52:30.340Z</time>
      </trkpt>
      <trkpt lat="38.464506" lon="-3.027819">
        <ele>878.198427</ele>
        <time>2020-08-08T09:52:33.353Z</time>
      </trkpt>
      <trkpt lat="38.464432" lon="-3.027706">
        <ele>878.354279</ele>
        <time>2020-08-08T09:52:36.344Z</time>
      </trkpt>
      <trkpt lat="38.464306" lon="-3.027549">
        <ele>878.592132</ele>
        <time>2020-08-08T09:52:40.352Z</time>
      </trkpt>
      <trkpt lat="38.464212" lon="-3.027426">
        <ele>878.773972</ele>
        <time>2020-08-08T09:52:43.347Z</time>
      </trkpt>
      <trkpt lat="38.464131" lon="-3.027334">
        <ele>878.920438</ele>
        <time>2020-08-08T09:52:45.343Z</time>
      </trkpt>
      <trkpt lat="38.464049" lon="-3.027248">
        <ele>879.063805</ele>
        <time>2020-08-08T09:52:47.338Z</time>
      </trkpt>
      <trkpt lat="38.463967" lon="-3.027131">
        <ele>878.878207</ele>
        <time>2020-08-08T09:52:49.349Z</time>
      </trkpt>
      <trkpt lat="38.463881" lon="-3.027046">
        <ele>878.663258</ele>
        <time>2020-08-08T09:52:51.349Z</time>
      </trkpt>
      <trkpt lat="38.463779" lon="-3.026920">
        <ele>878.382762</ele>
        <time>2020-08-08T09:52:53.344Z</time>
      </trkpt>
      <trkpt lat="38.463664" lon="-3.026788">
        <ele>878.077135</ele>
        <time>2020-08-08T09:52:55.347Z</time>
      </trkpt>
      <trkpt lat="38.463554" lon="-3.026651">
        <ele>877.773434</ele>
        <time>2020-08-08T09:52:57.352Z</time>
      </trkpt>
      <trkpt lat="38.463448" lon="-3.026500">
        <ele>877.459560</ele>
        <time>2020-08-08T09:52:59.354Z</time>
      </trkpt>
      <trkpt lat="38.463333" lon="-3.026341">
        <ele>877.124554</ele>
        <time>2020-08-08T09:53:01.341Z</time>
      </trkpt>
      <trkpt lat="38.463256" lon="-3.026263">
        <ele>876.930289</ele>
        <time>2020-08-08T09:53:02.339Z</time>
      </trkpt>
      <trkpt lat="38.463188" lon="-3.026166">
        <ele>876.728783</ele>
        <time>2020-08-08T09:53:03.353Z</time>
      </trkpt>
      <trkpt lat="38.463131" lon="-3.026074">
        <ele>876.547210</ele>
        <time>2020-08-08T09:53:04.356Z</time>
      </trkpt>
      <trkpt lat="38.463073" lon="-3.025887">
        <ele>876.235908</ele>
        <time>2020-08-08T09:53:06.345Z</time>
      </trkpt>
      <trkpt lat="38.462967" lon="-3.025714">
        <ele>875.895919</ele>
        <time>2020-08-08T09:53:08.341Z</time>
      </trkpt>
      <trkpt lat="38.462861" lon="-3.025531">
        <ele>875.543612</ele>
        <time>2020-08-08T09:53:10.347Z</time>
      </trkpt>
      <trkpt lat="38.462797" lon="-3.025432">
        <ele>875.774602</ele>
        <time>2020-08-08T09:53:11.339Z</time>
      </trkpt>
      <trkpt lat="38.462697" lon="-3.025252">
        <ele>876.218073</ele>
        <time>2020-08-08T09:53:13.335Z</time>
      </trkpt>
      <trkpt lat="38.462581" lon="-3.025082">
        <ele>876.671167</ele>
        <time>2020-08-08T09:53:15.346Z</time>
      </trkpt>
      <trkpt lat="38.462517" lon="-3.024989">
        <ele>876.919950</ele>
        <time>2020-08-08T09:53:16.356Z</time>
      </trkpt>
      <trkpt lat="38.462415" lon="-3.024803">
        <ele>877.376233</ele>
        <time>2020-08-08T09:53:18.358Z</time>
      </trkpt>
      <trkpt lat="38.462366" lon="-3.024706">
        <ele>877.608181</ele>
        <time>2020-08-08T09:53:19.354Z</time>
      </trkpt>
      <trkpt lat="38.462300" lon="-3.024613">
        <ele>877.860383</ele>
        <time>2020-08-08T09:53:20.352Z</time>
      </trkpt>
      <trkpt lat="38.462196" lon="-3.024438">
        <ele>878.301829</ele>
        <time>2020-08-08T09:53:22.350Z</time>
      </trkpt>
      <trkpt lat="38.462091" lon="-3.024264">
        <ele>878.743239</ele>
        <time>2020-08-08T09:53:24.350Z</time>
      </trkpt>
      <trkpt lat="38.462022" lon="-3.024172">
        <ele>878.999219</ele>
        <time>2020-08-08T09:53:25.347Z</time>
      </trkpt>
      <trkpt lat="38.461969" lon="-3.024078">
        <ele>879.231972</ele>
        <time>2020-08-08T09:53:26.356Z</time>
      </trkpt>
      <trkpt lat="38.461819" lon="-3.023940">
        <ele>879.706376</ele>
        <time>2020-08-08T09:53:28.355Z</time>
      </trkpt>
      <trkpt lat="38.461736" lon="-3.023871">
        <ele>879.960518</ele>
        <time>2020-08-08T09:53:29.350Z</time>
      </trkpt>
      <trkpt lat="38.461665" lon="-3.023798">
        <ele>880.314121</ele>
        <time>2020-08-08T09:53:30.342Z</time>
      </trkpt>
      <trkpt lat="38.461500" lon="-3.023691">
        <ele>882.000330</ele>
        <time>2020-08-08T09:53:32.419Z</time>
      </trkpt>
      <trkpt lat="38.461367" lon="-3.023564">
        <ele>883.513534</ele>
        <time>2020-08-08T09:53:34.353Z</time>
      </trkpt>
      <trkpt lat="38.461250" lon="-3.023430">
        <ele>884.945555</ele>
        <time>2020-08-08T09:53:36.342Z</time>
      </trkpt>
      <trkpt lat="38.461188" lon="-3.023344">
        <ele>885.779628</ele>
        <time>2020-08-08T09:53:37.371Z</time>
      </trkpt>
      <trkpt lat="38.461100" lon="-3.023174">
        <ele>887.233664</ele>
        <time>2020-08-08T09:53:39.359Z</time>
      </trkpt>
      <trkpt lat="38.461005" lon="-3.022993">
        <ele>888.788378</ele>
        <time>2020-08-08T09:53:41.349Z</time>
      </trkpt>
      <trkpt lat="38.460966" lon="-3.022885">
        <ele>889.636954</ele>
        <time>2020-08-08T09:53:42.337Z</time>
      </trkpt>
      <trkpt lat="38.460892" lon="-3.022690">
        <ele>891.183064</ele>
        <time>2020-08-08T09:53:44.341Z</time>
      </trkpt>
      <trkpt lat="38.460817" lon="-3.022500">
        <ele>892.701232</ele>
        <time>2020-08-08T09:53:46.350Z</time>
      </trkpt>
      <trkpt lat="38.460735" lon="-3.022312">
        <ele>894.236679</ele>
        <time>2020-08-08T09:53:48.342Z</time>
      </trkpt>
      <trkpt lat="38.460654" lon="-3.022133">
        <ele>895.711778</ele>
        <time>2020-08-08T09:53:50.352Z</time>
      </trkpt>
      <trkpt lat="38.460577" lon="-3.021970">
        <ele>895.535015</ele>
        <time>2020-08-08T09:53:52.347Z</time>
      </trkpt>
      <trkpt lat="38.460500" lon="-3.021808">
        <ele>892.994929</ele>
        <time>2020-08-08T09:53:54.349Z</time>
      </trkpt>
      <trkpt lat="38.460421" lon="-3.021643">
        <ele>890.402690</ele>
        <time>2020-08-08T09:53:56.338Z</time>
      </trkpt>
      <trkpt lat="38.460333" lon="-3.021487">
        <ele>887.825661</ele>
        <time>2020-08-08T09:53:58.339Z</time>
      </trkpt>
      <trkpt lat="38.460245" lon="-3.021312">
        <ele>885.038021</ele>
        <time>2020-08-08T09:54:00.334Z</time>
      </trkpt>
      <trkpt lat="38.460144" lon="-3.021146">
        <ele>882.220310</ele>
        <time>2020-08-08T09:54:02.332Z</time>
      </trkpt>
      <trkpt lat="38.460042" lon="-3.020993">
        <ele>879.526993</ele>
        <time>2020-08-08T09:54:04.356Z</time>
      </trkpt>
      <trkpt lat="38.459920" lon="-3.020841">
        <ele>876.609489</ele>
        <time>2020-08-08T09:54:06.335Z</time>
      </trkpt>
      <trkpt lat="38.459783" lon="-3.020706">
        <ele>873.647461</ele>
        <time>2020-08-08T09:54:08.335Z</time>
      </trkpt>
      <trkpt lat="38.459653" lon="-3.020590">
        <ele>870.932832</ele>
        <time>2020-08-08T09:54:10.342Z</time>
      </trkpt>
      <trkpt lat="38.459523" lon="-3.020475">
        <ele>868.225855</ele>
        <time>2020-08-08T09:54:12.350Z</time>
      </trkpt>
      <trkpt lat="38.459423" lon="-3.020342">
        <ele>865.754417</ele>
        <time>2020-08-08T09:54:14.345Z</time>
      </trkpt>
      <trkpt lat="38.459327" lon="-3.020187">
        <ele>865.238286</ele>
        <time>2020-08-08T09:54:16.354Z</time>
      </trkpt>
      <trkpt lat="38.459271" lon="-3.020033">
        <ele>864.798705</ele>
        <time>2020-08-08T09:54:18.340Z</time>
      </trkpt>
      <trkpt lat="38.459218" lon="-3.019853">
        <ele>864.300850</ele>
        <time>2020-08-08T09:54:20.338Z</time>
      </trkpt>
      <trkpt lat="38.459161" lon="-3.019701">
        <ele>863.864542</ele>
        <time>2020-08-08T09:54:22.338Z</time>
      </trkpt>
      <trkpt lat="38.459100" lon="-3.019540">
        <ele>863.401503</ele>
        <time>2020-08-08T09:54:24.330Z</time>
      </trkpt>
      <trkpt lat="38.459055" lon="-3.019358">
        <ele>862.907394</ele>
        <time>2020-08-08T09:54:26.355Z</time>
      </trkpt>
      <trkpt lat="38.458994" lon="-3.019172">
        <ele>862.385333</ele>
        <time>2020-08-08T09:54:28.352Z</time>
      </trkpt>
      <trkpt lat="38.458962" lon="-3.019064">
        <ele>862.086385</ele>
        <time>2020-08-08T09:54:29.342Z</time>
      </trkpt>
      <trkpt lat="38.458928" lon="-3.018949">
        <ele>861.768148</ele>
        <time>2020-08-08T09:54:30.336Z</time>
      </trkpt>
      <trkpt lat="38.458894" lon="-3.018836">
        <ele>861.454749</ele>
        <time>2020-08-08T09:54:31.349Z</time>
      </trkpt>
      <trkpt lat="38.458866" lon="-3.018720">
        <ele>861.140493</ele>
        <time>2020-08-08T09:54:32.348Z</time>
      </trkpt>
      <trkpt lat="38.458830" lon="-3.018601">
        <ele>860.810222</ele>
        <time>2020-08-08T09:54:33.351Z</time>
      </trkpt>
      <trkpt lat="38.458806" lon="-3.018489">
        <ele>860.509604</ele>
        <time>2020-08-08T09:54:34.344Z</time>
      </trkpt>
      <trkpt lat="38.458750" lon="-3.018372">
        <ele>860.154599</ele>
        <time>2020-08-08T09:54:35.353Z</time>
      </trkpt>
      <trkpt lat="38.458684" lon="-3.018156">
        <ele>859.610418</ele>
        <time>2020-08-08T09:54:37.346Z</time>
      </trkpt>
      <trkpt lat="38.458652" lon="-3.018046">
        <ele>859.375353</ele>
        <time>2020-08-08T09:54:38.354Z</time>
      </trkpt>
      <trkpt lat="38.458619" lon="-3.017935">
        <ele>859.137514</ele>
        <time>2020-08-08T09:54:39.354Z</time>
      </trkpt>
      <trkpt lat="38.458586" lon="-3.017821">
        <ele>858.894046</ele>
        <time>2020-08-08T09:54:40.360Z</time>
      </trkpt>
      <trkpt lat="38.458525" lon="-3.017601">
        <ele>858.426533</ele>
        <time>2020-08-08T09:54:42.354Z</time>
      </trkpt>
      <trkpt lat="38.458465" lon="-3.017393">
        <ele>857.982498</ele>
        <time>2020-08-08T09:54:44.374Z</time>
      </trkpt>
      <trkpt lat="38.458386" lon="-3.017188">
        <ele>857.524809</ele>
        <time>2020-08-08T09:54:46.346Z</time>
      </trkpt>
      <trkpt lat="38.458350" lon="-3.017083">
        <ele>857.295196</ele>
        <time>2020-08-08T09:54:47.362Z</time>
      </trkpt>
      <trkpt lat="38.458311" lon="-3.016979">
        <ele>857.064207</ele>
        <time>2020-08-08T09:54:48.361Z</time>
      </trkpt>
      <trkpt lat="38.458269" lon="-3.016865">
        <ele>856.811830</ele>
        <time>2020-08-08T09:54:49.364Z</time>
      </trkpt>
      <trkpt lat="38.458229" lon="-3.016755">
        <ele>856.568878</ele>
        <time>2020-08-08T09:54:50.362Z</time>
      </trkpt>
      <trkpt lat="38.458176" lon="-3.016645">
        <ele>856.310156</ele>
        <time>2020-08-08T09:54:51.336Z</time>
      </trkpt>
      <trkpt lat="38.458116" lon="-3.016534">
        <ele>856.039969</ele>
        <time>2020-08-08T09:54:52.354Z</time>
      </trkpt>
      <trkpt lat="38.458046" lon="-3.016433">
        <ele>855.769782</ele>
        <time>2020-08-08T09:54:53.336Z</time>
      </trkpt>
      <trkpt lat="38.457930" lon="-3.016227">
        <ele>855.261504</ele>
        <time>2020-08-08T09:54:55.346Z</time>
      </trkpt>
      <trkpt lat="38.457851" lon="-3.016122">
        <ele>854.996622</ele>
        <time>2020-08-08T09:54:56.356Z</time>
      </trkpt>
      <trkpt lat="38.457773" lon="-3.016023">
        <ele>854.747915</ele>
        <time>2020-08-08T09:54:57.341Z</time>
      </trkpt>
      <trkpt lat="38.457692" lon="-3.015922">
        <ele>854.491890</ele>
        <time>2020-08-08T09:54:58.360Z</time>
      </trkpt>
      <trkpt lat="38.457621" lon="-3.015812">
        <ele>854.239441</ele>
        <time>2020-08-08T09:54:59.334Z</time>
      </trkpt>
      <trkpt lat="38.457556" lon="-3.015684">
        <ele>853.969269</ele>
        <time>2020-08-08T09:55:00.363Z</time>
      </trkpt>
      <trkpt lat="38.457502" lon="-3.015563">
        <ele>853.722628</ele>
        <time>2020-08-08T09:55:01.335Z</time>
      </trkpt>
      <trkpt lat="38.457451" lon="-3.015444">
        <ele>853.482388</ele>
        <time>2020-08-08T09:55:02.343Z</time>
      </trkpt>
      <trkpt lat="38.457402" lon="-3.015319">
        <ele>853.234833</ele>
        <time>2020-08-08T09:55:03.364Z</time>
      </trkpt>
      <trkpt lat="38.457356" lon="-3.015196">
        <ele>852.993440</ele>
        <time>2020-08-08T09:55:04.351Z</time>
      </trkpt>
      <trkpt lat="38.457332" lon="-3.015061">
        <ele>852.748278</ele>
        <time>2020-08-08T09:55:05.359Z</time>
      </trkpt>
      <trkpt lat="38.457301" lon="-3.014926">
        <ele>852.499133</ele>
        <time>2020-08-08T09:55:06.348Z</time>
      </trkpt>
      <trkpt lat="38.457246" lon="-3.014817">
        <ele>852.269496</ele>
        <time>2020-08-08T09:55:07.350Z</time>
      </trkpt>
      <trkpt lat="38.457236" lon="-3.014683">
        <ele>852.031114</ele>
        <time>2020-08-08T09:55:08.343Z</time>
      </trkpt>
      <trkpt lat="38.457219" lon="-3.014549">
        <ele>851.790713</ele>
        <time>2020-08-08T09:55:09.335Z</time>
      </trkpt>
      <trkpt lat="38.457230" lon="-3.014399">
        <ele>851.523908</ele>
        <time>2020-08-08T09:55:10.350Z</time>
      </trkpt>
      <trkpt lat="38.457221" lon="-3.014252">
        <ele>851.262784</ele>
        <time>2020-08-08T09:55:11.347Z</time>
      </trkpt>
      <trkpt lat="38.457215" lon="-3.014123">
        <ele>851.019256</ele>
        <time>2020-08-08T09:55:12.338Z</time>
      </trkpt>
      <trkpt lat="38.457210" lon="-3.013988">
        <ele>850.744576</ele>
        <time>2020-08-08T09:55:13.352Z</time>
      </trkpt>
      <trkpt lat="38.457211" lon="-3.013857">
        <ele>850.478321</ele>
        <time>2020-08-08T09:55:14.336Z</time>
      </trkpt>
      <trkpt lat="38.457207" lon="-3.013741">
        <ele>850.242335</ele>
        <time>2020-08-08T09:55:15.356Z</time>
      </trkpt>
      <trkpt lat="38.457207" lon="-3.013626">
        <ele>850.008610</ele>
        <time>2020-08-08T09:55:16.340Z</time>
      </trkpt>
      <trkpt lat="38.457204" lon="-3.013489">
        <ele>849.730064</ele>
        <time>2020-08-08T09:55:17.339Z</time>
      </trkpt>
      <trkpt lat="38.457207" lon="-3.013371">
        <ele>849.490115</ele>
        <time>2020-08-08T09:55:18.350Z</time>
      </trkpt>
      <trkpt lat="38.457211" lon="-3.013141">
        <ele>849.022550</ele>
        <time>2020-08-08T09:55:20.349Z</time>
      </trkpt>
      <trkpt lat="38.457199" lon="-3.012934">
        <ele>848.600694</ele>
        <time>2020-08-08T09:55:22.349Z</time>
      </trkpt>
      <trkpt lat="38.457211" lon="-3.012725">
        <ele>848.174785</ele>
        <time>2020-08-08T09:55:24.351Z</time>
      </trkpt>
      <trkpt lat="38.457219" lon="-3.012608">
        <ele>847.936090</ele>
        <time>2020-08-08T09:55:25.354Z</time>
      </trkpt>
      <trkpt lat="38.457212" lon="-3.012415">
        <ele>847.543419</ele>
        <time>2020-08-08T09:55:27.342Z</time>
      </trkpt>
      <trkpt lat="38.457225" lon="-3.012212">
        <ele>847.129466</ele>
        <time>2020-08-08T09:55:29.360Z</time>
      </trkpt>
      <trkpt lat="38.457239" lon="-3.012032">
        <ele>846.761836</ele>
        <time>2020-08-08T09:55:31.348Z</time>
      </trkpt>
      <trkpt lat="38.457228" lon="-3.011833">
        <ele>846.307745</ele>
        <time>2020-08-08T09:55:33.355Z</time>
      </trkpt>
      <trkpt lat="38.457169" lon="-3.011644">
        <ele>845.709258</ele>
        <time>2020-08-08T09:55:35.341Z</time>
      </trkpt>
      <trkpt lat="38.457109" lon="-3.011451">
        <ele>845.098448</ele>
        <time>2020-08-08T09:55:37.352Z</time>
      </trkpt>
      <trkpt lat="38.457036" lon="-3.011279">
        <ele>844.522979</ele>
        <time>2020-08-08T09:55:39.330Z</time>
      </trkpt>
      <trkpt lat="38.456935" lon="-3.011106">
        <ele>843.888239</ele>
        <time>2020-08-08T09:55:41.350Z</time>
      </trkpt>
      <trkpt lat="38.456863" lon="-3.010938">
        <ele>843.324899</ele>
        <time>2020-08-08T09:55:43.360Z</time>
      </trkpt>
      <trkpt lat="38.456786" lon="-3.010779">
        <ele>842.774988</ele>
        <time>2020-08-08T09:55:45.366Z</time>
      </trkpt>
      <trkpt lat="38.456670" lon="-3.010646">
        <ele>842.189396</ele>
        <time>2020-08-08T09:55:47.350Z</time>
      </trkpt>
      <trkpt lat="38.456552" lon="-3.010529">
        <ele>841.628225</ele>
        <time>2020-08-08T09:55:49.356Z</time>
      </trkpt>
      <trkpt lat="38.456417" lon="-3.010457">
        <ele>841.078670</ele>
        <time>2020-08-08T09:55:51.334Z</time>
      </trkpt>
      <trkpt lat="38.456270" lon="-3.010409">
        <ele>840.508722</ele>
        <time>2020-08-08T09:55:53.353Z</time>
      </trkpt>
      <trkpt lat="38.456132" lon="-3.010370">
        <ele>839.977805</ele>
        <time>2020-08-08T09:55:55.354Z</time>
      </trkpt>
      <trkpt lat="38.456000" lon="-3.010324">
        <ele>839.447946</ele>
        <time>2020-08-08T09:55:57.383Z</time>
      </trkpt>
      <trkpt lat="38.455870" lon="-3.010286">
        <ele>838.914496</ele>
        <time>2020-08-08T09:55:59.357Z</time>
      </trkpt>
      <trkpt lat="38.455738" lon="-3.010224">
        <ele>838.351911</ele>
        <time>2020-08-08T09:56:01.343Z</time>
      </trkpt>
      <trkpt lat="38.455603" lon="-3.010125">
        <ele>837.729203</ele>
        <time>2020-08-08T09:56:03.339Z</time>
      </trkpt>
      <trkpt lat="38.455461" lon="-3.010043">
        <ele>837.105825</ele>
        <time>2020-08-08T09:56:05.353Z</time>
      </trkpt>
      <trkpt lat="38.455314" lon="-3.009944">
        <ele>836.441061</ele>
        <time>2020-08-08T09:56:07.351Z</time>
      </trkpt>
      <trkpt lat="38.455171" lon="-3.009827">
        <ele>835.761724</ele>
        <time>2020-08-08T09:56:09.354Z</time>
      </trkpt>
      <trkpt lat="38.455093" lon="-3.009768">
        <ele>835.399095</ele>
        <time>2020-08-08T09:56:10.354Z</time>
      </trkpt>
      <trkpt lat="38.454942" lon="-3.009651">
        <ele>834.692602</ele>
        <time>2020-08-08T09:56:12.338Z</time>
      </trkpt>
      <trkpt lat="38.454867" lon="-3.009587">
        <ele>834.331784</ele>
        <time>2020-08-08T09:56:13.344Z</time>
      </trkpt>
      <trkpt lat="38.454731" lon="-3.009485">
        <ele>833.700895</ele>
        <time>2020-08-08T09:56:15.352Z</time>
      </trkpt>
      <trkpt lat="38.454608" lon="-3.009375">
        <ele>833.100237</ele>
        <time>2020-08-08T09:56:17.342Z</time>
      </trkpt>
      <trkpt lat="38.454471" lon="-3.009264">
        <ele>832.465248</ele>
        <time>2020-08-08T09:56:19.362Z</time>
      </trkpt>
      <trkpt lat="38.454332" lon="-3.009174">
        <ele>831.980529</ele>
        <time>2020-08-08T09:56:21.346Z</time>
      </trkpt>
      <trkpt lat="38.454217" lon="-3.009056">
        <ele>831.521691</ele>
        <time>2020-08-08T09:56:23.343Z</time>
      </trkpt>
      <trkpt lat="38.454081" lon="-3.008948">
        <ele>831.023579</ele>
        <time>2020-08-08T09:56:25.356Z</time>
      </trkpt>
      <trkpt lat="38.453937" lon="-3.008839">
        <ele>830.502935</ele>
        <time>2020-08-08T09:56:27.366Z</time>
      </trkpt>
      <trkpt lat="38.453858" lon="-3.008782">
        <ele>830.220718</ele>
        <time>2020-08-08T09:56:28.354Z</time>
      </trkpt>
      <trkpt lat="38.453717" lon="-3.008672">
        <ele>829.706812</ele>
        <time>2020-08-08T09:56:30.358Z</time>
      </trkpt>
      <trkpt lat="38.453639" lon="-3.008609">
        <ele>829.419759</ele>
        <time>2020-08-08T09:56:31.348Z</time>
      </trkpt>
      <trkpt lat="38.453561" lon="-3.008550">
        <ele>829.137795</ele>
        <time>2020-08-08T09:56:32.340Z</time>
      </trkpt>
      <trkpt lat="38.453407" lon="-3.008434">
        <ele>828.581699</ele>
        <time>2020-08-08T09:56:34.375Z</time>
      </trkpt>
      <trkpt lat="38.453259" lon="-3.008313">
        <ele>828.035124</ele>
        <time>2020-08-08T09:56:36.344Z</time>
      </trkpt>
      <trkpt lat="38.453181" lon="-3.008251">
        <ele>827.749366</ele>
        <time>2020-08-08T09:56:37.360Z</time>
      </trkpt>
      <trkpt lat="38.453043" lon="-3.008127">
        <ele>827.224543</ele>
        <time>2020-08-08T09:56:39.362Z</time>
      </trkpt>
      <trkpt lat="38.452894" lon="-3.008027">
        <ele>826.722118</ele>
        <time>2020-08-08T09:56:41.367Z</time>
      </trkpt>
      <trkpt lat="38.452745" lon="-3.007945">
        <ele>826.266117</ele>
        <time>2020-08-08T09:56:43.360Z</time>
      </trkpt>
      <trkpt lat="38.452664" lon="-3.007882">
        <ele>825.999562</ele>
        <time>2020-08-08T09:56:44.340Z</time>
      </trkpt>
      <trkpt lat="38.452587" lon="-3.007819">
        <ele>825.742541</ele>
        <time>2020-08-08T09:56:45.361Z</time>
      </trkpt>
      <trkpt lat="38.452449" lon="-3.007683">
        <ele>825.252616</ele>
        <time>2020-08-08T09:56:47.342Z</time>
      </trkpt>
      <trkpt lat="38.452373" lon="-3.007617">
        <ele>824.994302</ele>
        <time>2020-08-08T09:56:48.346Z</time>
      </trkpt>
      <trkpt lat="38.452242" lon="-3.007464">
        <ele>824.495350</ele>
        <time>2020-08-08T09:56:50.343Z</time>
      </trkpt>
      <trkpt lat="38.452121" lon="-3.007296">
        <ele>823.992981</ele>
        <time>2020-08-08T09:56:52.349Z</time>
      </trkpt>
      <trkpt lat="38.452016" lon="-3.007125">
        <ele>823.514714</ele>
        <time>2020-08-08T09:56:54.351Z</time>
      </trkpt>
      <trkpt lat="38.451964" lon="-3.007027">
        <ele>823.254169</ele>
        <time>2020-08-08T09:56:55.354Z</time>
      </trkpt>
      <trkpt lat="38.451894" lon="-3.006839">
        <ele>822.795995</ele>
        <time>2020-08-08T09:56:57.355Z</time>
      </trkpt>
      <trkpt lat="38.451862" lon="-3.006731">
        <ele>822.541843</ele>
        <time>2020-08-08T09:56:58.339Z</time>
      </trkpt>
      <trkpt lat="38.451785" lon="-3.006541">
        <ele>822.070977</ele>
        <time>2020-08-08T09:57:00.347Z</time>
      </trkpt>
      <trkpt lat="38.451710" lon="-3.006358">
        <ele>821.428186</ele>
        <time>2020-08-08T09:57:02.350Z</time>
      </trkpt>
      <trkpt lat="38.451642" lon="-3.006180">
        <ele>820.662275</ele>
        <time>2020-08-08T09:57:04.350Z</time>
      </trkpt>
      <trkpt lat="38.451559" lon="-3.006011">
        <ele>819.890817</ele>
        <time>2020-08-08T09:57:06.355Z</time>
      </trkpt>
      <trkpt lat="38.451464" lon="-3.005856">
        <ele>819.129635</ele>
        <time>2020-08-08T09:57:08.351Z</time>
      </trkpt>
      <trkpt lat="38.451343" lon="-3.005741">
        <ele>818.384768</ele>
        <time>2020-08-08T09:57:10.353Z</time>
      </trkpt>
      <trkpt lat="38.451220" lon="-3.005634">
        <ele>817.649809</ele>
        <time>2020-08-08T09:57:12.352Z</time>
      </trkpt>
      <trkpt lat="38.451095" lon="-3.005534">
        <ele>816.921393</ele>
        <time>2020-08-08T09:57:14.352Z</time>
      </trkpt>
      <trkpt lat="38.450970" lon="-3.005432">
        <ele>816.188841</ele>
        <time>2020-08-08T09:57:16.349Z</time>
      </trkpt>
      <trkpt lat="38.450851" lon="-3.005336">
        <ele>815.493741</ele>
        <time>2020-08-08T09:57:18.338Z</time>
      </trkpt>
      <trkpt lat="38.450748" lon="-3.005242">
        <ele>814.868551</ele>
        <time>2020-08-08T09:57:20.340Z</time>
      </trkpt>
      <trkpt lat="38.450649" lon="-3.005154">
        <ele>814.272877</ele>
        <time>2020-08-08T09:57:22.343Z</time>
      </trkpt>
      <trkpt lat="38.450558" lon="-3.005083">
        <ele>813.746252</ele>
        <time>2020-08-08T09:57:24.354Z</time>
      </trkpt>
      <trkpt lat="38.450455" lon="-3.005019">
        <ele>813.180592</ele>
        <time>2020-08-08T09:57:26.342Z</time>
      </trkpt>
      <trkpt lat="38.450349" lon="-3.004950">
        <ele>812.927033</ele>
        <time>2020-08-08T09:57:28.347Z</time>
      </trkpt>
      <trkpt lat="38.450218" lon="-3.004923">
        <ele>812.833162</ele>
        <time>2020-08-08T09:57:30.356Z</time>
      </trkpt>
      <trkpt lat="38.450081" lon="-3.004889">
        <ele>812.734434</ele>
        <time>2020-08-08T09:57:32.348Z</time>
      </trkpt>
      <trkpt lat="38.449950" lon="-3.004855">
        <ele>812.639868</ele>
        <time>2020-08-08T09:57:34.330Z</time>
      </trkpt>
      <trkpt lat="38.449820" lon="-3.004821">
        <ele>812.545995</ele>
        <time>2020-08-08T09:57:36.332Z</time>
      </trkpt>
      <trkpt lat="38.449675" lon="-3.004801">
        <ele>812.442824</ele>
        <time>2020-08-08T09:57:38.331Z</time>
      </trkpt>
      <trkpt lat="38.449538" lon="-3.004781">
        <ele>812.345278</ele>
        <time>2020-08-08T09:57:40.345Z</time>
      </trkpt>
      <trkpt lat="38.449406" lon="-3.004781">
        <ele>812.251900</ele>
        <time>2020-08-08T09:57:42.355Z</time>
      </trkpt>
      <trkpt lat="38.449279" lon="-3.004784">
        <ele>812.162043</ele>
        <time>2020-08-08T09:57:44.348Z</time>
      </trkpt>
      <trkpt lat="38.449157" lon="-3.004797">
        <ele>812.075439</ele>
        <time>2020-08-08T09:57:46.356Z</time>
      </trkpt>
      <trkpt lat="38.449028" lon="-3.004799">
        <ele>811.984177</ele>
        <time>2020-08-08T09:57:48.339Z</time>
      </trkpt>
      <trkpt lat="38.448917" lon="-3.004793">
        <ele>811.905584</ele>
        <time>2020-08-08T09:57:50.359Z</time>
      </trkpt>
      <trkpt lat="38.448794" lon="-3.004805">
        <ele>811.818319</ele>
        <time>2020-08-08T09:57:52.339Z</time>
      </trkpt>
      <trkpt lat="38.448681" lon="-3.004813">
        <ele>811.738259</ele>
        <time>2020-08-08T09:57:54.336Z</time>
      </trkpt>
      <trkpt lat="38.448567" lon="-3.004848">
        <ele>811.697224</ele>
        <time>2020-08-08T09:57:56.354Z</time>
      </trkpt>
      <trkpt lat="38.448448" lon="-3.004899">
        <ele>811.675863</ele>
        <time>2020-08-08T09:57:58.332Z</time>
      </trkpt>
      <trkpt lat="38.448319" lon="-3.004937">
        <ele>811.653334</ele>
        <time>2020-08-08T09:58:00.329Z</time>
      </trkpt>
      <trkpt lat="38.448194" lon="-3.004976">
        <ele>811.631437</ele>
        <time>2020-08-08T09:58:02.352Z</time>
      </trkpt>
      <trkpt lat="38.448058" lon="-3.004975">
        <ele>811.608294</ele>
        <time>2020-08-08T09:58:04.328Z</time>
      </trkpt>
      <trkpt lat="38.447928" lon="-3.004952">
        <ele>811.585960</ele>
        <time>2020-08-08T09:58:06.343Z</time>
      </trkpt>
      <trkpt lat="38.447788" lon="-3.004899">
        <ele>811.561111</ele>
        <time>2020-08-08T09:58:08.354Z</time>
      </trkpt>
      <trkpt lat="38.447654" lon="-3.004838">
        <ele>811.536902</ele>
        <time>2020-08-08T09:58:10.357Z</time>
      </trkpt>
      <trkpt lat="38.447515" lon="-3.004784">
        <ele>811.512178</ele>
        <time>2020-08-08T09:58:12.351Z</time>
      </trkpt>
      <trkpt lat="38.447382" lon="-3.004715">
        <ele>811.487748</ele>
        <time>2020-08-08T09:58:14.352Z</time>
      </trkpt>
      <trkpt lat="38.447266" lon="-3.004623">
        <ele>811.464510</ele>
        <time>2020-08-08T09:58:16.345Z</time>
      </trkpt>
      <trkpt lat="38.447140" lon="-3.004518">
        <ele>811.438906</ele>
        <time>2020-08-08T09:58:18.345Z</time>
      </trkpt>
      <trkpt lat="38.447036" lon="-3.004409">
        <ele>811.416010</ele>
        <time>2020-08-08T09:58:20.350Z</time>
      </trkpt>
      <trkpt lat="38.446947" lon="-3.004312">
        <ele>811.565664</ele>
        <time>2020-08-08T09:58:22.361Z</time>
      </trkpt>
      <trkpt lat="38.446860" lon="-3.004218">
        <ele>811.941356</ele>
        <time>2020-08-08T09:58:24.356Z</time>
      </trkpt>
      <trkpt lat="38.446794" lon="-3.004128">
        <ele>812.259671</ele>
        <time>2020-08-08T09:58:26.352Z</time>
      </trkpt>
      <trkpt lat="38.446708" lon="-3.004012">
        <ele>812.672054</ele>
        <time>2020-08-08T09:58:29.356Z</time>
      </trkpt>
      <trkpt lat="38.446618" lon="-3.003921">
        <ele>813.050493</ele>
        <time>2020-08-08T09:58:33.340Z</time>
      </trkpt>
      <trkpt lat="38.446552" lon="-3.003843">
        <ele>813.346951</ele>
        <time>2020-08-08T09:58:36.344Z</time>
      </trkpt>
      <trkpt lat="38.446466" lon="-3.003742">
        <ele>813.732132</ele>
        <time>2020-08-08T09:58:40.356Z</time>
      </trkpt>
      <trkpt lat="38.446390" lon="-3.003654">
        <ele>814.070337</ele>
        <time>2020-08-08T09:58:44.354Z</time>
      </trkpt>
      <trkpt lat="38.446305" lon="-3.003564">
        <ele>814.434345</ele>
        <time>2020-08-08T09:58:48.349Z</time>
      </trkpt>
      <trkpt lat="38.446226" lon="-3.003468">
        <ele>814.793856</ele>
        <time>2020-08-08T09:58:52.356Z</time>
      </trkpt>
      <trkpt lat="38.446143" lon="-3.003376">
        <ele>815.156178</ele>
        <time>2020-08-08T09:58:56.340Z</time>
      </trkpt>
      <trkpt lat="38.446060" lon="-3.003295">
        <ele>815.500551</ele>
        <time>2020-08-08T09:59:00.358Z</time>
      </trkpt>
      <trkpt lat="38.445981" lon="-3.003211">
        <ele>815.839447</ele>
        <time>2020-08-08T09:59:04.353Z</time>
      </trkpt>
      <trkpt lat="38.445910" lon="-3.003134">
        <ele>816.146528</ele>
        <time>2020-08-08T09:59:07.334Z</time>
      </trkpt>
      <trkpt lat="38.445827" lon="-3.003071">
        <ele>816.464830</ele>
        <time>2020-08-08T09:59:11.359Z</time>
      </trkpt>
      <trkpt lat="38.445738" lon="-3.002997">
        <ele>816.814937</ele>
        <time>2020-08-08T09:59:15.337Z</time>
      </trkpt>
      <trkpt lat="38.445651" lon="-3.002913">
        <ele>817.174495</ele>
        <time>2020-08-08T09:59:19.362Z</time>
      </trkpt>
      <trkpt lat="38.445557" lon="-3.002825">
        <ele>818.356513</ele>
        <time>2020-08-08T09:59:23.344Z</time>
      </trkpt>
      <trkpt lat="38.445463" lon="-3.002750">
        <ele>820.016597</ele>
        <time>2020-08-08T09:59:27.333Z</time>
      </trkpt>
      <trkpt lat="38.445375" lon="-3.002682">
        <ele>821.557121</ele>
        <time>2020-08-08T09:59:31.333Z</time>
      </trkpt>
      <trkpt lat="38.445289" lon="-3.002607">
        <ele>823.116892</ele>
        <time>2020-08-08T09:59:35.351Z</time>
      </trkpt>
      <trkpt lat="38.445211" lon="-3.002544">
        <ele>824.499192</ele>
        <time>2020-08-08T09:59:38.349Z</time>
      </trkpt>
      <trkpt lat="38.445129" lon="-3.002477">
        <ele>825.957224</ele>
        <time>2020-08-08T09:59:41.337Z</time>
      </trkpt>
      <trkpt lat="38.445040" lon="-3.002404">
        <ele>827.541497</ele>
        <time>2020-08-08T09:59:44.341Z</time>
      </trkpt>
      <trkpt lat="38.444953" lon="-3.002329">
        <ele>829.113661</ele>
        <time>2020-08-08T09:59:47.349Z</time>
      </trkpt>
      <trkpt lat="38.444871" lon="-3.002262">
        <ele>830.571693</ele>
        <time>2020-08-08T09:59:50.355Z</time>
      </trkpt>
      <trkpt lat="38.444792" lon="-3.002195">
        <ele>831.992089</ele>
        <time>2020-08-08T09:59:53.349Z</time>
      </trkpt>
      <trkpt lat="38.444712" lon="-3.002140">
        <ele>833.352881</ele>
        <time>2020-08-08T09:59:56.344Z</time>
      </trkpt>
      <trkpt lat="38.444630" lon="-3.002076">
        <ele>834.792252</ele>
        <time>2020-08-08T09:59:59.338Z</time>
      </trkpt>
      <trkpt lat="38.444541" lon="-3.002013">
        <ele>836.316329</ele>
        <time>2020-08-08T10:00:02.344Z</time>
      </trkpt>
      <trkpt lat="38.444447" lon="-3.001961">
        <ele>837.850602</ele>
        <time>2020-08-08T10:00:05.346Z</time>
      </trkpt>
      <trkpt lat="38.444357" lon="-3.001917">
        <ele>839.293944</ele>
        <time>2020-08-08T10:00:08.358Z</time>
      </trkpt>
      <trkpt lat="38.444262" lon="-3.001888">
        <ele>840.756837</ele>
        <time>2020-08-08T10:00:11.351Z</time>
      </trkpt>
      <trkpt lat="38.444171" lon="-3.001879">
        <ele>842.123805</ele>
        <time>2020-08-08T10:00:14.364Z</time>
      </trkpt>
      <trkpt lat="38.444067" lon="-3.001877">
        <ele>843.681565</ele>
        <time>2020-08-08T10:00:18.344Z</time>
      </trkpt>
      <trkpt lat="38.443969" lon="-3.001894">
        <ele>845.830896</ele>
        <time>2020-08-08T10:00:22.339Z</time>
      </trkpt>
      <trkpt lat="38.443864" lon="-3.001948">
        <ele>848.797010</ele>
        <time>2020-08-08T10:00:26.363Z</time>
      </trkpt>
      <trkpt lat="38.443754" lon="-3.001987">
        <ele>851.788395</ele>
        <time>2020-08-08T10:00:30.348Z</time>
      </trkpt>
      <trkpt lat="38.443654" lon="-3.002019">
        <ele>854.489731</ele>
        <time>2020-08-08T10:02:33.353Z</time>
      </trkpt>
      <trkpt lat="38.443553" lon="-3.002053">
        <ele>857.226667</ele>
        <time>2020-08-08T10:02:38.344Z</time>
      </trkpt>
      <trkpt lat="38.443447" lon="-3.002086">
        <ele>860.085551</ele>
        <time>2020-08-08T10:02:43.345Z</time>
      </trkpt>
      <trkpt lat="38.443339" lon="-3.002096">
        <ele>862.922898</ele>
        <time>2020-08-08T10:02:48.352Z</time>
      </trkpt>
      <trkpt lat="38.443229" lon="-3.002121">
        <ele>865.850527</ele>
        <time>2020-08-08T10:02:53.349Z</time>
      </trkpt>
      <trkpt lat="38.443117" lon="-3.002129">
        <ele>868.789843</ele>
        <time>2020-08-08T10:02:58.348Z</time>
      </trkpt>
      <trkpt lat="38.443025" lon="-3.002147">
        <ele>871.228651</ele>
        <time>2020-08-08T10:03:02.345Z</time>
      </trkpt>
      <trkpt lat="38.442932" lon="-3.002189">
        <ele>873.813475</ele>
        <time>2020-08-08T10:03:07.354Z</time>
      </trkpt>
      <trkpt lat="38.442835" lon="-3.002252">
        <ele>876.665114</ele>
        <time>2020-08-08T10:03:11.342Z</time>
      </trkpt>
      <trkpt lat="38.442741" lon="-3.002326">
        <ele>879.558756</ele>
        <time>2020-08-08T10:03:16.335Z</time>
      </trkpt>
      <trkpt lat="38.442650" lon="-3.002376">
        <ele>882.154647</ele>
        <time>2020-08-08T10:03:20.358Z</time>
      </trkpt>
      <trkpt lat="38.442549" lon="-3.002442">
        <ele>885.127633</ele>
        <time>2020-08-08T10:03:25.352Z</time>
      </trkpt>
      <trkpt lat="38.442465" lon="-3.002492">
        <ele>887.556126</ele>
        <time>2020-08-08T10:03:29.352Z</time>
      </trkpt>
      <trkpt lat="38.442379" lon="-3.002557">
        <ele>890.174825</ele>
        <time>2020-08-08T10:03:34.359Z</time>
      </trkpt>
      <trkpt lat="38.442267" lon="-3.002587">
        <ele>891.415748</ele>
        <time>2020-08-08T10:03:39.349Z</time>
      </trkpt>
      <trkpt lat="38.442174" lon="-3.002627">
        <ele>891.436963</ele>
        <time>2020-08-08T10:03:44.352Z</time>
      </trkpt>
      <trkpt lat="38.442087" lon="-3.002668">
        <ele>891.457011</ele>
        <time>2020-08-08T10:03:49.343Z</time>
      </trkpt>
      <trkpt lat="38.442005" lon="-3.002715">
        <ele>891.476442</ele>
        <time>2020-08-08T10:03:53.346Z</time>
      </trkpt>
      <trkpt lat="38.441911" lon="-3.002767">
        <ele>891.498588</ele>
        <time>2020-08-08T10:03:57.346Z</time>
      </trkpt>
      <trkpt lat="38.441818" lon="-3.002804">
        <ele>891.519646</ele>
        <time>2020-08-08T10:04:01.355Z</time>
      </trkpt>
      <trkpt lat="38.441718" lon="-3.002845">
        <ele>891.542351</ele>
        <time>2020-08-08T10:04:05.341Z</time>
      </trkpt>
      <trkpt lat="38.441622" lon="-3.002892">
        <ele>891.564578</ele>
        <time>2020-08-08T10:04:08.252Z</time>
      </trkpt>
      <trkpt lat="38.441517" lon="-3.002940">
        <ele>891.588688</ele>
        <time>2020-08-08T10:04:13.249Z</time>
      </trkpt>
      <trkpt lat="38.441427" lon="-3.002971">
        <ele>891.608839</ele>
        <time>2020-08-08T10:04:17.278Z</time>
      </trkpt>
      <trkpt lat="38.441334" lon="-3.003014">
        <ele>891.630222</ele>
        <time>2020-08-08T10:04:21.247Z</time>
      </trkpt>
      <trkpt lat="38.441231" lon="-3.003054">
        <ele>891.653495</ele>
        <time>2020-08-08T10:04:25.259Z</time>
      </trkpt>
      <trkpt lat="38.441136" lon="-3.003096">
        <ele>891.675229</ele>
        <time>2020-08-08T10:04:29.258Z</time>
      </trkpt>
      <trkpt lat="38.441036" lon="-3.003133">
        <ele>891.697736</ele>
        <time>2020-08-08T10:04:33.257Z</time>
      </trkpt>
      <trkpt lat="38.440941" lon="-3.003179">
        <ele>891.719700</ele>
        <time>2020-08-08T10:04:37.264Z</time>
      </trkpt>
      <trkpt lat="38.440854" lon="-3.003233">
        <ele>891.740613</ele>
        <time>2020-08-08T10:04:41.262Z</time>
      </trkpt>
      <trkpt lat="38.440764" lon="-3.003276">
        <ele>891.761386</ele>
        <time>2020-08-08T10:04:45.259Z</time>
      </trkpt>
      <trkpt lat="38.440656" lon="-3.003311">
        <ele>891.785474</ele>
        <time>2020-08-08T10:04:50.245Z</time>
      </trkpt>
      <trkpt lat="38.440566" lon="-3.003334">
        <ele>891.688204</ele>
        <time>2020-08-08T10:04:54.274Z</time>
      </trkpt>
      <trkpt lat="38.440461" lon="-3.003359">
        <ele>891.535267</ele>
        <time>2020-08-08T10:04:58.265Z</time>
      </trkpt>
      <trkpt lat="38.440363" lon="-3.003375">
        <ele>891.393802</ele>
        <time>2020-08-08T10:05:02.248Z</time>
      </trkpt>
      <trkpt lat="38.440269" lon="-3.003398">
        <ele>891.256757</ele>
        <time>2020-08-08T10:05:06.275Z</time>
      </trkpt>
      <trkpt lat="38.440171" lon="-3.003410">
        <ele>891.115791</ele>
        <time>2020-08-08T10:05:10.264Z</time>
      </trkpt>
      <trkpt lat="38.440065" lon="-3.003421">
        <ele>890.963513</ele>
        <time>2020-08-08T10:05:14.269Z</time>
      </trkpt>
      <trkpt lat="38.439958" lon="-3.003425">
        <ele>890.810238</ele>
        <time>2020-08-08T10:05:18.248Z</time>
      </trkpt>
      <trkpt lat="38.439855" lon="-3.003422">
        <ele>890.662718</ele>
        <time>2020-08-08T10:05:22.276Z</time>
      </trkpt>
      <trkpt lat="38.439753" lon="-3.003412">
        <ele>890.516238</ele>
        <time>2020-08-08T10:05:26.263Z</time>
      </trkpt>
      <trkpt lat="38.439651" lon="-3.003390">
        <ele>890.368119</ele>
        <time>2020-08-08T10:05:30.265Z</time>
      </trkpt>
      <trkpt lat="38.439553" lon="-3.003367">
        <ele>890.225445</ele>
        <time>2020-08-08T10:05:34.265Z</time>
      </trkpt>
      <trkpt lat="38.439441" lon="-3.003354">
        <ele>890.064416</ele>
        <time>2020-08-08T10:05:38.257Z</time>
      </trkpt>
      <trkpt lat="38.439331" lon="-3.003324">
        <ele>889.903357</ele>
        <time>2020-08-08T10:05:42.257Z</time>
      </trkpt>
      <trkpt lat="38.439221" lon="-3.003304">
        <ele>889.744263</ele>
        <time>2020-08-08T10:05:46.282Z</time>
      </trkpt>
      <trkpt lat="38.439130" lon="-3.003281">
        <ele>889.611435</ele>
        <time>2020-08-08T10:05:49.259Z</time>
      </trkpt>
      <trkpt lat="38.439038" lon="-3.003270">
        <ele>889.479127</ele>
        <time>2020-08-08T10:05:52.264Z</time>
      </trkpt>
      <trkpt lat="38.438938" lon="-3.003252">
        <ele>889.334525</ele>
        <time>2020-08-08T10:05:55.266Z</time>
      </trkpt>
      <trkpt lat="38.438834" lon="-3.003223">
        <ele>889.238482</ele>
        <time>2020-08-08T10:05:58.259Z</time>
      </trkpt>
      <trkpt lat="38.438723" lon="-3.003198">
        <ele>889.357543</ele>
        <time>2020-08-08T10:06:01.253Z</time>
      </trkpt>
      <trkpt lat="38.438601" lon="-3.003173">
        <ele>889.488063</ele>
        <time>2020-08-08T10:06:04.245Z</time>
      </trkpt>
      <trkpt lat="38.438466" lon="-3.003118">
        <ele>889.637750</ele>
        <time>2020-08-08T10:06:07.253Z</time>
      </trkpt>
      <trkpt lat="38.438373" lon="-3.003114">
        <ele>889.736043</ele>
        <time>2020-08-08T10:06:09.247Z</time>
      </trkpt>
      <trkpt lat="38.438269" lon="-3.003087">
        <ele>889.848148</ele>
        <time>2020-08-08T10:06:11.245Z</time>
      </trkpt>
      <trkpt lat="38.438167" lon="-3.003064">
        <ele>889.957559</ele>
        <time>2020-08-08T10:06:13.244Z</time>
      </trkpt>
      <trkpt lat="38.438064" lon="-3.003044">
        <ele>890.067610</ele>
        <time>2020-08-08T10:06:15.258Z</time>
      </trkpt>
      <trkpt lat="38.437941" lon="-3.003021">
        <ele>890.198923</ele>
        <time>2020-08-08T10:06:17.246Z</time>
      </trkpt>
      <trkpt lat="38.437817" lon="-3.002985">
        <ele>890.333250</ele>
        <time>2020-08-08T10:06:19.245Z</time>
      </trkpt>
      <trkpt lat="38.437706" lon="-3.002938">
        <ele>890.456781</ele>
        <time>2020-08-08T10:06:21.254Z</time>
      </trkpt>
      <trkpt lat="38.437578" lon="-3.002891">
        <ele>890.597470</ele>
        <time>2020-08-08T10:06:23.259Z</time>
      </trkpt>
      <trkpt lat="38.437430" lon="-3.002841">
        <ele>890.759186</ele>
        <time>2020-08-08T10:06:25.252Z</time>
      </trkpt>
      <trkpt lat="38.437284" lon="-3.002791">
        <ele>890.918860</ele>
        <time>2020-08-08T10:06:27.278Z</time>
      </trkpt>
      <trkpt lat="38.437114" lon="-3.002740">
        <ele>891.103324</ele>
        <time>2020-08-08T10:06:29.271Z</time>
      </trkpt>
      <trkpt lat="38.436932" lon="-3.002688">
        <ele>886.563518</ele>
        <time>2020-08-08T10:06:31.259Z</time>
      </trkpt>
      <trkpt lat="38.436823" lon="-3.002656">
        <ele>883.670559</ele>
        <time>2020-08-08T10:06:32.242Z</time>
      </trkpt>
      <trkpt lat="38.436729" lon="-3.002627">
        <ele>881.169186</ele>
        <time>2020-08-08T10:06:33.250Z</time>
      </trkpt>
      <trkpt lat="38.436633" lon="-3.002597">
        <ele>878.612759</ele>
        <time>2020-08-08T10:06:34.240Z</time>
      </trkpt>
      <trkpt lat="38.436536" lon="-3.002567">
        <ele>876.031200</ele>
        <time>2020-08-08T10:06:35.263Z</time>
      </trkpt>
      <trkpt lat="38.436436" lon="-3.002537">
        <ele>873.374162</ele>
        <time>2020-08-08T10:06:36.264Z</time>
      </trkpt>
      <trkpt lat="38.436337" lon="-3.002511">
        <ele>870.759824</ele>
        <time>2020-08-08T10:06:37.275Z</time>
      </trkpt>
      <trkpt lat="38.436236" lon="-3.002474">
        <ele>868.041948</ele>
        <time>2020-08-08T10:06:38.266Z</time>
      </trkpt>
      <trkpt lat="38.436130" lon="-3.002426">
        <ele>865.132803</ele>
        <time>2020-08-08T10:06:39.263Z</time>
      </trkpt>
      <trkpt lat="38.436028" lon="-3.002395">
        <ele>862.420758</ele>
        <time>2020-08-08T10:06:40.245Z</time>
      </trkpt>
      <trkpt lat="38.435914" lon="-3.002361">
        <ele>859.392658</ele>
        <time>2020-08-08T10:06:41.261Z</time>
      </trkpt>
      <trkpt lat="38.435806" lon="-3.002326">
        <ele>856.510549</ele>
        <time>2020-08-08T10:06:42.252Z</time>
      </trkpt>
      <trkpt lat="38.435696" lon="-3.002290">
        <ele>853.573305</ele>
        <time>2020-08-08T10:06:43.241Z</time>
      </trkpt>
      <trkpt lat="38.435586" lon="-3.002257">
        <ele>850.650562</ele>
        <time>2020-08-08T10:06:44.240Z</time>
      </trkpt>
      <trkpt lat="38.435479" lon="-3.002241">
        <ele>847.863999</ele>
        <time>2020-08-08T10:06:45.242Z</time>
      </trkpt>
      <trkpt lat="38.435364" lon="-3.002202">
        <ele>844.786266</ele>
        <time>2020-08-08T10:06:46.241Z</time>
      </trkpt>
      <trkpt lat="38.435251" lon="-3.002163">
        <ele>843.536115</ele>
        <time>2020-08-08T10:06:47.254Z</time>
      </trkpt>
      <trkpt lat="38.435140" lon="-3.002127">
        <ele>842.432824</ele>
        <time>2020-08-08T10:06:48.249Z</time>
      </trkpt>
      <trkpt lat="38.435018" lon="-3.002094">
        <ele>841.231440</ele>
        <time>2020-08-08T10:06:49.241Z</time>
      </trkpt>
      <trkpt lat="38.434900" lon="-3.002058">
        <ele>840.062672</ele>
        <time>2020-08-08T10:06:50.248Z</time>
      </trkpt>
      <trkpt lat="38.434790" lon="-3.002023">
        <ele>838.970564</ele>
        <time>2020-08-08T10:06:51.246Z</time>
      </trkpt>
      <trkpt lat="38.434677" lon="-3.001996">
        <ele>837.863070</ele>
        <time>2020-08-08T10:06:52.262Z</time>
      </trkpt>
      <trkpt lat="38.434559" lon="-3.001958">
        <ele>836.690702</ele>
        <time>2020-08-08T10:06:53.251Z</time>
      </trkpt>
      <trkpt lat="38.434440" lon="-3.001917">
        <ele>835.503294</ele>
        <time>2020-08-08T10:06:54.244Z</time>
      </trkpt>
      <trkpt lat="38.434327" lon="-3.001881">
        <ele>834.381318</ele>
        <time>2020-08-08T10:06:55.242Z</time>
      </trkpt>
      <trkpt lat="38.434213" lon="-3.001843">
        <ele>833.246274</ele>
        <time>2020-08-08T10:06:56.245Z</time>
      </trkpt>
      <trkpt lat="38.434099" lon="-3.001808">
        <ele>832.116737</ele>
        <time>2020-08-08T10:06:57.242Z</time>
      </trkpt>
      <trkpt lat="38.433985" lon="-3.001771">
        <ele>830.983576</ele>
        <time>2020-08-08T10:06:58.283Z</time>
      </trkpt>
      <trkpt lat="38.433872" lon="-3.001739">
        <ele>829.868523</ele>
        <time>2020-08-08T10:06:59.256Z</time>
      </trkpt>
      <trkpt lat="38.433771" lon="-3.001716">
        <ele>828.880176</ele>
        <time>2020-08-08T10:07:00.255Z</time>
      </trkpt>
      <trkpt lat="38.433666" lon="-3.001691">
        <ele>827.851211</ele>
        <time>2020-08-08T10:07:01.241Z</time>
      </trkpt>
      <trkpt lat="38.433560" lon="-3.001652">
        <ele>826.955444</ele>
        <time>2020-08-08T10:07:02.246Z</time>
      </trkpt>
      <trkpt lat="38.433452" lon="-3.001619">
        <ele>826.261421</ele>
        <time>2020-08-08T10:07:03.250Z</time>
      </trkpt>
      <trkpt lat="38.433339" lon="-3.001572">
        <ele>825.518677</ele>
        <time>2020-08-08T10:07:04.249Z</time>
      </trkpt>
      <trkpt lat="38.433232" lon="-3.001536">
        <ele>824.827134</ele>
        <time>2020-08-08T10:07:05.248Z</time>
      </trkpt>
      <trkpt lat="38.433131" lon="-3.001502">
        <ele>824.174346</ele>
        <time>2020-08-08T10:07:06.252Z</time>
      </trkpt>
      <trkpt lat="38.433031" lon="-3.001460">
        <ele>823.516430</ele>
        <time>2020-08-08T10:07:07.239Z</time>
      </trkpt>
      <trkpt lat="38.432939" lon="-3.001424">
        <ele>822.915061</ele>
        <time>2020-08-08T10:07:08.251Z</time>
      </trkpt>
      <trkpt lat="38.432840" lon="-3.001395">
        <ele>822.280269</ele>
        <time>2020-08-08T10:07:09.247Z</time>
      </trkpt>
      <trkpt lat="38.432739" lon="-3.001367">
        <ele>821.634346</ele>
        <time>2020-08-08T10:07:10.263Z</time>
      </trkpt>
      <trkpt lat="38.432648" lon="-3.001339">
        <ele>821.049344</ele>
        <time>2020-08-08T10:07:11.246Z</time>
      </trkpt>
      <trkpt lat="38.432551" lon="-3.001313">
        <ele>820.429913</ele>
        <time>2020-08-08T10:07:12.258Z</time>
      </trkpt>
      <trkpt lat="38.432378" lon="-3.001256">
        <ele>819.313299</ele>
        <time>2020-08-08T10:07:14.261Z</time>
      </trkpt>
      <trkpt lat="38.432278" lon="-3.001223">
        <ele>818.667794</ele>
        <time>2020-08-08T10:07:15.271Z</time>
      </trkpt>
      <trkpt lat="38.432177" lon="-3.001185">
        <ele>818.009740</ele>
        <time>2020-08-08T10:07:16.258Z</time>
      </trkpt>
      <trkpt lat="38.432080" lon="-3.001153">
        <ele>817.383612</ele>
        <time>2020-08-08T10:07:17.271Z</time>
      </trkpt>
      <trkpt lat="38.431972" lon="-3.001112">
        <ele>816.679441</ele>
        <time>2020-08-08T10:07:18.266Z</time>
      </trkpt>
      <trkpt lat="38.431875" lon="-3.001086">
        <ele>816.060009</ele>
        <time>2020-08-08T10:07:19.266Z</time>
      </trkpt>
      <trkpt lat="38.431785" lon="-3.001058">
        <ele>816.638423</ele>
        <time>2020-08-08T10:07:20.252Z</time>
      </trkpt>
      <trkpt lat="38.431695" lon="-3.001029">
        <ele>817.297321</ele>
        <time>2020-08-08T10:07:21.252Z</time>
      </trkpt>
      <trkpt lat="38.431598" lon="-3.001004">
        <ele>817.999763</ele>
        <time>2020-08-08T10:07:22.255Z</time>
      </trkpt>
      <trkpt lat="38.431446" lon="-3.000971">
        <ele>819.094219</ele>
        <time>2020-08-08T10:07:24.241Z</time>
      </trkpt>
      <trkpt lat="38.431291" lon="-3.000921">
        <ele>820.229062</ele>
        <time>2020-08-08T10:07:26.252Z</time>
      </trkpt>
      <trkpt lat="38.431126" lon="-3.000873">
        <ele>821.430333</ele>
        <time>2020-08-08T10:07:28.244Z</time>
      </trkpt>
      <trkpt lat="38.430971" lon="-3.000818">
        <ele>822.572307</ele>
        <time>2020-08-08T10:07:30.259Z</time>
      </trkpt>
      <trkpt lat="38.430818" lon="-3.000765">
        <ele>823.697645</ele>
        <time>2020-08-08T10:07:32.270Z</time>
      </trkpt>
      <trkpt lat="38.430664" lon="-3.000694">
        <ele>824.859915</ele>
        <time>2020-08-08T10:07:34.249Z</time>
      </trkpt>
      <trkpt lat="38.430520" lon="-3.000646">
        <ele>825.916364</ele>
        <time>2020-08-08T10:07:36.248Z</time>
      </trkpt>
      <trkpt lat="38.430367" lon="-3.000584">
        <ele>827.055834</ele>
        <time>2020-08-08T10:07:38.247Z</time>
      </trkpt>
      <trkpt lat="38.430221" lon="-3.000528">
        <ele>828.137978</ele>
        <time>2020-08-08T10:07:40.255Z</time>
      </trkpt>
      <trkpt lat="38.430077" lon="-3.000473">
        <ele>830.469251</ele>
        <time>2020-08-08T10:07:42.248Z</time>
      </trkpt>
      <trkpt lat="38.429936" lon="-3.000399">
        <ele>834.853041</ele>
        <time>2020-08-08T10:07:44.261Z</time>
      </trkpt>
      <trkpt lat="38.429788" lon="-3.000328">
        <ele>839.399430</ele>
        <time>2020-08-08T10:07:46.340Z</time>
      </trkpt>
      <trkpt lat="38.429650" lon="-3.000265">
        <ele>843.613794</ele>
        <time>2020-08-08T10:07:48.253Z</time>
      </trkpt>
      <trkpt lat="38.429515" lon="-3.000196">
        <ele>847.795365</ele>
        <time>2020-08-08T10:07:50.265Z</time>
      </trkpt>
      <trkpt lat="38.429403" lon="-3.000107">
        <ele>851.588989</ele>
        <time>2020-08-08T10:07:52.254Z</time>
      </trkpt>
      <trkpt lat="38.429285" lon="-3.000003">
        <ele>855.712299</ele>
        <time>2020-08-08T10:07:54.254Z</time>
      </trkpt>
      <trkpt lat="38.429179" lon="-2.999907">
        <ele>859.449570</ele>
        <time>2020-08-08T10:07:56.262Z</time>
      </trkpt>
      <trkpt lat="38.429073" lon="-2.999802">
        <ele>863.307697</ele>
        <time>2020-08-08T10:07:58.255Z</time>
      </trkpt>
      <trkpt lat="38.428971" lon="-2.999687">
        <ele>867.220952</ele>
        <time>2020-08-08T10:08:00.259Z</time>
      </trkpt>
      <trkpt lat="38.428863" lon="-2.999556">
        <ele>871.504959</ele>
        <time>2020-08-08T10:08:02.243Z</time>
      </trkpt>
      <trkpt lat="38.428749" lon="-2.999450">
        <ele>875.560517</ele>
        <time>2020-08-08T10:08:04.258Z</time>
      </trkpt>
      <trkpt lat="38.428639" lon="-2.999322">
        <ele>879.840587</ele>
        <time>2020-08-08T10:08:06.246Z</time>
      </trkpt>
      <trkpt lat="38.428516" lon="-2.999219">
        <ele>880.823018</ele>
        <time>2020-08-08T10:08:08.260Z</time>
      </trkpt>
      <trkpt lat="38.428388" lon="-2.999114">
        <ele>881.206417</ele>
        <time>2020-08-08T10:08:10.265Z</time>
      </trkpt>
      <trkpt lat="38.428246" lon="-2.999025">
        <ele>881.605042</ele>
        <time>2020-08-08T10:08:12.272Z</time>
      </trkpt>
      <trkpt lat="38.428111" lon="-2.998953">
        <ele>881.973721</ele>
        <time>2020-08-08T10:08:14.257Z</time>
      </trkpt>
      <trkpt lat="38.427976" lon="-2.998899">
        <ele>882.330212</ele>
        <time>2020-08-08T10:08:16.251Z</time>
      </trkpt>
      <trkpt lat="38.427856" lon="-2.998841">
        <ele>882.653545</ele>
        <time>2020-08-08T10:08:18.273Z</time>
      </trkpt>
      <trkpt lat="38.427734" lon="-2.998791">
        <ele>882.976424</ele>
        <time>2020-08-08T10:08:20.275Z</time>
      </trkpt>
      <trkpt lat="38.427601" lon="-2.998758">
        <ele>883.317838</ele>
        <time>2020-08-08T10:08:22.266Z</time>
      </trkpt>
      <trkpt lat="38.427451" lon="-2.998708">
        <ele>883.708491</ele>
        <time>2020-08-08T10:08:24.266Z</time>
      </trkpt>
      <trkpt lat="38.427298" lon="-2.998650">
        <ele>884.110671</ele>
        <time>2020-08-08T10:08:26.262Z</time>
      </trkpt>
      <trkpt lat="38.427152" lon="-2.998598">
        <ele>884.492623</ele>
        <time>2020-08-08T10:08:28.257Z</time>
      </trkpt>
      <trkpt lat="38.427010" lon="-2.998545">
        <ele>884.865425</ele>
        <time>2020-08-08T10:08:30.255Z</time>
      </trkpt>
      <trkpt lat="38.426856" lon="-2.998465">
        <ele>882.840844</ele>
        <time>2020-08-08T10:08:32.265Z</time>
      </trkpt>
      <trkpt lat="38.426698" lon="-2.998385">
        <ele>878.925800</ele>
        <time>2020-08-08T10:08:34.261Z</time>
      </trkpt>
      <trkpt lat="38.426544" lon="-2.998316">
        <ele>875.166565</ele>
        <time>2020-08-08T10:08:36.259Z</time>
      </trkpt>
      <trkpt lat="38.426399" lon="-2.998262">
        <ele>871.687553</ele>
        <time>2020-08-08T10:08:38.251Z</time>
      </trkpt>
      <trkpt lat="38.426267" lon="-2.998237">
        <ele>868.613923</ele>
        <time>2020-08-08T10:08:40.248Z</time>
      </trkpt>
      <trkpt lat="38.426133" lon="-2.998201">
        <ele>865.459891</ele>
        <time>2020-08-08T10:08:42.266Z</time>
      </trkpt>
      <trkpt lat="38.426015" lon="-2.998191">
        <ele>862.736022</ele>
        <time>2020-08-08T10:08:44.270Z</time>
      </trkpt>
      <trkpt lat="38.425900" lon="-2.998175">
        <ele>860.071547</ele>
        <time>2020-08-08T10:08:46.252Z</time>
      </trkpt>
      <trkpt lat="38.425795" lon="-2.998190">
        <ele>857.637991</ele>
        <time>2020-08-08T10:08:48.268Z</time>
      </trkpt>
      <trkpt lat="38.425704" lon="-2.998205">
        <ele>855.524590</ele>
        <time>2020-08-08T10:08:50.248Z</time>
      </trkpt>
      <trkpt lat="38.425591" lon="-2.998236">
        <ele>852.862437</ele>
        <time>2020-08-08T10:08:53.264Z</time>
      </trkpt>
      <trkpt lat="38.425501" lon="-2.998254">
        <ele>850.764182</ele>
        <time>2020-08-08T10:08:56.263Z</time>
      </trkpt>
      <trkpt lat="38.425403" lon="-2.998334">
        <ele>848.084832</ele>
        <time>2020-08-08T10:09:00.256Z</time>
      </trkpt>
      <trkpt lat="38.425322" lon="-2.998435">
        <ele>845.476734</ele>
        <time>2020-08-08T10:09:04.275Z</time>
      </trkpt>
      <trkpt lat="38.425271" lon="-2.998577">
        <ele>842.712912</ele>
        <time>2020-08-08T10:09:08.242Z</time>
      </trkpt>
      <trkpt lat="38.425242" lon="-2.998706">
        <ele>840.430153</ele>
        <time>2020-08-08T10:09:11.263Z</time>
      </trkpt>
      <trkpt lat="38.425180" lon="-2.998863">
        <ele>837.439590</ele>
        <time>2020-08-08T10:09:14.264Z</time>
      </trkpt>
      <trkpt lat="38.425128" lon="-2.998986">
        <ele>835.062245</ele>
        <time>2020-08-08T10:09:16.260Z</time>
      </trkpt>
      <trkpt lat="38.425078" lon="-2.999124">
        <ele>832.476071</ele>
        <time>2020-08-08T10:09:18.242Z</time>
      </trkpt>
      <trkpt lat="38.425023" lon="-2.999268">
        <ele>829.751128</ele>
        <time>2020-08-08T10:09:20.269Z</time>
      </trkpt>
      <trkpt lat="38.424947" lon="-2.999398">
        <ele>826.992087</ele>
        <time>2020-08-08T10:09:22.243Z</time>
      </trkpt>
      <trkpt lat="38.424876" lon="-2.999525">
        <ele>824.338265</ele>
        <time>2020-08-08T10:09:24.263Z</time>
      </trkpt>
      <trkpt lat="38.424800" lon="-2.999651">
        <ele>821.633443</ele>
        <time>2020-08-08T10:09:26.239Z</time>
      </trkpt>
      <trkpt lat="38.424685" lon="-2.999753">
        <ele>818.592992</ele>
        <time>2020-08-08T10:09:28.272Z</time>
      </trkpt>
      <trkpt lat="38.424562" lon="-2.999822">
        <ele>815.675932</ele>
        <time>2020-08-08T10:09:30.254Z</time>
      </trkpt>
      <trkpt lat="38.424414" lon="-2.999858">
        <ele>812.404778</ele>
        <time>2020-08-08T10:09:32.263Z</time>
      </trkpt>
      <trkpt lat="38.424283" lon="-2.999884">
        <ele>809.526370</ele>
        <time>2020-08-08T10:09:34.253Z</time>
      </trkpt>
      <trkpt lat="38.424182" lon="-2.999967">
        <ele>806.918326</ele>
        <time>2020-08-08T10:09:36.258Z</time>
      </trkpt>
      <trkpt lat="38.424071" lon="-2.999998">
        <ele>804.554427</ele>
        <time>2020-08-08T10:09:38.260Z</time>
      </trkpt>
      <trkpt lat="38.423958" lon="-3.000047">
        <ele>804.338119</ele>
        <time>2020-08-08T10:09:40.264Z</time>
      </trkpt>
      <trkpt lat="38.423841" lon="-3.000097">
        <ele>804.114488</ele>
        <time>2020-08-08T10:09:42.270Z</time>
      </trkpt>
      <trkpt lat="38.423732" lon="-3.000128">
        <ele>803.912082</ele>
        <time>2020-08-08T10:09:44.239Z</time>
      </trkpt>
      <trkpt lat="38.423625" lon="-3.000160">
        <ele>803.712894</ele>
        <time>2020-08-08T10:09:46.262Z</time>
      </trkpt>
      <trkpt lat="38.423517" lon="-3.000197">
        <ele>803.510217</ele>
        <time>2020-08-08T10:09:48.266Z</time>
      </trkpt>
      <trkpt lat="38.423404" lon="-3.000207">
        <ele>803.304914</ele>
        <time>2020-08-08T10:09:50.261Z</time>
      </trkpt>
      <trkpt lat="38.423293" lon="-3.000211">
        <ele>803.103647</ele>
        <time>2020-08-08T10:09:52.257Z</time>
      </trkpt>
      <trkpt lat="38.423192" lon="-3.000237">
        <ele>802.916900</ele>
        <time>2020-08-08T10:09:54.262Z</time>
      </trkpt>
      <trkpt lat="38.423085" lon="-3.000239">
        <ele>802.722943</ele>
        <time>2020-08-08T10:09:56.263Z</time>
      </trkpt>
      <trkpt lat="38.422970" lon="-3.000215">
        <ele>802.511739</ele>
        <time>2020-08-08T10:09:58.262Z</time>
      </trkpt>
      <trkpt lat="38.422872" lon="-3.000213">
        <ele>802.334092</ele>
        <time>2020-08-08T10:10:00.265Z</time>
      </trkpt>
      <trkpt lat="38.422765" lon="-3.000192">
        <ele>802.137876</ele>
        <time>2020-08-08T10:10:02.261Z</time>
      </trkpt>
      <trkpt lat="38.422656" lon="-3.000140">
        <ele>801.926967</ele>
        <time>2020-08-08T10:10:04.263Z</time>
      </trkpt>
      <trkpt lat="38.422545" lon="-3.000084">
        <ele>801.710635</ele>
        <time>2020-08-08T10:10:06.264Z</time>
      </trkpt>
      <trkpt lat="38.422445" lon="-3.000031">
        <ele>801.514382</ele>
        <time>2020-08-08T10:10:08.260Z</time>
      </trkpt>
      <trkpt lat="38.422337" lon="-2.999981">
        <ele>801.306155</ele>
        <time>2020-08-08T10:10:10.259Z</time>
      </trkpt>
      <trkpt lat="38.422228" lon="-2.999944">
        <ele>800.648683</ele>
        <time>2020-08-08T10:10:12.257Z</time>
      </trkpt>
      <trkpt lat="38.422116" lon="-2.999875">
        <ele>799.917904</ele>
        <time>2020-08-08T10:10:14.261Z</time>
      </trkpt>
      <trkpt lat="38.421998" lon="-2.999816">
        <ele>799.173216</ele>
        <time>2020-08-08T10:10:16.257Z</time>
      </trkpt>
      <trkpt lat="38.421879" lon="-2.999766">
        <ele>798.437042</ele>
        <time>2020-08-08T10:10:18.255Z</time>
      </trkpt>
      <trkpt lat="38.421760" lon="-2.999740">
        <ele>797.727610</ele>
        <time>2020-08-08T10:10:20.244Z</time>
      </trkpt>
      <trkpt lat="38.421631" lon="-2.999703">
        <ele>796.950684</ele>
        <time>2020-08-08T10:10:22.259Z</time>
      </trkpt>
      <trkpt lat="38.421512" lon="-2.999683">
        <ele>796.245386</ele>
        <time>2020-08-08T10:10:24.257Z</time>
      </trkpt>
      <trkpt lat="38.421399" lon="-2.999635">
        <ele>795.545576</ele>
        <time>2020-08-08T10:10:26.252Z</time>
      </trkpt>
      <trkpt lat="38.421267" lon="-2.999603">
        <ele>794.756058</ele>
        <time>2020-08-08T10:10:28.259Z</time>
      </trkpt>
      <trkpt lat="38.421143" lon="-2.999587">
        <ele>794.023702</ele>
        <time>2020-08-08T10:10:30.267Z</time>
      </trkpt>
      <trkpt lat="38.421000" lon="-2.999591">
        <ele>793.183211</ele>
        <time>2020-08-08T10:10:32.256Z</time>
      </trkpt>
      <trkpt lat="38.420865" lon="-2.999584">
        <ele>792.389276</ele>
        <time>2020-08-08T10:10:34.255Z</time>
      </trkpt>
      <trkpt lat="38.420727" lon="-2.999573">
        <ele>791.576788</ele>
        <time>2020-08-08T10:10:36.272Z</time>
      </trkpt>
      <trkpt lat="38.420588" lon="-2.999570">
        <ele>790.759886</ele>
        <time>2020-08-08T10:10:38.267Z</time>
      </trkpt>
      <trkpt lat="38.420444" lon="-2.999546">
        <ele>790.201699</ele>
        <time>2020-08-08T10:10:40.257Z</time>
      </trkpt>
      <trkpt lat="38.420298" lon="-2.999521">
        <ele>789.644602</ele>
        <time>2020-08-08T10:10:42.242Z</time>
      </trkpt>
      <trkpt lat="38.420139" lon="-2.999492">
        <ele>789.037179</ele>
        <time>2020-08-08T10:10:44.248Z</time>
      </trkpt>
      <trkpt lat="38.419974" lon="-2.999431">
        <ele>788.387525</ele>
        <time>2020-08-08T10:10:46.253Z</time>
      </trkpt>
      <trkpt lat="38.419802" lon="-2.999356">
        <ele>787.700134</ele>
        <time>2020-08-08T10:10:48.262Z</time>
      </trkpt>
      <trkpt lat="38.419640" lon="-2.999300">
        <ele>787.065402</ele>
        <time>2020-08-08T10:10:50.254Z</time>
      </trkpt>
      <trkpt lat="38.419550" lon="-2.999274">
        <ele>786.716425</ele>
        <time>2020-08-08T10:10:51.236Z</time>
      </trkpt>
      <trkpt lat="38.419461" lon="-2.999243">
        <ele>786.367532</ele>
        <time>2020-08-08T10:10:52.245Z</time>
      </trkpt>
      <trkpt lat="38.419298" lon="-2.999201">
        <ele>785.738654</ele>
        <time>2020-08-08T10:10:54.258Z</time>
      </trkpt>
      <trkpt lat="38.419143" lon="-2.999147">
        <ele>785.131022</ele>
        <time>2020-08-08T10:10:56.246Z</time>
      </trkpt>
      <trkpt lat="38.418985" lon="-2.999125">
        <ele>784.529944</ele>
        <time>2020-08-08T10:10:58.246Z</time>
      </trkpt>
      <trkpt lat="38.418833" lon="-2.999155">
        <ele>783.948270</ele>
        <time>2020-08-08T10:11:00.247Z</time>
      </trkpt>
      <trkpt lat="38.418682" lon="-2.999195">
        <ele>783.720055</ele>
        <time>2020-08-08T10:11:02.258Z</time>
      </trkpt>
      <trkpt lat="38.418534" lon="-2.999280">
        <ele>783.490276</ele>
        <time>2020-08-08T10:11:04.257Z</time>
      </trkpt>
      <trkpt lat="38.418395" lon="-2.999347">
        <ele>783.279911</ele>
        <time>2020-08-08T10:11:06.246Z</time>
      </trkpt>
      <trkpt lat="38.418258" lon="-2.999386">
        <ele>783.081177</ele>
        <time>2020-08-08T10:11:08.239Z</time>
      </trkpt>
      <trkpt lat="38.418112" lon="-2.999434">
        <ele>782.867719</ele>
        <time>2020-08-08T10:11:10.240Z</time>
      </trkpt>
      <trkpt lat="38.417957" lon="-2.999476">
        <ele>782.643375</ele>
        <time>2020-08-08T10:11:12.256Z</time>
      </trkpt>
      <trkpt lat="38.417819" lon="-2.999522">
        <ele>782.441438</ele>
        <time>2020-08-08T10:11:14.267Z</time>
      </trkpt>
      <trkpt lat="38.417683" lon="-2.999563">
        <ele>782.243588</ele>
        <time>2020-08-08T10:11:16.248Z</time>
      </trkpt>
      <trkpt lat="38.417545" lon="-2.999579">
        <ele>782.047399</ele>
        <time>2020-08-08T10:11:18.248Z</time>
      </trkpt>
      <trkpt lat="38.417401" lon="-2.999580">
        <ele>781.843518</ele>
        <time>2020-08-08T10:11:20.262Z</time>
      </trkpt>
      <trkpt lat="38.417254" lon="-2.999585">
        <ele>781.635318</ele>
        <time>2020-08-08T10:11:22.240Z</time>
      </trkpt>
      <trkpt lat="38.417125" lon="-2.999581">
        <ele>781.452623</ele>
        <time>2020-08-08T10:11:24.257Z</time>
      </trkpt>
      <trkpt lat="38.416980" lon="-2.999529">
        <ele>781.511334</ele>
        <time>2020-08-08T10:11:26.256Z</time>
      </trkpt>
      <trkpt lat="38.416830" lon="-2.999495">
        <ele>781.695895</ele>
        <time>2020-08-08T10:11:28.243Z</time>
      </trkpt>
      <trkpt lat="38.416688" lon="-2.999473">
        <ele>781.869184</ele>
        <time>2020-08-08T10:11:30.250Z</time>
      </trkpt>
      <trkpt lat="38.416543" lon="-2.999401">
        <ele>782.057671</ele>
        <time>2020-08-08T10:11:32.234Z</time>
      </trkpt>
      <trkpt lat="38.416395" lon="-2.999345">
        <ele>782.244679</ele>
        <time>2020-08-08T10:11:34.260Z</time>
      </trkpt>
      <trkpt lat="38.416249" lon="-2.999295">
        <ele>782.427807</ele>
        <time>2020-08-08T10:11:36.246Z</time>
      </trkpt>
      <trkpt lat="38.416109" lon="-2.999264">
        <ele>782.599944</ele>
        <time>2020-08-08T10:11:38.266Z</time>
      </trkpt>
      <trkpt lat="38.415949" lon="-2.999255">
        <ele>782.793965</ele>
        <time>2020-08-08T10:11:40.239Z</time>
      </trkpt>
      <trkpt lat="38.415809" lon="-2.999248">
        <ele>782.963698</ele>
        <time>2020-08-08T10:11:42.264Z</time>
      </trkpt>
      <trkpt lat="38.415686" lon="-2.999263">
        <ele>783.113385</ele>
        <time>2020-08-08T10:11:44.264Z</time>
      </trkpt>
      <trkpt lat="38.415573" lon="-2.999283">
        <ele>783.251590</ele>
        <time>2020-08-08T10:11:46.257Z</time>
      </trkpt>
      <trkpt lat="38.415492" lon="-2.999343">
        <ele>783.365047</ele>
        <time>2020-08-08T10:11:48.271Z</time>
      </trkpt>
      <trkpt lat="38.415371" lon="-2.999399">
        <ele>783.520973</ele>
        <time>2020-08-08T10:11:51.260Z</time>
      </trkpt>
      <trkpt lat="38.415273" lon="-2.999448">
        <ele>783.695354</ele>
        <time>2020-08-08T10:11:54.250Z</time>
      </trkpt>
      <trkpt lat="38.415170" lon="-2.999517">
        <ele>783.915315</ele>
        <time>2020-08-08T10:11:58.248Z</time>
      </trkpt>
      <trkpt lat="38.415079" lon="-2.999579">
        <ele>784.110368</ele>
        <time>2020-08-08T10:12:01.257Z</time>
      </trkpt>
      <trkpt lat="38.414987" lon="-2.999637">
        <ele>784.304396</ele>
        <time>2020-08-08T10:12:04.250Z</time>
      </trkpt>
      <trkpt lat="38.414883" lon="-2.999691">
        <ele>784.516700</ele>
        <time>2020-08-08T10:12:07.270Z</time>
      </trkpt>
      <trkpt lat="38.414773" lon="-2.999758">
        <ele>784.747170</ele>
        <time>2020-08-08T10:12:10.270Z</time>
      </trkpt>
      <trkpt lat="38.414680" lon="-2.999797">
        <ele>784.932272</ele>
        <time>2020-08-08T10:12:12.261Z</time>
      </trkpt>
      <trkpt lat="38.414558" lon="-2.999869">
        <ele>785.186429</ele>
        <time>2020-08-08T10:12:15.269Z</time>
      </trkpt>
      <trkpt lat="38.414479" lon="-2.999926">
        <ele>785.358028</ele>
        <time>2020-08-08T10:12:17.268Z</time>
      </trkpt>
      <trkpt lat="38.414391" lon="-2.999953">
        <ele>785.529167</ele>
        <time>2020-08-08T10:12:19.253Z</time>
      </trkpt>
      <trkpt lat="38.414268" lon="-3.000012">
        <ele>785.777630</ele>
        <time>2020-08-08T10:12:22.256Z</time>
      </trkpt>
      <trkpt lat="38.414160" lon="-3.000050">
        <ele>785.989465</ele>
        <time>2020-08-08T10:12:25.255Z</time>
      </trkpt>
      <trkpt lat="38.414049" lon="-3.000100">
        <ele>786.212042</ele>
        <time>2020-08-08T10:12:28.283Z</time>
      </trkpt>
      <trkpt lat="38.413939" lon="-3.000138">
        <ele>786.427525</ele>
        <time>2020-08-08T10:12:31.240Z</time>
      </trkpt>
      <trkpt lat="38.413829" lon="-3.000171">
        <ele>786.641191</ele>
        <time>2020-08-08T10:12:34.264Z</time>
      </trkpt>
      <trkpt lat="38.413721" lon="-3.000193">
        <ele>786.847992</ele>
        <time>2020-08-08T10:12:37.264Z</time>
      </trkpt>
      <trkpt lat="38.413614" lon="-3.000207">
        <ele>786.926330</ele>
        <time>2020-08-08T10:12:40.255Z</time>
      </trkpt>
      <trkpt lat="38.413513" lon="-3.000219">
        <ele>786.837434</ele>
        <time>2020-08-08T10:12:43.280Z</time>
      </trkpt>
      <trkpt lat="38.413417" lon="-3.000229">
        <ele>786.753023</ele>
        <time>2020-08-08T10:12:46.264Z</time>
      </trkpt>
      <trkpt lat="38.413326" lon="-3.000225">
        <ele>786.673226</ele>
        <time>2020-08-08T10:12:49.272Z</time>
      </trkpt>
      <trkpt lat="38.413233" lon="-3.000231">
        <ele>786.591619</ele>
        <time>2020-08-08T10:12:52.247Z</time>
      </trkpt>
      <trkpt lat="38.413120" lon="-3.000226">
        <ele>786.492530</ele>
        <time>2020-08-08T10:12:55.272Z</time>
      </trkpt>
      <trkpt lat="38.413011" lon="-3.000218">
        <ele>786.396848</ele>
        <time>2020-08-08T10:12:58.267Z</time>
      </trkpt>
      <trkpt lat="38.412909" lon="-3.000219">
        <ele>786.307455</ele>
        <time>2020-08-08T10:13:01.253Z</time>
      </trkpt>
      <trkpt lat="38.412819" lon="-3.000211">
        <ele>786.228391</ele>
        <time>2020-08-08T10:13:04.252Z</time>
      </trkpt>
      <trkpt lat="38.412705" lon="-3.000203">
        <ele>786.128334</ele>
        <time>2020-08-08T10:13:08.259Z</time>
      </trkpt>
      <trkpt lat="38.412589" lon="-3.000180">
        <ele>786.025455</ele>
        <time>2020-08-08T10:13:12.264Z</time>
      </trkpt>
      <trkpt lat="38.412477" lon="-3.000142">
        <ele>785.923892</ele>
        <time>2020-08-08T10:13:16.262Z</time>
      </trkpt>
      <trkpt lat="38.412366" lon="-3.000122">
        <ele>785.825651</ele>
        <time>2020-08-08T10:13:20.252Z</time>
      </trkpt>
      <trkpt lat="38.412273" lon="-3.000109">
        <ele>785.743661</ele>
        <time>2020-08-08T10:13:24.250Z</time>
      </trkpt>
      <trkpt lat="38.412184" lon="-3.000079">
        <ele>785.662989</ele>
        <time>2020-08-08T10:13:28.247Z</time>
      </trkpt>
      <trkpt lat="38.412089" lon="-3.000049">
        <ele>785.577223</ele>
        <time>2020-08-08T10:13:32.270Z</time>
      </trkpt>
      <trkpt lat="38.412005" lon="-2.999997">
        <ele>785.495405</ele>
        <time>2020-08-08T10:13:37.258Z</time>
      </trkpt>
      <trkpt lat="38.411910" lon="-2.999951">
        <ele>785.406358</ele>
        <time>2020-08-08T10:13:41.251Z</time>
      </trkpt>
      <trkpt lat="38.411812" lon="-2.999911">
        <ele>785.453619</ele>
        <time>2020-08-08T10:13:45.264Z</time>
      </trkpt>
      <trkpt lat="38.411723" lon="-2.999863">
        <ele>785.527345</ele>
        <time>2020-08-08T10:13:49.262Z</time>
      </trkpt>
      <trkpt lat="38.411631" lon="-2.999827">
        <ele>785.600770</ele>
        <time>2020-08-08T10:13:53.267Z</time>
      </trkpt>
      <trkpt lat="38.411526" lon="-2.999786">
        <ele>785.684556</ele>
        <time>2020-08-08T10:13:57.268Z</time>
      </trkpt>
      <trkpt lat="38.411421" lon="-2.999741">
        <ele>785.769072</ele>
        <time>2020-08-08T10:14:01.250Z</time>
      </trkpt>
      <trkpt lat="38.411334" lon="-2.999706">
        <ele>785.838676</ele>
        <time>2020-08-08T10:14:04.245Z</time>
      </trkpt>
      <trkpt lat="38.411245" lon="-2.999656">
        <ele>785.912876</ele>
        <time>2020-08-08T10:14:07.248Z</time>
      </trkpt>
      <trkpt lat="38.411159" lon="-2.999612">
        <ele>785.983574</ele>
        <time>2020-08-08T10:14:10.255Z</time>
      </trkpt>
      <trkpt lat="38.411072" lon="-2.999574">
        <ele>786.053739</ele>
        <time>2020-08-08T10:14:13.263Z</time>
      </trkpt>
      <trkpt lat="38.410980" lon="-2.999549">
        <ele>786.125513</ele>
        <time>2020-08-08T10:14:16.267Z</time>
      </trkpt>
      <trkpt lat="38.410887" lon="-2.999526">
        <ele>786.197796</ele>
        <time>2020-08-08T10:14:19.267Z</time>
      </trkpt>
      <trkpt lat="38.410795" lon="-2.999492">
        <ele>786.270880</ele>
        <time>2020-08-08T10:14:22.257Z</time>
      </trkpt>
      <trkpt lat="38.410698" lon="-2.999451">
        <ele>786.348848</ele>
        <time>2020-08-08T10:14:25.250Z</time>
      </trkpt>
      <trkpt lat="38.410604" lon="-2.999416">
        <ele>786.423565</ele>
        <time>2020-08-08T10:14:28.251Z</time>
      </trkpt>
      <trkpt lat="38.410508" lon="-2.999377">
        <ele>786.500439</ele>
        <time>2020-08-08T10:14:31.255Z</time>
      </trkpt>
      <trkpt lat="38.410409" lon="-2.999340">
        <ele>786.579152</ele>
        <time>2020-08-08T10:14:34.264Z</time>
      </trkpt>
      <trkpt lat="38.410293" lon="-2.999303">
        <ele>786.670388</ele>
        <time>2020-08-08T10:14:38.245Z</time>
      </trkpt>
      <trkpt lat="38.410201" lon="-2.999251">
        <ele>786.747164</ele>
        <time>2020-08-08T10:14:41.264Z</time>
      </trkpt>
      <trkpt lat="38.410107" lon="-2.999207">
        <ele>786.856688</ele>
        <time>2020-08-08T10:14:44.265Z</time>
      </trkpt>
      <trkpt lat="38.410014" lon="-2.999171">
        <ele>786.970804</ele>
        <time>2020-08-08T10:14:47.262Z</time>
      </trkpt>
      <trkpt lat="38.409929" lon="-2.999130">
        <ele>787.077505</ele>
        <time>2020-08-08T10:14:50.266Z</time>
      </trkpt>
      <trkpt lat="38.409827" lon="-2.999078">
        <ele>787.206479</ele>
        <time>2020-08-08T10:14:54.252Z</time>
      </trkpt>
      <trkpt lat="38.409720" lon="-2.999036">
        <ele>787.337931</ele>
        <time>2020-08-08T10:14:58.245Z</time>
      </trkpt>
      <trkpt lat="38.409620" lon="-2.998982">
        <ele>787.465433</ele>
        <time>2020-08-08T10:15:02.270Z</time>
      </trkpt>
      <trkpt lat="38.409519" lon="-2.998938">
        <ele>787.590750</ele>
        <time>2020-08-08T10:15:06.266Z</time>
      </trkpt>
      <trkpt lat="38.409417" lon="-2.998881">
        <ele>787.721501</ele>
        <time>2020-08-08T10:15:10.258Z</time>
      </trkpt>
      <trkpt lat="38.409306" lon="-2.998837">
        <ele>787.857983</ele>
        <time>2020-08-08T10:15:14.269Z</time>
      </trkpt>
      <trkpt lat="38.409198" lon="-2.998796">
        <ele>787.990292</ele>
        <time>2020-08-08T10:15:18.266Z</time>
      </trkpt>
      <trkpt lat="38.409086" lon="-2.998748">
        <ele>788.129023</ele>
        <time>2020-08-08T10:15:22.251Z</time>
      </trkpt>
      <trkpt lat="38.408977" lon="-2.998693">
        <ele>788.266656</ele>
        <time>2020-08-08T10:15:26.264Z</time>
      </trkpt>
      <trkpt lat="38.408879" lon="-2.998635">
        <ele>788.393503</ele>
        <time>2020-08-08T10:15:30.259Z</time>
      </trkpt>
      <trkpt lat="38.408774" lon="-2.998601">
        <ele>788.520704</ele>
        <time>2020-08-08T10:15:34.251Z</time>
      </trkpt>
      <trkpt lat="38.408660" lon="-2.998570">
        <ele>788.657571</ele>
        <time>2020-08-08T10:15:38.244Z</time>
      </trkpt>
      <trkpt lat="38.408555" lon="-2.998545">
        <ele>788.782993</ele>
        <time>2020-08-08T10:15:43.320Z</time>
      </trkpt>
      <trkpt lat="38.408451" lon="-2.998542">
        <ele>788.937641</ele>
        <time>2020-08-08T10:15:47.315Z</time>
      </trkpt>
      <trkpt lat="38.408348" lon="-2.998551">
        <ele>789.185820</ele>
        <time>2020-08-08T10:15:51.334Z</time>
      </trkpt>
      <trkpt lat="38.408249" lon="-2.998592">
        <ele>789.436021</ele>
        <time>2020-08-08T10:15:55.311Z</time>
      </trkpt>
      <trkpt lat="38.408161" lon="-2.998659">
        <ele>789.682349</ele>
        <time>2020-08-08T10:15:59.304Z</time>
      </trkpt>
      <trkpt lat="38.408070" lon="-2.998735">
        <ele>789.943782</ele>
        <time>2020-08-08T10:16:03.311Z</time>
      </trkpt>
      <trkpt lat="38.407987" lon="-2.998824">
        <ele>790.204387</ele>
        <time>2020-08-08T10:16:07.305Z</time>
      </trkpt>
      <trkpt lat="38.407919" lon="-2.998910">
        <ele>790.434524</ele>
        <time>2020-08-08T10:16:10.318Z</time>
      </trkpt>
      <trkpt lat="38.407857" lon="-2.998999">
        <ele>790.658843</ele>
        <time>2020-08-08T10:16:13.317Z</time>
      </trkpt>
      <trkpt lat="38.407779" lon="-2.999111">
        <ele>790.941096</ele>
        <time>2020-08-08T10:16:17.330Z</time>
      </trkpt>
      <trkpt lat="38.407701" lon="-2.999219">
        <ele>791.217763</ele>
        <time>2020-08-08T10:16:21.336Z</time>
      </trkpt>
      <trkpt lat="38.407635" lon="-2.999312">
        <ele>791.454112</ele>
        <time>2020-08-08T10:16:24.321Z</time>
      </trkpt>
      <trkpt lat="38.407571" lon="-2.999406">
        <ele>791.688680</ele>
        <time>2020-08-08T10:16:27.323Z</time>
      </trkpt>
      <trkpt lat="38.407503" lon="-2.999499">
        <ele>791.928283</ele>
        <time>2020-08-08T10:16:30.300Z</time>
      </trkpt>
      <trkpt lat="38.407439" lon="-2.999592">
        <ele>792.161433</ele>
        <time>2020-08-08T10:16:33.312Z</time>
      </trkpt>
      <trkpt lat="38.407376" lon="-2.999691">
        <ele>792.401667</ele>
        <time>2020-08-08T10:16:36.315Z</time>
      </trkpt>
      <trkpt lat="38.407315" lon="-2.999796">
        <ele>792.647884</ele>
        <time>2020-08-08T10:16:39.315Z</time>
      </trkpt>
      <trkpt lat="38.407248" lon="-2.999901">
        <ele>792.902954</ele>
        <time>2020-08-08T10:16:42.308Z</time>
      </trkpt>
      <trkpt lat="38.407176" lon="-3.000000">
        <ele>793.157382</ele>
        <time>2020-08-08T10:16:45.328Z</time>
      </trkpt>
      <trkpt lat="38.407107" lon="-3.000092">
        <ele>793.635814</ele>
        <time>2020-08-08T10:16:48.320Z</time>
      </trkpt>
      <trkpt lat="38.407051" lon="-3.000182">
        <ele>794.111204</ele>
        <time>2020-08-08T10:16:51.311Z</time>
      </trkpt>
      <trkpt lat="38.406997" lon="-3.000274">
        <ele>794.586697</ele>
        <time>2020-08-08T10:16:54.322Z</time>
      </trkpt>
      <trkpt lat="38.406950" lon="-3.000380">
        <ele>795.090509</ele>
        <time>2020-08-08T10:16:57.316Z</time>
      </trkpt>
      <trkpt lat="38.406907" lon="-3.000484">
        <ele>795.576932</ele>
        <time>2020-08-08T10:17:00.329Z</time>
      </trkpt>
      <trkpt lat="38.406854" lon="-3.000578">
        <ele>796.055971</ele>
        <time>2020-08-08T10:17:03.309Z</time>
      </trkpt>
      <trkpt lat="38.406798" lon="-3.000668">
        <ele>796.531362</ele>
        <time>2020-08-08T10:17:06.321Z</time>
      </trkpt>
      <trkpt lat="38.406739" lon="-3.000761">
        <ele>797.026342</ele>
        <time>2020-08-08T10:17:09.324Z</time>
      </trkpt>
      <trkpt lat="38.406675" lon="-3.000852">
        <ele>797.532154</ele>
        <time>2020-08-08T10:17:12.323Z</time>
      </trkpt>
      <trkpt lat="38.406610" lon="-3.000941">
        <ele>798.035425</ele>
        <time>2020-08-08T10:17:15.327Z</time>
      </trkpt>
      <trkpt lat="38.406535" lon="-3.001049">
        <ele>798.632372</ele>
        <time>2020-08-08T10:17:19.319Z</time>
      </trkpt>
      <trkpt lat="38.406473" lon="-3.001149">
        <ele>799.159857</ele>
        <time>2020-08-08T10:17:23.329Z</time>
      </trkpt>
      <trkpt lat="38.406400" lon="-3.001255">
        <ele>799.743615</ele>
        <time>2020-08-08T10:17:27.324Z</time>
      </trkpt>
      <trkpt lat="38.406328" lon="-3.001364">
        <ele>800.333335</ele>
        <time>2020-08-08T10:17:31.312Z</time>
      </trkpt>
      <trkpt lat="38.406248" lon="-3.001470">
        <ele>800.942121</ele>
        <time>2020-08-08T10:17:35.334Z</time>
      </trkpt>
      <trkpt lat="38.406174" lon="-3.001578">
        <ele>801.535581</ele>
        <time>2020-08-08T10:17:39.323Z</time>
      </trkpt>
      <trkpt lat="38.406090" lon="-3.001688">
        <ele>802.170944</ele>
        <time>2020-08-08T10:17:43.325Z</time>
      </trkpt>
      <trkpt lat="38.406019" lon="-3.001807">
        <ele>802.752973</ele>
        <time>2020-08-08T10:17:47.323Z</time>
      </trkpt>
      <trkpt lat="38.405955" lon="-3.001924">
        <ele>803.119958</ele>
        <time>2020-08-08T10:17:51.339Z</time>
      </trkpt>
      <trkpt lat="38.405891" lon="-3.002024">
        <ele>803.452034</ele>
        <time>2020-08-08T10:17:55.337Z</time>
      </trkpt>
      <trkpt lat="38.405818" lon="-3.002121">
        <ele>803.797936</ele>
        <time>2020-08-08T10:17:59.317Z</time>
      </trkpt>
      <trkpt lat="38.405754" lon="-3.002214">
        <ele>804.116272</ele>
        <time>2020-08-08T10:18:03.311Z</time>
      </trkpt>
      <trkpt lat="38.405684" lon="-3.002325">
        <ele>804.482728</ele>
        <time>2020-08-08T10:18:07.311Z</time>
      </trkpt>
      <trkpt lat="38.405618" lon="-3.002424">
        <ele>804.817033</ele>
        <time>2020-08-08T10:18:11.305Z</time>
      </trkpt>
      <trkpt lat="38.405557" lon="-3.002531">
        <ele>805.157358</ele>
        <time>2020-08-08T10:18:15.311Z</time>
      </trkpt>
      <trkpt lat="38.405496" lon="-3.002625">
        <ele>805.471262</ele>
        <time>2020-08-08T10:18:19.307Z</time>
      </trkpt>
      <trkpt lat="38.405434" lon="-3.002734">
        <ele>805.817679</ele>
        <time>2020-08-08T10:18:23.316Z</time>
      </trkpt>
      <trkpt lat="38.405369" lon="-3.002830">
        <ele>806.143990</ele>
        <time>2020-08-08T10:18:27.304Z</time>
      </trkpt>
      <trkpt lat="38.405309" lon="-3.002934">
        <ele>806.476151</ele>
        <time>2020-08-08T10:18:31.307Z</time>
      </trkpt>
      <trkpt lat="38.405242" lon="-3.003048">
        <ele>806.842660</ele>
        <time>2020-08-08T10:18:35.309Z</time>
      </trkpt>
      <trkpt lat="38.405172" lon="-3.003171">
        <ele>807.233642</ele>
        <time>2020-08-08T10:18:39.312Z</time>
      </trkpt>
      <trkpt lat="38.405108" lon="-3.003262">
        <ele>807.548133</ele>
        <time>2020-08-08T10:18:42.310Z</time>
      </trkpt>
      <trkpt lat="38.405046" lon="-3.003362">
        <ele>807.876099</ele>
        <time>2020-08-08T10:18:45.304Z</time>
      </trkpt>
      <trkpt lat="38.404975" lon="-3.003465">
        <ele>808.228923</ele>
        <time>2020-08-08T10:18:48.312Z</time>
      </trkpt>
      <trkpt lat="38.404911" lon="-3.003568">
        <ele>808.567014</ele>
        <time>2020-08-08T10:18:51.309Z</time>
      </trkpt>
      <trkpt lat="38.404842" lon="-3.003671">
        <ele>808.664892</ele>
        <time>2020-08-08T10:18:54.323Z</time>
      </trkpt>
      <trkpt lat="38.404762" lon="-3.003790">
        <ele>808.751757</ele>
        <time>2020-08-08T10:18:57.321Z</time>
      </trkpt>
      <trkpt lat="38.404710" lon="-3.003892">
        <ele>808.819174</ele>
        <time>2020-08-08T10:18:59.312Z</time>
      </trkpt>
      <trkpt lat="38.404649" lon="-3.003988">
        <ele>808.887648</ele>
        <time>2020-08-08T10:19:01.330Z</time>
      </trkpt>
      <trkpt lat="38.404557" lon="-3.004102">
        <ele>808.978310</ele>
        <time>2020-08-08T10:19:04.322Z</time>
      </trkpt>
      <trkpt lat="38.404489" lon="-3.004233">
        <ele>809.065366</ele>
        <time>2020-08-08T10:19:07.318Z</time>
      </trkpt>
      <trkpt lat="38.404399" lon="-3.004346">
        <ele>809.154630</ele>
        <time>2020-08-08T10:19:10.315Z</time>
      </trkpt>
      <trkpt lat="38.404313" lon="-3.004457">
        <ele>809.241109</ele>
        <time>2020-08-08T10:19:13.329Z</time>
      </trkpt>
      <trkpt lat="38.404238" lon="-3.004588">
        <ele>809.330993</ele>
        <time>2020-08-08T10:19:16.325Z</time>
      </trkpt>
      <trkpt lat="38.404159" lon="-3.004705">
        <ele>809.416557</ele>
        <time>2020-08-08T10:19:19.331Z</time>
      </trkpt>
      <trkpt lat="38.404075" lon="-3.004833">
        <ele>809.509056</ele>
        <time>2020-08-08T10:19:22.324Z</time>
      </trkpt>
      <trkpt lat="38.403997" lon="-3.004954">
        <ele>809.595860</ele>
        <time>2020-08-08T10:19:25.318Z</time>
      </trkpt>
      <trkpt lat="38.403928" lon="-3.005077">
        <ele>809.679667</ele>
        <time>2020-08-08T10:19:28.314Z</time>
      </trkpt>
      <trkpt lat="38.403856" lon="-3.005204">
        <ele>809.766511</ele>
        <time>2020-08-08T10:19:31.329Z</time>
      </trkpt>
      <trkpt lat="38.403798" lon="-3.005322">
        <ele>809.843683</ele>
        <time>2020-08-08T10:19:33.329Z</time>
      </trkpt>
      <trkpt lat="38.403743" lon="-3.005458">
        <ele>809.604803</ele>
        <time>2020-08-08T10:19:35.306Z</time>
      </trkpt>
      <trkpt lat="38.403685" lon="-3.005593">
        <ele>809.235827</ele>
        <time>2020-08-08T10:19:37.334Z</time>
      </trkpt>
      <trkpt lat="38.403608" lon="-3.005757">
        <ele>808.777637</ele>
        <time>2020-08-08T10:19:39.311Z</time>
      </trkpt>
      <trkpt lat="38.403537" lon="-3.005899">
        <ele>808.373946</ele>
        <time>2020-08-08T10:19:41.330Z</time>
      </trkpt>
      <trkpt lat="38.403439" lon="-3.006060">
        <ele>807.885366</ele>
        <time>2020-08-08T10:19:43.337Z</time>
      </trkpt>
      <trkpt lat="38.403362" lon="-3.006210">
        <ele>807.455610</ele>
        <time>2020-08-08T10:19:45.323Z</time>
      </trkpt>
      <trkpt lat="38.403295" lon="-3.006381">
        <ele>806.997417</ele>
        <time>2020-08-08T10:19:47.352Z</time>
      </trkpt>
      <trkpt lat="38.403225" lon="-3.006544">
        <ele>806.551954</ele>
        <time>2020-08-08T10:19:49.334Z</time>
      </trkpt>
      <trkpt lat="38.403157" lon="-3.006707">
        <ele>806.109397</ele>
        <time>2020-08-08T10:19:51.329Z</time>
      </trkpt>
      <trkpt lat="38.403095" lon="-3.006866">
        <ele>805.683764</ele>
        <time>2020-08-08T10:19:53.317Z</time>
      </trkpt>
      <trkpt lat="38.403023" lon="-3.007025">
        <ele>805.243655</ele>
        <time>2020-08-08T10:19:55.335Z</time>
      </trkpt>
      <trkpt lat="38.402940" lon="-3.007192">
        <ele>804.769710</ele>
        <time>2020-08-08T10:19:57.331Z</time>
      </trkpt>
      <trkpt lat="38.402873" lon="-3.007369">
        <ele>804.373045</ele>
        <time>2020-08-08T10:19:59.312Z</time>
      </trkpt>
      <trkpt lat="38.402794" lon="-3.007554">
        <ele>804.417845</ele>
        <time>2020-08-08T10:20:01.309Z</time>
      </trkpt>
      <trkpt lat="38.402736" lon="-3.007738">
        <ele>804.460018</ele>
        <time>2020-08-08T10:20:03.331Z</time>
      </trkpt>
      <trkpt lat="38.402656" lon="-3.007929">
        <ele>804.506071</ele>
        <time>2020-08-08T10:20:05.313Z</time>
      </trkpt>
      <trkpt lat="38.402582" lon="-3.008137">
        <ele>804.554645</ele>
        <time>2020-08-08T10:20:07.332Z</time>
      </trkpt>
      <trkpt lat="38.402499" lon="-3.008325">
        <ele>804.600530</ele>
        <time>2020-08-08T10:20:09.327Z</time>
      </trkpt>
      <trkpt lat="38.402453" lon="-3.008433">
        <ele>804.626669</ele>
        <time>2020-08-08T10:20:10.318Z</time>
      </trkpt>
      <trkpt lat="38.402355" lon="-3.008628">
        <ele>804.675929</ele>
        <time>2020-08-08T10:20:12.317Z</time>
      </trkpt>
      <trkpt lat="38.402267" lon="-3.008820">
        <ele>804.723227</ele>
        <time>2020-08-08T10:20:14.328Z</time>
      </trkpt>
      <trkpt lat="38.402203" lon="-3.008989">
        <ele>804.763140</ele>
        <time>2020-08-08T10:20:16.325Z</time>
      </trkpt>
      <trkpt lat="38.402153" lon="-3.009154">
        <ele>804.800758</ele>
        <time>2020-08-08T10:20:18.314Z</time>
      </trkpt>
      <trkpt lat="38.402094" lon="-3.009306">
        <ele>804.836828</ele>
        <time>2020-08-08T10:20:20.331Z</time>
      </trkpt>
      <trkpt lat="38.402004" lon="-3.009441">
        <ele>804.561020</ele>
        <time>2020-08-08T10:20:22.314Z</time>
      </trkpt>
      <trkpt lat="38.401926" lon="-3.009575">
        <ele>804.025380</ele>
        <time>2020-08-08T10:20:24.318Z</time>
      </trkpt>
      <trkpt lat="38.401867" lon="-3.009692">
        <ele>803.578920</ele>
        <time>2020-08-08T10:20:26.327Z</time>
      </trkpt>
      <trkpt lat="38.401800" lon="-3.009821">
        <ele>803.082306</ele>
        <time>2020-08-08T10:20:28.315Z</time>
      </trkpt>
      <trkpt lat="38.401724" lon="-3.009938">
        <ele>802.594651</ele>
        <time>2020-08-08T10:20:30.317Z</time>
      </trkpt>
      <trkpt lat="38.401655" lon="-3.010062">
        <ele>802.106633</ele>
        <time>2020-08-08T10:20:32.348Z</time>
      </trkpt>
      <trkpt lat="38.401592" lon="-3.010159">
        <ele>801.702360</ele>
        <time>2020-08-08T10:20:34.321Z</time>
      </trkpt>
      <trkpt lat="38.401522" lon="-3.010267">
        <ele>801.252618</ele>
        <time>2020-08-08T10:20:36.321Z</time>
      </trkpt>
      <trkpt lat="38.401458" lon="-3.010364">
        <ele>800.845719</ele>
        <time>2020-08-08T10:20:38.319Z</time>
      </trkpt>
      <trkpt lat="38.401394" lon="-3.010464">
        <ele>800.431409</ele>
        <time>2020-08-08T10:20:40.308Z</time>
      </trkpt>
      <trkpt lat="38.401324" lon="-3.010564">
        <ele>800.001137</ele>
        <time>2020-08-08T10:20:42.338Z</time>
      </trkpt>
      <trkpt lat="38.401265" lon="-3.010672">
        <ele>799.578673</ele>
        <time>2020-08-08T10:20:44.342Z</time>
      </trkpt>
      <trkpt lat="38.401187" lon="-3.010804">
        <ele>799.048168</ele>
        <time>2020-08-08T10:20:47.328Z</time>
      </trkpt>
      <trkpt lat="38.401118" lon="-3.010932">
        <ele>798.549627</ele>
        <time>2020-08-08T10:20:50.319Z</time>
      </trkpt>
      <trkpt lat="38.401049" lon="-3.011053">
        <ele>798.069424</ele>
        <time>2020-08-08T10:20:53.313Z</time>
      </trkpt>
      <trkpt lat="38.400953" lon="-3.011129">
        <ele>797.606818</ele>
        <time>2020-08-08T10:20:56.306Z</time>
      </trkpt>
      <trkpt lat="38.400879" lon="-3.011246">
        <ele>797.530794</ele>
        <time>2020-08-08T10:20:59.311Z</time>
      </trkpt>
      <trkpt lat="38.400808" lon="-3.011358">
        <ele>797.582329</ele>
        <time>2020-08-08T10:21:02.317Z</time>
      </trkpt>
      <trkpt lat="38.400711" lon="-3.011445">
        <ele>797.636452</ele>
        <time>2020-08-08T10:21:05.317Z</time>
      </trkpt>
      <trkpt lat="38.400604" lon="-3.011530">
        <ele>797.693988</ele>
        <time>2020-08-08T10:21:08.330Z</time>
      </trkpt>
      <trkpt lat="38.400480" lon="-3.011595">
        <ele>797.755182</ele>
        <time>2020-08-08T10:21:11.312Z</time>
      </trkpt>
      <trkpt lat="38.400337" lon="-3.011601">
        <ele>797.820495</ele>
        <time>2020-08-08T10:21:13.335Z</time>
      </trkpt>
      <trkpt lat="38.400212" lon="-3.011657">
        <ele>797.880971</ele>
        <time>2020-08-08T10:21:16.330Z</time>
      </trkpt>
      <trkpt lat="38.400132" lon="-3.011715">
        <ele>797.922972</ele>
        <time>2020-08-08T10:21:18.335Z</time>
      </trkpt>
      <trkpt lat="38.400028" lon="-3.011747">
        <ele>797.971808</ele>
        <time>2020-08-08T10:21:20.337Z</time>
      </trkpt>
      <trkpt lat="38.399931" lon="-3.011789">
        <ele>798.018567</ele>
        <time>2020-08-08T10:21:22.332Z</time>
      </trkpt>
      <trkpt lat="38.399855" lon="-3.011884">
        <ele>798.067133</ele>
        <time>2020-08-08T10:21:24.322Z</time>
      </trkpt>
      <trkpt lat="38.399748" lon="-3.011946">
        <ele>798.120777</ele>
        <time>2020-08-08T10:21:26.319Z</time>
      </trkpt>
      <trkpt lat="38.399641" lon="-3.012001">
        <ele>798.173435</ele>
        <time>2020-08-08T10:21:28.308Z</time>
      </trkpt>
      <trkpt lat="38.399527" lon="-3.012042">
        <ele>798.227502</ele>
        <time>2020-08-08T10:21:30.372Z</time>
      </trkpt>
      <trkpt lat="38.399422" lon="-3.012114">
        <ele>798.281916</ele>
        <time>2020-08-08T10:21:32.308Z</time>
      </trkpt>
      <trkpt lat="38.399324" lon="-3.012198">
        <ele>798.309909</ele>
        <time>2020-08-08T10:21:34.326Z</time>
      </trkpt>
      <trkpt lat="38.399217" lon="-3.012260">
        <ele>798.307361</ele>
        <time>2020-08-08T10:21:36.336Z</time>
      </trkpt>
      <trkpt lat="38.399100" lon="-3.012299">
        <ele>798.304740</ele>
        <time>2020-08-08T10:21:38.325Z</time>
      </trkpt>
      <trkpt lat="38.398988" lon="-3.012356">
        <ele>798.302125</ele>
        <time>2020-08-08T10:21:40.302Z</time>
      </trkpt>
      <trkpt lat="38.398850" lon="-3.012394">
        <ele>798.299065</ele>
        <time>2020-08-08T10:21:42.308Z</time>
      </trkpt>
      <trkpt lat="38.398728" lon="-3.012461">
        <ele>798.296185</ele>
        <time>2020-08-08T10:21:44.321Z</time>
      </trkpt>
      <trkpt lat="38.398608" lon="-3.012577">
        <ele>798.292921</ele>
        <time>2020-08-08T10:21:46.330Z</time>
      </trkpt>
      <trkpt lat="38.398504" lon="-3.012681">
        <ele>798.290056</ele>
        <time>2020-08-08T10:21:48.319Z</time>
      </trkpt>
      <trkpt lat="38.398452" lon="-3.012831">
        <ele>798.287269</ele>
        <time>2020-08-08T10:21:50.324Z</time>
      </trkpt>
      <trkpt lat="38.398406" lon="-3.012942">
        <ele>798.285136</ele>
        <time>2020-08-08T10:21:52.319Z</time>
      </trkpt>
      <trkpt lat="38.398347" lon="-3.013084">
        <ele>798.282405</ele>
        <time>2020-08-08T10:21:54.308Z</time>
      </trkpt>
      <trkpt lat="38.398279" lon="-3.013214">
        <ele>798.279749</ele>
        <time>2020-08-08T10:21:56.320Z</time>
      </trkpt>
      <trkpt lat="38.398231" lon="-3.013328">
        <ele>798.277550</ele>
        <time>2020-08-08T10:21:58.327Z</time>
      </trkpt>
      <trkpt lat="38.398178" lon="-3.013421">
        <ele>798.275597</ele>
        <time>2020-08-08T10:22:00.326Z</time>
      </trkpt>
      <trkpt lat="38.398124" lon="-3.013551">
        <ele>798.273097</ele>
        <time>2020-08-08T10:22:03.332Z</time>
      </trkpt>
      <trkpt lat="38.398055" lon="-3.013658">
        <ele>798.647997</ele>
        <time>2020-08-08T10:22:06.309Z</time>
      </trkpt>
      <trkpt lat="38.398016" lon="-3.013764">
        <ele>799.203869</ele>
        <time>2020-08-08T10:22:09.335Z</time>
      </trkpt>
      <trkpt lat="38.397965" lon="-3.013881">
        <ele>799.839395</ele>
        <time>2020-08-08T10:22:13.319Z</time>
      </trkpt>
      <trkpt lat="38.397926" lon="-3.013998">
        <ele>800.442943</ele>
        <time>2020-08-08T10:22:17.317Z</time>
      </trkpt>
      <trkpt lat="38.397888" lon="-3.014124">
        <ele>801.083823</ele>
        <time>2020-08-08T10:22:21.321Z</time>
      </trkpt>
      <trkpt lat="38.397839" lon="-3.014242">
        <ele>801.717741</ele>
        <time>2020-08-08T10:22:25.322Z</time>
      </trkpt>
      <trkpt lat="38.397788" lon="-3.014355">
        <ele>802.336743</ele>
        <time>2020-08-08T10:22:29.316Z</time>
      </trkpt>
      <trkpt lat="38.397732" lon="-3.014469">
        <ele>802.975418</ele>
        <time>2020-08-08T10:22:34.337Z</time>
      </trkpt>
      <trkpt lat="38.397680" lon="-3.014583">
        <ele>803.601563</ele>
        <time>2020-08-08T10:22:40.316Z</time>
      </trkpt>
      <trkpt lat="38.397618" lon="-3.014685">
        <ele>804.214323</ele>
        <time>2020-08-08T10:22:45.320Z</time>
      </trkpt>
      <trkpt lat="38.397575" lon="-3.014804">
        <ele>804.836370</ele>
        <time>2020-08-08T10:22:49.331Z</time>
      </trkpt>
      <trkpt lat="38.397538" lon="-3.014910">
        <ele>805.387206</ele>
        <time>2020-08-08T10:22:53.330Z</time>
      </trkpt>
      <trkpt lat="38.397493" lon="-3.015023">
        <ele>805.988898</ele>
        <time>2020-08-08T10:22:57.314Z</time>
      </trkpt>
      <trkpt lat="38.397454" lon="-3.015132">
        <ele>806.557697</ele>
        <time>2020-08-08T10:23:01.318Z</time>
      </trkpt>
      <trkpt lat="38.397403" lon="-3.015240">
        <ele>807.156250</ele>
        <time>2020-08-08T10:23:05.340Z</time>
      </trkpt>
      <trkpt lat="38.397349" lon="-3.015354">
        <ele>807.788578</ele>
        <time>2020-08-08T10:23:09.322Z</time>
      </trkpt>
      <trkpt lat="38.397305" lon="-3.015465">
        <ele>808.379064</ele>
        <time>2020-08-08T10:23:13.325Z</time>
      </trkpt>
      <trkpt lat="38.397250" lon="-3.015563">
        <ele>808.951254</ele>
        <time>2020-08-08T10:23:17.315Z</time>
      </trkpt>
      <trkpt lat="38.397200" lon="-3.015665">
        <ele>809.362808</ele>
        <time>2020-08-08T10:23:21.330Z</time>
      </trkpt>
      <trkpt lat="38.397158" lon="-3.015771">
        <ele>809.673807</ele>
        <time>2020-08-08T10:23:25.321Z</time>
      </trkpt>
      <trkpt lat="38.397100" lon="-3.015884">
        <ele>810.027486</ele>
        <time>2020-08-08T10:23:29.332Z</time>
      </trkpt>
      <trkpt lat="38.397042" lon="-3.016005">
        <ele>810.398866</ele>
        <time>2020-08-08T10:23:33.306Z</time>
      </trkpt>
      <trkpt lat="38.396988" lon="-3.016120">
        <ele>810.749886</ele>
        <time>2020-08-08T10:23:37.322Z</time>
      </trkpt>
      <trkpt lat="38.396938" lon="-3.016228">
        <ele>811.078321</ele>
        <time>2020-08-08T10:23:41.306Z</time>
      </trkpt>
      <trkpt lat="38.396893" lon="-3.016350">
        <ele>811.431371</ele>
        <time>2020-08-08T10:23:45.307Z</time>
      </trkpt>
      <trkpt lat="38.396845" lon="-3.016476">
        <ele>811.798194</ele>
        <time>2020-08-08T10:23:49.308Z</time>
      </trkpt>
      <trkpt lat="38.396802" lon="-3.016589">
        <ele>812.127100</ele>
        <time>2020-08-08T10:23:53.307Z</time>
      </trkpt>
      <trkpt lat="38.396754" lon="-3.016697">
        <ele>812.452189</ele>
        <time>2020-08-08T10:23:57.336Z</time>
      </trkpt>
      <trkpt lat="38.396701" lon="-3.016807">
        <ele>812.790284</ele>
        <time>2020-08-08T10:24:01.315Z</time>
      </trkpt>
      <trkpt lat="38.396648" lon="-3.016903">
        <ele>813.097752</ele>
        <time>2020-08-08T10:24:05.318Z</time>
      </trkpt>
      <trkpt lat="38.396591" lon="-3.017009">
        <ele>813.434348</ele>
        <time>2020-08-08T10:24:09.309Z</time>
      </trkpt>
      <trkpt lat="38.396522" lon="-3.017103">
        <ele>813.771570</ele>
        <time>2020-08-08T10:24:13.302Z</time>
      </trkpt>
      <trkpt lat="38.396445" lon="-3.017197">
        <ele>814.127598</ele>
        <time>2020-08-08T10:24:17.304Z</time>
      </trkpt>
      <trkpt lat="38.396371" lon="-3.017294">
        <ele>814.482039</ele>
        <time>2020-08-08T10:24:20.309Z</time>
      </trkpt>
      <trkpt lat="38.396280" lon="-3.017418">
        <ele>814.926837</ele>
        <time>2020-08-08T10:24:23.311Z</time>
      </trkpt>
      <trkpt lat="38.396211" lon="-3.017533">
        <ele>815.052743</ele>
        <time>2020-08-08T10:24:25.320Z</time>
      </trkpt>
      <trkpt lat="38.396137" lon="-3.017604">
        <ele>814.761241</ele>
        <time>2020-08-08T10:24:27.316Z</time>
      </trkpt>
      <trkpt lat="38.396058" lon="-3.017694">
        <ele>814.427802</ele>
        <time>2020-08-08T10:24:29.313Z</time>
      </trkpt>
      <trkpt lat="38.395982" lon="-3.017800">
        <ele>814.073307</ele>
        <time>2020-08-08T10:24:31.316Z</time>
      </trkpt>
      <trkpt lat="38.395907" lon="-3.017918">
        <ele>813.698426</ele>
        <time>2020-08-08T10:24:33.319Z</time>
      </trkpt>
      <trkpt lat="38.395828" lon="-3.018035">
        <ele>813.317359</ele>
        <time>2020-08-08T10:24:35.324Z</time>
      </trkpt>
      <trkpt lat="38.395747" lon="-3.018167">
        <ele>812.903687</ele>
        <time>2020-08-08T10:24:37.324Z</time>
      </trkpt>
      <trkpt lat="38.395657" lon="-3.018298">
        <ele>812.473827</ele>
        <time>2020-08-08T10:24:39.319Z</time>
      </trkpt>
      <trkpt lat="38.395562" lon="-3.018420">
        <ele>812.049464</ele>
        <time>2020-08-08T10:24:41.316Z</time>
      </trkpt>
      <trkpt lat="38.395473" lon="-3.018541">
        <ele>811.639998</ele>
        <time>2020-08-08T10:24:43.306Z</time>
      </trkpt>
      <trkpt lat="38.395396" lon="-3.018659">
        <ele>811.261117</ele>
        <time>2020-08-08T10:24:45.319Z</time>
      </trkpt>
      <trkpt lat="38.395327" lon="-3.018761">
        <ele>810.928641</ele>
        <time>2020-08-08T10:24:47.317Z</time>
      </trkpt>
      <trkpt lat="38.395255" lon="-3.018865">
        <ele>810.586234</ele>
        <time>2020-08-08T10:24:49.315Z</time>
      </trkpt>
      <trkpt lat="38.395192" lon="-3.018954">
        <ele>810.290309</ele>
        <time>2020-08-08T10:24:51.318Z</time>
      </trkpt>
      <trkpt lat="38.395097" lon="-3.019081">
        <ele>809.857104</ele>
        <time>2020-08-08T10:24:54.314Z</time>
      </trkpt>
      <trkpt lat="38.395024" lon="-3.019156">
        <ele>809.562022</ele>
        <time>2020-08-08T10:24:56.314Z</time>
      </trkpt>
      <trkpt lat="38.394935" lon="-3.019297">
        <ele>809.029011</ele>
        <time>2020-08-08T10:24:59.318Z</time>
      </trkpt>
      <trkpt lat="38.394848" lon="-3.019415">
        <ele>808.542479</ele>
        <time>2020-08-08T10:25:02.316Z</time>
      </trkpt>
      <trkpt lat="38.394788" lon="-3.019512">
        <ele>808.171376</ele>
        <time>2020-08-08T10:25:04.323Z</time>
      </trkpt>
      <trkpt lat="38.394733" lon="-3.019606">
        <ele>807.819087</ele>
        <time>2020-08-08T10:25:06.302Z</time>
      </trkpt>
      <trkpt lat="38.394670" lon="-3.019699">
        <ele>807.449924</ele>
        <time>2020-08-08T10:25:08.325Z</time>
      </trkpt>
      <trkpt lat="38.394608" lon="-3.019785">
        <ele>807.099004</ele>
        <time>2020-08-08T10:25:10.321Z</time>
      </trkpt>
      <trkpt lat="38.394541" lon="-3.019871">
        <ele>806.734839</ele>
        <time>2020-08-08T10:25:12.312Z</time>
      </trkpt>
      <trkpt lat="38.394477" lon="-3.019960">
        <ele>806.372099</ele>
        <time>2020-08-08T10:25:14.316Z</time>
      </trkpt>
      <trkpt lat="38.394395" lon="-3.020067">
        <ele>805.922671</ele>
        <time>2020-08-08T10:25:17.315Z</time>
      </trkpt>
      <trkpt lat="38.394306" lon="-3.020182">
        <ele>805.437305</ele>
        <time>2020-08-08T10:25:20.302Z</time>
      </trkpt>
      <trkpt lat="38.394223" lon="-3.020314">
        <ele>804.929074</ele>
        <time>2020-08-08T10:25:23.320Z</time>
      </trkpt>
      <trkpt lat="38.394144" lon="-3.020432">
        <ele>804.463008</ele>
        <time>2020-08-08T10:25:26.306Z</time>
      </trkpt>
      <trkpt lat="38.394064" lon="-3.020543">
        <ele>804.010134</ele>
        <time>2020-08-08T10:25:29.322Z</time>
      </trkpt>
      <trkpt lat="38.393984" lon="-3.020659">
        <ele>803.546096</ele>
        <time>2020-08-08T10:25:32.304Z</time>
      </trkpt>
      <trkpt lat="38.393908" lon="-3.020773">
        <ele>803.096628</ele>
        <time>2020-08-08T10:25:35.303Z</time>
      </trkpt>
      <trkpt lat="38.393833" lon="-3.020890">
        <ele>802.642696</ele>
        <time>2020-08-08T10:25:38.312Z</time>
      </trkpt>
      <trkpt lat="38.393748" lon="-3.021014">
        <ele>802.811031</ele>
        <time>2020-08-08T10:25:41.301Z</time>
      </trkpt>
      <trkpt lat="38.393670" lon="-3.021135">
        <ele>803.000392</ele>
        <time>2020-08-08T10:25:44.304Z</time>
      </trkpt>
      <trkpt lat="38.393591" lon="-3.021236">
        <ele>803.172858</ele>
        <time>2020-08-08T10:25:47.307Z</time>
      </trkpt>
      <trkpt lat="38.393513" lon="-3.021335">
        <ele>803.342525</ele>
        <time>2020-08-08T10:25:50.323Z</time>
      </trkpt>
      <trkpt lat="38.393432" lon="-3.021428">
        <ele>803.510568</ele>
        <time>2020-08-08T10:25:53.623Z</time>
      </trkpt>
      <trkpt lat="38.393361" lon="-3.021509">
        <ele>803.657446</ele>
        <time>2020-08-08T10:25:56.614Z</time>
      </trkpt>
      <trkpt lat="38.393289" lon="-3.021598">
        <ele>803.812043</ele>
        <time>2020-08-08T10:26:00.624Z</time>
      </trkpt>
      <trkpt lat="38.393216" lon="-3.021694">
        <ele>803.973712</ele>
        <time>2020-08-08T10:26:04.635Z</time>
      </trkpt>
      <trkpt lat="38.393142" lon="-3.021791">
        <ele>804.137322</ele>
        <time>2020-08-08T10:26:08.626Z</time>
      </trkpt>
      <trkpt lat="38.393061" lon="-3.021894">
        <ele>804.313679</ele>
        <time>2020-08-08T10:26:12.627Z</time>
      </trkpt>
      <trkpt lat="38.392988" lon="-3.022004">
        <ele>804.487892</ele>
        <time>2020-08-08T10:26:16.639Z</time>
      </trkpt>
      <trkpt lat="38.392914" lon="-3.022116">
        <ele>804.664947</ele>
        <time>2020-08-08T10:26:20.634Z</time>
      </trkpt>
      <trkpt lat="38.392842" lon="-3.022230">
        <ele>804.841906</ele>
        <time>2020-08-08T10:26:24.633Z</time>
      </trkpt>
      <trkpt lat="38.392773" lon="-3.022333">
        <ele>805.005678</ele>
        <time>2020-08-08T10:26:28.648Z</time>
      </trkpt>
      <trkpt lat="38.392696" lon="-3.022431">
        <ele>805.173401</ele>
        <time>2020-08-08T10:26:32.642Z</time>
      </trkpt>
      <trkpt lat="38.392623" lon="-3.022514">
        <ele>805.324190</ele>
        <time>2020-08-08T10:26:37.620Z</time>
      </trkpt>
      <trkpt lat="38.392563" lon="-3.022620">
        <ele>805.856943</ele>
        <time>2020-08-08T10:26:42.618Z</time>
      </trkpt>
      <trkpt lat="38.392489" lon="-3.022712">
        <ele>806.696852</ele>
        <time>2020-08-08T10:26:46.621Z</time>
      </trkpt>
      <trkpt lat="38.392418" lon="-3.022799">
        <ele>807.497085</ele>
        <time>2020-08-08T10:26:50.613Z</time>
      </trkpt>
      <trkpt lat="38.392354" lon="-3.022890">
        <ele>808.276077</ele>
        <time>2020-08-08T10:26:54.627Z</time>
      </trkpt>
      <trkpt lat="38.392291" lon="-3.022979">
        <ele>809.040160</ele>
        <time>2020-08-08T10:26:58.624Z</time>
      </trkpt>
      <trkpt lat="38.392220" lon="-3.023058">
        <ele>809.805970</ele>
        <time>2020-08-08T10:27:02.630Z</time>
      </trkpt>
      <trkpt lat="38.392132" lon="-3.023149">
        <ele>810.726782</ele>
        <time>2020-08-08T10:27:06.631Z</time>
      </trkpt>
      <trkpt lat="38.392053" lon="-3.023252">
        <ele>811.644976</ele>
        <time>2020-08-08T10:27:10.628Z</time>
      </trkpt>
      <trkpt lat="38.391970" lon="-3.023336">
        <ele>812.506178</ele>
        <time>2020-08-08T10:27:14.647Z</time>
      </trkpt>
      <trkpt lat="38.391901" lon="-3.023410">
        <ele>813.238919</ele>
        <time>2020-08-08T10:27:18.617Z</time>
      </trkpt>
      <trkpt lat="38.391826" lon="-3.023490">
        <ele>814.033597</ele>
        <time>2020-08-08T10:27:22.623Z</time>
      </trkpt>
      <trkpt lat="38.391757" lon="-3.023565">
        <ele>814.770455</ele>
        <time>2020-08-08T10:27:26.646Z</time>
      </trkpt>
      <trkpt lat="38.391679" lon="-3.023647">
        <ele>815.592038</ele>
        <time>2020-08-08T10:27:30.627Z</time>
      </trkpt>
      <trkpt lat="38.391591" lon="-3.023737">
        <ele>816.508854</ele>
        <time>2020-08-08T10:27:34.619Z</time>
      </trkpt>
      <trkpt lat="38.391498" lon="-3.023828">
        <ele>817.461590</ele>
        <time>2020-08-08T10:27:38.630Z</time>
      </trkpt>
      <trkpt lat="38.391426" lon="-3.023919">
        <ele>818.285443</ele>
        <time>2020-08-08T10:27:41.623Z</time>
      </trkpt>
      <trkpt lat="38.391347" lon="-3.024009">
        <ele>819.146393</ele>
        <time>2020-08-08T10:27:44.622Z</time>
      </trkpt>
      <trkpt lat="38.391258" lon="-3.024114">
        <ele>820.017109</ele>
        <time>2020-08-08T10:27:47.620Z</time>
      </trkpt>
      <trkpt lat="38.391192" lon="-3.024191">
        <ele>820.025631</ele>
        <time>2020-08-08T10:27:49.622Z</time>
      </trkpt>
      <trkpt lat="38.391126" lon="-3.024274">
        <ele>820.034462</ele>
        <time>2020-08-08T10:27:51.623Z</time>
      </trkpt>
      <trkpt lat="38.391036" lon="-3.024410">
        <ele>820.047756</ele>
        <time>2020-08-08T10:27:54.626Z</time>
      </trkpt>
      <trkpt lat="38.390933" lon="-3.024513">
        <ele>820.060227</ele>
        <time>2020-08-08T10:27:57.639Z</time>
      </trkpt>
      <trkpt lat="38.390825" lon="-3.024602">
        <ele>820.072479</ele>
        <time>2020-08-08T10:28:00.625Z</time>
      </trkpt>
      <trkpt lat="38.390752" lon="-3.024671">
        <ele>820.081137</ele>
        <time>2020-08-08T10:28:02.631Z</time>
      </trkpt>
      <trkpt lat="38.390650" lon="-3.024766">
        <ele>820.093171</ele>
        <time>2020-08-08T10:28:05.627Z</time>
      </trkpt>
      <trkpt lat="38.390583" lon="-3.024846">
        <ele>820.101915</ele>
        <time>2020-08-08T10:28:07.635Z</time>
      </trkpt>
      <trkpt lat="38.390486" lon="-3.024952">
        <ele>820.114086</ele>
        <time>2020-08-08T10:28:10.645Z</time>
      </trkpt>
      <trkpt lat="38.390394" lon="-3.025052">
        <ele>820.125603</ele>
        <time>2020-08-08T10:28:13.639Z</time>
      </trkpt>
      <trkpt lat="38.390294" lon="-3.025150">
        <ele>820.137619</ele>
        <time>2020-08-08T10:28:16.637Z</time>
      </trkpt>
      <trkpt lat="38.390202" lon="-3.025259">
        <ele>820.149583</ele>
        <time>2020-08-08T10:28:19.627Z</time>
      </trkpt>
      <trkpt lat="38.390110" lon="-3.025354">
        <ele>820.160862</ele>
        <time>2020-08-08T10:28:22.634Z</time>
      </trkpt>
      <trkpt lat="38.390037" lon="-3.025443">
        <ele>820.170484</ele>
        <time>2020-08-08T10:28:25.624Z</time>
      </trkpt>
      <trkpt lat="38.389965" lon="-3.025532">
        <ele>820.180037</ele>
        <time>2020-08-08T10:28:28.627Z</time>
      </trkpt>
      <trkpt lat="38.389898" lon="-3.025625">
        <ele>820.226870</ele>
        <time>2020-08-08T10:28:31.631Z</time>
      </trkpt>
      <trkpt lat="38.389823" lon="-3.025708">
        <ele>820.388531</ele>
        <time>2020-08-08T10:28:34.636Z</time>
      </trkpt>
      <trkpt lat="38.389749" lon="-3.025788">
        <ele>820.546465</ele>
        <time>2020-08-08T10:28:37.644Z</time>
      </trkpt>
      <trkpt lat="38.389678" lon="-3.025871">
        <ele>820.703264</ele>
        <time>2020-08-08T10:28:40.632Z</time>
      </trkpt>
      <trkpt lat="38.389610" lon="-3.025955">
        <ele>820.857383</ele>
        <time>2020-08-08T10:28:43.627Z</time>
      </trkpt>
      <trkpt lat="38.389536" lon="-3.026031">
        <ele>821.012065</ele>
        <time>2020-08-08T10:28:46.635Z</time>
      </trkpt>
      <trkpt lat="38.389466" lon="-3.026113">
        <ele>821.166803</ele>
        <time>2020-08-08T10:28:49.637Z</time>
      </trkpt>
      <trkpt lat="38.389403" lon="-3.026197">
        <ele>821.315181</ele>
        <time>2020-08-08T10:28:52.632Z</time>
      </trkpt>
      <trkpt lat="38.389326" lon="-3.026261">
        <ele>821.464818</ele>
        <time>2020-08-08T10:28:55.644Z</time>
      </trkpt>
      <trkpt lat="38.389230" lon="-3.026301">
        <ele>821.629258</ele>
        <time>2020-08-08T10:28:58.644Z</time>
      </trkpt>
      <trkpt lat="38.389143" lon="-3.026359">
        <ele>821.789092</ele>
        <time>2020-08-08T10:29:01.619Z</time>
      </trkpt>
      <trkpt lat="38.389061" lon="-3.026443">
        <ele>821.960324</ele>
        <time>2020-08-08T10:29:04.637Z</time>
      </trkpt>
      <trkpt lat="38.388991" lon="-3.026541">
        <ele>822.129543</ele>
        <time>2020-08-08T10:29:07.631Z</time>
      </trkpt>
      <trkpt lat="38.388931" lon="-3.026668">
        <ele>822.318795</ele>
        <time>2020-08-08T10:29:10.634Z</time>
      </trkpt>
      <trkpt lat="38.388871" lon="-3.026816">
        <ele>822.531452</ele>
        <time>2020-08-08T10:29:13.631Z</time>
      </trkpt>
      <trkpt lat="38.388829" lon="-3.026938">
        <ele>822.701514</ele>
        <time>2020-08-08T10:29:15.635Z</time>
      </trkpt>
      <trkpt lat="38.388776" lon="-3.027035">
        <ele>822.852423</ele>
        <time>2020-08-08T10:29:17.622Z</time>
      </trkpt>
      <trkpt lat="38.388728" lon="-3.027164">
        <ele>823.034671</ele>
        <time>2020-08-08T10:29:19.605Z</time>
      </trkpt>
      <trkpt lat="38.388624" lon="-3.027278">
        <ele>822.798217</ele>
        <time>2020-08-08T10:29:21.615Z</time>
      </trkpt>
      <trkpt lat="38.388515" lon="-3.027402">
        <ele>822.266664</ele>
        <time>2020-08-08T10:29:23.622Z</time>
      </trkpt>
      <trkpt lat="38.388411" lon="-3.027512">
        <ele>821.774957</ele>
        <time>2020-08-08T10:29:25.624Z</time>
      </trkpt>
      <trkpt lat="38.388304" lon="-3.027639">
        <ele>821.243021</ele>
        <time>2020-08-08T10:29:27.628Z</time>
      </trkpt>
      <trkpt lat="38.388191" lon="-3.027763">
        <ele>820.700514</ele>
        <time>2020-08-08T10:29:29.616Z</time>
      </trkpt>
      <trkpt lat="38.388081" lon="-3.027897">
        <ele>820.146934</ele>
        <time>2020-08-08T10:29:31.615Z</time>
      </trkpt>
      <trkpt lat="38.387965" lon="-3.028018">
        <ele>819.601559</ele>
        <time>2020-08-08T10:29:33.648Z</time>
      </trkpt>
      <trkpt lat="38.387851" lon="-3.028149">
        <ele>819.043122</ele>
        <time>2020-08-08T10:29:35.614Z</time>
      </trkpt>
      <trkpt lat="38.387746" lon="-3.028281">
        <ele>818.506577</ele>
        <time>2020-08-08T10:29:37.625Z</time>
      </trkpt>
      <trkpt lat="38.387625" lon="-3.028399">
        <ele>817.952233</ele>
        <time>2020-08-08T10:29:39.621Z</time>
      </trkpt>
      <trkpt lat="38.387492" lon="-3.028553">
        <ele>817.298490</ele>
        <time>2020-08-08T10:29:41.628Z</time>
      </trkpt>
      <trkpt lat="38.387440" lon="-3.028658">
        <ele>816.944145</ele>
        <time>2020-08-08T10:29:42.633Z</time>
      </trkpt>
      <trkpt lat="38.387330" lon="-3.028790">
        <ele>816.379310</ele>
        <time>2020-08-08T10:29:44.620Z</time>
      </trkpt>
      <trkpt lat="38.387211" lon="-3.028923">
        <ele>815.753441</ele>
        <time>2020-08-08T10:29:46.619Z</time>
      </trkpt>
      <trkpt lat="38.387080" lon="-3.029059">
        <ele>815.085293</ele>
        <time>2020-08-08T10:29:48.626Z</time>
      </trkpt>
      <trkpt lat="38.386958" lon="-3.029167">
        <ele>814.497845</ele>
        <time>2020-08-08T10:29:50.621Z</time>
      </trkpt>
      <trkpt lat="38.386833" lon="-3.029306">
        <ele>813.841859</ele>
        <time>2020-08-08T10:29:52.639Z</time>
      </trkpt>
      <trkpt lat="38.386711" lon="-3.029438">
        <ele>813.209024</ele>
        <time>2020-08-08T10:29:54.627Z</time>
      </trkpt>
      <trkpt lat="38.386593" lon="-3.029579">
        <ele>812.569428</ele>
        <time>2020-08-08T10:29:56.623Z</time>
      </trkpt>
      <trkpt lat="38.386457" lon="-3.029706">
        <ele>811.902676</ele>
        <time>2020-08-08T10:29:58.634Z</time>
      </trkpt>
      <trkpt lat="38.386339" lon="-3.029848">
        <ele>811.260956</ele>
        <time>2020-08-08T10:30:00.627Z</time>
      </trkpt>
      <trkpt lat="38.386211" lon="-3.029970">
        <ele>810.628868</ele>
        <time>2020-08-08T10:30:02.632Z</time>
      </trkpt>
      <trkpt lat="38.386084" lon="-3.030099">
        <ele>809.986654</ele>
        <time>2020-08-08T10:30:04.619Z</time>
      </trkpt>
      <trkpt lat="38.385968" lon="-3.030242">
        <ele>809.420207</ele>
        <time>2020-08-08T10:30:06.628Z</time>
      </trkpt>
      <trkpt lat="38.385841" lon="-3.030388">
        <ele>809.205124</ele>
        <time>2020-08-08T10:30:08.634Z</time>
      </trkpt>
      <trkpt lat="38.385725" lon="-3.030515">
        <ele>809.012809</ele>
        <time>2020-08-08T10:30:10.630Z</time>
      </trkpt>
      <trkpt lat="38.385622" lon="-3.030613">
        <ele>808.851152</ele>
        <time>2020-08-08T10:30:12.628Z</time>
      </trkpt>
      <trkpt lat="38.385493" lon="-3.030730">
        <ele>808.652020</ele>
        <time>2020-08-08T10:30:14.633Z</time>
      </trkpt>
      <trkpt lat="38.385375" lon="-3.030842">
        <ele>808.466981</ele>
        <time>2020-08-08T10:30:16.642Z</time>
      </trkpt>
      <trkpt lat="38.385268" lon="-3.030967">
        <ele>808.284447</ele>
        <time>2020-08-08T10:30:18.632Z</time>
      </trkpt>
      <trkpt lat="38.385169" lon="-3.031092">
        <ele>808.109205</ele>
        <time>2020-08-08T10:30:20.626Z</time>
      </trkpt>
      <trkpt lat="38.385057" lon="-3.031191">
        <ele>807.937777</ele>
        <time>2020-08-08T10:30:22.626Z</time>
      </trkpt>
      <trkpt lat="38.384960" lon="-3.031302">
        <ele>807.773838</ele>
        <time>2020-08-08T10:30:24.638Z</time>
      </trkpt>
      <trkpt lat="38.384873" lon="-3.031411">
        <ele>807.620424</ele>
        <time>2020-08-08T10:30:26.620Z</time>
      </trkpt>
      <trkpt lat="38.384770" lon="-3.031539">
        <ele>807.439518</ele>
        <time>2020-08-08T10:30:28.626Z</time>
      </trkpt>
      <trkpt lat="38.384658" lon="-3.031653">
        <ele>807.259254</ele>
        <time>2020-08-08T10:30:30.644Z</time>
      </trkpt>
      <trkpt lat="38.384555" lon="-3.031747">
        <ele>807.305463</ele>
        <time>2020-08-08T10:30:32.631Z</time>
      </trkpt>
      <trkpt lat="38.384441" lon="-3.031831">
        <ele>807.514733</ele>
        <time>2020-08-08T10:30:34.626Z</time>
      </trkpt>
      <trkpt lat="38.384345" lon="-3.031944">
        <ele>807.722368</ele>
        <time>2020-08-08T10:30:36.637Z</time>
      </trkpt>
      <trkpt lat="38.384247" lon="-3.032041">
        <ele>807.919539</ele>
        <time>2020-08-08T10:30:38.633Z</time>
      </trkpt>
      <trkpt lat="38.384148" lon="-3.032142">
        <ele>808.121042</ele>
        <time>2020-08-08T10:30:40.616Z</time>
      </trkpt>
      <trkpt lat="38.384031" lon="-3.032214">
        <ele>808.327533</ele>
        <time>2020-08-08T10:30:42.637Z</time>
      </trkpt>
      <trkpt lat="38.383938" lon="-3.032297">
        <ele>808.507951</ele>
        <time>2020-08-08T10:30:44.643Z</time>
      </trkpt>
      <trkpt lat="38.383845" lon="-3.032408">
        <ele>808.710397</ele>
        <time>2020-08-08T10:30:46.627Z</time>
      </trkpt>
      <trkpt lat="38.383761" lon="-3.032524">
        <ele>808.907175</ele>
        <time>2020-08-08T10:30:48.630Z</time>
      </trkpt>
      <trkpt lat="38.383671" lon="-3.032636">
        <ele>809.107034</ele>
        <time>2020-08-08T10:30:50.624Z</time>
      </trkpt>
      <trkpt lat="38.383532" lon="-3.032685">
        <ele>809.336269</ele>
        <time>2020-08-08T10:30:52.631Z</time>
      </trkpt>
      <trkpt lat="38.383473" lon="-3.032801">
        <ele>809.508572</ele>
        <time>2020-08-08T10:30:54.627Z</time>
      </trkpt>
      <trkpt lat="38.383364" lon="-3.032885">
        <ele>809.710999</ele>
        <time>2020-08-08T10:30:56.616Z</time>
      </trkpt>
      <trkpt lat="38.383244" lon="-3.032968">
        <ele>809.927984</ele>
        <time>2020-08-08T10:30:58.627Z</time>
      </trkpt>
      <trkpt lat="38.383174" lon="-3.033096">
        <ele>809.873264</ele>
        <time>2020-08-08T10:31:00.615Z</time>
      </trkpt>
      <trkpt lat="38.383064" lon="-3.033206">
        <ele>809.332809</ele>
        <time>2020-08-08T10:31:02.621Z</time>
      </trkpt>
      <trkpt lat="38.382974" lon="-3.033324">
        <ele>808.833768</ele>
        <time>2020-08-08T10:31:04.619Z</time>
      </trkpt>
      <trkpt lat="38.382848" lon="-3.033423">
        <ele>808.261554</ele>
        <time>2020-08-08T10:31:06.620Z</time>
      </trkpt>
      <trkpt lat="38.382745" lon="-3.033536">
        <ele>807.736248</ele>
        <time>2020-08-08T10:31:08.625Z</time>
      </trkpt>
      <trkpt lat="38.382639" lon="-3.033640">
        <ele>807.219163</ele>
        <time>2020-08-08T10:31:10.617Z</time>
      </trkpt>
      <trkpt lat="38.382611" lon="-3.033812">
        <ele>806.686686</ele>
        <time>2020-08-08T10:31:12.624Z</time>
      </trkpt>
      <trkpt lat="38.382518" lon="-3.033901">
        <ele>806.237133</ele>
        <time>2020-08-08T10:31:14.622Z</time>
      </trkpt>
      <trkpt lat="38.382438" lon="-3.034028">
        <ele>805.743287</ele>
        <time>2020-08-08T10:31:17.624Z</time>
      </trkpt>
      <trkpt lat="38.382362" lon="-3.034134">
        <ele>805.307859</ele>
        <time>2020-08-08T10:31:19.623Z</time>
      </trkpt>
      <trkpt lat="38.382284" lon="-3.034224">
        <ele>804.901177</ele>
        <time>2020-08-08T10:31:21.623Z</time>
      </trkpt>
      <trkpt lat="38.382212" lon="-3.034293">
        <ele>804.552959</ele>
        <time>2020-08-08T10:31:23.625Z</time>
      </trkpt>
      <trkpt lat="38.382115" lon="-3.034397">
        <ele>804.062999</ele>
        <time>2020-08-08T10:31:26.643Z</time>
      </trkpt>
      <trkpt lat="38.382017" lon="-3.034472">
        <ele>803.621091</ele>
        <time>2020-08-08T10:31:30.625Z</time>
      </trkpt>
      <trkpt lat="38.381926" lon="-3.034538">
        <ele>803.216317</ele>
        <time>2020-08-08T10:31:34.618Z</time>
      </trkpt>
      <trkpt lat="38.381838" lon="-3.034618">
        <ele>802.855962</ele>
        <time>2020-08-08T10:31:38.639Z</time>
      </trkpt>
      <trkpt lat="38.381751" lon="-3.034693">
        <ele>802.528696</ele>
        <time>2020-08-08T10:31:42.636Z</time>
      </trkpt>
      <trkpt lat="38.381681" lon="-3.034773">
        <ele>802.235776</ele>
        <time>2020-08-08T10:31:45.623Z</time>
      </trkpt>
      <trkpt lat="38.381611" lon="-3.034866">
        <ele>801.920772</ele>
        <time>2020-08-08T10:31:48.617Z</time>
      </trkpt>
      <trkpt lat="38.381542" lon="-3.034959">
        <ele>801.607919</ele>
        <time>2020-08-08T10:31:51.620Z</time>
      </trkpt>
      <trkpt lat="38.381472" lon="-3.035058">
        <ele>801.282183</ele>
        <time>2020-08-08T10:31:54.631Z</time>
      </trkpt>
      <trkpt lat="38.381394" lon="-3.035163">
        <ele>800.928754</ele>
        <time>2020-08-08T10:31:57.623Z</time>
      </trkpt>
      <trkpt lat="38.381320" lon="-3.035287">
        <ele>800.547994</ele>
        <time>2020-08-08T10:32:00.630Z</time>
      </trkpt>
      <trkpt lat="38.381224" lon="-3.035409">
        <ele>800.125653</ele>
        <time>2020-08-08T10:32:03.639Z</time>
      </trkpt>
      <trkpt lat="38.381157" lon="-3.035506">
        <ele>799.809786</ele>
        <time>2020-08-08T10:32:05.620Z</time>
      </trkpt>
      <trkpt lat="38.381090" lon="-3.035598">
        <ele>799.502978</ele>
        <time>2020-08-08T10:32:07.636Z</time>
      </trkpt>
      <trkpt lat="38.381013" lon="-3.035656">
        <ele>799.224274</ele>
        <time>2020-08-08T10:32:09.620Z</time>
      </trkpt>
      <trkpt lat="38.380953" lon="-3.035756">
        <ele>798.916598</ele>
        <time>2020-08-08T10:32:11.621Z</time>
      </trkpt>
      <trkpt lat="38.380874" lon="-3.035826">
        <ele>798.616805</ele>
        <time>2020-08-08T10:32:13.630Z</time>
      </trkpt>
      <trkpt lat="38.380805" lon="-3.035963">
        <ele>798.218951</ele>
        <time>2020-08-08T10:32:16.628Z</time>
      </trkpt>
      <trkpt lat="38.380723" lon="-3.036040">
        <ele>797.901602</ele>
        <time>2020-08-08T10:32:18.627Z</time>
      </trkpt>
      <trkpt lat="38.380662" lon="-3.036137">
        <ele>797.597773</ele>
        <time>2020-08-08T10:32:20.625Z</time>
      </trkpt>
      <trkpt lat="38.380577" lon="-3.036231">
        <ele>797.207075</ele>
        <time>2020-08-08T10:32:22.617Z</time>
      </trkpt>
      <trkpt lat="38.380507" lon="-3.036331">
        <ele>796.825209</ele>
        <time>2020-08-08T10:32:24.614Z</time>
      </trkpt>
      <trkpt lat="38.380436" lon="-3.036426">
        <ele>796.451347</ele>
        <time>2020-08-08T10:32:26.623Z</time>
      </trkpt>
      <trkpt lat="38.380350" lon="-3.036535">
        <ele>796.010852</ele>
        <time>2020-08-08T10:32:28.619Z</time>
      </trkpt>
      <trkpt lat="38.380271" lon="-3.036623">
        <ele>795.629770</ele>
        <time>2020-08-08T10:32:30.619Z</time>
      </trkpt>
      <trkpt lat="38.380194" lon="-3.036710">
        <ele>795.256026</ele>
        <time>2020-08-08T10:32:32.627Z</time>
      </trkpt>
      <trkpt lat="38.380124" lon="-3.036820">
        <ele>794.852467</ele>
        <time>2020-08-08T10:32:34.627Z</time>
      </trkpt>
      <trkpt lat="38.380038" lon="-3.036947">
        <ele>794.374450</ele>
        <time>2020-08-08T10:32:36.625Z</time>
      </trkpt>
      <trkpt lat="38.379963" lon="-3.037066">
        <ele>793.939533</ele>
        <time>2020-08-08T10:32:38.626Z</time>
      </trkpt>
      <trkpt lat="38.379870" lon="-3.037204">
        <ele>793.421176</ele>
        <time>2020-08-08T10:32:40.625Z</time>
      </trkpt>
      <trkpt lat="38.379781" lon="-3.037331">
        <ele>792.935962</ele>
        <time>2020-08-08T10:32:42.625Z</time>
      </trkpt>
      <trkpt lat="38.379682" lon="-3.037481">
        <ele>792.377444</ele>
        <time>2020-08-08T10:32:44.628Z</time>
      </trkpt>
      <trkpt lat="38.379581" lon="-3.037632">
        <ele>791.812053</ele>
        <time>2020-08-08T10:32:46.615Z</time>
      </trkpt>
      <trkpt lat="38.379478" lon="-3.037777">
        <ele>791.254699</ele>
        <time>2020-08-08T10:32:48.628Z</time>
      </trkpt>
      <trkpt lat="38.379362" lon="-3.037916">
        <ele>790.913979</ele>
        <time>2020-08-08T10:32:50.626Z</time>
      </trkpt>
      <trkpt lat="38.379251" lon="-3.038068">
        <ele>790.829534</ele>
        <time>2020-08-08T10:32:52.629Z</time>
      </trkpt>
      <trkpt lat="38.379142" lon="-3.038218">
        <ele>790.746390</ele>
        <time>2020-08-08T10:32:54.626Z</time>
      </trkpt>
      <trkpt lat="38.379019" lon="-3.038368">
        <ele>790.658150</ele>
        <time>2020-08-08T10:32:56.628Z</time>
      </trkpt>
      <trkpt lat="38.378905" lon="-3.038515">
        <ele>790.574093</ele>
        <time>2020-08-08T10:32:58.626Z</time>
      </trkpt>
      <trkpt lat="38.378774" lon="-3.038644">
        <ele>790.488276</ele>
        <time>2020-08-08T10:33:00.643Z</time>
      </trkpt>
      <trkpt lat="38.378690" lon="-3.038696">
        <ele>790.439859</ele>
        <time>2020-08-08T10:33:01.616Z</time>
      </trkpt>
      <trkpt lat="38.378531" lon="-3.038800">
        <ele>790.347202</ele>
        <time>2020-08-08T10:33:03.649Z</time>
      </trkpt>
      <trkpt lat="38.378456" lon="-3.038867">
        <ele>790.299721</ele>
        <time>2020-08-08T10:33:04.648Z</time>
      </trkpt>
      <trkpt lat="38.378294" lon="-3.038918">
        <ele>790.213195</ele>
        <time>2020-08-08T10:33:06.649Z</time>
      </trkpt>
      <trkpt lat="38.378157" lon="-3.038971">
        <ele>790.138957</ele>
        <time>2020-08-08T10:33:08.656Z</time>
      </trkpt>
      <trkpt lat="38.378031" lon="-3.039066">
        <ele>790.063059</ele>
        <time>2020-08-08T10:33:10.629Z</time>
      </trkpt>
      <trkpt lat="38.377865" lon="-3.039128">
        <ele>789.888694</ele>
        <time>2020-08-08T10:33:12.644Z</time>
      </trkpt>
      <trkpt lat="38.377775" lon="-3.039142">
        <ele>789.757803</ele>
        <time>2020-08-08T10:33:13.632Z</time>
      </trkpt>
      <trkpt lat="38.377622" lon="-3.039196">
        <ele>789.528626</ele>
        <time>2020-08-08T10:33:15.633Z</time>
      </trkpt>
      <trkpt lat="38.377463" lon="-3.039251">
        <ele>789.290796</ele>
        <time>2020-08-08T10:33:17.630Z</time>
      </trkpt>
      <trkpt lat="38.377374" lon="-3.039296">
        <ele>789.152586</ele>
        <time>2020-08-08T10:33:18.648Z</time>
      </trkpt>
      <trkpt lat="38.377227" lon="-3.039360">
        <ele>788.928349</ele>
        <time>2020-08-08T10:33:20.631Z</time>
      </trkpt>
      <trkpt lat="38.377138" lon="-3.039391">
        <ele>788.795160</ele>
        <time>2020-08-08T10:33:21.625Z</time>
      </trkpt>
      <trkpt lat="38.376966" lon="-3.039480">
        <ele>788.527201</ele>
        <time>2020-08-08T10:33:23.630Z</time>
      </trkpt>
      <trkpt lat="38.376878" lon="-3.039538">
        <ele>788.384204</ele>
        <time>2020-08-08T10:33:24.633Z</time>
      </trkpt>
      <trkpt lat="38.376773" lon="-3.039540">
        <ele>788.232604</ele>
        <time>2020-08-08T10:33:25.629Z</time>
      </trkpt>
      <trkpt lat="38.376607" lon="-3.039587">
        <ele>787.987125</ele>
        <time>2020-08-08T10:33:27.623Z</time>
      </trkpt>
      <trkpt lat="38.376435" lon="-3.039635">
        <ele>787.732945</ele>
        <time>2020-08-08T10:33:29.625Z</time>
      </trkpt>
      <trkpt lat="38.376301" lon="-3.039710">
        <ele>787.521693</ele>
        <time>2020-08-08T10:33:31.648Z</time>
      </trkpt>
      <trkpt lat="38.376224" lon="-3.039787">
        <ele>787.356516</ele>
        <time>2020-08-08T10:33:32.630Z</time>
      </trkpt>
      <trkpt lat="38.376096" lon="-3.039811">
        <ele>787.067637</ele>
        <time>2020-08-08T10:33:34.637Z</time>
      </trkpt>
      <trkpt lat="38.375903" lon="-3.039820">
        <ele>786.636404</ele>
        <time>2020-08-08T10:33:36.626Z</time>
      </trkpt>
      <trkpt lat="38.375760" lon="-3.039848">
        <ele>786.313362</ele>
        <time>2020-08-08T10:33:38.620Z</time>
      </trkpt>
      <trkpt lat="38.375647" lon="-3.039922">
        <ele>786.029739</ele>
        <time>2020-08-08T10:33:40.625Z</time>
      </trkpt>
      <trkpt lat="38.375550" lon="-3.039993">
        <ele>785.780024</ele>
        <time>2020-08-08T10:33:42.631Z</time>
      </trkpt>
      <trkpt lat="38.375464" lon="-3.040125">
        <ele>785.479583</ele>
        <time>2020-08-08T10:33:44.617Z</time>
      </trkpt>
      <trkpt lat="38.375326" lon="-3.040130">
        <ele>785.171322</ele>
        <time>2020-08-08T10:33:46.625Z</time>
      </trkpt>
      <trkpt lat="38.375225" lon="-3.040206">
        <ele>784.909485</ele>
        <time>2020-08-08T10:33:48.621Z</time>
      </trkpt>
      <trkpt lat="38.375092" lon="-3.040279">
        <ele>784.586187</ele>
        <time>2020-08-08T10:33:50.624Z</time>
      </trkpt>
      <trkpt lat="38.375007" lon="-3.040326">
        <ele>784.379327</ele>
        <time>2020-08-08T10:33:51.679Z</time>
      </trkpt>
      <trkpt lat="38.374856" lon="-3.040357">
        <ele>784.037824</ele>
        <time>2020-08-08T10:33:53.619Z</time>
      </trkpt>
      <trkpt lat="38.374716" lon="-3.040395">
        <ele>783.718222</ele>
        <time>2020-08-08T10:33:55.638Z</time>
      </trkpt>
      <trkpt lat="38.374594" lon="-3.040454">
        <ele>783.426890</ele>
        <time>2020-08-08T10:33:57.627Z</time>
      </trkpt>
      <trkpt lat="38.374488" lon="-3.040508">
        <ele>783.085703</ele>
        <time>2020-08-08T10:33:59.627Z</time>
      </trkpt>
      <trkpt lat="38.374348" lon="-3.040549">
        <ele>782.647669</ele>
        <time>2020-08-08T10:34:01.627Z</time>
      </trkpt>
      <trkpt lat="38.374212" lon="-3.040620">
        <ele>782.199550</ele>
        <time>2020-08-08T10:34:03.623Z</time>
      </trkpt>
      <trkpt lat="38.374060" lon="-3.040652">
        <ele>781.729759</ele>
        <time>2020-08-08T10:34:05.627Z</time>
      </trkpt>
      <trkpt lat="38.373930" lon="-3.040663">
        <ele>781.332456</ele>
        <time>2020-08-08T10:34:07.629Z</time>
      </trkpt>
      <trkpt lat="38.373826" lon="-3.040716">
        <ele>780.990936</ele>
        <time>2020-08-08T10:34:08.615Z</time>
      </trkpt>
      <trkpt lat="38.373742" lon="-3.040794">
        <ele>780.674093</ele>
        <time>2020-08-08T10:34:09.652Z</time>
      </trkpt>
      <trkpt lat="38.373568" lon="-3.040817">
        <ele>780.140643</ele>
        <time>2020-08-08T10:34:11.636Z</time>
      </trkpt>
      <trkpt lat="38.373442" lon="-3.040885">
        <ele>779.723433</ele>
        <time>2020-08-08T10:34:13.624Z</time>
      </trkpt>
      <trkpt lat="38.373321" lon="-3.040964">
        <ele>779.308919</ele>
        <time>2020-08-08T10:34:15.623Z</time>
      </trkpt>
      <trkpt lat="38.373200" lon="-3.041035">
        <ele>778.902762</ele>
        <time>2020-08-08T10:34:17.624Z</time>
      </trkpt>
      <trkpt lat="38.373079" lon="-3.041121">
        <ele>778.480360</ele>
        <time>2020-08-08T10:34:19.625Z</time>
      </trkpt>
      <trkpt lat="38.372969" lon="-3.041221">
        <ele>778.068440</ele>
        <time>2020-08-08T10:34:21.629Z</time>
      </trkpt>
      <trkpt lat="38.372863" lon="-3.041325">
        <ele>777.445898</ele>
        <time>2020-08-08T10:34:23.615Z</time>
      </trkpt>
      <trkpt lat="38.372776" lon="-3.041434">
        <ele>776.769833</ele>
        <time>2020-08-08T10:34:25.618Z</time>
      </trkpt>
      <trkpt lat="38.372694" lon="-3.041549">
        <ele>776.094198</ele>
        <time>2020-08-08T10:34:27.633Z</time>
      </trkpt>
      <trkpt lat="38.372608" lon="-3.041662">
        <ele>775.409711</ele>
        <time>2020-08-08T10:34:29.614Z</time>
      </trkpt>
      <trkpt lat="38.372530" lon="-3.041768">
        <ele>774.777857</ele>
        <time>2020-08-08T10:34:31.615Z</time>
      </trkpt>
      <trkpt lat="38.372443" lon="-3.041883">
        <ele>774.083267</ele>
        <time>2020-08-08T10:34:33.627Z</time>
      </trkpt>
      <trkpt lat="38.372361" lon="-3.041997">
        <ele>773.410840</ele>
        <time>2020-08-08T10:34:35.620Z</time>
      </trkpt>
      <trkpt lat="38.372292" lon="-3.042088">
        <ele>772.860604</ele>
        <time>2020-08-08T10:34:37.627Z</time>
      </trkpt>
      <trkpt lat="38.372212" lon="-3.042182">
        <ele>772.257598</ele>
        <time>2020-08-08T10:34:39.621Z</time>
      </trkpt>
      <trkpt lat="38.372140" lon="-3.042309">
        <ele>771.576412</ele>
        <time>2020-08-08T10:34:41.614Z</time>
      </trkpt>
      <trkpt lat="38.372053" lon="-3.042401">
        <ele>770.949899</ele>
        <time>2020-08-08T10:34:43.624Z</time>
      </trkpt>
      <trkpt lat="38.371966" lon="-3.042511">
        <ele>770.270778</ele>
        <time>2020-08-08T10:34:45.622Z</time>
      </trkpt>
      <trkpt lat="38.371869" lon="-3.042644">
        <ele>769.481260</ele>
        <time>2020-08-08T10:34:48.620Z</time>
      </trkpt>
      <trkpt lat="38.371802" lon="-3.042764">
        <ele>768.840952</ele>
        <time>2020-08-08T10:34:50.624Z</time>
      </trkpt>
      <trkpt lat="38.371727" lon="-3.042852">
        <ele>768.276000</ele>
        <time>2020-08-08T10:34:52.614Z</time>
      </trkpt>
      <trkpt lat="38.371652" lon="-3.042951">
        <ele>767.905046</ele>
        <time>2020-08-08T10:34:54.625Z</time>
      </trkpt>
      <trkpt lat="38.371572" lon="-3.043054">
        <ele>767.797654</ele>
        <time>2020-08-08T10:34:56.628Z</time>
      </trkpt>
      <trkpt lat="38.371489" lon="-3.043180">
        <ele>767.675756</ele>
        <time>2020-08-08T10:34:58.618Z</time>
      </trkpt>
      <trkpt lat="38.371409" lon="-3.043306">
        <ele>767.555661</ele>
        <time>2020-08-08T10:35:00.621Z</time>
      </trkpt>
      <trkpt lat="38.371327" lon="-3.043395">
        <ele>767.453938</ele>
        <time>2020-08-08T10:35:02.637Z</time>
      </trkpt>
      <trkpt lat="38.371242" lon="-3.043493">
        <ele>767.345688</ele>
        <time>2020-08-08T10:35:04.622Z</time>
      </trkpt>
      <trkpt lat="38.371161" lon="-3.043579">
        <ele>767.246119</ele>
        <time>2020-08-08T10:35:06.635Z</time>
      </trkpt>
      <trkpt lat="38.371075" lon="-3.043685">
        <ele>767.133132</ele>
        <time>2020-08-08T10:35:08.634Z</time>
      </trkpt>
      <trkpt lat="38.371005" lon="-3.043783">
        <ele>767.034934</ele>
        <time>2020-08-08T10:35:10.622Z</time>
      </trkpt>
      <trkpt lat="38.370915" lon="-3.043879">
        <ele>766.924091</ele>
        <time>2020-08-08T10:35:12.626Z</time>
      </trkpt>
      <trkpt lat="38.370843" lon="-3.043992">
        <ele>766.816235</ele>
        <time>2020-08-08T10:35:14.619Z</time>
      </trkpt>
      <trkpt lat="38.370766" lon="-3.044096">
        <ele>766.710281</ele>
        <time>2020-08-08T10:35:16.628Z</time>
      </trkpt>
      <trkpt lat="38.370707" lon="-3.044191">
        <ele>766.620511</ele>
        <time>2020-08-08T10:35:18.617Z</time>
      </trkpt>
      <trkpt lat="38.370635" lon="-3.044278">
        <ele>766.526810</ele>
        <time>2020-08-08T10:35:20.626Z</time>
      </trkpt>
      <trkpt lat="38.370569" lon="-3.044361">
        <ele>766.439244</ele>
        <time>2020-08-08T10:35:22.630Z</time>
      </trkpt>
      <trkpt lat="38.370497" lon="-3.044434">
        <ele>766.352348</ele>
        <time>2020-08-08T10:35:24.631Z</time>
      </trkpt>
      <trkpt lat="38.370415" lon="-3.044511">
        <ele>766.256146</ele>
        <time>2020-08-08T10:35:26.634Z</time>
      </trkpt>
      <trkpt lat="38.370341" lon="-3.044616">
        <ele>766.715467</ele>
        <time>2020-08-08T10:35:28.629Z</time>
      </trkpt>
      <trkpt lat="38.370266" lon="-3.044697">
        <ele>767.141553</ele>
        <time>2020-08-08T10:35:30.631Z</time>
      </trkpt>
      <trkpt lat="38.370171" lon="-3.044819">
        <ele>767.726046</ele>
        <time>2020-08-08T10:35:33.624Z</time>
      </trkpt>
      <trkpt lat="38.370095" lon="-3.044912">
        <ele>768.182679</ele>
        <time>2020-08-08T10:35:35.623Z</time>
      </trkpt>
      <trkpt lat="38.370017" lon="-3.045009">
        <ele>768.654999</ele>
        <time>2020-08-08T10:35:37.615Z</time>
      </trkpt>
      <trkpt lat="38.369945" lon="-3.045111">
        <ele>769.121545</ele>
        <time>2020-08-08T10:35:39.627Z</time>
      </trkpt>
      <trkpt lat="38.369880" lon="-3.045221">
        <ele>769.589770</ele>
        <time>2020-08-08T10:35:41.617Z</time>
      </trkpt>
      <trkpt lat="38.369801" lon="-3.045348">
        <ele>770.140847</ele>
        <time>2020-08-08T10:35:44.628Z</time>
      </trkpt>
      <trkpt lat="38.369728" lon="-3.045463">
        <ele>770.643826</ele>
        <time>2020-08-08T10:35:46.618Z</time>
      </trkpt>
      <trkpt lat="38.369647" lon="-3.045575">
        <ele>771.161782</ele>
        <time>2020-08-08T10:35:48.620Z</time>
      </trkpt>
      <trkpt lat="38.369571" lon="-3.045683">
        <ele>771.655091</ele>
        <time>2020-08-08T10:35:50.621Z</time>
      </trkpt>
      <trkpt lat="38.369510" lon="-3.045793">
        <ele>772.113089</ele>
        <time>2020-08-08T10:35:52.627Z</time>
      </trkpt>
      <trkpt lat="38.369439" lon="-3.045897">
        <ele>772.581852</ele>
        <time>2020-08-08T10:35:54.630Z</time>
      </trkpt>
      <trkpt lat="38.369363" lon="-3.046013">
        <ele>773.095721</ele>
        <time>2020-08-08T10:35:56.621Z</time>
      </trkpt>
      <trkpt lat="38.369287" lon="-3.046122">
        <ele>773.591566</ele>
        <time>2020-08-08T10:35:58.629Z</time>
      </trkpt>
      <trkpt lat="38.369214" lon="-3.046239">
        <ele>774.023889</ele>
        <time>2020-08-08T10:36:00.634Z</time>
      </trkpt>
      <trkpt lat="38.369140" lon="-3.046364">
        <ele>773.732361</ele>
        <time>2020-08-08T10:36:02.623Z</time>
      </trkpt>
      <trkpt lat="38.369061" lon="-3.046474">
        <ele>773.454713</ele>
        <time>2020-08-08T10:36:04.621Z</time>
      </trkpt>
      <trkpt lat="38.368988" lon="-3.046593">
        <ele>773.173486</ele>
        <time>2020-08-08T10:36:06.630Z</time>
      </trkpt>
      <trkpt lat="38.368921" lon="-3.046701">
        <ele>772.917157</ele>
        <time>2020-08-08T10:36:08.620Z</time>
      </trkpt>
      <trkpt lat="38.368845" lon="-3.046820">
        <ele>772.631485</ele>
        <time>2020-08-08T10:36:10.620Z</time>
      </trkpt>
      <trkpt lat="38.368770" lon="-3.046948">
        <ele>772.334067</ele>
        <time>2020-08-08T10:36:12.630Z</time>
      </trkpt>
      <trkpt lat="38.368695" lon="-3.047060">
        <ele>772.059922</ele>
        <time>2020-08-08T10:36:14.627Z</time>
      </trkpt>
      <trkpt lat="38.368621" lon="-3.047189">
        <ele>771.762417</ele>
        <time>2020-08-08T10:36:16.616Z</time>
      </trkpt>
      <trkpt lat="38.368560" lon="-3.047306">
        <ele>771.500898</ele>
        <time>2020-08-08T10:36:18.630Z</time>
      </trkpt>
      <trkpt lat="38.368492" lon="-3.047446">
        <ele>771.194372</ele>
        <time>2020-08-08T10:36:20.633Z</time>
      </trkpt>
      <trkpt lat="38.368416" lon="-3.047596">
        <ele>770.861961</ele>
        <time>2020-08-08T10:36:22.629Z</time>
      </trkpt>
      <trkpt lat="38.368327" lon="-3.047737">
        <ele>770.525045</ele>
        <time>2020-08-08T10:36:24.633Z</time>
      </trkpt>
      <trkpt lat="38.368249" lon="-3.047899">
        <ele>770.171204</ele>
        <time>2020-08-08T10:36:26.637Z</time>
      </trkpt>
      <trkpt lat="38.368162" lon="-3.048084">
        <ele>769.771545</ele>
        <time>2020-08-08T10:36:28.633Z</time>
      </trkpt>
      <trkpt lat="38.368098" lon="-3.048255">
        <ele>769.477481</ele>
        <time>2020-08-08T10:36:30.627Z</time>
      </trkpt>
      <trkpt lat="38.368002" lon="-3.048429">
        <ele>769.147289</ele>
        <time>2020-08-08T10:36:32.631Z</time>
      </trkpt>
      <trkpt lat="38.367897" lon="-3.048589">
        <ele>768.823479</ele>
        <time>2020-08-08T10:36:34.642Z</time>
      </trkpt>
      <trkpt lat="38.367823" lon="-3.048708">
        <ele>768.587765</ele>
        <time>2020-08-08T10:36:35.616Z</time>
      </trkpt>
      <trkpt lat="38.367696" lon="-3.048834">
        <ele>768.269283</ele>
        <time>2020-08-08T10:36:37.628Z</time>
      </trkpt>
      <trkpt lat="38.367569" lon="-3.048949">
        <ele>767.960989</ele>
        <time>2020-08-08T10:36:39.632Z</time>
      </trkpt>
      <trkpt lat="38.367428" lon="-3.049051">
        <ele>767.640128</ele>
        <time>2020-08-08T10:36:41.623Z</time>
      </trkpt>
      <trkpt lat="38.367295" lon="-3.049189">
        <ele>767.300757</ele>
        <time>2020-08-08T10:36:43.643Z</time>
      </trkpt>
      <trkpt lat="38.367177" lon="-3.049274">
        <ele>767.032511</ele>
        <time>2020-08-08T10:36:45.633Z</time>
      </trkpt>
      <trkpt lat="38.367054" lon="-3.049374">
        <ele>766.743789</ele>
        <time>2020-08-08T10:36:47.622Z</time>
      </trkpt>
      <trkpt lat="38.366949" lon="-3.049454">
        <ele>766.501693</ele>
        <time>2020-08-08T10:36:49.627Z</time>
      </trkpt>
      <trkpt lat="38.366851" lon="-3.049570">
        <ele>766.237047</ele>
        <time>2020-08-08T10:36:51.648Z</time>
      </trkpt>
      <trkpt lat="38.366767" lon="-3.049670">
        <ele>766.313306</ele>
        <time>2020-08-08T10:36:53.640Z</time>
      </trkpt>
      <trkpt lat="38.366692" lon="-3.049796">
        <ele>766.421051</ele>
        <time>2020-08-08T10:36:56.620Z</time>
      </trkpt>
      <trkpt lat="38.366627" lon="-3.049913">
        <ele>766.518713</ele>
        <time>2020-08-08T10:36:59.618Z</time>
      </trkpt>
      <trkpt lat="38.366568" lon="-3.050014">
        <ele>766.604496</ele>
        <time>2020-08-08T10:37:02.625Z</time>
      </trkpt>
      <trkpt lat="38.366519" lon="-3.050123">
        <ele>766.690070</ele>
        <time>2020-08-08T10:37:05.611Z</time>
      </trkpt>
      <trkpt lat="38.366464" lon="-3.050254">
        <ele>766.791279</ele>
        <time>2020-08-08T10:37:08.620Z</time>
      </trkpt>
      <trkpt lat="38.366404" lon="-3.050388">
        <ele>766.896378</ele>
        <time>2020-08-08T10:37:11.626Z</time>
      </trkpt>
      <trkpt lat="38.366347" lon="-3.050533">
        <ele>767.006852</ele>
        <time>2020-08-08T10:37:14.629Z</time>
      </trkpt>
      <trkpt lat="38.366282" lon="-3.050668">
        <ele>767.114751</ele>
        <time>2020-08-08T10:37:17.649Z</time>
      </trkpt>
      <trkpt lat="38.366220" lon="-3.050820">
        <ele>767.231447</ele>
        <time>2020-08-08T10:37:20.621Z</time>
      </trkpt>
      <trkpt lat="38.366173" lon="-3.050935">
        <ele>767.319774</ele>
        <time>2020-08-08T10:37:22.643Z</time>
      </trkpt>
      <trkpt lat="38.366111" lon="-3.051048">
        <ele>767.413709</ele>
        <time>2020-08-08T10:37:24.619Z</time>
      </trkpt>
      <trkpt lat="38.366046" lon="-3.051183">
        <ele>767.521608</ele>
        <time>2020-08-08T10:37:26.630Z</time>
      </trkpt>
      <trkpt lat="38.365991" lon="-3.051312">
        <ele>767.621618</ele>
        <time>2020-08-08T10:37:28.634Z</time>
      </trkpt>
      <trkpt lat="38.365928" lon="-3.051466">
        <ele>767.739924</ele>
        <time>2020-08-08T10:37:30.620Z</time>
      </trkpt>
      <trkpt lat="38.365867" lon="-3.051622">
        <ele>767.762637</ele>
        <time>2020-08-08T10:37:32.636Z</time>
      </trkpt>
      <trkpt lat="38.365800" lon="-3.051757">
        <ele>767.733178</ele>
        <time>2020-08-08T10:37:34.618Z</time>
      </trkpt>
      <trkpt lat="38.365723" lon="-3.051896">
        <ele>767.701798</ele>
        <time>2020-08-08T10:37:36.624Z</time>
      </trkpt>
      <trkpt lat="38.365677" lon="-3.052033">
        <ele>767.674320</ele>
        <time>2020-08-08T10:37:38.636Z</time>
      </trkpt>
      <trkpt lat="38.365603" lon="-3.052186">
        <ele>767.641174</ele>
        <time>2020-08-08T10:37:40.618Z</time>
      </trkpt>
      <trkpt lat="38.365533" lon="-3.052329">
        <ele>767.610091</ele>
        <time>2020-08-08T10:37:42.630Z</time>
      </trkpt>
      <trkpt lat="38.365474" lon="-3.052486">
        <ele>767.577990</ele>
        <time>2020-08-08T10:37:44.623Z</time>
      </trkpt>
      <trkpt lat="38.365410" lon="-3.052627">
        <ele>767.547950</ele>
        <time>2020-08-08T10:37:45.943Z</time>
      </trkpt>
      <trkpt lat="38.365345" lon="-3.052768">
        <ele>767.517792</ele>
        <time>2020-08-08T10:37:47.910Z</time>
      </trkpt>
      <trkpt lat="38.365282" lon="-3.052908">
        <ele>767.488030</ele>
        <time>2020-08-08T10:37:49.919Z</time>
      </trkpt>
      <trkpt lat="38.365227" lon="-3.053051">
        <ele>767.458662</ele>
        <time>2020-08-08T10:37:51.923Z</time>
      </trkpt>
      <trkpt lat="38.365179" lon="-3.053183">
        <ele>767.431833</ele>
        <time>2020-08-08T10:37:53.909Z</time>
      </trkpt>
      <trkpt lat="38.365127" lon="-3.053318">
        <ele>767.404101</ele>
        <time>2020-08-08T10:37:55.904Z</time>
      </trkpt>
      <trkpt lat="38.365070" lon="-3.053449">
        <ele>767.376477</ele>
        <time>2020-08-08T10:37:57.924Z</time>
      </trkpt>
      <trkpt lat="38.365020" lon="-3.053578">
        <ele>767.306816</ele>
        <time>2020-08-08T10:37:59.914Z</time>
      </trkpt>
      <trkpt lat="38.364956" lon="-3.053727">
        <ele>767.142811</ele>
        <time>2020-08-08T10:38:01.925Z</time>
      </trkpt>
      <trkpt lat="38.364899" lon="-3.053873">
        <ele>766.985365</ele>
        <time>2020-08-08T10:38:03.907Z</time>
      </trkpt>
      <trkpt lat="38.364826" lon="-3.054014">
        <ele>766.822254</ele>
        <time>2020-08-08T10:38:05.915Z</time>
      </trkpt>
      <trkpt lat="38.364758" lon="-3.054172">
        <ele>766.648262</ele>
        <time>2020-08-08T10:38:07.917Z</time>
      </trkpt>
      <trkpt lat="38.364672" lon="-3.054317">
        <ele>766.472750</ele>
        <time>2020-08-08T10:38:09.914Z</time>
      </trkpt>
      <trkpt lat="38.364605" lon="-3.054468">
        <ele>766.305260</ele>
        <time>2020-08-08T10:38:11.920Z</time>
      </trkpt>
      <trkpt lat="38.364548" lon="-3.054620">
        <ele>766.142608</ele>
        <time>2020-08-08T10:38:13.934Z</time>
      </trkpt>
      <trkpt lat="38.364497" lon="-3.054790">
        <ele>765.966896</ele>
        <time>2020-08-08T10:38:15.913Z</time>
      </trkpt>
      <trkpt lat="38.364441" lon="-3.054948">
        <ele>765.799511</ele>
        <time>2020-08-08T10:38:17.927Z</time>
      </trkpt>
      <trkpt lat="38.364398" lon="-3.055122">
        <ele>765.623393</ele>
        <time>2020-08-08T10:38:19.925Z</time>
      </trkpt>
      <trkpt lat="38.364350" lon="-3.055295">
        <ele>765.446239</ele>
        <time>2020-08-08T10:38:21.935Z</time>
      </trkpt>
      <trkpt lat="38.364302" lon="-3.055463">
        <ele>765.273627</ele>
        <time>2020-08-08T10:38:23.915Z</time>
      </trkpt>
      <trkpt lat="38.364271" lon="-3.055616">
        <ele>765.144665</ele>
        <time>2020-08-08T10:38:25.933Z</time>
      </trkpt>
      <trkpt lat="38.364237" lon="-3.055773">
        <ele>765.138393</ele>
        <time>2020-08-08T10:38:27.933Z</time>
      </trkpt>
      <trkpt lat="38.364223" lon="-3.055918">
        <ele>765.132767</ele>
        <time>2020-08-08T10:38:29.915Z</time>
      </trkpt>
      <trkpt lat="38.364194" lon="-3.056075">
        <ele>765.126556</ele>
        <time>2020-08-08T10:38:31.933Z</time>
      </trkpt>
      <trkpt lat="38.364158" lon="-3.056218">
        <ele>765.120772</ele>
        <time>2020-08-08T10:38:33.933Z</time>
      </trkpt>
      <trkpt lat="38.364134" lon="-3.056361">
        <ele>765.115141</ele>
        <time>2020-08-08T10:38:35.918Z</time>
      </trkpt>
      <trkpt lat="38.364109" lon="-3.056509">
        <ele>765.109311</ele>
        <time>2020-08-08T10:38:37.934Z</time>
      </trkpt>
      <trkpt lat="38.364066" lon="-3.056657">
        <ele>765.103233</ele>
        <time>2020-08-08T10:38:39.920Z</time>
      </trkpt>
      <trkpt lat="38.364037" lon="-3.056799">
        <ele>765.097582</ele>
        <time>2020-08-08T10:38:41.925Z</time>
      </trkpt>
      <trkpt lat="38.364004" lon="-3.056952">
        <ele>765.091472</ele>
        <time>2020-08-08T10:38:43.910Z</time>
      </trkpt>
      <trkpt lat="38.363966" lon="-3.057092">
        <ele>765.085767</ele>
        <time>2020-08-08T10:38:45.911Z</time>
      </trkpt>
      <trkpt lat="38.363941" lon="-3.057230">
        <ele>765.080312</ele>
        <time>2020-08-08T10:38:47.920Z</time>
      </trkpt>
      <trkpt lat="38.363916" lon="-3.057375">
        <ele>765.074595</ele>
        <time>2020-08-08T10:38:49.911Z</time>
      </trkpt>
      <trkpt lat="38.363899" lon="-3.057512">
        <ele>765.069254</ele>
        <time>2020-08-08T10:38:51.926Z</time>
      </trkpt>
      <trkpt lat="38.363871" lon="-3.057650">
        <ele>765.063765</ele>
        <time>2020-08-08T10:38:53.932Z</time>
      </trkpt>
      <trkpt lat="38.363841" lon="-3.057783">
        <ele>765.058436</ele>
        <time>2020-08-08T10:38:55.915Z</time>
      </trkpt>
      <trkpt lat="38.363826" lon="-3.057929">
        <ele>764.933972</ele>
        <time>2020-08-08T10:38:57.919Z</time>
      </trkpt>
      <trkpt lat="38.363791" lon="-3.058063">
        <ele>764.786344</ele>
        <time>2020-08-08T10:38:59.923Z</time>
      </trkpt>
      <trkpt lat="38.363760" lon="-3.058209">
        <ele>764.628244</ele>
        <time>2020-08-08T10:39:01.908Z</time>
      </trkpt>
      <trkpt lat="38.363711" lon="-3.058359">
        <ele>764.458396</ele>
        <time>2020-08-08T10:39:03.928Z</time>
      </trkpt>
      <trkpt lat="38.363690" lon="-3.058511">
        <ele>764.297073</ele>
        <time>2020-08-08T10:39:05.912Z</time>
      </trkpt>
      <trkpt lat="38.363672" lon="-3.058648">
        <ele>764.151879</ele>
        <time>2020-08-08T10:39:07.920Z</time>
      </trkpt>
      <trkpt lat="38.363628" lon="-3.058801">
        <ele>763.981541</ele>
        <time>2020-08-08T10:39:09.909Z</time>
      </trkpt>
      <trkpt lat="38.363600" lon="-3.058966">
        <ele>763.805084</ele>
        <time>2020-08-08T10:39:11.906Z</time>
      </trkpt>
      <trkpt lat="38.363581" lon="-3.059126">
        <ele>763.635939</ele>
        <time>2020-08-08T10:39:13.911Z</time>
      </trkpt>
      <trkpt lat="38.363539" lon="-3.059285">
        <ele>763.460569</ele>
        <time>2020-08-08T10:39:15.943Z</time>
      </trkpt>
      <trkpt lat="38.363512" lon="-3.059444">
        <ele>763.290524</ele>
        <time>2020-08-08T10:39:17.934Z</time>
      </trkpt>
      <trkpt lat="38.363486" lon="-3.059605">
        <ele>763.118708</ele>
        <time>2020-08-08T10:39:19.926Z</time>
      </trkpt>
      <trkpt lat="38.363446" lon="-3.059785">
        <ele>762.923155</ele>
        <time>2020-08-08T10:39:21.914Z</time>
      </trkpt>
      <trkpt lat="38.363407" lon="-3.059974">
        <ele>762.718879</ele>
        <time>2020-08-08T10:39:23.916Z</time>
      </trkpt>
      <trkpt lat="38.363375" lon="-3.060151">
        <ele>762.588301</ele>
        <time>2020-08-08T10:39:25.922Z</time>
      </trkpt>
      <trkpt lat="38.363343" lon="-3.060328">
        <ele>762.484629</ele>
        <time>2020-08-08T10:39:27.929Z</time>
      </trkpt>
      <trkpt lat="38.363304" lon="-3.060492">
        <ele>762.386817</ele>
        <time>2020-08-08T10:39:29.910Z</time>
      </trkpt>
      <trkpt lat="38.363287" lon="-3.060653">
        <ele>762.294097</ele>
        <time>2020-08-08T10:39:31.916Z</time>
      </trkpt>
      <trkpt lat="38.363258" lon="-3.060803">
        <ele>762.205921</ele>
        <time>2020-08-08T10:39:33.916Z</time>
      </trkpt>
      <trkpt lat="38.363222" lon="-3.060942">
        <ele>762.122372</ele>
        <time>2020-08-08T10:39:35.925Z</time>
      </trkpt>
      <trkpt lat="38.363194" lon="-3.061078">
        <ele>762.042119</ele>
        <time>2020-08-08T10:39:37.909Z</time>
      </trkpt>
      <trkpt lat="38.363173" lon="-3.061212">
        <ele>761.964127</ele>
        <time>2020-08-08T10:39:39.924Z</time>
      </trkpt>
      <trkpt lat="38.363137" lon="-3.061339">
        <ele>761.887051</ele>
        <time>2020-08-08T10:39:41.923Z</time>
      </trkpt>
      <trkpt lat="38.363101" lon="-3.061481">
        <ele>761.801874</ele>
        <time>2020-08-08T10:39:43.915Z</time>
      </trkpt>
      <trkpt lat="38.363068" lon="-3.061608">
        <ele>761.725512</ele>
        <time>2020-08-08T10:39:45.916Z</time>
      </trkpt>
      <trkpt lat="38.363050" lon="-3.061741">
        <ele>761.648480</ele>
        <time>2020-08-08T10:39:47.914Z</time>
      </trkpt>
      <trkpt lat="38.363021" lon="-3.061864">
        <ele>761.575174</ele>
        <time>2020-08-08T10:39:49.916Z</time>
      </trkpt>
      <trkpt lat="38.362998" lon="-3.062010">
        <ele>761.490179</ele>
        <time>2020-08-08T10:39:51.916Z</time>
      </trkpt>
      <trkpt lat="38.362973" lon="-3.062160">
        <ele>761.402654</ele>
        <time>2020-08-08T10:39:53.934Z</time>
      </trkpt>
      <trkpt lat="38.362938" lon="-3.062300">
        <ele>761.316860</ele>
        <time>2020-08-08T10:39:55.932Z</time>
      </trkpt>
      <trkpt lat="38.362905" lon="-3.062446">
        <ele>761.224848</ele>
        <time>2020-08-08T10:39:57.922Z</time>
      </trkpt>
      <trkpt lat="38.362866" lon="-3.062599">
        <ele>761.127423</ele>
        <time>2020-08-08T10:39:59.917Z</time>
      </trkpt>
      <trkpt lat="38.362835" lon="-3.062757">
        <ele>761.028794</ele>
        <time>2020-08-08T10:40:01.922Z</time>
      </trkpt>
      <trkpt lat="38.362805" lon="-3.062897">
        <ele>760.940906</ele>
        <time>2020-08-08T10:40:03.913Z</time>
      </trkpt>
      <trkpt lat="38.362784" lon="-3.063020">
        <ele>760.864676</ele>
        <time>2020-08-08T10:40:05.917Z</time>
      </trkpt>
      <trkpt lat="38.362771" lon="-3.063144">
        <ele>760.788917</ele>
        <time>2020-08-08T10:40:07.925Z</time>
      </trkpt>
      <trkpt lat="38.362752" lon="-3.063258">
        <ele>760.718340</ele>
        <time>2020-08-08T10:40:09.921Z</time>
      </trkpt>
      <trkpt lat="38.362715" lon="-3.063401">
        <ele>760.627152</ele>
        <time>2020-08-08T10:40:11.919Z</time>
      </trkpt>
      <trkpt lat="38.362690" lon="-3.063531">
        <ele>760.546095</ele>
        <time>2020-08-08T10:40:13.918Z</time>
      </trkpt>
      <trkpt lat="38.362664" lon="-3.063654">
        <ele>760.468951</ele>
        <time>2020-08-08T10:40:15.924Z</time>
      </trkpt>
      <trkpt lat="38.362635" lon="-3.063773">
        <ele>760.393488</ele>
        <time>2020-08-08T10:40:17.928Z</time>
      </trkpt>
      <trkpt lat="38.362612" lon="-3.063888">
        <ele>760.321618</ele>
        <time>2020-08-08T10:40:19.929Z</time>
      </trkpt>
      <trkpt lat="38.362592" lon="-3.064002">
        <ele>760.250876</ele>
        <time>2020-08-08T10:40:21.929Z</time>
      </trkpt>
      <trkpt lat="38.362568" lon="-3.064159">
        <ele>760.154012</ele>
        <time>2020-08-08T10:40:24.911Z</time>
      </trkpt>
      <trkpt lat="38.362564" lon="-3.064310">
        <ele>760.062519</ele>
        <time>2020-08-08T10:40:27.907Z</time>
      </trkpt>
      <trkpt lat="38.362571" lon="-3.064440">
        <ele>759.983610</ele>
        <time>2020-08-08T10:40:30.917Z</time>
      </trkpt>
      <trkpt lat="38.362519" lon="-3.064600">
        <ele>759.704996</ele>
        <time>2020-08-08T10:40:33.915Z</time>
      </trkpt>
      <trkpt lat="38.362499" lon="-3.064718">
        <ele>759.477993</ele>
        <time>2020-08-08T10:40:36.910Z</time>
      </trkpt>
      <trkpt lat="38.362491" lon="-3.064837">
        <ele>759.253414</ele>
        <time>2020-08-08T10:40:39.913Z</time>
      </trkpt>
      <trkpt lat="38.362516" lon="-3.064949">
        <ele>759.034451</ele>
        <time>2020-08-08T10:40:53.912Z</time>
      </trkpt>
      <trkpt lat="38.362521" lon="-3.065109">
        <ele>758.733361</ele>
        <time>2020-08-08T10:49:36.912Z</time>
      </trkpt>
      <trkpt lat="38.362534" lon="-3.065256">
        <ele>758.455202</ele>
        <time>2020-08-08T10:49:39.920Z</time>
      </trkpt>
      <trkpt lat="38.362541" lon="-3.065413">
        <ele>758.159515</ele>
        <time>2020-08-08T10:49:42.937Z</time>
      </trkpt>
      <trkpt lat="38.362534" lon="-3.065572">
        <ele>757.860073</ele>
        <time>2020-08-08T10:49:45.922Z</time>
      </trkpt>
      <trkpt lat="38.362534" lon="-3.065702">
        <ele>757.615631</ele>
        <time>2020-08-08T10:49:47.922Z</time>
      </trkpt>
      <trkpt lat="38.362530" lon="-3.065820">
        <ele>757.393546</ele>
        <time>2020-08-08T10:49:49.916Z</time>
      </trkpt>
      <trkpt lat="38.362543" lon="-3.065940">
        <ele>757.165765</ele>
        <time>2020-08-08T10:49:51.945Z</time>
      </trkpt>
      <trkpt lat="38.362538" lon="-3.066078">
        <ele>756.906004</ele>
        <time>2020-08-08T10:49:53.925Z</time>
      </trkpt>
      <trkpt lat="38.362532" lon="-3.066227">
        <ele>756.625467</ele>
        <time>2020-08-08T10:49:55.923Z</time>
      </trkpt>
      <trkpt lat="38.362535" lon="-3.066373">
        <ele>756.350846</ele>
        <time>2020-08-08T10:49:57.939Z</time>
      </trkpt>
      <trkpt lat="38.362529" lon="-3.066524">
        <ele>756.066553</ele>
        <time>2020-08-08T10:49:59.920Z</time>
      </trkpt>
      <trkpt lat="38.362525" lon="-3.066664">
        <ele>755.803134</ele>
        <time>2020-08-08T10:50:01.929Z</time>
      </trkpt>
      <trkpt lat="38.362525" lon="-3.066821">
        <ele>755.608475</ele>
        <time>2020-08-08T10:50:03.939Z</time>
      </trkpt>
      <trkpt lat="38.362515" lon="-3.066969">
        <ele>755.529664</ele>
        <time>2020-08-08T10:50:05.926Z</time>
      </trkpt>
      <trkpt lat="38.362516" lon="-3.067108">
        <ele>755.455916</ele>
        <time>2020-08-08T10:50:07.941Z</time>
      </trkpt>
      <trkpt lat="38.362495" lon="-3.067241">
        <ele>755.383937</ele>
        <time>2020-08-08T10:50:09.906Z</time>
      </trkpt>
      <trkpt lat="38.362484" lon="-3.067391">
        <ele>755.304009</ele>
        <time>2020-08-08T10:50:11.937Z</time>
      </trkpt>
      <trkpt lat="38.362460" lon="-3.067539">
        <ele>755.223827</ele>
        <time>2020-08-08T10:50:13.939Z</time>
      </trkpt>
      <trkpt lat="38.362444" lon="-3.067669">
        <ele>755.154013</ele>
        <time>2020-08-08T10:50:15.917Z</time>
      </trkpt>
      <trkpt lat="38.362430" lon="-3.067805">
        <ele>755.081240</ele>
        <time>2020-08-08T10:50:17.928Z</time>
      </trkpt>
      <trkpt lat="38.362419" lon="-3.067955">
        <ele>755.001311</ele>
        <time>2020-08-08T10:50:19.911Z</time>
      </trkpt>
      <trkpt lat="38.362413" lon="-3.068125">
        <ele>754.911028</ele>
        <time>2020-08-08T10:50:22.922Z</time>
      </trkpt>
      <trkpt lat="38.362414" lon="-3.068246">
        <ele>754.846829</ele>
        <time>2020-08-08T10:50:24.915Z</time>
      </trkpt>
      <trkpt lat="38.362414" lon="-3.068429">
        <ele>754.749740</ele>
        <time>2020-08-08T10:50:27.902Z</time>
      </trkpt>
      <trkpt lat="38.362391" lon="-3.068567">
        <ele>754.674890</ele>
        <time>2020-08-08T10:50:29.907Z</time>
      </trkpt>
      <trkpt lat="38.362382" lon="-3.068701">
        <ele>754.603537</ele>
        <time>2020-08-08T10:50:31.912Z</time>
      </trkpt>
      <trkpt lat="38.362362" lon="-3.068847">
        <ele>754.524905</ele>
        <time>2020-08-08T10:50:33.917Z</time>
      </trkpt>
      <trkpt lat="38.362340" lon="-3.069001">
        <ele>754.441856</ele>
        <time>2020-08-08T10:50:35.906Z</time>
      </trkpt>
      <trkpt lat="38.362326" lon="-3.069166">
        <ele>754.422174</ele>
        <time>2020-08-08T10:50:37.911Z</time>
      </trkpt>
      <trkpt lat="38.362304" lon="-3.069293">
        <ele>754.414290</ele>
        <time>2020-08-08T10:50:39.922Z</time>
      </trkpt>
      <trkpt lat="38.362288" lon="-3.069426">
        <ele>754.406133</ele>
        <time>2020-08-08T10:50:41.907Z</time>
      </trkpt>
      <trkpt lat="38.362276" lon="-3.069553">
        <ele>754.398379</ele>
        <time>2020-08-08T10:50:43.916Z</time>
      </trkpt>
      <trkpt lat="38.362257" lon="-3.069674">
        <ele>754.390899</ele>
        <time>2020-08-08T10:50:45.918Z</time>
      </trkpt>
      <trkpt lat="38.362239" lon="-3.069792">
        <ele>754.383611</ele>
        <time>2020-08-08T10:50:47.916Z</time>
      </trkpt>
      <trkpt lat="38.362220" lon="-3.069917">
        <ele>754.375893</ele>
        <time>2020-08-08T10:50:49.913Z</time>
      </trkpt>
      <trkpt lat="38.362192" lon="-3.070030">
        <ele>754.368709</ele>
        <time>2020-08-08T10:50:51.918Z</time>
      </trkpt>
      <trkpt lat="38.362165" lon="-3.070145">
        <ele>754.361433</ele>
        <time>2020-08-08T10:50:53.936Z</time>
      </trkpt>
      <trkpt lat="38.362148" lon="-3.070282">
        <ele>754.353024</ele>
        <time>2020-08-08T10:50:55.920Z</time>
      </trkpt>
      <trkpt lat="38.362133" lon="-3.070400">
        <ele>754.345778</ele>
        <time>2020-08-08T10:50:57.920Z</time>
      </trkpt>
      <trkpt lat="38.362129" lon="-3.070524">
        <ele>754.338255</ele>
        <time>2020-08-08T10:50:59.947Z</time>
      </trkpt>
      <trkpt lat="38.362099" lon="-3.070690">
        <ele>754.327929</ele>
        <time>2020-08-08T10:51:02.933Z</time>
      </trkpt>
      <trkpt lat="38.362058" lon="-3.070859">
        <ele>754.317205</ele>
        <time>2020-08-08T10:51:05.931Z</time>
      </trkpt>
      <trkpt lat="38.361998" lon="-3.071009">
        <ele>754.306998</ele>
        <time>2020-08-08T10:51:08.912Z</time>
      </trkpt>
      <trkpt lat="38.361954" lon="-3.071121">
        <ele>754.299404</ele>
        <time>2020-08-08T10:51:10.911Z</time>
      </trkpt>
      <trkpt lat="38.361908" lon="-3.071222">
        <ele>754.292323</ele>
        <time>2020-08-08T10:51:12.906Z</time>
      </trkpt>
      <trkpt lat="38.361843" lon="-3.071333">
        <ele>754.302422</ele>
        <time>2020-08-08T10:51:14.927Z</time>
      </trkpt>
      <trkpt lat="38.361779" lon="-3.071513">
        <ele>754.318084</ele>
        <time>2020-08-08T10:51:16.935Z</time>
      </trkpt>
      <trkpt lat="38.361734" lon="-3.071673">
        <ele>754.331555</ele>
        <time>2020-08-08T10:51:18.925Z</time>
      </trkpt>
      <trkpt lat="38.361659" lon="-3.071783">
        <ele>754.343106</ele>
        <time>2020-08-08T10:51:20.915Z</time>
      </trkpt>
      <trkpt lat="38.361578" lon="-3.071894">
        <ele>754.355123</ele>
        <time>2020-08-08T10:51:22.926Z</time>
      </trkpt>
      <trkpt lat="38.361517" lon="-3.072018">
        <ele>754.366723</ele>
        <time>2020-08-08T10:51:24.912Z</time>
      </trkpt>
      <trkpt lat="38.361440" lon="-3.072164">
        <ele>754.380667</ele>
        <time>2020-08-08T10:51:26.910Z</time>
      </trkpt>
      <trkpt lat="38.361384" lon="-3.072312">
        <ele>754.393690</ele>
        <time>2020-08-08T10:51:28.914Z</time>
      </trkpt>
      <trkpt lat="38.361346" lon="-3.072454">
        <ele>754.405580</ele>
        <time>2020-08-08T10:51:30.907Z</time>
      </trkpt>
      <trkpt lat="38.361338" lon="-3.072602">
        <ele>754.417337</ele>
        <time>2020-08-08T10:51:32.904Z</time>
      </trkpt>
      <trkpt lat="38.361320" lon="-3.072716">
        <ele>754.426552</ele>
        <time>2020-08-08T10:51:34.909Z</time>
      </trkpt>
      <trkpt lat="38.361319" lon="-3.072879">
        <ele>754.439470</ele>
        <time>2020-08-08T10:51:37.913Z</time>
      </trkpt>
      <trkpt lat="38.361305" lon="-3.073025">
        <ele>754.451126</ele>
        <time>2020-08-08T10:51:40.920Z</time>
      </trkpt>
      <trkpt lat="38.361299" lon="-3.073144">
        <ele>754.460576</ele>
        <time>2020-08-08T10:51:42.921Z</time>
      </trkpt>
      <trkpt lat="38.361291" lon="-3.073269">
        <ele>754.470515</ele>
        <time>2020-08-08T10:51:44.913Z</time>
      </trkpt>
      <trkpt lat="38.361285" lon="-3.073401">
        <ele>754.462488</ele>
        <time>2020-08-08T10:51:46.913Z</time>
      </trkpt>
      <trkpt lat="38.361281" lon="-3.073544">
        <ele>754.444961</ele>
        <time>2020-08-08T10:51:48.913Z</time>
      </trkpt>
      <trkpt lat="38.361282" lon="-3.073689">
        <ele>754.427199</ele>
        <time>2020-08-08T10:51:50.946Z</time>
      </trkpt>
      <trkpt lat="38.361281" lon="-3.073851">
        <ele>754.407355</ele>
        <time>2020-08-08T10:51:52.911Z</time>
      </trkpt>
      <trkpt lat="38.361285" lon="-3.073973">
        <ele>754.392398</ele>
        <time>2020-08-08T10:51:54.940Z</time>
      </trkpt>
      <trkpt lat="38.361276" lon="-3.074139">
        <ele>754.372015</ele>
        <time>2020-08-08T10:51:56.920Z</time>
      </trkpt>
      <trkpt lat="38.361258" lon="-3.074288">
        <ele>754.353549</ele>
        <time>2020-08-08T10:51:58.935Z</time>
      </trkpt>
      <trkpt lat="38.361264" lon="-3.074449">
        <ele>754.333805</ele>
        <time>2020-08-08T10:52:00.930Z</time>
      </trkpt>
      <trkpt lat="38.361266" lon="-3.074587">
        <ele>754.316899</ele>
        <time>2020-08-08T10:52:02.944Z</time>
      </trkpt>
      <trkpt lat="38.361235" lon="-3.074726">
        <ele>754.299197</ele>
        <time>2020-08-08T10:52:04.940Z</time>
      </trkpt>
      <trkpt lat="38.361220" lon="-3.074893">
        <ele>754.278607</ele>
        <time>2020-08-08T10:52:06.930Z</time>
      </trkpt>
      <trkpt lat="38.361226" lon="-3.075063">
        <ele>754.257762</ele>
        <time>2020-08-08T10:52:08.934Z</time>
      </trkpt>
      <trkpt lat="38.361231" lon="-3.075237">
        <ele>754.236434</ele>
        <time>2020-08-08T10:52:10.936Z</time>
      </trkpt>
      <trkpt lat="38.361242" lon="-3.075374">
        <ele>754.219565</ele>
        <time>2020-08-08T10:52:12.940Z</time>
      </trkpt>
      <trkpt lat="38.361195" lon="-3.075535">
        <ele>754.198522</ele>
        <time>2020-08-08T10:52:14.925Z</time>
      </trkpt>
      <trkpt lat="38.361094" lon="-3.075646">
        <ele>753.723145</ele>
        <time>2020-08-08T10:52:16.934Z</time>
      </trkpt>
      <trkpt lat="38.361003" lon="-3.075748">
        <ele>753.132683</ele>
        <time>2020-08-08T10:52:18.922Z</time>
      </trkpt>
      <trkpt lat="38.360928" lon="-3.075879">
        <ele>752.512813</ele>
        <time>2020-08-08T10:52:20.921Z</time>
      </trkpt>
      <trkpt lat="38.360835" lon="-3.075969">
        <ele>751.943833</ele>
        <time>2020-08-08T10:52:22.923Z</time>
      </trkpt>
      <trkpt lat="38.360752" lon="-3.076050">
        <ele>751.434465</ele>
        <time>2020-08-08T10:52:24.916Z</time>
      </trkpt>
      <trkpt lat="38.360662" lon="-3.076124">
        <ele>750.912568</ele>
        <time>2020-08-08T10:52:26.923Z</time>
      </trkpt>
      <trkpt lat="38.360578" lon="-3.076214">
        <ele>750.377872</ele>
        <time>2020-08-08T10:52:28.904Z</time>
      </trkpt>
      <trkpt lat="38.360497" lon="-3.076283">
        <ele>749.903132</ele>
        <time>2020-08-08T10:52:30.933Z</time>
      </trkpt>
      <trkpt lat="38.360427" lon="-3.076357">
        <ele>749.460000</ele>
        <time>2020-08-08T10:52:32.918Z</time>
      </trkpt>
      <trkpt lat="38.360326" lon="-3.076452">
        <ele>748.848351</ele>
        <time>2020-08-08T10:52:35.923Z</time>
      </trkpt>
      <trkpt lat="38.360240" lon="-3.076516">
        <ele>748.363067</ele>
        <time>2020-08-08T10:52:37.923Z</time>
      </trkpt>
      <trkpt lat="38.360171" lon="-3.076599">
        <ele>747.900789</ele>
        <time>2020-08-08T10:52:39.912Z</time>
      </trkpt>
      <trkpt lat="38.360085" lon="-3.076684">
        <ele>747.370507</ele>
        <time>2020-08-08T10:52:41.915Z</time>
      </trkpt>
      <trkpt lat="38.359995" lon="-3.076770">
        <ele>746.822402</ele>
        <time>2020-08-08T10:52:43.913Z</time>
      </trkpt>
      <trkpt lat="38.359925" lon="-3.076849">
        <ele>746.366837</ele>
        <time>2020-08-08T10:52:45.917Z</time>
      </trkpt>
      <trkpt lat="38.359810" lon="-3.076936">
        <ele>745.715161</ele>
        <time>2020-08-08T10:52:48.922Z</time>
      </trkpt>
      <trkpt lat="38.359745" lon="-3.077044">
        <ele>745.290991</ele>
        <time>2020-08-08T10:52:50.913Z</time>
      </trkpt>
      <trkpt lat="38.359676" lon="-3.077118">
        <ele>745.033834</ele>
        <time>2020-08-08T10:52:52.905Z</time>
      </trkpt>
      <trkpt lat="38.359591" lon="-3.077200">
        <ele>744.729826</ele>
        <time>2020-08-08T10:52:54.912Z</time>
      </trkpt>
      <trkpt lat="38.359517" lon="-3.077278">
        <ele>744.455986</ele>
        <time>2020-08-08T10:52:56.940Z</time>
      </trkpt>
      <trkpt lat="38.359446" lon="-3.077396">
        <ele>744.123315</ele>
        <time>2020-08-08T10:52:58.943Z</time>
      </trkpt>
      <trkpt lat="38.359368" lon="-3.077477">
        <ele>743.836397</ele>
        <time>2020-08-08T10:53:00.937Z</time>
      </trkpt>
      <trkpt lat="38.359286" lon="-3.077567">
        <ele>743.527807</ele>
        <time>2020-08-08T10:53:02.929Z</time>
      </trkpt>
      <trkpt lat="38.359201" lon="-3.077653">
        <ele>743.218319</ele>
        <time>2020-08-08T10:53:04.926Z</time>
      </trkpt>
      <trkpt lat="38.359127" lon="-3.077738">
        <ele>742.934247</ele>
        <time>2020-08-08T10:53:06.932Z</time>
      </trkpt>
      <trkpt lat="38.359046" lon="-3.077814">
        <ele>742.647409</ele>
        <time>2020-08-08T10:53:08.924Z</time>
      </trkpt>
      <trkpt lat="38.358965" lon="-3.077887">
        <ele>742.364496</ele>
        <time>2020-08-08T10:53:10.943Z</time>
      </trkpt>
      <trkpt lat="38.358882" lon="-3.077961">
        <ele>742.075629</ele>
        <time>2020-08-08T10:53:12.930Z</time>
      </trkpt>
      <trkpt lat="38.358810" lon="-3.078044">
        <ele>741.798789</ele>
        <time>2020-08-08T10:53:14.943Z</time>
      </trkpt>
      <trkpt lat="38.358740" lon="-3.078161">
        <ele>741.469625</ele>
        <time>2020-08-08T10:53:16.926Z</time>
      </trkpt>
      <trkpt lat="38.358669" lon="-3.078245">
        <ele>741.193378</ele>
        <time>2020-08-08T10:53:18.929Z</time>
      </trkpt>
      <trkpt lat="38.358605" lon="-3.078326">
        <ele>740.936185</ele>
        <time>2020-08-08T10:53:20.931Z</time>
      </trkpt>
      <trkpt lat="38.358505" lon="-3.078458">
        <ele>740.525663</ele>
        <time>2020-08-08T10:53:23.934Z</time>
      </trkpt>
      <trkpt lat="38.358434" lon="-3.078599">
        <ele>740.412284</ele>
        <time>2020-08-08T10:53:26.922Z</time>
      </trkpt>
      <trkpt lat="38.358390" lon="-3.078738">
        <ele>740.679988</ele>
        <time>2020-08-08T10:53:29.947Z</time>
      </trkpt>
      <trkpt lat="38.358349" lon="-3.078867">
        <ele>740.928573</ele>
        <time>2020-08-08T10:53:32.908Z</time>
      </trkpt>
      <trkpt lat="38.358330" lon="-3.079000">
        <ele>741.170007</ele>
        <time>2020-08-08T10:53:35.936Z</time>
      </trkpt>
      <trkpt lat="38.358303" lon="-3.079151">
        <ele>741.446600</ele>
        <time>2020-08-08T10:53:39.934Z</time>
      </trkpt>
      <trkpt lat="38.358278" lon="-3.079269">
        <ele>741.664892</ele>
        <time>2020-08-08T10:53:42.936Z</time>
      </trkpt>
      <trkpt lat="38.358256" lon="-3.079414">
        <ele>741.928650</ele>
        <time>2020-08-08T10:53:46.927Z</time>
      </trkpt>
      <trkpt lat="38.358233" lon="-3.079540">
        <ele>742.159690</ele>
        <time>2020-08-08T10:53:50.924Z</time>
      </trkpt>
      <trkpt lat="38.358216" lon="-3.079656">
        <ele>742.370442</ele>
        <time>2020-08-08T10:53:54.938Z</time>
      </trkpt>
      <trkpt lat="38.358190" lon="-3.079781">
        <ele>742.601400</ele>
        <time>2020-08-08T10:53:58.909Z</time>
      </trkpt>
      <trkpt lat="38.358174" lon="-3.079924">
        <ele>742.859370</ele>
        <time>2020-08-08T10:54:02.932Z</time>
      </trkpt>
      <trkpt lat="38.358150" lon="-3.080054">
        <ele>743.097885</ele>
        <time>2020-08-08T10:54:06.930Z</time>
      </trkpt>
      <trkpt lat="38.358124" lon="-3.080184">
        <ele>743.337485</ele>
        <time>2020-08-08T10:54:10.934Z</time>
      </trkpt>
      <trkpt lat="38.358091" lon="-3.080317">
        <ele>743.586617</ele>
        <time>2020-08-08T10:54:15.936Z</time>
      </trkpt>
      <trkpt lat="38.358066" lon="-3.080429">
        <ele>743.794585</ele>
        <time>2020-08-08T10:54:19.934Z</time>
      </trkpt>
      <trkpt lat="38.358030" lon="-3.080541">
        <ele>744.010758</ele>
        <time>2020-08-08T10:54:23.926Z</time>
      </trkpt>
      <trkpt lat="38.358002" lon="-3.080660">
        <ele>744.232642</ele>
        <time>2020-08-08T10:54:27.942Z</time>
      </trkpt>
      <trkpt lat="38.357979" lon="-3.080782">
        <ele>744.459688</ele>
        <time>2020-08-08T10:54:31.931Z</time>
      </trkpt>
      <trkpt lat="38.357960" lon="-3.080909">
        <ele>744.701243</ele>
        <time>2020-08-08T10:54:35.903Z</time>
      </trkpt>
      <trkpt lat="38.357934" lon="-3.081046">
        <ele>744.964592</ele>
        <time>2020-08-08T10:54:40.909Z</time>
      </trkpt>
      <trkpt lat="38.357911" lon="-3.081181">
        <ele>745.222699</ele>
        <time>2020-08-08T10:54:45.942Z</time>
      </trkpt>
      <trkpt lat="38.357891" lon="-3.081308">
        <ele>745.464712</ele>
        <time>2020-08-08T10:54:50.905Z</time>
      </trkpt>
      <trkpt lat="38.357870" lon="-3.081440">
        <ele>745.716354</ele>
        <time>2020-08-08T10:54:55.943Z</time>
      </trkpt>
      <trkpt lat="38.357838" lon="-3.081570">
        <ele>745.970920</ele>
        <time>2020-08-08T10:55:00.919Z</time>
      </trkpt>
      <trkpt lat="38.357822" lon="-3.081712">
        <ele>746.238946</ele>
        <time>2020-08-08T10:55:05.913Z</time>
      </trkpt>
      <trkpt lat="38.357802" lon="-3.081834">
        <ele>746.471808</ele>
        <time>2020-08-08T10:55:09.938Z</time>
      </trkpt>
      <trkpt lat="38.357772" lon="-3.081945">
        <ele>746.691164</ele>
        <time>2020-08-08T10:55:13.911Z</time>
      </trkpt>
      <trkpt lat="38.357743" lon="-3.082061">
        <ele>746.918637</ele>
        <time>2020-08-08T10:55:17.909Z</time>
      </trkpt>
      <trkpt lat="38.357706" lon="-3.082170">
        <ele>747.140545</ele>
        <time>2020-08-08T10:55:21.919Z</time>
      </trkpt>
      <trkpt lat="38.357675" lon="-3.082287">
        <ele>747.371280</ele>
        <time>2020-08-08T10:55:25.937Z</time>
      </trkpt>
      <trkpt lat="38.357643" lon="-3.082405">
        <ele>747.604553</ele>
        <time>2020-08-08T10:55:29.929Z</time>
      </trkpt>
      <trkpt lat="38.357608" lon="-3.082518">
        <ele>747.831546</ele>
        <time>2020-08-08T10:55:33.941Z</time>
      </trkpt>
      <trkpt lat="38.357564" lon="-3.082628">
        <ele>748.062255</ele>
        <time>2020-08-08T10:55:37.913Z</time>
      </trkpt>
      <trkpt lat="38.357521" lon="-3.082752">
        <ele>748.315570</ele>
        <time>2020-08-08T10:55:41.923Z</time>
      </trkpt>
      <trkpt lat="38.357482" lon="-3.082882">
        <ele>748.575620</ele>
        <time>2020-08-08T10:55:45.932Z</time>
      </trkpt>
      <trkpt lat="38.357450" lon="-3.083010">
        <ele>748.679334</ele>
        <time>2020-08-08T10:55:49.912Z</time>
      </trkpt>
      <trkpt lat="38.357413" lon="-3.083140">
        <ele>748.681490</ele>
        <time>2020-08-08T10:55:53.928Z</time>
      </trkpt>
      <trkpt lat="38.357368" lon="-3.083277">
        <ele>748.683806</ele>
        <time>2020-08-08T10:55:57.910Z</time>
      </trkpt>
      <trkpt lat="38.357329" lon="-3.083414">
        <ele>748.686079</ele>
        <time>2020-08-08T10:56:01.922Z</time>
      </trkpt>
      <trkpt lat="38.357294" lon="-3.083539">
        <ele>748.688149</ele>
        <time>2020-08-08T10:56:05.927Z</time>
      </trkpt>
      <trkpt lat="38.357256" lon="-3.083657">
        <ele>748.690138</ele>
        <time>2020-08-08T10:56:09.914Z</time>
      </trkpt>
      <trkpt lat="38.357217" lon="-3.083781">
        <ele>748.692221</ele>
        <time>2020-08-08T10:56:13.917Z</time>
      </trkpt>
      <trkpt lat="38.357180" lon="-3.083901">
        <ele>748.694232</ele>
        <time>2020-08-08T10:56:17.949Z</time>
      </trkpt>
      <trkpt lat="38.357137" lon="-3.084031">
        <ele>748.696432</ele>
        <time>2020-08-08T10:56:22.945Z</time>
      </trkpt>
      <trkpt lat="38.357099" lon="-3.084166">
        <ele>748.698669</ele>
        <time>2020-08-08T10:56:27.922Z</time>
      </trkpt>
      <trkpt lat="38.357054" lon="-3.084285">
        <ele>748.700729</ele>
        <time>2020-08-08T10:56:31.937Z</time>
      </trkpt>
      <trkpt lat="38.357020" lon="-3.084404">
        <ele>748.702704</ele>
        <time>2020-08-08T10:56:35.943Z</time>
      </trkpt>
      <trkpt lat="38.356979" lon="-3.084522">
        <ele>748.704717</ele>
        <time>2020-08-08T10:56:39.921Z</time>
      </trkpt>
      <trkpt lat="38.356932" lon="-3.084640">
        <ele>748.706781</ele>
        <time>2020-08-08T10:56:43.922Z</time>
      </trkpt>
      <trkpt lat="38.356882" lon="-3.084757">
        <ele>748.708858</ele>
        <time>2020-08-08T10:56:47.912Z</time>
      </trkpt>
      <trkpt lat="38.356823" lon="-3.084890">
        <ele>748.711241</ele>
        <time>2020-08-08T10:56:52.006Z</time>
      </trkpt>
      <trkpt lat="38.356767" lon="-3.084997">
        <ele>748.713247</ele>
        <time>2020-08-08T10:56:54.918Z</time>
      </trkpt>
      <trkpt lat="38.356701" lon="-3.085121">
        <ele>748.694339</ele>
        <time>2020-08-08T10:56:57.926Z</time>
      </trkpt>
      <trkpt lat="38.356633" lon="-3.085252">
        <ele>748.666573</ele>
        <time>2020-08-08T10:57:00.933Z</time>
      </trkpt>
      <trkpt lat="38.356560" lon="-3.085386">
        <ele>748.637736</ele>
        <time>2020-08-08T10:57:03.917Z</time>
      </trkpt>
      <trkpt lat="38.356488" lon="-3.085522">
        <ele>748.608735</ele>
        <time>2020-08-08T10:57:06.937Z</time>
      </trkpt>
      <trkpt lat="38.356419" lon="-3.085666">
        <ele>748.578910</ele>
        <time>2020-08-08T10:57:09.939Z</time>
      </trkpt>
      <trkpt lat="38.356364" lon="-3.085765">
        <ele>748.557467</ele>
        <time>2020-08-08T10:57:11.932Z</time>
      </trkpt>
      <trkpt lat="38.356308" lon="-3.085864">
        <ele>748.535892</ele>
        <time>2020-08-08T10:57:13.900Z</time>
      </trkpt>
      <trkpt lat="38.356259" lon="-3.085960">
        <ele>748.515648</ele>
        <time>2020-08-08T10:57:15.914Z</time>
      </trkpt>
      <trkpt lat="38.356187" lon="-3.086102">
        <ele>748.485762</ele>
        <time>2020-08-08T10:57:18.949Z</time>
      </trkpt>
      <trkpt lat="38.356147" lon="-3.086228">
        <ele>748.461737</ele>
        <time>2020-08-08T10:57:20.934Z</time>
      </trkpt>
      <trkpt lat="38.356085" lon="-3.086319">
        <ele>748.440432</ele>
        <time>2020-08-08T10:57:22.900Z</time>
      </trkpt>
      <trkpt lat="38.356038" lon="-3.086475">
        <ele>748.410896</ele>
        <time>2020-08-08T10:57:24.935Z</time>
      </trkpt>
      <trkpt lat="38.355973" lon="-3.086590">
        <ele>748.385841</ele>
        <time>2020-08-08T10:57:26.936Z</time>
      </trkpt>
      <trkpt lat="38.355915" lon="-3.086732">
        <ele>748.357544</ele>
        <time>2020-08-08T10:57:28.910Z</time>
      </trkpt>
      <trkpt lat="38.355859" lon="-3.086858">
        <ele>748.331947</ele>
        <time>2020-08-08T10:57:30.939Z</time>
      </trkpt>
      <trkpt lat="38.355799" lon="-3.086994">
        <ele>748.259593</ele>
        <time>2020-08-08T10:57:32.902Z</time>
      </trkpt>
      <trkpt lat="38.355737" lon="-3.087146">
        <ele>747.899549</ele>
        <time>2020-08-08T10:57:34.931Z</time>
      </trkpt>
      <trkpt lat="38.355678" lon="-3.087279">
        <ele>747.578439</ele>
        <time>2020-08-08T10:57:36.940Z</time>
      </trkpt>
      <trkpt lat="38.355606" lon="-3.087414">
        <ele>747.235351</ele>
        <time>2020-08-08T10:57:38.928Z</time>
      </trkpt>
      <trkpt lat="38.355535" lon="-3.087555">
        <ele>746.883222</ele>
        <time>2020-08-08T10:57:40.923Z</time>
      </trkpt>
      <trkpt lat="38.355468" lon="-3.087724">
        <ele>746.485275</ele>
        <time>2020-08-08T10:57:42.908Z</time>
      </trkpt>
      <trkpt lat="38.355400" lon="-3.087860">
        <ele>746.146328</ele>
        <time>2020-08-08T10:57:44.916Z</time>
      </trkpt>
      <trkpt lat="38.355342" lon="-3.088007">
        <ele>745.800520</ele>
        <time>2020-08-08T10:57:46.923Z</time>
      </trkpt>
      <trkpt lat="38.355264" lon="-3.088159">
        <ele>745.418789</ele>
        <time>2020-08-08T10:57:48.925Z</time>
      </trkpt>
      <trkpt lat="38.355176" lon="-3.088317">
        <ele>745.011538</ele>
        <time>2020-08-08T10:57:50.918Z</time>
      </trkpt>
      <trkpt lat="38.355112" lon="-3.088452">
        <ele>744.680031</ele>
        <time>2020-08-08T10:57:52.915Z</time>
      </trkpt>
      <trkpt lat="38.355037" lon="-3.088600">
        <ele>744.309729</ele>
        <time>2020-08-08T10:57:54.901Z</time>
      </trkpt>
      <trkpt lat="38.354955" lon="-3.088748">
        <ele>743.928919</ele>
        <time>2020-08-08T10:57:56.915Z</time>
      </trkpt>
      <trkpt lat="38.354881" lon="-3.088889">
        <ele>743.572379</ele>
        <time>2020-08-08T10:57:58.914Z</time>
      </trkpt>
      <trkpt lat="38.354808" lon="-3.089032">
        <ele>743.639472</ele>
        <time>2020-08-08T10:58:00.902Z</time>
      </trkpt>
      <trkpt lat="38.354755" lon="-3.089197">
        <ele>743.845426</ele>
        <time>2020-08-08T10:58:02.932Z</time>
      </trkpt>
      <trkpt lat="38.354697" lon="-3.089314">
        <ele>744.005307</ele>
        <time>2020-08-08T10:58:04.937Z</time>
      </trkpt>
      <trkpt lat="38.354621" lon="-3.089416">
        <ele>744.167826</ele>
        <time>2020-08-08T10:58:06.937Z</time>
      </trkpt>
      <trkpt lat="38.354569" lon="-3.089536">
        <ele>744.326188</ele>
        <time>2020-08-08T10:58:08.922Z</time>
      </trkpt>
      <trkpt lat="38.354518" lon="-3.089633">
        <ele>744.461082</ele>
        <time>2020-08-08T10:58:10.902Z</time>
      </trkpt>
      <trkpt lat="38.354464" lon="-3.089741">
        <ele>744.609030</ele>
        <time>2020-08-08T10:58:12.919Z</time>
      </trkpt>
      <trkpt lat="38.354395" lon="-3.089858">
        <ele>744.778124</ele>
        <time>2020-08-08T10:58:14.936Z</time>
      </trkpt>
      <trkpt lat="38.354371" lon="-3.089974">
        <ele>744.916697</ele>
        <time>2020-08-08T10:58:16.926Z</time>
      </trkpt>
      <trkpt lat="38.354304" lon="-3.090083">
        <ele>745.076669</ele>
        <time>2020-08-08T10:58:19.942Z</time>
      </trkpt>
      <trkpt lat="38.354264" lon="-3.090213">
        <ele>745.237973</ele>
        <time>2020-08-08T10:58:22.921Z</time>
      </trkpt>
      <trkpt lat="38.354207" lon="-3.090319">
        <ele>745.386432</ele>
        <time>2020-08-08T10:58:25.935Z</time>
      </trkpt>
      <trkpt lat="38.354150" lon="-3.090429">
        <ele>745.538723</ele>
        <time>2020-08-08T10:58:28.935Z</time>
      </trkpt>
      <trkpt lat="38.354086" lon="-3.090526">
        <ele>745.685147</ele>
        <time>2020-08-08T10:58:31.940Z</time>
      </trkpt>
      <trkpt lat="38.354021" lon="-3.090622">
        <ele>745.831648</ele>
        <time>2020-08-08T10:58:34.907Z</time>
      </trkpt>
      <trkpt lat="38.353966" lon="-3.090722">
        <ele>745.972733</ele>
        <time>2020-08-08T10:58:37.937Z</time>
      </trkpt>
      <trkpt lat="38.353918" lon="-3.090830">
        <ele>746.116124</ele>
        <time>2020-08-08T10:58:40.933Z</time>
      </trkpt>
      <trkpt lat="38.353861" lon="-3.090934">
        <ele>746.103662</ele>
        <time>2020-08-08T10:58:43.933Z</time>
      </trkpt>
      <trkpt lat="38.353804" lon="-3.091034">
        <ele>746.064621</ele>
        <time>2020-08-08T10:58:46.926Z</time>
      </trkpt>
      <trkpt lat="38.353745" lon="-3.091141">
        <ele>746.023314</ele>
        <time>2020-08-08T10:58:49.932Z</time>
      </trkpt>
      <trkpt lat="38.353680" lon="-3.091255">
        <ele>745.978802</ele>
        <time>2020-08-08T10:58:52.921Z</time>
      </trkpt>
      <trkpt lat="38.353611" lon="-3.091376">
        <ele>745.931556</ele>
        <time>2020-08-08T10:58:55.935Z</time>
      </trkpt>
      <trkpt lat="38.353530" lon="-3.091486">
        <ele>745.883903</ele>
        <time>2020-08-08T10:58:58.929Z</time>
      </trkpt>
      <trkpt lat="38.353461" lon="-3.091594">
        <ele>745.839911</ele>
        <time>2020-08-08T10:59:00.949Z</time>
      </trkpt>
      <trkpt lat="38.353383" lon="-3.091699">
        <ele>745.794236</ele>
        <time>2020-08-08T10:59:02.937Z</time>
      </trkpt>
      <trkpt lat="38.353299" lon="-3.091820">
        <ele>745.743203</ele>
        <time>2020-08-08T10:59:04.926Z</time>
      </trkpt>
      <trkpt lat="38.353195" lon="-3.091916">
        <ele>745.691500</ele>
        <time>2020-08-08T10:59:06.917Z</time>
      </trkpt>
      <trkpt lat="38.353103" lon="-3.092049">
        <ele>745.635493</ele>
        <time>2020-08-08T10:59:08.922Z</time>
      </trkpt>
      <trkpt lat="38.352973" lon="-3.092139">
        <ele>745.575924</ele>
        <time>2020-08-08T10:59:10.924Z</time>
      </trkpt>
      <trkpt lat="38.352848" lon="-3.092287">
        <ele>745.507233</ele>
        <time>2020-08-08T10:59:12.925Z</time>
      </trkpt>
      <trkpt lat="38.352725" lon="-3.092412">
        <ele>745.443894</ele>
        <time>2020-08-08T10:59:14.941Z</time>
      </trkpt>
      <trkpt lat="38.352585" lon="-3.092546">
        <ele>745.076577</ele>
        <time>2020-08-08T10:59:16.941Z</time>
      </trkpt>
      <trkpt lat="38.352505" lon="-3.092608">
        <ele>744.759687</ele>
        <time>2020-08-08T10:59:17.936Z</time>
      </trkpt>
      <trkpt lat="38.352431" lon="-3.092682">
        <ele>744.441360</ele>
        <time>2020-08-08T10:59:18.912Z</time>
      </trkpt>
      <trkpt lat="38.352351" lon="-3.092759">
        <ele>744.102079</ele>
        <time>2020-08-08T10:59:19.920Z</time>
      </trkpt>
      <trkpt lat="38.352267" lon="-3.092835">
        <ele>743.753439</ele>
        <time>2020-08-08T10:59:20.929Z</time>
      </trkpt>
      <trkpt lat="38.352182" lon="-3.092910">
        <ele>743.403549</ele>
        <time>2020-08-08T10:59:21.933Z</time>
      </trkpt>
      <trkpt lat="38.352096" lon="-3.092982">
        <ele>743.055304</ele>
        <time>2020-08-08T10:59:22.932Z</time>
      </trkpt>
      <trkpt lat="38.352008" lon="-3.093057">
        <ele>742.697017</ele>
        <time>2020-08-08T10:59:23.924Z</time>
      </trkpt>
      <trkpt lat="38.351920" lon="-3.093142">
        <ele>742.323327</ele>
        <time>2020-08-08T10:59:24.926Z</time>
      </trkpt>
      <trkpt lat="38.351831" lon="-3.093219">
        <ele>741.959266</ele>
        <time>2020-08-08T10:59:25.921Z</time>
      </trkpt>
      <trkpt lat="38.351744" lon="-3.093311">
        <ele>741.576683</ele>
        <time>2020-08-08T10:59:26.935Z</time>
      </trkpt>
      <trkpt lat="38.351652" lon="-3.093391">
        <ele>741.199746</ele>
        <time>2020-08-08T10:59:27.922Z</time>
      </trkpt>
      <trkpt lat="38.351559" lon="-3.093475">
        <ele>740.813970</ele>
        <time>2020-08-08T10:59:28.923Z</time>
      </trkpt>
      <trkpt lat="38.351461" lon="-3.093561">
        <ele>740.411276</ele>
        <time>2020-08-08T10:59:29.933Z</time>
      </trkpt>
      <trkpt lat="38.351370" lon="-3.093647">
        <ele>740.027866</ele>
        <time>2020-08-08T10:59:30.927Z</time>
      </trkpt>
      <trkpt lat="38.351275" lon="-3.093725">
        <ele>739.645397</ele>
        <time>2020-08-08T10:59:31.922Z</time>
      </trkpt>
      <trkpt lat="38.351180" lon="-3.093808">
        <ele>739.276361</ele>
        <time>2020-08-08T10:59:32.934Z</time>
      </trkpt>
      <trkpt lat="38.351086" lon="-3.093896">
        <ele>738.999634</ele>
        <time>2020-08-08T10:59:33.900Z</time>
      </trkpt>
      <trkpt lat="38.350999" lon="-3.093980">
        <ele>738.740674</ele>
        <time>2020-08-08T10:59:34.931Z</time>
      </trkpt>
      <trkpt lat="38.350900" lon="-3.094071">
        <ele>738.451068</ele>
        <time>2020-08-08T10:59:35.937Z</time>
      </trkpt>
      <trkpt lat="38.350806" lon="-3.094154">
        <ele>738.179744</ele>
        <time>2020-08-08T10:59:36.946Z</time>
      </trkpt>
      <trkpt lat="38.350708" lon="-3.094238">
        <ele>737.899530</ele>
        <time>2020-08-08T10:59:37.926Z</time>
      </trkpt>
      <trkpt lat="38.350610" lon="-3.094320">
        <ele>737.621375</ele>
        <time>2020-08-08T10:59:38.925Z</time>
      </trkpt>
      <trkpt lat="38.350515" lon="-3.094405">
        <ele>737.345975</ele>
        <time>2020-08-08T10:59:39.921Z</time>
      </trkpt>
      <trkpt lat="38.350418" lon="-3.094486">
        <ele>737.070825</ele>
        <time>2020-08-08T10:59:40.933Z</time>
      </trkpt>
      <trkpt lat="38.350326" lon="-3.094563">
        <ele>736.809679</ele>
        <time>2020-08-08T10:59:41.931Z</time>
      </trkpt>
      <trkpt lat="38.350234" lon="-3.094648">
        <ele>736.540075</ele>
        <time>2020-08-08T10:59:42.924Z</time>
      </trkpt>
      <trkpt lat="38.350141" lon="-3.094728">
        <ele>736.273860</ele>
        <time>2020-08-08T10:59:43.925Z</time>
      </trkpt>
      <trkpt lat="38.350047" lon="-3.094809">
        <ele>736.004637</ele>
        <time>2020-08-08T10:59:44.922Z</time>
      </trkpt>
      <trkpt lat="38.349953" lon="-3.094893">
        <ele>735.732248</ele>
        <time>2020-08-08T10:59:45.927Z</time>
      </trkpt>
      <trkpt lat="38.349865" lon="-3.094979">
        <ele>735.469143</ele>
        <time>2020-08-08T10:59:46.930Z</time>
      </trkpt>
      <trkpt lat="38.349769" lon="-3.095063">
        <ele>735.192854</ele>
        <time>2020-08-08T10:59:47.902Z</time>
      </trkpt>
      <trkpt lat="38.349676" lon="-3.095148">
        <ele>735.100607</ele>
        <time>2020-08-08T10:59:48.929Z</time>
      </trkpt>
      <trkpt lat="38.349588" lon="-3.095227">
        <ele>735.183073</ele>
        <time>2020-08-08T10:59:49.915Z</time>
      </trkpt>
      <trkpt lat="38.349497" lon="-3.095303">
        <ele>735.266427</ele>
        <time>2020-08-08T10:59:50.930Z</time>
      </trkpt>
      <trkpt lat="38.349409" lon="-3.095386">
        <ele>735.350300</ele>
        <time>2020-08-08T10:59:51.919Z</time>
      </trkpt>
      <trkpt lat="38.349320" lon="-3.095458">
        <ele>735.431064</ele>
        <time>2020-08-08T10:59:52.930Z</time>
      </trkpt>
      <trkpt lat="38.349237" lon="-3.095544">
        <ele>735.513013</ele>
        <time>2020-08-08T10:59:53.930Z</time>
      </trkpt>
      <trkpt lat="38.349153" lon="-3.095623">
        <ele>735.592993</ele>
        <time>2020-08-08T10:59:54.927Z</time>
      </trkpt>
      <trkpt lat="38.349065" lon="-3.095695">
        <ele>735.673111</ele>
        <time>2020-08-08T10:59:55.947Z</time>
      </trkpt>
      <trkpt lat="38.348979" lon="-3.095773">
        <ele>735.753979</ele>
        <time>2020-08-08T10:59:56.906Z</time>
      </trkpt>
      <trkpt lat="38.348898" lon="-3.095849">
        <ele>735.831038</ele>
        <time>2020-08-08T10:59:57.938Z</time>
      </trkpt>
      <trkpt lat="38.348811" lon="-3.095928">
        <ele>735.912879</ele>
        <time>2020-08-08T10:59:58.918Z</time>
      </trkpt>
      <trkpt lat="38.348720" lon="-3.095997">
        <ele>735.994005</ele>
        <time>2020-08-08T10:59:59.915Z</time>
      </trkpt>
      <trkpt lat="38.348634" lon="-3.096079">
        <ele>736.076290</ele>
        <time>2020-08-08T11:00:00.919Z</time>
      </trkpt>
      <trkpt lat="38.348550" lon="-3.096156">
        <ele>736.155561</ele>
        <time>2020-08-08T11:00:01.913Z</time>
      </trkpt>
      <trkpt lat="38.348466" lon="-3.096245">
        <ele>736.239248</ele>
        <time>2020-08-08T11:00:02.937Z</time>
      </trkpt>
      <trkpt lat="38.348393" lon="-3.096328">
        <ele>736.314193</ele>
        <time>2020-08-08T11:00:03.944Z</time>
      </trkpt>
      <trkpt lat="38.348312" lon="-3.096414">
        <ele>736.394959</ele>
        <time>2020-08-08T11:00:04.934Z</time>
      </trkpt>
      <trkpt lat="38.348238" lon="-3.096503">
        <ele>736.430477</ele>
        <time>2020-08-08T11:00:05.908Z</time>
      </trkpt>
      <trkpt lat="38.348169" lon="-3.096594">
        <ele>736.421247</ele>
        <time>2020-08-08T11:00:06.917Z</time>
      </trkpt>
      <trkpt lat="38.348097" lon="-3.096680">
        <ele>736.412073</ele>
        <time>2020-08-08T11:00:07.917Z</time>
      </trkpt>
      <trkpt lat="38.348032" lon="-3.096764">
        <ele>736.403467</ele>
        <time>2020-08-08T11:00:08.940Z</time>
      </trkpt>
      <trkpt lat="38.347941" lon="-3.096953">
        <ele>736.387294</ele>
        <time>2020-08-08T11:00:10.914Z</time>
      </trkpt>
      <trkpt lat="38.347872" lon="-3.097053">
        <ele>736.377581</ele>
        <time>2020-08-08T11:00:11.952Z</time>
      </trkpt>
      <trkpt lat="38.347812" lon="-3.097141">
        <ele>736.369078</ele>
        <time>2020-08-08T11:00:12.937Z</time>
      </trkpt>
      <trkpt lat="38.347766" lon="-3.097241">
        <ele>736.360623</ele>
        <time>2020-08-08T11:00:13.937Z</time>
      </trkpt>
      <trkpt lat="38.347679" lon="-3.097427">
        <ele>736.344830</ele>
        <time>2020-08-08T11:00:15.911Z</time>
      </trkpt>
      <trkpt lat="38.347589" lon="-3.097606">
        <ele>736.329324</ele>
        <time>2020-08-08T11:00:17.924Z</time>
      </trkpt>
      <trkpt lat="38.347496" lon="-3.097781">
        <ele>736.313908</ele>
        <time>2020-08-08T11:00:19.909Z</time>
      </trkpt>
      <trkpt lat="38.347393" lon="-3.097958">
        <ele>736.297835</ele>
        <time>2020-08-08T11:00:21.939Z</time>
      </trkpt>
      <trkpt lat="38.347287" lon="-3.098139">
        <ele>736.281361</ele>
        <time>2020-08-08T11:00:23.944Z</time>
      </trkpt>
      <trkpt lat="38.347185" lon="-3.098321">
        <ele>736.212457</ele>
        <time>2020-08-08T11:00:25.909Z</time>
      </trkpt>
      <trkpt lat="38.347124" lon="-3.098409">
        <ele>736.041368</ele>
        <time>2020-08-08T11:00:26.903Z</time>
      </trkpt>
      <trkpt lat="38.347045" lon="-3.098490">
        <ele>735.853071</ele>
        <time>2020-08-08T11:00:27.933Z</time>
      </trkpt>
      <trkpt lat="38.346970" lon="-3.098589">
        <ele>735.652557</ele>
        <time>2020-08-08T11:00:28.917Z</time>
      </trkpt>
      <trkpt lat="38.346890" lon="-3.098657">
        <ele>735.473969</ele>
        <time>2020-08-08T11:00:29.926Z</time>
      </trkpt>
      <trkpt lat="38.346810" lon="-3.098733">
        <ele>735.288663</ele>
        <time>2020-08-08T11:00:30.926Z</time>
      </trkpt>
      <trkpt lat="38.346721" lon="-3.098814">
        <ele>735.085557</ele>
        <time>2020-08-08T11:00:31.931Z</time>
      </trkpt>
      <trkpt lat="38.346624" lon="-3.098885">
        <ele>734.877807</ele>
        <time>2020-08-08T11:00:32.906Z</time>
      </trkpt>
      <trkpt lat="38.346540" lon="-3.098969">
        <ele>734.679519</ele>
        <time>2020-08-08T11:00:33.919Z</time>
      </trkpt>
      <trkpt lat="38.346448" lon="-3.099063">
        <ele>734.460536</ele>
        <time>2020-08-08T11:00:34.910Z</time>
      </trkpt>
      <trkpt lat="38.346350" lon="-3.099140">
        <ele>734.246720</ele>
        <time>2020-08-08T11:00:35.926Z</time>
      </trkpt>
      <trkpt lat="38.346257" lon="-3.099240">
        <ele>734.020751</ele>
        <time>2020-08-08T11:00:36.901Z</time>
      </trkpt>
      <trkpt lat="38.346158" lon="-3.099324">
        <ele>733.799869</ele>
        <time>2020-08-08T11:00:37.912Z</time>
      </trkpt>
      <trkpt lat="38.346064" lon="-3.099411">
        <ele>733.584118</ele>
        <time>2020-08-08T11:00:38.922Z</time>
      </trkpt>
      <trkpt lat="38.345970" lon="-3.099501">
        <ele>733.365772</ele>
        <time>2020-08-08T11:00:39.922Z</time>
      </trkpt>
      <trkpt lat="38.345874" lon="-3.099590">
        <ele>733.145303</ele>
        <time>2020-08-08T11:00:40.925Z</time>
      </trkpt>
      <trkpt lat="38.345782" lon="-3.099674">
        <ele>732.935122</ele>
        <time>2020-08-08T11:00:41.936Z</time>
      </trkpt>
      <trkpt lat="38.345694" lon="-3.099757">
        <ele>732.994208</ele>
        <time>2020-08-08T11:00:42.914Z</time>
      </trkpt>
      <trkpt lat="38.345602" lon="-3.099843">
        <ele>733.067293</ele>
        <time>2020-08-08T11:00:43.933Z</time>
      </trkpt>
      <trkpt lat="38.345502" lon="-3.099941">
        <ele>733.148098</ele>
        <time>2020-08-08T11:00:45.035Z</time>
      </trkpt>
      <trkpt lat="38.345310" lon="-3.100095">
        <ele>733.293423</ele>
        <time>2020-08-08T11:00:46.915Z</time>
      </trkpt>
      <trkpt lat="38.345212" lon="-3.100183">
        <ele>733.370217</ele>
        <time>2020-08-08T11:00:47.898Z</time>
      </trkpt>
      <trkpt lat="38.345116" lon="-3.100268">
        <ele>733.445097</ele>
        <time>2020-08-08T11:00:48.926Z</time>
      </trkpt>
      <trkpt lat="38.345014" lon="-3.100358">
        <ele>733.524568</ele>
        <time>2020-08-08T11:00:49.919Z</time>
      </trkpt>
      <trkpt lat="38.344895" lon="-3.100452">
        <ele>733.614254</ele>
        <time>2020-08-08T11:00:50.929Z</time>
      </trkpt>
      <trkpt lat="38.344754" lon="-3.100580">
        <ele>733.725146</ele>
        <time>2020-08-08T11:00:51.929Z</time>
      </trkpt>
      <trkpt lat="38.344645" lon="-3.100644">
        <ele>733.802029</ele>
        <time>2020-08-08T11:00:52.916Z</time>
      </trkpt>
      <trkpt lat="38.344524" lon="-3.100664">
        <ele>733.880199</ele>
        <time>2020-08-08T11:00:53.930Z</time>
      </trkpt>
      <trkpt lat="38.344452" lon="-3.100845">
        <ele>733.982178</ele>
        <time>2020-08-08T11:00:54.934Z</time>
      </trkpt>
      <trkpt lat="38.344370" lon="-3.100934">
        <ele>734.051170</ele>
        <time>2020-08-08T11:00:55.917Z</time>
      </trkpt>
      <trkpt lat="38.344332" lon="-3.101084">
        <ele>733.626907</ele>
        <time>2020-08-08T11:00:56.937Z</time>
      </trkpt>
      <trkpt lat="38.344270" lon="-3.101216">
        <ele>732.942732</ele>
        <time>2020-08-08T11:00:57.913Z</time>
      </trkpt>
      <trkpt lat="38.344169" lon="-3.101275">
        <ele>732.312856</ele>
        <time>2020-08-08T11:00:58.913Z</time>
      </trkpt>
      <trkpt lat="38.344064" lon="-3.101320">
        <ele>731.684809</ele>
        <time>2020-08-08T11:00:59.940Z</time>
      </trkpt>
      <trkpt lat="38.343967" lon="-3.101395">
        <ele>731.041629</ele>
        <time>2020-08-08T11:01:00.931Z</time>
      </trkpt>
      <trkpt lat="38.343873" lon="-3.101429">
        <ele>730.487650</ele>
        <time>2020-08-08T11:01:01.900Z</time>
      </trkpt>
      <trkpt lat="38.343745" lon="-3.101580">
        <ele>729.498951</ele>
        <time>2020-08-08T11:01:03.907Z</time>
      </trkpt>
      <trkpt lat="38.343687" lon="-3.101698">
        <ele>728.879707</ele>
        <time>2020-08-08T11:01:04.911Z</time>
      </trkpt>
      <trkpt lat="38.343610" lon="-3.101784">
        <ele>728.299332</ele>
        <time>2020-08-08T11:01:05.921Z</time>
      </trkpt>
      <trkpt lat="38.343548" lon="-3.101884">
        <ele>727.732496</ele>
        <time>2020-08-08T11:01:06.911Z</time>
      </trkpt>
      <trkpt lat="38.343490" lon="-3.101983">
        <ele>727.183007</ele>
        <time>2020-08-08T11:01:07.906Z</time>
      </trkpt>
      <trkpt lat="38.343425" lon="-3.102090">
        <ele>726.581174</ele>
        <time>2020-08-08T11:01:08.903Z</time>
      </trkpt>
      <trkpt lat="38.343360" lon="-3.102191">
        <ele>726.000204</ele>
        <time>2020-08-08T11:01:09.898Z</time>
      </trkpt>
      <trkpt lat="38.343303" lon="-3.102289">
        <ele>725.457667</ele>
        <time>2020-08-08T11:01:10.913Z</time>
      </trkpt>
      <trkpt lat="38.343252" lon="-3.102384">
        <ele>724.945740</ele>
        <time>2020-08-08T11:01:11.904Z</time>
      </trkpt>
      <trkpt lat="38.343187" lon="-3.102482">
        <ele>724.375020</ele>
        <time>2020-08-08T11:01:12.908Z</time>
      </trkpt>
      <trkpt lat="38.343133" lon="-3.102607">
        <ele>723.857536</ele>
        <time>2020-08-08T11:01:13.904Z</time>
      </trkpt>
      <trkpt lat="38.343043" lon="-3.102769">
        <ele>723.707413</ele>
        <time>2020-08-08T11:01:15.907Z</time>
      </trkpt>
      <trkpt lat="38.342929" lon="-3.102942">
        <ele>723.536546</ele>
        <time>2020-08-08T11:01:17.908Z</time>
      </trkpt>
      <trkpt lat="38.342831" lon="-3.103121">
        <ele>723.371471</ele>
        <time>2020-08-08T11:01:19.902Z</time>
      </trkpt>
      <trkpt lat="38.342717" lon="-3.103286">
        <ele>723.205191</ele>
        <time>2020-08-08T11:01:21.903Z</time>
      </trkpt>
      <trkpt lat="38.342617" lon="-3.103456">
        <ele>723.044498</ele>
        <time>2020-08-08T11:01:23.907Z</time>
      </trkpt>
      <trkpt lat="38.342525" lon="-3.103635">
        <ele>722.882664</ele>
        <time>2020-08-08T11:01:25.900Z</time>
      </trkpt>
      <trkpt lat="38.342429" lon="-3.103795">
        <ele>722.730328</ele>
        <time>2020-08-08T11:01:27.906Z</time>
      </trkpt>
      <trkpt lat="38.342331" lon="-3.103952">
        <ele>722.578594</ele>
        <time>2020-08-08T11:01:29.904Z</time>
      </trkpt>
      <trkpt lat="38.342227" lon="-3.104108">
        <ele>722.423769</ele>
        <time>2020-08-08T11:01:31.909Z</time>
      </trkpt>
      <trkpt lat="38.342142" lon="-3.104273">
        <ele>722.274488</ele>
        <time>2020-08-08T11:01:33.919Z</time>
      </trkpt>
      <trkpt lat="38.342053" lon="-3.104450">
        <ele>722.146876</ele>
        <time>2020-08-08T11:01:35.910Z</time>
      </trkpt>
      <trkpt lat="38.341964" lon="-3.104603">
        <ele>722.144675</ele>
        <time>2020-08-08T11:01:37.901Z</time>
      </trkpt>
      <trkpt lat="38.341867" lon="-3.104751">
        <ele>722.142446</ele>
        <time>2020-08-08T11:01:39.921Z</time>
      </trkpt>
      <trkpt lat="38.341777" lon="-3.104884">
        <ele>722.140417</ele>
        <time>2020-08-08T11:01:41.916Z</time>
      </trkpt>
      <trkpt lat="38.341694" lon="-3.105031">
        <ele>722.138324</ele>
        <time>2020-08-08T11:01:43.919Z</time>
      </trkpt>
      <trkpt lat="38.341609" lon="-3.105150">
        <ele>722.136464</ele>
        <time>2020-08-08T11:01:45.914Z</time>
      </trkpt>
      <trkpt lat="38.341532" lon="-3.105299">
        <ele>722.134402</ele>
        <time>2020-08-08T11:01:47.923Z</time>
      </trkpt>
      <trkpt lat="38.341458" lon="-3.105447">
        <ele>722.132374</ele>
        <time>2020-08-08T11:01:49.927Z</time>
      </trkpt>
      <trkpt lat="38.341404" lon="-3.105583">
        <ele>722.130613</ele>
        <time>2020-08-08T11:01:51.920Z</time>
      </trkpt>
      <trkpt lat="38.341315" lon="-3.105720">
        <ele>722.128557</ele>
        <time>2020-08-08T11:01:53.924Z</time>
      </trkpt>
      <trkpt lat="38.341242" lon="-3.105842">
        <ele>722.126784</ele>
        <time>2020-08-08T11:01:55.932Z</time>
      </trkpt>
      <trkpt lat="38.341164" lon="-3.105975">
        <ele>722.124866</ele>
        <time>2020-08-08T11:01:57.920Z</time>
      </trkpt>
      <trkpt lat="38.341092" lon="-3.106113">
        <ele>722.122950</ele>
        <time>2020-08-08T11:01:59.920Z</time>
      </trkpt>
      <trkpt lat="38.341005" lon="-3.106263">
        <ele>722.114198</ele>
        <time>2020-08-08T11:02:01.928Z</time>
      </trkpt>
      <trkpt lat="38.340913" lon="-3.106399">
        <ele>721.917972</ele>
        <time>2020-08-08T11:02:03.924Z</time>
      </trkpt>
      <trkpt lat="38.340827" lon="-3.106534">
        <ele>721.727949</ele>
        <time>2020-08-08T11:02:05.937Z</time>
      </trkpt>
      <trkpt lat="38.340738" lon="-3.106668">
        <ele>721.536099</ele>
        <time>2020-08-08T11:02:07.923Z</time>
      </trkpt>
      <trkpt lat="38.340644" lon="-3.106803">
        <ele>721.338861</ele>
        <time>2020-08-08T11:02:09.925Z</time>
      </trkpt>
      <trkpt lat="38.340561" lon="-3.106961">
        <ele>721.131087</ele>
        <time>2020-08-08T11:02:11.925Z</time>
      </trkpt>
      <trkpt lat="38.340468" lon="-3.107097">
        <ele>720.933947</ele>
        <time>2020-08-08T11:02:13.929Z</time>
      </trkpt>
      <trkpt lat="38.340385" lon="-3.107233">
        <ele>720.745669</ele>
        <time>2020-08-08T11:02:15.928Z</time>
      </trkpt>
      <trkpt lat="38.340322" lon="-3.107349">
        <ele>720.591508</ele>
        <time>2020-08-08T11:02:17.942Z</time>
      </trkpt>
      <trkpt lat="38.340232" lon="-3.107493">
        <ele>720.390330</ele>
        <time>2020-08-08T11:02:19.929Z</time>
      </trkpt>
      <trkpt lat="38.340152" lon="-3.107631">
        <ele>720.202835</ele>
        <time>2020-08-08T11:02:21.912Z</time>
      </trkpt>
      <trkpt lat="38.340062" lon="-3.107771">
        <ele>720.005056</ele>
        <time>2020-08-08T11:02:23.933Z</time>
      </trkpt>
      <trkpt lat="38.339975" lon="-3.107916">
        <ele>719.805587</ele>
        <time>2020-08-08T11:02:25.913Z</time>
      </trkpt>
      <trkpt lat="38.339918" lon="-3.108063">
        <ele>719.626418</ele>
        <time>2020-08-08T11:02:27.921Z</time>
      </trkpt>
      <trkpt lat="38.339843" lon="-3.108193">
        <ele>719.543159</ele>
        <time>2020-08-08T11:02:29.916Z</time>
      </trkpt>
      <trkpt lat="38.339756" lon="-3.108332">
        <ele>719.458311</ele>
        <time>2020-08-08T11:02:31.931Z</time>
      </trkpt>
      <trkpt lat="38.339684" lon="-3.108450">
        <ele>719.386981</ele>
        <time>2020-08-08T11:02:33.926Z</time>
      </trkpt>
      <trkpt lat="38.339599" lon="-3.108586">
        <ele>719.304011</ele>
        <time>2020-08-08T11:02:35.932Z</time>
      </trkpt>
      <trkpt lat="38.339509" lon="-3.108714">
        <ele>719.221993</ele>
        <time>2020-08-08T11:02:37.916Z</time>
      </trkpt>
      <trkpt lat="38.339431" lon="-3.108837">
        <ele>719.146525</ele>
        <time>2020-08-08T11:02:39.925Z</time>
      </trkpt>
      <trkpt lat="38.339352" lon="-3.108960">
        <ele>719.070674</ele>
        <time>2020-08-08T11:02:41.929Z</time>
      </trkpt>
      <trkpt lat="38.339283" lon="-3.109096">
        <ele>718.993393</ele>
        <time>2020-08-08T11:02:43.936Z</time>
      </trkpt>
      <trkpt lat="38.339205" lon="-3.109231">
        <ele>718.913392</ele>
        <time>2020-08-08T11:02:45.899Z</time>
      </trkpt>
      <trkpt lat="38.339115" lon="-3.109371">
        <ele>718.827025</ele>
        <time>2020-08-08T11:02:47.921Z</time>
      </trkpt>
      <trkpt lat="38.339036" lon="-3.109505">
        <ele>718.747044</ele>
        <time>2020-08-08T11:02:49.929Z</time>
      </trkpt>
      <trkpt lat="38.338960" lon="-3.109630">
        <ele>718.671583</ele>
        <time>2020-08-08T11:02:51.936Z</time>
      </trkpt>
      <trkpt lat="38.338877" lon="-3.109759">
        <ele>718.591975</ele>
        <time>2020-08-08T11:02:53.931Z</time>
      </trkpt>
      <trkpt lat="38.338791" lon="-3.109881">
        <ele>718.521075</ele>
        <time>2020-08-08T11:02:55.917Z</time>
      </trkpt>
      <trkpt lat="38.338704" lon="-3.110002">
        <ele>718.519976</ele>
        <time>2020-08-08T11:02:57.924Z</time>
      </trkpt>
      <trkpt lat="38.338629" lon="-3.110135">
        <ele>718.518879</ele>
        <time>2020-08-08T11:02:59.921Z</time>
      </trkpt>
      <trkpt lat="38.338556" lon="-3.110279">
        <ele>718.517731</ele>
        <time>2020-08-08T11:03:01.908Z</time>
      </trkpt>
      <trkpt lat="38.338475" lon="-3.110413">
        <ele>718.516598</ele>
        <time>2020-08-08T11:03:03.938Z</time>
      </trkpt>
      <trkpt lat="38.338396" lon="-3.110543">
        <ele>718.515496</ele>
        <time>2020-08-08T11:03:05.922Z</time>
      </trkpt>
      <trkpt lat="38.338302" lon="-3.110665">
        <ele>718.514351</ele>
        <time>2020-08-08T11:03:07.916Z</time>
      </trkpt>
      <trkpt lat="38.338215" lon="-3.110814">
        <ele>718.513107</ele>
        <time>2020-08-08T11:03:09.938Z</time>
      </trkpt>
      <trkpt lat="38.338141" lon="-3.110940">
        <ele>718.512053</ele>
        <time>2020-08-08T11:03:11.915Z</time>
      </trkpt>
      <trkpt lat="38.338064" lon="-3.111081">
        <ele>718.510902</ele>
        <time>2020-08-08T11:03:13.913Z</time>
      </trkpt>
      <trkpt lat="38.337988" lon="-3.111217">
        <ele>718.509783</ele>
        <time>2020-08-08T11:03:15.916Z</time>
      </trkpt>
      <trkpt lat="38.337941" lon="-3.111353">
        <ele>718.508788</ele>
        <time>2020-08-08T11:03:17.930Z</time>
      </trkpt>
      <trkpt lat="38.337866" lon="-3.111478">
        <ele>718.507734</ele>
        <time>2020-08-08T11:03:19.920Z</time>
      </trkpt>
      <trkpt lat="38.337792" lon="-3.111603">
        <ele>718.506685</ele>
        <time>2020-08-08T11:03:22.060Z</time>
      </trkpt>
      <trkpt lat="38.337715" lon="-3.111721">
        <ele>718.520532</ele>
        <time>2020-08-08T11:03:23.911Z</time>
      </trkpt>
      <trkpt lat="38.337630" lon="-3.111880">
        <ele>718.635463</ele>
        <time>2020-08-08T11:03:25.906Z</time>
      </trkpt>
      <trkpt lat="38.337558" lon="-3.112007">
        <ele>718.729060</ele>
        <time>2020-08-08T11:03:27.907Z</time>
      </trkpt>
      <trkpt lat="38.337493" lon="-3.112134">
        <ele>718.819638</ele>
        <time>2020-08-08T11:03:29.919Z</time>
      </trkpt>
      <trkpt lat="38.337408" lon="-3.112280">
        <ele>718.928241</ele>
        <time>2020-08-08T11:03:31.909Z</time>
      </trkpt>
      <trkpt lat="38.337321" lon="-3.112418">
        <ele>719.033993</ele>
        <time>2020-08-08T11:03:33.915Z</time>
      </trkpt>
      <trkpt lat="38.337231" lon="-3.112543">
        <ele>719.135341</ele>
        <time>2020-08-08T11:03:35.912Z</time>
      </trkpt>
      <trkpt lat="38.337137" lon="-3.112675">
        <ele>719.241832</ele>
        <time>2020-08-08T11:03:37.903Z</time>
      </trkpt>
      <trkpt lat="38.337061" lon="-3.112815">
        <ele>719.343529</ele>
        <time>2020-08-08T11:03:39.912Z</time>
      </trkpt>
      <trkpt lat="38.336983" lon="-3.112961">
        <ele>719.449042</ele>
        <time>2020-08-08T11:03:41.914Z</time>
      </trkpt>
      <trkpt lat="38.336907" lon="-3.113094">
        <ele>719.547329</ele>
        <time>2020-08-08T11:03:43.930Z</time>
      </trkpt>
      <trkpt lat="38.336824" lon="-3.113237">
        <ele>719.653586</ele>
        <time>2020-08-08T11:03:45.914Z</time>
      </trkpt>
      <trkpt lat="38.336740" lon="-3.113368">
        <ele>719.754651</ele>
        <time>2020-08-08T11:03:47.902Z</time>
      </trkpt>
      <trkpt lat="38.336673" lon="-3.113502">
        <ele>719.849569</ele>
        <time>2020-08-08T11:03:49.917Z</time>
      </trkpt>
      <trkpt lat="38.336589" lon="-3.113621">
        <ele>719.936586</ele>
        <time>2020-08-08T11:03:51.911Z</time>
      </trkpt>
      <trkpt lat="38.336507" lon="-3.113764">
        <ele>720.029325</ele>
        <time>2020-08-08T11:03:53.905Z</time>
      </trkpt>
      <trkpt lat="38.336432" lon="-3.113895">
        <ele>720.114235</ele>
        <time>2020-08-08T11:03:55.910Z</time>
      </trkpt>
      <trkpt lat="38.336328" lon="-3.114039">
        <ele>720.216715</ele>
        <time>2020-08-08T11:03:57.907Z</time>
      </trkpt>
      <trkpt lat="38.336260" lon="-3.114168">
        <ele>720.298086</ele>
        <time>2020-08-08T11:03:59.922Z</time>
      </trkpt>
      <trkpt lat="38.336180" lon="-3.114317">
        <ele>720.392619</ele>
        <time>2020-08-08T11:04:01.903Z</time>
      </trkpt>
      <trkpt lat="38.336104" lon="-3.114458">
        <ele>720.482188</ele>
        <time>2020-08-08T11:04:03.907Z</time>
      </trkpt>
      <trkpt lat="38.336020" lon="-3.114588">
        <ele>720.570368</ele>
        <time>2020-08-08T11:04:05.913Z</time>
      </trkpt>
      <trkpt lat="38.335945" lon="-3.114719">
        <ele>720.655279</ele>
        <time>2020-08-08T11:04:07.931Z</time>
      </trkpt>
      <trkpt lat="38.335871" lon="-3.114849">
        <ele>720.739373</ele>
        <time>2020-08-08T11:04:09.931Z</time>
      </trkpt>
      <trkpt lat="38.335783" lon="-3.114996">
        <ele>720.836187</ele>
        <time>2020-08-08T11:04:12.017Z</time>
      </trkpt>
      <trkpt lat="38.335693" lon="-3.115125">
        <ele>720.926575</ele>
        <time>2020-08-08T11:04:13.924Z</time>
      </trkpt>
      <trkpt lat="38.335622" lon="-3.115253">
        <ele>721.008652</ele>
        <time>2020-08-08T11:04:15.922Z</time>
      </trkpt>
      <trkpt lat="38.335553" lon="-3.115399">
        <ele>720.948228</ele>
        <time>2020-08-08T11:04:17.933Z</time>
      </trkpt>
      <trkpt lat="38.335464" lon="-3.115539">
        <ele>720.397165</ele>
        <time>2020-08-08T11:04:19.927Z</time>
      </trkpt>
      <trkpt lat="38.335378" lon="-3.115673">
        <ele>719.867714</ele>
        <time>2020-08-08T11:04:21.918Z</time>
      </trkpt>
      <trkpt lat="38.335314" lon="-3.115810">
        <ele>719.380101</ele>
        <time>2020-08-08T11:04:23.914Z</time>
      </trkpt>
      <trkpt lat="38.335229" lon="-3.115955">
        <ele>718.826550</ele>
        <time>2020-08-08T11:04:25.934Z</time>
      </trkpt>
      <trkpt lat="38.335141" lon="-3.116076">
        <ele>718.321962</ele>
        <time>2020-08-08T11:04:27.922Z</time>
      </trkpt>
      <trkpt lat="38.335057" lon="-3.116214">
        <ele>717.787803</ele>
        <time>2020-08-08T11:04:29.936Z</time>
      </trkpt>
      <trkpt lat="38.334984" lon="-3.116348">
        <ele>717.288899</ele>
        <time>2020-08-08T11:04:31.940Z</time>
      </trkpt>
      <trkpt lat="38.334890" lon="-3.116479">
        <ele>716.745970</ele>
        <time>2020-08-08T11:04:33.923Z</time>
      </trkpt>
      <trkpt lat="38.334805" lon="-3.116596">
        <ele>716.258303</ele>
        <time>2020-08-08T11:04:35.932Z</time>
      </trkpt>
      <trkpt lat="38.334719" lon="-3.116728">
        <ele>715.733568</ele>
        <time>2020-08-08T11:04:37.921Z</time>
      </trkpt>
      <trkpt lat="38.334636" lon="-3.116865">
        <ele>715.204211</ele>
        <time>2020-08-08T11:04:39.923Z</time>
      </trkpt>
      <trkpt lat="38.334565" lon="-3.116981">
        <ele>714.754269</ele>
        <time>2020-08-08T11:04:41.927Z</time>
      </trkpt>
      <trkpt lat="38.334491" lon="-3.117112">
        <ele>714.260602</ele>
        <time>2020-08-08T11:04:43.924Z</time>
      </trkpt>
      <trkpt lat="38.334407" lon="-3.117232">
        <ele>714.212578</ele>
        <time>2020-08-08T11:04:45.937Z</time>
      </trkpt>
      <trkpt lat="38.334332" lon="-3.117349">
        <ele>714.445202</ele>
        <time>2020-08-08T11:04:47.920Z</time>
      </trkpt>
      <trkpt lat="38.334264" lon="-3.117475">
        <ele>714.680663</ele>
        <time>2020-08-08T11:04:49.937Z</time>
      </trkpt>
      <trkpt lat="38.334190" lon="-3.117625">
        <ele>714.953470</ele>
        <time>2020-08-08T11:04:51.937Z</time>
      </trkpt>
      <trkpt lat="38.334101" lon="-3.117752">
        <ele>715.215658</ele>
        <time>2020-08-08T11:04:53.939Z</time>
      </trkpt>
      <trkpt lat="38.334013" lon="-3.117888">
        <ele>715.487081</ele>
        <time>2020-08-08T11:04:55.919Z</time>
      </trkpt>
      <trkpt lat="38.333933" lon="-3.118014">
        <ele>715.736648</ele>
        <time>2020-08-08T11:04:57.908Z</time>
      </trkpt>
      <trkpt lat="38.333854" lon="-3.118132">
        <ele>715.975488</ele>
        <time>2020-08-08T11:04:59.916Z</time>
      </trkpt>
      <trkpt lat="38.333775" lon="-3.118256">
        <ele>716.221427</ele>
        <time>2020-08-08T11:05:01.916Z</time>
      </trkpt>
      <trkpt lat="38.333698" lon="-3.118392">
        <ele>716.479650</ele>
        <time>2020-08-08T11:05:03.927Z</time>
      </trkpt>
      <trkpt lat="38.333625" lon="-3.118508">
        <ele>716.708609</ele>
        <time>2020-08-08T11:05:05.916Z</time>
      </trkpt>
      <trkpt lat="38.333563" lon="-3.118634">
        <ele>716.937602</ele>
        <time>2020-08-08T11:05:07.908Z</time>
      </trkpt>
      <trkpt lat="38.333489" lon="-3.118766">
        <ele>717.187389</ele>
        <time>2020-08-08T11:05:09.909Z</time>
      </trkpt>
      <trkpt lat="38.333418" lon="-3.118899">
        <ele>717.435071</ele>
        <time>2020-08-08T11:05:11.912Z</time>
      </trkpt>
      <trkpt lat="38.333336" lon="-3.119025">
        <ele>717.698892</ele>
        <time>2020-08-08T11:05:13.912Z</time>
      </trkpt>
      <trkpt lat="38.333260" lon="-3.119146">
        <ele>717.967736</ele>
        <time>2020-08-08T11:05:15.936Z</time>
      </trkpt>
      <trkpt lat="38.333182" lon="-3.119278">
        <ele>718.254362</ele>
        <time>2020-08-08T11:05:17.908Z</time>
      </trkpt>
      <trkpt lat="38.333104" lon="-3.119417">
        <ele>718.550775</ele>
        <time>2020-08-08T11:05:19.910Z</time>
      </trkpt>
      <trkpt lat="38.333036" lon="-3.119530">
        <ele>718.797786</ele>
        <time>2020-08-08T11:05:21.915Z</time>
      </trkpt>
      <trkpt lat="38.332967" lon="-3.119650">
        <ele>719.055838</ele>
        <time>2020-08-08T11:05:23.935Z</time>
      </trkpt>
      <trkpt lat="38.332913" lon="-3.119756">
        <ele>719.275049</ele>
        <time>2020-08-08T11:05:25.913Z</time>
      </trkpt>
      <trkpt lat="38.332852" lon="-3.119846">
        <ele>719.481340</ele>
        <time>2020-08-08T11:05:26.917Z</time>
      </trkpt>
      <trkpt lat="38.332769" lon="-3.119961">
        <ele>719.752374</ele>
        <time>2020-08-08T11:05:28.932Z</time>
      </trkpt>
      <trkpt lat="38.332682" lon="-3.120079">
        <ele>720.033241</ele>
        <time>2020-08-08T11:05:30.928Z</time>
      </trkpt>
      <trkpt lat="38.332589" lon="-3.120216">
        <ele>720.347471</ele>
        <time>2020-08-08T11:05:32.930Z</time>
      </trkpt>
      <trkpt lat="38.332522" lon="-3.120324">
        <ele>720.586284</ele>
        <time>2020-08-08T11:05:34.899Z</time>
      </trkpt>
      <trkpt lat="38.332466" lon="-3.120435">
        <ele>720.815180</ele>
        <time>2020-08-08T11:05:36.910Z</time>
      </trkpt>
      <trkpt lat="38.332393" lon="-3.120563">
        <ele>721.089654</ele>
        <time>2020-08-08T11:05:38.911Z</time>
      </trkpt>
      <trkpt lat="38.332333" lon="-3.120691">
        <ele>721.348273</ele>
        <time>2020-08-08T11:05:40.911Z</time>
      </trkpt>
      <trkpt lat="38.332299" lon="-3.120827">
        <ele>721.493129</ele>
        <time>2020-08-08T11:05:42.907Z</time>
      </trkpt>
      <trkpt lat="38.332262" lon="-3.120976">
        <ele>720.643632</ele>
        <time>2020-08-08T11:05:44.915Z</time>
      </trkpt>
      <trkpt lat="38.332175" lon="-3.121073">
        <ele>719.842757</ele>
        <time>2020-08-08T11:05:46.921Z</time>
      </trkpt>
      <trkpt lat="38.332078" lon="-3.121183">
        <ele>718.943173</ele>
        <time>2020-08-08T11:05:48.914Z</time>
      </trkpt>
      <trkpt lat="38.332006" lon="-3.121294">
        <ele>718.160279</ele>
        <time>2020-08-08T11:05:50.930Z</time>
      </trkpt>
      <trkpt lat="38.331942" lon="-3.121386">
        <ele>717.491900</ele>
        <time>2020-08-08T11:05:52.914Z</time>
      </trkpt>
      <trkpt lat="38.331869" lon="-3.121500">
        <ele>716.692007</ele>
        <time>2020-08-08T11:05:54.923Z</time>
      </trkpt>
      <trkpt lat="38.331784" lon="-3.121602">
        <ele>715.883128</ele>
        <time>2020-08-08T11:05:56.932Z</time>
      </trkpt>
      <trkpt lat="38.331729" lon="-3.121718">
        <ele>715.146381</ele>
        <time>2020-08-08T11:05:58.920Z</time>
      </trkpt>
      <trkpt lat="38.331651" lon="-3.121827">
        <ele>714.344421</ele>
        <time>2020-08-08T11:06:00.918Z</time>
      </trkpt>
      <trkpt lat="38.331592" lon="-3.121924">
        <ele>713.677245</ele>
        <time>2020-08-08T11:06:02.924Z</time>
      </trkpt>
      <trkpt lat="38.331546" lon="-3.122029">
        <ele>713.023540</ele>
        <time>2020-08-08T11:06:04.931Z</time>
      </trkpt>
      <trkpt lat="38.331477" lon="-3.122148">
        <ele>712.219189</ele>
        <time>2020-08-08T11:06:06.930Z</time>
      </trkpt>
      <trkpt lat="38.331398" lon="-3.122289">
        <ele>711.277361</ele>
        <time>2020-08-08T11:06:09.913Z</time>
      </trkpt>
      <trkpt lat="38.331350" lon="-3.122400">
        <ele>710.588413</ele>
        <time>2020-08-08T11:06:11.920Z</time>
      </trkpt>
      <trkpt lat="38.331286" lon="-3.122493">
        <ele>709.915954</ele>
        <time>2020-08-08T11:06:13.911Z</time>
      </trkpt>
      <trkpt lat="38.331237" lon="-3.122596">
        <ele>709.261182</ele>
        <time>2020-08-08T11:06:15.934Z</time>
      </trkpt>
      <trkpt lat="38.331180" lon="-3.122689">
        <ele>709.173213</ele>
        <time>2020-08-08T11:06:17.928Z</time>
      </trkpt>
      <trkpt lat="38.331114" lon="-3.122771">
        <ele>709.258790</ele>
        <time>2020-08-08T11:06:19.945Z</time>
      </trkpt>
      <trkpt lat="38.331060" lon="-3.122862">
        <ele>709.341904</ele>
        <time>2020-08-08T11:06:21.930Z</time>
      </trkpt>
      <trkpt lat="38.330992" lon="-3.122993">
        <ele>709.456325</ele>
        <time>2020-08-08T11:06:24.926Z</time>
      </trkpt>
      <trkpt lat="38.330898" lon="-3.123138">
        <ele>709.593343</ele>
        <time>2020-08-08T11:06:27.916Z</time>
      </trkpt>
      <trkpt lat="38.330827" lon="-3.123245">
        <ele>709.695426</ele>
        <time>2020-08-08T11:06:30.936Z</time>
      </trkpt>
      <trkpt lat="38.330750" lon="-3.123381">
        <ele>709.817597</ele>
        <time>2020-08-08T11:06:33.922Z</time>
      </trkpt>
      <trkpt lat="38.330672" lon="-3.123495">
        <ele>709.927784</ele>
        <time>2020-08-08T11:06:36.920Z</time>
      </trkpt>
      <trkpt lat="38.330608" lon="-3.123581">
        <ele>710.014132</ele>
        <time>2020-08-08T11:06:38.917Z</time>
      </trkpt>
      <trkpt lat="38.330540" lon="-3.123713">
        <ele>710.129161</ele>
        <time>2020-08-08T11:06:41.940Z</time>
      </trkpt>
      <trkpt lat="38.330470" lon="-3.123835">
        <ele>710.239261</ele>
        <time>2020-08-08T11:06:44.912Z</time>
      </trkpt>
      <trkpt lat="38.330405" lon="-3.123959">
        <ele>710.347895</ele>
        <time>2020-08-08T11:06:47.917Z</time>
      </trkpt>
      <trkpt lat="38.330334" lon="-3.124078">
        <ele>710.456799</ele>
        <time>2020-08-08T11:06:50.930Z</time>
      </trkpt>
      <trkpt lat="38.330270" lon="-3.124191">
        <ele>710.558321</ele>
        <time>2020-08-08T11:06:53.912Z</time>
      </trkpt>
      <trkpt lat="38.330191" lon="-3.124310">
        <ele>710.671876</ele>
        <time>2020-08-08T11:06:56.920Z</time>
      </trkpt>
      <trkpt lat="38.330120" lon="-3.124426">
        <ele>710.782234</ele>
        <time>2020-08-08T11:06:59.927Z</time>
      </trkpt>
      <trkpt lat="38.330047" lon="-3.124543">
        <ele>711.208814</ele>
        <time>2020-08-08T11:07:02.923Z</time>
      </trkpt>
      <trkpt lat="38.329973" lon="-3.124667">
        <ele>711.653394</ele>
        <time>2020-08-08T11:07:05.930Z</time>
      </trkpt>
      <trkpt lat="38.329907" lon="-3.124785">
        <ele>712.066927</ele>
        <time>2020-08-08T11:07:08.917Z</time>
      </trkpt>
      <trkpt lat="38.329840" lon="-3.124900">
        <ele>712.475679</ele>
        <time>2020-08-08T11:07:11.912Z</time>
      </trkpt>
      <trkpt lat="38.329779" lon="-3.125014">
        <ele>712.869446</ele>
        <time>2020-08-08T11:07:14.937Z</time>
      </trkpt>
      <trkpt lat="38.329717" lon="-3.125137">
        <ele>713.286635</ele>
        <time>2020-08-08T11:07:17.907Z</time>
      </trkpt>
      <trkpt lat="38.329654" lon="-3.125235">
        <ele>713.648180</ele>
        <time>2020-08-08T11:07:20.920Z</time>
      </trkpt>
      <trkpt lat="38.329578" lon="-3.125323">
        <ele>714.021651</ele>
        <time>2020-08-08T11:07:23.915Z</time>
      </trkpt>
      <trkpt lat="38.329468" lon="-3.125367">
        <ele>714.441014</ele>
        <time>2020-08-08T11:07:26.936Z</time>
      </trkpt>
      <trkpt lat="38.329344" lon="-3.125358">
        <ele>714.892798</ele>
        <time>2020-08-08T11:07:29.911Z</time>
      </trkpt>
      <trkpt lat="38.329249" lon="-3.125336">
        <ele>715.244018</ele>
        <time>2020-08-08T11:07:31.903Z</time>
      </trkpt>
      <trkpt lat="38.329153" lon="-3.125311">
        <ele>715.600433</ele>
        <time>2020-08-08T11:07:33.914Z</time>
      </trkpt>
      <trkpt lat="38.329062" lon="-3.125299">
        <ele>715.933214</ele>
        <time>2020-08-08T11:07:35.907Z</time>
      </trkpt>
      <trkpt lat="38.328930" lon="-3.125294">
        <ele>716.413579</ele>
        <time>2020-08-08T11:07:38.912Z</time>
      </trkpt>
      <trkpt lat="38.328796" lon="-3.125284">
        <ele>716.901842</ele>
        <time>2020-08-08T11:07:41.914Z</time>
      </trkpt>
      <trkpt lat="38.328657" lon="-3.125294">
        <ele>717.263467</ele>
        <time>2020-08-08T11:07:44.908Z</time>
      </trkpt>
      <trkpt lat="38.328564" lon="-3.125295">
        <ele>717.043197</ele>
        <time>2020-08-08T11:07:46.927Z</time>
      </trkpt>
      <trkpt lat="38.328452" lon="-3.125283">
        <ele>716.777001</ele>
        <time>2020-08-08T11:07:48.928Z</time>
      </trkpt>
      <trkpt lat="38.328351" lon="-3.125270">
        <ele>716.536575</ele>
        <time>2020-08-08T11:07:50.924Z</time>
      </trkpt>
      <trkpt lat="38.328251" lon="-3.125276">
        <ele>716.299473</ele>
        <time>2020-08-08T11:07:52.929Z</time>
      </trkpt>
      <trkpt lat="38.328149" lon="-3.125295">
        <ele>716.055330</ele>
        <time>2020-08-08T11:07:54.911Z</time>
      </trkpt>
      <trkpt lat="38.328029" lon="-3.125382">
        <ele>715.728370</ele>
        <time>2020-08-08T11:07:57.915Z</time>
      </trkpt>
      <trkpt lat="38.327959" lon="-3.125455">
        <ele>715.514171</ele>
        <time>2020-08-08T11:07:59.914Z</time>
      </trkpt>
      <trkpt lat="38.327855" lon="-3.125567">
        <ele>715.191724</ele>
        <time>2020-08-08T11:08:02.923Z</time>
      </trkpt>
      <trkpt lat="38.327756" lon="-3.125605">
        <ele>714.946852</ele>
        <time>2020-08-08T11:08:04.902Z</time>
      </trkpt>
      <trkpt lat="38.327659" lon="-3.125608">
        <ele>714.717050</ele>
        <time>2020-08-08T11:08:06.917Z</time>
      </trkpt>
      <trkpt lat="38.327553" lon="-3.125603">
        <ele>714.465827</ele>
        <time>2020-08-08T11:08:08.932Z</time>
      </trkpt>
      <trkpt lat="38.327464" lon="-3.125540">
        <ele>714.224720</ele>
        <time>2020-08-08T11:08:10.920Z</time>
      </trkpt>
      <trkpt lat="38.327388" lon="-3.125445">
        <ele>713.972620</ele>
        <time>2020-08-08T11:08:12.914Z</time>
      </trkpt>
      <trkpt lat="38.327326" lon="-3.125361">
        <ele>713.758331</ele>
        <time>2020-08-08T11:08:14.903Z</time>
      </trkpt>
      <trkpt lat="38.327254" lon="-3.125286">
        <ele>713.538111</ele>
        <time>2020-08-08T11:08:16.920Z</time>
      </trkpt>
      <trkpt lat="38.327178" lon="-3.125195">
        <ele>713.291158</ele>
        <time>2020-08-08T11:08:18.919Z</time>
      </trkpt>
      <trkpt lat="38.327114" lon="-3.125103">
        <ele>713.062698</ele>
        <time>2020-08-08T11:08:20.913Z</time>
      </trkpt>
      <trkpt lat="38.327035" lon="-3.125002">
        <ele>712.892081</ele>
        <time>2020-08-08T11:08:22.908Z</time>
      </trkpt>
      <trkpt lat="38.326956" lon="-3.124927">
        <ele>712.742522</ele>
        <time>2020-08-08T11:08:24.917Z</time>
      </trkpt>
      <trkpt lat="38.326828" lon="-3.124936">
        <ele>712.547880</ele>
        <time>2020-08-08T11:08:27.919Z</time>
      </trkpt>
      <trkpt lat="38.326719" lon="-3.124905">
        <ele>712.378313</ele>
        <time>2020-08-08T11:08:29.921Z</time>
      </trkpt>
      <trkpt lat="38.326623" lon="-3.124903">
        <ele>712.232534</ele>
        <time>2020-08-08T11:08:31.929Z</time>
      </trkpt>
      <trkpt lat="38.326481" lon="-3.124863">
        <ele>712.011729</ele>
        <time>2020-08-08T11:08:34.931Z</time>
      </trkpt>
      <trkpt lat="38.326376" lon="-3.124828">
        <ele>711.846944</ele>
        <time>2020-08-08T11:08:36.915Z</time>
      </trkpt>
      <trkpt lat="38.326274" lon="-3.124770">
        <ele>711.677364</ele>
        <time>2020-08-08T11:08:38.926Z</time>
      </trkpt>
      <trkpt lat="38.326149" lon="-3.124743">
        <ele>711.484867</ele>
        <time>2020-08-08T11:08:42.541Z</time>
      </trkpt>
      <trkpt lat="38.325980" lon="-3.124700">
        <ele>711.223208</ele>
        <time>2020-08-08T11:08:43.924Z</time>
      </trkpt>
      <trkpt lat="38.325865" lon="-3.124671">
        <ele>711.045216</ele>
        <time>2020-08-08T11:08:45.935Z</time>
      </trkpt>
      <trkpt lat="38.325729" lon="-3.124661">
        <ele>710.838380</ele>
        <time>2020-08-08T11:08:47.925Z</time>
      </trkpt>
      <trkpt lat="38.325606" lon="-3.124607">
        <ele>710.640859</ele>
        <time>2020-08-08T11:08:49.934Z</time>
      </trkpt>
      <trkpt lat="38.325471" lon="-3.124579">
        <ele>710.433189</ele>
        <time>2020-08-08T11:08:51.934Z</time>
      </trkpt>
      <trkpt lat="38.325346" lon="-3.124570">
        <ele>710.269528</ele>
        <time>2020-08-08T11:08:53.929Z</time>
      </trkpt>
      <trkpt lat="38.325248" lon="-3.124535">
        <ele>710.162154</ele>
        <time>2020-08-08T11:08:55.935Z</time>
      </trkpt>
      <trkpt lat="38.325140" lon="-3.124524">
        <ele>710.047849</ele>
        <time>2020-08-08T11:08:57.908Z</time>
      </trkpt>
      <trkpt lat="38.325016" lon="-3.124479">
        <ele>709.911829</ele>
        <time>2020-08-08T11:08:59.925Z</time>
      </trkpt>
      <trkpt lat="38.324903" lon="-3.124436">
        <ele>709.787413</ele>
        <time>2020-08-08T11:09:01.934Z</time>
      </trkpt>
      <trkpt lat="38.324784" lon="-3.124416">
        <ele>709.660779</ele>
        <time>2020-08-08T11:09:03.906Z</time>
      </trkpt>
      <trkpt lat="38.324673" lon="-3.124377">
        <ele>709.539305</ele>
        <time>2020-08-08T11:09:05.905Z</time>
      </trkpt>
      <trkpt lat="38.324550" lon="-3.124330">
        <ele>709.403833</ele>
        <time>2020-08-08T11:09:07.917Z</time>
      </trkpt>
      <trkpt lat="38.324434" lon="-3.124296">
        <ele>709.278257</ele>
        <time>2020-08-08T11:09:09.911Z</time>
      </trkpt>
      <trkpt lat="38.324332" lon="-3.124245">
        <ele>709.162663</ele>
        <time>2020-08-08T11:09:11.919Z</time>
      </trkpt>
      <trkpt lat="38.324231" lon="-3.124242">
        <ele>709.056077</ele>
        <time>2020-08-08T11:09:13.908Z</time>
      </trkpt>
      <trkpt lat="38.324135" lon="-3.124195">
        <ele>708.947582</ele>
        <time>2020-08-08T11:09:15.899Z</time>
      </trkpt>
      <trkpt lat="38.324036" lon="-3.124155">
        <ele>708.838014</ele>
        <time>2020-08-08T11:09:17.902Z</time>
      </trkpt>
      <trkpt lat="38.323935" lon="-3.124132">
        <ele>708.729770</ele>
        <time>2020-08-08T11:09:19.914Z</time>
      </trkpt>
      <trkpt lat="38.323841" lon="-3.124112">
        <ele>708.629226</ele>
        <time>2020-08-08T11:09:21.904Z</time>
      </trkpt>
      <trkpt lat="38.323750" lon="-3.124069">
        <ele>708.526835</ele>
        <time>2020-08-08T11:09:23.904Z</time>
      </trkpt>
      <trkpt lat="38.323634" lon="-3.124027">
        <ele>708.457608</ele>
        <time>2020-08-08T11:09:26.897Z</time>
      </trkpt>
      <trkpt lat="38.323511" lon="-3.124004">
        <ele>708.560453</ele>
        <time>2020-08-08T11:09:29.907Z</time>
      </trkpt>
      <trkpt lat="38.323394" lon="-3.123984">
        <ele>708.658112</ele>
        <time>2020-08-08T11:09:32.906Z</time>
      </trkpt>
      <trkpt lat="38.323274" lon="-3.123938">
        <ele>708.761778</ele>
        <time>2020-08-08T11:09:35.922Z</time>
      </trkpt>
      <trkpt lat="38.323157" lon="-3.123896">
        <ele>708.862336</ele>
        <time>2020-08-08T11:09:38.912Z</time>
      </trkpt>
      <trkpt lat="38.323044" lon="-3.123866">
        <ele>708.957826</ele>
        <time>2020-08-08T11:09:41.918Z</time>
      </trkpt>
      <trkpt lat="38.322939" lon="-3.123837">
        <ele>709.046706</ele>
        <time>2020-08-08T11:09:44.916Z</time>
      </trkpt>
      <trkpt lat="38.322840" lon="-3.123812">
        <ele>709.130199</ele>
        <time>2020-08-08T11:09:47.919Z</time>
      </trkpt>
      <trkpt lat="38.322734" lon="-3.123784">
        <ele>709.219755</ele>
        <time>2020-08-08T11:09:50.912Z</time>
      </trkpt>
      <trkpt lat="38.322625" lon="-3.123762">
        <ele>709.311052</ele>
        <time>2020-08-08T11:09:53.931Z</time>
      </trkpt>
      <trkpt lat="38.322524" lon="-3.123729">
        <ele>709.397310</ele>
        <time>2020-08-08T11:09:56.923Z</time>
      </trkpt>
      <trkpt lat="38.322418" lon="-3.123681">
        <ele>709.490371</ele>
        <time>2020-08-08T11:09:59.931Z</time>
      </trkpt>
      <trkpt lat="38.322308" lon="-3.123630">
        <ele>709.587206</ele>
        <time>2020-08-08T11:10:02.933Z</time>
      </trkpt>
      <trkpt lat="38.322197" lon="-3.123594">
        <ele>709.681960</ele>
        <time>2020-08-08T11:10:05.916Z</time>
      </trkpt>
      <trkpt lat="38.322089" lon="-3.123554">
        <ele>709.775003</ele>
        <time>2020-08-08T11:10:08.919Z</time>
      </trkpt>
      <trkpt lat="38.321987" lon="-3.123522">
        <ele>709.861904</ele>
        <time>2020-08-08T11:10:11.923Z</time>
      </trkpt>
      <trkpt lat="38.321884" lon="-3.123493">
        <ele>710.136868</ele>
        <time>2020-08-08T11:10:14.921Z</time>
      </trkpt>
      <trkpt lat="38.321777" lon="-3.123465">
        <ele>710.810931</ele>
        <time>2020-08-08T11:10:17.917Z</time>
      </trkpt>
      <trkpt lat="38.321666" lon="-3.123440">
        <ele>711.506518</ele>
        <time>2020-08-08T11:10:20.924Z</time>
      </trkpt>
      <trkpt lat="38.321557" lon="-3.123418">
        <ele>712.187533</ele>
        <time>2020-08-08T11:10:23.911Z</time>
      </trkpt>
      <trkpt lat="38.321450" lon="-3.123388">
        <ele>712.863611</ele>
        <time>2020-08-08T11:10:26.935Z</time>
      </trkpt>
      <trkpt lat="38.321344" lon="-3.123359">
        <ele>713.532630</ele>
        <time>2020-08-08T11:10:29.925Z</time>
      </trkpt>
      <trkpt lat="38.321237" lon="-3.123341">
        <ele>714.198648</ele>
        <time>2020-08-08T11:10:32.923Z</time>
      </trkpt>
      <trkpt lat="38.321131" lon="-3.123313">
        <ele>714.866668</ele>
        <time>2020-08-08T11:10:35.916Z</time>
      </trkpt>
      <trkpt lat="38.321025" lon="-3.123287">
        <ele>715.532791</ele>
        <time>2020-08-08T11:10:38.909Z</time>
      </trkpt>
      <trkpt lat="38.320915" lon="-3.123257">
        <ele>716.226961</ele>
        <time>2020-08-08T11:10:41.920Z</time>
      </trkpt>
      <trkpt lat="38.320799" lon="-3.123221">
        <ele>716.963704</ele>
        <time>2020-08-08T11:10:44.928Z</time>
      </trkpt>
      <trkpt lat="38.320682" lon="-3.123190">
        <ele>717.701140</ele>
        <time>2020-08-08T11:10:47.933Z</time>
      </trkpt>
      <trkpt lat="38.320567" lon="-3.123162">
        <ele>718.423632</ele>
        <time>2020-08-08T11:10:50.935Z</time>
      </trkpt>
      <trkpt lat="38.320457" lon="-3.123128">
        <ele>719.122111</ele>
        <time>2020-08-08T11:10:53.917Z</time>
      </trkpt>
      <trkpt lat="38.320347" lon="-3.123098">
        <ele>719.816281</ele>
        <time>2020-08-08T11:10:56.925Z</time>
      </trkpt>
      <trkpt lat="38.320227" lon="-3.123060">
        <ele>720.579307</ele>
        <time>2020-08-08T11:10:59.915Z</time>
      </trkpt>
      <trkpt lat="38.320101" lon="-3.123029">
        <ele>721.132820</ele>
        <time>2020-08-08T11:11:02.906Z</time>
      </trkpt>
      <trkpt lat="38.319972" lon="-3.122995">
        <ele>721.394808</ele>
        <time>2020-08-08T11:11:05.904Z</time>
      </trkpt>
      <trkpt lat="38.319882" lon="-3.122963">
        <ele>721.580638</ele>
        <time>2020-08-08T11:11:07.904Z</time>
      </trkpt>
      <trkpt lat="38.319763" lon="-3.122931">
        <ele>721.822519</ele>
        <time>2020-08-08T11:11:10.918Z</time>
      </trkpt>
      <trkpt lat="38.319638" lon="-3.122885">
        <ele>722.081279</ele>
        <time>2020-08-08T11:11:13.903Z</time>
      </trkpt>
      <trkpt lat="38.319522" lon="-3.122866">
        <ele>722.313881</ele>
        <time>2020-08-08T11:11:16.907Z</time>
      </trkpt>
      <trkpt lat="38.319409" lon="-3.122834">
        <ele>722.544100</ele>
        <time>2020-08-08T11:11:19.905Z</time>
      </trkpt>
      <trkpt lat="38.319302" lon="-3.122802">
        <ele>722.762686</ele>
        <time>2020-08-08T11:11:22.917Z</time>
      </trkpt>
      <trkpt lat="38.319194" lon="-3.122781">
        <ele>722.979965</ele>
        <time>2020-08-08T11:11:25.907Z</time>
      </trkpt>
      <trkpt lat="38.319090" lon="-3.122764">
        <ele>723.188499</ele>
        <time>2020-08-08T11:11:28.924Z</time>
      </trkpt>
      <trkpt lat="38.318985" lon="-3.122745">
        <ele>723.399421</ele>
        <time>2020-08-08T11:11:31.922Z</time>
      </trkpt>
      <trkpt lat="38.318875" lon="-3.122715">
        <ele>723.623145</ele>
        <time>2020-08-08T11:11:34.924Z</time>
      </trkpt>
      <trkpt lat="38.318764" lon="-3.122681">
        <ele>723.850192</ele>
        <time>2020-08-08T11:11:37.912Z</time>
      </trkpt>
      <trkpt lat="38.318660" lon="-3.122654">
        <ele>724.061279</ele>
        <time>2020-08-08T11:11:40.922Z</time>
      </trkpt>
      <trkpt lat="38.318553" lon="-3.122623">
        <ele>724.279513</ele>
        <time>2020-08-08T11:11:43.909Z</time>
      </trkpt>
      <trkpt lat="38.318446" lon="-3.122595">
        <ele>724.496758</ele>
        <time>2020-08-08T11:11:46.919Z</time>
      </trkpt>
      <trkpt lat="38.318339" lon="-3.122561">
        <ele>724.502660</ele>
        <time>2020-08-08T11:11:49.917Z</time>
      </trkpt>
      <trkpt lat="38.318230" lon="-3.122532">
        <ele>724.328306</ele>
        <time>2020-08-08T11:11:52.933Z</time>
      </trkpt>
      <trkpt lat="38.318116" lon="-3.122498">
        <ele>724.144980</ele>
        <time>2020-08-08T11:11:55.918Z</time>
      </trkpt>
      <trkpt lat="38.318000" lon="-3.122456">
        <ele>723.956158</ele>
        <time>2020-08-08T11:11:58.918Z</time>
      </trkpt>
      <trkpt lat="38.317886" lon="-3.122415">
        <ele>723.770684</ele>
        <time>2020-08-08T11:12:01.914Z</time>
      </trkpt>
      <trkpt lat="38.317767" lon="-3.122371">
        <ele>723.576668</ele>
        <time>2020-08-08T11:12:04.927Z</time>
      </trkpt>
      <trkpt lat="38.317646" lon="-3.122330">
        <ele>723.380623</ele>
        <time>2020-08-08T11:12:07.905Z</time>
      </trkpt>
      <trkpt lat="38.317524" lon="-3.122307">
        <ele>723.187514</ele>
        <time>2020-08-08T11:12:10.915Z</time>
      </trkpt>
      <trkpt lat="38.317412" lon="-3.122291">
        <ele>723.011043</ele>
        <time>2020-08-08T11:12:13.936Z</time>
      </trkpt>
      <trkpt lat="38.317306" lon="-3.122276">
        <ele>722.844046</ele>
        <time>2020-08-08T11:12:16.933Z</time>
      </trkpt>
      <trkpt lat="38.317200" lon="-3.122250">
        <ele>722.675023</ele>
        <time>2020-08-08T11:12:19.897Z</time>
      </trkpt>
      <trkpt lat="38.317094" lon="-3.122218">
        <ele>722.504453</ele>
        <time>2020-08-08T11:12:22.906Z</time>
      </trkpt>
      <trkpt lat="38.316991" lon="-3.122195">
        <ele>722.340717</ele>
        <time>2020-08-08T11:12:25.901Z</time>
      </trkpt>
      <trkpt lat="38.316890" lon="-3.122171">
        <ele>722.179843</ele>
        <time>2020-08-08T11:12:28.903Z</time>
      </trkpt>
      <trkpt lat="38.316786" lon="-3.122140">
        <ele>722.012603</ele>
        <time>2020-08-08T11:12:31.910Z</time>
      </trkpt>
      <trkpt lat="38.316684" lon="-3.122110">
        <ele>721.848692</ele>
        <time>2020-08-08T11:12:34.919Z</time>
      </trkpt>
      <trkpt lat="38.316582" lon="-3.122079">
        <ele>721.803460</ele>
        <time>2020-08-08T11:12:37.908Z</time>
      </trkpt>
      <trkpt lat="38.316485" lon="-3.122055">
        <ele>721.840844</ele>
        <time>2020-08-08T11:12:40.921Z</time>
      </trkpt>
      <trkpt lat="38.316389" lon="-3.122025">
        <ele>721.878240</ele>
        <time>2020-08-08T11:12:43.922Z</time>
      </trkpt>
      <trkpt lat="38.316292" lon="-3.121998">
        <ele>721.915804</ele>
        <time>2020-08-08T11:12:46.915Z</time>
      </trkpt>
      <trkpt lat="38.316197" lon="-3.121973">
        <ele>721.952504</ele>
        <time>2020-08-08T11:12:49.913Z</time>
      </trkpt>
      <trkpt lat="38.316095" lon="-3.121946">
        <ele>721.991918</ele>
        <time>2020-08-08T11:12:52.916Z</time>
      </trkpt>
      <trkpt lat="38.316000" lon="-3.121913">
        <ele>722.029171</ele>
        <time>2020-08-08T11:12:55.898Z</time>
      </trkpt>
      <trkpt lat="38.315904" lon="-3.121889">
        <ele>722.066184</ele>
        <time>2020-08-08T11:12:58.914Z</time>
      </trkpt>
      <trkpt lat="38.315805" lon="-3.121859">
        <ele>722.104683</ele>
        <time>2020-08-08T11:13:01.908Z</time>
      </trkpt>
      <trkpt lat="38.315708" lon="-3.121830">
        <ele>722.142378</ele>
        <time>2020-08-08T11:13:04.900Z</time>
      </trkpt>
      <trkpt lat="38.315608" lon="-3.121796">
        <ele>722.181535</ele>
        <time>2020-08-08T11:13:07.907Z</time>
      </trkpt>
      <trkpt lat="38.315501" lon="-3.121756">
        <ele>722.223723</ele>
        <time>2020-08-08T11:13:10.920Z</time>
      </trkpt>
      <trkpt lat="38.315393" lon="-3.121733">
        <ele>722.265150</ele>
        <time>2020-08-08T11:13:13.913Z</time>
      </trkpt>
      <trkpt lat="38.315285" lon="-3.121703">
        <ele>722.306969</ele>
        <time>2020-08-08T11:13:16.921Z</time>
      </trkpt>
      <trkpt lat="38.315173" lon="-3.121672">
        <ele>722.350331</ele>
        <time>2020-08-08T11:13:19.928Z</time>
      </trkpt>
      <trkpt lat="38.315060" lon="-3.121637">
        <ele>722.394327</ele>
        <time>2020-08-08T11:13:22.903Z</time>
      </trkpt>
      <trkpt lat="38.314943" lon="-3.121605">
        <ele>722.439601</ele>
        <time>2020-08-08T11:13:25.922Z</time>
      </trkpt>
      <trkpt lat="38.314830" lon="-3.121567">
        <ele>722.515439</ele>
        <time>2020-08-08T11:13:28.931Z</time>
      </trkpt>
      <trkpt lat="38.314724" lon="-3.121534">
        <ele>722.613454</ele>
        <time>2020-08-08T11:13:31.916Z</time>
      </trkpt>
      <trkpt lat="38.314620" lon="-3.121507">
        <ele>722.708792</ele>
        <time>2020-08-08T11:13:34.920Z</time>
      </trkpt>
      <trkpt lat="38.314519" lon="-3.121491">
        <ele>722.800215</ele>
        <time>2020-08-08T11:13:37.926Z</time>
      </trkpt>
      <trkpt lat="38.314418" lon="-3.121470">
        <ele>722.892140</ele>
        <time>2020-08-08T11:13:40.910Z</time>
      </trkpt>
      <trkpt lat="38.314315" lon="-3.121456">
        <ele>722.985186</ele>
        <time>2020-08-08T11:13:43.934Z</time>
      </trkpt>
      <trkpt lat="38.314209" lon="-3.121433">
        <ele>723.081772</ele>
        <time>2020-08-08T11:13:46.934Z</time>
      </trkpt>
      <trkpt lat="38.314109" lon="-3.121408">
        <ele>723.173310</ele>
        <time>2020-08-08T11:13:49.917Z</time>
      </trkpt>
      <trkpt lat="38.314013" lon="-3.121388">
        <ele>723.260688</ele>
        <time>2020-08-08T11:13:52.910Z</time>
      </trkpt>
      <trkpt lat="38.313899" lon="-3.121370">
        <ele>723.363873</ele>
        <time>2020-08-08T11:13:56.918Z</time>
      </trkpt>
      <trkpt lat="38.313788" lon="-3.121345">
        <ele>723.465126</ele>
        <time>2020-08-08T11:14:00.936Z</time>
      </trkpt>
      <trkpt lat="38.313682" lon="-3.121327">
        <ele>723.561183</ele>
        <time>2020-08-08T11:14:04.932Z</time>
      </trkpt>
      <trkpt lat="38.313572" lon="-3.121315">
        <ele>723.660354</ele>
        <time>2020-08-08T11:14:08.939Z</time>
      </trkpt>
      <trkpt lat="38.313461" lon="-3.121290">
        <ele>723.761606</ele>
        <time>2020-08-08T11:14:12.902Z</time>
      </trkpt>
      <trkpt lat="38.313353" lon="-3.121254">
        <ele>723.861882</ele>
        <time>2020-08-08T11:14:16.944Z</time>
      </trkpt>
      <trkpt lat="38.313257" lon="-3.121215">
        <ele>723.952390</ele>
        <time>2020-08-08T11:14:21.910Z</time>
      </trkpt>
      <trkpt lat="38.313161" lon="-3.121184">
        <ele>724.041349</ele>
        <time>2020-08-08T11:14:25.920Z</time>
      </trkpt>
      <trkpt lat="38.313069" lon="-3.121173">
        <ele>723.976424</ele>
        <time>2020-08-08T11:14:28.932Z</time>
      </trkpt>
      <trkpt lat="38.312963" lon="-3.121155">
        <ele>723.775755</ele>
        <time>2020-08-08T11:14:32.923Z</time>
      </trkpt>
      <trkpt lat="38.312869" lon="-3.121088">
        <ele>723.573651</ele>
        <time>2020-08-08T11:14:37.922Z</time>
      </trkpt>
      <trkpt lat="38.312774" lon="-3.121017">
        <ele>723.366991</ele>
        <time>2020-08-08T11:14:42.925Z</time>
      </trkpt>
      <trkpt lat="38.312689" lon="-3.120956">
        <ele>723.183938</ele>
        <time>2020-08-08T11:14:46.923Z</time>
      </trkpt>
      <trkpt lat="38.312631" lon="-3.120868">
        <ele>723.014721</ele>
        <time>2020-08-08T11:14:50.921Z</time>
      </trkpt>
      <trkpt lat="38.312557" lon="-3.120762">
        <ele>722.805816</ele>
        <time>2020-08-08T11:14:55.921Z</time>
      </trkpt>
      <trkpt lat="38.312460" lon="-3.120702">
        <ele>722.603488</ele>
        <time>2020-08-08T11:14:59.906Z</time>
      </trkpt>
      <trkpt lat="38.312355" lon="-3.120669">
        <ele>722.400551</ele>
        <time>2020-08-08T11:15:03.917Z</time>
      </trkpt>
      <trkpt lat="38.312261" lon="-3.120622">
        <ele>722.211069</ele>
        <time>2020-08-08T11:15:07.927Z</time>
      </trkpt>
      <trkpt lat="38.312166" lon="-3.120561">
        <ele>722.011452</ele>
        <time>2020-08-08T11:15:12.917Z</time>
      </trkpt>
      <trkpt lat="38.312080" lon="-3.120498">
        <ele>721.825312</ele>
        <time>2020-08-08T11:15:17.917Z</time>
      </trkpt>
      <trkpt lat="38.311993" lon="-3.120431">
        <ele>721.634563</ele>
        <time>2020-08-08T11:15:22.922Z</time>
      </trkpt>
      <trkpt lat="38.311895" lon="-3.120362">
        <ele>721.424467</ele>
        <time>2020-08-08T11:15:27.924Z</time>
      </trkpt>
      <trkpt lat="38.311798" lon="-3.120298">
        <ele>721.219499</ele>
        <time>2020-08-08T11:15:32.904Z</time>
      </trkpt>
      <trkpt lat="38.311707" lon="-3.120231">
        <ele>721.022288</ele>
        <time>2020-08-08T11:15:37.917Z</time>
      </trkpt>
      <trkpt lat="38.311616" lon="-3.120177">
        <ele>720.833921</ele>
        <time>2020-08-08T11:15:41.914Z</time>
      </trkpt>
      <trkpt lat="38.311529" lon="-3.120118">
        <ele>720.674480</ele>
        <time>2020-08-08T11:15:46.904Z</time>
      </trkpt>
      <trkpt lat="38.311424" lon="-3.120066">
        <ele>720.566141</ele>
        <time>2020-08-08T11:15:51.907Z</time>
      </trkpt>
      <trkpt lat="38.311335" lon="-3.120018">
        <ele>720.473197</ele>
        <time>2020-08-08T11:15:55.915Z</time>
      </trkpt>
      <trkpt lat="38.311240" lon="-3.119971">
        <ele>720.375188</ele>
        <time>2020-08-08T11:16:00.923Z</time>
      </trkpt>
      <trkpt lat="38.311154" lon="-3.119924">
        <ele>720.285194</ele>
        <time>2020-08-08T11:16:04.923Z</time>
      </trkpt>
      <trkpt lat="38.311070" lon="-3.119870">
        <ele>720.194712</ele>
        <time>2020-08-08T11:16:08.924Z</time>
      </trkpt>
      <trkpt lat="38.310977" lon="-3.119809">
        <ele>720.094119</ele>
        <time>2020-08-08T11:16:13.916Z</time>
      </trkpt>
      <trkpt lat="38.310886" lon="-3.119745">
        <ele>719.994158</ele>
        <time>2020-08-08T11:16:18.918Z</time>
      </trkpt>
      <trkpt lat="38.310788" lon="-3.119674">
        <ele>719.885742</ele>
        <time>2020-08-08T11:16:23.917Z</time>
      </trkpt>
      <trkpt lat="38.310698" lon="-3.119616">
        <ele>719.788748</ele>
        <time>2020-08-08T11:16:27.921Z</time>
      </trkpt>
      <trkpt lat="38.310606" lon="-3.119560">
        <ele>719.690693</ele>
        <time>2020-08-08T11:16:31.925Z</time>
      </trkpt>
      <trkpt lat="38.310513" lon="-3.119505">
        <ele>719.592090</ele>
        <time>2020-08-08T11:16:35.925Z</time>
      </trkpt>
      <trkpt lat="38.310419" lon="-3.119454">
        <ele>719.493835</ele>
        <time>2020-08-08T11:16:39.926Z</time>
      </trkpt>
      <trkpt lat="38.310328" lon="-3.119397">
        <ele>719.396317</ele>
        <time>2020-08-08T11:16:43.927Z</time>
      </trkpt>
      <trkpt lat="38.310229" lon="-3.119342">
        <ele>719.292450</ele>
        <time>2020-08-08T11:16:47.945Z</time>
      </trkpt>
      <trkpt lat="38.310127" lon="-3.119293">
        <ele>719.187615</ele>
        <time>2020-08-08T11:16:51.920Z</time>
      </trkpt>
      <trkpt lat="38.310048" lon="-3.119237">
        <ele>719.100675</ele>
        <time>2020-08-08T11:16:54.900Z</time>
      </trkpt>
      <trkpt lat="38.309948" lon="-3.119159">
        <ele>718.987917</ele>
        <time>2020-08-08T11:16:58.932Z</time>
      </trkpt>
      <trkpt lat="38.309859" lon="-3.119084">
        <ele>718.377057</ele>
        <time>2020-08-08T11:17:02.919Z</time>
      </trkpt>
      <trkpt lat="38.309776" lon="-3.119034">
        <ele>717.767833</ele>
        <time>2020-08-08T11:17:06.918Z</time>
      </trkpt>
      <trkpt lat="38.309685" lon="-3.118962">
        <ele>717.057041</ele>
        <time>2020-08-08T11:17:11.907Z</time>
      </trkpt>
      <trkpt lat="38.309602" lon="-3.118917">
        <ele>716.458481</ele>
        <time>2020-08-08T11:17:15.923Z</time>
      </trkpt>
      <trkpt lat="38.309509" lon="-3.118884">
        <ele>715.817856</ele>
        <time>2020-08-08T11:17:19.908Z</time>
      </trkpt>
      <trkpt lat="38.309422" lon="-3.118833">
        <ele>715.182374</ele>
        <time>2020-08-08T11:17:23.926Z</time>
      </trkpt>
      <trkpt lat="38.309334" lon="-3.118779">
        <ele>714.534235</ele>
        <time>2020-08-08T11:17:27.922Z</time>
      </trkpt>
      <trkpt lat="38.309236" lon="-3.118724">
        <ele>713.823638</ele>
        <time>2020-08-08T11:17:32.930Z</time>
      </trkpt>
      <trkpt lat="38.309153" lon="-3.118678">
        <ele>713.223020</ele>
        <time>2020-08-08T11:17:36.937Z</time>
      </trkpt>
      <trkpt lat="38.309071" lon="-3.118623">
        <ele>712.608102</ele>
        <time>2020-08-08T11:17:40.927Z</time>
      </trkpt>
      <trkpt lat="38.308985" lon="-3.118566">
        <ele>711.964838</ele>
        <time>2020-08-08T11:17:44.926Z</time>
      </trkpt>
      <trkpt lat="38.308899" lon="-3.118505">
        <ele>711.311701</ele>
        <time>2020-08-08T11:17:48.917Z</time>
      </trkpt>
      <trkpt lat="38.308805" lon="-3.118453">
        <ele>710.631682</ele>
        <time>2020-08-08T11:17:52.917Z</time>
      </trkpt>
      <trkpt lat="38.308707" lon="-3.118421">
        <ele>709.960345</ele>
        <time>2020-08-08T11:17:56.921Z</time>
      </trkpt>
      <trkpt lat="38.308605" lon="-3.118404">
        <ele>709.277708</ele>
        <time>2020-08-08T11:18:00.901Z</time>
      </trkpt>
      <trkpt lat="38.308495" lon="-3.118394">
        <ele>708.545891</ele>
        <time>2020-08-08T11:18:04.916Z</time>
      </trkpt>
      <trkpt lat="38.308380" lon="-3.118386">
        <ele>707.781613</ele>
        <time>2020-08-08T11:18:08.911Z</time>
      </trkpt>
      <trkpt lat="38.308279" lon="-3.118379">
        <ele>707.110386</ele>
        <time>2020-08-08T11:18:12.904Z</time>
      </trkpt>
      <trkpt lat="38.308172" lon="-3.118367">
        <ele>707.577844</ele>
        <time>2020-08-08T11:18:16.910Z</time>
      </trkpt>
      <trkpt lat="38.308071" lon="-3.118360">
        <ele>708.148273</ele>
        <time>2020-08-08T11:18:20.911Z</time>
      </trkpt>
      <trkpt lat="38.307975" lon="-3.118345">
        <ele>708.693716</ele>
        <time>2020-08-08T11:18:24.902Z</time>
      </trkpt>
      <trkpt lat="38.307875" lon="-3.118331">
        <ele>709.261056</ele>
        <time>2020-08-08T11:18:28.901Z</time>
      </trkpt>
      <trkpt lat="38.307771" lon="-3.118311">
        <ele>709.854201</ele>
        <time>2020-08-08T11:18:32.904Z</time>
      </trkpt>
      <trkpt lat="38.307669" lon="-3.118290">
        <ele>710.436885</ele>
        <time>2020-08-08T11:18:36.907Z</time>
      </trkpt>
      <trkpt lat="38.307569" lon="-3.118266">
        <ele>711.010746</ele>
        <time>2020-08-08T11:18:40.912Z</time>
      </trkpt>
      <trkpt lat="38.307468" lon="-3.118243">
        <ele>711.589355</ele>
        <time>2020-08-08T11:18:44.921Z</time>
      </trkpt>
      <trkpt lat="38.307361" lon="-3.118222">
        <ele>712.199892</ele>
        <time>2020-08-08T11:18:48.893Z</time>
      </trkpt>
      <trkpt lat="38.307258" lon="-3.118220">
        <ele>712.780825</ele>
        <time>2020-08-08T11:18:52.903Z</time>
      </trkpt>
      <trkpt lat="38.307154" lon="-3.118230">
        <ele>713.368998</ele>
        <time>2020-08-08T11:18:56.909Z</time>
      </trkpt>
      <trkpt lat="38.307061" lon="-3.118234">
        <ele>713.893767</ele>
        <time>2020-08-08T11:19:00.902Z</time>
      </trkpt>
      <trkpt lat="38.306967" lon="-3.118245">
        <ele>714.426108</ele>
        <time>2020-08-08T11:19:04.905Z</time>
      </trkpt>
      <trkpt lat="38.306872" lon="-3.118257">
        <ele>714.964483</ele>
        <time>2020-08-08T11:19:08.904Z</time>
      </trkpt>
      <trkpt lat="38.306765" lon="-3.118295">
        <ele>715.590900</ele>
        <time>2020-08-08T11:19:13.934Z</time>
      </trkpt>
      <trkpt lat="38.306667" lon="-3.118309">
        <ele>716.147030</ele>
        <time>2020-08-08T11:19:17.932Z</time>
      </trkpt>
      <trkpt lat="38.306567" lon="-3.118306">
        <ele>716.711133</ele>
        <time>2020-08-08T11:19:21.906Z</time>
      </trkpt>
      <trkpt lat="38.306471" lon="-3.118319">
        <ele>717.217954</ele>
        <time>2020-08-08T11:19:25.934Z</time>
      </trkpt>
      <trkpt lat="38.306365" lon="-3.118344">
        <ele>717.527147</ele>
        <time>2020-08-08T11:19:29.914Z</time>
      </trkpt>
      <trkpt lat="38.306259" lon="-3.118375">
        <ele>717.839081</ele>
        <time>2020-08-08T11:19:33.916Z</time>
      </trkpt>
      <trkpt lat="38.306145" lon="-3.118401">
        <ele>718.171253</ele>
        <time>2020-08-08T11:19:37.913Z</time>
      </trkpt>
      <trkpt lat="38.306047" lon="-3.118434">
        <ele>718.461985</ele>
        <time>2020-08-08T11:19:41.917Z</time>
      </trkpt>
      <trkpt lat="38.305945" lon="-3.118460">
        <ele>718.760338</ele>
        <time>2020-08-08T11:19:45.930Z</time>
      </trkpt>
      <trkpt lat="38.305848" lon="-3.118503">
        <ele>719.054907</ele>
        <time>2020-08-08T11:19:49.930Z</time>
      </trkpt>
      <trkpt lat="38.305757" lon="-3.118540">
        <ele>719.328878</ele>
        <time>2020-08-08T11:19:53.923Z</time>
      </trkpt>
      <trkpt lat="38.305669" lon="-3.118573">
        <ele>719.591982</ele>
        <time>2020-08-08T11:19:57.916Z</time>
      </trkpt>
      <trkpt lat="38.305571" lon="-3.118612">
        <ele>719.886454</ele>
        <time>2020-08-08T11:20:01.925Z</time>
      </trkpt>
      <trkpt lat="38.305479" lon="-3.118637">
        <ele>720.156262</ele>
        <time>2020-08-08T11:20:05.939Z</time>
      </trkpt>
      <trkpt lat="38.305384" lon="-3.118668">
        <ele>720.437534</ele>
        <time>2020-08-08T11:20:09.919Z</time>
      </trkpt>
      <trkpt lat="38.305286" lon="-3.118693">
        <ele>720.724196</ele>
        <time>2020-08-08T11:20:13.922Z</time>
      </trkpt>
      <trkpt lat="38.305193" lon="-3.118726">
        <ele>721.001087</ele>
        <time>2020-08-08T11:20:17.924Z</time>
      </trkpt>
      <trkpt lat="38.305089" lon="-3.118776">
        <ele>721.319904</ele>
        <time>2020-08-08T11:20:22.932Z</time>
      </trkpt>
      <trkpt lat="38.305006" lon="-3.118827">
        <ele>721.584195</ele>
        <time>2020-08-08T11:20:26.927Z</time>
      </trkpt>
      <trkpt lat="38.304917" lon="-3.118872">
        <ele>721.858825</ele>
        <time>2020-08-08T11:20:30.928Z</time>
      </trkpt>
      <trkpt lat="38.304832" lon="-3.118933">
        <ele>722.138624</ele>
        <time>2020-08-08T11:20:34.918Z</time>
      </trkpt>
      <trkpt lat="38.304746" lon="-3.118996">
        <ele>722.376836</ele>
        <time>2020-08-08T11:20:38.928Z</time>
      </trkpt>
      <trkpt lat="38.304660" lon="-3.119065">
        <ele>722.509949</ele>
        <time>2020-08-08T11:20:42.934Z</time>
      </trkpt>
      <trkpt lat="38.304573" lon="-3.119127">
        <ele>722.640514</ele>
        <time>2020-08-08T11:20:46.913Z</time>
      </trkpt>
      <trkpt lat="38.304490" lon="-3.119187">
        <ele>722.765506</ele>
        <time>2020-08-08T11:20:50.907Z</time>
      </trkpt>
      <trkpt lat="38.304405" lon="-3.119250">
        <ele>722.894305</ele>
        <time>2020-08-08T11:20:54.922Z</time>
      </trkpt>
      <trkpt lat="38.304319" lon="-3.119313">
        <ele>723.024237</ele>
        <time>2020-08-08T11:20:58.901Z</time>
      </trkpt>
      <trkpt lat="38.304228" lon="-3.119372">
        <ele>723.157973</ele>
        <time>2020-08-08T11:21:02.939Z</time>
      </trkpt>
      <trkpt lat="38.304132" lon="-3.119445">
        <ele>723.304404</ele>
        <time>2020-08-08T11:21:06.927Z</time>
      </trkpt>
      <trkpt lat="38.304054" lon="-3.119507">
        <ele>723.424818</ele>
        <time>2020-08-08T11:21:09.936Z</time>
      </trkpt>
      <trkpt lat="38.303970" lon="-3.119556">
        <ele>723.545825</ele>
        <time>2020-08-08T11:21:12.905Z</time>
      </trkpt>
      <trkpt lat="38.303881" lon="-3.119618">
        <ele>723.678683</ele>
        <time>2020-08-08T11:21:15.926Z</time>
      </trkpt>
      <trkpt lat="38.303780" lon="-3.119682">
        <ele>723.826430</ele>
        <time>2020-08-08T11:21:18.909Z</time>
      </trkpt>
      <trkpt lat="38.303675" lon="-3.119743">
        <ele>723.977582</ele>
        <time>2020-08-08T11:21:21.913Z</time>
      </trkpt>
      <trkpt lat="38.303554" lon="-3.119799">
        <ele>724.146202</ele>
        <time>2020-08-08T11:21:24.933Z</time>
      </trkpt>
      <trkpt lat="38.303464" lon="-3.119862">
        <ele>724.280703</ele>
        <time>2020-08-08T11:21:26.914Z</time>
      </trkpt>
      <trkpt lat="38.303366" lon="-3.119932">
        <ele>724.427858</ele>
        <time>2020-08-08T11:21:28.941Z</time>
      </trkpt>
      <trkpt lat="38.303255" lon="-3.119989">
        <ele>724.584611</ele>
        <time>2020-08-08T11:21:30.936Z</time>
      </trkpt>
      <trkpt lat="38.303130" lon="-3.120064">
        <ele>724.339184</ele>
        <time>2020-08-08T11:21:32.912Z</time>
      </trkpt>
      <trkpt lat="38.303027" lon="-3.120176">
        <ele>723.462263</ele>
        <time>2020-08-08T11:21:34.945Z</time>
      </trkpt>
      <trkpt lat="38.302880" lon="-3.120277">
        <ele>722.380666</ele>
        <time>2020-08-08T11:21:36.923Z</time>
      </trkpt>
      <trkpt lat="38.302732" lon="-3.120400">
        <ele>721.236325</ele>
        <time>2020-08-08T11:21:38.905Z</time>
      </trkpt>
      <trkpt lat="38.302577" lon="-3.120519">
        <ele>720.064371</ele>
        <time>2020-08-08T11:21:40.915Z</time>
      </trkpt>
      <trkpt lat="38.302423" lon="-3.120628">
        <ele>718.923483</ele>
        <time>2020-08-08T11:21:42.948Z</time>
      </trkpt>
      <trkpt lat="38.302354" lon="-3.120706">
        <ele>718.326118</ele>
        <time>2020-08-08T11:21:43.912Z</time>
      </trkpt>
      <trkpt lat="38.302280" lon="-3.120780">
        <ele>717.716913</ele>
        <time>2020-08-08T11:21:44.910Z</time>
      </trkpt>
      <trkpt lat="38.302136" lon="-3.120914">
        <ele>716.562116</ele>
        <time>2020-08-08T11:21:46.925Z</time>
      </trkpt>
      <trkpt lat="38.302073" lon="-3.120997">
        <ele>715.975242</ele>
        <time>2020-08-08T11:21:47.916Z</time>
      </trkpt>
      <trkpt lat="38.301994" lon="-3.121077">
        <ele>715.321724</ele>
        <time>2020-08-08T11:21:48.906Z</time>
      </trkpt>
      <trkpt lat="38.301912" lon="-3.121153">
        <ele>714.665045</ele>
        <time>2020-08-08T11:21:49.903Z</time>
      </trkpt>
      <trkpt lat="38.301831" lon="-3.121224">
        <ele>714.028331</ele>
        <time>2020-08-08T11:21:50.918Z</time>
      </trkpt>
      <trkpt lat="38.301747" lon="-3.121297">
        <ele>713.369843</ele>
        <time>2020-08-08T11:21:51.909Z</time>
      </trkpt>
      <trkpt lat="38.301659" lon="-3.121355">
        <ele>713.028617</ele>
        <time>2020-08-08T11:21:52.905Z</time>
      </trkpt>
      <trkpt lat="38.301568" lon="-3.121401">
        <ele>712.995582</ele>
        <time>2020-08-08T11:21:53.924Z</time>
      </trkpt>
      <trkpt lat="38.301466" lon="-3.121443">
        <ele>712.959410</ele>
        <time>2020-08-08T11:21:54.927Z</time>
      </trkpt>
      <trkpt lat="38.301372" lon="-3.121456">
        <ele>712.927503</ele>
        <time>2020-08-08T11:21:55.921Z</time>
      </trkpt>
      <trkpt lat="38.301275" lon="-3.121435">
        <ele>712.894302</ele>
        <time>2020-08-08T11:21:56.920Z</time>
      </trkpt>
      <trkpt lat="38.301157" lon="-3.121433">
        <ele>712.854480</ele>
        <time>2020-08-08T11:21:57.905Z</time>
      </trkpt>
      <trkpt lat="38.301000" lon="-3.121392">
        <ele>712.800400</ele>
        <time>2020-08-08T11:21:59.914Z</time>
      </trkpt>
      <trkpt lat="38.300838" lon="-3.121354">
        <ele>712.744815</ele>
        <time>2020-08-08T11:22:01.910Z</time>
      </trkpt>
      <trkpt lat="38.300679" lon="-3.121365">
        <ele>712.691082</ele>
        <time>2020-08-08T11:22:03.916Z</time>
      </trkpt>
      <trkpt lat="38.300542" lon="-3.121427">
        <ele>712.642023</ele>
        <time>2020-08-08T11:22:05.926Z</time>
      </trkpt>
      <trkpt lat="38.300406" lon="-3.121480">
        <ele>712.594032</ele>
        <time>2020-08-08T11:22:07.936Z</time>
      </trkpt>
      <trkpt lat="38.300284" lon="-3.121537">
        <ele>712.550184</ele>
        <time>2020-08-08T11:22:09.922Z</time>
      </trkpt>
      <trkpt lat="38.300180" lon="-3.121591">
        <ele>712.512288</ele>
        <time>2020-08-08T11:22:11.941Z</time>
      </trkpt>
      <trkpt lat="38.300095" lon="-3.121638">
        <ele>712.481021</ele>
        <time>2020-08-08T11:22:13.924Z</time>
      </trkpt>
      <trkpt lat="38.299991" lon="-3.121682">
        <ele>712.444042</ele>
        <time>2020-08-08T11:22:16.913Z</time>
      </trkpt>
      <trkpt lat="38.299903" lon="-3.121738">
        <ele>712.361950</ele>
        <time>2020-08-08T11:22:19.932Z</time>
      </trkpt>
      <trkpt lat="38.299805" lon="-3.121782">
        <ele>712.264164</ele>
        <time>2020-08-08T11:22:23.925Z</time>
      </trkpt>
      <trkpt lat="38.299709" lon="-3.121823">
        <ele>712.168879</ele>
        <time>2020-08-08T11:22:27.912Z</time>
      </trkpt>
      <trkpt lat="38.299614" lon="-3.121872">
        <ele>712.072427</ele>
        <time>2020-08-08T11:22:31.886Z</time>
      </trkpt>
      <trkpt lat="38.299512" lon="-3.121888">
        <ele>711.975710</ele>
        <time>2020-08-08T11:22:34.921Z</time>
      </trkpt>
      <trkpt lat="38.299390" lon="-3.121906">
        <ele>711.860128</ele>
        <time>2020-08-08T11:22:37.937Z</time>
      </trkpt>
      <trkpt lat="38.299291" lon="-3.121874">
        <ele>711.764008</ele>
        <time>2020-08-08T11:22:39.942Z</time>
      </trkpt>
      <trkpt lat="38.299191" lon="-3.121844">
        <ele>711.667325</ele>
        <time>2020-08-08T11:22:41.922Z</time>
      </trkpt>
      <trkpt lat="38.299093" lon="-3.121834">
        <ele>711.574801</ele>
        <time>2020-08-08T11:22:43.924Z</time>
      </trkpt>
      <trkpt lat="38.298989" lon="-3.121789">
        <ele>711.471438</ele>
        <time>2020-08-08T11:22:45.918Z</time>
      </trkpt>
      <trkpt lat="38.298895" lon="-3.121762">
        <ele>711.380754</ele>
        <time>2020-08-08T11:22:47.898Z</time>
      </trkpt>
      <trkpt lat="38.298788" lon="-3.121732">
        <ele>711.277647</ele>
        <time>2020-08-08T11:22:49.914Z</time>
      </trkpt>
      <trkpt lat="38.298675" lon="-3.121692">
        <ele>711.167275</ele>
        <time>2020-08-08T11:22:51.928Z</time>
      </trkpt>
      <trkpt lat="38.298561" lon="-3.121649">
        <ele>711.055388</ele>
        <time>2020-08-08T11:22:53.936Z</time>
      </trkpt>
      <trkpt lat="38.298439" lon="-3.121618">
        <ele>710.938313</ele>
        <time>2020-08-08T11:22:55.931Z</time>
      </trkpt>
      <trkpt lat="38.298312" lon="-3.121584">
        <ele>710.816183</ele>
        <time>2020-08-08T11:22:57.941Z</time>
      </trkpt>
      <trkpt lat="38.298190" lon="-3.121572">
        <ele>710.959477</ele>
        <time>2020-08-08T11:22:59.912Z</time>
      </trkpt>
      <trkpt lat="38.298058" lon="-3.121541">
        <ele>711.567631</ele>
        <time>2020-08-08T11:23:01.908Z</time>
      </trkpt>
      <trkpt lat="38.297899" lon="-3.121503">
        <ele>712.300609</ele>
        <time>2020-08-08T11:23:03.910Z</time>
      </trkpt>
      <trkpt lat="38.297751" lon="-3.121490">
        <ele>712.972776</ele>
        <time>2020-08-08T11:23:05.928Z</time>
      </trkpt>
      <trkpt lat="38.297588" lon="-3.121486">
        <ele>713.711452</ele>
        <time>2020-08-08T11:23:07.917Z</time>
      </trkpt>
      <trkpt lat="38.297444" lon="-3.121475">
        <ele>714.365076</ele>
        <time>2020-08-08T11:23:09.923Z</time>
      </trkpt>
      <trkpt lat="38.297309" lon="-3.121466">
        <ele>714.977586</ele>
        <time>2020-08-08T11:23:11.910Z</time>
      </trkpt>
      <trkpt lat="38.297172" lon="-3.121461">
        <ele>715.598576</ele>
        <time>2020-08-08T11:23:13.940Z</time>
      </trkpt>
      <trkpt lat="38.297061" lon="-3.121436">
        <ele>716.109304</ele>
        <time>2020-08-08T11:23:15.924Z</time>
      </trkpt>
      <trkpt lat="38.296960" lon="-3.121439">
        <ele>716.567051</ele>
        <time>2020-08-08T11:23:17.900Z</time>
      </trkpt>
      <trkpt lat="38.296842" lon="-3.121396">
        <ele>717.123134</ele>
        <time>2020-08-08T11:23:20.930Z</time>
      </trkpt>
      <trkpt lat="38.296750" lon="-3.121384">
        <ele>717.542156</ele>
        <time>2020-08-08T11:23:23.909Z</time>
      </trkpt>
      <trkpt lat="38.296643" lon="-3.121338">
        <ele>718.053815</ele>
        <time>2020-08-08T11:23:27.916Z</time>
      </trkpt>
      <trkpt lat="38.296537" lon="-3.121295">
        <ele>718.557845</ele>
        <time>2020-08-08T11:23:31.908Z</time>
      </trkpt>
      <trkpt lat="38.296441" lon="-3.121262">
        <ele>718.868211</ele>
        <time>2020-08-08T11:23:35.897Z</time>
      </trkpt>
      <trkpt lat="38.296338" lon="-3.121226">
        <ele>718.753971</ele>
        <time>2020-08-08T11:23:40.909Z</time>
      </trkpt>
      <trkpt lat="38.296237" lon="-3.121177">
        <ele>718.638374</ele>
        <time>2020-08-08T11:23:45.924Z</time>
      </trkpt>
      <trkpt lat="38.296152" lon="-3.121125">
        <ele>718.537521</ele>
        <time>2020-08-08T11:23:49.902Z</time>
      </trkpt>
      <trkpt lat="38.296064" lon="-3.121075">
        <ele>718.434460</ele>
        <time>2020-08-08T11:23:53.903Z</time>
      </trkpt>
      <trkpt lat="38.295971" lon="-3.121032">
        <ele>718.328639</ele>
        <time>2020-08-08T11:23:57.926Z</time>
      </trkpt>
      <trkpt lat="38.295867" lon="-3.121008">
        <ele>718.215590</ele>
        <time>2020-08-08T11:24:01.927Z</time>
      </trkpt>
      <trkpt lat="38.295755" lon="-3.121002">
        <ele>718.095687</ele>
        <time>2020-08-08T11:24:05.919Z</time>
      </trkpt>
      <trkpt lat="38.295663" lon="-3.121008">
        <ele>717.997154</ele>
        <time>2020-08-08T11:24:09.941Z</time>
      </trkpt>
      <trkpt lat="38.295571" lon="-3.121039">
        <ele>717.895366</ele>
        <time>2020-08-08T11:24:13.927Z</time>
      </trkpt>
      <trkpt lat="38.295484" lon="-3.121074">
        <ele>717.797782</ele>
        <time>2020-08-08T11:24:17.925Z</time>
      </trkpt>
      <trkpt lat="38.295381" lon="-3.121126">
        <ele>717.679279</ele>
        <time>2020-08-08T11:24:22.917Z</time>
      </trkpt>
      <trkpt lat="38.295274" lon="-3.121200">
        <ele>717.549058</ele>
        <time>2020-08-08T11:24:26.930Z</time>
      </trkpt>
      <trkpt lat="38.295177" lon="-3.121261">
        <ele>717.433357</ele>
        <time>2020-08-08T11:24:29.937Z</time>
      </trkpt>
      <trkpt lat="38.295076" lon="-3.121310">
        <ele>717.317760</ele>
        <time>2020-08-08T11:24:32.917Z</time>
      </trkpt>
      <trkpt lat="38.294974" lon="-3.121352">
        <ele>717.203103</ele>
        <time>2020-08-08T11:24:35.922Z</time>
      </trkpt>
      <trkpt lat="38.294868" lon="-3.121387">
        <ele>717.085979</ele>
        <time>2020-08-08T11:24:38.934Z</time>
      </trkpt>
      <trkpt lat="38.294762" lon="-3.121433">
        <ele>716.959831</ele>
        <time>2020-08-08T11:24:41.902Z</time>
      </trkpt>
      <trkpt lat="38.294653" lon="-3.121492">
        <ele>716.669021</ele>
        <time>2020-08-08T11:24:44.939Z</time>
      </trkpt>
      <trkpt lat="38.294536" lon="-3.121540">
        <ele>716.367192</ele>
        <time>2020-08-08T11:24:47.952Z</time>
      </trkpt>
      <trkpt lat="38.294421" lon="-3.121589">
        <ele>716.069429</ele>
        <time>2020-08-08T11:24:50.939Z</time>
      </trkpt>
      <trkpt lat="38.294308" lon="-3.121643">
        <ele>715.773073</ele>
        <time>2020-08-08T11:24:53.922Z</time>
      </trkpt>
      <trkpt lat="38.294202" lon="-3.121699">
        <ele>715.491294</ele>
        <time>2020-08-08T11:24:56.925Z</time>
      </trkpt>
      <trkpt lat="38.294098" lon="-3.121746">
        <ele>715.220325</ele>
        <time>2020-08-08T11:24:59.943Z</time>
      </trkpt>
      <trkpt lat="38.293993" lon="-3.121787">
        <ele>714.950652</ele>
        <time>2020-08-08T11:25:02.930Z</time>
      </trkpt>
      <trkpt lat="38.293885" lon="-3.121832">
        <ele>714.671629</ele>
        <time>2020-08-08T11:25:05.942Z</time>
      </trkpt>
      <trkpt lat="38.293777" lon="-3.121885">
        <ele>714.387435</ele>
        <time>2020-08-08T11:25:08.942Z</time>
      </trkpt>
      <trkpt lat="38.293665" lon="-3.121932">
        <ele>714.097877</ele>
        <time>2020-08-08T11:25:11.906Z</time>
      </trkpt>
      <trkpt lat="38.293556" lon="-3.121979">
        <ele>713.815306</ele>
        <time>2020-08-08T11:25:14.902Z</time>
      </trkpt>
      <trkpt lat="38.293423" lon="-3.122028">
        <ele>713.475334</ele>
        <time>2020-08-08T11:25:17.917Z</time>
      </trkpt>
      <trkpt lat="38.293324" lon="-3.122064">
        <ele>713.222524</ele>
        <time>2020-08-08T11:25:19.913Z</time>
      </trkpt>
      <trkpt lat="38.293234" lon="-3.122113">
        <ele>712.982191</ele>
        <time>2020-08-08T11:25:21.902Z</time>
      </trkpt>
      <trkpt lat="38.293137" lon="-3.122171">
        <ele>712.719074</ele>
        <time>2020-08-08T11:25:23.914Z</time>
      </trkpt>
      <trkpt lat="38.293027" lon="-3.122230">
        <ele>712.511348</ele>
        <time>2020-08-08T11:25:25.916Z</time>
      </trkpt>
      <trkpt lat="38.292901" lon="-3.122281">
        <ele>712.402491</ele>
        <time>2020-08-08T11:25:27.918Z</time>
      </trkpt>
      <trkpt lat="38.292774" lon="-3.122339">
        <ele>712.291405</ele>
        <time>2020-08-08T11:25:29.901Z</time>
      </trkpt>
      <trkpt lat="38.292634" lon="-3.122398">
        <ele>712.169987</ele>
        <time>2020-08-08T11:25:31.924Z</time>
      </trkpt>
      <trkpt lat="38.292502" lon="-3.122449">
        <ele>712.056412</ele>
        <time>2020-08-08T11:25:33.918Z</time>
      </trkpt>
      <trkpt lat="38.292364" lon="-3.122508">
        <ele>711.936557</ele>
        <time>2020-08-08T11:25:35.904Z</time>
      </trkpt>
      <trkpt lat="38.292237" lon="-3.122551">
        <ele>711.828356</ele>
        <time>2020-08-08T11:25:37.917Z</time>
      </trkpt>
      <trkpt lat="38.292118" lon="-3.122616">
        <ele>711.721748</ele>
        <time>2020-08-08T11:25:39.923Z</time>
      </trkpt>
      <trkpt lat="38.291981" lon="-3.122661">
        <ele>711.605254</ele>
        <time>2020-08-08T11:25:42.907Z</time>
      </trkpt>
      <trkpt lat="38.291871" lon="-3.122714">
        <ele>711.508421</ele>
        <time>2020-08-08T11:25:44.913Z</time>
      </trkpt>
      <trkpt lat="38.291764" lon="-3.122779">
        <ele>711.410816</ele>
        <time>2020-08-08T11:25:46.907Z</time>
      </trkpt>
      <trkpt lat="38.291664" lon="-3.122849">
        <ele>711.316868</ele>
        <time>2020-08-08T11:25:48.922Z</time>
      </trkpt>
      <trkpt lat="38.291549" lon="-3.122927">
        <ele>711.209596</ele>
        <time>2020-08-08T11:25:50.910Z</time>
      </trkpt>
      <trkpt lat="38.291453" lon="-3.123007">
        <ele>711.115144</ele>
        <time>2020-08-08T11:25:52.908Z</time>
      </trkpt>
      <trkpt lat="38.291355" lon="-3.123130">
        <ele>710.979056</ele>
        <time>2020-08-08T11:25:54.922Z</time>
      </trkpt>
      <trkpt lat="38.291241" lon="-3.123188">
        <ele>710.845740</ele>
        <time>2020-08-08T11:25:56.908Z</time>
      </trkpt>
      <trkpt lat="38.291127" lon="-3.123257">
        <ele>710.708670</ele>
        <time>2020-08-08T11:25:58.920Z</time>
      </trkpt>
      <trkpt lat="38.291020" lon="-3.123347">
        <ele>710.569423</ele>
        <time>2020-08-08T11:26:00.923Z</time>
      </trkpt>
      <trkpt lat="38.290909" lon="-3.123404">
        <ele>710.439448</ele>
        <time>2020-08-08T11:26:02.905Z</time>
      </trkpt>
      <trkpt lat="38.290790" lon="-3.123468">
        <ele>710.299165</ele>
        <time>2020-08-08T11:26:04.892Z</time>
      </trkpt>
      <trkpt lat="38.290651" lon="-3.123502">
        <ele>710.145447</ele>
        <time>2020-08-08T11:26:06.907Z</time>
      </trkpt>
      <trkpt lat="38.290545" lon="-3.123583">
        <ele>710.011208</ele>
        <time>2020-08-08T11:26:08.914Z</time>
      </trkpt>
      <trkpt lat="38.290434" lon="-3.123636">
        <ele>709.882468</ele>
        <time>2020-08-08T11:26:10.908Z</time>
      </trkpt>
      <trkpt lat="38.290300" lon="-3.123677">
        <ele>709.732800</ele>
        <time>2020-08-08T11:26:12.905Z</time>
      </trkpt>
      <trkpt lat="38.290180" lon="-3.123726">
        <ele>709.595944</ele>
        <time>2020-08-08T11:26:14.909Z</time>
      </trkpt>
      <trkpt lat="38.290062" lon="-3.123773">
        <ele>709.461673</ele>
        <time>2020-08-08T11:26:16.914Z</time>
      </trkpt>
      <trkpt lat="38.289942" lon="-3.123824">
        <ele>709.324287</ele>
        <time>2020-08-08T11:26:18.917Z</time>
      </trkpt>
      <trkpt lat="38.289816" lon="-3.123874">
        <ele>709.180961</ele>
        <time>2020-08-08T11:26:20.919Z</time>
      </trkpt>
      <trkpt lat="38.289673" lon="-3.123937">
        <ele>709.145970</ele>
        <time>2020-08-08T11:26:22.919Z</time>
      </trkpt>
      <trkpt lat="38.289550" lon="-3.124005">
        <ele>709.182575</ele>
        <time>2020-08-08T11:26:24.910Z</time>
      </trkpt>
      <trkpt lat="38.289417" lon="-3.124050">
        <ele>709.220143</ele>
        <time>2020-08-08T11:26:26.896Z</time>
      </trkpt>
      <trkpt lat="38.289283" lon="-3.124103">
        <ele>709.258449</ele>
        <time>2020-08-08T11:26:28.914Z</time>
      </trkpt>
      <trkpt lat="38.289152" lon="-3.124156">
        <ele>709.295972</ele>
        <time>2020-08-08T11:26:30.908Z</time>
      </trkpt>
      <trkpt lat="38.289024" lon="-3.124237">
        <ele>709.334990</ele>
        <time>2020-08-08T11:26:32.913Z</time>
      </trkpt>
      <trkpt lat="38.288902" lon="-3.124289">
        <ele>709.370111</ele>
        <time>2020-08-08T11:26:34.909Z</time>
      </trkpt>
      <trkpt lat="38.288756" lon="-3.124319">
        <ele>709.410485</ele>
        <time>2020-08-08T11:26:36.908Z</time>
      </trkpt>
      <trkpt lat="38.288608" lon="-3.124363">
        <ele>709.451976</ele>
        <time>2020-08-08T11:26:38.913Z</time>
      </trkpt>
      <trkpt lat="38.288457" lon="-3.124405">
        <ele>709.494170</ele>
        <time>2020-08-08T11:26:40.914Z</time>
      </trkpt>
      <trkpt lat="38.288310" lon="-3.124453">
        <ele>709.535599</ele>
        <time>2020-08-08T11:26:42.904Z</time>
      </trkpt>
      <trkpt lat="38.288162" lon="-3.124510">
        <ele>709.577810</ele>
        <time>2020-08-08T11:26:44.928Z</time>
      </trkpt>
      <trkpt lat="38.288017" lon="-3.124574">
        <ele>709.612415</ele>
        <time>2020-08-08T11:26:46.898Z</time>
      </trkpt>
      <trkpt lat="38.287867" lon="-3.124642">
        <ele>709.619357</ele>
        <time>2020-08-08T11:26:48.906Z</time>
      </trkpt>
      <trkpt lat="38.287716" lon="-3.124690">
        <ele>709.626142</ele>
        <time>2020-08-08T11:26:50.923Z</time>
      </trkpt>
      <trkpt lat="38.287624" lon="-3.124722">
        <ele>709.630300</ele>
        <time>2020-08-08T11:26:51.903Z</time>
      </trkpt>
      <trkpt lat="38.287476" lon="-3.124764">
        <ele>709.636911</ele>
        <time>2020-08-08T11:26:53.909Z</time>
      </trkpt>
      <trkpt lat="38.287352" lon="-3.124807">
        <ele>709.642515</ele>
        <time>2020-08-08T11:26:55.916Z</time>
      </trkpt>
      <trkpt lat="38.287238" lon="-3.124841">
        <ele>709.647619</ele>
        <time>2020-08-08T11:26:57.922Z</time>
      </trkpt>
      <trkpt lat="38.287126" lon="-3.124907">
        <ele>709.653000</ele>
        <time>2020-08-08T11:26:59.932Z</time>
      </trkpt>
      <trkpt lat="38.287009" lon="-3.124924">
        <ele>709.658134</ele>
        <time>2020-08-08T11:27:01.903Z</time>
      </trkpt>
      <trkpt lat="38.286906" lon="-3.124957">
        <ele>709.662765</ele>
        <time>2020-08-08T11:27:03.918Z</time>
      </trkpt>
      <trkpt lat="38.286818" lon="-3.125013">
        <ele>709.667054</ele>
        <time>2020-08-08T11:27:05.920Z</time>
      </trkpt>
      <trkpt lat="38.286726" lon="-3.125076">
        <ele>709.671608</ele>
        <time>2020-08-08T11:27:07.925Z</time>
      </trkpt>
      <trkpt lat="38.286643" lon="-3.125134">
        <ele>709.675735</ele>
        <time>2020-08-08T11:27:09.915Z</time>
      </trkpt>
      <trkpt lat="38.286579" lon="-3.125225">
        <ele>709.679917</ele>
        <time>2020-08-08T11:27:11.914Z</time>
      </trkpt>
      <trkpt lat="38.286507" lon="-3.125310">
        <ele>709.684197</ele>
        <time>2020-08-08T11:27:13.918Z</time>
      </trkpt>
      <trkpt lat="38.286443" lon="-3.125401">
        <ele>709.688378</ele>
        <time>2020-08-08T11:27:15.905Z</time>
      </trkpt>
      <trkpt lat="38.286348" lon="-3.125449">
        <ele>709.601398</ele>
        <time>2020-08-08T11:27:17.934Z</time>
      </trkpt>
      <trkpt lat="38.286264" lon="-3.125496">
        <ele>709.497263</ele>
        <time>2020-08-08T11:27:19.922Z</time>
      </trkpt>
      <trkpt lat="38.286171" lon="-3.125597">
        <ele>709.358555</ele>
        <time>2020-08-08T11:27:21.924Z</time>
      </trkpt>
      <trkpt lat="38.286087" lon="-3.125679">
        <ele>709.238440</ele>
        <time>2020-08-08T11:27:23.919Z</time>
      </trkpt>
      <trkpt lat="38.285986" lon="-3.125764">
        <ele>709.101045</ele>
        <time>2020-08-08T11:27:25.920Z</time>
      </trkpt>
      <trkpt lat="38.285891" lon="-3.125837">
        <ele>708.975120</ele>
        <time>2020-08-08T11:27:27.923Z</time>
      </trkpt>
      <trkpt lat="38.285800" lon="-3.125910">
        <ele>708.853060</ele>
        <time>2020-08-08T11:27:29.909Z</time>
      </trkpt>
      <trkpt lat="38.285688" lon="-3.125965">
        <ele>708.716817</ele>
        <time>2020-08-08T11:27:31.914Z</time>
      </trkpt>
      <trkpt lat="38.285573" lon="-3.125993">
        <ele>708.583924</ele>
        <time>2020-08-08T11:27:33.917Z</time>
      </trkpt>
      <trkpt lat="38.285428" lon="-3.125999">
        <ele>708.419255</ele>
        <time>2020-08-08T11:27:35.924Z</time>
      </trkpt>
      <trkpt lat="38.285290" lon="-3.126013">
        <ele>708.262122</ele>
        <time>2020-08-08T11:27:37.936Z</time>
      </trkpt>
      <trkpt lat="38.285162" lon="-3.126040">
        <ele>708.114858</ele>
        <time>2020-08-08T11:27:39.912Z</time>
      </trkpt>
      <trkpt lat="38.285007" lon="-3.126037">
        <ele>707.938904</ele>
        <time>2020-08-08T11:27:41.909Z</time>
      </trkpt>
      <trkpt lat="38.284877" lon="-3.126054">
        <ele>707.790573</ele>
        <time>2020-08-08T11:27:43.918Z</time>
      </trkpt>
      <trkpt lat="38.284758" lon="-3.126067">
        <ele>707.655006</ele>
        <time>2020-08-08T11:27:45.918Z</time>
      </trkpt>
      <trkpt lat="38.284601" lon="-3.126076">
        <ele>707.344795</ele>
        <time>2020-08-08T11:27:47.916Z</time>
      </trkpt>
      <trkpt lat="38.284502" lon="-3.126086">
        <ele>707.145314</ele>
        <time>2020-08-08T11:27:49.919Z</time>
      </trkpt>
      <trkpt lat="38.284353" lon="-3.126087">
        <ele>706.846019</ele>
        <time>2020-08-08T11:27:51.918Z</time>
      </trkpt>
      <trkpt lat="38.284239" lon="-3.126107">
        <ele>706.614871</ele>
        <time>2020-08-08T11:27:53.910Z</time>
      </trkpt>
      <trkpt lat="38.284129" lon="-3.126122">
        <ele>706.392656</ele>
        <time>2020-08-08T11:27:55.917Z</time>
      </trkpt>
      <trkpt lat="38.284029" lon="-3.126169">
        <ele>706.178556</ele>
        <time>2020-08-08T11:27:57.926Z</time>
      </trkpt>
      <trkpt lat="38.283915" lon="-3.126222">
        <ele>705.934798</ele>
        <time>2020-08-08T11:27:59.918Z</time>
      </trkpt>
      <trkpt lat="38.283791" lon="-3.126253">
        <ele>705.680973</ele>
        <time>2020-08-08T11:28:01.926Z</time>
      </trkpt>
      <trkpt lat="38.283651" lon="-3.126266">
        <ele>705.399015</ele>
        <time>2020-08-08T11:28:03.915Z</time>
      </trkpt>
      <trkpt lat="38.283530" lon="-3.126292">
        <ele>705.152534</ele>
        <time>2020-08-08T11:28:05.909Z</time>
      </trkpt>
      <trkpt lat="38.283394" lon="-3.126300">
        <ele>704.879065</ele>
        <time>2020-08-08T11:28:07.908Z</time>
      </trkpt>
      <trkpt lat="38.283250" lon="-3.126312">
        <ele>704.589200</ele>
        <time>2020-08-08T11:28:09.920Z</time>
      </trkpt>
      <trkpt lat="38.283110" lon="-3.126320">
        <ele>704.307704</ele>
        <time>2020-08-08T11:28:11.922Z</time>
      </trkpt>
      <trkpt lat="38.282968" lon="-3.126335">
        <ele>704.036869</ele>
        <time>2020-08-08T11:28:13.935Z</time>
      </trkpt>
      <trkpt lat="38.282813" lon="-3.126349">
        <ele>704.079082</ele>
        <time>2020-08-08T11:28:15.931Z</time>
      </trkpt>
      <trkpt lat="38.282668" lon="-3.126353">
        <ele>704.118482</ele>
        <time>2020-08-08T11:28:17.931Z</time>
      </trkpt>
      <trkpt lat="38.282525" lon="-3.126380">
        <ele>704.157754</ele>
        <time>2020-08-08T11:28:19.925Z</time>
      </trkpt>
      <trkpt lat="38.282379" lon="-3.126386">
        <ele>704.197436</ele>
        <time>2020-08-08T11:28:21.937Z</time>
      </trkpt>
      <trkpt lat="38.282240" lon="-3.126395">
        <ele>704.235246</ele>
        <time>2020-08-08T11:28:23.922Z</time>
      </trkpt>
      <trkpt lat="38.282106" lon="-3.126415">
        <ele>704.271897</ele>
        <time>2020-08-08T11:28:25.931Z</time>
      </trkpt>
      <trkpt lat="38.281967" lon="-3.126444">
        <ele>704.310161</ele>
        <time>2020-08-08T11:28:27.933Z</time>
      </trkpt>
      <trkpt lat="38.281819" lon="-3.126464">
        <ele>704.350592</ele>
        <time>2020-08-08T11:28:29.944Z</time>
      </trkpt>
      <trkpt lat="38.281697" lon="-3.126498">
        <ele>704.384518</ele>
        <time>2020-08-08T11:28:31.926Z</time>
      </trkpt>
      <trkpt lat="38.281558" lon="-3.126523">
        <ele>704.422653</ele>
        <time>2020-08-08T11:28:33.939Z</time>
      </trkpt>
      <trkpt lat="38.281414" lon="-3.126545">
        <ele>704.462052</ele>
        <time>2020-08-08T11:28:35.919Z</time>
      </trkpt>
      <trkpt lat="38.281271" lon="-3.126586">
        <ele>704.501871</ele>
        <time>2020-08-08T11:28:37.941Z</time>
      </trkpt>
      <trkpt lat="38.281116" lon="-3.126596">
        <ele>704.395080</ele>
        <time>2020-08-08T11:28:39.932Z</time>
      </trkpt>
      <trkpt lat="38.280971" lon="-3.126623">
        <ele>704.143890</ele>
        <time>2020-08-08T11:28:41.922Z</time>
      </trkpt>
      <trkpt lat="38.280820" lon="-3.126645">
        <ele>703.883369</ele>
        <time>2020-08-08T11:28:43.925Z</time>
      </trkpt>
      <trkpt lat="38.280682" lon="-3.126678">
        <ele>703.642687</ele>
        <time>2020-08-08T11:28:45.914Z</time>
      </trkpt>
      <trkpt lat="38.280551" lon="-3.126714">
        <ele>703.412970</ele>
        <time>2020-08-08T11:28:47.932Z</time>
      </trkpt>
      <trkpt lat="38.280411" lon="-3.126742">
        <ele>703.170052</ele>
        <time>2020-08-08T11:28:49.934Z</time>
      </trkpt>
      <trkpt lat="38.280272" lon="-3.126762">
        <ele>702.930273</ele>
        <time>2020-08-08T11:28:51.926Z</time>
      </trkpt>
      <trkpt lat="38.280133" lon="-3.126783">
        <ele>702.690339</ele>
        <time>2020-08-08T11:28:53.932Z</time>
      </trkpt>
      <trkpt lat="38.279987" lon="-3.126798">
        <ele>702.439263</ele>
        <time>2020-08-08T11:28:55.930Z</time>
      </trkpt>
      <trkpt lat="38.279849" lon="-3.126833">
        <ele>702.198070</ele>
        <time>2020-08-08T11:28:57.935Z</time>
      </trkpt>
      <trkpt lat="38.279694" lon="-3.126858">
        <ele>701.930258</ele>
        <time>2020-08-08T11:28:59.933Z</time>
      </trkpt>
      <trkpt lat="38.279542" lon="-3.126864">
        <ele>701.669585</ele>
        <time>2020-08-08T11:29:01.948Z</time>
      </trkpt>
      <trkpt lat="38.279401" lon="-3.126898">
        <ele>701.436564</ele>
        <time>2020-08-08T11:29:03.917Z</time>
      </trkpt>
      <trkpt lat="38.279252" lon="-3.126926">
        <ele>701.375937</ele>
        <time>2020-08-08T11:29:05.937Z</time>
      </trkpt>
      <trkpt lat="38.279113" lon="-3.126959">
        <ele>701.319020</ele>
        <time>2020-08-08T11:29:07.926Z</time>
      </trkpt>
      <trkpt lat="38.278980" lon="-3.126980">
        <ele>701.265073</ele>
        <time>2020-08-08T11:29:09.937Z</time>
      </trkpt>
      <trkpt lat="38.278859" lon="-3.127020">
        <ele>701.214753</ele>
        <time>2020-08-08T11:29:11.902Z</time>
      </trkpt>
      <trkpt lat="38.278741" lon="-3.127024">
        <ele>701.167236</ele>
        <time>2020-08-08T11:29:13.938Z</time>
      </trkpt>
      <trkpt lat="38.278616" lon="-3.127040">
        <ele>701.116665</ele>
        <time>2020-08-08T11:29:15.940Z</time>
      </trkpt>
      <trkpt lat="38.278513" lon="-3.127039">
        <ele>701.075203</ele>
        <time>2020-08-08T11:29:17.922Z</time>
      </trkpt>
      <trkpt lat="38.278389" lon="-3.127036">
        <ele>701.025279</ele>
        <time>2020-08-08T11:29:19.912Z</time>
      </trkpt>
      <trkpt lat="38.278265" lon="-3.127055">
        <ele>700.975004</ele>
        <time>2020-08-08T11:29:22.935Z</time>
      </trkpt>
      <trkpt lat="38.278166" lon="-3.127064">
        <ele>700.935052</ele>
        <time>2020-08-08T11:29:24.918Z</time>
      </trkpt>
      <trkpt lat="38.278069" lon="-3.127073">
        <ele>700.895902</ele>
        <time>2020-08-08T11:29:26.929Z</time>
      </trkpt>
      <trkpt lat="38.277974" lon="-3.127091">
        <ele>700.857240</ele>
        <time>2020-08-08T11:29:28.940Z</time>
      </trkpt>
      <trkpt lat="38.277881" lon="-3.127126">
        <ele>700.818204</ele>
        <time>2020-08-08T11:29:30.926Z</time>
      </trkpt>
      <trkpt lat="38.277787" lon="-3.127156">
        <ele>700.779196</ele>
        <time>2020-08-08T11:29:32.909Z</time>
      </trkpt>
      <trkpt lat="38.277683" lon="-3.127199">
        <ele>700.735182</ele>
        <time>2020-08-08T11:29:34.932Z</time>
      </trkpt>
      <trkpt lat="38.277576" lon="-3.127217">
        <ele>700.680399</ele>
        <time>2020-08-08T11:29:36.931Z</time>
      </trkpt>
      <trkpt lat="38.277476" lon="-3.127266">
        <ele>700.617538</ele>
        <time>2020-08-08T11:29:38.931Z</time>
      </trkpt>
      <trkpt lat="38.277374" lon="-3.127297">
        <ele>700.556015</ele>
        <time>2020-08-08T11:29:40.941Z</time>
      </trkpt>
      <trkpt lat="38.277276" lon="-3.127340">
        <ele>700.495203</ele>
        <time>2020-08-08T11:29:42.933Z</time>
      </trkpt>
      <trkpt lat="38.277175" lon="-3.127382">
        <ele>700.432868</ele>
        <time>2020-08-08T11:29:44.912Z</time>
      </trkpt>
      <trkpt lat="38.277061" lon="-3.127422">
        <ele>700.363494</ele>
        <time>2020-08-08T11:29:46.919Z</time>
      </trkpt>
      <trkpt lat="38.276964" lon="-3.127461">
        <ele>700.303816</ele>
        <time>2020-08-08T11:29:48.934Z</time>
      </trkpt>
      <trkpt lat="38.276867" lon="-3.127510">
        <ele>700.242595</ele>
        <time>2020-08-08T11:29:50.917Z</time>
      </trkpt>
      <trkpt lat="38.276742" lon="-3.127527">
        <ele>700.168840</ele>
        <time>2020-08-08T11:29:52.917Z</time>
      </trkpt>
      <trkpt lat="38.276618" lon="-3.127576">
        <ele>700.092669</ele>
        <time>2020-08-08T11:29:54.939Z</time>
      </trkpt>
      <trkpt lat="38.276502" lon="-3.127624">
        <ele>700.021111</ele>
        <time>2020-08-08T11:29:56.909Z</time>
      </trkpt>
      <trkpt lat="38.276357" lon="-3.127654">
        <ele>699.934925</ele>
        <time>2020-08-08T11:29:58.925Z</time>
      </trkpt>
      <trkpt lat="38.276208" lon="-3.127685">
        <ele>699.846348</ele>
        <time>2020-08-08T11:30:00.901Z</time>
      </trkpt>
      <trkpt lat="38.276086" lon="-3.127767">
        <ele>699.765417</ele>
        <time>2020-08-08T11:30:02.902Z</time>
      </trkpt>
      <trkpt lat="38.275942" lon="-3.127806">
        <ele>699.679044</ele>
        <time>2020-08-08T11:30:04.957Z</time>
      </trkpt>
      <trkpt lat="38.275787" lon="-3.127844">
        <ele>699.471286</ele>
        <time>2020-08-08T11:30:06.928Z</time>
      </trkpt>
      <trkpt lat="38.275650" lon="-3.127888">
        <ele>699.260812</ele>
        <time>2020-08-08T11:30:08.913Z</time>
      </trkpt>
      <trkpt lat="38.275513" lon="-3.127946">
        <ele>699.045749</ele>
        <time>2020-08-08T11:30:10.899Z</time>
      </trkpt>
      <trkpt lat="38.275374" lon="-3.127997">
        <ele>698.830263</ele>
        <time>2020-08-08T11:30:12.914Z</time>
      </trkpt>
      <trkpt lat="38.275203" lon="-3.128019">
        <ele>698.574231</ele>
        <time>2020-08-08T11:30:14.912Z</time>
      </trkpt>
      <trkpt lat="38.275113" lon="-3.128021">
        <ele>698.440138</ele>
        <time>2020-08-08T11:30:15.905Z</time>
      </trkpt>
      <trkpt lat="38.275017" lon="-3.128006">
        <ele>698.296057</ele>
        <time>2020-08-08T11:30:16.905Z</time>
      </trkpt>
      <trkpt lat="38.274830" lon="-3.128010">
        <ele>698.017446</ele>
        <time>2020-08-08T11:30:18.905Z</time>
      </trkpt>
      <trkpt lat="38.274728" lon="-3.127999">
        <ele>697.864954</ele>
        <time>2020-08-08T11:30:19.909Z</time>
      </trkpt>
      <trkpt lat="38.274627" lon="-3.127996">
        <ele>697.714454</ele>
        <time>2020-08-08T11:30:20.908Z</time>
      </trkpt>
      <trkpt lat="38.274523" lon="-3.127988">
        <ele>697.559245</ele>
        <time>2020-08-08T11:30:21.913Z</time>
      </trkpt>
      <trkpt lat="38.274411" lon="-3.127966">
        <ele>697.390428</ele>
        <time>2020-08-08T11:30:22.909Z</time>
      </trkpt>
      <trkpt lat="38.274311" lon="-3.127967">
        <ele>697.241454</ele>
        <time>2020-08-08T11:30:23.911Z</time>
      </trkpt>
      <trkpt lat="38.274205" lon="-3.127964">
        <ele>697.083508</ele>
        <time>2020-08-08T11:30:24.910Z</time>
      </trkpt>
      <trkpt lat="38.274099" lon="-3.127967">
        <ele>696.996405</ele>
        <time>2020-08-08T11:30:25.912Z</time>
      </trkpt>
      <trkpt lat="38.273995" lon="-3.127964">
        <ele>697.036527</ele>
        <time>2020-08-08T11:30:26.910Z</time>
      </trkpt>
      <trkpt lat="38.273898" lon="-3.127965">
        <ele>697.073939</ele>
        <time>2020-08-08T11:30:27.927Z</time>
      </trkpt>
      <trkpt lat="38.273801" lon="-3.127959">
        <ele>697.111394</ele>
        <time>2020-08-08T11:30:28.913Z</time>
      </trkpt>
      <trkpt lat="38.273704" lon="-3.127950">
        <ele>697.148904</ele>
        <time>2020-08-08T11:30:29.910Z</time>
      </trkpt>
      <trkpt lat="38.273612" lon="-3.127955">
        <ele>697.184419</ele>
        <time>2020-08-08T11:30:30.900Z</time>
      </trkpt>
      <trkpt lat="38.273520" lon="-3.127958">
        <ele>697.219913</ele>
        <time>2020-08-08T11:30:31.918Z</time>
      </trkpt>
      <trkpt lat="38.273427" lon="-3.127956">
        <ele>697.255787</ele>
        <time>2020-08-08T11:30:32.901Z</time>
      </trkpt>
      <trkpt lat="38.273252" lon="-3.127953">
        <ele>697.323287</ele>
        <time>2020-08-08T11:30:34.906Z</time>
      </trkpt>
      <trkpt lat="38.273087" lon="-3.127983">
        <ele>697.387569</ele>
        <time>2020-08-08T11:30:36.929Z</time>
      </trkpt>
      <trkpt lat="38.272937" lon="-3.128007">
        <ele>697.445876</ele>
        <time>2020-08-08T11:30:38.915Z</time>
      </trkpt>
      <trkpt lat="38.272793" lon="-3.128035">
        <ele>697.502058</ele>
        <time>2020-08-08T11:30:40.920Z</time>
      </trkpt>
      <trkpt lat="38.272650" lon="-3.128082">
        <ele>697.559016</ele>
        <time>2020-08-08T11:30:42.916Z</time>
      </trkpt>
      <trkpt lat="38.272526" lon="-3.128098">
        <ele>697.607086</ele>
        <time>2020-08-08T11:30:44.912Z</time>
      </trkpt>
      <trkpt lat="38.272406" lon="-3.128126">
        <ele>697.654137</ele>
        <time>2020-08-08T11:30:46.911Z</time>
      </trkpt>
      <trkpt lat="38.272292" lon="-3.128130">
        <ele>697.625558</ele>
        <time>2020-08-08T11:30:48.907Z</time>
      </trkpt>
      <trkpt lat="38.272181" lon="-3.128142">
        <ele>697.530469</ele>
        <time>2020-08-08T11:30:50.926Z</time>
      </trkpt>
      <trkpt lat="38.272085" lon="-3.128149">
        <ele>697.448391</ele>
        <time>2020-08-08T11:30:52.901Z</time>
      </trkpt>
      <trkpt lat="38.271967" lon="-3.128202">
        <ele>697.341589</ele>
        <time>2020-08-08T11:30:55.929Z</time>
      </trkpt>
      <trkpt lat="38.271850" lon="-3.128209">
        <ele>697.241610</ele>
        <time>2020-08-08T11:30:58.903Z</time>
      </trkpt>
      <trkpt lat="38.271744" lon="-3.128219">
        <ele>697.150882</ele>
        <time>2020-08-08T11:31:01.901Z</time>
      </trkpt>
      <trkpt lat="38.271636" lon="-3.128243">
        <ele>697.057302</ele>
        <time>2020-08-08T11:31:04.931Z</time>
      </trkpt>
      <trkpt lat="38.271518" lon="-3.128254">
        <ele>696.956310</ele>
        <time>2020-08-08T11:31:07.906Z</time>
      </trkpt>
      <trkpt lat="38.271415" lon="-3.128277">
        <ele>696.867050</ele>
        <time>2020-08-08T11:31:10.904Z</time>
      </trkpt>
      <trkpt lat="38.271324" lon="-3.128304">
        <ele>696.787294</ele>
        <time>2020-08-08T11:31:13.935Z</time>
      </trkpt>
      <trkpt lat="38.271229" lon="-3.128330">
        <ele>696.704353</ele>
        <time>2020-08-08T11:31:16.924Z</time>
      </trkpt>
      <trkpt lat="38.271139" lon="-3.128352">
        <ele>696.626128</ele>
        <time>2020-08-08T11:31:19.917Z</time>
      </trkpt>
      <trkpt lat="38.271048" lon="-3.128369">
        <ele>696.547621</ele>
        <time>2020-08-08T11:31:22.911Z</time>
      </trkpt>
      <trkpt lat="38.270935" lon="-3.128388">
        <ele>696.450329</ele>
        <time>2020-08-08T11:31:26.905Z</time>
      </trkpt>
      <trkpt lat="38.270825" lon="-3.128419">
        <ele>696.354164</ele>
        <time>2020-08-08T11:31:30.904Z</time>
      </trkpt>
      <trkpt lat="38.270732" lon="-3.128435">
        <ele>696.274060</ele>
        <time>2020-08-08T11:31:33.904Z</time>
      </trkpt>
      <trkpt lat="38.270642" lon="-3.128454">
        <ele>696.196189</ele>
        <time>2020-08-08T11:31:36.896Z</time>
      </trkpt>
      <trkpt lat="38.270530" lon="-3.128464">
        <ele>696.305703</ele>
        <time>2020-08-08T11:31:40.908Z</time>
      </trkpt>
      <trkpt lat="38.270416" lon="-3.128472">
        <ele>696.709932</ele>
        <time>2020-08-08T11:31:44.901Z</time>
      </trkpt>
      <trkpt lat="38.270305" lon="-3.128471">
        <ele>697.102937</ele>
        <time>2020-08-08T11:31:48.902Z</time>
      </trkpt>
      <trkpt lat="38.270214" lon="-3.128467">
        <ele>697.425313</ele>
        <time>2020-08-08T11:31:51.905Z</time>
      </trkpt>
      <trkpt lat="38.270122" lon="-3.128458">
        <ele>697.751998</ele>
        <time>2020-08-08T11:31:54.894Z</time>
      </trkpt>
      <trkpt lat="38.270032" lon="-3.128440">
        <ele>698.074547</ele>
        <time>2020-08-08T11:31:57.916Z</time>
      </trkpt>
      <trkpt lat="38.269942" lon="-3.128421">
        <ele>698.397539</ele>
        <time>2020-08-08T11:32:00.914Z</time>
      </trkpt>
      <trkpt lat="38.269850" lon="-3.128404">
        <ele>698.726674</ele>
        <time>2020-08-08T11:32:03.909Z</time>
      </trkpt>
      <trkpt lat="38.269736" lon="-3.128372">
        <ele>699.139976</ele>
        <time>2020-08-08T11:32:07.901Z</time>
      </trkpt>
      <trkpt lat="38.269623" lon="-3.128335">
        <ele>699.553060</ele>
        <time>2020-08-08T11:32:11.901Z</time>
      </trkpt>
      <trkpt lat="38.269513" lon="-3.128306">
        <ele>699.950769</ele>
        <time>2020-08-08T11:32:15.895Z</time>
      </trkpt>
      <trkpt lat="38.269425" lon="-3.128279">
        <ele>700.271245</ele>
        <time>2020-08-08T11:32:18.912Z</time>
      </trkpt>
      <trkpt lat="38.269309" lon="-3.128242">
        <ele>700.694624</ele>
        <time>2020-08-08T11:32:22.919Z</time>
      </trkpt>
      <trkpt lat="38.269221" lon="-3.128217">
        <ele>701.013844</ele>
        <time>2020-08-08T11:32:25.891Z</time>
      </trkpt>
      <trkpt lat="38.269132" lon="-3.128194">
        <ele>701.335368</ele>
        <time>2020-08-08T11:32:28.912Z</time>
      </trkpt>
      <trkpt lat="38.269041" lon="-3.128174">
        <ele>701.662315</ele>
        <time>2020-08-08T11:32:31.913Z</time>
      </trkpt>
      <trkpt lat="38.268949" lon="-3.128153">
        <ele>701.993229</ele>
        <time>2020-08-08T11:32:34.897Z</time>
      </trkpt>
      <trkpt lat="38.268854" lon="-3.128126">
        <ele>702.337848</ele>
        <time>2020-08-08T11:32:37.905Z</time>
      </trkpt>
      <trkpt lat="38.268755" lon="-3.128095">
        <ele>702.503210</ele>
        <time>2020-08-08T11:32:40.918Z</time>
      </trkpt>
      <trkpt lat="38.268660" lon="-3.128074">
        <ele>702.494029</ele>
        <time>2020-08-08T11:32:43.913Z</time>
      </trkpt>
      <trkpt lat="38.268542" lon="-3.128062">
        <ele>702.482758</ele>
        <time>2020-08-08T11:32:47.918Z</time>
      </trkpt>
      <trkpt lat="38.268423" lon="-3.128045">
        <ele>702.471355</ele>
        <time>2020-08-08T11:32:51.911Z</time>
      </trkpt>
      <trkpt lat="38.268328" lon="-3.128023">
        <ele>702.462161</ele>
        <time>2020-08-08T11:32:54.905Z</time>
      </trkpt>
      <trkpt lat="38.268237" lon="-3.128016">
        <ele>702.453480</ele>
        <time>2020-08-08T11:32:57.905Z</time>
      </trkpt>
      <trkpt lat="38.268143" lon="-3.128008">
        <ele>702.444510</ele>
        <time>2020-08-08T11:33:00.928Z</time>
      </trkpt>
      <trkpt lat="38.268048" lon="-3.128006">
        <ele>702.435463</ele>
        <time>2020-08-08T11:33:03.905Z</time>
      </trkpt>
      <trkpt lat="38.267954" lon="-3.128015">
        <ele>702.426487</ele>
        <time>2020-08-08T11:33:06.912Z</time>
      </trkpt>
      <trkpt lat="38.267863" lon="-3.128030">
        <ele>702.417749</ele>
        <time>2020-08-08T11:33:09.911Z</time>
      </trkpt>
      <trkpt lat="38.267764" lon="-3.128050">
        <ele>702.408205</ele>
        <time>2020-08-08T11:33:12.910Z</time>
      </trkpt>
      <trkpt lat="38.267667" lon="-3.128071">
        <ele>702.398836</ele>
        <time>2020-08-08T11:33:15.931Z</time>
      </trkpt>
      <trkpt lat="38.267545" lon="-3.128097">
        <ele>702.387058</ele>
        <time>2020-08-08T11:33:19.901Z</time>
      </trkpt>
      <trkpt lat="38.267447" lon="-3.128130">
        <ele>702.377405</ele>
        <time>2020-08-08T11:33:22.911Z</time>
      </trkpt>
      <trkpt lat="38.267335" lon="-3.128175">
        <ele>702.366223</ele>
        <time>2020-08-08T11:33:26.889Z</time>
      </trkpt>
      <trkpt lat="38.267222" lon="-3.128201">
        <ele>702.355289</ele>
        <time>2020-08-08T11:33:30.902Z</time>
      </trkpt>
      <trkpt lat="38.267114" lon="-3.128207">
        <ele>702.344995</ele>
        <time>2020-08-08T11:33:33.897Z</time>
      </trkpt>
      <trkpt lat="38.267024" lon="-3.128227">
        <ele>702.336754</ele>
        <time>2020-08-08T11:33:36.903Z</time>
      </trkpt>
      <trkpt lat="38.266906" lon="-3.128239">
        <ele>702.332185</ele>
        <time>2020-08-08T11:33:40.913Z</time>
      </trkpt>
      <trkpt lat="38.266792" lon="-3.128255">
        <ele>702.327759</ele>
        <time>2020-08-08T11:33:44.919Z</time>
      </trkpt>
      <trkpt lat="38.266692" lon="-3.128272">
        <ele>702.323865</ele>
        <time>2020-08-08T11:33:47.907Z</time>
      </trkpt>
      <trkpt lat="38.266597" lon="-3.128305">
        <ele>702.320064</ele>
        <time>2020-08-08T11:33:50.901Z</time>
      </trkpt>
      <trkpt lat="38.266495" lon="-3.128330">
        <ele>702.316055</ele>
        <time>2020-08-08T11:33:53.912Z</time>
      </trkpt>
      <trkpt lat="38.266385" lon="-3.128362">
        <ele>702.311701</ele>
        <time>2020-08-08T11:33:56.904Z</time>
      </trkpt>
      <trkpt lat="38.266256" lon="-3.128396">
        <ele>702.306616</ele>
        <time>2020-08-08T11:33:59.895Z</time>
      </trkpt>
      <trkpt lat="38.266165" lon="-3.128423">
        <ele>702.303010</ele>
        <time>2020-08-08T11:34:01.906Z</time>
      </trkpt>
      <trkpt lat="38.266072" lon="-3.128461">
        <ele>702.299241</ele>
        <time>2020-08-08T11:34:03.921Z</time>
      </trkpt>
      <trkpt lat="38.265941" lon="-3.128519">
        <ele>702.293888</ele>
        <time>2020-08-08T11:34:06.916Z</time>
      </trkpt>
      <trkpt lat="38.265838" lon="-3.128541">
        <ele>702.289857</ele>
        <time>2020-08-08T11:34:08.896Z</time>
      </trkpt>
      <trkpt lat="38.265736" lon="-3.128561">
        <ele>702.285874</ele>
        <time>2020-08-08T11:34:10.910Z</time>
      </trkpt>
      <trkpt lat="38.265635" lon="-3.128608">
        <ele>702.281724</ele>
        <time>2020-08-08T11:34:12.923Z</time>
      </trkpt>
      <trkpt lat="38.265517" lon="-3.128635">
        <ele>702.277097</ele>
        <time>2020-08-08T11:34:14.922Z</time>
      </trkpt>
      <trkpt lat="38.265402" lon="-3.128666">
        <ele>702.272560</ele>
        <time>2020-08-08T11:34:16.949Z</time>
      </trkpt>
      <trkpt lat="38.265281" lon="-3.128697">
        <ele>702.267796</ele>
        <time>2020-08-08T11:34:18.924Z</time>
      </trkpt>
      <trkpt lat="38.265172" lon="-3.128726">
        <ele>702.221133</ele>
        <time>2020-08-08T11:34:20.893Z</time>
      </trkpt>
      <trkpt lat="38.265057" lon="-3.128744">
        <ele>702.170991</ele>
        <time>2020-08-08T11:34:22.922Z</time>
      </trkpt>
      <trkpt lat="38.264954" lon="-3.128781">
        <ele>702.124678</ele>
        <time>2020-08-08T11:34:24.899Z</time>
      </trkpt>
      <trkpt lat="38.264833" lon="-3.128800">
        <ele>702.071917</ele>
        <time>2020-08-08T11:34:26.917Z</time>
      </trkpt>
      <trkpt lat="38.264732" lon="-3.128830">
        <ele>702.027035</ele>
        <time>2020-08-08T11:34:28.910Z</time>
      </trkpt>
      <trkpt lat="38.264616" lon="-3.128865">
        <ele>701.975445</ele>
        <time>2020-08-08T11:34:30.920Z</time>
      </trkpt>
      <trkpt lat="38.264505" lon="-3.128908">
        <ele>701.925236</ele>
        <time>2020-08-08T11:34:32.914Z</time>
      </trkpt>
      <trkpt lat="38.264397" lon="-3.128934">
        <ele>701.877670</ele>
        <time>2020-08-08T11:34:34.899Z</time>
      </trkpt>
      <trkpt lat="38.264272" lon="-3.128956">
        <ele>701.823061</ele>
        <time>2020-08-08T11:34:36.911Z</time>
      </trkpt>
      <trkpt lat="38.264159" lon="-3.128990">
        <ele>701.772813</ele>
        <time>2020-08-08T11:34:38.919Z</time>
      </trkpt>
      <trkpt lat="38.264047" lon="-3.129017">
        <ele>701.723483</ele>
        <time>2020-08-08T11:34:40.918Z</time>
      </trkpt>
      <trkpt lat="38.263940" lon="-3.129062">
        <ele>701.674718</ele>
        <time>2020-08-08T11:34:43.918Z</time>
      </trkpt>
      <trkpt lat="38.263818" lon="-3.129060">
        <ele>701.621917</ele>
        <time>2020-08-08T11:34:46.915Z</time>
      </trkpt>
      <trkpt lat="38.263717" lon="-3.129082">
        <ele>701.577574</ele>
        <time>2020-08-08T11:34:49.913Z</time>
      </trkpt>
      <trkpt lat="38.263613" lon="-3.129109">
        <ele>701.531641</ele>
        <time>2020-08-08T11:34:53.920Z</time>
      </trkpt>
      <trkpt lat="38.263519" lon="-3.129123">
        <ele>701.490684</ele>
        <time>2020-08-08T11:34:57.900Z</time>
      </trkpt>
      <trkpt lat="38.263409" lon="-3.129151">
        <ele>702.040119</ele>
        <time>2020-08-08T11:35:02.899Z</time>
      </trkpt>
      <trkpt lat="38.263310" lon="-3.129189">
        <ele>702.563177</ele>
        <time>2020-08-08T11:35:06.919Z</time>
      </trkpt>
      <trkpt lat="38.263211" lon="-3.129208">
        <ele>703.069640</ele>
        <time>2020-08-08T11:35:10.914Z</time>
      </trkpt>
      <trkpt lat="38.263115" lon="-3.129228">
        <ele>703.561726</ele>
        <time>2020-08-08T11:35:14.904Z</time>
      </trkpt>
      <trkpt lat="38.263012" lon="-3.129248">
        <ele>704.088790</ele>
        <time>2020-08-08T11:35:19.892Z</time>
      </trkpt>
      <trkpt lat="38.262921" lon="-3.129267">
        <ele>704.555274</ele>
        <time>2020-08-08T11:35:24.907Z</time>
      </trkpt>
      <trkpt lat="38.262816" lon="-3.129292">
        <ele>705.095636</ele>
        <time>2020-08-08T11:35:29.936Z</time>
      </trkpt>
      <trkpt lat="38.262725" lon="-3.129315">
        <ele>705.564952</ele>
        <time>2020-08-08T11:35:33.920Z</time>
      </trkpt>
      <trkpt lat="38.262619" lon="-3.129325">
        <ele>706.102640</ele>
        <time>2020-08-08T11:35:38.894Z</time>
      </trkpt>
      <trkpt lat="38.262527" lon="-3.129345">
        <ele>706.574769</ele>
        <time>2020-08-08T11:35:42.947Z</time>
      </trkpt>
      <trkpt lat="38.262428" lon="-3.129375">
        <ele>707.089558</ele>
        <time>2020-08-08T11:35:48.893Z</time>
      </trkpt>
      <trkpt lat="38.262326" lon="-3.129406">
        <ele>707.620030</ele>
        <time>2020-08-08T11:35:54.916Z</time>
      </trkpt>
      <trkpt lat="38.262224" lon="-3.129407">
        <ele>708.136030</ele>
        <time>2020-08-08T11:35:59.900Z</time>
      </trkpt>
      <trkpt lat="38.262113" lon="-3.129408">
        <ele>708.697556</ele>
        <time>2020-08-08T11:36:04.926Z</time>
      </trkpt>
      <trkpt lat="38.262013" lon="-3.129389">
        <ele>709.209022</ele>
        <time>2020-08-08T11:36:09.928Z</time>
      </trkpt>
      <trkpt lat="38.261907" lon="-3.129344">
        <ele>709.774246</ele>
        <time>2020-08-08T11:36:14.914Z</time>
      </trkpt>
      <trkpt lat="38.261803" lon="-3.129295">
        <ele>710.335195</ele>
        <time>2020-08-08T11:36:20.927Z</time>
      </trkpt>
      <trkpt lat="38.261712" lon="-3.129242">
        <ele>710.741869</ele>
        <time>2020-08-08T11:36:25.936Z</time>
      </trkpt>
      <trkpt lat="38.261625" lon="-3.129186">
        <ele>711.041314</ele>
        <time>2020-08-08T11:36:30.907Z</time>
      </trkpt>
      <trkpt lat="38.261541" lon="-3.129096">
        <ele>711.378517</ele>
        <time>2020-08-08T11:36:36.917Z</time>
      </trkpt>
      <trkpt lat="38.261464" lon="-3.129003">
        <ele>711.704501</ele>
        <time>2020-08-08T11:36:42.916Z</time>
      </trkpt>
      <trkpt lat="38.261402" lon="-3.128898">
        <ele>712.021382</ele>
        <time>2020-08-08T11:36:48.916Z</time>
      </trkpt>
      <trkpt lat="38.261363" lon="-3.128780">
        <ele>712.330184</ele>
        <time>2020-08-08T11:36:54.918Z</time>
      </trkpt>
      <trkpt lat="38.261304" lon="-3.128663">
        <ele>712.665575</ele>
        <time>2020-08-08T11:37:00.911Z</time>
      </trkpt>
      <trkpt lat="38.261264" lon="-3.128532">
        <ele>713.004598</ele>
        <time>2020-08-08T11:37:05.899Z</time>
      </trkpt>
      <trkpt lat="38.261228" lon="-3.128397">
        <ele>713.348485</ele>
        <time>2020-08-08T11:37:10.916Z</time>
      </trkpt>
      <trkpt lat="38.261202" lon="-3.128286">
        <ele>713.627877</ele>
        <time>2020-08-08T11:37:14.923Z</time>
      </trkpt>
      <trkpt lat="38.261186" lon="-3.128152">
        <ele>713.954802</ele>
        <time>2020-08-08T11:37:19.933Z</time>
      </trkpt>
      <trkpt lat="38.261167" lon="-3.128030">
        <ele>714.254799</ele>
        <time>2020-08-08T11:37:24.902Z</time>
      </trkpt>
      <trkpt lat="38.261148" lon="-3.127903">
        <ele>714.566635</ele>
        <time>2020-08-08T11:37:29.909Z</time>
      </trkpt>
      <trkpt lat="38.261133" lon="-3.127763">
        <ele>714.907445</ele>
        <time>2020-08-08T11:37:34.910Z</time>
      </trkpt>
      <trkpt lat="38.261113" lon="-3.127650">
        <ele>715.186841</ele>
        <time>2020-08-08T11:37:38.909Z</time>
      </trkpt>
      <trkpt lat="38.261099" lon="-3.127531">
        <ele>715.477074</ele>
        <time>2020-08-08T11:37:42.898Z</time>
      </trkpt>
      <trkpt lat="38.261104" lon="-3.127394">
        <ele>715.807876</ele>
        <time>2020-08-08T11:37:47.908Z</time>
      </trkpt>
      <trkpt lat="38.261119" lon="-3.127271">
        <ele>716.108110</ele>
        <time>2020-08-08T11:37:51.911Z</time>
      </trkpt>
      <trkpt lat="38.261141" lon="-3.127159">
        <ele>716.471186</ele>
        <time>2020-08-08T11:37:56.906Z</time>
      </trkpt>
      <trkpt lat="38.261156" lon="-3.127046">
        <ele>716.833150</ele>
        <time>2020-08-08T11:38:01.898Z</time>
      </trkpt>
      <trkpt lat="38.261154" lon="-3.126926">
        <ele>717.212244</ele>
        <time>2020-08-08T11:38:06.915Z</time>
      </trkpt>
      <trkpt lat="38.261154" lon="-3.126786">
        <ele>717.654421</ele>
        <time>2020-08-08T11:38:12.899Z</time>
      </trkpt>
      <trkpt lat="38.261171" lon="-3.126666">
        <ele>718.039549</ele>
        <time>2020-08-08T11:38:18.913Z</time>
      </trkpt>
      <trkpt lat="38.261224" lon="-3.126547">
        <ele>718.471652</ele>
        <time>2020-08-08T11:38:24.918Z</time>
      </trkpt>
      <trkpt lat="38.261273" lon="-3.126430">
        <ele>718.890463</ele>
        <time>2020-08-08T11:38:29.908Z</time>
      </trkpt>
      <trkpt lat="38.261314" lon="-3.126323">
        <ele>719.266506</ele>
        <time>2020-08-08T11:38:33.920Z</time>
      </trkpt>
      <trkpt lat="38.261362" lon="-3.126199">
        <ele>719.703154</ele>
        <time>2020-08-08T11:38:38.891Z</time>
      </trkpt>
      <trkpt lat="38.261399" lon="-3.126090">
        <ele>720.078213</ele>
        <time>2020-08-08T11:38:43.918Z</time>
      </trkpt>
      <trkpt lat="38.261412" lon="-3.125964">
        <ele>720.479591</ele>
        <time>2020-08-08T11:38:48.897Z</time>
      </trkpt>
      <trkpt lat="38.261422" lon="-3.125841">
        <ele>720.870151</ele>
        <time>2020-08-08T11:38:53.924Z</time>
      </trkpt>
      <trkpt lat="38.261435" lon="-3.125723">
        <ele>721.246492</ele>
        <time>2020-08-08T11:38:58.916Z</time>
      </trkpt>
      <trkpt lat="38.261445" lon="-3.125607">
        <ele>721.615067</ele>
        <time>2020-08-08T11:39:03.904Z</time>
      </trkpt>
      <trkpt lat="38.261456" lon="-3.125478">
        <ele>722.024895</ele>
        <time>2020-08-08T11:39:08.917Z</time>
      </trkpt>
      <trkpt lat="38.261466" lon="-3.125347">
        <ele>722.440595</ele>
        <time>2020-08-08T11:39:13.919Z</time>
      </trkpt>
      <trkpt lat="38.261456" lon="-3.125213">
        <ele>722.865727</ele>
        <time>2020-08-08T11:39:18.891Z</time>
      </trkpt>
      <trkpt lat="38.261438" lon="-3.125074">
        <ele>723.310674</ele>
        <time>2020-08-08T11:39:23.920Z</time>
      </trkpt>
      <trkpt lat="38.261437" lon="-3.124946">
        <ele>723.600823</ele>
        <time>2020-08-08T11:39:28.932Z</time>
      </trkpt>
      <trkpt lat="38.261440" lon="-3.124829">
        <ele>723.855514</ele>
        <time>2020-08-08T11:39:32.912Z</time>
      </trkpt>
      <trkpt lat="38.261430" lon="-3.124699">
        <ele>724.139707</ele>
        <time>2020-08-08T11:39:37.899Z</time>
      </trkpt>
      <trkpt lat="38.261431" lon="-3.124570">
        <ele>724.420384</ele>
        <time>2020-08-08T11:39:42.913Z</time>
      </trkpt>
      <trkpt lat="38.261441" lon="-3.124451">
        <ele>724.680769</ele>
        <time>2020-08-08T11:39:46.914Z</time>
      </trkpt>
      <trkpt lat="38.261452" lon="-3.124333">
        <ele>724.939302</ele>
        <time>2020-08-08T11:39:50.918Z</time>
      </trkpt>
      <trkpt lat="38.261439" lon="-3.124197">
        <ele>725.237380</ele>
        <time>2020-08-08T11:39:55.904Z</time>
      </trkpt>
      <trkpt lat="38.261435" lon="-3.124075">
        <ele>725.503045</ele>
        <time>2020-08-08T11:39:59.902Z</time>
      </trkpt>
      <trkpt lat="38.261424" lon="-3.123954">
        <ele>725.768061</ele>
        <time>2020-08-08T11:40:04.944Z</time>
      </trkpt>
      <trkpt lat="38.261413" lon="-3.123829">
        <ele>726.041725</ele>
        <time>2020-08-08T11:40:10.939Z</time>
      </trkpt>
      <trkpt lat="38.261407" lon="-3.123693">
        <ele>726.338084</ele>
        <time>2020-08-08T11:40:15.907Z</time>
      </trkpt>
      <trkpt lat="38.261395" lon="-3.123574">
        <ele>726.599117</ele>
        <time>2020-08-08T11:40:20.924Z</time>
      </trkpt>
      <trkpt lat="38.261369" lon="-3.123454">
        <ele>726.869957</ele>
        <time>2020-08-08T11:40:25.913Z</time>
      </trkpt>
      <trkpt lat="38.261323" lon="-3.123328">
        <ele>727.172277</ele>
        <time>2020-08-08T11:40:30.915Z</time>
      </trkpt>
      <trkpt lat="38.261279" lon="-3.123196">
        <ele>727.484275</ele>
        <time>2020-08-08T11:40:35.902Z</time>
      </trkpt>
      <trkpt lat="38.261239" lon="-3.123069">
        <ele>727.781988</ele>
        <time>2020-08-08T11:40:41.035Z</time>
      </trkpt>
      <trkpt lat="38.261201" lon="-3.122951">
        <ele>728.059473</ele>
        <time>2020-08-08T11:40:45.912Z</time>
      </trkpt>
      <trkpt lat="38.261180" lon="-3.122838">
        <ele>728.312119</ele>
        <time>2020-08-08T11:40:49.917Z</time>
      </trkpt>
      <trkpt lat="38.261151" lon="-3.122728">
        <ele>728.468950</ele>
        <time>2020-08-08T11:40:53.908Z</time>
      </trkpt>
      <trkpt lat="38.261121" lon="-3.122613">
        <ele>728.624223</ele>
        <time>2020-08-08T11:40:57.940Z</time>
      </trkpt>
      <trkpt lat="38.261071" lon="-3.122489">
        <ele>728.802834</ele>
        <time>2020-08-08T11:41:02.911Z</time>
      </trkpt>
      <trkpt lat="38.261032" lon="-3.122360">
        <ele>728.979955</ele>
        <time>2020-08-08T11:41:07.895Z</time>
      </trkpt>
      <trkpt lat="38.260994" lon="-3.122238">
        <ele>729.148128</ele>
        <time>2020-08-08T11:41:12.899Z</time>
      </trkpt>
      <trkpt lat="38.260963" lon="-3.122131">
        <ele>729.294266</ele>
        <time>2020-08-08T11:41:16.908Z</time>
      </trkpt>
      <trkpt lat="38.260924" lon="-3.121998">
        <ele>729.476180</ele>
        <time>2020-08-08T11:41:21.934Z</time>
      </trkpt>
      <trkpt lat="38.260896" lon="-3.121887">
        <ele>729.625568</ele>
        <time>2020-08-08T11:41:25.916Z</time>
      </trkpt>
      <trkpt lat="38.260870" lon="-3.121775">
        <ele>729.775218</ele>
        <time>2020-08-08T11:41:29.904Z</time>
      </trkpt>
      <trkpt lat="38.260849" lon="-3.121655">
        <ele>729.932751</ele>
        <time>2020-08-08T11:41:33.903Z</time>
      </trkpt>
      <trkpt lat="38.260785" lon="-3.121567">
        <ele>730.086445</ele>
        <time>2020-08-08T11:41:38.902Z</time>
      </trkpt>
      <trkpt lat="38.260732" lon="-3.121463">
        <ele>730.245311</ele>
        <time>2020-08-08T11:41:43.903Z</time>
      </trkpt>
      <trkpt lat="38.260692" lon="-3.121344">
        <ele>730.411174</ele>
        <time>2020-08-08T11:41:49.923Z</time>
      </trkpt>
      <trkpt lat="38.260660" lon="-3.121231">
        <ele>730.565095</ele>
        <time>2020-08-08T11:41:54.955Z</time>
      </trkpt>
      <trkpt lat="38.260635" lon="-3.121115">
        <ele>730.719227</ele>
        <time>2020-08-08T11:41:59.910Z</time>
      </trkpt>
      <trkpt lat="38.260592" lon="-3.120994">
        <ele>730.889410</ele>
        <time>2020-08-08T11:42:04.904Z</time>
      </trkpt>
      <trkpt lat="38.260547" lon="-3.120865">
        <ele>731.070281</ele>
        <time>2020-08-08T11:42:09.930Z</time>
      </trkpt>
      <trkpt lat="38.260532" lon="-3.120727">
        <ele>731.248792</ele>
        <time>2020-08-08T11:42:14.948Z</time>
      </trkpt>
      <trkpt lat="38.260523" lon="-3.120602">
        <ele>731.550499</ele>
        <time>2020-08-08T11:42:19.898Z</time>
      </trkpt>
      <trkpt lat="38.260513" lon="-3.120465">
        <ele>731.901028</ele>
        <time>2020-08-08T11:42:25.899Z</time>
      </trkpt>
      <trkpt lat="38.260486" lon="-3.120339">
        <ele>732.233767</ele>
        <time>2020-08-08T11:42:30.895Z</time>
      </trkpt>
      <trkpt lat="38.260468" lon="-3.120214">
        <ele>732.557531</ele>
        <time>2020-08-08T11:42:35.912Z</time>
      </trkpt>
      <trkpt lat="38.260446" lon="-3.120077">
        <ele>732.913779</ele>
        <time>2020-08-08T11:42:40.907Z</time>
      </trkpt>
      <trkpt lat="38.260390" lon="-3.119973">
        <ele>733.235046</ele>
        <time>2020-08-08T11:42:45.917Z</time>
      </trkpt>
      <trkpt lat="38.260370" lon="-3.120095">
        <ele>733.552558</ele>
        <time>2020-08-08T11:42:52.907Z</time>
      </trkpt>
      <trkpt lat="38.260415" lon="-3.120218">
        <ele>733.898261</ele>
        <time>2020-08-08T11:42:57.923Z</time>
      </trkpt>
      <trkpt lat="38.260452" lon="-3.120327">
        <ele>734.200790</ele>
        <time>2020-08-08T11:43:01.928Z</time>
      </trkpt>
      <trkpt lat="38.260482" lon="-3.120438">
        <ele>734.499859</ele>
        <time>2020-08-08T11:43:05.924Z</time>
      </trkpt>
      <trkpt lat="38.260525" lon="-3.120555">
        <ele>734.828965</ele>
        <time>2020-08-08T11:43:10.902Z</time>
      </trkpt>
      <trkpt lat="38.260555" lon="-3.120671">
        <ele>735.140106</ele>
        <time>2020-08-08T11:43:15.931Z</time>
      </trkpt>
      <trkpt lat="38.260584" lon="-3.120802">
        <ele>735.486854</ele>
        <time>2020-08-08T11:43:21.910Z</time>
      </trkpt>
      <trkpt lat="38.260598" lon="-3.120937">
        <ele>735.833769</ele>
        <time>2020-08-08T11:43:26.912Z</time>
      </trkpt>
      <trkpt lat="38.260603" lon="-3.121062">
        <ele>736.152634</ele>
        <time>2020-08-08T11:43:30.892Z</time>
      </trkpt>
      <trkpt lat="38.260599" lon="-3.121192">
        <ele>736.484078</ele>
        <time>2020-08-08T11:43:34.902Z</time>
      </trkpt>
      <trkpt lat="38.260601" lon="-3.121314">
        <ele>736.794955</ele>
        <time>2020-08-08T11:43:38.889Z</time>
      </trkpt>
      <trkpt lat="38.260608" lon="-3.121444">
        <ele>737.111627</ele>
        <time>2020-08-08T11:43:43.910Z</time>
      </trkpt>
      <trkpt lat="38.260605" lon="-3.121570">
        <ele>737.228714</ele>
        <time>2020-08-08T11:43:47.932Z</time>
      </trkpt>
      <trkpt lat="38.260609" lon="-3.121686">
        <ele>737.336564</ele>
        <time>2020-08-08T11:43:51.956Z</time>
      </trkpt>
      <trkpt lat="38.260606" lon="-3.121801">
        <ele>737.443440</ele>
        <time>2020-08-08T11:43:55.900Z</time>
      </trkpt>
      <trkpt lat="38.260581" lon="-3.121941">
        <ele>737.576798</ele>
        <time>2020-08-08T11:44:00.912Z</time>
      </trkpt>
      <trkpt lat="38.260575" lon="-3.122068">
        <ele>737.694974</ele>
        <time>2020-08-08T11:44:04.912Z</time>
      </trkpt>
      <trkpt lat="38.260554" lon="-3.122207">
        <ele>737.826452</ele>
        <time>2020-08-08T11:44:09.915Z</time>
      </trkpt>
      <trkpt lat="38.260525" lon="-3.122326">
        <ele>737.942185</ele>
        <time>2020-08-08T11:44:13.899Z</time>
      </trkpt>
      <trkpt lat="38.260486" lon="-3.122452">
        <ele>738.067984</ele>
        <time>2020-08-08T11:44:17.893Z</time>
      </trkpt>
      <trkpt lat="38.260446" lon="-3.122574">
        <ele>738.190785</ele>
        <time>2020-08-08T11:44:21.891Z</time>
      </trkpt>
      <trkpt lat="38.260418" lon="-3.122696">
        <ele>738.308846</ele>
        <time>2020-08-08T11:44:25.906Z</time>
      </trkpt>
      <trkpt lat="38.260403" lon="-3.122811">
        <ele>738.417126</ele>
        <time>2020-08-08T11:44:29.907Z</time>
      </trkpt>
      <trkpt lat="38.260375" lon="-3.122943">
        <ele>738.544129</ele>
        <time>2020-08-08T11:44:34.894Z</time>
      </trkpt>
      <trkpt lat="38.260339" lon="-3.123073">
        <ele>738.672168</ele>
        <time>2020-08-08T11:44:40.888Z</time>
      </trkpt>
      <trkpt lat="38.260304" lon="-3.123190">
        <ele>738.788463</ele>
        <time>2020-08-08T11:44:45.903Z</time>
      </trkpt>
      <trkpt lat="38.260258" lon="-3.123289">
        <ele>738.895312</ele>
        <time>2020-08-08T11:44:50.910Z</time>
      </trkpt>
      <trkpt lat="38.260215" lon="-3.123400">
        <ele>739.010279</ele>
        <time>2020-08-08T11:44:55.893Z</time>
      </trkpt>
      <trkpt lat="38.260178" lon="-3.123511">
        <ele>739.122287</ele>
        <time>2020-08-08T11:45:00.907Z</time>
      </trkpt>
      <trkpt lat="38.260125" lon="-3.123621">
        <ele>739.238885</ele>
        <time>2020-08-08T11:45:05.919Z</time>
      </trkpt>
      <trkpt lat="38.260091" lon="-3.123747">
        <ele>739.327789</ele>
        <time>2020-08-08T11:45:09.935Z</time>
      </trkpt>
      <trkpt lat="38.260063" lon="-3.123870">
        <ele>739.413245</ele>
        <time>2020-08-08T11:45:13.917Z</time>
      </trkpt>
      <trkpt lat="38.260044" lon="-3.124007">
        <ele>739.506079</ele>
        <time>2020-08-08T11:45:17.915Z</time>
      </trkpt>
      <trkpt lat="38.260052" lon="-3.124147">
        <ele>739.599746</ele>
        <time>2020-08-08T11:45:21.898Z</time>
      </trkpt>
      <trkpt lat="38.260074" lon="-3.124269">
        <ele>739.683274</ele>
        <time>2020-08-08T11:45:25.888Z</time>
      </trkpt>
      <trkpt lat="38.260120" lon="-3.124388">
        <ele>739.771782</ele>
        <time>2020-08-08T11:45:29.901Z</time>
      </trkpt>
      <trkpt lat="38.260156" lon="-3.124507">
        <ele>739.856879</ele>
        <time>2020-08-08T11:45:34.889Z</time>
      </trkpt>
      <trkpt lat="38.260198" lon="-3.124612">
        <ele>739.935511</ele>
        <time>2020-08-08T11:45:38.900Z</time>
      </trkpt>
      <trkpt lat="38.260243" lon="-3.124755">
        <ele>740.038311</ele>
        <time>2020-08-08T11:45:42.905Z</time>
      </trkpt>
      <trkpt lat="38.260263" lon="-3.124902">
        <ele>740.137863</ele>
        <time>2020-08-08T11:45:45.896Z</time>
      </trkpt>
      <trkpt lat="38.260258" lon="-3.125067">
        <ele>740.248047</ele>
        <time>2020-08-08T11:45:48.909Z</time>
      </trkpt>
      <trkpt lat="38.260233" lon="-3.125233">
        <ele>740.360836</ele>
        <time>2020-08-08T11:45:51.910Z</time>
      </trkpt>
      <trkpt lat="38.260212" lon="-3.125394">
        <ele>740.469741</ele>
        <time>2020-08-08T11:45:54.904Z</time>
      </trkpt>
      <trkpt lat="38.260178" lon="-3.125552">
        <ele>740.579060</ele>
        <time>2020-08-08T11:45:57.914Z</time>
      </trkpt>
      <trkpt lat="38.260145" lon="-3.125705">
        <ele>740.684936</ele>
        <time>2020-08-08T11:46:00.899Z</time>
      </trkpt>
      <trkpt lat="38.260099" lon="-3.125842">
        <ele>740.760411</ele>
        <time>2020-08-08T11:46:03.897Z</time>
      </trkpt>
      <trkpt lat="38.260024" lon="-3.125957">
        <ele>740.765776</ele>
        <time>2020-08-08T11:46:06.911Z</time>
      </trkpt>
      <trkpt lat="38.259927" lon="-3.126051">
        <ele>740.771346</ele>
        <time>2020-08-08T11:46:09.917Z</time>
      </trkpt>
      <trkpt lat="38.259813" lon="-3.126073">
        <ele>740.776616</ele>
        <time>2020-08-08T11:46:11.911Z</time>
      </trkpt>
      <trkpt lat="38.259687" lon="-3.126139">
        <ele>740.782842</ele>
        <time>2020-08-08T11:46:14.910Z</time>
      </trkpt>
      <trkpt lat="38.259553" lon="-3.126193">
        <ele>740.789265</ele>
        <time>2020-08-08T11:46:16.896Z</time>
      </trkpt>
      <trkpt lat="38.259513" lon="-3.126381">
        <ele>740.796255</ele>
        <time>2020-08-08T11:46:18.892Z</time>
      </trkpt>
      <trkpt lat="38.259533" lon="-3.126565">
        <ele>740.802921</ele>
        <time>2020-08-08T11:46:20.936Z</time>
      </trkpt>
      <trkpt lat="38.259524" lon="-3.126691">
        <ele>740.807461</ele>
        <time>2020-08-08T11:46:21.916Z</time>
      </trkpt>
      <trkpt lat="38.259512" lon="-3.126897">
        <ele>740.814874</ele>
        <time>2020-08-08T11:46:23.889Z</time>
      </trkpt>
      <trkpt lat="38.259509" lon="-3.127097">
        <ele>740.822052</ele>
        <time>2020-08-08T11:46:25.900Z</time>
      </trkpt>
      <trkpt lat="38.259513" lon="-3.127283">
        <ele>740.828729</ele>
        <time>2020-08-08T11:46:27.903Z</time>
      </trkpt>
      <trkpt lat="38.259499" lon="-3.127473">
        <ele>740.835577</ele>
        <time>2020-08-08T11:46:29.908Z</time>
      </trkpt>
      <trkpt lat="38.259444" lon="-3.127663">
        <ele>740.801665</ele>
        <time>2020-08-08T11:46:31.918Z</time>
      </trkpt>
      <trkpt lat="38.259397" lon="-3.127839">
        <ele>740.635994</ele>
        <time>2020-08-08T11:46:33.898Z</time>
      </trkpt>
      <trkpt lat="38.259312" lon="-3.127996">
        <ele>740.466044</ele>
        <time>2020-08-08T11:46:35.904Z</time>
      </trkpt>
      <trkpt lat="38.259248" lon="-3.128141">
        <ele>740.317806</ele>
        <time>2020-08-08T11:46:37.924Z</time>
      </trkpt>
      <trkpt lat="38.259160" lon="-3.128264">
        <ele>740.169513</ele>
        <time>2020-08-08T11:46:39.895Z</time>
      </trkpt>
      <trkpt lat="38.259068" lon="-3.128379">
        <ele>740.023205</ele>
        <time>2020-08-08T11:46:41.911Z</time>
      </trkpt>
      <trkpt lat="38.258981" lon="-3.128501">
        <ele>739.876335</ele>
        <time>2020-08-08T11:46:43.906Z</time>
      </trkpt>
      <trkpt lat="38.258915" lon="-3.128661">
        <ele>739.715266</ele>
        <time>2020-08-08T11:46:45.916Z</time>
      </trkpt>
      <trkpt lat="38.258887" lon="-3.128849">
        <ele>739.544735</ele>
        <time>2020-08-08T11:46:47.899Z</time>
      </trkpt>
      <trkpt lat="38.258874" lon="-3.129003">
        <ele>739.406701</ele>
        <time>2020-08-08T11:46:49.893Z</time>
      </trkpt>
      <trkpt lat="38.258865" lon="-3.129168">
        <ele>739.259301</ele>
        <time>2020-08-08T11:46:51.895Z</time>
      </trkpt>
      <trkpt lat="38.258847" lon="-3.129331">
        <ele>739.112607</ele>
        <time>2020-08-08T11:46:53.893Z</time>
      </trkpt>
      <trkpt lat="38.258826" lon="-3.129483">
        <ele>738.975066</ele>
        <time>2020-08-08T11:46:55.898Z</time>
      </trkpt>
      <trkpt lat="38.258796" lon="-3.129626">
        <ele>738.843155</ele>
        <time>2020-08-08T11:46:57.899Z</time>
      </trkpt>
      <trkpt lat="38.258765" lon="-3.129795">
        <ele>738.645991</ele>
        <time>2020-08-08T11:46:59.887Z</time>
      </trkpt>
      <trkpt lat="38.258735" lon="-3.129948">
        <ele>738.451829</ele>
        <time>2020-08-08T11:47:01.901Z</time>
      </trkpt>
      <trkpt lat="38.258697" lon="-3.130100">
        <ele>738.255426</ele>
        <time>2020-08-08T11:47:03.904Z</time>
      </trkpt>
      <trkpt lat="38.258673" lon="-3.130271">
        <ele>738.041550</ele>
        <time>2020-08-08T11:47:05.920Z</time>
      </trkpt>
      <trkpt lat="38.258662" lon="-3.130434">
        <ele>737.840120</ele>
        <time>2020-08-08T11:47:07.891Z</time>
      </trkpt>
      <trkpt lat="38.258643" lon="-3.130597">
        <ele>737.637230</ele>
        <time>2020-08-08T11:47:09.907Z</time>
      </trkpt>
      <trkpt lat="38.258629" lon="-3.130773">
        <ele>737.419425</ele>
        <time>2020-08-08T11:47:11.903Z</time>
      </trkpt>
      <trkpt lat="38.258603" lon="-3.130927">
        <ele>737.225483</ele>
        <time>2020-08-08T11:47:13.909Z</time>
      </trkpt>
      <trkpt lat="38.258594" lon="-3.131090">
        <ele>737.024297</ele>
        <time>2020-08-08T11:47:15.894Z</time>
      </trkpt>
      <trkpt lat="38.258587" lon="-3.131257">
        <ele>736.818389</ele>
        <time>2020-08-08T11:47:17.918Z</time>
      </trkpt>
      <trkpt lat="38.258558" lon="-3.131395">
        <ele>736.642500</ele>
        <time>2020-08-08T11:47:19.914Z</time>
      </trkpt>
      <trkpt lat="38.258572" lon="-3.131543">
        <ele>736.458961</ele>
        <time>2020-08-08T11:47:21.905Z</time>
      </trkpt>
      <trkpt lat="38.258624" lon="-3.131696">
        <ele>736.253695</ele>
        <time>2020-08-08T11:47:23.917Z</time>
      </trkpt>
      <trkpt lat="38.258672" lon="-3.131839">
        <ele>736.062217</ele>
        <time>2020-08-08T11:47:25.914Z</time>
      </trkpt>
      <trkpt lat="38.258762" lon="-3.131996">
        <ele>735.846628</ele>
        <time>2020-08-08T11:47:27.910Z</time>
      </trkpt>
      <trkpt lat="38.258854" lon="-3.132176">
        <ele>735.622257</ele>
        <time>2020-08-08T11:47:29.900Z</time>
      </trkpt>
      <trkpt lat="38.258905" lon="-3.132272">
        <ele>735.501170</ele>
        <time>2020-08-08T11:47:30.912Z</time>
      </trkpt>
      <trkpt lat="38.258951" lon="-3.132372">
        <ele>735.380095</ele>
        <time>2020-08-08T11:47:31.914Z</time>
      </trkpt>
      <trkpt lat="38.259003" lon="-3.132476">
        <ele>735.251290</ele>
        <time>2020-08-08T11:47:32.916Z</time>
      </trkpt>
      <trkpt lat="38.259056" lon="-3.132575">
        <ele>735.126116</ele>
        <time>2020-08-08T11:47:33.905Z</time>
      </trkpt>
      <trkpt lat="38.259107" lon="-3.132672">
        <ele>735.004163</ele>
        <time>2020-08-08T11:47:34.914Z</time>
      </trkpt>
      <trkpt lat="38.259164" lon="-3.132777">
        <ele>734.870809</ele>
        <time>2020-08-08T11:47:35.914Z</time>
      </trkpt>
      <trkpt lat="38.259215" lon="-3.132886">
        <ele>734.738256</ele>
        <time>2020-08-08T11:47:36.911Z</time>
      </trkpt>
      <trkpt lat="38.259272" lon="-3.132991">
        <ele>734.604902</ele>
        <time>2020-08-08T11:47:37.922Z</time>
      </trkpt>
      <trkpt lat="38.259324" lon="-3.133096">
        <ele>734.475216</ele>
        <time>2020-08-08T11:47:38.892Z</time>
      </trkpt>
      <trkpt lat="38.259375" lon="-3.133197">
        <ele>734.349769</ele>
        <time>2020-08-08T11:47:39.912Z</time>
      </trkpt>
      <trkpt lat="38.259428" lon="-3.133292">
        <ele>734.228025</ele>
        <time>2020-08-08T11:47:40.929Z</time>
      </trkpt>
      <trkpt lat="38.259477" lon="-3.133393">
        <ele>734.103997</ele>
        <time>2020-08-08T11:47:41.889Z</time>
      </trkpt>
      <trkpt lat="38.259527" lon="-3.133499">
        <ele>733.974817</ele>
        <time>2020-08-08T11:47:42.905Z</time>
      </trkpt>
      <trkpt lat="38.259576" lon="-3.133596">
        <ele>733.854324</ele>
        <time>2020-08-08T11:47:43.916Z</time>
      </trkpt>
      <trkpt lat="38.259666" lon="-3.133774">
        <ele>733.633155</ele>
        <time>2020-08-08T11:47:45.911Z</time>
      </trkpt>
      <trkpt lat="38.259727" lon="-3.133960">
        <ele>733.263173</ele>
        <time>2020-08-08T11:47:47.899Z</time>
      </trkpt>
      <trkpt lat="38.259736" lon="-3.134171">
        <ele>732.827915</ele>
        <time>2020-08-08T11:47:49.902Z</time>
      </trkpt>
      <trkpt lat="38.259729" lon="-3.134369">
        <ele>732.419662</ele>
        <time>2020-08-08T11:47:51.896Z</time>
      </trkpt>
      <trkpt lat="38.259683" lon="-3.134539">
        <ele>732.049288</ele>
        <time>2020-08-08T11:47:53.925Z</time>
      </trkpt>
      <trkpt lat="38.259663" lon="-3.134654">
        <ele>731.806670</ele>
        <time>2020-08-08T11:47:54.913Z</time>
      </trkpt>
      <trkpt lat="38.259642" lon="-3.134767">
        <ele>731.567483</ele>
        <time>2020-08-08T11:47:55.914Z</time>
      </trkpt>
      <trkpt lat="38.259630" lon="-3.134888">
        <ele>731.316267</ele>
        <time>2020-08-08T11:47:56.902Z</time>
      </trkpt>
      <trkpt lat="38.259650" lon="-3.135118">
        <ele>730.839617</ele>
        <time>2020-08-08T11:47:58.900Z</time>
      </trkpt>
      <trkpt lat="38.259677" lon="-3.135230">
        <ele>730.598291</ele>
        <time>2020-08-08T11:48:00.054Z</time>
      </trkpt>
      <trkpt lat="38.259799" lon="-3.135430">
        <ele>730.076628</ele>
        <time>2020-08-08T11:48:01.896Z</time>
      </trkpt>
      <trkpt lat="38.259859" lon="-3.135525">
        <ele>729.825503</ele>
        <time>2020-08-08T11:48:02.925Z</time>
      </trkpt>
      <trkpt lat="38.259959" lon="-3.135599">
        <ele>729.522110</ele>
        <time>2020-08-08T11:48:03.902Z</time>
      </trkpt>
      <trkpt lat="38.260048" lon="-3.135686">
        <ele>729.227796</ele>
        <time>2020-08-08T11:48:04.906Z</time>
      </trkpt>
      <trkpt lat="38.260122" lon="-3.135786">
        <ele>728.944760</ele>
        <time>2020-08-08T11:48:05.919Z</time>
      </trkpt>
      <trkpt lat="38.260216" lon="-3.135883">
        <ele>728.506120</ele>
        <time>2020-08-08T11:48:06.918Z</time>
      </trkpt>
      <trkpt lat="38.260322" lon="-3.135949">
        <ele>728.040833</ele>
        <time>2020-08-08T11:48:07.900Z</time>
      </trkpt>
      <trkpt lat="38.260419" lon="-3.136041">
        <ele>727.563898</ele>
        <time>2020-08-08T11:48:08.899Z</time>
      </trkpt>
      <trkpt lat="38.260498" lon="-3.136139">
        <ele>727.129005</ele>
        <time>2020-08-08T11:48:09.889Z</time>
      </trkpt>
      <trkpt lat="38.260575" lon="-3.136271">
        <ele>726.619834</ele>
        <time>2020-08-08T11:48:10.919Z</time>
      </trkpt>
      <trkpt lat="38.260661" lon="-3.136382">
        <ele>726.136986</ele>
        <time>2020-08-08T11:48:11.923Z</time>
      </trkpt>
      <trkpt lat="38.260741" lon="-3.136493">
        <ele>725.670452</ele>
        <time>2020-08-08T11:48:12.907Z</time>
      </trkpt>
      <trkpt lat="38.260831" lon="-3.136623">
        <ele>725.133804</ele>
        <time>2020-08-08T11:48:13.899Z</time>
      </trkpt>
      <trkpt lat="38.260901" lon="-3.136726">
        <ele>724.712007</ele>
        <time>2020-08-08T11:48:14.907Z</time>
      </trkpt>
      <trkpt lat="38.260978" lon="-3.136837">
        <ele>724.253391</ele>
        <time>2020-08-08T11:48:15.922Z</time>
      </trkpt>
      <trkpt lat="38.261051" lon="-3.136951">
        <ele>723.797903</ele>
        <time>2020-08-08T11:48:16.926Z</time>
      </trkpt>
      <trkpt lat="38.261110" lon="-3.137078">
        <ele>723.340990</ele>
        <time>2020-08-08T11:48:17.898Z</time>
      </trkpt>
      <trkpt lat="38.261168" lon="-3.137216">
        <ele>722.856328</ele>
        <time>2020-08-08T11:48:18.915Z</time>
      </trkpt>
      <trkpt lat="38.261219" lon="-3.137350">
        <ele>722.395242</ele>
        <time>2020-08-08T11:48:19.918Z</time>
      </trkpt>
      <trkpt lat="38.261269" lon="-3.137479">
        <ele>721.949796</ele>
        <time>2020-08-08T11:48:20.900Z</time>
      </trkpt>
      <trkpt lat="38.261307" lon="-3.137627">
        <ele>720.979050</ele>
        <time>2020-08-08T11:48:21.916Z</time>
      </trkpt>
      <trkpt lat="38.261356" lon="-3.137787">
        <ele>719.603333</ele>
        <time>2020-08-08T11:48:22.912Z</time>
      </trkpt>
      <trkpt lat="38.261383" lon="-3.137945">
        <ele>718.308048</ele>
        <time>2020-08-08T11:48:23.891Z</time>
      </trkpt>
      <trkpt lat="38.261412" lon="-3.138102">
        <ele>717.016069</ele>
        <time>2020-08-08T11:48:24.883Z</time>
      </trkpt>
      <trkpt lat="38.261435" lon="-3.138265">
        <ele>715.689444</ele>
        <time>2020-08-08T11:48:25.914Z</time>
      </trkpt>
      <trkpt lat="38.261453" lon="-3.138422">
        <ele>714.418461</ele>
        <time>2020-08-08T11:48:26.922Z</time>
      </trkpt>
      <trkpt lat="38.261468" lon="-3.138578">
        <ele>713.159491</ele>
        <time>2020-08-08T11:48:27.928Z</time>
      </trkpt>
      <trkpt lat="38.261484" lon="-3.138729">
        <ele>711.938943</ele>
        <time>2020-08-08T11:48:28.908Z</time>
      </trkpt>
      <trkpt lat="38.261501" lon="-3.138897">
        <ele>710.582053</ele>
        <time>2020-08-08T11:48:29.901Z</time>
      </trkpt>
      <trkpt lat="38.261503" lon="-3.139052">
        <ele>709.340261</ele>
        <time>2020-08-08T11:48:30.913Z</time>
      </trkpt>
      <trkpt lat="38.261527" lon="-3.139216">
        <ele>708.003920</ele>
        <time>2020-08-08T11:48:31.921Z</time>
      </trkpt>
      <trkpt lat="38.261552" lon="-3.139385">
        <ele>706.626334</ele>
        <time>2020-08-08T11:48:32.912Z</time>
      </trkpt>
      <trkpt lat="38.261572" lon="-3.139556">
        <ele>705.241430</ele>
        <time>2020-08-08T11:48:33.921Z</time>
      </trkpt>
      <trkpt lat="38.261588" lon="-3.139723">
        <ele>703.893759</ele>
        <time>2020-08-08T11:48:34.908Z</time>
      </trkpt>
      <trkpt lat="38.261609" lon="-3.139891">
        <ele>702.958664</ele>
        <time>2020-08-08T11:48:35.915Z</time>
      </trkpt>
      <trkpt lat="38.261642" lon="-3.140052">
        <ele>702.262706</ele>
        <time>2020-08-08T11:48:36.922Z</time>
      </trkpt>
      <trkpt lat="38.261669" lon="-3.140217">
        <ele>701.557757</ele>
        <time>2020-08-08T11:48:37.894Z</time>
      </trkpt>
      <trkpt lat="38.261692" lon="-3.140389">
        <ele>700.828000</ele>
        <time>2020-08-08T11:48:38.901Z</time>
      </trkpt>
      <trkpt lat="38.261725" lon="-3.140557">
        <ele>700.103677</ele>
        <time>2020-08-08T11:48:39.902Z</time>
      </trkpt>
      <trkpt lat="38.261767" lon="-3.140718">
        <ele>699.394094</ele>
        <time>2020-08-08T11:48:40.892Z</time>
      </trkpt>
      <trkpt lat="38.261811" lon="-3.140878">
        <ele>698.685029</ele>
        <time>2020-08-08T11:48:41.913Z</time>
      </trkpt>
      <trkpt lat="38.261865" lon="-3.141038">
        <ele>697.956620</ele>
        <time>2020-08-08T11:48:42.897Z</time>
      </trkpt>
      <trkpt lat="38.261918" lon="-3.141203">
        <ele>697.210987</ele>
        <time>2020-08-08T11:48:43.915Z</time>
      </trkpt>
      <trkpt lat="38.261982" lon="-3.141366">
        <ele>696.448746</ele>
        <time>2020-08-08T11:48:44.908Z</time>
      </trkpt>
      <trkpt lat="38.262049" lon="-3.141520">
        <ele>695.712367</ele>
        <time>2020-08-08T11:48:45.901Z</time>
      </trkpt>
      <trkpt lat="38.262132" lon="-3.141657">
        <ele>694.988620</ele>
        <time>2020-08-08T11:48:46.918Z</time>
      </trkpt>
      <trkpt lat="38.262215" lon="-3.141809">
        <ele>694.214253</ele>
        <time>2020-08-08T11:48:47.926Z</time>
      </trkpt>
      <trkpt lat="38.262301" lon="-3.141950">
        <ele>693.504609</ele>
        <time>2020-08-08T11:48:48.900Z</time>
      </trkpt>
      <trkpt lat="38.262396" lon="-3.142078">
        <ele>692.840380</ele>
        <time>2020-08-08T11:48:49.902Z</time>
      </trkpt>
      <trkpt lat="38.262497" lon="-3.142215">
        <ele>692.131687</ele>
        <time>2020-08-08T11:48:50.920Z</time>
      </trkpt>
      <trkpt lat="38.262600" lon="-3.142347">
        <ele>691.429883</ele>
        <time>2020-08-08T11:48:51.914Z</time>
      </trkpt>
      <trkpt lat="38.262699" lon="-3.142476">
        <ele>690.749623</ele>
        <time>2020-08-08T11:48:52.899Z</time>
      </trkpt>
      <trkpt lat="38.262807" lon="-3.142594">
        <ele>690.066184</ele>
        <time>2020-08-08T11:48:53.910Z</time>
      </trkpt>
      <trkpt lat="38.262914" lon="-3.142718">
        <ele>689.371362</ele>
        <time>2020-08-08T11:48:54.926Z</time>
      </trkpt>
      <trkpt lat="38.263010" lon="-3.142853">
        <ele>688.684496</ele>
        <time>2020-08-08T11:48:55.904Z</time>
      </trkpt>
      <trkpt lat="38.263110" lon="-3.142985">
        <ele>687.992776</ele>
        <time>2020-08-08T11:48:56.892Z</time>
      </trkpt>
      <trkpt lat="38.263209" lon="-3.143120">
        <ele>687.296158</ele>
        <time>2020-08-08T11:48:57.914Z</time>
      </trkpt>
      <trkpt lat="38.263309" lon="-3.143254">
        <ele>686.598991</ele>
        <time>2020-08-08T11:48:58.903Z</time>
      </trkpt>
      <trkpt lat="38.263396" lon="-3.143395">
        <ele>685.922723</ele>
        <time>2020-08-08T11:48:59.910Z</time>
      </trkpt>
      <trkpt lat="38.263484" lon="-3.143540">
        <ele>685.231605</ele>
        <time>2020-08-08T11:49:00.918Z</time>
      </trkpt>
      <trkpt lat="38.263561" lon="-3.143682">
        <ele>684.935647</ele>
        <time>2020-08-08T11:49:01.924Z</time>
      </trkpt>
      <trkpt lat="38.263637" lon="-3.143827">
        <ele>684.651267</ele>
        <time>2020-08-08T11:49:02.890Z</time>
      </trkpt>
      <trkpt lat="38.263706" lon="-3.143981">
        <ele>684.362042</ele>
        <time>2020-08-08T11:49:03.904Z</time>
      </trkpt>
      <trkpt lat="38.263775" lon="-3.144125">
        <ele>684.086866</ele>
        <time>2020-08-08T11:49:04.918Z</time>
      </trkpt>
      <trkpt lat="38.263838" lon="-3.144286">
        <ele>683.793438</ele>
        <time>2020-08-08T11:49:05.892Z</time>
      </trkpt>
      <trkpt lat="38.263902" lon="-3.144454">
        <ele>683.488848</ele>
        <time>2020-08-08T11:49:06.893Z</time>
      </trkpt>
      <trkpt lat="38.263957" lon="-3.144618">
        <ele>683.197954</ele>
        <time>2020-08-08T11:49:07.891Z</time>
      </trkpt>
      <trkpt lat="38.264006" lon="-3.144791">
        <ele>682.897961</ele>
        <time>2020-08-08T11:49:08.925Z</time>
      </trkpt>
      <trkpt lat="38.264052" lon="-3.144963">
        <ele>682.601569</ele>
        <time>2020-08-08T11:49:09.915Z</time>
      </trkpt>
      <trkpt lat="38.264090" lon="-3.145129">
        <ele>682.319520</ele>
        <time>2020-08-08T11:49:10.898Z</time>
      </trkpt>
      <trkpt lat="38.264128" lon="-3.145310">
        <ele>682.013905</ele>
        <time>2020-08-08T11:49:11.916Z</time>
      </trkpt>
      <trkpt lat="38.264166" lon="-3.145482">
        <ele>681.722448</ele>
        <time>2020-08-08T11:49:12.891Z</time>
      </trkpt>
      <trkpt lat="38.264193" lon="-3.145664">
        <ele>681.437575</ele>
        <time>2020-08-08T11:49:13.896Z</time>
      </trkpt>
      <trkpt lat="38.264218" lon="-3.145844">
        <ele>681.244120</ele>
        <time>2020-08-08T11:49:14.902Z</time>
      </trkpt>
      <trkpt lat="38.264237" lon="-3.146026">
        <ele>681.049811</ele>
        <time>2020-08-08T11:49:15.911Z</time>
      </trkpt>
      <trkpt lat="38.264246" lon="-3.146204">
        <ele>680.861040</ele>
        <time>2020-08-08T11:49:16.908Z</time>
      </trkpt>
      <trkpt lat="38.264256" lon="-3.146375">
        <ele>680.679566</ele>
        <time>2020-08-08T11:49:17.934Z</time>
      </trkpt>
      <trkpt lat="38.264261" lon="-3.146545">
        <ele>680.499526</ele>
        <time>2020-08-08T11:49:18.906Z</time>
      </trkpt>
      <trkpt lat="38.264262" lon="-3.146719">
        <ele>680.315374</ele>
        <time>2020-08-08T11:49:19.901Z</time>
      </trkpt>
      <trkpt lat="38.264275" lon="-3.146889">
        <ele>680.134608</ele>
        <time>2020-08-08T11:49:20.909Z</time>
      </trkpt>
      <trkpt lat="38.264296" lon="-3.147019">
        <ele>679.994145</ele>
        <time>2020-08-08T11:49:21.903Z</time>
      </trkpt>
      <trkpt lat="38.264303" lon="-3.147163">
        <ele>679.841456</ele>
        <time>2020-08-08T11:49:22.900Z</time>
      </trkpt>
      <trkpt lat="38.264324" lon="-3.147322">
        <ele>679.670819</ele>
        <time>2020-08-08T11:49:23.919Z</time>
      </trkpt>
      <trkpt lat="38.264334" lon="-3.147473">
        <ele>679.510446</ele>
        <time>2020-08-08T11:49:24.905Z</time>
      </trkpt>
      <trkpt lat="38.264347" lon="-3.147624">
        <ele>679.349682</ele>
        <time>2020-08-08T11:49:25.923Z</time>
      </trkpt>
      <trkpt lat="38.264362" lon="-3.147773">
        <ele>679.190702</ele>
        <time>2020-08-08T11:49:26.905Z</time>
      </trkpt>
      <trkpt lat="38.264375" lon="-3.147925">
        <ele>679.018871</ele>
        <time>2020-08-08T11:49:27.901Z</time>
      </trkpt>
      <trkpt lat="38.264381" lon="-3.148071">
        <ele>678.768363</ele>
        <time>2020-08-08T11:49:28.917Z</time>
      </trkpt>
      <trkpt lat="38.264387" lon="-3.148203">
        <ele>678.541807</ele>
        <time>2020-08-08T11:49:29.913Z</time>
      </trkpt>
      <trkpt lat="38.264397" lon="-3.148335">
        <ele>678.314580</ele>
        <time>2020-08-08T11:49:30.910Z</time>
      </trkpt>
      <trkpt lat="38.264407" lon="-3.148465">
        <ele>678.090763</ele>
        <time>2020-08-08T11:49:31.893Z</time>
      </trkpt>
      <trkpt lat="38.264425" lon="-3.148603">
        <ele>677.851064</ele>
        <time>2020-08-08T11:49:32.910Z</time>
      </trkpt>
      <trkpt lat="38.264431" lon="-3.148741">
        <ele>677.614244</ele>
        <time>2020-08-08T11:49:33.915Z</time>
      </trkpt>
      <trkpt lat="38.264439" lon="-3.148877">
        <ele>677.380560</ele>
        <time>2020-08-08T11:49:34.900Z</time>
      </trkpt>
      <trkpt lat="38.264453" lon="-3.149018">
        <ele>677.137038</ele>
        <time>2020-08-08T11:49:35.901Z</time>
      </trkpt>
      <trkpt lat="38.264462" lon="-3.149143">
        <ele>676.921956</ele>
        <time>2020-08-08T11:49:37.025Z</time>
      </trkpt>
      <trkpt lat="38.264486" lon="-3.149416">
        <ele>676.451258</ele>
        <time>2020-08-08T11:49:38.921Z</time>
      </trkpt>
      <trkpt lat="38.264497" lon="-3.149543">
        <ele>676.232329</ele>
        <time>2020-08-08T11:49:39.913Z</time>
      </trkpt>
      <trkpt lat="38.264511" lon="-3.149672">
        <ele>676.009191</ele>
        <time>2020-08-08T11:49:40.889Z</time>
      </trkpt>
      <trkpt lat="38.264523" lon="-3.149800">
        <ele>675.788310</ele>
        <time>2020-08-08T11:49:41.917Z</time>
      </trkpt>
      <trkpt lat="38.264530" lon="-3.149923">
        <ele>675.577001</ele>
        <time>2020-08-08T11:49:42.904Z</time>
      </trkpt>
      <trkpt lat="38.264533" lon="-3.150044">
        <ele>675.369569</ele>
        <time>2020-08-08T11:49:43.909Z</time>
      </trkpt>
      <trkpt lat="38.264541" lon="-3.150168">
        <ele>675.156384</ele>
        <time>2020-08-08T11:49:44.901Z</time>
      </trkpt>
      <trkpt lat="38.264550" lon="-3.150289">
        <ele>675.313683</ele>
        <time>2020-08-08T11:49:45.912Z</time>
      </trkpt>
      <trkpt lat="38.264551" lon="-3.150405">
        <ele>675.537995</ele>
        <time>2020-08-08T11:49:46.893Z</time>
      </trkpt>
      <trkpt lat="38.264557" lon="-3.150525">
        <ele>675.770498</ele>
        <time>2020-08-08T11:49:47.913Z</time>
      </trkpt>
      <trkpt lat="38.264566" lon="-3.150747">
        <ele>676.200331</ele>
        <time>2020-08-08T11:49:49.897Z</time>
      </trkpt>
      <trkpt lat="38.264582" lon="-3.150958">
        <ele>676.610220</ele>
        <time>2020-08-08T11:49:51.911Z</time>
      </trkpt>
      <trkpt lat="38.264595" lon="-3.151163">
        <ele>677.007900</ele>
        <time>2020-08-08T11:49:53.915Z</time>
      </trkpt>
      <trkpt lat="38.264613" lon="-3.151357">
        <ele>677.385630</ele>
        <time>2020-08-08T11:49:55.922Z</time>
      </trkpt>
      <trkpt lat="38.264632" lon="-3.151523">
        <ele>677.710001</ele>
        <time>2020-08-08T11:49:57.898Z</time>
      </trkpt>
      <trkpt lat="38.264637" lon="-3.151715">
        <ele>678.081458</ele>
        <time>2020-08-08T11:49:59.924Z</time>
      </trkpt>
      <trkpt lat="38.264646" lon="-3.151869">
        <ele>678.380057</ele>
        <time>2020-08-08T11:50:01.889Z</time>
      </trkpt>
      <trkpt lat="38.264648" lon="-3.152023">
        <ele>678.677873</ele>
        <time>2020-08-08T11:50:03.893Z</time>
      </trkpt>
      <trkpt lat="38.264657" lon="-3.152182">
        <ele>678.986114</ele>
        <time>2020-08-08T11:50:05.895Z</time>
      </trkpt>
      <trkpt lat="38.264678" lon="-3.152319">
        <ele>679.256019</ele>
        <time>2020-08-08T11:50:07.896Z</time>
      </trkpt>
      <trkpt lat="38.264685" lon="-3.152455">
        <ele>679.519554</ele>
        <time>2020-08-08T11:50:09.912Z</time>
      </trkpt>
      <trkpt lat="38.264700" lon="-3.152607">
        <ele>679.598857</ele>
        <time>2020-08-08T11:50:11.901Z</time>
      </trkpt>
      <trkpt lat="38.264706" lon="-3.152768">
        <ele>679.656740</ele>
        <time>2020-08-08T11:50:13.899Z</time>
      </trkpt>
      <trkpt lat="38.264737" lon="-3.152937">
        <ele>679.719066</ele>
        <time>2020-08-08T11:50:16.913Z</time>
      </trkpt>
      <trkpt lat="38.264749" lon="-3.153066">
        <ele>679.765717</ele>
        <time>2020-08-08T11:50:18.892Z</time>
      </trkpt>
      <trkpt lat="38.264759" lon="-3.153211">
        <ele>679.817990</ele>
        <time>2020-08-08T11:50:20.902Z</time>
      </trkpt>
      <trkpt lat="38.264776" lon="-3.153384">
        <ele>679.880603</ele>
        <time>2020-08-08T11:50:23.904Z</time>
      </trkpt>
      <trkpt lat="38.264780" lon="-3.153518">
        <ele>679.928760</ele>
        <time>2020-08-08T11:50:25.921Z</time>
      </trkpt>
      <trkpt lat="38.264789" lon="-3.153649">
        <ele>679.975984</ele>
        <time>2020-08-08T11:50:27.903Z</time>
      </trkpt>
      <trkpt lat="38.264795" lon="-3.153764">
        <ele>680.017374</ele>
        <time>2020-08-08T11:50:29.911Z</time>
      </trkpt>
      <trkpt lat="38.264798" lon="-3.153900">
        <ele>680.066234</ele>
        <time>2020-08-08T11:50:31.894Z</time>
      </trkpt>
      <trkpt lat="38.264828" lon="-3.154092">
        <ele>680.136537</ele>
        <time>2020-08-08T11:50:34.900Z</time>
      </trkpt>
      <trkpt lat="38.264833" lon="-3.154229">
        <ele>680.185790</ele>
        <time>2020-08-08T11:50:36.907Z</time>
      </trkpt>
      <trkpt lat="38.264843" lon="-3.154347">
        <ele>680.228412</ele>
        <time>2020-08-08T11:50:38.914Z</time>
      </trkpt>
      <trkpt lat="38.264848" lon="-3.154468">
        <ele>680.271926</ele>
        <time>2020-08-08T11:50:40.906Z</time>
      </trkpt>
      <trkpt lat="38.264854" lon="-3.154630">
        <ele>680.330168</ele>
        <time>2020-08-08T11:50:43.918Z</time>
      </trkpt>
      <trkpt lat="38.264861" lon="-3.154750">
        <ele>680.373248</ele>
        <time>2020-08-08T11:50:45.926Z</time>
      </trkpt>
      <trkpt lat="38.264864" lon="-3.154874">
        <ele>680.413315</ele>
        <time>2020-08-08T11:50:47.896Z</time>
      </trkpt>
      <trkpt lat="38.264880" lon="-3.155045">
        <ele>680.468932</ele>
        <time>2020-08-08T11:50:50.904Z</time>
      </trkpt>
      <trkpt lat="38.264887" lon="-3.155164">
        <ele>680.507473</ele>
        <time>2020-08-08T11:50:52.893Z</time>
      </trkpt>
      <trkpt lat="38.264898" lon="-3.155279">
        <ele>680.544888</ele>
        <time>2020-08-08T11:50:54.908Z</time>
      </trkpt>
      <trkpt lat="38.264897" lon="-3.155401">
        <ele>680.584292</ele>
        <time>2020-08-08T11:50:56.892Z</time>
      </trkpt>
      <trkpt lat="38.264917" lon="-3.155528">
        <ele>680.626125</ele>
        <time>2020-08-08T11:50:58.890Z</time>
      </trkpt>
      <trkpt lat="38.264927" lon="-3.155692">
        <ele>680.679250</ele>
        <time>2020-08-08T11:51:01.907Z</time>
      </trkpt>
      <trkpt lat="38.264934" lon="-3.155807">
        <ele>680.716502</ele>
        <time>2020-08-08T11:51:03.897Z</time>
      </trkpt>
      <trkpt lat="38.264946" lon="-3.155929">
        <ele>680.756212</ele>
        <time>2020-08-08T11:51:05.911Z</time>
      </trkpt>
      <trkpt lat="38.264942" lon="-3.156095">
        <ele>680.809849</ele>
        <time>2020-08-08T11:51:08.900Z</time>
      </trkpt>
      <trkpt lat="38.264950" lon="-3.156220">
        <ele>680.850353</ele>
        <time>2020-08-08T11:51:10.895Z</time>
      </trkpt>
      <trkpt lat="38.264951" lon="-3.156341">
        <ele>680.889434</ele>
        <time>2020-08-08T11:51:12.913Z</time>
      </trkpt>
      <trkpt lat="38.264956" lon="-3.156465">
        <ele>680.929534</ele>
        <time>2020-08-08T11:51:15.921Z</time>
      </trkpt>
      <trkpt lat="38.264966" lon="-3.156612">
        <ele>680.977187</ele>
        <time>2020-08-08T11:51:18.906Z</time>
      </trkpt>
      <trkpt lat="38.264978" lon="-3.156772">
        <ele>681.029097</ele>
        <time>2020-08-08T11:51:21.900Z</time>
      </trkpt>
      <trkpt lat="38.264985" lon="-3.156935">
        <ele>681.081818</ele>
        <time>2020-08-08T11:51:24.906Z</time>
      </trkpt>
      <trkpt lat="38.264992" lon="-3.157092">
        <ele>681.121356</ele>
        <time>2020-08-08T11:51:27.891Z</time>
      </trkpt>
      <trkpt lat="38.265011" lon="-3.157238">
        <ele>681.143179</ele>
        <time>2020-08-08T11:51:30.899Z</time>
      </trkpt>
      <trkpt lat="38.265026" lon="-3.157384">
        <ele>681.164891</ele>
        <time>2020-08-08T11:51:33.898Z</time>
      </trkpt>
      <trkpt lat="38.265031" lon="-3.157536">
        <ele>681.187325</ele>
        <time>2020-08-08T11:51:36.892Z</time>
      </trkpt>
      <trkpt lat="38.265037" lon="-3.157682">
        <ele>681.208883</ele>
        <time>2020-08-08T11:51:39.903Z</time>
      </trkpt>
      <trkpt lat="38.265047" lon="-3.157840">
        <ele>681.232258</ele>
        <time>2020-08-08T11:51:42.910Z</time>
      </trkpt>
      <trkpt lat="38.265058" lon="-3.157993">
        <ele>681.254913</ele>
        <time>2020-08-08T11:51:45.905Z</time>
      </trkpt>
      <trkpt lat="38.265067" lon="-3.158139">
        <ele>681.276508</ele>
        <time>2020-08-08T11:51:48.919Z</time>
      </trkpt>
      <trkpt lat="38.265075" lon="-3.158279">
        <ele>681.297207</ele>
        <time>2020-08-08T11:51:51.906Z</time>
      </trkpt>
      <trkpt lat="38.265073" lon="-3.158419">
        <ele>681.317855</ele>
        <time>2020-08-08T11:51:54.916Z</time>
      </trkpt>
      <trkpt lat="38.265072" lon="-3.158561">
        <ele>681.338795</ele>
        <time>2020-08-08T11:51:57.911Z</time>
      </trkpt>
      <trkpt lat="38.265071" lon="-3.158701">
        <ele>681.359440</ele>
        <time>2020-08-08T11:52:00.912Z</time>
      </trkpt>
      <trkpt lat="38.265073" lon="-3.158836">
        <ele>681.379351</ele>
        <time>2020-08-08T11:52:03.916Z</time>
      </trkpt>
      <trkpt lat="38.265073" lon="-3.158972">
        <ele>681.399405</ele>
        <time>2020-08-08T11:52:06.908Z</time>
      </trkpt>
      <trkpt lat="38.265074" lon="-3.159101">
        <ele>681.418428</ele>
        <time>2020-08-08T11:52:09.910Z</time>
      </trkpt>
      <trkpt lat="38.265074" lon="-3.159218">
        <ele>681.435681</ele>
        <time>2020-08-08T11:52:12.918Z</time>
      </trkpt>
      <trkpt lat="38.265064" lon="-3.159363">
        <ele>681.510150</ele>
        <time>2020-08-08T11:52:15.913Z</time>
      </trkpt>
      <trkpt lat="38.265043" lon="-3.159525">
        <ele>681.706886</ele>
        <time>2020-08-08T11:52:18.916Z</time>
      </trkpt>
      <trkpt lat="38.265027" lon="-3.159670">
        <ele>681.882332</ele>
        <time>2020-08-08T11:52:21.915Z</time>
      </trkpt>
      <trkpt lat="38.265012" lon="-3.159803">
        <ele>682.043329</ele>
        <time>2020-08-08T11:52:24.902Z</time>
      </trkpt>
      <trkpt lat="38.264998" lon="-3.159937">
        <ele>682.205303</ele>
        <time>2020-08-08T11:52:27.906Z</time>
      </trkpt>
      <trkpt lat="38.264985" lon="-3.160072">
        <ele>682.368272</ele>
        <time>2020-08-08T11:52:30.896Z</time>
      </trkpt>
      <trkpt lat="38.264972" lon="-3.160208">
        <ele>682.532430</ele>
        <time>2020-08-08T11:52:33.895Z</time>
      </trkpt>
      <trkpt lat="38.264951" lon="-3.160343">
        <ele>682.697331</ele>
        <time>2020-08-08T11:52:36.908Z</time>
      </trkpt>
      <trkpt lat="38.264926" lon="-3.160472">
        <ele>682.856538</ele>
        <time>2020-08-08T11:52:39.888Z</time>
      </trkpt>
      <trkpt lat="38.264898" lon="-3.160615">
        <ele>683.033128</ele>
        <time>2020-08-08T11:52:42.891Z</time>
      </trkpt>
      <trkpt lat="38.264869" lon="-3.160754">
        <ele>683.205458</ele>
        <time>2020-08-08T11:52:45.893Z</time>
      </trkpt>
      <trkpt lat="38.264837" lon="-3.160900">
        <ele>683.387084</ele>
        <time>2020-08-08T11:52:48.906Z</time>
      </trkpt>
      <trkpt lat="38.264800" lon="-3.161043">
        <ele>683.567491</ele>
        <time>2020-08-08T11:52:51.893Z</time>
      </trkpt>
      <trkpt lat="38.264764" lon="-3.161184">
        <ele>683.745145</ele>
        <time>2020-08-08T11:52:54.899Z</time>
      </trkpt>
      <trkpt lat="38.264728" lon="-3.161319">
        <ele>683.915978</ele>
        <time>2020-08-08T11:52:57.913Z</time>
      </trkpt>
      <trkpt lat="38.264692" lon="-3.161459">
        <ele>684.092494</ele>
        <time>2020-08-08T11:53:00.906Z</time>
      </trkpt>
      <trkpt lat="38.264658" lon="-3.161600">
        <ele>684.172848</ele>
        <time>2020-08-08T11:53:03.909Z</time>
      </trkpt>
      <trkpt lat="38.264616" lon="-3.161747">
        <ele>684.118352</ele>
        <time>2020-08-08T11:53:06.900Z</time>
      </trkpt>
      <trkpt lat="38.264578" lon="-3.161906">
        <ele>684.060452</ele>
        <time>2020-08-08T11:53:09.912Z</time>
      </trkpt>
      <trkpt lat="38.264538" lon="-3.162059">
        <ele>684.004274</ele>
        <time>2020-08-08T11:53:12.906Z</time>
      </trkpt>
      <trkpt lat="38.264495" lon="-3.162212">
        <ele>683.947662</ele>
        <time>2020-08-08T11:53:15.913Z</time>
      </trkpt>
      <trkpt lat="38.264438" lon="-3.162376">
        <ele>683.885181</ele>
        <time>2020-08-08T11:53:18.888Z</time>
      </trkpt>
      <trkpt lat="38.264414" lon="-3.162490">
        <ele>683.844064</ele>
        <time>2020-08-08T11:53:20.904Z</time>
      </trkpt>
      <trkpt lat="38.264385" lon="-3.162599">
        <ele>683.803971</ele>
        <time>2020-08-08T11:53:22.900Z</time>
      </trkpt>
      <trkpt lat="38.264350" lon="-3.162708">
        <ele>683.762946</ele>
        <time>2020-08-08T11:53:24.923Z</time>
      </trkpt>
      <trkpt lat="38.264313" lon="-3.162826">
        <ele>683.718681</ele>
        <time>2020-08-08T11:53:26.901Z</time>
      </trkpt>
      <trkpt lat="38.264285" lon="-3.162951">
        <ele>683.673397</ele>
        <time>2020-08-08T11:53:28.919Z</time>
      </trkpt>
      <trkpt lat="38.264241" lon="-3.163080">
        <ele>683.624399</ele>
        <time>2020-08-08T11:53:30.903Z</time>
      </trkpt>
      <trkpt lat="38.264207" lon="-3.163206">
        <ele>683.577985</ele>
        <time>2020-08-08T11:53:32.914Z</time>
      </trkpt>
      <trkpt lat="38.264168" lon="-3.163356">
        <ele>683.522938</ele>
        <time>2020-08-08T11:53:34.910Z</time>
      </trkpt>
      <trkpt lat="38.264126" lon="-3.163488">
        <ele>683.473320</ele>
        <time>2020-08-08T11:53:36.903Z</time>
      </trkpt>
      <trkpt lat="38.264089" lon="-3.163615">
        <ele>683.426130</ele>
        <time>2020-08-08T11:53:38.909Z</time>
      </trkpt>
      <trkpt lat="38.264057" lon="-3.163753">
        <ele>683.646909</ele>
        <time>2020-08-08T11:53:40.920Z</time>
      </trkpt>
      <trkpt lat="38.264013" lon="-3.163893">
        <ele>684.288328</ele>
        <time>2020-08-08T11:53:42.901Z</time>
      </trkpt>
      <trkpt lat="38.263971" lon="-3.164021">
        <ele>684.878402</ele>
        <time>2020-08-08T11:53:44.902Z</time>
      </trkpt>
      <trkpt lat="38.263933" lon="-3.164178">
        <ele>685.577206</ele>
        <time>2020-08-08T11:53:46.922Z</time>
      </trkpt>
      <trkpt lat="38.263889" lon="-3.164320">
        <ele>686.226531</ele>
        <time>2020-08-08T11:53:48.897Z</time>
      </trkpt>
      <trkpt lat="38.263862" lon="-3.164476">
        <ele>686.906003</ele>
        <time>2020-08-08T11:53:50.919Z</time>
      </trkpt>
      <trkpt lat="38.263819" lon="-3.164640">
        <ele>687.641440</ele>
        <time>2020-08-08T11:53:52.897Z</time>
      </trkpt>
      <trkpt lat="38.263771" lon="-3.164786">
        <ele>688.314691</ele>
        <time>2020-08-08T11:53:54.909Z</time>
      </trkpt>
      <trkpt lat="38.263717" lon="-3.164950">
        <ele>689.071117</ele>
        <time>2020-08-08T11:53:56.897Z</time>
      </trkpt>
      <trkpt lat="38.263663" lon="-3.165116">
        <ele>689.835397</ele>
        <time>2020-08-08T11:53:58.906Z</time>
      </trkpt>
      <trkpt lat="38.263609" lon="-3.165282">
        <ele>690.599676</ele>
        <time>2020-08-08T11:54:00.904Z</time>
      </trkpt>
      <trkpt lat="38.263563" lon="-3.165449">
        <ele>691.352452</ele>
        <time>2020-08-08T11:54:02.913Z</time>
      </trkpt>
      <trkpt lat="38.263508" lon="-3.165603">
        <ele>692.072070</ele>
        <time>2020-08-08T11:54:04.892Z</time>
      </trkpt>
      <trkpt lat="38.263446" lon="-3.165772">
        <ele>692.865507</ele>
        <time>2020-08-08T11:54:06.894Z</time>
      </trkpt>
      <trkpt lat="38.263413" lon="-3.165943">
        <ele>692.890551</ele>
        <time>2020-08-08T11:54:08.895Z</time>
      </trkpt>
      <trkpt lat="38.263367" lon="-3.166130">
        <ele>692.451620</ele>
        <time>2020-08-08T11:54:10.912Z</time>
      </trkpt>
      <trkpt lat="38.263306" lon="-3.166316">
        <ele>692.000122</ele>
        <time>2020-08-08T11:54:12.892Z</time>
      </trkpt>
      <trkpt lat="38.263258" lon="-3.166494">
        <ele>691.578565</ele>
        <time>2020-08-08T11:54:14.895Z</time>
      </trkpt>
      <trkpt lat="38.263206" lon="-3.166661">
        <ele>691.176166</ele>
        <time>2020-08-08T11:54:16.917Z</time>
      </trkpt>
      <trkpt lat="38.263157" lon="-3.166822">
        <ele>690.789402</ele>
        <time>2020-08-08T11:54:18.901Z</time>
      </trkpt>
      <trkpt lat="38.263116" lon="-3.166958">
        <ele>690.463096</ele>
        <time>2020-08-08T11:54:20.890Z</time>
      </trkpt>
      <trkpt lat="38.263073" lon="-3.167106">
        <ele>690.109626</ele>
        <time>2020-08-08T11:54:22.885Z</time>
      </trkpt>
      <trkpt lat="38.263037" lon="-3.167251">
        <ele>689.768993</ele>
        <time>2020-08-08T11:54:24.898Z</time>
      </trkpt>
      <trkpt lat="38.263019" lon="-3.167405">
        <ele>689.420250</ele>
        <time>2020-08-08T11:54:26.915Z</time>
      </trkpt>
      <trkpt lat="38.262988" lon="-3.167530">
        <ele>689.126630</ele>
        <time>2020-08-08T11:54:28.896Z</time>
      </trkpt>
      <trkpt lat="38.262960" lon="-3.167665">
        <ele>688.813874</ele>
        <time>2020-08-08T11:54:30.901Z</time>
      </trkpt>
      <trkpt lat="38.262927" lon="-3.167795">
        <ele>688.507849</ele>
        <time>2020-08-08T11:54:32.888Z</time>
      </trkpt>
      <trkpt lat="38.262905" lon="-3.167907">
        <ele>688.249251</ele>
        <time>2020-08-08T11:54:34.903Z</time>
      </trkpt>
      <trkpt lat="38.262870" lon="-3.168015">
        <ele>688.006124</ele>
        <time>2020-08-08T11:54:36.894Z</time>
      </trkpt>
      <trkpt lat="38.262832" lon="-3.168126">
        <ele>687.966939</ele>
        <time>2020-08-08T11:54:38.887Z</time>
      </trkpt>
      <trkpt lat="38.262790" lon="-3.168238">
        <ele>687.926774</ele>
        <time>2020-08-08T11:54:41.910Z</time>
      </trkpt>
      <trkpt lat="38.262735" lon="-3.168386">
        <ele>687.873788</ele>
        <time>2020-08-08T11:54:44.899Z</time>
      </trkpt>
      <trkpt lat="38.262696" lon="-3.168519">
        <ele>687.827846</ele>
        <time>2020-08-08T11:54:47.912Z</time>
      </trkpt>
      <trkpt lat="38.262656" lon="-3.168651">
        <ele>687.782060</ele>
        <time>2020-08-08T11:54:50.896Z</time>
      </trkpt>
      <trkpt lat="38.262618" lon="-3.168776">
        <ele>687.738684</ele>
        <time>2020-08-08T11:54:53.898Z</time>
      </trkpt>
      <trkpt lat="38.262579" lon="-3.168901">
        <ele>687.695157</ele>
        <time>2020-08-08T11:54:56.895Z</time>
      </trkpt>
      <trkpt lat="38.262540" lon="-3.169025">
        <ele>687.651931</ele>
        <time>2020-08-08T11:54:59.895Z</time>
      </trkpt>
      <trkpt lat="38.262499" lon="-3.169145">
        <ele>687.609582</ele>
        <time>2020-08-08T11:55:02.900Z</time>
      </trkpt>
      <trkpt lat="38.262463" lon="-3.169272">
        <ele>687.565888</ele>
        <time>2020-08-08T11:55:05.912Z</time>
      </trkpt>
      <trkpt lat="38.262425" lon="-3.169397">
        <ele>687.522512</ele>
        <time>2020-08-08T11:55:08.899Z</time>
      </trkpt>
      <trkpt lat="38.262383" lon="-3.169522">
        <ele>687.478514</ele>
        <time>2020-08-08T11:55:11.897Z</time>
      </trkpt>
      <trkpt lat="38.262341" lon="-3.169651">
        <ele>687.433323</ele>
        <time>2020-08-08T11:55:14.904Z</time>
      </trkpt>
      <trkpt lat="38.262295" lon="-3.169781">
        <ele>687.387180</ele>
        <time>2020-08-08T11:55:18.045Z</time>
      </trkpt>
      <trkpt lat="38.262254" lon="-3.169918">
        <ele>687.339735</ele>
        <time>2020-08-08T11:55:20.902Z</time>
      </trkpt>
      <trkpt lat="38.262217" lon="-3.170050">
        <ele>687.294379</ele>
        <time>2020-08-08T11:55:23.899Z</time>
      </trkpt>
      <trkpt lat="38.262179" lon="-3.170185">
        <ele>686.877095</ele>
        <time>2020-08-08T11:55:26.895Z</time>
      </trkpt>
      <trkpt lat="38.262140" lon="-3.170325">
        <ele>685.937848</ele>
        <time>2020-08-08T11:55:29.893Z</time>
      </trkpt>
      <trkpt lat="38.262100" lon="-3.170468">
        <ele>684.978030</ele>
        <time>2020-08-08T11:55:32.904Z</time>
      </trkpt>
      <trkpt lat="38.262061" lon="-3.170608">
        <ele>684.038783</ele>
        <time>2020-08-08T11:55:35.917Z</time>
      </trkpt>
      <trkpt lat="38.262020" lon="-3.170753">
        <ele>683.064344</ele>
        <time>2020-08-08T11:55:38.910Z</time>
      </trkpt>
      <trkpt lat="38.261981" lon="-3.170893">
        <ele>682.125095</ele>
        <time>2020-08-08T11:55:41.894Z</time>
      </trkpt>
      <trkpt lat="38.261939" lon="-3.171033">
        <ele>681.177495</ele>
        <time>2020-08-08T11:55:44.910Z</time>
      </trkpt>
      <trkpt lat="38.261903" lon="-3.171177">
        <ele>680.221977</ele>
        <time>2020-08-08T11:55:47.910Z</time>
      </trkpt>
      <trkpt lat="38.261863" lon="-3.171316">
        <ele>679.285943</ele>
        <time>2020-08-08T11:55:50.601Z</time>
      </trkpt>
      <trkpt lat="38.261819" lon="-3.171462">
        <ele>678.297154</ele>
        <time>2020-08-08T11:55:53.595Z</time>
      </trkpt>
      <trkpt lat="38.261769" lon="-3.171616">
        <ele>677.243482</ele>
        <time>2020-08-08T11:55:56.592Z</time>
      </trkpt>
      <trkpt lat="38.261733" lon="-3.171721">
        <ele>676.519056</ele>
        <time>2020-08-08T11:55:58.594Z</time>
      </trkpt>
      <trkpt lat="38.261698" lon="-3.171827">
        <ele>675.791990</ele>
        <time>2020-08-08T11:56:00.589Z</time>
      </trkpt>
      <trkpt lat="38.261654" lon="-3.171935">
        <ele>675.022678</ele>
        <time>2020-08-08T11:56:02.595Z</time>
      </trkpt>
      <trkpt lat="38.261613" lon="-3.172043">
        <ele>674.264188</ele>
        <time>2020-08-08T11:56:04.598Z</time>
      </trkpt>
      <trkpt lat="38.261561" lon="-3.172195">
        <ele>673.215861</ele>
        <time>2020-08-08T11:56:07.609Z</time>
      </trkpt>
      <trkpt lat="38.261524" lon="-3.172320">
        <ele>672.593299</ele>
        <time>2020-08-08T11:56:09.598Z</time>
      </trkpt>
      <trkpt lat="38.261484" lon="-3.172435">
        <ele>672.225626</ele>
        <time>2020-08-08T11:56:11.593Z</time>
      </trkpt>
      <trkpt lat="38.261462" lon="-3.172561">
        <ele>671.848308</ele>
        <time>2020-08-08T11:56:13.596Z</time>
      </trkpt>
      <trkpt lat="38.261431" lon="-3.172678">
        <ele>671.487349</ele>
        <time>2020-08-08T11:56:15.585Z</time>
      </trkpt>
      <trkpt lat="38.261392" lon="-3.172814">
        <ele>671.064112</ele>
        <time>2020-08-08T11:56:17.602Z</time>
      </trkpt>
      <trkpt lat="38.261365" lon="-3.172949">
        <ele>670.656881</ele>
        <time>2020-08-08T11:56:19.594Z</time>
      </trkpt>
      <trkpt lat="38.261309" lon="-3.173064">
        <ele>670.261314</ele>
        <time>2020-08-08T11:56:21.597Z</time>
      </trkpt>
      <trkpt lat="38.261271" lon="-3.173181">
        <ele>669.891197</ele>
        <time>2020-08-08T11:56:23.622Z</time>
      </trkpt>
      <trkpt lat="38.261239" lon="-3.173293">
        <ele>669.542798</ele>
        <time>2020-08-08T11:56:25.595Z</time>
      </trkpt>
      <trkpt lat="38.261196" lon="-3.173407">
        <ele>669.173097</ele>
        <time>2020-08-08T11:56:27.600Z</time>
      </trkpt>
      <trkpt lat="38.261163" lon="-3.173544">
        <ele>668.754199</ele>
        <time>2020-08-08T11:56:29.612Z</time>
      </trkpt>
      <trkpt lat="38.261133" lon="-3.173680">
        <ele>668.341254</ele>
        <time>2020-08-08T11:56:31.596Z</time>
      </trkpt>
      <trkpt lat="38.261092" lon="-3.173815">
        <ele>667.918131</ele>
        <time>2020-08-08T11:56:33.597Z</time>
      </trkpt>
      <trkpt lat="38.261052" lon="-3.173958">
        <ele>667.474381</ele>
        <time>2020-08-08T11:56:35.591Z</time>
      </trkpt>
      <trkpt lat="38.261013" lon="-3.174090">
        <ele>667.062105</ele>
        <time>2020-08-08T11:56:37.605Z</time>
      </trkpt>
      <trkpt lat="38.260971" lon="-3.174220">
        <ele>666.651178</ele>
        <time>2020-08-08T11:56:39.589Z</time>
      </trkpt>
      <trkpt lat="38.260930" lon="-3.174370">
        <ele>666.186889</ele>
        <time>2020-08-08T11:56:41.580Z</time>
      </trkpt>
      <trkpt lat="38.260874" lon="-3.174508">
        <ele>666.382016</ele>
        <time>2020-08-08T11:56:43.599Z</time>
      </trkpt>
      <trkpt lat="38.260844" lon="-3.174646">
        <ele>666.728244</ele>
        <time>2020-08-08T11:56:45.620Z</time>
      </trkpt>
      <trkpt lat="38.260802" lon="-3.174780">
        <ele>667.077108</ele>
        <time>2020-08-08T11:56:47.596Z</time>
      </trkpt>
      <trkpt lat="38.260756" lon="-3.174930">
        <ele>667.466480</ele>
        <time>2020-08-08T11:56:49.593Z</time>
      </trkpt>
      <trkpt lat="38.260725" lon="-3.175094">
        <ele>667.874351</ele>
        <time>2020-08-08T11:56:51.594Z</time>
      </trkpt>
      <trkpt lat="38.260682" lon="-3.175255">
        <ele>668.285544</ele>
        <time>2020-08-08T11:56:53.579Z</time>
      </trkpt>
      <trkpt lat="38.260650" lon="-3.175409">
        <ele>668.670726</ele>
        <time>2020-08-08T11:56:55.595Z</time>
      </trkpt>
      <trkpt lat="38.260613" lon="-3.175561">
        <ele>669.055510</ele>
        <time>2020-08-08T11:56:57.595Z</time>
      </trkpt>
      <trkpt lat="38.260573" lon="-3.175720">
        <ele>669.459215</ele>
        <time>2020-08-08T11:56:59.606Z</time>
      </trkpt>
      <trkpt lat="38.260508" lon="-3.175872">
        <ele>669.877714</ele>
        <time>2020-08-08T11:57:01.601Z</time>
      </trkpt>
      <trkpt lat="38.260474" lon="-3.176036">
        <ele>670.287847</ele>
        <time>2020-08-08T11:57:03.595Z</time>
      </trkpt>
      <trkpt lat="38.260431" lon="-3.176182">
        <ele>670.664885</ele>
        <time>2020-08-08T11:57:05.590Z</time>
      </trkpt>
      <trkpt lat="38.260393" lon="-3.176325">
        <ele>671.029917</ele>
        <time>2020-08-08T11:57:07.598Z</time>
      </trkpt>
      <trkpt lat="38.260357" lon="-3.176465">
        <ele>671.386121</ele>
        <time>2020-08-08T11:57:09.585Z</time>
      </trkpt>
      <trkpt lat="38.260315" lon="-3.176634">
        <ele>672.028227</ele>
        <time>2020-08-08T11:57:11.588Z</time>
      </trkpt>
      <trkpt lat="38.260267" lon="-3.176781">
        <ele>672.850592</ele>
        <time>2020-08-08T11:57:13.592Z</time>
      </trkpt>
      <trkpt lat="38.260236" lon="-3.176920">
        <ele>673.596993</ele>
        <time>2020-08-08T11:57:15.593Z</time>
      </trkpt>
      <trkpt lat="38.260199" lon="-3.177069">
        <ele>674.404221</ele>
        <time>2020-08-08T11:57:17.609Z</time>
      </trkpt>
      <trkpt lat="38.260150" lon="-3.177218">
        <ele>675.238654</ele>
        <time>2020-08-08T11:57:19.588Z</time>
      </trkpt>
      <trkpt lat="38.260115" lon="-3.177373">
        <ele>676.071754</ele>
        <time>2020-08-08T11:57:21.604Z</time>
      </trkpt>
      <trkpt lat="38.260071" lon="-3.177535">
        <ele>676.957211</ele>
        <time>2020-08-08T11:57:23.599Z</time>
      </trkpt>
      <trkpt lat="38.260017" lon="-3.177666">
        <ele>677.721468</ele>
        <time>2020-08-08T11:57:25.599Z</time>
      </trkpt>
      <trkpt lat="38.259982" lon="-3.177822">
        <ele>678.559535</ele>
        <time>2020-08-08T11:57:27.580Z</time>
      </trkpt>
      <trkpt lat="38.259941" lon="-3.177964">
        <ele>679.341054</ele>
        <time>2020-08-08T11:57:29.592Z</time>
      </trkpt>
      <trkpt lat="38.259894" lon="-3.178104">
        <ele>680.127548</ele>
        <time>2020-08-08T11:57:31.599Z</time>
      </trkpt>
      <trkpt lat="38.259856" lon="-3.178224">
        <ele>680.795918</ele>
        <time>2020-08-08T11:57:33.600Z</time>
      </trkpt>
      <trkpt lat="38.259820" lon="-3.178353">
        <ele>681.503102</ele>
        <time>2020-08-08T11:57:35.613Z</time>
      </trkpt>
      <trkpt lat="38.259773" lon="-3.178479">
        <ele>682.223664</ele>
        <time>2020-08-08T11:57:37.591Z</time>
      </trkpt>
      <trkpt lat="38.259735" lon="-3.178609">
        <ele>682.940202</ele>
        <time>2020-08-08T11:57:39.599Z</time>
      </trkpt>
      <trkpt lat="38.259703" lon="-3.178733">
        <ele>683.403190</ele>
        <time>2020-08-08T11:57:41.608Z</time>
      </trkpt>
      <trkpt lat="38.259670" lon="-3.178856">
        <ele>683.160792</ele>
        <time>2020-08-08T11:57:43.595Z</time>
      </trkpt>
      <trkpt lat="38.259630" lon="-3.178968">
        <ele>682.931338</ele>
        <time>2020-08-08T11:57:45.592Z</time>
      </trkpt>
      <trkpt lat="38.259594" lon="-3.179089">
        <ele>682.690036</ele>
        <time>2020-08-08T11:57:47.593Z</time>
      </trkpt>
      <trkpt lat="38.259562" lon="-3.179218">
        <ele>682.437749</ele>
        <time>2020-08-08T11:57:49.589Z</time>
      </trkpt>
      <trkpt lat="38.259530" lon="-3.179344">
        <ele>682.190792</ele>
        <time>2020-08-08T11:57:51.590Z</time>
      </trkpt>
      <trkpt lat="38.259495" lon="-3.179472">
        <ele>681.938030</ele>
        <time>2020-08-08T11:57:53.618Z</time>
      </trkpt>
      <trkpt lat="38.259457" lon="-3.179581">
        <ele>681.715626</ele>
        <time>2020-08-08T11:57:55.593Z</time>
      </trkpt>
      <trkpt lat="38.259426" lon="-3.179708">
        <ele>681.467609</ele>
        <time>2020-08-08T11:57:57.611Z</time>
      </trkpt>
      <trkpt lat="38.259390" lon="-3.179829">
        <ele>681.226306</ele>
        <time>2020-08-08T11:57:59.596Z</time>
      </trkpt>
      <trkpt lat="38.259353" lon="-3.179944">
        <ele>680.994541</ele>
        <time>2020-08-08T11:58:01.586Z</time>
      </trkpt>
      <trkpt lat="38.259311" lon="-3.180073">
        <ele>680.734113</ele>
        <time>2020-08-08T11:58:03.604Z</time>
      </trkpt>
      <trkpt lat="38.259272" lon="-3.180187">
        <ele>680.502217</ele>
        <time>2020-08-08T11:58:05.611Z</time>
      </trkpt>
      <trkpt lat="38.259239" lon="-3.180348">
        <ele>680.191913</ele>
        <time>2020-08-08T11:58:08.592Z</time>
      </trkpt>
      <trkpt lat="38.259192" lon="-3.180496">
        <ele>679.894194</ele>
        <time>2020-08-08T11:58:11.611Z</time>
      </trkpt>
      <trkpt lat="38.259139" lon="-3.180644">
        <ele>679.590845</ele>
        <time>2020-08-08T11:58:14.600Z</time>
      </trkpt>
      <trkpt lat="38.259102" lon="-3.180778">
        <ele>679.325952</ele>
        <time>2020-08-08T11:58:17.589Z</time>
      </trkpt>
      <trkpt lat="38.259065" lon="-3.180931">
        <ele>679.299217</ele>
        <time>2020-08-08T11:58:20.592Z</time>
      </trkpt>
      <trkpt lat="38.259020" lon="-3.181081">
        <ele>679.508190</ele>
        <time>2020-08-08T11:58:23.587Z</time>
      </trkpt>
      <trkpt lat="38.258995" lon="-3.181248">
        <ele>679.729440</ele>
        <time>2020-08-08T11:58:26.584Z</time>
      </trkpt>
      <trkpt lat="38.258970" lon="-3.181364">
        <ele>679.885987</ele>
        <time>2020-08-08T11:58:28.614Z</time>
      </trkpt>
      <trkpt lat="38.258928" lon="-3.181518">
        <ele>680.098148</ele>
        <time>2020-08-08T11:58:31.589Z</time>
      </trkpt>
      <trkpt lat="38.258876" lon="-3.181632">
        <ele>680.269725</ele>
        <time>2020-08-08T11:58:33.583Z</time>
      </trkpt>
      <trkpt lat="38.258849" lon="-3.181764">
        <ele>680.447244</ele>
        <time>2020-08-08T11:58:35.586Z</time>
      </trkpt>
      <trkpt lat="38.258785" lon="-3.181921">
        <ele>680.677459</ele>
        <time>2020-08-08T11:58:38.588Z</time>
      </trkpt>
      <trkpt lat="38.258730" lon="-3.182055">
        <ele>680.874235</ele>
        <time>2020-08-08T11:58:41.582Z</time>
      </trkpt>
      <trkpt lat="38.258683" lon="-3.182164">
        <ele>681.036070</ele>
        <time>2020-08-08T11:58:43.595Z</time>
      </trkpt>
      <trkpt lat="38.258559" lon="-3.182507">
        <ele>681.527493</ele>
        <time>2020-08-08T11:58:50.613Z</time>
      </trkpt>
      <trkpt lat="38.258570" lon="-3.182626">
        <ele>681.683431</ele>
        <time>2020-08-08T11:58:52.579Z</time>
      </trkpt>
      <trkpt lat="38.258501" lon="-3.182759">
        <ele>681.890886</ele>
        <time>2020-08-08T11:58:55.584Z</time>
      </trkpt>
      <trkpt lat="38.258454" lon="-3.182863">
        <ele>682.047049</ele>
        <time>2020-08-08T11:58:57.583Z</time>
      </trkpt>
      <trkpt lat="38.258443" lon="-3.182978">
        <ele>682.164072</ele>
        <time>2020-08-08T11:58:59.588Z</time>
      </trkpt>
      <trkpt lat="38.258464" lon="-3.183140">
        <ele>682.131518</ele>
        <time>2020-08-08T11:59:01.604Z</time>
      </trkpt>
      <trkpt lat="38.258399" lon="-3.183237">
        <ele>682.106234</ele>
        <time>2020-08-08T11:59:03.612Z</time>
      </trkpt>
      <trkpt lat="38.258334" lon="-3.183357">
        <ele>682.077330</ele>
        <time>2020-08-08T11:59:07.594Z</time>
      </trkpt>
      <trkpt lat="38.258326" lon="-3.183476">
        <ele>682.053649</ele>
        <time>2020-08-08T11:59:09.619Z</time>
      </trkpt>
      <trkpt lat="38.258281" lon="-3.183592">
        <ele>682.027996</ele>
        <time>2020-08-08T11:59:11.607Z</time>
      </trkpt>
      <trkpt lat="38.258223" lon="-3.183725">
        <ele>681.997832</ele>
        <time>2020-08-08T11:59:14.618Z</time>
      </trkpt>
      <trkpt lat="38.258161" lon="-3.183862">
        <ele>681.966481</ele>
        <time>2020-08-08T11:59:17.601Z</time>
      </trkpt>
      <trkpt lat="38.258165" lon="-3.184018">
        <ele>681.935534</ele>
        <time>2020-08-08T11:59:20.599Z</time>
      </trkpt>
      <trkpt lat="38.258095" lon="-3.184140">
        <ele>681.905575</ele>
        <time>2020-08-08T11:59:23.598Z</time>
      </trkpt>
      <trkpt lat="38.258055" lon="-3.184297">
        <ele>681.872849</ele>
        <time>2020-08-08T11:59:26.606Z</time>
      </trkpt>
      <trkpt lat="38.258036" lon="-3.184410">
        <ele>681.849937</ele>
        <time>2020-08-08T11:59:29.586Z</time>
      </trkpt>
      <trkpt lat="38.257996" lon="-3.184562">
        <ele>681.818152</ele>
        <time>2020-08-08T11:59:32.578Z</time>
      </trkpt>
      <trkpt lat="38.257977" lon="-3.184694">
        <ele>681.791544</ele>
        <time>2020-08-08T11:59:34.611Z</time>
      </trkpt>
      <trkpt lat="38.257937" lon="-3.184804">
        <ele>681.767509</ele>
        <time>2020-08-08T11:59:36.607Z</time>
      </trkpt>
      <trkpt lat="38.257890" lon="-3.184903">
        <ele>681.744571</ele>
        <time>2020-08-08T11:59:38.621Z</time>
      </trkpt>
      <trkpt lat="38.257838" lon="-3.185027">
        <ele>681.716699</ele>
        <time>2020-08-08T11:59:41.590Z</time>
      </trkpt>
      <trkpt lat="38.257777" lon="-3.185154">
        <ele>681.973544</ele>
        <time>2020-08-08T11:59:44.625Z</time>
      </trkpt>
      <trkpt lat="38.257739" lon="-3.185277">
        <ele>682.223322</ele>
        <time>2020-08-08T11:59:47.617Z</time>
      </trkpt>
      <trkpt lat="38.257702" lon="-3.185394">
        <ele>682.461675</ele>
        <time>2020-08-08T11:59:50.588Z</time>
      </trkpt>
      <trkpt lat="38.257663" lon="-3.185509">
        <ele>682.698394</ele>
        <time>2020-08-08T11:59:53.598Z</time>
      </trkpt>
      <trkpt lat="38.257614" lon="-3.185623">
        <ele>682.943985</ele>
        <time>2020-08-08T11:59:56.615Z</time>
      </trkpt>
      <trkpt lat="38.257581" lon="-3.185750">
        <ele>683.196778</ele>
        <time>2020-08-08T11:59:59.595Z</time>
      </trkpt>
      <trkpt lat="38.257548" lon="-3.185888">
        <ele>683.469383</ele>
        <time>2020-08-08T12:00:02.587Z</time>
      </trkpt>
      <trkpt lat="38.257511" lon="-3.186020">
        <ele>683.734243</ele>
        <time>2020-08-08T12:00:05.596Z</time>
      </trkpt>
      <trkpt lat="38.257477" lon="-3.186164">
        <ele>684.018398</ele>
        <time>2020-08-08T12:00:08.603Z</time>
      </trkpt>
      <trkpt lat="38.257442" lon="-3.186295">
        <ele>684.279889</ele>
        <time>2020-08-08T12:00:11.590Z</time>
      </trkpt>
      <trkpt lat="38.257414" lon="-3.186418">
        <ele>684.521896</ele>
        <time>2020-08-08T12:00:14.606Z</time>
      </trkpt>
      <trkpt lat="38.257391" lon="-3.186537">
        <ele>684.753485</ele>
        <time>2020-08-08T12:00:17.595Z</time>
      </trkpt>
      <trkpt lat="38.257375" lon="-3.186662">
        <ele>684.992818</ele>
        <time>2020-08-08T12:00:20.597Z</time>
      </trkpt>
      <trkpt lat="38.257333" lon="-3.186772">
        <ele>685.223959</ele>
        <time>2020-08-08T12:00:23.600Z</time>
      </trkpt>
      <trkpt lat="38.257307" lon="-3.186908">
        <ele>685.488469</ele>
        <time>2020-08-08T12:00:27.595Z</time>
      </trkpt>
      <trkpt lat="38.257272" lon="-3.187052">
        <ele>685.773327</ele>
        <time>2020-08-08T12:00:31.602Z</time>
      </trkpt>
      <trkpt lat="38.257232" lon="-3.187175">
        <ele>686.024909</ele>
        <time>2020-08-08T12:00:35.607Z</time>
      </trkpt>
      <trkpt lat="38.257197" lon="-3.187297">
        <ele>686.142733</ele>
        <time>2020-08-08T12:00:38.593Z</time>
      </trkpt>
      <trkpt lat="38.257141" lon="-3.187399">
        <ele>686.245944</ele>
        <time>2020-08-08T12:00:41.606Z</time>
      </trkpt>
      <trkpt lat="38.257092" lon="-3.187526">
        <ele>686.363290</ele>
        <time>2020-08-08T12:00:44.593Z</time>
      </trkpt>
      <trkpt lat="38.257056" lon="-3.187647">
        <ele>686.470594</ele>
        <time>2020-08-08T12:00:47.592Z</time>
      </trkpt>
      <trkpt lat="38.257028" lon="-3.187756">
        <ele>686.565699</ele>
        <time>2020-08-08T12:00:50.592Z</time>
      </trkpt>
      <trkpt lat="38.256981" lon="-3.187882">
        <ele>686.681379</ele>
        <time>2020-08-08T12:00:54.595Z</time>
      </trkpt>
      <trkpt lat="38.256952" lon="-3.187992">
        <ele>686.777605</ele>
        <time>2020-08-08T12:00:57.594Z</time>
      </trkpt>
      <trkpt lat="38.256903" lon="-3.188114">
        <ele>686.891243</ele>
        <time>2020-08-08T12:01:01.614Z</time>
      </trkpt>
      <trkpt lat="38.256845" lon="-3.188237">
        <ele>687.010224</ele>
        <time>2020-08-08T12:01:05.597Z</time>
      </trkpt>
      <trkpt lat="38.256808" lon="-3.188349">
        <ele>687.110989</ele>
        <time>2020-08-08T12:01:08.613Z</time>
      </trkpt>
      <trkpt lat="38.256765" lon="-3.188477">
        <ele>687.226443</ele>
        <time>2020-08-08T12:01:12.600Z</time>
      </trkpt>
      <trkpt lat="38.256744" lon="-3.188624">
        <ele>687.350349</ele>
        <time>2020-08-08T12:01:16.623Z</time>
      </trkpt>
      <trkpt lat="38.256709" lon="-3.188732">
        <ele>687.447240</ele>
        <time>2020-08-08T12:01:19.615Z</time>
      </trkpt>
      <trkpt lat="38.256675" lon="-3.188842">
        <ele>687.545274</ele>
        <time>2020-08-08T12:01:22.606Z</time>
      </trkpt>
      <trkpt lat="38.256637" lon="-3.188971">
        <ele>687.659531</ele>
        <time>2020-08-08T12:01:25.591Z</time>
      </trkpt>
      <trkpt lat="38.256613" lon="-3.189084">
        <ele>687.756608</ele>
        <time>2020-08-08T12:01:28.592Z</time>
      </trkpt>
      <trkpt lat="38.256585" lon="-3.189204">
        <ele>687.860423</ele>
        <time>2020-08-08T12:01:31.613Z</time>
      </trkpt>
      <trkpt lat="38.256527" lon="-3.189341">
        <ele>687.985610</ele>
        <time>2020-08-08T12:01:35.617Z</time>
      </trkpt>
      <trkpt lat="38.256483" lon="-3.189443">
        <ele>688.074149</ele>
        <time>2020-08-08T12:01:38.610Z</time>
      </trkpt>
      <trkpt lat="38.256448" lon="-3.189567">
        <ele>688.174397</ele>
        <time>2020-08-08T12:01:42.597Z</time>
      </trkpt>
      <trkpt lat="38.256414" lon="-3.189706">
        <ele>688.285160</ele>
        <time>2020-08-08T12:01:46.615Z</time>
      </trkpt>
      <trkpt lat="38.256371" lon="-3.189814">
        <ele>688.377284</ele>
        <time>2020-08-08T12:01:49.588Z</time>
      </trkpt>
      <trkpt lat="38.256323" lon="-3.189919">
        <ele>688.469718</ele>
        <time>2020-08-08T12:01:52.584Z</time>
      </trkpt>
      <trkpt lat="38.256305" lon="-3.190046">
        <ele>688.567901</ele>
        <time>2020-08-08T12:01:55.614Z</time>
      </trkpt>
      <trkpt lat="38.256270" lon="-3.190171">
        <ele>688.668865</ele>
        <time>2020-08-08T12:01:58.619Z</time>
      </trkpt>
      <trkpt lat="38.256239" lon="-3.190291">
        <ele>688.764974</ele>
        <time>2020-08-08T12:02:01.598Z</time>
      </trkpt>
      <trkpt lat="38.256226" lon="-3.190411">
        <ele>688.857135</ele>
        <time>2020-08-08T12:02:04.612Z</time>
      </trkpt>
      <trkpt lat="38.256177" lon="-3.190547">
        <ele>688.970974</ele>
        <time>2020-08-08T12:02:08.597Z</time>
      </trkpt>
      <trkpt lat="38.256120" lon="-3.190637">
        <ele>689.058941</ele>
        <time>2020-08-08T12:02:11.575Z</time>
      </trkpt>
      <trkpt lat="38.256069" lon="-3.190755">
        <ele>689.161416</ele>
        <time>2020-08-08T12:02:14.590Z</time>
      </trkpt>
      <trkpt lat="38.256023" lon="-3.190857">
        <ele>689.250904</ele>
        <time>2020-08-08T12:02:17.609Z</time>
      </trkpt>
      <trkpt lat="38.255968" lon="-3.190967">
        <ele>689.350117</ele>
        <time>2020-08-08T12:02:21.616Z</time>
      </trkpt>
      <trkpt lat="38.255907" lon="-3.191106">
        <ele>689.471263</ele>
        <time>2020-08-08T12:02:25.597Z</time>
      </trkpt>
      <trkpt lat="38.255887" lon="-3.191253">
        <ele>689.584767</ele>
        <time>2020-08-08T12:02:29.613Z</time>
      </trkpt>
      <trkpt lat="38.255848" lon="-3.191357">
        <ele>689.672449</ele>
        <time>2020-08-08T12:02:32.605Z</time>
      </trkpt>
      <trkpt lat="38.255796" lon="-3.191493">
        <ele>689.649802</ele>
        <time>2020-08-08T12:02:36.594Z</time>
      </trkpt>
      <trkpt lat="38.255744" lon="-3.191600">
        <ele>689.616831</ele>
        <time>2020-08-08T12:02:39.626Z</time>
      </trkpt>
      <trkpt lat="38.255711" lon="-3.191729">
        <ele>689.581282</ele>
        <time>2020-08-08T12:02:43.598Z</time>
      </trkpt>
      <trkpt lat="38.255677" lon="-3.191851">
        <ele>689.547363</ele>
        <time>2020-08-08T12:02:48.615Z</time>
      </trkpt>
      <trkpt lat="38.255673" lon="-3.191988">
        <ele>689.511442</ele>
        <time>2020-08-08T12:02:51.616Z</time>
      </trkpt>
      <trkpt lat="38.255653" lon="-3.192115">
        <ele>689.477503</ele>
        <time>2020-08-08T12:02:54.615Z</time>
      </trkpt>
      <trkpt lat="38.255624" lon="-3.192229">
        <ele>689.446104</ele>
        <time>2020-08-08T12:02:57.608Z</time>
      </trkpt>
      <trkpt lat="38.255590" lon="-3.192341">
        <ele>689.414642</ele>
        <time>2020-08-08T12:03:00.617Z</time>
      </trkpt>
      <trkpt lat="38.255560" lon="-3.192469">
        <ele>689.379642</ele>
        <time>2020-08-08T12:03:03.618Z</time>
      </trkpt>
      <trkpt lat="38.255510" lon="-3.192574">
        <ele>689.347466</ele>
        <time>2020-08-08T12:03:06.590Z</time>
      </trkpt>
      <trkpt lat="38.255464" lon="-3.192697">
        <ele>689.311770</ele>
        <time>2020-08-08T12:03:09.624Z</time>
      </trkpt>
      <trkpt lat="38.255409" lon="-3.192814">
        <ele>689.276040</ele>
        <time>2020-08-08T12:03:12.598Z</time>
      </trkpt>
      <trkpt lat="38.255342" lon="-3.192897">
        <ele>689.244851</ele>
        <time>2020-08-08T12:03:15.622Z</time>
      </trkpt>
      <trkpt lat="38.255278" lon="-3.192983">
        <ele>689.213806</ele>
        <time>2020-08-08T12:03:18.578Z</time>
      </trkpt>
      <trkpt lat="38.255249" lon="-3.193097">
        <ele>689.182408</ele>
        <time>2020-08-08T12:03:21.600Z</time>
      </trkpt>
      <trkpt lat="38.255235" lon="-3.193221">
        <ele>689.149583</ele>
        <time>2020-08-08T12:03:24.626Z</time>
      </trkpt>
      <trkpt lat="38.255180" lon="-3.193352">
        <ele>689.110661</ele>
        <time>2020-08-08T12:03:28.610Z</time>
      </trkpt>
      <trkpt lat="38.255143" lon="-3.193482">
        <ele>689.142265</ele>
        <time>2020-08-08T12:03:31.590Z</time>
      </trkpt>
      <trkpt lat="38.255118" lon="-3.193599">
        <ele>689.315792</ele>
        <time>2020-08-08T12:03:34.597Z</time>
      </trkpt>
      <trkpt lat="38.255059" lon="-3.193726">
        <ele>689.526966</ele>
        <time>2020-08-08T12:03:38.595Z</time>
      </trkpt>
      <trkpt lat="38.254979" lon="-3.193826">
        <ele>689.731262</ele>
        <time>2020-08-08T12:03:42.601Z</time>
      </trkpt>
      <trkpt lat="38.254912" lon="-3.193906">
        <ele>689.898645</ele>
        <time>2020-08-08T12:03:45.597Z</time>
      </trkpt>
      <trkpt lat="38.254895" lon="-3.194043">
        <ele>690.097139</ele>
        <time>2020-08-08T12:03:50.605Z</time>
      </trkpt>
      <trkpt lat="38.254863" lon="-3.194160">
        <ele>690.274444</ele>
        <time>2020-08-08T12:03:53.622Z</time>
      </trkpt>
      <trkpt lat="38.254802" lon="-3.194286">
        <ele>690.486278</ele>
        <time>2020-08-08T12:03:57.603Z</time>
      </trkpt>
      <trkpt lat="38.254731" lon="-3.194372">
        <ele>690.664856</ele>
        <time>2020-08-08T12:04:01.604Z</time>
      </trkpt>
      <trkpt lat="38.254678" lon="-3.194495">
        <ele>690.865642</ele>
        <time>2020-08-08T12:04:05.593Z</time>
      </trkpt>
      <trkpt lat="38.254660" lon="-3.194637">
        <ele>691.071490</ele>
        <time>2020-08-08T12:04:09.585Z</time>
      </trkpt>
      <trkpt lat="38.254641" lon="-3.194766">
        <ele>691.259322</ele>
        <time>2020-08-08T12:04:15.609Z</time>
      </trkpt>
      <trkpt lat="38.254547" lon="-3.194819">
        <ele>691.446672</ele>
        <time>2020-08-08T12:04:20.602Z</time>
      </trkpt>
      <trkpt lat="38.254462" lon="-3.194860">
        <ele>691.612321</ele>
        <time>2020-08-08T12:04:24.598Z</time>
      </trkpt>
      <trkpt lat="38.254388" lon="-3.194937">
        <ele>691.786478</ele>
        <time>2020-08-08T12:04:30.588Z</time>
      </trkpt>
      <trkpt lat="38.254319" lon="-3.195045">
        <ele>691.985731</ele>
        <time>2020-08-08T12:04:34.614Z</time>
      </trkpt>
      <trkpt lat="38.254247" lon="-3.195127">
        <ele>692.161768</ele>
        <time>2020-08-08T12:04:38.612Z</time>
      </trkpt>
      <trkpt lat="38.254182" lon="-3.195216">
        <ele>692.335709</ele>
        <time>2020-08-08T12:04:43.590Z</time>
      </trkpt>
      <trkpt lat="38.254096" lon="-3.195299">
        <ele>692.362863</ele>
        <time>2020-08-08T12:04:48.579Z</time>
      </trkpt>
      <trkpt lat="38.253993" lon="-3.195364">
        <ele>692.362863</ele>
        <time>2020-08-08T12:04:53.592Z</time>
      </trkpt>
      <trkpt lat="38.253922" lon="-3.195449">
        <ele>692.362863</ele>
        <time>2020-08-08T12:04:58.587Z</time>
      </trkpt>
      <trkpt lat="38.253919" lon="-3.195579">
        <ele>692.362863</ele>
        <time>2020-08-08T12:05:02.602Z</time>
      </trkpt>
      <trkpt lat="38.253829" lon="-3.195668">
        <ele>692.362863</ele>
        <time>2020-08-08T12:05:07.581Z</time>
      </trkpt>
      <trkpt lat="38.253725" lon="-3.195714">
        <ele>692.362863</ele>
        <time>2020-08-08T12:05:11.606Z</time>
      </trkpt>
      <trkpt lat="38.253639" lon="-3.195761">
        <ele>692.362863</ele>
        <time>2020-08-08T12:05:14.590Z</time>
      </trkpt>
      <trkpt lat="38.253549" lon="-3.195833">
        <ele>692.362863</ele>
        <time>2020-08-08T12:05:19.599Z</time>
      </trkpt>
      <trkpt lat="38.253510" lon="-3.195938">
        <ele>692.362863</ele>
        <time>2020-08-08T12:05:23.616Z</time>
      </trkpt>
      <trkpt lat="38.253497" lon="-3.196074">
        <ele>692.362863</ele>
        <time>2020-08-08T12:05:27.593Z</time>
      </trkpt>
      <trkpt lat="38.253451" lon="-3.196198">
        <ele>692.362863</ele>
        <time>2020-08-08T12:05:32.603Z</time>
      </trkpt>
      <trkpt lat="38.253368" lon="-3.196293">
        <ele>692.362863</ele>
        <time>2020-08-08T12:05:36.607Z</time>
      </trkpt>
      <trkpt lat="38.253290" lon="-3.196378">
        <ele>692.362863</ele>
        <time>2020-08-08T12:05:40.607Z</time>
      </trkpt>
      <trkpt lat="38.253216" lon="-3.196444">
        <ele>692.362863</ele>
        <time>2020-08-08T12:05:43.587Z</time>
      </trkpt>
      <trkpt lat="38.253177" lon="-3.196559">
        <ele>692.362863</ele>
        <time>2020-08-08T12:05:48.629Z</time>
      </trkpt>
      <trkpt lat="38.253158" lon="-3.196679">
        <ele>692.362863</ele>
        <time>2020-08-08T12:05:53.626Z</time>
      </trkpt>
      <trkpt lat="38.253101" lon="-3.196791">
        <ele>692.362863</ele>
        <time>2020-08-08T12:05:58.592Z</time>
      </trkpt>
      <trkpt lat="38.253051" lon="-3.196899">
        <ele>692.362863</ele>
        <time>2020-08-08T12:06:02.596Z</time>
      </trkpt>
      <trkpt lat="38.252999" lon="-3.197018">
        <ele>692.362863</ele>
        <time>2020-08-08T12:06:07.614Z</time>
      </trkpt>
      <trkpt lat="38.252959" lon="-3.197125">
        <ele>692.362863</ele>
        <time>2020-08-08T12:06:12.593Z</time>
      </trkpt>
      <trkpt lat="38.252919" lon="-3.197231">
        <ele>692.362863</ele>
        <time>2020-08-08T12:06:18.619Z</time>
      </trkpt>
      <trkpt lat="38.252902" lon="-3.197345">
        <ele>692.362863</ele>
        <time>2020-08-08T12:06:36.590Z</time>
      </trkpt>
      <trkpt lat="38.252999" lon="-3.197357">
        <ele>692.362863</ele>
        <time>2020-08-08T12:11:19.043Z</time>
      </trkpt>
      <trkpt lat="38.253075" lon="-3.196950">
        <ele>654.083726</ele>
        <time>2020-08-08T20:47:56.963Z</time>
      </trkpt>
      <trkpt lat="38.252947" lon="-3.197151">
        <ele>654.083726</ele>
        <time>2020-08-08T20:48:03.252Z</time>
      </trkpt>
      <trkpt lat="38.252793" lon="-3.197441">
        <ele>654.083726</ele>
        <time>2020-08-08T20:48:12.002Z</time>
      </trkpt>
      <trkpt lat="38.252498" lon="-3.197997">
        <ele>654.514677</ele>
        <time>2020-08-08T20:48:30.100Z</time>
      </trkpt>
      <trkpt lat="38.252261" lon="-3.198441">
        <ele>656.232748</ele>
        <time>2020-08-08T20:48:45.708Z</time>
      </trkpt>
      <trkpt lat="38.251935" lon="-3.199010">
        <ele>658.486802</ele>
        <time>2020-08-08T20:49:07.651Z</time>
      </trkpt>
      <trkpt lat="38.251900" lon="-3.199071">
        <ele>658.728572</ele>
        <time>2020-08-08T20:49:09.838Z</time>
      </trkpt>
      <trkpt lat="38.251689" lon="-3.199445">
        <ele>660.202317</ele>
        <time>2020-08-08T20:49:24.363Z</time>
      </trkpt>
      <trkpt lat="38.251683" lon="-3.199504">
        <ele>660.392709</ele>
        <time>2020-08-08T20:49:26.554Z</time>
      </trkpt>
      <trkpt lat="38.251609" lon="-3.199678">
        <ele>661.025968</ele>
        <time>2020-08-08T20:49:32.675Z</time>
      </trkpt>
      <trkpt lat="38.251577" lon="-3.199770">
        <ele>661.347979</ele>
        <time>2020-08-08T20:49:35.991Z</time>
      </trkpt>
      <trkpt lat="38.251575" lon="-3.199788">
        <ele>661.406157</ele>
        <time>2020-08-08T20:49:36.678Z</time>
      </trkpt>
      <trkpt lat="38.251532" lon="-3.199861">
        <ele>661.685323</ele>
        <time>2020-08-08T20:49:39.561Z</time>
      </trkpt>
      <trkpt lat="38.251519" lon="-3.199869">
        <ele>661.741502</ele>
        <time>2020-08-08T20:49:40.316Z</time>
      </trkpt>
      <trkpt lat="38.251485" lon="-3.199995">
        <ele>662.148596</ele>
        <time>2020-08-08T20:49:44.746Z</time>
      </trkpt>
      <trkpt lat="38.251403" lon="-3.200145">
        <ele>662.707047</ele>
        <time>2020-08-08T20:49:50.669Z</time>
      </trkpt>
      <trkpt lat="38.250849" lon="-3.201192">
        <ele>666.564673</ele>
        <time>2020-08-08T20:50:29.744Z</time>
      </trkpt>
      <trkpt lat="38.250789" lon="-3.201121">
        <ele>666.883370</ele>
        <time>2020-08-08T20:50:32.705Z</time>
      </trkpt>
      <trkpt lat="38.250737" lon="-3.201310">
        <ele>667.495292</ele>
        <time>2020-08-08T20:50:38.382Z</time>
      </trkpt>
      <trkpt lat="38.250718" lon="-3.201575">
        <ele>668.308391</ele>
        <time>2020-08-08T20:50:46.139Z</time>
      </trkpt>
      <trkpt lat="38.250756" lon="-3.201791">
        <ele>668.808114</ele>
        <time>2020-08-08T20:50:51.572Z</time>
      </trkpt>
      <trkpt lat="38.250851" lon="-3.202332">
        <ele>669.979627</ele>
        <time>2020-08-08T20:51:05.336Z</time>
      </trkpt>
      <trkpt lat="38.250845" lon="-3.202544">
        <ele>670.427932</ele>
        <time>2020-08-08T20:51:11.679Z</time>
      </trkpt>
      <trkpt lat="38.250824" lon="-3.203248">
        <ele>671.916747</ele>
        <time>2020-08-08T20:51:28.065Z</time>
      </trkpt>
      <trkpt lat="38.250668" lon="-3.203187">
        <ele>672.355891</ele>
        <time>2020-08-08T20:51:34.190Z</time>
      </trkpt>
      <trkpt lat="38.250824" lon="-3.203248">
        <ele>672.795035</ele>
        <time>2020-08-08T20:51:38.425Z</time>
      </trkpt>
      <trkpt lat="38.250805" lon="-3.203883">
        <ele>674.324395</ele>
        <time>2020-08-08T20:51:56.506Z</time>
      </trkpt>
      <trkpt lat="38.250777" lon="-3.204059">
        <ele>674.783768</ele>
        <time>2020-08-08T20:52:01.295Z</time>
      </trkpt>
      <trkpt lat="38.250670" lon="-3.204494">
        <ele>675.949857</ele>
        <time>2020-08-08T20:52:15.188Z</time>
      </trkpt>
      <trkpt lat="38.250553" lon="-3.204972">
        <ele>677.230656</ele>
        <time>2020-08-08T20:52:29.679Z</time>
      </trkpt>
      <trkpt lat="38.250573" lon="-3.205068">
        <ele>677.484730</ele>
        <time>2020-08-08T20:52:32.633Z</time>
      </trkpt>
      <trkpt lat="38.250599" lon="-3.205188">
        <ele>677.803173</ele>
        <time>2020-08-08T20:52:36.480Z</time>
      </trkpt>
      <trkpt lat="38.250667" lon="-3.205270">
        <ele>678.108242</ele>
        <time>2020-08-08T20:52:39.558Z</time>
      </trkpt>
      <trkpt lat="38.250772" lon="-3.205396">
        <ele>678.578219</ele>
        <time>2020-08-08T20:52:44.658Z</time>
      </trkpt>
      <trkpt lat="38.250839" lon="-3.205462">
        <ele>678.854151</ele>
        <time>2020-08-08T20:52:47.844Z</time>
      </trkpt>
      <trkpt lat="38.251224" lon="-3.205788">
        <ele>679.137511</ele>
        <time>2020-08-08T20:53:02.251Z</time>
      </trkpt>
      <trkpt lat="38.251501" lon="-3.206022">
        <ele>679.160371</ele>
        <time>2020-08-08T20:53:11.654Z</time>
      </trkpt>
      <trkpt lat="38.251572" lon="-3.206030">
        <ele>679.165272</ele>
        <time>2020-08-08T20:53:13.225Z</time>
      </trkpt>
      <trkpt lat="38.251938" lon="-3.206058">
        <ele>679.190487</ele>
        <time>2020-08-08T20:53:22.316Z</time>
      </trkpt>
      <trkpt lat="38.252359" lon="-3.206089">
        <ele>679.219486</ele>
        <time>2020-08-08T20:53:30.186Z</time>
      </trkpt>
      <trkpt lat="38.252512" lon="-3.206179">
        <ele>679.231076</ele>
        <time>2020-08-08T20:53:33.091Z</time>
      </trkpt>
      <trkpt lat="38.252823" lon="-3.206258">
        <ele>677.842836</ele>
        <time>2020-08-08T20:53:38.339Z</time>
      </trkpt>
      <trkpt lat="38.253109" lon="-3.206431">
        <ele>676.163982</ele>
        <time>2020-08-08T20:53:43.418Z</time>
      </trkpt>
      <trkpt lat="38.253309" lon="-3.206585">
        <ele>674.924726</ele>
        <time>2020-08-08T20:53:47.110Z</time>
      </trkpt>
      <trkpt lat="38.253729" lon="-3.207010">
        <ele>672.080269</ele>
        <time>2020-08-08T20:53:55.289Z</time>
      </trkpt>
      <trkpt lat="38.254181" lon="-3.207487">
        <ele>668.757417</ele>
        <time>2020-08-08T20:54:04.213Z</time>
      </trkpt>
      <trkpt lat="38.254058" lon="-3.207760">
        <ele>667.069666</ele>
        <time>2020-08-08T20:54:10.698Z</time>
      </trkpt>
      <trkpt lat="38.254147" lon="-3.208083">
        <ele>665.234106</ele>
        <time>2020-08-08T20:54:17.566Z</time>
      </trkpt>
      <trkpt lat="38.254762" lon="-3.208748">
        <ele>659.724802</ele>
        <time>2020-08-08T20:54:38.476Z</time>
      </trkpt>
      <trkpt lat="38.255470" lon="-3.210358">
        <ele>650.775499</ele>
        <time>2020-08-08T20:55:16.775Z</time>
      </trkpt>
      <trkpt lat="38.255875" lon="-3.211406">
        <ele>645.731585</ele>
        <time>2020-08-08T20:55:41.684Z</time>
      </trkpt>
      <trkpt lat="38.256000" lon="-3.211731">
        <ele>644.576325</ele>
        <time>2020-08-08T20:55:49.580Z</time>
      </trkpt>
      <trkpt lat="38.256089" lon="-3.212288">
        <ele>642.761783</ele>
        <time>2020-08-08T20:56:02.257Z</time>
      </trkpt>
      <trkpt lat="38.256191" lon="-3.212289">
        <ele>642.347110</ele>
        <time>2020-08-08T20:56:05.169Z</time>
      </trkpt>
      <trkpt lat="38.256302" lon="-3.214190">
        <ele>637.749384</ele>
        <time>2020-08-08T20:56:29.606Z</time>
      </trkpt>
      <trkpt lat="38.256256" lon="-3.215292">
        <ele>635.922258</ele>
        <time>2020-08-08T20:56:45.541Z</time>
      </trkpt>
      <trkpt lat="38.256039" lon="-3.216068">
        <ele>635.279114</ele>
        <time>2020-08-08T20:56:58.331Z</time>
      </trkpt>
      <trkpt lat="38.255727" lon="-3.217114">
        <ele>634.759813</ele>
        <time>2020-08-08T20:57:16.940Z</time>
      </trkpt>
      <trkpt lat="38.255510" lon="-3.218211">
        <ele>633.682756</ele>
        <time>2020-08-08T20:57:35.449Z</time>
      </trkpt>
      <trkpt lat="38.255330" lon="-3.219394">
        <ele>631.945120</ele>
        <time>2020-08-08T20:57:52.196Z</time>
      </trkpt>
      <trkpt lat="38.255094" lon="-3.220234">
        <ele>630.235017</ele>
        <time>2020-08-08T20:58:03.787Z</time>
      </trkpt>
      <trkpt lat="38.254905" lon="-3.220659">
        <ele>628.973219</ele>
        <time>2020-08-08T20:58:09.915Z</time>
      </trkpt>
      <trkpt lat="38.254553" lon="-3.221240">
        <ele>627.077434</ele>
        <time>2020-08-08T20:58:19.110Z</time>
      </trkpt>
      <trkpt lat="38.254014" lon="-3.221846">
        <ele>624.821488</ele>
        <time>2020-08-08T20:58:30.770Z</time>
      </trkpt>
      <trkpt lat="38.253934" lon="-3.221923">
        <ele>624.555586</ele>
        <time>2020-08-08T20:58:32.400Z</time>
      </trkpt>
      <trkpt lat="38.252985" lon="-3.222663">
        <ele>621.604939</ele>
        <time>2020-08-08T20:58:51.189Z</time>
      </trkpt>
      <trkpt lat="38.250678" lon="-3.224462">
        <ele>615.699144</ele>
        <time>2020-08-08T20:59:37.948Z</time>
      </trkpt>
      <trkpt lat="38.250458" lon="-3.224634">
        <ele>615.265282</ele>
        <time>2020-08-08T20:59:42.674Z</time>
      </trkpt>
      <trkpt lat="38.250007" lon="-3.224990">
        <ele>614.373506</ele>
        <time>2020-08-08T20:59:52.865Z</time>
      </trkpt>
      <trkpt lat="38.245147" lon="-3.228827">
        <ele>603.530841</ele>
        <time>2020-08-08T21:01:34.627Z</time>
      </trkpt>
      <trkpt lat="38.244647" lon="-3.229100">
        <ele>602.257241</ele>
        <time>2020-08-08T21:01:43.424Z</time>
      </trkpt>
      <trkpt lat="38.244061" lon="-3.229298">
        <ele>600.750904</ele>
        <time>2020-08-08T21:01:53.712Z</time>
      </trkpt>
      <trkpt lat="38.243998" lon="-3.229314">
        <ele>600.591294</ele>
        <time>2020-08-08T21:01:54.673Z</time>
      </trkpt>
      <trkpt lat="38.243405" lon="-3.229460">
        <ele>599.090664</ele>
        <time>2020-08-08T21:02:05.200Z</time>
      </trkpt>
      <trkpt lat="38.242939" lon="-3.229542">
        <ele>598.224394</ele>
        <time>2020-08-08T21:02:13.312Z</time>
      </trkpt>
      <trkpt lat="38.242366" lon="-3.229751">
        <ele>597.353755</ele>
        <time>2020-08-08T21:02:24.198Z</time>
      </trkpt>
      <trkpt lat="38.241798" lon="-3.230172">
        <ele>596.393743</ele>
        <time>2020-08-08T21:02:37.404Z</time>
      </trkpt>
      <trkpt lat="38.240684" lon="-3.231423">
        <ele>593.510424</ele>
        <time>2020-08-08T21:03:04.030Z</time>
      </trkpt>
      <trkpt lat="38.240339" lon="-3.231703">
        <ele>592.676501</ele>
        <time>2020-08-08T21:03:10.903Z</time>
      </trkpt>
      <trkpt lat="38.240002" lon="-3.231975">
        <ele>591.749486</ele>
        <time>2020-08-08T21:03:17.513Z</time>
      </trkpt>
      <trkpt lat="38.239640" lon="-3.232149">
        <ele>590.781205</ele>
        <time>2020-08-08T21:03:23.845Z</time>
      </trkpt>
      <trkpt lat="38.237958" lon="-3.232653">
        <ele>587.488760</ele>
        <time>2020-08-08T21:03:53.459Z</time>
      </trkpt>
      <trkpt lat="38.237169" lon="-3.233074">
        <ele>586.920377</ele>
        <time>2020-08-08T21:04:11.524Z</time>
      </trkpt>
      <trkpt lat="38.236637" lon="-3.233492">
        <ele>586.964632</ele>
        <time>2020-08-08T21:04:27.185Z</time>
      </trkpt>
      <trkpt lat="38.236252" lon="-3.233873">
        <ele>587.561917</ele>
        <time>2020-08-08T21:04:40.785Z</time>
      </trkpt>
      <trkpt lat="38.234852" lon="-3.235622">
        <ele>589.532632</ele>
        <time>2020-08-08T21:05:35.235Z</time>
      </trkpt>
      <trkpt lat="38.232841" lon="-3.237750">
        <ele>590.344916</ele>
        <time>2020-08-08T21:06:34.856Z</time>
      </trkpt>
      <trkpt lat="38.232155" lon="-3.238697">
        <ele>590.242937</ele>
        <time>2020-08-08T21:06:56.886Z</time>
      </trkpt>
      <trkpt lat="38.231747" lon="-3.239540">
        <ele>590.150873</ele>
        <time>2020-08-08T21:07:13.687Z</time>
      </trkpt>
      <trkpt lat="38.227612" lon="-3.252377">
        <ele>587.157465</ele>
        <time>2020-08-08T21:11:04.639Z</time>
      </trkpt>
      <trkpt lat="38.227288" lon="-3.253718">
        <ele>588.117048</ele>
        <time>2020-08-08T21:11:32.768Z</time>
      </trkpt>
      <trkpt lat="38.227116" lon="-3.254433">
        <ele>588.628492</ele>
        <time>2020-08-08T21:11:48.963Z</time>
      </trkpt>
      <trkpt lat="38.226498" lon="-3.257767">
        <ele>591.477010</ele>
        <time>2020-08-08T21:13:02.613Z</time>
      </trkpt>
      <trkpt lat="38.225811" lon="-3.260508">
        <ele>592.218258</ele>
        <time>2020-08-08T21:13:53.833Z</time>
      </trkpt>
      <trkpt lat="38.223557" lon="-3.267565">
        <ele>593.057331</ele>
        <time>2020-08-08T21:16:10.418Z</time>
      </trkpt>
      <trkpt lat="38.223049" lon="-3.268778">
        <ele>593.426543</ele>
        <time>2020-08-08T21:16:36.121Z</time>
      </trkpt>
      <trkpt lat="38.221849" lon="-3.270971">
        <ele>594.001486</ele>
        <time>2020-08-08T21:17:25.945Z</time>
      </trkpt>
      <trkpt lat="38.220871" lon="-3.272758">
        <ele>593.932766</ele>
        <time>2020-08-08T21:18:02.986Z</time>
      </trkpt>
      <trkpt lat="38.220131" lon="-3.274618">
        <ele>593.919995</ele>
        <time>2020-08-08T21:18:39.070Z</time>
      </trkpt>
      <trkpt lat="38.219414" lon="-3.276113">
        <ele>594.183293</ele>
        <time>2020-08-08T21:19:11.047Z</time>
      </trkpt>
      <trkpt lat="38.214386" lon="-3.284708">
        <ele>596.589285</ele>
        <time>2020-08-08T21:22:29.466Z</time>
      </trkpt>
      <trkpt lat="38.210171" lon="-3.291532">
        <ele>592.362540</ele>
        <time>2020-08-08T21:24:46.742Z</time>
      </trkpt>
      <trkpt lat="38.209806" lon="-3.292270">
        <ele>591.780667</ele>
        <time>2020-08-08T21:25:00.365Z</time>
      </trkpt>
      <trkpt lat="38.209851" lon="-3.292372">
        <ele>591.696572</ele>
        <time>2020-08-08T21:25:03.346Z</time>
      </trkpt>
      <trkpt lat="38.209835" lon="-3.292683">
        <ele>591.472515</ele>
        <time>2020-08-08T21:25:11.916Z</time>
      </trkpt>
      <trkpt lat="38.209506" lon="-3.293820">
        <ele>590.601463</ele>
        <time>2020-08-08T21:25:44.169Z</time>
      </trkpt>
      <trkpt lat="38.209211" lon="-3.294593">
        <ele>589.904094</ele>
        <time>2020-08-08T21:26:06.813Z</time>
      </trkpt>
      <trkpt lat="38.209050" lon="-3.295204">
        <ele>589.379409</ele>
        <time>2020-08-08T21:26:23.886Z</time>
      </trkpt>
      <trkpt lat="38.208220" lon="-3.297211">
        <ele>587.333709</ele>
        <time>2020-08-08T21:27:23.836Z</time>
      </trkpt>
      <trkpt lat="38.207862" lon="-3.297887">
        <ele>586.558694</ele>
        <time>2020-08-08T21:27:45.087Z</time>
      </trkpt>
      <trkpt lat="38.207508" lon="-3.299034">
        <ele>584.885269</ele>
        <time>2020-08-08T21:28:16.476Z</time>
      </trkpt>
      <trkpt lat="38.207360" lon="-3.300365">
        <ele>583.046695</ele>
        <time>2020-08-08T21:28:49.844Z</time>
      </trkpt>
      <trkpt lat="38.207158" lon="-3.300810">
        <ele>582.334293</ele>
        <time>2020-08-08T21:29:02.575Z</time>
      </trkpt>
      <trkpt lat="38.206901" lon="-3.301180">
        <ele>581.649729</ele>
        <time>2020-08-08T21:29:14.854Z</time>
      </trkpt>
      <trkpt lat="38.206593" lon="-3.301819">
        <ele>580.610556</ele>
        <time>2020-08-08T21:29:33.744Z</time>
      </trkpt>
      <trkpt lat="38.205160" lon="-3.303696">
        <ele>578.112005</ele>
        <time>2020-08-08T21:30:42.449Z</time>
      </trkpt>
      <trkpt lat="38.204528" lon="-3.305177">
        <ele>576.626815</ele>
        <time>2020-08-08T21:31:27.079Z</time>
      </trkpt>
      <trkpt lat="38.203870" lon="-3.306051">
        <ele>575.470491</ele>
        <time>2020-08-08T21:31:58.645Z</time>
      </trkpt>
      <trkpt lat="38.203002" lon="-3.306872">
        <ele>574.075012</ele>
        <time>2020-08-08T21:32:34.206Z</time>
      </trkpt>
      <trkpt lat="38.202500" lon="-3.307532">
        <ele>573.183156</ele>
        <time>2020-08-08T21:32:57.977Z</time>
      </trkpt>
      <trkpt lat="38.201948" lon="-3.308551">
        <ele>571.999925</ele>
        <time>2020-08-08T21:33:30.417Z</time>
      </trkpt>
      <trkpt lat="38.201269" lon="-3.309356">
        <ele>571.115698</ele>
        <time>2020-08-08T21:34:01.657Z</time>
      </trkpt>
      <trkpt lat="38.200561" lon="-3.310225">
        <ele>570.296627</ele>
        <time>2020-08-08T21:34:35.221Z</time>
      </trkpt>
      <trkpt lat="38.200342" lon="-3.310638">
        <ele>570.205874</ele>
        <time>2020-08-08T21:34:49.116Z</time>
      </trkpt>
      <trkpt lat="38.199608" lon="-3.311324">
        <ele>570.447952</ele>
        <time>2020-08-08T21:35:23.099Z</time>
      </trkpt>
      <trkpt lat="38.199342" lon="-3.311957">
        <ele>570.597899</ele>
        <time>2020-08-08T21:35:45.753Z</time>
      </trkpt>
      <trkpt lat="38.198984" lon="-3.312150">
        <ele>570.924585</ele>
        <time>2020-08-08T21:36:01.816Z</time>
      </trkpt>
      <trkpt lat="38.198453" lon="-3.312794">
        <ele>571.706478</ele>
        <time>2020-08-08T21:36:33.151Z</time>
      </trkpt>
      <trkpt lat="38.198204" lon="-3.313223">
        <ele>572.153222</ele>
        <time>2020-08-08T21:36:51.195Z</time>
      </trkpt>
      <trkpt lat="38.197222" lon="-3.314522">
        <ele>572.035316</ele>
        <time>2020-08-08T21:37:45.493Z</time>
      </trkpt>
      <trkpt lat="38.196864" lon="-3.315122">
        <ele>571.748282</ele>
        <time>2020-08-08T21:38:05.028Z</time>
      </trkpt>
      <trkpt lat="38.196543" lon="-3.315434">
        <ele>571.011783</ele>
        <time>2020-08-08T21:38:17.697Z</time>
      </trkpt>
      <trkpt lat="38.196252" lon="-3.315541">
        <ele>570.201900</ele>
        <time>2020-08-08T21:38:26.945Z</time>
      </trkpt>
      <trkpt lat="38.195881" lon="-3.316195">
        <ele>568.507068</ele>
        <time>2020-08-08T21:38:45.872Z</time>
      </trkpt>
      <trkpt lat="38.195624" lon="-3.316372">
        <ele>567.725727</ele>
        <time>2020-08-08T21:38:54.514Z</time>
      </trkpt>
      <trkpt lat="38.195139" lon="-3.316968">
        <ele>565.885352</ele>
        <time>2020-08-08T21:39:14.587Z</time>
      </trkpt>
      <trkpt lat="38.194815" lon="-3.317612">
        <ele>564.214321</ele>
        <time>2020-08-08T21:39:32.754Z</time>
      </trkpt>
      <trkpt lat="38.194195" lon="-3.318073">
        <ele>562.217537</ele>
        <time>2020-08-08T21:39:54.614Z</time>
      </trkpt>
      <trkpt lat="38.193950" lon="-3.318438">
        <ele>561.017132</ele>
        <time>2020-08-08T21:40:06.020Z</time>
      </trkpt>
      <trkpt lat="38.193718" lon="-3.319312">
        <ele>558.560748</ele>
        <time>2020-08-08T21:40:27.726Z</time>
      </trkpt>
      <trkpt lat="38.193099" lon="-3.320970">
        <ele>553.041560</ele>
        <time>2020-08-08T21:41:08.935Z</time>
      </trkpt>
      <trkpt lat="38.193040" lon="-3.321769">
        <ele>550.260388</ele>
        <time>2020-08-08T21:41:26.444Z</time>
      </trkpt>
      <trkpt lat="38.192483" lon="-3.322606">
        <ele>546.667883</ele>
        <time>2020-08-08T21:41:50.462Z</time>
      </trkpt>
      <trkpt lat="38.192508" lon="-3.322906">
        <ele>545.780522</ele>
        <time>2020-08-08T21:41:57.153Z</time>
      </trkpt>
      <trkpt lat="38.192433" lon="-3.323148">
        <ele>545.015365</ele>
        <time>2020-08-08T21:42:02.969Z</time>
      </trkpt>
      <trkpt lat="38.191944" lon="-3.324188">
        <ele>541.450676</ele>
        <time>2020-08-08T21:42:30.736Z</time>
      </trkpt>
      <trkpt lat="38.191130" lon="-3.326339">
        <ele>536.750983</ele>
        <time>2020-08-08T21:43:28.695Z</time>
      </trkpt>
      <trkpt lat="38.189975" lon="-3.328067">
        <ele>532.902775</ele>
        <time>2020-08-08T21:44:24.417Z</time>
      </trkpt>
      <trkpt lat="38.189726" lon="-3.328796">
        <ele>531.587030</ele>
        <time>2020-08-08T21:44:43.923Z</time>
      </trkpt>
      <trkpt lat="38.189675" lon="-3.329150">
        <ele>530.992010</ele>
        <time>2020-08-08T21:44:52.756Z</time>
      </trkpt>
      <trkpt lat="38.189207" lon="-3.330808">
        <ele>528.237876</ele>
        <time>2020-08-08T21:45:36.210Z</time>
      </trkpt>
      <trkpt lat="38.188389" lon="-3.332364">
        <ele>525.690293</ele>
        <time>2020-08-08T21:46:23.599Z</time>
      </trkpt>
      <trkpt lat="38.188044" lon="-3.332723">
        <ele>525.049716</ele>
        <time>2020-08-08T21:46:38.163Z</time>
      </trkpt>
      <trkpt lat="38.187487" lon="-3.333517">
        <ele>523.847464</ele>
        <time>2020-08-08T21:47:05.617Z</time>
      </trkpt>
      <trkpt lat="38.187289" lon="-3.334279">
        <ele>522.925027</ele>
        <time>2020-08-08T21:47:26.475Z</time>
      </trkpt>
      <trkpt lat="38.186504" lon="-3.336215">
        <ele>520.322709</ele>
        <time>2020-08-08T21:48:22.197Z</time>
      </trkpt>
      <trkpt lat="38.186192" lon="-3.337401">
        <ele>518.648307</ele>
        <time>2020-08-08T21:48:53.661Z</time>
      </trkpt>
      <trkpt lat="38.185897" lon="-3.338238">
        <ele>517.439310</ele>
        <time>2020-08-08T21:49:16.815Z</time>
      </trkpt>
      <trkpt lat="38.185294" lon="-3.339294">
        <ele>515.974664</ele>
        <time>2020-08-08T21:49:50.011Z</time>
      </trkpt>
      <trkpt lat="38.184801" lon="-3.340158">
        <ele>514.833848</ele>
        <time>2020-08-08T21:50:17.923Z</time>
      </trkpt>
      <trkpt lat="38.184738" lon="-3.340475">
        <ele>514.575298</ele>
        <time>2020-08-08T21:50:26.756Z</time>
      </trkpt>
      <trkpt lat="38.184738" lon="-3.341006">
        <ele>514.155420</ele>
        <time>2020-08-08T21:50:40.970Z</time>
      </trkpt>
      <trkpt lat="38.184556" lon="-3.341285">
        <ele>513.868727</ele>
        <time>2020-08-08T21:50:50.692Z</time>
      </trkpt>
      <trkpt lat="38.184455" lon="-3.341773">
        <ele>513.469697</ele>
        <time>2020-08-08T21:51:04.186Z</time>
      </trkpt>
      <trkpt lat="38.184750" lon="-3.341966">
        <ele>513.131051</ele>
        <time>2020-08-08T21:51:10.951Z</time>
      </trkpt>
      <trkpt lat="38.183881" lon="-3.346118">
        <ele>509.211068</ele>
        <time>2020-08-08T21:53:03.217Z</time>
      </trkpt>
      <trkpt lat="38.183088" lon="-3.348801">
        <ele>507.951290</ele>
        <time>2020-08-08T21:54:22.383Z</time>
      </trkpt>
      <trkpt lat="38.182599" lon="-3.349981">
        <ele>507.803276</ele>
        <time>2020-08-08T21:55:00.838Z</time>
      </trkpt>
      <trkpt lat="38.182481" lon="-3.350666">
        <ele>507.739454</ele>
        <time>2020-08-08T21:55:21.419Z</time>
      </trkpt>
      <trkpt lat="38.182349" lon="-3.351429">
        <ele>507.794948</ele>
        <time>2020-08-08T21:55:44.503Z</time>
      </trkpt>
      <trkpt lat="38.182309" lon="-3.351811">
        <ele>507.822322</ele>
        <time>2020-08-08T21:55:51.439Z</time>
      </trkpt>
      <trkpt lat="38.182235" lon="-3.352355">
        <ele>507.861538</ele>
        <time>2020-08-08T21:56:01.385Z</time>
      </trkpt>
      <trkpt lat="38.181613" lon="-3.356810">
        <ele>507.459728</ele>
        <time>2020-08-08T21:57:21.175Z</time>
      </trkpt>
      <trkpt lat="38.180431" lon="-3.365280">
        <ele>498.382040</ele>
        <time>2020-08-08T21:59:26.370Z</time>
      </trkpt>
      <trkpt lat="38.180397" lon="-3.366005">
        <ele>497.560593</ele>
        <time>2020-08-08T21:59:36.903Z</time>
      </trkpt>
      <trkpt lat="38.180485" lon="-3.366705">
        <ele>496.864616</ele>
        <time>2020-08-08T21:59:47.264Z</time>
      </trkpt>
      <trkpt lat="38.185101" lon="-3.381548">
        <ele>483.763967</ele>
        <time>2020-08-08T22:03:49.125Z</time>
      </trkpt>
      <trkpt lat="38.185398" lon="-3.382255">
        <ele>483.044457</ele>
        <time>2020-08-08T22:04:01.098Z</time>
      </trkpt>
      <trkpt lat="38.185799" lon="-3.382858">
        <ele>482.335520</ele>
        <time>2020-08-08T22:04:12.836Z</time>
      </trkpt>
      <trkpt lat="38.188606" lon="-3.386237">
        <ele>477.224202</ele>
        <time>2020-08-08T22:05:25.154Z</time>
      </trkpt>
      <trkpt lat="38.188841" lon="-3.386565">
        <ele>476.445699</ele>
        <time>2020-08-08T22:05:31.412Z</time>
      </trkpt>
      <trkpt lat="38.189137" lon="-3.387152">
        <ele>475.134252</ele>
        <time>2020-08-08T22:05:40.999Z</time>
      </trkpt>
      <trkpt lat="38.189288" lon="-3.388067">
        <ele>473.376156</ele>
        <time>2020-08-08T22:05:53.482Z</time>
      </trkpt>
      <trkpt lat="38.190121" lon="-3.395390">
        <ele>453.984084</ele>
        <time>2020-08-08T22:07:27.542Z</time>
      </trkpt>
      <trkpt lat="38.189499" lon="-3.402079">
        <ele>436.033294</ele>
        <time>2020-08-08T22:08:53.065Z</time>
      </trkpt>
      <trkpt lat="38.189457" lon="-3.403120">
        <ele>434.063072</ele>
        <time>2020-08-08T22:09:06.851Z</time>
      </trkpt>
      <trkpt lat="38.189556" lon="-3.403838">
        <ele>432.685230</ele>
        <time>2020-08-08T22:09:16.805Z</time>
      </trkpt>
      <trkpt lat="38.190460" lon="-3.407562">
        <ele>427.063665</ele>
        <time>2020-08-08T22:10:12.577Z</time>
      </trkpt>
      <trkpt lat="38.190720" lon="-3.408918">
        <ele>424.661539</ele>
        <time>2020-08-08T22:10:31.490Z</time>
      </trkpt>
      <trkpt lat="38.190629" lon="-3.411563">
        <ele>418.562803</ele>
        <time>2020-08-08T22:11:05.791Z</time>
      </trkpt>
      <trkpt lat="38.190576" lon="-3.411994">
        <ele>417.505140</ele>
        <time>2020-08-08T22:11:11.390Z</time>
      </trkpt>
      <trkpt lat="38.190528" lon="-3.412389">
        <ele>416.536091</ele>
        <time>2020-08-08T22:11:16.525Z</time>
      </trkpt>
      <trkpt lat="38.190174" lon="-3.413194">
        <ele>414.340886</ele>
        <time>2020-08-08T22:11:28.402Z</time>
      </trkpt>
      <trkpt lat="38.188066" lon="-3.416767">
        <ele>404.965713</ele>
        <time>2020-08-08T22:12:27.532Z</time>
      </trkpt>
      <trkpt lat="38.187551" lon="-3.417818">
        <ele>402.569876</ele>
        <time>2020-08-08T22:12:44.174Z</time>
      </trkpt>
      <trkpt lat="38.186741" lon="-3.419978">
        <ele>397.934889</ele>
        <time>2020-08-08T22:13:16.198Z</time>
      </trkpt>
      <trkpt lat="38.185662" lon="-3.421842">
        <ele>393.742383</ele>
        <time>2020-08-08T22:13:47.318Z</time>
      </trkpt>
      <trkpt lat="38.184473" lon="-3.424041">
        <ele>389.876427</ele>
        <time>2020-08-08T22:14:24.736Z</time>
      </trkpt>
      <trkpt lat="38.184228" lon="-3.424620">
        <ele>389.089685</ele>
        <time>2020-08-08T22:14:34.449Z</time>
      </trkpt>
      <trkpt lat="38.183998" lon="-3.425335">
        <ele>388.440552</ele>
        <time>2020-08-08T22:14:46.171Z</time>
      </trkpt>
      <trkpt lat="38.183530" lon="-3.426882">
        <ele>387.171200</ele>
        <time>2020-08-08T22:15:11.190Z</time>
      </trkpt>
      <trkpt lat="38.183407" lon="-3.427437">
        <ele>386.922798</ele>
        <time>2020-08-08T22:15:20.232Z</time>
      </trkpt>
      <trkpt lat="38.183398" lon="-3.427507">
        <ele>386.892243</ele>
        <time>2020-08-08T22:15:21.423Z</time>
      </trkpt>
      <trkpt lat="38.183345" lon="-3.427952">
        <ele>386.698359</ele>
        <time>2020-08-08T22:15:28.692Z</time>
      </trkpt>
      <trkpt lat="38.183332" lon="-3.428066">
        <ele>386.648736</ele>
        <time>2020-08-08T22:15:30.655Z</time>
      </trkpt>
      <trkpt lat="38.183301" lon="-3.428320">
        <ele>386.538008</ele>
        <time>2020-08-08T22:15:34.783Z</time>
      </trkpt>
      <trkpt lat="38.183281" lon="-3.428486">
        <ele>386.465664</ele>
        <time>2020-08-08T22:15:37.995Z</time>
      </trkpt>
      <trkpt lat="38.183255" lon="-3.428702">
        <ele>386.371531</ele>
        <time>2020-08-08T22:15:41.592Z</time>
      </trkpt>
      <trkpt lat="38.183241" lon="-3.428821">
        <ele>386.319697</ele>
        <time>2020-08-08T22:15:43.470Z</time>
      </trkpt>
      <trkpt lat="38.183231" lon="-3.428907">
        <ele>386.261179</ele>
        <time>2020-08-08T22:15:45.376Z</time>
      </trkpt>
      <trkpt lat="38.183010" lon="-3.429528">
        <ele>385.780636</ele>
        <time>2020-08-08T22:15:56.641Z</time>
      </trkpt>
      <trkpt lat="38.182745" lon="-3.430002">
        <ele>385.370598</ele>
        <time>2020-08-08T22:16:05.867Z</time>
      </trkpt>
      <trkpt lat="38.182666" lon="-3.430142">
        <ele>385.249109</ele>
        <time>2020-08-08T22:16:09.066Z</time>
      </trkpt>
      <trkpt lat="38.182556" lon="-3.430340">
        <ele>385.078187</ele>
        <time>2020-08-08T22:16:12.415Z</time>
      </trkpt>
      <trkpt lat="38.182229" lon="-3.430677">
        <ele>384.697516</ele>
        <time>2020-08-08T22:16:20.076Z</time>
      </trkpt>
      <trkpt lat="38.182072" lon="-3.430850">
        <ele>384.109833</ele>
        <time>2020-08-08T22:16:23.873Z</time>
      </trkpt>
      <trkpt lat="38.182009" lon="-3.430908">
        <ele>383.889801</ele>
        <time>2020-08-08T22:16:25.130Z</time>
      </trkpt>
      <trkpt lat="38.181554" lon="-3.431202">
        <ele>382.445880</ele>
        <time>2020-08-08T22:16:33.789Z</time>
      </trkpt>
      <trkpt lat="38.181521" lon="-3.431231">
        <ele>382.332398</ele>
        <time>2020-08-08T22:16:34.408Z</time>
      </trkpt>
      <trkpt lat="38.181483" lon="-3.431281">
        <ele>382.177716</ele>
        <time>2020-08-08T22:16:35.331Z</time>
      </trkpt>
      <trkpt lat="38.181427" lon="-3.431396">
        <ele>381.876845</ele>
        <time>2020-08-08T22:16:37.076Z</time>
      </trkpt>
      <trkpt lat="38.181374" lon="-3.431523">
        <ele>381.557048</ele>
        <time>2020-08-08T22:16:38.839Z</time>
      </trkpt>
      <trkpt lat="38.180792" lon="-3.432539">
        <ele>378.938251</ele>
        <time>2020-08-08T22:16:54.823Z</time>
      </trkpt>
      <trkpt lat="38.180638" lon="-3.432764">
        <ele>378.412719</ele>
        <time>2020-08-08T22:16:58.562Z</time>
      </trkpt>
      <trkpt lat="38.180327" lon="-3.433126">
        <ele>377.468081</ele>
        <time>2020-08-08T22:17:05.758Z</time>
      </trkpt>
      <trkpt lat="38.179943" lon="-3.433606">
        <ele>376.261670</ele>
        <time>2020-08-08T22:17:15.581Z</time>
      </trkpt>
      <trkpt lat="38.179695" lon="-3.433906">
        <ele>375.559213</ele>
        <time>2020-08-08T22:17:21.952Z</time>
      </trkpt>
      <trkpt lat="38.179481" lon="-3.434179">
        <ele>375.378711</ele>
        <time>2020-08-08T22:17:27.748Z</time>
      </trkpt>
      <trkpt lat="38.178278" lon="-3.435683">
        <ele>374.476688</ele>
        <time>2020-08-08T22:18:02.858Z</time>
      </trkpt>
      <trkpt lat="38.178253" lon="-3.435732">
        <ele>374.469788</ele>
        <time>2020-08-08T22:18:03.829Z</time>
      </trkpt>
      <trkpt lat="38.178231" lon="-3.435788">
        <ele>374.462393</ele>
        <time>2020-08-08T22:18:04.936Z</time>
      </trkpt>
      <trkpt lat="38.178215" lon="-3.435866">
        <ele>374.452871</ele>
        <time>2020-08-08T22:18:06.358Z</time>
      </trkpt>
      <trkpt lat="38.178223" lon="-3.435906">
        <ele>374.447995</ele>
        <time>2020-08-08T22:18:07.056Z</time>
      </trkpt>
      <trkpt lat="38.178224" lon="-3.435947">
        <ele>374.443150</ele>
        <time>2020-08-08T22:18:07.726Z</time>
      </trkpt>
      <trkpt lat="38.178215" lon="-3.435998">
        <ele>374.436976</ele>
        <time>2020-08-08T22:18:08.629Z</time>
      </trkpt>
      <trkpt lat="38.178168" lon="-3.436083">
        <ele>374.424700</ele>
        <time>2020-08-08T22:18:10.489Z</time>
      </trkpt>
      <trkpt lat="38.178133" lon="-3.436111">
        <ele>374.418488</ele>
        <time>2020-08-08T22:18:11.364Z</time>
      </trkpt>
      <trkpt lat="38.178094" lon="-3.436126">
        <ele>374.412365</ele>
        <time>2020-08-08T22:18:12.256Z</time>
      </trkpt>
      <trkpt lat="38.178054" lon="-3.436127">
        <ele>374.406354</ele>
        <time>2020-08-08T22:18:13.152Z</time>
      </trkpt>
      <trkpt lat="38.177989" lon="-3.436145">
        <ele>374.396358</ele>
        <time>2020-08-08T22:18:14.664Z</time>
      </trkpt>
      <trkpt lat="38.177927" lon="-3.436171">
        <ele>374.386548</ele>
        <time>2020-08-08T22:18:16.035Z</time>
      </trkpt>
      <trkpt lat="38.177822" lon="-3.436254">
        <ele>374.367972</ele>
        <time>2020-08-08T22:18:18.822Z</time>
      </trkpt>
      <trkpt lat="38.177293" lon="-3.436901">
        <ele>374.257702</ele>
        <time>2020-08-08T22:18:34.905Z</time>
      </trkpt>
      <trkpt lat="38.176832" lon="-3.437439">
        <ele>373.987770</ele>
        <time>2020-08-08T22:18:48.560Z</time>
      </trkpt>
      <trkpt lat="38.176344" lon="-3.437907">
        <ele>373.687003</ele>
        <time>2020-08-08T22:19:01.300Z</time>
      </trkpt>
      <trkpt lat="38.173592" lon="-3.440373">
        <ele>371.140861</ele>
        <time>2020-08-08T22:20:07.531Z</time>
      </trkpt>
      <trkpt lat="38.171062" lon="-3.442893">
        <ele>368.999336</ele>
        <time>2020-08-08T22:21:10.163Z</time>
      </trkpt>
      <trkpt lat="38.170540" lon="-3.443200">
        <ele>369.285442</ele>
        <time>2020-08-08T22:21:24.246Z</time>
      </trkpt>
      <trkpt lat="38.168537" lon="-3.443867">
        <ele>371.290761</ele>
        <time>2020-08-08T22:22:22.444Z</time>
      </trkpt>
      <trkpt lat="38.167999" lon="-3.444130">
        <ele>371.747345</ele>
        <time>2020-08-08T22:22:37.360Z</time>
      </trkpt>
      <trkpt lat="38.167301" lon="-3.444755">
        <ele>371.246521</ele>
        <time>2020-08-08T22:22:56.550Z</time>
      </trkpt>
      <trkpt lat="38.166646" lon="-3.445685">
        <ele>370.358176</ele>
        <time>2020-08-08T22:23:14.374Z</time>
      </trkpt>
      <trkpt lat="38.166527" lon="-3.445855">
        <ele>369.928301</ele>
        <time>2020-08-08T22:23:17.454Z</time>
      </trkpt>
      <trkpt lat="38.166172" lon="-3.446220">
        <ele>368.831770</ele>
        <time>2020-08-08T22:23:25.276Z</time>
      </trkpt>
      <trkpt lat="38.166061" lon="-3.446311">
        <ele>368.514545</ele>
        <time>2020-08-08T22:23:27.416Z</time>
      </trkpt>
      <trkpt lat="38.165246" lon="-3.446762">
        <ele>366.388856</ele>
        <time>2020-08-08T22:23:42.263Z</time>
      </trkpt>
      <trkpt lat="38.163055" lon="-3.447770">
        <ele>362.354801</ele>
        <time>2020-08-08T22:24:23.144Z</time>
      </trkpt>
      <trkpt lat="38.161691" lon="-3.448459">
        <ele>362.024993</ele>
        <time>2020-08-08T22:24:55.044Z</time>
      </trkpt>
      <trkpt lat="38.161053" lon="-3.448957">
        <ele>363.384824</ele>
        <time>2020-08-08T22:25:16.163Z</time>
      </trkpt>
      <trkpt lat="38.157879" lon="-3.452002">
        <ele>373.705814</ele>
        <time>2020-08-08T22:27:30.664Z</time>
      </trkpt>
      <trkpt lat="38.157239" lon="-3.452413">
        <ele>375.226849</ele>
        <time>2020-08-08T22:27:53.199Z</time>
      </trkpt>
      <trkpt lat="38.156604" lon="-3.452614">
        <ele>376.033600</ele>
        <time>2020-08-08T22:28:11.743Z</time>
      </trkpt>
      <trkpt lat="38.155992" lon="-3.452748">
        <ele>376.799212</ele>
        <time>2020-08-08T22:28:27.591Z</time>
      </trkpt>
      <trkpt lat="38.156563" lon="-3.455206">
        <ele>377.209982</ele>
        <time>2020-08-08T22:29:12.607Z</time>
      </trkpt>
      <trkpt lat="38.158414" lon="-3.462599">
        <ele>376.574911</ele>
        <time>2020-08-08T22:31:29.791Z</time>
      </trkpt>
      <trkpt lat="38.158420" lon="-3.463462">
        <ele>375.700322</ele>
        <time>2020-08-08T22:31:42.205Z</time>
      </trkpt>
      <trkpt lat="38.158251" lon="-3.464742">
        <ele>373.173541</ele>
        <time>2020-08-08T22:31:59.365Z</time>
      </trkpt>
      <trkpt lat="38.158652" lon="-3.466583">
        <ele>368.022190</ele>
        <time>2020-08-08T22:32:23.148Z</time>
      </trkpt>
      <trkpt lat="38.159573" lon="-3.470115">
        <ele>358.176844</ele>
        <time>2020-08-08T22:33:10.267Z</time>
      </trkpt>
      <trkpt lat="38.159809" lon="-3.470764">
        <ele>356.649880</ele>
        <time>2020-08-08T22:33:19.792Z</time>
      </trkpt>
      <trkpt lat="38.162289" lon="-3.474101">
        <ele>350.640320</ele>
        <time>2020-08-08T22:34:26.056Z</time>
      </trkpt>
      <trkpt lat="38.162458" lon="-3.474402">
        <ele>349.929208</ele>
        <time>2020-08-08T22:34:31.169Z</time>
      </trkpt>
      <trkpt lat="38.162500" lon="-3.474809">
        <ele>349.139990</ele>
        <time>2020-08-08T22:34:36.771Z</time>
      </trkpt>
      <trkpt lat="38.162441" lon="-3.475069">
        <ele>348.619706</ele>
        <time>2020-08-08T22:34:40.478Z</time>
      </trkpt>
      <trkpt lat="38.162217" lon="-3.475544">
        <ele>347.554794</ele>
        <time>2020-08-08T22:34:47.714Z</time>
      </trkpt>
      <trkpt lat="38.161776" lon="-3.476349">
        <ele>345.618197</ele>
        <time>2020-08-08T22:35:00.339Z</time>
      </trkpt>
      <trkpt lat="38.161172" lon="-3.476799">
        <ele>343.822007</ele>
        <time>2020-08-08T22:35:11.543Z</time>
      </trkpt>
      <trkpt lat="38.161160" lon="-3.476953">
        <ele>343.509781</ele>
        <time>2020-08-08T22:35:13.533Z</time>
      </trkpt>
      <trkpt lat="38.161202" lon="-3.477094">
        <ele>343.205576</ele>
        <time>2020-08-08T22:35:15.464Z</time>
      </trkpt>
      <trkpt lat="38.162214" lon="-3.479729">
        <ele>342.067636</ele>
        <time>2020-08-08T22:36:02.446Z</time>
      </trkpt>
      <trkpt lat="38.161887" lon="-3.480063">
        <ele>343.971383</ele>
        <time>2020-08-08T22:36:18.419Z</time>
      </trkpt>
      <trkpt lat="38.161597" lon="-3.480382">
        <ele>345.711817</ele>
        <time>2020-08-08T22:36:34.275Z</time>
      </trkpt>
      <trkpt lat="38.161466" lon="-3.480611">
        <ele>346.722563</ele>
        <time>2020-08-08T22:36:44.569Z</time>
      </trkpt>
      <trkpt lat="38.161434" lon="-3.480896">
        <ele>347.750070</ele>
        <time>2020-08-08T22:36:54.201Z</time>
      </trkpt>
      <trkpt lat="38.161466" lon="-3.481158">
        <ele>348.696383</ele>
        <time>2020-08-08T22:37:04.772Z</time>
      </trkpt>
      <trkpt lat="38.161546" lon="-3.481321">
        <ele>349.382178</ele>
        <time>2020-08-08T22:37:11.845Z</time>
      </trkpt>
      <trkpt lat="38.161631" lon="-3.481377">
        <ele>349.816708</ele>
        <time>2020-08-08T22:37:18.083Z</time>
      </trkpt>
      <trkpt lat="38.162797" lon="-3.482151">
        <ele>355.847513</ele>
        <time>2020-08-08T22:38:14.282Z</time>
      </trkpt>
      <trkpt lat="38.162864" lon="-3.482288">
        <ele>356.429292</ele>
        <time>2020-08-08T22:38:20.735Z</time>
      </trkpt>
      <trkpt lat="38.163753" lon="-3.485179">
        <ele>361.432889</ele>
        <time>2020-08-08T22:39:30.933Z</time>
      </trkpt>
      <trkpt lat="38.163779" lon="-3.485613">
        <ele>361.651921</ele>
        <time>2020-08-08T22:39:39.199Z</time>
      </trkpt>
      <trkpt lat="38.163678" lon="-3.486171">
        <ele>361.940064</ele>
        <time>2020-08-08T22:39:49.948Z</time>
      </trkpt>
      <trkpt lat="38.163266" lon="-3.488274">
        <ele>362.526633</ele>
        <time>2020-08-08T22:40:30.099Z</time>
      </trkpt>
      <trkpt lat="38.162602" lon="-3.489487">
        <ele>362.416340</ele>
        <time>2020-08-08T22:40:56.051Z</time>
      </trkpt>
      <trkpt lat="38.162169" lon="-3.490908">
        <ele>361.647250</ele>
        <time>2020-08-08T22:41:19.561Z</time>
      </trkpt>
      <trkpt lat="38.161768" lon="-3.491708">
        <ele>361.576372</ele>
        <time>2020-08-08T22:41:34.184Z</time>
      </trkpt>
      <trkpt lat="38.161394" lon="-3.492436">
        <ele>361.736108</ele>
        <time>2020-08-08T22:41:48.935Z</time>
      </trkpt>
      <trkpt lat="38.159607" lon="-3.495780">
        <ele>364.744436</ele>
        <time>2020-08-08T22:43:18.483Z</time>
      </trkpt>
      <trkpt lat="38.159406" lon="-3.496057">
        <ele>364.838516</ele>
        <time>2020-08-08T22:43:25.740Z</time>
      </trkpt>
      <trkpt lat="38.159088" lon="-3.496219">
        <ele>364.947258</ele>
        <time>2020-08-08T22:43:33.569Z</time>
      </trkpt>
      <trkpt lat="38.156313" lon="-3.496814">
        <ele>361.223882</ele>
        <time>2020-08-08T22:44:25.222Z</time>
      </trkpt>
      <trkpt lat="38.154951" lon="-3.497125">
        <ele>358.079201</ele>
        <time>2020-08-08T22:44:48.565Z</time>
      </trkpt>
      <trkpt lat="38.154497" lon="-3.497199">
        <ele>356.853528</ele>
        <time>2020-08-08T22:44:56.206Z</time>
      </trkpt>
      <trkpt lat="38.154113" lon="-3.497158">
        <ele>355.821629</ele>
        <time>2020-08-08T22:45:02.663Z</time>
      </trkpt>
      <trkpt lat="38.152286" lon="-3.496563">
        <ele>350.419802</ele>
        <time>2020-08-08T22:45:34.295Z</time>
      </trkpt>
      <trkpt lat="38.151986" lon="-3.496516">
        <ele>349.514026</ele>
        <time>2020-08-08T22:45:39.230Z</time>
      </trkpt>
      <trkpt lat="38.151685" lon="-3.496601">
        <ele>348.590077</ele>
        <time>2020-08-08T22:45:44.173Z</time>
      </trkpt>
      <trkpt lat="38.151185" lon="-3.497108">
        <ele>345.845520</ele>
        <time>2020-08-08T22:45:54.240Z</time>
      </trkpt>
      <trkpt lat="38.150981" lon="-3.497464">
        <ele>344.289941</ele>
        <time>2020-08-08T22:45:59.582Z</time>
      </trkpt>
      <trkpt lat="38.150562" lon="-3.498421">
        <ele>340.421811</ele>
        <time>2020-08-08T22:46:12.647Z</time>
      </trkpt>
      <trkpt lat="38.150184" lon="-3.498663">
        <ele>338.363971</ele>
        <time>2020-08-08T22:46:18.985Z</time>
      </trkpt>
      <trkpt lat="38.148838" lon="-3.499151">
        <ele>331.508936</ele>
        <time>2020-08-08T22:46:40.120Z</time>
      </trkpt>
      <trkpt lat="38.148595" lon="-3.499335">
        <ele>330.381942</ele>
        <time>2020-08-08T22:46:44.482Z</time>
      </trkpt>
      <trkpt lat="38.147746" lon="-3.500586">
        <ele>325.257978</ele>
        <time>2020-08-08T22:47:04.961Z</time>
      </trkpt>
      <trkpt lat="38.147575" lon="-3.501031">
        <ele>323.903062</ele>
        <time>2020-08-08T22:47:11.246Z</time>
      </trkpt>
      <trkpt lat="38.146751" lon="-3.503512">
        <ele>319.119814</ele>
        <time>2020-08-08T22:47:46.833Z</time>
      </trkpt>
      <trkpt lat="38.146591" lon="-3.503989">
        <ele>318.977177</ele>
        <time>2020-08-08T22:47:54.825Z</time>
      </trkpt>
      <trkpt lat="38.145275" lon="-3.507913">
        <ele>320.492113</ele>
        <time>2020-08-08T22:49:25.145Z</time>
      </trkpt>
      <trkpt lat="38.145138" lon="-3.508220">
        <ele>320.390352</ele>
        <time>2020-08-08T22:49:31.558Z</time>
      </trkpt>
      <trkpt lat="38.144927" lon="-3.508603">
        <ele>320.255542</ele>
        <time>2020-08-08T22:49:39.381Z</time>
      </trkpt>
      <trkpt lat="38.144010" lon="-3.510140">
        <ele>317.338498</ele>
        <time>2020-08-08T22:50:05.293Z</time>
      </trkpt>
      <trkpt lat="38.143927" lon="-3.510279">
        <ele>316.967193</ele>
        <time>2020-08-08T22:50:07.437Z</time>
      </trkpt>
      <trkpt lat="38.143618" lon="-3.510575">
        <ele>315.920618</ele>
        <time>2020-08-08T22:50:13.764Z</time>
      </trkpt>
      <trkpt lat="38.143212" lon="-3.510850">
        <ele>314.680350</ele>
        <time>2020-08-08T22:50:21.300Z</time>
      </trkpt>
      <trkpt lat="38.140764" lon="-3.512364">
        <ele>308.091363</ele>
        <time>2020-08-08T22:51:07.276Z</time>
      </trkpt>
      <trkpt lat="38.141434" lon="-3.514647">
        <ele>305.584136</ele>
        <time>2020-08-08T22:51:43.538Z</time>
      </trkpt>
      <trkpt lat="38.142712" lon="-3.522394">
        <ele>303.351752</ele>
        <time>2020-08-08T22:53:55.884Z</time>
      </trkpt>
      <trkpt lat="38.143341" lon="-3.526124">
        <ele>301.363071</ele>
        <time>2020-08-08T22:54:55.840Z</time>
      </trkpt>
      <trkpt lat="38.143972" lon="-3.529976">
        <ele>299.861992</ele>
        <time>2020-08-08T22:55:59.233Z</time>
      </trkpt>
      <trkpt lat="38.145115" lon="-3.536962">
        <ele>299.430495</ele>
        <time>2020-08-08T22:58:05.134Z</time>
      </trkpt>
      <trkpt lat="38.145203" lon="-3.538282">
        <ele>299.079066</ele>
        <time>2020-08-08T22:58:25.620Z</time>
      </trkpt>
      <trkpt lat="38.144993" lon="-3.539592">
        <ele>298.632378</ele>
        <time>2020-08-08T22:58:46.639Z</time>
      </trkpt>
      <trkpt lat="38.144812" lon="-3.540127">
        <ele>298.627877</ele>
        <time>2020-08-08T22:58:57.449Z</time>
      </trkpt>
      <trkpt lat="38.144566" lon="-3.540614">
        <ele>299.070713</ele>
        <time>2020-08-08T22:59:09.004Z</time>
      </trkpt>
      <trkpt lat="38.144732" lon="-3.540947">
        <ele>299.372358</ele>
        <time>2020-08-08T22:59:18.698Z</time>
      </trkpt>
      <trkpt lat="38.144969" lon="-3.541978">
        <ele>300.194170</ele>
        <time>2020-08-08T22:59:40.987Z</time>
      </trkpt>
      <trkpt lat="38.145172" lon="-3.542369">
        <ele>300.294840</ele>
        <time>2020-08-08T22:59:50.464Z</time>
      </trkpt>
      <trkpt lat="38.145345" lon="-3.542523">
        <ele>300.327927</ele>
        <time>2020-08-08T22:59:56.535Z</time>
      </trkpt>
      <trkpt lat="38.145122" lon="-3.542701">
        <ele>300.369179</ele>
        <time>2020-08-08T23:00:01.913Z</time>
      </trkpt>
      <trkpt lat="38.144232" lon="-3.542732">
        <ele>300.508671</ele>
        <time>2020-08-08T23:00:19.285Z</time>
      </trkpt>
      <trkpt lat="38.143622" lon="-3.544088">
        <ele>303.941929</ele>
        <time>2020-08-08T23:00:53.146Z</time>
      </trkpt>
      <trkpt lat="38.143519" lon="-3.544234">
        <ele>304.416210</ele>
        <time>2020-08-08T23:01:00.534Z</time>
      </trkpt>
      <trkpt lat="38.143374" lon="-3.544323">
        <ele>304.911272</ele>
        <time>2020-08-08T23:01:06.455Z</time>
      </trkpt>
      <trkpt lat="38.143025" lon="-3.544513">
        <ele>306.100992</ele>
        <time>2020-08-08T23:01:24.731Z</time>
      </trkpt>
      <trkpt lat="38.142937" lon="-3.544633">
        <ele>306.919452</ele>
        <time>2020-08-08T23:01:32.943Z</time>
      </trkpt>
      <trkpt lat="38.142889" lon="-3.544820">
        <ele>307.900709</ele>
        <time>2020-08-08T23:01:39.667Z</time>
      </trkpt>
      <trkpt lat="38.142920" lon="-3.545036">
        <ele>308.995998</ele>
        <time>2020-08-08T23:01:49.056Z</time>
      </trkpt>
      <trkpt lat="38.143159" lon="-3.545351">
        <ele>311.179375</ele>
        <time>2020-08-08T23:02:06.688Z</time>
      </trkpt>
      <trkpt lat="38.143275" lon="-3.545661">
        <ele>312.891886</ele>
        <time>2020-08-08T23:02:20.102Z</time>
      </trkpt>
      <trkpt lat="38.143297" lon="-3.545952">
        <ele>314.350196</ele>
        <time>2020-08-08T23:02:33.401Z</time>
      </trkpt>
      <trkpt lat="38.143253" lon="-3.546219">
        <ele>315.711018</ele>
        <time>2020-08-08T23:02:43.644Z</time>
      </trkpt>
      <trkpt lat="38.143070" lon="-3.546602">
        <ele>317.522522</ele>
        <time>2020-08-08T23:02:57.914Z</time>
      </trkpt>
      <trkpt lat="38.142635" lon="-3.547320">
        <ele>318.055676</ele>
        <time>2020-08-08T23:03:21.038Z</time>
      </trkpt>
      <trkpt lat="38.140480" lon="-3.549556">
        <ele>316.318706</ele>
        <time>2020-08-08T23:04:12.180Z</time>
      </trkpt>
      <trkpt lat="38.140236" lon="-3.549919">
        <ele>316.081893</ele>
        <time>2020-08-08T23:04:19.230Z</time>
      </trkpt>
      <trkpt lat="38.138544" lon="-3.552969">
        <ele>315.297834</ele>
        <time>2020-08-08T23:05:21.257Z</time>
      </trkpt>
      <trkpt lat="38.137881" lon="-3.554493">
        <ele>316.676482</ele>
        <time>2020-08-08T23:05:58.111Z</time>
      </trkpt>
      <trkpt lat="38.137560" lon="-3.554984">
        <ele>317.327579</ele>
        <time>2020-08-08T23:06:12.900Z</time>
      </trkpt>
      <trkpt lat="38.137127" lon="-3.555395">
        <ele>317.899723</ele>
        <time>2020-08-08T23:06:28.338Z</time>
      </trkpt>
      <trkpt lat="38.136994" lon="-3.555627">
        <ele>318.095893</ele>
        <time>2020-08-08T23:06:34.608Z</time>
      </trkpt>
      <trkpt lat="38.136919" lon="-3.555905">
        <ele>318.296720</ele>
        <time>2020-08-08T23:06:40.740Z</time>
      </trkpt>
      <trkpt lat="38.136916" lon="-3.556238">
        <ele>318.524281</ele>
        <time>2020-08-08T23:06:47.609Z</time>
      </trkpt>
      <trkpt lat="38.136991" lon="-3.556589">
        <ele>318.772819</ele>
        <time>2020-08-08T23:06:54.876Z</time>
      </trkpt>
      <trkpt lat="38.137900" lon="-3.558153">
        <ele>319.496625</ele>
        <time>2020-08-08T23:07:29.315Z</time>
      </trkpt>
      <trkpt lat="38.138226" lon="-3.558838">
        <ele>319.676019</ele>
        <time>2020-08-08T23:07:43.837Z</time>
      </trkpt>
      <trkpt lat="38.138384" lon="-3.559504">
        <ele>320.206547</ele>
        <time>2020-08-08T23:07:58.145Z</time>
      </trkpt>
      <trkpt lat="38.138458" lon="-3.560269">
        <ele>320.927345</ele>
        <time>2020-08-08T23:08:14.850Z</time>
      </trkpt>
      <trkpt lat="38.138397" lon="-3.560817">
        <ele>321.444927</ele>
        <time>2020-08-08T23:08:27.054Z</time>
      </trkpt>
      <trkpt lat="38.138357" lon="-3.561179">
        <ele>321.786785</ele>
        <time>2020-08-08T23:08:35.130Z</time>
      </trkpt>
      <trkpt lat="38.138085" lon="-3.561980">
        <ele>322.578672</ele>
        <time>2020-08-08T23:08:54.146Z</time>
      </trkpt>
      <trkpt lat="38.137140" lon="-3.563537">
        <ele>324.446420</ele>
        <time>2020-08-08T23:09:35.053Z</time>
      </trkpt>
      <trkpt lat="38.136880" lon="-3.563956">
        <ele>325.026334</ele>
        <time>2020-08-08T23:09:46.324Z</time>
      </trkpt>
      <trkpt lat="38.136755" lon="-3.564188">
        <ele>325.331900</ele>
        <time>2020-08-08T23:09:52.967Z</time>
      </trkpt>
      <trkpt lat="38.136668" lon="-3.564353">
        <ele>325.547748</ele>
        <time>2020-08-08T23:09:56.737Z</time>
      </trkpt>
      <trkpt lat="38.136611" lon="-3.564481">
        <ele>325.707578</ele>
        <time>2020-08-08T23:10:00.873Z</time>
      </trkpt>
      <trkpt lat="38.136360" lon="-3.565396">
        <ele>326.769756</ele>
        <time>2020-08-08T23:10:22.242Z</time>
      </trkpt>
      <trkpt lat="38.136270" lon="-3.566996">
        <ele>328.558176</ele>
        <time>2020-08-08T23:10:57.445Z</time>
      </trkpt>
      <trkpt lat="38.136127" lon="-3.567770">
        <ele>329.440159</ele>
        <time>2020-08-08T23:11:14.680Z</time>
      </trkpt>
      <trkpt lat="38.135748" lon="-3.569299">
        <ele>331.211213</ele>
        <time>2020-08-08T23:11:50.071Z</time>
      </trkpt>
      <trkpt lat="38.135437" lon="-3.570248">
        <ele>332.181407</ele>
        <time>2020-08-08T23:12:12.743Z</time>
      </trkpt>
      <trkpt lat="38.134007" lon="-3.573212">
        <ele>335.160885</ele>
        <time>2020-08-08T23:13:23.963Z</time>
      </trkpt>
      <trkpt lat="38.132256" lon="-3.576000">
        <ele>339.092252</ele>
        <time>2020-08-08T23:14:43.118Z</time>
      </trkpt>
      <trkpt lat="38.131588" lon="-3.577357">
        <ele>340.935107</ele>
        <time>2020-08-08T23:15:17.973Z</time>
      </trkpt>
      <trkpt lat="38.130428" lon="-3.580023">
        <ele>344.770581</ele>
        <time>2020-08-08T23:16:26.218Z</time>
      </trkpt>
      <trkpt lat="38.129900" lon="-3.580717">
        <ele>346.100640</ele>
        <time>2020-08-08T23:16:49.194Z</time>
      </trkpt>
      <trkpt lat="38.128841" lon="-3.582113">
        <ele>348.534334</ele>
        <time>2020-08-08T23:17:34.191Z</time>
      </trkpt>
      <trkpt lat="38.127468" lon="-3.584457">
        <ele>350.981219</ele>
        <time>2020-08-08T23:18:33.849Z</time>
      </trkpt>
      <trkpt lat="38.127087" lon="-3.585437">
        <ele>352.144434</ele>
        <time>2020-08-08T23:18:55.884Z</time>
      </trkpt>
      <trkpt lat="38.126703" lon="-3.586833">
        <ele>354.004113</ele>
        <time>2020-08-08T23:19:29.976Z</time>
      </trkpt>
      <trkpt lat="38.126432" lon="-3.587822">
        <ele>356.136729</ele>
        <time>2020-08-08T23:19:56.682Z</time>
      </trkpt>
      <trkpt lat="38.123712" lon="-3.594184">
        <ele>373.601956</ele>
        <time>2020-08-08T23:23:12.894Z</time>
      </trkpt>
      <trkpt lat="38.123319" lon="-3.594913">
        <ele>376.205808</ele>
        <time>2020-08-08T23:23:40.179Z</time>
      </trkpt>
      <trkpt lat="38.122375" lon="-3.596429">
        <ele>382.806076</ele>
        <time>2020-08-08T23:24:41.827Z</time>
      </trkpt>
      <trkpt lat="38.121731" lon="-3.597160">
        <ele>385.425608</ele>
        <time>2020-08-08T23:25:13.587Z</time>
      </trkpt>
      <trkpt lat="38.120898" lon="-3.597934">
        <ele>388.475383</ele>
        <time>2020-08-08T23:25:45.974Z</time>
      </trkpt>
      <trkpt lat="38.120537" lon="-3.598356">
        <ele>389.669967</ele>
        <time>2020-08-08T23:26:00.606Z</time>
      </trkpt>
      <trkpt lat="38.120051" lon="-3.598840">
        <ele>391.173766</ele>
        <time>2020-08-08T23:26:19.412Z</time>
      </trkpt>
      <trkpt lat="38.119342" lon="-3.599952">
        <ele>394.702587</ele>
        <time>2020-08-08T23:26:57.786Z</time>
      </trkpt>
      <trkpt lat="38.118967" lon="-3.600774">
        <ele>397.684124</ele>
        <time>2020-08-08T23:27:29.845Z</time>
      </trkpt>
      <trkpt lat="38.118651" lon="-3.601953">
        <ele>400.573042</ele>
        <time>2020-08-08T23:28:06.420Z</time>
      </trkpt>
      <trkpt lat="38.118657" lon="-3.602085">
        <ele>400.744209</ele>
        <time>2020-08-08T23:28:11.003Z</time>
      </trkpt>
      <trkpt lat="38.118697" lon="-3.602188">
        <ele>400.892909</ele>
        <time>2020-08-08T23:28:13.975Z</time>
      </trkpt>
      <trkpt lat="38.118716" lon="-3.602301">
        <ele>401.042498</ele>
        <time>2020-08-08T23:28:15.682Z</time>
      </trkpt>
      <trkpt lat="38.118714" lon="-3.602416">
        <ele>401.191409</ele>
        <time>2020-08-08T23:28:17.839Z</time>
      </trkpt>
      <trkpt lat="38.118697" lon="-3.602504">
        <ele>401.308715</ele>
        <time>2020-08-08T23:28:20.803Z</time>
      </trkpt>
      <trkpt lat="38.118627" lon="-3.602661">
        <ele>401.542331</ele>
        <time>2020-08-08T23:28:24.305Z</time>
      </trkpt>
      <trkpt lat="38.118576" lon="-3.602723">
        <ele>401.658454</ele>
        <time>2020-08-08T23:28:25.953Z</time>
      </trkpt>
      <trkpt lat="38.118534" lon="-3.602761">
        <ele>401.743285</ele>
        <time>2020-08-08T23:28:26.806Z</time>
      </trkpt>
      <trkpt lat="38.118388" lon="-3.602826">
        <ele>401.997837</ele>
        <time>2020-08-08T23:28:32.261Z</time>
      </trkpt>
      <trkpt lat="38.118235" lon="-3.602812">
        <ele>402.250248</ele>
        <time>2020-08-08T23:28:35.284Z</time>
      </trkpt>
      <trkpt lat="38.118028" lon="-3.602626">
        <ele>402.667380</ele>
        <time>2020-08-08T23:28:42.141Z</time>
      </trkpt>
      <trkpt lat="38.118001" lon="-3.602570">
        <ele>402.752407</ele>
        <time>2020-08-08T23:28:42.922Z</time>
      </trkpt>
      <trkpt lat="38.117974" lon="-3.602486">
        <ele>402.799661</ele>
        <time>2020-08-08T23:28:44.349Z</time>
      </trkpt>
      <trkpt lat="38.117960" lon="-3.602397">
        <ele>402.761791</ele>
        <time>2020-08-08T23:28:45.865Z</time>
      </trkpt>
      <trkpt lat="38.117959" lon="-3.602306">
        <ele>402.723818</ele>
        <time>2020-08-08T23:28:48.365Z</time>
      </trkpt>
      <trkpt lat="38.117706" lon="-3.602236">
        <ele>402.586498</ele>
        <time>2020-08-08T23:28:52.993Z</time>
      </trkpt>
      <trkpt lat="38.117393" lon="-3.602281">
        <ele>402.419440</ele>
        <time>2020-08-08T23:28:58.806Z</time>
      </trkpt>
      <trkpt lat="38.117042" lon="-3.602459">
        <ele>402.219019</ele>
        <time>2020-08-08T23:29:05.514Z</time>
      </trkpt>
      <trkpt lat="38.116258" lon="-3.603067">
        <ele>402.149751</ele>
        <time>2020-08-08T23:29:26.270Z</time>
      </trkpt>
      <trkpt lat="38.115073" lon="-3.603445">
        <ele>403.569531</ele>
        <time>2020-08-08T23:30:00.917Z</time>
      </trkpt>
      <trkpt lat="38.114939" lon="-3.603546">
        <ele>403.750573</ele>
        <time>2020-08-08T23:30:05.804Z</time>
      </trkpt>
      <trkpt lat="38.114800" lon="-3.603651">
        <ele>403.938478</ele>
        <time>2020-08-08T23:30:09.947Z</time>
      </trkpt>
      <trkpt lat="38.114594" lon="-3.604011">
        <ele>404.255979</ele>
        <time>2020-08-08T23:30:19.690Z</time>
      </trkpt>
      <trkpt lat="38.113937" lon="-3.605738">
        <ele>405.599006</ele>
        <time>2020-08-08T23:30:57.944Z</time>
      </trkpt>
      <trkpt lat="38.113666" lon="-3.606191">
        <ele>405.899814</ele>
        <time>2020-08-08T23:31:08.601Z</time>
      </trkpt>
      <trkpt lat="38.113236" lon="-3.606722">
        <ele>406.302604</ele>
        <time>2020-08-08T23:31:23.240Z</time>
      </trkpt>
      <trkpt lat="38.112655" lon="-3.607792">
        <ele>407.079948</ele>
        <time>2020-08-08T23:31:49.235Z</time>
      </trkpt>
      <trkpt lat="38.111947" lon="-3.608623">
        <ele>407.998978</ele>
        <time>2020-08-08T23:32:14.796Z</time>
      </trkpt>
      <trkpt lat="38.111341" lon="-3.609023">
        <ele>408.684233</ele>
        <time>2020-08-08T23:32:32.487Z</time>
      </trkpt>
      <trkpt lat="38.111307" lon="-3.609040">
        <ele>408.726495</ele>
        <time>2020-08-08T23:32:33.661Z</time>
      </trkpt>
      <trkpt lat="38.110657" lon="-3.609354">
        <ele>409.530824</ele>
        <time>2020-08-08T23:32:51.786Z</time>
      </trkpt>
      <trkpt lat="38.110215" lon="-3.609708">
        <ele>410.135130</ele>
        <time>2020-08-08T23:33:05.811Z</time>
      </trkpt>
      <trkpt lat="38.109561" lon="-3.610547">
        <ele>411.825902</ele>
        <time>2020-08-08T23:33:31.767Z</time>
      </trkpt>
      <trkpt lat="38.109120" lon="-3.611524">
        <ele>413.838560</ele>
        <time>2020-08-08T23:33:59.097Z</time>
      </trkpt>
      <trkpt lat="38.108647" lon="-3.613171">
        <ele>418.659015</ele>
        <time>2020-08-08T23:34:50.068Z</time>
      </trkpt>
      <trkpt lat="38.108388" lon="-3.614182">
        <ele>421.905950</ele>
        <time>2020-08-08T23:35:23.831Z</time>
      </trkpt>
      <trkpt lat="38.108284" lon="-3.614586">
        <ele>423.003718</ele>
        <time>2020-08-08T23:35:37.116Z</time>
      </trkpt>
      <trkpt lat="38.107921" lon="-3.615958">
        <ele>426.741932</ele>
        <time>2020-08-08T23:36:18.044Z</time>
      </trkpt>
      <trkpt lat="38.107755" lon="-3.616394">
        <ele>427.690310</ele>
        <time>2020-08-08T23:36:29.642Z</time>
      </trkpt>
      <trkpt lat="38.107444" lon="-3.617014">
        <ele>428.050417</ele>
        <time>2020-08-08T23:36:44.911Z</time>
      </trkpt>
      <trkpt lat="38.107353" lon="-3.617188">
        <ele>428.152742</ele>
        <time>2020-08-08T23:36:48.896Z</time>
      </trkpt>
      <trkpt lat="38.106646" lon="-3.618544">
        <ele>428.821128</ele>
        <time>2020-08-08T23:37:16.503Z</time>
      </trkpt>
      <trkpt lat="38.106539" lon="-3.618747">
        <ele>428.867816</ele>
        <time>2020-08-08T23:37:21.241Z</time>
      </trkpt>
      <trkpt lat="38.106338" lon="-3.619066">
        <ele>428.945906</ele>
        <time>2020-08-08T23:37:29.972Z</time>
      </trkpt>
      <trkpt lat="38.106120" lon="-3.619401">
        <ele>429.028972</ele>
        <time>2020-08-08T23:37:38.459Z</time>
      </trkpt>
      <trkpt lat="38.105792" lon="-3.619905">
        <ele>429.153948</ele>
        <time>2020-08-08T23:37:50.191Z</time>
      </trkpt>
      <trkpt lat="38.105604" lon="-3.620194">
        <ele>428.970410</ele>
        <time>2020-08-08T23:37:56.216Z</time>
      </trkpt>
      <trkpt lat="38.105496" lon="-3.620379">
        <ele>428.788740</ele>
        <time>2020-08-08T23:37:59.914Z</time>
      </trkpt>
      <trkpt lat="38.105379" lon="-3.620578">
        <ele>428.592827</ele>
        <time>2020-08-08T23:38:03.741Z</time>
      </trkpt>
      <trkpt lat="38.105281" lon="-3.620753">
        <ele>428.423430</ele>
        <time>2020-08-08T23:38:07.049Z</time>
      </trkpt>
      <trkpt lat="38.105074" lon="-3.621166">
        <ele>428.037251</ele>
        <time>2020-08-08T23:38:14.903Z</time>
      </trkpt>
      <trkpt lat="38.104803" lon="-3.621757">
        <ele>427.497787</ele>
        <time>2020-08-08T23:38:25.116Z</time>
      </trkpt>
      <trkpt lat="38.104579" lon="-3.622335">
        <ele>426.741479</ele>
        <time>2020-08-08T23:38:33.583Z</time>
      </trkpt>
      <trkpt lat="38.104354" lon="-3.622915">
        <ele>425.901424</ele>
        <time>2020-08-08T23:38:42.185Z</time>
      </trkpt>
      <trkpt lat="38.104056" lon="-3.623701">
        <ele>424.768002</ele>
        <time>2020-08-08T23:38:54.894Z</time>
      </trkpt>
      <trkpt lat="38.103840" lon="-3.624424">
        <ele>424.535580</ele>
        <time>2020-08-08T23:39:07.943Z</time>
      </trkpt>
      <trkpt lat="38.103751" lon="-3.624722">
        <ele>424.620848</ele>
        <time>2020-08-08T23:39:13.734Z</time>
      </trkpt>
      <trkpt lat="38.103624" lon="-3.625163">
        <ele>424.746472</ele>
        <time>2020-08-08T23:39:22.492Z</time>
      </trkpt>
      <trkpt lat="38.103557" lon="-3.625388">
        <ele>424.810828</ele>
        <time>2020-08-08T23:39:27.291Z</time>
      </trkpt>
      <trkpt lat="38.103190" lon="-3.626626">
        <ele>425.257634</ele>
        <time>2020-08-08T23:39:54.405Z</time>
      </trkpt>
      <trkpt lat="38.102976" lon="-3.627347">
        <ele>425.591833</ele>
        <time>2020-08-08T23:40:09.621Z</time>
      </trkpt>
      <trkpt lat="38.102900" lon="-3.627665">
        <ele>425.735969</ele>
        <time>2020-08-08T23:40:15.783Z</time>
      </trkpt>
      <trkpt lat="38.102884" lon="-3.627763">
        <ele>425.779377</ele>
        <time>2020-08-08T23:40:17.738Z</time>
      </trkpt>
      <trkpt lat="38.102890" lon="-3.627935">
        <ele>425.854046</ele>
        <time>2020-08-08T23:40:20.942Z</time>
      </trkpt>
      <trkpt lat="38.102916" lon="-3.627972">
        <ele>425.875560</ele>
        <time>2020-08-08T23:40:21.888Z</time>
      </trkpt>
      <trkpt lat="38.102934" lon="-3.628017">
        <ele>425.897453</ele>
        <time>2020-08-08T23:40:22.855Z</time>
      </trkpt>
      <trkpt lat="38.102930" lon="-3.628163">
        <ele>425.960811</ele>
        <time>2020-08-08T23:40:25.417Z</time>
      </trkpt>
      <trkpt lat="38.102910" lon="-3.628206">
        <ele>425.982474</ele>
        <time>2020-08-08T23:40:26.311Z</time>
      </trkpt>
      <trkpt lat="38.102880" lon="-3.628244">
        <ele>426.005819</ele>
        <time>2020-08-08T23:40:27.298Z</time>
      </trkpt>
      <trkpt lat="38.102830" lon="-3.628440">
        <ele>425.957110</ele>
        <time>2020-08-08T23:40:31.042Z</time>
      </trkpt>
      <trkpt lat="38.102804" lon="-3.628621">
        <ele>425.912682</ele>
        <time>2020-08-08T23:40:34.146Z</time>
      </trkpt>
      <trkpt lat="38.102807" lon="-3.628698">
        <ele>425.894067</ele>
        <time>2020-08-08T23:40:35.480Z</time>
      </trkpt>
      <trkpt lat="38.102745" lon="-3.628982">
        <ele>425.822900</ele>
        <time>2020-08-08T23:40:40.439Z</time>
      </trkpt>
      <trkpt lat="38.102665" lon="-3.629093">
        <ele>425.786554</ele>
        <time>2020-08-08T23:40:42.923Z</time>
      </trkpt>
      <trkpt lat="38.102491" lon="-3.629203">
        <ele>425.726919</ele>
        <time>2020-08-08T23:40:46.950Z</time>
      </trkpt>
      <trkpt lat="38.102275" lon="-3.629206">
        <ele>425.660633</ele>
        <time>2020-08-08T23:40:51.299Z</time>
      </trkpt>
      <trkpt lat="38.102168" lon="-3.629171">
        <ele>425.626729</ele>
        <time>2020-08-08T23:40:53.704Z</time>
      </trkpt>
      <trkpt lat="38.102076" lon="-3.629245">
        <ele>425.593319</ele>
        <time>2020-08-08T23:40:55.847Z</time>
      </trkpt>
      <trkpt lat="38.101197" lon="-3.630105">
        <ele>425.116890</ele>
        <time>2020-08-08T23:41:18.676Z</time>
      </trkpt>
      <trkpt lat="38.099450" lon="-3.631813">
        <ele>424.530346</ele>
        <time>2020-08-08T23:42:03.959Z</time>
      </trkpt>
      <trkpt lat="38.099360" lon="-3.631901">
        <ele>424.530346</ele>
        <time>2020-08-08T23:42:06.555Z</time>
      </trkpt>
      <trkpt lat="38.098874" lon="-3.632369">
        <ele>424.530346</ele>
        <time>2020-08-08T23:42:20.437Z</time>
      </trkpt>
      <trkpt lat="38.098601" lon="-3.632627">
        <ele>424.530346</ele>
        <time>2020-08-08T23:42:28.384Z</time>
      </trkpt>
      <trkpt lat="38.098428" lon="-3.632728">
        <ele>424.530346</ele>
        <time>2020-08-08T23:42:33.114Z</time>
      </trkpt>
      <trkpt lat="38.098394" lon="-3.632717">
        <ele>424.530346</ele>
        <time>2020-08-08T23:42:33.797Z</time>
      </trkpt>
      <trkpt lat="38.098359" lon="-3.632693">
        <ele>424.530346</ele>
        <time>2020-08-08T23:42:34.819Z</time>
      </trkpt>
      <trkpt lat="38.098286" lon="-3.632547">
        <ele>424.530346</ele>
        <time>2020-08-08T23:42:37.942Z</time>
      </trkpt>
      <trkpt lat="38.098286" lon="-3.632399">
        <ele>424.530346</ele>
        <time>2020-08-08T23:42:40.746Z</time>
      </trkpt>
      <trkpt lat="38.098297" lon="-3.632362">
        <ele>424.530346</ele>
        <time>2020-08-08T23:42:41.579Z</time>
      </trkpt>
      <trkpt lat="38.098297" lon="-3.632362">
        <ele>424.530346</ele>
        <time>2020-08-08T23:42:41.626Z</time>
      </trkpt>
      <trkpt lat="38.091862" lon="-3.639894">
        <ele>453.585822</ele>
        <time>2020-08-10T05:02:50.899Z</time>
      </trkpt>
      <trkpt lat="38.091665" lon="-3.639775">
        <ele>453.585822</ele>
        <time>2020-08-10T05:04:23.923Z</time>
      </trkpt>
      <trkpt lat="38.091572" lon="-3.639765">
        <ele>453.585822</ele>
        <time>2020-08-10T05:04:27.917Z</time>
      </trkpt>
      <trkpt lat="38.091467" lon="-3.639741">
        <ele>453.585822</ele>
        <time>2020-08-10T05:04:31.926Z</time>
      </trkpt>
      <trkpt lat="38.091376" lon="-3.639703">
        <ele>453.585822</ele>
        <time>2020-08-10T05:04:38.930Z</time>
      </trkpt>
      <trkpt lat="38.091279" lon="-3.639669">
        <ele>453.585822</ele>
        <time>2020-08-10T05:04:42.916Z</time>
      </trkpt>
      <trkpt lat="38.091191" lon="-3.639633">
        <ele>453.585822</ele>
        <time>2020-08-10T05:04:47.922Z</time>
      </trkpt>
      <trkpt lat="38.091084" lon="-3.639567">
        <ele>453.585822</ele>
        <time>2020-08-10T05:04:52.923Z</time>
      </trkpt>
      <trkpt lat="38.090982" lon="-3.639514">
        <ele>453.697975</ele>
        <time>2020-08-10T05:04:56.933Z</time>
      </trkpt>
      <trkpt lat="38.090888" lon="-3.639486">
        <ele>453.991998</ele>
        <time>2020-08-10T05:05:00.935Z</time>
      </trkpt>
      <trkpt lat="38.090799" lon="-3.639412">
        <ele>454.315907</ele>
        <time>2020-08-10T05:05:05.915Z</time>
      </trkpt>
      <trkpt lat="38.090706" lon="-3.639357">
        <ele>454.628299</ele>
        <time>2020-08-10T05:05:10.943Z</time>
      </trkpt>
      <trkpt lat="38.090628" lon="-3.639298">
        <ele>454.904742</ele>
        <time>2020-08-10T05:05:14.929Z</time>
      </trkpt>
      <trkpt lat="38.090534" lon="-3.639245">
        <ele>455.217923</ele>
        <time>2020-08-10T05:05:19.935Z</time>
      </trkpt>
      <trkpt lat="38.090442" lon="-3.639205">
        <ele>455.514043</ele>
        <time>2020-08-10T05:05:24.923Z</time>
      </trkpt>
      <trkpt lat="38.090347" lon="-3.639147">
        <ele>455.835016</ele>
        <time>2020-08-10T05:05:29.920Z</time>
      </trkpt>
      <trkpt lat="38.090252" lon="-3.639145">
        <ele>456.124363</ele>
        <time>2020-08-10T05:05:33.932Z</time>
      </trkpt>
      <trkpt lat="38.090155" lon="-3.639169">
        <ele>456.425310</ele>
        <time>2020-08-10T05:05:38.939Z</time>
      </trkpt>
      <trkpt lat="38.090051" lon="-3.639197">
        <ele>456.749057</ele>
        <time>2020-08-10T05:05:43.926Z</time>
      </trkpt>
      <trkpt lat="38.089955" lon="-3.639240">
        <ele>457.059044</ele>
        <time>2020-08-10T05:05:48.924Z</time>
      </trkpt>
      <trkpt lat="38.089609" lon="-3.639439">
        <ele>458.215657</ele>
        <time>2020-08-10T05:06:47.931Z</time>
      </trkpt>
      <trkpt lat="38.089509" lon="-3.639493">
        <ele>458.546554</ele>
        <time>2020-08-10T05:06:50.927Z</time>
      </trkpt>
      <trkpt lat="38.089391" lon="-3.639546">
        <ele>458.927696</ele>
        <time>2020-08-10T05:06:53.927Z</time>
      </trkpt>
      <trkpt lat="38.089303" lon="-3.639581">
        <ele>459.168020</ele>
        <time>2020-08-10T05:06:55.922Z</time>
      </trkpt>
      <trkpt lat="38.089214" lon="-3.639614">
        <ele>459.371636</ele>
        <time>2020-08-10T05:06:57.923Z</time>
      </trkpt>
      <trkpt lat="38.089087" lon="-3.639663">
        <ele>459.663130</ele>
        <time>2020-08-10T05:07:00.924Z</time>
      </trkpt>
      <trkpt lat="38.088964" lon="-3.639709">
        <ele>459.944723</ele>
        <time>2020-08-10T05:07:03.933Z</time>
      </trkpt>
      <trkpt lat="38.088851" lon="-3.639756">
        <ele>460.205854</ele>
        <time>2020-08-10T05:07:06.937Z</time>
      </trkpt>
      <trkpt lat="38.088732" lon="-3.639805">
        <ele>460.480584</ele>
        <time>2020-08-10T05:07:09.949Z</time>
      </trkpt>
      <trkpt lat="38.088646" lon="-3.639850">
        <ele>460.684848</ele>
        <time>2020-08-10T05:07:11.928Z</time>
      </trkpt>
      <trkpt lat="38.088552" lon="-3.639886">
        <ele>460.900466</ele>
        <time>2020-08-10T05:07:13.922Z</time>
      </trkpt>
      <trkpt lat="38.088461" lon="-3.639921">
        <ele>461.109277</ele>
        <time>2020-08-10T05:07:15.921Z</time>
      </trkpt>
      <trkpt lat="38.088374" lon="-3.639953">
        <ele>461.308193</ele>
        <time>2020-08-10T05:07:17.925Z</time>
      </trkpt>
      <trkpt lat="38.088244" lon="-3.639990">
        <ele>461.600775</ele>
        <time>2020-08-10T05:07:20.925Z</time>
      </trkpt>
      <trkpt lat="38.088113" lon="-3.640009">
        <ele>461.890347</ele>
        <time>2020-08-10T05:07:23.918Z</time>
      </trkpt>
      <trkpt lat="38.087987" lon="-3.640027">
        <ele>462.168813</ele>
        <time>2020-08-10T05:07:26.925Z</time>
      </trkpt>
      <trkpt lat="38.087863" lon="-3.640042">
        <ele>462.442374</ele>
        <time>2020-08-10T05:07:29.932Z</time>
      </trkpt>
      <trkpt lat="38.087738" lon="-3.640071">
        <ele>462.721439</ele>
        <time>2020-08-10T05:07:32.926Z</time>
      </trkpt>
      <trkpt lat="38.087615" lon="-3.640095">
        <ele>462.994740</ele>
        <time>2020-08-10T05:07:35.907Z</time>
      </trkpt>
      <trkpt lat="38.087490" lon="-3.640115">
        <ele>463.082654</ele>
        <time>2020-08-10T05:07:38.927Z</time>
      </trkpt>
      <trkpt lat="38.087382" lon="-3.640127">
        <ele>463.146494</ele>
        <time>2020-08-10T05:07:41.906Z</time>
      </trkpt>
      <trkpt lat="38.087273" lon="-3.640142">
        <ele>463.211056</ele>
        <time>2020-08-10T05:07:44.932Z</time>
      </trkpt>
      <trkpt lat="38.087175" lon="-3.640163">
        <ele>463.269580</ele>
        <time>2020-08-10T05:07:47.931Z</time>
      </trkpt>
      <trkpt lat="38.087084" lon="-3.640177">
        <ele>463.323558</ele>
        <time>2020-08-10T05:07:50.931Z</time>
      </trkpt>
      <trkpt lat="38.086975" lon="-3.640177">
        <ele>463.387744</ele>
        <time>2020-08-10T05:07:54.923Z</time>
      </trkpt>
      <trkpt lat="38.086861" lon="-3.640180">
        <ele>463.454889</ele>
        <time>2020-08-10T05:07:58.928Z</time>
      </trkpt>
      <trkpt lat="38.086759" lon="-3.640214">
        <ele>463.516986</ele>
        <time>2020-08-10T05:08:02.921Z</time>
      </trkpt>
      <trkpt lat="38.086678" lon="-3.640277">
        <ele>463.572912</ele>
        <time>2020-08-10T05:08:06.929Z</time>
      </trkpt>
      <trkpt lat="38.086605" lon="-3.640358">
        <ele>463.629985</ele>
        <time>2020-08-10T05:08:10.925Z</time>
      </trkpt>
      <trkpt lat="38.086521" lon="-3.640431">
        <ele>463.689914</ele>
        <time>2020-08-10T05:08:14.918Z</time>
      </trkpt>
      <trkpt lat="38.086422" lon="-3.640446">
        <ele>463.748625</ele>
        <time>2020-08-10T05:13:43.921Z</time>
      </trkpt>
      <trkpt lat="38.086327" lon="-3.640412">
        <ele>463.806744</ele>
        <time>2020-08-10T05:13:57.918Z</time>
      </trkpt>
      <trkpt lat="38.086261" lon="-3.640323">
        <ele>463.863419</ele>
        <time>2020-08-10T05:14:55.936Z</time>
      </trkpt>
      <trkpt lat="38.086135" lon="-3.640339">
        <ele>463.937986</ele>
        <time>2020-08-10T05:14:59.924Z</time>
      </trkpt>
      <trkpt lat="38.086010" lon="-3.640325">
        <ele>464.011880</ele>
        <time>2020-08-10T05:15:01.922Z</time>
      </trkpt>
      <trkpt lat="38.085917" lon="-3.640325">
        <ele>464.066644</ele>
        <time>2020-08-10T05:15:03.929Z</time>
      </trkpt>
      <trkpt lat="38.085825" lon="-3.640308">
        <ele>463.875859</ele>
        <time>2020-08-10T05:15:05.920Z</time>
      </trkpt>
      <trkpt lat="38.085728" lon="-3.640314">
        <ele>463.644953</ele>
        <time>2020-08-10T05:15:08.934Z</time>
      </trkpt>
      <trkpt lat="38.085635" lon="-3.640362">
        <ele>463.406282</ele>
        <time>2020-08-10T05:15:14.922Z</time>
      </trkpt>
      <trkpt lat="38.085527" lon="-3.640407">
        <ele>463.136039</ele>
        <time>2020-08-10T05:15:18.926Z</time>
      </trkpt>
      <trkpt lat="38.085428" lon="-3.640403">
        <ele>462.900532</ele>
        <time>2020-08-10T05:15:21.923Z</time>
      </trkpt>
      <trkpt lat="38.085309" lon="-3.640425">
        <ele>462.614612</ele>
        <time>2020-08-10T05:15:25.937Z</time>
      </trkpt>
      <trkpt lat="38.085207" lon="-3.640445">
        <ele>462.369220</ele>
        <time>2020-08-10T05:15:28.937Z</time>
      </trkpt>
      <trkpt lat="38.085096" lon="-3.640463">
        <ele>462.103160</ele>
        <time>2020-08-10T05:15:31.921Z</time>
      </trkpt>
      <trkpt lat="38.084981" lon="-3.640502">
        <ele>461.820156</ele>
        <time>2020-08-10T05:15:34.928Z</time>
      </trkpt>
      <trkpt lat="38.084892" lon="-3.640527">
        <ele>461.603435</ele>
        <time>2020-08-10T05:15:36.931Z</time>
      </trkpt>
      <trkpt lat="38.084794" lon="-3.640562">
        <ele>461.361393</ele>
        <time>2020-08-10T05:15:38.930Z</time>
      </trkpt>
      <trkpt lat="38.084679" lon="-3.640604">
        <ele>461.076890</ele>
        <time>2020-08-10T05:15:40.935Z</time>
      </trkpt>
      <trkpt lat="38.084540" lon="-3.640666">
        <ele>460.726620</ele>
        <time>2020-08-10T05:15:42.919Z</time>
      </trkpt>
      <trkpt lat="38.084400" lon="-3.640742">
        <ele>460.364635</ele>
        <time>2020-08-10T05:15:44.925Z</time>
      </trkpt>
      <trkpt lat="38.084241" lon="-3.640821">
        <ele>459.958707</ele>
        <time>2020-08-10T05:15:46.938Z</time>
      </trkpt>
      <trkpt lat="38.084080" lon="-3.640927">
        <ele>459.653438</ele>
        <time>2020-08-10T05:15:48.935Z</time>
      </trkpt>
      <trkpt lat="38.083932" lon="-3.641053">
        <ele>459.428405</ele>
        <time>2020-08-10T05:15:50.934Z</time>
      </trkpt>
      <trkpt lat="38.083796" lon="-3.641209">
        <ele>459.196964</ele>
        <time>2020-08-10T05:15:52.923Z</time>
      </trkpt>
      <trkpt lat="38.083731" lon="-3.641294">
        <ele>459.079139</ele>
        <time>2020-08-10T05:15:53.930Z</time>
      </trkpt>
      <trkpt lat="38.083605" lon="-3.641448">
        <ele>458.858295</ele>
        <time>2020-08-10T05:15:55.935Z</time>
      </trkpt>
      <trkpt lat="38.083545" lon="-3.641534">
        <ele>458.744039</ele>
        <time>2020-08-10T05:15:56.915Z</time>
      </trkpt>
      <trkpt lat="38.083436" lon="-3.641690">
        <ele>458.536648</ele>
        <time>2020-08-10T05:15:58.938Z</time>
      </trkpt>
      <trkpt lat="38.083323" lon="-3.641842">
        <ele>458.328777</ele>
        <time>2020-08-10T05:16:00.931Z</time>
      </trkpt>
      <trkpt lat="38.083202" lon="-3.641993">
        <ele>458.114539</ele>
        <time>2020-08-10T05:16:02.917Z</time>
      </trkpt>
      <trkpt lat="38.083095" lon="-3.642129">
        <ele>457.923360</ele>
        <time>2020-08-10T05:16:04.942Z</time>
      </trkpt>
      <trkpt lat="38.082992" lon="-3.642269">
        <ele>457.732833</ele>
        <time>2020-08-10T05:16:06.947Z</time>
      </trkpt>
      <trkpt lat="38.082893" lon="-3.642399">
        <ele>457.552992</ele>
        <time>2020-08-10T05:16:08.919Z</time>
      </trkpt>
      <trkpt lat="38.082801" lon="-3.642535">
        <ele>457.469485</ele>
        <time>2020-08-10T05:16:10.945Z</time>
      </trkpt>
      <trkpt lat="38.082740" lon="-3.642668">
        <ele>457.413474</ele>
        <time>2020-08-10T05:16:12.940Z</time>
      </trkpt>
      <trkpt lat="38.082660" lon="-3.642812">
        <ele>457.349340</ele>
        <time>2020-08-10T05:16:14.943Z</time>
      </trkpt>
      <trkpt lat="38.082593" lon="-3.642950">
        <ele>457.290341</ele>
        <time>2020-08-10T05:16:16.928Z</time>
      </trkpt>
      <trkpt lat="38.082517" lon="-3.643088">
        <ele>457.229056</ele>
        <time>2020-08-10T05:16:18.927Z</time>
      </trkpt>
      <trkpt lat="38.082404" lon="-3.643363">
        <ele>457.116177</ele>
        <time>2020-08-10T05:16:22.935Z</time>
      </trkpt>
      <trkpt lat="38.082337" lon="-3.643491">
        <ele>457.060243</ele>
        <time>2020-08-10T05:16:24.927Z</time>
      </trkpt>
      <trkpt lat="38.082289" lon="-3.643620">
        <ele>457.008323</ele>
        <time>2020-08-10T05:16:26.916Z</time>
      </trkpt>
      <trkpt lat="38.082246" lon="-3.643756">
        <ele>456.954993</ele>
        <time>2020-08-10T05:16:28.938Z</time>
      </trkpt>
      <trkpt lat="38.082210" lon="-3.643875">
        <ele>456.908604</ele>
        <time>2020-08-10T05:16:30.925Z</time>
      </trkpt>
      <trkpt lat="38.082182" lon="-3.643996">
        <ele>456.862712</ele>
        <time>2020-08-10T05:16:32.924Z</time>
      </trkpt>
      <trkpt lat="38.082163" lon="-3.644124">
        <ele>456.815315</ele>
        <time>2020-08-10T05:16:34.935Z</time>
      </trkpt>
      <trkpt lat="38.082181" lon="-3.644258">
        <ele>456.765851</ele>
        <time>2020-08-10T05:16:37.928Z</time>
      </trkpt>
      <trkpt lat="38.082266" lon="-3.644372">
        <ele>456.708713</ele>
        <time>2020-08-10T05:16:40.920Z</time>
      </trkpt>
      <trkpt lat="38.082316" lon="-3.644528">
        <ele>456.695832</ele>
        <time>2020-08-10T05:16:43.921Z</time>
      </trkpt>
      <trkpt lat="38.082328" lon="-3.644651">
        <ele>456.698932</ele>
        <time>2020-08-10T05:16:45.930Z</time>
      </trkpt>
      <trkpt lat="38.082291" lon="-3.644772">
        <ele>456.702179</ele>
        <time>2020-08-10T05:16:47.928Z</time>
      </trkpt>
      <trkpt lat="38.082216" lon="-3.644886">
        <ele>456.705895</ele>
        <time>2020-08-10T05:16:49.916Z</time>
      </trkpt>
      <trkpt lat="38.082128" lon="-3.644973">
        <ele>456.709438</ele>
        <time>2020-08-10T05:16:51.929Z</time>
      </trkpt>
      <trkpt lat="38.082017" lon="-3.645028">
        <ele>456.713224</ele>
        <time>2020-08-10T05:16:53.913Z</time>
      </trkpt>
      <trkpt lat="38.081915" lon="-3.645031">
        <ele>456.716466</ele>
        <time>2020-08-10T05:16:55.931Z</time>
      </trkpt>
      <trkpt lat="38.081793" lon="-3.645022">
        <ele>456.720349</ele>
        <time>2020-08-10T05:16:57.912Z</time>
      </trkpt>
      <trkpt lat="38.081651" lon="-3.645057">
        <ele>456.724945</ele>
        <time>2020-08-10T05:17:00.921Z</time>
      </trkpt>
      <trkpt lat="38.081557" lon="-3.645096">
        <ele>456.728087</ele>
        <time>2020-08-10T05:17:02.917Z</time>
      </trkpt>
      <trkpt lat="38.081466" lon="-3.645129">
        <ele>456.731094</ele>
        <time>2020-08-10T05:17:04.937Z</time>
      </trkpt>
      <trkpt lat="38.081373" lon="-3.645151">
        <ele>456.734100</ele>
        <time>2020-08-10T05:17:06.939Z</time>
      </trkpt>
      <trkpt lat="38.081256" lon="-3.645196">
        <ele>456.737984</ele>
        <time>2020-08-10T05:17:09.934Z</time>
      </trkpt>
      <trkpt lat="38.081157" lon="-3.645216">
        <ele>456.741170</ele>
        <time>2020-08-10T05:17:12.915Z</time>
      </trkpt>
      <trkpt lat="38.081064" lon="-3.645259">
        <ele>456.744315</ele>
        <time>2020-08-10T05:17:15.931Z</time>
      </trkpt>
      <trkpt lat="38.080967" lon="-3.645291">
        <ele>456.747499</ele>
        <time>2020-08-10T05:17:18.924Z</time>
      </trkpt>
      <trkpt lat="38.080878" lon="-3.645322">
        <ele>456.768143</ele>
        <time>2020-08-10T05:17:21.926Z</time>
      </trkpt>
      <trkpt lat="38.080788" lon="-3.645345">
        <ele>456.863304</ele>
        <time>2020-08-10T05:17:24.923Z</time>
      </trkpt>
      <trkpt lat="38.080681" lon="-3.645372">
        <ele>456.976384</ele>
        <time>2020-08-10T05:17:27.923Z</time>
      </trkpt>
      <trkpt lat="38.080581" lon="-3.645416">
        <ele>457.086082</ele>
        <time>2020-08-10T05:17:30.916Z</time>
      </trkpt>
      <trkpt lat="38.080513" lon="-3.645511">
        <ele>457.190853</ele>
        <time>2020-08-10T05:17:33.932Z</time>
      </trkpt>
      <trkpt lat="38.080464" lon="-3.645636">
        <ele>457.304792</ele>
        <time>2020-08-10T05:17:36.911Z</time>
      </trkpt>
      <trkpt lat="38.080380" lon="-3.645770">
        <ele>457.444562</ele>
        <time>2020-08-10T05:17:39.907Z</time>
      </trkpt>
      <trkpt lat="38.080296" lon="-3.645859">
        <ele>457.557942</ele>
        <time>2020-08-10T05:17:41.910Z</time>
      </trkpt>
      <trkpt lat="38.080205" lon="-3.645897">
        <ele>457.657236</ele>
        <time>2020-08-10T05:17:43.923Z</time>
      </trkpt>
      <trkpt lat="38.080099" lon="-3.645899">
        <ele>457.767125</ele>
        <time>2020-08-10T05:17:45.911Z</time>
      </trkpt>
      <trkpt lat="38.080010" lon="-3.645870">
        <ele>457.862366</ele>
        <time>2020-08-10T05:17:47.914Z</time>
      </trkpt>
      <trkpt lat="38.079914" lon="-3.645755">
        <ele>457.999140</ele>
        <time>2020-08-10T05:17:50.907Z</time>
      </trkpt>
      <trkpt lat="38.079861" lon="-3.645645">
        <ele>458.104373</ele>
        <time>2020-08-10T05:17:52.927Z</time>
      </trkpt>
      <trkpt lat="38.079840" lon="-3.645522">
        <ele>458.207067</ele>
        <time>2020-08-10T05:17:54.915Z</time>
      </trkpt>
      <trkpt lat="38.079847" lon="-3.645388">
        <ele>458.316644</ele>
        <time>2020-08-10T05:17:56.920Z</time>
      </trkpt>
      <trkpt lat="38.079878" lon="-3.645249">
        <ele>458.434524</ele>
        <time>2020-08-10T05:17:58.930Z</time>
      </trkpt>
      <trkpt lat="38.079904" lon="-3.645109">
        <ele>458.551892</ele>
        <time>2020-08-10T05:18:00.928Z</time>
      </trkpt>
      <trkpt lat="38.079896" lon="-3.644978">
        <ele>458.740106</ele>
        <time>2020-08-10T05:18:02.922Z</time>
      </trkpt>
      <trkpt lat="38.079867" lon="-3.644841">
        <ele>459.065150</ele>
        <time>2020-08-10T05:18:04.920Z</time>
      </trkpt>
      <trkpt lat="38.079828" lon="-3.644710">
        <ele>459.386046</ele>
        <time>2020-08-10T05:18:06.937Z</time>
      </trkpt>
      <trkpt lat="38.079801" lon="-3.644579">
        <ele>459.696310</ele>
        <time>2020-08-10T05:18:08.936Z</time>
      </trkpt>
      <trkpt lat="38.079768" lon="-3.644449">
        <ele>460.009270</ele>
        <time>2020-08-10T05:18:10.939Z</time>
      </trkpt>
      <trkpt lat="38.079734" lon="-3.644337">
        <ele>460.284305</ele>
        <time>2020-08-10T05:18:12.921Z</time>
      </trkpt>
      <trkpt lat="38.079704" lon="-3.644183">
        <ele>460.647793</ele>
        <time>2020-08-10T05:18:15.928Z</time>
      </trkpt>
      <trkpt lat="38.079661" lon="-3.644039">
        <ele>461.000668</ele>
        <time>2020-08-10T05:18:18.932Z</time>
      </trkpt>
      <trkpt lat="38.079640" lon="-3.643910">
        <ele>461.302486</ele>
        <time>2020-08-10T05:18:21.943Z</time>
      </trkpt>
      <trkpt lat="38.079613" lon="-3.643791">
        <ele>461.586239</ele>
        <time>2020-08-10T05:18:24.930Z</time>
      </trkpt>
      <trkpt lat="38.079583" lon="-3.643655">
        <ele>461.909845</ele>
        <time>2020-08-10T05:18:28.938Z</time>
      </trkpt>
      <trkpt lat="38.079551" lon="-3.643521">
        <ele>462.230683</ele>
        <time>2020-08-10T05:18:32.944Z</time>
      </trkpt>
      <trkpt lat="38.079517" lon="-3.643382">
        <ele>462.564182</ele>
        <time>2020-08-10T05:18:36.927Z</time>
      </trkpt>
      <trkpt lat="38.079481" lon="-3.643263">
        <ele>462.856277</ele>
        <time>2020-08-10T05:18:40.919Z</time>
      </trkpt>
      <trkpt lat="38.079458" lon="-3.643145">
        <ele>463.134804</ele>
        <time>2020-08-10T05:18:44.929Z</time>
      </trkpt>
      <trkpt lat="38.079430" lon="-3.643005">
        <ele>463.465764</ele>
        <time>2020-08-10T05:18:48.926Z</time>
      </trkpt>
      <trkpt lat="38.079411" lon="-3.642887">
        <ele>463.741724</ele>
        <time>2020-08-10T05:18:51.920Z</time>
      </trkpt>
      <trkpt lat="38.079394" lon="-3.642763">
        <ele>463.843239</ele>
        <time>2020-08-10T05:18:54.916Z</time>
      </trkpt>
      <trkpt lat="38.079372" lon="-3.642636">
        <ele>463.832629</ele>
        <time>2020-08-10T05:18:57.926Z</time>
      </trkpt>
      <trkpt lat="38.079345" lon="-3.642500">
        <ele>463.821185</ele>
        <time>2020-08-10T05:19:00.929Z</time>
      </trkpt>
      <trkpt lat="38.079319" lon="-3.642367">
        <ele>463.810004</ele>
        <time>2020-08-10T05:19:03.931Z</time>
      </trkpt>
      <trkpt lat="38.079287" lon="-3.642228">
        <ele>463.798187</ele>
        <time>2020-08-10T05:19:06.943Z</time>
      </trkpt>
      <trkpt lat="38.079253" lon="-3.642091">
        <ele>463.786467</ele>
        <time>2020-08-10T05:19:09.932Z</time>
      </trkpt>
      <trkpt lat="38.079223" lon="-3.641952">
        <ele>463.774707</ele>
        <time>2020-08-10T05:19:12.916Z</time>
      </trkpt>
      <trkpt lat="38.079188" lon="-3.641816">
        <ele>463.763033</ele>
        <time>2020-08-10T05:19:15.931Z</time>
      </trkpt>
      <trkpt lat="38.079148" lon="-3.641680">
        <ele>463.751187</ele>
        <time>2020-08-10T05:19:18.926Z</time>
      </trkpt>
      <trkpt lat="38.079111" lon="-3.641548">
        <ele>463.739755</ele>
        <time>2020-08-10T05:19:21.917Z</time>
      </trkpt>
      <trkpt lat="38.079079" lon="-3.641421">
        <ele>463.728875</ele>
        <time>2020-08-10T05:19:24.921Z</time>
      </trkpt>
      <trkpt lat="38.079043" lon="-3.641295">
        <ele>463.717938</ele>
        <time>2020-08-10T05:19:27.932Z</time>
      </trkpt>
      <trkpt lat="38.079003" lon="-3.641178">
        <ele>463.707530</ele>
        <time>2020-08-10T05:19:30.936Z</time>
      </trkpt>
      <trkpt lat="38.078973" lon="-3.641062">
        <ele>463.697568</ele>
        <time>2020-08-10T05:19:33.916Z</time>
      </trkpt>
      <trkpt lat="38.078943" lon="-3.640947">
        <ele>463.687683</ele>
        <time>2020-08-10T05:19:36.914Z</time>
      </trkpt>
      <trkpt lat="38.078913" lon="-3.640840">
        <ele>463.678416</ele>
        <time>2020-08-10T05:19:39.938Z</time>
      </trkpt>
      <trkpt lat="38.078891" lon="-3.640728">
        <ele>463.668997</ele>
        <time>2020-08-10T05:19:42.931Z</time>
      </trkpt>
      <trkpt lat="38.078853" lon="-3.640600">
        <ele>464.043913</ele>
        <time>2020-08-10T05:19:46.928Z</time>
      </trkpt>
      <trkpt lat="38.078822" lon="-3.640472">
        <ele>464.814933</ele>
        <time>2020-08-10T05:19:50.937Z</time>
      </trkpt>
      <trkpt lat="38.078791" lon="-3.640335">
        <ele>465.635618</ele>
        <time>2020-08-10T05:19:54.917Z</time>
      </trkpt>
      <trkpt lat="38.078766" lon="-3.640219">
        <ele>466.328038</ele>
        <time>2020-08-10T05:19:57.929Z</time>
      </trkpt>
      <trkpt lat="38.078733" lon="-3.640110">
        <ele>467.000394</ele>
        <time>2020-08-10T05:20:00.937Z</time>
      </trkpt>
      <trkpt lat="38.078701" lon="-3.639962">
        <ele>467.884028</ele>
        <time>2020-08-10T05:20:04.924Z</time>
      </trkpt>
      <trkpt lat="38.078674" lon="-3.639849">
        <ele>468.563909</ele>
        <time>2020-08-10T05:20:07.916Z</time>
      </trkpt>
      <trkpt lat="38.078646" lon="-3.639738">
        <ele>469.234977</ele>
        <time>2020-08-10T05:20:10.936Z</time>
      </trkpt>
      <trkpt lat="38.078616" lon="-3.639618">
        <ele>469.959856</ele>
        <time>2020-08-10T05:20:13.924Z</time>
      </trkpt>
      <trkpt lat="38.078581" lon="-3.639495">
        <ele>470.712848</ele>
        <time>2020-08-10T05:20:16.905Z</time>
      </trkpt>
      <trkpt lat="38.078542" lon="-3.639370">
        <ele>471.486975</ele>
        <time>2020-08-10T05:20:19.928Z</time>
      </trkpt>
      <trkpt lat="38.078503" lon="-3.639257">
        <ele>472.197333</ele>
        <time>2020-08-10T05:20:22.925Z</time>
      </trkpt>
      <trkpt lat="38.078467" lon="-3.639147">
        <ele>472.883188</ele>
        <time>2020-08-10T05:20:25.922Z</time>
      </trkpt>
      <trkpt lat="38.078415" lon="-3.639039">
        <ele>473.612068</ele>
        <time>2020-08-10T05:20:28.920Z</time>
      </trkpt>
      <trkpt lat="38.078351" lon="-3.638916">
        <ele>474.460938</ele>
        <time>2020-08-10T05:20:32.930Z</time>
      </trkpt>
      <trkpt lat="38.078296" lon="-3.638817">
        <ele>475.158567</ele>
        <time>2020-08-10T05:20:35.915Z</time>
      </trkpt>
      <trkpt lat="38.078231" lon="-3.638717">
        <ele>475.905209</ele>
        <time>2020-08-10T05:20:38.921Z</time>
      </trkpt>
      <trkpt lat="38.078170" lon="-3.638615">
        <ele>476.642709</ele>
        <time>2020-08-10T05:20:41.936Z</time>
      </trkpt>
      <trkpt lat="38.078103" lon="-3.638523">
        <ele>477.139197</ele>
        <time>2020-08-10T05:20:44.933Z</time>
      </trkpt>
      <trkpt lat="38.078032" lon="-3.638452">
        <ele>477.527573</ele>
        <time>2020-08-10T05:20:47.937Z</time>
      </trkpt>
      <trkpt lat="38.077936" lon="-3.638365">
        <ele>478.034433</ele>
        <time>2020-08-10T05:20:51.939Z</time>
      </trkpt>
      <trkpt lat="38.077857" lon="-3.638304">
        <ele>478.431794</ele>
        <time>2020-08-10T05:20:54.940Z</time>
      </trkpt>
      <trkpt lat="38.077765" lon="-3.638255">
        <ele>478.860575</ele>
        <time>2020-08-10T05:20:57.918Z</time>
      </trkpt>
      <trkpt lat="38.077665" lon="-3.638216">
        <ele>479.310193</ele>
        <time>2020-08-10T05:21:00.930Z</time>
      </trkpt>
      <trkpt lat="38.077561" lon="-3.638184">
        <ele>479.770130</ele>
        <time>2020-08-10T05:21:03.945Z</time>
      </trkpt>
      <trkpt lat="38.077449" lon="-3.638153">
        <ele>480.262821</ele>
        <time>2020-08-10T05:21:06.938Z</time>
      </trkpt>
      <trkpt lat="38.077337" lon="-3.638126">
        <ele>480.752810</ele>
        <time>2020-08-10T05:21:09.925Z</time>
      </trkpt>
      <trkpt lat="38.077233" lon="-3.638097">
        <ele>481.210464</ele>
        <time>2020-08-10T05:21:12.940Z</time>
      </trkpt>
      <trkpt lat="38.077128" lon="-3.638060">
        <ele>481.678815</ele>
        <time>2020-08-10T05:21:15.922Z</time>
      </trkpt>
      <trkpt lat="38.077018" lon="-3.638023">
        <ele>482.167909</ele>
        <time>2020-08-10T05:21:18.927Z</time>
      </trkpt>
      <trkpt lat="38.076909" lon="-3.637995">
        <ele>482.645895</ele>
        <time>2020-08-10T05:21:21.928Z</time>
      </trkpt>
      <trkpt lat="38.076799" lon="-3.637960">
        <ele>483.133301</ele>
        <time>2020-08-10T05:21:24.923Z</time>
      </trkpt>
      <trkpt lat="38.076693" lon="-3.637918">
        <ele>483.610557</ele>
        <time>2020-08-10T05:21:27.929Z</time>
      </trkpt>
      <trkpt lat="38.076592" lon="-3.637861">
        <ele>484.085585</ele>
        <time>2020-08-10T05:21:30.923Z</time>
      </trkpt>
      <trkpt lat="38.076493" lon="-3.637800">
        <ele>484.529754</ele>
        <time>2020-08-10T05:21:33.933Z</time>
      </trkpt>
      <trkpt lat="38.076409" lon="-3.637736">
        <ele>483.638544</ele>
        <time>2020-08-10T05:21:36.938Z</time>
      </trkpt>
      <trkpt lat="38.076329" lon="-3.637669">
        <ele>482.766702</ele>
        <time>2020-08-10T05:21:39.916Z</time>
      </trkpt>
      <trkpt lat="38.076243" lon="-3.637611">
        <ele>481.880783</ele>
        <time>2020-08-10T05:21:42.925Z</time>
      </trkpt>
      <trkpt lat="38.076158" lon="-3.637551">
        <ele>480.996022</ele>
        <time>2020-08-10T05:21:45.919Z</time>
      </trkpt>
      <trkpt lat="38.076069" lon="-3.637484">
        <ele>480.054732</ele>
        <time>2020-08-10T05:21:48.927Z</time>
      </trkpt>
      <trkpt lat="38.075984" lon="-3.637411">
        <ele>479.121190</ele>
        <time>2020-08-10T05:21:51.914Z</time>
      </trkpt>
      <trkpt lat="38.075907" lon="-3.637345">
        <ele>478.276029</ele>
        <time>2020-08-10T05:21:54.951Z</time>
      </trkpt>
      <trkpt lat="38.075814" lon="-3.637258">
        <ele>477.225172</ele>
        <time>2020-08-10T05:21:58.936Z</time>
      </trkpt>
      <trkpt lat="38.075735" lon="-3.637200">
        <ele>476.394969</ele>
        <time>2020-08-10T05:22:01.917Z</time>
      </trkpt>
      <trkpt lat="38.075655" lon="-3.637131">
        <ele>475.515158</ele>
        <time>2020-08-10T05:22:04.926Z</time>
      </trkpt>
      <trkpt lat="38.075578" lon="-3.637063">
        <ele>474.661901</ele>
        <time>2020-08-10T05:22:07.927Z</time>
      </trkpt>
      <trkpt lat="38.075494" lon="-3.636992">
        <ele>473.743893</ele>
        <time>2020-08-10T05:22:10.938Z</time>
      </trkpt>
      <trkpt lat="38.075404" lon="-3.636922">
        <ele>472.783719</ele>
        <time>2020-08-10T05:22:13.930Z</time>
      </trkpt>
      <trkpt lat="38.075308" lon="-3.636858">
        <ele>471.797272</ele>
        <time>2020-08-10T05:22:16.939Z</time>
      </trkpt>
      <trkpt lat="38.075209" lon="-3.636788">
        <ele>470.766373</ele>
        <time>2020-08-10T05:22:19.929Z</time>
      </trkpt>
      <trkpt lat="38.075099" lon="-3.636713">
        <ele>469.630472</ele>
        <time>2020-08-10T05:22:22.937Z</time>
      </trkpt>
      <trkpt lat="38.074994" lon="-3.636628">
        <ele>468.497617</ele>
        <time>2020-08-10T05:22:25.934Z</time>
      </trkpt>
      <trkpt lat="38.074887" lon="-3.636543">
        <ele>468.067359</ele>
        <time>2020-08-10T05:22:28.918Z</time>
      </trkpt>
      <trkpt lat="38.074782" lon="-3.636467">
        <ele>467.913609</ele>
        <time>2020-08-10T05:22:31.927Z</time>
      </trkpt>
      <trkpt lat="38.074672" lon="-3.636378">
        <ele>467.747685</ele>
        <time>2020-08-10T05:22:34.932Z</time>
      </trkpt>
      <trkpt lat="38.074563" lon="-3.636285">
        <ele>467.580633</ele>
        <time>2020-08-10T05:22:37.916Z</time>
      </trkpt>
      <trkpt lat="38.074453" lon="-3.636195">
        <ele>467.414168</ele>
        <time>2020-08-10T05:22:40.917Z</time>
      </trkpt>
      <trkpt lat="38.074341" lon="-3.636107">
        <ele>467.246621</ele>
        <time>2020-08-10T05:22:43.931Z</time>
      </trkpt>
      <trkpt lat="38.074254" lon="-3.636058">
        <ele>467.125544</ele>
        <time>2020-08-10T05:22:45.935Z</time>
      </trkpt>
      <trkpt lat="38.074142" lon="-3.635971">
        <ele>466.958521</ele>
        <time>2020-08-10T05:22:48.933Z</time>
      </trkpt>
      <trkpt lat="38.074030" lon="-3.635883">
        <ele>466.790974</ele>
        <time>2020-08-10T05:22:51.920Z</time>
      </trkpt>
      <trkpt lat="38.073913" lon="-3.635797">
        <ele>466.618996</ele>
        <time>2020-08-10T05:22:54.922Z</time>
      </trkpt>
      <trkpt lat="38.073823" lon="-3.635740">
        <ele>466.491051</ele>
        <time>2020-08-10T05:22:56.943Z</time>
      </trkpt>
      <trkpt lat="38.073732" lon="-3.635686">
        <ele>466.363266</ele>
        <time>2020-08-10T05:22:58.919Z</time>
      </trkpt>
      <trkpt lat="38.073643" lon="-3.635617">
        <ele>466.230613</ele>
        <time>2020-08-10T05:23:00.934Z</time>
      </trkpt>
      <trkpt lat="38.073527" lon="-3.635533">
        <ele>466.060736</ele>
        <time>2020-08-10T05:23:03.925Z</time>
      </trkpt>
      <trkpt lat="38.073445" lon="-3.635476">
        <ele>465.941812</ele>
        <time>2020-08-10T05:23:05.917Z</time>
      </trkpt>
      <trkpt lat="38.073323" lon="-3.635402">
        <ele>466.061403</ele>
        <time>2020-08-10T05:23:08.933Z</time>
      </trkpt>
      <trkpt lat="38.073238" lon="-3.635341">
        <ele>466.224802</ele>
        <time>2020-08-10T05:23:10.936Z</time>
      </trkpt>
      <trkpt lat="38.073146" lon="-3.635299">
        <ele>466.388425</ele>
        <time>2020-08-10T05:23:12.933Z</time>
      </trkpt>
      <trkpt lat="38.073034" lon="-3.635230">
        <ele>466.596763</ele>
        <time>2020-08-10T05:23:15.908Z</time>
      </trkpt>
      <trkpt lat="38.072920" lon="-3.635146">
        <ele>466.817342</ele>
        <time>2020-08-10T05:23:18.920Z</time>
      </trkpt>
      <trkpt lat="38.072844" lon="-3.635078">
        <ele>466.972930</ele>
        <time>2020-08-10T05:23:20.935Z</time>
      </trkpt>
      <trkpt lat="38.072767" lon="-3.635012">
        <ele>467.128400</ele>
        <time>2020-08-10T05:23:22.923Z</time>
      </trkpt>
      <trkpt lat="38.072643" lon="-3.634953">
        <ele>467.350022</ele>
        <time>2020-08-10T05:23:25.932Z</time>
      </trkpt>
      <trkpt lat="38.072525" lon="-3.634891">
        <ele>467.563747</ele>
        <time>2020-08-10T05:23:28.921Z</time>
      </trkpt>
      <trkpt lat="38.072414" lon="-3.634806">
        <ele>467.780675</ele>
        <time>2020-08-10T05:23:31.926Z</time>
      </trkpt>
      <trkpt lat="38.072309" lon="-3.634708">
        <ele>467.998752</ele>
        <time>2020-08-10T05:23:34.938Z</time>
      </trkpt>
      <trkpt lat="38.072199" lon="-3.634643">
        <ele>468.201805</ele>
        <time>2020-08-10T05:23:37.934Z</time>
      </trkpt>
      <trkpt lat="38.072084" lon="-3.634569">
        <ele>468.417568</ele>
        <time>2020-08-10T05:23:40.929Z</time>
      </trkpt>
      <trkpt lat="38.071967" lon="-3.634496">
        <ele>468.635739</ele>
        <time>2020-08-10T05:23:43.914Z</time>
      </trkpt>
      <trkpt lat="38.071853" lon="-3.634425">
        <ele>468.848242</ele>
        <time>2020-08-10T05:23:46.931Z</time>
      </trkpt>
      <trkpt lat="38.071737" lon="-3.634355">
        <ele>469.223575</ele>
        <time>2020-08-10T05:23:49.924Z</time>
      </trkpt>
      <trkpt lat="38.071660" lon="-3.634295">
        <ele>469.529178</ele>
        <time>2020-08-10T05:23:51.940Z</time>
      </trkpt>
      <trkpt lat="38.071582" lon="-3.634234">
        <ele>469.839057</ele>
        <time>2020-08-10T05:23:53.936Z</time>
      </trkpt>
      <trkpt lat="38.071477" lon="-3.634165">
        <ele>470.238997</ele>
        <time>2020-08-10T05:23:56.946Z</time>
      </trkpt>
      <trkpt lat="38.071353" lon="-3.634092">
        <ele>470.701359</ele>
        <time>2020-08-10T05:23:59.934Z</time>
      </trkpt>
      <trkpt lat="38.071245" lon="-3.634019">
        <ele>471.115236</ele>
        <time>2020-08-10T05:24:02.908Z</time>
      </trkpt>
      <trkpt lat="38.071144" lon="-3.633942">
        <ele>471.513742</ele>
        <time>2020-08-10T05:24:05.914Z</time>
      </trkpt>
      <trkpt lat="38.071035" lon="-3.633872">
        <ele>471.926943</ele>
        <time>2020-08-10T05:24:08.934Z</time>
      </trkpt>
      <trkpt lat="38.070917" lon="-3.633801">
        <ele>472.368665</ele>
        <time>2020-08-10T05:24:11.923Z</time>
      </trkpt>
      <trkpt lat="38.070809" lon="-3.633732">
        <ele>472.777647</ele>
        <time>2020-08-10T05:24:14.932Z</time>
      </trkpt>
      <trkpt lat="38.070707" lon="-3.633668">
        <ele>473.162521</ele>
        <time>2020-08-10T05:24:17.930Z</time>
      </trkpt>
      <trkpt lat="38.070612" lon="-3.633611">
        <ele>473.517961</ele>
        <time>2020-08-10T05:24:20.921Z</time>
      </trkpt>
      <trkpt lat="38.070536" lon="-3.633544">
        <ele>473.830928</ele>
        <time>2020-08-10T05:24:23.925Z</time>
      </trkpt>
      <trkpt lat="38.070428" lon="-3.633522">
        <ele>474.200967</ele>
        <time>2020-08-10T05:24:27.923Z</time>
      </trkpt>
      <trkpt lat="38.070326" lon="-3.633473">
        <ele>474.569892</ele>
        <time>2020-08-10T05:24:31.926Z</time>
      </trkpt>
      <trkpt lat="38.070224" lon="-3.633437">
        <ele>474.928036</ele>
        <time>2020-08-10T05:24:35.936Z</time>
      </trkpt>
      <trkpt lat="38.070112" lon="-3.633376">
        <ele>474.948491</ele>
        <time>2020-08-10T05:24:39.921Z</time>
      </trkpt>
      <trkpt lat="38.070007" lon="-3.633312">
        <ele>474.900474</ele>
        <time>2020-08-10T05:24:43.940Z</time>
      </trkpt>
      <trkpt lat="38.069926" lon="-3.633247">
        <ele>474.860972</ele>
        <time>2020-08-10T05:24:46.933Z</time>
      </trkpt>
      <trkpt lat="38.069846" lon="-3.633186">
        <ele>474.822502</ele>
        <time>2020-08-10T05:24:49.928Z</time>
      </trkpt>
      <trkpt lat="38.069757" lon="-3.633134">
        <ele>474.782112</ele>
        <time>2020-08-10T05:24:52.924Z</time>
      </trkpt>
      <trkpt lat="38.069676" lon="-3.633081">
        <ele>474.744545</ele>
        <time>2020-08-10T05:24:55.932Z</time>
      </trkpt>
      <trkpt lat="38.069584" lon="-3.633021">
        <ele>474.701907</ele>
        <time>2020-08-10T05:24:59.929Z</time>
      </trkpt>
      <trkpt lat="38.069489" lon="-3.632957">
        <ele>474.657571</ele>
        <time>2020-08-10T05:25:03.920Z</time>
      </trkpt>
      <trkpt lat="38.069387" lon="-3.632874">
        <ele>474.607627</ele>
        <time>2020-08-10T05:25:07.939Z</time>
      </trkpt>
      <trkpt lat="38.069291" lon="-3.632796">
        <ele>474.560642</ele>
        <time>2020-08-10T05:25:11.939Z</time>
      </trkpt>
      <trkpt lat="38.069204" lon="-3.632724">
        <ele>474.517831</ele>
        <time>2020-08-10T05:25:15.945Z</time>
      </trkpt>
      <trkpt lat="38.069105" lon="-3.632650">
        <ele>474.470471</ele>
        <time>2020-08-10T05:25:19.905Z</time>
      </trkpt>
      <trkpt lat="38.069001" lon="-3.632584">
        <ele>474.422538</ele>
        <time>2020-08-10T05:25:23.920Z</time>
      </trkpt>
      <trkpt lat="38.068922" lon="-3.632507">
        <ele>474.381482</ele>
        <time>2020-08-10T05:26:49.941Z</time>
      </trkpt>
      <trkpt lat="38.068827" lon="-3.632445">
        <ele>474.337447</ele>
        <time>2020-08-10T05:26:54.947Z</time>
      </trkpt>
      <trkpt lat="38.068740" lon="-3.632390">
        <ele>474.297380</ele>
        <time>2020-08-10T05:26:57.944Z</time>
      </trkpt>
      <trkpt lat="38.068636" lon="-3.632324">
        <ele>474.250367</ele>
        <time>2020-08-10T05:27:00.952Z</time>
      </trkpt>
      <trkpt lat="38.068526" lon="-3.632244">
        <ele>475.655968</ele>
        <time>2020-08-10T05:27:03.946Z</time>
      </trkpt>
      <trkpt lat="38.068414" lon="-3.632147">
        <ele>477.159181</ele>
        <time>2020-08-10T05:27:06.952Z</time>
      </trkpt>
      <trkpt lat="38.068323" lon="-3.632080">
        <ele>478.325563</ele>
        <time>2020-08-10T05:27:08.965Z</time>
      </trkpt>
      <trkpt lat="38.068236" lon="-3.632002">
        <ele>479.506435</ele>
        <time>2020-08-10T05:27:10.951Z</time>
      </trkpt>
      <trkpt lat="38.068147" lon="-3.631935">
        <ele>480.653683</ele>
        <time>2020-08-10T05:27:12.954Z</time>
      </trkpt>
      <trkpt lat="38.068052" lon="-3.631846">
        <ele>481.962697</ele>
        <time>2020-08-10T05:27:14.957Z</time>
      </trkpt>
      <trkpt lat="38.067914" lon="-3.631788">
        <ele>483.574598</ele>
        <time>2020-08-10T05:27:16.965Z</time>
      </trkpt>
      <trkpt lat="38.067808" lon="-3.631693">
        <ele>485.013191</ele>
        <time>2020-08-10T05:27:18.948Z</time>
      </trkpt>
      <trkpt lat="38.067686" lon="-3.631600">
        <ele>486.591001</ele>
        <time>2020-08-10T05:27:20.948Z</time>
      </trkpt>
      <trkpt lat="38.067551" lon="-3.631505">
        <ele>488.302429</ele>
        <time>2020-08-10T05:27:22.953Z</time>
      </trkpt>
      <trkpt lat="38.067423" lon="-3.631393">
        <ele>490.026035</ele>
        <time>2020-08-10T05:27:24.957Z</time>
      </trkpt>
      <trkpt lat="38.067347" lon="-3.631321">
        <ele>491.077410</ele>
        <time>2020-08-10T05:27:25.957Z</time>
      </trkpt>
      <trkpt lat="38.067213" lon="-3.631218">
        <ele>492.814259</ele>
        <time>2020-08-10T05:27:27.952Z</time>
      </trkpt>
      <trkpt lat="38.067055" lon="-3.631074">
        <ele>493.913090</ele>
        <time>2020-08-10T05:27:29.953Z</time>
      </trkpt>
      <trkpt lat="38.066965" lon="-3.631021">
        <ele>493.513468</ele>
        <time>2020-08-10T05:27:30.957Z</time>
      </trkpt>
      <trkpt lat="38.066888" lon="-3.630945">
        <ele>493.120644</ele>
        <time>2020-08-10T05:27:31.962Z</time>
      </trkpt>
      <trkpt lat="38.066793" lon="-3.630884">
        <ele>492.691829</ele>
        <time>2020-08-10T05:27:32.956Z</time>
      </trkpt>
      <trkpt lat="38.066703" lon="-3.630814">
        <ele>492.266705</ele>
        <time>2020-08-10T05:27:33.946Z</time>
      </trkpt>
      <trkpt lat="38.066612" lon="-3.630745">
        <ele>491.839775</ele>
        <time>2020-08-10T05:27:34.961Z</time>
      </trkpt>
      <trkpt lat="38.066508" lon="-3.630681">
        <ele>491.374245</ele>
        <time>2020-08-10T05:27:35.943Z</time>
      </trkpt>
      <trkpt lat="38.066420" lon="-3.630622">
        <ele>490.973395</ele>
        <time>2020-08-10T05:27:36.945Z</time>
      </trkpt>
      <trkpt lat="38.066317" lon="-3.630560">
        <ele>490.514239</ele>
        <time>2020-08-10T05:27:37.934Z</time>
      </trkpt>
      <trkpt lat="38.066231" lon="-3.630493">
        <ele>490.107825</ele>
        <time>2020-08-10T05:27:38.946Z</time>
      </trkpt>
      <trkpt lat="38.066128" lon="-3.630417">
        <ele>489.627974</ele>
        <time>2020-08-10T05:27:39.942Z</time>
      </trkpt>
      <trkpt lat="38.066026" lon="-3.630351">
        <ele>489.166836</ele>
        <time>2020-08-10T05:27:40.962Z</time>
      </trkpt>
      <trkpt lat="38.065919" lon="-3.630279">
        <ele>488.679051</ele>
        <time>2020-08-10T05:27:41.951Z</time>
      </trkpt>
      <trkpt lat="38.065806" lon="-3.630231">
        <ele>488.199065</ele>
        <time>2020-08-10T05:27:42.939Z</time>
      </trkpt>
      <trkpt lat="38.065714" lon="-3.630177">
        <ele>487.790798</ele>
        <time>2020-08-10T05:27:43.959Z</time>
      </trkpt>
      <trkpt lat="38.065612" lon="-3.630129">
        <ele>487.352611</ele>
        <time>2020-08-10T05:27:44.948Z</time>
      </trkpt>
      <trkpt lat="38.065515" lon="-3.630104">
        <ele>486.953897</ele>
        <time>2020-08-10T05:27:45.957Z</time>
      </trkpt>
      <trkpt lat="38.065427" lon="-3.630064">
        <ele>486.590430</ele>
        <time>2020-08-10T05:27:46.956Z</time>
      </trkpt>
      <trkpt lat="38.065330" lon="-3.630041">
        <ele>486.206869</ele>
        <time>2020-08-10T05:27:47.952Z</time>
      </trkpt>
      <trkpt lat="38.065239" lon="-3.630006">
        <ele>485.837283</ele>
        <time>2020-08-10T05:27:48.957Z</time>
      </trkpt>
      <trkpt lat="38.065132" lon="-3.629987">
        <ele>485.417320</ele>
        <time>2020-08-10T05:27:49.955Z</time>
      </trkpt>
      <trkpt lat="38.065029" lon="-3.629965">
        <ele>485.011329</ele>
        <time>2020-08-10T05:27:50.957Z</time>
      </trkpt>
      <trkpt lat="38.064934" lon="-3.629937">
        <ele>484.632245</ele>
        <time>2020-08-10T05:27:51.950Z</time>
      </trkpt>
      <trkpt lat="38.064835" lon="-3.629909">
        <ele>484.237999</ele>
        <time>2020-08-10T05:27:52.955Z</time>
      </trkpt>
      <trkpt lat="38.064738" lon="-3.629901">
        <ele>483.860158</ele>
        <time>2020-08-10T05:27:53.954Z</time>
      </trkpt>
      <trkpt lat="38.064634" lon="-3.629886">
        <ele>483.453303</ele>
        <time>2020-08-10T05:27:54.959Z</time>
      </trkpt>
      <trkpt lat="38.064533" lon="-3.629874">
        <ele>483.058994</ele>
        <time>2020-08-10T05:27:55.957Z</time>
      </trkpt>
      <trkpt lat="38.064439" lon="-3.629856">
        <ele>482.689479</ele>
        <time>2020-08-10T05:27:56.950Z</time>
      </trkpt>
      <trkpt lat="38.064350" lon="-3.629841">
        <ele>482.340497</ele>
        <time>2020-08-10T05:27:57.969Z</time>
      </trkpt>
      <trkpt lat="38.064244" lon="-3.629825">
        <ele>481.925567</ele>
        <time>2020-08-10T05:27:58.953Z</time>
      </trkpt>
      <trkpt lat="38.064149" lon="-3.629805">
        <ele>481.551256</ele>
        <time>2020-08-10T05:27:59.956Z</time>
      </trkpt>
      <trkpt lat="38.064023" lon="-3.629724">
        <ele>481.002323</ele>
        <time>2020-08-10T05:28:01.941Z</time>
      </trkpt>
      <trkpt lat="38.063899" lon="-3.629628">
        <ele>480.437842</ele>
        <time>2020-08-10T05:28:04.944Z</time>
      </trkpt>
      <trkpt lat="38.063766" lon="-3.629555">
        <ele>479.838764</ele>
        <time>2020-08-10T05:28:06.958Z</time>
      </trkpt>
      <trkpt lat="38.063610" lon="-3.629462">
        <ele>478.879996</ele>
        <time>2020-08-10T05:28:08.952Z</time>
      </trkpt>
      <trkpt lat="38.063528" lon="-3.629409">
        <ele>478.368108</ele>
        <time>2020-08-10T05:28:09.958Z</time>
      </trkpt>
      <trkpt lat="38.063354" lon="-3.629342">
        <ele>477.356535</ele>
        <time>2020-08-10T05:28:11.954Z</time>
      </trkpt>
      <trkpt lat="38.063259" lon="-3.629322">
        <ele>476.820783</ele>
        <time>2020-08-10T05:28:12.971Z</time>
      </trkpt>
      <trkpt lat="38.063074" lon="-3.629258">
        <ele>475.754023</ele>
        <time>2020-08-10T05:28:14.961Z</time>
      </trkpt>
      <trkpt lat="38.062972" lon="-3.629235">
        <ele>475.177663</ele>
        <time>2020-08-10T05:28:15.950Z</time>
      </trkpt>
      <trkpt lat="38.062787" lon="-3.629152">
        <ele>474.086073</ele>
        <time>2020-08-10T05:28:17.950Z</time>
      </trkpt>
      <trkpt lat="38.062683" lon="-3.629142">
        <ele>473.505804</ele>
        <time>2020-08-10T05:28:18.960Z</time>
      </trkpt>
      <trkpt lat="38.062591" lon="-3.629123">
        <ele>472.987232</ele>
        <time>2020-08-10T05:28:19.957Z</time>
      </trkpt>
      <trkpt lat="38.062407" lon="-3.629063">
        <ele>471.930332</ele>
        <time>2020-08-10T05:28:21.968Z</time>
      </trkpt>
      <trkpt lat="38.062234" lon="-3.629037">
        <ele>470.961116</ele>
        <time>2020-08-10T05:28:23.957Z</time>
      </trkpt>
      <trkpt lat="38.062134" lon="-3.629009">
        <ele>470.391399</ele>
        <time>2020-08-10T05:28:24.964Z</time>
      </trkpt>
      <trkpt lat="38.062048" lon="-3.628969">
        <ele>469.832345</ele>
        <time>2020-08-10T05:28:25.949Z</time>
      </trkpt>
      <trkpt lat="38.061959" lon="-3.628944">
        <ele>468.961862</ele>
        <time>2020-08-10T05:28:26.963Z</time>
      </trkpt>
      <trkpt lat="38.061870" lon="-3.628917">
        <ele>468.088008</ele>
        <time>2020-08-10T05:28:27.944Z</time>
      </trkpt>
      <trkpt lat="38.061777" lon="-3.628897">
        <ele>467.187223</ele>
        <time>2020-08-10T05:28:28.949Z</time>
      </trkpt>
      <trkpt lat="38.061686" lon="-3.628872">
        <ele>466.298081</ele>
        <time>2020-08-10T05:28:29.941Z</time>
      </trkpt>
      <trkpt lat="38.061534" lon="-3.628844">
        <ele>464.831302</ele>
        <time>2020-08-10T05:28:31.960Z</time>
      </trkpt>
      <trkpt lat="38.061372" lon="-3.628812">
        <ele>463.265614</ele>
        <time>2020-08-10T05:28:33.956Z</time>
      </trkpt>
      <trkpt lat="38.061206" lon="-3.628789">
        <ele>461.670919</ele>
        <time>2020-08-10T05:28:35.949Z</time>
      </trkpt>
      <trkpt lat="38.061037" lon="-3.628775">
        <ele>460.053550</ele>
        <time>2020-08-10T05:28:37.951Z</time>
      </trkpt>
      <trkpt lat="38.060886" lon="-3.628769">
        <ele>458.610805</ele>
        <time>2020-08-10T05:28:39.958Z</time>
      </trkpt>
      <trkpt lat="38.060721" lon="-3.628781">
        <ele>457.032484</ele>
        <time>2020-08-10T05:28:41.959Z</time>
      </trkpt>
      <trkpt lat="38.060556" lon="-3.628778">
        <ele>455.456583</ele>
        <time>2020-08-10T05:28:43.954Z</time>
      </trkpt>
      <trkpt lat="38.060426" lon="-3.628810">
        <ele>454.191989</ele>
        <time>2020-08-10T05:28:45.962Z</time>
      </trkpt>
      <trkpt lat="38.060264" lon="-3.628782">
        <ele>452.752376</ele>
        <time>2020-08-10T05:28:47.961Z</time>
      </trkpt>
      <trkpt lat="38.060121" lon="-3.628783">
        <ele>452.546150</ele>
        <time>2020-08-10T05:28:49.951Z</time>
      </trkpt>
      <trkpt lat="38.060002" lon="-3.628767">
        <ele>452.373579</ele>
        <time>2020-08-10T05:28:51.948Z</time>
      </trkpt>
      <trkpt lat="38.059848" lon="-3.628738">
        <ele>452.149065</ele>
        <time>2020-08-10T05:28:53.969Z</time>
      </trkpt>
      <trkpt lat="38.059694" lon="-3.628726">
        <ele>451.926561</ele>
        <time>2020-08-10T05:28:55.954Z</time>
      </trkpt>
      <trkpt lat="38.059566" lon="-3.628714">
        <ele>451.741467</ele>
        <time>2020-08-10T05:28:57.951Z</time>
      </trkpt>
      <trkpt lat="38.059447" lon="-3.628714">
        <ele>451.569855</ele>
        <time>2020-08-10T05:28:59.946Z</time>
      </trkpt>
      <trkpt lat="38.059283" lon="-3.628670">
        <ele>451.328128</ele>
        <time>2020-08-10T05:29:01.956Z</time>
      </trkpt>
      <trkpt lat="38.059128" lon="-3.628646">
        <ele>451.102944</ele>
        <time>2020-08-10T05:29:03.962Z</time>
      </trkpt>
      <trkpt lat="38.058972" lon="-3.628624">
        <ele>450.876591</ele>
        <time>2020-08-10T05:29:05.961Z</time>
      </trkpt>
      <trkpt lat="38.058803" lon="-3.628599">
        <ele>450.631225</ele>
        <time>2020-08-10T05:29:07.956Z</time>
      </trkpt>
      <trkpt lat="38.058636" lon="-3.628590">
        <ele>450.390175</ele>
        <time>2020-08-10T05:29:09.955Z</time>
      </trkpt>
      <trkpt lat="38.058472" lon="-3.628531">
        <ele>450.159234</ele>
        <time>2020-08-10T05:29:11.953Z</time>
      </trkpt>
      <trkpt lat="38.058305" lon="-3.628470">
        <ele>450.012718</ele>
        <time>2020-08-10T05:29:13.944Z</time>
      </trkpt>
      <trkpt lat="38.058216" lon="-3.628437">
        <ele>449.934544</ele>
        <time>2020-08-10T05:29:14.966Z</time>
      </trkpt>
      <trkpt lat="38.058050" lon="-3.628381">
        <ele>449.789725</ele>
        <time>2020-08-10T05:29:16.955Z</time>
      </trkpt>
      <trkpt lat="38.057956" lon="-3.628345">
        <ele>449.706943</ele>
        <time>2020-08-10T05:29:17.961Z</time>
      </trkpt>
      <trkpt lat="38.057855" lon="-3.628306">
        <ele>449.617934</ele>
        <time>2020-08-10T05:29:18.952Z</time>
      </trkpt>
      <trkpt lat="38.057764" lon="-3.628280">
        <ele>449.539289</ele>
        <time>2020-08-10T05:29:19.943Z</time>
      </trkpt>
      <trkpt lat="38.057664" lon="-3.628240">
        <ele>449.450889</ele>
        <time>2020-08-10T05:29:20.968Z</time>
      </trkpt>
      <trkpt lat="38.057575" lon="-3.628197">
        <ele>449.370601</ele>
        <time>2020-08-10T05:29:21.952Z</time>
      </trkpt>
      <trkpt lat="38.057481" lon="-3.628160">
        <ele>449.287624</ele>
        <time>2020-08-10T05:29:22.959Z</time>
      </trkpt>
      <trkpt lat="38.057390" lon="-3.628117">
        <ele>449.205758</ele>
        <time>2020-08-10T05:29:23.951Z</time>
      </trkpt>
      <trkpt lat="38.057285" lon="-3.628082">
        <ele>449.114227</ele>
        <time>2020-08-10T05:29:24.946Z</time>
      </trkpt>
      <trkpt lat="38.057186" lon="-3.628042">
        <ele>449.026631</ele>
        <time>2020-08-10T05:29:25.947Z</time>
      </trkpt>
      <trkpt lat="38.057080" lon="-3.627996">
        <ele>448.932182</ele>
        <time>2020-08-10T05:29:26.961Z</time>
      </trkpt>
      <trkpt lat="38.056983" lon="-3.627960">
        <ele>448.846975</ele>
        <time>2020-08-10T05:29:27.946Z</time>
      </trkpt>
      <trkpt lat="38.056888" lon="-3.627922">
        <ele>448.762995</ele>
        <time>2020-08-10T05:29:28.959Z</time>
      </trkpt>
      <trkpt lat="38.056789" lon="-3.627889">
        <ele>448.676695</ele>
        <time>2020-08-10T05:29:29.956Z</time>
      </trkpt>
      <trkpt lat="38.056696" lon="-3.627846">
        <ele>448.703563</ele>
        <time>2020-08-10T05:29:30.948Z</time>
      </trkpt>
      <trkpt lat="38.056513" lon="-3.627755">
        <ele>448.797609</ele>
        <time>2020-08-10T05:29:32.956Z</time>
      </trkpt>
      <trkpt lat="38.056354" lon="-3.627678">
        <ele>448.879040</ele>
        <time>2020-08-10T05:29:34.958Z</time>
      </trkpt>
      <trkpt lat="38.056265" lon="-3.627638">
        <ele>448.924218</ele>
        <time>2020-08-10T05:29:35.951Z</time>
      </trkpt>
      <trkpt lat="38.056091" lon="-3.627592">
        <ele>449.009268</ele>
        <time>2020-08-10T05:29:37.946Z</time>
      </trkpt>
      <trkpt lat="38.055925" lon="-3.627572">
        <ele>449.089062</ele>
        <time>2020-08-10T05:29:39.949Z</time>
      </trkpt>
      <trkpt lat="38.055772" lon="-3.627530">
        <ele>449.163969</ele>
        <time>2020-08-10T05:29:41.960Z</time>
      </trkpt>
      <trkpt lat="38.055609" lon="-3.627510">
        <ele>449.242333</ele>
        <time>2020-08-10T05:29:43.950Z</time>
      </trkpt>
      <trkpt lat="38.055453" lon="-3.627481">
        <ele>449.317780</ele>
        <time>2020-08-10T05:29:45.958Z</time>
      </trkpt>
      <trkpt lat="38.055295" lon="-3.627445">
        <ele>449.394596</ele>
        <time>2020-08-10T05:29:47.945Z</time>
      </trkpt>
      <trkpt lat="38.055158" lon="-3.627449">
        <ele>449.460173</ele>
        <time>2020-08-10T05:29:49.946Z</time>
      </trkpt>
      <trkpt lat="38.055028" lon="-3.627415">
        <ele>449.523688</ele>
        <time>2020-08-10T05:29:51.950Z</time>
      </trkpt>
      <trkpt lat="38.054896" lon="-3.627397">
        <ele>449.206045</ele>
        <time>2020-08-10T05:29:53.956Z</time>
      </trkpt>
      <trkpt lat="38.054785" lon="-3.627381">
        <ele>448.935450</ele>
        <time>2020-08-10T05:29:55.961Z</time>
      </trkpt>
      <trkpt lat="38.054688" lon="-3.627376">
        <ele>448.700299</ele>
        <time>2020-08-10T05:29:57.946Z</time>
      </trkpt>
      <trkpt lat="38.054571" lon="-3.627343">
        <ele>448.409991</ele>
        <time>2020-08-10T05:29:59.958Z</time>
      </trkpt>
      <trkpt lat="38.054422" lon="-3.627318">
        <ele>448.045940</ele>
        <time>2020-08-10T05:30:02.963Z</time>
      </trkpt>
      <trkpt lat="38.054313" lon="-3.627280">
        <ele>447.772148</ele>
        <time>2020-08-10T05:30:04.949Z</time>
      </trkpt>
      <trkpt lat="38.054195" lon="-3.627271">
        <ele>447.485808</ele>
        <time>2020-08-10T05:30:06.947Z</time>
      </trkpt>
      <trkpt lat="38.054097" lon="-3.627244">
        <ele>447.242906</ele>
        <time>2020-08-10T05:30:08.947Z</time>
      </trkpt>
      <trkpt lat="38.053986" lon="-3.627227">
        <ele>446.972089</ele>
        <time>2020-08-10T05:30:10.955Z</time>
      </trkpt>
      <trkpt lat="38.053887" lon="-3.627225">
        <ele>446.732257</ele>
        <time>2020-08-10T05:30:12.950Z</time>
      </trkpt>
      <trkpt lat="38.053792" lon="-3.627236">
        <ele>446.501189</ele>
        <time>2020-08-10T05:30:14.947Z</time>
      </trkpt>
      <trkpt lat="38.053672" lon="-3.627240">
        <ele>446.210419</ele>
        <time>2020-08-10T05:30:16.953Z</time>
      </trkpt>
      <trkpt lat="38.053554" lon="-3.627263">
        <ele>445.921248</ele>
        <time>2020-08-10T05:30:19.972Z</time>
      </trkpt>
      <trkpt lat="38.053446" lon="-3.627282">
        <ele>445.657147</ele>
        <time>2020-08-10T05:30:21.955Z</time>
      </trkpt>
      <trkpt lat="38.053316" lon="-3.627277">
        <ele>445.342111</ele>
        <time>2020-08-10T05:30:23.957Z</time>
      </trkpt>
      <trkpt lat="38.053186" lon="-3.627263">
        <ele>445.211559</ele>
        <time>2020-08-10T05:30:25.959Z</time>
      </trkpt>
      <trkpt lat="38.053054" lon="-3.627247">
        <ele>445.311380</ele>
        <time>2020-08-10T05:30:27.952Z</time>
      </trkpt>
      <trkpt lat="38.052906" lon="-3.627205">
        <ele>445.425543</ele>
        <time>2020-08-10T05:30:29.956Z</time>
      </trkpt>
      <trkpt lat="38.052748" lon="-3.627176">
        <ele>445.545722</ele>
        <time>2020-08-10T05:30:31.953Z</time>
      </trkpt>
      <trkpt lat="38.052587" lon="-3.627115">
        <ele>445.672202</ele>
        <time>2020-08-10T05:30:33.971Z</time>
      </trkpt>
      <trkpt lat="38.052420" lon="-3.627067">
        <ele>445.801100</ele>
        <time>2020-08-10T05:30:35.940Z</time>
      </trkpt>
      <trkpt lat="38.052330" lon="-3.627032">
        <ele>445.871958</ele>
        <time>2020-08-10T05:30:36.962Z</time>
      </trkpt>
      <trkpt lat="38.052191" lon="-3.626991">
        <ele>445.979383</ele>
        <time>2020-08-10T05:30:38.947Z</time>
      </trkpt>
      <trkpt lat="38.052103" lon="-3.626952">
        <ele>446.049548</ele>
        <time>2020-08-10T05:30:39.962Z</time>
      </trkpt>
      <trkpt lat="38.052014" lon="-3.626909">
        <ele>446.121233</ele>
        <time>2020-08-10T05:30:40.952Z</time>
      </trkpt>
      <trkpt lat="38.051920" lon="-3.626871">
        <ele>446.195495</ele>
        <time>2020-08-10T05:30:41.950Z</time>
      </trkpt>
      <trkpt lat="38.051831" lon="-3.626829">
        <ele>446.266971</ele>
        <time>2020-08-10T05:30:42.956Z</time>
      </trkpt>
      <trkpt lat="38.051747" lon="-3.626756">
        <ele>446.343596</ele>
        <time>2020-08-10T05:30:43.964Z</time>
      </trkpt>
      <trkpt lat="38.051653" lon="-3.626692">
        <ele>446.423889</ele>
        <time>2020-08-10T05:30:44.951Z</time>
      </trkpt>
      <trkpt lat="38.051565" lon="-3.626627">
        <ele>446.500526</ele>
        <time>2020-08-10T05:30:45.942Z</time>
      </trkpt>
      <trkpt lat="38.051482" lon="-3.626565">
        <ele>446.891016</ele>
        <time>2020-08-10T05:30:46.947Z</time>
      </trkpt>
      <trkpt lat="38.051406" lon="-3.626493">
        <ele>447.403928</ele>
        <time>2020-08-10T05:30:47.958Z</time>
      </trkpt>
      <trkpt lat="38.051315" lon="-3.626426">
        <ele>447.972936</ele>
        <time>2020-08-10T05:30:48.964Z</time>
      </trkpt>
      <trkpt lat="38.051221" lon="-3.626367">
        <ele>448.540139</ele>
        <time>2020-08-10T05:30:49.947Z</time>
      </trkpt>
      <trkpt lat="38.051124" lon="-3.626301">
        <ele>449.135424</ele>
        <time>2020-08-10T05:30:50.960Z</time>
      </trkpt>
      <trkpt lat="38.050951" lon="-3.626181">
        <ele>450.201757</ele>
        <time>2020-08-10T05:30:52.954Z</time>
      </trkpt>
      <trkpt lat="38.050850" lon="-3.626120">
        <ele>450.806751</ele>
        <time>2020-08-10T05:30:53.962Z</time>
      </trkpt>
      <trkpt lat="38.050740" lon="-3.626073">
        <ele>451.434565</ele>
        <time>2020-08-10T05:30:54.943Z</time>
      </trkpt>
      <trkpt lat="38.050635" lon="-3.626008">
        <ele>452.066447</ele>
        <time>2020-08-10T05:30:55.942Z</time>
      </trkpt>
      <trkpt lat="38.050524" lon="-3.625966">
        <ele>452.692979</ele>
        <time>2020-08-10T05:30:56.963Z</time>
      </trkpt>
      <trkpt lat="38.050416" lon="-3.625893">
        <ele>453.354799</ele>
        <time>2020-08-10T05:30:57.950Z</time>
      </trkpt>
      <trkpt lat="38.050301" lon="-3.625851">
        <ele>454.002098</ele>
        <time>2020-08-10T05:30:58.960Z</time>
      </trkpt>
      <trkpt lat="38.050185" lon="-3.625812">
        <ele>454.651209</ele>
        <time>2020-08-10T05:30:59.949Z</time>
      </trkpt>
      <trkpt lat="38.050072" lon="-3.625768">
        <ele>455.290563</ele>
        <time>2020-08-10T05:31:00.955Z</time>
      </trkpt>
      <trkpt lat="38.049955" lon="-3.625731">
        <ele>455.942795</ele>
        <time>2020-08-10T05:31:01.962Z</time>
      </trkpt>
      <trkpt lat="38.049839" lon="-3.625686">
        <ele>456.839087</ele>
        <time>2020-08-10T05:31:02.968Z</time>
      </trkpt>
      <trkpt lat="38.049718" lon="-3.625648">
        <ele>457.979095</ele>
        <time>2020-08-10T05:31:03.962Z</time>
      </trkpt>
      <trkpt lat="38.049599" lon="-3.625601">
        <ele>459.118896</ele>
        <time>2020-08-10T05:31:04.963Z</time>
      </trkpt>
      <trkpt lat="38.049480" lon="-3.625578">
        <ele>460.219805</ele>
        <time>2020-08-10T05:31:05.961Z</time>
      </trkpt>
      <trkpt lat="38.049366" lon="-3.625510">
        <ele>461.371747</ele>
        <time>2020-08-10T05:31:06.948Z</time>
      </trkpt>
      <trkpt lat="38.049246" lon="-3.625476">
        <ele>462.496255</ele>
        <time>2020-08-10T05:31:07.964Z</time>
      </trkpt>
      <trkpt lat="38.049123" lon="-3.625454">
        <ele>463.632319</ele>
        <time>2020-08-10T05:31:08.963Z</time>
      </trkpt>
      <trkpt lat="38.048999" lon="-3.625421">
        <ele>464.791062</ele>
        <time>2020-08-10T05:31:09.956Z</time>
      </trkpt>
      <trkpt lat="38.048877" lon="-3.625381">
        <ele>465.943467</ele>
        <time>2020-08-10T05:31:10.963Z</time>
      </trkpt>
      <trkpt lat="38.048759" lon="-3.625322">
        <ele>467.103341</ele>
        <time>2020-08-10T05:31:11.961Z</time>
      </trkpt>
      <trkpt lat="38.048638" lon="-3.625283">
        <ele>468.245100</ele>
        <time>2020-08-10T05:31:12.946Z</time>
      </trkpt>
      <trkpt lat="38.048524" lon="-3.625236">
        <ele>469.341320</ele>
        <time>2020-08-10T05:31:13.954Z</time>
      </trkpt>
      <trkpt lat="38.048414" lon="-3.625198">
        <ele>470.383945</ele>
        <time>2020-08-10T05:31:14.965Z</time>
      </trkpt>
      <trkpt lat="38.048321" lon="-3.625191">
        <ele>471.236017</ele>
        <time>2020-08-10T05:31:15.937Z</time>
      </trkpt>
      <trkpt lat="38.048206" lon="-3.625162">
        <ele>472.308347</ele>
        <time>2020-08-10T05:31:16.945Z</time>
      </trkpt>
      <trkpt lat="38.048096" lon="-3.625120">
        <ele>471.621282</ele>
        <time>2020-08-10T05:31:17.945Z</time>
      </trkpt>
      <trkpt lat="38.047996" lon="-3.625074">
        <ele>470.022384</ele>
        <time>2020-08-10T05:31:18.951Z</time>
      </trkpt>
      <trkpt lat="38.047893" lon="-3.625027">
        <ele>468.377046</ele>
        <time>2020-08-10T05:31:19.956Z</time>
      </trkpt>
      <trkpt lat="38.047797" lon="-3.624985">
        <ele>466.850624</ele>
        <time>2020-08-10T05:31:20.933Z</time>
      </trkpt>
      <trkpt lat="38.047692" lon="-3.624948">
        <ele>465.212507</ele>
        <time>2020-08-10T05:31:21.956Z</time>
      </trkpt>
      <trkpt lat="38.047589" lon="-3.624926">
        <ele>463.642354</ele>
        <time>2020-08-10T05:31:22.939Z</time>
      </trkpt>
      <trkpt lat="38.047475" lon="-3.624897">
        <ele>461.894539</ele>
        <time>2020-08-10T05:31:23.953Z</time>
      </trkpt>
      <trkpt lat="38.047372" lon="-3.624875">
        <ele>460.324385</ele>
        <time>2020-08-10T05:31:24.955Z</time>
      </trkpt>
      <trkpt lat="38.047285" lon="-3.624848">
        <ele>458.978019</ele>
        <time>2020-08-10T05:31:25.951Z</time>
      </trkpt>
      <trkpt lat="38.047188" lon="-3.624834">
        <ele>457.510426</ele>
        <time>2020-08-10T05:31:26.962Z</time>
      </trkpt>
      <trkpt lat="38.047016" lon="-3.624807">
        <ele>454.905063</ele>
        <time>2020-08-10T05:31:28.949Z</time>
      </trkpt>
      <trkpt lat="38.046926" lon="-3.624784">
        <ele>453.524963</ele>
        <time>2020-08-10T05:31:29.949Z</time>
      </trkpt>
      <trkpt lat="38.046826" lon="-3.624762">
        <ele>451.999265</ele>
        <time>2020-08-10T05:31:30.955Z</time>
      </trkpt>
      <trkpt lat="38.046655" lon="-3.624745">
        <ele>449.420751</ele>
        <time>2020-08-10T05:31:32.952Z</time>
      </trkpt>
      <trkpt lat="38.046482" lon="-3.624700">
        <ele>446.766033</ele>
        <time>2020-08-10T05:31:34.945Z</time>
      </trkpt>
      <trkpt lat="38.046326" lon="-3.624692">
        <ele>444.980196</ele>
        <time>2020-08-10T05:31:36.940Z</time>
      </trkpt>
      <trkpt lat="38.046237" lon="-3.624667">
        <ele>444.228310</ele>
        <time>2020-08-10T05:31:37.943Z</time>
      </trkpt>
      <trkpt lat="38.046141" lon="-3.624644">
        <ele>443.422459</ele>
        <time>2020-08-10T05:31:38.942Z</time>
      </trkpt>
      <trkpt lat="38.046042" lon="-3.624612">
        <ele>442.579792</ele>
        <time>2020-08-10T05:31:39.948Z</time>
      </trkpt>
      <trkpt lat="38.045885" lon="-3.624632">
        <ele>441.278239</ele>
        <time>2020-08-10T05:31:41.944Z</time>
      </trkpt>
      <trkpt lat="38.045795" lon="-3.624652">
        <ele>440.524569</ele>
        <time>2020-08-10T05:31:42.958Z</time>
      </trkpt>
      <trkpt lat="38.045704" lon="-3.624660">
        <ele>439.772137</ele>
        <time>2020-08-10T05:31:43.945Z</time>
      </trkpt>
      <trkpt lat="38.045517" lon="-3.624682">
        <ele>438.223015</ele>
        <time>2020-08-10T05:31:45.952Z</time>
      </trkpt>
      <trkpt lat="38.045411" lon="-3.624703">
        <ele>437.338071</ele>
        <time>2020-08-10T05:31:46.943Z</time>
      </trkpt>
      <trkpt lat="38.045297" lon="-3.624688">
        <ele>436.392679</ele>
        <time>2020-08-10T05:31:47.942Z</time>
      </trkpt>
      <trkpt lat="38.045176" lon="-3.624695">
        <ele>435.393545</ele>
        <time>2020-08-10T05:31:48.944Z</time>
      </trkpt>
      <trkpt lat="38.045062" lon="-3.624711">
        <ele>434.447462</ele>
        <time>2020-08-10T05:31:49.951Z</time>
      </trkpt>
      <trkpt lat="38.044946" lon="-3.624731">
        <ele>433.481828</ele>
        <time>2020-08-10T05:31:50.961Z</time>
      </trkpt>
      <trkpt lat="38.044828" lon="-3.624753">
        <ele>432.498040</ele>
        <time>2020-08-10T05:31:51.942Z</time>
      </trkpt>
      <trkpt lat="38.044709" lon="-3.624779">
        <ele>431.502015</ele>
        <time>2020-08-10T05:31:52.957Z</time>
      </trkpt>
      <trkpt lat="38.044591" lon="-3.624788">
        <ele>430.613715</ele>
        <time>2020-08-10T05:31:53.942Z</time>
      </trkpt>
      <trkpt lat="38.044466" lon="-3.624797">
        <ele>429.880681</ele>
        <time>2020-08-10T05:31:54.961Z</time>
      </trkpt>
      <trkpt lat="38.044339" lon="-3.624810">
        <ele>429.134700</ele>
        <time>2020-08-10T05:31:55.945Z</time>
      </trkpt>
      <trkpt lat="38.044207" lon="-3.624814">
        <ele>428.361638</ele>
        <time>2020-08-10T05:31:56.952Z</time>
      </trkpt>
      <trkpt lat="38.044073" lon="-3.624796">
        <ele>427.572708</ele>
        <time>2020-08-10T05:31:57.957Z</time>
      </trkpt>
      <trkpt lat="38.043948" lon="-3.624776">
        <ele>426.835062</ele>
        <time>2020-08-10T05:31:58.959Z</time>
      </trkpt>
      <trkpt lat="38.043816" lon="-3.624750">
        <ele>426.052976</ele>
        <time>2020-08-10T05:31:59.951Z</time>
      </trkpt>
      <trkpt lat="38.043695" lon="-3.624700">
        <ele>425.307968</ele>
        <time>2020-08-10T05:32:00.956Z</time>
      </trkpt>
      <trkpt lat="38.043564" lon="-3.624667">
        <ele>424.526032</ele>
        <time>2020-08-10T05:32:01.945Z</time>
      </trkpt>
      <trkpt lat="38.043430" lon="-3.624640">
        <ele>423.731664</ele>
        <time>2020-08-10T05:32:02.948Z</time>
      </trkpt>
      <trkpt lat="38.043299" lon="-3.624608">
        <ele>422.950612</ele>
        <time>2020-08-10T05:32:03.963Z</time>
      </trkpt>
      <trkpt lat="38.043178" lon="-3.624580">
        <ele>422.230505</ele>
        <time>2020-08-10T05:32:04.950Z</time>
      </trkpt>
      <trkpt lat="38.043052" lon="-3.624545">
        <ele>421.475345</ele>
        <time>2020-08-10T05:32:05.950Z</time>
      </trkpt>
      <trkpt lat="38.042939" lon="-3.624522">
        <ele>420.805299</ele>
        <time>2020-08-10T05:32:06.947Z</time>
      </trkpt>
      <trkpt lat="38.042830" lon="-3.624521">
        <ele>420.522991</ele>
        <time>2020-08-10T05:32:07.946Z</time>
      </trkpt>
      <trkpt lat="38.042720" lon="-3.624520">
        <ele>421.668210</ele>
        <time>2020-08-10T05:32:08.957Z</time>
      </trkpt>
      <trkpt lat="38.042619" lon="-3.624547">
        <ele>422.742753</ele>
        <time>2020-08-10T05:32:09.939Z</time>
      </trkpt>
      <trkpt lat="38.042526" lon="-3.624567">
        <ele>423.724747</ele>
        <time>2020-08-10T05:32:10.955Z</time>
      </trkpt>
      <trkpt lat="38.042428" lon="-3.624599">
        <ele>424.778203</ele>
        <time>2020-08-10T05:32:11.943Z</time>
      </trkpt>
      <trkpt lat="38.042330" lon="-3.624626">
        <ele>425.822203</ele>
        <time>2020-08-10T05:32:12.956Z</time>
      </trkpt>
      <trkpt lat="38.042228" lon="-3.624600">
        <ele>426.905293</ele>
        <time>2020-08-10T05:32:13.968Z</time>
      </trkpt>
      <trkpt lat="38.042138" lon="-3.624546">
        <ele>427.941608</ele>
        <time>2020-08-10T05:32:14.952Z</time>
      </trkpt>
      <trkpt lat="38.042050" lon="-3.624488">
        <ele>428.973829</ele>
        <time>2020-08-10T05:32:15.957Z</time>
      </trkpt>
      <trkpt lat="38.041972" lon="-3.624409">
        <ele>430.012564</ele>
        <time>2020-08-10T05:32:16.939Z</time>
      </trkpt>
      <trkpt lat="38.041886" lon="-3.624315">
        <ele>431.193930</ele>
        <time>2020-08-10T05:32:17.936Z</time>
      </trkpt>
      <trkpt lat="38.041806" lon="-3.624207">
        <ele>432.409574</ele>
        <time>2020-08-10T05:32:18.937Z</time>
      </trkpt>
      <trkpt lat="38.041721" lon="-3.624089">
        <ele>433.720734</ele>
        <time>2020-08-10T05:32:19.963Z</time>
      </trkpt>
      <trkpt lat="38.041654" lon="-3.623986">
        <ele>434.816062</ele>
        <time>2020-08-10T05:32:20.946Z</time>
      </trkpt>
      <trkpt lat="38.041587" lon="-3.623888">
        <ele>435.880104</ele>
        <time>2020-08-10T05:32:21.959Z</time>
      </trkpt>
      <trkpt lat="38.041529" lon="-3.623788">
        <ele>436.898374</ele>
        <time>2020-08-10T05:32:22.946Z</time>
      </trkpt>
      <trkpt lat="38.041408" lon="-3.623613">
        <ele>438.807742</ele>
        <time>2020-08-10T05:32:24.946Z</time>
      </trkpt>
      <trkpt lat="38.041310" lon="-3.623449">
        <ele>438.021409</ele>
        <time>2020-08-10T05:32:26.957Z</time>
      </trkpt>
      <trkpt lat="38.041228" lon="-3.623293">
        <ele>436.979810</ele>
        <time>2020-08-10T05:32:28.951Z</time>
      </trkpt>
      <trkpt lat="38.041173" lon="-3.623097">
        <ele>435.824277</ele>
        <time>2020-08-10T05:32:30.944Z</time>
      </trkpt>
      <trkpt lat="38.041113" lon="-3.622892">
        <ele>434.609714</ele>
        <time>2020-08-10T05:32:32.943Z</time>
      </trkpt>
      <trkpt lat="38.041072" lon="-3.622681">
        <ele>433.402766</ele>
        <time>2020-08-10T05:32:34.955Z</time>
      </trkpt>
      <trkpt lat="38.041027" lon="-3.622468">
        <ele>432.178026</ele>
        <time>2020-08-10T05:32:36.952Z</time>
      </trkpt>
      <trkpt lat="38.041002" lon="-3.622343">
        <ele>431.461791</ele>
        <time>2020-08-10T05:32:37.936Z</time>
      </trkpt>
      <trkpt lat="38.040978" lon="-3.622228">
        <ele>430.801084</ele>
        <time>2020-08-10T05:32:38.935Z</time>
      </trkpt>
      <trkpt lat="38.040930" lon="-3.622014">
        <ele>429.565352</ele>
        <time>2020-08-10T05:32:40.955Z</time>
      </trkpt>
      <trkpt lat="38.040879" lon="-3.621908">
        <ele>428.875510</ele>
        <time>2020-08-10T05:32:41.944Z</time>
      </trkpt>
      <trkpt lat="38.040827" lon="-3.621787">
        <ele>428.109989</ele>
        <time>2020-08-10T05:32:42.938Z</time>
      </trkpt>
      <trkpt lat="38.040765" lon="-3.621676">
        <ele>427.354241</ele>
        <time>2020-08-10T05:32:43.942Z</time>
      </trkpt>
      <trkpt lat="38.040705" lon="-3.621571">
        <ele>426.633790</ele>
        <time>2020-08-10T05:32:44.951Z</time>
      </trkpt>
      <trkpt lat="38.040653" lon="-3.621447">
        <ele>424.166113</ele>
        <time>2020-08-10T05:32:45.951Z</time>
      </trkpt>
      <trkpt lat="38.040579" lon="-3.621340">
        <ele>420.616219</ele>
        <time>2020-08-10T05:32:46.952Z</time>
      </trkpt>
      <trkpt lat="38.040523" lon="-3.621233">
        <ele>417.413524</ele>
        <time>2020-08-10T05:32:47.959Z</time>
      </trkpt>
      <trkpt lat="38.040460" lon="-3.621128">
        <ele>414.122876</ele>
        <time>2020-08-10T05:32:48.949Z</time>
      </trkpt>
      <trkpt lat="38.040418" lon="-3.621004">
        <ele>410.757888</ele>
        <time>2020-08-10T05:32:49.950Z</time>
      </trkpt>
      <trkpt lat="38.040352" lon="-3.620898">
        <ele>407.389318</ele>
        <time>2020-08-10T05:32:50.941Z</time>
      </trkpt>
      <trkpt lat="38.040286" lon="-3.620782">
        <ele>403.821834</ele>
        <time>2020-08-10T05:32:51.954Z</time>
      </trkpt>
      <trkpt lat="38.040235" lon="-3.620668">
        <ele>400.553394</ele>
        <time>2020-08-10T05:32:52.949Z</time>
      </trkpt>
      <trkpt lat="38.040182" lon="-3.620543">
        <ele>397.014331</ele>
        <time>2020-08-10T05:32:53.957Z</time>
      </trkpt>
      <trkpt lat="38.040135" lon="-3.620433">
        <ele>393.894535</ele>
        <time>2020-08-10T05:32:54.946Z</time>
      </trkpt>
      <trkpt lat="38.040096" lon="-3.620326">
        <ele>390.955280</ele>
        <time>2020-08-10T05:32:55.945Z</time>
      </trkpt>
      <trkpt lat="38.040055" lon="-3.620224">
        <ele>388.100443</ele>
        <time>2020-08-10T05:32:56.956Z</time>
      </trkpt>
      <trkpt lat="38.039986" lon="-3.620029">
        <ele>382.771099</ele>
        <time>2020-08-10T05:32:58.965Z</time>
      </trkpt>
      <trkpt lat="38.039928" lon="-3.619886">
        <ele>378.761221</ele>
        <time>2020-08-10T05:33:00.956Z</time>
      </trkpt>
      <trkpt lat="38.039837" lon="-3.619769">
        <ele>374.661902</ele>
        <time>2020-08-10T05:33:02.936Z</time>
      </trkpt>
      <trkpt lat="38.039694" lon="-3.619671">
        <ele>369.518251</ele>
        <time>2020-08-10T05:33:04.948Z</time>
      </trkpt>
      <trkpt lat="38.039569" lon="-3.619528">
        <ele>369.359342</ele>
        <time>2020-08-10T05:33:06.949Z</time>
      </trkpt>
      <trkpt lat="38.039416" lon="-3.619402">
        <ele>369.309437</ele>
        <time>2020-08-10T05:33:08.937Z</time>
      </trkpt>
      <trkpt lat="38.039251" lon="-3.619289">
        <ele>369.258134</ele>
        <time>2020-08-10T05:33:10.965Z</time>
      </trkpt>
      <trkpt lat="38.039160" lon="-3.619235">
        <ele>369.230646</ele>
        <time>2020-08-10T05:33:11.959Z</time>
      </trkpt>
      <trkpt lat="38.039073" lon="-3.619187">
        <ele>369.204687</ele>
        <time>2020-08-10T05:33:12.947Z</time>
      </trkpt>
      <trkpt lat="38.038912" lon="-3.619122">
        <ele>369.158455</ele>
        <time>2020-08-10T05:33:14.961Z</time>
      </trkpt>
      <trkpt lat="38.038825" lon="-3.619090">
        <ele>369.133668</ele>
        <time>2020-08-10T05:33:15.953Z</time>
      </trkpt>
      <trkpt lat="38.038743" lon="-3.619035">
        <ele>369.108289</ele>
        <time>2020-08-10T05:33:16.961Z</time>
      </trkpt>
      <trkpt lat="38.038651" lon="-3.618978">
        <ele>369.080276</ele>
        <time>2020-08-10T05:33:17.960Z</time>
      </trkpt>
      <trkpt lat="38.038567" lon="-3.618928">
        <ele>369.054888</ele>
        <time>2020-08-10T05:33:18.950Z</time>
      </trkpt>
      <trkpt lat="38.038476" lon="-3.618888">
        <ele>369.028535</ele>
        <time>2020-08-10T05:33:19.956Z</time>
      </trkpt>
      <trkpt lat="38.038393" lon="-3.618837">
        <ele>369.003301</ele>
        <time>2020-08-10T05:33:20.949Z</time>
      </trkpt>
      <trkpt lat="38.038308" lon="-3.618787">
        <ele>368.977665</ele>
        <time>2020-08-10T05:33:21.949Z</time>
      </trkpt>
      <trkpt lat="38.038165" lon="-3.618703">
        <ele>368.934548</ele>
        <time>2020-08-10T05:33:23.956Z</time>
      </trkpt>
      <trkpt lat="38.038040" lon="-3.618625">
        <ele>369.607917</ele>
        <time>2020-08-10T05:33:25.953Z</time>
      </trkpt>
      <trkpt lat="38.037946" lon="-3.618591">
        <ele>370.788772</ele>
        <time>2020-08-10T05:33:27.943Z</time>
      </trkpt>
      <trkpt lat="38.037837" lon="-3.618592">
        <ele>372.105702</ele>
        <time>2020-08-10T05:33:30.955Z</time>
      </trkpt>
      <trkpt lat="38.037746" lon="-3.618610">
        <ele>373.218390</ele>
        <time>2020-08-10T05:33:32.948Z</time>
      </trkpt>
      <trkpt lat="38.037635" lon="-3.618639">
        <ele>374.587545</ele>
        <time>2020-08-10T05:33:34.970Z</time>
      </trkpt>
      <trkpt lat="38.037472" lon="-3.618619">
        <ele>376.566022</ele>
        <time>2020-08-10T05:33:36.966Z</time>
      </trkpt>
      <trkpt lat="38.037318" lon="-3.618609">
        <ele>378.429021</ele>
        <time>2020-08-10T05:33:38.956Z</time>
      </trkpt>
      <trkpt lat="38.037196" lon="-3.618602">
        <ele>379.904481</ele>
        <time>2020-08-10T05:33:40.950Z</time>
      </trkpt>
      <trkpt lat="38.037059" lon="-3.618576">
        <ele>381.578050</ele>
        <time>2020-08-10T05:33:42.951Z</time>
      </trkpt>
      <trkpt lat="38.036947" lon="-3.618568">
        <ele>382.933329</ele>
        <time>2020-08-10T05:33:44.961Z</time>
      </trkpt>
      <trkpt lat="38.036842" lon="-3.618513">
        <ele>384.305617</ele>
        <time>2020-08-10T05:33:47.944Z</time>
      </trkpt>
      <trkpt lat="38.036724" lon="-3.618517">
        <ele>385.731755</ele>
        <time>2020-08-10T05:33:50.941Z</time>
      </trkpt>
      <trkpt lat="38.036633" lon="-3.618501">
        <ele>386.841673</ele>
        <time>2020-08-10T05:33:52.956Z</time>
      </trkpt>
      <trkpt lat="38.036534" lon="-3.618461">
        <ele>388.096855</ele>
        <time>2020-08-10T05:33:55.962Z</time>
      </trkpt>
      <trkpt lat="38.036424" lon="-3.618441">
        <ele>389.439390</ele>
        <time>2020-08-10T05:33:59.945Z</time>
      </trkpt>
      <trkpt lat="38.036330" lon="-3.618409">
        <ele>390.615175</ele>
        <time>2020-08-10T05:34:02.937Z</time>
      </trkpt>
      <trkpt lat="38.036222" lon="-3.618365">
        <ele>387.077638</ele>
        <time>2020-08-10T05:34:05.937Z</time>
      </trkpt>
      <trkpt lat="38.036101" lon="-3.618337">
        <ele>383.132587</ele>
        <time>2020-08-10T05:34:08.955Z</time>
      </trkpt>
      <trkpt lat="38.035982" lon="-3.618326">
        <ele>379.305520</ele>
        <time>2020-08-10T05:34:11.957Z</time>
      </trkpt>
      <trkpt lat="38.035872" lon="-3.618319">
        <ele>375.772805</ele>
        <time>2020-08-10T05:34:14.976Z</time>
      </trkpt>
      <trkpt lat="38.035768" lon="-3.618281">
        <ele>372.301579</ele>
        <time>2020-08-10T05:34:17.960Z</time>
      </trkpt>
      <trkpt lat="38.035700" lon="-3.618195">
        <ele>369.222991</ele>
        <time>2020-08-10T05:34:21.945Z</time>
      </trkpt>
      <trkpt lat="38.035651" lon="-3.618095">
        <ele>366.247657</ele>
        <time>2020-08-10T05:34:24.939Z</time>
      </trkpt>
      <trkpt lat="38.035604" lon="-3.617968">
        <ele>362.702680</ele>
        <time>2020-08-10T05:34:27.951Z</time>
      </trkpt>
      <trkpt lat="38.035532" lon="-3.617882">
        <ele>359.531896</ele>
        <time>2020-08-10T05:34:30.964Z</time>
      </trkpt>
      <trkpt lat="38.035432" lon="-3.617889">
        <ele>356.319492</ele>
        <time>2020-08-10T05:34:33.935Z</time>
      </trkpt>
      <trkpt lat="38.035285" lon="-3.618039">
        <ele>350.270324</ele>
        <time>2020-08-10T05:35:00.956Z</time>
      </trkpt>
      <trkpt lat="38.035219" lon="-3.618136">
        <ele>347.031985</ele>
        <time>2020-08-10T05:35:06.950Z</time>
      </trkpt>
      <trkpt lat="38.035136" lon="-3.618227">
        <ele>343.514469</ele>
        <time>2020-08-10T05:35:11.955Z</time>
      </trkpt>
      <trkpt lat="38.035066" lon="-3.618307">
        <ele>340.493534</ele>
        <time>2020-08-10T05:35:14.949Z</time>
      </trkpt>
      <trkpt lat="38.034990" lon="-3.618395">
        <ele>337.194273</ele>
        <time>2020-08-10T05:35:17.961Z</time>
      </trkpt>
      <trkpt lat="38.034911" lon="-3.618476">
        <ele>333.937207</ele>
        <time>2020-08-10T05:35:20.940Z</time>
      </trkpt>
      <trkpt lat="38.034832" lon="-3.618560">
        <ele>333.792593</ele>
        <time>2020-08-10T05:35:23.945Z</time>
      </trkpt>
      <trkpt lat="38.034746" lon="-3.618653">
        <ele>335.108406</ele>
        <time>2020-08-10T05:35:26.946Z</time>
      </trkpt>
      <trkpt lat="38.034655" lon="-3.618744">
        <ele>336.457649</ele>
        <time>2020-08-10T05:35:29.953Z</time>
      </trkpt>
      <trkpt lat="38.034560" lon="-3.618829">
        <ele>337.811355</ele>
        <time>2020-08-10T05:35:32.960Z</time>
      </trkpt>
      <trkpt lat="38.034459" lon="-3.618924">
        <ele>339.275448</ele>
        <time>2020-08-10T05:35:35.955Z</time>
      </trkpt>
      <trkpt lat="38.034382" lon="-3.618999">
        <ele>340.405856</ele>
        <time>2020-08-10T05:35:37.964Z</time>
      </trkpt>
      <trkpt lat="38.034306" lon="-3.619066">
        <ele>341.483563</ele>
        <time>2020-08-10T05:35:39.947Z</time>
      </trkpt>
      <trkpt lat="38.034228" lon="-3.619131">
        <ele>342.570310</ele>
        <time>2020-08-10T05:35:41.962Z</time>
      </trkpt>
      <trkpt lat="38.034121" lon="-3.619223">
        <ele>344.075526</ele>
        <time>2020-08-10T05:35:44.955Z</time>
      </trkpt>
      <trkpt lat="38.034025" lon="-3.619325">
        <ele>345.533610</ele>
        <time>2020-08-10T05:35:47.956Z</time>
      </trkpt>
      <trkpt lat="38.033926" lon="-3.619417">
        <ele>346.962628</ele>
        <time>2020-08-10T05:35:50.949Z</time>
      </trkpt>
      <trkpt lat="38.033833" lon="-3.619509">
        <ele>348.335873</ele>
        <time>2020-08-10T05:35:53.957Z</time>
      </trkpt>
      <trkpt lat="38.033745" lon="-3.619601">
        <ele>349.663663</ele>
        <time>2020-08-10T05:35:56.960Z</time>
      </trkpt>
      <trkpt lat="38.033661" lon="-3.619688">
        <ele>350.926340</ele>
        <time>2020-08-10T05:35:59.951Z</time>
      </trkpt>
      <trkpt lat="38.033583" lon="-3.619771">
        <ele>352.111773</ele>
        <time>2020-08-10T05:36:02.957Z</time>
      </trkpt>
      <trkpt lat="38.033496" lon="-3.619857">
        <ele>353.396060</ele>
        <time>2020-08-10T05:36:05.959Z</time>
      </trkpt>
      <trkpt lat="38.033400" lon="-3.619948">
        <ele>354.733120</ele>
        <time>2020-08-10T05:36:08.945Z</time>
      </trkpt>
      <trkpt lat="38.033297" lon="-3.620036">
        <ele>356.084372</ele>
        <time>2020-08-10T05:36:11.942Z</time>
      </trkpt>
      <trkpt lat="38.033198" lon="-3.620124">
        <ele>357.399731</ele>
        <time>2020-08-10T05:36:14.955Z</time>
      </trkpt>
      <trkpt lat="38.033094" lon="-3.620214">
        <ele>358.769612</ele>
        <time>2020-08-10T05:36:17.953Z</time>
      </trkpt>
      <trkpt lat="38.032986" lon="-3.620306">
        <ele>360.185161</ele>
        <time>2020-08-10T05:36:20.956Z</time>
      </trkpt>
      <trkpt lat="38.032876" lon="-3.620406">
        <ele>361.657682</ele>
        <time>2020-08-10T05:36:23.959Z</time>
      </trkpt>
      <trkpt lat="38.032762" lon="-3.620499">
        <ele>363.132528</ele>
        <time>2020-08-10T05:36:26.956Z</time>
      </trkpt>
      <trkpt lat="38.032652" lon="-3.620582">
        <ele>364.525253</ele>
        <time>2020-08-10T05:36:29.956Z</time>
      </trkpt>
      <trkpt lat="38.032538" lon="-3.620667">
        <ele>365.964183</ele>
        <time>2020-08-10T05:36:32.962Z</time>
      </trkpt>
      <trkpt lat="38.032449" lon="-3.620722">
        <ele>367.041519</ele>
        <time>2020-08-10T05:36:34.955Z</time>
      </trkpt>
      <trkpt lat="38.032350" lon="-3.620774">
        <ele>368.207610</ele>
        <time>2020-08-10T05:36:36.952Z</time>
      </trkpt>
      <trkpt lat="38.032253" lon="-3.620805">
        <ele>369.296293</ele>
        <time>2020-08-10T05:36:38.959Z</time>
      </trkpt>
      <trkpt lat="38.032144" lon="-3.620844">
        <ele>370.528861</ele>
        <time>2020-08-10T05:36:40.948Z</time>
      </trkpt>
      <trkpt lat="38.032053" lon="-3.620907">
        <ele>371.656992</ele>
        <time>2020-08-10T05:36:42.956Z</time>
      </trkpt>
      <trkpt lat="38.031949" lon="-3.620893">
        <ele>372.795273</ele>
        <time>2020-08-10T05:36:48.963Z</time>
      </trkpt>
      <trkpt lat="38.031838" lon="-3.620885">
        <ele>373.408651</ele>
        <time>2020-08-10T05:36:52.955Z</time>
      </trkpt>
      <trkpt lat="38.031731" lon="-3.620908">
        <ele>373.255471</ele>
        <time>2020-08-10T05:36:55.943Z</time>
      </trkpt>
      <trkpt lat="38.031618" lon="-3.620929">
        <ele>373.094273</ele>
        <time>2020-08-10T05:36:58.969Z</time>
      </trkpt>
      <trkpt lat="38.031498" lon="-3.620961">
        <ele>372.921197</ele>
        <time>2020-08-10T05:37:01.958Z</time>
      </trkpt>
      <trkpt lat="38.031386" lon="-3.620991">
        <ele>372.759629</ele>
        <time>2020-08-10T05:37:04.951Z</time>
      </trkpt>
      <trkpt lat="38.031266" lon="-3.621026">
        <ele>372.585837</ele>
        <time>2020-08-10T05:37:07.946Z</time>
      </trkpt>
      <trkpt lat="38.031174" lon="-3.621045">
        <ele>372.454273</ele>
        <time>2020-08-10T05:37:09.964Z</time>
      </trkpt>
      <trkpt lat="38.031045" lon="-3.621088">
        <ele>372.266018</ele>
        <time>2020-08-10T05:37:12.962Z</time>
      </trkpt>
      <trkpt lat="38.030956" lon="-3.621125">
        <ele>372.133831</ele>
        <time>2020-08-10T05:37:14.953Z</time>
      </trkpt>
      <trkpt lat="38.030846" lon="-3.621199">
        <ele>371.958115</ele>
        <time>2020-08-10T05:37:17.962Z</time>
      </trkpt>
      <trkpt lat="38.030754" lon="-3.621255">
        <ele>371.814103</ele>
        <time>2020-08-10T05:37:20.950Z</time>
      </trkpt>
      <trkpt lat="38.030662" lon="-3.621309">
        <ele>371.671038</ele>
        <time>2020-08-10T05:37:23.953Z</time>
      </trkpt>
      <trkpt lat="38.030579" lon="-3.621366">
        <ele>371.537842</ele>
        <time>2020-08-10T05:37:26.962Z</time>
      </trkpt>
      <trkpt lat="38.030485" lon="-3.621425">
        <ele>371.389832</ele>
        <time>2020-08-10T05:37:30.955Z</time>
      </trkpt>
      <trkpt lat="38.030393" lon="-3.621468">
        <ele>371.251453</ele>
        <time>2020-08-10T05:37:34.958Z</time>
      </trkpt>
      <trkpt lat="38.030312" lon="-3.621527">
        <ele>371.119640</ele>
        <time>2020-08-10T05:37:38.946Z</time>
      </trkpt>
      <trkpt lat="38.030210" lon="-3.621603">
        <ele>370.952703</ele>
        <time>2020-08-10T05:37:42.959Z</time>
      </trkpt>
      <trkpt lat="38.030130" lon="-3.621666">
        <ele>370.907731</ele>
        <time>2020-08-10T05:37:45.946Z</time>
      </trkpt>
      <trkpt lat="38.030039" lon="-3.621742">
        <ele>370.867993</ele>
        <time>2020-08-10T05:37:48.945Z</time>
      </trkpt>
      <trkpt lat="38.029948" lon="-3.621820">
        <ele>370.827936</ele>
        <time>2020-08-10T05:37:51.956Z</time>
      </trkpt>
      <trkpt lat="38.029850" lon="-3.621902">
        <ele>370.785117</ele>
        <time>2020-08-10T05:37:54.965Z</time>
      </trkpt>
      <trkpt lat="38.029749" lon="-3.621991">
        <ele>370.740264</ele>
        <time>2020-08-10T05:37:57.943Z</time>
      </trkpt>
      <trkpt lat="38.029657" lon="-3.622082">
        <ele>370.697716</ele>
        <time>2020-08-10T05:38:00.966Z</time>
      </trkpt>
      <trkpt lat="38.029572" lon="-3.622180">
        <ele>370.655826</ele>
        <time>2020-08-10T05:38:03.955Z</time>
      </trkpt>
      <trkpt lat="38.029484" lon="-3.622276">
        <ele>370.613498</ele>
        <time>2020-08-10T05:38:06.961Z</time>
      </trkpt>
      <trkpt lat="38.029399" lon="-3.622365">
        <ele>370.573302</ele>
        <time>2020-08-10T05:38:09.963Z</time>
      </trkpt>
      <trkpt lat="38.029317" lon="-3.622450">
        <ele>370.534681</ele>
        <time>2020-08-10T05:38:12.963Z</time>
      </trkpt>
      <trkpt lat="38.029240" lon="-3.622541">
        <ele>370.496302</ele>
        <time>2020-08-10T05:38:15.963Z</time>
      </trkpt>
      <trkpt lat="38.029156" lon="-3.622618">
        <ele>370.458503</ele>
        <time>2020-08-10T05:38:18.944Z</time>
      </trkpt>
      <trkpt lat="38.029075" lon="-3.622704">
        <ele>370.419980</ele>
        <time>2020-08-10T05:38:21.957Z</time>
      </trkpt>
      <trkpt lat="38.028992" lon="-3.622799">
        <ele>370.379211</ele>
        <time>2020-08-10T05:38:24.953Z</time>
      </trkpt>
      <trkpt lat="38.028904" lon="-3.622890">
        <ele>370.337804</ele>
        <time>2020-08-10T05:38:27.960Z</time>
      </trkpt>
      <trkpt lat="38.028827" lon="-3.622979">
        <ele>370.299814</ele>
        <time>2020-08-10T05:38:30.956Z</time>
      </trkpt>
      <trkpt lat="38.028748" lon="-3.623068">
        <ele>371.086874</ele>
        <time>2020-08-10T05:38:33.958Z</time>
      </trkpt>
      <trkpt lat="38.028670" lon="-3.623161">
        <ele>372.589284</ele>
        <time>2020-08-10T05:38:36.951Z</time>
      </trkpt>
      <trkpt lat="38.028593" lon="-3.623253">
        <ele>374.073891</ele>
        <time>2020-08-10T05:38:39.943Z</time>
      </trkpt>
      <trkpt lat="38.028522" lon="-3.623335">
        <ele>375.421547</ele>
        <time>2020-08-10T05:38:42.952Z</time>
      </trkpt>
      <trkpt lat="38.028456" lon="-3.623420">
        <ele>376.741557</ele>
        <time>2020-08-10T05:38:46.961Z</time>
      </trkpt>
      <trkpt lat="38.028403" lon="-3.623521">
        <ele>378.083748</ele>
        <time>2020-08-10T05:38:50.954Z</time>
      </trkpt>
      <trkpt lat="38.028339" lon="-3.623604">
        <ele>379.368302</ele>
        <time>2020-08-10T05:38:58.697Z</time>
      </trkpt>
      <trkpt lat="38.028287" lon="-3.623701">
        <ele>380.665956</ele>
        <time>2020-08-10T05:39:41.656Z</time>
      </trkpt>
      <trkpt lat="38.028239" lon="-3.623805">
        <ele>381.999057</ele>
        <time>2020-08-10T05:39:57.673Z</time>
      </trkpt>
      <trkpt lat="38.028184" lon="-3.623910">
        <ele>383.393636</ele>
        <time>2020-08-10T05:40:03.648Z</time>
      </trkpt>
      <trkpt lat="38.028129" lon="-3.624016">
        <ele>384.797440</ele>
        <time>2020-08-10T05:40:09.663Z</time>
      </trkpt>
      <trkpt lat="38.028062" lon="-3.624099">
        <ele>386.111805</ele>
        <time>2020-08-10T05:40:13.668Z</time>
      </trkpt>
      <trkpt lat="38.028001" lon="-3.624184">
        <ele>387.383520</ele>
        <time>2020-08-10T05:40:17.661Z</time>
      </trkpt>
      <trkpt lat="38.027935" lon="-3.624264">
        <ele>388.664741</ele>
        <time>2020-08-10T05:40:31.664Z</time>
      </trkpt>
      <trkpt lat="38.027890" lon="-3.624364">
        <ele>389.938459</ele>
        <time>2020-08-10T05:40:37.657Z</time>
      </trkpt>
      <trkpt lat="38.027835" lon="-3.624462">
        <ele>391.269268</ele>
        <time>2020-08-10T05:40:42.650Z</time>
      </trkpt>
      <trkpt lat="38.027825" lon="-3.624580">
        <ele>392.581846</ele>
        <time>2020-08-10T05:40:50.657Z</time>
      </trkpt>
      <trkpt lat="38.027893" lon="-3.624684">
        <ele>394.076674</ele>
        <time>2020-08-10T05:41:06.662Z</time>
      </trkpt>
      <trkpt lat="38.027983" lon="-3.624733">
        <ele>395.451606</ele>
        <time>2020-08-10T05:41:13.676Z</time>
      </trkpt>
      <trkpt lat="38.027988" lon="-3.624854">
        <ele>395.335651</ele>
        <time>2020-08-10T05:41:39.660Z</time>
      </trkpt>
      <trkpt lat="38.027938" lon="-3.624953">
        <ele>395.128494</ele>
        <time>2020-08-10T05:41:43.668Z</time>
      </trkpt>
      <trkpt lat="38.027867" lon="-3.625063">
        <ele>394.877984</ele>
        <time>2020-08-10T05:41:47.658Z</time>
      </trkpt>
      <trkpt lat="38.027789" lon="-3.625155">
        <ele>394.639890</ele>
        <time>2020-08-10T05:41:51.664Z</time>
      </trkpt>
      <trkpt lat="38.027704" lon="-3.625246">
        <ele>394.391240</ele>
        <time>2020-08-10T05:41:55.668Z</time>
      </trkpt>
      <trkpt lat="38.027635" lon="-3.625337">
        <ele>394.168743</ele>
        <time>2020-08-10T05:41:58.672Z</time>
      </trkpt>
      <trkpt lat="38.027581" lon="-3.625446">
        <ele>393.941919</ele>
        <time>2020-08-10T05:42:01.661Z</time>
      </trkpt>
      <trkpt lat="38.027511" lon="-3.625543">
        <ele>393.710186</ele>
        <time>2020-08-10T05:42:04.652Z</time>
      </trkpt>
      <trkpt lat="38.027429" lon="-3.625642">
        <ele>393.457129</ele>
        <time>2020-08-10T05:42:07.664Z</time>
      </trkpt>
      <trkpt lat="38.027348" lon="-3.625749">
        <ele>393.195715</ele>
        <time>2020-08-10T05:42:10.649Z</time>
      </trkpt>
      <trkpt lat="38.027268" lon="-3.625840">
        <ele>392.955504</ele>
        <time>2020-08-10T05:42:13.665Z</time>
      </trkpt>
      <trkpt lat="38.027195" lon="-3.625917">
        <ele>392.743261</ele>
        <time>2020-08-10T05:42:16.657Z</time>
      </trkpt>
      <trkpt lat="38.027124" lon="-3.626023">
        <ele>392.498159</ele>
        <time>2020-08-10T05:42:20.658Z</time>
      </trkpt>
      <trkpt lat="38.027063" lon="-3.626116">
        <ele>392.284978</ele>
        <time>2020-08-10T05:42:51.670Z</time>
      </trkpt>
      <trkpt lat="38.027005" lon="-3.626241">
        <ele>392.029424</ele>
        <time>2020-08-10T05:42:56.660Z</time>
      </trkpt>
      <trkpt lat="38.026955" lon="-3.626361">
        <ele>391.790288</ele>
        <time>2020-08-10T05:43:00.675Z</time>
      </trkpt>
      <trkpt lat="38.026860" lon="-3.626486">
        <ele>391.436072</ele>
        <time>2020-08-10T05:43:04.665Z</time>
      </trkpt>
      <trkpt lat="38.026777" lon="-3.626562">
        <ele>390.828450</ele>
        <time>2020-08-10T05:43:06.655Z</time>
      </trkpt>
      <trkpt lat="38.026678" lon="-3.626670">
        <ele>390.053427</ele>
        <time>2020-08-10T05:43:09.668Z</time>
      </trkpt>
      <trkpt lat="38.026592" lon="-3.626767">
        <ele>389.370381</ele>
        <time>2020-08-10T05:43:12.670Z</time>
      </trkpt>
      <trkpt lat="38.026520" lon="-3.626850">
        <ele>388.792933</ele>
        <time>2020-08-10T05:43:15.664Z</time>
      </trkpt>
      <trkpt lat="38.026441" lon="-3.626946">
        <ele>388.143616</ele>
        <time>2020-08-10T05:43:19.667Z</time>
      </trkpt>
      <trkpt lat="38.026366" lon="-3.627055">
        <ele>387.466716</ele>
        <time>2020-08-10T05:43:23.664Z</time>
      </trkpt>
      <trkpt lat="38.026304" lon="-3.627159">
        <ele>386.856706</ele>
        <time>2020-08-10T05:43:26.666Z</time>
      </trkpt>
      <trkpt lat="38.026248" lon="-3.627264">
        <ele>386.263642</ele>
        <time>2020-08-10T05:43:29.665Z</time>
      </trkpt>
      <trkpt lat="38.026170" lon="-3.627363">
        <ele>385.608756</ele>
        <time>2020-08-10T05:43:32.651Z</time>
      </trkpt>
      <trkpt lat="38.026080" lon="-3.627416">
        <ele>385.019692</ele>
        <time>2020-08-10T05:43:34.649Z</time>
      </trkpt>
      <trkpt lat="38.026021" lon="-3.627511">
        <ele>384.453884</ele>
        <time>2020-08-10T05:43:36.664Z</time>
      </trkpt>
      <trkpt lat="38.025935" lon="-3.627617">
        <ele>383.742182</ele>
        <time>2020-08-10T05:43:39.668Z</time>
      </trkpt>
      <trkpt lat="38.025898" lon="-3.627753">
        <ele>383.069229</ele>
        <time>2020-08-10T05:43:42.655Z</time>
      </trkpt>
      <trkpt lat="38.025855" lon="-3.627896">
        <ele>382.353332</ele>
        <time>2020-08-10T05:43:46.658Z</time>
      </trkpt>
      <trkpt lat="38.025820" lon="-3.628011">
        <ele>381.776717</ele>
        <time>2020-08-10T05:43:49.657Z</time>
      </trkpt>
      <trkpt lat="38.025762" lon="-3.628132">
        <ele>381.114246</ele>
        <time>2020-08-10T05:43:53.655Z</time>
      </trkpt>
      <trkpt lat="38.025709" lon="-3.628253">
        <ele>381.329891</ele>
        <time>2020-08-10T05:43:58.663Z</time>
      </trkpt>
      <trkpt lat="38.025663" lon="-3.628360">
        <ele>382.099015</ele>
        <time>2020-08-10T05:44:02.673Z</time>
      </trkpt>
      <trkpt lat="38.025589" lon="-3.628453">
        <ele>382.933071</ele>
        <time>2020-08-10T05:44:06.667Z</time>
      </trkpt>
      <trkpt lat="38.025504" lon="-3.628511">
        <ele>383.706025</ele>
        <time>2020-08-10T05:44:10.666Z</time>
      </trkpt>
      <trkpt lat="38.025413" lon="-3.628541">
        <ele>384.459094</ele>
        <time>2020-08-10T05:44:14.659Z</time>
      </trkpt>
      <trkpt lat="38.025317" lon="-3.628578">
        <ele>385.262692</ele>
        <time>2020-08-10T05:44:18.657Z</time>
      </trkpt>
      <trkpt lat="38.025225" lon="-3.628612">
        <ele>386.030185</ele>
        <time>2020-08-10T05:44:22.666Z</time>
      </trkpt>
      <trkpt lat="38.025126" lon="-3.628641">
        <ele>386.843993</ele>
        <time>2020-08-10T05:44:26.645Z</time>
      </trkpt>
      <trkpt lat="38.025019" lon="-3.628661">
        <ele>387.710282</ele>
        <time>2020-08-10T05:44:30.649Z</time>
      </trkpt>
      <trkpt lat="38.024898" lon="-3.628675">
        <ele>388.683484</ele>
        <time>2020-08-10T05:44:34.654Z</time>
      </trkpt>
      <trkpt lat="38.024798" lon="-3.628693">
        <ele>389.492476</ele>
        <time>2020-08-10T05:44:38.666Z</time>
      </trkpt>
      <trkpt lat="38.024706" lon="-3.628730">
        <ele>390.265474</ele>
        <time>2020-08-10T05:44:42.652Z</time>
      </trkpt>
      <trkpt lat="38.024604" lon="-3.628788">
        <ele>391.160692</ele>
        <time>2020-08-10T05:44:47.667Z</time>
      </trkpt>
      <trkpt lat="38.024509" lon="-3.628846">
        <ele>392.005052</ele>
        <time>2020-08-10T05:44:51.658Z</time>
      </trkpt>
      <trkpt lat="38.024428" lon="-3.628925">
        <ele>392.823221</ele>
        <time>2020-08-10T05:44:56.649Z</time>
      </trkpt>
      <trkpt lat="38.024362" lon="-3.629031">
        <ele>393.675746</ele>
        <time>2020-08-10T05:45:01.662Z</time>
      </trkpt>
      <trkpt lat="38.024285" lon="-3.629118">
        <ele>394.501414</ele>
        <time>2020-08-10T05:45:05.664Z</time>
      </trkpt>
      <trkpt lat="38.024214" lon="-3.629190">
        <ele>395.229289</ele>
        <time>2020-08-10T05:45:08.665Z</time>
      </trkpt>
      <trkpt lat="38.024141" lon="-3.629267">
        <ele>396.099406</ele>
        <time>2020-08-10T05:45:11.663Z</time>
      </trkpt>
      <trkpt lat="38.024052" lon="-3.629338">
        <ele>397.064958</ele>
        <time>2020-08-10T05:45:14.659Z</time>
      </trkpt>
      <trkpt lat="38.023973" lon="-3.629420">
        <ele>398.002327</ele>
        <time>2020-08-10T05:45:17.672Z</time>
      </trkpt>
      <trkpt lat="38.023891" lon="-3.629494">
        <ele>398.926485</ele>
        <time>2020-08-10T05:45:20.659Z</time>
      </trkpt>
      <trkpt lat="38.023815" lon="-3.629579">
        <ele>399.856894</ele>
        <time>2020-08-10T05:45:23.659Z</time>
      </trkpt>
      <trkpt lat="38.023727" lon="-3.629676">
        <ele>400.927439</ele>
        <time>2020-08-10T05:45:26.641Z</time>
      </trkpt>
      <trkpt lat="38.023624" lon="-3.629768">
        <ele>402.084300</ele>
        <time>2020-08-10T05:45:29.650Z</time>
      </trkpt>
      <trkpt lat="38.023541" lon="-3.629821">
        <ele>402.937733</ele>
        <time>2020-08-10T05:45:31.648Z</time>
      </trkpt>
      <trkpt lat="38.023461" lon="-3.629888">
        <ele>403.818106</ele>
        <time>2020-08-10T05:45:33.648Z</time>
      </trkpt>
      <trkpt lat="38.023376" lon="-3.629958">
        <ele>404.748797</ele>
        <time>2020-08-10T05:45:35.660Z</time>
      </trkpt>
      <trkpt lat="38.023299" lon="-3.630024">
        <ele>405.602232</ele>
        <time>2020-08-10T05:45:37.647Z</time>
      </trkpt>
      <trkpt lat="38.023190" lon="-3.630128">
        <ele>406.854754</ele>
        <time>2020-08-10T05:45:40.665Z</time>
      </trkpt>
      <trkpt lat="38.023111" lon="-3.630254">
        <ele>408.020034</ele>
        <time>2020-08-10T05:45:43.660Z</time>
      </trkpt>
      <trkpt lat="38.023035" lon="-3.630325">
        <ele>408.886816</ele>
        <time>2020-08-10T05:45:45.652Z</time>
      </trkpt>
      <trkpt lat="38.022928" lon="-3.630407">
        <ele>410.034902</ele>
        <time>2020-08-10T05:45:48.653Z</time>
      </trkpt>
      <trkpt lat="38.022839" lon="-3.630479">
        <ele>411.004328</ele>
        <time>2020-08-10T05:45:50.661Z</time>
      </trkpt>
      <trkpt lat="38.022747" lon="-3.630581">
        <ele>411.368414</ele>
        <time>2020-08-10T05:45:53.650Z</time>
      </trkpt>
      <trkpt lat="38.022649" lon="-3.630668">
        <ele>410.177710</ele>
        <time>2020-08-10T05:45:56.662Z</time>
      </trkpt>
      <trkpt lat="38.022548" lon="-3.630762">
        <ele>408.930749</ele>
        <time>2020-08-10T05:45:59.650Z</time>
      </trkpt>
      <trkpt lat="38.022463" lon="-3.630866">
        <ele>407.755294</ele>
        <time>2020-08-10T05:46:02.650Z</time>
      </trkpt>
      <trkpt lat="38.022381" lon="-3.630961">
        <ele>406.649925</ele>
        <time>2020-08-10T05:46:05.661Z</time>
      </trkpt>
      <trkpt lat="38.022293" lon="-3.631045">
        <ele>405.553647</ele>
        <time>2020-08-10T05:46:08.651Z</time>
      </trkpt>
      <trkpt lat="38.022193" lon="-3.631124">
        <ele>404.380899</ele>
        <time>2020-08-10T05:46:11.660Z</time>
      </trkpt>
      <trkpt lat="38.022114" lon="-3.631223">
        <ele>403.275592</ele>
        <time>2020-08-10T05:46:14.671Z</time>
      </trkpt>
      <trkpt lat="38.022035" lon="-3.631331">
        <ele>402.119598</ele>
        <time>2020-08-10T05:46:17.664Z</time>
      </trkpt>
      <trkpt lat="38.021936" lon="-3.631440">
        <ele>400.814759</ele>
        <time>2020-08-10T05:46:20.659Z</time>
      </trkpt>
      <trkpt lat="38.021832" lon="-3.631541">
        <ele>399.510968</ele>
        <time>2020-08-10T05:46:23.646Z</time>
      </trkpt>
      <trkpt lat="38.021727" lon="-3.631634">
        <ele>398.236171</ele>
        <time>2020-08-10T05:46:26.645Z</time>
      </trkpt>
      <trkpt lat="38.021639" lon="-3.631732">
        <ele>397.070583</ele>
        <time>2020-08-10T05:46:29.671Z</time>
      </trkpt>
      <trkpt lat="38.021554" lon="-3.631832">
        <ele>395.916673</ele>
        <time>2020-08-10T05:46:32.669Z</time>
      </trkpt>
      <trkpt lat="38.021462" lon="-3.631899">
        <ele>394.860605</ele>
        <time>2020-08-10T05:46:35.657Z</time>
      </trkpt>
      <trkpt lat="38.021348" lon="-3.631977">
        <ele>393.695904</ele>
        <time>2020-08-10T05:46:38.658Z</time>
      </trkpt>
      <trkpt lat="38.021248" lon="-3.632078">
        <ele>392.984776</ele>
        <time>2020-08-10T05:46:41.673Z</time>
      </trkpt>
      <trkpt lat="38.021152" lon="-3.632178">
        <ele>392.293716</ele>
        <time>2020-08-10T05:46:44.662Z</time>
      </trkpt>
      <trkpt lat="38.021090" lon="-3.632264">
        <ele>391.782669</ele>
        <time>2020-08-10T05:46:46.646Z</time>
      </trkpt>
      <trkpt lat="38.021013" lon="-3.632326">
        <ele>391.275251</ele>
        <time>2020-08-10T05:46:48.663Z</time>
      </trkpt>
      <trkpt lat="38.020943" lon="-3.632419">
        <ele>390.711380</ele>
        <time>2020-08-10T05:46:50.660Z</time>
      </trkpt>
      <trkpt lat="38.020859" lon="-3.632504">
        <ele>390.113594</ele>
        <time>2020-08-10T05:46:52.667Z</time>
      </trkpt>
      <trkpt lat="38.020788" lon="-3.632582">
        <ele>389.591077</ele>
        <time>2020-08-10T05:46:54.665Z</time>
      </trkpt>
      <trkpt lat="38.020681" lon="-3.632692">
        <ele>388.824871</ele>
        <time>2020-08-10T05:46:57.656Z</time>
      </trkpt>
      <trkpt lat="38.020602" lon="-3.632754">
        <ele>388.308020</ele>
        <time>2020-08-10T05:46:59.641Z</time>
      </trkpt>
      <trkpt lat="38.020518" lon="-3.632819">
        <ele>387.760576</ele>
        <time>2020-08-10T05:47:01.654Z</time>
      </trkpt>
      <trkpt lat="38.020450" lon="-3.632945">
        <ele>387.091027</ele>
        <time>2020-08-10T05:47:04.656Z</time>
      </trkpt>
      <trkpt lat="38.020349" lon="-3.633039">
        <ele>386.394106</ele>
        <time>2020-08-10T05:47:07.665Z</time>
      </trkpt>
      <trkpt lat="38.020252" lon="-3.633122">
        <ele>385.743140</ele>
        <time>2020-08-10T05:47:10.668Z</time>
      </trkpt>
      <trkpt lat="38.020167" lon="-3.633252">
        <ele>385.002518</ele>
        <time>2020-08-10T05:47:13.658Z</time>
      </trkpt>
      <trkpt lat="38.020126" lon="-3.633357">
        <ele>384.488770</ele>
        <time>2020-08-10T05:47:15.666Z</time>
      </trkpt>
      <trkpt lat="38.020057" lon="-3.633439">
        <ele>383.962790</ele>
        <time>2020-08-10T05:47:17.664Z</time>
      </trkpt>
      <trkpt lat="38.019989" lon="-3.633516">
        <ele>383.900634</ele>
        <time>2020-08-10T05:47:19.655Z</time>
      </trkpt>
      <trkpt lat="38.019915" lon="-3.633588">
        <ele>383.974800</ele>
        <time>2020-08-10T05:47:21.668Z</time>
      </trkpt>
      <trkpt lat="38.019835" lon="-3.633660">
        <ele>384.052808</ele>
        <time>2020-08-10T05:47:23.665Z</time>
      </trkpt>
      <trkpt lat="38.019743" lon="-3.633728">
        <ele>384.137491</ele>
        <time>2020-08-10T05:47:25.667Z</time>
      </trkpt>
      <trkpt lat="38.019681" lon="-3.633822">
        <ele>384.214316</ele>
        <time>2020-08-10T05:47:27.652Z</time>
      </trkpt>
      <trkpt lat="38.019611" lon="-3.633920">
        <ele>384.297212</ele>
        <time>2020-08-10T05:47:29.655Z</time>
      </trkpt>
      <trkpt lat="38.019552" lon="-3.634023">
        <ele>384.377016</ele>
        <time>2020-08-10T05:47:31.668Z</time>
      </trkpt>
      <trkpt lat="38.019505" lon="-3.634178">
        <ele>384.481093</ele>
        <time>2020-08-10T05:47:34.662Z</time>
      </trkpt>
      <trkpt lat="38.019453" lon="-3.634280">
        <ele>384.557228</ele>
        <time>2020-08-10T05:47:36.656Z</time>
      </trkpt>
      <trkpt lat="38.019395" lon="-3.634384">
        <ele>384.637077</ele>
        <time>2020-08-10T05:47:38.658Z</time>
      </trkpt>
      <trkpt lat="38.019346" lon="-3.634489">
        <ele>384.713554</ele>
        <time>2020-08-10T05:47:40.644Z</time>
      </trkpt>
      <trkpt lat="38.019286" lon="-3.634626">
        <ele>384.811780</ele>
        <time>2020-08-10T05:47:43.664Z</time>
      </trkpt>
      <trkpt lat="38.019223" lon="-3.634744">
        <ele>384.901106</ele>
        <time>2020-08-10T05:47:46.661Z</time>
      </trkpt>
      <trkpt lat="38.019137" lon="-3.634866">
        <ele>385.003696</ele>
        <time>2020-08-10T05:47:49.680Z</time>
      </trkpt>
      <trkpt lat="38.019055" lon="-3.634973">
        <ele>385.097240</ele>
        <time>2020-08-10T05:47:52.647Z</time>
      </trkpt>
      <trkpt lat="38.019002" lon="-3.635089">
        <ele>385.181273</ele>
        <time>2020-08-10T05:47:55.652Z</time>
      </trkpt>
      <trkpt lat="38.018990" lon="-3.635215">
        <ele>385.260806</ele>
        <time>2020-08-10T05:47:59.651Z</time>
      </trkpt>
      <trkpt lat="38.018976" lon="-3.635328">
        <ele>384.816856</ele>
        <time>2020-08-10T05:50:10.648Z</time>
      </trkpt>
      <trkpt lat="38.018958" lon="-3.635452">
        <ele>384.178300</ele>
        <time>2020-08-10T05:50:13.646Z</time>
      </trkpt>
      <trkpt lat="38.018878" lon="-3.635579">
        <ele>383.354797</ele>
        <time>2020-08-10T05:50:16.653Z</time>
      </trkpt>
      <trkpt lat="38.018796" lon="-3.635661">
        <ele>382.683732</ele>
        <time>2020-08-10T05:50:18.648Z</time>
      </trkpt>
      <trkpt lat="38.018732" lon="-3.635770">
        <ele>381.995260</ele>
        <time>2020-08-10T05:50:20.652Z</time>
      </trkpt>
      <trkpt lat="38.018678" lon="-3.635876">
        <ele>381.355974</ele>
        <time>2020-08-10T05:50:22.665Z</time>
      </trkpt>
      <trkpt lat="38.018616" lon="-3.635983">
        <ele>380.683292</ele>
        <time>2020-08-10T05:50:24.656Z</time>
      </trkpt>
      <trkpt lat="38.018551" lon="-3.636099">
        <ele>379.962375</ele>
        <time>2020-08-10T05:50:26.644Z</time>
      </trkpt>
      <trkpt lat="38.018487" lon="-3.636205">
        <ele>379.286023</ele>
        <time>2020-08-10T05:50:28.660Z</time>
      </trkpt>
      <trkpt lat="38.018421" lon="-3.636311">
        <ele>378.601773</ele>
        <time>2020-08-10T05:50:30.670Z</time>
      </trkpt>
      <trkpt lat="38.018367" lon="-3.636403">
        <ele>378.020747</ele>
        <time>2020-08-10T05:50:32.661Z</time>
      </trkpt>
      <trkpt lat="38.018291" lon="-3.636496">
        <ele>377.342125</ele>
        <time>2020-08-10T05:50:34.659Z</time>
      </trkpt>
      <trkpt lat="38.018222" lon="-3.636620">
        <ele>376.573281</ele>
        <time>2020-08-10T05:50:37.666Z</time>
      </trkpt>
      <trkpt lat="38.018325" lon="-3.636680">
        <ele>375.844754</ele>
        <time>2020-08-10T05:51:02.656Z</time>
      </trkpt>
      <trkpt lat="38.018416" lon="-3.636771">
        <ele>375.100034</ele>
        <time>2020-08-10T05:51:06.670Z</time>
      </trkpt>
      <trkpt lat="38.018489" lon="-3.636847">
        <ele>374.493101</ele>
        <time>2020-08-10T05:51:09.666Z</time>
      </trkpt>
      <trkpt lat="38.018561" lon="-3.636921">
        <ele>373.897552</ele>
        <time>2020-08-10T05:51:12.660Z</time>
      </trkpt>
      <trkpt lat="38.018648" lon="-3.637018">
        <ele>373.992657</ele>
        <time>2020-08-10T05:51:16.665Z</time>
      </trkpt>
      <trkpt lat="38.018733" lon="-3.637103">
        <ele>374.339765</ele>
        <time>2020-08-10T05:51:20.666Z</time>
      </trkpt>
      <trkpt lat="38.018812" lon="-3.637164">
        <ele>374.636381</ele>
        <time>2020-08-10T05:51:23.664Z</time>
      </trkpt>
      <trkpt lat="38.018893" lon="-3.637240">
        <ele>374.959487</ele>
        <time>2020-08-10T05:51:26.665Z</time>
      </trkpt>
      <trkpt lat="38.018975" lon="-3.637318">
        <ele>375.288184</ele>
        <time>2020-08-10T05:51:29.667Z</time>
      </trkpt>
      <trkpt lat="38.019066" lon="-3.637387">
        <ele>375.628203</ele>
        <time>2020-08-10T05:51:32.665Z</time>
      </trkpt>
      <trkpt lat="38.019162" lon="-3.637467">
        <ele>375.996580</ele>
        <time>2020-08-10T05:51:36.666Z</time>
      </trkpt>
      <trkpt lat="38.019244" lon="-3.637557">
        <ele>376.344309</ele>
        <time>2020-08-10T05:51:40.661Z</time>
      </trkpt>
      <trkpt lat="38.019297" lon="-3.637692">
        <ele>376.725480</ele>
        <time>2020-08-10T05:51:44.650Z</time>
      </trkpt>
      <trkpt lat="38.019316" lon="-3.637808">
        <ele>377.024890</ele>
        <time>2020-08-10T05:51:47.670Z</time>
      </trkpt>
      <trkpt lat="38.019315" lon="-3.637953">
        <ele>377.391330</ele>
        <time>2020-08-10T05:51:51.646Z</time>
      </trkpt>
      <trkpt lat="38.019335" lon="-3.638084">
        <ele>377.728537</ele>
        <time>2020-08-10T05:51:54.668Z</time>
      </trkpt>
      <trkpt lat="38.019343" lon="-3.638236">
        <ele>378.113509</ele>
        <time>2020-08-10T05:51:57.668Z</time>
      </trkpt>
      <trkpt lat="38.019340" lon="-3.638374">
        <ele>378.462379</ele>
        <time>2020-08-10T05:52:00.653Z</time>
      </trkpt>
      <trkpt lat="38.019348" lon="-3.638500">
        <ele>378.781823</ele>
        <time>2020-08-10T05:52:03.665Z</time>
      </trkpt>
      <trkpt lat="38.019350" lon="-3.638635">
        <ele>379.123039</ele>
        <time>2020-08-10T05:52:06.659Z</time>
      </trkpt>
      <trkpt lat="38.019355" lon="-3.638782">
        <ele>379.501916</ele>
        <time>2020-08-10T05:52:09.665Z</time>
      </trkpt>
      <trkpt lat="38.019371" lon="-3.638917">
        <ele>380.048643</ele>
        <time>2020-08-10T05:52:12.653Z</time>
      </trkpt>
      <trkpt lat="38.019381" lon="-3.639031">
        <ele>380.508009</ele>
        <time>2020-08-10T05:52:15.666Z</time>
      </trkpt>
      <trkpt lat="38.019397" lon="-3.639179">
        <ele>381.106269</ele>
        <time>2020-08-10T05:52:28.656Z</time>
      </trkpt>
      <trkpt lat="38.019404" lon="-3.639309">
        <ele>381.628103</ele>
        <time>2020-08-10T05:52:31.668Z</time>
      </trkpt>
      <trkpt lat="38.019413" lon="-3.639471">
        <ele>382.278487</ele>
        <time>2020-08-10T05:52:34.670Z</time>
      </trkpt>
      <trkpt lat="38.019423" lon="-3.639639">
        <ele>382.953205</ele>
        <time>2020-08-10T05:52:37.669Z</time>
      </trkpt>
      <trkpt lat="38.019417" lon="-3.639808">
        <ele>383.630698</ele>
        <time>2020-08-10T05:52:40.646Z</time>
      </trkpt>
      <trkpt lat="38.019421" lon="-3.639964">
        <ele>384.255772</ele>
        <time>2020-08-10T05:52:43.663Z</time>
      </trkpt>
      <trkpt lat="38.019434" lon="-3.640115">
        <ele>384.864092</ele>
        <time>2020-08-10T05:52:46.658Z</time>
      </trkpt>
      <trkpt lat="38.019420" lon="-3.640249">
        <ele>385.405430</ele>
        <time>2020-08-10T05:52:48.666Z</time>
      </trkpt>
      <trkpt lat="38.019418" lon="-3.640372">
        <ele>385.898121</ele>
        <time>2020-08-10T05:52:50.667Z</time>
      </trkpt>
      <trkpt lat="38.019428" lon="-3.640518">
        <ele>386.485022</ele>
        <time>2020-08-10T05:52:53.666Z</time>
      </trkpt>
      <trkpt lat="38.019435" lon="-3.640654">
        <ele>387.030832</ele>
        <time>2020-08-10T05:52:56.668Z</time>
      </trkpt>
      <trkpt lat="38.019444" lon="-3.640824">
        <ele>387.713177</ele>
        <time>2020-08-10T05:52:59.655Z</time>
      </trkpt>
      <trkpt lat="38.019438" lon="-3.640963">
        <ele>388.270675</ele>
        <time>2020-08-10T05:53:01.672Z</time>
      </trkpt>
      <trkpt lat="38.019408" lon="-3.641100">
        <ele>388.382804</ele>
        <time>2020-08-10T05:53:03.666Z</time>
      </trkpt>
      <trkpt lat="38.019394" lon="-3.641242">
        <ele>387.731011</ele>
        <time>2020-08-10T05:53:05.656Z</time>
      </trkpt>
      <trkpt lat="38.019375" lon="-3.641401">
        <ele>386.998552</ele>
        <time>2020-08-10T05:53:07.663Z</time>
      </trkpt>
      <trkpt lat="38.019345" lon="-3.641569">
        <ele>386.213974</ele>
        <time>2020-08-10T05:53:10.662Z</time>
      </trkpt>
      <trkpt lat="38.019360" lon="-3.641704">
        <ele>385.593023</ele>
        <time>2020-08-10T05:53:14.671Z</time>
      </trkpt>
      <trkpt lat="38.019386" lon="-3.641839">
        <ele>384.960050</ele>
        <time>2020-08-10T05:53:18.664Z</time>
      </trkpt>
      <trkpt lat="38.019388" lon="-3.641987">
        <ele>384.285875</ele>
        <time>2020-08-10T05:53:22.666Z</time>
      </trkpt>
      <trkpt lat="38.019381" lon="-3.642105">
        <ele>383.746916</ele>
        <time>2020-08-10T05:53:25.665Z</time>
      </trkpt>
      <trkpt lat="38.019370" lon="-3.642225">
        <ele>383.196681</ele>
        <time>2020-08-10T05:53:28.660Z</time>
      </trkpt>
      <trkpt lat="38.019361" lon="-3.642357">
        <ele>382.593231</ele>
        <time>2020-08-10T05:53:31.667Z</time>
      </trkpt>
      <trkpt lat="38.019361" lon="-3.642496">
        <ele>381.960146</ele>
        <time>2020-08-10T05:53:34.666Z</time>
      </trkpt>
      <trkpt lat="38.019362" lon="-3.642618">
        <ele>381.404459</ele>
        <time>2020-08-10T05:53:37.666Z</time>
      </trkpt>
      <trkpt lat="38.019361" lon="-3.642734">
        <ele>380.876098</ele>
        <time>2020-08-10T05:53:40.661Z</time>
      </trkpt>
      <trkpt lat="38.019360" lon="-3.642855">
        <ele>380.324966</ele>
        <time>2020-08-10T05:53:43.660Z</time>
      </trkpt>
      <trkpt lat="38.019361" lon="-3.642989">
        <ele>379.714627</ele>
        <time>2020-08-10T05:53:46.664Z</time>
      </trkpt>
      <trkpt lat="38.019346" lon="-3.643140">
        <ele>379.021442</ele>
        <time>2020-08-10T05:53:49.657Z</time>
      </trkpt>
      <trkpt lat="38.019322" lon="-3.643256">
        <ele>378.475196</ele>
        <time>2020-08-10T05:53:51.670Z</time>
      </trkpt>
      <trkpt lat="38.019304" lon="-3.643418">
        <ele>378.267090</ele>
        <time>2020-08-10T05:53:54.661Z</time>
      </trkpt>
      <trkpt lat="38.019276" lon="-3.643579">
        <ele>378.326749</ele>
        <time>2020-08-10T05:53:57.668Z</time>
      </trkpt>
      <trkpt lat="38.019258" lon="-3.643700">
        <ele>378.371305</ele>
        <time>2020-08-10T05:53:59.666Z</time>
      </trkpt>
      <trkpt lat="38.019261" lon="-3.643815">
        <ele>378.412939</ele>
        <time>2020-08-10T05:54:01.665Z</time>
      </trkpt>
      <trkpt lat="38.019238" lon="-3.643934">
        <ele>378.457274</ele>
        <time>2020-08-10T05:54:03.657Z</time>
      </trkpt>
      <trkpt lat="38.019223" lon="-3.644059">
        <ele>378.503025</ele>
        <time>2020-08-10T05:54:05.671Z</time>
      </trkpt>
      <trkpt lat="38.019209" lon="-3.644200">
        <ele>378.554448</ele>
        <time>2020-08-10T05:54:07.668Z</time>
      </trkpt>
      <trkpt lat="38.019190" lon="-3.644333">
        <ele>378.603357</ele>
        <time>2020-08-10T05:54:09.664Z</time>
      </trkpt>
      <trkpt lat="38.019162" lon="-3.644478">
        <ele>378.657377</ele>
        <time>2020-08-10T05:54:11.664Z</time>
      </trkpt>
      <trkpt lat="38.019161" lon="-3.644617">
        <ele>378.707674</ele>
        <time>2020-08-10T05:54:13.666Z</time>
      </trkpt>
      <trkpt lat="38.019176" lon="-3.644732">
        <ele>378.749852</ele>
        <time>2020-08-10T05:54:15.660Z</time>
      </trkpt>
      <trkpt lat="38.019157" lon="-3.644882">
        <ele>378.804825</ele>
        <time>2020-08-10T05:54:17.670Z</time>
      </trkpt>
      <trkpt lat="38.019121" lon="-3.645038">
        <ele>378.863643</ele>
        <time>2020-08-10T05:54:19.663Z</time>
      </trkpt>
      <trkpt lat="38.019093" lon="-3.645194">
        <ele>378.921536</ele>
        <time>2020-08-10T05:54:21.658Z</time>
      </trkpt>
      <trkpt lat="38.019062" lon="-3.645359">
        <ele>378.982914</ele>
        <time>2020-08-10T05:54:23.666Z</time>
      </trkpt>
      <trkpt lat="38.019049" lon="-3.645520">
        <ele>379.041475</ele>
        <time>2020-08-10T05:54:25.661Z</time>
      </trkpt>
      <trkpt lat="38.019030" lon="-3.645681">
        <ele>379.151017</ele>
        <time>2020-08-10T05:54:27.657Z</time>
      </trkpt>
      <trkpt lat="38.018999" lon="-3.645845">
        <ele>379.278209</ele>
        <time>2020-08-10T05:54:29.660Z</time>
      </trkpt>
      <trkpt lat="38.018949" lon="-3.645980">
        <ele>379.390710</ele>
        <time>2020-08-10T05:54:31.664Z</time>
      </trkpt>
      <trkpt lat="38.018866" lon="-3.646050">
        <ele>379.486104</ele>
        <time>2020-08-10T05:54:33.660Z</time>
      </trkpt>
      <trkpt lat="38.018766" lon="-3.646096">
        <ele>379.587925</ele>
        <time>2020-08-10T05:54:35.647Z</time>
      </trkpt>
      <trkpt lat="38.018672" lon="-3.646130">
        <ele>379.681492</ele>
        <time>2020-08-10T05:54:37.643Z</time>
      </trkpt>
      <trkpt lat="38.018563" lon="-3.646139">
        <ele>379.786057</ele>
        <time>2020-08-10T05:54:40.669Z</time>
      </trkpt>
      <trkpt lat="38.018468" lon="-3.646158">
        <ele>379.878121</ele>
        <time>2020-08-10T05:54:42.658Z</time>
      </trkpt>
      <trkpt lat="38.018361" lon="-3.646214">
        <ele>379.988916</ele>
        <time>2020-08-10T05:54:45.658Z</time>
      </trkpt>
      <trkpt lat="38.018290" lon="-3.646319">
        <ele>380.093272</ele>
        <time>2020-08-10T05:54:48.656Z</time>
      </trkpt>
      <trkpt lat="38.018262" lon="-3.646454">
        <ele>380.198554</ele>
        <time>2020-08-10T05:54:51.648Z</time>
      </trkpt>
      <trkpt lat="38.018306" lon="-3.646610">
        <ele>380.323516</ele>
        <time>2020-08-10T05:54:54.656Z</time>
      </trkpt>
      <trkpt lat="38.018362" lon="-3.646712">
        <ele>380.417278</ele>
        <time>2020-08-10T05:54:56.657Z</time>
      </trkpt>
      <trkpt lat="38.018399" lon="-3.646836">
        <ele>380.517277</ele>
        <time>2020-08-10T05:54:58.671Z</time>
      </trkpt>
      <trkpt lat="38.018408" lon="-3.646986">
        <ele>380.630729</ele>
        <time>2020-08-10T05:55:00.671Z</time>
      </trkpt>
      <trkpt lat="38.018469" lon="-3.647117">
        <ele>380.745492</ele>
        <time>2020-08-10T05:55:02.659Z</time>
      </trkpt>
      <trkpt lat="38.018515" lon="-3.647263">
        <ele>381.279140</ele>
        <time>2020-08-10T05:55:04.666Z</time>
      </trkpt>
      <trkpt lat="38.018551" lon="-3.647410">
        <ele>381.939220</ele>
        <time>2020-08-10T05:55:06.672Z</time>
      </trkpt>
      <trkpt lat="38.018556" lon="-3.647545">
        <ele>382.518732</ele>
        <time>2020-08-10T05:55:08.650Z</time>
      </trkpt>
      <trkpt lat="38.018564" lon="-3.647707">
        <ele>383.214741</ele>
        <time>2020-08-10T05:55:10.666Z</time>
      </trkpt>
      <trkpt lat="38.018535" lon="-3.647873">
        <ele>383.943830</ele>
        <time>2020-08-10T05:55:12.670Z</time>
      </trkpt>
      <trkpt lat="38.018505" lon="-3.648022">
        <ele>384.603269</ele>
        <time>2020-08-10T05:55:14.673Z</time>
      </trkpt>
      <trkpt lat="38.018498" lon="-3.648143">
        <ele>385.123507</ele>
        <time>2020-08-10T05:55:16.667Z</time>
      </trkpt>
      <trkpt lat="38.018474" lon="-3.648279">
        <ele>385.721119</ele>
        <time>2020-08-10T05:55:18.668Z</time>
      </trkpt>
      <trkpt lat="38.018473" lon="-3.648409">
        <ele>386.278578</ele>
        <time>2020-08-10T05:55:20.664Z</time>
      </trkpt>
      <trkpt lat="38.018454" lon="-3.648540">
        <ele>386.849739</ele>
        <time>2020-08-10T05:55:22.670Z</time>
      </trkpt>
      <trkpt lat="38.018428" lon="-3.648680">
        <ele>387.466506</ele>
        <time>2020-08-10T05:55:24.652Z</time>
      </trkpt>
      <trkpt lat="38.018435" lon="-3.648808">
        <ele>388.016684</ele>
        <time>2020-08-10T05:55:26.664Z</time>
      </trkpt>
      <trkpt lat="38.018403" lon="-3.648951">
        <ele>388.654118</ele>
        <time>2020-08-10T05:55:28.662Z</time>
      </trkpt>
      <trkpt lat="38.018366" lon="-3.649069">
        <ele>389.198700</ele>
        <time>2020-08-10T05:55:30.664Z</time>
      </trkpt>
      <trkpt lat="38.018335" lon="-3.649182">
        <ele>389.711776</ele>
        <time>2020-08-10T05:55:32.662Z</time>
      </trkpt>
      <trkpt lat="38.018312" lon="-3.649309">
        <ele>390.270550</ele>
        <time>2020-08-10T05:55:34.668Z</time>
      </trkpt>
      <trkpt lat="38.018310" lon="-3.649442">
        <ele>390.702156</ele>
        <time>2020-08-10T05:55:36.661Z</time>
      </trkpt>
      <trkpt lat="38.018290" lon="-3.649576">
        <ele>390.992561</ele>
        <time>2020-08-10T05:55:38.666Z</time>
      </trkpt>
      <trkpt lat="38.018280" lon="-3.649700">
        <ele>391.257977</ele>
        <time>2020-08-10T05:55:40.657Z</time>
      </trkpt>
      <trkpt lat="38.018240" lon="-3.649848">
        <ele>391.591146</ele>
        <time>2020-08-10T05:55:42.661Z</time>
      </trkpt>
      <trkpt lat="38.018217" lon="-3.649976">
        <ele>391.870699</ele>
        <time>2020-08-10T05:55:44.660Z</time>
      </trkpt>
      <trkpt lat="38.018206" lon="-3.650095">
        <ele>392.125826</ele>
        <time>2020-08-10T05:55:46.657Z</time>
      </trkpt>
      <trkpt lat="38.018186" lon="-3.650246">
        <ele>392.451867</ele>
        <time>2020-08-10T05:55:48.667Z</time>
      </trkpt>
      <trkpt lat="38.018183" lon="-3.650377">
        <ele>392.730926</ele>
        <time>2020-08-10T05:55:50.663Z</time>
      </trkpt>
      <trkpt lat="38.018173" lon="-3.650522">
        <ele>393.040859</ele>
        <time>2020-08-10T05:55:52.662Z</time>
      </trkpt>
      <trkpt lat="38.018167" lon="-3.650648">
        <ele>393.309644</ele>
        <time>2020-08-10T05:55:54.666Z</time>
      </trkpt>
      <trkpt lat="38.018147" lon="-3.650797">
        <ele>393.631486</ele>
        <time>2020-08-10T05:55:56.652Z</time>
      </trkpt>
      <trkpt lat="38.018109" lon="-3.650951">
        <ele>393.975110</ele>
        <time>2020-08-10T05:55:58.666Z</time>
      </trkpt>
      <trkpt lat="38.018012" lon="-3.651175">
        <ele>394.519385</ele>
        <time>2020-08-10T05:56:00.657Z</time>
      </trkpt>
      <trkpt lat="38.018000" lon="-3.651304">
        <ele>394.795977</ele>
        <time>2020-08-10T05:56:02.665Z</time>
      </trkpt>
      <trkpt lat="38.017995" lon="-3.651425">
        <ele>395.053980</ele>
        <time>2020-08-10T05:56:04.669Z</time>
      </trkpt>
      <trkpt lat="38.017977" lon="-3.651562">
        <ele>395.349728</ele>
        <time>2020-08-10T05:56:06.664Z</time>
      </trkpt>
      <trkpt lat="38.017928" lon="-3.651696">
        <ele>395.298546</ele>
        <time>2020-08-10T05:56:09.655Z</time>
      </trkpt>
      <trkpt lat="38.017852" lon="-3.651775">
        <ele>395.155408</ele>
        <time>2020-08-10T05:56:11.648Z</time>
      </trkpt>
      <trkpt lat="38.017781" lon="-3.651884">
        <ele>394.993050</ele>
        <time>2020-08-10T05:56:14.657Z</time>
      </trkpt>
      <trkpt lat="38.017803" lon="-3.652018">
        <ele>394.835918</ele>
        <time>2020-08-10T05:56:17.660Z</time>
      </trkpt>
      <trkpt lat="38.017852" lon="-3.652157">
        <ele>394.661106</ele>
        <time>2020-08-10T05:56:21.663Z</time>
      </trkpt>
      <trkpt lat="38.017869" lon="-3.652293">
        <ele>394.503030</ele>
        <time>2020-08-10T05:56:25.659Z</time>
      </trkpt>
      <trkpt lat="38.017881" lon="-3.652411">
        <ele>394.366447</ele>
        <time>2020-08-10T05:56:28.656Z</time>
      </trkpt>
      <trkpt lat="38.017883" lon="-3.652536">
        <ele>394.222922</ele>
        <time>2020-08-10T05:56:31.665Z</time>
      </trkpt>
      <trkpt lat="38.017906" lon="-3.652678">
        <ele>394.056502</ele>
        <time>2020-08-10T05:56:35.668Z</time>
      </trkpt>
      <trkpt lat="38.017920" lon="-3.652803">
        <ele>393.911565</ele>
        <time>2020-08-10T05:56:39.658Z</time>
      </trkpt>
      <trkpt lat="38.017886" lon="-3.652933">
        <ele>393.754321</ele>
        <time>2020-08-10T05:56:43.657Z</time>
      </trkpt>
      <trkpt lat="38.017863" lon="-3.653069">
        <ele>393.594642</ele>
        <time>2020-08-10T05:56:47.651Z</time>
      </trkpt>
      <trkpt lat="38.017871" lon="-3.653197">
        <ele>393.447241</ele>
        <time>2020-08-10T05:56:52.671Z</time>
      </trkpt>
      <trkpt lat="38.017871" lon="-3.653321">
        <ele>393.304894</ele>
        <time>2020-08-10T05:56:57.658Z</time>
      </trkpt>
      <trkpt lat="38.017867" lon="-3.653447">
        <ele>393.160134</ele>
        <time>2020-08-10T05:57:02.660Z</time>
      </trkpt>
      <trkpt lat="38.017850" lon="-3.653564">
        <ele>393.023557</ele>
        <time>2020-08-10T05:57:06.657Z</time>
      </trkpt>
      <trkpt lat="38.017835" lon="-3.653701">
        <ele>392.864775</ele>
        <time>2020-08-10T05:57:10.662Z</time>
      </trkpt>
      <trkpt lat="38.017819" lon="-3.653814">
        <ele>392.706195</ele>
        <time>2020-08-10T05:57:14.669Z</time>
      </trkpt>
      <trkpt lat="38.017826" lon="-3.653958">
        <ele>392.479657</ele>
        <time>2020-08-10T05:57:19.666Z</time>
      </trkpt>
      <trkpt lat="38.017826" lon="-3.654088">
        <ele>392.275531</ele>
        <time>2020-08-10T05:57:23.670Z</time>
      </trkpt>
      <trkpt lat="38.017839" lon="-3.654227">
        <ele>392.055741</ele>
        <time>2020-08-10T05:57:27.660Z</time>
      </trkpt>
      <trkpt lat="38.017830" lon="-3.654351">
        <ele>391.860212</ele>
        <time>2020-08-10T05:57:30.652Z</time>
      </trkpt>
      <trkpt lat="38.017811" lon="-3.654472">
        <ele>391.666480</ele>
        <time>2020-08-10T05:57:33.668Z</time>
      </trkpt>
      <trkpt lat="38.017786" lon="-3.654589">
        <ele>391.476130</ele>
        <time>2020-08-10T05:57:36.666Z</time>
      </trkpt>
      <trkpt lat="38.017775" lon="-3.654713">
        <ele>391.280195</ele>
        <time>2020-08-10T05:57:39.668Z</time>
      </trkpt>
      <trkpt lat="38.017758" lon="-3.654857">
        <ele>391.051561</ele>
        <time>2020-08-10T05:57:42.649Z</time>
      </trkpt>
      <trkpt lat="38.017717" lon="-3.654982">
        <ele>390.838955</ele>
        <time>2020-08-10T05:57:45.665Z</time>
      </trkpt>
      <trkpt lat="38.017685" lon="-3.655119">
        <ele>390.614582</ele>
        <time>2020-08-10T05:57:48.650Z</time>
      </trkpt>
      <trkpt lat="38.017660" lon="-3.655262">
        <ele>390.384581</ele>
        <time>2020-08-10T05:57:51.663Z</time>
      </trkpt>
      <trkpt lat="38.017651" lon="-3.655402">
        <ele>390.164022</ele>
        <time>2020-08-10T05:57:54.662Z</time>
      </trkpt>
      <trkpt lat="38.017638" lon="-3.655518">
        <ele>389.980044</ele>
        <time>2020-08-10T05:57:57.667Z</time>
      </trkpt>
      <trkpt lat="38.017629" lon="-3.655672">
        <ele>389.737569</ele>
        <time>2020-08-10T05:58:01.659Z</time>
      </trkpt>
      <trkpt lat="38.017619" lon="-3.655797">
        <ele>389.540284</ele>
        <time>2020-08-10T05:58:04.654Z</time>
      </trkpt>
      <trkpt lat="38.017597" lon="-3.655948">
        <ele>389.299163</ele>
        <time>2020-08-10T05:58:08.658Z</time>
      </trkpt>
      <trkpt lat="38.017573" lon="-3.656064">
        <ele>388.859433</ele>
        <time>2020-08-10T05:58:11.662Z</time>
      </trkpt>
      <trkpt lat="38.017546" lon="-3.656206">
        <ele>388.106196</ele>
        <time>2020-08-10T05:58:14.664Z</time>
      </trkpt>
      <trkpt lat="38.017531" lon="-3.656323">
        <ele>387.494958</ele>
        <time>2020-08-10T05:58:17.659Z</time>
      </trkpt>
      <trkpt lat="38.017508" lon="-3.656467">
        <ele>386.737326</ele>
        <time>2020-08-10T05:58:21.677Z</time>
      </trkpt>
      <trkpt lat="38.017485" lon="-3.656578">
        <ele>386.145496</ele>
        <time>2020-08-10T05:58:24.654Z</time>
      </trkpt>
      <trkpt lat="38.017453" lon="-3.656720">
        <ele>385.383916</ele>
        <time>2020-08-10T05:58:28.642Z</time>
      </trkpt>
      <trkpt lat="38.017427" lon="-3.656863">
        <ele>384.627164</ele>
        <time>2020-08-10T05:58:32.660Z</time>
      </trkpt>
      <trkpt lat="38.017407" lon="-3.656999">
        <ele>383.913775</ele>
        <time>2020-08-10T05:58:35.671Z</time>
      </trkpt>
      <trkpt lat="38.017379" lon="-3.657137">
        <ele>383.178966</ele>
        <time>2020-08-10T05:58:38.653Z</time>
      </trkpt>
      <trkpt lat="38.017356" lon="-3.657264">
        <ele>382.507018</ele>
        <time>2020-08-10T05:58:41.664Z</time>
      </trkpt>
      <trkpt lat="38.017336" lon="-3.657404">
        <ele>381.773344</ele>
        <time>2020-08-10T05:58:44.675Z</time>
      </trkpt>
      <trkpt lat="38.017320" lon="-3.657541">
        <ele>381.059191</ele>
        <time>2020-08-10T05:58:47.665Z</time>
      </trkpt>
      <trkpt lat="38.017310" lon="-3.657669">
        <ele>380.395929</ele>
        <time>2020-08-10T05:58:50.665Z</time>
      </trkpt>
      <trkpt lat="38.017290" lon="-3.657795">
        <ele>379.733161</ele>
        <time>2020-08-10T05:58:53.669Z</time>
      </trkpt>
      <trkpt lat="38.017264" lon="-3.657921">
        <ele>379.061532</ele>
        <time>2020-08-10T05:58:56.657Z</time>
      </trkpt>
      <trkpt lat="38.017241" lon="-3.658071">
        <ele>378.273551</ele>
        <time>2020-08-10T05:58:59.658Z</time>
      </trkpt>
      <trkpt lat="38.017227" lon="-3.658237">
        <ele>377.372120</ele>
        <time>2020-08-10T05:59:02.657Z</time>
      </trkpt>
      <trkpt lat="38.017216" lon="-3.658357">
        <ele>376.043432</ele>
        <time>2020-08-10T05:59:04.650Z</time>
      </trkpt>
      <trkpt lat="38.017209" lon="-3.658476">
        <ele>374.731003</ele>
        <time>2020-08-10T05:59:06.665Z</time>
      </trkpt>
      <trkpt lat="38.017212" lon="-3.658613">
        <ele>373.223668</ele>
        <time>2020-08-10T05:59:08.660Z</time>
      </trkpt>
      <trkpt lat="38.017189" lon="-3.658764">
        <ele>371.532184</ele>
        <time>2020-08-10T05:59:10.661Z</time>
      </trkpt>
      <trkpt lat="38.017162" lon="-3.658889">
        <ele>370.106673</ele>
        <time>2020-08-10T05:59:12.657Z</time>
      </trkpt>
      <trkpt lat="38.017140" lon="-3.659025">
        <ele>368.579711</ele>
        <time>2020-08-10T05:59:14.656Z</time>
      </trkpt>
      <trkpt lat="38.017126" lon="-3.659144">
        <ele>367.256411</ele>
        <time>2020-08-10T05:59:16.654Z</time>
      </trkpt>
      <trkpt lat="38.017109" lon="-3.659282">
        <ele>365.720215</ele>
        <time>2020-08-10T05:59:18.671Z</time>
      </trkpt>
      <trkpt lat="38.017092" lon="-3.659412">
        <ele>364.270884</ele>
        <time>2020-08-10T05:59:20.658Z</time>
      </trkpt>
      <trkpt lat="38.017073" lon="-3.659527">
        <ele>362.978575</ele>
        <time>2020-08-10T05:59:22.659Z</time>
      </trkpt>
      <trkpt lat="38.017046" lon="-3.659647">
        <ele>361.606019</ele>
        <time>2020-08-10T05:59:24.660Z</time>
      </trkpt>
      <trkpt lat="38.017033" lon="-3.659767">
        <ele>360.273813</ele>
        <time>2020-08-10T05:59:26.658Z</time>
      </trkpt>
      <trkpt lat="38.017014" lon="-3.659902">
        <ele>358.765545</ele>
        <time>2020-08-10T05:59:28.664Z</time>
      </trkpt>
      <trkpt lat="38.016988" lon="-3.660034">
        <ele>357.269093</ele>
        <time>2020-08-10T05:59:30.668Z</time>
      </trkpt>
      <trkpt lat="38.016973" lon="-3.660161">
        <ele>355.856707</ele>
        <time>2020-08-10T05:59:32.681Z</time>
      </trkpt>
      <trkpt lat="38.016955" lon="-3.660277">
        <ele>354.556400</ele>
        <time>2020-08-10T05:59:34.654Z</time>
      </trkpt>
      <trkpt lat="38.016935" lon="-3.660394">
        <ele>353.239664</ele>
        <time>2020-08-10T05:59:36.668Z</time>
      </trkpt>
      <trkpt lat="38.016918" lon="-3.660558">
        <ele>352.181198</ele>
        <time>2020-08-10T05:59:39.668Z</time>
      </trkpt>
      <trkpt lat="38.016902" lon="-3.660678">
        <ele>351.951145</ele>
        <time>2020-08-10T05:59:41.662Z</time>
      </trkpt>
      <trkpt lat="38.016884" lon="-3.660796">
        <ele>351.723955</ele>
        <time>2020-08-10T05:59:43.662Z</time>
      </trkpt>
      <trkpt lat="38.016864" lon="-3.660950">
        <ele>351.428931</ele>
        <time>2020-08-10T05:59:46.655Z</time>
      </trkpt>
      <trkpt lat="38.016833" lon="-3.661102">
        <ele>351.132145</ele>
        <time>2020-08-10T05:59:49.662Z</time>
      </trkpt>
      <trkpt lat="38.016802" lon="-3.661265">
        <ele>350.815187</ele>
        <time>2020-08-10T05:59:52.647Z</time>
      </trkpt>
      <trkpt lat="38.016781" lon="-3.661383">
        <ele>350.586520</ele>
        <time>2020-08-10T05:59:54.664Z</time>
      </trkpt>
      <trkpt lat="38.016766" lon="-3.661500">
        <ele>350.362454</ele>
        <time>2020-08-10T05:59:56.657Z</time>
      </trkpt>
      <trkpt lat="38.016746" lon="-3.661613">
        <ele>350.143534</ele>
        <time>2020-08-10T05:59:58.666Z</time>
      </trkpt>
      <trkpt lat="38.016722" lon="-3.661725">
        <ele>349.924136</ele>
        <time>2020-08-10T06:00:00.664Z</time>
      </trkpt>
      <trkpt lat="38.016701" lon="-3.661840">
        <ele>349.700997</ele>
        <time>2020-08-10T06:00:02.670Z</time>
      </trkpt>
      <trkpt lat="38.016683" lon="-3.661952">
        <ele>349.484930</ele>
        <time>2020-08-10T06:00:04.672Z</time>
      </trkpt>
      <trkpt lat="38.016656" lon="-3.662111">
        <ele>349.177481</ele>
        <time>2020-08-10T06:00:07.673Z</time>
      </trkpt>
      <trkpt lat="38.016635" lon="-3.662265">
        <ele>348.882056</ele>
        <time>2020-08-10T06:00:10.660Z</time>
      </trkpt>
      <trkpt lat="38.016615" lon="-3.662419">
        <ele>348.587031</ele>
        <time>2020-08-10T06:00:13.656Z</time>
      </trkpt>
      <trkpt lat="38.016595" lon="-3.662583">
        <ele>348.273341</ele>
        <time>2020-08-10T06:00:16.671Z</time>
      </trkpt>
      <trkpt lat="38.016575" lon="-3.662746">
        <ele>348.209751</ele>
        <time>2020-08-10T06:00:19.659Z</time>
      </trkpt>
      <trkpt lat="38.016561" lon="-3.662914">
        <ele>349.166710</ele>
        <time>2020-08-10T06:00:22.668Z</time>
      </trkpt>
      <trkpt lat="38.016547" lon="-3.663029">
        <ele>349.825868</ele>
        <time>2020-08-10T06:00:24.668Z</time>
      </trkpt>
      <trkpt lat="38.016530" lon="-3.663200">
        <ele>350.802194</ele>
        <time>2020-08-10T06:00:27.669Z</time>
      </trkpt>
      <trkpt lat="38.016515" lon="-3.663360">
        <ele>351.714923</ele>
        <time>2020-08-10T06:00:30.667Z</time>
      </trkpt>
      <trkpt lat="38.016505" lon="-3.663474">
        <ele>352.364676</ele>
        <time>2020-08-10T06:00:32.665Z</time>
      </trkpt>
      <trkpt lat="38.016485" lon="-3.663587">
        <ele>353.020729</ele>
        <time>2020-08-10T06:00:34.661Z</time>
      </trkpt>
      <trkpt lat="38.016462" lon="-3.663713">
        <ele>353.753375</ele>
        <time>2020-08-10T06:00:36.660Z</time>
      </trkpt>
      <trkpt lat="38.016458" lon="-3.663863">
        <ele>354.603550</ele>
        <time>2020-08-10T06:00:39.658Z</time>
      </trkpt>
      <trkpt lat="38.016422" lon="-3.664023">
        <ele>355.546123</ele>
        <time>2020-08-10T06:00:42.670Z</time>
      </trkpt>
      <trkpt lat="38.016399" lon="-3.664183">
        <ele>356.467421</ele>
        <time>2020-08-10T06:00:45.664Z</time>
      </trkpt>
      <trkpt lat="38.016377" lon="-3.664297">
        <ele>357.132277</ele>
        <time>2020-08-10T06:00:47.656Z</time>
      </trkpt>
      <trkpt lat="38.016360" lon="-3.664453">
        <ele>358.024368</ele>
        <time>2020-08-10T06:00:50.666Z</time>
      </trkpt>
      <trkpt lat="38.016336" lon="-3.664606">
        <ele>358.908064</ele>
        <time>2020-08-10T06:00:53.671Z</time>
      </trkpt>
      <trkpt lat="38.016312" lon="-3.664754">
        <ele>359.764000</ele>
        <time>2020-08-10T06:00:56.663Z</time>
      </trkpt>
      <trkpt lat="38.016288" lon="-3.664898">
        <ele>360.597756</ele>
        <time>2020-08-10T06:00:59.664Z</time>
      </trkpt>
      <trkpt lat="38.016259" lon="-3.665030">
        <ele>362.157879</ele>
        <time>2020-08-10T06:01:02.658Z</time>
      </trkpt>
      <trkpt lat="38.016232" lon="-3.665162">
        <ele>364.379119</ele>
        <time>2020-08-10T06:01:05.666Z</time>
      </trkpt>
      <trkpt lat="38.016199" lon="-3.665313">
        <ele>366.931414</ele>
        <time>2020-08-10T06:01:08.664Z</time>
      </trkpt>
      <trkpt lat="38.016173" lon="-3.665474">
        <ele>369.608238</ele>
        <time>2020-08-10T06:01:11.671Z</time>
      </trkpt>
      <trkpt lat="38.016155" lon="-3.665621">
        <ele>372.031260</ele>
        <time>2020-08-10T06:01:14.664Z</time>
      </trkpt>
      <trkpt lat="38.016140" lon="-3.665763">
        <ele>374.364795</ele>
        <time>2020-08-10T06:01:17.667Z</time>
      </trkpt>
      <trkpt lat="38.016119" lon="-3.665896">
        <ele>376.574122</ele>
        <time>2020-08-10T06:01:20.669Z</time>
      </trkpt>
      <trkpt lat="38.016099" lon="-3.666016">
        <ele>378.571891</ele>
        <time>2020-08-10T06:01:23.666Z</time>
      </trkpt>
      <trkpt lat="38.016076" lon="-3.666146">
        <ele>380.742014</ele>
        <time>2020-08-10T06:01:26.662Z</time>
      </trkpt>
      <trkpt lat="38.016057" lon="-3.666276">
        <ele>382.895530</ele>
        <time>2020-08-10T06:01:29.662Z</time>
      </trkpt>
      <trkpt lat="38.016013" lon="-3.666399">
        <ele>385.095752</ele>
        <time>2020-08-10T06:01:32.656Z</time>
      </trkpt>
      <trkpt lat="38.015907" lon="-3.666455">
        <ele>387.469415</ele>
        <time>2020-08-10T06:01:35.644Z</time>
      </trkpt>
      <trkpt lat="38.015774" lon="-3.666472">
        <ele>390.232937</ele>
        <time>2020-08-10T06:01:38.660Z</time>
      </trkpt>
      <trkpt lat="38.015659" lon="-3.666494">
        <ele>392.637276</ele>
        <time>2020-08-10T06:01:41.666Z</time>
      </trkpt>
      <trkpt lat="38.015571" lon="-3.666559">
        <ele>394.742195</ele>
        <time>2020-08-10T06:01:44.655Z</time>
      </trkpt>
      <trkpt lat="38.015483" lon="-3.666655">
        <ele>397.141100</ele>
        <time>2020-08-10T06:01:47.671Z</time>
      </trkpt>
      <trkpt lat="38.015423" lon="-3.666774">
        <ele>396.858206</ele>
        <time>2020-08-10T06:01:50.644Z</time>
      </trkpt>
      <trkpt lat="38.015371" lon="-3.666887">
        <ele>394.757599</ele>
        <time>2020-08-10T06:01:53.664Z</time>
      </trkpt>
      <trkpt lat="38.015337" lon="-3.666995">
        <ele>392.890719</ele>
        <time>2020-08-10T06:01:56.652Z</time>
      </trkpt>
      <trkpt lat="38.015333" lon="-3.667132">
        <ele>390.690105</ele>
        <time>2020-08-10T06:01:59.665Z</time>
      </trkpt>
      <trkpt lat="38.015350" lon="-3.667300">
        <ele>387.971240</ele>
        <time>2020-08-10T06:02:02.670Z</time>
      </trkpt>
      <trkpt lat="38.015379" lon="-3.667464">
        <ele>385.273244</ele>
        <time>2020-08-10T06:02:05.659Z</time>
      </trkpt>
      <trkpt lat="38.015409" lon="-3.667618">
        <ele>382.726813</ele>
        <time>2020-08-10T06:02:08.669Z</time>
      </trkpt>
      <trkpt lat="38.015446" lon="-3.667751">
        <ele>380.462732</ele>
        <time>2020-08-10T06:02:11.665Z</time>
      </trkpt>
      <trkpt lat="38.015493" lon="-3.667869">
        <ele>378.340313</ele>
        <time>2020-08-10T06:02:14.655Z</time>
      </trkpt>
      <trkpt lat="38.015525" lon="-3.667980">
        <ele>376.443021</ele>
        <time>2020-08-10T06:02:17.667Z</time>
      </trkpt>
      <trkpt lat="38.015573" lon="-3.668113">
        <ele>374.094791</ele>
        <time>2020-08-10T06:02:21.669Z</time>
      </trkpt>
      <trkpt lat="38.015597" lon="-3.668234">
        <ele>372.091915</ele>
        <time>2020-08-10T06:02:25.654Z</time>
      </trkpt>
      <trkpt lat="38.015617" lon="-3.668365">
        <ele>369.950011</ele>
        <time>2020-08-10T06:02:30.661Z</time>
      </trkpt>
      <trkpt lat="38.015620" lon="-3.668501">
        <ele>367.766112</ele>
        <time>2020-08-10T06:02:34.664Z</time>
      </trkpt>
      <trkpt lat="38.015582" lon="-3.668641">
        <ele>365.389230</ele>
        <time>2020-08-10T06:02:38.670Z</time>
      </trkpt>
      <trkpt lat="38.015557" lon="-3.668775">
        <ele>363.178801</ele>
        <time>2020-08-10T06:02:41.645Z</time>
      </trkpt>
      <trkpt lat="38.015536" lon="-3.668928">
        <ele>361.553236</ele>
        <time>2020-08-10T06:02:44.672Z</time>
      </trkpt>
      <trkpt lat="38.015532" lon="-3.669094">
        <ele>361.746469</ele>
        <time>2020-08-10T06:02:47.668Z</time>
      </trkpt>
      <trkpt lat="38.015511" lon="-3.669248">
        <ele>361.928314</ele>
        <time>2020-08-10T06:02:50.670Z</time>
      </trkpt>
      <trkpt lat="38.015508" lon="-3.669400">
        <ele>362.105223</ele>
        <time>2020-08-10T06:02:53.667Z</time>
      </trkpt>
      <trkpt lat="38.015475" lon="-3.669547">
        <ele>362.283067</ele>
        <time>2020-08-10T06:02:56.664Z</time>
      </trkpt>
      <trkpt lat="38.015449" lon="-3.669704">
        <ele>362.469730</ele>
        <time>2020-08-10T06:02:59.659Z</time>
      </trkpt>
      <trkpt lat="38.015419" lon="-3.669853">
        <ele>362.648665</ele>
        <time>2020-08-10T06:03:02.660Z</time>
      </trkpt>
      <trkpt lat="38.015404" lon="-3.669989">
        <ele>362.808446</ele>
        <time>2020-08-10T06:03:05.652Z</time>
      </trkpt>
      <trkpt lat="38.015384" lon="-3.670119">
        <ele>362.962560</ele>
        <time>2020-08-10T06:03:08.641Z</time>
      </trkpt>
      <trkpt lat="38.015366" lon="-3.670247">
        <ele>363.113844</ele>
        <time>2020-08-10T06:03:11.667Z</time>
      </trkpt>
      <trkpt lat="38.015344" lon="-3.670375">
        <ele>363.266276</ele>
        <time>2020-08-10T06:03:14.669Z</time>
      </trkpt>
      <trkpt lat="38.015319" lon="-3.670526">
        <ele>363.445804</ele>
        <time>2020-08-10T06:03:17.665Z</time>
      </trkpt>
      <trkpt lat="38.015294" lon="-3.670686">
        <ele>363.635592</ele>
        <time>2020-08-10T06:03:20.655Z</time>
      </trkpt>
      <trkpt lat="38.015277" lon="-3.670836">
        <ele>363.811916</ele>
        <time>2020-08-10T06:03:23.664Z</time>
      </trkpt>
      <trkpt lat="38.015269" lon="-3.670985">
        <ele>363.985682</ele>
        <time>2020-08-10T06:03:26.662Z</time>
      </trkpt>
      <trkpt lat="38.015255" lon="-3.671132">
        <ele>364.239961</ele>
        <time>2020-08-10T06:03:29.665Z</time>
      </trkpt>
      <trkpt lat="38.015233" lon="-3.671277">
        <ele>366.407309</ele>
        <time>2020-08-10T06:03:32.662Z</time>
      </trkpt>
      <trkpt lat="38.015212" lon="-3.671417">
        <ele>368.499076</ele>
        <time>2020-08-10T06:03:35.669Z</time>
      </trkpt>
      <trkpt lat="38.015190" lon="-3.671545">
        <ele>370.421989</ele>
        <time>2020-08-10T06:03:38.662Z</time>
      </trkpt>
      <trkpt lat="38.015158" lon="-3.671681">
        <ele>372.505257</ele>
        <time>2020-08-10T06:03:41.659Z</time>
      </trkpt>
      <trkpt lat="38.015132" lon="-3.671806">
        <ele>374.402815</ele>
        <time>2020-08-10T06:03:44.665Z</time>
      </trkpt>
      <trkpt lat="38.015100" lon="-3.671925">
        <ele>376.248382</ele>
        <time>2020-08-10T06:03:47.666Z</time>
      </trkpt>
      <trkpt lat="38.015060" lon="-3.672028">
        <ele>377.933857</ele>
        <time>2020-08-10T06:03:50.664Z</time>
      </trkpt>
      <trkpt lat="38.015017" lon="-3.672136">
        <ele>379.709957</ele>
        <time>2020-08-10T06:03:54.662Z</time>
      </trkpt>
      <trkpt lat="38.014963" lon="-3.672230">
        <ele>381.417476</ele>
        <time>2020-08-10T06:04:42.664Z</time>
      </trkpt>
      <trkpt lat="38.014999" lon="-3.672112">
        <ele>383.274753</ele>
        <time>2020-08-10T06:05:01.652Z</time>
      </trkpt>
      <trkpt lat="38.015046" lon="-3.671989">
        <ele>385.281229</ele>
        <time>2020-08-10T06:05:06.660Z</time>
      </trkpt>
      <trkpt lat="38.015069" lon="-3.671859">
        <ele>387.236833</ele>
        <time>2020-08-10T06:05:09.647Z</time>
      </trkpt>
      <trkpt lat="38.015095" lon="-3.671726">
        <ele>389.248147</ele>
        <time>2020-08-10T06:05:12.663Z</time>
      </trkpt>
      <trkpt lat="38.015121" lon="-3.671594">
        <ele>391.245217</ele>
        <time>2020-08-10T06:05:15.666Z</time>
      </trkpt>
      <trkpt lat="38.015143" lon="-3.671467">
        <ele>393.153793</ele>
        <time>2020-08-10T06:05:18.664Z</time>
      </trkpt>
      <trkpt lat="38.015166" lon="-3.671348">
        <ele>394.952213</ele>
        <time>2020-08-10T06:05:21.672Z</time>
      </trkpt>
      <trkpt lat="38.015190" lon="-3.671226">
        <ele>396.797852</ele>
        <time>2020-08-10T06:05:24.670Z</time>
      </trkpt>
      <trkpt lat="38.015207" lon="-3.671112">
        <ele>397.734877</ele>
        <time>2020-08-10T06:05:27.662Z</time>
      </trkpt>
      <trkpt lat="38.015222" lon="-3.670997">
        <ele>397.888158</ele>
        <time>2020-08-10T06:05:30.672Z</time>
      </trkpt>
      <trkpt lat="38.015241" lon="-3.670868">
        <ele>398.060729</ele>
        <time>2020-08-10T06:05:33.672Z</time>
      </trkpt>
      <trkpt lat="38.015262" lon="-3.670747">
        <ele>398.223656</ele>
        <time>2020-08-10T06:05:36.656Z</time>
      </trkpt>
      <trkpt lat="38.015284" lon="-3.670632">
        <ele>398.379273</ele>
        <time>2020-08-10T06:05:39.647Z</time>
      </trkpt>
      <trkpt lat="38.015305" lon="-3.670513">
        <ele>398.539633</ele>
        <time>2020-08-10T06:05:42.664Z</time>
      </trkpt>
      <trkpt lat="38.015324" lon="-3.670389">
        <ele>398.705746</ele>
        <time>2020-08-10T06:05:45.658Z</time>
      </trkpt>
      <trkpt lat="38.015344" lon="-3.670272">
        <ele>398.863178</ele>
        <time>2020-08-10T06:05:48.654Z</time>
      </trkpt>
      <trkpt lat="38.015358" lon="-3.670155">
        <ele>399.018794</ele>
        <time>2020-08-10T06:05:51.669Z</time>
      </trkpt>
      <trkpt lat="38.015371" lon="-3.670037">
        <ele>399.175472</ele>
        <time>2020-08-10T06:05:54.665Z</time>
      </trkpt>
      <trkpt lat="38.015375" lon="-3.669919">
        <ele>399.330782</ele>
        <time>2020-08-10T06:05:57.675Z</time>
      </trkpt>
      <trkpt lat="38.015389" lon="-3.669780">
        <ele>399.515052</ele>
        <time>2020-08-10T06:06:01.664Z</time>
      </trkpt>
      <trkpt lat="38.015424" lon="-3.669639">
        <ele>399.709449</ele>
        <time>2020-08-10T06:06:05.680Z</time>
      </trkpt>
      <trkpt lat="38.015447" lon="-3.669528">
        <ele>399.860375</ele>
        <time>2020-08-10T06:06:08.650Z</time>
      </trkpt>
      <trkpt lat="38.015465" lon="-3.669412">
        <ele>400.015842</ele>
        <time>2020-08-10T06:06:11.670Z</time>
      </trkpt>
      <trkpt lat="38.015486" lon="-3.669296">
        <ele>400.172355</ele>
        <time>2020-08-10T06:06:14.665Z</time>
      </trkpt>
      <trkpt lat="38.015502" lon="-3.669151">
        <ele>400.364887</ele>
        <time>2020-08-10T06:06:18.658Z</time>
      </trkpt>
      <trkpt lat="38.015512" lon="-3.669033">
        <ele>400.520949</ele>
        <time>2020-08-10T06:06:21.666Z</time>
      </trkpt>
      <trkpt lat="38.015531" lon="-3.668904">
        <ele>400.530619</ele>
        <time>2020-08-10T06:06:24.658Z</time>
      </trkpt>
      <trkpt lat="38.015550" lon="-3.668785">
        <ele>399.875898</ele>
        <time>2020-08-10T06:06:27.658Z</time>
      </trkpt>
      <trkpt lat="38.015569" lon="-3.668673">
        <ele>399.258125</ele>
        <time>2020-08-10T06:06:30.668Z</time>
      </trkpt>
      <trkpt lat="38.015624" lon="-3.668568">
        <ele>398.578221</ele>
        <time>2020-08-10T06:06:34.660Z</time>
      </trkpt>
      <trkpt lat="38.015649" lon="-3.668455">
        <ele>397.945329</ele>
        <time>2020-08-10T06:06:38.666Z</time>
      </trkpt>
      <trkpt lat="38.015639" lon="-3.668334">
        <ele>397.289289</ele>
        <time>2020-08-10T06:06:42.674Z</time>
      </trkpt>
      <trkpt lat="38.015654" lon="-3.668221">
        <ele>396.671378</ele>
        <time>2020-08-10T06:06:46.665Z</time>
      </trkpt>
      <trkpt lat="38.015674" lon="-3.668094">
        <ele>395.973017</ele>
        <time>2020-08-10T06:06:50.667Z</time>
      </trkpt>
      <trkpt lat="38.015622" lon="-3.667988">
        <ele>395.299692</ele>
        <time>2020-08-10T06:06:54.663Z</time>
      </trkpt>
      <trkpt lat="38.015558" lon="-3.667886">
        <ele>394.596567</ele>
        <time>2020-08-10T06:06:59.673Z</time>
      </trkpt>
      <trkpt lat="38.015510" lon="-3.667757">
        <ele>393.827289</ele>
        <time>2020-08-10T06:07:04.671Z</time>
      </trkpt>
      <trkpt lat="38.015493" lon="-3.667636">
        <ele>393.164534</ele>
        <time>2020-08-10T06:07:08.651Z</time>
      </trkpt>
      <trkpt lat="38.015472" lon="-3.667515">
        <ele>392.496429</ele>
        <time>2020-08-10T06:07:12.677Z</time>
      </trkpt>
      <trkpt lat="38.015453" lon="-3.667399">
        <ele>391.857554</ele>
        <time>2020-08-10T06:07:15.668Z</time>
      </trkpt>
      <trkpt lat="38.015439" lon="-3.667265">
        <ele>391.128666</ele>
        <time>2020-08-10T06:07:20.653Z</time>
      </trkpt>
      <trkpt lat="38.015451" lon="-3.667127">
        <ele>390.380017</ele>
        <time>2020-08-10T06:07:25.655Z</time>
      </trkpt>
      <trkpt lat="38.015472" lon="-3.667013">
        <ele>389.748721</ele>
        <time>2020-08-10T06:07:29.659Z</time>
      </trkpt>
      <trkpt lat="38.015515" lon="-3.666901">
        <ele>389.076897</ele>
        <time>2020-08-10T06:07:33.667Z</time>
      </trkpt>
      <trkpt lat="38.015581" lon="-3.666820">
        <ele>388.448546</ele>
        <time>2020-08-10T06:07:36.655Z</time>
      </trkpt>
      <trkpt lat="38.015671" lon="-3.666763">
        <ele>385.479921</ele>
        <time>2020-08-10T06:07:40.656Z</time>
      </trkpt>
      <trkpt lat="38.015770" lon="-3.666717">
        <ele>381.974355</ele>
        <time>2020-08-10T06:07:44.653Z</time>
      </trkpt>
      <trkpt lat="38.015859" lon="-3.666695">
        <ele>378.959345</ele>
        <time>2020-08-10T06:07:49.655Z</time>
      </trkpt>
      <trkpt lat="38.015955" lon="-3.666726">
        <ele>375.665487</ele>
        <time>2020-08-10T06:07:55.651Z</time>
      </trkpt>
      <trkpt lat="38.015868" lon="-3.666690">
        <ele>372.622734</ele>
        <time>2020-08-10T06:14:43.904Z</time>
      </trkpt>
      <trkpt lat="38.015754" lon="-3.666708">
        <ele>368.802810</ele>
        <time>2020-08-10T06:14:46.905Z</time>
      </trkpt>
      <trkpt lat="38.015657" lon="-3.666766">
        <ele>365.237412</ele>
        <time>2020-08-10T06:14:49.907Z</time>
      </trkpt>
      <trkpt lat="38.015557" lon="-3.666846">
        <ele>361.306876</ele>
        <time>2020-08-10T06:14:53.895Z</time>
      </trkpt>
      <trkpt lat="38.015493" lon="-3.666956">
        <ele>357.724551</ele>
        <time>2020-08-10T06:14:56.892Z</time>
      </trkpt>
      <trkpt lat="38.015443" lon="-3.667085">
        <ele>353.958270</ele>
        <time>2020-08-10T06:14:59.906Z</time>
      </trkpt>
      <trkpt lat="38.015442" lon="-3.667200">
        <ele>350.945401</ele>
        <time>2020-08-10T06:15:02.908Z</time>
      </trkpt>
      <trkpt lat="38.015475" lon="-3.667336">
        <ele>347.217421</ele>
        <time>2020-08-10T06:15:05.902Z</time>
      </trkpt>
      <trkpt lat="38.015544" lon="-3.667430">
        <ele>343.851672</ele>
        <time>2020-08-10T06:15:07.903Z</time>
      </trkpt>
      <trkpt lat="38.015551" lon="-3.667545">
        <ele>340.830012</ele>
        <time>2020-08-10T06:15:09.899Z</time>
      </trkpt>
      <trkpt lat="38.015586" lon="-3.667710">
        <ele>336.353536</ele>
        <time>2020-08-10T06:15:12.902Z</time>
      </trkpt>
      <trkpt lat="38.015623" lon="-3.667831">
        <ele>332.953284</ele>
        <time>2020-08-10T06:15:14.902Z</time>
      </trkpt>
      <trkpt lat="38.015649" lon="-3.667954">
        <ele>329.617063</ele>
        <time>2020-08-10T06:15:16.915Z</time>
      </trkpt>
      <trkpt lat="38.015694" lon="-3.668060">
        <ele>330.134344</ele>
        <time>2020-08-10T06:15:18.909Z</time>
      </trkpt>
      <trkpt lat="38.015694" lon="-3.668224">
        <ele>333.420938</ele>
        <time>2020-08-10T06:15:21.910Z</time>
      </trkpt>
      <trkpt lat="38.015676" lon="-3.668395">
        <ele>336.878265</ele>
        <time>2020-08-10T06:15:24.902Z</time>
      </trkpt>
      <trkpt lat="38.015664" lon="-3.668509">
        <ele>339.183151</ele>
        <time>2020-08-10T06:15:26.903Z</time>
      </trkpt>
      <trkpt lat="38.015676" lon="-3.668649">
        <ele>342.005336</ele>
        <time>2020-08-10T06:15:29.903Z</time>
      </trkpt>
      <trkpt lat="38.015700" lon="-3.668813">
        <ele>345.348147</ele>
        <time>2020-08-10T06:15:32.897Z</time>
      </trkpt>
      <trkpt lat="38.015724" lon="-3.668949">
        <ele>348.141150</ele>
        <time>2020-08-10T06:15:35.914Z</time>
      </trkpt>
      <trkpt lat="38.015718" lon="-3.669088">
        <ele>350.930915</ele>
        <time>2020-08-10T06:15:39.897Z</time>
      </trkpt>
      <trkpt lat="38.015692" lon="-3.669218">
        <ele>353.618776</ele>
        <time>2020-08-10T06:15:44.906Z</time>
      </trkpt>
      <trkpt lat="38.015661" lon="-3.669354">
        <ele>356.456024</ele>
        <time>2020-08-10T06:15:48.900Z</time>
      </trkpt>
      <trkpt lat="38.015649" lon="-3.669496">
        <ele>359.318059</ele>
        <time>2020-08-10T06:15:52.899Z</time>
      </trkpt>
      <trkpt lat="38.015636" lon="-3.669644">
        <ele>362.302388</ele>
        <time>2020-08-10T06:15:56.905Z</time>
      </trkpt>
      <trkpt lat="38.015614" lon="-3.669761">
        <ele>364.712950</ele>
        <time>2020-08-10T06:15:59.897Z</time>
      </trkpt>
      <trkpt lat="38.015602" lon="-3.669904">
        <ele>367.594913</ele>
        <time>2020-08-10T06:16:03.905Z</time>
      </trkpt>
      <trkpt lat="38.015590" lon="-3.670018">
        <ele>369.899801</ele>
        <time>2020-08-10T06:16:07.902Z</time>
      </trkpt>
      <trkpt lat="38.015576" lon="-3.670153">
        <ele>372.628570</ele>
        <time>2020-08-10T06:16:11.905Z</time>
      </trkpt>
      <trkpt lat="38.015542" lon="-3.670286">
        <ele>373.956228</ele>
        <time>2020-08-10T06:16:15.908Z</time>
      </trkpt>
      <trkpt lat="38.015523" lon="-3.670415">
        <ele>373.172496</ele>
        <time>2020-08-10T06:16:19.900Z</time>
      </trkpt>
      <trkpt lat="38.015496" lon="-3.670568">
        <ele>372.236142</ele>
        <time>2020-08-10T06:16:23.905Z</time>
      </trkpt>
      <trkpt lat="38.015466" lon="-3.670686">
        <ele>371.495665</ele>
        <time>2020-08-10T06:16:25.908Z</time>
      </trkpt>
      <trkpt lat="38.015435" lon="-3.670828">
        <ele>370.615689</ele>
        <time>2020-08-10T06:16:28.914Z</time>
      </trkpt>
      <trkpt lat="38.015430" lon="-3.670954">
        <ele>369.862265</ele>
        <time>2020-08-10T06:16:32.906Z</time>
      </trkpt>
      <trkpt lat="38.015396" lon="-3.671081">
        <ele>369.061230</ele>
        <time>2020-08-10T06:16:37.906Z</time>
      </trkpt>
      <trkpt lat="38.015374" lon="-3.671205">
        <ele>368.302158</ele>
        <time>2020-08-10T06:16:41.906Z</time>
      </trkpt>
      <trkpt lat="38.015354" lon="-3.671341">
        <ele>367.475939</ele>
        <time>2020-08-10T06:16:45.907Z</time>
      </trkpt>
      <trkpt lat="38.015343" lon="-3.671455">
        <ele>366.790045</ele>
        <time>2020-08-10T06:16:48.905Z</time>
      </trkpt>
      <trkpt lat="38.015325" lon="-3.671600">
        <ele>365.913423</ele>
        <time>2020-08-10T06:16:52.910Z</time>
      </trkpt>
      <trkpt lat="38.015307" lon="-3.671746">
        <ele>365.030901</ele>
        <time>2020-08-10T06:16:56.895Z</time>
      </trkpt>
      <trkpt lat="38.015285" lon="-3.671868">
        <ele>364.283476</ele>
        <time>2020-08-10T06:16:59.897Z</time>
      </trkpt>
      <trkpt lat="38.015259" lon="-3.671993">
        <ele>363.511398</ele>
        <time>2020-08-10T06:17:02.905Z</time>
      </trkpt>
      <trkpt lat="38.015236" lon="-3.672112">
        <ele>362.779657</ele>
        <time>2020-08-10T06:17:05.907Z</time>
      </trkpt>
      <trkpt lat="38.015219" lon="-3.672234">
        <ele>362.039765</ele>
        <time>2020-08-10T06:17:08.905Z</time>
      </trkpt>
      <trkpt lat="38.015204" lon="-3.672356">
        <ele>361.302362</ele>
        <time>2020-08-10T06:17:11.908Z</time>
      </trkpt>
      <trkpt lat="38.015183" lon="-3.672474">
        <ele>360.788300</ele>
        <time>2020-08-10T06:17:14.895Z</time>
      </trkpt>
      <trkpt lat="38.015161" lon="-3.672589">
        <ele>361.903240</ele>
        <time>2020-08-10T06:17:17.900Z</time>
      </trkpt>
      <trkpt lat="38.015135" lon="-3.672719">
        <ele>363.166865</ele>
        <time>2020-08-10T06:17:20.907Z</time>
      </trkpt>
      <trkpt lat="38.015111" lon="-3.672846">
        <ele>364.397318</ele>
        <time>2020-08-10T06:17:23.913Z</time>
      </trkpt>
      <trkpt lat="38.015095" lon="-3.672994">
        <ele>365.804746</ele>
        <time>2020-08-10T06:17:27.898Z</time>
      </trkpt>
      <trkpt lat="38.015080" lon="-3.673113">
        <ele>366.940148</ele>
        <time>2020-08-10T06:17:30.901Z</time>
      </trkpt>
      <trkpt lat="38.015058" lon="-3.673258">
        <ele>368.331348</ele>
        <time>2020-08-10T06:17:34.905Z</time>
      </trkpt>
      <trkpt lat="38.015031" lon="-3.673402">
        <ele>369.725918</ele>
        <time>2020-08-10T06:17:38.895Z</time>
      </trkpt>
      <trkpt lat="38.015010" lon="-3.673532">
        <ele>370.976177</ele>
        <time>2020-08-10T06:17:42.943Z</time>
      </trkpt>
      <trkpt lat="38.014980" lon="-3.673659">
        <ele>372.225317</ele>
        <time>2020-08-10T06:17:46.923Z</time>
      </trkpt>
      <trkpt lat="38.014938" lon="-3.673786">
        <ele>373.522971</ele>
        <time>2020-08-10T06:17:50.887Z</time>
      </trkpt>
      <trkpt lat="38.014898" lon="-3.673890">
        <ele>374.613320</ele>
        <time>2020-08-10T06:17:53.909Z</time>
      </trkpt>
      <trkpt lat="38.014842" lon="-3.674013">
        <ele>375.951732</ele>
        <time>2020-08-10T06:17:57.902Z</time>
      </trkpt>
      <trkpt lat="38.014765" lon="-3.674123">
        <ele>377.338054</ele>
        <time>2020-08-10T06:18:01.917Z</time>
      </trkpt>
      <trkpt lat="38.014679" lon="-3.674220">
        <ele>378.713851</ele>
        <time>2020-08-10T06:18:05.896Z</time>
      </trkpt>
      <trkpt lat="38.014589" lon="-3.674315">
        <ele>380.113638</ele>
        <time>2020-08-10T06:18:09.905Z</time>
      </trkpt>
      <trkpt lat="38.014519" lon="-3.674407">
        <ele>381.318630</ele>
        <time>2020-08-10T06:18:12.910Z</time>
      </trkpt>
      <trkpt lat="38.014448" lon="-3.674517">
        <ele>381.968626</ele>
        <time>2020-08-10T06:18:15.887Z</time>
      </trkpt>
      <trkpt lat="38.014373" lon="-3.674634">
        <ele>381.384459</ele>
        <time>2020-08-10T06:18:18.898Z</time>
      </trkpt>
      <trkpt lat="38.014282" lon="-3.674743">
        <ele>380.769388</ele>
        <time>2020-08-10T06:18:21.902Z</time>
      </trkpt>
      <trkpt lat="38.014209" lon="-3.674822">
        <ele>380.297812</ele>
        <time>2020-08-10T06:18:23.911Z</time>
      </trkpt>
      <trkpt lat="38.014119" lon="-3.674938">
        <ele>379.667285</ele>
        <time>2020-08-10T06:18:26.908Z</time>
      </trkpt>
      <trkpt lat="38.014031" lon="-3.675053">
        <ele>379.046401</ele>
        <time>2020-08-10T06:18:29.914Z</time>
      </trkpt>
      <trkpt lat="38.013958" lon="-3.675156">
        <ele>378.509836</ele>
        <time>2020-08-10T06:18:32.891Z</time>
      </trkpt>
      <trkpt lat="38.013899" lon="-3.675243">
        <ele>378.065260</ele>
        <time>2020-08-10T06:18:34.904Z</time>
      </trkpt>
      <trkpt lat="38.013836" lon="-3.675330">
        <ele>377.607614</ele>
        <time>2020-08-10T06:18:36.912Z</time>
      </trkpt>
      <trkpt lat="38.013741" lon="-3.675443">
        <ele>376.967603</ele>
        <time>2020-08-10T06:18:39.906Z</time>
      </trkpt>
      <trkpt lat="38.013651" lon="-3.675549">
        <ele>376.364057</ele>
        <time>2020-08-10T06:18:42.917Z</time>
      </trkpt>
      <trkpt lat="38.013567" lon="-3.675661">
        <ele>375.765175</ele>
        <time>2020-08-10T06:18:45.908Z</time>
      </trkpt>
      <trkpt lat="38.013483" lon="-3.675764">
        <ele>375.191036</ele>
        <time>2020-08-10T06:18:48.904Z</time>
      </trkpt>
      <trkpt lat="38.013390" lon="-3.675870">
        <ele>374.576597</ele>
        <time>2020-08-10T06:18:51.896Z</time>
      </trkpt>
      <trkpt lat="38.013302" lon="-3.675973">
        <ele>373.988157</ele>
        <time>2020-08-10T06:18:54.909Z</time>
      </trkpt>
      <trkpt lat="38.013208" lon="-3.676078">
        <ele>373.372617</ele>
        <time>2020-08-10T06:18:57.911Z</time>
      </trkpt>
      <trkpt lat="38.013112" lon="-3.676191">
        <ele>374.402452</ele>
        <time>2020-08-10T06:19:00.907Z</time>
      </trkpt>
      <trkpt lat="38.013016" lon="-3.676301">
        <ele>375.543149</ele>
        <time>2020-08-10T06:19:03.904Z</time>
      </trkpt>
      <trkpt lat="38.012934" lon="-3.676421">
        <ele>376.646960</ele>
        <time>2020-08-10T06:19:06.898Z</time>
      </trkpt>
      <trkpt lat="38.012844" lon="-3.676536">
        <ele>377.773328</ele>
        <time>2020-08-10T06:19:09.916Z</time>
      </trkpt>
      <trkpt lat="38.012754" lon="-3.676650">
        <ele>378.894776</ele>
        <time>2020-08-10T06:19:12.901Z</time>
      </trkpt>
      <trkpt lat="38.012663" lon="-3.676768">
        <ele>380.042181</ele>
        <time>2020-08-10T06:19:15.913Z</time>
      </trkpt>
      <trkpt lat="38.012576" lon="-3.676881">
        <ele>381.140080</ele>
        <time>2020-08-10T06:19:18.916Z</time>
      </trkpt>
      <trkpt lat="38.012496" lon="-3.676989">
        <ele>382.170171</ele>
        <time>2020-08-10T06:19:21.907Z</time>
      </trkpt>
      <trkpt lat="38.012419" lon="-3.677079">
        <ele>383.093400</ele>
        <time>2020-08-10T06:19:24.908Z</time>
      </trkpt>
      <trkpt lat="38.012340" lon="-3.677168">
        <ele>384.025054</ele>
        <time>2020-08-10T06:19:27.911Z</time>
      </trkpt>
      <trkpt lat="38.012277" lon="-3.677264">
        <ele>384.893256</ele>
        <time>2020-08-10T06:19:30.905Z</time>
      </trkpt>
      <trkpt lat="38.012202" lon="-3.677354">
        <ele>385.803589</ele>
        <time>2020-08-10T06:19:33.909Z</time>
      </trkpt>
      <trkpt lat="38.012134" lon="-3.677446">
        <ele>386.680182</ele>
        <time>2020-08-10T06:19:36.901Z</time>
      </trkpt>
      <trkpt lat="38.012061" lon="-3.677536">
        <ele>387.577779</ele>
        <time>2020-08-10T06:19:39.901Z</time>
      </trkpt>
      <trkpt lat="38.011989" lon="-3.677624">
        <ele>388.459375</ele>
        <time>2020-08-10T06:19:42.909Z</time>
      </trkpt>
      <trkpt lat="38.011913" lon="-3.677716">
        <ele>389.137332</ele>
        <time>2020-08-10T06:19:45.909Z</time>
      </trkpt>
      <trkpt lat="38.011840" lon="-3.677805">
        <ele>388.887116</ele>
        <time>2020-08-10T06:19:48.907Z</time>
      </trkpt>
      <trkpt lat="38.011766" lon="-3.677893">
        <ele>388.636447</ele>
        <time>2020-08-10T06:19:51.893Z</time>
      </trkpt>
      <trkpt lat="38.011697" lon="-3.677993">
        <ele>388.377558</ele>
        <time>2020-08-10T06:19:54.906Z</time>
      </trkpt>
      <trkpt lat="38.011629" lon="-3.678092">
        <ele>388.121762</ele>
        <time>2020-08-10T06:19:57.899Z</time>
      </trkpt>
      <trkpt lat="38.011563" lon="-3.678180">
        <ele>387.885137</ele>
        <time>2020-08-10T06:20:00.909Z</time>
      </trkpt>
      <trkpt lat="38.011506" lon="-3.678284">
        <ele>387.638399</ele>
        <time>2020-08-10T06:20:03.917Z</time>
      </trkpt>
      <trkpt lat="38.011433" lon="-3.678373">
        <ele>387.388182</ele>
        <time>2020-08-10T06:20:06.902Z</time>
      </trkpt>
      <trkpt lat="38.011360" lon="-3.678456">
        <ele>387.145914</ele>
        <time>2020-08-10T06:20:09.900Z</time>
      </trkpt>
      <trkpt lat="38.011289" lon="-3.678529">
        <ele>386.920045</ele>
        <time>2020-08-10T06:20:12.893Z</time>
      </trkpt>
      <trkpt lat="38.011216" lon="-3.678607">
        <ele>386.684163</ele>
        <time>2020-08-10T06:20:15.895Z</time>
      </trkpt>
      <trkpt lat="38.011151" lon="-3.678701">
        <ele>386.440579</ele>
        <time>2020-08-10T06:20:18.897Z</time>
      </trkpt>
      <trkpt lat="38.011085" lon="-3.678824">
        <ele>386.150743</ele>
        <time>2020-08-10T06:20:22.897Z</time>
      </trkpt>
      <trkpt lat="38.011009" lon="-3.678928">
        <ele>385.874480</ele>
        <time>2020-08-10T06:20:26.900Z</time>
      </trkpt>
      <trkpt lat="38.010935" lon="-3.679039">
        <ele>385.591289</ele>
        <time>2020-08-10T06:20:30.907Z</time>
      </trkpt>
      <trkpt lat="38.010881" lon="-3.679131">
        <ele>385.367852</ele>
        <time>2020-08-10T06:20:33.901Z</time>
      </trkpt>
      <trkpt lat="38.010814" lon="-3.679257">
        <ele>385.071792</ele>
        <time>2020-08-10T06:20:37.886Z</time>
      </trkpt>
      <trkpt lat="38.010761" lon="-3.679361">
        <ele>384.830562</ele>
        <time>2020-08-10T06:20:40.908Z</time>
      </trkpt>
      <trkpt lat="38.010707" lon="-3.679479">
        <ele>384.485363</ele>
        <time>2020-08-10T06:20:43.896Z</time>
      </trkpt>
      <trkpt lat="38.010651" lon="-3.679596">
        <ele>384.101598</ele>
        <time>2020-08-10T06:20:46.916Z</time>
      </trkpt>
      <trkpt lat="38.010580" lon="-3.679724">
        <ele>383.662769</ele>
        <time>2020-08-10T06:20:49.901Z</time>
      </trkpt>
      <trkpt lat="38.010525" lon="-3.679857">
        <ele>383.241692</ele>
        <time>2020-08-10T06:20:52.908Z</time>
      </trkpt>
      <trkpt lat="38.010469" lon="-3.679980">
        <ele>382.843455</ele>
        <time>2020-08-10T06:20:55.900Z</time>
      </trkpt>
      <trkpt lat="38.010415" lon="-3.680104">
        <ele>382.446279</ele>
        <time>2020-08-10T06:20:58.909Z</time>
      </trkpt>
      <trkpt lat="38.010359" lon="-3.680232">
        <ele>382.035845</ele>
        <time>2020-08-10T06:21:01.910Z</time>
      </trkpt>
      <trkpt lat="38.010301" lon="-3.680355">
        <ele>381.633999</ele>
        <time>2020-08-10T06:21:04.895Z</time>
      </trkpt>
      <trkpt lat="38.010240" lon="-3.680477">
        <ele>381.228939</ele>
        <time>2020-08-10T06:21:07.913Z</time>
      </trkpt>
      <trkpt lat="38.010184" lon="-3.680597">
        <ele>380.837960</ele>
        <time>2020-08-10T06:21:10.913Z</time>
      </trkpt>
      <trkpt lat="38.010126" lon="-3.680717">
        <ele>380.443307</ele>
        <time>2020-08-10T06:21:13.905Z</time>
      </trkpt>
      <trkpt lat="38.010062" lon="-3.680847">
        <ele>380.013580</ele>
        <time>2020-08-10T06:21:16.907Z</time>
      </trkpt>
      <trkpt lat="38.009991" lon="-3.680986">
        <ele>379.549194</ele>
        <time>2020-08-10T06:21:19.901Z</time>
      </trkpt>
      <trkpt lat="38.009941" lon="-3.681137">
        <ele>379.090026</ele>
        <time>2020-08-10T06:21:22.912Z</time>
      </trkpt>
      <trkpt lat="38.009939" lon="-3.681294">
        <ele>378.649842</ele>
        <time>2020-08-10T06:21:25.920Z</time>
      </trkpt>
      <trkpt lat="38.009966" lon="-3.681445">
        <ele>378.406918</ele>
        <time>2020-08-10T06:21:28.916Z</time>
      </trkpt>
      <trkpt lat="38.009986" lon="-3.681592">
        <ele>378.602418</ele>
        <time>2020-08-10T06:21:31.903Z</time>
      </trkpt>
      <trkpt lat="38.010003" lon="-3.681728">
        <ele>378.782880</ele>
        <time>2020-08-10T06:21:34.901Z</time>
      </trkpt>
      <trkpt lat="38.010023" lon="-3.681843">
        <ele>378.937220</ele>
        <time>2020-08-10T06:21:37.902Z</time>
      </trkpt>
      <trkpt lat="38.010046" lon="-3.681966">
        <ele>379.102894</ele>
        <time>2020-08-10T06:21:40.898Z</time>
      </trkpt>
      <trkpt lat="38.010051" lon="-3.682115">
        <ele>379.298341</ele>
        <time>2020-08-10T06:21:44.906Z</time>
      </trkpt>
      <trkpt lat="38.010003" lon="-3.682218">
        <ele>379.455170</ele>
        <time>2020-08-10T06:21:47.895Z</time>
      </trkpt>
      <trkpt lat="38.009942" lon="-3.682304">
        <ele>379.606819</ele>
        <time>2020-08-10T06:21:50.900Z</time>
      </trkpt>
      <trkpt lat="38.009887" lon="-3.682398">
        <ele>379.760263</ele>
        <time>2020-08-10T06:21:53.910Z</time>
      </trkpt>
      <trkpt lat="38.009834" lon="-3.682496">
        <ele>379.916040</ele>
        <time>2020-08-10T06:21:56.910Z</time>
      </trkpt>
      <trkpt lat="38.009766" lon="-3.682609">
        <ele>380.102383</ele>
        <time>2020-08-10T06:22:00.913Z</time>
      </trkpt>
      <trkpt lat="38.009697" lon="-3.682715">
        <ele>380.282578</ele>
        <time>2020-08-10T06:22:04.904Z</time>
      </trkpt>
      <trkpt lat="38.009626" lon="-3.682803">
        <ele>380.447645</ele>
        <time>2020-08-10T06:22:07.911Z</time>
      </trkpt>
      <trkpt lat="38.009540" lon="-3.682918">
        <ele>380.655434</ele>
        <time>2020-08-10T06:22:10.914Z</time>
      </trkpt>
      <trkpt lat="38.009465" lon="-3.683019">
        <ele>380.837321</ele>
        <time>2020-08-10T06:22:12.892Z</time>
      </trkpt>
      <trkpt lat="38.009401" lon="-3.683114">
        <ele>381.001129</ele>
        <time>2020-08-10T06:22:14.911Z</time>
      </trkpt>
      <trkpt lat="38.009344" lon="-3.683219">
        <ele>381.168236</ele>
        <time>2020-08-10T06:22:16.908Z</time>
      </trkpt>
      <trkpt lat="38.009279" lon="-3.683315">
        <ele>381.334121</ele>
        <time>2020-08-10T06:22:18.925Z</time>
      </trkpt>
      <trkpt lat="38.009202" lon="-3.683419">
        <ele>380.944089</ele>
        <time>2020-08-10T06:22:20.907Z</time>
      </trkpt>
      <trkpt lat="38.009126" lon="-3.683510">
        <ele>380.571056</ele>
        <time>2020-08-10T06:22:22.910Z</time>
      </trkpt>
      <trkpt lat="38.009060" lon="-3.683598">
        <ele>380.229290</ele>
        <time>2020-08-10T06:22:24.908Z</time>
      </trkpt>
      <trkpt lat="38.008996" lon="-3.683693">
        <ele>379.877684</ele>
        <time>2020-08-10T06:22:26.911Z</time>
      </trkpt>
      <trkpt lat="38.008901" lon="-3.683818">
        <ele>379.389132</ele>
        <time>2020-08-10T06:22:29.900Z</time>
      </trkpt>
      <trkpt lat="38.008816" lon="-3.683941">
        <ele>378.928899</ele>
        <time>2020-08-10T06:22:32.900Z</time>
      </trkpt>
      <trkpt lat="38.008733" lon="-3.684062">
        <ele>378.477602</ele>
        <time>2020-08-10T06:22:35.907Z</time>
      </trkpt>
      <trkpt lat="38.008654" lon="-3.684190">
        <ele>378.020214</ele>
        <time>2020-08-10T06:22:38.905Z</time>
      </trkpt>
      <trkpt lat="38.008577" lon="-3.684324">
        <ele>377.553667</ele>
        <time>2020-08-10T06:22:41.914Z</time>
      </trkpt>
      <trkpt lat="38.008507" lon="-3.684424">
        <ele>377.177380</ele>
        <time>2020-08-10T06:22:43.904Z</time>
      </trkpt>
      <trkpt lat="38.008442" lon="-3.684515">
        <ele>376.831859</ele>
        <time>2020-08-10T06:22:45.901Z</time>
      </trkpt>
      <trkpt lat="38.008380" lon="-3.684600">
        <ele>376.506019</ele>
        <time>2020-08-10T06:22:47.901Z</time>
      </trkpt>
      <trkpt lat="38.008318" lon="-3.684731">
        <ele>376.076136</ele>
        <time>2020-08-10T06:22:50.906Z</time>
      </trkpt>
      <trkpt lat="38.008228" lon="-3.684873">
        <ele>375.563483</ele>
        <time>2020-08-10T06:22:53.914Z</time>
      </trkpt>
      <trkpt lat="38.008161" lon="-3.684993">
        <ele>375.149753</ele>
        <time>2020-08-10T06:22:56.900Z</time>
      </trkpt>
      <trkpt lat="38.008078" lon="-3.685094">
        <ele>373.481162</ele>
        <time>2020-08-10T06:22:59.912Z</time>
      </trkpt>
      <trkpt lat="38.008007" lon="-3.685208">
        <ele>370.165867</ele>
        <time>2020-08-10T06:23:02.901Z</time>
      </trkpt>
      <trkpt lat="38.007919" lon="-3.685330">
        <ele>366.392246</ele>
        <time>2020-08-10T06:23:05.904Z</time>
      </trkpt>
      <trkpt lat="38.007842" lon="-3.685445">
        <ele>362.949146</ele>
        <time>2020-08-10T06:23:08.901Z</time>
      </trkpt>
      <trkpt lat="38.007769" lon="-3.685569">
        <ele>359.417640</ele>
        <time>2020-08-10T06:23:11.898Z</time>
      </trkpt>
      <trkpt lat="38.007691" lon="-3.685682">
        <ele>355.990168</ele>
        <time>2020-08-10T06:23:14.912Z</time>
      </trkpt>
      <trkpt lat="38.007605" lon="-3.685785">
        <ele>352.566242</ele>
        <time>2020-08-10T06:23:17.905Z</time>
      </trkpt>
      <trkpt lat="38.007528" lon="-3.685891">
        <ele>349.276915</ele>
        <time>2020-08-10T06:23:20.905Z</time>
      </trkpt>
      <trkpt lat="38.007459" lon="-3.686010">
        <ele>345.906020</ele>
        <time>2020-08-10T06:23:23.918Z</time>
      </trkpt>
      <trkpt lat="38.007371" lon="-3.686143">
        <ele>341.943646</ele>
        <time>2020-08-10T06:23:26.912Z</time>
      </trkpt>
      <trkpt lat="38.007313" lon="-3.686289">
        <ele>338.213223</ele>
        <time>2020-08-10T06:23:29.909Z</time>
      </trkpt>
      <trkpt lat="38.007249" lon="-3.686399">
        <ele>335.093509</ele>
        <time>2020-08-10T06:23:32.912Z</time>
      </trkpt>
      <trkpt lat="38.007185" lon="-3.686484">
        <ele>332.411152</ele>
        <time>2020-08-10T06:23:34.901Z</time>
      </trkpt>
      <trkpt lat="38.007125" lon="-3.686571">
        <ele>329.773303</ele>
        <time>2020-08-10T06:23:36.907Z</time>
      </trkpt>
      <trkpt lat="38.007059" lon="-3.686651">
        <ele>327.130652</ele>
        <time>2020-08-10T06:23:38.898Z</time>
      </trkpt>
      <trkpt lat="38.006981" lon="-3.686767">
        <ele>323.651385</ele>
        <time>2020-08-10T06:23:41.886Z</time>
      </trkpt>
      <trkpt lat="38.006908" lon="-3.686883">
        <ele>322.683165</ele>
        <time>2020-08-10T06:23:44.914Z</time>
      </trkpt>
      <trkpt lat="38.006824" lon="-3.686997">
        <ele>322.472505</ele>
        <time>2020-08-10T06:23:47.902Z</time>
      </trkpt>
      <trkpt lat="38.006741" lon="-3.687119">
        <ele>322.254958</ele>
        <time>2020-08-10T06:23:50.907Z</time>
      </trkpt>
      <trkpt lat="38.006674" lon="-3.687201">
        <ele>322.095520</ele>
        <time>2020-08-10T06:23:52.905Z</time>
      </trkpt>
      <trkpt lat="38.006602" lon="-3.687293">
        <ele>321.920508</ele>
        <time>2020-08-10T06:23:54.895Z</time>
      </trkpt>
      <trkpt lat="38.006530" lon="-3.687398">
        <ele>321.732639</ele>
        <time>2020-08-10T06:23:56.896Z</time>
      </trkpt>
      <trkpt lat="38.006452" lon="-3.687496">
        <ele>321.544632</ele>
        <time>2020-08-10T06:23:58.910Z</time>
      </trkpt>
      <trkpt lat="38.006380" lon="-3.687606">
        <ele>321.351622</ele>
        <time>2020-08-10T06:24:00.920Z</time>
      </trkpt>
      <trkpt lat="38.006327" lon="-3.687736">
        <ele>321.154066</ele>
        <time>2020-08-10T06:24:02.907Z</time>
      </trkpt>
      <trkpt lat="38.006261" lon="-3.687839">
        <ele>320.974880</ele>
        <time>2020-08-10T06:24:04.916Z</time>
      </trkpt>
      <trkpt lat="38.006194" lon="-3.687934">
        <ele>320.802798</ele>
        <time>2020-08-10T06:24:06.911Z</time>
      </trkpt>
      <trkpt lat="38.006104" lon="-3.688065">
        <ele>320.568216</ele>
        <time>2020-08-10T06:24:09.905Z</time>
      </trkpt>
      <trkpt lat="38.006042" lon="-3.688151">
        <ele>320.410888</ele>
        <time>2020-08-10T06:24:11.902Z</time>
      </trkpt>
      <trkpt lat="38.005973" lon="-3.688236">
        <ele>320.246172</ele>
        <time>2020-08-10T06:24:13.915Z</time>
      </trkpt>
      <trkpt lat="38.005901" lon="-3.688324">
        <ele>320.074947</ele>
        <time>2020-08-10T06:24:15.902Z</time>
      </trkpt>
      <trkpt lat="38.005820" lon="-3.688456">
        <ele>319.849132</ele>
        <time>2020-08-10T06:24:18.912Z</time>
      </trkpt>
      <trkpt lat="38.005739" lon="-3.688588">
        <ele>319.551821</ele>
        <time>2020-08-10T06:24:21.900Z</time>
      </trkpt>
      <trkpt lat="38.005670" lon="-3.688667">
        <ele>319.305744</ele>
        <time>2020-08-10T06:24:25.906Z</time>
      </trkpt>
      <trkpt lat="38.005620" lon="-3.688789">
        <ele>319.018817</ele>
        <time>2020-08-10T06:24:32.901Z</time>
      </trkpt>
      <trkpt lat="38.005548" lon="-3.688912">
        <ele>318.699109</ele>
        <time>2020-08-10T06:24:36.904Z</time>
      </trkpt>
      <trkpt lat="38.005478" lon="-3.689011">
        <ele>318.421571</ele>
        <time>2020-08-10T06:24:39.903Z</time>
      </trkpt>
      <trkpt lat="38.005402" lon="-3.689110">
        <ele>318.133180</ele>
        <time>2020-08-10T06:24:42.902Z</time>
      </trkpt>
      <trkpt lat="38.005322" lon="-3.689211">
        <ele>317.834372</ele>
        <time>2020-08-10T06:24:45.906Z</time>
      </trkpt>
      <trkpt lat="38.005249" lon="-3.689307">
        <ele>317.556004</ele>
        <time>2020-08-10T06:24:48.893Z</time>
      </trkpt>
      <trkpt lat="38.005181" lon="-3.689411">
        <ele>317.274027</ele>
        <time>2020-08-10T06:24:51.905Z</time>
      </trkpt>
      <trkpt lat="38.005118" lon="-3.689525">
        <ele>316.983496</ele>
        <time>2020-08-10T06:24:55.903Z</time>
      </trkpt>
      <trkpt lat="38.005041" lon="-3.689631">
        <ele>316.682680</ele>
        <time>2020-08-10T06:24:59.903Z</time>
      </trkpt>
      <trkpt lat="38.004980" lon="-3.689719">
        <ele>316.438129</ele>
        <time>2020-08-10T06:25:02.915Z</time>
      </trkpt>
      <trkpt lat="38.004923" lon="-3.689813">
        <ele>316.190642</ele>
        <time>2020-08-10T06:25:05.908Z</time>
      </trkpt>
      <trkpt lat="38.004859" lon="-3.689904">
        <ele>315.936137</ele>
        <time>2020-08-10T06:25:08.909Z</time>
      </trkpt>
      <trkpt lat="38.004800" lon="-3.690001">
        <ele>315.680459</ele>
        <time>2020-08-10T06:25:11.982Z</time>
      </trkpt>
      <trkpt lat="38.004735" lon="-3.690085">
        <ele>315.434808</ele>
        <time>2020-08-10T06:25:14.908Z</time>
      </trkpt>
      <trkpt lat="38.004675" lon="-3.690175">
        <ele>315.188827</ele>
        <time>2020-08-10T06:25:17.906Z</time>
      </trkpt>
      <trkpt lat="38.004616" lon="-3.690271">
        <ele>314.950098</ele>
        <time>2020-08-10T06:25:20.904Z</time>
      </trkpt>
      <trkpt lat="38.004541" lon="-3.690376">
        <ele>314.734227</ele>
        <time>2020-08-10T06:25:23.906Z</time>
      </trkpt>
      <trkpt lat="38.004471" lon="-3.690479">
        <ele>314.527042</ele>
        <time>2020-08-10T06:25:26.919Z</time>
      </trkpt>
      <trkpt lat="38.004395" lon="-3.690592">
        <ele>314.300743</ele>
        <time>2020-08-10T06:25:29.907Z</time>
      </trkpt>
      <trkpt lat="38.004323" lon="-3.690707">
        <ele>314.077009</ele>
        <time>2020-08-10T06:25:32.909Z</time>
      </trkpt>
      <trkpt lat="38.004247" lon="-3.690825">
        <ele>313.844865</ele>
        <time>2020-08-10T06:25:35.907Z</time>
      </trkpt>
      <trkpt lat="38.004148" lon="-3.690969">
        <ele>313.553768</ele>
        <time>2020-08-10T06:25:39.908Z</time>
      </trkpt>
      <trkpt lat="38.004071" lon="-3.691086">
        <ele>313.321566</ele>
        <time>2020-08-10T06:25:42.914Z</time>
      </trkpt>
      <trkpt lat="38.003993" lon="-3.691201">
        <ele>313.090437</ele>
        <time>2020-08-10T06:25:45.899Z</time>
      </trkpt>
      <trkpt lat="38.003915" lon="-3.691326">
        <ele>312.847561</ele>
        <time>2020-08-10T06:25:48.906Z</time>
      </trkpt>
      <trkpt lat="38.003840" lon="-3.691451">
        <ele>312.608241</ele>
        <time>2020-08-10T06:25:51.906Z</time>
      </trkpt>
      <trkpt lat="38.003759" lon="-3.691563">
        <ele>312.376675</ele>
        <time>2020-08-10T06:25:54.898Z</time>
      </trkpt>
      <trkpt lat="38.003682" lon="-3.691682">
        <ele>312.142126</ele>
        <time>2020-08-10T06:25:57.903Z</time>
      </trkpt>
      <trkpt lat="38.003602" lon="-3.691801">
        <ele>311.903854</ele>
        <time>2020-08-10T06:26:00.914Z</time>
      </trkpt>
      <trkpt lat="38.003524" lon="-3.691917">
        <ele>311.671568</ele>
        <time>2020-08-10T06:26:03.895Z</time>
      </trkpt>
      <trkpt lat="38.003449" lon="-3.692031">
        <ele>311.604139</ele>
        <time>2020-08-10T06:26:06.907Z</time>
      </trkpt>
      <trkpt lat="38.003357" lon="-3.692151">
        <ele>311.934772</ele>
        <time>2020-08-10T06:26:09.920Z</time>
      </trkpt>
      <trkpt lat="38.003273" lon="-3.692282">
        <ele>312.268303</ele>
        <time>2020-08-10T06:26:12.897Z</time>
      </trkpt>
      <trkpt lat="38.003187" lon="-3.692415">
        <ele>312.608063</ele>
        <time>2020-08-10T06:26:15.914Z</time>
      </trkpt>
      <trkpt lat="38.003119" lon="-3.692507">
        <ele>312.857163</ele>
        <time>2020-08-10T06:26:17.914Z</time>
      </trkpt>
      <trkpt lat="38.003051" lon="-3.692604">
        <ele>313.113554</ele>
        <time>2020-08-10T06:26:19.906Z</time>
      </trkpt>
      <trkpt lat="38.002988" lon="-3.692700">
        <ele>313.360272</ele>
        <time>2020-08-10T06:26:21.906Z</time>
      </trkpt>
      <trkpt lat="38.002933" lon="-3.692790">
        <ele>313.585191</ele>
        <time>2020-08-10T06:26:23.909Z</time>
      </trkpt>
      <trkpt lat="38.002870" lon="-3.692875">
        <ele>313.815637</ele>
        <time>2020-08-10T06:26:25.899Z</time>
      </trkpt>
      <trkpt lat="38.002815" lon="-3.693028">
        <ele>314.147738</ele>
        <time>2020-08-10T06:26:28.906Z</time>
      </trkpt>
      <trkpt lat="38.002817" lon="-3.693152">
        <ele>314.392666</ele>
        <time>2020-08-10T06:26:30.905Z</time>
      </trkpt>
      <trkpt lat="38.002815" lon="-3.693301">
        <ele>314.686955</ele>
        <time>2020-08-10T06:26:32.912Z</time>
      </trkpt>
      <trkpt lat="38.002822" lon="-3.693454">
        <ele>314.989610</ele>
        <time>2020-08-10T06:26:34.901Z</time>
      </trkpt>
      <trkpt lat="38.002834" lon="-3.693621">
        <ele>315.320771</ele>
        <time>2020-08-10T06:26:36.901Z</time>
      </trkpt>
      <trkpt lat="38.002851" lon="-3.693758">
        <ele>315.594654</ele>
        <time>2020-08-10T06:26:38.902Z</time>
      </trkpt>
      <trkpt lat="38.002854" lon="-3.693901">
        <ele>315.877152</ele>
        <time>2020-08-10T06:26:42.688Z</time>
      </trkpt>
      <trkpt lat="38.002878" lon="-3.694028">
        <ele>316.485509</ele>
        <time>2020-08-10T06:26:46.699Z</time>
      </trkpt>
      <trkpt lat="38.002871" lon="-3.694147">
        <ele>317.452834</ele>
        <time>2020-08-10T06:27:12.695Z</time>
      </trkpt>
      <trkpt lat="38.002885" lon="-3.694259">
        <ele>318.372083</ele>
        <time>2020-08-10T06:27:22.687Z</time>
      </trkpt>
      <trkpt lat="38.002899" lon="-3.694373">
        <ele>319.307347</ele>
        <time>2020-08-10T06:27:31.703Z</time>
      </trkpt>
      <trkpt lat="38.002898" lon="-3.694494">
        <ele>320.288253</ele>
        <time>2020-08-10T06:27:41.697Z</time>
      </trkpt>
      <trkpt lat="38.002893" lon="-3.694612">
        <ele>321.246169</ele>
        <time>2020-08-10T06:27:50.704Z</time>
      </trkpt>
      <trkpt lat="38.002893" lon="-3.694726">
        <ele>322.170277</ele>
        <time>2020-08-10T06:28:02.704Z</time>
      </trkpt>
      <trkpt lat="38.002891" lon="-3.694840">
        <ele>323.094615</ele>
        <time>2020-08-10T06:28:12.705Z</time>
      </trkpt>
      <trkpt lat="38.002869" lon="-3.694958">
        <ele>324.077559</ele>
        <time>2020-08-10T06:28:20.690Z</time>
      </trkpt>
      <trkpt lat="38.002846" lon="-3.695080">
        <ele>325.094428</ele>
        <time>2020-08-10T06:28:29.687Z</time>
      </trkpt>
      <trkpt lat="38.002812" lon="-3.695195">
        <ele>326.090102</ele>
        <time>2020-08-10T06:28:38.706Z</time>
      </trkpt>
      <trkpt lat="38.002744" lon="-3.695274">
        <ele>327.038499</ele>
        <time>2020-08-10T06:28:52.687Z</time>
      </trkpt>
      <trkpt lat="38.002675" lon="-3.695351">
        <ele>327.983726</ele>
        <time>2020-08-10T06:28:56.686Z</time>
      </trkpt>
      <trkpt lat="38.002600" lon="-3.695453">
        <ele>329.114633</ele>
        <time>2020-08-10T06:29:00.693Z</time>
      </trkpt>
      <trkpt lat="38.002540" lon="-3.695569">
        <ele>330.239443</ele>
        <time>2020-08-10T06:29:04.700Z</time>
      </trkpt>
      <trkpt lat="38.002485" lon="-3.695660">
        <ele>331.169115</ele>
        <time>2020-08-10T06:29:07.700Z</time>
      </trkpt>
      <trkpt lat="38.002411" lon="-3.695771">
        <ele>332.347739</ele>
        <time>2020-08-10T06:29:11.698Z</time>
      </trkpt>
      <trkpt lat="38.002343" lon="-3.695891">
        <ele>333.545906</ele>
        <time>2020-08-10T06:29:15.695Z</time>
      </trkpt>
      <trkpt lat="38.002291" lon="-3.695987">
        <ele>334.490237</ele>
        <time>2020-08-10T06:29:18.702Z</time>
      </trkpt>
      <trkpt lat="38.002219" lon="-3.696109">
        <ele>333.704559</ele>
        <time>2020-08-10T06:29:22.700Z</time>
      </trkpt>
      <trkpt lat="38.002140" lon="-3.696213">
        <ele>332.903758</ele>
        <time>2020-08-10T06:29:26.699Z</time>
      </trkpt>
      <trkpt lat="38.002074" lon="-3.696313">
        <ele>332.180633</ele>
        <time>2020-08-10T06:29:30.688Z</time>
      </trkpt>
      <trkpt lat="38.002010" lon="-3.696406">
        <ele>331.496146</ele>
        <time>2020-08-10T06:29:34.705Z</time>
      </trkpt>
      <trkpt lat="38.001931" lon="-3.696513">
        <ele>330.683289</ele>
        <time>2020-08-10T06:29:39.689Z</time>
      </trkpt>
      <trkpt lat="38.001856" lon="-3.696618">
        <ele>329.897656</ele>
        <time>2020-08-10T06:29:43.703Z</time>
      </trkpt>
      <trkpt lat="38.001789" lon="-3.696715">
        <ele>329.182581</ele>
        <time>2020-08-10T06:29:47.699Z</time>
      </trkpt>
      <trkpt lat="38.001709" lon="-3.696814">
        <ele>328.396476</ele>
        <time>2020-08-10T06:29:51.698Z</time>
      </trkpt>
      <trkpt lat="38.001630" lon="-3.696916">
        <ele>327.603617</ele>
        <time>2020-08-10T06:29:55.688Z</time>
      </trkpt>
      <trkpt lat="38.001553" lon="-3.697016">
        <ele>326.828526</ele>
        <time>2020-08-10T06:29:59.707Z</time>
      </trkpt>
      <trkpt lat="38.001489" lon="-3.697107">
        <ele>326.152347</ele>
        <time>2020-08-10T06:30:02.709Z</time>
      </trkpt>
      <trkpt lat="38.001435" lon="-3.697206">
        <ele>325.484867</ele>
        <time>2020-08-10T06:30:05.699Z</time>
      </trkpt>
      <trkpt lat="38.001386" lon="-3.697304">
        <ele>324.841450</ele>
        <time>2020-08-10T06:30:09.714Z</time>
      </trkpt>
      <trkpt lat="38.001337" lon="-3.697410">
        <ele>324.160170</ele>
        <time>2020-08-10T06:30:14.690Z</time>
      </trkpt>
      <trkpt lat="38.001269" lon="-3.697504">
        <ele>323.452775</ele>
        <time>2020-08-10T06:30:18.686Z</time>
      </trkpt>
      <trkpt lat="38.001170" lon="-3.697571">
        <ele>322.663444</ele>
        <time>2020-08-10T06:30:22.686Z</time>
      </trkpt>
      <trkpt lat="38.001055" lon="-3.697569">
        <ele>321.887386</ele>
        <time>2020-08-10T06:30:26.702Z</time>
      </trkpt>
      <trkpt lat="38.000951" lon="-3.697545">
        <ele>322.556845</ele>
        <time>2020-08-10T06:30:30.703Z</time>
      </trkpt>
      <trkpt lat="38.000868" lon="-3.697498">
        <ele>323.132462</ele>
        <time>2020-08-10T06:30:33.705Z</time>
      </trkpt>
      <trkpt lat="38.000769" lon="-3.697421">
        <ele>323.867843</ele>
        <time>2020-08-10T06:30:37.689Z</time>
      </trkpt>
      <trkpt lat="38.000686" lon="-3.697346">
        <ele>324.513145</ele>
        <time>2020-08-10T06:30:40.720Z</time>
      </trkpt>
      <trkpt lat="38.000615" lon="-3.697253">
        <ele>325.159372</ele>
        <time>2020-08-10T06:30:44.706Z</time>
      </trkpt>
      <trkpt lat="38.000533" lon="-3.697168">
        <ele>325.829929</ele>
        <time>2020-08-10T06:30:48.703Z</time>
      </trkpt>
      <trkpt lat="38.000429" lon="-3.697136">
        <ele>326.507670</ele>
        <time>2020-08-10T06:30:53.698Z</time>
      </trkpt>
      <trkpt lat="38.000319" lon="-3.697148">
        <ele>327.206896</ele>
        <time>2020-08-10T06:30:57.687Z</time>
      </trkpt>
      <trkpt lat="38.000234" lon="-3.697224">
        <ele>327.865420</ele>
        <time>2020-08-10T06:31:00.703Z</time>
      </trkpt>
      <trkpt lat="38.000165" lon="-3.697323">
        <ele>328.525021</ele>
        <time>2020-08-10T06:31:03.689Z</time>
      </trkpt>
      <trkpt lat="38.000100" lon="-3.697410">
        <ele>329.123337</ele>
        <time>2020-08-10T06:31:06.697Z</time>
      </trkpt>
      <trkpt lat="38.000040" lon="-3.697512">
        <ele>329.758573</ele>
        <time>2020-08-10T06:31:09.692Z</time>
      </trkpt>
      <trkpt lat="37.999992" lon="-3.697644">
        <ele>330.484098</ele>
        <time>2020-08-10T06:31:13.685Z</time>
      </trkpt>
      <trkpt lat="37.999951" lon="-3.697757">
        <ele>331.104952</ele>
        <time>2020-08-10T06:31:17.697Z</time>
      </trkpt>
      <trkpt lat="37.999902" lon="-3.697882">
        <ele>331.801710</ele>
        <time>2020-08-10T06:31:22.695Z</time>
      </trkpt>
      <trkpt lat="37.999870" lon="-3.697989">
        <ele>332.372875</ele>
        <time>2020-08-10T06:31:26.700Z</time>
      </trkpt>
      <trkpt lat="37.999813" lon="-3.698099">
        <ele>333.029906</ele>
        <time>2020-08-10T06:31:31.700Z</time>
      </trkpt>
      <trkpt lat="37.999777" lon="-3.698208">
        <ele>332.965086</ele>
        <time>2020-08-10T06:31:36.690Z</time>
      </trkpt>
      <trkpt lat="37.999723" lon="-3.698308">
        <ele>332.459959</ele>
        <time>2020-08-10T06:31:41.685Z</time>
      </trkpt>
      <trkpt lat="37.999668" lon="-3.698420">
        <ele>331.910076</ele>
        <time>2020-08-10T06:31:46.698Z</time>
      </trkpt>
      <trkpt lat="37.999638" lon="-3.698555">
        <ele>331.325618</ele>
        <time>2020-08-10T06:31:51.697Z</time>
      </trkpt>
      <trkpt lat="37.999587" lon="-3.698657">
        <ele>330.822267</ele>
        <time>2020-08-10T06:31:55.686Z</time>
      </trkpt>
      <trkpt lat="37.999543" lon="-3.698772">
        <ele>330.289588</ele>
        <time>2020-08-10T06:31:59.703Z</time>
      </trkpt>
      <trkpt lat="37.999481" lon="-3.698883">
        <ele>329.722666</ele>
        <time>2020-08-10T06:32:03.694Z</time>
      </trkpt>
      <trkpt lat="37.999404" lon="-3.698976">
        <ele>329.160579</ele>
        <time>2020-08-10T06:32:07.700Z</time>
      </trkpt>
      <trkpt lat="37.999330" lon="-3.699076">
        <ele>328.588973</ele>
        <time>2020-08-10T06:32:11.693Z</time>
      </trkpt>
      <trkpt lat="37.999262" lon="-3.699175">
        <ele>328.041746</ele>
        <time>2020-08-10T06:32:15.691Z</time>
      </trkpt>
      <trkpt lat="37.999195" lon="-3.699264">
        <ele>327.528871</ele>
        <time>2020-08-10T06:32:19.702Z</time>
      </trkpt>
      <trkpt lat="37.999129" lon="-3.699352">
        <ele>327.022660</ele>
        <time>2020-08-10T06:32:23.702Z</time>
      </trkpt>
      <trkpt lat="37.999075" lon="-3.699463">
        <ele>326.479102</ele>
        <time>2020-08-10T06:32:27.691Z</time>
      </trkpt>
      <trkpt lat="37.999051" lon="-3.699575">
        <ele>325.995469</ele>
        <time>2020-08-10T06:32:31.712Z</time>
      </trkpt>
      <trkpt lat="37.999054" lon="-3.699712">
        <ele>325.424392</ele>
        <time>2020-08-10T06:32:36.692Z</time>
      </trkpt>
      <trkpt lat="37.999028" lon="-3.699831">
        <ele>324.909832</ele>
        <time>2020-08-10T06:32:40.705Z</time>
      </trkpt>
      <trkpt lat="37.998995" lon="-3.699950">
        <ele>324.384170</ele>
        <time>2020-08-10T06:32:44.692Z</time>
      </trkpt>
      <trkpt lat="37.998947" lon="-3.700066">
        <ele>323.838229</ele>
        <time>2020-08-10T06:32:48.681Z</time>
      </trkpt>
      <trkpt lat="37.998895" lon="-3.700173">
        <ele>323.668590</ele>
        <time>2020-08-10T06:32:53.697Z</time>
      </trkpt>
      <trkpt lat="37.998851" lon="-3.700277">
        <ele>323.574630</ele>
        <time>2020-08-10T06:32:57.698Z</time>
      </trkpt>
      <trkpt lat="37.998806" lon="-3.700382">
        <ele>323.479489</ele>
        <time>2020-08-10T06:33:01.705Z</time>
      </trkpt>
      <trkpt lat="37.998762" lon="-3.700486">
        <ele>323.385529</ele>
        <time>2020-08-10T06:33:04.699Z</time>
      </trkpt>
      <trkpt lat="37.998714" lon="-3.700588">
        <ele>323.290962</ele>
        <time>2020-08-10T06:33:07.695Z</time>
      </trkpt>
      <trkpt lat="37.998664" lon="-3.700684">
        <ele>323.199364</ele>
        <time>2020-08-10T06:33:10.701Z</time>
      </trkpt>
      <trkpt lat="37.998614" lon="-3.700813">
        <ele>323.084931</ele>
        <time>2020-08-10T06:33:14.708Z</time>
      </trkpt>
      <trkpt lat="37.998566" lon="-3.700925">
        <ele>322.983448</ele>
        <time>2020-08-10T06:33:18.695Z</time>
      </trkpt>
      <trkpt lat="37.998523" lon="-3.701060">
        <ele>322.867542</ele>
        <time>2020-08-10T06:33:22.695Z</time>
      </trkpt>
      <trkpt lat="37.998494" lon="-3.701172">
        <ele>322.773700</ele>
        <time>2020-08-10T06:33:25.692Z</time>
      </trkpt>
      <trkpt lat="37.998456" lon="-3.701286">
        <ele>322.675172</ele>
        <time>2020-08-10T06:33:28.702Z</time>
      </trkpt>
      <trkpt lat="37.998418" lon="-3.701417">
        <ele>322.564055</ele>
        <time>2020-08-10T06:33:31.698Z</time>
      </trkpt>
      <trkpt lat="37.998376" lon="-3.701562">
        <ele>322.441085</ele>
        <time>2020-08-10T06:33:34.704Z</time>
      </trkpt>
      <trkpt lat="37.998339" lon="-3.701702">
        <ele>322.323545</ele>
        <time>2020-08-10T06:33:37.690Z</time>
      </trkpt>
      <trkpt lat="37.998306" lon="-3.701832">
        <ele>322.214828</ele>
        <time>2020-08-10T06:33:40.689Z</time>
      </trkpt>
      <trkpt lat="37.998271" lon="-3.701964">
        <ele>322.103967</ele>
        <time>2020-08-10T06:33:43.698Z</time>
      </trkpt>
      <trkpt lat="37.998229" lon="-3.702107">
        <ele>321.982490</ele>
        <time>2020-08-10T06:33:46.696Z</time>
      </trkpt>
      <trkpt lat="37.998190" lon="-3.702255">
        <ele>321.720029</ele>
        <time>2020-08-10T06:33:49.702Z</time>
      </trkpt>
      <trkpt lat="37.998173" lon="-3.702411">
        <ele>321.369951</ele>
        <time>2020-08-10T06:33:52.703Z</time>
      </trkpt>
      <trkpt lat="37.998165" lon="-3.702564">
        <ele>321.029093</ele>
        <time>2020-08-10T06:33:55.700Z</time>
      </trkpt>
      <trkpt lat="37.998159" lon="-3.702720">
        <ele>320.681902</ele>
        <time>2020-08-10T06:33:58.700Z</time>
      </trkpt>
      <trkpt lat="37.998198" lon="-3.702865">
        <ele>320.341318</ele>
        <time>2020-08-10T06:34:01.694Z</time>
      </trkpt>
      <trkpt lat="37.998218" lon="-3.703018">
        <ele>319.996561</ele>
        <time>2020-08-10T06:34:04.696Z</time>
      </trkpt>
      <trkpt lat="37.998222" lon="-3.703177">
        <ele>319.642934</ele>
        <time>2020-08-10T06:34:07.706Z</time>
      </trkpt>
      <trkpt lat="37.998205" lon="-3.703336">
        <ele>319.286249</ele>
        <time>2020-08-10T06:34:10.692Z</time>
      </trkpt>
      <trkpt lat="37.998181" lon="-3.703450">
        <ele>319.023946</ele>
        <time>2020-08-10T06:34:12.712Z</time>
      </trkpt>
      <trkpt lat="37.998173" lon="-3.703601">
        <ele>318.687525</ele>
        <time>2020-08-10T06:34:15.706Z</time>
      </trkpt>
      <trkpt lat="37.998146" lon="-3.703768">
        <ele>318.308561</ele>
        <time>2020-08-10T06:34:18.695Z</time>
      </trkpt>
      <trkpt lat="37.998116" lon="-3.703927">
        <ele>317.945124</ele>
        <time>2020-08-10T06:34:21.703Z</time>
      </trkpt>
      <trkpt lat="37.998101" lon="-3.704079">
        <ele>317.604598</ele>
        <time>2020-08-10T06:34:24.692Z</time>
      </trkpt>
      <trkpt lat="37.998097" lon="-3.704213">
        <ele>317.306510</ele>
        <time>2020-08-10T06:34:27.699Z</time>
      </trkpt>
      <trkpt lat="37.998096" lon="-3.704331">
        <ele>317.044188</ele>
        <time>2020-08-10T06:34:30.696Z</time>
      </trkpt>
      <trkpt lat="37.998101" lon="-3.704452">
        <ele>316.834202</ele>
        <time>2020-08-10T06:34:33.701Z</time>
      </trkpt>
      <trkpt lat="37.998115" lon="-3.704570">
        <ele>316.750372</ele>
        <time>2020-08-10T06:34:36.702Z</time>
      </trkpt>
      <trkpt lat="37.998115" lon="-3.704712">
        <ele>316.650615</ele>
        <time>2020-08-10T06:34:39.698Z</time>
      </trkpt>
      <trkpt lat="37.998108" lon="-3.704860">
        <ele>316.546456</ele>
        <time>2020-08-10T06:34:42.699Z</time>
      </trkpt>
      <trkpt lat="37.998090" lon="-3.705007">
        <ele>316.441947</ele>
        <time>2020-08-10T06:34:45.702Z</time>
      </trkpt>
      <trkpt lat="37.998068" lon="-3.705159">
        <ele>316.333379</ele>
        <time>2020-08-10T06:34:48.701Z</time>
      </trkpt>
      <trkpt lat="37.998034" lon="-3.705309">
        <ele>316.223730</ele>
        <time>2020-08-10T06:34:51.706Z</time>
      </trkpt>
      <trkpt lat="37.997993" lon="-3.705454">
        <ele>316.115506</ele>
        <time>2020-08-10T06:34:54.707Z</time>
      </trkpt>
      <trkpt lat="37.997944" lon="-3.705607">
        <ele>315.999484</ele>
        <time>2020-08-10T06:34:57.701Z</time>
      </trkpt>
      <trkpt lat="37.997898" lon="-3.705753">
        <ele>315.889023</ele>
        <time>2020-08-10T06:35:00.707Z</time>
      </trkpt>
      <trkpt lat="37.997857" lon="-3.705890">
        <ele>315.786072</ele>
        <time>2020-08-10T06:35:03.702Z</time>
      </trkpt>
      <trkpt lat="37.997830" lon="-3.706022">
        <ele>315.690267</ele>
        <time>2020-08-10T06:35:06.705Z</time>
      </trkpt>
      <trkpt lat="37.997796" lon="-3.706149">
        <ele>315.596040</ele>
        <time>2020-08-10T06:35:09.706Z</time>
      </trkpt>
      <trkpt lat="37.997791" lon="-3.706291">
        <ele>315.496183</ele>
        <time>2020-08-10T06:35:12.700Z</time>
      </trkpt>
      <trkpt lat="37.997791" lon="-3.706422">
        <ele>315.404153</ele>
        <time>2020-08-10T06:35:15.684Z</time>
      </trkpt>
      <trkpt lat="37.997784" lon="-3.706552">
        <ele>315.312613</ele>
        <time>2020-08-10T06:35:18.691Z</time>
      </trkpt>
      <trkpt lat="37.997777" lon="-3.706688">
        <ele>315.281121</ele>
        <time>2020-08-10T06:35:21.687Z</time>
      </trkpt>
      <trkpt lat="37.997787" lon="-3.706815">
        <ele>315.330917</ele>
        <time>2020-08-10T06:35:24.696Z</time>
      </trkpt>
      <trkpt lat="37.997813" lon="-3.706934">
        <ele>315.379096</ele>
        <time>2020-08-10T06:35:27.708Z</time>
      </trkpt>
      <trkpt lat="37.997877" lon="-3.707028">
        <ele>315.427563</ele>
        <time>2020-08-10T06:35:30.697Z</time>
      </trkpt>
      <trkpt lat="37.997980" lon="-3.707072">
        <ele>315.481369</ele>
        <time>2020-08-10T06:35:33.708Z</time>
      </trkpt>
      <trkpt lat="37.998085" lon="-3.707095">
        <ele>315.534123</ele>
        <time>2020-08-10T06:35:36.706Z</time>
      </trkpt>
      <trkpt lat="37.998189" lon="-3.707142">
        <ele>315.588780</ele>
        <time>2020-08-10T06:35:40.697Z</time>
      </trkpt>
      <trkpt lat="37.998294" lon="-3.707195">
        <ele>315.644727</ele>
        <time>2020-08-10T06:35:44.687Z</time>
      </trkpt>
      <trkpt lat="37.998404" lon="-3.707250">
        <ele>315.703262</ele>
        <time>2020-08-10T06:35:48.704Z</time>
      </trkpt>
      <trkpt lat="37.998499" lon="-3.707297">
        <ele>315.753744</ele>
        <time>2020-08-10T06:35:51.705Z</time>
      </trkpt>
      <trkpt lat="37.998605" lon="-3.707340">
        <ele>315.808840</ele>
        <time>2020-08-10T06:35:55.703Z</time>
      </trkpt>
      <trkpt lat="37.998702" lon="-3.707382">
        <ele>315.859583</ele>
        <time>2020-08-10T06:35:59.695Z</time>
      </trkpt>
      <trkpt lat="37.998794" lon="-3.707424">
        <ele>315.907989</ele>
        <time>2020-08-10T06:36:03.690Z</time>
      </trkpt>
      <trkpt lat="37.998872" lon="-3.707506">
        <ele>315.958137</ele>
        <time>2020-08-10T06:36:07.700Z</time>
      </trkpt>
      <trkpt lat="37.998946" lon="-3.707623">
        <ele>316.016668</ele>
        <time>2020-08-10T06:36:11.692Z</time>
      </trkpt>
      <trkpt lat="37.998972" lon="-3.707732">
        <ele>316.061100</ele>
        <time>2020-08-10T06:36:14.704Z</time>
      </trkpt>
      <trkpt lat="37.998986" lon="-3.707885">
        <ele>316.121193</ele>
        <time>2020-08-10T06:36:17.699Z</time>
      </trkpt>
      <trkpt lat="37.998988" lon="-3.708017">
        <ele>316.209771</ele>
        <time>2020-08-10T06:36:19.703Z</time>
      </trkpt>
      <trkpt lat="37.999017" lon="-3.708186">
        <ele>316.381366</ele>
        <time>2020-08-10T06:36:22.703Z</time>
      </trkpt>
      <trkpt lat="37.999021" lon="-3.708324">
        <ele>316.518369</ele>
        <time>2020-08-10T06:36:25.695Z</time>
      </trkpt>
      <trkpt lat="37.999032" lon="-3.708467">
        <ele>316.660915</ele>
        <time>2020-08-10T06:36:28.700Z</time>
      </trkpt>
      <trkpt lat="37.999048" lon="-3.708611">
        <ele>316.805191</ele>
        <time>2020-08-10T06:36:31.705Z</time>
      </trkpt>
      <trkpt lat="37.999057" lon="-3.708756">
        <ele>316.949491</ele>
        <time>2020-08-10T06:36:34.686Z</time>
      </trkpt>
      <trkpt lat="37.999062" lon="-3.708888">
        <ele>317.080600</ele>
        <time>2020-08-10T06:36:37.698Z</time>
      </trkpt>
      <trkpt lat="37.999073" lon="-3.709018">
        <ele>317.210315</ele>
        <time>2020-08-10T06:36:40.696Z</time>
      </trkpt>
      <trkpt lat="37.999088" lon="-3.709144">
        <ele>317.336739</ele>
        <time>2020-08-10T06:36:43.703Z</time>
      </trkpt>
      <trkpt lat="37.999111" lon="-3.709287">
        <ele>317.481535</ele>
        <time>2020-08-10T06:36:47.706Z</time>
      </trkpt>
      <trkpt lat="37.999123" lon="-3.709400">
        <ele>317.594656</ele>
        <time>2020-08-10T06:36:50.695Z</time>
      </trkpt>
      <trkpt lat="37.999145" lon="-3.709512">
        <ele>317.709171</ele>
        <time>2020-08-10T06:36:53.700Z</time>
      </trkpt>
      <trkpt lat="37.999183" lon="-3.709654">
        <ele>317.857952</ele>
        <time>2020-08-10T06:36:57.696Z</time>
      </trkpt>
      <trkpt lat="37.999199" lon="-3.709804">
        <ele>318.008124</ele>
        <time>2020-08-10T06:37:01.704Z</time>
      </trkpt>
      <trkpt lat="37.999203" lon="-3.709958">
        <ele>318.160991</ele>
        <time>2020-08-10T06:37:04.696Z</time>
      </trkpt>
      <trkpt lat="37.999211" lon="-3.710073">
        <ele>318.275526</ele>
        <time>2020-08-10T06:37:07.700Z</time>
      </trkpt>
      <trkpt lat="37.999235" lon="-3.710199">
        <ele>318.404131</ele>
        <time>2020-08-10T06:37:11.697Z</time>
      </trkpt>
      <trkpt lat="37.999280" lon="-3.710318">
        <ele>318.588871</ele>
        <time>2020-08-10T06:37:15.680Z</time>
      </trkpt>
      <trkpt lat="37.999310" lon="-3.710451">
        <ele>318.786660</ele>
        <time>2020-08-10T06:37:19.697Z</time>
      </trkpt>
      <trkpt lat="37.999385" lon="-3.710546">
        <ele>318.978920</ele>
        <time>2020-08-10T06:37:24.691Z</time>
      </trkpt>
      <trkpt lat="37.999481" lon="-3.710567">
        <ele>319.155664</ele>
        <time>2020-08-10T06:37:28.693Z</time>
      </trkpt>
      <trkpt lat="37.999583" lon="-3.710583">
        <ele>319.342133</ele>
        <time>2020-08-10T06:37:33.705Z</time>
      </trkpt>
      <trkpt lat="37.999688" lon="-3.710599">
        <ele>319.534004</ele>
        <time>2020-08-10T06:37:36.700Z</time>
      </trkpt>
      <trkpt lat="37.999793" lon="-3.710617">
        <ele>319.726238</ele>
        <time>2020-08-10T06:37:39.707Z</time>
      </trkpt>
      <trkpt lat="37.999883" lon="-3.710645">
        <ele>319.894362</ele>
        <time>2020-08-10T06:37:43.705Z</time>
      </trkpt>
      <trkpt lat="37.999973" lon="-3.710662">
        <ele>320.059450</ele>
        <time>2020-08-10T06:37:47.709Z</time>
      </trkpt>
      <trkpt lat="38.000066" lon="-3.710677">
        <ele>320.229539</ele>
        <time>2020-08-10T06:37:51.690Z</time>
      </trkpt>
      <trkpt lat="38.000165" lon="-3.710697">
        <ele>320.411418</ele>
        <time>2020-08-10T06:37:55.707Z</time>
      </trkpt>
      <trkpt lat="38.000267" lon="-3.710701">
        <ele>320.596567</ele>
        <time>2020-08-10T06:38:00.709Z</time>
      </trkpt>
      <trkpt lat="38.000358" lon="-3.710684">
        <ele>320.763449</ele>
        <time>2020-08-10T06:38:05.675Z</time>
      </trkpt>
      <trkpt lat="38.000405" lon="-3.710566">
        <ele>320.952480</ele>
        <time>2020-08-10T06:38:11.692Z</time>
      </trkpt>
      <trkpt lat="38.000500" lon="-3.710616">
        <ele>321.139076</ele>
        <time>2020-08-10T06:38:18.685Z</time>
      </trkpt>
      <trkpt lat="38.000559" lon="-3.710716">
        <ele>321.317678</ele>
        <time>2020-08-10T06:38:22.687Z</time>
      </trkpt>
      <trkpt lat="38.000610" lon="-3.710815">
        <ele>321.486779</ele>
        <time>2020-08-10T06:38:26.705Z</time>
      </trkpt>
      <trkpt lat="38.000622" lon="-3.710954">
        <ele>321.672272</ele>
        <time>2020-08-10T06:38:30.683Z</time>
      </trkpt>
      <trkpt lat="38.000601" lon="-3.711075">
        <ele>321.600135</ele>
        <time>2020-08-10T06:38:33.689Z</time>
      </trkpt>
      <trkpt lat="38.000559" lon="-3.711198">
        <ele>321.522086</ele>
        <time>2020-08-10T06:38:36.697Z</time>
      </trkpt>
      <trkpt lat="38.000503" lon="-3.711316">
        <ele>321.441886</ele>
        <time>2020-08-10T06:38:39.709Z</time>
      </trkpt>
      <trkpt lat="38.000434" lon="-3.711464">
        <ele>321.341765</ele>
        <time>2020-08-10T06:38:42.707Z</time>
      </trkpt>
      <trkpt lat="38.000390" lon="-3.711565">
        <ele>321.274571</ele>
        <time>2020-08-10T06:38:44.679Z</time>
      </trkpt>
      <trkpt lat="38.000346" lon="-3.711726">
        <ele>321.175355</ele>
        <time>2020-08-10T06:38:47.695Z</time>
      </trkpt>
      <trkpt lat="38.000322" lon="-3.711838">
        <ele>321.107778</ele>
        <time>2020-08-10T06:38:49.702Z</time>
      </trkpt>
      <trkpt lat="38.000296" lon="-3.711949">
        <ele>321.040356</ele>
        <time>2020-08-10T06:38:51.705Z</time>
      </trkpt>
      <trkpt lat="38.000262" lon="-3.712068">
        <ele>320.966657</ele>
        <time>2020-08-10T06:38:53.702Z</time>
      </trkpt>
      <trkpt lat="38.000233" lon="-3.712230">
        <ele>320.869932</ele>
        <time>2020-08-10T06:38:56.703Z</time>
      </trkpt>
      <trkpt lat="38.000211" lon="-3.712404">
        <ele>320.767329</ele>
        <time>2020-08-10T06:38:59.695Z</time>
      </trkpt>
      <trkpt lat="38.000187" lon="-3.712521">
        <ele>320.696938</ele>
        <time>2020-08-10T06:39:01.706Z</time>
      </trkpt>
      <trkpt lat="38.000172" lon="-3.712640">
        <ele>320.626772</ele>
        <time>2020-08-10T06:39:03.702Z</time>
      </trkpt>
      <trkpt lat="38.000158" lon="-3.712772">
        <ele>320.549224</ele>
        <time>2020-08-10T06:39:05.701Z</time>
      </trkpt>
      <trkpt lat="38.000109" lon="-3.712917">
        <ele>320.457366</ele>
        <time>2020-08-10T06:39:07.702Z</time>
      </trkpt>
      <trkpt lat="38.000070" lon="-3.713052">
        <ele>320.373649</ele>
        <time>2020-08-10T06:39:09.703Z</time>
      </trkpt>
      <trkpt lat="38.000052" lon="-3.713211">
        <ele>320.241090</ele>
        <time>2020-08-10T06:39:11.704Z</time>
      </trkpt>
      <trkpt lat="38.000023" lon="-3.713375">
        <ele>320.086533</ele>
        <time>2020-08-10T06:39:13.691Z</time>
      </trkpt>
      <trkpt lat="38.000010" lon="-3.713531">
        <ele>319.942283</ele>
        <time>2020-08-10T06:39:15.695Z</time>
      </trkpt>
      <trkpt lat="37.999975" lon="-3.713682">
        <ele>319.797548</ele>
        <time>2020-08-10T06:39:17.680Z</time>
      </trkpt>
      <trkpt lat="37.999938" lon="-3.713852">
        <ele>319.635371</ele>
        <time>2020-08-10T06:39:19.705Z</time>
      </trkpt>
      <trkpt lat="37.999897" lon="-3.714012">
        <ele>319.480659</ele>
        <time>2020-08-10T06:39:21.699Z</time>
      </trkpt>
      <trkpt lat="37.999863" lon="-3.714170">
        <ele>319.330049</ele>
        <time>2020-08-10T06:39:23.700Z</time>
      </trkpt>
      <trkpt lat="37.999839" lon="-3.714337">
        <ele>319.173951</ele>
        <time>2020-08-10T06:39:25.706Z</time>
      </trkpt>
      <trkpt lat="37.999812" lon="-3.714503">
        <ele>319.018087</ele>
        <time>2020-08-10T06:39:27.702Z</time>
      </trkpt>
      <trkpt lat="37.999828" lon="-3.714659">
        <ele>318.873426</ele>
        <time>2020-08-10T06:39:29.702Z</time>
      </trkpt>
      <trkpt lat="37.999792" lon="-3.714827">
        <ele>318.713331</ele>
        <time>2020-08-10T06:39:31.700Z</time>
      </trkpt>
      <trkpt lat="37.999770" lon="-3.714985">
        <ele>318.565790</ele>
        <time>2020-08-10T06:39:33.699Z</time>
      </trkpt>
      <trkpt lat="37.999764" lon="-3.715129">
        <ele>318.433189</ele>
        <time>2020-08-10T06:39:35.700Z</time>
      </trkpt>
      <trkpt lat="37.999750" lon="-3.715285">
        <ele>318.288811</ele>
        <time>2020-08-10T06:39:37.705Z</time>
      </trkpt>
      <trkpt lat="37.999730" lon="-3.715452">
        <ele>318.276991</ele>
        <time>2020-08-10T06:39:39.705Z</time>
      </trkpt>
      <trkpt lat="37.999686" lon="-3.715613">
        <ele>318.315624</ele>
        <time>2020-08-10T06:39:41.701Z</time>
      </trkpt>
      <trkpt lat="37.999666" lon="-3.715785">
        <ele>318.355040</ele>
        <time>2020-08-10T06:39:43.705Z</time>
      </trkpt>
      <trkpt lat="37.999645" lon="-3.715937">
        <ele>318.390026</ele>
        <time>2020-08-10T06:39:45.689Z</time>
      </trkpt>
      <trkpt lat="37.999632" lon="-3.716105">
        <ele>318.428297</ele>
        <time>2020-08-10T06:39:47.698Z</time>
      </trkpt>
      <trkpt lat="37.999617" lon="-3.716268">
        <ele>318.465502</ele>
        <time>2020-08-10T06:39:49.699Z</time>
      </trkpt>
      <trkpt lat="37.999591" lon="-3.716443">
        <ele>318.505875</ele>
        <time>2020-08-10T06:39:51.707Z</time>
      </trkpt>
      <trkpt lat="37.999556" lon="-3.716592">
        <ele>318.541124</ele>
        <time>2020-08-10T06:39:53.700Z</time>
      </trkpt>
      <trkpt lat="37.999552" lon="-3.716747">
        <ele>318.576283</ele>
        <time>2020-08-10T06:39:55.719Z</time>
      </trkpt>
      <trkpt lat="37.999519" lon="-3.716924">
        <ele>318.617518</ele>
        <time>2020-08-10T06:39:57.701Z</time>
      </trkpt>
      <trkpt lat="37.999509" lon="-3.717090">
        <ele>318.655262</ele>
        <time>2020-08-10T06:39:59.706Z</time>
      </trkpt>
      <trkpt lat="37.999478" lon="-3.717252">
        <ele>318.693057</ele>
        <time>2020-08-10T06:40:01.697Z</time>
      </trkpt>
      <trkpt lat="37.999449" lon="-3.717422">
        <ele>318.732491</ele>
        <time>2020-08-10T06:40:03.692Z</time>
      </trkpt>
      <trkpt lat="37.999448" lon="-3.717585">
        <ele>318.807086</ele>
        <time>2020-08-10T06:40:05.703Z</time>
      </trkpt>
      <trkpt lat="37.999467" lon="-3.717738">
        <ele>319.234271</ele>
        <time>2020-08-10T06:40:07.696Z</time>
      </trkpt>
      <trkpt lat="37.999470" lon="-3.717891">
        <ele>319.656378</ele>
        <time>2020-08-10T06:40:09.690Z</time>
      </trkpt>
      <trkpt lat="37.999448" lon="-3.718038">
        <ele>320.069055</ele>
        <time>2020-08-10T06:40:11.703Z</time>
      </trkpt>
      <trkpt lat="37.999443" lon="-3.718196">
        <ele>320.505173</ele>
        <time>2020-08-10T06:40:13.699Z</time>
      </trkpt>
      <trkpt lat="37.999421" lon="-3.718347">
        <ele>320.928693</ele>
        <time>2020-08-10T06:40:15.694Z</time>
      </trkpt>
      <trkpt lat="37.999407" lon="-3.718501">
        <ele>321.356246</ele>
        <time>2020-08-10T06:40:17.708Z</time>
      </trkpt>
      <trkpt lat="37.999420" lon="-3.718649">
        <ele>321.766961</ele>
        <time>2020-08-10T06:40:19.686Z</time>
      </trkpt>
      <trkpt lat="37.999441" lon="-3.718775">
        <ele>322.122159</ele>
        <time>2020-08-10T06:40:21.699Z</time>
      </trkpt>
      <trkpt lat="37.999513" lon="-3.718852">
        <ele>322.451708</ele>
        <time>2020-08-10T06:40:23.702Z</time>
      </trkpt>
      <trkpt lat="37.999625" lon="-3.718883">
        <ele>322.852918</ele>
        <time>2020-08-10T06:40:26.700Z</time>
      </trkpt>
      <trkpt lat="37.999714" lon="-3.718921">
        <ele>323.181573</ele>
        <time>2020-08-10T06:40:33.716Z</time>
      </trkpt>
      <trkpt lat="37.999784" lon="-3.719006">
        <ele>323.520662</ele>
        <time>2020-08-10T06:40:38.691Z</time>
      </trkpt>
      <trkpt lat="37.999713" lon="-3.719111">
        <ele>323.902255</ele>
        <time>2020-08-10T06:40:43.681Z</time>
      </trkpt>
      <trkpt lat="37.999612" lon="-3.719111">
        <ele>324.255750</ele>
        <time>2020-08-10T06:40:46.694Z</time>
      </trkpt>
      <trkpt lat="37.999524" lon="-3.719137">
        <ele>324.571984</ele>
        <time>2020-08-10T06:40:49.694Z</time>
      </trkpt>
      <trkpt lat="37.999429" lon="-3.719195">
        <ele>324.940958</ele>
        <time>2020-08-10T06:40:53.699Z</time>
      </trkpt>
      <trkpt lat="37.999330" lon="-3.719249">
        <ele>324.914825</ele>
        <time>2020-08-10T06:40:57.709Z</time>
      </trkpt>
      <trkpt lat="37.999236" lon="-3.719287">
        <ele>324.718005</ele>
        <time>2020-08-10T06:41:01.704Z</time>
      </trkpt>
      <trkpt lat="37.999138" lon="-3.719360">
        <ele>324.491297</ele>
        <time>2020-08-10T06:41:05.694Z</time>
      </trkpt>
      <trkpt lat="37.999034" lon="-3.719426">
        <ele>324.259314</ele>
        <time>2020-08-10T06:41:08.702Z</time>
      </trkpt>
      <trkpt lat="37.998940" lon="-3.719483">
        <ele>324.051470</ele>
        <time>2020-08-10T06:41:10.705Z</time>
      </trkpt>
      <trkpt lat="37.998830" lon="-3.719526">
        <ele>323.821840</ele>
        <time>2020-08-10T06:41:12.695Z</time>
      </trkpt>
      <trkpt lat="37.998704" lon="-3.719589">
        <ele>323.551656</ele>
        <time>2020-08-10T06:41:14.704Z</time>
      </trkpt>
      <trkpt lat="37.998589" lon="-3.719684">
        <ele>323.277896</ele>
        <time>2020-08-10T06:41:16.705Z</time>
      </trkpt>
      <trkpt lat="37.998465" lon="-3.719802">
        <ele>322.968681</ele>
        <time>2020-08-10T06:41:18.696Z</time>
      </trkpt>
      <trkpt lat="37.998342" lon="-3.719942">
        <ele>322.639044</ele>
        <time>2020-08-10T06:41:20.689Z</time>
      </trkpt>
      <trkpt lat="37.998229" lon="-3.720120">
        <ele>322.279691</ele>
        <time>2020-08-10T06:41:22.695Z</time>
      </trkpt>
      <trkpt lat="37.998170" lon="-3.720216">
        <ele>322.088291</ele>
        <time>2020-08-10T06:41:23.692Z</time>
      </trkpt>
      <trkpt lat="37.998115" lon="-3.720316">
        <ele>321.896571</ele>
        <time>2020-08-10T06:41:24.689Z</time>
      </trkpt>
      <trkpt lat="37.998055" lon="-3.720421">
        <ele>321.692662</ele>
        <time>2020-08-10T06:41:25.707Z</time>
      </trkpt>
      <trkpt lat="37.997996" lon="-3.720526">
        <ele>321.489918</ele>
        <time>2020-08-10T06:41:26.677Z</time>
      </trkpt>
      <trkpt lat="37.997937" lon="-3.720643">
        <ele>321.165555</ele>
        <time>2020-08-10T06:41:27.710Z</time>
      </trkpt>
      <trkpt lat="37.997874" lon="-3.720761">
        <ele>320.823517</ele>
        <time>2020-08-10T06:41:28.697Z</time>
      </trkpt>
      <trkpt lat="37.997814" lon="-3.720866">
        <ele>320.512272</ele>
        <time>2020-08-10T06:41:29.709Z</time>
      </trkpt>
      <trkpt lat="37.997752" lon="-3.720978">
        <ele>320.183815</ele>
        <time>2020-08-10T06:41:30.700Z</time>
      </trkpt>
      <trkpt lat="37.997693" lon="-3.721089">
        <ele>319.862516</ele>
        <time>2020-08-10T06:41:31.696Z</time>
      </trkpt>
      <trkpt lat="37.997633" lon="-3.721197">
        <ele>319.545414</ele>
        <time>2020-08-10T06:41:32.689Z</time>
      </trkpt>
      <trkpt lat="37.997572" lon="-3.721312">
        <ele>319.212750</ele>
        <time>2020-08-10T06:41:33.711Z</time>
      </trkpt>
      <trkpt lat="37.997519" lon="-3.721426">
        <ele>318.895119</ele>
        <time>2020-08-10T06:41:34.705Z</time>
      </trkpt>
      <trkpt lat="37.997458" lon="-3.721539">
        <ele>318.566426</ele>
        <time>2020-08-10T06:41:35.693Z</time>
      </trkpt>
      <trkpt lat="37.997396" lon="-3.721654">
        <ele>318.232051</ele>
        <time>2020-08-10T06:41:36.696Z</time>
      </trkpt>
      <trkpt lat="37.997346" lon="-3.721770">
        <ele>317.914761</ele>
        <time>2020-08-10T06:41:37.709Z</time>
      </trkpt>
      <trkpt lat="37.997297" lon="-3.721891">
        <ele>317.588296</ele>
        <time>2020-08-10T06:41:38.700Z</time>
      </trkpt>
      <trkpt lat="37.997248" lon="-3.722015">
        <ele>317.255411</ele>
        <time>2020-08-10T06:41:39.702Z</time>
      </trkpt>
      <trkpt lat="37.997205" lon="-3.722139">
        <ele>316.930305</ele>
        <time>2020-08-10T06:41:40.694Z</time>
      </trkpt>
      <trkpt lat="37.997162" lon="-3.722258">
        <ele>316.616145</ele>
        <time>2020-08-10T06:41:41.709Z</time>
      </trkpt>
      <trkpt lat="37.997117" lon="-3.722377">
        <ele>316.299398</ele>
        <time>2020-08-10T06:41:42.700Z</time>
      </trkpt>
      <trkpt lat="37.997074" lon="-3.722491">
        <ele>315.996103</ele>
        <time>2020-08-10T06:41:43.700Z</time>
      </trkpt>
      <trkpt lat="37.997033" lon="-3.722614">
        <ele>315.810982</ele>
        <time>2020-08-10T06:41:44.705Z</time>
      </trkpt>
      <trkpt lat="37.996992" lon="-3.722733">
        <ele>315.631149</ele>
        <time>2020-08-10T06:41:45.701Z</time>
      </trkpt>
      <trkpt lat="37.996953" lon="-3.722851">
        <ele>315.453971</ele>
        <time>2020-08-10T06:41:46.694Z</time>
      </trkpt>
      <trkpt lat="37.996917" lon="-3.722962">
        <ele>315.287767</ele>
        <time>2020-08-10T06:41:47.694Z</time>
      </trkpt>
      <trkpt lat="37.996879" lon="-3.723074">
        <ele>315.118923</ele>
        <time>2020-08-10T06:41:48.691Z</time>
      </trkpt>
      <trkpt lat="37.996841" lon="-3.723189">
        <ele>314.946256</ele>
        <time>2020-08-10T06:41:49.700Z</time>
      </trkpt>
      <trkpt lat="37.996797" lon="-3.723301">
        <ele>314.772972</ele>
        <time>2020-08-10T06:41:50.695Z</time>
      </trkpt>
      <trkpt lat="37.996753" lon="-3.723416">
        <ele>314.595960</ele>
        <time>2020-08-10T06:41:51.699Z</time>
      </trkpt>
      <trkpt lat="37.996713" lon="-3.723530">
        <ele>314.423170</ele>
        <time>2020-08-10T06:41:52.699Z</time>
      </trkpt>
      <trkpt lat="37.996670" lon="-3.723641">
        <ele>314.251906</ele>
        <time>2020-08-10T06:41:53.693Z</time>
      </trkpt>
      <trkpt lat="37.996630" lon="-3.723750">
        <ele>314.085416</ele>
        <time>2020-08-10T06:41:54.709Z</time>
      </trkpt>
      <trkpt lat="37.996566" lon="-3.723957">
        <ele>313.777521</ele>
        <time>2020-08-10T06:41:56.701Z</time>
      </trkpt>
      <trkpt lat="37.996494" lon="-3.724161">
        <ele>313.468014</ele>
        <time>2020-08-10T06:41:58.708Z</time>
      </trkpt>
      <trkpt lat="37.996427" lon="-3.724362">
        <ele>313.165823</ele>
        <time>2020-08-10T06:42:00.687Z</time>
      </trkpt>
      <trkpt lat="37.996357" lon="-3.724561">
        <ele>312.864070</ele>
        <time>2020-08-10T06:42:02.699Z</time>
      </trkpt>
      <trkpt lat="37.996319" lon="-3.724670">
        <ele>312.863005</ele>
        <time>2020-08-10T06:42:03.688Z</time>
      </trkpt>
      <trkpt lat="37.996255" lon="-3.724862">
        <ele>312.921754</ele>
        <time>2020-08-10T06:42:05.709Z</time>
      </trkpt>
      <trkpt lat="37.996192" lon="-3.725053">
        <ele>312.980104</ele>
        <time>2020-08-10T06:42:07.701Z</time>
      </trkpt>
      <trkpt lat="37.996131" lon="-3.725248">
        <ele>313.039227</ele>
        <time>2020-08-10T06:42:09.699Z</time>
      </trkpt>
      <trkpt lat="37.996073" lon="-3.725432">
        <ele>313.095074</ele>
        <time>2020-08-10T06:42:11.699Z</time>
      </trkpt>
      <trkpt lat="37.996012" lon="-3.725607">
        <ele>313.149000</ele>
        <time>2020-08-10T06:42:13.706Z</time>
      </trkpt>
      <trkpt lat="37.995946" lon="-3.725785">
        <ele>313.204436</ele>
        <time>2020-08-10T06:42:15.710Z</time>
      </trkpt>
      <trkpt lat="37.995888" lon="-3.725960">
        <ele>313.257937</ele>
        <time>2020-08-10T06:42:17.693Z</time>
      </trkpt>
      <trkpt lat="37.995829" lon="-3.726115">
        <ele>313.306446</ele>
        <time>2020-08-10T06:42:19.697Z</time>
      </trkpt>
      <trkpt lat="37.995776" lon="-3.726253">
        <ele>313.349708</ele>
        <time>2020-08-10T06:42:21.699Z</time>
      </trkpt>
      <trkpt lat="37.995720" lon="-3.726395">
        <ele>313.394456</ele>
        <time>2020-08-10T06:42:23.699Z</time>
      </trkpt>
      <trkpt lat="37.995674" lon="-3.726531">
        <ele>313.436163</ele>
        <time>2020-08-10T06:42:25.704Z</time>
      </trkpt>
      <trkpt lat="37.995635" lon="-3.726677">
        <ele>313.476694</ele>
        <time>2020-08-10T06:42:27.708Z</time>
      </trkpt>
      <trkpt lat="37.995605" lon="-3.726807">
        <ele>313.416831</ele>
        <time>2020-08-10T06:42:29.698Z</time>
      </trkpt>
      <trkpt lat="37.995587" lon="-3.726933">
        <ele>313.360241</ele>
        <time>2020-08-10T06:42:31.705Z</time>
      </trkpt>
      <trkpt lat="37.995543" lon="-3.727064">
        <ele>313.297310</ele>
        <time>2020-08-10T06:42:33.700Z</time>
      </trkpt>
      <trkpt lat="37.995512" lon="-3.727186">
        <ele>313.240661</ele>
        <time>2020-08-10T06:42:35.700Z</time>
      </trkpt>
      <trkpt lat="37.995501" lon="-3.727316">
        <ele>313.182881</ele>
        <time>2020-08-10T06:42:37.700Z</time>
      </trkpt>
      <trkpt lat="37.995476" lon="-3.727435">
        <ele>313.128455</ele>
        <time>2020-08-10T06:42:39.697Z</time>
      </trkpt>
      <trkpt lat="37.995453" lon="-3.727546">
        <ele>313.077734</ele>
        <time>2020-08-10T06:42:41.701Z</time>
      </trkpt>
      <trkpt lat="37.995419" lon="-3.727655">
        <ele>313.025928</ele>
        <time>2020-08-10T06:42:43.708Z</time>
      </trkpt>
      <trkpt lat="37.995419" lon="-3.727776">
        <ele>312.972455</ele>
        <time>2020-08-10T06:42:45.678Z</time>
      </trkpt>
      <trkpt lat="37.995389" lon="-3.727888">
        <ele>312.920178</ele>
        <time>2020-08-10T06:42:47.704Z</time>
      </trkpt>
      <trkpt lat="37.995364" lon="-3.728000">
        <ele>312.868735</ele>
        <time>2020-08-10T06:42:49.715Z</time>
      </trkpt>
      <trkpt lat="37.995328" lon="-3.728159">
        <ele>312.795626</ele>
        <time>2020-08-10T06:42:52.696Z</time>
      </trkpt>
      <trkpt lat="37.995287" lon="-3.728318">
        <ele>312.721694</ele>
        <time>2020-08-10T06:42:55.687Z</time>
      </trkpt>
      <trkpt lat="37.995232" lon="-3.728457">
        <ele>312.652958</ele>
        <time>2020-08-10T06:42:58.707Z</time>
      </trkpt>
      <trkpt lat="37.995198" lon="-3.728600">
        <ele>312.586949</ele>
        <time>2020-08-10T06:43:01.707Z</time>
      </trkpt>
      <trkpt lat="37.995163" lon="-3.728749">
        <ele>312.518238</ele>
        <time>2020-08-10T06:43:04.702Z</time>
      </trkpt>
      <trkpt lat="37.995136" lon="-3.728895">
        <ele>312.467164</ele>
        <time>2020-08-10T06:43:07.702Z</time>
      </trkpt>
      <trkpt lat="37.995108" lon="-3.729036">
        <ele>312.457563</ele>
        <time>2020-08-10T06:43:10.701Z</time>
      </trkpt>
      <trkpt lat="37.995078" lon="-3.729176">
        <ele>312.447983</ele>
        <time>2020-08-10T06:43:13.703Z</time>
      </trkpt>
      <trkpt lat="37.995048" lon="-3.729321">
        <ele>312.438084</ele>
        <time>2020-08-10T06:43:16.689Z</time>
      </trkpt>
      <trkpt lat="37.995012" lon="-3.729464">
        <ele>312.428172</ele>
        <time>2020-08-10T06:43:19.694Z</time>
      </trkpt>
      <trkpt lat="37.994975" lon="-3.729622">
        <ele>312.417288</ele>
        <time>2020-08-10T06:43:22.696Z</time>
      </trkpt>
      <trkpt lat="37.994945" lon="-3.729732">
        <ele>312.409602</ele>
        <time>2020-08-10T06:43:24.699Z</time>
      </trkpt>
      <trkpt lat="37.994923" lon="-3.729846">
        <ele>312.401852</ele>
        <time>2020-08-10T06:43:26.675Z</time>
      </trkpt>
      <trkpt lat="37.994907" lon="-3.729965">
        <ele>312.393881</ele>
        <time>2020-08-10T06:43:28.710Z</time>
      </trkpt>
      <trkpt lat="37.994895" lon="-3.730091">
        <ele>312.385501</ele>
        <time>2020-08-10T06:43:30.702Z</time>
      </trkpt>
      <trkpt lat="37.994869" lon="-3.730219">
        <ele>312.376773</ele>
        <time>2020-08-10T06:43:32.701Z</time>
      </trkpt>
      <trkpt lat="37.994840" lon="-3.730346">
        <ele>312.368042</ele>
        <time>2020-08-10T06:43:34.694Z</time>
      </trkpt>
      <trkpt lat="37.994812" lon="-3.730482">
        <ele>312.358761</ele>
        <time>2020-08-10T06:43:36.701Z</time>
      </trkpt>
      <trkpt lat="37.994782" lon="-3.730616">
        <ele>312.349563</ele>
        <time>2020-08-10T06:43:38.695Z</time>
      </trkpt>
      <trkpt lat="37.994756" lon="-3.730756">
        <ele>312.340065</ele>
        <time>2020-08-10T06:43:40.702Z</time>
      </trkpt>
      <trkpt lat="37.994722" lon="-3.730892">
        <ele>312.330644</ele>
        <time>2020-08-10T06:43:42.695Z</time>
      </trkpt>
      <trkpt lat="37.994694" lon="-3.731039">
        <ele>312.320658</ele>
        <time>2020-08-10T06:43:44.711Z</time>
      </trkpt>
      <trkpt lat="37.994677" lon="-3.731190">
        <ele>312.203454</ele>
        <time>2020-08-10T06:43:46.698Z</time>
      </trkpt>
      <trkpt lat="37.994643" lon="-3.731340">
        <ele>312.063920</ele>
        <time>2020-08-10T06:43:48.701Z</time>
      </trkpt>
      <trkpt lat="37.994603" lon="-3.731493">
        <ele>311.919812</ele>
        <time>2020-08-10T06:43:50.720Z</time>
      </trkpt>
      <trkpt lat="37.994573" lon="-3.731647">
        <ele>311.777995</ele>
        <time>2020-08-10T06:43:52.699Z</time>
      </trkpt>
      <trkpt lat="37.994536" lon="-3.731798">
        <ele>311.636630</ele>
        <time>2020-08-10T06:43:54.702Z</time>
      </trkpt>
      <trkpt lat="37.994503" lon="-3.731958">
        <ele>311.488775</ele>
        <time>2020-08-10T06:43:56.701Z</time>
      </trkpt>
      <trkpt lat="37.994451" lon="-3.732099">
        <ele>311.349604</ele>
        <time>2020-08-10T06:43:58.699Z</time>
      </trkpt>
      <trkpt lat="37.994421" lon="-3.732272">
        <ele>311.191246</ele>
        <time>2020-08-10T06:44:00.708Z</time>
      </trkpt>
      <trkpt lat="37.994380" lon="-3.732432">
        <ele>311.040837</ele>
        <time>2020-08-10T06:44:02.704Z</time>
      </trkpt>
      <trkpt lat="37.994353" lon="-3.732591">
        <ele>310.895432</ele>
        <time>2020-08-10T06:44:04.694Z</time>
      </trkpt>
      <trkpt lat="37.994326" lon="-3.732777">
        <ele>310.726354</ele>
        <time>2020-08-10T06:44:06.714Z</time>
      </trkpt>
      <trkpt lat="37.994297" lon="-3.732935">
        <ele>310.581324</ele>
        <time>2020-08-10T06:44:08.704Z</time>
      </trkpt>
      <trkpt lat="37.994279" lon="-3.733099">
        <ele>310.433296</ele>
        <time>2020-08-10T06:44:10.697Z</time>
      </trkpt>
      <trkpt lat="37.994263" lon="-3.733259">
        <ele>310.289112</ele>
        <time>2020-08-10T06:44:12.695Z</time>
      </trkpt>
      <trkpt lat="37.994238" lon="-3.733439">
        <ele>310.201122</ele>
        <time>2020-08-10T06:44:14.706Z</time>
      </trkpt>
      <trkpt lat="37.994226" lon="-3.733617">
        <ele>310.120100</ele>
        <time>2020-08-10T06:44:16.702Z</time>
      </trkpt>
      <trkpt lat="37.994215" lon="-3.733781">
        <ele>310.045453</ele>
        <time>2020-08-10T06:44:18.698Z</time>
      </trkpt>
      <trkpt lat="37.994198" lon="-3.733955">
        <ele>309.965936</ele>
        <time>2020-08-10T06:44:20.704Z</time>
      </trkpt>
      <trkpt lat="37.994189" lon="-3.734131">
        <ele>309.885948</ele>
        <time>2020-08-10T06:44:22.695Z</time>
      </trkpt>
      <trkpt lat="37.994191" lon="-3.734307">
        <ele>309.806120</ele>
        <time>2020-08-10T06:44:24.691Z</time>
      </trkpt>
      <trkpt lat="37.994170" lon="-3.734484">
        <ele>309.724941</ele>
        <time>2020-08-10T06:44:26.699Z</time>
      </trkpt>
      <trkpt lat="37.994150" lon="-3.734664">
        <ele>309.642500</ele>
        <time>2020-08-10T06:44:28.702Z</time>
      </trkpt>
      <trkpt lat="37.994144" lon="-3.734811">
        <ele>309.575742</ele>
        <time>2020-08-10T06:44:30.701Z</time>
      </trkpt>
      <trkpt lat="37.994134" lon="-3.734982">
        <ele>309.497977</ele>
        <time>2020-08-10T06:44:32.704Z</time>
      </trkpt>
      <trkpt lat="37.994120" lon="-3.735142">
        <ele>309.424967</ele>
        <time>2020-08-10T06:44:34.704Z</time>
      </trkpt>
      <trkpt lat="37.994112" lon="-3.735300">
        <ele>309.353163</ele>
        <time>2020-08-10T06:44:36.703Z</time>
      </trkpt>
      <trkpt lat="37.994082" lon="-3.735460">
        <ele>309.278573</ele>
        <time>2020-08-10T06:44:38.700Z</time>
      </trkpt>
      <trkpt lat="37.994079" lon="-3.735624">
        <ele>309.374455</ele>
        <time>2020-08-10T06:44:40.697Z</time>
      </trkpt>
      <trkpt lat="37.994071" lon="-3.735777">
        <ele>309.604703</ele>
        <time>2020-08-10T06:44:42.703Z</time>
      </trkpt>
      <trkpt lat="37.994053" lon="-3.735939">
        <ele>309.850365</ele>
        <time>2020-08-10T06:44:44.709Z</time>
      </trkpt>
      <trkpt lat="37.994036" lon="-3.736094">
        <ele>310.085354</ele>
        <time>2020-08-10T06:44:46.700Z</time>
      </trkpt>
      <trkpt lat="37.994019" lon="-3.736255">
        <ele>310.329269</ele>
        <time>2020-08-10T06:44:48.706Z</time>
      </trkpt>
      <trkpt lat="37.994001" lon="-3.736407">
        <ele>310.560072</ele>
        <time>2020-08-10T06:44:50.704Z</time>
      </trkpt>
      <trkpt lat="37.993989" lon="-3.736572">
        <ele>310.808887</ele>
        <time>2020-08-10T06:44:52.702Z</time>
      </trkpt>
      <trkpt lat="37.993972" lon="-3.736719">
        <ele>311.031984</ele>
        <time>2020-08-10T06:44:54.701Z</time>
      </trkpt>
      <trkpt lat="37.993946" lon="-3.736855">
        <ele>311.242122</ele>
        <time>2020-08-10T06:44:56.690Z</time>
      </trkpt>
      <trkpt lat="37.993932" lon="-3.736998">
        <ele>311.458499</ele>
        <time>2020-08-10T06:44:58.707Z</time>
      </trkpt>
      <trkpt lat="37.993923" lon="-3.737139">
        <ele>311.670916</ele>
        <time>2020-08-10T06:45:00.704Z</time>
      </trkpt>
      <trkpt lat="37.993912" lon="-3.737265">
        <ele>311.861274</ele>
        <time>2020-08-10T06:45:02.707Z</time>
      </trkpt>
      <trkpt lat="37.993904" lon="-3.737394">
        <ele>312.055577</ele>
        <time>2020-08-10T06:45:04.706Z</time>
      </trkpt>
      <trkpt lat="37.993887" lon="-3.737557">
        <ele>312.302470</ele>
        <time>2020-08-10T06:45:07.698Z</time>
      </trkpt>
      <trkpt lat="37.993884" lon="-3.737677">
        <ele>312.482751</ele>
        <time>2020-08-10T06:45:09.699Z</time>
      </trkpt>
      <trkpt lat="37.993871" lon="-3.737801">
        <ele>312.670588</ele>
        <time>2020-08-10T06:45:11.705Z</time>
      </trkpt>
      <trkpt lat="37.993876" lon="-3.737921">
        <ele>312.583580</ele>
        <time>2020-08-10T06:45:13.702Z</time>
      </trkpt>
      <trkpt lat="37.993861" lon="-3.738054">
        <ele>312.485985</ele>
        <time>2020-08-10T06:45:15.700Z</time>
      </trkpt>
      <trkpt lat="37.993864" lon="-3.738195">
        <ele>312.383526</ele>
        <time>2020-08-10T06:45:17.705Z</time>
      </trkpt>
      <trkpt lat="37.993840" lon="-3.738357">
        <ele>312.263788</ele>
        <time>2020-08-10T06:45:19.697Z</time>
      </trkpt>
      <trkpt lat="37.993808" lon="-3.738521">
        <ele>312.141062</ele>
        <time>2020-08-10T06:45:21.679Z</time>
      </trkpt>
      <trkpt lat="37.993762" lon="-3.738659">
        <ele>312.032221</ele>
        <time>2020-08-10T06:45:23.705Z</time>
      </trkpt>
      <trkpt lat="37.993712" lon="-3.738796">
        <ele>311.922551</ele>
        <time>2020-08-10T06:45:25.702Z</time>
      </trkpt>
      <trkpt lat="37.993647" lon="-3.738929">
        <ele>311.808870</ele>
        <time>2020-08-10T06:45:27.699Z</time>
      </trkpt>
      <trkpt lat="37.993579" lon="-3.739061">
        <ele>311.694317</ele>
        <time>2020-08-10T06:45:29.700Z</time>
      </trkpt>
      <trkpt lat="37.993513" lon="-3.739183">
        <ele>311.586826</ele>
        <time>2020-08-10T06:45:31.705Z</time>
      </trkpt>
      <trkpt lat="37.993439" lon="-3.739299">
        <ele>311.478416</ele>
        <time>2020-08-10T06:45:33.697Z</time>
      </trkpt>
      <trkpt lat="37.993373" lon="-3.739425">
        <ele>311.368517</ele>
        <time>2020-08-10T06:45:35.695Z</time>
      </trkpt>
      <trkpt lat="37.993299" lon="-3.739557">
        <ele>311.250846</ele>
        <time>2020-08-10T06:45:37.694Z</time>
      </trkpt>
      <trkpt lat="37.993232" lon="-3.739702">
        <ele>311.128748</ele>
        <time>2020-08-10T06:45:39.696Z</time>
      </trkpt>
      <trkpt lat="37.993160" lon="-3.739828">
        <ele>311.015693</ele>
        <time>2020-08-10T06:45:41.707Z</time>
      </trkpt>
      <trkpt lat="37.993091" lon="-3.739955">
        <ele>310.856533</ele>
        <time>2020-08-10T06:45:43.694Z</time>
      </trkpt>
      <trkpt lat="37.993019" lon="-3.740083">
        <ele>310.693048</ele>
        <time>2020-08-10T06:45:45.703Z</time>
      </trkpt>
      <trkpt lat="37.992944" lon="-3.740222">
        <ele>310.517923</ele>
        <time>2020-08-10T06:45:47.707Z</time>
      </trkpt>
      <trkpt lat="37.992862" lon="-3.740355">
        <ele>310.342374</ele>
        <time>2020-08-10T06:45:49.706Z</time>
      </trkpt>
      <trkpt lat="37.992776" lon="-3.740487">
        <ele>310.164328</ele>
        <time>2020-08-10T06:45:51.700Z</time>
      </trkpt>
      <trkpt lat="37.992697" lon="-3.740616">
        <ele>309.994491</ele>
        <time>2020-08-10T06:45:53.705Z</time>
      </trkpt>
      <trkpt lat="37.992617" lon="-3.740751">
        <ele>309.818898</ele>
        <time>2020-08-10T06:45:55.692Z</time>
      </trkpt>
      <trkpt lat="37.992536" lon="-3.740888">
        <ele>309.640849</ele>
        <time>2020-08-10T06:45:57.697Z</time>
      </trkpt>
      <trkpt lat="37.992472" lon="-3.741026">
        <ele>309.474389</ele>
        <time>2020-08-10T06:45:59.700Z</time>
      </trkpt>
      <trkpt lat="37.992397" lon="-3.741148">
        <ele>309.313535</ele>
        <time>2020-08-10T06:46:01.697Z</time>
      </trkpt>
      <trkpt lat="37.992313" lon="-3.741265">
        <ele>309.148998</ele>
        <time>2020-08-10T06:46:03.700Z</time>
      </trkpt>
      <trkpt lat="37.992245" lon="-3.741388">
        <ele>308.992803</ele>
        <time>2020-08-10T06:46:05.694Z</time>
      </trkpt>
      <trkpt lat="37.992166" lon="-3.741515">
        <ele>308.824602</ele>
        <time>2020-08-10T06:46:07.702Z</time>
      </trkpt>
      <trkpt lat="37.992088" lon="-3.741637">
        <ele>308.661285</ele>
        <time>2020-08-10T06:46:09.706Z</time>
      </trkpt>
      <trkpt lat="37.992012" lon="-3.741758">
        <ele>308.747485</ele>
        <time>2020-08-10T06:46:11.705Z</time>
      </trkpt>
      <trkpt lat="37.991941" lon="-3.741883">
        <ele>308.870289</ele>
        <time>2020-08-10T06:46:13.703Z</time>
      </trkpt>
      <trkpt lat="37.991862" lon="-3.742013">
        <ele>309.001125</ele>
        <time>2020-08-10T06:46:15.704Z</time>
      </trkpt>
      <trkpt lat="37.991788" lon="-3.742145">
        <ele>309.130232</ele>
        <time>2020-08-10T06:46:17.707Z</time>
      </trkpt>
      <trkpt lat="37.991725" lon="-3.742287">
        <ele>309.260108</ele>
        <time>2020-08-10T06:46:19.703Z</time>
      </trkpt>
      <trkpt lat="37.991647" lon="-3.742408">
        <ele>309.384697</ele>
        <time>2020-08-10T06:46:21.695Z</time>
      </trkpt>
      <trkpt lat="37.991564" lon="-3.742525">
        <ele>309.510161</ele>
        <time>2020-08-10T06:46:23.704Z</time>
      </trkpt>
      <trkpt lat="37.991507" lon="-3.742652">
        <ele>309.626645</ele>
        <time>2020-08-10T06:46:25.696Z</time>
      </trkpt>
      <trkpt lat="37.991435" lon="-3.742773">
        <ele>309.747484</ele>
        <time>2020-08-10T06:46:27.696Z</time>
      </trkpt>
      <trkpt lat="37.991362" lon="-3.742907">
        <ele>309.877316</ele>
        <time>2020-08-10T06:46:29.701Z</time>
      </trkpt>
      <trkpt lat="37.991305" lon="-3.743045">
        <ele>310.001494</ele>
        <time>2020-08-10T06:46:31.696Z</time>
      </trkpt>
      <trkpt lat="37.991263" lon="-3.743202">
        <ele>310.133637</ele>
        <time>2020-08-10T06:46:33.700Z</time>
      </trkpt>
      <trkpt lat="37.991261" lon="-3.743356">
        <ele>310.256393</ele>
        <time>2020-08-10T06:46:35.687Z</time>
      </trkpt>
      <trkpt lat="37.991237" lon="-3.743508">
        <ele>310.379947</ele>
        <time>2020-08-10T06:46:37.704Z</time>
      </trkpt>
      <trkpt lat="37.991212" lon="-3.743661">
        <ele>310.420053</ele>
        <time>2020-08-10T06:46:39.705Z</time>
      </trkpt>
      <trkpt lat="37.991196" lon="-3.743820">
        <ele>310.309364</ele>
        <time>2020-08-10T06:46:41.695Z</time>
      </trkpt>
      <trkpt lat="37.991176" lon="-3.743975">
        <ele>310.200905</ele>
        <time>2020-08-10T06:46:43.698Z</time>
      </trkpt>
      <trkpt lat="37.991160" lon="-3.744125">
        <ele>310.096378</ele>
        <time>2020-08-10T06:46:45.701Z</time>
      </trkpt>
      <trkpt lat="37.991150" lon="-3.744287">
        <ele>309.984167</ele>
        <time>2020-08-10T06:46:47.716Z</time>
      </trkpt>
      <trkpt lat="37.991125" lon="-3.744433">
        <ele>309.880995</ele>
        <time>2020-08-10T06:46:49.703Z</time>
      </trkpt>
      <trkpt lat="37.991100" lon="-3.744589">
        <ele>309.771066</ele>
        <time>2020-08-10T06:46:51.701Z</time>
      </trkpt>
      <trkpt lat="37.991081" lon="-3.744735">
        <ele>309.668880</ele>
        <time>2020-08-10T06:46:53.721Z</time>
      </trkpt>
      <trkpt lat="37.991052" lon="-3.744883">
        <ele>309.563568</ele>
        <time>2020-08-10T06:46:55.700Z</time>
      </trkpt>
      <trkpt lat="37.991032" lon="-3.745037">
        <ele>309.455790</ele>
        <time>2020-08-10T06:46:57.701Z</time>
      </trkpt>
      <trkpt lat="37.991035" lon="-3.745192">
        <ele>309.348722</ele>
        <time>2020-08-10T06:46:59.688Z</time>
      </trkpt>
      <trkpt lat="37.991024" lon="-3.745345">
        <ele>309.242630</ele>
        <time>2020-08-10T06:47:01.718Z</time>
      </trkpt>
      <trkpt lat="37.991019" lon="-3.745493">
        <ele>309.140335</ele>
        <time>2020-08-10T06:47:03.700Z</time>
      </trkpt>
      <trkpt lat="37.991021" lon="-3.745635">
        <ele>309.042262</ele>
        <time>2020-08-10T06:47:05.698Z</time>
      </trkpt>
      <trkpt lat="37.991036" lon="-3.745777">
        <ele>308.943327</ele>
        <time>2020-08-10T06:47:07.699Z</time>
      </trkpt>
      <trkpt lat="37.991057" lon="-3.745920">
        <ele>308.913709</ele>
        <time>2020-08-10T06:47:09.700Z</time>
      </trkpt>
      <trkpt lat="37.991064" lon="-3.746061">
        <ele>308.987286</ele>
        <time>2020-08-10T06:47:11.696Z</time>
      </trkpt>
      <trkpt lat="37.991078" lon="-3.746208">
        <ele>309.064399</ele>
        <time>2020-08-10T06:47:13.710Z</time>
      </trkpt>
      <trkpt lat="37.991083" lon="-3.746345">
        <ele>309.135824</ele>
        <time>2020-08-10T06:47:15.702Z</time>
      </trkpt>
      <trkpt lat="37.991101" lon="-3.746490">
        <ele>309.212269</ele>
        <time>2020-08-10T06:47:17.690Z</time>
      </trkpt>
      <trkpt lat="37.991132" lon="-3.746625">
        <ele>309.285499</ele>
        <time>2020-08-10T06:47:19.706Z</time>
      </trkpt>
      <trkpt lat="37.991136" lon="-3.746770">
        <ele>309.361060</ele>
        <time>2020-08-10T06:47:21.696Z</time>
      </trkpt>
      <trkpt lat="37.991143" lon="-3.746907">
        <ele>309.432557</ele>
        <time>2020-08-10T06:47:23.687Z</time>
      </trkpt>
      <trkpt lat="37.991157" lon="-3.747061">
        <ele>309.513291</ele>
        <time>2020-08-10T06:47:25.697Z</time>
      </trkpt>
      <trkpt lat="37.991166" lon="-3.747196">
        <ele>309.583848</ele>
        <time>2020-08-10T06:47:27.702Z</time>
      </trkpt>
      <trkpt lat="37.991171" lon="-3.747337">
        <ele>309.657354</ele>
        <time>2020-08-10T06:47:29.694Z</time>
      </trkpt>
      <trkpt lat="37.991189" lon="-3.747477">
        <ele>309.731228</ele>
        <time>2020-08-10T06:47:31.715Z</time>
      </trkpt>
      <trkpt lat="37.991194" lon="-3.747624">
        <ele>309.807855</ele>
        <time>2020-08-10T06:47:33.712Z</time>
      </trkpt>
      <trkpt lat="37.991206" lon="-3.747766">
        <ele>309.882231</ele>
        <time>2020-08-10T06:47:35.690Z</time>
      </trkpt>
      <trkpt lat="37.991213" lon="-3.747921">
        <ele>309.963085</ele>
        <time>2020-08-10T06:47:37.700Z</time>
      </trkpt>
      <trkpt lat="37.991229" lon="-3.748065">
        <ele>310.038820</ele>
        <time>2020-08-10T06:47:39.703Z</time>
      </trkpt>
      <trkpt lat="37.991240" lon="-3.748189">
        <ele>310.024688</ele>
        <time>2020-08-10T06:47:41.704Z</time>
      </trkpt>
      <trkpt lat="37.991232" lon="-3.748320">
        <ele>309.923861</ele>
        <time>2020-08-10T06:47:43.713Z</time>
      </trkpt>
      <trkpt lat="37.991214" lon="-3.748474">
        <ele>309.804395</ele>
        <time>2020-08-10T06:47:45.713Z</time>
      </trkpt>
      <trkpt lat="37.991178" lon="-3.748600">
        <ele>309.701549</ele>
        <time>2020-08-10T06:47:47.707Z</time>
      </trkpt>
      <trkpt lat="37.991148" lon="-3.748734">
        <ele>309.594653</ele>
        <time>2020-08-10T06:47:49.694Z</time>
      </trkpt>
      <trkpt lat="37.991107" lon="-3.748862">
        <ele>309.488628</ele>
        <time>2020-08-10T06:47:51.702Z</time>
      </trkpt>
      <trkpt lat="37.991082" lon="-3.749005">
        <ele>309.376227</ele>
        <time>2020-08-10T06:47:53.699Z</time>
      </trkpt>
      <trkpt lat="37.991058" lon="-3.749131">
        <ele>309.276755</ele>
        <time>2020-08-10T06:47:55.686Z</time>
      </trkpt>
      <trkpt lat="37.991031" lon="-3.749253">
        <ele>309.179515</ele>
        <time>2020-08-10T06:47:57.688Z</time>
      </trkpt>
      <trkpt lat="37.991002" lon="-3.749375">
        <ele>309.081731</ele>
        <time>2020-08-10T06:47:59.705Z</time>
      </trkpt>
      <trkpt lat="37.990962" lon="-3.749499">
        <ele>308.978915</ele>
        <time>2020-08-10T06:48:01.702Z</time>
      </trkpt>
      <trkpt lat="37.990939" lon="-3.749642">
        <ele>308.866920</ele>
        <time>2020-08-10T06:48:03.693Z</time>
      </trkpt>
      <trkpt lat="37.990925" lon="-3.749782">
        <ele>308.758627</ele>
        <time>2020-08-10T06:48:05.692Z</time>
      </trkpt>
      <trkpt lat="37.990906" lon="-3.749923">
        <ele>308.648858</ele>
        <time>2020-08-10T06:48:07.699Z</time>
      </trkpt>
      <trkpt lat="37.990888" lon="-3.750054">
        <ele>308.546816</ele>
        <time>2020-08-10T06:48:09.696Z</time>
      </trkpt>
      <trkpt lat="37.990858" lon="-3.750196">
        <ele>308.434002</ele>
        <time>2020-08-10T06:48:11.692Z</time>
      </trkpt>
      <trkpt lat="37.990830" lon="-3.750315">
        <ele>308.338703</ele>
        <time>2020-08-10T06:48:13.698Z</time>
      </trkpt>
      <trkpt lat="37.990804" lon="-3.750449">
        <ele>308.479010</ele>
        <time>2020-08-10T06:48:15.697Z</time>
      </trkpt>
      <trkpt lat="37.990794" lon="-3.750571">
        <ele>308.649110</ele>
        <time>2020-08-10T06:48:17.699Z</time>
      </trkpt>
      <trkpt lat="37.990773" lon="-3.750697">
        <ele>308.827708</ele>
        <time>2020-08-10T06:48:19.697Z</time>
      </trkpt>
      <trkpt lat="37.990754" lon="-3.750831">
        <ele>309.016520</ele>
        <time>2020-08-10T06:48:21.706Z</time>
      </trkpt>
      <trkpt lat="37.990744" lon="-3.750956">
        <ele>309.190759</ele>
        <time>2020-08-10T06:48:23.702Z</time>
      </trkpt>
      <trkpt lat="37.990734" lon="-3.751081">
        <ele>309.364997</ele>
        <time>2020-08-10T06:48:25.708Z</time>
      </trkpt>
      <trkpt lat="37.990718" lon="-3.751208">
        <ele>309.543354</ele>
        <time>2020-08-10T06:48:27.701Z</time>
      </trkpt>
      <trkpt lat="37.990684" lon="-3.751370">
        <ele>309.775842</ele>
        <time>2020-08-10T06:48:30.695Z</time>
      </trkpt>
      <trkpt lat="37.990661" lon="-3.751485">
        <ele>309.940377</ele>
        <time>2020-08-10T06:48:32.699Z</time>
      </trkpt>
      <trkpt lat="37.990629" lon="-3.751609">
        <ele>310.121322</ele>
        <time>2020-08-10T06:48:34.697Z</time>
      </trkpt>
      <trkpt lat="37.990603" lon="-3.751731">
        <ele>310.296586</ele>
        <time>2020-08-10T06:48:36.705Z</time>
      </trkpt>
      <trkpt lat="37.990575" lon="-3.751849">
        <ele>310.467483</ele>
        <time>2020-08-10T06:48:38.695Z</time>
      </trkpt>
      <trkpt lat="37.990543" lon="-3.751966">
        <ele>310.639229</ele>
        <time>2020-08-10T06:48:40.692Z</time>
      </trkpt>
      <trkpt lat="37.990527" lon="-3.752082">
        <ele>310.802541</ele>
        <time>2020-08-10T06:48:42.694Z</time>
      </trkpt>
      <trkpt lat="37.990491" lon="-3.752214">
        <ele>310.996247</ele>
        <time>2020-08-10T06:48:44.703Z</time>
      </trkpt>
      <trkpt lat="37.990458" lon="-3.752327">
        <ele>311.163366</ele>
        <time>2020-08-10T06:48:46.702Z</time>
      </trkpt>
      <trkpt lat="37.990417" lon="-3.752449">
        <ele>311.347294</ele>
        <time>2020-08-10T06:48:48.694Z</time>
      </trkpt>
      <trkpt lat="37.990393" lon="-3.752588">
        <ele>311.452816</ele>
        <time>2020-08-10T06:48:50.694Z</time>
      </trkpt>
      <trkpt lat="37.990356" lon="-3.752717">
        <ele>311.347836</ele>
        <time>2020-08-10T06:48:52.697Z</time>
      </trkpt>
      <trkpt lat="37.990354" lon="-3.752843">
        <ele>311.251461</ele>
        <time>2020-08-10T06:48:54.691Z</time>
      </trkpt>
      <trkpt lat="37.990318" lon="-3.752972">
        <ele>311.146808</ele>
        <time>2020-08-10T06:48:56.702Z</time>
      </trkpt>
      <trkpt lat="37.990285" lon="-3.753110">
        <ele>311.036525</ele>
        <time>2020-08-10T06:48:58.701Z</time>
      </trkpt>
      <trkpt lat="37.990248" lon="-3.753235">
        <ele>310.934414</ele>
        <time>2020-08-10T06:49:00.704Z</time>
      </trkpt>
      <trkpt lat="37.990211" lon="-3.753357">
        <ele>310.834447</ele>
        <time>2020-08-10T06:49:02.705Z</time>
      </trkpt>
      <trkpt lat="37.990185" lon="-3.753475">
        <ele>310.740748</ele>
        <time>2020-08-10T06:49:04.709Z</time>
      </trkpt>
      <trkpt lat="37.990151" lon="-3.753608">
        <ele>310.633822</ele>
        <time>2020-08-10T06:49:06.682Z</time>
      </trkpt>
      <trkpt lat="37.990109" lon="-3.753739">
        <ele>310.525670</ele>
        <time>2020-08-10T06:49:08.713Z</time>
      </trkpt>
      <trkpt lat="37.990069" lon="-3.753861">
        <ele>310.424621</ele>
        <time>2020-08-10T06:49:10.694Z</time>
      </trkpt>
      <trkpt lat="37.990026" lon="-3.753972">
        <ele>310.330036</ele>
        <time>2020-08-10T06:49:12.700Z</time>
      </trkpt>
      <trkpt lat="37.989976" lon="-3.754081">
        <ele>310.233588</ele>
        <time>2020-08-10T06:49:14.700Z</time>
      </trkpt>
      <trkpt lat="37.989935" lon="-3.754194">
        <ele>310.138455</ele>
        <time>2020-08-10T06:49:16.693Z</time>
      </trkpt>
      <trkpt lat="37.989894" lon="-3.754297">
        <ele>310.050211</ele>
        <time>2020-08-10T06:49:18.689Z</time>
      </trkpt>
      <trkpt lat="37.989855" lon="-3.754407">
        <ele>309.957970</ele>
        <time>2020-08-10T06:49:20.703Z</time>
      </trkpt>
      <trkpt lat="37.989810" lon="-3.754513">
        <ele>309.865896</ele>
        <time>2020-08-10T06:49:22.694Z</time>
      </trkpt>
      <trkpt lat="37.989750" lon="-3.754669">
        <ele>309.747099</ele>
        <time>2020-08-10T06:49:25.698Z</time>
      </trkpt>
      <trkpt lat="37.989706" lon="-3.754771">
        <ele>309.834736</ele>
        <time>2020-08-10T06:49:27.694Z</time>
      </trkpt>
      <trkpt lat="37.989652" lon="-3.754871">
        <ele>309.926098</ele>
        <time>2020-08-10T06:49:29.691Z</time>
      </trkpt>
      <trkpt lat="37.989593" lon="-3.755018">
        <ele>310.050427</ele>
        <time>2020-08-10T06:49:32.701Z</time>
      </trkpt>
      <trkpt lat="37.989548" lon="-3.755121">
        <ele>310.139186</ele>
        <time>2020-08-10T06:49:34.706Z</time>
      </trkpt>
      <trkpt lat="37.989500" lon="-3.755228">
        <ele>310.231978</ele>
        <time>2020-08-10T06:49:36.715Z</time>
      </trkpt>
      <trkpt lat="37.989463" lon="-3.755337">
        <ele>310.321424</ele>
        <time>2020-08-10T06:49:38.701Z</time>
      </trkpt>
      <trkpt lat="37.989422" lon="-3.755444">
        <ele>310.411094</ele>
        <time>2020-08-10T06:49:40.696Z</time>
      </trkpt>
      <trkpt lat="37.989379" lon="-3.755549">
        <ele>310.500276</ele>
        <time>2020-08-10T06:49:42.700Z</time>
      </trkpt>
      <trkpt lat="37.989327" lon="-3.755700">
        <ele>310.624471</ele>
        <time>2020-08-10T06:49:45.690Z</time>
      </trkpt>
      <trkpt lat="37.989297" lon="-3.755812">
        <ele>310.713625</ele>
        <time>2020-08-10T06:49:47.700Z</time>
      </trkpt>
      <trkpt lat="37.989268" lon="-3.755924">
        <ele>310.802476</ele>
        <time>2020-08-10T06:49:49.704Z</time>
      </trkpt>
      <trkpt lat="37.989231" lon="-3.756039">
        <ele>310.896093</ele>
        <time>2020-08-10T06:49:51.714Z</time>
      </trkpt>
      <trkpt lat="37.989207" lon="-3.756157">
        <ele>310.987941</ele>
        <time>2020-08-10T06:49:53.694Z</time>
      </trkpt>
      <trkpt lat="37.989192" lon="-3.756280">
        <ele>311.081747</ele>
        <time>2020-08-10T06:49:55.692Z</time>
      </trkpt>
      <trkpt lat="37.989168" lon="-3.756455">
        <ele>311.215623</ele>
        <time>2020-08-10T06:49:58.701Z</time>
      </trkpt>
      <trkpt lat="37.989150" lon="-3.756595">
        <ele>311.322533</ele>
        <time>2020-08-10T06:50:00.704Z</time>
      </trkpt>
      <trkpt lat="37.989139" lon="-3.756725">
        <ele>311.421075</ele>
        <time>2020-08-10T06:50:02.699Z</time>
      </trkpt>
      <trkpt lat="37.989103" lon="-3.756879">
        <ele>311.413783</ele>
        <time>2020-08-10T06:50:04.697Z</time>
      </trkpt>
      <trkpt lat="37.989073" lon="-3.757010">
        <ele>311.355532</ele>
        <time>2020-08-10T06:50:06.701Z</time>
      </trkpt>
      <trkpt lat="37.989044" lon="-3.757140">
        <ele>311.297840</ele>
        <time>2020-08-10T06:50:08.707Z</time>
      </trkpt>
      <trkpt lat="37.989025" lon="-3.757290">
        <ele>311.232967</ele>
        <time>2020-08-10T06:50:10.694Z</time>
      </trkpt>
      <trkpt lat="37.988995" lon="-3.757412">
        <ele>311.178395</ele>
        <time>2020-08-10T06:50:12.702Z</time>
      </trkpt>
      <trkpt lat="37.988968" lon="-3.757535">
        <ele>311.123874</ele>
        <time>2020-08-10T06:50:14.707Z</time>
      </trkpt>
      <trkpt lat="37.988935" lon="-3.757664">
        <ele>311.065961</ele>
        <time>2020-08-10T06:50:16.695Z</time>
      </trkpt>
      <trkpt lat="37.988908" lon="-3.757800">
        <ele>311.006074</ele>
        <time>2020-08-10T06:50:18.690Z</time>
      </trkpt>
      <trkpt lat="37.988885" lon="-3.757921">
        <ele>310.952924</ele>
        <time>2020-08-10T06:50:20.708Z</time>
      </trkpt>
      <trkpt lat="37.988855" lon="-3.758044">
        <ele>310.897945</ele>
        <time>2020-08-10T06:50:22.703Z</time>
      </trkpt>
      <trkpt lat="37.988815" lon="-3.758193">
        <ele>310.830731</ele>
        <time>2020-08-10T06:50:24.704Z</time>
      </trkpt>
      <trkpt lat="37.988785" lon="-3.758319">
        <ele>310.774526</ele>
        <time>2020-08-10T06:50:26.695Z</time>
      </trkpt>
      <trkpt lat="37.988754" lon="-3.758437">
        <ele>310.721414</ele>
        <time>2020-08-10T06:50:28.701Z</time>
      </trkpt>
      <trkpt lat="37.988718" lon="-3.758550">
        <ele>310.669369</ele>
        <time>2020-08-10T06:50:30.705Z</time>
      </trkpt>
      <trkpt lat="37.988679" lon="-3.758654">
        <ele>310.620189</ele>
        <time>2020-08-10T06:50:32.684Z</time>
      </trkpt>
      <trkpt lat="37.988655" lon="-3.758767">
        <ele>310.570216</ele>
        <time>2020-08-10T06:50:34.703Z</time>
      </trkpt>
      <trkpt lat="37.988622" lon="-3.758920">
        <ele>310.502481</ele>
        <time>2020-08-10T06:50:37.704Z</time>
      </trkpt>
      <trkpt lat="37.988579" lon="-3.759074">
        <ele>310.412157</ele>
        <time>2020-08-10T06:50:40.700Z</time>
      </trkpt>
      <trkpt lat="37.988549" lon="-3.759192">
        <ele>310.338671</ele>
        <time>2020-08-10T06:50:42.691Z</time>
      </trkpt>
      <trkpt lat="37.988518" lon="-3.759312">
        <ele>310.263824</ele>
        <time>2020-08-10T06:50:44.691Z</time>
      </trkpt>
      <trkpt lat="37.988485" lon="-3.759463">
        <ele>310.170950</ele>
        <time>2020-08-10T06:50:47.691Z</time>
      </trkpt>
      <trkpt lat="37.988466" lon="-3.759629">
        <ele>310.071530</ele>
        <time>2020-08-10T06:50:50.697Z</time>
      </trkpt>
      <trkpt lat="37.988435" lon="-3.759743">
        <ele>310.000054</ele>
        <time>2020-08-10T06:50:52.704Z</time>
      </trkpt>
      <trkpt lat="37.988411" lon="-3.759855">
        <ele>309.931262</ele>
        <time>2020-08-10T06:50:54.700Z</time>
      </trkpt>
      <trkpt lat="37.988369" lon="-3.760012">
        <ele>309.832995</ele>
        <time>2020-08-10T06:50:57.697Z</time>
      </trkpt>
      <trkpt lat="37.988335" lon="-3.760123">
        <ele>309.762412</ele>
        <time>2020-08-10T06:50:59.699Z</time>
      </trkpt>
      <trkpt lat="37.988301" lon="-3.760269">
        <ele>309.672179</ele>
        <time>2020-08-10T06:51:02.677Z</time>
      </trkpt>
      <trkpt lat="37.988272" lon="-3.760380">
        <ele>309.602869</ele>
        <time>2020-08-10T06:51:04.694Z</time>
      </trkpt>
      <trkpt lat="37.988257" lon="-3.760498">
        <ele>309.532027</ele>
        <time>2020-08-10T06:51:06.702Z</time>
      </trkpt>
      <trkpt lat="37.988215" lon="-3.760665">
        <ele>309.428130</ele>
        <time>2020-08-10T06:51:09.703Z</time>
      </trkpt>
      <trkpt lat="37.988194" lon="-3.760813">
        <ele>309.339000</ele>
        <time>2020-08-10T06:51:12.703Z</time>
      </trkpt>
      <trkpt lat="37.988132" lon="-3.760966">
        <ele>309.237033</ele>
        <time>2020-08-10T06:51:15.692Z</time>
      </trkpt>
      <trkpt lat="37.988105" lon="-3.761098">
        <ele>309.156205</ele>
        <time>2020-08-10T06:51:18.704Z</time>
      </trkpt>
      <trkpt lat="37.988084" lon="-3.761243">
        <ele>309.441343</ele>
        <time>2020-08-10T06:51:21.703Z</time>
      </trkpt>
      <trkpt lat="37.988061" lon="-3.761357">
        <ele>309.775949</ele>
        <time>2020-08-10T06:51:23.698Z</time>
      </trkpt>
      <trkpt lat="37.988044" lon="-3.761497">
        <ele>310.178729</ele>
        <time>2020-08-10T06:51:26.708Z</time>
      </trkpt>
      <trkpt lat="37.988011" lon="-3.761643">
        <ele>310.610608</ele>
        <time>2020-08-10T06:51:29.699Z</time>
      </trkpt>
      <trkpt lat="37.987986" lon="-3.761784">
        <ele>311.021555</ele>
        <time>2020-08-10T06:51:32.692Z</time>
      </trkpt>
      <trkpt lat="37.987972" lon="-3.761919">
        <ele>311.408730</ele>
        <time>2020-08-10T06:51:35.689Z</time>
      </trkpt>
      <trkpt lat="37.987968" lon="-3.762047">
        <ele>311.772978</ele>
        <time>2020-08-10T06:51:38.687Z</time>
      </trkpt>
      <trkpt lat="37.987972" lon="-3.762183">
        <ele>312.159957</ele>
        <time>2020-08-10T06:51:41.678Z</time>
      </trkpt>
      <trkpt lat="37.987975" lon="-3.762313">
        <ele>312.529765</ele>
        <time>2020-08-10T06:51:44.688Z</time>
      </trkpt>
      <trkpt lat="37.987972" lon="-3.762442">
        <ele>312.896730</ele>
        <time>2020-08-10T06:51:47.702Z</time>
      </trkpt>
      <trkpt lat="37.987968" lon="-3.762578">
        <ele>313.283709</ele>
        <time>2020-08-10T06:51:50.695Z</time>
      </trkpt>
      <trkpt lat="37.987963" lon="-3.762703">
        <ele>313.639598</ele>
        <time>2020-08-10T06:51:53.703Z</time>
      </trkpt>
      <trkpt lat="37.987963" lon="-3.762821">
        <ele>313.975126</ele>
        <time>2020-08-10T06:51:56.681Z</time>
      </trkpt>
      <trkpt lat="37.987937" lon="-3.762951">
        <ele>314.356491</ele>
        <time>2020-08-10T06:52:00.693Z</time>
      </trkpt>
      <trkpt lat="37.987897" lon="-3.763089">
        <ele>314.774583</ele>
        <time>2020-08-10T06:52:04.689Z</time>
      </trkpt>
      <trkpt lat="37.987856" lon="-3.763224">
        <ele>315.185964</ele>
        <time>2020-08-10T06:52:08.710Z</time>
      </trkpt>
      <trkpt lat="37.987824" lon="-3.763356">
        <ele>315.578655</ele>
        <time>2020-08-10T06:52:12.691Z</time>
      </trkpt>
      <trkpt lat="37.987803" lon="-3.763492">
        <ele>315.710282</ele>
        <time>2020-08-10T06:52:16.689Z</time>
      </trkpt>
      <trkpt lat="37.987794" lon="-3.763617">
        <ele>315.799947</ele>
        <time>2020-08-10T06:52:20.701Z</time>
      </trkpt>
      <trkpt lat="37.987796" lon="-3.763738">
        <ele>315.886401</ele>
        <time>2020-08-10T06:52:24.701Z</time>
      </trkpt>
      <trkpt lat="37.987810" lon="-3.763874">
        <ele>315.984378</ele>
        <time>2020-08-10T06:52:28.686Z</time>
      </trkpt>
      <trkpt lat="37.987806" lon="-3.764016">
        <ele>316.085879</ele>
        <time>2020-08-10T06:52:31.634Z</time>
      </trkpt>
      <trkpt lat="37.987797" lon="-3.764151">
        <ele>316.182660</ele>
        <time>2020-08-10T06:52:35.623Z</time>
      </trkpt>
      <trkpt lat="37.987771" lon="-3.764282">
        <ele>316.279161</ele>
        <time>2020-08-10T06:52:39.629Z</time>
      </trkpt>
      <trkpt lat="37.987765" lon="-3.764409">
        <ele>316.370046</ele>
        <time>2020-08-10T06:52:43.619Z</time>
      </trkpt>
      <trkpt lat="37.987744" lon="-3.764552">
        <ele>316.473956</ele>
        <time>2020-08-10T06:52:47.617Z</time>
      </trkpt>
      <trkpt lat="37.987730" lon="-3.764687">
        <ele>316.571223</ele>
        <time>2020-08-10T06:52:51.629Z</time>
      </trkpt>
      <trkpt lat="37.987702" lon="-3.764814">
        <ele>316.665428</ele>
        <time>2020-08-10T06:52:55.626Z</time>
      </trkpt>
      <trkpt lat="37.987687" lon="-3.764952">
        <ele>316.764941</ele>
        <time>2020-08-10T06:52:59.618Z</time>
      </trkpt>
      <trkpt lat="37.987667" lon="-3.765094">
        <ele>316.867985</ele>
        <time>2020-08-10T06:53:03.656Z</time>
      </trkpt>
      <trkpt lat="37.987648" lon="-3.765217">
        <ele>316.957522</ele>
        <time>2020-08-10T06:53:06.623Z</time>
      </trkpt>
      <trkpt lat="37.987623" lon="-3.765360">
        <ele>317.062156</ele>
        <time>2020-08-10T06:53:09.628Z</time>
      </trkpt>
      <trkpt lat="37.987615" lon="-3.765481">
        <ele>317.148896</ele>
        <time>2020-08-10T06:53:11.628Z</time>
      </trkpt>
      <trkpt lat="37.987602" lon="-3.765607">
        <ele>317.239671</ele>
        <time>2020-08-10T06:53:13.632Z</time>
      </trkpt>
      <trkpt lat="37.987594" lon="-3.765737">
        <ele>317.261105</ele>
        <time>2020-08-10T06:53:15.625Z</time>
      </trkpt>
      <trkpt lat="37.987591" lon="-3.765887">
        <ele>317.272636</ele>
        <time>2020-08-10T06:53:17.625Z</time>
      </trkpt>
      <trkpt lat="37.987577" lon="-3.766038">
        <ele>317.284319</ele>
        <time>2020-08-10T06:53:19.613Z</time>
      </trkpt>
      <trkpt lat="37.987551" lon="-3.766181">
        <ele>317.295597</ele>
        <time>2020-08-10T06:53:21.630Z</time>
      </trkpt>
      <trkpt lat="37.987539" lon="-3.766340">
        <ele>317.307871</ele>
        <time>2020-08-10T06:53:23.631Z</time>
      </trkpt>
      <trkpt lat="37.987532" lon="-3.766499">
        <ele>317.320108</ele>
        <time>2020-08-10T06:53:25.632Z</time>
      </trkpt>
      <trkpt lat="37.987534" lon="-3.766650">
        <ele>317.331714</ele>
        <time>2020-08-10T06:53:27.630Z</time>
      </trkpt>
      <trkpt lat="37.987517" lon="-3.766803">
        <ele>317.343587</ele>
        <time>2020-08-10T06:53:29.616Z</time>
      </trkpt>
      <trkpt lat="37.987516" lon="-3.766956">
        <ele>317.355345</ele>
        <time>2020-08-10T06:53:31.618Z</time>
      </trkpt>
      <trkpt lat="37.987519" lon="-3.767101">
        <ele>317.366491</ele>
        <time>2020-08-10T06:53:33.639Z</time>
      </trkpt>
      <trkpt lat="37.987509" lon="-3.767239">
        <ele>317.377140</ele>
        <time>2020-08-10T06:53:35.633Z</time>
      </trkpt>
      <trkpt lat="37.987507" lon="-3.767378">
        <ele>317.387824</ele>
        <time>2020-08-10T06:53:37.635Z</time>
      </trkpt>
      <trkpt lat="37.987497" lon="-3.767529">
        <ele>317.399468</ele>
        <time>2020-08-10T06:53:39.619Z</time>
      </trkpt>
      <trkpt lat="37.987489" lon="-3.767682">
        <ele>317.411251</ele>
        <time>2020-08-10T06:53:41.625Z</time>
      </trkpt>
      <trkpt lat="37.987487" lon="-3.767820">
        <ele>317.421858</ele>
        <time>2020-08-10T06:53:43.620Z</time>
      </trkpt>
      <trkpt lat="37.987482" lon="-3.767983">
        <ele>317.500046</ele>
        <time>2020-08-10T06:53:45.634Z</time>
      </trkpt>
      <trkpt lat="37.987494" lon="-3.768117">
        <ele>317.614089</ele>
        <time>2020-08-10T06:53:47.628Z</time>
      </trkpt>
      <trkpt lat="37.987522" lon="-3.768271">
        <ele>317.747735</ele>
        <time>2020-08-10T06:53:49.624Z</time>
      </trkpt>
      <trkpt lat="37.987544" lon="-3.768410">
        <ele>317.867623</ele>
        <time>2020-08-10T06:53:51.628Z</time>
      </trkpt>
      <trkpt lat="37.987561" lon="-3.768563">
        <ele>317.998283</ele>
        <time>2020-08-10T06:53:53.636Z</time>
      </trkpt>
      <trkpt lat="37.987577" lon="-3.768692">
        <ele>318.108711</ele>
        <time>2020-08-10T06:53:55.618Z</time>
      </trkpt>
      <trkpt lat="37.987601" lon="-3.768823">
        <ele>318.222441</ele>
        <time>2020-08-10T06:53:57.623Z</time>
      </trkpt>
      <trkpt lat="37.987627" lon="-3.768947">
        <ele>318.330946</ele>
        <time>2020-08-10T06:53:59.636Z</time>
      </trkpt>
      <trkpt lat="37.987659" lon="-3.769075">
        <ele>318.444500</ele>
        <time>2020-08-10T06:54:01.623Z</time>
      </trkpt>
      <trkpt lat="37.987696" lon="-3.769186">
        <ele>318.546414</ele>
        <time>2020-08-10T06:54:03.630Z</time>
      </trkpt>
      <trkpt lat="37.987729" lon="-3.769306">
        <ele>318.653888</ele>
        <time>2020-08-10T06:54:05.625Z</time>
      </trkpt>
      <trkpt lat="37.987757" lon="-3.769472">
        <ele>318.797440</ele>
        <time>2020-08-10T06:54:08.629Z</time>
      </trkpt>
      <trkpt lat="37.987792" lon="-3.769634">
        <ele>318.939485</ele>
        <time>2020-08-10T06:54:11.629Z</time>
      </trkpt>
      <trkpt lat="37.987827" lon="-3.769782">
        <ele>319.070149</ele>
        <time>2020-08-10T06:54:14.620Z</time>
      </trkpt>
      <trkpt lat="37.987838" lon="-3.769948">
        <ele>319.211017</ele>
        <time>2020-08-10T06:54:17.625Z</time>
      </trkpt>
      <trkpt lat="37.987837" lon="-3.770062">
        <ele>319.307424</ele>
        <time>2020-08-10T06:54:19.634Z</time>
      </trkpt>
      <trkpt lat="37.987847" lon="-3.770187">
        <ele>319.285424</ele>
        <time>2020-08-10T06:54:21.627Z</time>
      </trkpt>
      <trkpt lat="37.987846" lon="-3.770326">
        <ele>319.133883</ele>
        <time>2020-08-10T06:54:23.624Z</time>
      </trkpt>
      <trkpt lat="37.987842" lon="-3.770464">
        <ele>318.983338</ele>
        <time>2020-08-10T06:54:25.628Z</time>
      </trkpt>
      <trkpt lat="37.987849" lon="-3.770600">
        <ele>318.834758</ele>
        <time>2020-08-10T06:54:27.627Z</time>
      </trkpt>
      <trkpt lat="37.987855" lon="-3.770740">
        <ele>318.681909</ele>
        <time>2020-08-10T06:54:29.616Z</time>
      </trkpt>
      <trkpt lat="37.987865" lon="-3.770871">
        <ele>318.538428</ele>
        <time>2020-08-10T06:54:31.634Z</time>
      </trkpt>
      <trkpt lat="37.987864" lon="-3.771006">
        <ele>318.391248</ele>
        <time>2020-08-10T06:54:33.617Z</time>
      </trkpt>
      <trkpt lat="37.987863" lon="-3.771149">
        <ele>318.235347</ele>
        <time>2020-08-10T06:54:35.617Z</time>
      </trkpt>
      <trkpt lat="37.987841" lon="-3.771305">
        <ele>318.062578</ele>
        <time>2020-08-10T06:54:37.614Z</time>
      </trkpt>
      <trkpt lat="37.987817" lon="-3.771473">
        <ele>317.876445</ele>
        <time>2020-08-10T06:54:39.634Z</time>
      </trkpt>
      <trkpt lat="37.987813" lon="-3.771662">
        <ele>317.670328</ele>
        <time>2020-08-10T06:54:41.627Z</time>
      </trkpt>
      <trkpt lat="37.987814" lon="-3.771883">
        <ele>317.429395</ele>
        <time>2020-08-10T06:54:43.631Z</time>
      </trkpt>
      <trkpt lat="37.987830" lon="-3.772002">
        <ele>317.297790</ele>
        <time>2020-08-10T06:54:44.617Z</time>
      </trkpt>
      <trkpt lat="37.987849" lon="-3.772119">
        <ele>317.167561</ele>
        <time>2020-08-10T06:54:45.633Z</time>
      </trkpt>
      <trkpt lat="37.987893" lon="-3.772335">
        <ele>316.924345</ele>
        <time>2020-08-10T06:54:47.626Z</time>
      </trkpt>
      <trkpt lat="37.987922" lon="-3.772515">
        <ele>316.897750</ele>
        <time>2020-08-10T06:54:49.631Z</time>
      </trkpt>
      <trkpt lat="37.987952" lon="-3.772684">
        <ele>316.934080</ele>
        <time>2020-08-10T06:54:51.631Z</time>
      </trkpt>
      <trkpt lat="37.987970" lon="-3.772835">
        <ele>316.966108</ele>
        <time>2020-08-10T06:54:53.630Z</time>
      </trkpt>
      <trkpt lat="37.988000" lon="-3.772951">
        <ele>316.991712</ele>
        <time>2020-08-10T06:54:55.620Z</time>
      </trkpt>
      <trkpt lat="37.988046" lon="-3.773115">
        <ele>317.028219</ele>
        <time>2020-08-10T06:54:58.625Z</time>
      </trkpt>
      <trkpt lat="37.988093" lon="-3.773245">
        <ele>317.058215</ele>
        <time>2020-08-10T06:55:01.630Z</time>
      </trkpt>
      <trkpt lat="37.988106" lon="-3.773382">
        <ele>317.087154</ele>
        <time>2020-08-10T06:55:04.610Z</time>
      </trkpt>
      <trkpt lat="37.988128" lon="-3.773508">
        <ele>317.114219</ele>
        <time>2020-08-10T06:55:07.636Z</time>
      </trkpt>
      <trkpt lat="37.988145" lon="-3.773630">
        <ele>317.140202</ele>
        <time>2020-08-10T06:55:10.623Z</time>
      </trkpt>
      <trkpt lat="37.988163" lon="-3.773762">
        <ele>317.168296</ele>
        <time>2020-08-10T06:55:14.612Z</time>
      </trkpt>
      <trkpt lat="37.988181" lon="-3.773901">
        <ele>317.197838</ele>
        <time>2020-08-10T06:55:18.628Z</time>
      </trkpt>
      <trkpt lat="37.988192" lon="-3.774017">
        <ele>317.222341</ele>
        <time>2020-08-10T06:55:21.628Z</time>
      </trkpt>
      <trkpt lat="37.988216" lon="-3.774162">
        <ele>317.253414</ele>
        <time>2020-08-10T06:55:25.634Z</time>
      </trkpt>
      <trkpt lat="37.988227" lon="-3.774275">
        <ele>317.277292</ele>
        <time>2020-08-10T06:55:28.625Z</time>
      </trkpt>
      <trkpt lat="37.988234" lon="-3.774393">
        <ele>317.302109</ele>
        <time>2020-08-10T06:55:31.625Z</time>
      </trkpt>
      <trkpt lat="37.988247" lon="-3.774507">
        <ele>317.326266</ele>
        <time>2020-08-10T06:55:34.625Z</time>
      </trkpt>
      <trkpt lat="37.988267" lon="-3.774646">
        <ele>317.376320</ele>
        <time>2020-08-10T06:55:38.632Z</time>
      </trkpt>
      <trkpt lat="37.988287" lon="-3.774790">
        <ele>317.489797</ele>
        <time>2020-08-10T06:55:42.626Z</time>
      </trkpt>
      <trkpt lat="37.988305" lon="-3.774938">
        <ele>317.606015</ele>
        <time>2020-08-10T06:55:46.627Z</time>
      </trkpt>
      <trkpt lat="37.988324" lon="-3.775084">
        <ele>317.720856</ele>
        <time>2020-08-10T06:55:50.635Z</time>
      </trkpt>
      <trkpt lat="37.988346" lon="-3.775201">
        <ele>317.814206</ele>
        <time>2020-08-10T06:55:53.639Z</time>
      </trkpt>
      <trkpt lat="37.988369" lon="-3.775317">
        <ele>317.907035</ele>
        <time>2020-08-10T06:55:56.623Z</time>
      </trkpt>
      <trkpt lat="37.988391" lon="-3.775431">
        <ele>317.998121</ele>
        <time>2020-08-10T06:55:59.620Z</time>
      </trkpt>
      <trkpt lat="37.988406" lon="-3.775563">
        <ele>318.101622</ele>
        <time>2020-08-10T06:56:02.623Z</time>
      </trkpt>
      <trkpt lat="37.988415" lon="-3.775695">
        <ele>318.204447</ele>
        <time>2020-08-10T06:56:05.626Z</time>
      </trkpt>
      <trkpt lat="37.988430" lon="-3.775842">
        <ele>318.319482</ele>
        <time>2020-08-10T06:56:08.620Z</time>
      </trkpt>
      <trkpt lat="37.988461" lon="-3.775979">
        <ele>318.430099</ele>
        <time>2020-08-10T06:56:11.646Z</time>
      </trkpt>
      <trkpt lat="37.988489" lon="-3.776108">
        <ele>318.533940</ele>
        <time>2020-08-10T06:56:14.637Z</time>
      </trkpt>
      <trkpt lat="37.988483" lon="-3.776409">
        <ele>318.767612</ele>
        <time>2020-08-10T06:56:21.627Z</time>
      </trkpt>
      <trkpt lat="37.988438" lon="-3.776532">
        <ele>318.872853</ele>
        <time>2020-08-10T06:56:27.629Z</time>
      </trkpt>
      <trkpt lat="37.988489" lon="-3.776667">
        <ele>318.989037</ele>
        <time>2020-08-10T06:56:30.622Z</time>
      </trkpt>
      <trkpt lat="37.988550" lon="-3.776760">
        <ele>319.082937</ele>
        <time>2020-08-10T06:56:33.609Z</time>
      </trkpt>
      <trkpt lat="37.988527" lon="-3.777025">
        <ele>319.347739</ele>
        <time>2020-08-10T06:56:39.621Z</time>
      </trkpt>
      <trkpt lat="37.988453" lon="-3.777091">
        <ele>319.467075</ele>
        <time>2020-08-10T06:56:45.622Z</time>
      </trkpt>
      <trkpt lat="37.988423" lon="-3.777220">
        <ele>319.606926</ele>
        <time>2020-08-10T06:56:48.622Z</time>
      </trkpt>
      <trkpt lat="37.988418" lon="-3.777350">
        <ele>319.742260</ele>
        <time>2020-08-10T06:56:51.611Z</time>
      </trkpt>
      <trkpt lat="37.988461" lon="-3.777471">
        <ele>319.880274</ele>
        <time>2020-08-10T06:56:55.617Z</time>
      </trkpt>
      <trkpt lat="37.988419" lon="-3.777613">
        <ele>320.037980</ele>
        <time>2020-08-10T06:56:58.609Z</time>
      </trkpt>
      <trkpt lat="37.988405" lon="-3.777733">
        <ele>320.164115</ele>
        <time>2020-08-10T06:57:01.627Z</time>
      </trkpt>
      <trkpt lat="37.988406" lon="-3.777870">
        <ele>320.306573</ele>
        <time>2020-08-10T06:57:05.626Z</time>
      </trkpt>
      <trkpt lat="37.988415" lon="-3.778020">
        <ele>320.462994</ele>
        <time>2020-08-10T06:57:09.641Z</time>
      </trkpt>
      <trkpt lat="37.988436" lon="-3.778149">
        <ele>320.599959</ele>
        <time>2020-08-10T06:57:12.714Z</time>
      </trkpt>
      <trkpt lat="37.988513" lon="-3.778267">
        <ele>320.759252</ele>
        <time>2020-08-10T06:57:15.622Z</time>
      </trkpt>
      <trkpt lat="37.988585" lon="-3.778348">
        <ele>320.886204</ele>
        <time>2020-08-10T06:57:17.631Z</time>
      </trkpt>
      <trkpt lat="37.988644" lon="-3.778452">
        <ele>321.019444</ele>
        <time>2020-08-10T06:57:19.623Z</time>
      </trkpt>
      <trkpt lat="37.988688" lon="-3.778598">
        <ele>321.181974</ele>
        <time>2020-08-10T06:57:21.622Z</time>
      </trkpt>
      <trkpt lat="37.988707" lon="-3.778758">
        <ele>321.350218</ele>
        <time>2020-08-10T06:57:23.626Z</time>
      </trkpt>
      <trkpt lat="37.988718" lon="-3.778941">
        <ele>321.412042</ele>
        <time>2020-08-10T06:57:25.626Z</time>
      </trkpt>
      <trkpt lat="37.988698" lon="-3.779144">
        <ele>321.060408</ele>
        <time>2020-08-10T06:57:27.626Z</time>
      </trkpt>
      <trkpt lat="37.988698" lon="-3.779353">
        <ele>320.701177</ele>
        <time>2020-08-10T06:57:29.621Z</time>
      </trkpt>
      <trkpt lat="37.988693" lon="-3.779569">
        <ele>320.329754</ele>
        <time>2020-08-10T06:57:31.618Z</time>
      </trkpt>
      <trkpt lat="37.988694" lon="-3.779685">
        <ele>320.130360</ele>
        <time>2020-08-10T06:57:32.636Z</time>
      </trkpt>
      <trkpt lat="37.988692" lon="-3.779802">
        <ele>319.929212</ele>
        <time>2020-08-10T06:57:33.622Z</time>
      </trkpt>
      <trkpt lat="37.988690" lon="-3.779917">
        <ele>319.731501</ele>
        <time>2020-08-10T06:57:34.614Z</time>
      </trkpt>
      <trkpt lat="37.988694" lon="-3.780146">
        <ele>319.337797</ele>
        <time>2020-08-10T06:57:36.624Z</time>
      </trkpt>
      <trkpt lat="37.988705" lon="-3.780261">
        <ele>319.138684</ele>
        <time>2020-08-10T06:57:37.622Z</time>
      </trkpt>
      <trkpt lat="37.988722" lon="-3.780489">
        <ele>318.745046</ele>
        <time>2020-08-10T06:57:39.636Z</time>
      </trkpt>
      <trkpt lat="37.988741" lon="-3.780603">
        <ele>318.544768</ele>
        <time>2020-08-10T06:57:40.623Z</time>
      </trkpt>
      <trkpt lat="37.988756" lon="-3.780842">
        <ele>318.132673</ele>
        <time>2020-08-10T06:57:42.624Z</time>
      </trkpt>
      <trkpt lat="37.988774" lon="-3.780961">
        <ele>317.924402</ele>
        <time>2020-08-10T06:57:43.635Z</time>
      </trkpt>
      <trkpt lat="37.988784" lon="-3.781087">
        <ele>317.706737</ele>
        <time>2020-08-10T06:57:44.623Z</time>
      </trkpt>
      <trkpt lat="37.988799" lon="-3.781220">
        <ele>317.537166</ele>
        <time>2020-08-10T06:57:45.625Z</time>
      </trkpt>
      <trkpt lat="37.988810" lon="-3.781347">
        <ele>317.460878</ele>
        <time>2020-08-10T06:57:46.623Z</time>
      </trkpt>
      <trkpt lat="37.988841" lon="-3.781464">
        <ele>317.387176</ele>
        <time>2020-08-10T06:57:47.621Z</time>
      </trkpt>
      <trkpt lat="37.988858" lon="-3.781584">
        <ele>317.314375</ele>
        <time>2020-08-10T06:57:48.608Z</time>
      </trkpt>
      <trkpt lat="37.988898" lon="-3.781691">
        <ele>317.243663</ele>
        <time>2020-08-10T06:57:49.629Z</time>
      </trkpt>
      <trkpt lat="37.988867" lon="-3.781894">
        <ele>317.120198</ele>
        <time>2020-08-10T06:57:51.627Z</time>
      </trkpt>
      <trkpt lat="37.988852" lon="-3.782075">
        <ele>317.011527</ele>
        <time>2020-08-10T06:57:53.635Z</time>
      </trkpt>
      <trkpt lat="37.988826" lon="-3.782256">
        <ele>316.901672</ele>
        <time>2020-08-10T06:57:55.640Z</time>
      </trkpt>
      <trkpt lat="37.988818" lon="-3.782408">
        <ele>316.810710</ele>
        <time>2020-08-10T06:57:57.630Z</time>
      </trkpt>
      <trkpt lat="37.988812" lon="-3.782563">
        <ele>316.718048</ele>
        <time>2020-08-10T06:57:59.645Z</time>
      </trkpt>
      <trkpt lat="37.988778" lon="-3.782673">
        <ele>316.647497</ele>
        <time>2020-08-10T06:58:01.645Z</time>
      </trkpt>
      <trkpt lat="37.988749" lon="-3.782792">
        <ele>316.573123</ele>
        <time>2020-08-10T06:58:04.624Z</time>
      </trkpt>
      <trkpt lat="37.988706" lon="-3.782903">
        <ele>316.499271</ele>
        <time>2020-08-10T06:58:07.620Z</time>
      </trkpt>
      <trkpt lat="37.988667" lon="-3.783007">
        <ele>316.430502</ele>
        <time>2020-08-10T06:58:10.625Z</time>
      </trkpt>
      <trkpt lat="37.988625" lon="-3.783122">
        <ele>316.354821</ele>
        <time>2020-08-10T06:58:13.636Z</time>
      </trkpt>
      <trkpt lat="37.988577" lon="-3.783236">
        <ele>316.277647</ele>
        <time>2020-08-10T06:58:16.627Z</time>
      </trkpt>
      <trkpt lat="37.988542" lon="-3.783348">
        <ele>316.206145</ele>
        <time>2020-08-10T06:58:19.619Z</time>
      </trkpt>
      <trkpt lat="37.988522" lon="-3.783505">
        <ele>316.140037</ele>
        <time>2020-08-10T06:58:23.619Z</time>
      </trkpt>
      <trkpt lat="37.988455" lon="-3.783611">
        <ele>316.083555</ele>
        <time>2020-08-10T06:58:25.621Z</time>
      </trkpt>
      <trkpt lat="37.988403" lon="-3.783737">
        <ele>316.024434</ele>
        <time>2020-08-10T06:58:27.611Z</time>
      </trkpt>
      <trkpt lat="37.988398" lon="-3.783873">
        <ele>315.967840</ele>
        <time>2020-08-10T06:58:29.615Z</time>
      </trkpt>
      <trkpt lat="37.988402" lon="-3.784028">
        <ele>315.903375</ele>
        <time>2020-08-10T06:58:31.620Z</time>
      </trkpt>
      <trkpt lat="37.988396" lon="-3.784161">
        <ele>315.848000</ele>
        <time>2020-08-10T06:58:33.613Z</time>
      </trkpt>
      <trkpt lat="37.988385" lon="-3.784277">
        <ele>315.799433</ele>
        <time>2020-08-10T06:58:35.611Z</time>
      </trkpt>
      <trkpt lat="37.988418" lon="-3.784444">
        <ele>315.727866</ele>
        <time>2020-08-10T06:58:38.637Z</time>
      </trkpt>
      <trkpt lat="37.988364" lon="-3.784547">
        <ele>315.676444</ele>
        <time>2020-08-10T06:58:40.625Z</time>
      </trkpt>
      <trkpt lat="37.988267" lon="-3.784674">
        <ele>315.602930</ele>
        <time>2020-08-10T06:58:43.621Z</time>
      </trkpt>
      <trkpt lat="37.988188" lon="-3.784774">
        <ele>315.544075</ele>
        <time>2020-08-10T06:58:45.625Z</time>
      </trkpt>
      <trkpt lat="37.988135" lon="-3.784871">
        <ele>315.495012</ele>
        <time>2020-08-10T06:58:47.638Z</time>
      </trkpt>
      <trkpt lat="37.988074" lon="-3.784991">
        <ele>315.435655</ele>
        <time>2020-08-10T06:58:49.622Z</time>
      </trkpt>
      <trkpt lat="37.988030" lon="-3.785143">
        <ele>315.368345</ele>
        <time>2020-08-10T06:58:51.619Z</time>
      </trkpt>
      <trkpt lat="37.988002" lon="-3.785339">
        <ele>315.285544</ele>
        <time>2020-08-10T06:58:53.623Z</time>
      </trkpt>
      <trkpt lat="37.988020" lon="-3.785544">
        <ele>315.037452</ele>
        <time>2020-08-10T06:58:55.630Z</time>
      </trkpt>
      <trkpt lat="37.988024" lon="-3.785758">
        <ele>314.702411</ele>
        <time>2020-08-10T06:58:57.630Z</time>
      </trkpt>
      <trkpt lat="37.988028" lon="-3.785876">
        <ele>314.517550</ele>
        <time>2020-08-10T06:58:58.613Z</time>
      </trkpt>
      <trkpt lat="37.988037" lon="-3.785991">
        <ele>314.336670</ele>
        <time>2020-08-10T06:58:59.631Z</time>
      </trkpt>
      <trkpt lat="37.988028" lon="-3.786107">
        <ele>314.154233</ele>
        <time>2020-08-10T06:59:00.641Z</time>
      </trkpt>
      <trkpt lat="37.988017" lon="-3.786244">
        <ele>313.938694</ele>
        <time>2020-08-10T06:59:01.632Z</time>
      </trkpt>
      <trkpt lat="37.987995" lon="-3.786364">
        <ele>313.745859</ele>
        <time>2020-08-10T06:59:02.618Z</time>
      </trkpt>
      <trkpt lat="37.987972" lon="-3.786489">
        <ele>313.544951</ele>
        <time>2020-08-10T06:59:03.613Z</time>
      </trkpt>
      <trkpt lat="37.987940" lon="-3.786617">
        <ele>313.334772</ele>
        <time>2020-08-10T06:59:04.632Z</time>
      </trkpt>
      <trkpt lat="37.987901" lon="-3.786737">
        <ele>313.131609</ele>
        <time>2020-08-10T06:59:05.628Z</time>
      </trkpt>
      <trkpt lat="37.987869" lon="-3.786872">
        <ele>312.910961</ele>
        <time>2020-08-10T06:59:06.622Z</time>
      </trkpt>
      <trkpt lat="37.987838" lon="-3.786998">
        <ele>312.704363</ele>
        <time>2020-08-10T06:59:07.631Z</time>
      </trkpt>
      <trkpt lat="37.987807" lon="-3.787117">
        <ele>312.508196</ele>
        <time>2020-08-10T06:59:08.622Z</time>
      </trkpt>
      <trkpt lat="37.987778" lon="-3.787247">
        <ele>312.296730</ele>
        <time>2020-08-10T06:59:09.639Z</time>
      </trkpt>
      <trkpt lat="37.987747" lon="-3.787377">
        <ele>312.084148</ele>
        <time>2020-08-10T06:59:10.616Z</time>
      </trkpt>
      <trkpt lat="37.987710" lon="-3.787499">
        <ele>311.879546</ele>
        <time>2020-08-10T06:59:11.624Z</time>
      </trkpt>
      <trkpt lat="37.987678" lon="-3.787619">
        <ele>311.676105</ele>
        <time>2020-08-10T06:59:12.622Z</time>
      </trkpt>
      <trkpt lat="37.987650" lon="-3.787744">
        <ele>311.274965</ele>
        <time>2020-08-10T06:59:13.624Z</time>
      </trkpt>
      <trkpt lat="37.987618" lon="-3.787869">
        <ele>310.869263</ele>
        <time>2020-08-10T06:59:14.626Z</time>
      </trkpt>
      <trkpt lat="37.987589" lon="-3.787995">
        <ele>310.464072</ele>
        <time>2020-08-10T06:59:15.633Z</time>
      </trkpt>
      <trkpt lat="37.987559" lon="-3.788123">
        <ele>310.051852</ele>
        <time>2020-08-10T06:59:16.629Z</time>
      </trkpt>
      <trkpt lat="37.987537" lon="-3.788252">
        <ele>309.644430</ele>
        <time>2020-08-10T06:59:17.637Z</time>
      </trkpt>
      <trkpt lat="37.987508" lon="-3.788360">
        <ele>309.292230</ele>
        <time>2020-08-10T06:59:18.630Z</time>
      </trkpt>
      <trkpt lat="37.987485" lon="-3.788476">
        <ele>308.922996</ele>
        <time>2020-08-10T06:59:19.628Z</time>
      </trkpt>
      <trkpt lat="37.987467" lon="-3.788588">
        <ele>308.570151</ele>
        <time>2020-08-10T06:59:20.626Z</time>
      </trkpt>
      <trkpt lat="37.987451" lon="-3.788700">
        <ele>308.218788</ele>
        <time>2020-08-10T06:59:21.631Z</time>
      </trkpt>
      <trkpt lat="37.987430" lon="-3.788928">
        <ele>307.510191</ele>
        <time>2020-08-10T06:59:23.626Z</time>
      </trkpt>
      <trkpt lat="37.987409" lon="-3.789132">
        <ele>306.875120</ele>
        <time>2020-08-10T06:59:25.631Z</time>
      </trkpt>
      <trkpt lat="37.987391" lon="-3.789360">
        <ele>306.167790</ele>
        <time>2020-08-10T06:59:27.624Z</time>
      </trkpt>
      <trkpt lat="37.987391" lon="-3.789571">
        <ele>305.516459</ele>
        <time>2020-08-10T06:59:29.630Z</time>
      </trkpt>
      <trkpt lat="37.987369" lon="-3.789784">
        <ele>304.853332</ele>
        <time>2020-08-10T06:59:31.608Z</time>
      </trkpt>
      <trkpt lat="37.987364" lon="-3.789987">
        <ele>304.480392</ele>
        <time>2020-08-10T06:59:33.624Z</time>
      </trkpt>
      <trkpt lat="37.987361" lon="-3.790194">
        <ele>304.231927</ele>
        <time>2020-08-10T06:59:35.622Z</time>
      </trkpt>
      <trkpt lat="37.987353" lon="-3.790394">
        <ele>303.991596</ele>
        <time>2020-08-10T06:59:37.625Z</time>
      </trkpt>
      <trkpt lat="37.987351" lon="-3.790596">
        <ele>303.749155</ele>
        <time>2020-08-10T06:59:39.633Z</time>
      </trkpt>
      <trkpt lat="37.987361" lon="-3.790802">
        <ele>303.501464</ele>
        <time>2020-08-10T06:59:41.623Z</time>
      </trkpt>
      <trkpt lat="37.987358" lon="-3.790981">
        <ele>303.286596</ele>
        <time>2020-08-10T06:59:43.603Z</time>
      </trkpt>
      <trkpt lat="37.987339" lon="-3.791153">
        <ele>303.078159</ele>
        <time>2020-08-10T06:59:45.615Z</time>
      </trkpt>
      <trkpt lat="37.987294" lon="-3.791351">
        <ele>302.830855</ele>
        <time>2020-08-10T06:59:47.630Z</time>
      </trkpt>
      <trkpt lat="37.987254" lon="-3.791527">
        <ele>302.611029</ele>
        <time>2020-08-10T06:59:49.621Z</time>
      </trkpt>
      <trkpt lat="37.987224" lon="-3.791698">
        <ele>302.400788</ele>
        <time>2020-08-10T06:59:51.624Z</time>
      </trkpt>
      <trkpt lat="37.987212" lon="-3.791889">
        <ele>302.170839</ele>
        <time>2020-08-10T06:59:53.636Z</time>
      </trkpt>
      <trkpt lat="37.987171" lon="-3.792043">
        <ele>301.975762</ele>
        <time>2020-08-10T06:59:55.616Z</time>
      </trkpt>
      <trkpt lat="37.987130" lon="-3.792217">
        <ele>301.778388</ele>
        <time>2020-08-10T06:59:57.619Z</time>
      </trkpt>
      <trkpt lat="37.987096" lon="-3.792390">
        <ele>301.594704</ele>
        <time>2020-08-10T06:59:59.620Z</time>
      </trkpt>
      <trkpt lat="37.987051" lon="-3.792556">
        <ele>301.413857</ele>
        <time>2020-08-10T07:00:01.625Z</time>
      </trkpt>
      <trkpt lat="37.987000" lon="-3.792746">
        <ele>301.207076</ele>
        <time>2020-08-10T07:00:03.630Z</time>
      </trkpt>
      <trkpt lat="37.986949" lon="-3.792906">
        <ele>301.029272</ele>
        <time>2020-08-10T07:00:05.625Z</time>
      </trkpt>
      <trkpt lat="37.986921" lon="-3.793056">
        <ele>300.870466</ele>
        <time>2020-08-10T07:00:07.624Z</time>
      </trkpt>
      <trkpt lat="37.986890" lon="-3.793202">
        <ele>300.714692</ele>
        <time>2020-08-10T07:00:09.646Z</time>
      </trkpt>
      <trkpt lat="37.986864" lon="-3.793321">
        <ele>300.587473</ele>
        <time>2020-08-10T07:00:11.627Z</time>
      </trkpt>
      <trkpt lat="37.986803" lon="-3.793452">
        <ele>300.430721</ele>
        <time>2020-08-10T07:00:14.613Z</time>
      </trkpt>
      <trkpt lat="37.986730" lon="-3.793580">
        <ele>300.267951</ele>
        <time>2020-08-10T07:03:41.539Z</time>
      </trkpt>
      <trkpt lat="37.986759" lon="-3.793902">
        <ele>299.934064</ele>
        <time>2020-08-10T07:07:02.585Z</time>
      </trkpt>
      <trkpt lat="37.986717" lon="-3.794005">
        <ele>299.814591</ele>
        <time>2020-08-10T07:07:07.512Z</time>
      </trkpt>
      <trkpt lat="37.986671" lon="-3.794132">
        <ele>299.670599</ele>
        <time>2020-08-10T07:07:13.510Z</time>
      </trkpt>
      <trkpt lat="37.986615" lon="-3.794236">
        <ele>299.584382</ele>
        <time>2020-08-10T07:07:19.493Z</time>
      </trkpt>
      <trkpt lat="37.986507" lon="-3.794552">
        <ele>300.600124</ele>
        <time>2020-08-10T07:07:59.502Z</time>
      </trkpt>
      <trkpt lat="37.986486" lon="-3.794675">
        <ele>300.971269</ele>
        <time>2020-08-10T07:08:05.500Z</time>
      </trkpt>
      <trkpt lat="37.986472" lon="-3.794806">
        <ele>301.361129</ele>
        <time>2020-08-10T07:08:10.496Z</time>
      </trkpt>
      <trkpt lat="37.986448" lon="-3.794925">
        <ele>301.723372</ele>
        <time>2020-08-10T07:08:14.511Z</time>
      </trkpt>
      <trkpt lat="37.986405" lon="-3.795063">
        <ele>302.160990</ele>
        <time>2020-08-10T07:08:18.503Z</time>
      </trkpt>
      <trkpt lat="37.986368" lon="-3.795176">
        <ele>302.521846</ele>
        <time>2020-08-10T07:08:21.505Z</time>
      </trkpt>
      <trkpt lat="37.986330" lon="-3.795290">
        <ele>302.886868</ele>
        <time>2020-08-10T07:08:24.509Z</time>
      </trkpt>
      <trkpt lat="37.986293" lon="-3.795411">
        <ele>303.269618</ele>
        <time>2020-08-10T07:08:27.501Z</time>
      </trkpt>
      <trkpt lat="37.986252" lon="-3.795539">
        <ele>303.677079</ele>
        <time>2020-08-10T07:08:30.511Z</time>
      </trkpt>
      <trkpt lat="37.986213" lon="-3.795677">
        <ele>304.109420</ele>
        <time>2020-08-10T07:08:33.509Z</time>
      </trkpt>
      <trkpt lat="37.986173" lon="-3.795823">
        <ele>304.565253</ele>
        <time>2020-08-10T07:08:36.500Z</time>
      </trkpt>
      <trkpt lat="37.986120" lon="-3.795960">
        <ele>305.015319</ele>
        <time>2020-08-10T07:08:39.513Z</time>
      </trkpt>
      <trkpt lat="37.986073" lon="-3.796061">
        <ele>305.361216</ele>
        <time>2020-08-10T07:08:41.498Z</time>
      </trkpt>
      <trkpt lat="37.986016" lon="-3.796176">
        <ele>305.761845</ele>
        <time>2020-08-10T07:08:43.515Z</time>
      </trkpt>
      <trkpt lat="37.985961" lon="-3.796284">
        <ele>306.141045</ele>
        <time>2020-08-10T07:08:45.493Z</time>
      </trkpt>
      <trkpt lat="37.985909" lon="-3.796414">
        <ele>306.034030</ele>
        <time>2020-08-10T07:08:47.507Z</time>
      </trkpt>
      <trkpt lat="37.985866" lon="-3.796540">
        <ele>305.686319</ele>
        <time>2020-08-10T07:08:49.499Z</time>
      </trkpt>
      <trkpt lat="37.985822" lon="-3.796669">
        <ele>305.330359</ele>
        <time>2020-08-10T07:08:51.497Z</time>
      </trkpt>
      <trkpt lat="37.985758" lon="-3.796790">
        <ele>304.961333</ele>
        <time>2020-08-10T07:08:53.492Z</time>
      </trkpt>
      <trkpt lat="37.985712" lon="-3.796926">
        <ele>304.586550</ele>
        <time>2020-08-10T07:08:55.506Z</time>
      </trkpt>
      <trkpt lat="37.985671" lon="-3.797060">
        <ele>304.222533</ele>
        <time>2020-08-10T07:08:57.492Z</time>
      </trkpt>
      <trkpt lat="37.985638" lon="-3.797202">
        <ele>303.847623</ele>
        <time>2020-08-10T07:08:59.503Z</time>
      </trkpt>
      <trkpt lat="37.985614" lon="-3.797350">
        <ele>303.464974</ele>
        <time>2020-08-10T07:09:01.493Z</time>
      </trkpt>
      <trkpt lat="37.985587" lon="-3.797466">
        <ele>303.158671</ele>
        <time>2020-08-10T07:09:03.489Z</time>
      </trkpt>
      <trkpt lat="37.985565" lon="-3.797607">
        <ele>302.794670</ele>
        <time>2020-08-10T07:09:05.493Z</time>
      </trkpt>
      <trkpt lat="37.985519" lon="-3.797729">
        <ele>302.452181</ele>
        <time>2020-08-10T07:09:07.495Z</time>
      </trkpt>
      <trkpt lat="37.985467" lon="-3.797852">
        <ele>302.098712</ele>
        <time>2020-08-10T07:09:09.508Z</time>
      </trkpt>
      <trkpt lat="37.985421" lon="-3.797969">
        <ele>301.767601</ele>
        <time>2020-08-10T07:09:11.502Z</time>
      </trkpt>
      <trkpt lat="37.985376" lon="-3.798085">
        <ele>301.440184</ele>
        <time>2020-08-10T07:09:13.506Z</time>
      </trkpt>
      <trkpt lat="37.985349" lon="-3.798206">
        <ele>301.121717</ele>
        <time>2020-08-10T07:09:15.495Z</time>
      </trkpt>
      <trkpt lat="37.985330" lon="-3.798318">
        <ele>300.831589</ele>
        <time>2020-08-10T07:09:17.505Z</time>
      </trkpt>
      <trkpt lat="37.985304" lon="-3.798429">
        <ele>300.538338</ele>
        <time>2020-08-10T07:09:19.500Z</time>
      </trkpt>
      <trkpt lat="37.985269" lon="-3.798536">
        <ele>300.362438</ele>
        <time>2020-08-10T07:09:21.505Z</time>
      </trkpt>
      <trkpt lat="37.985213" lon="-3.798694">
        <ele>300.123494</ele>
        <time>2020-08-10T07:09:24.482Z</time>
      </trkpt>
      <trkpt lat="37.985192" lon="-3.798851">
        <ele>299.903854</ele>
        <time>2020-08-10T07:09:27.495Z</time>
      </trkpt>
      <trkpt lat="37.985147" lon="-3.798993">
        <ele>299.692760</ele>
        <time>2020-08-10T07:09:30.499Z</time>
      </trkpt>
      <trkpt lat="37.985104" lon="-3.799111">
        <ele>299.513453</ele>
        <time>2020-08-10T07:09:33.505Z</time>
      </trkpt>
      <trkpt lat="37.985032" lon="-3.799213">
        <ele>299.324595</ele>
        <time>2020-08-10T07:09:37.502Z</time>
      </trkpt>
      <trkpt lat="37.985061" lon="-3.799323">
        <ele>299.164613</ele>
        <time>2020-08-10T07:10:00.508Z</time>
      </trkpt>
      <trkpt lat="37.985022" lon="-3.799435">
        <ele>298.995731</ele>
        <time>2020-08-10T07:10:08.482Z</time>
      </trkpt>
      <trkpt lat="37.985039" lon="-3.799557">
        <ele>298.824851</ele>
        <time>2020-08-10T07:10:14.493Z</time>
      </trkpt>
      <trkpt lat="37.984950" lon="-3.799652">
        <ele>298.621318</ele>
        <time>2020-08-10T07:10:18.495Z</time>
      </trkpt>
      <trkpt lat="37.984821" lon="-3.799638">
        <ele>298.394750</ele>
        <time>2020-08-10T07:10:21.487Z</time>
      </trkpt>
      <trkpt lat="37.984705" lon="-3.799563">
        <ele>298.166917</ele>
        <time>2020-08-10T07:10:24.510Z</time>
      </trkpt>
      <trkpt lat="37.984593" lon="-3.799490">
        <ele>297.946572</ele>
        <time>2020-08-10T07:10:27.507Z</time>
      </trkpt>
      <trkpt lat="37.984483" lon="-3.799423">
        <ele>297.733044</ele>
        <time>2020-08-10T07:10:30.504Z</time>
      </trkpt>
      <trkpt lat="37.984371" lon="-3.799359">
        <ele>297.518087</ele>
        <time>2020-08-10T07:10:33.497Z</time>
      </trkpt>
      <trkpt lat="37.984260" lon="-3.799289">
        <ele>297.388997</ele>
        <time>2020-08-10T07:10:36.497Z</time>
      </trkpt>
      <trkpt lat="37.984149" lon="-3.799223">
        <ele>297.521875</ele>
        <time>2020-08-10T07:10:39.506Z</time>
      </trkpt>
      <trkpt lat="37.984044" lon="-3.799160">
        <ele>297.647776</ele>
        <time>2020-08-10T07:10:42.504Z</time>
      </trkpt>
      <trkpt lat="37.983939" lon="-3.799094">
        <ele>297.774795</ele>
        <time>2020-08-10T07:10:45.502Z</time>
      </trkpt>
      <trkpt lat="37.983830" lon="-3.799025">
        <ele>297.906837</ele>
        <time>2020-08-10T07:10:48.506Z</time>
      </trkpt>
      <trkpt lat="37.983712" lon="-3.798944">
        <ele>298.052266</ele>
        <time>2020-08-10T07:10:51.503Z</time>
      </trkpt>
      <trkpt lat="37.983629" lon="-3.798896">
        <ele>298.151141</ele>
        <time>2020-08-10T07:10:53.513Z</time>
      </trkpt>
      <trkpt lat="37.983547" lon="-3.798848">
        <ele>298.249031</ele>
        <time>2020-08-10T07:10:55.501Z</time>
      </trkpt>
      <trkpt lat="37.983431" lon="-3.798781">
        <ele>298.387187</ele>
        <time>2020-08-10T07:10:58.505Z</time>
      </trkpt>
      <trkpt lat="37.983311" lon="-3.798708">
        <ele>298.531443</ele>
        <time>2020-08-10T07:11:01.506Z</time>
      </trkpt>
      <trkpt lat="37.983194" lon="-3.798644">
        <ele>298.669552</ele>
        <time>2020-08-10T07:11:04.508Z</time>
      </trkpt>
      <trkpt lat="37.983083" lon="-3.798589">
        <ele>298.798722</ele>
        <time>2020-08-10T07:11:07.508Z</time>
      </trkpt>
      <trkpt lat="37.982978" lon="-3.798532">
        <ele>298.922520</ele>
        <time>2020-08-10T07:11:10.492Z</time>
      </trkpt>
      <trkpt lat="37.982887" lon="-3.798474">
        <ele>299.032908</ele>
        <time>2020-08-10T07:11:13.506Z</time>
      </trkpt>
      <trkpt lat="37.982836" lon="-3.798361">
        <ele>299.144160</ele>
        <time>2020-08-10T07:11:18.494Z</time>
      </trkpt>
      <trkpt lat="37.982791" lon="-3.798254">
        <ele>299.247778</ele>
        <time>2020-08-10T07:11:22.500Z</time>
      </trkpt>
      <trkpt lat="37.982881" lon="-3.798253">
        <ele>299.259517</ele>
        <time>2020-08-10T07:11:59.516Z</time>
      </trkpt>
      <trkpt lat="37.982706" lon="-3.798159">
        <ele>299.026494</ele>
        <time>2020-08-10T07:31:24.510Z</time>
      </trkpt>
      <trkpt lat="37.982394" lon="-3.798319">
        <ele>298.613849</ele>
        <time>2020-08-10T07:32:25.498Z</time>
      </trkpt>
      <trkpt lat="37.982278" lon="-3.798375">
        <ele>298.461661</ele>
        <time>2020-08-10T07:32:28.510Z</time>
      </trkpt>
      <trkpt lat="37.982199" lon="-3.798451">
        <ele>298.340092</ele>
        <time>2020-08-10T07:32:30.509Z</time>
      </trkpt>
      <trkpt lat="37.982193" lon="-3.798622">
        <ele>298.174659</ele>
        <time>2020-08-10T07:32:33.503Z</time>
      </trkpt>
      <trkpt lat="37.982192" lon="-3.798746">
        <ele>298.054807</ele>
        <time>2020-08-10T07:32:38.509Z</time>
      </trkpt>
      <trkpt lat="37.982124" lon="-3.798827">
        <ele>297.940435</ele>
        <time>2020-08-10T07:32:58.493Z</time>
      </trkpt>
      <trkpt lat="37.982010" lon="-3.798819">
        <ele>297.800435</ele>
        <time>2020-08-10T07:33:03.490Z</time>
      </trkpt>
      <trkpt lat="37.981912" lon="-3.798788">
        <ele>297.676588</ele>
        <time>2020-08-10T07:33:06.508Z</time>
      </trkpt>
      <trkpt lat="37.981805" lon="-3.798764">
        <ele>297.543351</ele>
        <time>2020-08-10T07:33:09.510Z</time>
      </trkpt>
      <trkpt lat="37.981699" lon="-3.798754">
        <ele>297.413015</ele>
        <time>2020-08-10T07:33:12.497Z</time>
      </trkpt>
      <trkpt lat="37.981591" lon="-3.798760">
        <ele>297.280459</ele>
        <time>2020-08-10T07:33:15.508Z</time>
      </trkpt>
      <trkpt lat="37.981479" lon="-3.798768">
        <ele>297.142907</ele>
        <time>2020-08-10T07:33:18.502Z</time>
      </trkpt>
      <trkpt lat="37.981368" lon="-3.798788">
        <ele>297.133649</ele>
        <time>2020-08-10T07:33:21.502Z</time>
      </trkpt>
      <trkpt lat="37.981268" lon="-3.798816">
        <ele>297.179092</ele>
        <time>2020-08-10T07:33:24.514Z</time>
      </trkpt>
      <trkpt lat="37.981168" lon="-3.798868">
        <ele>297.227049</ele>
        <time>2020-08-10T07:33:27.506Z</time>
      </trkpt>
      <trkpt lat="37.981070" lon="-3.798919">
        <ele>297.274053</ele>
        <time>2020-08-10T07:33:30.493Z</time>
      </trkpt>
      <trkpt lat="37.980974" lon="-3.798981">
        <ele>297.321854</ele>
        <time>2020-08-10T07:33:33.506Z</time>
      </trkpt>
      <trkpt lat="37.980871" lon="-3.799046">
        <ele>297.372902</ele>
        <time>2020-08-10T07:33:36.499Z</time>
      </trkpt>
      <trkpt lat="37.980767" lon="-3.799104">
        <ele>297.423314</ele>
        <time>2020-08-10T07:33:39.517Z</time>
      </trkpt>
      <trkpt lat="37.980649" lon="-3.799136">
        <ele>297.476859</ele>
        <time>2020-08-10T07:33:42.500Z</time>
      </trkpt>
      <trkpt lat="37.980541" lon="-3.799182">
        <ele>297.527412</ele>
        <time>2020-08-10T07:33:45.510Z</time>
      </trkpt>
      <trkpt lat="37.980439" lon="-3.799236">
        <ele>297.576457</ele>
        <time>2020-08-10T07:33:48.498Z</time>
      </trkpt>
      <trkpt lat="37.980336" lon="-3.799291">
        <ele>297.626046</ele>
        <time>2020-08-10T07:33:51.509Z</time>
      </trkpt>
      <trkpt lat="37.980229" lon="-3.799345">
        <ele>297.677145</ele>
        <time>2020-08-10T07:33:54.500Z</time>
      </trkpt>
      <trkpt lat="37.980128" lon="-3.799400">
        <ele>297.725918</ele>
        <time>2020-08-10T07:33:57.501Z</time>
      </trkpt>
      <trkpt lat="37.980026" lon="-3.799452">
        <ele>297.774698</ele>
        <time>2020-08-10T07:34:00.518Z</time>
      </trkpt>
      <trkpt lat="37.979913" lon="-3.799497">
        <ele>297.827253</ele>
        <time>2020-08-10T07:34:03.496Z</time>
      </trkpt>
      <trkpt lat="37.979800" lon="-3.799551">
        <ele>297.880836</ele>
        <time>2020-08-10T07:34:06.503Z</time>
      </trkpt>
      <trkpt lat="37.979695" lon="-3.799613">
        <ele>298.090796</ele>
        <time>2020-08-10T07:34:09.507Z</time>
      </trkpt>
      <trkpt lat="37.979591" lon="-3.799674">
        <ele>298.375261</ele>
        <time>2020-08-10T07:34:12.508Z</time>
      </trkpt>
      <trkpt lat="37.979481" lon="-3.799730">
        <ele>298.669530</ele>
        <time>2020-08-10T07:34:15.502Z</time>
      </trkpt>
      <trkpt lat="37.979369" lon="-3.799779">
        <ele>298.963667</ele>
        <time>2020-08-10T07:34:18.511Z</time>
      </trkpt>
      <trkpt lat="37.979258" lon="-3.799831">
        <ele>299.257439</ele>
        <time>2020-08-10T07:34:21.510Z</time>
      </trkpt>
      <trkpt lat="37.979136" lon="-3.799887">
        <ele>299.579549</ele>
        <time>2020-08-10T07:34:24.520Z</time>
      </trkpt>
      <trkpt lat="37.979019" lon="-3.799947">
        <ele>299.892864</ele>
        <time>2020-08-10T07:34:27.510Z</time>
      </trkpt>
      <trkpt lat="37.978900" lon="-3.800011">
        <ele>300.213762</ele>
        <time>2020-08-10T07:34:30.501Z</time>
      </trkpt>
      <trkpt lat="37.978820" lon="-3.800067">
        <ele>300.440609</ele>
        <time>2020-08-10T07:34:32.504Z</time>
      </trkpt>
      <trkpt lat="37.978734" lon="-3.800112">
        <ele>300.671573</ele>
        <time>2020-08-10T07:34:34.501Z</time>
      </trkpt>
      <trkpt lat="37.978616" lon="-3.800197">
        <ele>301.008467</ele>
        <time>2020-08-10T07:34:37.512Z</time>
      </trkpt>
      <trkpt lat="37.978508" lon="-3.800249">
        <ele>301.295265</ele>
        <time>2020-08-10T07:34:40.488Z</time>
      </trkpt>
      <trkpt lat="37.978416" lon="-3.800289">
        <ele>301.536718</ele>
        <time>2020-08-10T07:34:42.500Z</time>
      </trkpt>
      <trkpt lat="37.978317" lon="-3.800352">
        <ele>301.811698</ele>
        <time>2020-08-10T07:34:45.501Z</time>
      </trkpt>
      <trkpt lat="37.978217" lon="-3.800410">
        <ele>302.084688</ele>
        <time>2020-08-10T07:34:48.509Z</time>
      </trkpt>
      <trkpt lat="37.978122" lon="-3.800462">
        <ele>302.341566</ele>
        <time>2020-08-10T07:34:51.513Z</time>
      </trkpt>
      <trkpt lat="37.978027" lon="-3.800519">
        <ele>302.260014</ele>
        <time>2020-08-10T07:34:54.502Z</time>
      </trkpt>
      <trkpt lat="37.977937" lon="-3.800561">
        <ele>302.157225</ele>
        <time>2020-08-10T07:34:57.505Z</time>
      </trkpt>
      <trkpt lat="37.977852" lon="-3.800606">
        <ele>302.058500</ele>
        <time>2020-08-10T07:35:00.498Z</time>
      </trkpt>
      <trkpt lat="37.977738" lon="-3.800661">
        <ele>301.927768</ele>
        <time>2020-08-10T07:35:03.509Z</time>
      </trkpt>
      <trkpt lat="37.977654" lon="-3.800721">
        <ele>301.824440</ele>
        <time>2020-08-10T07:35:05.495Z</time>
      </trkpt>
      <trkpt lat="37.977548" lon="-3.800747">
        <ele>301.708716</ele>
        <time>2020-08-10T07:35:07.507Z</time>
      </trkpt>
      <trkpt lat="37.977440" lon="-3.800783">
        <ele>301.589024</ele>
        <time>2020-08-10T07:35:09.501Z</time>
      </trkpt>
      <trkpt lat="37.977325" lon="-3.800838">
        <ele>301.457290</ele>
        <time>2020-08-10T07:35:11.508Z</time>
      </trkpt>
      <trkpt lat="37.977218" lon="-3.800890">
        <ele>301.334471</ele>
        <time>2020-08-10T07:35:13.492Z</time>
      </trkpt>
      <trkpt lat="37.977113" lon="-3.800956">
        <ele>301.208866</ele>
        <time>2020-08-10T07:35:15.516Z</time>
      </trkpt>
      <trkpt lat="37.976982" lon="-3.801009">
        <ele>301.061482</ele>
        <time>2020-08-10T07:35:17.513Z</time>
      </trkpt>
      <trkpt lat="37.976837" lon="-3.801061">
        <ele>300.899969</ele>
        <time>2020-08-10T07:35:19.499Z</time>
      </trkpt>
      <trkpt lat="37.976705" lon="-3.801104">
        <ele>300.753891</ele>
        <time>2020-08-10T07:35:21.496Z</time>
      </trkpt>
      <trkpt lat="37.976602" lon="-3.801183">
        <ele>300.624878</ele>
        <time>2020-08-10T07:35:23.512Z</time>
      </trkpt>
      <trkpt lat="37.976473" lon="-3.801216">
        <ele>300.483822</ele>
        <time>2020-08-10T07:35:25.494Z</time>
      </trkpt>
      <trkpt lat="37.976364" lon="-3.801294">
        <ele>300.652475</ele>
        <time>2020-08-10T07:35:27.508Z</time>
      </trkpt>
      <trkpt lat="37.976268" lon="-3.801358">
        <ele>300.947078</ele>
        <time>2020-08-10T07:35:29.486Z</time>
      </trkpt>
      <trkpt lat="37.976149" lon="-3.801439">
        <ele>301.313938</ele>
        <time>2020-08-10T07:35:32.507Z</time>
      </trkpt>
      <trkpt lat="37.976049" lon="-3.801478">
        <ele>301.598138</ele>
        <time>2020-08-10T07:35:34.502Z</time>
      </trkpt>
      <trkpt lat="37.975954" lon="-3.801515">
        <ele>301.868096</ele>
        <time>2020-08-10T07:35:36.495Z</time>
      </trkpt>
      <trkpt lat="37.975848" lon="-3.801601">
        <ele>302.209900</ele>
        <time>2020-08-10T07:35:39.498Z</time>
      </trkpt>
      <trkpt lat="37.975756" lon="-3.801619">
        <ele>302.462775</ele>
        <time>2020-08-10T07:35:41.499Z</time>
      </trkpt>
      <trkpt lat="37.975637" lon="-3.801642">
        <ele>302.789772</ele>
        <time>2020-08-10T07:35:44.516Z</time>
      </trkpt>
      <trkpt lat="37.975539" lon="-3.801687">
        <ele>303.072895</ele>
        <time>2020-08-10T07:35:47.502Z</time>
      </trkpt>
      <trkpt lat="37.975452" lon="-3.801737">
        <ele>303.332354</ele>
        <time>2020-08-10T07:35:50.509Z</time>
      </trkpt>
      <trkpt lat="37.975355" lon="-3.801816">
        <ele>303.645486</ele>
        <time>2020-08-10T07:35:54.507Z</time>
      </trkpt>
      <trkpt lat="37.975249" lon="-3.801871">
        <ele>303.956593</ele>
        <time>2020-08-10T07:35:58.504Z</time>
      </trkpt>
      <trkpt lat="37.975143" lon="-3.801921">
        <ele>304.263806</ele>
        <time>2020-08-10T07:36:02.496Z</time>
      </trkpt>
      <trkpt lat="37.975031" lon="-3.801972">
        <ele>304.587064</ele>
        <time>2020-08-10T07:36:06.494Z</time>
      </trkpt>
      <trkpt lat="37.974935" lon="-3.802024">
        <ele>304.870628</ele>
        <time>2020-08-10T07:36:10.500Z</time>
      </trkpt>
      <trkpt lat="37.974834" lon="-3.802085">
        <ele>305.174505</ele>
        <time>2020-08-10T07:36:14.503Z</time>
      </trkpt>
      <trkpt lat="37.974734" lon="-3.802141">
        <ele>305.460275</ele>
        <time>2020-08-10T07:36:18.501Z</time>
      </trkpt>
      <trkpt lat="37.974633" lon="-3.802202">
        <ele>305.741521</ele>
        <time>2020-08-10T07:36:22.507Z</time>
      </trkpt>
      <trkpt lat="37.974528" lon="-3.802249">
        <ele>306.021466</ele>
        <time>2020-08-10T07:36:26.504Z</time>
      </trkpt>
      <trkpt lat="37.974420" lon="-3.802289">
        <ele>306.304338</ele>
        <time>2020-08-10T07:36:30.509Z</time>
      </trkpt>
      <trkpt lat="37.974327" lon="-3.802331">
        <ele>306.552535</ele>
        <time>2020-08-10T07:36:33.499Z</time>
      </trkpt>
      <trkpt lat="37.974226" lon="-3.802381">
        <ele>306.825122</ele>
        <time>2020-08-10T07:36:36.505Z</time>
      </trkpt>
      <trkpt lat="37.974111" lon="-3.802442">
        <ele>307.138515</ele>
        <time>2020-08-10T07:36:39.506Z</time>
      </trkpt>
      <trkpt lat="37.974013" lon="-3.802504">
        <ele>307.413849</ele>
        <time>2020-08-10T07:36:42.490Z</time>
      </trkpt>
      <trkpt lat="37.973908" lon="-3.802569">
        <ele>307.707598</ele>
        <time>2020-08-10T07:36:45.506Z</time>
      </trkpt>
      <trkpt lat="37.973808" lon="-3.802618">
        <ele>307.977123</ele>
        <time>2020-08-10T07:36:48.489Z</time>
      </trkpt>
      <trkpt lat="37.973717" lon="-3.802659">
        <ele>308.219919</ele>
        <time>2020-08-10T07:36:51.509Z</time>
      </trkpt>
      <trkpt lat="37.973624" lon="-3.802693">
        <ele>308.463257</ele>
        <time>2020-08-10T07:36:54.498Z</time>
      </trkpt>
      <trkpt lat="37.973510" lon="-3.802729">
        <ele>308.758625</ele>
        <time>2020-08-10T07:36:58.491Z</time>
      </trkpt>
      <trkpt lat="37.973413" lon="-3.802783">
        <ele>309.024955</ele>
        <time>2020-08-10T07:37:01.496Z</time>
      </trkpt>
      <trkpt lat="37.973308" lon="-3.802841">
        <ele>309.312890</ele>
        <time>2020-08-10T07:37:04.492Z</time>
      </trkpt>
      <trkpt lat="37.973200" lon="-3.802885">
        <ele>309.598085</ele>
        <time>2020-08-10T07:37:07.505Z</time>
      </trkpt>
      <trkpt lat="37.973095" lon="-3.802934">
        <ele>309.880001</ele>
        <time>2020-08-10T07:37:10.502Z</time>
      </trkpt>
      <trkpt lat="37.973009" lon="-3.802997">
        <ele>310.134064</ele>
        <time>2020-08-10T07:37:13.500Z</time>
      </trkpt>
      <trkpt lat="37.972911" lon="-3.803057">
        <ele>310.412449</ele>
        <time>2020-08-10T07:37:16.513Z</time>
      </trkpt>
      <trkpt lat="37.972807" lon="-3.803115">
        <ele>310.703087</ele>
        <time>2020-08-10T07:37:19.517Z</time>
      </trkpt>
      <trkpt lat="37.972753" lon="-3.803238">
        <ele>310.987016</ele>
        <time>2020-08-10T07:37:23.516Z</time>
      </trkpt>
      <trkpt lat="37.972731" lon="-3.803377">
        <ele>311.272933</ele>
        <time>2020-08-10T07:37:26.499Z</time>
      </trkpt>
      <trkpt lat="37.972700" lon="-3.803527">
        <ele>311.585662</ele>
        <time>2020-08-10T07:37:29.508Z</time>
      </trkpt>
      <trkpt lat="37.972667" lon="-3.803674">
        <ele>311.893905</ele>
        <time>2020-08-10T07:37:32.507Z</time>
      </trkpt>
      <trkpt lat="37.972637" lon="-3.803784">
        <ele>312.128644</ele>
        <time>2020-08-10T07:37:34.505Z</time>
      </trkpt>
      <trkpt lat="37.972608" lon="-3.803933">
        <ele>312.438157</ele>
        <time>2020-08-10T07:37:37.493Z</time>
      </trkpt>
      <trkpt lat="37.972577" lon="-3.804044">
        <ele>312.675645</ele>
        <time>2020-08-10T07:37:39.503Z</time>
      </trkpt>
      <trkpt lat="37.972543" lon="-3.804156">
        <ele>312.917686</ele>
        <time>2020-08-10T07:37:41.505Z</time>
      </trkpt>
      <trkpt lat="37.972527" lon="-3.804279">
        <ele>313.169096</ele>
        <time>2020-08-10T07:37:43.508Z</time>
      </trkpt>
      <trkpt lat="37.972524" lon="-3.804444">
        <ele>313.501942</ele>
        <time>2020-08-10T07:37:46.504Z</time>
      </trkpt>
      <trkpt lat="37.972528" lon="-3.804569">
        <ele>313.754239</ele>
        <time>2020-08-10T07:37:48.508Z</time>
      </trkpt>
      <trkpt lat="37.972533" lon="-3.804688">
        <ele>313.994568</ele>
        <time>2020-08-10T07:37:50.484Z</time>
      </trkpt>
      <trkpt lat="37.972549" lon="-3.804801">
        <ele>314.226104</ele>
        <time>2020-08-10T07:37:52.491Z</time>
      </trkpt>
      <trkpt lat="37.972569" lon="-3.804930">
        <ele>314.448481</ele>
        <time>2020-08-10T07:37:54.493Z</time>
      </trkpt>
      <trkpt lat="37.972598" lon="-3.805096">
        <ele>314.474022</ele>
        <time>2020-08-10T07:37:57.500Z</time>
      </trkpt>
      <trkpt lat="37.972629" lon="-3.805218">
        <ele>314.493278</ele>
        <time>2020-08-10T07:37:59.511Z</time>
      </trkpt>
      <trkpt lat="37.972628" lon="-3.805372">
        <ele>314.516412</ele>
        <time>2020-08-10T07:38:01.514Z</time>
      </trkpt>
      <trkpt lat="37.972640" lon="-3.805500">
        <ele>314.535776</ele>
        <time>2020-08-10T07:38:03.497Z</time>
      </trkpt>
      <trkpt lat="37.972674" lon="-3.805610">
        <ele>314.553525</ele>
        <time>2020-08-10T07:38:05.502Z</time>
      </trkpt>
      <trkpt lat="37.972693" lon="-3.805752">
        <ele>314.575162</ele>
        <time>2020-08-10T07:38:07.498Z</time>
      </trkpt>
      <trkpt lat="37.972703" lon="-3.805893">
        <ele>314.596428</ele>
        <time>2020-08-10T07:38:09.519Z</time>
      </trkpt>
      <trkpt lat="37.972730" lon="-3.806017">
        <ele>314.615753</ele>
        <time>2020-08-10T07:38:11.508Z</time>
      </trkpt>
      <trkpt lat="37.972777" lon="-3.806171">
        <ele>314.640560</ele>
        <time>2020-08-10T07:38:14.506Z</time>
      </trkpt>
      <trkpt lat="37.972790" lon="-3.806288">
        <ele>314.658310</ele>
        <time>2020-08-10T07:38:16.511Z</time>
      </trkpt>
      <trkpt lat="37.972818" lon="-3.806409">
        <ele>314.677253</ele>
        <time>2020-08-10T07:38:18.505Z</time>
      </trkpt>
      <trkpt lat="37.972828" lon="-3.806531">
        <ele>314.695679</ele>
        <time>2020-08-10T07:38:20.508Z</time>
      </trkpt>
      <trkpt lat="37.972839" lon="-3.806665">
        <ele>314.715917</ele>
        <time>2020-08-10T07:38:22.506Z</time>
      </trkpt>
      <trkpt lat="37.972850" lon="-3.806795">
        <ele>314.735558</ele>
        <time>2020-08-10T07:38:24.508Z</time>
      </trkpt>
      <trkpt lat="37.972876" lon="-3.806913">
        <ele>314.753964</ele>
        <time>2020-08-10T07:38:26.506Z</time>
      </trkpt>
      <trkpt lat="37.972892" lon="-3.807037">
        <ele>314.772839</ele>
        <time>2020-08-10T07:38:28.501Z</time>
      </trkpt>
      <trkpt lat="37.972929" lon="-3.807154">
        <ele>314.798474</ele>
        <time>2020-08-10T07:38:30.501Z</time>
      </trkpt>
      <trkpt lat="37.972964" lon="-3.807264">
        <ele>314.846248</ele>
        <time>2020-08-10T07:38:32.502Z</time>
      </trkpt>
      <trkpt lat="37.972982" lon="-3.807379">
        <ele>314.893467</ele>
        <time>2020-08-10T07:38:34.505Z</time>
      </trkpt>
      <trkpt lat="37.973021" lon="-3.807488">
        <ele>314.941676</ele>
        <time>2020-08-10T07:38:36.507Z</time>
      </trkpt>
      <trkpt lat="37.973043" lon="-3.807604">
        <ele>314.989726</ele>
        <time>2020-08-10T07:38:38.504Z</time>
      </trkpt>
      <trkpt lat="37.973069" lon="-3.807718">
        <ele>315.037521</ele>
        <time>2020-08-10T07:38:40.511Z</time>
      </trkpt>
      <trkpt lat="37.973090" lon="-3.807837">
        <ele>315.086633</ele>
        <time>2020-08-10T07:38:42.507Z</time>
      </trkpt>
      <trkpt lat="37.973122" lon="-3.807991">
        <ele>315.150773</ele>
        <time>2020-08-10T07:38:45.507Z</time>
      </trkpt>
      <trkpt lat="37.973159" lon="-3.808105">
        <ele>315.200424</ele>
        <time>2020-08-10T07:38:47.506Z</time>
      </trkpt>
      <trkpt lat="37.973158" lon="-3.808225">
        <ele>315.248755</ele>
        <time>2020-08-10T07:38:49.486Z</time>
      </trkpt>
      <trkpt lat="37.973195" lon="-3.808396">
        <ele>315.320170</ele>
        <time>2020-08-10T07:38:52.507Z</time>
      </trkpt>
      <trkpt lat="37.973224" lon="-3.808517">
        <ele>315.371103</ele>
        <time>2020-08-10T07:38:54.508Z</time>
      </trkpt>
      <trkpt lat="37.973263" lon="-3.808630">
        <ele>315.420783</ele>
        <time>2020-08-10T07:38:56.518Z</time>
      </trkpt>
      <trkpt lat="37.973289" lon="-3.808768">
        <ele>315.477926</ele>
        <time>2020-08-10T07:38:58.502Z</time>
      </trkpt>
      <trkpt lat="37.973318" lon="-3.808923">
        <ele>315.542084</ele>
        <time>2020-08-10T07:39:00.525Z</time>
      </trkpt>
      <trkpt lat="37.973332" lon="-3.809077">
        <ele>315.604516</ele>
        <time>2020-08-10T07:39:02.504Z</time>
      </trkpt>
      <trkpt lat="37.973370" lon="-3.809223">
        <ele>315.666437</ele>
        <time>2020-08-10T07:39:04.502Z</time>
      </trkpt>
      <trkpt lat="37.973401" lon="-3.809371">
        <ele>315.704339</ele>
        <time>2020-08-10T07:39:06.504Z</time>
      </trkpt>
      <trkpt lat="37.973465" lon="-3.809497">
        <ele>315.697669</ele>
        <time>2020-08-10T07:39:08.505Z</time>
      </trkpt>
      <trkpt lat="37.973569" lon="-3.809592">
        <ele>315.690435</ele>
        <time>2020-08-10T07:39:10.503Z</time>
      </trkpt>
      <trkpt lat="37.973656" lon="-3.809723">
        <ele>315.682813</ele>
        <time>2020-08-10T07:39:12.493Z</time>
      </trkpt>
      <trkpt lat="37.973759" lon="-3.809844">
        <ele>315.674890</ele>
        <time>2020-08-10T07:39:14.508Z</time>
      </trkpt>
      <trkpt lat="37.973869" lon="-3.809915">
        <ele>315.667923</ele>
        <time>2020-08-10T07:39:16.490Z</time>
      </trkpt>
      <trkpt lat="37.974000" lon="-3.809989">
        <ele>315.659829</ele>
        <time>2020-08-10T07:39:18.494Z</time>
      </trkpt>
      <trkpt lat="37.974133" lon="-3.810035">
        <ele>315.652047</ele>
        <time>2020-08-10T07:39:20.496Z</time>
      </trkpt>
      <trkpt lat="37.974266" lon="-3.810053">
        <ele>315.644497</ele>
        <time>2020-08-10T07:39:22.492Z</time>
      </trkpt>
      <trkpt lat="37.974407" lon="-3.810084">
        <ele>315.636420</ele>
        <time>2020-08-10T07:39:24.502Z</time>
      </trkpt>
      <trkpt lat="37.974531" lon="-3.810081">
        <ele>315.629419</ele>
        <time>2020-08-10T07:39:26.510Z</time>
      </trkpt>
      <trkpt lat="37.974661" lon="-3.810094">
        <ele>315.622059</ele>
        <time>2020-08-10T07:39:28.491Z</time>
      </trkpt>
      <trkpt lat="37.974798" lon="-3.810105">
        <ele>315.614310</ele>
        <time>2020-08-10T07:39:30.505Z</time>
      </trkpt>
      <trkpt lat="37.974926" lon="-3.810125">
        <ele>315.607031</ele>
        <time>2020-08-10T07:39:32.497Z</time>
      </trkpt>
      <trkpt lat="37.975063" lon="-3.810140">
        <ele>315.566695</ele>
        <time>2020-08-10T07:39:34.506Z</time>
      </trkpt>
      <trkpt lat="37.975196" lon="-3.810145">
        <ele>315.517785</ele>
        <time>2020-08-10T07:39:36.484Z</time>
      </trkpt>
      <trkpt lat="37.975344" lon="-3.810181">
        <ele>315.462391</ele>
        <time>2020-08-10T07:39:38.498Z</time>
      </trkpt>
      <trkpt lat="37.975491" lon="-3.810198">
        <ele>315.408132</ele>
        <time>2020-08-10T07:39:40.501Z</time>
      </trkpt>
      <trkpt lat="37.975647" lon="-3.810212">
        <ele>315.350646</ele>
        <time>2020-08-10T07:39:42.502Z</time>
      </trkpt>
      <trkpt lat="37.975812" lon="-3.810243">
        <ele>315.289333</ele>
        <time>2020-08-10T07:39:44.486Z</time>
      </trkpt>
      <trkpt lat="37.975955" lon="-3.810238">
        <ele>315.236749</ele>
        <time>2020-08-10T07:39:46.497Z</time>
      </trkpt>
      <trkpt lat="37.976054" lon="-3.810255">
        <ele>315.200026</ele>
        <time>2020-08-10T07:39:47.496Z</time>
      </trkpt>
      <trkpt lat="37.976221" lon="-3.810274">
        <ele>315.138393</ele>
        <time>2020-08-10T07:39:49.508Z</time>
      </trkpt>
      <trkpt lat="37.976387" lon="-3.810300">
        <ele>315.076911</ele>
        <time>2020-08-10T07:39:51.489Z</time>
      </trkpt>
      <trkpt lat="37.976478" lon="-3.810338">
        <ele>315.041696</ele>
        <time>2020-08-10T07:39:52.506Z</time>
      </trkpt>
      <trkpt lat="37.976639" lon="-3.810335">
        <ele>314.982508</ele>
        <time>2020-08-10T07:39:54.518Z</time>
      </trkpt>
      <trkpt lat="37.976735" lon="-3.810328">
        <ele>314.947162</ele>
        <time>2020-08-10T07:39:55.494Z</time>
      </trkpt>
      <trkpt lat="37.976897" lon="-3.810330">
        <ele>314.544368</ele>
        <time>2020-08-10T07:39:57.492Z</time>
      </trkpt>
      <trkpt lat="37.977074" lon="-3.810336">
        <ele>314.083292</ele>
        <time>2020-08-10T07:39:59.503Z</time>
      </trkpt>
      <trkpt lat="37.977237" lon="-3.810329">
        <ele>313.658594</ele>
        <time>2020-08-10T07:40:01.498Z</time>
      </trkpt>
      <trkpt lat="37.977397" lon="-3.810315">
        <ele>313.240961</ele>
        <time>2020-08-10T07:40:03.513Z</time>
      </trkpt>
      <trkpt lat="37.977554" lon="-3.810294">
        <ele>312.829864</ele>
        <time>2020-08-10T07:40:05.501Z</time>
      </trkpt>
      <trkpt lat="37.977714" lon="-3.810295">
        <ele>312.413216</ele>
        <time>2020-08-10T07:40:07.492Z</time>
      </trkpt>
      <trkpt lat="37.977879" lon="-3.810290">
        <ele>311.983431</ele>
        <time>2020-08-10T07:40:09.515Z</time>
      </trkpt>
      <trkpt lat="37.978043" lon="-3.810288">
        <ele>311.556352</ele>
        <time>2020-08-10T07:40:11.494Z</time>
      </trkpt>
      <trkpt lat="37.978220" lon="-3.810279">
        <ele>311.095070</ele>
        <time>2020-08-10T07:40:13.506Z</time>
      </trkpt>
      <trkpt lat="37.978310" lon="-3.810271">
        <ele>310.860134</ele>
        <time>2020-08-10T07:40:14.501Z</time>
      </trkpt>
      <trkpt lat="37.978400" lon="-3.810266">
        <ele>310.625548</ele>
        <time>2020-08-10T07:40:15.507Z</time>
      </trkpt>
      <trkpt lat="37.978572" lon="-3.810260">
        <ele>310.233514</ele>
        <time>2020-08-10T07:40:17.504Z</time>
      </trkpt>
      <trkpt lat="37.978666" lon="-3.810273">
        <ele>310.153818</ele>
        <time>2020-08-10T07:40:18.510Z</time>
      </trkpt>
      <trkpt lat="37.978758" lon="-3.810275">
        <ele>310.076267</ele>
        <time>2020-08-10T07:40:19.512Z</time>
      </trkpt>
      <trkpt lat="37.978936" lon="-3.810287">
        <ele>309.926031</ele>
        <time>2020-08-10T07:40:21.507Z</time>
      </trkpt>
      <trkpt lat="37.979114" lon="-3.810289">
        <ele>309.776002</ele>
        <time>2020-08-10T07:40:23.507Z</time>
      </trkpt>
      <trkpt lat="37.979212" lon="-3.810291">
        <ele>309.693394</ele>
        <time>2020-08-10T07:40:24.496Z</time>
      </trkpt>
      <trkpt lat="37.979306" lon="-3.810294">
        <ele>309.614143</ele>
        <time>2020-08-10T07:40:25.501Z</time>
      </trkpt>
      <trkpt lat="37.979409" lon="-3.810291">
        <ele>309.527308</ele>
        <time>2020-08-10T07:40:26.511Z</time>
      </trkpt>
      <trkpt lat="37.979577" lon="-3.810268">
        <ele>309.384891</ele>
        <time>2020-08-10T07:40:28.511Z</time>
      </trkpt>
      <trkpt lat="37.979751" lon="-3.810267">
        <ele>309.238237</ele>
        <time>2020-08-10T07:40:30.507Z</time>
      </trkpt>
      <trkpt lat="37.979923" lon="-3.810264">
        <ele>309.093257</ele>
        <time>2020-08-10T07:40:32.519Z</time>
      </trkpt>
      <trkpt lat="37.980106" lon="-3.810253">
        <ele>308.938846</ele>
        <time>2020-08-10T07:40:34.498Z</time>
      </trkpt>
      <trkpt lat="37.980269" lon="-3.810245">
        <ele>308.801362</ele>
        <time>2020-08-10T07:40:36.510Z</time>
      </trkpt>
      <trkpt lat="37.980410" lon="-3.810244">
        <ele>308.786102</ele>
        <time>2020-08-10T07:40:38.508Z</time>
      </trkpt>
      <trkpt lat="37.980542" lon="-3.810203">
        <ele>308.863369</ele>
        <time>2020-08-10T07:40:40.494Z</time>
      </trkpt>
      <trkpt lat="37.980653" lon="-3.810130">
        <ele>308.934454</ele>
        <time>2020-08-10T07:40:42.506Z</time>
      </trkpt>
      <trkpt lat="37.980804" lon="-3.810084">
        <ele>309.022747</ele>
        <time>2020-08-10T07:40:44.489Z</time>
      </trkpt>
      <trkpt lat="37.980966" lon="-3.810048">
        <ele>309.116256</ele>
        <time>2020-08-10T07:40:46.504Z</time>
      </trkpt>
      <trkpt lat="37.981130" lon="-3.809997">
        <ele>309.212260</ele>
        <time>2020-08-10T07:40:48.506Z</time>
      </trkpt>
      <trkpt lat="37.981314" lon="-3.809954">
        <ele>309.318635</ele>
        <time>2020-08-10T07:40:50.518Z</time>
      </trkpt>
      <trkpt lat="37.981486" lon="-3.809904">
        <ele>309.418962</ele>
        <time>2020-08-10T07:40:52.511Z</time>
      </trkpt>
      <trkpt lat="37.981657" lon="-3.809820">
        <ele>309.523219</ele>
        <time>2020-08-10T07:40:54.499Z</time>
      </trkpt>
      <trkpt lat="37.981817" lon="-3.809758">
        <ele>309.618337</ele>
        <time>2020-08-10T07:40:56.495Z</time>
      </trkpt>
      <trkpt lat="37.981960" lon="-3.809706">
        <ele>309.702915</ele>
        <time>2020-08-10T07:40:58.512Z</time>
      </trkpt>
      <trkpt lat="37.982140" lon="-3.809714">
        <ele>309.659100</ele>
        <time>2020-08-10T07:41:00.510Z</time>
      </trkpt>
      <trkpt lat="37.982291" lon="-3.809747">
        <ele>309.413678</ele>
        <time>2020-08-10T07:41:02.505Z</time>
      </trkpt>
      <trkpt lat="37.982463" lon="-3.809757">
        <ele>309.137894</ele>
        <time>2020-08-10T07:41:04.490Z</time>
      </trkpt>
      <trkpt lat="37.982612" lon="-3.809801">
        <ele>308.892859</ele>
        <time>2020-08-10T07:41:06.500Z</time>
      </trkpt>
      <trkpt lat="37.982732" lon="-3.809844">
        <ele>308.693133</ele>
        <time>2020-08-10T07:41:08.500Z</time>
      </trkpt>
      <trkpt lat="37.982851" lon="-3.809866">
        <ele>308.500516</ele>
        <time>2020-08-10T07:41:10.491Z</time>
      </trkpt>
      <trkpt lat="37.982966" lon="-3.809870">
        <ele>308.316249</ele>
        <time>2020-08-10T07:41:12.504Z</time>
      </trkpt>
      <trkpt lat="37.983082" lon="-3.809912">
        <ele>308.123032</ele>
        <time>2020-08-10T07:41:14.515Z</time>
      </trkpt>
      <trkpt lat="37.983185" lon="-3.809951">
        <ele>307.950865</ele>
        <time>2020-08-10T07:41:16.495Z</time>
      </trkpt>
      <trkpt lat="37.983288" lon="-3.809978">
        <ele>307.782404</ele>
        <time>2020-08-10T07:41:18.509Z</time>
      </trkpt>
      <trkpt lat="37.983379" lon="-3.809986">
        <ele>307.636298</ele>
        <time>2020-08-10T07:41:20.505Z</time>
      </trkpt>
      <trkpt lat="37.983520" lon="-3.809998">
        <ele>307.409948</ele>
        <time>2020-08-10T07:41:23.510Z</time>
      </trkpt>
      <trkpt lat="37.983623" lon="-3.810039">
        <ele>307.237042</ele>
        <time>2020-08-10T07:41:25.504Z</time>
      </trkpt>
      <trkpt lat="37.983721" lon="-3.810052">
        <ele>307.079218</ele>
        <time>2020-08-10T07:41:27.495Z</time>
      </trkpt>
      <trkpt lat="37.983820" lon="-3.810061">
        <ele>306.920242</ele>
        <time>2020-08-10T07:41:29.504Z</time>
      </trkpt>
      <trkpt lat="37.983911" lon="-3.810089">
        <ele>307.036545</ele>
        <time>2020-08-10T07:41:31.500Z</time>
      </trkpt>
      <trkpt lat="37.984003" lon="-3.810120">
        <ele>307.234573</ele>
        <time>2020-08-10T07:41:33.501Z</time>
      </trkpt>
      <trkpt lat="37.984132" lon="-3.810149">
        <ele>307.507120</ele>
        <time>2020-08-10T07:41:36.501Z</time>
      </trkpt>
      <trkpt lat="37.984238" lon="-3.810189">
        <ele>307.737186</ele>
        <time>2020-08-10T07:41:38.505Z</time>
      </trkpt>
      <trkpt lat="37.984330" lon="-3.810216">
        <ele>307.933632</ele>
        <time>2020-08-10T07:41:40.497Z</time>
      </trkpt>
      <trkpt lat="37.984425" lon="-3.810231">
        <ele>308.132791</ele>
        <time>2020-08-10T07:41:42.500Z</time>
      </trkpt>
      <trkpt lat="37.984545" lon="-3.810242">
        <ele>308.383085</ele>
        <time>2020-08-10T07:41:44.484Z</time>
      </trkpt>
      <trkpt lat="37.984671" lon="-3.810247">
        <ele>308.645339</ele>
        <time>2020-08-10T07:41:46.504Z</time>
      </trkpt>
      <trkpt lat="37.984779" lon="-3.810265">
        <ele>308.871948</ele>
        <time>2020-08-10T07:41:48.499Z</time>
      </trkpt>
      <trkpt lat="37.984899" lon="-3.810267">
        <ele>309.121613</ele>
        <time>2020-08-10T07:41:50.484Z</time>
      </trkpt>
      <trkpt lat="37.985023" lon="-3.810263">
        <ele>309.379661</ele>
        <time>2020-08-10T07:41:52.494Z</time>
      </trkpt>
      <trkpt lat="37.985149" lon="-3.810248">
        <ele>309.642938</ele>
        <time>2020-08-10T07:41:54.510Z</time>
      </trkpt>
      <trkpt lat="37.985285" lon="-3.810222">
        <ele>309.929061</ele>
        <time>2020-08-10T07:41:56.495Z</time>
      </trkpt>
      <trkpt lat="37.985419" lon="-3.810201">
        <ele>310.209948</ele>
        <time>2020-08-10T07:41:58.495Z</time>
      </trkpt>
      <trkpt lat="37.985553" lon="-3.810155">
        <ele>310.498740</ele>
        <time>2020-08-10T07:42:00.500Z</time>
      </trkpt>
      <trkpt lat="37.985703" lon="-3.810124">
        <ele>310.408122</ele>
        <time>2020-08-10T07:42:02.495Z</time>
      </trkpt>
      <trkpt lat="37.985822" lon="-3.810118">
        <ele>310.116881</ele>
        <time>2020-08-10T07:42:04.490Z</time>
      </trkpt>
      <trkpt lat="37.985946" lon="-3.810093">
        <ele>309.809838</ele>
        <time>2020-08-10T07:42:06.505Z</time>
      </trkpt>
      <trkpt lat="37.986082" lon="-3.810072">
        <ele>309.474800</ele>
        <time>2020-08-10T07:42:08.515Z</time>
      </trkpt>
      <trkpt lat="37.986225" lon="-3.810030">
        <ele>309.115850</ele>
        <time>2020-08-10T07:42:10.495Z</time>
      </trkpt>
      <trkpt lat="37.986369" lon="-3.809985">
        <ele>308.753178</ele>
        <time>2020-08-10T07:42:12.485Z</time>
      </trkpt>
      <trkpt lat="37.986491" lon="-3.809952">
        <ele>308.448126</ele>
        <time>2020-08-10T07:42:14.492Z</time>
      </trkpt>
      <trkpt lat="37.986628" lon="-3.809900">
        <ele>308.098426</ele>
        <time>2020-08-10T07:42:16.496Z</time>
      </trkpt>
      <trkpt lat="37.986767" lon="-3.809829">
        <ele>307.731993</ele>
        <time>2020-08-10T07:42:18.497Z</time>
      </trkpt>
      <trkpt lat="37.986914" lon="-3.809759">
        <ele>307.348025</ele>
        <time>2020-08-10T07:42:20.495Z</time>
      </trkpt>
      <trkpt lat="37.987066" lon="-3.809680">
        <ele>306.946336</ele>
        <time>2020-08-10T07:42:22.499Z</time>
      </trkpt>
      <trkpt lat="37.987225" lon="-3.809616">
        <ele>306.538408</ele>
        <time>2020-08-10T07:42:24.505Z</time>
      </trkpt>
      <trkpt lat="37.987366" lon="-3.809552">
        <ele>306.183628</ele>
        <time>2020-08-10T07:42:26.515Z</time>
      </trkpt>
      <trkpt lat="37.987485" lon="-3.809468">
        <ele>305.917176</ele>
        <time>2020-08-10T07:42:28.495Z</time>
      </trkpt>
      <trkpt lat="37.987582" lon="-3.809427">
        <ele>305.717124</ele>
        <time>2020-08-10T07:42:29.496Z</time>
      </trkpt>
      <trkpt lat="37.987667" lon="-3.809374">
        <ele>305.531809</ele>
        <time>2020-08-10T07:42:30.496Z</time>
      </trkpt>
      <trkpt lat="37.987755" lon="-3.809309">
        <ele>305.332570</ele>
        <time>2020-08-10T07:42:31.506Z</time>
      </trkpt>
      <trkpt lat="37.987936" lon="-3.809227">
        <ele>304.956513</ele>
        <time>2020-08-10T07:42:33.509Z</time>
      </trkpt>
      <trkpt lat="37.988036" lon="-3.809188">
        <ele>304.751811</ele>
        <time>2020-08-10T07:42:34.513Z</time>
      </trkpt>
      <trkpt lat="37.988130" lon="-3.809131">
        <ele>304.547959</ele>
        <time>2020-08-10T07:42:35.507Z</time>
      </trkpt>
      <trkpt lat="37.988239" lon="-3.809087">
        <ele>304.324148</ele>
        <time>2020-08-10T07:42:36.506Z</time>
      </trkpt>
      <trkpt lat="37.988331" lon="-3.809028">
        <ele>304.122447</ele>
        <time>2020-08-10T07:42:37.496Z</time>
      </trkpt>
      <trkpt lat="37.988434" lon="-3.808982">
        <ele>303.908790</ele>
        <time>2020-08-10T07:42:38.508Z</time>
      </trkpt>
      <trkpt lat="37.988530" lon="-3.808943">
        <ele>303.711556</ele>
        <time>2020-08-10T07:42:39.509Z</time>
      </trkpt>
      <trkpt lat="37.988617" lon="-3.808902">
        <ele>303.529963</ele>
        <time>2020-08-10T07:42:40.499Z</time>
      </trkpt>
      <trkpt lat="37.988716" lon="-3.808856">
        <ele>303.323672</ele>
        <time>2020-08-10T07:42:41.498Z</time>
      </trkpt>
      <trkpt lat="37.988895" lon="-3.808756">
        <ele>302.940981</ele>
        <time>2020-08-10T07:42:43.498Z</time>
      </trkpt>
      <trkpt lat="37.988980" lon="-3.808712">
        <ele>302.761356</ele>
        <time>2020-08-10T07:42:44.501Z</time>
      </trkpt>
      <trkpt lat="37.989073" lon="-3.808678">
        <ele>302.401766</ele>
        <time>2020-08-10T07:42:45.508Z</time>
      </trkpt>
      <trkpt lat="37.989238" lon="-3.808603">
        <ele>301.635986</ele>
        <time>2020-08-10T07:42:47.513Z</time>
      </trkpt>
      <trkpt lat="37.989337" lon="-3.808558">
        <ele>301.176519</ele>
        <time>2020-08-10T07:42:48.489Z</time>
      </trkpt>
      <trkpt lat="37.989434" lon="-3.808514">
        <ele>300.726439</ele>
        <time>2020-08-10T07:42:49.510Z</time>
      </trkpt>
      <trkpt lat="37.989519" lon="-3.808466">
        <ele>300.319938</ele>
        <time>2020-08-10T07:42:50.498Z</time>
      </trkpt>
      <trkpt lat="37.989610" lon="-3.808422">
        <ele>299.894452</ele>
        <time>2020-08-10T07:42:51.514Z</time>
      </trkpt>
      <trkpt lat="37.989700" lon="-3.808375">
        <ele>299.469222</ele>
        <time>2020-08-10T07:42:52.506Z</time>
      </trkpt>
      <trkpt lat="37.989860" lon="-3.808297">
        <ele>298.720330</ele>
        <time>2020-08-10T07:42:54.509Z</time>
      </trkpt>
      <trkpt lat="37.990036" lon="-3.808241">
        <ele>297.927544</ele>
        <time>2020-08-10T07:42:56.502Z</time>
      </trkpt>
      <trkpt lat="37.990199" lon="-3.808173">
        <ele>297.177861</ele>
        <time>2020-08-10T07:42:58.487Z</time>
      </trkpt>
      <trkpt lat="37.990344" lon="-3.808124">
        <ele>296.522246</ele>
        <time>2020-08-10T07:43:00.513Z</time>
      </trkpt>
      <trkpt lat="37.990498" lon="-3.808094">
        <ele>295.841507</ele>
        <time>2020-08-10T07:43:02.509Z</time>
      </trkpt>
      <trkpt lat="37.990639" lon="-3.808061">
        <ele>295.215060</ele>
        <time>2020-08-10T07:43:04.494Z</time>
      </trkpt>
      <trkpt lat="37.990789" lon="-3.808039">
        <ele>294.871255</ele>
        <time>2020-08-10T07:43:06.504Z</time>
      </trkpt>
      <trkpt lat="37.990930" lon="-3.808004">
        <ele>294.913288</ele>
        <time>2020-08-10T07:43:08.505Z</time>
      </trkpt>
      <trkpt lat="37.991065" lon="-3.807979">
        <ele>294.953202</ele>
        <time>2020-08-10T07:43:10.506Z</time>
      </trkpt>
      <trkpt lat="37.991188" lon="-3.807965">
        <ele>294.989332</ele>
        <time>2020-08-10T07:43:12.503Z</time>
      </trkpt>
      <trkpt lat="37.991322" lon="-3.807927">
        <ele>295.029502</ele>
        <time>2020-08-10T07:43:14.497Z</time>
      </trkpt>
      <trkpt lat="37.991438" lon="-3.807890">
        <ele>295.064495</ele>
        <time>2020-08-10T07:43:16.504Z</time>
      </trkpt>
      <trkpt lat="37.991561" lon="-3.807860">
        <ele>295.101138</ele>
        <time>2020-08-10T07:43:18.512Z</time>
      </trkpt>
      <trkpt lat="37.991705" lon="-3.807836">
        <ele>295.143629</ele>
        <time>2020-08-10T07:43:20.490Z</time>
      </trkpt>
      <trkpt lat="37.991845" lon="-3.807805">
        <ele>295.185206</ele>
        <time>2020-08-10T07:43:22.499Z</time>
      </trkpt>
      <trkpt lat="37.991972" lon="-3.807789">
        <ele>295.222544</ele>
        <time>2020-08-10T07:43:24.502Z</time>
      </trkpt>
      <trkpt lat="37.992112" lon="-3.807762">
        <ele>295.263973</ele>
        <time>2020-08-10T07:43:26.511Z</time>
      </trkpt>
      <trkpt lat="37.992240" lon="-3.807741">
        <ele>295.301732</ele>
        <time>2020-08-10T07:43:28.501Z</time>
      </trkpt>
      <trkpt lat="37.992356" lon="-3.807729">
        <ele>295.335782</ele>
        <time>2020-08-10T07:43:30.499Z</time>
      </trkpt>
      <trkpt lat="37.992491" lon="-3.807711">
        <ele>295.375495</ele>
        <time>2020-08-10T07:43:32.508Z</time>
      </trkpt>
      <trkpt lat="37.992629" lon="-3.807689">
        <ele>296.155479</ele>
        <time>2020-08-10T07:43:34.499Z</time>
      </trkpt>
      <trkpt lat="37.992754" lon="-3.807647">
        <ele>296.918868</ele>
        <time>2020-08-10T07:43:36.491Z</time>
      </trkpt>
      <trkpt lat="37.992868" lon="-3.807604">
        <ele>297.620989</ele>
        <time>2020-08-10T07:43:38.493Z</time>
      </trkpt>
      <trkpt lat="37.993006" lon="-3.807531">
        <ele>298.503652</ele>
        <time>2020-08-10T07:43:40.508Z</time>
      </trkpt>
      <trkpt lat="37.993129" lon="-3.807459">
        <ele>299.303344</ele>
        <time>2020-08-10T07:43:42.501Z</time>
      </trkpt>
      <trkpt lat="37.993246" lon="-3.807407">
        <ele>300.035214</ele>
        <time>2020-08-10T07:43:44.510Z</time>
      </trkpt>
      <trkpt lat="37.993382" lon="-3.807384">
        <ele>300.845209</ele>
        <time>2020-08-10T07:43:46.498Z</time>
      </trkpt>
      <trkpt lat="37.993526" lon="-3.807365">
        <ele>301.699918</ele>
        <time>2020-08-10T07:43:48.507Z</time>
      </trkpt>
      <trkpt lat="37.993664" lon="-3.807358">
        <ele>302.515271</ele>
        <time>2020-08-10T07:43:50.499Z</time>
      </trkpt>
      <trkpt lat="37.993792" lon="-3.807405">
        <ele>303.301940</ele>
        <time>2020-08-10T07:43:52.499Z</time>
      </trkpt>
      <trkpt lat="37.993933" lon="-3.807465">
        <ele>304.179914</ele>
        <time>2020-08-10T07:43:54.541Z</time>
      </trkpt>
      <trkpt lat="37.994066" lon="-3.807534">
        <ele>305.028189</ele>
        <time>2020-08-10T07:43:56.481Z</time>
      </trkpt>
      <trkpt lat="37.994194" lon="-3.807577">
        <ele>305.809889</ele>
        <time>2020-08-10T07:43:58.494Z</time>
      </trkpt>
      <trkpt lat="37.994317" lon="-3.807645">
        <ele>306.069974</ele>
        <time>2020-08-10T07:44:00.508Z</time>
      </trkpt>
      <trkpt lat="37.994471" lon="-3.807689">
        <ele>306.183487</ele>
        <time>2020-08-10T07:44:02.513Z</time>
      </trkpt>
      <trkpt lat="37.994600" lon="-3.807647">
        <ele>306.279255</ele>
        <time>2020-08-10T07:44:04.496Z</time>
      </trkpt>
      <trkpt lat="37.994725" lon="-3.807680">
        <ele>306.371067</ele>
        <time>2020-08-10T07:44:06.498Z</time>
      </trkpt>
      <trkpt lat="37.994848" lon="-3.807716">
        <ele>306.461838</ele>
        <time>2020-08-10T07:44:08.500Z</time>
      </trkpt>
      <trkpt lat="37.994970" lon="-3.807711">
        <ele>306.549613</ele>
        <time>2020-08-10T07:44:10.500Z</time>
      </trkpt>
      <trkpt lat="37.995093" lon="-3.807729">
        <ele>306.638648</ele>
        <time>2020-08-10T07:44:12.505Z</time>
      </trkpt>
      <trkpt lat="37.995205" lon="-3.807681">
        <ele>306.723657</ele>
        <time>2020-08-10T07:44:14.510Z</time>
      </trkpt>
      <trkpt lat="37.995319" lon="-3.807717">
        <ele>306.808134</ele>
        <time>2020-08-10T07:44:16.500Z</time>
      </trkpt>
      <trkpt lat="37.995430" lon="-3.807738">
        <ele>306.888836</ele>
        <time>2020-08-10T07:44:18.496Z</time>
      </trkpt>
      <trkpt lat="37.995534" lon="-3.807752">
        <ele>306.964042</ele>
        <time>2020-08-10T07:44:20.502Z</time>
      </trkpt>
      <trkpt lat="37.995644" lon="-3.807755">
        <ele>307.043160</ele>
        <time>2020-08-10T07:44:22.502Z</time>
      </trkpt>
      <trkpt lat="37.995761" lon="-3.807753">
        <ele>307.127302</ele>
        <time>2020-08-10T07:44:24.505Z</time>
      </trkpt>
      <trkpt lat="37.995852" lon="-3.807777">
        <ele>307.194138</ele>
        <time>2020-08-10T07:44:26.491Z</time>
      </trkpt>
      <trkpt lat="37.995938" lon="-3.807822">
        <ele>307.261032</ele>
        <time>2020-08-10T07:44:28.497Z</time>
      </trkpt>
      <trkpt lat="37.996032" lon="-3.807856">
        <ele>307.037866</ele>
        <time>2020-08-10T07:44:30.498Z</time>
      </trkpt>
      <trkpt lat="37.996135" lon="-3.807868">
        <ele>306.589271</ele>
        <time>2020-08-10T07:44:32.511Z</time>
      </trkpt>
      <trkpt lat="37.996242" lon="-3.807878">
        <ele>306.123949</ele>
        <time>2020-08-10T07:44:34.506Z</time>
      </trkpt>
      <trkpt lat="37.996379" lon="-3.807870">
        <ele>305.529143</ele>
        <time>2020-08-10T07:44:37.494Z</time>
      </trkpt>
      <trkpt lat="37.996471" lon="-3.807895">
        <ele>305.121088</ele>
        <time>2020-08-10T07:44:39.498Z</time>
      </trkpt>
      <trkpt lat="37.996564" lon="-3.807928">
        <ele>304.702269</ele>
        <time>2020-08-10T07:44:41.506Z</time>
      </trkpt>
      <trkpt lat="37.996652" lon="-3.807967">
        <ele>304.298001</ele>
        <time>2020-08-10T07:44:43.491Z</time>
      </trkpt>
      <trkpt lat="37.996769" lon="-3.808036">
        <ele>303.738443</ele>
        <time>2020-08-10T07:44:46.505Z</time>
      </trkpt>
      <trkpt lat="37.996875" lon="-3.808090">
        <ele>303.243052</ele>
        <time>2020-08-10T07:44:49.497Z</time>
      </trkpt>
      <trkpt lat="37.996975" lon="-3.808131">
        <ele>302.787270</ele>
        <time>2020-08-10T07:44:52.518Z</time>
      </trkpt>
      <trkpt lat="37.997083" lon="-3.808183">
        <ele>302.286285</ele>
        <time>2020-08-10T07:44:56.496Z</time>
      </trkpt>
      <trkpt lat="37.997171" lon="-3.808251">
        <ele>301.839430</ele>
        <time>2020-08-10T07:45:00.498Z</time>
      </trkpt>
      <trkpt lat="37.997257" lon="-3.808303">
        <ele>301.426265</ele>
        <time>2020-08-10T07:45:04.515Z</time>
      </trkpt>
      <trkpt lat="37.997345" lon="-3.808358">
        <ele>301.000824</ele>
        <time>2020-08-10T07:45:08.506Z</time>
      </trkpt>
      <trkpt lat="37.997430" lon="-3.808418">
        <ele>300.578977</ele>
        <time>2020-08-10T07:45:12.486Z</time>
      </trkpt>
      <trkpt lat="37.997512" lon="-3.808468">
        <ele>300.184412</ele>
        <time>2020-08-10T07:45:16.507Z</time>
      </trkpt>
      <trkpt lat="37.997599" lon="-3.808505">
        <ele>299.786461</ele>
        <time>2020-08-10T07:45:21.496Z</time>
      </trkpt>
      <trkpt lat="37.997699" lon="-3.808553">
        <ele>299.676088</ele>
        <time>2020-08-10T07:45:25.498Z</time>
      </trkpt>
      <trkpt lat="37.997786" lon="-3.808628">
        <ele>300.190822</ele>
        <time>2020-08-10T07:45:29.492Z</time>
      </trkpt>
      <trkpt lat="37.997868" lon="-3.808678">
        <ele>300.636055</ele>
        <time>2020-08-10T07:45:34.497Z</time>
      </trkpt>
      <trkpt lat="37.997928" lon="-3.808789">
        <ele>301.155172</ele>
        <time>2020-08-10T07:45:40.505Z</time>
      </trkpt>
      <trkpt lat="37.997939" lon="-3.808928">
        <ele>301.693940</ele>
        <time>2020-08-10T07:45:45.517Z</time>
      </trkpt>
      <trkpt lat="37.997927" lon="-3.809045">
        <ele>302.148972</ele>
        <time>2020-08-10T07:45:50.485Z</time>
      </trkpt>
      <trkpt lat="37.997902" lon="-3.809165">
        <ele>302.627668</ele>
        <time>2020-08-10T07:46:07.503Z</time>
      </trkpt>
      <trkpt lat="37.997890" lon="-3.809293">
        <ele>303.124798</ele>
        <time>2020-08-10T07:46:15.494Z</time>
      </trkpt>
      <trkpt lat="37.997863" lon="-3.809412">
        <ele>303.602382</ele>
        <time>2020-08-10T07:46:24.490Z</time>
      </trkpt>
      <trkpt lat="37.997870" lon="-3.809533">
        <ele>304.070291</ele>
        <time>2020-08-10T07:46:33.497Z</time>
      </trkpt>
      <trkpt lat="37.997916" lon="-3.809637">
        <ele>304.530241</ele>
        <time>2020-08-10T07:46:42.507Z</time>
      </trkpt>
      <trkpt lat="37.997988" lon="-3.809706">
        <ele>304.971802</ele>
        <time>2020-08-10T07:46:53.503Z</time>
      </trkpt>
      <trkpt lat="37.998061" lon="-3.809783">
        <ele>305.436368</ele>
        <time>2020-08-10T07:47:03.486Z</time>
      </trkpt>
      <trkpt lat="37.998070" lon="-3.810007">
        <ele>306.301374</ele>
        <time>2020-08-10T07:49:54.483Z</time>
      </trkpt>
      <trkpt lat="37.998110" lon="-3.810117">
        <ele>306.768592</ele>
        <time>2020-08-10T07:49:58.501Z</time>
      </trkpt>
      <trkpt lat="37.998151" lon="-3.810221">
        <ele>307.217071</ele>
        <time>2020-08-10T07:50:01.506Z</time>
      </trkpt>
      <trkpt lat="37.998212" lon="-3.810331">
        <ele>307.735812</ele>
        <time>2020-08-10T07:50:04.510Z</time>
      </trkpt>
      <trkpt lat="37.998279" lon="-3.810451">
        <ele>308.289726</ele>
        <time>2020-08-10T07:50:07.494Z</time>
      </trkpt>
      <trkpt lat="37.998348" lon="-3.810555">
        <ele>308.217780</ele>
        <time>2020-08-10T07:50:10.503Z</time>
      </trkpt>
      <trkpt lat="37.998397" lon="-3.810655">
        <ele>308.155463</ele>
        <time>2020-08-10T07:50:13.491Z</time>
      </trkpt>
      <trkpt lat="37.998449" lon="-3.810759">
        <ele>308.090282</ele>
        <time>2020-08-10T07:50:16.492Z</time>
      </trkpt>
      <trkpt lat="37.998509" lon="-3.810854">
        <ele>308.025854</ele>
        <time>2020-08-10T07:50:19.493Z</time>
      </trkpt>
      <trkpt lat="37.998577" lon="-3.810931">
        <ele>307.964651</ele>
        <time>2020-08-10T07:50:22.500Z</time>
      </trkpt>
      <trkpt lat="37.998663" lon="-3.811023">
        <ele>307.889114</ele>
        <time>2020-08-10T07:50:26.511Z</time>
      </trkpt>
      <trkpt lat="37.998713" lon="-3.811128">
        <ele>307.824191</ele>
        <time>2020-08-10T07:50:30.503Z</time>
      </trkpt>
      <trkpt lat="37.998752" lon="-3.811248">
        <ele>307.755498</ele>
        <time>2020-08-10T07:50:35.496Z</time>
      </trkpt>
      <trkpt lat="37.998777" lon="-3.811359">
        <ele>307.694404</ele>
        <time>2020-08-10T07:50:39.496Z</time>
      </trkpt>
      <trkpt lat="37.998799" lon="-3.811491">
        <ele>307.623005</ele>
        <time>2020-08-10T07:50:44.508Z</time>
      </trkpt>
      <trkpt lat="37.998839" lon="-3.811632">
        <ele>307.543700</ele>
        <time>2020-08-10T07:50:52.501Z</time>
      </trkpt>
      <trkpt lat="37.998895" lon="-3.811730">
        <ele>307.479638</ele>
        <time>2020-08-10T07:50:54.498Z</time>
      </trkpt>
      <trkpt lat="37.998963" lon="-3.811854">
        <ele>307.399691</ele>
        <time>2020-08-10T07:50:57.506Z</time>
      </trkpt>
      <trkpt lat="37.999003" lon="-3.811997">
        <ele>307.319390</ele>
        <time>2020-08-10T07:51:00.522Z</time>
      </trkpt>
      <trkpt lat="37.999030" lon="-3.812166">
        <ele>307.228136</ele>
        <time>2020-08-10T07:51:03.502Z</time>
      </trkpt>
      <trkpt lat="37.999076" lon="-3.812295">
        <ele>307.153205</ele>
        <time>2020-08-10T07:51:06.475Z</time>
      </trkpt>
      <trkpt lat="37.999116" lon="-3.812398">
        <ele>307.092438</ele>
        <time>2020-08-10T07:51:10.498Z</time>
      </trkpt>
      <trkpt lat="37.999171" lon="-3.812517">
        <ele>307.244709</ele>
        <time>2020-08-10T07:51:16.504Z</time>
      </trkpt>
      <trkpt lat="37.999229" lon="-3.812621">
        <ele>307.414576</ele>
        <time>2020-08-10T07:51:21.497Z</time>
      </trkpt>
      <trkpt lat="37.999268" lon="-3.812735">
        <ele>307.580271</ele>
        <time>2020-08-10T07:51:26.498Z</time>
      </trkpt>
      <trkpt lat="37.999321" lon="-3.812858">
        <ele>307.767174</ele>
        <time>2020-08-10T07:51:31.502Z</time>
      </trkpt>
      <trkpt lat="37.999341" lon="-3.812972">
        <ele>307.922884</ele>
        <time>2020-08-10T07:51:36.492Z</time>
      </trkpt>
      <trkpt lat="37.999373" lon="-3.813097">
        <ele>308.098112</ele>
        <time>2020-08-10T07:51:43.497Z</time>
      </trkpt>
      <trkpt lat="37.999405" lon="-3.813216">
        <ele>308.265751</ele>
        <time>2020-08-10T07:51:49.497Z</time>
      </trkpt>
      <trkpt lat="37.999441" lon="-3.813323">
        <ele>308.420865</ele>
        <time>2020-08-10T07:51:54.499Z</time>
      </trkpt>
      <trkpt lat="37.999482" lon="-3.813430">
        <ele>308.579492</ele>
        <time>2020-08-10T07:51:59.499Z</time>
      </trkpt>
      <trkpt lat="37.999513" lon="-3.813548">
        <ele>308.745327</ele>
        <time>2020-08-10T07:52:04.500Z</time>
      </trkpt>
      <trkpt lat="37.999554" lon="-3.813654">
        <ele>308.902756</ele>
        <time>2020-08-10T07:52:08.500Z</time>
      </trkpt>
      <trkpt lat="37.999600" lon="-3.813783">
        <ele>309.091532</ele>
        <time>2020-08-10T07:52:13.503Z</time>
      </trkpt>
      <trkpt lat="37.999656" lon="-3.813893">
        <ele>309.266130</ele>
        <time>2020-08-10T07:52:18.506Z</time>
      </trkpt>
      <trkpt lat="37.999684" lon="-3.814007">
        <ele>309.425330</ele>
        <time>2020-08-10T07:52:23.499Z</time>
      </trkpt>
      <trkpt lat="37.999732" lon="-3.814116">
        <ele>309.591805</ele>
        <time>2020-08-10T07:52:28.501Z</time>
      </trkpt>
      <trkpt lat="37.999804" lon="-3.814222">
        <ele>309.778382</ele>
        <time>2020-08-10T07:52:33.505Z</time>
      </trkpt>
      <trkpt lat="37.999860" lon="-3.814314">
        <ele>309.933370</ele>
        <time>2020-08-10T07:52:36.503Z</time>
      </trkpt>
      <trkpt lat="37.999909" lon="-3.814476">
        <ele>310.092660</ele>
        <time>2020-08-10T07:52:39.514Z</time>
      </trkpt>
      <trkpt lat="37.999952" lon="-3.814628">
        <ele>309.901555</ele>
        <time>2020-08-10T07:52:41.495Z</time>
      </trkpt>
      <trkpt lat="38.000006" lon="-3.814786">
        <ele>309.697762</ele>
        <time>2020-08-10T07:52:43.496Z</time>
      </trkpt>
      <trkpt lat="38.000061" lon="-3.814956">
        <ele>309.480303</ele>
        <time>2020-08-10T07:52:45.514Z</time>
      </trkpt>
      <trkpt lat="38.000154" lon="-3.815127">
        <ele>309.234441</ele>
        <time>2020-08-10T07:52:47.496Z</time>
      </trkpt>
      <trkpt lat="38.000225" lon="-3.815295">
        <ele>309.008858</ele>
        <time>2020-08-10T07:52:49.497Z</time>
      </trkpt>
      <trkpt lat="38.000276" lon="-3.815482">
        <ele>308.774699</ele>
        <time>2020-08-10T07:52:51.501Z</time>
      </trkpt>
      <trkpt lat="38.000343" lon="-3.815623">
        <ele>308.579864</ele>
        <time>2020-08-10T07:52:53.508Z</time>
      </trkpt>
      <trkpt lat="38.000408" lon="-3.815786">
        <ele>308.363692</ele>
        <time>2020-08-10T07:52:55.513Z</time>
      </trkpt>
      <trkpt lat="38.000466" lon="-3.815919">
        <ele>308.183818</ele>
        <time>2020-08-10T07:52:57.513Z</time>
      </trkpt>
      <trkpt lat="38.000523" lon="-3.816048">
        <ele>308.008810</ele>
        <time>2020-08-10T07:52:59.501Z</time>
      </trkpt>
      <trkpt lat="38.000575" lon="-3.816207">
        <ele>307.805103</ele>
        <time>2020-08-10T07:53:01.499Z</time>
      </trkpt>
      <trkpt lat="38.000628" lon="-3.816326">
        <ele>307.643353</ele>
        <time>2020-08-10T07:53:03.495Z</time>
      </trkpt>
      <trkpt lat="38.000676" lon="-3.816448">
        <ele>307.481995</ele>
        <time>2020-08-10T07:53:05.514Z</time>
      </trkpt>
      <trkpt lat="38.000718" lon="-3.816582">
        <ele>307.469431</ele>
        <time>2020-08-10T07:53:07.497Z</time>
      </trkpt>
      <trkpt lat="38.000766" lon="-3.816702">
        <ele>307.530532</ele>
        <time>2020-08-10T07:53:09.507Z</time>
      </trkpt>
      <trkpt lat="38.000820" lon="-3.816809">
        <ele>307.588224</ele>
        <time>2020-08-10T07:53:11.497Z</time>
      </trkpt>
      <trkpt lat="38.000861" lon="-3.816932">
        <ele>307.648861</ele>
        <time>2020-08-10T07:53:13.501Z</time>
      </trkpt>
      <trkpt lat="38.000914" lon="-3.817050">
        <ele>307.710529</ele>
        <time>2020-08-10T07:53:15.494Z</time>
      </trkpt>
      <trkpt lat="38.000953" lon="-3.817177">
        <ele>307.772415</ele>
        <time>2020-08-10T07:53:17.488Z</time>
      </trkpt>
      <trkpt lat="38.000985" lon="-3.817302">
        <ele>307.832090</ele>
        <time>2020-08-10T07:53:19.499Z</time>
      </trkpt>
      <trkpt lat="38.001029" lon="-3.817418">
        <ele>307.890542</ele>
        <time>2020-08-10T07:53:21.507Z</time>
      </trkpt>
      <trkpt lat="38.001082" lon="-3.817534">
        <ele>307.951422</ele>
        <time>2020-08-10T07:53:23.495Z</time>
      </trkpt>
      <trkpt lat="38.001129" lon="-3.817637">
        <ele>308.005463</ele>
        <time>2020-08-10T07:53:25.494Z</time>
      </trkpt>
      <trkpt lat="38.001169" lon="-3.817754">
        <ele>308.063369</ele>
        <time>2020-08-10T07:53:27.490Z</time>
      </trkpt>
      <trkpt lat="38.001200" lon="-3.817867">
        <ele>308.117695</ele>
        <time>2020-08-10T07:53:29.501Z</time>
      </trkpt>
      <trkpt lat="38.001262" lon="-3.818015">
        <ele>308.193798</ele>
        <time>2020-08-10T07:53:32.486Z</time>
      </trkpt>
      <trkpt lat="38.001302" lon="-3.818122">
        <ele>308.247569</ele>
        <time>2020-08-10T07:53:34.501Z</time>
      </trkpt>
      <trkpt lat="38.001351" lon="-3.818282">
        <ele>308.325507</ele>
        <time>2020-08-10T07:53:37.494Z</time>
      </trkpt>
      <trkpt lat="38.001432" lon="-3.818362">
        <ele>308.384647</ele>
        <time>2020-08-10T07:53:39.513Z</time>
      </trkpt>
      <trkpt lat="38.001478" lon="-3.818484">
        <ele>308.446053</ele>
        <time>2020-08-10T07:53:41.506Z</time>
      </trkpt>
      <trkpt lat="38.001538" lon="-3.818593">
        <ele>308.374097</ele>
        <time>2020-08-10T07:53:43.492Z</time>
      </trkpt>
      <trkpt lat="38.001582" lon="-3.818705">
        <ele>308.261863</ele>
        <time>2020-08-10T07:53:45.507Z</time>
      </trkpt>
      <trkpt lat="38.001618" lon="-3.818819">
        <ele>308.151722</ele>
        <time>2020-08-10T07:53:47.495Z</time>
      </trkpt>
      <trkpt lat="38.001665" lon="-3.818976">
        <ele>308.001104</ele>
        <time>2020-08-10T07:53:50.504Z</time>
      </trkpt>
      <trkpt lat="38.001719" lon="-3.819131">
        <ele>307.849118</ele>
        <time>2020-08-10T07:53:53.493Z</time>
      </trkpt>
      <trkpt lat="38.001803" lon="-3.819228">
        <ele>307.719863</ele>
        <time>2020-08-10T07:53:55.497Z</time>
      </trkpt>
      <trkpt lat="38.001836" lon="-3.819337">
        <ele>307.615143</ele>
        <time>2020-08-10T07:53:57.507Z</time>
      </trkpt>
      <trkpt lat="38.001845" lon="-3.819468">
        <ele>307.497215</ele>
        <time>2020-08-10T07:53:59.504Z</time>
      </trkpt>
      <trkpt lat="38.001905" lon="-3.819623">
        <ele>307.342342</ele>
        <time>2020-08-10T07:54:02.498Z</time>
      </trkpt>
      <trkpt lat="38.001933" lon="-3.819734">
        <ele>307.237820</ele>
        <time>2020-08-10T07:54:04.496Z</time>
      </trkpt>
      <trkpt lat="38.001966" lon="-3.819846">
        <ele>307.130585</ele>
        <time>2020-08-10T07:54:06.497Z</time>
      </trkpt>
      <trkpt lat="38.002027" lon="-3.819941">
        <ele>307.020684</ele>
        <time>2020-08-10T07:54:08.501Z</time>
      </trkpt>
      <trkpt lat="38.002071" lon="-3.820063">
        <ele>306.900358</ele>
        <time>2020-08-10T07:54:10.511Z</time>
      </trkpt>
      <trkpt lat="38.002118" lon="-3.820231">
        <ele>306.740480</ele>
        <time>2020-08-10T07:54:13.497Z</time>
      </trkpt>
      <trkpt lat="38.002161" lon="-3.820334">
        <ele>306.635946</ele>
        <time>2020-08-10T07:54:15.496Z</time>
      </trkpt>
      <trkpt lat="38.002210" lon="-3.820435">
        <ele>306.529578</ele>
        <time>2020-08-10T07:54:17.500Z</time>
      </trkpt>
      <trkpt lat="38.002250" lon="-3.820549">
        <ele>306.417664</ele>
        <time>2020-08-10T07:54:19.512Z</time>
      </trkpt>
      <trkpt lat="38.002296" lon="-3.820678">
        <ele>306.279640</ele>
        <time>2020-08-10T07:54:21.510Z</time>
      </trkpt>
      <trkpt lat="38.002338" lon="-3.820806">
        <ele>306.144241</ele>
        <time>2020-08-10T07:54:23.501Z</time>
      </trkpt>
      <trkpt lat="38.002376" lon="-3.820922">
        <ele>306.021566</ele>
        <time>2020-08-10T07:54:25.503Z</time>
      </trkpt>
      <trkpt lat="38.002433" lon="-3.821045">
        <ele>305.882223</ele>
        <time>2020-08-10T07:54:27.500Z</time>
      </trkpt>
      <trkpt lat="38.002447" lon="-3.821165">
        <ele>305.763763</ele>
        <time>2020-08-10T07:54:29.481Z</time>
      </trkpt>
      <trkpt lat="38.002494" lon="-3.821267">
        <ele>305.648379</ele>
        <time>2020-08-10T07:54:31.501Z</time>
      </trkpt>
      <trkpt lat="38.002567" lon="-3.821392">
        <ele>305.496445</ele>
        <time>2020-08-10T07:54:33.500Z</time>
      </trkpt>
      <trkpt lat="38.002586" lon="-3.821550">
        <ele>305.340369</ele>
        <time>2020-08-10T07:54:35.498Z</time>
      </trkpt>
      <trkpt lat="38.002642" lon="-3.821688">
        <ele>305.188790</ele>
        <time>2020-08-10T07:54:37.501Z</time>
      </trkpt>
      <trkpt lat="38.002707" lon="-3.821794">
        <ele>305.057630</ele>
        <time>2020-08-10T07:54:39.491Z</time>
      </trkpt>
      <trkpt lat="38.002762" lon="-3.821928">
        <ele>304.910089</ele>
        <time>2020-08-10T07:54:42.492Z</time>
      </trkpt>
      <trkpt lat="38.002797" lon="-3.822089">
        <ele>304.746997</ele>
        <time>2020-08-10T07:54:45.497Z</time>
      </trkpt>
      <trkpt lat="38.002850" lon="-3.822213">
        <ele>304.609243</ele>
        <time>2020-08-10T07:54:48.498Z</time>
      </trkpt>
      <trkpt lat="38.002922" lon="-3.822310">
        <ele>304.479114</ele>
        <time>2020-08-10T07:54:51.502Z</time>
      </trkpt>
      <trkpt lat="38.002978" lon="-3.822439">
        <ele>304.335293</ele>
        <time>2020-08-10T07:54:54.497Z</time>
      </trkpt>
      <trkpt lat="38.003040" lon="-3.822589">
        <ele>304.188286</ele>
        <time>2020-08-10T07:54:57.490Z</time>
      </trkpt>
      <trkpt lat="38.003084" lon="-3.822756">
        <ele>304.213616</ele>
        <time>2020-08-10T07:55:00.510Z</time>
      </trkpt>
      <trkpt lat="38.003146" lon="-3.822892">
        <ele>304.236217</ele>
        <time>2020-08-10T07:55:03.497Z</time>
      </trkpt>
      <trkpt lat="38.003174" lon="-3.823045">
        <ele>304.258811</ele>
        <time>2020-08-10T07:55:06.501Z</time>
      </trkpt>
      <trkpt lat="38.003242" lon="-3.823182">
        <ele>304.282101</ele>
        <time>2020-08-10T07:55:09.501Z</time>
      </trkpt>
      <trkpt lat="38.003282" lon="-3.823287">
        <ele>304.298878</ele>
        <time>2020-08-10T07:55:11.500Z</time>
      </trkpt>
      <trkpt lat="38.003311" lon="-3.823450">
        <ele>304.322915</ele>
        <time>2020-08-10T07:55:14.500Z</time>
      </trkpt>
      <trkpt lat="38.003369" lon="-3.823588">
        <ele>304.345413</ele>
        <time>2020-08-10T07:55:17.492Z</time>
      </trkpt>
      <trkpt lat="38.003396" lon="-3.823705">
        <ele>304.362949</ele>
        <time>2020-08-10T07:55:19.501Z</time>
      </trkpt>
      <trkpt lat="38.003462" lon="-3.823838">
        <ele>304.385558</ele>
        <time>2020-08-10T07:55:22.496Z</time>
      </trkpt>
      <trkpt lat="38.003514" lon="-3.823962">
        <ele>304.405764</ele>
        <time>2020-08-10T07:55:25.510Z</time>
      </trkpt>
      <trkpt lat="38.003570" lon="-3.824088">
        <ele>304.426573</ele>
        <time>2020-08-10T07:55:28.500Z</time>
      </trkpt>
      <trkpt lat="38.003628" lon="-3.824217">
        <ele>304.447937</ele>
        <time>2020-08-10T07:55:31.495Z</time>
      </trkpt>
      <trkpt lat="38.003682" lon="-3.824354">
        <ele>304.469971</ele>
        <time>2020-08-10T07:55:34.498Z</time>
      </trkpt>
      <trkpt lat="38.003717" lon="-3.824483">
        <ele>304.489597</ele>
        <time>2020-08-10T07:55:37.499Z</time>
      </trkpt>
      <trkpt lat="38.003760" lon="-3.824622">
        <ele>304.511077</ele>
        <time>2020-08-10T07:55:40.484Z</time>
      </trkpt>
      <trkpt lat="38.003820" lon="-3.824744">
        <ele>304.403755</ele>
        <time>2020-08-10T07:55:43.498Z</time>
      </trkpt>
      <trkpt lat="38.003884" lon="-3.824867">
        <ele>304.269834</ele>
        <time>2020-08-10T07:55:46.508Z</time>
      </trkpt>
      <trkpt lat="38.003941" lon="-3.825008">
        <ele>304.125850</ele>
        <time>2020-08-10T07:55:49.510Z</time>
      </trkpt>
      <trkpt lat="38.003991" lon="-3.825132">
        <ele>303.999294</ele>
        <time>2020-08-10T07:55:52.488Z</time>
      </trkpt>
      <trkpt lat="38.004032" lon="-3.825266">
        <ele>303.868689</ele>
        <time>2020-08-10T07:55:55.486Z</time>
      </trkpt>
      <trkpt lat="38.004097" lon="-3.825388">
        <ele>303.734884</ele>
        <time>2020-08-10T07:55:58.494Z</time>
      </trkpt>
      <trkpt lat="38.004158" lon="-3.825511">
        <ele>303.602838</ele>
        <time>2020-08-10T07:56:01.491Z</time>
      </trkpt>
      <trkpt lat="38.004210" lon="-3.825659">
        <ele>303.455609</ele>
        <time>2020-08-10T07:56:04.502Z</time>
      </trkpt>
      <trkpt lat="38.004247" lon="-3.825766">
        <ele>303.349443</ele>
        <time>2020-08-10T07:56:06.499Z</time>
      </trkpt>
      <trkpt lat="38.004284" lon="-3.825872">
        <ele>303.244109</ele>
        <time>2020-08-10T07:56:08.493Z</time>
      </trkpt>
      <trkpt lat="38.004338" lon="-3.826018">
        <ele>303.097572</ele>
        <time>2020-08-10T07:56:11.509Z</time>
      </trkpt>
      <trkpt lat="38.004393" lon="-3.826143">
        <ele>302.967495</ele>
        <time>2020-08-10T07:56:14.498Z</time>
      </trkpt>
      <trkpt lat="38.004451" lon="-3.826268">
        <ele>302.835697</ele>
        <time>2020-08-10T07:56:17.501Z</time>
      </trkpt>
      <trkpt lat="38.004503" lon="-3.826400">
        <ele>302.701614</ele>
        <time>2020-08-10T07:56:20.489Z</time>
      </trkpt>
      <trkpt lat="38.004559" lon="-3.826523">
        <ele>302.572548</ele>
        <time>2020-08-10T07:56:23.496Z</time>
      </trkpt>
      <trkpt lat="38.004598" lon="-3.826661">
        <ele>302.441469</ele>
        <time>2020-08-10T07:56:26.506Z</time>
      </trkpt>
      <trkpt lat="38.004642" lon="-3.826800">
        <ele>302.596127</ele>
        <time>2020-08-10T07:56:29.493Z</time>
      </trkpt>
      <trkpt lat="38.004704" lon="-3.826923">
        <ele>302.746880</ele>
        <time>2020-08-10T07:56:32.505Z</time>
      </trkpt>
      <trkpt lat="38.004764" lon="-3.827048">
        <ele>302.897996</ele>
        <time>2020-08-10T07:56:35.502Z</time>
      </trkpt>
      <trkpt lat="38.004819" lon="-3.827178">
        <ele>303.050338</ele>
        <time>2020-08-10T07:56:38.500Z</time>
      </trkpt>
      <trkpt lat="38.004873" lon="-3.827302">
        <ele>303.196613</ele>
        <time>2020-08-10T07:56:41.501Z</time>
      </trkpt>
      <trkpt lat="38.004922" lon="-3.827419">
        <ele>303.333411</ele>
        <time>2020-08-10T07:56:44.494Z</time>
      </trkpt>
      <trkpt lat="38.004970" lon="-3.827543">
        <ele>303.476049</ele>
        <time>2020-08-10T07:56:47.500Z</time>
      </trkpt>
      <trkpt lat="38.005026" lon="-3.827666">
        <ele>303.622715</ele>
        <time>2020-08-10T07:56:50.497Z</time>
      </trkpt>
      <trkpt lat="38.005084" lon="-3.827786">
        <ele>303.768059</ele>
        <time>2020-08-10T07:56:53.504Z</time>
      </trkpt>
      <trkpt lat="38.005130" lon="-3.827924">
        <ele>303.922761</ele>
        <time>2020-08-10T07:56:56.494Z</time>
      </trkpt>
      <trkpt lat="38.005177" lon="-3.828057">
        <ele>304.073253</ele>
        <time>2020-08-10T07:56:59.496Z</time>
      </trkpt>
      <trkpt lat="38.005221" lon="-3.828191">
        <ele>304.223132</ele>
        <time>2020-08-10T07:57:02.511Z</time>
      </trkpt>
      <trkpt lat="38.005271" lon="-3.828328">
        <ele>304.379013</ele>
        <time>2020-08-10T07:57:05.498Z</time>
      </trkpt>
      <trkpt lat="38.005328" lon="-3.828456">
        <ele>304.530810</ele>
        <time>2020-08-10T07:57:08.509Z</time>
      </trkpt>
      <trkpt lat="38.005381" lon="-3.828578">
        <ele>304.674643</ele>
        <time>2020-08-10T07:57:11.509Z</time>
      </trkpt>
      <trkpt lat="38.005437" lon="-3.828694">
        <ele>304.781805</ele>
        <time>2020-08-10T07:57:14.516Z</time>
      </trkpt>
      <trkpt lat="38.005496" lon="-3.828812">
        <ele>304.659616</ele>
        <time>2020-08-10T07:57:17.508Z</time>
      </trkpt>
      <trkpt lat="38.005556" lon="-3.828937">
        <ele>304.531645</ele>
        <time>2020-08-10T07:57:20.498Z</time>
      </trkpt>
      <trkpt lat="38.005617" lon="-3.829062">
        <ele>304.403092</ele>
        <time>2020-08-10T07:57:23.506Z</time>
      </trkpt>
      <trkpt lat="38.005677" lon="-3.829186">
        <ele>304.275866</ele>
        <time>2020-08-10T07:57:26.495Z</time>
      </trkpt>
      <trkpt lat="38.005735" lon="-3.829315">
        <ele>304.146009</ele>
        <time>2020-08-10T07:57:29.501Z</time>
      </trkpt>
      <trkpt lat="38.005784" lon="-3.829448">
        <ele>304.017642</ele>
        <time>2020-08-10T07:57:32.498Z</time>
      </trkpt>
      <trkpt lat="38.005827" lon="-3.829584">
        <ele>303.889519</ele>
        <time>2020-08-10T07:57:35.498Z</time>
      </trkpt>
      <trkpt lat="38.005877" lon="-3.829713">
        <ele>303.763825</ele>
        <time>2020-08-10T07:57:38.501Z</time>
      </trkpt>
      <trkpt lat="38.005923" lon="-3.829848">
        <ele>303.635228</ele>
        <time>2020-08-10T07:57:41.517Z</time>
      </trkpt>
      <trkpt lat="38.005970" lon="-3.829973">
        <ele>303.514133</ele>
        <time>2020-08-10T07:57:44.503Z</time>
      </trkpt>
      <trkpt lat="38.006016" lon="-3.830094">
        <ele>303.396671</ele>
        <time>2020-08-10T07:57:47.500Z</time>
      </trkpt>
      <trkpt lat="38.006055" lon="-3.830221">
        <ele>303.277498</ele>
        <time>2020-08-10T07:57:50.481Z</time>
      </trkpt>
      <trkpt lat="38.006094" lon="-3.830364">
        <ele>303.145194</ele>
        <time>2020-08-10T07:57:53.500Z</time>
      </trkpt>
      <trkpt lat="38.006133" lon="-3.830502">
        <ele>303.017013</ele>
        <time>2020-08-10T07:57:56.506Z</time>
      </trkpt>
      <trkpt lat="38.006184" lon="-3.830638">
        <ele>302.885327</ele>
        <time>2020-08-10T07:57:59.510Z</time>
      </trkpt>
      <trkpt lat="38.006235" lon="-3.830779">
        <ele>302.875690</ele>
        <time>2020-08-10T07:58:02.505Z</time>
      </trkpt>
      <trkpt lat="38.006285" lon="-3.830921">
        <ele>303.071838</ele>
        <time>2020-08-10T07:58:05.508Z</time>
      </trkpt>
      <trkpt lat="38.006341" lon="-3.831055">
        <ele>303.263127</ele>
        <time>2020-08-10T07:58:08.499Z</time>
      </trkpt>
      <trkpt lat="38.006396" lon="-3.831182">
        <ele>303.445887</ele>
        <time>2020-08-10T07:58:11.499Z</time>
      </trkpt>
      <trkpt lat="38.006444" lon="-3.831319">
        <ele>303.634972</ele>
        <time>2020-08-10T07:58:14.508Z</time>
      </trkpt>
      <trkpt lat="38.006495" lon="-3.831456">
        <ele>303.826058</ele>
        <time>2020-08-10T07:58:17.499Z</time>
      </trkpt>
      <trkpt lat="38.006545" lon="-3.831585">
        <ele>304.007361</ele>
        <time>2020-08-10T07:58:20.502Z</time>
      </trkpt>
      <trkpt lat="38.006599" lon="-3.831707">
        <ele>304.183831</ele>
        <time>2020-08-10T07:58:23.499Z</time>
      </trkpt>
      <trkpt lat="38.006643" lon="-3.831825">
        <ele>304.348466</ele>
        <time>2020-08-10T07:58:26.507Z</time>
      </trkpt>
      <trkpt lat="38.006684" lon="-3.831941">
        <ele>304.508800</ele>
        <time>2020-08-10T07:58:29.509Z</time>
      </trkpt>
      <trkpt lat="38.006728" lon="-3.832053">
        <ele>304.666628</ele>
        <time>2020-08-10T07:58:32.500Z</time>
      </trkpt>
      <trkpt lat="38.006769" lon="-3.832154">
        <ele>304.809912</ele>
        <time>2020-08-10T07:58:35.492Z</time>
      </trkpt>
      <trkpt lat="38.006809" lon="-3.832257">
        <ele>304.954727</ele>
        <time>2020-08-10T07:58:38.517Z</time>
      </trkpt>
      <trkpt lat="38.006850" lon="-3.832367">
        <ele>305.108188</ele>
        <time>2020-08-10T07:58:41.500Z</time>
      </trkpt>
      <trkpt lat="38.006888" lon="-3.832471">
        <ele>305.252760</ele>
        <time>2020-08-10T07:58:44.495Z</time>
      </trkpt>
      <trkpt lat="38.006949" lon="-3.832592">
        <ele>305.433915</ele>
        <time>2020-08-10T07:58:48.506Z</time>
      </trkpt>
      <trkpt lat="38.007020" lon="-3.832701">
        <ele>305.612267</ele>
        <time>2020-08-10T07:58:52.504Z</time>
      </trkpt>
      <trkpt lat="38.007080" lon="-3.832825">
        <ele>305.379852</ele>
        <time>2020-08-10T07:58:56.489Z</time>
      </trkpt>
      <trkpt lat="38.007150" lon="-3.832936">
        <ele>304.914716</ele>
        <time>2020-08-10T07:59:00.511Z</time>
      </trkpt>
      <trkpt lat="38.007214" lon="-3.833065">
        <ele>304.415990</ele>
        <time>2020-08-10T07:59:04.501Z</time>
      </trkpt>
      <trkpt lat="38.007248" lon="-3.833173">
        <ele>304.035500</ele>
        <time>2020-08-10T07:59:07.491Z</time>
      </trkpt>
      <trkpt lat="38.007290" lon="-3.833310">
        <ele>303.554563</ele>
        <time>2020-08-10T07:59:11.498Z</time>
      </trkpt>
      <trkpt lat="38.007337" lon="-3.833447">
        <ele>303.065716</ele>
        <time>2020-08-10T07:59:15.500Z</time>
      </trkpt>
      <trkpt lat="38.007376" lon="-3.833552">
        <ele>302.685946</ele>
        <time>2020-08-10T07:59:18.505Z</time>
      </trkpt>
      <trkpt lat="38.007416" lon="-3.833662">
        <ele>302.289597</ele>
        <time>2020-08-10T07:59:21.490Z</time>
      </trkpt>
      <trkpt lat="38.007445" lon="-3.833774">
        <ele>301.903903</ele>
        <time>2020-08-10T07:59:24.512Z</time>
      </trkpt>
      <trkpt lat="38.007487" lon="-3.833884">
        <ele>301.504003</ele>
        <time>2020-08-10T07:59:27.505Z</time>
      </trkpt>
      <trkpt lat="38.007525" lon="-3.833994">
        <ele>301.111061</ele>
        <time>2020-08-10T07:59:30.496Z</time>
      </trkpt>
      <trkpt lat="38.007557" lon="-3.834103">
        <ele>300.730512</ele>
        <time>2020-08-10T07:59:33.507Z</time>
      </trkpt>
      <trkpt lat="38.007601" lon="-3.834214">
        <ele>300.324002</ele>
        <time>2020-08-10T07:59:36.505Z</time>
      </trkpt>
      <trkpt lat="38.007645" lon="-3.834322">
        <ele>299.926236</ele>
        <time>2020-08-10T07:59:39.516Z</time>
      </trkpt>
      <trkpt lat="38.007681" lon="-3.834428">
        <ele>299.548607</ele>
        <time>2020-08-10T07:59:42.493Z</time>
      </trkpt>
      <trkpt lat="38.007710" lon="-3.834545">
        <ele>299.147342</ele>
        <time>2020-08-10T07:59:45.509Z</time>
      </trkpt>
      <trkpt lat="38.007742" lon="-3.834654">
        <ele>298.766793</ele>
        <time>2020-08-10T07:59:48.501Z</time>
      </trkpt>
      <trkpt lat="38.007777" lon="-3.834760">
        <ele>298.390789</ele>
        <time>2020-08-10T07:59:51.492Z</time>
      </trkpt>
      <trkpt lat="38.007824" lon="-3.834864">
        <ele>298.172067</ele>
        <time>2020-08-10T07:59:54.493Z</time>
      </trkpt>
      <trkpt lat="38.007875" lon="-3.834982">
        <ele>298.089864</ele>
        <time>2020-08-10T07:59:57.505Z</time>
      </trkpt>
      <trkpt lat="38.007915" lon="-3.835105">
        <ele>298.008592</ele>
        <time>2020-08-10T08:00:00.510Z</time>
      </trkpt>
      <trkpt lat="38.007960" lon="-3.835225">
        <ele>297.927421</ele>
        <time>2020-08-10T08:00:03.495Z</time>
      </trkpt>
      <trkpt lat="38.008015" lon="-3.835326">
        <ele>297.852433</ele>
        <time>2020-08-10T08:00:06.497Z</time>
      </trkpt>
      <trkpt lat="38.008070" lon="-3.835428">
        <ele>297.776942</ele>
        <time>2020-08-10T08:00:09.498Z</time>
      </trkpt>
      <trkpt lat="38.008117" lon="-3.835534">
        <ele>297.702653</ele>
        <time>2020-08-10T08:00:12.491Z</time>
      </trkpt>
      <trkpt lat="38.008150" lon="-3.835645">
        <ele>297.630191</ele>
        <time>2020-08-10T08:00:15.513Z</time>
      </trkpt>
      <trkpt lat="38.008188" lon="-3.835748">
        <ele>297.560727</ele>
        <time>2020-08-10T08:00:18.512Z</time>
      </trkpt>
      <trkpt lat="38.008237" lon="-3.835846">
        <ele>297.489836</ele>
        <time>2020-08-10T08:00:21.499Z</time>
      </trkpt>
      <trkpt lat="38.008280" lon="-3.835948">
        <ele>297.419181</ele>
        <time>2020-08-10T08:00:24.511Z</time>
      </trkpt>
      <trkpt lat="38.008323" lon="-3.836052">
        <ele>297.347446</ele>
        <time>2020-08-10T08:00:27.501Z</time>
      </trkpt>
      <trkpt lat="38.008376" lon="-3.836184">
        <ele>297.256960</ele>
        <time>2020-08-10T08:00:31.501Z</time>
      </trkpt>
      <trkpt lat="38.008406" lon="-3.836293">
        <ele>297.186441</ele>
        <time>2020-08-10T08:00:34.506Z</time>
      </trkpt>
      <trkpt lat="38.008457" lon="-3.836431">
        <ele>297.093343</ele>
        <time>2020-08-10T08:00:38.507Z</time>
      </trkpt>
      <trkpt lat="38.008499" lon="-3.836532">
        <ele>297.023591</ele>
        <time>2020-08-10T08:00:41.493Z</time>
      </trkpt>
      <trkpt lat="38.008535" lon="-3.836653">
        <ele>296.944594</ele>
        <time>2020-08-10T08:00:45.473Z</time>
      </trkpt>
      <trkpt lat="38.008587" lon="-3.836785">
        <ele>296.854457</ele>
        <time>2020-08-10T08:00:49.506Z</time>
      </trkpt>
      <trkpt lat="38.008634" lon="-3.836884">
        <ele>296.802021</ele>
        <time>2020-08-10T08:00:52.503Z</time>
      </trkpt>
      <trkpt lat="38.008675" lon="-3.836992">
        <ele>296.768161</ele>
        <time>2020-08-10T08:00:55.499Z</time>
      </trkpt>
      <trkpt lat="38.008720" lon="-3.837128">
        <ele>296.726499</ele>
        <time>2020-08-10T08:00:59.488Z</time>
      </trkpt>
      <trkpt lat="38.008813" lon="-3.837207">
        <ele>296.686383</ele>
        <time>2020-08-10T08:01:02.478Z</time>
      </trkpt>
      <trkpt lat="38.008920" lon="-3.837273">
        <ele>296.643737</ele>
        <time>2020-08-10T08:01:05.496Z</time>
      </trkpt>
      <trkpt lat="38.009033" lon="-3.837338">
        <ele>296.599264</ele>
        <time>2020-08-10T08:01:08.504Z</time>
      </trkpt>
      <trkpt lat="38.009114" lon="-3.837388">
        <ele>296.566976</ele>
        <time>2020-08-10T08:01:10.510Z</time>
      </trkpt>
      <trkpt lat="38.009193" lon="-3.837442">
        <ele>296.534811</ele>
        <time>2020-08-10T08:01:12.495Z</time>
      </trkpt>
      <trkpt lat="38.009317" lon="-3.837500">
        <ele>296.487438</ele>
        <time>2020-08-10T08:01:15.498Z</time>
      </trkpt>
      <trkpt lat="38.009433" lon="-3.837558">
        <ele>296.442745</ele>
        <time>2020-08-10T08:01:18.491Z</time>
      </trkpt>
      <trkpt lat="38.009540" lon="-3.837630">
        <ele>296.399332</ele>
        <time>2020-08-10T08:01:21.480Z</time>
      </trkpt>
      <trkpt lat="38.009656" lon="-3.837688">
        <ele>296.354639</ele>
        <time>2020-08-10T08:01:24.503Z</time>
      </trkpt>
      <trkpt lat="38.009776" lon="-3.837740">
        <ele>296.309185</ele>
        <time>2020-08-10T08:01:27.500Z</time>
      </trkpt>
      <trkpt lat="38.009862" lon="-3.837784">
        <ele>296.275946</ele>
        <time>2020-08-10T08:01:29.499Z</time>
      </trkpt>
      <trkpt lat="38.009955" lon="-3.837805">
        <ele>296.242085</ele>
        <time>2020-08-10T08:01:31.496Z</time>
      </trkpt>
      <trkpt lat="38.010038" lon="-3.837851">
        <ele>296.209619</ele>
        <time>2020-08-10T08:01:33.506Z</time>
      </trkpt>
      <trkpt lat="38.010128" lon="-3.837886">
        <ele>296.175876</ele>
        <time>2020-08-10T08:01:35.501Z</time>
      </trkpt>
      <trkpt lat="38.010214" lon="-3.837924">
        <ele>296.197722</ele>
        <time>2020-08-10T08:01:37.491Z</time>
      </trkpt>
      <trkpt lat="38.010303" lon="-3.837966">
        <ele>296.226234</ele>
        <time>2020-08-10T08:01:39.514Z</time>
      </trkpt>
      <trkpt lat="38.010395" lon="-3.838011">
        <ele>296.255841</ele>
        <time>2020-08-10T08:01:41.506Z</time>
      </trkpt>
      <trkpt lat="38.010489" lon="-3.838045">
        <ele>296.285191</ele>
        <time>2020-08-10T08:01:43.509Z</time>
      </trkpt>
      <trkpt lat="38.010581" lon="-3.838080">
        <ele>296.314032</ele>
        <time>2020-08-10T08:01:45.494Z</time>
      </trkpt>
      <trkpt lat="38.010674" lon="-3.838131">
        <ele>296.344453</ele>
        <time>2020-08-10T08:01:47.510Z</time>
      </trkpt>
      <trkpt lat="38.010766" lon="-3.838174">
        <ele>296.373893</ele>
        <time>2020-08-10T08:01:49.500Z</time>
      </trkpt>
      <trkpt lat="38.010864" lon="-3.838219">
        <ele>296.405187</ele>
        <time>2020-08-10T08:01:51.496Z</time>
      </trkpt>
      <trkpt lat="38.010967" lon="-3.838256">
        <ele>296.437331</ele>
        <time>2020-08-10T08:01:53.503Z</time>
      </trkpt>
      <trkpt lat="38.011066" lon="-3.838307">
        <ele>296.469414</ele>
        <time>2020-08-10T08:01:55.510Z</time>
      </trkpt>
      <trkpt lat="38.011159" lon="-3.838347">
        <ele>296.498900</ele>
        <time>2020-08-10T08:01:57.487Z</time>
      </trkpt>
      <trkpt lat="38.011277" lon="-3.838354">
        <ele>296.534372</ele>
        <time>2020-08-10T08:01:59.511Z</time>
      </trkpt>
      <trkpt lat="38.011384" lon="-3.838425">
        <ele>296.570629</ele>
        <time>2020-08-10T08:02:01.510Z</time>
      </trkpt>
      <trkpt lat="38.011452" lon="-3.838525">
        <ele>296.601881</ele>
        <time>2020-08-10T08:02:03.510Z</time>
      </trkpt>
      <trkpt lat="38.011512" lon="-3.838623">
        <ele>296.631244</ele>
        <time>2020-08-10T08:02:05.497Z</time>
      </trkpt>
      <trkpt lat="38.011526" lon="-3.838746">
        <ele>296.660646</ele>
        <time>2020-08-10T08:02:07.490Z</time>
      </trkpt>
      <trkpt lat="38.011477" lon="-3.838875">
        <ele>296.694528</ele>
        <time>2020-08-10T08:02:09.500Z</time>
      </trkpt>
      <trkpt lat="38.011420" lon="-3.838980">
        <ele>296.782199</ele>
        <time>2020-08-10T08:02:11.485Z</time>
      </trkpt>
      <trkpt lat="38.011366" lon="-3.839085">
        <ele>296.957529</ele>
        <time>2020-08-10T08:02:13.499Z</time>
      </trkpt>
      <trkpt lat="38.011315" lon="-3.839194">
        <ele>297.134792</ele>
        <time>2020-08-10T08:02:15.505Z</time>
      </trkpt>
      <trkpt lat="38.011270" lon="-3.839301">
        <ele>297.304390</ele>
        <time>2020-08-10T08:02:17.498Z</time>
      </trkpt>
      <trkpt lat="38.011215" lon="-3.839462">
        <ele>297.549765</ele>
        <time>2020-08-10T08:02:20.497Z</time>
      </trkpt>
      <trkpt lat="38.011173" lon="-3.839604">
        <ele>297.761853</ele>
        <time>2020-08-10T08:02:23.494Z</time>
      </trkpt>
      <trkpt lat="38.011120" lon="-3.839725">
        <ele>297.955435</ele>
        <time>2020-08-10T08:02:26.499Z</time>
      </trkpt>
      <trkpt lat="38.011067" lon="-3.839860">
        <ele>298.166341</ele>
        <time>2020-08-10T08:02:29.506Z</time>
      </trkpt>
      <trkpt lat="38.011021" lon="-3.840010">
        <ele>298.391413</ele>
        <time>2020-08-10T08:02:32.498Z</time>
      </trkpt>
      <trkpt lat="38.010966" lon="-3.840145">
        <ele>298.603927</ele>
        <time>2020-08-10T08:02:35.511Z</time>
      </trkpt>
      <trkpt lat="38.010906" lon="-3.840277">
        <ele>298.817016</ele>
        <time>2020-08-10T08:02:38.511Z</time>
      </trkpt>
      <trkpt lat="38.010840" lon="-3.840419">
        <ele>299.047549</ele>
        <time>2020-08-10T08:02:41.501Z</time>
      </trkpt>
      <trkpt lat="38.010785" lon="-3.840553">
        <ele>299.258821</ele>
        <time>2020-08-10T08:02:44.512Z</time>
      </trkpt>
      <trkpt lat="38.010733" lon="-3.840668">
        <ele>299.444226</ele>
        <time>2020-08-10T08:02:47.514Z</time>
      </trkpt>
      <trkpt lat="38.010692" lon="-3.840775">
        <ele>299.610600</ele>
        <time>2020-08-10T08:02:50.490Z</time>
      </trkpt>
      <trkpt lat="38.010649" lon="-3.840899">
        <ele>299.800040</ele>
        <time>2020-08-10T08:02:54.489Z</time>
      </trkpt>
      <trkpt lat="38.010593" lon="-3.841000">
        <ele>299.978664</ele>
        <time>2020-08-10T08:02:58.504Z</time>
      </trkpt>
      <trkpt lat="38.010538" lon="-3.841112">
        <ele>300.179382</ele>
        <time>2020-08-10T08:03:02.500Z</time>
      </trkpt>
      <trkpt lat="38.010469" lon="-3.841224">
        <ele>300.395614</ele>
        <time>2020-08-10T08:03:06.496Z</time>
      </trkpt>
      <trkpt lat="38.010401" lon="-3.841321">
        <ele>300.593083</ele>
        <time>2020-08-10T08:03:10.497Z</time>
      </trkpt>
      <trkpt lat="38.010346" lon="-3.841423">
        <ele>300.781066</ele>
        <time>2020-08-10T08:03:15.497Z</time>
      </trkpt>
      <trkpt lat="38.010302" lon="-3.841537">
        <ele>300.974135</ele>
        <time>2020-08-10T08:03:20.506Z</time>
      </trkpt>
      <trkpt lat="38.010258" lon="-3.841640">
        <ele>301.152332</ele>
        <time>2020-08-10T08:03:24.499Z</time>
      </trkpt>
      <trkpt lat="38.010213" lon="-3.841762">
        <ele>301.357209</ele>
        <time>2020-08-10T08:03:28.495Z</time>
      </trkpt>
      <trkpt lat="38.010166" lon="-3.841889">
        <ele>301.570610</ele>
        <time>2020-08-10T08:03:32.498Z</time>
      </trkpt>
      <trkpt lat="38.010122" lon="-3.842012">
        <ele>301.776060</ele>
        <time>2020-08-10T08:03:36.507Z</time>
      </trkpt>
      <trkpt lat="38.010075" lon="-3.842129">
        <ele>301.975800</ele>
        <time>2020-08-10T08:03:40.494Z</time>
      </trkpt>
      <trkpt lat="38.010028" lon="-3.842242">
        <ele>302.170139</ele>
        <time>2020-08-10T08:03:44.504Z</time>
      </trkpt>
      <trkpt lat="38.009978" lon="-3.842343">
        <ele>302.351556</ele>
        <time>2020-08-10T08:03:47.519Z</time>
      </trkpt>
      <trkpt lat="38.009935" lon="-3.842452">
        <ele>302.536955</ele>
        <time>2020-08-10T08:03:50.497Z</time>
      </trkpt>
      <trkpt lat="38.009868" lon="-3.842565">
        <ele>302.752045</ele>
        <time>2020-08-10T08:03:54.501Z</time>
      </trkpt>
      <trkpt lat="38.009796" lon="-3.842669">
        <ele>302.962605</ele>
        <time>2020-08-10T08:03:58.510Z</time>
      </trkpt>
      <trkpt lat="38.009741" lon="-3.842764">
        <ele>303.141904</ele>
        <time>2020-08-10T08:04:01.499Z</time>
      </trkpt>
      <trkpt lat="38.009664" lon="-3.842863">
        <ele>303.353479</ele>
        <time>2020-08-10T08:04:05.497Z</time>
      </trkpt>
      <trkpt lat="38.009598" lon="-3.842978">
        <ele>303.624838</ele>
        <time>2020-08-10T08:04:10.499Z</time>
      </trkpt>
      <trkpt lat="38.009536" lon="-3.843083">
        <ele>303.881304</ele>
        <time>2020-08-10T08:04:14.507Z</time>
      </trkpt>
      <trkpt lat="38.009454" lon="-3.843153">
        <ele>304.126454</ele>
        <time>2020-08-10T08:04:18.509Z</time>
      </trkpt>
      <trkpt lat="38.009387" lon="-3.843231">
        <ele>304.351993</ele>
        <time>2020-08-10T08:04:21.500Z</time>
      </trkpt>
      <trkpt lat="38.009322" lon="-3.843357">
        <ele>304.646360</ele>
        <time>2020-08-10T08:04:25.500Z</time>
      </trkpt>
      <trkpt lat="38.009254" lon="-3.843453">
        <ele>304.898677</ele>
        <time>2020-08-10T08:04:28.491Z</time>
      </trkpt>
      <trkpt lat="38.009174" lon="-3.843545">
        <ele>305.166484</ele>
        <time>2020-08-10T08:04:31.499Z</time>
      </trkpt>
      <trkpt lat="38.009095" lon="-3.843655">
        <ele>305.457401</ele>
        <time>2020-08-10T08:04:35.497Z</time>
      </trkpt>
      <trkpt lat="38.009035" lon="-3.843751">
        <ele>305.696906</ele>
        <time>2020-08-10T08:04:38.483Z</time>
      </trkpt>
      <trkpt lat="38.008992" lon="-3.843871">
        <ele>305.954573</ele>
        <time>2020-08-10T08:04:41.506Z</time>
      </trkpt>
      <trkpt lat="38.008954" lon="-3.843987">
        <ele>306.200120</ele>
        <time>2020-08-10T08:04:44.495Z</time>
      </trkpt>
      <trkpt lat="38.008916" lon="-3.844103">
        <ele>306.445667</ele>
        <time>2020-08-10T08:04:48.481Z</time>
      </trkpt>
      <trkpt lat="38.008884" lon="-3.844225">
        <ele>306.696992</ele>
        <time>2020-08-10T08:04:52.494Z</time>
      </trkpt>
      <trkpt lat="38.008854" lon="-3.844345">
        <ele>306.943066</ele>
        <time>2020-08-10T08:04:56.497Z</time>
      </trkpt>
      <trkpt lat="38.008852" lon="-3.844465">
        <ele>307.177669</ele>
        <time>2020-08-10T08:05:00.500Z</time>
      </trkpt>
      <trkpt lat="38.008846" lon="-3.844583">
        <ele>307.408789</ele>
        <time>2020-08-10T08:05:04.498Z</time>
      </trkpt>
      <trkpt lat="38.008823" lon="-3.844706">
        <ele>307.655881</ele>
        <time>2020-08-10T08:05:08.491Z</time>
      </trkpt>
      <trkpt lat="38.008775" lon="-3.844839">
        <ele>308.097754</ele>
        <time>2020-08-10T08:05:12.484Z</time>
      </trkpt>
      <trkpt lat="38.008725" lon="-3.844947">
        <ele>308.713809</ele>
        <time>2020-08-10T08:05:15.492Z</time>
      </trkpt>
      <trkpt lat="38.008689" lon="-3.845078">
        <ele>309.396139</ele>
        <time>2020-08-10T08:05:19.515Z</time>
      </trkpt>
      <trkpt lat="38.008691" lon="-3.845195">
        <ele>309.971689</ele>
        <time>2020-08-10T08:05:23.491Z</time>
      </trkpt>
      <trkpt lat="38.008663" lon="-3.845330">
        <ele>310.658247</ele>
        <time>2020-08-10T08:05:27.495Z</time>
      </trkpt>
      <trkpt lat="38.008615" lon="-3.845451">
        <ele>311.324501</ele>
        <time>2020-08-10T08:05:32.496Z</time>
      </trkpt>
      <trkpt lat="38.008604" lon="-3.845584">
        <ele>311.982200</ele>
        <time>2020-08-10T08:05:36.493Z</time>
      </trkpt>
      <trkpt lat="38.008599" lon="-3.845700">
        <ele>312.553550</ele>
        <time>2020-08-10T08:05:40.501Z</time>
      </trkpt>
      <trkpt lat="38.008587" lon="-3.845821">
        <ele>313.153333</ele>
        <time>2020-08-10T08:05:44.485Z</time>
      </trkpt>
      <trkpt lat="38.008575" lon="-3.845944">
        <ele>313.762877</ele>
        <time>2020-08-10T08:05:48.493Z</time>
      </trkpt>
      <trkpt lat="38.008555" lon="-3.846079">
        <ele>314.438452</ele>
        <time>2020-08-10T08:05:53.494Z</time>
      </trkpt>
      <trkpt lat="38.008529" lon="-3.846210">
        <ele>315.102846</ele>
        <time>2020-08-10T08:05:59.497Z</time>
      </trkpt>
      <trkpt lat="38.008494" lon="-3.846325">
        <ele>315.709153</ele>
        <time>2020-08-10T08:06:03.514Z</time>
      </trkpt>
      <trkpt lat="38.008497" lon="-3.846456">
        <ele>316.353694</ele>
        <time>2020-08-10T08:06:08.504Z</time>
      </trkpt>
      <trkpt lat="38.008506" lon="-3.846586">
        <ele>316.995509</ele>
        <time>2020-08-10T08:06:13.490Z</time>
      </trkpt>
      <trkpt lat="38.008506" lon="-3.846719">
        <ele>317.649614</ele>
        <time>2020-08-10T08:06:18.502Z</time>
      </trkpt>
      <trkpt lat="38.008501" lon="-3.846838">
        <ele>318.235698</ele>
        <time>2020-08-10T08:06:22.511Z</time>
      </trkpt>
      <trkpt lat="38.008512" lon="-3.846975">
        <ele>318.912965</ele>
        <time>2020-08-10T08:06:27.501Z</time>
      </trkpt>
      <trkpt lat="38.008510" lon="-3.847100">
        <ele>319.110501</ele>
        <time>2020-08-10T08:06:31.500Z</time>
      </trkpt>
      <trkpt lat="38.008508" lon="-3.847232">
        <ele>319.173254</ele>
        <time>2020-08-10T08:06:35.497Z</time>
      </trkpt>
      <trkpt lat="38.008535" lon="-3.847352">
        <ele>319.232572</ele>
        <time>2020-08-10T08:06:39.503Z</time>
      </trkpt>
      <trkpt lat="38.008568" lon="-3.847473">
        <ele>319.293433</ele>
        <time>2020-08-10T08:06:43.491Z</time>
      </trkpt>
      <trkpt lat="38.008600" lon="-3.847594">
        <ele>319.354099</ele>
        <time>2020-08-10T08:06:47.507Z</time>
      </trkpt>
      <trkpt lat="38.008638" lon="-3.847703">
        <ele>319.410753</ele>
        <time>2020-08-10T08:06:51.491Z</time>
      </trkpt>
      <trkpt lat="38.008681" lon="-3.847818">
        <ele>319.471257</ele>
        <time>2020-08-10T08:06:55.503Z</time>
      </trkpt>
      <trkpt lat="38.008736" lon="-3.847932">
        <ele>319.534794</ele>
        <time>2020-08-10T08:06:59.492Z</time>
      </trkpt>
      <trkpt lat="38.008805" lon="-3.848037">
        <ele>319.599781</ele>
        <time>2020-08-10T08:07:03.510Z</time>
      </trkpt>
      <trkpt lat="38.008859" lon="-3.848131">
        <ele>319.655075</ele>
        <time>2020-08-10T08:07:06.506Z</time>
      </trkpt>
      <trkpt lat="38.008918" lon="-3.848250">
        <ele>319.721904</ele>
        <time>2020-08-10T08:07:10.503Z</time>
      </trkpt>
      <trkpt lat="38.008974" lon="-3.848379">
        <ele>319.791909</ele>
        <time>2020-08-10T08:07:14.494Z</time>
      </trkpt>
      <trkpt lat="38.009024" lon="-3.848480">
        <ele>319.848605</ele>
        <time>2020-08-10T08:07:17.496Z</time>
      </trkpt>
      <trkpt lat="38.009097" lon="-3.848580">
        <ele>319.913401</ele>
        <time>2020-08-10T08:07:20.498Z</time>
      </trkpt>
      <trkpt lat="38.009187" lon="-3.848676">
        <ele>319.984322</ele>
        <time>2020-08-10T08:07:23.495Z</time>
      </trkpt>
      <trkpt lat="38.009281" lon="-3.848790">
        <ele>320.062754</ele>
        <time>2020-08-10T08:07:26.508Z</time>
      </trkpt>
      <trkpt lat="38.009389" lon="-3.848895">
        <ele>320.144823</ele>
        <time>2020-08-10T08:07:29.491Z</time>
      </trkpt>
      <trkpt lat="38.009454" lon="-3.848984">
        <ele>320.497010</ele>
        <time>2020-08-10T08:07:31.505Z</time>
      </trkpt>
      <trkpt lat="38.009542" lon="-3.849113">
        <ele>321.040848</ele>
        <time>2020-08-10T08:07:34.502Z</time>
      </trkpt>
      <trkpt lat="38.009613" lon="-3.849255">
        <ele>321.576868</ele>
        <time>2020-08-10T08:07:37.499Z</time>
      </trkpt>
      <trkpt lat="38.009686" lon="-3.849389">
        <ele>322.096099</ele>
        <time>2020-08-10T08:07:40.491Z</time>
      </trkpt>
      <trkpt lat="38.009749" lon="-3.849521">
        <ele>322.587974</ele>
        <time>2020-08-10T08:07:43.505Z</time>
      </trkpt>
      <trkpt lat="38.009814" lon="-3.849649">
        <ele>323.073326</ele>
        <time>2020-08-10T08:07:46.508Z</time>
      </trkpt>
      <trkpt lat="38.009878" lon="-3.849775">
        <ele>323.551127</ele>
        <time>2020-08-10T08:07:49.497Z</time>
      </trkpt>
      <trkpt lat="38.009997" lon="-3.849869">
        <ele>324.118116</ele>
        <time>2020-08-10T08:07:52.498Z</time>
      </trkpt>
      <trkpt lat="38.010064" lon="-3.849957">
        <ele>324.508140</ele>
        <time>2020-08-10T08:07:54.502Z</time>
      </trkpt>
      <trkpt lat="38.010149" lon="-3.850093">
        <ele>325.061410</ele>
        <time>2020-08-10T08:07:57.517Z</time>
      </trkpt>
      <trkpt lat="38.010246" lon="-3.850174">
        <ele>325.531099</ele>
        <time>2020-08-10T08:07:59.513Z</time>
      </trkpt>
      <trkpt lat="38.010318" lon="-3.850272">
        <ele>325.958164</ele>
        <time>2020-08-10T08:08:01.499Z</time>
      </trkpt>
      <trkpt lat="38.010399" lon="-3.850375">
        <ele>326.421980</ele>
        <time>2020-08-10T08:08:03.497Z</time>
      </trkpt>
      <trkpt lat="38.010490" lon="-3.850482">
        <ele>326.923779</ele>
        <time>2020-08-10T08:08:05.498Z</time>
      </trkpt>
      <trkpt lat="38.010561" lon="-3.850586">
        <ele>327.362362</ele>
        <time>2020-08-10T08:08:07.510Z</time>
      </trkpt>
      <trkpt lat="38.010636" lon="-3.850671">
        <ele>327.687526</ele>
        <time>2020-08-10T08:08:09.500Z</time>
      </trkpt>
      <trkpt lat="38.010710" lon="-3.850774">
        <ele>328.025964</ele>
        <time>2020-08-10T08:08:11.491Z</time>
      </trkpt>
      <trkpt lat="38.010776" lon="-3.850886">
        <ele>328.365540</ele>
        <time>2020-08-10T08:08:13.490Z</time>
      </trkpt>
      <trkpt lat="38.010831" lon="-3.850991">
        <ele>328.671674</ele>
        <time>2020-08-10T08:08:15.501Z</time>
      </trkpt>
      <trkpt lat="38.010879" lon="-3.851091">
        <ele>328.955977</ele>
        <time>2020-08-10T08:08:17.501Z</time>
      </trkpt>
      <trkpt lat="38.010938" lon="-3.851177">
        <ele>329.232844</ele>
        <time>2020-08-10T08:08:19.496Z</time>
      </trkpt>
      <trkpt lat="38.010995" lon="-3.851271">
        <ele>329.520838</ele>
        <time>2020-08-10T08:08:21.491Z</time>
      </trkpt>
      <trkpt lat="38.011060" lon="-3.851365">
        <ele>329.824497</ele>
        <time>2020-08-10T08:08:23.504Z</time>
      </trkpt>
      <trkpt lat="38.011112" lon="-3.851476">
        <ele>330.138039</ele>
        <time>2020-08-10T08:08:25.500Z</time>
      </trkpt>
      <trkpt lat="38.011172" lon="-3.851577">
        <ele>330.445155</ele>
        <time>2020-08-10T08:08:27.497Z</time>
      </trkpt>
      <trkpt lat="38.011237" lon="-3.851677">
        <ele>330.759909</ele>
        <time>2020-08-10T08:08:29.498Z</time>
      </trkpt>
      <trkpt lat="38.011309" lon="-3.851772">
        <ele>331.079954</ele>
        <time>2020-08-10T08:08:31.499Z</time>
      </trkpt>
      <trkpt lat="38.011384" lon="-3.851856">
        <ele>331.388191</ele>
        <time>2020-08-10T08:08:33.492Z</time>
      </trkpt>
      <trkpt lat="38.011461" lon="-3.851954">
        <ele>331.724222</ele>
        <time>2020-08-10T08:08:35.492Z</time>
      </trkpt>
      <trkpt lat="38.011552" lon="-3.852069">
        <ele>332.119945</ele>
        <time>2020-08-10T08:08:37.496Z</time>
      </trkpt>
      <trkpt lat="38.011643" lon="-3.852176">
        <ele>332.502211</ele>
        <time>2020-08-10T08:08:39.496Z</time>
      </trkpt>
      <trkpt lat="38.011737" lon="-3.852271">
        <ele>332.872492</ele>
        <time>2020-08-10T08:08:41.499Z</time>
      </trkpt>
      <trkpt lat="38.011831" lon="-3.852381">
        <ele>332.410453</ele>
        <time>2020-08-10T08:08:43.504Z</time>
      </trkpt>
      <trkpt lat="38.011930" lon="-3.852502">
        <ele>331.614017</ele>
        <time>2020-08-10T08:08:45.490Z</time>
      </trkpt>
      <trkpt lat="38.012006" lon="-3.852648">
        <ele>330.815087</ele>
        <time>2020-08-10T08:08:47.485Z</time>
      </trkpt>
      <trkpt lat="38.012102" lon="-3.852777">
        <ele>330.004930</ele>
        <time>2020-08-10T08:08:49.493Z</time>
      </trkpt>
      <trkpt lat="38.012178" lon="-3.852870">
        <ele>329.393174</ele>
        <time>2020-08-10T08:08:51.500Z</time>
      </trkpt>
      <trkpt lat="38.012275" lon="-3.852982">
        <ele>328.633285</ele>
        <time>2020-08-10T08:08:54.477Z</time>
      </trkpt>
      <trkpt lat="38.012345" lon="-3.853067">
        <ele>328.071907</ele>
        <time>2020-08-10T08:08:57.510Z</time>
      </trkpt>
      <trkpt lat="38.012419" lon="-3.853174">
        <ele>327.421879</ele>
        <time>2020-08-10T08:09:01.495Z</time>
      </trkpt>
      <trkpt lat="38.012477" lon="-3.853290">
        <ele>326.794624</ele>
        <time>2020-08-10T08:09:05.499Z</time>
      </trkpt>
      <trkpt lat="38.012553" lon="-3.853392">
        <ele>326.153666</ele>
        <time>2020-08-10T08:09:09.498Z</time>
      </trkpt>
      <trkpt lat="38.012624" lon="-3.853499">
        <ele>325.514975</ele>
        <time>2020-08-10T08:09:13.505Z</time>
      </trkpt>
      <trkpt lat="38.012695" lon="-3.853601">
        <ele>324.893570</ele>
        <time>2020-08-10T08:09:17.504Z</time>
      </trkpt>
      <trkpt lat="38.012766" lon="-3.853693">
        <ele>324.305603</ele>
        <time>2020-08-10T08:09:21.495Z</time>
      </trkpt>
      <trkpt lat="38.012832" lon="-3.853792">
        <ele>323.713512</ele>
        <time>2020-08-10T08:09:25.499Z</time>
      </trkpt>
      <trkpt lat="38.012900" lon="-3.853901">
        <ele>323.078747</ele>
        <time>2020-08-10T08:09:29.495Z</time>
      </trkpt>
      <trkpt lat="38.012977" lon="-3.854007">
        <ele>322.611520</ele>
        <time>2020-08-10T08:09:33.491Z</time>
      </trkpt>
      <trkpt lat="38.013064" lon="-3.854109">
        <ele>322.965712</ele>
        <time>2020-08-10T08:09:37.494Z</time>
      </trkpt>
      <trkpt lat="38.013131" lon="-3.854194">
        <ele>323.249010</ele>
        <time>2020-08-10T08:09:40.496Z</time>
      </trkpt>
      <trkpt lat="38.013199" lon="-3.854273">
        <ele>323.524695</ele>
        <time>2020-08-10T08:09:43.495Z</time>
      </trkpt>
      <trkpt lat="38.013269" lon="-3.854356">
        <ele>323.811171</ele>
        <time>2020-08-10T08:09:46.488Z</time>
      </trkpt>
      <trkpt lat="38.013335" lon="-3.854437">
        <ele>324.085728</ele>
        <time>2020-08-10T08:09:49.503Z</time>
      </trkpt>
      <trkpt lat="38.013419" lon="-3.854544">
        <ele>324.441629</ele>
        <time>2020-08-10T08:09:53.491Z</time>
      </trkpt>
      <trkpt lat="38.013488" lon="-3.854628">
        <ele>324.727551</ele>
        <time>2020-08-10T08:09:56.506Z</time>
      </trkpt>
      <trkpt lat="38.013551" lon="-3.854716">
        <ele>325.007708</ele>
        <time>2020-08-10T08:09:59.492Z</time>
      </trkpt>
      <trkpt lat="38.013607" lon="-3.854807">
        <ele>325.279773</ele>
        <time>2020-08-10T08:10:02.493Z</time>
      </trkpt>
      <trkpt lat="38.013655" lon="-3.854916">
        <ele>325.573989</ele>
        <time>2020-08-10T08:10:05.488Z</time>
      </trkpt>
      <trkpt lat="38.013706" lon="-3.855022">
        <ele>325.866630</ele>
        <time>2020-08-10T08:10:08.501Z</time>
      </trkpt>
      <trkpt lat="38.013753" lon="-3.855131">
        <ele>326.159399</ele>
        <time>2020-08-10T08:10:11.506Z</time>
      </trkpt>
      <trkpt lat="38.013797" lon="-3.855239">
        <ele>326.445873</ele>
        <time>2020-08-10T08:10:14.499Z</time>
      </trkpt>
      <trkpt lat="38.013842" lon="-3.855355">
        <ele>326.750523</ele>
        <time>2020-08-10T08:10:17.507Z</time>
      </trkpt>
      <trkpt lat="38.013882" lon="-3.855480">
        <ele>327.068409</ele>
        <time>2020-08-10T08:10:20.505Z</time>
      </trkpt>
      <trkpt lat="38.013920" lon="-3.855612">
        <ele>327.399533</ele>
        <time>2020-08-10T08:10:23.492Z</time>
      </trkpt>
      <trkpt lat="38.013939" lon="-3.855736">
        <ele>327.697170</ele>
        <time>2020-08-10T08:10:25.494Z</time>
      </trkpt>
      <trkpt lat="38.013957" lon="-3.855869">
        <ele>328.105183</ele>
        <time>2020-08-10T08:10:27.492Z</time>
      </trkpt>
      <trkpt lat="38.013976" lon="-3.856023">
        <ele>328.841321</ele>
        <time>2020-08-10T08:10:29.496Z</time>
      </trkpt>
      <trkpt lat="38.013979" lon="-3.856189">
        <ele>329.625472</ele>
        <time>2020-08-10T08:10:31.500Z</time>
      </trkpt>
      <trkpt lat="38.013997" lon="-3.856340">
        <ele>330.346695</ele>
        <time>2020-08-10T08:10:33.500Z</time>
      </trkpt>
      <trkpt lat="38.014010" lon="-3.856522">
        <ele>331.209726</ele>
        <time>2020-08-10T08:10:35.492Z</time>
      </trkpt>
      <trkpt lat="38.014044" lon="-3.856693">
        <ele>332.042603</ele>
        <time>2020-08-10T08:10:37.510Z</time>
      </trkpt>
      <trkpt lat="38.014068" lon="-3.856874">
        <ele>332.909407</ele>
        <time>2020-08-10T08:10:39.509Z</time>
      </trkpt>
      <trkpt lat="38.014098" lon="-3.857062">
        <ele>333.815275</ele>
        <time>2020-08-10T08:10:41.506Z</time>
      </trkpt>
      <trkpt lat="38.014137" lon="-3.857240">
        <ele>334.687790</ele>
        <time>2020-08-10T08:10:43.490Z</time>
      </trkpt>
      <trkpt lat="38.014192" lon="-3.857388">
        <ele>335.460578</ele>
        <time>2020-08-10T08:10:45.518Z</time>
      </trkpt>
      <trkpt lat="38.014212" lon="-3.857557">
        <ele>336.267642</ele>
        <time>2020-08-10T08:10:47.505Z</time>
      </trkpt>
      <trkpt lat="38.014236" lon="-3.857703">
        <ele>336.971981</ele>
        <time>2020-08-10T08:10:49.502Z</time>
      </trkpt>
      <trkpt lat="38.014291" lon="-3.857818">
        <ele>337.607306</ele>
        <time>2020-08-10T08:10:51.501Z</time>
      </trkpt>
      <trkpt lat="38.014301" lon="-3.857944">
        <ele>338.205358</ele>
        <time>2020-08-10T08:10:53.496Z</time>
      </trkpt>
      <trkpt lat="38.014313" lon="-3.858067">
        <ele>338.732879</ele>
        <time>2020-08-10T08:10:55.481Z</time>
      </trkpt>
      <trkpt lat="38.014303" lon="-3.858188">
        <ele>338.911463</ele>
        <time>2020-08-10T08:10:57.500Z</time>
      </trkpt>
      <trkpt lat="38.014305" lon="-3.858311">
        <ele>339.092047</ele>
        <time>2020-08-10T08:10:59.503Z</time>
      </trkpt>
      <trkpt lat="38.014313" lon="-3.858442">
        <ele>339.284912</ele>
        <time>2020-08-10T08:11:02.499Z</time>
      </trkpt>
      <trkpt lat="38.014327" lon="-3.858577">
        <ele>339.484781</ele>
        <time>2020-08-10T08:11:05.496Z</time>
      </trkpt>
      <trkpt lat="38.014320" lon="-3.858721">
        <ele>339.696553</ele>
        <time>2020-08-10T08:11:08.511Z</time>
      </trkpt>
      <trkpt lat="38.014334" lon="-3.858847">
        <ele>339.883331</ele>
        <time>2020-08-10T08:11:11.489Z</time>
      </trkpt>
      <trkpt lat="38.014354" lon="-3.858972">
        <ele>340.070558</ele>
        <time>2020-08-10T08:11:14.492Z</time>
      </trkpt>
      <trkpt lat="38.014366" lon="-3.859093">
        <ele>340.249569</ele>
        <time>2020-08-10T08:11:17.501Z</time>
      </trkpt>
      <trkpt lat="38.014380" lon="-3.859233">
        <ele>340.456716</ele>
        <time>2020-08-10T08:11:21.497Z</time>
      </trkpt>
      <trkpt lat="38.014391" lon="-3.859355">
        <ele>340.636962</ele>
        <time>2020-08-10T08:11:25.496Z</time>
      </trkpt>
      <trkpt lat="38.014385" lon="-3.859504">
        <ele>340.855957</ele>
        <time>2020-08-10T08:11:29.481Z</time>
      </trkpt>
      <trkpt lat="38.014397" lon="-3.859640">
        <ele>341.056832</ele>
        <time>2020-08-10T08:11:33.509Z</time>
      </trkpt>
      <trkpt lat="38.014408" lon="-3.859778">
        <ele>341.260428</ele>
        <time>2020-08-10T08:11:37.498Z</time>
      </trkpt>
      <trkpt lat="38.014430" lon="-3.859912">
        <ele>341.461345</ele>
        <time>2020-08-10T08:11:41.500Z</time>
      </trkpt>
      <trkpt lat="38.014446" lon="-3.860041">
        <ele>341.653029</ele>
        <time>2020-08-10T08:11:45.500Z</time>
      </trkpt>
      <trkpt lat="38.014465" lon="-3.860182">
        <ele>341.863001</ele>
        <time>2020-08-10T08:11:49.498Z</time>
      </trkpt>
      <trkpt lat="38.014501" lon="-3.860329">
        <ele>342.038895</ele>
        <time>2020-08-10T08:11:53.511Z</time>
      </trkpt>
      <trkpt lat="38.014511" lon="-3.860465">
        <ele>341.916730</ele>
        <time>2020-08-10T08:11:56.507Z</time>
      </trkpt>
      <trkpt lat="38.014533" lon="-3.860603">
        <ele>341.790804</ele>
        <time>2020-08-10T08:11:59.509Z</time>
      </trkpt>
      <trkpt lat="38.014569" lon="-3.860753">
        <ele>341.650560</ele>
        <time>2020-08-10T08:12:02.501Z</time>
      </trkpt>
      <trkpt lat="38.014595" lon="-3.860881">
        <ele>341.532335</ele>
        <time>2020-08-10T08:12:04.479Z</time>
      </trkpt>
      <trkpt lat="38.014614" lon="-3.860996">
        <ele>341.427244</ele>
        <time>2020-08-10T08:12:06.497Z</time>
      </trkpt>
      <trkpt lat="38.014594" lon="-3.861136">
        <ele>341.299989</ele>
        <time>2020-08-10T08:12:08.511Z</time>
      </trkpt>
      <trkpt lat="38.014644" lon="-3.861264">
        <ele>341.172209</ele>
        <time>2020-08-10T08:12:10.497Z</time>
      </trkpt>
      <trkpt lat="38.014677" lon="-3.861399">
        <ele>341.045789</ele>
        <time>2020-08-10T08:12:12.502Z</time>
      </trkpt>
      <trkpt lat="38.014696" lon="-3.861570">
        <ele>340.891336</ele>
        <time>2020-08-10T08:12:14.495Z</time>
      </trkpt>
      <trkpt lat="38.014746" lon="-3.861710">
        <ele>340.753858</ele>
        <time>2020-08-10T08:12:16.494Z</time>
      </trkpt>
      <trkpt lat="38.014753" lon="-3.861880">
        <ele>340.601606</ele>
        <time>2020-08-10T08:12:18.498Z</time>
      </trkpt>
      <trkpt lat="38.014775" lon="-3.862036">
        <ele>340.459865</ele>
        <time>2020-08-10T08:12:20.495Z</time>
      </trkpt>
      <trkpt lat="38.014804" lon="-3.862169">
        <ele>340.336441</ele>
        <time>2020-08-10T08:12:22.493Z</time>
      </trkpt>
      <trkpt lat="38.014818" lon="-3.862329">
        <ele>340.192460</ele>
        <time>2020-08-10T08:12:24.505Z</time>
      </trkpt>
      <trkpt lat="38.014844" lon="-3.862476">
        <ele>340.057714</ele>
        <time>2020-08-10T08:12:26.488Z</time>
      </trkpt>
      <trkpt lat="38.014878" lon="-3.862594">
        <ele>340.039050</ele>
        <time>2020-08-10T08:12:28.507Z</time>
      </trkpt>
      <trkpt lat="38.014902" lon="-3.862718">
        <ele>340.076293</ele>
        <time>2020-08-10T08:12:30.498Z</time>
      </trkpt>
      <trkpt lat="38.014929" lon="-3.862844">
        <ele>340.114380</ele>
        <time>2020-08-10T08:12:32.496Z</time>
      </trkpt>
      <trkpt lat="38.014933" lon="-3.863011">
        <ele>340.163112</ele>
        <time>2020-08-10T08:12:35.511Z</time>
      </trkpt>
      <trkpt lat="38.014984" lon="-3.863133">
        <ele>340.203396</ele>
        <time>2020-08-10T08:12:39.487Z</time>
      </trkpt>
      <trkpt lat="38.014996" lon="-3.863251">
        <ele>340.238099</ele>
        <time>2020-08-10T08:12:42.487Z</time>
      </trkpt>
      <trkpt lat="38.015026" lon="-3.863377">
        <ele>340.276492</ele>
        <time>2020-08-10T08:12:45.507Z</time>
      </trkpt>
      <trkpt lat="38.015034" lon="-3.863514">
        <ele>340.316561</ele>
        <time>2020-08-10T08:12:48.500Z</time>
      </trkpt>
      <trkpt lat="38.015032" lon="-3.863648">
        <ele>340.355653</ele>
        <time>2020-08-10T08:12:51.491Z</time>
      </trkpt>
      <trkpt lat="38.015044" lon="-3.863768">
        <ele>340.390935</ele>
        <time>2020-08-10T08:12:54.492Z</time>
      </trkpt>
      <trkpt lat="38.015067" lon="-3.863906">
        <ele>340.432078</ele>
        <time>2020-08-10T08:12:57.493Z</time>
      </trkpt>
      <trkpt lat="38.015086" lon="-3.864039">
        <ele>340.471503</ele>
        <time>2020-08-10T08:13:00.517Z</time>
      </trkpt>
      <trkpt lat="38.015098" lon="-3.864178">
        <ele>340.512289</ele>
        <time>2020-08-10T08:13:03.481Z</time>
      </trkpt>
      <trkpt lat="38.015097" lon="-3.864335">
        <ele>340.558084</ele>
        <time>2020-08-10T08:13:05.489Z</time>
      </trkpt>
      <trkpt lat="38.015102" lon="-3.864486">
        <ele>340.602166</ele>
        <time>2020-08-10T08:13:08.491Z</time>
      </trkpt>
      <trkpt lat="38.015242" lon="-3.864554">
        <ele>340.657662</ele>
        <time>2020-08-10T08:13:09.490Z</time>
      </trkpt>
      <trkpt lat="38.015145" lon="-3.864656">
        <ele>340.710192</ele>
        <time>2020-08-10T08:13:10.492Z</time>
      </trkpt>
      <trkpt lat="38.015139" lon="-3.864861">
        <ele>340.785777</ele>
        <time>2020-08-10T08:13:13.489Z</time>
      </trkpt>
      <trkpt lat="38.015108" lon="-3.865044">
        <ele>340.854745</ele>
        <time>2020-08-10T08:13:15.489Z</time>
      </trkpt>
      <trkpt lat="38.015148" lon="-3.865194">
        <ele>340.913093</ele>
        <time>2020-08-10T08:13:17.503Z</time>
      </trkpt>
      <trkpt lat="38.015113" lon="-3.865312">
        <ele>340.959550</ele>
        <time>2020-08-10T08:13:18.507Z</time>
      </trkpt>
      <trkpt lat="38.015144" lon="-3.865481">
        <ele>341.023484</ele>
        <time>2020-08-10T08:13:20.507Z</time>
      </trkpt>
      <trkpt lat="38.015149" lon="-3.865673">
        <ele>341.094266</ele>
        <time>2020-08-10T08:13:22.496Z</time>
      </trkpt>
      <trkpt lat="38.015140" lon="-3.865873">
        <ele>341.168077</ele>
        <time>2020-08-10T08:13:24.497Z</time>
      </trkpt>
      <trkpt lat="38.015163" lon="-3.866015">
        <ele>341.221492</ele>
        <time>2020-08-10T08:13:26.501Z</time>
      </trkpt>
      <trkpt lat="38.015140" lon="-3.866211">
        <ele>341.294505</ele>
        <time>2020-08-10T08:13:28.505Z</time>
      </trkpt>
      <trkpt lat="38.015131" lon="-3.866409">
        <ele>341.367581</ele>
        <time>2020-08-10T08:13:30.523Z</time>
      </trkpt>
      <trkpt lat="38.015121" lon="-3.866523">
        <ele>341.409844</ele>
        <time>2020-08-10T08:13:31.505Z</time>
      </trkpt>
      <trkpt lat="38.015097" lon="-3.866742">
        <ele>341.491312</ele>
        <time>2020-08-10T08:13:33.501Z</time>
      </trkpt>
      <trkpt lat="38.015051" lon="-3.866984">
        <ele>340.817062</ele>
        <time>2020-08-10T08:13:35.498Z</time>
      </trkpt>
      <trkpt lat="38.015058" lon="-3.867185">
        <ele>339.944267</ele>
        <time>2020-08-10T08:13:37.506Z</time>
      </trkpt>
      <trkpt lat="38.015058" lon="-3.867384">
        <ele>339.080999</ele>
        <time>2020-08-10T08:13:39.499Z</time>
      </trkpt>
      <trkpt lat="38.015068" lon="-3.867544">
        <ele>338.384733</ele>
        <time>2020-08-10T08:13:41.488Z</time>
      </trkpt>
      <trkpt lat="38.015040" lon="-3.867668">
        <ele>337.825160</ele>
        <time>2020-08-10T08:13:42.501Z</time>
      </trkpt>
      <trkpt lat="38.015024" lon="-3.867784">
        <ele>337.314294</ele>
        <time>2020-08-10T08:13:43.490Z</time>
      </trkpt>
      <trkpt lat="38.015008" lon="-3.867906">
        <ele>336.777772</ele>
        <time>2020-08-10T08:13:44.501Z</time>
      </trkpt>
      <trkpt lat="38.014996" lon="-3.868023">
        <ele>336.265939</ele>
        <time>2020-08-10T08:13:45.497Z</time>
      </trkpt>
      <trkpt lat="38.014983" lon="-3.868144">
        <ele>335.736179</ele>
        <time>2020-08-10T08:13:46.500Z</time>
      </trkpt>
      <trkpt lat="38.014973" lon="-3.868262">
        <ele>335.221338</ele>
        <time>2020-08-10T08:13:47.515Z</time>
      </trkpt>
      <trkpt lat="38.014966" lon="-3.868388">
        <ele>334.673388</ele>
        <time>2020-08-10T08:13:48.495Z</time>
      </trkpt>
      <trkpt lat="38.014957" lon="-3.868522">
        <ele>334.089983</ele>
        <time>2020-08-10T08:13:49.496Z</time>
      </trkpt>
      <trkpt lat="38.014949" lon="-3.868668">
        <ele>333.455099</ele>
        <time>2020-08-10T08:13:50.505Z</time>
      </trkpt>
      <trkpt lat="38.014976" lon="-3.868793">
        <ele>332.892835</ele>
        <time>2020-08-10T08:13:51.490Z</time>
      </trkpt>
      <trkpt lat="38.014976" lon="-3.868933">
        <ele>332.285510</ele>
        <time>2020-08-10T08:13:52.497Z</time>
      </trkpt>
      <trkpt lat="38.014971" lon="-3.869067">
        <ele>331.703561</ele>
        <time>2020-08-10T08:13:53.489Z</time>
      </trkpt>
      <trkpt lat="38.014987" lon="-3.869189">
        <ele>331.101273</ele>
        <time>2020-08-10T08:13:54.497Z</time>
      </trkpt>
      <trkpt lat="38.014990" lon="-3.869326">
        <ele>330.420303</ele>
        <time>2020-08-10T08:13:55.497Z</time>
      </trkpt>
      <trkpt lat="38.014998" lon="-3.869448">
        <ele>329.812030</ele>
        <time>2020-08-10T08:13:56.484Z</time>
      </trkpt>
      <trkpt lat="38.015016" lon="-3.869570">
        <ele>329.195316</ele>
        <time>2020-08-10T08:13:57.485Z</time>
      </trkpt>
      <trkpt lat="38.015016" lon="-3.869704">
        <ele>328.529516</ele>
        <time>2020-08-10T08:13:58.494Z</time>
      </trkpt>
      <trkpt lat="38.015003" lon="-3.869852">
        <ele>327.789598</ele>
        <time>2020-08-10T08:13:59.490Z</time>
      </trkpt>
      <trkpt lat="38.015003" lon="-3.870000">
        <ele>327.054236</ele>
        <time>2020-08-10T08:14:00.510Z</time>
      </trkpt>
      <trkpt lat="38.015013" lon="-3.870132">
        <ele>326.395347</ele>
        <time>2020-08-10T08:14:01.500Z</time>
      </trkpt>
      <trkpt lat="38.015018" lon="-3.870262">
        <ele>325.748652</ele>
        <time>2020-08-10T08:14:02.501Z</time>
      </trkpt>
      <trkpt lat="38.015019" lon="-3.870393">
        <ele>325.097727</ele>
        <time>2020-08-10T08:14:03.515Z</time>
      </trkpt>
      <trkpt lat="38.015021" lon="-3.870530">
        <ele>324.416904</ele>
        <time>2020-08-10T08:14:04.857Z</time>
      </trkpt>
      <trkpt lat="38.015019" lon="-3.870673">
        <ele>323.706274</ele>
        <time>2020-08-10T08:14:05.839Z</time>
      </trkpt>
      <trkpt lat="38.015021" lon="-3.870810">
        <ele>323.025450</ele>
        <time>2020-08-10T08:14:06.856Z</time>
      </trkpt>
      <trkpt lat="38.015009" lon="-3.870935">
        <ele>322.399774</ele>
        <time>2020-08-10T08:14:07.849Z</time>
      </trkpt>
      <trkpt lat="38.015001" lon="-3.871059">
        <ele>321.781598</ele>
        <time>2020-08-10T08:14:08.836Z</time>
      </trkpt>
      <trkpt lat="38.014985" lon="-3.871198">
        <ele>321.083621</ele>
        <time>2020-08-10T08:14:09.852Z</time>
      </trkpt>
      <trkpt lat="38.014967" lon="-3.871339">
        <ele>320.373902</ele>
        <time>2020-08-10T08:14:10.863Z</time>
      </trkpt>
      <trkpt lat="38.014958" lon="-3.871464">
        <ele>320.004203</ele>
        <time>2020-08-10T08:14:11.837Z</time>
      </trkpt>
      <trkpt lat="38.014962" lon="-3.871582">
        <ele>319.700783</ele>
        <time>2020-08-10T08:14:12.843Z</time>
      </trkpt>
      <trkpt lat="38.014951" lon="-3.871703">
        <ele>319.387875</ele>
        <time>2020-08-10T08:14:13.843Z</time>
      </trkpt>
      <trkpt lat="38.014942" lon="-3.871826">
        <ele>319.070531</ele>
        <time>2020-08-10T08:14:14.857Z</time>
      </trkpt>
      <trkpt lat="38.014922" lon="-3.871946">
        <ele>318.755432</ele>
        <time>2020-08-10T08:14:15.842Z</time>
      </trkpt>
      <trkpt lat="38.014915" lon="-3.872062">
        <ele>318.456557</ele>
        <time>2020-08-10T08:14:16.858Z</time>
      </trkpt>
      <trkpt lat="38.014880" lon="-3.872187">
        <ele>318.115758</ele>
        <time>2020-08-10T08:14:17.849Z</time>
      </trkpt>
      <trkpt lat="38.014887" lon="-3.872302">
        <ele>317.819445</ele>
        <time>2020-08-10T08:14:18.841Z</time>
      </trkpt>
      <trkpt lat="38.014874" lon="-3.872529">
        <ele>317.234749</ele>
        <time>2020-08-10T08:14:20.842Z</time>
      </trkpt>
      <trkpt lat="38.014862" lon="-3.872649">
        <ele>316.923998</ele>
        <time>2020-08-10T08:14:21.842Z</time>
      </trkpt>
      <trkpt lat="38.014856" lon="-3.872767">
        <ele>316.620228</ele>
        <time>2020-08-10T08:14:22.856Z</time>
      </trkpt>
      <trkpt lat="38.014841" lon="-3.872885">
        <ele>316.313168</ele>
        <time>2020-08-10T08:14:23.837Z</time>
      </trkpt>
      <trkpt lat="38.014823" lon="-3.873006">
        <ele>315.996829</ele>
        <time>2020-08-10T08:14:24.838Z</time>
      </trkpt>
      <trkpt lat="38.014809" lon="-3.873122">
        <ele>315.695351</ele>
        <time>2020-08-10T08:14:25.838Z</time>
      </trkpt>
      <trkpt lat="38.014791" lon="-3.873342">
        <ele>315.127136</ele>
        <time>2020-08-10T08:14:27.840Z</time>
      </trkpt>
      <trkpt lat="38.014779" lon="-3.873549">
        <ele>314.593920</ele>
        <time>2020-08-10T08:14:29.839Z</time>
      </trkpt>
      <trkpt lat="38.014755" lon="-3.873775">
        <ele>314.331101</ele>
        <time>2020-08-10T08:14:31.859Z</time>
      </trkpt>
      <trkpt lat="38.014736" lon="-3.873989">
        <ele>314.221193</ele>
        <time>2020-08-10T08:14:33.856Z</time>
      </trkpt>
      <trkpt lat="38.014708" lon="-3.874139">
        <ele>314.142520</ele>
        <time>2020-08-10T08:14:34.850Z</time>
      </trkpt>
      <trkpt lat="38.014705" lon="-3.874267">
        <ele>314.077165</ele>
        <time>2020-08-10T08:14:35.864Z</time>
      </trkpt>
      <trkpt lat="38.014717" lon="-3.874457">
        <ele>313.979886</ele>
        <time>2020-08-10T08:14:37.843Z</time>
      </trkpt>
      <trkpt lat="38.014719" lon="-3.874675">
        <ele>313.868620</ele>
        <time>2020-08-10T08:14:39.841Z</time>
      </trkpt>
      <trkpt lat="38.014708" lon="-3.874871">
        <ele>313.768336</ele>
        <time>2020-08-10T08:14:41.836Z</time>
      </trkpt>
      <trkpt lat="38.014703" lon="-3.875075">
        <ele>313.664173</ele>
        <time>2020-08-10T08:14:43.844Z</time>
      </trkpt>
      <trkpt lat="38.014689" lon="-3.875292">
        <ele>313.553055</ele>
        <time>2020-08-10T08:14:45.851Z</time>
      </trkpt>
      <trkpt lat="38.014660" lon="-3.875492">
        <ele>313.449269</ele>
        <time>2020-08-10T08:14:47.839Z</time>
      </trkpt>
      <trkpt lat="38.014638" lon="-3.875692">
        <ele>313.346207</ele>
        <time>2020-08-10T08:14:49.839Z</time>
      </trkpt>
      <trkpt lat="38.014607" lon="-3.875892">
        <ele>313.277661</ele>
        <time>2020-08-10T08:14:51.849Z</time>
      </trkpt>
      <trkpt lat="38.014580" lon="-3.876085">
        <ele>314.094573</ele>
        <time>2020-08-10T08:14:53.852Z</time>
      </trkpt>
      <trkpt lat="38.014543" lon="-3.876272">
        <ele>314.898099</ele>
        <time>2020-08-10T08:14:55.851Z</time>
      </trkpt>
      <trkpt lat="38.014522" lon="-3.876447">
        <ele>315.635825</ele>
        <time>2020-08-10T08:14:57.841Z</time>
      </trkpt>
      <trkpt lat="38.014487" lon="-3.876630">
        <ele>316.420631</ele>
        <time>2020-08-10T08:14:59.843Z</time>
      </trkpt>
      <trkpt lat="38.014515" lon="-3.876752">
        <ele>316.950202</ele>
        <time>2020-08-10T08:15:01.862Z</time>
      </trkpt>
      <trkpt lat="38.014623" lon="-3.876826">
        <ele>317.599415</ele>
        <time>2020-08-10T08:15:04.830Z</time>
      </trkpt>
      <trkpt lat="38.014724" lon="-3.876850">
        <ele>318.142957</ele>
        <time>2020-08-10T08:15:08.839Z</time>
      </trkpt>
      <trkpt lat="38.014826" lon="-3.876894">
        <ele>318.712815</ele>
        <time>2020-08-10T08:15:12.844Z</time>
      </trkpt>
      <trkpt lat="38.014925" lon="-3.876938">
        <ele>319.267672</ele>
        <time>2020-08-10T08:15:16.831Z</time>
      </trkpt>
      <trkpt lat="38.014932" lon="-3.877061">
        <ele>319.781609</ele>
        <time>2020-08-10T08:15:20.835Z</time>
      </trkpt>
      <trkpt lat="38.014909" lon="-3.877202">
        <ele>320.381688</ele>
        <time>2020-08-10T08:15:23.865Z</time>
      </trkpt>
      <trkpt lat="38.014864" lon="-3.877382">
        <ele>321.168698</ele>
        <time>2020-08-10T08:15:26.856Z</time>
      </trkpt>
      <trkpt lat="38.014829" lon="-3.877495">
        <ele>321.674711</ele>
        <time>2020-08-10T08:15:28.858Z</time>
      </trkpt>
      <trkpt lat="38.014810" lon="-3.877614">
        <ele>322.180725</ele>
        <time>2020-08-10T08:15:30.848Z</time>
      </trkpt>
      <trkpt lat="38.014789" lon="-3.877766">
        <ele>322.627934</ele>
        <time>2020-08-10T08:15:32.843Z</time>
      </trkpt>
      <trkpt lat="38.014793" lon="-3.877919">
        <ele>321.298045</ele>
        <time>2020-08-10T08:15:34.847Z</time>
      </trkpt>
      <trkpt lat="38.014801" lon="-3.878096">
        <ele>319.757863</ele>
        <time>2020-08-10T08:15:36.846Z</time>
      </trkpt>
      <trkpt lat="38.014799" lon="-3.878281">
        <ele>318.150560</ele>
        <time>2020-08-10T08:15:38.846Z</time>
      </trkpt>
      <trkpt lat="38.014815" lon="-3.878488">
        <ele>316.343655</ele>
        <time>2020-08-10T08:15:40.843Z</time>
      </trkpt>
      <trkpt lat="38.014866" lon="-3.878666">
        <ele>314.698234</ele>
        <time>2020-08-10T08:15:42.846Z</time>
      </trkpt>
      <trkpt lat="38.014898" lon="-3.878879">
        <ele>312.814498</ele>
        <time>2020-08-10T08:15:44.834Z</time>
      </trkpt>
      <trkpt lat="38.014929" lon="-3.879087">
        <ele>310.975494</ele>
        <time>2020-08-10T08:15:46.855Z</time>
      </trkpt>
      <trkpt lat="38.014968" lon="-3.879296">
        <ele>309.109618</ele>
        <time>2020-08-10T08:15:48.856Z</time>
      </trkpt>
      <trkpt lat="38.015044" lon="-3.879487">
        <ele>307.250732</ele>
        <time>2020-08-10T08:15:50.853Z</time>
      </trkpt>
      <trkpt lat="38.015116" lon="-3.879686">
        <ele>305.348383</ele>
        <time>2020-08-10T08:15:52.862Z</time>
      </trkpt>
      <trkpt lat="38.015131" lon="-3.879811">
        <ele>304.249950</ele>
        <time>2020-08-10T08:15:53.849Z</time>
      </trkpt>
      <trkpt lat="38.015158" lon="-3.879923">
        <ele>303.232447</ele>
        <time>2020-08-10T08:15:54.843Z</time>
      </trkpt>
      <trkpt lat="38.015209" lon="-3.880028">
        <ele>302.764534</ele>
        <time>2020-08-10T08:15:55.843Z</time>
      </trkpt>
      <trkpt lat="38.015198" lon="-3.880185">
        <ele>302.473514</ele>
        <time>2020-08-10T08:15:56.855Z</time>
      </trkpt>
      <trkpt lat="38.015215" lon="-3.880309">
        <ele>302.241127</ele>
        <time>2020-08-10T08:15:57.850Z</time>
      </trkpt>
      <trkpt lat="38.015221" lon="-3.880450">
        <ele>301.980413</ele>
        <time>2020-08-10T08:15:58.841Z</time>
      </trkpt>
      <trkpt lat="38.015290" lon="-3.880656">
        <ele>301.567119</ele>
        <time>2020-08-10T08:16:00.859Z</time>
      </trkpt>
      <trkpt lat="38.015292" lon="-3.880774">
        <ele>301.349201</ele>
        <time>2020-08-10T08:16:01.843Z</time>
      </trkpt>
      <trkpt lat="38.015318" lon="-3.880984">
        <ele>300.956711</ele>
        <time>2020-08-10T08:16:03.860Z</time>
      </trkpt>
      <trkpt lat="38.015334" lon="-3.881208">
        <ele>300.541434</ele>
        <time>2020-08-10T08:16:05.841Z</time>
      </trkpt>
      <trkpt lat="38.015362" lon="-3.881411">
        <ele>300.160926</ele>
        <time>2020-08-10T08:16:07.838Z</time>
      </trkpt>
      <trkpt lat="38.015361" lon="-3.881629">
        <ele>299.758418</ele>
        <time>2020-08-10T08:16:09.845Z</time>
      </trkpt>
      <trkpt lat="38.015372" lon="-3.881836">
        <ele>299.375357</ele>
        <time>2020-08-10T08:16:11.842Z</time>
      </trkpt>
      <trkpt lat="38.015390" lon="-3.882038">
        <ele>299.000019</ele>
        <time>2020-08-10T08:16:13.847Z</time>
      </trkpt>
      <trkpt lat="38.015394" lon="-3.882222">
        <ele>298.573120</ele>
        <time>2020-08-10T08:16:15.854Z</time>
      </trkpt>
      <trkpt lat="38.015380" lon="-3.882351">
        <ele>297.931211</ele>
        <time>2020-08-10T08:16:16.843Z</time>
      </trkpt>
      <trkpt lat="38.015370" lon="-3.882584">
        <ele>296.780937</ele>
        <time>2020-08-10T08:16:18.847Z</time>
      </trkpt>
      <trkpt lat="38.015362" lon="-3.882780">
        <ele>295.813462</ele>
        <time>2020-08-10T08:16:20.852Z</time>
      </trkpt>
      <trkpt lat="38.015357" lon="-3.882907">
        <ele>295.186635</ele>
        <time>2020-08-10T08:16:21.839Z</time>
      </trkpt>
      <trkpt lat="38.015335" lon="-3.883131">
        <ele>294.073883</ele>
        <time>2020-08-10T08:16:24.992Z</time>
      </trkpt>
      <trkpt lat="38.015288" lon="-3.883479">
        <ele>292.333396</ele>
        <time>2020-08-10T08:16:26.852Z</time>
      </trkpt>
      <trkpt lat="38.015273" lon="-3.883601">
        <ele>291.724718</ele>
        <time>2020-08-10T08:16:27.835Z</time>
      </trkpt>
      <trkpt lat="38.015259" lon="-3.883729">
        <ele>291.087691</ele>
        <time>2020-08-10T08:16:28.839Z</time>
      </trkpt>
      <trkpt lat="38.015284" lon="-3.883918">
        <ele>290.142977</ele>
        <time>2020-08-10T08:16:30.850Z</time>
      </trkpt>
      <trkpt lat="38.015273" lon="-3.884052">
        <ele>289.478848</ele>
        <time>2020-08-10T08:16:31.841Z</time>
      </trkpt>
      <trkpt lat="38.015254" lon="-3.884196">
        <ele>288.759115</ele>
        <time>2020-08-10T08:16:32.848Z</time>
      </trkpt>
      <trkpt lat="38.015209" lon="-3.884305">
        <ele>288.152498</ele>
        <time>2020-08-10T08:16:33.836Z</time>
      </trkpt>
      <trkpt lat="38.015163" lon="-3.884522">
        <ele>287.335539</ele>
        <time>2020-08-10T08:16:35.838Z</time>
      </trkpt>
      <trkpt lat="38.015129" lon="-3.884715">
        <ele>287.046116</ele>
        <time>2020-08-10T08:16:37.842Z</time>
      </trkpt>
      <trkpt lat="38.015090" lon="-3.884888">
        <ele>286.782776</ele>
        <time>2020-08-10T08:16:39.835Z</time>
      </trkpt>
      <trkpt lat="38.015058" lon="-3.885038">
        <ele>286.555350</ele>
        <time>2020-08-10T08:16:41.845Z</time>
      </trkpt>
      <trkpt lat="38.015046" lon="-3.885165">
        <ele>286.368158</ele>
        <time>2020-08-10T08:16:43.838Z</time>
      </trkpt>
      <trkpt lat="38.015037" lon="-3.885300">
        <ele>286.169884</ele>
        <time>2020-08-10T08:16:45.844Z</time>
      </trkpt>
      <trkpt lat="38.014985" lon="-3.885440">
        <ele>285.943372</ele>
        <time>2020-08-10T08:16:47.842Z</time>
      </trkpt>
      <trkpt lat="38.014924" lon="-3.885578">
        <ele>285.711798</ele>
        <time>2020-08-10T08:16:49.853Z</time>
      </trkpt>
      <trkpt lat="38.014886" lon="-3.885750">
        <ele>285.450372</ele>
        <time>2020-08-10T08:16:51.863Z</time>
      </trkpt>
      <trkpt lat="38.014829" lon="-3.885919">
        <ele>285.181335</ele>
        <time>2020-08-10T08:16:53.844Z</time>
      </trkpt>
      <trkpt lat="38.014790" lon="-3.886084">
        <ele>284.929229</ele>
        <time>2020-08-10T08:16:55.847Z</time>
      </trkpt>
      <trkpt lat="38.014735" lon="-3.886273">
        <ele>284.634368</ele>
        <time>2020-08-10T08:16:57.833Z</time>
      </trkpt>
      <trkpt lat="38.014713" lon="-3.886431">
        <ele>284.399556</ele>
        <time>2020-08-10T08:16:59.842Z</time>
      </trkpt>
      <trkpt lat="38.014694" lon="-3.886581">
        <ele>284.177216</ele>
        <time>2020-08-10T08:17:01.864Z</time>
      </trkpt>
      <trkpt lat="38.014639" lon="-3.886755">
        <ele>284.757997</ele>
        <time>2020-08-10T08:17:03.845Z</time>
      </trkpt>
      <trkpt lat="38.014610" lon="-3.886913">
        <ele>285.467489</ele>
        <time>2020-08-10T08:17:05.861Z</time>
      </trkpt>
      <trkpt lat="38.014574" lon="-3.887082">
        <ele>286.233123</ele>
        <time>2020-08-10T08:17:07.840Z</time>
      </trkpt>
      <trkpt lat="38.014519" lon="-3.887266">
        <ele>287.093788</ele>
        <time>2020-08-10T08:17:09.847Z</time>
      </trkpt>
      <trkpt lat="38.014487" lon="-3.887436">
        <ele>287.858183</ele>
        <time>2020-08-10T08:17:11.844Z</time>
      </trkpt>
      <trkpt lat="38.014472" lon="-3.887598">
        <ele>288.571541</ele>
        <time>2020-08-10T08:17:13.837Z</time>
      </trkpt>
      <trkpt lat="38.014479" lon="-3.887754">
        <ele>289.254889</ele>
        <time>2020-08-10T08:17:15.846Z</time>
      </trkpt>
      <trkpt lat="38.014417" lon="-3.887949">
        <ele>290.174520</ele>
        <time>2020-08-10T08:17:17.853Z</time>
      </trkpt>
      <trkpt lat="38.014379" lon="-3.888055">
        <ele>290.683829</ele>
        <time>2020-08-10T08:17:18.858Z</time>
      </trkpt>
      <trkpt lat="38.014329" lon="-3.888256">
        <ele>291.605650</ele>
        <time>2020-08-10T08:17:20.854Z</time>
      </trkpt>
      <trkpt lat="38.014270" lon="-3.888449">
        <ele>292.511020</ele>
        <time>2020-08-10T08:17:22.838Z</time>
      </trkpt>
      <trkpt lat="38.014241" lon="-3.888629">
        <ele>293.314516</ele>
        <time>2020-08-10T08:17:24.852Z</time>
      </trkpt>
      <trkpt lat="38.014191" lon="-3.888830">
        <ele>294.076498</ele>
        <time>2020-08-10T08:17:26.852Z</time>
      </trkpt>
      <trkpt lat="38.014170" lon="-3.889026">
        <ele>293.916502</ele>
        <time>2020-08-10T08:17:28.852Z</time>
      </trkpt>
      <trkpt lat="38.014137" lon="-3.889237">
        <ele>293.742502</ele>
        <time>2020-08-10T08:17:30.845Z</time>
      </trkpt>
      <trkpt lat="38.014103" lon="-3.889352">
        <ele>293.643149</ele>
        <time>2020-08-10T08:17:31.844Z</time>
      </trkpt>
      <trkpt lat="38.014084" lon="-3.889479">
        <ele>293.538588</ele>
        <time>2020-08-10T08:17:32.872Z</time>
      </trkpt>
      <trkpt lat="38.014069" lon="-3.889597">
        <ele>293.441908</ele>
        <time>2020-08-10T08:17:33.842Z</time>
      </trkpt>
      <trkpt lat="38.014049" lon="-3.889715">
        <ele>293.344279</ele>
        <time>2020-08-10T08:17:34.847Z</time>
      </trkpt>
      <trkpt lat="38.014027" lon="-3.889843">
        <ele>293.238309</ele>
        <time>2020-08-10T08:17:35.848Z</time>
      </trkpt>
      <trkpt lat="38.013999" lon="-3.889978">
        <ele>293.125392</ele>
        <time>2020-08-10T08:17:36.849Z</time>
      </trkpt>
      <trkpt lat="38.014000" lon="-3.890100">
        <ele>293.026706</ele>
        <time>2020-08-10T08:17:37.845Z</time>
      </trkpt>
      <trkpt lat="38.013984" lon="-3.890227">
        <ele>292.922675</ele>
        <time>2020-08-10T08:17:38.849Z</time>
      </trkpt>
      <trkpt lat="38.013972" lon="-3.890356">
        <ele>292.817607</ele>
        <time>2020-08-10T08:17:39.843Z</time>
      </trkpt>
      <trkpt lat="38.013955" lon="-3.890478">
        <ele>292.717394</ele>
        <time>2020-08-10T08:17:40.844Z</time>
      </trkpt>
      <trkpt lat="38.013928" lon="-3.890616">
        <ele>292.602380</ele>
        <time>2020-08-10T08:17:41.838Z</time>
      </trkpt>
      <trkpt lat="38.013908" lon="-3.890752">
        <ele>292.490475</ele>
        <time>2020-08-10T08:17:42.843Z</time>
      </trkpt>
      <trkpt lat="38.013883" lon="-3.890888">
        <ele>292.377515</ele>
        <time>2020-08-10T08:17:43.853Z</time>
      </trkpt>
      <trkpt lat="38.013866" lon="-3.891022">
        <ele>292.267731</ele>
        <time>2020-08-10T08:17:44.845Z</time>
      </trkpt>
      <trkpt lat="38.013858" lon="-3.891154">
        <ele>291.234158</ele>
        <time>2020-08-10T08:17:45.837Z</time>
      </trkpt>
      <trkpt lat="38.013842" lon="-3.891270">
        <ele>290.202135</ele>
        <time>2020-08-10T08:17:46.850Z</time>
      </trkpt>
      <trkpt lat="38.013814" lon="-3.891383">
        <ele>289.164041</ele>
        <time>2020-08-10T08:17:47.842Z</time>
      </trkpt>
      <trkpt lat="38.013757" lon="-3.891491">
        <ele>288.024851</ele>
        <time>2020-08-10T08:17:48.841Z</time>
      </trkpt>
      <trkpt lat="38.013703" lon="-3.891601">
        <ele>286.889052</ele>
        <time>2020-08-10T08:17:49.854Z</time>
      </trkpt>
      <trkpt lat="38.013647" lon="-3.891691">
        <ele>285.884031</ele>
        <time>2020-08-10T08:17:50.856Z</time>
      </trkpt>
      <trkpt lat="38.013584" lon="-3.891789">
        <ele>284.775593</ele>
        <time>2020-08-10T08:17:51.846Z</time>
      </trkpt>
      <trkpt lat="38.013459" lon="-3.891938">
        <ele>282.868189</ele>
        <time>2020-08-10T08:17:53.862Z</time>
      </trkpt>
      <trkpt lat="38.013322" lon="-3.892048">
        <ele>281.065015</ele>
        <time>2020-08-10T08:17:55.845Z</time>
      </trkpt>
      <trkpt lat="38.013196" lon="-3.892162">
        <ele>279.343876</ele>
        <time>2020-08-10T08:17:57.849Z</time>
      </trkpt>
      <trkpt lat="38.013077" lon="-3.892265">
        <ele>277.741748</ele>
        <time>2020-08-10T08:17:59.845Z</time>
      </trkpt>
      <trkpt lat="38.012957" lon="-3.892364">
        <ele>276.149788</ele>
        <time>2020-08-10T08:18:01.847Z</time>
      </trkpt>
      <trkpt lat="38.012808" lon="-3.892462">
        <ele>274.283141</ele>
        <time>2020-08-10T08:18:03.850Z</time>
      </trkpt>
      <trkpt lat="38.012689" lon="-3.892583">
        <ele>272.587121</ele>
        <time>2020-08-10T08:18:05.846Z</time>
      </trkpt>
      <trkpt lat="38.012562" lon="-3.892707">
        <ele>273.756884</ele>
        <time>2020-08-10T08:18:07.848Z</time>
      </trkpt>
      <trkpt lat="38.012450" lon="-3.892836">
        <ele>275.514926</ele>
        <time>2020-08-10T08:18:09.867Z</time>
      </trkpt>
      <trkpt lat="38.012339" lon="-3.892966">
        <ele>277.270577</ele>
        <time>2020-08-10T08:18:11.840Z</time>
      </trkpt>
      <trkpt lat="38.012225" lon="-3.893086">
        <ele>278.992155</ele>
        <time>2020-08-10T08:18:13.862Z</time>
      </trkpt>
      <trkpt lat="38.012137" lon="-3.893244">
        <ele>280.764231</ele>
        <time>2020-08-10T08:18:15.857Z</time>
      </trkpt>
      <trkpt lat="38.012032" lon="-3.893397">
        <ele>282.622498</ele>
        <time>2020-08-10T08:18:17.856Z</time>
      </trkpt>
      <trkpt lat="38.011947" lon="-3.893537">
        <ele>284.241208</ele>
        <time>2020-08-10T08:18:19.855Z</time>
      </trkpt>
      <trkpt lat="38.011862" lon="-3.893677">
        <ele>285.859919</ele>
        <time>2020-08-10T08:18:21.852Z</time>
      </trkpt>
      <trkpt lat="38.011756" lon="-3.893834">
        <ele>287.753511</ele>
        <time>2020-08-10T08:18:23.844Z</time>
      </trkpt>
      <trkpt lat="38.011675" lon="-3.893985">
        <ele>289.426534</ele>
        <time>2020-08-10T08:18:25.855Z</time>
      </trkpt>
      <trkpt lat="38.011586" lon="-3.894147">
        <ele>291.235280</ele>
        <time>2020-08-10T08:18:27.844Z</time>
      </trkpt>
      <trkpt lat="38.011496" lon="-3.894296">
        <ele>292.954768</ele>
        <time>2020-08-10T08:18:29.849Z</time>
      </trkpt>
      <trkpt lat="38.011418" lon="-3.894479">
        <ele>294.056081</ele>
        <time>2020-08-10T08:18:31.840Z</time>
      </trkpt>
      <trkpt lat="38.011372" lon="-3.894634">
        <ele>294.857218</ele>
        <time>2020-08-10T08:18:33.850Z</time>
      </trkpt>
      <trkpt lat="38.011307" lon="-3.894799">
        <ele>295.749502</ele>
        <time>2020-08-10T08:18:35.849Z</time>
      </trkpt>
      <trkpt lat="38.011250" lon="-3.894993">
        <ele>296.750980</ele>
        <time>2020-08-10T08:18:37.844Z</time>
      </trkpt>
      <trkpt lat="38.011250" lon="-3.895133">
        <ele>297.428143</ele>
        <time>2020-08-10T08:18:39.843Z</time>
      </trkpt>
      <trkpt lat="38.011237" lon="-3.895266">
        <ele>298.076380</ele>
        <time>2020-08-10T08:18:41.841Z</time>
      </trkpt>
      <trkpt lat="38.011217" lon="-3.895393">
        <ele>298.702815</ele>
        <time>2020-08-10T08:18:43.856Z</time>
      </trkpt>
      <trkpt lat="38.011197" lon="-3.895527">
        <ele>299.362485</ele>
        <time>2020-08-10T08:18:45.840Z</time>
      </trkpt>
      <trkpt lat="38.011163" lon="-3.895702">
        <ele>300.234295</ele>
        <time>2020-08-10T08:18:47.846Z</time>
      </trkpt>
      <trkpt lat="38.011143" lon="-3.895833">
        <ele>300.879714</ele>
        <time>2020-08-10T08:18:49.860Z</time>
      </trkpt>
      <trkpt lat="38.011115" lon="-3.895988">
        <ele>301.648886</ele>
        <time>2020-08-10T08:18:51.858Z</time>
      </trkpt>
      <trkpt lat="38.011088" lon="-3.896139">
        <ele>302.397829</ele>
        <time>2020-08-10T08:18:53.844Z</time>
      </trkpt>
      <trkpt lat="38.011060" lon="-3.896275">
        <ele>303.077734</ele>
        <time>2020-08-10T08:18:55.840Z</time>
      </trkpt>
      <trkpt lat="38.011033" lon="-3.896413">
        <ele>303.765498</ele>
        <time>2020-08-10T08:18:57.851Z</time>
      </trkpt>
      <trkpt lat="38.011005" lon="-3.896563">
        <ele>303.904095</ele>
        <time>2020-08-10T08:18:59.864Z</time>
      </trkpt>
      <trkpt lat="38.010964" lon="-3.896719">
        <ele>303.157910</ele>
        <time>2020-08-10T08:19:01.833Z</time>
      </trkpt>
      <trkpt lat="38.010914" lon="-3.896887">
        <ele>302.343047</ele>
        <time>2020-08-10T08:19:03.846Z</time>
      </trkpt>
      <trkpt lat="38.010860" lon="-3.897064">
        <ele>301.481810</ele>
        <time>2020-08-10T08:19:05.837Z</time>
      </trkpt>
      <trkpt lat="38.010840" lon="-3.897214">
        <ele>300.791515</ele>
        <time>2020-08-10T08:19:07.842Z</time>
      </trkpt>
      <trkpt lat="38.010789" lon="-3.897375">
        <ele>300.004152</ele>
        <time>2020-08-10T08:19:09.850Z</time>
      </trkpt>
      <trkpt lat="38.010800" lon="-3.897519">
        <ele>299.347694</ele>
        <time>2020-08-10T08:19:11.846Z</time>
      </trkpt>
      <trkpt lat="38.010775" lon="-3.897703">
        <ele>298.500479</ele>
        <time>2020-08-10T08:19:13.866Z</time>
      </trkpt>
      <trkpt lat="38.010757" lon="-3.897886">
        <ele>297.663678</ele>
        <time>2020-08-10T08:19:15.844Z</time>
      </trkpt>
      <trkpt lat="38.010763" lon="-3.898053">
        <ele>296.905134</ele>
        <time>2020-08-10T08:19:17.844Z</time>
      </trkpt>
      <trkpt lat="38.010784" lon="-3.898200">
        <ele>296.227252</ele>
        <time>2020-08-10T08:19:19.856Z</time>
      </trkpt>
      <trkpt lat="38.010796" lon="-3.898350">
        <ele>295.543133</ele>
        <time>2020-08-10T08:19:21.841Z</time>
      </trkpt>
      <trkpt lat="38.010792" lon="-3.898522">
        <ele>294.762350</ele>
        <time>2020-08-10T08:19:23.841Z</time>
      </trkpt>
      <trkpt lat="38.010823" lon="-3.898665">
        <ele>294.089381</ele>
        <time>2020-08-10T08:19:25.844Z</time>
      </trkpt>
      <trkpt lat="38.010855" lon="-3.898818">
        <ele>293.749918</ele>
        <time>2020-08-10T08:19:27.850Z</time>
      </trkpt>
      <trkpt lat="38.010862" lon="-3.898988">
        <ele>293.602078</ele>
        <time>2020-08-10T08:19:29.843Z</time>
      </trkpt>
      <trkpt lat="38.010865" lon="-3.899161">
        <ele>293.451798</ele>
        <time>2020-08-10T08:19:31.844Z</time>
      </trkpt>
      <trkpt lat="38.010878" lon="-3.899314">
        <ele>293.318153</ele>
        <time>2020-08-10T08:19:33.840Z</time>
      </trkpt>
      <trkpt lat="38.010867" lon="-3.899476">
        <ele>293.176940</ele>
        <time>2020-08-10T08:19:35.856Z</time>
      </trkpt>
      <trkpt lat="38.010848" lon="-3.899631">
        <ele>293.040709</ele>
        <time>2020-08-10T08:19:37.847Z</time>
      </trkpt>
      <trkpt lat="38.010834" lon="-3.899779">
        <ele>292.911254</ele>
        <time>2020-08-10T08:19:39.845Z</time>
      </trkpt>
      <trkpt lat="38.010791" lon="-3.899927">
        <ele>292.774261</ele>
        <time>2020-08-10T08:19:41.838Z</time>
      </trkpt>
      <trkpt lat="38.010749" lon="-3.900078">
        <ele>292.635191</ele>
        <time>2020-08-10T08:19:43.846Z</time>
      </trkpt>
      <trkpt lat="38.010711" lon="-3.900226">
        <ele>292.500006</ele>
        <time>2020-08-10T08:19:45.843Z</time>
      </trkpt>
      <trkpt lat="38.010685" lon="-3.900358">
        <ele>292.381841</ele>
        <time>2020-08-10T08:19:47.853Z</time>
      </trkpt>
      <trkpt lat="38.010653" lon="-3.900496">
        <ele>292.256910</ele>
        <time>2020-08-10T08:19:49.852Z</time>
      </trkpt>
      <trkpt lat="38.010609" lon="-3.900629">
        <ele>292.131636</ele>
        <time>2020-08-10T08:19:51.855Z</time>
      </trkpt>
      <trkpt lat="38.010575" lon="-3.900755">
        <ele>292.015969</ele>
        <time>2020-08-10T08:19:53.862Z</time>
      </trkpt>
      <trkpt lat="38.010540" lon="-3.900900">
        <ele>291.884265</ele>
        <time>2020-08-10T08:19:55.846Z</time>
      </trkpt>
      <trkpt lat="38.010487" lon="-3.901044">
        <ele>292.676947</ele>
        <time>2020-08-10T08:19:57.851Z</time>
      </trkpt>
      <trkpt lat="38.010458" lon="-3.901176">
        <ele>293.557773</ele>
        <time>2020-08-10T08:19:59.851Z</time>
      </trkpt>
      <trkpt lat="38.010414" lon="-3.901326">
        <ele>294.586584</ele>
        <time>2020-08-10T08:20:01.865Z</time>
      </trkpt>
      <trkpt lat="38.010368" lon="-3.901479">
        <ele>295.639194</ele>
        <time>2020-08-10T08:20:03.858Z</time>
      </trkpt>
      <trkpt lat="38.010321" lon="-3.901637">
        <ele>296.724747</ele>
        <time>2020-08-10T08:20:05.867Z</time>
      </trkpt>
      <trkpt lat="38.010264" lon="-3.901784">
        <ele>297.777851</ele>
        <time>2020-08-10T08:20:07.859Z</time>
      </trkpt>
      <trkpt lat="38.010221" lon="-3.901918">
        <ele>298.707866</ele>
        <time>2020-08-10T08:20:09.845Z</time>
      </trkpt>
      <trkpt lat="38.010169" lon="-3.902050">
        <ele>299.656471</ele>
        <time>2020-08-10T08:20:11.848Z</time>
      </trkpt>
      <trkpt lat="38.010115" lon="-3.902192">
        <ele>300.669964</ele>
        <time>2020-08-10T08:20:13.861Z</time>
      </trkpt>
      <trkpt lat="38.010052" lon="-3.902322">
        <ele>301.650981</ele>
        <time>2020-08-10T08:20:15.847Z</time>
      </trkpt>
      <trkpt lat="38.009993" lon="-3.902468">
        <ele>302.705670</ele>
        <time>2020-08-10T08:20:17.843Z</time>
      </trkpt>
      <trkpt lat="38.009946" lon="-3.902601">
        <ele>303.642612</ele>
        <time>2020-08-10T08:20:19.842Z</time>
      </trkpt>
      <trkpt lat="38.009921" lon="-3.902727">
        <ele>304.477797</ele>
        <time>2020-08-10T08:20:21.853Z</time>
      </trkpt>
      <trkpt lat="38.009876" lon="-3.902855">
        <ele>305.378739</ele>
        <time>2020-08-10T08:20:23.848Z</time>
      </trkpt>
      <trkpt lat="38.009816" lon="-3.902964">
        <ele>306.233417</ele>
        <time>2020-08-10T08:20:25.835Z</time>
      </trkpt>
      <trkpt lat="38.009742" lon="-3.903089">
        <ele>306.019463</ele>
        <time>2020-08-10T08:20:27.850Z</time>
      </trkpt>
      <trkpt lat="38.009685" lon="-3.903228">
        <ele>305.292441</ele>
        <time>2020-08-10T08:20:29.831Z</time>
      </trkpt>
      <trkpt lat="38.009634" lon="-3.903415">
        <ele>304.374329</ele>
        <time>2020-08-10T08:20:31.844Z</time>
      </trkpt>
      <trkpt lat="38.009572" lon="-3.903554">
        <ele>303.633253</ele>
        <time>2020-08-10T08:20:33.845Z</time>
      </trkpt>
      <trkpt lat="38.009534" lon="-3.903714">
        <ele>302.857922</ele>
        <time>2020-08-10T08:20:35.847Z</time>
      </trkpt>
      <trkpt lat="38.009473" lon="-3.903903">
        <ele>301.910316</ele>
        <time>2020-08-10T08:20:38.857Z</time>
      </trkpt>
      <trkpt lat="38.009437" lon="-3.904026">
        <ele>301.301541</ele>
        <time>2020-08-10T08:20:40.853Z</time>
      </trkpt>
      <trkpt lat="38.009398" lon="-3.904158">
        <ele>300.647469</ele>
        <time>2020-08-10T08:20:42.844Z</time>
      </trkpt>
      <trkpt lat="38.009336" lon="-3.904301">
        <ele>299.890185</ele>
        <time>2020-08-10T08:20:44.844Z</time>
      </trkpt>
      <trkpt lat="38.009247" lon="-3.904462">
        <ele>298.977695</ele>
        <time>2020-08-10T08:20:46.847Z</time>
      </trkpt>
      <trkpt lat="38.009185" lon="-3.904630">
        <ele>298.116971</ele>
        <time>2020-08-10T08:20:48.850Z</time>
      </trkpt>
      <trkpt lat="38.009148" lon="-3.904772">
        <ele>297.423050</ele>
        <time>2020-08-10T08:20:50.844Z</time>
      </trkpt>
      <trkpt lat="38.009089" lon="-3.904864">
        <ele>296.872686</ele>
        <time>2020-08-10T08:20:51.851Z</time>
      </trkpt>
      <trkpt lat="38.009038" lon="-3.905005">
        <ele>296.152856</ele>
        <time>2020-08-10T08:20:53.853Z</time>
      </trkpt>
      <trkpt lat="38.008971" lon="-3.905126">
        <ele>295.032354</ele>
        <time>2020-08-10T08:20:55.845Z</time>
      </trkpt>
      <trkpt lat="38.008903" lon="-3.905275">
        <ele>293.498948</ele>
        <time>2020-08-10T08:20:57.861Z</time>
      </trkpt>
      <trkpt lat="38.008846" lon="-3.905457">
        <ele>291.754833</ele>
        <time>2020-08-10T08:20:59.881Z</time>
      </trkpt>
      <trkpt lat="38.008775" lon="-3.905622">
        <ele>290.080605</ele>
        <time>2020-08-10T08:21:01.851Z</time>
      </trkpt>
      <trkpt lat="38.008691" lon="-3.905790">
        <ele>288.308693</ele>
        <time>2020-08-10T08:21:03.851Z</time>
      </trkpt>
      <trkpt lat="38.008642" lon="-3.905953">
        <ele>286.755059</ele>
        <time>2020-08-10T08:21:05.843Z</time>
      </trkpt>
      <trkpt lat="38.008575" lon="-3.906125">
        <ele>285.046370</ele>
        <time>2020-08-10T08:21:07.836Z</time>
      </trkpt>
      <trkpt lat="38.008520" lon="-3.906287">
        <ele>283.475471</ele>
        <time>2020-08-10T08:21:09.842Z</time>
      </trkpt>
      <trkpt lat="38.008462" lon="-3.906439">
        <ele>281.971473</ele>
        <time>2020-08-10T08:21:11.843Z</time>
      </trkpt>
      <trkpt lat="38.008395" lon="-3.906590">
        <ele>280.428198</ele>
        <time>2020-08-10T08:21:13.838Z</time>
      </trkpt>
      <trkpt lat="38.008338" lon="-3.906743">
        <ele>278.921043</ele>
        <time>2020-08-10T08:21:15.857Z</time>
      </trkpt>
      <trkpt lat="38.008276" lon="-3.906904">
        <ele>277.325191</ele>
        <time>2020-08-10T08:21:17.834Z</time>
      </trkpt>
      <trkpt lat="38.008217" lon="-3.907062">
        <ele>275.768117</ele>
        <time>2020-08-10T08:21:19.843Z</time>
      </trkpt>
      <trkpt lat="38.008156" lon="-3.907216">
        <ele>275.678898</ele>
        <time>2020-08-10T08:21:21.840Z</time>
      </trkpt>
      <trkpt lat="38.008109" lon="-3.907372">
        <ele>275.753175</ele>
        <time>2020-08-10T08:21:23.839Z</time>
      </trkpt>
      <trkpt lat="38.008047" lon="-3.907512">
        <ele>275.824597</ele>
        <time>2020-08-10T08:21:25.834Z</time>
      </trkpt>
      <trkpt lat="38.007982" lon="-3.907668">
        <ele>275.903079</ele>
        <time>2020-08-10T08:21:27.840Z</time>
      </trkpt>
      <trkpt lat="38.007926" lon="-3.907830">
        <ele>275.981754</ele>
        <time>2020-08-10T08:21:29.851Z</time>
      </trkpt>
      <trkpt lat="38.007888" lon="-3.907977">
        <ele>276.050557</ele>
        <time>2020-08-10T08:21:31.859Z</time>
      </trkpt>
      <trkpt lat="38.007846" lon="-3.908113">
        <ele>276.115521</ele>
        <time>2020-08-10T08:21:33.843Z</time>
      </trkpt>
      <trkpt lat="38.007821" lon="-3.908232">
        <ele>276.170292</ele>
        <time>2020-08-10T08:21:35.851Z</time>
      </trkpt>
      <trkpt lat="38.007743" lon="-3.908373">
        <ele>276.246911</ele>
        <time>2020-08-10T08:21:37.846Z</time>
      </trkpt>
      <trkpt lat="38.007670" lon="-3.908519">
        <ele>276.323812</ele>
        <time>2020-08-10T08:21:39.837Z</time>
      </trkpt>
      <trkpt lat="38.007622" lon="-3.908672">
        <ele>276.397051</ele>
        <time>2020-08-10T08:21:41.838Z</time>
      </trkpt>
      <trkpt lat="38.007566" lon="-3.908816">
        <ele>276.468468</ele>
        <time>2020-08-10T08:21:43.834Z</time>
      </trkpt>
      <trkpt lat="38.007503" lon="-3.908953">
        <ele>276.539014</ele>
        <time>2020-08-10T08:21:45.838Z</time>
      </trkpt>
      <trkpt lat="38.007454" lon="-3.909084">
        <ele>276.603506</ele>
        <time>2020-08-10T08:21:47.840Z</time>
      </trkpt>
      <trkpt lat="38.007403" lon="-3.909219">
        <ele>276.600637</ele>
        <time>2020-08-10T08:21:49.840Z</time>
      </trkpt>
      <trkpt lat="38.007350" lon="-3.909351">
        <ele>276.564257</ele>
        <time>2020-08-10T08:21:51.855Z</time>
      </trkpt>
      <trkpt lat="38.007294" lon="-3.909487">
        <ele>276.526575</ele>
        <time>2020-08-10T08:21:53.843Z</time>
      </trkpt>
      <trkpt lat="38.007243" lon="-3.909613">
        <ele>276.491791</ele>
        <time>2020-08-10T08:21:55.827Z</time>
      </trkpt>
      <trkpt lat="38.007187" lon="-3.909750">
        <ele>276.453891</ele>
        <time>2020-08-10T08:21:57.846Z</time>
      </trkpt>
      <trkpt lat="38.007149" lon="-3.909882">
        <ele>276.419381</ele>
        <time>2020-08-10T08:21:59.831Z</time>
      </trkpt>
      <trkpt lat="38.007096" lon="-3.910020">
        <ele>276.381682</ele>
        <time>2020-08-10T08:22:01.842Z</time>
      </trkpt>
      <trkpt lat="38.007035" lon="-3.910156">
        <ele>276.343254</ele>
        <time>2020-08-10T08:22:03.842Z</time>
      </trkpt>
      <trkpt lat="38.006967" lon="-3.910268">
        <ele>276.308533</ele>
        <time>2020-08-10T08:22:05.835Z</time>
      </trkpt>
      <trkpt lat="38.006915" lon="-3.910392">
        <ele>276.274039</ele>
        <time>2020-08-10T08:22:07.842Z</time>
      </trkpt>
      <trkpt lat="38.006860" lon="-3.910522">
        <ele>276.237805</ele>
        <time>2020-08-10T08:22:09.842Z</time>
      </trkpt>
      <trkpt lat="38.006820" lon="-3.910659">
        <ele>276.201928</ele>
        <time>2020-08-10T08:22:11.846Z</time>
      </trkpt>
      <trkpt lat="38.006782" lon="-3.910791">
        <ele>276.167418</ele>
        <time>2020-08-10T08:22:13.841Z</time>
      </trkpt>
      <trkpt lat="38.006724" lon="-3.910931">
        <ele>276.128576</ele>
        <time>2020-08-10T08:22:15.836Z</time>
      </trkpt>
      <trkpt lat="38.006665" lon="-3.911073">
        <ele>276.089155</ele>
        <time>2020-08-10T08:22:17.842Z</time>
      </trkpt>
      <trkpt lat="38.006604" lon="-3.911227">
        <ele>275.943700</ele>
        <time>2020-08-10T08:22:19.841Z</time>
      </trkpt>
      <trkpt lat="38.006544" lon="-3.911385">
        <ele>275.653333</ele>
        <time>2020-08-10T08:22:21.861Z</time>
      </trkpt>
      <trkpt lat="38.006478" lon="-3.911543">
        <ele>275.357275</ele>
        <time>2020-08-10T08:22:23.851Z</time>
      </trkpt>
      <trkpt lat="38.006419" lon="-3.911685">
        <ele>275.091508</ele>
        <time>2020-08-10T08:22:25.865Z</time>
      </trkpt>
      <trkpt lat="38.006369" lon="-3.911832">
        <ele>274.826438</ele>
        <time>2020-08-10T08:22:27.841Z</time>
      </trkpt>
      <trkpt lat="38.006330" lon="-3.911985">
        <ele>274.560217</ele>
        <time>2020-08-10T08:22:29.843Z</time>
      </trkpt>
      <trkpt lat="38.006290" lon="-3.912141">
        <ele>274.288624</ele>
        <time>2020-08-10T08:22:31.847Z</time>
      </trkpt>
      <trkpt lat="38.006260" lon="-3.912301">
        <ele>274.016342</ele>
        <time>2020-08-10T08:22:33.833Z</time>
      </trkpt>
      <trkpt lat="38.006257" lon="-3.912479">
        <ele>273.721589</ele>
        <time>2020-08-10T08:22:35.851Z</time>
      </trkpt>
      <trkpt lat="38.006299" lon="-3.912615">
        <ele>273.479761</ele>
        <time>2020-08-10T08:22:37.840Z</time>
      </trkpt>
      <trkpt lat="38.006385" lon="-3.912715">
        <ele>273.234694</ele>
        <time>2020-08-10T08:22:39.844Z</time>
      </trkpt>
      <trkpt lat="38.006506" lon="-3.912791">
        <ele>272.951032</ele>
        <time>2020-08-10T08:22:41.847Z</time>
      </trkpt>
      <trkpt lat="38.006625" lon="-3.912842">
        <ele>272.687132</ele>
        <time>2020-08-10T08:22:43.842Z</time>
      </trkpt>
      <trkpt lat="38.006749" lon="-3.912890">
        <ele>272.414748</ele>
        <time>2020-08-10T08:22:45.841Z</time>
      </trkpt>
      <trkpt lat="38.006879" lon="-3.912955">
        <ele>272.207073</ele>
        <time>2020-08-10T08:22:47.843Z</time>
      </trkpt>
      <trkpt lat="38.007016" lon="-3.912999">
        <ele>272.065180</ele>
        <time>2020-08-10T08:22:49.844Z</time>
      </trkpt>
      <trkpt lat="38.007163" lon="-3.913035">
        <ele>271.914861</ele>
        <time>2020-08-10T08:22:51.847Z</time>
      </trkpt>
      <trkpt lat="38.007298" lon="-3.913073">
        <ele>271.776020</ele>
        <time>2020-08-10T08:22:53.851Z</time>
      </trkpt>
      <trkpt lat="38.007434" lon="-3.913081">
        <ele>271.639321</ele>
        <time>2020-08-10T08:22:55.850Z</time>
      </trkpt>
      <trkpt lat="38.007578" lon="-3.912960">
        <ele>271.465919</ele>
        <time>2020-08-10T08:22:57.845Z</time>
      </trkpt>
      <trkpt lat="38.007661" lon="-3.912897">
        <ele>271.368816</ele>
        <time>2020-08-10T08:22:58.843Z</time>
      </trkpt>
      <trkpt lat="38.007812" lon="-3.912792">
        <ele>271.195938</ele>
        <time>2020-08-10T08:23:00.841Z</time>
      </trkpt>
      <trkpt lat="38.008000" lon="-3.912728">
        <ele>271.000502</ele>
        <time>2020-08-10T08:23:02.843Z</time>
      </trkpt>
      <trkpt lat="38.008097" lon="-3.912708">
        <ele>270.901832</ele>
        <time>2020-08-10T08:23:03.838Z</time>
      </trkpt>
      <trkpt lat="38.008210" lon="-3.912712">
        <ele>270.788329</ele>
        <time>2020-08-10T08:23:04.857Z</time>
      </trkpt>
      <trkpt lat="38.008376" lon="-3.912725">
        <ele>270.621339</ele>
        <time>2020-08-10T08:23:06.839Z</time>
      </trkpt>
      <trkpt lat="38.008460" lon="-3.912766">
        <ele>270.530976</ele>
        <time>2020-08-10T08:23:07.843Z</time>
      </trkpt>
      <trkpt lat="38.008544" lon="-3.912821">
        <ele>270.389865</ele>
        <time>2020-08-10T08:23:08.839Z</time>
      </trkpt>
      <trkpt lat="38.008698" lon="-3.912914">
        <ele>270.037471</ele>
        <time>2020-08-10T08:23:10.838Z</time>
      </trkpt>
      <trkpt lat="38.008832" lon="-3.912982">
        <ele>269.739275</ele>
        <time>2020-08-10T08:23:12.839Z</time>
      </trkpt>
      <trkpt lat="38.008992" lon="-3.913051">
        <ele>269.390105</ele>
        <time>2020-08-10T08:23:14.847Z</time>
      </trkpt>
      <trkpt lat="38.009138" lon="-3.913130">
        <ele>269.062154</ele>
        <time>2020-08-10T08:23:16.848Z</time>
      </trkpt>
      <trkpt lat="38.009282" lon="-3.913184">
        <ele>268.751892</ele>
        <time>2020-08-10T08:23:18.845Z</time>
      </trkpt>
      <trkpt lat="38.009433" lon="-3.913241">
        <ele>268.426375</ele>
        <time>2020-08-10T08:23:20.844Z</time>
      </trkpt>
      <trkpt lat="38.009578" lon="-3.913280">
        <ele>268.120109</ele>
        <time>2020-08-10T08:23:22.834Z</time>
      </trkpt>
      <trkpt lat="38.009717" lon="-3.913302">
        <ele>267.830670</ele>
        <time>2020-08-10T08:23:24.837Z</time>
      </trkpt>
      <trkpt lat="38.009857" lon="-3.913315">
        <ele>267.540617</ele>
        <time>2020-08-10T08:23:26.840Z</time>
      </trkpt>
      <trkpt lat="38.010003" lon="-3.913335">
        <ele>267.237187</ele>
        <time>2020-08-10T08:23:28.851Z</time>
      </trkpt>
      <trkpt lat="38.010140" lon="-3.913338">
        <ele>266.954063</ele>
        <time>2020-08-10T08:23:30.839Z</time>
      </trkpt>
      <trkpt lat="38.010273" lon="-3.913323">
        <ele>266.704624</ele>
        <time>2020-08-10T08:23:32.846Z</time>
      </trkpt>
      <trkpt lat="38.010390" lon="-3.913318">
        <ele>266.537971</ele>
        <time>2020-08-10T08:23:34.849Z</time>
      </trkpt>
      <trkpt lat="38.010515" lon="-3.913302">
        <ele>266.359120</ele>
        <time>2020-08-10T08:23:36.848Z</time>
      </trkpt>
      <trkpt lat="38.010642" lon="-3.913272">
        <ele>266.175221</ele>
        <time>2020-08-10T08:23:38.846Z</time>
      </trkpt>
      <trkpt lat="38.010772" lon="-3.913251">
        <ele>265.988662</ele>
        <time>2020-08-10T08:23:40.843Z</time>
      </trkpt>
      <trkpt lat="38.010886" lon="-3.913207">
        <ele>265.819036</ele>
        <time>2020-08-10T08:23:42.856Z</time>
      </trkpt>
      <trkpt lat="38.011010" lon="-3.913196">
        <ele>265.642081</ele>
        <time>2020-08-10T08:23:44.849Z</time>
      </trkpt>
      <trkpt lat="38.011129" lon="-3.913168">
        <ele>265.469788</ele>
        <time>2020-08-10T08:23:46.843Z</time>
      </trkpt>
      <trkpt lat="38.011248" lon="-3.913141">
        <ele>265.297696</ele>
        <time>2020-08-10T08:23:48.843Z</time>
      </trkpt>
      <trkpt lat="38.011377" lon="-3.913100">
        <ele>265.108384</ele>
        <time>2020-08-10T08:23:50.846Z</time>
      </trkpt>
      <trkpt lat="38.011504" lon="-3.913059">
        <ele>264.921832</ele>
        <time>2020-08-10T08:23:52.841Z</time>
      </trkpt>
      <trkpt lat="38.011636" lon="-3.913030">
        <ele>264.731125</ele>
        <time>2020-08-10T08:23:54.843Z</time>
      </trkpt>
      <trkpt lat="38.011772" lon="-3.912994">
        <ele>264.533352</ele>
        <time>2020-08-10T08:23:56.840Z</time>
      </trkpt>
      <trkpt lat="38.011893" lon="-3.912953">
        <ele>264.355066</ele>
        <time>2020-08-10T08:23:58.840Z</time>
      </trkpt>
      <trkpt lat="38.012013" lon="-3.912910">
        <ele>264.190490</ele>
        <time>2020-08-10T08:24:00.848Z</time>
      </trkpt>
      <trkpt lat="38.012142" lon="-3.912868">
        <ele>264.098350</ele>
        <time>2020-08-10T08:24:02.837Z</time>
      </trkpt>
      <trkpt lat="38.012261" lon="-3.912826">
        <ele>264.012894</ele>
        <time>2020-08-10T08:24:04.857Z</time>
      </trkpt>
      <trkpt lat="38.012378" lon="-3.912803">
        <ele>263.930981</ele>
        <time>2020-08-10T08:24:06.844Z</time>
      </trkpt>
      <trkpt lat="38.012505" lon="-3.912778">
        <ele>263.842063</ele>
        <time>2020-08-10T08:24:08.852Z</time>
      </trkpt>
      <trkpt lat="38.012624" lon="-3.912754">
        <ele>263.758698</ele>
        <time>2020-08-10T08:24:10.854Z</time>
      </trkpt>
      <trkpt lat="38.012732" lon="-3.912719">
        <ele>263.681580</ele>
        <time>2020-08-10T08:24:12.860Z</time>
      </trkpt>
      <trkpt lat="38.012832" lon="-3.912684">
        <ele>263.609811</ele>
        <time>2020-08-10T08:24:14.847Z</time>
      </trkpt>
      <trkpt lat="38.012949" lon="-3.912646">
        <ele>263.526254</ele>
        <time>2020-08-10T08:24:16.852Z</time>
      </trkpt>
      <trkpt lat="38.013048" lon="-3.912612">
        <ele>263.455297</ele>
        <time>2020-08-10T08:24:18.843Z</time>
      </trkpt>
      <trkpt lat="38.013153" lon="-3.912581">
        <ele>263.380711</ele>
        <time>2020-08-10T08:24:20.847Z</time>
      </trkpt>
      <trkpt lat="38.013257" lon="-3.912552">
        <ele>263.307041</ele>
        <time>2020-08-10T08:24:22.841Z</time>
      </trkpt>
      <trkpt lat="38.013359" lon="-3.912519">
        <ele>263.234215</ele>
        <time>2020-08-10T08:24:24.855Z</time>
      </trkpt>
      <trkpt lat="38.013459" lon="-3.912480">
        <ele>263.161836</ele>
        <time>2020-08-10T08:24:26.841Z</time>
      </trkpt>
      <trkpt lat="38.013553" lon="-3.912459">
        <ele>263.095801</ele>
        <time>2020-08-10T08:24:28.847Z</time>
      </trkpt>
      <trkpt lat="38.013660" lon="-3.912460">
        <ele>263.021769</ele>
        <time>2020-08-10T08:24:30.842Z</time>
      </trkpt>
      <trkpt lat="38.013759" lon="-3.912445">
        <ele>262.961298</ele>
        <time>2020-08-10T08:24:32.843Z</time>
      </trkpt>
      <trkpt lat="38.013850" lon="-3.912448">
        <ele>262.995569</ele>
        <time>2020-08-10T08:24:34.854Z</time>
      </trkpt>
      <trkpt lat="38.013946" lon="-3.912485">
        <ele>263.033340</ele>
        <time>2020-08-10T08:24:36.873Z</time>
      </trkpt>
      <trkpt lat="38.014086" lon="-3.912495">
        <ele>263.086130</ele>
        <time>2020-08-10T08:24:39.843Z</time>
      </trkpt>
      <trkpt lat="38.014183" lon="-3.912521">
        <ele>263.123454</ele>
        <time>2020-08-10T08:24:41.849Z</time>
      </trkpt>
      <trkpt lat="38.014286" lon="-3.912552">
        <ele>263.163306</ele>
        <time>2020-08-10T08:24:43.840Z</time>
      </trkpt>
      <trkpt lat="38.014377" lon="-3.912592">
        <ele>263.199562</ele>
        <time>2020-08-10T08:24:45.844Z</time>
      </trkpt>
      <trkpt lat="38.014509" lon="-3.912639">
        <ele>263.251175</ele>
        <time>2020-08-10T08:24:48.844Z</time>
      </trkpt>
      <trkpt lat="38.014598" lon="-3.912681">
        <ele>263.286923</ele>
        <time>2020-08-10T08:24:50.845Z</time>
      </trkpt>
      <trkpt lat="38.014701" lon="-3.912724">
        <ele>263.327743</ele>
        <time>2020-08-10T08:24:52.850Z</time>
      </trkpt>
      <trkpt lat="38.014798" lon="-3.912750">
        <ele>263.365067</ele>
        <time>2020-08-10T08:24:54.848Z</time>
      </trkpt>
      <trkpt lat="38.014896" lon="-3.912785">
        <ele>263.403394</ele>
        <time>2020-08-10T08:24:56.851Z</time>
      </trkpt>
      <trkpt lat="38.014994" lon="-3.912812">
        <ele>263.441148</ele>
        <time>2020-08-10T08:24:58.838Z</time>
      </trkpt>
      <trkpt lat="38.015080" lon="-3.912857">
        <ele>263.476169</ele>
        <time>2020-08-10T08:25:00.842Z</time>
      </trkpt>
      <trkpt lat="38.015179" lon="-3.912901">
        <ele>263.515659</ele>
        <time>2020-08-10T08:25:02.847Z</time>
      </trkpt>
      <trkpt lat="38.015282" lon="-3.912939">
        <ele>263.556040</ele>
        <time>2020-08-10T08:25:04.843Z</time>
      </trkpt>
      <trkpt lat="38.015393" lon="-3.912988">
        <ele>263.600285</ele>
        <time>2020-08-10T08:25:06.839Z</time>
      </trkpt>
      <trkpt lat="38.015502" lon="-3.913036">
        <ele>263.624779</ele>
        <time>2020-08-10T08:25:08.851Z</time>
      </trkpt>
      <trkpt lat="38.015616" lon="-3.913070">
        <ele>263.567934</ele>
        <time>2020-08-10T08:25:10.832Z</time>
      </trkpt>
      <trkpt lat="38.015733" lon="-3.913111">
        <ele>263.509016</ele>
        <time>2020-08-10T08:25:12.833Z</time>
      </trkpt>
      <trkpt lat="38.015844" lon="-3.913152">
        <ele>263.452900</ele>
        <time>2020-08-10T08:25:14.274Z</time>
      </trkpt>
      <trkpt lat="38.015948" lon="-3.913200">
        <ele>263.399183</ele>
        <time>2020-08-10T08:25:16.286Z</time>
      </trkpt>
      <trkpt lat="38.016051" lon="-3.913247">
        <ele>263.346052</ele>
        <time>2020-08-10T08:25:18.295Z</time>
      </trkpt>
      <trkpt lat="38.016154" lon="-3.913275">
        <ele>263.294920</ele>
        <time>2020-08-10T08:25:20.282Z</time>
      </trkpt>
      <trkpt lat="38.016244" lon="-3.913329">
        <ele>263.246598</ele>
        <time>2020-08-10T08:25:22.286Z</time>
      </trkpt>
      <trkpt lat="38.016346" lon="-3.913362">
        <ele>263.195502</ele>
        <time>2020-08-10T08:25:24.319Z</time>
      </trkpt>
      <trkpt lat="38.016453" lon="-3.913404">
        <ele>263.141136</ele>
        <time>2020-08-10T08:25:26.281Z</time>
      </trkpt>
      <trkpt lat="38.016568" lon="-3.913448">
        <ele>263.082832</ele>
        <time>2020-08-10T08:25:28.280Z</time>
      </trkpt>
      <trkpt lat="38.016665" lon="-3.913480">
        <ele>263.034183</ele>
        <time>2020-08-10T08:25:30.274Z</time>
      </trkpt>
      <trkpt lat="38.016765" lon="-3.913522">
        <ele>262.983053</ele>
        <time>2020-08-10T08:25:32.283Z</time>
      </trkpt>
      <trkpt lat="38.016859" lon="-3.913566">
        <ele>262.934420</ele>
        <time>2020-08-10T08:25:34.277Z</time>
      </trkpt>
      <trkpt lat="38.016961" lon="-3.913618">
        <ele>262.881063</ele>
        <time>2020-08-10T08:25:36.286Z</time>
      </trkpt>
      <trkpt lat="38.017071" lon="-3.913665">
        <ele>262.824723</ele>
        <time>2020-08-10T08:25:38.297Z</time>
      </trkpt>
      <trkpt lat="38.017166" lon="-3.913722">
        <ele>262.773716</ele>
        <time>2020-08-10T08:25:40.286Z</time>
      </trkpt>
      <trkpt lat="38.017263" lon="-3.913784">
        <ele>262.633186</ele>
        <time>2020-08-10T08:25:42.290Z</time>
      </trkpt>
      <trkpt lat="38.017349" lon="-3.913849">
        <ele>262.481441</ele>
        <time>2020-08-10T08:25:44.280Z</time>
      </trkpt>
      <trkpt lat="38.017450" lon="-3.913919">
        <ele>262.306980</ele>
        <time>2020-08-10T08:25:46.302Z</time>
      </trkpt>
      <trkpt lat="38.017548" lon="-3.913989">
        <ele>262.136496</ele>
        <time>2020-08-10T08:25:48.285Z</time>
      </trkpt>
      <trkpt lat="38.017645" lon="-3.914044">
        <ele>261.975433</ele>
        <time>2020-08-10T08:25:50.277Z</time>
      </trkpt>
      <trkpt lat="38.017743" lon="-3.914109">
        <ele>261.807798</ele>
        <time>2020-08-10T08:25:52.284Z</time>
      </trkpt>
      <trkpt lat="38.017839" lon="-3.914150">
        <ele>261.654238</ele>
        <time>2020-08-10T08:25:54.279Z</time>
      </trkpt>
      <trkpt lat="38.017963" lon="-3.914174">
        <ele>261.464073</ele>
        <time>2020-08-10T08:25:56.286Z</time>
      </trkpt>
      <trkpt lat="38.018084" lon="-3.914207">
        <ele>261.276443</ele>
        <time>2020-08-10T08:25:58.278Z</time>
      </trkpt>
      <trkpt lat="38.018189" lon="-3.914204">
        <ele>261.117216</ele>
        <time>2020-08-10T08:26:00.288Z</time>
      </trkpt>
      <trkpt lat="38.018285" lon="-3.914209">
        <ele>260.971552</ele>
        <time>2020-08-10T08:26:02.282Z</time>
      </trkpt>
      <trkpt lat="38.018403" lon="-3.914193">
        <ele>260.791638</ele>
        <time>2020-08-10T08:26:04.275Z</time>
      </trkpt>
      <trkpt lat="38.018510" lon="-3.914189">
        <ele>260.629349</ele>
        <time>2020-08-10T08:26:06.279Z</time>
      </trkpt>
      <trkpt lat="38.018633" lon="-3.914169">
        <ele>260.441350</ele>
        <time>2020-08-10T08:26:08.279Z</time>
      </trkpt>
      <trkpt lat="38.018744" lon="-3.914166">
        <ele>260.273028</ele>
        <time>2020-08-10T08:26:10.278Z</time>
      </trkpt>
      <trkpt lat="38.018853" lon="-3.914164">
        <ele>260.107760</ele>
        <time>2020-08-10T08:26:12.277Z</time>
      </trkpt>
      <trkpt lat="38.018945" lon="-3.914162">
        <ele>260.050441</ele>
        <time>2020-08-10T08:26:14.275Z</time>
      </trkpt>
      <trkpt lat="38.019058" lon="-3.914158">
        <ele>260.088530</ele>
        <time>2020-08-10T08:26:16.282Z</time>
      </trkpt>
      <trkpt lat="38.019181" lon="-3.914154">
        <ele>260.129987</ele>
        <time>2020-08-10T08:26:18.292Z</time>
      </trkpt>
      <trkpt lat="38.019301" lon="-3.914138">
        <ele>260.170641</ele>
        <time>2020-08-10T08:26:20.281Z</time>
      </trkpt>
      <trkpt lat="38.019420" lon="-3.914128">
        <ele>260.210825</ele>
        <time>2020-08-10T08:26:22.285Z</time>
      </trkpt>
      <trkpt lat="38.019527" lon="-3.914132">
        <ele>260.246892</ele>
        <time>2020-08-10T08:26:24.278Z</time>
      </trkpt>
      <trkpt lat="38.019649" lon="-3.914114">
        <ele>260.288275</ele>
        <time>2020-08-10T08:26:26.280Z</time>
      </trkpt>
      <trkpt lat="38.019774" lon="-3.914102">
        <ele>260.330513</ele>
        <time>2020-08-10T08:26:28.297Z</time>
      </trkpt>
      <trkpt lat="38.019889" lon="-3.914100">
        <ele>260.369264</ele>
        <time>2020-08-10T08:26:30.283Z</time>
      </trkpt>
      <trkpt lat="38.020000" lon="-3.914094">
        <ele>260.406698</ele>
        <time>2020-08-10T08:26:32.296Z</time>
      </trkpt>
      <trkpt lat="38.020119" lon="-3.914091">
        <ele>260.446801</ele>
        <time>2020-08-10T08:26:34.294Z</time>
      </trkpt>
      <trkpt lat="38.020246" lon="-3.914072">
        <ele>260.489888</ele>
        <time>2020-08-10T08:26:36.289Z</time>
      </trkpt>
      <trkpt lat="38.020357" lon="-3.914068">
        <ele>260.527303</ele>
        <time>2020-08-10T08:26:38.286Z</time>
      </trkpt>
      <trkpt lat="38.020474" lon="-3.914075">
        <ele>260.566769</ele>
        <time>2020-08-10T08:26:40.295Z</time>
      </trkpt>
      <trkpt lat="38.020599" lon="-3.914049">
        <ele>260.609447</ele>
        <time>2020-08-10T08:26:42.279Z</time>
      </trkpt>
      <trkpt lat="38.020709" lon="-3.914043">
        <ele>260.665764</ele>
        <time>2020-08-10T08:26:44.288Z</time>
      </trkpt>
      <trkpt lat="38.020834" lon="-3.914038">
        <ele>260.869297</ele>
        <time>2020-08-10T08:26:46.280Z</time>
      </trkpt>
      <trkpt lat="38.020957" lon="-3.914030">
        <ele>261.069737</ele>
        <time>2020-08-10T08:26:48.291Z</time>
      </trkpt>
      <trkpt lat="38.021072" lon="-3.914039">
        <ele>261.257250</ele>
        <time>2020-08-10T08:26:50.293Z</time>
      </trkpt>
      <trkpt lat="38.021188" lon="-3.914041">
        <ele>261.446052</ele>
        <time>2020-08-10T08:26:52.294Z</time>
      </trkpt>
      <trkpt lat="38.021318" lon="-3.914026">
        <ele>261.658493</ele>
        <time>2020-08-10T08:26:54.287Z</time>
      </trkpt>
      <trkpt lat="38.021447" lon="-3.914018">
        <ele>261.868686</ele>
        <time>2020-08-10T08:26:56.297Z</time>
      </trkpt>
      <trkpt lat="38.021576" lon="-3.914020">
        <ele>262.078643</ele>
        <time>2020-08-10T08:26:58.287Z</time>
      </trkpt>
      <trkpt lat="38.021697" lon="-3.914023">
        <ele>262.275603</ele>
        <time>2020-08-10T08:27:00.284Z</time>
      </trkpt>
      <trkpt lat="38.021827" lon="-3.913996">
        <ele>262.489985</ele>
        <time>2020-08-10T08:27:02.288Z</time>
      </trkpt>
      <trkpt lat="38.021947" lon="-3.913994">
        <ele>262.685297</ele>
        <time>2020-08-10T08:27:04.296Z</time>
      </trkpt>
      <trkpt lat="38.022054" lon="-3.913991">
        <ele>262.859477</ele>
        <time>2020-08-10T08:27:06.285Z</time>
      </trkpt>
      <trkpt lat="38.022169" lon="-3.913983">
        <ele>263.046915</ele>
        <time>2020-08-10T08:27:08.288Z</time>
      </trkpt>
      <trkpt lat="38.022265" lon="-3.913989">
        <ele>263.203341</ele>
        <time>2020-08-10T08:27:10.278Z</time>
      </trkpt>
      <trkpt lat="38.022360" lon="-3.913979">
        <ele>263.358480</ele>
        <time>2020-08-10T08:27:12.286Z</time>
      </trkpt>
      <trkpt lat="38.022458" lon="-3.913977">
        <ele>263.517991</ele>
        <time>2020-08-10T08:27:14.288Z</time>
      </trkpt>
      <trkpt lat="38.022560" lon="-3.913964">
        <ele>263.621734</ele>
        <time>2020-08-10T08:27:16.274Z</time>
      </trkpt>
      <trkpt lat="38.022692" lon="-3.913959">
        <ele>263.719846</ele>
        <time>2020-08-10T08:27:19.284Z</time>
      </trkpt>
      <trkpt lat="38.022802" lon="-3.913951">
        <ele>263.801704</ele>
        <time>2020-08-10T08:27:21.292Z</time>
      </trkpt>
      <trkpt lat="38.022908" lon="-3.913944">
        <ele>263.880563</ele>
        <time>2020-08-10T08:27:23.302Z</time>
      </trkpt>
      <trkpt lat="38.023009" lon="-3.913931">
        <ele>263.955985</ele>
        <time>2020-08-10T08:27:25.288Z</time>
      </trkpt>
      <trkpt lat="38.023110" lon="-3.913934">
        <ele>264.031043</ele>
        <time>2020-08-10T08:27:27.278Z</time>
      </trkpt>
      <trkpt lat="38.023216" lon="-3.913929">
        <ele>264.109850</ele>
        <time>2020-08-10T08:27:29.289Z</time>
      </trkpt>
      <trkpt lat="38.023313" lon="-3.913924">
        <ele>264.181975</ele>
        <time>2020-08-10T08:27:31.284Z</time>
      </trkpt>
      <trkpt lat="38.023439" lon="-3.913907">
        <ele>264.276113</ele>
        <time>2020-08-10T08:27:34.286Z</time>
      </trkpt>
      <trkpt lat="38.023552" lon="-3.913919">
        <ele>264.360359</ele>
        <time>2020-08-10T08:27:37.282Z</time>
      </trkpt>
      <trkpt lat="38.023674" lon="-3.913923">
        <ele>264.451029</ele>
        <time>2020-08-10T08:27:40.296Z</time>
      </trkpt>
      <trkpt lat="38.023766" lon="-3.913947">
        <ele>264.520808</ele>
        <time>2020-08-10T08:27:42.274Z</time>
      </trkpt>
      <trkpt lat="38.023886" lon="-3.913992">
        <ele>264.613770</ele>
        <time>2020-08-10T08:27:45.284Z</time>
      </trkpt>
      <trkpt lat="38.023996" lon="-3.914057">
        <ele>264.703914</ele>
        <time>2020-08-10T08:27:48.298Z</time>
      </trkpt>
      <trkpt lat="38.024103" lon="-3.914123">
        <ele>264.792297</ele>
        <time>2020-08-10T08:27:51.294Z</time>
      </trkpt>
      <trkpt lat="38.024199" lon="-3.914194">
        <ele>264.874842</ele>
        <time>2020-08-10T08:27:54.282Z</time>
      </trkpt>
      <trkpt lat="38.024297" lon="-3.914270">
        <ele>264.856415</ele>
        <time>2020-08-10T08:27:57.285Z</time>
      </trkpt>
      <trkpt lat="38.024395" lon="-3.914348">
        <ele>264.780627</ele>
        <time>2020-08-10T08:28:00.287Z</time>
      </trkpt>
      <trkpt lat="38.024503" lon="-3.914415">
        <ele>264.701867</ele>
        <time>2020-08-10T08:28:03.279Z</time>
      </trkpt>
      <trkpt lat="38.024609" lon="-3.914487">
        <ele>264.623098</ele>
        <time>2020-08-10T08:28:06.292Z</time>
      </trkpt>
      <trkpt lat="38.024711" lon="-3.914576">
        <ele>264.542002</ele>
        <time>2020-08-10T08:28:09.295Z</time>
      </trkpt>
      <trkpt lat="38.024808" lon="-3.914666">
        <ele>264.463280</ele>
        <time>2020-08-10T08:28:12.265Z</time>
      </trkpt>
      <trkpt lat="38.024912" lon="-3.914750">
        <ele>264.382515</ele>
        <time>2020-08-10T08:28:15.288Z</time>
      </trkpt>
      <trkpt lat="38.024993" lon="-3.914804">
        <ele>264.322570</ele>
        <time>2020-08-10T08:28:17.279Z</time>
      </trkpt>
      <trkpt lat="38.025086" lon="-3.914859">
        <ele>264.255348</ele>
        <time>2020-08-10T08:28:19.301Z</time>
      </trkpt>
      <trkpt lat="38.025172" lon="-3.914943">
        <ele>264.184251</ele>
        <time>2020-08-10T08:28:21.292Z</time>
      </trkpt>
      <trkpt lat="38.025270" lon="-3.915015">
        <ele>264.110062</ele>
        <time>2020-08-10T08:28:23.270Z</time>
      </trkpt>
      <trkpt lat="38.025371" lon="-3.915075">
        <ele>264.036999</ele>
        <time>2020-08-10T08:28:25.287Z</time>
      </trkpt>
      <trkpt lat="38.025464" lon="-3.915148">
        <ele>263.965357</ele>
        <time>2020-08-10T08:28:27.281Z</time>
      </trkpt>
      <trkpt lat="38.025551" lon="-3.915233">
        <ele>263.893426</ele>
        <time>2020-08-10T08:28:29.290Z</time>
      </trkpt>
      <trkpt lat="38.025646" lon="-3.915303">
        <ele>263.821456</ele>
        <time>2020-08-10T08:28:31.282Z</time>
      </trkpt>
      <trkpt lat="38.025749" lon="-3.915380">
        <ele>263.743137</ele>
        <time>2020-08-10T08:28:33.277Z</time>
      </trkpt>
      <trkpt lat="38.025847" lon="-3.915453">
        <ele>263.788728</ele>
        <time>2020-08-10T08:28:35.282Z</time>
      </trkpt>
      <trkpt lat="38.025929" lon="-3.915531">
        <ele>263.860877</ele>
        <time>2020-08-10T08:28:37.284Z</time>
      </trkpt>
      <trkpt lat="38.026021" lon="-3.915602">
        <ele>263.936688</ele>
        <time>2020-08-10T08:28:39.279Z</time>
      </trkpt>
      <trkpt lat="38.026116" lon="-3.915657">
        <ele>264.010208</ele>
        <time>2020-08-10T08:28:41.280Z</time>
      </trkpt>
      <trkpt lat="38.026204" lon="-3.915722">
        <ele>264.081897</ele>
        <time>2020-08-10T08:28:43.283Z</time>
      </trkpt>
      <trkpt lat="38.026290" lon="-3.915786">
        <ele>264.152090</ele>
        <time>2020-08-10T08:28:45.278Z</time>
      </trkpt>
      <trkpt lat="38.026381" lon="-3.915841">
        <ele>264.223057</ele>
        <time>2020-08-10T08:28:47.298Z</time>
      </trkpt>
      <trkpt lat="38.026475" lon="-3.915911">
        <ele>264.299793</ele>
        <time>2020-08-10T08:28:49.280Z</time>
      </trkpt>
      <trkpt lat="38.026564" lon="-3.915959">
        <ele>264.367882</ele>
        <time>2020-08-10T08:28:51.288Z</time>
      </trkpt>
      <trkpt lat="38.026658" lon="-3.916021">
        <ele>264.442470</ele>
        <time>2020-08-10T08:28:53.290Z</time>
      </trkpt>
      <trkpt lat="38.026748" lon="-3.916085">
        <ele>264.515107</ele>
        <time>2020-08-10T08:28:55.278Z</time>
      </trkpt>
      <trkpt lat="38.026838" lon="-3.916149">
        <ele>264.587743</ele>
        <time>2020-08-10T08:28:57.279Z</time>
      </trkpt>
      <trkpt lat="38.026919" lon="-3.916206">
        <ele>264.652954</ele>
        <time>2020-08-10T08:28:59.284Z</time>
      </trkpt>
      <trkpt lat="38.027012" lon="-3.916282">
        <ele>264.730833</ele>
        <time>2020-08-10T08:29:01.285Z</time>
      </trkpt>
      <trkpt lat="38.027116" lon="-3.916355">
        <ele>264.814511</ele>
        <time>2020-08-10T08:29:03.277Z</time>
      </trkpt>
      <trkpt lat="38.027221" lon="-3.916446">
        <ele>264.904031</ele>
        <time>2020-08-10T08:29:05.281Z</time>
      </trkpt>
      <trkpt lat="38.027321" lon="-3.916550">
        <ele>264.999079</ele>
        <time>2020-08-10T08:29:07.281Z</time>
      </trkpt>
      <trkpt lat="38.027424" lon="-3.916658">
        <ele>265.279635</ele>
        <time>2020-08-10T08:29:09.287Z</time>
      </trkpt>
      <trkpt lat="38.027526" lon="-3.916777">
        <ele>265.570566</ele>
        <time>2020-08-10T08:29:11.284Z</time>
      </trkpt>
      <trkpt lat="38.027639" lon="-3.916860">
        <ele>265.844739</ele>
        <time>2020-08-10T08:29:13.287Z</time>
      </trkpt>
      <trkpt lat="38.027746" lon="-3.916959">
        <ele>266.122799</ele>
        <time>2020-08-10T08:29:15.287Z</time>
      </trkpt>
      <trkpt lat="38.027854" lon="-3.917041">
        <ele>266.387082</ele>
        <time>2020-08-10T08:29:17.282Z</time>
      </trkpt>
      <trkpt lat="38.027952" lon="-3.917131">
        <ele>266.641100</ele>
        <time>2020-08-10T08:29:19.284Z</time>
      </trkpt>
      <trkpt lat="38.028021" lon="-3.917239">
        <ele>266.871140</ele>
        <time>2020-08-10T08:29:21.284Z</time>
      </trkpt>
      <trkpt lat="38.028040" lon="-3.917382">
        <ele>267.111044</ele>
        <time>2020-08-10T08:29:24.278Z</time>
      </trkpt>
      <trkpt lat="38.028009" lon="-3.917497">
        <ele>267.312118</ele>
        <time>2020-08-10T08:29:26.273Z</time>
      </trkpt>
      <trkpt lat="38.027948" lon="-3.917625">
        <ele>267.559603</ele>
        <time>2020-08-10T08:29:29.275Z</time>
      </trkpt>
      <trkpt lat="38.027893" lon="-3.917762">
        <ele>267.813976</ele>
        <time>2020-08-10T08:29:32.282Z</time>
      </trkpt>
      <trkpt lat="38.027830" lon="-3.917859">
        <ele>268.021953</ele>
        <time>2020-08-10T08:29:35.303Z</time>
      </trkpt>
      <trkpt lat="38.027755" lon="-3.917960">
        <ele>268.251574</ele>
        <time>2020-08-10T08:29:38.297Z</time>
      </trkpt>
      <trkpt lat="38.027695" lon="-3.918056">
        <ele>268.454303</ele>
        <time>2020-08-10T08:29:41.278Z</time>
      </trkpt>
      <trkpt lat="38.027609" lon="-3.918115">
        <ele>268.659598</ele>
        <time>2020-08-10T08:29:44.277Z</time>
      </trkpt>
      <trkpt lat="38.027509" lon="-3.918170">
        <ele>268.829763</ele>
        <time>2020-08-10T08:29:47.288Z</time>
      </trkpt>
      <trkpt lat="38.027386" lon="-3.918221">
        <ele>268.966405</ele>
        <time>2020-08-10T08:29:50.283Z</time>
      </trkpt>
      <trkpt lat="38.027268" lon="-3.918241">
        <ele>269.092120</ele>
        <time>2020-08-10T08:29:53.296Z</time>
      </trkpt>
      <trkpt lat="38.027150" lon="-3.918262">
        <ele>269.217948</ele>
        <time>2020-08-10T08:29:56.289Z</time>
      </trkpt>
      <trkpt lat="38.027036" lon="-3.918316">
        <ele>269.346441</ele>
        <time>2020-08-10T08:29:59.281Z</time>
      </trkpt>
      <trkpt lat="38.026941" lon="-3.918424">
        <ele>269.481109</ele>
        <time>2020-08-10T08:30:02.271Z</time>
      </trkpt>
      <trkpt lat="38.026886" lon="-3.918525">
        <ele>269.583246</ele>
        <time>2020-08-10T08:30:04.280Z</time>
      </trkpt>
      <trkpt lat="38.026829" lon="-3.918616">
        <ele>269.679959</ele>
        <time>2020-08-10T08:30:06.279Z</time>
      </trkpt>
      <trkpt lat="38.026776" lon="-3.918756">
        <ele>269.809168</ele>
        <time>2020-08-10T08:30:09.281Z</time>
      </trkpt>
      <trkpt lat="38.026752" lon="-3.918897">
        <ele>269.929165</ele>
        <time>2020-08-10T08:30:12.291Z</time>
      </trkpt>
      <trkpt lat="38.026730" lon="-3.919050">
        <ele>270.058540</ele>
        <time>2020-08-10T08:30:15.282Z</time>
      </trkpt>
      <trkpt lat="38.026713" lon="-3.919185">
        <ele>270.172265</ele>
        <time>2020-08-10T08:30:18.283Z</time>
      </trkpt>
      <trkpt lat="38.026689" lon="-3.919330">
        <ele>270.295517</ele>
        <time>2020-08-10T08:30:21.293Z</time>
      </trkpt>
      <trkpt lat="38.026667" lon="-3.919491">
        <ele>270.431444</ele>
        <time>2020-08-10T08:30:24.274Z</time>
      </trkpt>
      <trkpt lat="38.026643" lon="-3.919651">
        <ele>270.566931</ele>
        <time>2020-08-10T08:30:27.289Z</time>
      </trkpt>
      <trkpt lat="38.026617" lon="-3.919815">
        <ele>270.795035</ele>
        <time>2020-08-10T08:30:30.292Z</time>
      </trkpt>
      <trkpt lat="38.026595" lon="-3.919977">
        <ele>271.266701</ele>
        <time>2020-08-10T08:30:33.290Z</time>
      </trkpt>
      <trkpt lat="38.026569" lon="-3.920138">
        <ele>271.738248</ele>
        <time>2020-08-10T08:30:36.287Z</time>
      </trkpt>
      <trkpt lat="38.026554" lon="-3.920290">
        <ele>272.177775</ele>
        <time>2020-08-10T08:30:39.282Z</time>
      </trkpt>
      <trkpt lat="38.026535" lon="-3.920431">
        <ele>272.588208</ele>
        <time>2020-08-10T08:30:42.278Z</time>
      </trkpt>
      <trkpt lat="38.026532" lon="-3.920553">
        <ele>272.938420</ele>
        <time>2020-08-10T08:30:45.287Z</time>
      </trkpt>
      <trkpt lat="38.026520" lon="-3.920674">
        <ele>273.288333</ele>
        <time>2020-08-10T08:30:48.288Z</time>
      </trkpt>
      <trkpt lat="38.026502" lon="-3.920801">
        <ele>273.658572</ele>
        <time>2020-08-10T08:30:51.278Z</time>
      </trkpt>
      <trkpt lat="38.026454" lon="-3.920935">
        <ele>274.080930</ele>
        <time>2020-08-10T08:30:54.288Z</time>
      </trkpt>
      <trkpt lat="38.026407" lon="-3.921065">
        <ele>274.491335</ele>
        <time>2020-08-10T08:30:57.271Z</time>
      </trkpt>
      <trkpt lat="38.026363" lon="-3.921176">
        <ele>274.847867</ele>
        <time>2020-08-10T08:31:00.294Z</time>
      </trkpt>
      <trkpt lat="38.026310" lon="-3.921284">
        <ele>275.212954</ele>
        <time>2020-08-10T08:31:03.271Z</time>
      </trkpt>
      <trkpt lat="38.026240" lon="-3.921403">
        <ele>275.639083</ele>
        <time>2020-08-10T08:31:06.282Z</time>
      </trkpt>
      <trkpt lat="38.026152" lon="-3.921504">
        <ele>276.071191</ele>
        <time>2020-08-10T08:31:08.279Z</time>
      </trkpt>
      <trkpt lat="38.026096" lon="-3.921594">
        <ele>276.400262</ele>
        <time>2020-08-10T08:31:10.273Z</time>
      </trkpt>
      <trkpt lat="38.025987" lon="-3.921715">
        <ele>276.927665</ele>
        <time>2020-08-10T08:31:13.277Z</time>
      </trkpt>
      <trkpt lat="38.025949" lon="-3.921835">
        <ele>277.216106</ele>
        <time>2020-08-10T08:31:15.281Z</time>
      </trkpt>
      <trkpt lat="38.025871" lon="-3.921936">
        <ele>277.189936</ele>
        <time>2020-08-10T08:31:17.295Z</time>
      </trkpt>
      <trkpt lat="38.025771" lon="-3.922032">
        <ele>277.160488</ele>
        <time>2020-08-10T08:31:19.276Z</time>
      </trkpt>
      <trkpt lat="38.025694" lon="-3.922116">
        <ele>277.136641</ele>
        <time>2020-08-10T08:31:21.272Z</time>
      </trkpt>
      <trkpt lat="38.025650" lon="-3.922222">
        <ele>277.114472</ele>
        <time>2020-08-10T08:31:23.277Z</time>
      </trkpt>
      <trkpt lat="38.025599" lon="-3.922353">
        <ele>277.087435</ele>
        <time>2020-08-10T08:31:25.278Z</time>
      </trkpt>
      <trkpt lat="38.025488" lon="-3.922437">
        <ele>277.057082</ele>
        <time>2020-08-10T08:31:27.288Z</time>
      </trkpt>
      <trkpt lat="38.025446" lon="-3.922576">
        <ele>277.029536</ele>
        <time>2020-08-10T08:31:29.281Z</time>
      </trkpt>
      <trkpt lat="38.025370" lon="-3.922722">
        <ele>276.997157</ele>
        <time>2020-08-10T08:31:31.284Z</time>
      </trkpt>
      <trkpt lat="38.025264" lon="-3.922872">
        <ele>276.959872</ele>
        <time>2020-08-10T08:31:33.283Z</time>
      </trkpt>
      <trkpt lat="38.025189" lon="-3.923031">
        <ele>276.925582</ele>
        <time>2020-08-10T08:31:35.283Z</time>
      </trkpt>
      <trkpt lat="38.025104" lon="-3.923175">
        <ele>276.892288</ele>
        <time>2020-08-10T08:31:37.277Z</time>
      </trkpt>
      <trkpt lat="38.025026" lon="-3.923232">
        <ele>276.871149</ele>
        <time>2020-08-10T08:31:38.279Z</time>
      </trkpt>
      <trkpt lat="38.024921" lon="-3.923361">
        <ele>276.836827</ele>
        <time>2020-08-10T08:31:40.286Z</time>
      </trkpt>
      <trkpt lat="38.024843" lon="-3.923496">
        <ele>276.805850</ele>
        <time>2020-08-10T08:31:42.285Z</time>
      </trkpt>
      <trkpt lat="38.024758" lon="-3.923627">
        <ele>276.744028</ele>
        <time>2020-08-10T08:31:44.276Z</time>
      </trkpt>
      <trkpt lat="38.024662" lon="-3.923748">
        <ele>276.672302</ele>
        <time>2020-08-10T08:31:46.286Z</time>
      </trkpt>
      <trkpt lat="38.024614" lon="-3.923895">
        <ele>276.605841</ele>
        <time>2020-08-10T08:31:48.280Z</time>
      </trkpt>
      <trkpt lat="38.024568" lon="-3.924005">
        <ele>276.553826</ele>
        <time>2020-08-10T08:31:50.286Z</time>
      </trkpt>
      <trkpt lat="38.024538" lon="-3.924141">
        <ele>276.494839</ele>
        <time>2020-08-10T08:31:52.284Z</time>
      </trkpt>
      <trkpt lat="38.024509" lon="-3.924274">
        <ele>276.437202</ele>
        <time>2020-08-10T08:31:54.276Z</time>
      </trkpt>
      <trkpt lat="38.024475" lon="-3.924409">
        <ele>276.378006</ele>
        <time>2020-08-10T08:31:56.278Z</time>
      </trkpt>
      <trkpt lat="38.024445" lon="-3.924555">
        <ele>276.314988</ele>
        <time>2020-08-10T08:31:58.288Z</time>
      </trkpt>
      <trkpt lat="38.024415" lon="-3.924674">
        <ele>276.262803</ele>
        <time>2020-08-10T08:32:00.291Z</time>
      </trkpt>
      <trkpt lat="38.024392" lon="-3.924802">
        <ele>276.207969</ele>
        <time>2020-08-10T08:32:02.282Z</time>
      </trkpt>
      <trkpt lat="38.024376" lon="-3.924929">
        <ele>276.154252</ele>
        <time>2020-08-10T08:32:04.302Z</time>
      </trkpt>
      <trkpt lat="38.024358" lon="-3.925060">
        <ele>276.098713</ele>
        <time>2020-08-10T08:32:06.290Z</time>
      </trkpt>
      <trkpt lat="38.024326" lon="-3.925199">
        <ele>276.038230</ele>
        <time>2020-08-10T08:32:08.288Z</time>
      </trkpt>
      <trkpt lat="38.024310" lon="-3.925325">
        <ele>275.984925</ele>
        <time>2020-08-10T08:32:10.288Z</time>
      </trkpt>
      <trkpt lat="38.024297" lon="-3.925443">
        <ele>275.935162</ele>
        <time>2020-08-10T08:32:12.277Z</time>
      </trkpt>
      <trkpt lat="38.024288" lon="-3.925567">
        <ele>275.883152</ele>
        <time>2020-08-10T08:32:14.278Z</time>
      </trkpt>
      <trkpt lat="38.024267" lon="-3.925707">
        <ele>275.749948</ele>
        <time>2020-08-10T08:32:16.280Z</time>
      </trkpt>
      <trkpt lat="38.024240" lon="-3.925844">
        <ele>275.487718</ele>
        <time>2020-08-10T08:32:18.284Z</time>
      </trkpt>
      <trkpt lat="38.024209" lon="-3.925976">
        <ele>275.231951</ele>
        <time>2020-08-10T08:32:20.294Z</time>
      </trkpt>
      <trkpt lat="38.024178" lon="-3.926127">
        <ele>274.942200</ele>
        <time>2020-08-10T08:32:22.279Z</time>
      </trkpt>
      <trkpt lat="38.024168" lon="-3.926271">
        <ele>274.673775</ele>
        <time>2020-08-10T08:32:24.278Z</time>
      </trkpt>
      <trkpt lat="38.024158" lon="-3.926400">
        <ele>274.433083</ele>
        <time>2020-08-10T08:32:26.277Z</time>
      </trkpt>
      <trkpt lat="38.024155" lon="-3.926530">
        <ele>274.191587</ele>
        <time>2020-08-10T08:32:28.285Z</time>
      </trkpt>
      <trkpt lat="38.024126" lon="-3.926671">
        <ele>273.920993</ele>
        <time>2020-08-10T08:32:30.284Z</time>
      </trkpt>
      <trkpt lat="38.024101" lon="-3.926815">
        <ele>273.647188</ele>
        <time>2020-08-10T08:32:32.294Z</time>
      </trkpt>
      <trkpt lat="38.024074" lon="-3.926969">
        <ele>273.354234</ele>
        <time>2020-08-10T08:32:34.276Z</time>
      </trkpt>
      <trkpt lat="38.024051" lon="-3.927096">
        <ele>273.112261</ele>
        <time>2020-08-10T08:32:36.281Z</time>
      </trkpt>
      <trkpt lat="38.024031" lon="-3.927228">
        <ele>272.862662</ele>
        <time>2020-08-10T08:32:38.282Z</time>
      </trkpt>
      <trkpt lat="38.023979" lon="-3.927369">
        <ele>272.573572</ele>
        <time>2020-08-10T08:32:40.283Z</time>
      </trkpt>
      <trkpt lat="38.023947" lon="-3.927517">
        <ele>272.288592</ele>
        <time>2020-08-10T08:32:42.276Z</time>
      </trkpt>
      <trkpt lat="38.023921" lon="-3.927651">
        <ele>272.032335</ele>
        <time>2020-08-10T08:32:44.286Z</time>
      </trkpt>
      <trkpt lat="38.023902" lon="-3.927785">
        <ele>271.779517</ele>
        <time>2020-08-10T08:32:46.274Z</time>
      </trkpt>
      <trkpt lat="38.023871" lon="-3.927924">
        <ele>271.638854</ele>
        <time>2020-08-10T08:32:48.290Z</time>
      </trkpt>
      <trkpt lat="38.023862" lon="-3.928065">
        <ele>271.732561</ele>
        <time>2020-08-10T08:32:50.282Z</time>
      </trkpt>
      <trkpt lat="38.023831" lon="-3.928214">
        <ele>271.834645</ele>
        <time>2020-08-10T08:32:52.274Z</time>
      </trkpt>
      <trkpt lat="38.023809" lon="-3.928364">
        <ele>271.935715</ele>
        <time>2020-08-10T08:32:54.289Z</time>
      </trkpt>
      <trkpt lat="38.023769" lon="-3.928522">
        <ele>272.045648</ele>
        <time>2020-08-10T08:32:56.285Z</time>
      </trkpt>
      <trkpt lat="38.023732" lon="-3.928682">
        <ele>272.156107</ele>
        <time>2020-08-10T08:32:58.289Z</time>
      </trkpt>
      <trkpt lat="38.023694" lon="-3.928834">
        <ele>272.261743</ele>
        <time>2020-08-10T08:33:00.286Z</time>
      </trkpt>
      <trkpt lat="38.023657" lon="-3.928985">
        <ele>272.366495</ele>
        <time>2020-08-10T08:33:02.292Z</time>
      </trkpt>
      <trkpt lat="38.023610" lon="-3.929145">
        <ele>272.479611</ele>
        <time>2020-08-10T08:33:04.278Z</time>
      </trkpt>
      <trkpt lat="38.023576" lon="-3.929297">
        <ele>272.584279</ele>
        <time>2020-08-10T08:33:06.284Z</time>
      </trkpt>
      <trkpt lat="38.023547" lon="-3.929442">
        <ele>272.683377</ele>
        <time>2020-08-10T08:33:08.288Z</time>
      </trkpt>
      <trkpt lat="38.023538" lon="-3.929573">
        <ele>272.770483</ele>
        <time>2020-08-10T08:33:10.278Z</time>
      </trkpt>
      <trkpt lat="38.023507" lon="-3.929717">
        <ele>272.869369</ele>
        <time>2020-08-10T08:33:12.298Z</time>
      </trkpt>
      <trkpt lat="38.023465" lon="-3.929855">
        <ele>272.967368</ele>
        <time>2020-08-10T08:33:14.280Z</time>
      </trkpt>
      <trkpt lat="38.023439" lon="-3.929986">
        <ele>273.056856</ele>
        <time>2020-08-10T08:33:16.280Z</time>
      </trkpt>
      <trkpt lat="38.023399" lon="-3.930133">
        <ele>273.169538</ele>
        <time>2020-08-10T08:33:18.280Z</time>
      </trkpt>
      <trkpt lat="38.023361" lon="-3.930282">
        <ele>273.297082</ele>
        <time>2020-08-10T08:33:20.275Z</time>
      </trkpt>
      <trkpt lat="38.023338" lon="-3.930419">
        <ele>273.411159</ele>
        <time>2020-08-10T08:33:22.285Z</time>
      </trkpt>
      <trkpt lat="38.023305" lon="-3.930570">
        <ele>273.538776</ele>
        <time>2020-08-10T08:33:24.296Z</time>
      </trkpt>
      <trkpt lat="38.023292" lon="-3.930694">
        <ele>273.640650</ele>
        <time>2020-08-10T08:33:26.280Z</time>
      </trkpt>
      <trkpt lat="38.023269" lon="-3.930833">
        <ele>273.756320</ele>
        <time>2020-08-10T08:33:28.293Z</time>
      </trkpt>
      <trkpt lat="38.023244" lon="-3.930971">
        <ele>273.871639</ele>
        <time>2020-08-10T08:33:30.302Z</time>
      </trkpt>
      <trkpt lat="38.023219" lon="-3.931111">
        <ele>273.988546</ele>
        <time>2020-08-10T08:33:32.274Z</time>
      </trkpt>
      <trkpt lat="38.023201" lon="-3.931252">
        <ele>274.104873</ele>
        <time>2020-08-10T08:33:34.289Z</time>
      </trkpt>
      <trkpt lat="38.023157" lon="-3.931404">
        <ele>274.236753</ele>
        <time>2020-08-10T08:33:36.287Z</time>
      </trkpt>
      <trkpt lat="38.023127" lon="-3.931549">
        <ele>274.358845</ele>
        <time>2020-08-10T08:33:38.288Z</time>
      </trkpt>
      <trkpt lat="38.023096" lon="-3.931699">
        <ele>274.485137</ele>
        <time>2020-08-10T08:33:40.284Z</time>
      </trkpt>
      <trkpt lat="38.023066" lon="-3.931858">
        <ele>274.618287</ele>
        <time>2020-08-10T08:33:42.277Z</time>
      </trkpt>
      <trkpt lat="38.023025" lon="-3.932018">
        <ele>274.755310</ele>
        <time>2020-08-10T08:33:44.282Z</time>
      </trkpt>
      <trkpt lat="38.022998" lon="-3.932183">
        <ele>274.892553</ele>
        <time>2020-08-10T08:33:46.296Z</time>
      </trkpt>
      <trkpt lat="38.022944" lon="-3.932354">
        <ele>274.864779</ele>
        <time>2020-08-10T08:33:48.279Z</time>
      </trkpt>
      <trkpt lat="38.022908" lon="-3.932516">
        <ele>274.629046</ele>
        <time>2020-08-10T08:33:50.277Z</time>
      </trkpt>
      <trkpt lat="38.022884" lon="-3.932690">
        <ele>274.381655</ele>
        <time>2020-08-10T08:33:52.286Z</time>
      </trkpt>
      <trkpt lat="38.022841" lon="-3.932861">
        <ele>274.130267</ele>
        <time>2020-08-10T08:33:54.283Z</time>
      </trkpt>
      <trkpt lat="38.022816" lon="-3.933010">
        <ele>273.916914</ele>
        <time>2020-08-10T08:33:56.288Z</time>
      </trkpt>
      <trkpt lat="38.022785" lon="-3.933157">
        <ele>273.703794</ele>
        <time>2020-08-10T08:33:58.278Z</time>
      </trkpt>
      <trkpt lat="38.022755" lon="-3.933305">
        <ele>273.489770</ele>
        <time>2020-08-10T08:34:00.284Z</time>
      </trkpt>
      <trkpt lat="38.022707" lon="-3.933458">
        <ele>273.259128</ele>
        <time>2020-08-10T08:34:02.285Z</time>
      </trkpt>
      <trkpt lat="38.022656" lon="-3.933621">
        <ele>273.013502</ele>
        <time>2020-08-10T08:34:04.282Z</time>
      </trkpt>
      <trkpt lat="38.022637" lon="-3.933766">
        <ele>272.807641</ele>
        <time>2020-08-10T08:34:06.286Z</time>
      </trkpt>
      <trkpt lat="38.022609" lon="-3.933904">
        <ele>272.608066</ele>
        <time>2020-08-10T08:34:08.275Z</time>
      </trkpt>
      <trkpt lat="38.022560" lon="-3.934070">
        <ele>272.359800</ele>
        <time>2020-08-10T08:34:10.282Z</time>
      </trkpt>
      <trkpt lat="38.022539" lon="-3.934203">
        <ele>272.169830</ele>
        <time>2020-08-10T08:34:12.295Z</time>
      </trkpt>
      <trkpt lat="38.022517" lon="-3.934343">
        <ele>271.969899</ele>
        <time>2020-08-10T08:34:14.287Z</time>
      </trkpt>
      <trkpt lat="38.022531" lon="-3.934467">
        <ele>271.794463</ele>
        <time>2020-08-10T08:34:16.287Z</time>
      </trkpt>
      <trkpt lat="38.022534" lon="-3.934600">
        <ele>272.045553</ele>
        <time>2020-08-10T08:34:18.288Z</time>
      </trkpt>
      <trkpt lat="38.022537" lon="-3.934723">
        <ele>272.312874</ele>
        <time>2020-08-10T08:34:20.285Z</time>
      </trkpt>
      <trkpt lat="38.022550" lon="-3.934853">
        <ele>272.597540</ele>
        <time>2020-08-10T08:34:22.291Z</time>
      </trkpt>
      <trkpt lat="38.022553" lon="-3.934993">
        <ele>272.901774</ele>
        <time>2020-08-10T08:34:24.292Z</time>
      </trkpt>
      <trkpt lat="38.022578" lon="-3.935111">
        <ele>273.167214</ele>
        <time>2020-08-10T08:34:26.282Z</time>
      </trkpt>
      <trkpt lat="38.022595" lon="-3.935253">
        <ele>273.479222</ele>
        <time>2020-08-10T08:34:28.282Z</time>
      </trkpt>
      <trkpt lat="38.022611" lon="-3.935394">
        <ele>273.788678</ele>
        <time>2020-08-10T08:34:30.288Z</time>
      </trkpt>
      <trkpt lat="38.022609" lon="-3.935533">
        <ele>274.090678</ele>
        <time>2020-08-10T08:34:32.288Z</time>
      </trkpt>
      <trkpt lat="38.022612" lon="-3.935666">
        <ele>274.379712</ele>
        <time>2020-08-10T08:34:34.296Z</time>
      </trkpt>
      <trkpt lat="38.022633" lon="-3.935796">
        <ele>274.667987</ele>
        <time>2020-08-10T08:34:36.288Z</time>
      </trkpt>
      <trkpt lat="38.022654" lon="-3.935928">
        <ele>274.960519</ele>
        <time>2020-08-10T08:34:38.295Z</time>
      </trkpt>
      <trkpt lat="38.022658" lon="-3.936060">
        <ele>275.247474</ele>
        <time>2020-08-10T08:34:40.304Z</time>
      </trkpt>
      <trkpt lat="38.022673" lon="-3.936192">
        <ele>275.537185</ele>
        <time>2020-08-10T08:34:42.282Z</time>
      </trkpt>
      <trkpt lat="38.022685" lon="-3.936304">
        <ele>275.782722</ele>
        <time>2020-08-10T08:34:44.285Z</time>
      </trkpt>
      <trkpt lat="38.022693" lon="-3.936425">
        <ele>276.046494</ele>
        <time>2020-08-10T08:34:46.290Z</time>
      </trkpt>
      <trkpt lat="38.022701" lon="-3.936556">
        <ele>276.331919</ele>
        <time>2020-08-10T08:34:48.296Z</time>
      </trkpt>
      <trkpt lat="38.022703" lon="-3.936693">
        <ele>276.629574</ele>
        <time>2020-08-10T08:34:50.280Z</time>
      </trkpt>
      <trkpt lat="38.022718" lon="-3.936812">
        <ele>276.890882</ele>
        <time>2020-08-10T08:34:52.285Z</time>
      </trkpt>
      <trkpt lat="38.022740" lon="-3.936926">
        <ele>277.145035</ele>
        <time>2020-08-10T08:34:54.276Z</time>
      </trkpt>
      <trkpt lat="38.022750" lon="-3.937043">
        <ele>277.399871</ele>
        <time>2020-08-10T08:34:56.285Z</time>
      </trkpt>
      <trkpt lat="38.022764" lon="-3.937159">
        <ele>277.653986</ele>
        <time>2020-08-10T08:34:58.289Z</time>
      </trkpt>
      <trkpt lat="38.022768" lon="-3.937277">
        <ele>277.909738</ele>
        <time>2020-08-10T08:35:00.297Z</time>
      </trkpt>
      <trkpt lat="38.022780" lon="-3.937432">
        <ele>278.246989</ele>
        <time>2020-08-10T08:35:03.284Z</time>
      </trkpt>
      <trkpt lat="38.022793" lon="-3.937587">
        <ele>278.584520</ele>
        <time>2020-08-10T08:35:06.287Z</time>
      </trkpt>
      <trkpt lat="38.022806" lon="-3.937745">
        <ele>278.928511</ele>
        <time>2020-08-10T08:35:09.291Z</time>
      </trkpt>
      <trkpt lat="38.022824" lon="-3.937888">
        <ele>279.242088</ele>
        <time>2020-08-10T08:35:12.302Z</time>
      </trkpt>
      <trkpt lat="38.022844" lon="-3.938036">
        <ele>279.567245</ele>
        <time>2020-08-10T08:35:15.278Z</time>
      </trkpt>
      <trkpt lat="38.022861" lon="-3.938192">
        <ele>279.908261</ele>
        <time>2020-08-10T08:35:18.287Z</time>
      </trkpt>
      <trkpt lat="38.022865" lon="-3.938374">
        <ele>280.302513</ele>
        <time>2020-08-10T08:35:21.283Z</time>
      </trkpt>
      <trkpt lat="38.022913" lon="-3.938532">
        <ele>280.669202</ele>
        <time>2020-08-10T08:35:24.302Z</time>
      </trkpt>
      <trkpt lat="38.022921" lon="-3.938652">
        <ele>280.929976</ele>
        <time>2020-08-10T08:35:26.306Z</time>
      </trkpt>
      <trkpt lat="38.022924" lon="-3.938773">
        <ele>281.192117</ele>
        <time>2020-08-10T08:35:28.289Z</time>
      </trkpt>
      <trkpt lat="38.022928" lon="-3.938901">
        <ele>281.469503</ele>
        <time>2020-08-10T08:35:30.296Z</time>
      </trkpt>
      <trkpt lat="38.022947" lon="-3.939061">
        <ele>281.722143</ele>
        <time>2020-08-10T08:35:33.283Z</time>
      </trkpt>
      <trkpt lat="38.022964" lon="-3.939224">
        <ele>281.823110</ele>
        <time>2020-08-10T08:35:36.286Z</time>
      </trkpt>
      <trkpt lat="38.022971" lon="-3.939342">
        <ele>281.895776</ele>
        <time>2020-08-10T08:35:38.300Z</time>
      </trkpt>
      <trkpt lat="38.022973" lon="-3.939466">
        <ele>281.971937</ele>
        <time>2020-08-10T08:35:40.276Z</time>
      </trkpt>
      <trkpt lat="38.022988" lon="-3.939582">
        <ele>282.044123</ele>
        <time>2020-08-10T08:35:42.288Z</time>
      </trkpt>
      <trkpt lat="38.022996" lon="-3.939702">
        <ele>282.118075</ele>
        <time>2020-08-10T08:35:44.297Z</time>
      </trkpt>
      <trkpt lat="38.022996" lon="-3.939829">
        <ele>282.196063</ele>
        <time>2020-08-10T08:35:46.293Z</time>
      </trkpt>
      <trkpt lat="38.023020" lon="-3.939952">
        <ele>282.273876</ele>
        <time>2020-08-10T08:35:48.285Z</time>
      </trkpt>
      <trkpt lat="38.023038" lon="-3.940067">
        <ele>282.345875</ele>
        <time>2020-08-10T08:35:50.291Z</time>
      </trkpt>
      <trkpt lat="38.023078" lon="-3.940178">
        <ele>282.420831</ele>
        <time>2020-08-10T08:35:52.285Z</time>
      </trkpt>
      <trkpt lat="38.023100" lon="-3.940291">
        <ele>282.492309</ele>
        <time>2020-08-10T08:35:54.286Z</time>
      </trkpt>
      <trkpt lat="38.023116" lon="-3.940420">
        <ele>282.572500</ele>
        <time>2020-08-10T08:35:56.280Z</time>
      </trkpt>
      <trkpt lat="38.023121" lon="-3.940547">
        <ele>282.650584</ele>
        <time>2020-08-10T08:35:58.285Z</time>
      </trkpt>
      <trkpt lat="38.023140" lon="-3.940672">
        <ele>282.728759</ele>
        <time>2020-08-10T08:36:00.285Z</time>
      </trkpt>
      <trkpt lat="38.023168" lon="-3.940799">
        <ele>282.809743</ele>
        <time>2020-08-10T08:36:02.294Z</time>
      </trkpt>
      <trkpt lat="38.023184" lon="-3.940932">
        <ele>282.892362</ele>
        <time>2020-08-10T08:36:04.269Z</time>
      </trkpt>
      <trkpt lat="38.023211" lon="-3.941046">
        <ele>282.965461</ele>
        <time>2020-08-10T08:36:06.287Z</time>
      </trkpt>
      <trkpt lat="38.023220" lon="-3.941172">
        <ele>283.043152</ele>
        <time>2020-08-10T08:36:08.285Z</time>
      </trkpt>
      <trkpt lat="38.023194" lon="-3.941311">
        <ele>283.087458</ele>
        <time>2020-08-10T08:36:10.292Z</time>
      </trkpt>
      <trkpt lat="38.023210" lon="-3.941431">
        <ele>283.090642</ele>
        <time>2020-08-10T08:36:12.295Z</time>
      </trkpt>
      <trkpt lat="38.023221" lon="-3.941553">
        <ele>283.093855</ele>
        <time>2020-08-10T08:36:14.291Z</time>
      </trkpt>
      <trkpt lat="38.023221" lon="-3.941680">
        <ele>283.097178</ele>
        <time>2020-08-10T08:36:16.281Z</time>
      </trkpt>
      <trkpt lat="38.023201" lon="-3.941820">
        <ele>283.100900</ele>
        <time>2020-08-10T08:36:18.280Z</time>
      </trkpt>
      <trkpt lat="38.023208" lon="-3.941942">
        <ele>283.104101</ele>
        <time>2020-08-10T08:36:20.282Z</time>
      </trkpt>
      <trkpt lat="38.023240" lon="-3.942052">
        <ele>283.107169</ele>
        <time>2020-08-10T08:36:22.286Z</time>
      </trkpt>
      <trkpt lat="38.023254" lon="-3.942167">
        <ele>283.110213</ele>
        <time>2020-08-10T08:36:24.296Z</time>
      </trkpt>
      <trkpt lat="38.023256" lon="-3.942293">
        <ele>283.113511</ele>
        <time>2020-08-10T08:36:26.297Z</time>
      </trkpt>
      <trkpt lat="38.023264" lon="-3.942416">
        <ele>283.116740</ele>
        <time>2020-08-10T08:36:28.288Z</time>
      </trkpt>
      <trkpt lat="38.023283" lon="-3.942540">
        <ele>283.120045</ele>
        <time>2020-08-10T08:36:30.291Z</time>
      </trkpt>
      <trkpt lat="38.023303" lon="-3.942658">
        <ele>283.123203</ele>
        <time>2020-08-10T08:36:32.281Z</time>
      </trkpt>
      <trkpt lat="38.023316" lon="-3.942786">
        <ele>283.126579</ele>
        <time>2020-08-10T08:36:34.281Z</time>
      </trkpt>
      <trkpt lat="38.023333" lon="-3.942900">
        <ele>283.129615</ele>
        <time>2020-08-10T08:36:36.279Z</time>
      </trkpt>
      <trkpt lat="38.023350" lon="-3.943018">
        <ele>283.132754</ele>
        <time>2020-08-10T08:36:38.276Z</time>
      </trkpt>
      <trkpt lat="38.023373" lon="-3.943140">
        <ele>283.136036</ele>
        <time>2020-08-10T08:36:40.278Z</time>
      </trkpt>
      <trkpt lat="38.023401" lon="-3.943267">
        <ele>283.139486</ele>
        <time>2020-08-10T08:36:42.285Z</time>
      </trkpt>
      <trkpt lat="38.023433" lon="-3.943396">
        <ele>283.143025</ele>
        <time>2020-08-10T08:36:44.289Z</time>
      </trkpt>
      <trkpt lat="38.023463" lon="-3.943512">
        <ele>283.129517</ele>
        <time>2020-08-10T08:36:46.279Z</time>
      </trkpt>
      <trkpt lat="38.023499" lon="-3.943633">
        <ele>283.073767</ele>
        <time>2020-08-10T08:36:48.290Z</time>
      </trkpt>
      <trkpt lat="38.023533" lon="-3.943761">
        <ele>283.015543</ele>
        <time>2020-08-10T08:36:50.284Z</time>
      </trkpt>
      <trkpt lat="38.023548" lon="-3.943905">
        <ele>282.952934</ele>
        <time>2020-08-10T08:36:52.296Z</time>
      </trkpt>
      <trkpt lat="38.023590" lon="-3.944034">
        <ele>282.892769</ele>
        <time>2020-08-10T08:36:54.274Z</time>
      </trkpt>
      <trkpt lat="38.023606" lon="-3.944177">
        <ele>282.830514</ele>
        <time>2020-08-10T08:36:56.287Z</time>
      </trkpt>
      <trkpt lat="38.023628" lon="-3.944316">
        <ele>282.769403</ele>
        <time>2020-08-10T08:36:58.288Z</time>
      </trkpt>
      <trkpt lat="38.023660" lon="-3.944446">
        <ele>282.710697</ele>
        <time>2020-08-10T08:37:00.300Z</time>
      </trkpt>
      <trkpt lat="38.023674" lon="-3.944574">
        <ele>282.654996</ele>
        <time>2020-08-10T08:37:02.292Z</time>
      </trkpt>
      <trkpt lat="38.023702" lon="-3.944716">
        <ele>282.591902</ele>
        <time>2020-08-10T08:37:04.283Z</time>
      </trkpt>
      <trkpt lat="38.023720" lon="-3.944861">
        <ele>282.528631</ele>
        <time>2020-08-10T08:37:06.282Z</time>
      </trkpt>
      <trkpt lat="38.023754" lon="-3.945000">
        <ele>282.465897</ele>
        <time>2020-08-10T08:37:08.287Z</time>
      </trkpt>
      <trkpt lat="38.023782" lon="-3.945137">
        <ele>282.404891</ele>
        <time>2020-08-10T08:37:10.283Z</time>
      </trkpt>
      <trkpt lat="38.023800" lon="-3.945270">
        <ele>282.346724</ele>
        <time>2020-08-10T08:37:12.287Z</time>
      </trkpt>
      <trkpt lat="38.023819" lon="-3.945424">
        <ele>282.279536</ele>
        <time>2020-08-10T08:37:14.285Z</time>
      </trkpt>
      <trkpt lat="38.023856" lon="-3.945554">
        <ele>282.219957</ele>
        <time>2020-08-10T08:37:16.272Z</time>
      </trkpt>
      <trkpt lat="38.023888" lon="-3.945693">
        <ele>282.168122</ele>
        <time>2020-08-10T08:37:18.287Z</time>
      </trkpt>
      <trkpt lat="38.023903" lon="-3.945834">
        <ele>282.288222</ele>
        <time>2020-08-10T08:37:20.276Z</time>
      </trkpt>
      <trkpt lat="38.023927" lon="-3.945960">
        <ele>282.397644</ele>
        <time>2020-08-10T08:37:22.287Z</time>
      </trkpt>
      <trkpt lat="38.023954" lon="-3.946097">
        <ele>282.516851</ele>
        <time>2020-08-10T08:37:24.276Z</time>
      </trkpt>
      <trkpt lat="38.023979" lon="-3.946232">
        <ele>282.633911</ele>
        <time>2020-08-10T08:37:26.285Z</time>
      </trkpt>
      <trkpt lat="38.024005" lon="-3.946369">
        <ele>282.752862</ele>
        <time>2020-08-10T08:37:28.278Z</time>
      </trkpt>
      <trkpt lat="38.024032" lon="-3.946498">
        <ele>282.865530</ele>
        <time>2020-08-10T08:37:30.282Z</time>
      </trkpt>
      <trkpt lat="38.024050" lon="-3.946633">
        <ele>282.981105</ele>
        <time>2020-08-10T08:37:32.280Z</time>
      </trkpt>
      <trkpt lat="38.024093" lon="-3.946753">
        <ele>283.092384</ele>
        <time>2020-08-10T08:37:34.266Z</time>
      </trkpt>
      <trkpt lat="38.024133" lon="-3.946870">
        <ele>283.200044</ele>
        <time>2020-08-10T08:37:36.281Z</time>
      </trkpt>
      <trkpt lat="38.024160" lon="-3.946992">
        <ele>283.307012</ele>
        <time>2020-08-10T08:37:38.280Z</time>
      </trkpt>
      <trkpt lat="38.024175" lon="-3.947120">
        <ele>283.416246</ele>
        <time>2020-08-10T08:37:40.291Z</time>
      </trkpt>
      <trkpt lat="38.024199" lon="-3.947258">
        <ele>283.535537</ele>
        <time>2020-08-10T08:37:42.292Z</time>
      </trkpt>
      <trkpt lat="38.024229" lon="-3.947399">
        <ele>283.658820</ele>
        <time>2020-08-10T08:37:44.278Z</time>
      </trkpt>
      <trkpt lat="38.024274" lon="-3.947527">
        <ele>283.777137</ele>
        <time>2020-08-10T08:37:46.283Z</time>
      </trkpt>
      <trkpt lat="38.024308" lon="-3.947671">
        <ele>283.904030</ele>
        <time>2020-08-10T08:37:48.292Z</time>
      </trkpt>
      <trkpt lat="38.024331" lon="-3.947816">
        <ele>284.028881</ele>
        <time>2020-08-10T08:37:50.295Z</time>
      </trkpt>
      <trkpt lat="38.024357" lon="-3.947970">
        <ele>283.718626</ele>
        <time>2020-08-10T08:37:52.283Z</time>
      </trkpt>
      <trkpt lat="38.024372" lon="-3.948128">
        <ele>283.041827</ele>
        <time>2020-08-10T08:37:54.281Z</time>
      </trkpt>
      <trkpt lat="38.024373" lon="-3.948304">
        <ele>282.293321</ele>
        <time>2020-08-10T08:37:56.275Z</time>
      </trkpt>
      <trkpt lat="38.024350" lon="-3.948481">
        <ele>281.530410</ele>
        <time>2020-08-10T08:37:58.286Z</time>
      </trkpt>
      <trkpt lat="38.024291" lon="-3.948661">
        <ele>280.701289</ele>
        <time>2020-08-10T08:38:00.281Z</time>
      </trkpt>
      <trkpt lat="38.024263" lon="-3.948819">
        <ele>280.012559</ele>
        <time>2020-08-10T08:38:02.291Z</time>
      </trkpt>
      <trkpt lat="38.024202" lon="-3.949021">
        <ele>279.092541</ele>
        <time>2020-08-10T08:38:04.279Z</time>
      </trkpt>
      <trkpt lat="38.024154" lon="-3.949154">
        <ele>278.470387</ele>
        <time>2020-08-10T08:38:05.749Z</time>
      </trkpt>
      <trkpt lat="38.024116" lon="-3.949261">
        <ele>277.971235</ele>
        <time>2020-08-10T08:38:06.761Z</time>
      </trkpt>
      <trkpt lat="38.024103" lon="-3.949376">
        <ele>277.477155</ele>
        <time>2020-08-10T08:38:07.768Z</time>
      </trkpt>
      <trkpt lat="38.024079" lon="-3.949591">
        <ele>276.553673</ele>
        <time>2020-08-10T08:38:09.767Z</time>
      </trkpt>
      <trkpt lat="38.024084" lon="-3.949707">
        <ele>276.059613</ele>
        <time>2020-08-10T08:38:10.760Z</time>
      </trkpt>
      <trkpt lat="38.024099" lon="-3.949835">
        <ele>275.509267</ele>
        <time>2020-08-10T08:38:11.752Z</time>
      </trkpt>
      <trkpt lat="38.024101" lon="-3.949971">
        <ele>274.930789</ele>
        <time>2020-08-10T08:38:12.749Z</time>
      </trkpt>
      <trkpt lat="38.024123" lon="-3.950088">
        <ele>274.419235</ele>
        <time>2020-08-10T08:38:13.752Z</time>
      </trkpt>
      <trkpt lat="38.024125" lon="-3.950220">
        <ele>274.018286</ele>
        <time>2020-08-10T08:38:14.753Z</time>
      </trkpt>
      <trkpt lat="38.024145" lon="-3.950346">
        <ele>273.640257</ele>
        <time>2020-08-10T08:38:15.750Z</time>
      </trkpt>
      <trkpt lat="38.024173" lon="-3.950467">
        <ele>273.269345</ele>
        <time>2020-08-10T08:38:16.752Z</time>
      </trkpt>
      <trkpt lat="38.024185" lon="-3.950600">
        <ele>272.875619</ele>
        <time>2020-08-10T08:38:17.754Z</time>
      </trkpt>
      <trkpt lat="38.024201" lon="-3.950718">
        <ele>272.523464</ele>
        <time>2020-08-10T08:38:18.756Z</time>
      </trkpt>
      <trkpt lat="38.024221" lon="-3.950851">
        <ele>272.125232</ele>
        <time>2020-08-10T08:38:19.758Z</time>
      </trkpt>
      <trkpt lat="38.024238" lon="-3.950981">
        <ele>271.737655</ele>
        <time>2020-08-10T08:38:20.753Z</time>
      </trkpt>
      <trkpt lat="38.024255" lon="-3.951114">
        <ele>271.341371</ele>
        <time>2020-08-10T08:38:21.750Z</time>
      </trkpt>
      <trkpt lat="38.024278" lon="-3.951246">
        <ele>270.943760</ele>
        <time>2020-08-10T08:38:22.750Z</time>
      </trkpt>
      <trkpt lat="38.024294" lon="-3.951391">
        <ele>270.513136</ele>
        <time>2020-08-10T08:38:23.751Z</time>
      </trkpt>
      <trkpt lat="38.024310" lon="-3.951529">
        <ele>270.102890</ele>
        <time>2020-08-10T08:38:24.745Z</time>
      </trkpt>
      <trkpt lat="38.024325" lon="-3.951653">
        <ele>269.733917</ele>
        <time>2020-08-10T08:38:25.746Z</time>
      </trkpt>
      <trkpt lat="38.024341" lon="-3.951784">
        <ele>269.344028</ele>
        <time>2020-08-10T08:38:26.749Z</time>
      </trkpt>
      <trkpt lat="38.024351" lon="-3.951917">
        <ele>268.951083</ele>
        <time>2020-08-10T08:38:27.745Z</time>
      </trkpt>
      <trkpt lat="38.024376" lon="-3.952035">
        <ele>268.591699</ele>
        <time>2020-08-10T08:38:28.748Z</time>
      </trkpt>
      <trkpt lat="38.024383" lon="-3.952149">
        <ele>268.255396</ele>
        <time>2020-08-10T08:38:29.748Z</time>
      </trkpt>
      <trkpt lat="38.024400" lon="-3.952267">
        <ele>267.902589</ele>
        <time>2020-08-10T08:38:30.754Z</time>
      </trkpt>
      <trkpt lat="38.024447" lon="-3.952477">
        <ele>267.828019</ele>
        <time>2020-08-10T08:38:32.749Z</time>
      </trkpt>
      <trkpt lat="38.024476" lon="-3.952696">
        <ele>268.096089</ele>
        <time>2020-08-10T08:38:34.754Z</time>
      </trkpt>
      <trkpt lat="38.024508" lon="-3.952901">
        <ele>268.348361</ele>
        <time>2020-08-10T08:38:36.743Z</time>
      </trkpt>
      <trkpt lat="38.024537" lon="-3.953099">
        <ele>268.591467</ele>
        <time>2020-08-10T08:38:38.755Z</time>
      </trkpt>
      <trkpt lat="38.024562" lon="-3.953296">
        <ele>268.832337</ele>
        <time>2020-08-10T08:38:40.755Z</time>
      </trkpt>
      <trkpt lat="38.024591" lon="-3.953492">
        <ele>269.073070</ele>
        <time>2020-08-10T08:38:42.762Z</time>
      </trkpt>
      <trkpt lat="38.024614" lon="-3.953672">
        <ele>269.293192</ele>
        <time>2020-08-10T08:38:44.755Z</time>
      </trkpt>
      <trkpt lat="38.024642" lon="-3.953850">
        <ele>269.512302</ele>
        <time>2020-08-10T08:38:46.752Z</time>
      </trkpt>
      <trkpt lat="38.024662" lon="-3.954034">
        <ele>269.736516</ele>
        <time>2020-08-10T08:38:48.753Z</time>
      </trkpt>
      <trkpt lat="38.024690" lon="-3.954205">
        <ele>269.947346</ele>
        <time>2020-08-10T08:38:50.752Z</time>
      </trkpt>
      <trkpt lat="38.024723" lon="-3.954367">
        <ele>270.149332</ele>
        <time>2020-08-10T08:38:52.757Z</time>
      </trkpt>
      <trkpt lat="38.024757" lon="-3.954521">
        <ele>270.342392</ele>
        <time>2020-08-10T08:38:54.751Z</time>
      </trkpt>
      <trkpt lat="38.024787" lon="-3.954677">
        <ele>270.449238</ele>
        <time>2020-08-10T08:38:56.751Z</time>
      </trkpt>
      <trkpt lat="38.024800" lon="-3.954845">
        <ele>270.501706</ele>
        <time>2020-08-10T08:38:58.774Z</time>
      </trkpt>
      <trkpt lat="38.024823" lon="-3.955006">
        <ele>270.552563</ele>
        <time>2020-08-10T08:39:00.747Z</time>
      </trkpt>
      <trkpt lat="38.024847" lon="-3.955162">
        <ele>270.601965</ele>
        <time>2020-08-10T08:39:02.755Z</time>
      </trkpt>
      <trkpt lat="38.024860" lon="-3.955315">
        <ele>270.649795</ele>
        <time>2020-08-10T08:39:04.752Z</time>
      </trkpt>
      <trkpt lat="38.024882" lon="-3.955464">
        <ele>270.696913</ele>
        <time>2020-08-10T08:39:06.762Z</time>
      </trkpt>
      <trkpt lat="38.024893" lon="-3.955623">
        <ele>270.746522</ele>
        <time>2020-08-10T08:39:08.759Z</time>
      </trkpt>
      <trkpt lat="38.024911" lon="-3.955784">
        <ele>270.797064</ele>
        <time>2020-08-10T08:39:10.753Z</time>
      </trkpt>
      <trkpt lat="38.024944" lon="-3.955923">
        <ele>270.842186</ele>
        <time>2020-08-10T08:39:12.755Z</time>
      </trkpt>
      <trkpt lat="38.024960" lon="-3.956059">
        <ele>270.884925</ele>
        <time>2020-08-10T08:39:14.767Z</time>
      </trkpt>
      <trkpt lat="38.024975" lon="-3.956192">
        <ele>270.926684</ele>
        <time>2020-08-10T08:39:16.758Z</time>
      </trkpt>
      <trkpt lat="38.024997" lon="-3.956332">
        <ele>270.971055</ele>
        <time>2020-08-10T08:39:18.764Z</time>
      </trkpt>
      <trkpt lat="38.025002" lon="-3.956471">
        <ele>271.014303</ele>
        <time>2020-08-10T08:39:20.750Z</time>
      </trkpt>
      <trkpt lat="38.025002" lon="-3.956609">
        <ele>271.057195</ele>
        <time>2020-08-10T08:39:22.763Z</time>
      </trkpt>
      <trkpt lat="38.025025" lon="-3.956740">
        <ele>271.098910</ele>
        <time>2020-08-10T08:39:24.750Z</time>
      </trkpt>
      <trkpt lat="38.025044" lon="-3.956888">
        <ele>271.116017</ele>
        <time>2020-08-10T08:39:26.752Z</time>
      </trkpt>
      <trkpt lat="38.025073" lon="-3.957032">
        <ele>271.080973</ele>
        <time>2020-08-10T08:39:28.758Z</time>
      </trkpt>
      <trkpt lat="38.025095" lon="-3.957178">
        <ele>271.045926</ele>
        <time>2020-08-10T08:39:30.756Z</time>
      </trkpt>
      <trkpt lat="38.025106" lon="-3.957325">
        <ele>271.011111</ele>
        <time>2020-08-10T08:39:32.751Z</time>
      </trkpt>
      <trkpt lat="38.025120" lon="-3.957494">
        <ele>270.971045</ele>
        <time>2020-08-10T08:39:34.759Z</time>
      </trkpt>
      <trkpt lat="38.025126" lon="-3.957650">
        <ele>270.934221</ele>
        <time>2020-08-10T08:39:36.771Z</time>
      </trkpt>
      <trkpt lat="38.025164" lon="-3.957789">
        <ele>270.899531</ele>
        <time>2020-08-10T08:39:38.766Z</time>
      </trkpt>
      <trkpt lat="38.025176" lon="-3.957947">
        <ele>270.862105</ele>
        <time>2020-08-10T08:39:40.764Z</time>
      </trkpt>
      <trkpt lat="38.025211" lon="-3.958084">
        <ele>270.828148</ele>
        <time>2020-08-10T08:39:42.747Z</time>
      </trkpt>
      <trkpt lat="38.025235" lon="-3.958245">
        <ele>270.789515</ele>
        <time>2020-08-10T08:39:44.753Z</time>
      </trkpt>
      <trkpt lat="38.025257" lon="-3.958387">
        <ele>270.755393</ele>
        <time>2020-08-10T08:39:46.767Z</time>
      </trkpt>
      <trkpt lat="38.025275" lon="-3.958634">
        <ele>270.696909</ele>
        <time>2020-08-10T08:39:49.759Z</time>
      </trkpt>
      <trkpt lat="38.025307" lon="-3.958776">
        <ele>270.662086</ele>
        <time>2020-08-10T08:39:51.750Z</time>
      </trkpt>
      <trkpt lat="38.025327" lon="-3.958922">
        <ele>270.627146</ele>
        <time>2020-08-10T08:39:53.749Z</time>
      </trkpt>
      <trkpt lat="38.025360" lon="-3.959060">
        <ele>270.593143</ele>
        <time>2020-08-10T08:39:55.755Z</time>
      </trkpt>
      <trkpt lat="38.025386" lon="-3.959195">
        <ele>270.418260</ele>
        <time>2020-08-10T08:39:57.758Z</time>
      </trkpt>
      <trkpt lat="38.025406" lon="-3.959339">
        <ele>270.220595</ele>
        <time>2020-08-10T08:39:59.753Z</time>
      </trkpt>
      <trkpt lat="38.025424" lon="-3.959491">
        <ele>270.012809</ele>
        <time>2020-08-10T08:40:01.751Z</time>
      </trkpt>
      <trkpt lat="38.025455" lon="-3.959624">
        <ele>269.825311</ele>
        <time>2020-08-10T08:40:03.753Z</time>
      </trkpt>
      <trkpt lat="38.025475" lon="-3.959763">
        <ele>269.634298</ele>
        <time>2020-08-10T08:40:05.758Z</time>
      </trkpt>
      <trkpt lat="38.025471" lon="-3.959926">
        <ele>269.413844</ele>
        <time>2020-08-10T08:40:07.765Z</time>
      </trkpt>
      <trkpt lat="38.025487" lon="-3.960059">
        <ele>269.231967</ele>
        <time>2020-08-10T08:40:09.751Z</time>
      </trkpt>
      <trkpt lat="38.025483" lon="-3.960206">
        <ele>269.033131</ele>
        <time>2020-08-10T08:40:11.762Z</time>
      </trkpt>
      <trkpt lat="38.025459" lon="-3.960350">
        <ele>268.834159</ele>
        <time>2020-08-10T08:40:13.740Z</time>
      </trkpt>
      <trkpt lat="38.025403" lon="-3.960526">
        <ele>268.577563</ele>
        <time>2020-08-10T08:40:15.738Z</time>
      </trkpt>
      <trkpt lat="38.025366" lon="-3.960688">
        <ele>268.349548</ele>
        <time>2020-08-10T08:40:17.741Z</time>
      </trkpt>
      <trkpt lat="38.025324" lon="-3.960842">
        <ele>268.129243</ele>
        <time>2020-08-10T08:40:19.756Z</time>
      </trkpt>
      <trkpt lat="38.025280" lon="-3.960994">
        <ele>267.910331</ele>
        <time>2020-08-10T08:40:21.754Z</time>
      </trkpt>
      <trkpt lat="38.025241" lon="-3.961134">
        <ele>267.709590</ele>
        <time>2020-08-10T08:40:23.747Z</time>
      </trkpt>
      <trkpt lat="38.025209" lon="-3.961259">
        <ele>267.531912</ele>
        <time>2020-08-10T08:40:25.760Z</time>
      </trkpt>
      <trkpt lat="38.025167" lon="-3.961410">
        <ele>267.507214</ele>
        <time>2020-08-10T08:40:27.755Z</time>
      </trkpt>
      <trkpt lat="38.025118" lon="-3.961578">
        <ele>267.511636</ele>
        <time>2020-08-10T08:40:29.746Z</time>
      </trkpt>
      <trkpt lat="38.025076" lon="-3.961721">
        <ele>267.515403</ele>
        <time>2020-08-10T08:40:31.767Z</time>
      </trkpt>
      <trkpt lat="38.025043" lon="-3.961870">
        <ele>267.519222</ele>
        <time>2020-08-10T08:40:33.755Z</time>
      </trkpt>
      <trkpt lat="38.024999" lon="-3.962028">
        <ele>267.523359</ele>
        <time>2020-08-10T08:40:35.752Z</time>
      </trkpt>
      <trkpt lat="38.024977" lon="-3.962157">
        <ele>267.526616</ele>
        <time>2020-08-10T08:40:37.770Z</time>
      </trkpt>
      <trkpt lat="38.024978" lon="-3.962293">
        <ele>267.529973</ele>
        <time>2020-08-10T08:40:39.749Z</time>
      </trkpt>
      <trkpt lat="38.024965" lon="-3.962460">
        <ele>267.534114</ele>
        <time>2020-08-10T08:40:41.752Z</time>
      </trkpt>
      <trkpt lat="38.024990" lon="-3.962599">
        <ele>267.537633</ele>
        <time>2020-08-10T08:40:43.745Z</time>
      </trkpt>
      <trkpt lat="38.024995" lon="-3.962756">
        <ele>267.541511</ele>
        <time>2020-08-10T08:40:45.760Z</time>
      </trkpt>
      <trkpt lat="38.025011" lon="-3.962888">
        <ele>267.544808</ele>
        <time>2020-08-10T08:40:47.761Z</time>
      </trkpt>
      <trkpt lat="38.025019" lon="-3.963041">
        <ele>267.548592</ele>
        <time>2020-08-10T08:40:49.759Z</time>
      </trkpt>
      <trkpt lat="38.025019" lon="-3.963192">
        <ele>267.552319</ele>
        <time>2020-08-10T08:40:51.761Z</time>
      </trkpt>
      <trkpt lat="38.025010" lon="-3.963376">
        <ele>267.556869</ele>
        <time>2020-08-10T08:40:53.762Z</time>
      </trkpt>
      <trkpt lat="38.025002" lon="-3.963522">
        <ele>267.568704</ele>
        <time>2020-08-10T08:40:55.749Z</time>
      </trkpt>
      <trkpt lat="38.025001" lon="-3.963689">
        <ele>267.669098</ele>
        <time>2020-08-10T08:40:57.751Z</time>
      </trkpt>
      <trkpt lat="38.025014" lon="-3.963823">
        <ele>267.750259</ele>
        <time>2020-08-10T08:40:59.762Z</time>
      </trkpt>
      <trkpt lat="38.025000" lon="-3.963973">
        <ele>267.841062</ele>
        <time>2020-08-10T08:41:01.750Z</time>
      </trkpt>
      <trkpt lat="38.025028" lon="-3.964099">
        <ele>267.919762</ele>
        <time>2020-08-10T08:41:03.756Z</time>
      </trkpt>
      <trkpt lat="38.025032" lon="-3.964266">
        <ele>268.020200</ele>
        <time>2020-08-10T08:41:05.753Z</time>
      </trkpt>
      <trkpt lat="38.025048" lon="-3.964397">
        <ele>268.099890</ele>
        <time>2020-08-10T08:41:07.750Z</time>
      </trkpt>
      <trkpt lat="38.025059" lon="-3.964546">
        <ele>268.189853</ele>
        <time>2020-08-10T08:41:09.761Z</time>
      </trkpt>
      <trkpt lat="38.025065" lon="-3.964696">
        <ele>268.280141</ele>
        <time>2020-08-10T08:41:11.761Z</time>
      </trkpt>
      <trkpt lat="38.025048" lon="-3.964857">
        <ele>268.377791</ele>
        <time>2020-08-10T08:41:13.767Z</time>
      </trkpt>
      <trkpt lat="38.025062" lon="-3.964994">
        <ele>268.460838</ele>
        <time>2020-08-10T08:41:15.752Z</time>
      </trkpt>
      <trkpt lat="38.025077" lon="-3.965130">
        <ele>268.543391</ele>
        <time>2020-08-10T08:41:17.754Z</time>
      </trkpt>
      <trkpt lat="38.025083" lon="-3.965278">
        <ele>268.632478</ele>
        <time>2020-08-10T08:41:19.749Z</time>
      </trkpt>
      <trkpt lat="38.025084" lon="-3.965441">
        <ele>268.730467</ele>
        <time>2020-08-10T08:41:21.754Z</time>
      </trkpt>
      <trkpt lat="38.025088" lon="-3.965594">
        <ele>268.822493</ele>
        <time>2020-08-10T08:41:23.750Z</time>
      </trkpt>
      <trkpt lat="38.025092" lon="-3.965751">
        <ele>268.916922</ele>
        <time>2020-08-10T08:41:25.754Z</time>
      </trkpt>
      <trkpt lat="38.025097" lon="-3.965905">
        <ele>268.890562</ele>
        <time>2020-08-10T08:41:27.759Z</time>
      </trkpt>
      <trkpt lat="38.025113" lon="-3.966053">
        <ele>268.841310</ele>
        <time>2020-08-10T08:41:29.759Z</time>
      </trkpt>
      <trkpt lat="38.025124" lon="-3.966195">
        <ele>268.794268</ele>
        <time>2020-08-10T08:41:31.762Z</time>
      </trkpt>
      <trkpt lat="38.025124" lon="-3.966357">
        <ele>268.740859</ele>
        <time>2020-08-10T08:41:33.756Z</time>
      </trkpt>
      <trkpt lat="38.025123" lon="-3.966498">
        <ele>268.694370</ele>
        <time>2020-08-10T08:41:35.752Z</time>
      </trkpt>
      <trkpt lat="38.025138" lon="-3.966642">
        <ele>268.646482</ele>
        <time>2020-08-10T08:41:37.758Z</time>
      </trkpt>
      <trkpt lat="38.025145" lon="-3.966797">
        <ele>268.595296</ele>
        <time>2020-08-10T08:41:39.763Z</time>
      </trkpt>
      <trkpt lat="38.025143" lon="-3.966959">
        <ele>268.541879</ele>
        <time>2020-08-10T08:41:41.755Z</time>
      </trkpt>
      <trkpt lat="38.025147" lon="-3.967106">
        <ele>268.493386</ele>
        <time>2020-08-10T08:41:43.770Z</time>
      </trkpt>
      <trkpt lat="38.025160" lon="-3.967256">
        <ele>268.443634</ele>
        <time>2020-08-10T08:41:45.758Z</time>
      </trkpt>
      <trkpt lat="38.025152" lon="-3.967432">
        <ele>268.385512</ele>
        <time>2020-08-10T08:41:47.751Z</time>
      </trkpt>
      <trkpt lat="38.025154" lon="-3.967591">
        <ele>268.333085</ele>
        <time>2020-08-10T08:41:49.765Z</time>
      </trkpt>
      <trkpt lat="38.025163" lon="-3.967744">
        <ele>268.282502</ele>
        <time>2020-08-10T08:41:51.768Z</time>
      </trkpt>
      <trkpt lat="38.025191" lon="-3.967883">
        <ele>268.235200</ele>
        <time>2020-08-10T08:41:53.754Z</time>
      </trkpt>
      <trkpt lat="38.025205" lon="-3.968025">
        <ele>268.188019</ele>
        <time>2020-08-10T08:41:55.770Z</time>
      </trkpt>
      <trkpt lat="38.025213" lon="-3.968184">
        <ele>268.414151</ele>
        <time>2020-08-10T08:41:57.769Z</time>
      </trkpt>
      <trkpt lat="38.025211" lon="-3.968346">
        <ele>268.695649</ele>
        <time>2020-08-10T08:41:59.768Z</time>
      </trkpt>
      <trkpt lat="38.025224" lon="-3.968489">
        <ele>268.945750</ele>
        <time>2020-08-10T08:42:01.753Z</time>
      </trkpt>
      <trkpt lat="38.025235" lon="-3.968649">
        <ele>269.224795</ele>
        <time>2020-08-10T08:42:03.749Z</time>
      </trkpt>
      <trkpt lat="38.025248" lon="-3.968799">
        <ele>269.486981</ele>
        <time>2020-08-10T08:42:05.758Z</time>
      </trkpt>
      <trkpt lat="38.025256" lon="-3.968963">
        <ele>269.772465</ele>
        <time>2020-08-10T08:42:07.756Z</time>
      </trkpt>
      <trkpt lat="38.025271" lon="-3.969123">
        <ele>270.052415</ele>
        <time>2020-08-10T08:42:09.753Z</time>
      </trkpt>
      <trkpt lat="38.025288" lon="-3.969291">
        <ele>270.346700</ele>
        <time>2020-08-10T08:42:11.750Z</time>
      </trkpt>
      <trkpt lat="38.025301" lon="-3.969450">
        <ele>270.624435</ele>
        <time>2020-08-10T08:42:13.758Z</time>
      </trkpt>
      <trkpt lat="38.025296" lon="-3.969631">
        <ele>270.939102</ele>
        <time>2020-08-10T08:42:15.764Z</time>
      </trkpt>
      <trkpt lat="38.025298" lon="-3.969820">
        <ele>271.267505</ele>
        <time>2020-08-10T08:42:17.752Z</time>
      </trkpt>
      <trkpt lat="38.025330" lon="-3.969957">
        <ele>271.515775</ele>
        <time>2020-08-10T08:42:19.749Z</time>
      </trkpt>
      <trkpt lat="38.025347" lon="-3.970144">
        <ele>271.842830</ele>
        <time>2020-08-10T08:42:21.755Z</time>
      </trkpt>
      <trkpt lat="38.025378" lon="-3.970289">
        <ele>272.103870</ele>
        <time>2020-08-10T08:42:23.752Z</time>
      </trkpt>
      <trkpt lat="38.025366" lon="-3.970463">
        <ele>272.336590</ele>
        <time>2020-08-10T08:42:25.748Z</time>
      </trkpt>
      <trkpt lat="38.025376" lon="-3.970646">
        <ele>272.568694</ele>
        <time>2020-08-10T08:42:27.750Z</time>
      </trkpt>
      <trkpt lat="38.025382" lon="-3.970841">
        <ele>272.815612</ele>
        <time>2020-08-10T08:42:29.755Z</time>
      </trkpt>
      <trkpt lat="38.025362" lon="-3.971025">
        <ele>273.050631</ele>
        <time>2020-08-10T08:42:31.763Z</time>
      </trkpt>
      <trkpt lat="38.025423" lon="-3.971124">
        <ele>273.209662</ele>
        <time>2020-08-10T08:42:33.759Z</time>
      </trkpt>
      <trkpt lat="38.025406" lon="-3.971316">
        <ele>273.454126</ele>
        <time>2020-08-10T08:42:35.772Z</time>
      </trkpt>
      <trkpt lat="38.025378" lon="-3.971493">
        <ele>273.682552</ele>
        <time>2020-08-10T08:42:37.751Z</time>
      </trkpt>
      <trkpt lat="38.025415" lon="-3.971613">
        <ele>273.845603</ele>
        <time>2020-08-10T08:42:39.753Z</time>
      </trkpt>
      <trkpt lat="38.025416" lon="-3.971749">
        <ele>274.017689</ele>
        <time>2020-08-10T08:42:41.754Z</time>
      </trkpt>
      <trkpt lat="38.025421" lon="-3.971888">
        <ele>274.193747</ele>
        <time>2020-08-10T08:42:43.750Z</time>
      </trkpt>
      <trkpt lat="38.025382" lon="-3.972065">
        <ele>274.426298</ele>
        <time>2020-08-10T08:42:45.751Z</time>
      </trkpt>
      <trkpt lat="38.025396" lon="-3.972207">
        <ele>274.607370</ele>
        <time>2020-08-10T08:42:47.758Z</time>
      </trkpt>
      <trkpt lat="38.025388" lon="-3.972363">
        <ele>274.805172</ele>
        <time>2020-08-10T08:42:49.751Z</time>
      </trkpt>
      <trkpt lat="38.025396" lon="-3.972551">
        <ele>275.027856</ele>
        <time>2020-08-10T08:42:51.753Z</time>
      </trkpt>
      <trkpt lat="38.025395" lon="-3.972696">
        <ele>274.824695</ele>
        <time>2020-08-10T08:42:53.753Z</time>
      </trkpt>
      <trkpt lat="38.025417" lon="-3.972807">
        <ele>274.664331</ele>
        <time>2020-08-10T08:42:55.755Z</time>
      </trkpt>
      <trkpt lat="38.025431" lon="-3.972935">
        <ele>274.483276</ele>
        <time>2020-08-10T08:42:57.750Z</time>
      </trkpt>
      <trkpt lat="38.025434" lon="-3.973083">
        <ele>274.275851</ele>
        <time>2020-08-10T08:42:59.749Z</time>
      </trkpt>
      <trkpt lat="38.025385" lon="-3.973284">
        <ele>273.981062</ele>
        <time>2020-08-10T08:43:01.748Z</time>
      </trkpt>
      <trkpt lat="38.025360" lon="-3.973466">
        <ele>273.722222</ele>
        <time>2020-08-10T08:43:03.754Z</time>
      </trkpt>
      <trkpt lat="38.025398" lon="-3.973578">
        <ele>273.551368</ele>
        <time>2020-08-10T08:43:05.752Z</time>
      </trkpt>
      <trkpt lat="38.025415" lon="-3.973718">
        <ele>273.352903</ele>
        <time>2020-08-10T08:43:07.746Z</time>
      </trkpt>
      <trkpt lat="38.025401" lon="-3.973874">
        <ele>273.132925</ele>
        <time>2020-08-10T08:43:09.753Z</time>
      </trkpt>
      <trkpt lat="38.025398" lon="-3.974018">
        <ele>272.931103</ele>
        <time>2020-08-10T08:43:11.762Z</time>
      </trkpt>
      <trkpt lat="38.025395" lon="-3.974181">
        <ele>272.702668</ele>
        <time>2020-08-10T08:43:13.752Z</time>
      </trkpt>
      <trkpt lat="38.025394" lon="-3.974323">
        <ele>272.503710</ele>
        <time>2020-08-10T08:43:15.765Z</time>
      </trkpt>
      <trkpt lat="38.025406" lon="-3.974458">
        <ele>272.313368</ele>
        <time>2020-08-10T08:43:17.763Z</time>
      </trkpt>
      <trkpt lat="38.025409" lon="-3.974610">
        <ele>272.100340</ele>
        <time>2020-08-10T08:43:19.741Z</time>
      </trkpt>
      <trkpt lat="38.025418" lon="-3.974767">
        <ele>271.879793</ele>
        <time>2020-08-10T08:43:21.749Z</time>
      </trkpt>
      <trkpt lat="38.025423" lon="-3.974922">
        <ele>271.704600</ele>
        <time>2020-08-10T08:43:23.754Z</time>
      </trkpt>
      <trkpt lat="38.025426" lon="-3.975074">
        <ele>271.543020</ele>
        <time>2020-08-10T08:43:25.757Z</time>
      </trkpt>
      <trkpt lat="38.025411" lon="-3.975249">
        <ele>271.355950</ele>
        <time>2020-08-10T08:43:27.760Z</time>
      </trkpt>
      <trkpt lat="38.025395" lon="-3.975373">
        <ele>271.222420</ele>
        <time>2020-08-10T08:43:28.767Z</time>
      </trkpt>
      <trkpt lat="38.025447" lon="-3.975532">
        <ele>271.039469</ele>
        <time>2020-08-10T08:43:30.759Z</time>
      </trkpt>
      <trkpt lat="38.025435" lon="-3.975738">
        <ele>270.819956</ele>
        <time>2020-08-10T08:43:32.747Z</time>
      </trkpt>
      <trkpt lat="38.025415" lon="-3.975857">
        <ele>270.690649</ele>
        <time>2020-08-10T08:43:33.756Z</time>
      </trkpt>
      <trkpt lat="38.025471" lon="-3.976018">
        <ele>270.503619</ele>
        <time>2020-08-10T08:43:35.758Z</time>
      </trkpt>
      <trkpt lat="38.025514" lon="-3.976190">
        <ele>270.311851</ele>
        <time>2020-08-10T08:43:37.755Z</time>
      </trkpt>
      <trkpt lat="38.025510" lon="-3.976375">
        <ele>270.115179</ele>
        <time>2020-08-10T08:43:39.760Z</time>
      </trkpt>
      <trkpt lat="38.025523" lon="-3.976555">
        <ele>269.923092</ele>
        <time>2020-08-10T08:43:41.762Z</time>
      </trkpt>
      <trkpt lat="38.025554" lon="-3.976724">
        <ele>269.738693</ele>
        <time>2020-08-10T08:43:43.755Z</time>
      </trkpt>
      <trkpt lat="38.025615" lon="-3.976836">
        <ele>269.593993</ele>
        <time>2020-08-10T08:43:45.756Z</time>
      </trkpt>
      <trkpt lat="38.025623" lon="-3.977023">
        <ele>269.408453</ele>
        <time>2020-08-10T08:43:47.754Z</time>
      </trkpt>
      <trkpt lat="38.025637" lon="-3.977191">
        <ele>269.384421</ele>
        <time>2020-08-10T08:43:49.746Z</time>
      </trkpt>
      <trkpt lat="38.025667" lon="-3.977344">
        <ele>269.361991</ele>
        <time>2020-08-10T08:43:51.768Z</time>
      </trkpt>
      <trkpt lat="38.025672" lon="-3.977528">
        <ele>269.335801</ele>
        <time>2020-08-10T08:43:53.755Z</time>
      </trkpt>
      <trkpt lat="38.025730" lon="-3.977648">
        <ele>269.315773</ele>
        <time>2020-08-10T08:43:55.759Z</time>
      </trkpt>
      <trkpt lat="38.025760" lon="-3.977793">
        <ele>269.294446</ele>
        <time>2020-08-10T08:43:57.761Z</time>
      </trkpt>
      <trkpt lat="38.025806" lon="-3.977934">
        <ele>269.272736</ele>
        <time>2020-08-10T08:43:59.761Z</time>
      </trkpt>
      <trkpt lat="38.025812" lon="-3.978085">
        <ele>269.251228</ele>
        <time>2020-08-10T08:44:01.753Z</time>
      </trkpt>
      <trkpt lat="38.025850" lon="-3.978229">
        <ele>269.229625</ele>
        <time>2020-08-10T08:44:03.763Z</time>
      </trkpt>
      <trkpt lat="38.025797" lon="-3.978349">
        <ele>269.210054</ele>
        <time>2020-08-10T08:44:04.756Z</time>
      </trkpt>
      <trkpt lat="38.025830" lon="-3.978508">
        <ele>269.186663</ele>
        <time>2020-08-10T08:44:06.754Z</time>
      </trkpt>
      <trkpt lat="38.025833" lon="-3.978672">
        <ele>269.163327</ele>
        <time>2020-08-10T08:44:08.748Z</time>
      </trkpt>
      <trkpt lat="38.025883" lon="-3.978795">
        <ele>269.143637</ele>
        <time>2020-08-10T08:44:10.743Z</time>
      </trkpt>
      <trkpt lat="38.025906" lon="-3.978936">
        <ele>269.123154</ele>
        <time>2020-08-10T08:44:12.759Z</time>
      </trkpt>
      <trkpt lat="38.025917" lon="-3.979119">
        <ele>269.097045</ele>
        <time>2020-08-10T08:44:14.757Z</time>
      </trkpt>
      <trkpt lat="38.025919" lon="-3.979281">
        <ele>269.008405</ele>
        <time>2020-08-10T08:44:16.758Z</time>
      </trkpt>
      <trkpt lat="38.025967" lon="-3.979392">
        <ele>268.889621</ele>
        <time>2020-08-10T08:44:18.750Z</time>
      </trkpt>
      <trkpt lat="38.026024" lon="-3.979511">
        <ele>268.758972</ele>
        <time>2020-08-10T08:44:20.750Z</time>
      </trkpt>
      <trkpt lat="38.026021" lon="-3.979686">
        <ele>268.594770</ele>
        <time>2020-08-10T08:44:22.756Z</time>
      </trkpt>
      <trkpt lat="38.026019" lon="-3.979862">
        <ele>268.429651</ele>
        <time>2020-08-10T08:44:24.757Z</time>
      </trkpt>
      <trkpt lat="38.026018" lon="-3.980025">
        <ele>268.276740</ele>
        <time>2020-08-10T08:44:26.769Z</time>
      </trkpt>
      <trkpt lat="38.026072" lon="-3.980142">
        <ele>268.149534</ele>
        <time>2020-08-10T08:44:28.765Z</time>
      </trkpt>
      <trkpt lat="38.026128" lon="-3.980261">
        <ele>268.019500</ele>
        <time>2020-08-10T08:44:30.765Z</time>
      </trkpt>
      <trkpt lat="38.026126" lon="-3.980445">
        <ele>267.846877</ele>
        <time>2020-08-10T08:44:32.752Z</time>
      </trkpt>
      <trkpt lat="38.026102" lon="-3.980627">
        <ele>267.673772</ele>
        <time>2020-08-10T08:44:34.755Z</time>
      </trkpt>
      <trkpt lat="38.026127" lon="-3.980781">
        <ele>267.526272</ele>
        <time>2020-08-10T08:44:36.750Z</time>
      </trkpt>
      <trkpt lat="38.026129" lon="-3.980971">
        <ele>267.348022</ele>
        <time>2020-08-10T08:44:38.763Z</time>
      </trkpt>
      <trkpt lat="38.026156" lon="-3.981105">
        <ele>267.218273</ele>
        <time>2020-08-10T08:44:40.746Z</time>
      </trkpt>
      <trkpt lat="38.026175" lon="-3.981251">
        <ele>267.079458</ele>
        <time>2020-08-10T08:44:42.744Z</time>
      </trkpt>
      <trkpt lat="38.026196" lon="-3.981408">
        <ele>266.897228</ele>
        <time>2020-08-10T08:44:44.761Z</time>
      </trkpt>
      <trkpt lat="38.026197" lon="-3.981547">
        <ele>266.454657</ele>
        <time>2020-08-10T08:44:46.755Z</time>
      </trkpt>
      <trkpt lat="38.026234" lon="-3.981659">
        <ele>266.067978</ele>
        <time>2020-08-10T08:44:48.763Z</time>
      </trkpt>
      <trkpt lat="38.026300" lon="-3.981772">
        <ele>265.620098</ele>
        <time>2020-08-10T08:44:50.759Z</time>
      </trkpt>
      <trkpt lat="38.026360" lon="-3.981902">
        <ele>265.140388</ele>
        <time>2020-08-10T08:44:52.769Z</time>
      </trkpt>
      <trkpt lat="38.026406" lon="-3.982046">
        <ele>264.645653</ele>
        <time>2020-08-10T08:44:54.765Z</time>
      </trkpt>
      <trkpt lat="38.026472" lon="-3.982185">
        <ele>264.128920</ele>
        <time>2020-08-10T08:44:56.762Z</time>
      </trkpt>
      <trkpt lat="38.026520" lon="-3.982327">
        <ele>263.636949</ele>
        <time>2020-08-10T08:44:58.750Z</time>
      </trkpt>
      <trkpt lat="38.026578" lon="-3.982471">
        <ele>263.122023</ele>
        <time>2020-08-10T08:45:00.776Z</time>
      </trkpt>
      <trkpt lat="38.026592" lon="-3.982646">
        <ele>262.561988</ele>
        <time>2020-08-10T08:45:02.759Z</time>
      </trkpt>
      <trkpt lat="38.026649" lon="-3.982789">
        <ele>262.051732</ele>
        <time>2020-08-10T08:45:04.741Z</time>
      </trkpt>
      <trkpt lat="38.026690" lon="-3.982953">
        <ele>261.503921</ele>
        <time>2020-08-10T08:45:06.763Z</time>
      </trkpt>
      <trkpt lat="38.026730" lon="-3.983100">
        <ele>261.008763</ele>
        <time>2020-08-10T08:45:08.754Z</time>
      </trkpt>
      <trkpt lat="38.026770" lon="-3.983252">
        <ele>260.498532</ele>
        <time>2020-08-10T08:45:10.751Z</time>
      </trkpt>
      <trkpt lat="38.026802" lon="-3.983399">
        <ele>260.012970</ele>
        <time>2020-08-10T08:45:12.740Z</time>
      </trkpt>
      <trkpt lat="38.026836" lon="-3.983549">
        <ele>259.696957</ele>
        <time>2020-08-10T08:45:14.762Z</time>
      </trkpt>
      <trkpt lat="38.026865" lon="-3.983701">
        <ele>259.769135</ele>
        <time>2020-08-10T08:45:16.765Z</time>
      </trkpt>
      <trkpt lat="38.026885" lon="-3.983855">
        <ele>259.841166</ele>
        <time>2020-08-10T08:45:18.752Z</time>
      </trkpt>
      <trkpt lat="38.026928" lon="-3.983990">
        <ele>259.908370</ele>
        <time>2020-08-10T08:45:20.739Z</time>
      </trkpt>
      <trkpt lat="38.026976" lon="-3.984135">
        <ele>259.980958</ele>
        <time>2020-08-10T08:45:22.753Z</time>
      </trkpt>
      <trkpt lat="38.027015" lon="-3.984252">
        <ele>260.039590</ele>
        <time>2020-08-10T08:45:24.758Z</time>
      </trkpt>
      <trkpt lat="38.027063" lon="-3.984406">
        <ele>260.116023</ele>
        <time>2020-08-10T08:45:26.753Z</time>
      </trkpt>
      <trkpt lat="38.027122" lon="-3.984511">
        <ele>260.175547</ele>
        <time>2020-08-10T08:45:28.760Z</time>
      </trkpt>
      <trkpt lat="38.027156" lon="-3.984663">
        <ele>260.248469</ele>
        <time>2020-08-10T08:45:30.747Z</time>
      </trkpt>
      <trkpt lat="38.027204" lon="-3.984773">
        <ele>260.306503</ele>
        <time>2020-08-10T08:45:32.752Z</time>
      </trkpt>
      <trkpt lat="38.027232" lon="-3.984918">
        <ele>260.375403</ele>
        <time>2020-08-10T08:45:34.750Z</time>
      </trkpt>
      <trkpt lat="38.027237" lon="-3.985073">
        <ele>260.446996</ele>
        <time>2020-08-10T08:45:36.757Z</time>
      </trkpt>
      <trkpt lat="38.027235" lon="-3.985228">
        <ele>260.518539</ele>
        <time>2020-08-10T08:45:38.755Z</time>
      </trkpt>
      <trkpt lat="38.027245" lon="-3.985374">
        <ele>260.586173</ele>
        <time>2020-08-10T08:45:40.762Z</time>
      </trkpt>
      <trkpt lat="38.027259" lon="-3.985518">
        <ele>260.653134</ele>
        <time>2020-08-10T08:45:42.749Z</time>
      </trkpt>
      <trkpt lat="38.027252" lon="-3.985668">
        <ele>260.722481</ele>
        <time>2020-08-10T08:45:44.765Z</time>
      </trkpt>
      <trkpt lat="38.027261" lon="-3.985803">
        <ele>260.907554</ele>
        <time>2020-08-10T08:45:46.756Z</time>
      </trkpt>
      <trkpt lat="38.027262" lon="-3.985933">
        <ele>261.096150</ele>
        <time>2020-08-10T08:45:48.754Z</time>
      </trkpt>
      <trkpt lat="38.027286" lon="-3.986078">
        <ele>261.311091</ele>
        <time>2020-08-10T08:45:50.754Z</time>
      </trkpt>
      <trkpt lat="38.027287" lon="-3.986223">
        <ele>261.521447</ele>
        <time>2020-08-10T08:45:52.758Z</time>
      </trkpt>
      <trkpt lat="38.027271" lon="-3.986371">
        <ele>261.738159</ele>
        <time>2020-08-10T08:45:54.746Z</time>
      </trkpt>
      <trkpt lat="38.027270" lon="-3.986504">
        <ele>261.931107</ele>
        <time>2020-08-10T08:45:56.746Z</time>
      </trkpt>
      <trkpt lat="38.027278" lon="-3.986635">
        <ele>262.121716</ele>
        <time>2020-08-10T08:45:58.756Z</time>
      </trkpt>
      <trkpt lat="38.027275" lon="-3.986775">
        <ele>262.324885</ele>
        <time>2020-08-10T08:46:00.754Z</time>
      </trkpt>
      <trkpt lat="38.027256" lon="-3.986926">
        <ele>262.546714</ele>
        <time>2020-08-10T08:46:02.759Z</time>
      </trkpt>
      <trkpt lat="38.027280" lon="-3.987045">
        <ele>262.724912</ele>
        <time>2020-08-10T08:46:04.755Z</time>
      </trkpt>
      <trkpt lat="38.027285" lon="-3.987176">
        <ele>262.915173</ele>
        <time>2020-08-10T08:46:06.771Z</time>
      </trkpt>
      <trkpt lat="38.027319" lon="-3.987290">
        <ele>263.092007</ele>
        <time>2020-08-10T08:46:08.746Z</time>
      </trkpt>
      <trkpt lat="38.027319" lon="-3.987453">
        <ele>263.328466</ele>
        <time>2020-08-10T08:46:10.754Z</time>
      </trkpt>
      <trkpt lat="38.027330" lon="-3.987587">
        <ele>263.523909</ele>
        <time>2020-08-10T08:46:12.753Z</time>
      </trkpt>
      <trkpt lat="38.027376" lon="-3.987705">
        <ele>263.714903</ele>
        <time>2020-08-10T08:46:14.748Z</time>
      </trkpt>
      <trkpt lat="38.027436" lon="-3.987819">
        <ele>263.913798</ele>
        <time>2020-08-10T08:46:16.755Z</time>
      </trkpt>
      <trkpt lat="38.027464" lon="-3.987950">
        <ele>264.101829</ele>
        <time>2020-08-10T08:46:18.764Z</time>
      </trkpt>
      <trkpt lat="38.027507" lon="-3.988073">
        <ele>264.272448</ele>
        <time>2020-08-10T08:46:20.763Z</time>
      </trkpt>
      <trkpt lat="38.027530" lon="-3.988216">
        <ele>264.457498</ele>
        <time>2020-08-10T08:46:22.760Z</time>
      </trkpt>
      <trkpt lat="38.027559" lon="-3.988362">
        <ele>264.648405</ele>
        <time>2020-08-10T08:46:24.756Z</time>
      </trkpt>
      <trkpt lat="38.027594" lon="-3.988501">
        <ele>264.833427</ele>
        <time>2020-08-10T08:46:26.750Z</time>
      </trkpt>
      <trkpt lat="38.027633" lon="-3.988638">
        <ele>265.018123</ele>
        <time>2020-08-10T08:46:28.753Z</time>
      </trkpt>
      <trkpt lat="38.027659" lon="-3.988787">
        <ele>265.211619</ele>
        <time>2020-08-10T08:46:30.753Z</time>
      </trkpt>
      <trkpt lat="38.027698" lon="-3.988924">
        <ele>265.396315</ele>
        <time>2020-08-10T08:46:32.765Z</time>
      </trkpt>
      <trkpt lat="38.027721" lon="-3.989059">
        <ele>265.571438</ele>
        <time>2020-08-10T08:46:34.749Z</time>
      </trkpt>
      <trkpt lat="38.027746" lon="-3.989207">
        <ele>265.763352</ele>
        <time>2020-08-10T08:46:36.752Z</time>
      </trkpt>
      <trkpt lat="38.027775" lon="-3.989335">
        <ele>265.932221</ele>
        <time>2020-08-10T08:46:38.756Z</time>
      </trkpt>
      <trkpt lat="38.027819" lon="-3.989454">
        <ele>266.098895</ele>
        <time>2020-08-10T08:46:40.759Z</time>
      </trkpt>
      <trkpt lat="38.027868" lon="-3.989603">
        <ele>266.303613</ele>
        <time>2020-08-10T08:46:42.753Z</time>
      </trkpt>
      <trkpt lat="38.027882" lon="-3.989805">
        <ele>266.560715</ele>
        <time>2020-08-10T08:46:44.750Z</time>
      </trkpt>
      <trkpt lat="38.027913" lon="-3.989958">
        <ele>266.761017</ele>
        <time>2020-08-10T08:46:46.755Z</time>
      </trkpt>
      <trkpt lat="38.027986" lon="-3.990068">
        <ele>266.928113</ele>
        <time>2020-08-10T08:46:48.759Z</time>
      </trkpt>
      <trkpt lat="38.028066" lon="-3.990203">
        <ele>266.737158</ele>
        <time>2020-08-10T08:46:51.751Z</time>
      </trkpt>
      <trkpt lat="38.028045" lon="-3.990316">
        <ele>266.605922</ele>
        <time>2020-08-10T08:46:52.767Z</time>
      </trkpt>
      <trkpt lat="38.028046" lon="-3.990475">
        <ele>266.426192</ele>
        <time>2020-08-10T08:46:54.754Z</time>
      </trkpt>
      <trkpt lat="38.028066" lon="-3.990607">
        <ele>266.274252</ele>
        <time>2020-08-10T08:46:56.740Z</time>
      </trkpt>
      <trkpt lat="38.028119" lon="-3.990723">
        <ele>266.122672</ele>
        <time>2020-08-10T08:46:58.755Z</time>
      </trkpt>
      <trkpt lat="38.028160" lon="-3.990847">
        <ele>265.970663</ele>
        <time>2020-08-10T08:47:00.764Z</time>
      </trkpt>
      <trkpt lat="38.028208" lon="-3.990968">
        <ele>265.817527</ele>
        <time>2020-08-10T08:47:02.750Z</time>
      </trkpt>
      <trkpt lat="38.028237" lon="-3.991097">
        <ele>265.665891</ele>
        <time>2020-08-10T08:47:04.747Z</time>
      </trkpt>
      <trkpt lat="38.028281" lon="-3.991210">
        <ele>265.523409</ele>
        <time>2020-08-10T08:47:06.756Z</time>
      </trkpt>
      <trkpt lat="38.028336" lon="-3.991344">
        <ele>265.352615</ele>
        <time>2020-08-10T08:47:08.756Z</time>
      </trkpt>
      <trkpt lat="38.028388" lon="-3.991470">
        <ele>265.191829</ele>
        <time>2020-08-10T08:47:10.753Z</time>
      </trkpt>
      <trkpt lat="38.028433" lon="-3.991609">
        <ele>265.021961</ele>
        <time>2020-08-10T08:47:12.743Z</time>
      </trkpt>
      <trkpt lat="38.028466" lon="-3.991739">
        <ele>264.867575</ele>
        <time>2020-08-10T08:47:14.752Z</time>
      </trkpt>
      <trkpt lat="38.028519" lon="-3.991854">
        <ele>264.716972</ele>
        <time>2020-08-10T08:47:16.755Z</time>
      </trkpt>
      <trkpt lat="38.028552" lon="-3.992012">
        <ele>264.532208</ele>
        <time>2020-08-10T08:47:18.763Z</time>
      </trkpt>
      <trkpt lat="38.028583" lon="-3.992162">
        <ele>264.356920</ele>
        <time>2020-08-10T08:47:20.747Z</time>
      </trkpt>
      <trkpt lat="38.028615" lon="-3.992308">
        <ele>264.014109</ele>
        <time>2020-08-10T08:47:22.759Z</time>
      </trkpt>
      <trkpt lat="38.028655" lon="-3.992439">
        <ele>263.693827</ele>
        <time>2020-08-10T08:47:24.773Z</time>
      </trkpt>
      <trkpt lat="38.028700" lon="-3.992576">
        <ele>263.355454</ele>
        <time>2020-08-10T08:47:26.754Z</time>
      </trkpt>
      <trkpt lat="38.028750" lon="-3.992701">
        <ele>263.035866</ele>
        <time>2020-08-10T08:47:28.749Z</time>
      </trkpt>
      <trkpt lat="38.028797" lon="-3.992841">
        <ele>262.688943</ele>
        <time>2020-08-10T08:47:30.753Z</time>
      </trkpt>
      <trkpt lat="38.028844" lon="-3.992972">
        <ele>262.360795</ele>
        <time>2020-08-10T08:47:32.755Z</time>
      </trkpt>
      <trkpt lat="38.028884" lon="-3.993102">
        <ele>262.042638</ele>
        <time>2020-08-10T08:47:34.755Z</time>
      </trkpt>
      <trkpt lat="38.028925" lon="-3.993233">
        <ele>261.721300</ele>
        <time>2020-08-10T08:47:36.751Z</time>
      </trkpt>
      <trkpt lat="38.028965" lon="-3.993372">
        <ele>261.383950</ele>
        <time>2020-08-10T08:47:38.755Z</time>
      </trkpt>
      <trkpt lat="38.029018" lon="-3.993509">
        <ele>261.036011</ele>
        <time>2020-08-10T08:47:40.752Z</time>
      </trkpt>
      <trkpt lat="38.029069" lon="-3.993619">
        <ele>260.745041</ele>
        <time>2020-08-10T08:47:42.769Z</time>
      </trkpt>
      <trkpt lat="38.029113" lon="-3.993780">
        <ele>260.356562</ele>
        <time>2020-08-10T08:47:45.749Z</time>
      </trkpt>
      <trkpt lat="38.029132" lon="-3.993897">
        <ele>260.084239</ele>
        <time>2020-08-10T08:47:47.755Z</time>
      </trkpt>
      <trkpt lat="38.029154" lon="-3.994022">
        <ele>259.792262</ele>
        <time>2020-08-10T08:47:49.774Z</time>
      </trkpt>
      <trkpt lat="38.029177" lon="-3.994139">
        <ele>259.517368</ele>
        <time>2020-08-10T08:47:51.752Z</time>
      </trkpt>
      <trkpt lat="38.029207" lon="-3.994281">
        <ele>259.182223</ele>
        <time>2020-08-10T08:47:53.740Z</time>
      </trkpt>
      <trkpt lat="38.029247" lon="-3.994416">
        <ele>259.145270</ele>
        <time>2020-08-10T08:47:56.754Z</time>
      </trkpt>
      <trkpt lat="38.029307" lon="-3.994560">
        <ele>259.140575</ele>
        <time>2020-08-10T08:47:59.745Z</time>
      </trkpt>
      <trkpt lat="38.029366" lon="-3.994661">
        <ele>259.136951</ele>
        <time>2020-08-10T08:48:02.750Z</time>
      </trkpt>
      <trkpt lat="38.029445" lon="-3.994782">
        <ele>259.132421</ele>
        <time>2020-08-10T08:48:05.763Z</time>
      </trkpt>
      <trkpt lat="38.029517" lon="-3.994897">
        <ele>259.128187</ele>
        <time>2020-08-10T08:48:08.764Z</time>
      </trkpt>
      <trkpt lat="38.029604" lon="-3.995009">
        <ele>259.123653</ele>
        <time>2020-08-10T08:48:11.754Z</time>
      </trkpt>
      <trkpt lat="38.029688" lon="-3.995129">
        <ele>259.119026</ele>
        <time>2020-08-10T08:48:14.751Z</time>
      </trkpt>
      <trkpt lat="38.029766" lon="-3.995264">
        <ele>259.114201</ele>
        <time>2020-08-10T08:48:17.771Z</time>
      </trkpt>
      <trkpt lat="38.029815" lon="-3.995361">
        <ele>259.110880</ele>
        <time>2020-08-10T08:48:19.758Z</time>
      </trkpt>
      <trkpt lat="38.029886" lon="-3.995510">
        <ele>259.105860</ele>
        <time>2020-08-10T08:48:22.747Z</time>
      </trkpt>
      <trkpt lat="38.029946" lon="-3.995662">
        <ele>259.100960</ele>
        <time>2020-08-10T08:48:25.754Z</time>
      </trkpt>
      <trkpt lat="38.030030" lon="-3.995774">
        <ele>259.096503</ele>
        <time>2020-08-10T08:48:28.753Z</time>
      </trkpt>
      <trkpt lat="38.030074" lon="-3.995886">
        <ele>259.092896</ele>
        <time>2020-08-10T08:48:30.749Z</time>
      </trkpt>
      <trkpt lat="38.030129" lon="-3.995983">
        <ele>259.089451</ele>
        <time>2020-08-10T08:48:32.747Z</time>
      </trkpt>
      <trkpt lat="38.030196" lon="-3.996082">
        <ele>259.085689</ele>
        <time>2020-08-10T08:48:34.750Z</time>
      </trkpt>
      <trkpt lat="38.030250" lon="-3.996191">
        <ele>259.138487</ele>
        <time>2020-08-10T08:48:36.748Z</time>
      </trkpt>
      <trkpt lat="38.030311" lon="-3.996292">
        <ele>259.305224</ele>
        <time>2020-08-10T08:48:38.755Z</time>
      </trkpt>
      <trkpt lat="38.030371" lon="-3.996401">
        <ele>259.479436</ele>
        <time>2020-08-10T08:48:40.767Z</time>
      </trkpt>
      <trkpt lat="38.030430" lon="-3.996507">
        <ele>259.649476</ele>
        <time>2020-08-10T08:48:42.764Z</time>
      </trkpt>
      <trkpt lat="38.030494" lon="-3.996611">
        <ele>259.822374</ele>
        <time>2020-08-10T08:48:44.743Z</time>
      </trkpt>
      <trkpt lat="38.030562" lon="-3.996732">
        <ele>260.017103</ele>
        <time>2020-08-10T08:48:46.756Z</time>
      </trkpt>
      <trkpt lat="38.030627" lon="-3.996822">
        <ele>260.177069</ele>
        <time>2020-08-10T08:48:48.756Z</time>
      </trkpt>
      <trkpt lat="38.030701" lon="-3.996939">
        <ele>260.373645</ele>
        <time>2020-08-10T08:48:50.755Z</time>
      </trkpt>
      <trkpt lat="38.030781" lon="-3.997067">
        <ele>260.587709</ele>
        <time>2020-08-10T08:48:52.750Z</time>
      </trkpt>
      <trkpt lat="38.030835" lon="-3.997196">
        <ele>260.779091</ele>
        <time>2020-08-10T08:48:54.749Z</time>
      </trkpt>
      <trkpt lat="38.030907" lon="-3.997316">
        <ele>260.976713</ele>
        <time>2020-08-10T08:48:56.759Z</time>
      </trkpt>
      <trkpt lat="38.030986" lon="-3.997436">
        <ele>261.181599</ele>
        <time>2020-08-10T08:48:58.757Z</time>
      </trkpt>
      <trkpt lat="38.031064" lon="-3.997549">
        <ele>261.378436</ele>
        <time>2020-08-10T08:49:00.767Z</time>
      </trkpt>
      <trkpt lat="38.031173" lon="-3.997613">
        <ele>261.578175</ele>
        <time>2020-08-10T08:49:02.752Z</time>
      </trkpt>
      <trkpt lat="38.031285" lon="-3.997667">
        <ele>261.777434</ele>
        <time>2020-08-10T08:49:04.750Z</time>
      </trkpt>
      <trkpt lat="38.031388" lon="-3.997720">
        <ele>261.962279</ele>
        <time>2020-08-10T08:49:06.750Z</time>
      </trkpt>
      <trkpt lat="38.031503" lon="-3.997749">
        <ele>261.881721</ele>
        <time>2020-08-10T08:49:08.750Z</time>
      </trkpt>
      <trkpt lat="38.031630" lon="-3.997786">
        <ele>261.375342</ele>
        <time>2020-08-10T08:49:10.750Z</time>
      </trkpt>
      <trkpt lat="38.031763" lon="-3.997818">
        <ele>260.849275</ele>
        <time>2020-08-10T08:49:12.759Z</time>
      </trkpt>
      <trkpt lat="38.031882" lon="-3.997864">
        <ele>260.365853</ele>
        <time>2020-08-10T08:49:14.757Z</time>
      </trkpt>
      <trkpt lat="38.032014" lon="-3.997892">
        <ele>259.845761</ele>
        <time>2020-08-10T08:49:16.755Z</time>
      </trkpt>
      <trkpt lat="38.032147" lon="-3.997936">
        <ele>259.311634</ele>
        <time>2020-08-10T08:49:18.749Z</time>
      </trkpt>
      <trkpt lat="38.032271" lon="-3.997992">
        <ele>258.800162</ele>
        <time>2020-08-10T08:49:20.757Z</time>
      </trkpt>
      <trkpt lat="38.032382" lon="-3.998085">
        <ele>258.283325</ele>
        <time>2020-08-10T08:49:22.740Z</time>
      </trkpt>
      <trkpt lat="38.032547" lon="-3.998197">
        <ele>257.556202</ele>
        <time>2020-08-10T08:49:24.749Z</time>
      </trkpt>
      <trkpt lat="38.032649" lon="-3.998344">
        <ele>256.956534</ele>
        <time>2020-08-10T08:49:26.753Z</time>
      </trkpt>
      <trkpt lat="38.032734" lon="-3.998499">
        <ele>256.378410</ele>
        <time>2020-08-10T08:49:28.751Z</time>
      </trkpt>
      <trkpt lat="38.032779" lon="-3.998665">
        <ele>255.841030</ele>
        <time>2020-08-10T08:49:30.752Z</time>
      </trkpt>
      <trkpt lat="38.032816" lon="-3.998858">
        <ele>255.233007</ele>
        <time>2020-08-10T08:49:32.751Z</time>
      </trkpt>
      <trkpt lat="38.032837" lon="-3.999060">
        <ele>254.983751</ele>
        <time>2020-08-10T08:49:34.758Z</time>
      </trkpt>
      <trkpt lat="38.032843" lon="-3.999269">
        <ele>254.847732</ele>
        <time>2020-08-10T08:49:36.759Z</time>
      </trkpt>
      <trkpt lat="38.032861" lon="-3.999460">
        <ele>254.722623</ele>
        <time>2020-08-10T08:49:38.749Z</time>
      </trkpt>
      <trkpt lat="38.032853" lon="-3.999671">
        <ele>254.585234</ele>
        <time>2020-08-10T08:49:40.773Z</time>
      </trkpt>
      <trkpt lat="38.032862" lon="-3.999853">
        <ele>254.466632</ele>
        <time>2020-08-10T08:49:42.743Z</time>
      </trkpt>
      <trkpt lat="38.032868" lon="-4.000046">
        <ele>254.341011</ele>
        <time>2020-08-10T08:49:44.755Z</time>
      </trkpt>
      <trkpt lat="38.032895" lon="-4.000199">
        <ele>254.239036</ele>
        <time>2020-08-10T08:49:46.757Z</time>
      </trkpt>
      <trkpt lat="38.032940" lon="-4.000345">
        <ele>254.137069</ele>
        <time>2020-08-10T08:49:48.756Z</time>
      </trkpt>
      <trkpt lat="38.032957" lon="-4.000489">
        <ele>254.042369</ele>
        <time>2020-08-10T08:49:50.757Z</time>
      </trkpt>
      <trkpt lat="38.032993" lon="-4.000638">
        <ele>253.941005</ele>
        <time>2020-08-10T08:49:52.752Z</time>
      </trkpt>
      <trkpt lat="38.033029" lon="-4.000764">
        <ele>253.853833</ele>
        <time>2020-08-10T08:49:54.754Z</time>
      </trkpt>
      <trkpt lat="38.033041" lon="-4.000943">
        <ele>253.736994</ele>
        <time>2020-08-10T08:49:56.753Z</time>
      </trkpt>
      <trkpt lat="38.033044" lon="-4.001140">
        <ele>253.608846</ele>
        <time>2020-08-10T08:49:59.759Z</time>
      </trkpt>
      <trkpt lat="38.033058" lon="-4.001312">
        <ele>253.854688</ele>
        <time>2020-08-10T08:50:02.751Z</time>
      </trkpt>
      <trkpt lat="38.033052" lon="-4.001440">
        <ele>254.060776</ele>
        <time>2020-08-10T08:50:04.749Z</time>
      </trkpt>
      <trkpt lat="38.033083" lon="-4.001598">
        <ele>254.322476</ele>
        <time>2020-08-10T08:50:07.748Z</time>
      </trkpt>
      <trkpt lat="38.033123" lon="-4.001734">
        <ele>254.555799</ele>
        <time>2020-08-10T08:50:10.762Z</time>
      </trkpt>
      <trkpt lat="38.033136" lon="-4.001906">
        <ele>254.833509</ele>
        <time>2020-08-10T08:50:13.749Z</time>
      </trkpt>
      <trkpt lat="38.033145" lon="-4.002030">
        <ele>255.033648</ele>
        <time>2020-08-10T08:50:15.751Z</time>
      </trkpt>
      <trkpt lat="38.033142" lon="-4.002147">
        <ele>255.221792</ele>
        <time>2020-08-10T08:50:17.755Z</time>
      </trkpt>
      <trkpt lat="38.033146" lon="-4.002302">
        <ele>255.471044</ele>
        <time>2020-08-10T08:50:20.755Z</time>
      </trkpt>
      <trkpt lat="38.033164" lon="-4.002470">
        <ele>255.743543</ele>
        <time>2020-08-10T08:50:23.754Z</time>
      </trkpt>
      <trkpt lat="38.033172" lon="-4.002621">
        <ele>255.986780</ele>
        <time>2020-08-10T08:50:26.752Z</time>
      </trkpt>
      <trkpt lat="38.033179" lon="-4.002759">
        <ele>256.209035</ele>
        <time>2020-08-10T08:50:29.751Z</time>
      </trkpt>
      <trkpt lat="38.033177" lon="-4.002895">
        <ele>256.427654</ele>
        <time>2020-08-10T08:50:32.755Z</time>
      </trkpt>
      <trkpt lat="38.033181" lon="-4.003028">
        <ele>256.641570</ele>
        <time>2020-08-10T08:50:35.757Z</time>
      </trkpt>
      <trkpt lat="38.033193" lon="-4.003153">
        <ele>256.843958</ele>
        <time>2020-08-10T08:50:38.751Z</time>
      </trkpt>
      <trkpt lat="38.033207" lon="-4.003270">
        <ele>257.034159</ele>
        <time>2020-08-10T08:50:41.750Z</time>
      </trkpt>
      <trkpt lat="38.033223" lon="-4.003402">
        <ele>257.248809</ele>
        <time>2020-08-10T08:50:44.757Z</time>
      </trkpt>
      <trkpt lat="38.033231" lon="-4.003529">
        <ele>257.389683</ele>
        <time>2020-08-10T08:50:47.751Z</time>
      </trkpt>
      <trkpt lat="38.033230" lon="-4.003676">
        <ele>257.543830</ele>
        <time>2020-08-10T08:50:50.760Z</time>
      </trkpt>
      <trkpt lat="38.033217" lon="-4.003828">
        <ele>257.704152</ele>
        <time>2020-08-10T08:50:53.754Z</time>
      </trkpt>
      <trkpt lat="38.033203" lon="-4.003966">
        <ele>257.850052</ele>
        <time>2020-08-10T08:50:56.753Z</time>
      </trkpt>
      <trkpt lat="38.033161" lon="-4.004107">
        <ele>258.008121</ele>
        <time>2020-08-10T08:50:59.753Z</time>
      </trkpt>
      <trkpt lat="38.033127" lon="-4.004230">
        <ele>258.144809</ele>
        <time>2020-08-10T08:51:02.750Z</time>
      </trkpt>
      <trkpt lat="38.033095" lon="-4.004362">
        <ele>258.289629</ele>
        <time>2020-08-10T08:51:05.763Z</time>
      </trkpt>
      <trkpt lat="38.033074" lon="-4.004490">
        <ele>258.426729</ele>
        <time>2020-08-10T08:51:08.752Z</time>
      </trkpt>
      <trkpt lat="38.033059" lon="-4.004614">
        <ele>258.558278</ele>
        <time>2020-08-10T08:51:11.746Z</time>
      </trkpt>
      <trkpt lat="38.033035" lon="-4.004747">
        <ele>258.701353</ele>
        <time>2020-08-10T08:51:14.765Z</time>
      </trkpt>
      <trkpt lat="38.033007" lon="-4.004889">
        <ele>258.854847</ele>
        <time>2020-08-10T08:51:17.753Z</time>
      </trkpt>
      <trkpt lat="38.032989" lon="-4.005022">
        <ele>258.996353</ele>
        <time>2020-08-10T08:51:20.748Z</time>
      </trkpt>
      <trkpt lat="38.032970" lon="-4.005144">
        <ele>259.126757</ele>
        <time>2020-08-10T08:51:23.763Z</time>
      </trkpt>
      <trkpt lat="38.032938" lon="-4.005261">
        <ele>259.256627</ele>
        <time>2020-08-10T08:51:26.762Z</time>
      </trkpt>
      <trkpt lat="38.032915" lon="-4.005372">
        <ele>259.376981</ele>
        <time>2020-08-10T08:51:29.755Z</time>
      </trkpt>
      <trkpt lat="38.032893" lon="-4.005489">
        <ele>259.503113</ele>
        <time>2020-08-10T08:51:32.753Z</time>
      </trkpt>
      <trkpt lat="38.032863" lon="-4.005641">
        <ele>259.668091</ele>
        <time>2020-08-10T08:51:36.754Z</time>
      </trkpt>
      <trkpt lat="38.032838" lon="-4.005766">
        <ele>259.831534</ele>
        <time>2020-08-10T08:51:39.755Z</time>
      </trkpt>
      <trkpt lat="38.032811" lon="-4.005886">
        <ele>259.989696</ele>
        <time>2020-08-10T08:51:42.755Z</time>
      </trkpt>
      <trkpt lat="38.032787" lon="-4.006014">
        <ele>260.156446</ele>
        <time>2020-08-10T08:51:45.764Z</time>
      </trkpt>
      <trkpt lat="38.032783" lon="-4.006140">
        <ele>260.316259</ele>
        <time>2020-08-10T08:51:48.750Z</time>
      </trkpt>
      <trkpt lat="38.032774" lon="-4.006279">
        <ele>260.493012</ele>
        <time>2020-08-10T08:51:51.750Z</time>
      </trkpt>
      <trkpt lat="38.032759" lon="-4.006423">
        <ele>260.677096</ele>
        <time>2020-08-10T08:51:54.754Z</time>
      </trkpt>
      <trkpt lat="38.032758" lon="-4.006573">
        <ele>260.867202</ele>
        <time>2020-08-10T08:51:57.764Z</time>
      </trkpt>
      <trkpt lat="38.032734" lon="-4.006720">
        <ele>261.057459</ele>
        <time>2020-08-10T08:52:00.751Z</time>
      </trkpt>
      <trkpt lat="38.032692" lon="-4.006866">
        <ele>261.254443</ele>
        <time>2020-08-10T08:52:03.751Z</time>
      </trkpt>
      <trkpt lat="38.032662" lon="-4.007001">
        <ele>261.432211</ele>
        <time>2020-08-10T08:52:06.757Z</time>
      </trkpt>
      <trkpt lat="38.032649" lon="-4.007136">
        <ele>261.604574</ele>
        <time>2020-08-10T08:52:09.746Z</time>
      </trkpt>
      <trkpt lat="38.032623" lon="-4.007289">
        <ele>261.802937</ele>
        <time>2020-08-10T08:52:12.749Z</time>
      </trkpt>
      <trkpt lat="38.032584" lon="-4.007401">
        <ele>261.958130</ele>
        <time>2020-08-10T08:52:14.769Z</time>
      </trkpt>
      <trkpt lat="38.032552" lon="-4.007508">
        <ele>262.103180</ele>
        <time>2020-08-10T08:52:16.755Z</time>
      </trkpt>
      <trkpt lat="38.032526" lon="-4.007620">
        <ele>262.251157</ele>
        <time>2020-08-10T08:52:18.756Z</time>
      </trkpt>
      <trkpt lat="38.032493" lon="-4.007783">
        <ele>262.464447</ele>
        <time>2020-08-10T08:52:21.758Z</time>
      </trkpt>
      <trkpt lat="38.032462" lon="-4.007941">
        <ele>262.836376</ele>
        <time>2020-08-10T08:52:24.748Z</time>
      </trkpt>
      <trkpt lat="38.032435" lon="-4.008097">
        <ele>263.336482</ele>
        <time>2020-08-10T08:52:27.752Z</time>
      </trkpt>
      <trkpt lat="38.032414" lon="-4.008251">
        <ele>263.825846</ele>
        <time>2020-08-10T08:52:30.759Z</time>
      </trkpt>
      <trkpt lat="38.032377" lon="-4.008414">
        <ele>264.356989</ele>
        <time>2020-08-10T08:52:33.754Z</time>
      </trkpt>
      <trkpt lat="38.032336" lon="-4.008529">
        <ele>264.752235</ele>
        <time>2020-08-10T08:52:35.749Z</time>
      </trkpt>
      <trkpt lat="38.032329" lon="-4.008693">
        <ele>265.266492</ele>
        <time>2020-08-10T08:52:38.748Z</time>
      </trkpt>
      <trkpt lat="38.032304" lon="-4.008809">
        <ele>265.643052</ele>
        <time>2020-08-10T08:52:40.750Z</time>
      </trkpt>
      <trkpt lat="38.032273" lon="-4.008969">
        <ele>266.158964</ele>
        <time>2020-08-10T08:52:42.755Z</time>
      </trkpt>
      <trkpt lat="38.032238" lon="-4.009118">
        <ele>266.645806</ele>
        <time>2020-08-10T08:52:44.764Z</time>
      </trkpt>
      <trkpt lat="38.032209" lon="-4.009280">
        <ele>267.165982</ele>
        <time>2020-08-10T08:52:46.757Z</time>
      </trkpt>
      <trkpt lat="38.032168" lon="-4.009456">
        <ele>267.740656</ele>
        <time>2020-08-10T08:52:48.751Z</time>
      </trkpt>
      <trkpt lat="38.032125" lon="-4.009627">
        <ele>268.302701</ele>
        <time>2020-08-10T08:52:50.753Z</time>
      </trkpt>
      <trkpt lat="38.032104" lon="-4.009797">
        <ele>268.841499</ele>
        <time>2020-08-10T08:52:52.747Z</time>
      </trkpt>
      <trkpt lat="38.032090" lon="-4.009961">
        <ele>269.358010</ele>
        <time>2020-08-10T08:52:54.752Z</time>
      </trkpt>
      <trkpt lat="38.032048" lon="-4.010136">
        <ele>269.538983</ele>
        <time>2020-08-10T08:52:56.751Z</time>
      </trkpt>
      <trkpt lat="38.031979" lon="-4.010313">
        <ele>269.069075</ele>
        <time>2020-08-10T08:52:58.751Z</time>
      </trkpt>
      <trkpt lat="38.031936" lon="-4.010419">
        <ele>268.785376</ele>
        <time>2020-08-10T08:52:59.749Z</time>
      </trkpt>
      <trkpt lat="38.031871" lon="-4.010593">
        <ele>268.327160</ele>
        <time>2020-08-10T08:53:01.754Z</time>
      </trkpt>
      <trkpt lat="38.031785" lon="-4.010786">
        <ele>267.799547</ele>
        <time>2020-08-10T08:53:03.758Z</time>
      </trkpt>
      <trkpt lat="38.031712" lon="-4.010984">
        <ele>267.279371</ele>
        <time>2020-08-10T08:53:05.751Z</time>
      </trkpt>
      <trkpt lat="38.031651" lon="-4.011160">
        <ele>266.821848</ele>
        <time>2020-08-10T08:53:07.744Z</time>
      </trkpt>
      <trkpt lat="38.031613" lon="-4.011265">
        <ele>266.546902</ele>
        <time>2020-08-10T08:53:08.757Z</time>
      </trkpt>
      <trkpt lat="38.031546" lon="-4.011440">
        <ele>266.083925</ele>
        <time>2020-08-10T08:53:10.750Z</time>
      </trkpt>
      <trkpt lat="38.031501" lon="-4.011545">
        <ele>265.799500</ele>
        <time>2020-08-10T08:53:11.751Z</time>
      </trkpt>
      <trkpt lat="38.031443" lon="-4.011702">
        <ele>265.386887</ele>
        <time>2020-08-10T08:53:13.750Z</time>
      </trkpt>
      <trkpt lat="38.031404" lon="-4.011867">
        <ele>264.976990</ele>
        <time>2020-08-10T08:53:15.753Z</time>
      </trkpt>
      <trkpt lat="38.031341" lon="-4.011952">
        <ele>264.699280</ele>
        <time>2020-08-10T08:53:16.752Z</time>
      </trkpt>
      <trkpt lat="38.031285" lon="-4.012130">
        <ele>264.250501</ele>
        <time>2020-08-10T08:53:18.767Z</time>
      </trkpt>
      <trkpt lat="38.031231" lon="-4.012291">
        <ele>263.930127</ele>
        <time>2020-08-10T08:53:20.747Z</time>
      </trkpt>
      <trkpt lat="38.031170" lon="-4.012456">
        <ele>263.596422</ele>
        <time>2020-08-10T08:53:22.765Z</time>
      </trkpt>
      <trkpt lat="38.031111" lon="-4.012624">
        <ele>263.259656</ele>
        <time>2020-08-10T08:53:24.758Z</time>
      </trkpt>
      <trkpt lat="38.031072" lon="-4.012767">
        <ele>262.982598</ele>
        <time>2020-08-10T08:53:26.751Z</time>
      </trkpt>
      <trkpt lat="38.031028" lon="-4.012908">
        <ele>262.704930</ele>
        <time>2020-08-10T08:53:28.761Z</time>
      </trkpt>
      <trkpt lat="38.030998" lon="-4.013067">
        <ele>262.405593</ele>
        <time>2020-08-10T08:53:30.757Z</time>
      </trkpt>
      <trkpt lat="38.030988" lon="-4.013221">
        <ele>262.122689</ele>
        <time>2020-08-10T08:53:32.769Z</time>
      </trkpt>
      <trkpt lat="38.030981" lon="-4.013342">
        <ele>261.900561</ele>
        <time>2020-08-10T08:53:34.752Z</time>
      </trkpt>
      <trkpt lat="38.030977" lon="-4.013478">
        <ele>261.651394</ele>
        <time>2020-08-10T08:53:36.755Z</time>
      </trkpt>
      <trkpt lat="38.030982" lon="-4.013607">
        <ele>261.414931</ele>
        <time>2020-08-10T08:53:38.752Z</time>
      </trkpt>
      <trkpt lat="38.030998" lon="-4.013731">
        <ele>261.184882</ele>
        <time>2020-08-10T08:53:40.754Z</time>
      </trkpt>
      <trkpt lat="38.031005" lon="-4.013870">
        <ele>260.929877</ele>
        <time>2020-08-10T08:53:42.752Z</time>
      </trkpt>
      <trkpt lat="38.031024" lon="-4.013987">
        <ele>260.711164</ele>
        <time>2020-08-10T08:53:44.751Z</time>
      </trkpt>
      <trkpt lat="38.031066" lon="-4.014143">
        <ele>260.409332</ele>
        <time>2020-08-10T08:53:47.751Z</time>
      </trkpt>
      <trkpt lat="38.031079" lon="-4.014314">
        <ele>260.094805</ele>
        <time>2020-08-10T08:53:50.749Z</time>
      </trkpt>
      <trkpt lat="38.031098" lon="-4.014462">
        <ele>260.280255</ele>
        <time>2020-08-10T08:53:53.769Z</time>
      </trkpt>
      <trkpt lat="38.031141" lon="-4.014616">
        <ele>260.483491</ele>
        <time>2020-08-10T08:53:56.767Z</time>
      </trkpt>
      <trkpt lat="38.031151" lon="-4.014731">
        <ele>260.627405</ele>
        <time>2020-08-10T08:53:58.756Z</time>
      </trkpt>
      <trkpt lat="38.031170" lon="-4.014906">
        <ele>260.847140</ele>
        <time>2020-08-10T08:54:01.757Z</time>
      </trkpt>
      <trkpt lat="38.031191" lon="-4.015017">
        <ele>260.989136</ele>
        <time>2020-08-10T08:54:03.755Z</time>
      </trkpt>
      <trkpt lat="38.031198" lon="-4.015135">
        <ele>261.136329</ele>
        <time>2020-08-10T08:54:05.754Z</time>
      </trkpt>
      <trkpt lat="38.031219" lon="-4.015251">
        <ele>261.284379</ele>
        <time>2020-08-10T08:54:07.761Z</time>
      </trkpt>
      <trkpt lat="38.031248" lon="-4.015376">
        <ele>261.446467</ele>
        <time>2020-08-10T08:54:09.747Z</time>
      </trkpt>
      <trkpt lat="38.031260" lon="-4.015501">
        <ele>261.603101</ele>
        <time>2020-08-10T08:54:11.737Z</time>
      </trkpt>
      <trkpt lat="38.031284" lon="-4.015633">
        <ele>261.771609</ele>
        <time>2020-08-10T08:54:13.755Z</time>
      </trkpt>
      <trkpt lat="38.031296" lon="-4.015766">
        <ele>261.938125</ele>
        <time>2020-08-10T08:54:15.762Z</time>
      </trkpt>
      <trkpt lat="38.031318" lon="-4.015900">
        <ele>262.108386</ele>
        <time>2020-08-10T08:54:17.747Z</time>
      </trkpt>
      <trkpt lat="38.031348" lon="-4.016033">
        <ele>262.280470</ele>
        <time>2020-08-10T08:54:19.754Z</time>
      </trkpt>
      <trkpt lat="38.031364" lon="-4.016165">
        <ele>262.446593</ele>
        <time>2020-08-10T08:54:21.747Z</time>
      </trkpt>
      <trkpt lat="38.031385" lon="-4.016289">
        <ele>262.604357</ele>
        <time>2020-08-10T08:54:23.753Z</time>
      </trkpt>
      <trkpt lat="38.031419" lon="-4.016411">
        <ele>262.765327</ele>
        <time>2020-08-10T08:54:25.745Z</time>
      </trkpt>
      <trkpt lat="38.031443" lon="-4.016533">
        <ele>262.921740</ele>
        <time>2020-08-10T08:54:27.751Z</time>
      </trkpt>
      <trkpt lat="38.031471" lon="-4.016651">
        <ele>263.153737</ele>
        <time>2020-08-10T08:54:29.753Z</time>
      </trkpt>
      <trkpt lat="38.031495" lon="-4.016773">
        <ele>263.397764</ele>
        <time>2020-08-10T08:54:31.749Z</time>
      </trkpt>
      <trkpt lat="38.031513" lon="-4.016906">
        <ele>263.659646</ele>
        <time>2020-08-10T08:54:33.755Z</time>
      </trkpt>
      <trkpt lat="38.031536" lon="-4.017043">
        <ele>263.931481</ele>
        <time>2020-08-10T08:54:35.757Z</time>
      </trkpt>
      <trkpt lat="38.031550" lon="-4.017184">
        <ele>264.207272</ele>
        <time>2020-08-10T08:54:37.747Z</time>
      </trkpt>
      <trkpt lat="38.031568" lon="-4.017328">
        <ele>264.490216</ele>
        <time>2020-08-10T08:54:39.754Z</time>
      </trkpt>
      <trkpt lat="38.031591" lon="-4.017459">
        <ele>264.750674</ele>
        <time>2020-08-10T08:54:41.755Z</time>
      </trkpt>
      <trkpt lat="38.031620" lon="-4.017585">
        <ele>265.005415</ele>
        <time>2020-08-10T08:54:43.741Z</time>
      </trkpt>
      <trkpt lat="38.031648" lon="-4.017708">
        <ele>265.253878</ele>
        <time>2020-08-10T08:54:45.751Z</time>
      </trkpt>
      <trkpt lat="38.031662" lon="-4.017848">
        <ele>265.527743</ele>
        <time>2020-08-10T08:54:47.750Z</time>
      </trkpt>
      <trkpt lat="38.031689" lon="-4.017991">
        <ele>265.813110</ele>
        <time>2020-08-10T08:54:49.760Z</time>
      </trkpt>
      <trkpt lat="38.031729" lon="-4.018119">
        <ele>266.080342</ele>
        <time>2020-08-10T08:54:51.754Z</time>
      </trkpt>
      <trkpt lat="38.031771" lon="-4.018254">
        <ele>266.362018</ele>
        <time>2020-08-10T08:54:53.753Z</time>
      </trkpt>
      <trkpt lat="38.031803" lon="-4.018383">
        <ele>266.624477</ele>
        <time>2020-08-10T08:54:55.756Z</time>
      </trkpt>
      <trkpt lat="38.031861" lon="-4.018501">
        <ele>266.894395</ele>
        <time>2020-08-10T08:54:57.760Z</time>
      </trkpt>
      <trkpt lat="38.031927" lon="-4.018613">
        <ele>267.165836</ele>
        <time>2020-08-10T08:54:59.748Z</time>
      </trkpt>
      <trkpt lat="38.031975" lon="-4.018735">
        <ele>267.356227</ele>
        <time>2020-08-10T08:55:01.761Z</time>
      </trkpt>
      <trkpt lat="38.032019" lon="-4.018868">
        <ele>267.314394</ele>
        <time>2020-08-10T08:55:03.753Z</time>
      </trkpt>
      <trkpt lat="38.032073" lon="-4.018997">
        <ele>267.272031</ele>
        <time>2020-08-10T08:55:05.749Z</time>
      </trkpt>
      <trkpt lat="38.032115" lon="-4.019128">
        <ele>267.231015</ele>
        <time>2020-08-10T08:55:07.749Z</time>
      </trkpt>
      <trkpt lat="38.032154" lon="-4.019253">
        <ele>267.192026</ele>
        <time>2020-08-10T08:55:09.755Z</time>
      </trkpt>
      <trkpt lat="38.032204" lon="-4.019405">
        <ele>267.144258</ele>
        <time>2020-08-10T08:55:11.751Z</time>
      </trkpt>
      <trkpt lat="38.032241" lon="-4.019526">
        <ele>267.106617</ele>
        <time>2020-08-10T08:55:13.757Z</time>
      </trkpt>
      <trkpt lat="38.032278" lon="-4.019649">
        <ele>267.068436</ele>
        <time>2020-08-10T08:55:15.759Z</time>
      </trkpt>
      <trkpt lat="38.032330" lon="-4.019754">
        <ele>267.032468</ele>
        <time>2020-08-10T08:55:17.742Z</time>
      </trkpt>
      <trkpt lat="38.032393" lon="-4.019861">
        <ele>266.993728</ele>
        <time>2020-08-10T08:55:19.750Z</time>
      </trkpt>
      <trkpt lat="38.032452" lon="-4.020012">
        <ele>266.944848</ele>
        <time>2020-08-10T08:55:22.750Z</time>
      </trkpt>
      <trkpt lat="38.032474" lon="-4.020144">
        <ele>266.905722</ele>
        <time>2020-08-10T08:55:24.747Z</time>
      </trkpt>
      <trkpt lat="38.032526" lon="-4.020265">
        <ele>266.865750</ele>
        <time>2020-08-10T08:55:26.757Z</time>
      </trkpt>
      <trkpt lat="38.032574" lon="-4.020365">
        <ele>266.831791</ele>
        <time>2020-08-10T08:55:28.750Z</time>
      </trkpt>
      <trkpt lat="38.032634" lon="-4.020450">
        <ele>266.798691</ele>
        <time>2020-08-10T08:55:30.757Z</time>
      </trkpt>
      <trkpt lat="38.032676" lon="-4.020575">
        <ele>266.759282</ele>
        <time>2020-08-10T08:55:32.750Z</time>
      </trkpt>
      <trkpt lat="38.032709" lon="-4.020702">
        <ele>266.720501</ele>
        <time>2020-08-10T08:55:34.747Z</time>
      </trkpt>
      <trkpt lat="38.032748" lon="-4.020861">
        <ele>266.876247</ele>
        <time>2020-08-10T08:55:37.753Z</time>
      </trkpt>
      <trkpt lat="38.032782" lon="-4.020970">
        <ele>267.062661</ele>
        <time>2020-08-10T08:55:39.743Z</time>
      </trkpt>
      <trkpt lat="38.032794" lon="-4.021097">
        <ele>267.266049</ele>
        <time>2020-08-10T08:55:41.747Z</time>
      </trkpt>
      <trkpt lat="38.032824" lon="-4.021209">
        <ele>267.454154</ele>
        <time>2020-08-10T08:55:43.752Z</time>
      </trkpt>
      <trkpt lat="38.032850" lon="-4.021322">
        <ele>267.641342</ele>
        <time>2020-08-10T08:55:45.749Z</time>
      </trkpt>
      <trkpt lat="38.032878" lon="-4.021489">
        <ele>267.912834</ele>
        <time>2020-08-10T08:55:48.749Z</time>
      </trkpt>
      <trkpt lat="38.032916" lon="-4.021651">
        <ele>268.181606</ele>
        <time>2020-08-10T08:55:51.763Z</time>
      </trkpt>
      <trkpt lat="38.032939" lon="-4.021762">
        <ele>268.364109</ele>
        <time>2020-08-10T08:55:53.755Z</time>
      </trkpt>
      <trkpt lat="38.032966" lon="-4.021885">
        <ele>268.567142</ele>
        <time>2020-08-10T08:55:55.747Z</time>
      </trkpt>
      <trkpt lat="38.033008" lon="-4.022049">
        <ele>268.841351</ele>
        <time>2020-08-10T08:55:58.760Z</time>
      </trkpt>
      <trkpt lat="38.033025" lon="-4.022168">
        <ele>269.033657</ele>
        <time>2020-08-10T08:56:00.768Z</time>
      </trkpt>
      <trkpt lat="38.033052" lon="-4.022287">
        <ele>269.230570</ele>
        <time>2020-08-10T08:56:02.744Z</time>
      </trkpt>
      <trkpt lat="38.033085" lon="-4.022413">
        <ele>269.441704</ele>
        <time>2020-08-10T08:56:04.753Z</time>
      </trkpt>
      <trkpt lat="38.033109" lon="-4.022582">
        <ele>269.714759</ele>
        <time>2020-08-10T08:56:07.759Z</time>
      </trkpt>
      <trkpt lat="38.033130" lon="-4.022716">
        <ele>269.932005</ele>
        <time>2020-08-10T08:56:09.775Z</time>
      </trkpt>
      <trkpt lat="38.033154" lon="-4.022868">
        <ele>270.178504</ele>
        <time>2020-08-10T08:56:11.750Z</time>
      </trkpt>
      <trkpt lat="38.033190" lon="-4.022986">
        <ele>270.276440</ele>
        <time>2020-08-10T08:56:13.753Z</time>
      </trkpt>
      <trkpt lat="38.033229" lon="-4.023119">
        <ele>269.984673</ele>
        <time>2020-08-10T08:56:15.752Z</time>
      </trkpt>
      <trkpt lat="38.033254" lon="-4.023242">
        <ele>269.723516</ele>
        <time>2020-08-10T08:56:17.755Z</time>
      </trkpt>
      <trkpt lat="38.033267" lon="-4.023357">
        <ele>269.484667</ele>
        <time>2020-08-10T08:56:19.755Z</time>
      </trkpt>
      <trkpt lat="38.033266" lon="-4.023490">
        <ele>269.211222</ele>
        <time>2020-08-10T08:56:21.756Z</time>
      </trkpt>
      <trkpt lat="38.033295" lon="-4.023605">
        <ele>268.962974</ele>
        <time>2020-08-10T08:56:23.757Z</time>
      </trkpt>
      <trkpt lat="38.033322" lon="-4.023719">
        <ele>268.718237</ele>
        <time>2020-08-10T08:56:25.739Z</time>
      </trkpt>
      <trkpt lat="38.033343" lon="-4.023851">
        <ele>268.441380</ele>
        <time>2020-08-10T08:56:27.747Z</time>
      </trkpt>
      <trkpt lat="38.033374" lon="-4.023963">
        <ele>268.197318</ele>
        <time>2020-08-10T08:56:29.747Z</time>
      </trkpt>
      <trkpt lat="38.033413" lon="-4.024099">
        <ele>267.899764</ele>
        <time>2020-08-10T08:56:32.750Z</time>
      </trkpt>
      <trkpt lat="38.033427" lon="-4.024218">
        <ele>267.652401</ele>
        <time>2020-08-10T08:56:34.753Z</time>
      </trkpt>
      <trkpt lat="38.033453" lon="-4.024339">
        <ele>267.394549</ele>
        <time>2020-08-10T08:56:36.747Z</time>
      </trkpt>
      <trkpt lat="38.033499" lon="-4.024454">
        <ele>267.129383</ele>
        <time>2020-08-10T08:56:38.752Z</time>
      </trkpt>
      <trkpt lat="38.033523" lon="-4.024580">
        <ele>266.862875</ele>
        <time>2020-08-10T08:56:40.755Z</time>
      </trkpt>
      <trkpt lat="38.033552" lon="-4.024692">
        <ele>266.620495</ele>
        <time>2020-08-10T08:56:42.758Z</time>
      </trkpt>
      <trkpt lat="38.033577" lon="-4.024815">
        <ele>266.359338</ele>
        <time>2020-08-10T08:56:44.761Z</time>
      </trkpt>
      <trkpt lat="38.033607" lon="-4.024945">
        <ele>266.080840</ele>
        <time>2020-08-10T08:56:46.757Z</time>
      </trkpt>
      <trkpt lat="38.033632" lon="-4.025068">
        <ele>265.819684</ele>
        <time>2020-08-10T08:56:48.756Z</time>
      </trkpt>
      <trkpt lat="38.033667" lon="-4.025185">
        <ele>265.584725</ele>
        <time>2020-08-10T08:56:50.757Z</time>
      </trkpt>
      <trkpt lat="38.033684" lon="-4.025306">
        <ele>265.404806</ele>
        <time>2020-08-10T08:56:52.748Z</time>
      </trkpt>
      <trkpt lat="38.033709" lon="-4.025423">
        <ele>265.227348</ele>
        <time>2020-08-10T08:56:54.768Z</time>
      </trkpt>
      <trkpt lat="38.033735" lon="-4.025546">
        <ele>265.040926</ele>
        <time>2020-08-10T08:56:56.750Z</time>
      </trkpt>
      <trkpt lat="38.033763" lon="-4.025654">
        <ele>264.874489</ele>
        <time>2020-08-10T08:56:58.749Z</time>
      </trkpt>
      <trkpt lat="38.033790" lon="-4.025769">
        <ele>264.698830</ele>
        <time>2020-08-10T08:57:00.773Z</time>
      </trkpt>
      <trkpt lat="38.033841" lon="-4.025872">
        <ele>264.520738</ele>
        <time>2020-08-10T08:57:02.758Z</time>
      </trkpt>
      <trkpt lat="38.033882" lon="-4.025989">
        <ele>264.333285</ele>
        <time>2020-08-10T08:57:04.755Z</time>
      </trkpt>
      <trkpt lat="38.033938" lon="-4.026100">
        <ele>264.140327</ele>
        <time>2020-08-10T08:57:06.758Z</time>
      </trkpt>
      <trkpt lat="38.034020" lon="-4.026236">
        <ele>263.889614</ele>
        <time>2020-08-10T08:57:09.749Z</time>
      </trkpt>
      <trkpt lat="38.034098" lon="-4.026376">
        <ele>263.638592</ele>
        <time>2020-08-10T08:57:12.743Z</time>
      </trkpt>
      <trkpt lat="38.034168" lon="-4.026469">
        <ele>263.450292</ele>
        <time>2020-08-10T08:57:14.747Z</time>
      </trkpt>
      <trkpt lat="38.034238" lon="-4.026558">
        <ele>263.266180</ele>
        <time>2020-08-10T08:57:16.757Z</time>
      </trkpt>
      <trkpt lat="38.034318" lon="-4.026633">
        <ele>263.081361</ele>
        <time>2020-08-10T08:57:18.749Z</time>
      </trkpt>
      <trkpt lat="38.034406" lon="-4.026679">
        <ele>262.904495</ele>
        <time>2020-08-10T08:57:20.755Z</time>
      </trkpt>
      <trkpt lat="38.034476" lon="-4.026761">
        <ele>262.727486</ele>
        <time>2020-08-10T08:57:22.741Z</time>
      </trkpt>
      <trkpt lat="38.034536" lon="-4.026868">
        <ele>262.535220</ele>
        <time>2020-08-10T08:57:24.744Z</time>
      </trkpt>
      <trkpt lat="38.034619" lon="-4.026946">
        <ele>262.343307</ele>
        <time>2020-08-10T08:57:26.752Z</time>
      </trkpt>
      <trkpt lat="38.034711" lon="-4.027038">
        <ele>262.348491</ele>
        <time>2020-08-10T08:57:28.755Z</time>
      </trkpt>
      <trkpt lat="38.034823" lon="-4.027148">
        <ele>262.427120</ele>
        <time>2020-08-10T08:57:31.749Z</time>
      </trkpt>
      <trkpt lat="38.034895" lon="-4.027249">
        <ele>262.486701</ele>
        <time>2020-08-10T08:57:33.751Z</time>
      </trkpt>
      <trkpt lat="38.034999" lon="-4.027337">
        <ele>262.556102</ele>
        <time>2020-08-10T08:57:36.751Z</time>
      </trkpt>
      <trkpt lat="38.035108" lon="-4.027461">
        <ele>262.637372</ele>
        <time>2020-08-10T08:57:39.749Z</time>
      </trkpt>
      <trkpt lat="38.035205" lon="-4.027526">
        <ele>262.698277</ele>
        <time>2020-08-10T08:57:41.769Z</time>
      </trkpt>
      <trkpt lat="38.035274" lon="-4.027620">
        <ele>262.754476</ele>
        <time>2020-08-10T08:57:43.762Z</time>
      </trkpt>
      <trkpt lat="38.035342" lon="-4.027709">
        <ele>262.808707</ele>
        <time>2020-08-10T08:57:45.754Z</time>
      </trkpt>
      <trkpt lat="38.035435" lon="-4.027833">
        <ele>262.883595</ele>
        <time>2020-08-10T08:57:48.758Z</time>
      </trkpt>
      <trkpt lat="38.035474" lon="-4.027945">
        <ele>262.937153</ele>
        <time>2020-08-10T08:57:50.749Z</time>
      </trkpt>
      <trkpt lat="38.035521" lon="-4.028056">
        <ele>262.992271</ele>
        <time>2020-08-10T08:57:52.767Z</time>
      </trkpt>
      <trkpt lat="38.035551" lon="-4.028171">
        <ele>263.045255</ele>
        <time>2020-08-10T08:57:54.761Z</time>
      </trkpt>
      <trkpt lat="38.035581" lon="-4.028291">
        <ele>263.100319</ele>
        <time>2020-08-10T08:57:56.757Z</time>
      </trkpt>
      <trkpt lat="38.035612" lon="-4.028403">
        <ele>263.152241</ele>
        <time>2020-08-10T08:57:58.756Z</time>
      </trkpt>
      <trkpt lat="38.035626" lon="-4.028533">
        <ele>263.209627</ele>
        <time>2020-08-10T08:58:00.755Z</time>
      </trkpt>
      <trkpt lat="38.035641" lon="-4.028676">
        <ele>263.272722</ele>
        <time>2020-08-10T08:58:02.753Z</time>
      </trkpt>
      <trkpt lat="38.035659" lon="-4.028800">
        <ele>263.332029</ele>
        <time>2020-08-10T08:58:04.745Z</time>
      </trkpt>
      <trkpt lat="38.035673" lon="-4.028936">
        <ele>263.399848</ele>
        <time>2020-08-10T08:58:06.750Z</time>
      </trkpt>
      <trkpt lat="38.035670" lon="-4.029068">
        <ele>263.465144</ele>
        <time>2020-08-10T08:58:08.751Z</time>
      </trkpt>
      <trkpt lat="38.035683" lon="-4.029196">
        <ele>263.528959</ele>
        <time>2020-08-10T08:58:10.771Z</time>
      </trkpt>
      <trkpt lat="38.035699" lon="-4.029332">
        <ele>263.596952</ele>
        <time>2020-08-10T08:58:12.755Z</time>
      </trkpt>
      <trkpt lat="38.035713" lon="-4.029453">
        <ele>263.657423</ele>
        <time>2020-08-10T08:58:14.755Z</time>
      </trkpt>
      <trkpt lat="38.035730" lon="-4.029591">
        <ele>263.726489</ele>
        <time>2020-08-10T08:58:16.761Z</time>
      </trkpt>
      <trkpt lat="38.035724" lon="-4.029718">
        <ele>263.789398</ele>
        <time>2020-08-10T08:58:18.747Z</time>
      </trkpt>
      <trkpt lat="38.035725" lon="-4.029842">
        <ele>263.850714</ele>
        <time>2020-08-10T08:58:20.759Z</time>
      </trkpt>
      <trkpt lat="38.035730" lon="-4.029962">
        <ele>263.910133</ele>
        <time>2020-08-10T08:58:22.752Z</time>
      </trkpt>
      <trkpt lat="38.035732" lon="-4.030100">
        <ele>263.978380</ele>
        <time>2020-08-10T08:58:24.757Z</time>
      </trkpt>
      <trkpt lat="38.035740" lon="-4.030227">
        <ele>264.041377</ele>
        <time>2020-08-10T08:58:26.741Z</time>
      </trkpt>
      <trkpt lat="38.035749" lon="-4.030358">
        <ele>264.106397</ele>
        <time>2020-08-10T08:58:28.755Z</time>
      </trkpt>
      <trkpt lat="38.035764" lon="-4.030478">
        <ele>264.166475</ele>
        <time>2020-08-10T08:58:30.749Z</time>
      </trkpt>
      <trkpt lat="38.035780" lon="-4.030613">
        <ele>264.233979</ele>
        <time>2020-08-10T08:58:32.754Z</time>
      </trkpt>
      <trkpt lat="38.035786" lon="-4.030744">
        <ele>264.298862</ele>
        <time>2020-08-10T08:58:34.751Z</time>
      </trkpt>
      <trkpt lat="38.035799" lon="-4.030865">
        <ele>264.359246</ele>
        <time>2020-08-10T08:58:36.767Z</time>
      </trkpt>
      <trkpt lat="38.035813" lon="-4.030992">
        <ele>264.422655</ele>
        <time>2020-08-10T08:58:38.763Z</time>
      </trkpt>
      <trkpt lat="38.035813" lon="-4.031109">
        <ele>264.457597</ele>
        <time>2020-08-10T08:58:40.760Z</time>
      </trkpt>
      <trkpt lat="38.035836" lon="-4.031224">
        <ele>264.491979</ele>
        <time>2020-08-10T08:58:42.753Z</time>
      </trkpt>
      <trkpt lat="38.035844" lon="-4.031350">
        <ele>264.528609</ele>
        <time>2020-08-10T08:58:44.758Z</time>
      </trkpt>
      <trkpt lat="38.035850" lon="-4.031480">
        <ele>264.566345</ele>
        <time>2020-08-10T08:58:46.753Z</time>
      </trkpt>
      <trkpt lat="38.035863" lon="-4.031602">
        <ele>264.602020</ele>
        <time>2020-08-10T08:58:48.755Z</time>
      </trkpt>
      <trkpt lat="38.035873" lon="-4.031724">
        <ele>264.637563</ele>
        <time>2020-08-10T08:58:50.752Z</time>
      </trkpt>
      <trkpt lat="38.035887" lon="-4.031848">
        <ele>264.673863</ele>
        <time>2020-08-10T08:58:52.754Z</time>
      </trkpt>
      <trkpt lat="38.035894" lon="-4.031979">
        <ele>264.711911</ele>
        <time>2020-08-10T08:58:54.759Z</time>
      </trkpt>
      <trkpt lat="38.035899" lon="-4.032108">
        <ele>264.749337</ele>
        <time>2020-08-10T08:58:56.754Z</time>
      </trkpt>
      <trkpt lat="38.035919" lon="-4.032227">
        <ele>264.784596</ele>
        <time>2020-08-10T08:58:58.751Z</time>
      </trkpt>
      <trkpt lat="38.035928" lon="-4.032356">
        <ele>264.822124</ele>
        <time>2020-08-10T08:59:00.753Z</time>
      </trkpt>
      <trkpt lat="38.035934" lon="-4.032482">
        <ele>264.858702</ele>
        <time>2020-08-10T08:59:02.759Z</time>
      </trkpt>
      <trkpt lat="38.035943" lon="-4.032598">
        <ele>264.892479</ele>
        <time>2020-08-10T08:59:04.753Z</time>
      </trkpt>
      <trkpt lat="38.035951" lon="-4.032712">
        <ele>264.925644</ele>
        <time>2020-08-10T08:59:06.752Z</time>
      </trkpt>
      <trkpt lat="38.035957" lon="-4.032843">
        <ele>264.963669</ele>
        <time>2020-08-10T08:59:08.739Z</time>
      </trkpt>
      <trkpt lat="38.035971" lon="-4.032977">
        <ele>265.002839</ele>
        <time>2020-08-10T08:59:10.762Z</time>
      </trkpt>
      <trkpt lat="38.035985" lon="-4.033116">
        <ele>265.043446</ele>
        <time>2020-08-10T08:59:12.753Z</time>
      </trkpt>
      <trkpt lat="38.035996" lon="-4.033253">
        <ele>265.083351</ele>
        <time>2020-08-10T08:59:14.760Z</time>
      </trkpt>
      <trkpt lat="38.036006" lon="-4.033382">
        <ele>265.207015</ele>
        <time>2020-08-10T08:59:16.752Z</time>
      </trkpt>
      <trkpt lat="38.036006" lon="-4.033515">
        <ele>265.343133</ele>
        <time>2020-08-10T08:59:18.751Z</time>
      </trkpt>
      <trkpt lat="38.036027" lon="-4.033653">
        <ele>265.486980</ele>
        <time>2020-08-10T08:59:20.756Z</time>
      </trkpt>
      <trkpt lat="38.036037" lon="-4.033787">
        <ele>265.624736</ele>
        <time>2020-08-10T08:59:22.748Z</time>
      </trkpt>
      <trkpt lat="38.036047" lon="-4.033913">
        <ele>265.754343</ele>
        <time>2020-08-10T08:59:24.757Z</time>
      </trkpt>
      <trkpt lat="38.036046" lon="-4.034040">
        <ele>265.884327</ele>
        <time>2020-08-10T08:59:26.750Z</time>
      </trkpt>
      <trkpt lat="38.036070" lon="-4.034172">
        <ele>266.022974</ele>
        <time>2020-08-10T08:59:28.757Z</time>
      </trkpt>
      <trkpt lat="38.036076" lon="-4.034305">
        <ele>266.159315</ele>
        <time>2020-08-10T08:59:30.753Z</time>
      </trkpt>
      <trkpt lat="38.036085" lon="-4.034437">
        <ele>266.294915</ele>
        <time>2020-08-10T08:59:32.744Z</time>
      </trkpt>
      <trkpt lat="38.036087" lon="-4.034582">
        <ele>266.443337</ele>
        <time>2020-08-10T08:59:34.757Z</time>
      </trkpt>
      <trkpt lat="38.036107" lon="-4.034724">
        <ele>266.590971</ele>
        <time>2020-08-10T08:59:36.754Z</time>
      </trkpt>
      <trkpt lat="38.036113" lon="-4.034862">
        <ele>266.732422</ele>
        <time>2020-08-10T08:59:38.747Z</time>
      </trkpt>
      <trkpt lat="38.036086" lon="-4.035023">
        <ele>266.900890</ele>
        <time>2020-08-10T08:59:40.763Z</time>
      </trkpt>
      <trkpt lat="38.036033" lon="-4.035274">
        <ele>267.166846</ele>
        <time>2020-08-10T08:59:43.753Z</time>
      </trkpt>
      <trkpt lat="38.035985" lon="-4.035439">
        <ele>267.346864</ele>
        <time>2020-08-10T08:59:45.753Z</time>
      </trkpt>
      <trkpt lat="38.035947" lon="-4.035646">
        <ele>267.168516</ele>
        <time>2020-08-10T08:59:47.752Z</time>
      </trkpt>
      <trkpt lat="38.035920" lon="-4.035823">
        <ele>266.832461</ele>
        <time>2020-08-10T08:59:49.751Z</time>
      </trkpt>
      <trkpt lat="38.035880" lon="-4.035982">
        <ele>266.521337</ele>
        <time>2020-08-10T08:59:51.763Z</time>
      </trkpt>
      <trkpt lat="38.035851" lon="-4.036142">
        <ele>266.215305</ele>
        <time>2020-08-10T08:59:53.755Z</time>
      </trkpt>
      <trkpt lat="38.035820" lon="-4.036301">
        <ele>265.909987</ele>
        <time>2020-08-10T08:59:55.748Z</time>
      </trkpt>
      <trkpt lat="38.035809" lon="-4.036443">
        <ele>265.644024</ele>
        <time>2020-08-10T08:59:57.759Z</time>
      </trkpt>
      <trkpt lat="38.035785" lon="-4.036586">
        <ele>265.371490</ele>
        <time>2020-08-10T08:59:59.751Z</time>
      </trkpt>
      <trkpt lat="38.035753" lon="-4.036736">
        <ele>265.081818</ele>
        <time>2020-08-10T09:00:01.747Z</time>
      </trkpt>
      <trkpt lat="38.035725" lon="-4.036877">
        <ele>264.810772</ele>
        <time>2020-08-10T09:00:03.758Z</time>
      </trkpt>
      <trkpt lat="38.035689" lon="-4.037014">
        <ele>264.541569</ele>
        <time>2020-08-10T09:00:05.756Z</time>
      </trkpt>
      <trkpt lat="38.035655" lon="-4.037129">
        <ele>264.312606</ele>
        <time>2020-08-10T09:00:07.754Z</time>
      </trkpt>
      <trkpt lat="38.035630" lon="-4.037243">
        <ele>264.092028</ele>
        <time>2020-08-10T09:00:09.758Z</time>
      </trkpt>
      <trkpt lat="38.035617" lon="-4.037410">
        <ele>263.779226</ele>
        <time>2020-08-10T09:00:12.757Z</time>
      </trkpt>
      <trkpt lat="38.035597" lon="-4.037573">
        <ele>263.471731</ele>
        <time>2020-08-10T09:00:15.750Z</time>
      </trkpt>
      <trkpt lat="38.035526" lon="-4.037749">
        <ele>263.018969</ele>
        <time>2020-08-10T09:00:17.758Z</time>
      </trkpt>
      <trkpt lat="38.035500" lon="-4.037865">
        <ele>262.499847</ele>
        <time>2020-08-10T09:00:19.745Z</time>
      </trkpt>
      <trkpt lat="38.035464" lon="-4.038034">
        <ele>261.746286</ele>
        <time>2020-08-10T09:00:22.742Z</time>
      </trkpt>
      <trkpt lat="38.035429" lon="-4.038183">
        <ele>261.077031</ele>
        <time>2020-08-10T09:00:24.748Z</time>
      </trkpt>
      <trkpt lat="38.035410" lon="-4.038360">
        <ele>260.308126</ele>
        <time>2020-08-10T09:00:27.739Z</time>
      </trkpt>
      <trkpt lat="38.035389" lon="-4.038482">
        <ele>259.770607</ele>
        <time>2020-08-10T09:00:29.748Z</time>
      </trkpt>
      <trkpt lat="38.035374" lon="-4.038594">
        <ele>259.281605</ele>
        <time>2020-08-10T09:00:31.753Z</time>
      </trkpt>
      <trkpt lat="38.035355" lon="-4.038711">
        <ele>258.767408</ele>
        <time>2020-08-10T09:00:33.757Z</time>
      </trkpt>
      <trkpt lat="38.035342" lon="-4.038835">
        <ele>258.228967</ele>
        <time>2020-08-10T09:00:35.746Z</time>
      </trkpt>
      <trkpt lat="38.035515" lon="-4.038949">
        <ele>257.163789</ele>
        <time>2020-08-10T09:00:39.787Z</time>
      </trkpt>
      <trkpt lat="38.035413" lon="-4.039009">
        <ele>256.549450</ele>
        <time>2020-08-10T09:00:40.748Z</time>
      </trkpt>
      <trkpt lat="38.035343" lon="-4.039130">
        <ele>255.903236</ele>
        <time>2020-08-10T09:00:41.753Z</time>
      </trkpt>
      <trkpt lat="38.035256" lon="-4.039219">
        <ele>255.292662</ele>
        <time>2020-08-10T09:00:43.751Z</time>
      </trkpt>
      <trkpt lat="38.035216" lon="-4.039373">
        <ele>254.594684</ele>
        <time>2020-08-10T09:00:46.754Z</time>
      </trkpt>
      <trkpt lat="38.035202" lon="-4.039528">
        <ele>253.923143</ele>
        <time>2020-08-10T09:00:49.758Z</time>
      </trkpt>
      <trkpt lat="38.035184" lon="-4.039681">
        <ele>253.335540</ele>
        <time>2020-08-10T09:00:52.753Z</time>
      </trkpt>
      <trkpt lat="38.035175" lon="-4.039831">
        <ele>253.315290</ele>
        <time>2020-08-10T09:00:55.761Z</time>
      </trkpt>
      <trkpt lat="38.035170" lon="-4.039964">
        <ele>253.297366</ele>
        <time>2020-08-10T09:00:59.752Z</time>
      </trkpt>
      <trkpt lat="38.035307" lon="-4.040181">
        <ele>253.259930</ele>
        <time>2020-08-10T09:01:28.751Z</time>
      </trkpt>
      <trkpt lat="38.035267" lon="-4.040300">
        <ele>253.242513</ele>
        <time>2020-08-10T09:01:31.729Z</time>
      </trkpt>
      <trkpt lat="38.035166" lon="-4.040388">
        <ele>253.221578</ele>
        <time>2020-08-10T09:01:34.763Z</time>
      </trkpt>
      <trkpt lat="38.035115" lon="-4.040512">
        <ele>253.202747</ele>
        <time>2020-08-10T09:01:38.742Z</time>
      </trkpt>
      <trkpt lat="38.035140" lon="-4.040633">
        <ele>253.185908</ele>
        <time>2020-08-10T09:01:42.747Z</time>
      </trkpt>
      <trkpt lat="38.035152" lon="-4.040757">
        <ele>253.169091</ele>
        <time>2020-08-10T09:01:45.751Z</time>
      </trkpt>
      <trkpt lat="38.035199" lon="-4.040874">
        <ele>253.151411</ele>
        <time>2020-08-10T09:01:49.741Z</time>
      </trkpt>
      <trkpt lat="38.035208" lon="-4.040991">
        <ele>253.135587</ele>
        <time>2020-08-10T09:01:54.750Z</time>
      </trkpt>
      <trkpt lat="38.035211" lon="-4.041136">
        <ele>253.116062</ele>
        <time>2020-08-10T09:01:59.742Z</time>
      </trkpt>
      <trkpt lat="38.035211" lon="-4.041258">
        <ele>253.099639</ele>
        <time>2020-08-10T09:02:03.752Z</time>
      </trkpt>
      <trkpt lat="38.035229" lon="-4.041382">
        <ele>253.082666</ele>
        <time>2020-08-10T09:02:07.747Z</time>
      </trkpt>
      <trkpt lat="38.035228" lon="-4.041525">
        <ele>253.063416</ele>
        <time>2020-08-10T09:02:11.751Z</time>
      </trkpt>
      <trkpt lat="38.035246" lon="-4.041661">
        <ele>253.044852</ele>
        <time>2020-08-10T09:02:15.769Z</time>
      </trkpt>
      <trkpt lat="38.035265" lon="-4.041781">
        <ele>253.056019</ele>
        <time>2020-08-10T09:02:19.772Z</time>
      </trkpt>
      <trkpt lat="38.035278" lon="-4.041913">
        <ele>253.254124</ele>
        <time>2020-08-10T09:02:23.759Z</time>
      </trkpt>
      <trkpt lat="38.035303" lon="-4.042034">
        <ele>253.440414</ele>
        <time>2020-08-10T09:02:27.752Z</time>
      </trkpt>
      <trkpt lat="38.035360" lon="-4.042152">
        <ele>253.646555</ele>
        <time>2020-08-10T09:02:32.760Z</time>
      </trkpt>
      <trkpt lat="38.035290" lon="-4.042242">
        <ele>253.834917</ele>
        <time>2020-08-10T09:02:36.745Z</time>
      </trkpt>
      <trkpt lat="38.035296" lon="-4.042368">
        <ele>254.022899</ele>
        <time>2020-08-10T09:02:40.742Z</time>
      </trkpt>
      <trkpt lat="38.035306" lon="-4.042496">
        <ele>254.214452</ele>
        <time>2020-08-10T09:02:44.750Z</time>
      </trkpt>
      <trkpt lat="38.035312" lon="-4.042611">
        <ele>254.386086</ele>
        <time>2020-08-10T09:02:47.766Z</time>
      </trkpt>
      <trkpt lat="38.035318" lon="-4.042732">
        <ele>254.566636</ele>
        <time>2020-08-10T09:02:50.750Z</time>
      </trkpt>
      <trkpt lat="38.035329" lon="-4.042849">
        <ele>254.742109</ele>
        <time>2020-08-10T09:02:53.739Z</time>
      </trkpt>
      <trkpt lat="38.035342" lon="-4.042974">
        <ele>254.929875</ele>
        <time>2020-08-10T09:02:56.753Z</time>
      </trkpt>
      <trkpt lat="38.035354" lon="-4.043107">
        <ele>255.129234</ele>
        <time>2020-08-10T09:02:59.750Z</time>
      </trkpt>
      <trkpt lat="38.035371" lon="-4.043239">
        <ele>255.328418</ele>
        <time>2020-08-10T09:03:02.764Z</time>
      </trkpt>
      <trkpt lat="38.035389" lon="-4.043373">
        <ele>255.530852</ele>
        <time>2020-08-10T09:03:05.751Z</time>
      </trkpt>
      <trkpt lat="38.035402" lon="-4.043505">
        <ele>255.728957</ele>
        <time>2020-08-10T09:03:08.751Z</time>
      </trkpt>
      <trkpt lat="38.035418" lon="-4.043628">
        <ele>255.914610</ele>
        <time>2020-08-10T09:03:11.755Z</time>
      </trkpt>
      <trkpt lat="38.035450" lon="-4.043776">
        <ele>256.143165</ele>
        <time>2020-08-10T09:03:15.769Z</time>
      </trkpt>
      <trkpt lat="38.035471" lon="-4.043897">
        <ele>256.327680</ele>
        <time>2020-08-10T09:03:18.767Z</time>
      </trkpt>
      <trkpt lat="38.035492" lon="-4.044021">
        <ele>256.389182</ele>
        <time>2020-08-10T09:03:21.756Z</time>
      </trkpt>
      <trkpt lat="38.035514" lon="-4.044141">
        <ele>256.298156</ele>
        <time>2020-08-10T09:03:24.744Z</time>
      </trkpt>
      <trkpt lat="38.035546" lon="-4.044268">
        <ele>256.199644</ele>
        <time>2020-08-10T09:03:27.747Z</time>
      </trkpt>
      <trkpt lat="38.035584" lon="-4.044388">
        <ele>256.104090</ele>
        <time>2020-08-10T09:03:30.749Z</time>
      </trkpt>
      <trkpt lat="38.035611" lon="-4.044523">
        <ele>256.001187</ele>
        <time>2020-08-10T09:03:33.758Z</time>
      </trkpt>
      <trkpt lat="38.035643" lon="-4.044647">
        <ele>255.904784</ele>
        <time>2020-08-10T09:03:36.760Z</time>
      </trkpt>
      <trkpt lat="38.035703" lon="-4.044737">
        <ele>255.817670</ele>
        <time>2020-08-10T09:03:38.765Z</time>
      </trkpt>
      <trkpt lat="38.035796" lon="-4.044826">
        <ele>255.708430</ele>
        <time>2020-08-10T09:03:41.738Z</time>
      </trkpt>
      <trkpt lat="38.035854" lon="-4.044972">
        <ele>255.587622</ele>
        <time>2020-08-10T09:03:44.766Z</time>
      </trkpt>
      <trkpt lat="38.035904" lon="-4.045100">
        <ele>255.482065</ele>
        <time>2020-08-10T09:03:47.751Z</time>
      </trkpt>
      <trkpt lat="38.035923" lon="-4.045212">
        <ele>255.397422</ele>
        <time>2020-08-10T09:03:49.751Z</time>
      </trkpt>
      <trkpt lat="38.035954" lon="-4.045364">
        <ele>255.281421</ele>
        <time>2020-08-10T09:03:52.748Z</time>
      </trkpt>
      <trkpt lat="38.035981" lon="-4.045501">
        <ele>255.177085</ele>
        <time>2020-08-10T09:03:55.756Z</time>
      </trkpt>
      <trkpt lat="38.036014" lon="-4.045645">
        <ele>255.066286</ele>
        <time>2020-08-10T09:03:58.758Z</time>
      </trkpt>
      <trkpt lat="38.036049" lon="-4.045781">
        <ele>254.960583</ele>
        <time>2020-08-10T09:04:01.753Z</time>
      </trkpt>
      <trkpt lat="38.036092" lon="-4.045916">
        <ele>254.852998</ele>
        <time>2020-08-10T09:04:04.752Z</time>
      </trkpt>
      <trkpt lat="38.036126" lon="-4.046055">
        <ele>254.745467</ele>
        <time>2020-08-10T09:04:07.755Z</time>
      </trkpt>
      <trkpt lat="38.036163" lon="-4.046194">
        <ele>254.787560</ele>
        <time>2020-08-10T09:04:10.753Z</time>
      </trkpt>
      <trkpt lat="38.036204" lon="-4.046309">
        <ele>254.825209</ele>
        <time>2020-08-10T09:04:13.749Z</time>
      </trkpt>
      <trkpt lat="38.036240" lon="-4.046423">
        <ele>254.861840</ele>
        <time>2020-08-10T09:04:16.753Z</time>
      </trkpt>
      <trkpt lat="38.036265" lon="-4.046555">
        <ele>254.902331</ele>
        <time>2020-08-10T09:04:19.757Z</time>
      </trkpt>
      <trkpt lat="38.036273" lon="-4.046681">
        <ele>254.940032</ele>
        <time>2020-08-10T09:04:22.754Z</time>
      </trkpt>
      <trkpt lat="38.036257" lon="-4.046814">
        <ele>254.980159</ele>
        <time>2020-08-10T09:04:25.749Z</time>
      </trkpt>
      <trkpt lat="38.036261" lon="-4.046937">
        <ele>255.016875</ele>
        <time>2020-08-10T09:04:48.749Z</time>
      </trkpt>
      <trkpt lat="38.036316" lon="-4.047065">
        <ele>255.060362</ele>
        <time>2020-08-10T09:04:53.755Z</time>
      </trkpt>
      <trkpt lat="38.036391" lon="-4.047150">
        <ele>255.098431</ele>
        <time>2020-08-10T09:04:57.742Z</time>
      </trkpt>
      <trkpt lat="38.036482" lon="-4.047651">
        <ele>255.251775</ele>
        <time>2020-08-10T09:06:38.742Z</time>
      </trkpt>
      <trkpt lat="38.036474" lon="-4.047782">
        <ele>255.290963</ele>
        <time>2020-08-10T09:06:41.757Z</time>
      </trkpt>
      <trkpt lat="38.036487" lon="-4.047922">
        <ele>255.333006</ele>
        <time>2020-08-10T09:06:44.741Z</time>
      </trkpt>
      <trkpt lat="38.036500" lon="-4.048063">
        <ele>255.375346</ele>
        <time>2020-08-10T09:06:47.756Z</time>
      </trkpt>
      <trkpt lat="38.036504" lon="-4.048208">
        <ele>255.418619</ele>
        <time>2020-08-10T09:06:50.752Z</time>
      </trkpt>
      <trkpt lat="38.036514" lon="-4.048361">
        <ele>255.750100</ele>
        <time>2020-08-10T09:06:53.752Z</time>
      </trkpt>
      <trkpt lat="38.036540" lon="-4.048512">
        <ele>256.133575</ele>
        <time>2020-08-10T09:06:56.749Z</time>
      </trkpt>
      <trkpt lat="38.036563" lon="-4.048667">
        <ele>256.524891</ele>
        <time>2020-08-10T09:06:59.753Z</time>
      </trkpt>
      <trkpt lat="38.036579" lon="-4.048829">
        <ele>256.929956</ele>
        <time>2020-08-10T09:07:02.752Z</time>
      </trkpt>
      <trkpt lat="38.036588" lon="-4.048956">
        <ele>257.246312</ele>
        <time>2020-08-10T09:07:04.747Z</time>
      </trkpt>
      <trkpt lat="38.036621" lon="-4.049112">
        <ele>257.647060</ele>
        <time>2020-08-10T09:07:07.757Z</time>
      </trkpt>
      <trkpt lat="38.036637" lon="-4.049258">
        <ele>258.012772</ele>
        <time>2020-08-10T09:07:10.751Z</time>
      </trkpt>
      <trkpt lat="38.036637" lon="-4.049378">
        <ele>258.310488</ele>
        <time>2020-08-10T09:07:12.754Z</time>
      </trkpt>
      <trkpt lat="38.036657" lon="-4.049553">
        <ele>258.749205</ele>
        <time>2020-08-10T09:07:15.753Z</time>
      </trkpt>
      <trkpt lat="38.036679" lon="-4.049677">
        <ele>259.064554</ele>
        <time>2020-08-10T09:07:17.749Z</time>
      </trkpt>
      <trkpt lat="38.036679" lon="-4.049832">
        <ele>259.449104</ele>
        <time>2020-08-10T09:07:20.752Z</time>
      </trkpt>
      <trkpt lat="38.036677" lon="-4.049981">
        <ele>259.818822</ele>
        <time>2020-08-10T09:07:23.750Z</time>
      </trkpt>
      <trkpt lat="38.036667" lon="-4.050101">
        <ele>260.118200</ele>
        <time>2020-08-10T09:07:25.749Z</time>
      </trkpt>
      <trkpt lat="38.036641" lon="-4.050252">
        <ele>260.501675</ele>
        <time>2020-08-10T09:07:28.749Z</time>
      </trkpt>
      <trkpt lat="38.036616" lon="-4.050399">
        <ele>260.874783</ele>
        <time>2020-08-10T09:07:31.755Z</time>
      </trkpt>
      <trkpt lat="38.036588" lon="-4.050546">
        <ele>261.022536</ele>
        <time>2020-08-10T09:07:34.750Z</time>
      </trkpt>
      <trkpt lat="38.036575" lon="-4.050695">
        <ele>260.862234</ele>
        <time>2020-08-10T09:07:37.757Z</time>
      </trkpt>
      <trkpt lat="38.036553" lon="-4.050835">
        <ele>260.709580</ele>
        <time>2020-08-10T09:07:40.756Z</time>
      </trkpt>
      <trkpt lat="38.036537" lon="-4.050971">
        <ele>260.562540</ele>
        <time>2020-08-10T09:07:44.747Z</time>
      </trkpt>
      <trkpt lat="38.036520" lon="-4.051113">
        <ele>260.408954</ele>
        <time>2020-08-10T09:07:48.754Z</time>
      </trkpt>
      <trkpt lat="38.036510" lon="-4.051252">
        <ele>260.259701</ele>
        <time>2020-08-10T09:07:52.753Z</time>
      </trkpt>
      <trkpt lat="38.036494" lon="-4.051389">
        <ele>260.111604</ele>
        <time>2020-08-10T09:07:57.745Z</time>
      </trkpt>
      <trkpt lat="38.036462" lon="-4.051526">
        <ele>259.958802</ele>
        <time>2020-08-10T09:08:02.738Z</time>
      </trkpt>
      <trkpt lat="38.036484" lon="-4.051676">
        <ele>259.795648</ele>
        <time>2020-08-10T09:08:07.740Z</time>
      </trkpt>
      <trkpt lat="38.036511" lon="-4.051887">
        <ele>259.567065</ele>
        <time>2020-08-10T09:08:10.739Z</time>
      </trkpt>
      <trkpt lat="38.036507" lon="-4.052043">
        <ele>259.400164</ele>
        <time>2020-08-10T09:08:12.752Z</time>
      </trkpt>
      <trkpt lat="38.036436" lon="-4.052169">
        <ele>259.234499</ele>
        <time>2020-08-10T09:08:14.732Z</time>
      </trkpt>
      <trkpt lat="38.036320" lon="-4.052077">
        <ele>259.048810</ele>
        <time>2020-08-10T09:08:15.750Z</time>
      </trkpt>
      <trkpt lat="38.036162" lon="-4.052107">
        <ele>258.831916</ele>
        <time>2020-08-10T09:08:17.748Z</time>
      </trkpt>
      <trkpt lat="38.036049" lon="-4.052191">
        <ele>258.654140</ele>
        <time>2020-08-10T09:08:19.752Z</time>
      </trkpt>
      <trkpt lat="38.035930" lon="-4.052262">
        <ele>258.920132</ele>
        <time>2020-08-10T09:08:21.740Z</time>
      </trkpt>
      <trkpt lat="38.035782" lon="-4.052314">
        <ele>259.245827</ele>
        <time>2020-08-10T09:08:23.749Z</time>
      </trkpt>
      <trkpt lat="38.035655" lon="-4.052363">
        <ele>259.527347</ele>
        <time>2020-08-10T09:08:25.757Z</time>
      </trkpt>
      <trkpt lat="38.035540" lon="-4.052390">
        <ele>259.775389</ele>
        <time>2020-08-10T09:08:27.746Z</time>
      </trkpt>
      <trkpt lat="38.035423" lon="-4.052402">
        <ele>260.024346</ele>
        <time>2020-08-10T09:08:29.759Z</time>
      </trkpt>
      <trkpt lat="38.035313" lon="-4.052413">
        <ele>260.258370</ele>
        <time>2020-08-10T09:08:31.741Z</time>
      </trkpt>
      <trkpt lat="38.035210" lon="-4.052421">
        <ele>260.477234</ele>
        <time>2020-08-10T09:08:33.754Z</time>
      </trkpt>
      <trkpt lat="38.035086" lon="-4.052464">
        <ele>260.749862</ele>
        <time>2020-08-10T09:08:36.754Z</time>
      </trkpt>
      <trkpt lat="38.035019" lon="-4.052580">
        <ele>260.990160</ele>
        <time>2020-08-10T09:08:38.753Z</time>
      </trkpt>
      <trkpt lat="38.035002" lon="-4.052716">
        <ele>261.220194</ele>
        <time>2020-08-10T09:08:40.749Z</time>
      </trkpt>
      <trkpt lat="38.035026" lon="-4.052872">
        <ele>261.485719</ele>
        <time>2020-08-10T09:08:42.746Z</time>
      </trkpt>
      <trkpt lat="38.035052" lon="-4.053027">
        <ele>261.750455</ele>
        <time>2020-08-10T09:08:44.747Z</time>
      </trkpt>
      <trkpt lat="38.035084" lon="-4.053194">
        <ele>262.037568</ele>
        <time>2020-08-10T09:08:46.759Z</time>
      </trkpt>
      <trkpt lat="38.035121" lon="-4.053390">
        <ele>262.374261</ele>
        <time>2020-08-10T09:08:48.778Z</time>
      </trkpt>
      <trkpt lat="38.035150" lon="-4.053581">
        <ele>262.391193</ele>
        <time>2020-08-10T09:08:50.771Z</time>
      </trkpt>
      <trkpt lat="38.035177" lon="-4.053733">
        <ele>262.310758</ele>
        <time>2020-08-10T09:08:52.752Z</time>
      </trkpt>
      <trkpt lat="38.035230" lon="-4.053884">
        <ele>262.225421</ele>
        <time>2020-08-10T09:08:54.755Z</time>
      </trkpt>
      <trkpt lat="38.035277" lon="-4.054054">
        <ele>262.132417</ele>
        <time>2020-08-10T09:08:56.753Z</time>
      </trkpt>
      <trkpt lat="38.035306" lon="-4.054237">
        <ele>262.036057</ele>
        <time>2020-08-10T09:08:58.747Z</time>
      </trkpt>
      <trkpt lat="38.035342" lon="-4.054418">
        <ele>261.939691</ele>
        <time>2020-08-10T09:09:00.776Z</time>
      </trkpt>
      <trkpt lat="38.035380" lon="-4.054613">
        <ele>261.835995</ele>
        <time>2020-08-10T09:09:02.752Z</time>
      </trkpt>
      <trkpt lat="38.035430" lon="-4.054793">
        <ele>261.737468</ele>
        <time>2020-08-10T09:09:04.757Z</time>
      </trkpt>
      <trkpt lat="38.035475" lon="-4.054970">
        <ele>261.641458</ele>
        <time>2020-08-10T09:09:06.755Z</time>
      </trkpt>
      <trkpt lat="38.035536" lon="-4.055105">
        <ele>261.561116</ele>
        <time>2020-08-10T09:09:08.749Z</time>
      </trkpt>
      <trkpt lat="38.035614" lon="-4.055241">
        <ele>261.474272</ele>
        <time>2020-08-10T09:09:10.751Z</time>
      </trkpt>
      <trkpt lat="38.035679" lon="-4.055354">
        <ele>261.402041</ele>
        <time>2020-08-10T09:09:12.758Z</time>
      </trkpt>
      <trkpt lat="38.035727" lon="-4.055489">
        <ele>261.325582</ele>
        <time>2020-08-10T09:09:14.755Z</time>
      </trkpt>
      <trkpt lat="38.035783" lon="-4.055627">
        <ele>261.225439</ele>
        <time>2020-08-10T09:09:16.751Z</time>
      </trkpt>
      <trkpt lat="38.035847" lon="-4.055754">
        <ele>261.108328</ele>
        <time>2020-08-10T09:09:18.759Z</time>
      </trkpt>
      <trkpt lat="38.035858" lon="-4.055897">
        <ele>260.996724</ele>
        <time>2020-08-10T09:09:20.752Z</time>
      </trkpt>
      <trkpt lat="38.035849" lon="-4.056031">
        <ele>260.892261</ele>
        <time>2020-08-10T09:09:22.752Z</time>
      </trkpt>
      <trkpt lat="38.035817" lon="-4.056165">
        <ele>260.783497</ele>
        <time>2020-08-10T09:09:24.757Z</time>
      </trkpt>
      <trkpt lat="38.035810" lon="-4.056317">
        <ele>260.665229</ele>
        <time>2020-08-10T09:09:26.750Z</time>
      </trkpt>
      <trkpt lat="38.035802" lon="-4.056433">
        <ele>260.574781</ele>
        <time>2020-08-10T09:09:28.749Z</time>
      </trkpt>
      <trkpt lat="38.035799" lon="-4.056591">
        <ele>260.452018</ele>
        <time>2020-08-10T09:09:31.739Z</time>
      </trkpt>
      <trkpt lat="38.035829" lon="-4.056721">
        <ele>260.346795</ele>
        <time>2020-08-10T09:09:34.739Z</time>
      </trkpt>
      <trkpt lat="38.035795" lon="-4.056865">
        <ele>260.230025</ele>
        <time>2020-08-10T09:09:37.745Z</time>
      </trkpt>
      <trkpt lat="38.035776" lon="-4.056977">
        <ele>260.141033</ele>
        <time>2020-08-10T09:09:39.747Z</time>
      </trkpt>
      <trkpt lat="38.035736" lon="-4.057140">
        <ele>260.008419</ele>
        <time>2020-08-10T09:09:42.757Z</time>
      </trkpt>
      <trkpt lat="38.035703" lon="-4.057277">
        <ele>259.897139</ele>
        <time>2020-08-10T09:09:44.744Z</time>
      </trkpt>
      <trkpt lat="38.035633" lon="-4.057414">
        <ele>259.770293</ele>
        <time>2020-08-10T09:09:46.758Z</time>
      </trkpt>
      <trkpt lat="38.035566" lon="-4.057578">
        <ele>259.626788</ele>
        <time>2020-08-10T09:09:48.770Z</time>
      </trkpt>
      <trkpt lat="38.035521" lon="-4.057735">
        <ele>259.479242</ele>
        <time>2020-08-10T09:09:50.747Z</time>
      </trkpt>
      <trkpt lat="38.035479" lon="-4.057908">
        <ele>259.163336</ele>
        <time>2020-08-10T09:09:52.754Z</time>
      </trkpt>
      <trkpt lat="38.035431" lon="-4.058051">
        <ele>258.892081</ele>
        <time>2020-08-10T09:09:54.768Z</time>
      </trkpt>
      <trkpt lat="38.035398" lon="-4.058200">
        <ele>258.621987</ele>
        <time>2020-08-10T09:09:56.761Z</time>
      </trkpt>
      <trkpt lat="38.035364" lon="-4.058349">
        <ele>258.351285</ele>
        <time>2020-08-10T09:09:58.758Z</time>
      </trkpt>
      <trkpt lat="38.035321" lon="-4.058505">
        <ele>258.062871</ele>
        <time>2020-08-10T09:10:00.756Z</time>
      </trkpt>
      <trkpt lat="38.035343" lon="-4.058632">
        <ele>257.835955</ele>
        <time>2020-08-10T09:10:02.751Z</time>
      </trkpt>
      <trkpt lat="38.035399" lon="-4.058722">
        <ele>257.635807</ele>
        <time>2020-08-10T09:10:04.744Z</time>
      </trkpt>
      <trkpt lat="38.035489" lon="-4.058804">
        <ele>257.390378</ele>
        <time>2020-08-10T09:10:06.755Z</time>
      </trkpt>
      <trkpt lat="38.035558" lon="-4.058905">
        <ele>257.157068</ele>
        <time>2020-08-10T09:10:08.756Z</time>
      </trkpt>
      <trkpt lat="38.035636" lon="-4.058992">
        <ele>256.927040</ele>
        <time>2020-08-10T09:10:10.752Z</time>
      </trkpt>
      <trkpt lat="38.035771" lon="-4.058941">
        <ele>256.614982</ele>
        <time>2020-08-10T09:10:13.743Z</time>
      </trkpt>
      <trkpt lat="38.035868" lon="-4.058859">
        <ele>256.356794</ele>
        <time>2020-08-10T09:10:15.750Z</time>
      </trkpt>
      <trkpt lat="38.035971" lon="-4.058786">
        <ele>256.095446</ele>
        <time>2020-08-10T09:10:17.750Z</time>
      </trkpt>
      <trkpt lat="38.036058" lon="-4.058680">
        <ele>255.828297</ele>
        <time>2020-08-10T09:10:19.745Z</time>
      </trkpt>
      <trkpt lat="38.036163" lon="-4.058634">
        <ele>255.582205</ele>
        <time>2020-08-10T09:10:22.752Z</time>
      </trkpt>
      <trkpt lat="38.036253" lon="-4.058608">
        <ele>255.526289</ele>
        <time>2020-08-10T09:10:26.761Z</time>
      </trkpt>
      <trkpt lat="38.036351" lon="-4.058544">
        <ele>255.526289</ele>
        <time>2020-08-10T09:10:29.749Z</time>
      </trkpt>
      <trkpt lat="38.036447" lon="-4.058523">
        <ele>255.526289</ele>
        <time>2020-08-10T09:10:32.755Z</time>
      </trkpt>
      <trkpt lat="38.036539" lon="-4.058484">
        <ele>255.526289</ele>
        <time>2020-08-10T09:10:35.747Z</time>
      </trkpt>
      <trkpt lat="38.036640" lon="-4.058433">
        <ele>255.526289</ele>
        <time>2020-08-10T09:10:39.762Z</time>
      </trkpt>
      <trkpt lat="38.036747" lon="-4.058390">
        <ele>255.526289</ele>
        <time>2020-08-10T09:10:44.746Z</time>
      </trkpt>
      <trkpt lat="38.036839" lon="-4.058350">
        <ele>255.526289</ele>
        <time>2020-08-10T09:10:47.747Z</time>
      </trkpt>
      <trkpt lat="38.036941" lon="-4.058337">
        <ele>255.526289</ele>
        <time>2020-08-10T09:10:50.752Z</time>
      </trkpt>
      <trkpt lat="38.037028" lon="-4.058379">
        <ele>255.526289</ele>
        <time>2020-08-10T09:10:53.753Z</time>
      </trkpt>
      <trkpt lat="38.037113" lon="-4.058455">
        <ele>255.526289</ele>
        <time>2020-08-10T09:10:56.750Z</time>
      </trkpt>
      <trkpt lat="38.037244" lon="-4.058510">
        <ele>255.526289</ele>
        <time>2020-08-10T09:10:59.750Z</time>
      </trkpt>
      <trkpt lat="38.037365" lon="-4.058554">
        <ele>255.526289</ele>
        <time>2020-08-10T09:11:02.753Z</time>
      </trkpt>
      <trkpt lat="38.037472" lon="-4.058604">
        <ele>255.526289</ele>
        <time>2020-08-10T09:11:05.756Z</time>
      </trkpt>
      <trkpt lat="38.037571" lon="-4.058648">
        <ele>255.526289</ele>
        <time>2020-08-10T09:11:08.752Z</time>
      </trkpt>
      <trkpt lat="38.037666" lon="-4.058688">
        <ele>255.526289</ele>
        <time>2020-08-10T09:11:11.749Z</time>
      </trkpt>
      <trkpt lat="38.037765" lon="-4.058737">
        <ele>255.526289</ele>
        <time>2020-08-10T09:11:14.754Z</time>
      </trkpt>
      <trkpt lat="38.037871" lon="-4.058791">
        <ele>255.526289</ele>
        <time>2020-08-10T09:11:17.743Z</time>
      </trkpt>
      <trkpt lat="38.037982" lon="-4.058854">
        <ele>255.526289</ele>
        <time>2020-08-10T09:11:20.747Z</time>
      </trkpt>
      <trkpt lat="38.038090" lon="-4.058918">
        <ele>255.526289</ele>
        <time>2020-08-10T09:11:23.755Z</time>
      </trkpt>
      <trkpt lat="38.038183" lon="-4.058988">
        <ele>255.526289</ele>
        <time>2020-08-10T09:11:26.748Z</time>
      </trkpt>
      <trkpt lat="38.038286" lon="-4.059038">
        <ele>255.526289</ele>
        <time>2020-08-10T09:11:30.755Z</time>
      </trkpt>
      <trkpt lat="38.038365" lon="-4.058979">
        <ele>255.526289</ele>
        <time>2020-08-10T09:11:49.755Z</time>
      </trkpt>
      <trkpt lat="38.038373" lon="-4.058970">
        <ele>255.526289</ele>
        <time>2020-08-10T09:11:53.192Z</time>
      </trkpt>
      <trkpt lat="38.031205" lon="-4.065390">
        <ele>251.538575</ele>
        <time>2020-08-11T05:48:47.254Z</time>
      </trkpt>
      <trkpt lat="38.031344" lon="-4.065113">
        <ele>251.538575</ele>
        <time>2020-08-11T05:49:33.824Z</time>
      </trkpt>
      <trkpt lat="38.031445" lon="-4.065030">
        <ele>251.538575</ele>
        <time>2020-08-11T05:49:35.833Z</time>
      </trkpt>
      <trkpt lat="38.031487" lon="-4.064929">
        <ele>251.538575</ele>
        <time>2020-08-11T05:49:37.841Z</time>
      </trkpt>
      <trkpt lat="38.031534" lon="-4.064782">
        <ele>251.538575</ele>
        <time>2020-08-11T05:49:40.844Z</time>
      </trkpt>
      <trkpt lat="38.031608" lon="-4.064652">
        <ele>251.538575</ele>
        <time>2020-08-11T05:49:43.816Z</time>
      </trkpt>
      <trkpt lat="38.031655" lon="-4.064518">
        <ele>251.538575</ele>
        <time>2020-08-11T05:49:46.838Z</time>
      </trkpt>
      <trkpt lat="38.031703" lon="-4.064416">
        <ele>251.567778</ele>
        <time>2020-08-11T05:49:49.842Z</time>
      </trkpt>
      <trkpt lat="38.031686" lon="-4.064267">
        <ele>251.682897</ele>
        <time>2020-08-11T05:49:52.839Z</time>
      </trkpt>
      <trkpt lat="38.031720" lon="-4.064115">
        <ele>251.803716</ele>
        <time>2020-08-11T05:49:55.843Z</time>
      </trkpt>
      <trkpt lat="38.031739" lon="-4.063950">
        <ele>251.931221</ele>
        <time>2020-08-11T05:49:58.837Z</time>
      </trkpt>
      <trkpt lat="38.031753" lon="-4.063785">
        <ele>252.058115</ele>
        <time>2020-08-11T05:50:01.823Z</time>
      </trkpt>
      <trkpt lat="38.031764" lon="-4.063614">
        <ele>252.189302</ele>
        <time>2020-08-11T05:50:04.834Z</time>
      </trkpt>
      <trkpt lat="38.031788" lon="-4.063504">
        <ele>252.276578</ele>
        <time>2020-08-11T05:50:06.837Z</time>
      </trkpt>
      <trkpt lat="38.031806" lon="-4.063384">
        <ele>252.369983</ele>
        <time>2020-08-11T05:50:08.836Z</time>
      </trkpt>
      <trkpt lat="38.031845" lon="-4.063263">
        <ele>252.469949</ele>
        <time>2020-08-11T05:50:10.828Z</time>
      </trkpt>
      <trkpt lat="38.031873" lon="-4.063140">
        <ele>252.567848</ele>
        <time>2020-08-11T05:50:12.835Z</time>
      </trkpt>
      <trkpt lat="38.031897" lon="-4.063017">
        <ele>252.664740</ele>
        <time>2020-08-11T05:50:14.848Z</time>
      </trkpt>
      <trkpt lat="38.031863" lon="-4.062850">
        <ele>252.796629</ele>
        <time>2020-08-11T05:50:16.835Z</time>
      </trkpt>
      <trkpt lat="38.031882" lon="-4.062724">
        <ele>252.894722</ele>
        <time>2020-08-11T05:50:18.843Z</time>
      </trkpt>
      <trkpt lat="38.031858" lon="-4.062597">
        <ele>252.994586</ele>
        <time>2020-08-11T05:50:20.829Z</time>
      </trkpt>
      <trkpt lat="38.031824" lon="-4.062483">
        <ele>253.087793</ele>
        <time>2020-08-11T05:50:22.828Z</time>
      </trkpt>
      <trkpt lat="38.031807" lon="-4.062337">
        <ele>253.200642</ele>
        <time>2020-08-11T05:50:26.824Z</time>
      </trkpt>
      <trkpt lat="38.031902" lon="-4.062379">
        <ele>253.297305</ele>
        <time>2020-08-11T05:50:41.831Z</time>
      </trkpt>
      <trkpt lat="38.031972" lon="-4.062487">
        <ele>253.396514</ele>
        <time>2020-08-11T05:50:44.825Z</time>
      </trkpt>
      <trkpt lat="38.032046" lon="-4.062594">
        <ele>253.497516</ele>
        <time>2020-08-11T05:50:47.844Z</time>
      </trkpt>
      <trkpt lat="38.032172" lon="-4.062640">
        <ele>253.615583</ele>
        <time>2020-08-11T05:50:50.833Z</time>
      </trkpt>
      <trkpt lat="38.032269" lon="-4.062690">
        <ele>253.709861</ele>
        <time>2020-08-11T05:50:52.830Z</time>
      </trkpt>
      <trkpt lat="38.032330" lon="-4.062807">
        <ele>253.809386</ele>
        <time>2020-08-11T05:50:54.838Z</time>
      </trkpt>
      <trkpt lat="38.032392" lon="-4.062903">
        <ele>253.897444</ele>
        <time>2020-08-11T05:50:56.822Z</time>
      </trkpt>
      <trkpt lat="38.032432" lon="-4.063025">
        <ele>253.991179</ele>
        <time>2020-08-11T05:50:58.829Z</time>
      </trkpt>
      <trkpt lat="38.032343" lon="-4.062945">
        <ele>254.089383</ele>
        <time>2020-08-11T05:51:08.811Z</time>
      </trkpt>
      <trkpt lat="38.032356" lon="-4.062824">
        <ele>254.176006</ele>
        <time>2020-08-11T05:51:13.837Z</time>
      </trkpt>
      <trkpt lat="38.032452" lon="-4.062881">
        <ele>254.271445</ele>
        <time>2020-08-11T05:51:17.829Z</time>
      </trkpt>
      <trkpt lat="38.032556" lon="-4.062939">
        <ele>254.373739</ele>
        <time>2020-08-11T05:51:20.839Z</time>
      </trkpt>
      <trkpt lat="38.032643" lon="-4.063039">
        <ele>254.479426</ele>
        <time>2020-08-11T05:51:23.825Z</time>
      </trkpt>
      <trkpt lat="38.032705" lon="-4.063149">
        <ele>254.575370</ele>
        <time>2020-08-11T05:51:26.839Z</time>
      </trkpt>
      <trkpt lat="38.032773" lon="-4.063247">
        <ele>254.668010</ele>
        <time>2020-08-11T05:51:29.842Z</time>
      </trkpt>
      <trkpt lat="38.032848" lon="-4.063349">
        <ele>254.766986</ele>
        <time>2020-08-11T05:51:32.833Z</time>
      </trkpt>
      <trkpt lat="38.032940" lon="-4.063443">
        <ele>254.873334</ele>
        <time>2020-08-11T05:51:35.831Z</time>
      </trkpt>
      <trkpt lat="38.033039" lon="-4.063534">
        <ele>254.874037</ele>
        <time>2020-08-11T05:51:38.835Z</time>
      </trkpt>
      <trkpt lat="38.033131" lon="-4.063627">
        <ele>254.833404</ele>
        <time>2020-08-11T05:51:41.842Z</time>
      </trkpt>
      <trkpt lat="38.033202" lon="-4.063708">
        <ele>254.800422</ele>
        <time>2020-08-11T05:51:43.832Z</time>
      </trkpt>
      <trkpt lat="38.033296" lon="-4.063750">
        <ele>254.765991</ele>
        <time>2020-08-11T05:51:46.833Z</time>
      </trkpt>
      <trkpt lat="38.033389" lon="-4.063813">
        <ele>254.729569</ele>
        <time>2020-08-11T05:51:50.833Z</time>
      </trkpt>
      <trkpt lat="38.033488" lon="-4.063870">
        <ele>254.692009</ele>
        <time>2020-08-11T05:51:54.829Z</time>
      </trkpt>
      <trkpt lat="38.033589" lon="-4.063935">
        <ele>254.652884</ele>
        <time>2020-08-11T05:51:58.838Z</time>
      </trkpt>
      <trkpt lat="38.033672" lon="-4.064002">
        <ele>254.618900</ele>
        <time>2020-08-11T05:52:01.834Z</time>
      </trkpt>
      <trkpt lat="38.033764" lon="-4.064074">
        <ele>254.581558</ele>
        <time>2020-08-11T05:52:04.835Z</time>
      </trkpt>
      <trkpt lat="38.033864" lon="-4.064162">
        <ele>254.539517</ele>
        <time>2020-08-11T05:52:07.847Z</time>
      </trkpt>
      <trkpt lat="38.033966" lon="-4.064234">
        <ele>254.499193</ele>
        <time>2020-08-11T05:52:10.823Z</time>
      </trkpt>
      <trkpt lat="38.034068" lon="-4.064312">
        <ele>254.458051</ele>
        <time>2020-08-11T05:52:13.835Z</time>
      </trkpt>
      <trkpt lat="38.034178" lon="-4.064388">
        <ele>254.414780</ele>
        <time>2020-08-11T05:52:16.836Z</time>
      </trkpt>
      <trkpt lat="38.034293" lon="-4.064462">
        <ele>254.370233</ele>
        <time>2020-08-11T05:52:19.836Z</time>
      </trkpt>
      <trkpt lat="38.034410" lon="-4.064518">
        <ele>254.327030</ele>
        <time>2020-08-11T05:52:22.850Z</time>
      </trkpt>
      <trkpt lat="38.034497" lon="-4.064547">
        <ele>254.295950</ele>
        <time>2020-08-11T05:52:24.837Z</time>
      </trkpt>
      <trkpt lat="38.034588" lon="-4.064575">
        <ele>254.155418</ele>
        <time>2020-08-11T05:52:26.838Z</time>
      </trkpt>
      <trkpt lat="38.034716" lon="-4.064618">
        <ele>253.853168</ele>
        <time>2020-08-11T05:52:29.837Z</time>
      </trkpt>
      <trkpt lat="38.034846" lon="-4.064659">
        <ele>253.547389</ele>
        <time>2020-08-11T05:52:32.838Z</time>
      </trkpt>
      <trkpt lat="38.034956" lon="-4.064696">
        <ele>253.287622</ele>
        <time>2020-08-11T05:52:35.840Z</time>
      </trkpt>
      <trkpt lat="38.035046" lon="-4.064722">
        <ele>253.076921</ele>
        <time>2020-08-11T05:52:37.828Z</time>
      </trkpt>
      <trkpt lat="38.035136" lon="-4.064778">
        <ele>252.848126</ele>
        <time>2020-08-11T05:52:39.832Z</time>
      </trkpt>
      <trkpt lat="38.035235" lon="-4.064802">
        <ele>252.618049</ele>
        <time>2020-08-11T05:52:41.826Z</time>
      </trkpt>
      <trkpt lat="38.035352" lon="-4.064857">
        <ele>252.333246</ele>
        <time>2020-08-11T05:52:44.826Z</time>
      </trkpt>
      <trkpt lat="38.035457" lon="-4.064887">
        <ele>252.087561</ele>
        <time>2020-08-11T05:52:47.853Z</time>
      </trkpt>
      <trkpt lat="38.035575" lon="-4.064914">
        <ele>251.813855</ele>
        <time>2020-08-11T05:52:50.838Z</time>
      </trkpt>
      <trkpt lat="38.035704" lon="-4.064948">
        <ele>251.513100</ele>
        <time>2020-08-11T05:52:53.827Z</time>
      </trkpt>
      <trkpt lat="38.035827" lon="-4.064974">
        <ele>251.228455</ele>
        <time>2020-08-11T05:52:56.841Z</time>
      </trkpt>
      <trkpt lat="38.035953" lon="-4.065005">
        <ele>250.935475</ele>
        <time>2020-08-11T05:52:59.827Z</time>
      </trkpt>
      <trkpt lat="38.036075" lon="-4.065060">
        <ele>250.639942</ele>
        <time>2020-08-11T05:53:02.827Z</time>
      </trkpt>
      <trkpt lat="38.036166" lon="-4.065081">
        <ele>250.428807</ele>
        <time>2020-08-11T05:53:04.830Z</time>
      </trkpt>
      <trkpt lat="38.036261" lon="-4.065106">
        <ele>250.207335</ele>
        <time>2020-08-11T05:53:06.823Z</time>
      </trkpt>
      <trkpt lat="38.036383" lon="-4.065158">
        <ele>250.061234</ele>
        <time>2020-08-11T05:53:09.840Z</time>
      </trkpt>
      <trkpt lat="38.036510" lon="-4.065178">
        <ele>249.932852</ele>
        <time>2020-08-11T05:53:12.829Z</time>
      </trkpt>
      <trkpt lat="38.036636" lon="-4.065209">
        <ele>249.804098</ele>
        <time>2020-08-11T05:53:15.831Z</time>
      </trkpt>
      <trkpt lat="38.036754" lon="-4.065249">
        <ele>249.681575</ele>
        <time>2020-08-11T05:53:18.824Z</time>
      </trkpt>
      <trkpt lat="38.036872" lon="-4.065287">
        <ele>249.559450</ele>
        <time>2020-08-11T05:53:21.839Z</time>
      </trkpt>
      <trkpt lat="38.036956" lon="-4.065332">
        <ele>249.467988</ele>
        <time>2020-08-11T05:53:23.833Z</time>
      </trkpt>
      <trkpt lat="38.037073" lon="-4.065357">
        <ele>249.348964</ele>
        <time>2020-08-11T05:53:26.837Z</time>
      </trkpt>
      <trkpt lat="38.037195" lon="-4.065398">
        <ele>249.222359</ele>
        <time>2020-08-11T05:53:29.817Z</time>
      </trkpt>
      <trkpt lat="38.037313" lon="-4.065455">
        <ele>249.095705</ele>
        <time>2020-08-11T05:53:32.829Z</time>
      </trkpt>
      <trkpt lat="38.037405" lon="-4.065494">
        <ele>248.998403</ele>
        <time>2020-08-11T05:53:34.832Z</time>
      </trkpt>
      <trkpt lat="38.037526" lon="-4.065531">
        <ele>248.873546</ele>
        <time>2020-08-11T05:53:37.842Z</time>
      </trkpt>
      <trkpt lat="38.037611" lon="-4.065583">
        <ele>248.778892</ele>
        <time>2020-08-11T05:53:39.839Z</time>
      </trkpt>
      <trkpt lat="38.037741" lon="-4.065627">
        <ele>248.643923</ele>
        <time>2020-08-11T05:53:42.822Z</time>
      </trkpt>
      <trkpt lat="38.037824" lon="-4.065671">
        <ele>248.553692</ele>
        <time>2020-08-11T05:53:44.834Z</time>
      </trkpt>
      <trkpt lat="38.037938" lon="-4.065765">
        <ele>248.417327</ele>
        <time>2020-08-11T05:53:47.826Z</time>
      </trkpt>
      <trkpt lat="38.038011" lon="-4.065835">
        <ele>248.413372</ele>
        <time>2020-08-11T05:53:49.819Z</time>
      </trkpt>
      <trkpt lat="38.038125" lon="-4.065914">
        <ele>248.526172</ele>
        <time>2020-08-11T05:53:52.842Z</time>
      </trkpt>
      <trkpt lat="38.038252" lon="-4.065988">
        <ele>248.647535</ele>
        <time>2020-08-11T05:53:55.828Z</time>
      </trkpt>
      <trkpt lat="38.038332" lon="-4.066044">
        <ele>248.726877</ele>
        <time>2020-08-11T05:53:57.823Z</time>
      </trkpt>
      <trkpt lat="38.038446" lon="-4.066119">
        <ele>248.838392</ele>
        <time>2020-08-11T05:54:00.838Z</time>
      </trkpt>
      <trkpt lat="38.038529" lon="-4.066188">
        <ele>248.924557</ele>
        <time>2020-08-11T05:54:02.836Z</time>
      </trkpt>
      <trkpt lat="38.038621" lon="-4.066300">
        <ele>249.035256</ele>
        <time>2020-08-11T05:54:05.838Z</time>
      </trkpt>
      <trkpt lat="38.038731" lon="-4.066395">
        <ele>249.150800</ele>
        <time>2020-08-11T05:54:08.842Z</time>
      </trkpt>
      <trkpt lat="38.038808" lon="-4.066469">
        <ele>249.234674</ele>
        <time>2020-08-11T05:54:10.847Z</time>
      </trkpt>
      <trkpt lat="38.038895" lon="-4.066517">
        <ele>249.317061</ele>
        <time>2020-08-11T05:54:12.823Z</time>
      </trkpt>
      <trkpt lat="38.038974" lon="-4.066591">
        <ele>249.402326</ele>
        <time>2020-08-11T05:54:14.840Z</time>
      </trkpt>
      <trkpt lat="38.039051" lon="-4.066670">
        <ele>249.488307</ele>
        <time>2020-08-11T05:54:16.836Z</time>
      </trkpt>
      <trkpt lat="38.039120" lon="-4.066764">
        <ele>249.576204</ele>
        <time>2020-08-11T05:54:18.843Z</time>
      </trkpt>
      <trkpt lat="38.039195" lon="-4.066842">
        <ele>249.660406</ele>
        <time>2020-08-11T05:54:20.834Z</time>
      </trkpt>
      <trkpt lat="38.039270" lon="-4.066921">
        <ele>249.745043</ele>
        <time>2020-08-11T05:54:22.834Z</time>
      </trkpt>
      <trkpt lat="38.039346" lon="-4.066988">
        <ele>249.825402</ele>
        <time>2020-08-11T05:54:24.831Z</time>
      </trkpt>
      <trkpt lat="38.039422" lon="-4.067057">
        <ele>249.906548</ele>
        <time>2020-08-11T05:54:26.834Z</time>
      </trkpt>
      <trkpt lat="38.039489" lon="-4.067135">
        <ele>249.932801</ele>
        <time>2020-08-11T05:54:28.833Z</time>
      </trkpt>
      <trkpt lat="38.039556" lon="-4.067231">
        <ele>249.929356</ele>
        <time>2020-08-11T05:54:30.845Z</time>
      </trkpt>
      <trkpt lat="38.039661" lon="-4.067331">
        <ele>249.924879</ele>
        <time>2020-08-11T05:54:33.835Z</time>
      </trkpt>
      <trkpt lat="38.039741" lon="-4.067417">
        <ele>249.921304</ele>
        <time>2020-08-11T05:54:35.835Z</time>
      </trkpt>
      <trkpt lat="38.039849" lon="-4.067520">
        <ele>249.916698</ele>
        <time>2020-08-11T05:54:38.825Z</time>
      </trkpt>
      <trkpt lat="38.039920" lon="-4.067607">
        <ele>249.913333</ele>
        <time>2020-08-11T05:54:40.825Z</time>
      </trkpt>
      <trkpt lat="38.039992" lon="-4.067686">
        <ele>249.910087</ele>
        <time>2020-08-11T05:54:42.835Z</time>
      </trkpt>
      <trkpt lat="38.040074" lon="-4.067766">
        <ele>249.906561</ele>
        <time>2020-08-11T05:54:44.823Z</time>
      </trkpt>
      <trkpt lat="38.040153" lon="-4.067855">
        <ele>249.902959</ele>
        <time>2020-08-11T05:54:46.820Z</time>
      </trkpt>
      <trkpt lat="38.040233" lon="-4.067941">
        <ele>249.899384</ele>
        <time>2020-08-11T05:54:48.822Z</time>
      </trkpt>
      <trkpt lat="38.040300" lon="-4.068027">
        <ele>249.896135</ele>
        <time>2020-08-11T05:54:50.837Z</time>
      </trkpt>
      <trkpt lat="38.040358" lon="-4.068133">
        <ele>249.892668</ele>
        <time>2020-08-11T05:54:52.839Z</time>
      </trkpt>
      <trkpt lat="38.040439" lon="-4.068230">
        <ele>249.888871</ele>
        <time>2020-08-11T05:54:54.822Z</time>
      </trkpt>
      <trkpt lat="38.040520" lon="-4.068313">
        <ele>249.885321</ele>
        <time>2020-08-11T05:54:56.829Z</time>
      </trkpt>
      <trkpt lat="38.040620" lon="-4.068429">
        <ele>249.880702</ele>
        <time>2020-08-11T05:54:59.825Z</time>
      </trkpt>
      <trkpt lat="38.040728" lon="-4.068559">
        <ele>249.875626</ele>
        <time>2020-08-11T05:55:02.830Z</time>
      </trkpt>
      <trkpt lat="38.040794" lon="-4.068646">
        <ele>249.908299</ele>
        <time>2020-08-11T05:55:04.830Z</time>
      </trkpt>
      <trkpt lat="38.040865" lon="-4.068740">
        <ele>250.022348</ele>
        <time>2020-08-11T05:55:06.824Z</time>
      </trkpt>
      <trkpt lat="38.040929" lon="-4.068822">
        <ele>250.123439</ele>
        <time>2020-08-11T05:55:08.828Z</time>
      </trkpt>
      <trkpt lat="38.041005" lon="-4.068910">
        <ele>250.237799</ele>
        <time>2020-08-11T05:55:10.837Z</time>
      </trkpt>
      <trkpt lat="38.041080" lon="-4.069005">
        <ele>250.355587</ele>
        <time>2020-08-11T05:55:12.819Z</time>
      </trkpt>
      <trkpt lat="38.041165" lon="-4.069142">
        <ele>250.508307</ele>
        <time>2020-08-11T05:55:15.828Z</time>
      </trkpt>
      <trkpt lat="38.041254" lon="-4.069265">
        <ele>250.654569</ele>
        <time>2020-08-11T05:55:18.833Z</time>
      </trkpt>
      <trkpt lat="38.041322" lon="-4.069370">
        <ele>250.773607</ele>
        <time>2020-08-11T05:55:20.838Z</time>
      </trkpt>
      <trkpt lat="38.041404" lon="-4.069501">
        <ele>250.920137</ele>
        <time>2020-08-11T05:55:23.828Z</time>
      </trkpt>
      <trkpt lat="38.041487" lon="-4.069627">
        <ele>251.063975</ele>
        <time>2020-08-11T05:55:26.835Z</time>
      </trkpt>
      <trkpt lat="38.041549" lon="-4.069713">
        <ele>251.166069</ele>
        <time>2020-08-11T05:55:28.848Z</time>
      </trkpt>
      <trkpt lat="38.041614" lon="-4.069805">
        <ele>251.274295</ele>
        <time>2020-08-11T05:55:30.840Z</time>
      </trkpt>
      <trkpt lat="38.041685" lon="-4.069920">
        <ele>251.402250</ele>
        <time>2020-08-11T05:55:33.841Z</time>
      </trkpt>
      <trkpt lat="38.041749" lon="-4.070003">
        <ele>251.503964</ele>
        <time>2020-08-11T05:55:35.837Z</time>
      </trkpt>
      <trkpt lat="38.041810" lon="-4.070111">
        <ele>251.620341</ele>
        <time>2020-08-11T05:55:37.879Z</time>
      </trkpt>
      <trkpt lat="38.041881" lon="-4.070204">
        <ele>251.733758</ele>
        <time>2020-08-11T05:55:40.836Z</time>
      </trkpt>
      <trkpt lat="38.041922" lon="-4.070327">
        <ele>251.850713</ele>
        <time>2020-08-11T05:55:42.837Z</time>
      </trkpt>
      <trkpt lat="38.041955" lon="-4.070438">
        <ele>251.948826</ele>
        <time>2020-08-11T05:55:44.834Z</time>
      </trkpt>
      <trkpt lat="38.042030" lon="-4.070595">
        <ele>252.098190</ele>
        <time>2020-08-11T05:55:47.841Z</time>
      </trkpt>
      <trkpt lat="38.042066" lon="-4.070709">
        <ele>252.198097</ele>
        <time>2020-08-11T05:55:49.826Z</time>
      </trkpt>
      <trkpt lat="38.042112" lon="-4.070834">
        <ele>252.310328</ele>
        <time>2020-08-11T05:55:51.827Z</time>
      </trkpt>
      <trkpt lat="38.042173" lon="-4.070934">
        <ele>252.413216</ele>
        <time>2020-08-11T05:55:53.839Z</time>
      </trkpt>
      <trkpt lat="38.042218" lon="-4.071041">
        <ele>252.511884</ele>
        <time>2020-08-11T05:55:55.839Z</time>
      </trkpt>
      <trkpt lat="38.042276" lon="-4.071158">
        <ele>252.624339</ele>
        <time>2020-08-11T05:55:57.834Z</time>
      </trkpt>
      <trkpt lat="38.042317" lon="-4.071276">
        <ele>252.729249</ele>
        <time>2020-08-11T05:55:59.835Z</time>
      </trkpt>
      <trkpt lat="38.042372" lon="-4.071421">
        <ele>252.860162</ele>
        <time>2020-08-11T05:56:01.833Z</time>
      </trkpt>
      <trkpt lat="38.042428" lon="-4.071527">
        <ele>252.963987</ele>
        <time>2020-08-11T05:56:03.843Z</time>
      </trkpt>
      <trkpt lat="38.042489" lon="-4.071623">
        <ele>253.064322</ele>
        <time>2020-08-11T05:56:05.842Z</time>
      </trkpt>
      <trkpt lat="38.042544" lon="-4.071749">
        <ele>253.181503</ele>
        <time>2020-08-11T05:56:07.832Z</time>
      </trkpt>
      <trkpt lat="38.042584" lon="-4.071880">
        <ele>253.295789</ele>
        <time>2020-08-11T05:56:09.836Z</time>
      </trkpt>
      <trkpt lat="38.042618" lon="-4.072019">
        <ele>253.414182</ele>
        <time>2020-08-11T05:56:11.844Z</time>
      </trkpt>
      <trkpt lat="38.042703" lon="-4.072184">
        <ele>253.574559</ele>
        <time>2020-08-11T05:56:13.836Z</time>
      </trkpt>
      <trkpt lat="38.042699" lon="-4.072309">
        <ele>253.676320</ele>
        <time>2020-08-11T05:56:15.830Z</time>
      </trkpt>
      <trkpt lat="38.042785" lon="-4.072368">
        <ele>253.712326</ele>
        <time>2020-08-11T05:56:18.827Z</time>
      </trkpt>
      <trkpt lat="38.042870" lon="-4.072496">
        <ele>253.657412</ele>
        <time>2020-08-11T05:56:20.840Z</time>
      </trkpt>
      <trkpt lat="38.042837" lon="-4.072668">
        <ele>253.599350</ele>
        <time>2020-08-11T05:56:22.843Z</time>
      </trkpt>
      <trkpt lat="38.042889" lon="-4.072792">
        <ele>253.553274</ele>
        <time>2020-08-11T05:56:24.818Z</time>
      </trkpt>
      <trkpt lat="38.042929" lon="-4.072904">
        <ele>253.512939</ele>
        <time>2020-08-11T05:56:26.833Z</time>
      </trkpt>
      <trkpt lat="38.042936" lon="-4.073077">
        <ele>253.456124</ele>
        <time>2020-08-11T05:56:28.835Z</time>
      </trkpt>
      <trkpt lat="38.042941" lon="-4.073256">
        <ele>253.397379</ele>
        <time>2020-08-11T05:56:30.826Z</time>
      </trkpt>
      <trkpt lat="38.042991" lon="-4.073372">
        <ele>253.354008</ele>
        <time>2020-08-11T05:56:33.864Z</time>
      </trkpt>
      <trkpt lat="38.043109" lon="-4.073477">
        <ele>253.294000</ele>
        <time>2020-08-11T05:56:35.835Z</time>
      </trkpt>
      <trkpt lat="38.043172" lon="-4.073616">
        <ele>253.241401</ele>
        <time>2020-08-11T05:56:37.841Z</time>
      </trkpt>
      <trkpt lat="38.043267" lon="-4.073712">
        <ele>253.190838</ele>
        <time>2020-08-11T05:56:39.841Z</time>
      </trkpt>
      <trkpt lat="38.043258" lon="-4.073852">
        <ele>253.144768</ele>
        <time>2020-08-11T05:56:41.838Z</time>
      </trkpt>
      <trkpt lat="38.043365" lon="-4.073860">
        <ele>253.100130</ele>
        <time>2020-08-11T05:56:43.838Z</time>
      </trkpt>
      <trkpt lat="38.043393" lon="-4.073987">
        <ele>253.056875</ele>
        <time>2020-08-11T05:56:45.829Z</time>
      </trkpt>
      <trkpt lat="38.043409" lon="-4.074124">
        <ele>253.011451</ele>
        <time>2020-08-11T05:56:47.846Z</time>
      </trkpt>
      <trkpt lat="38.043422" lon="-4.074283">
        <ele>253.047471</ele>
        <time>2020-08-11T05:56:49.847Z</time>
      </trkpt>
      <trkpt lat="38.043420" lon="-4.074441">
        <ele>253.195716</ele>
        <time>2020-08-11T05:56:51.834Z</time>
      </trkpt>
      <trkpt lat="38.043471" lon="-4.074562">
        <ele>253.324465</ele>
        <time>2020-08-11T05:56:53.837Z</time>
      </trkpt>
      <trkpt lat="38.043526" lon="-4.074681">
        <ele>253.453908</ele>
        <time>2020-08-11T05:56:55.833Z</time>
      </trkpt>
      <trkpt lat="38.043577" lon="-4.074783">
        <ele>253.567253</ele>
        <time>2020-08-11T05:56:57.837Z</time>
      </trkpt>
      <trkpt lat="38.043638" lon="-4.074898">
        <ele>253.697328</ele>
        <time>2020-08-11T05:56:59.833Z</time>
      </trkpt>
      <trkpt lat="38.043680" lon="-4.075011">
        <ele>253.814550</ele>
        <time>2020-08-11T05:57:01.837Z</time>
      </trkpt>
      <trkpt lat="38.043774" lon="-4.075112">
        <ele>253.961233</ele>
        <time>2020-08-11T05:57:04.841Z</time>
      </trkpt>
      <trkpt lat="38.043817" lon="-4.075281">
        <ele>254.127846</ele>
        <time>2020-08-11T05:57:06.834Z</time>
      </trkpt>
      <trkpt lat="38.043866" lon="-4.075383">
        <ele>254.239933</ele>
        <time>2020-08-11T05:57:08.832Z</time>
      </trkpt>
      <trkpt lat="38.043902" lon="-4.075516">
        <ele>254.371868</ele>
        <time>2020-08-11T05:57:10.834Z</time>
      </trkpt>
      <trkpt lat="38.043935" lon="-4.075645">
        <ele>254.499111</ele>
        <time>2020-08-11T05:57:12.825Z</time>
      </trkpt>
      <trkpt lat="38.043985" lon="-4.075785">
        <ele>254.643323</ele>
        <time>2020-08-11T05:57:14.831Z</time>
      </trkpt>
      <trkpt lat="38.044045" lon="-4.075950">
        <ele>254.813818</ele>
        <time>2020-08-11T05:57:17.842Z</time>
      </trkpt>
      <trkpt lat="38.044075" lon="-4.076061">
        <ele>254.923911</ele>
        <time>2020-08-11T05:57:19.821Z</time>
      </trkpt>
      <trkpt lat="38.044105" lon="-4.076193">
        <ele>255.052797</ele>
        <time>2020-08-11T05:57:21.840Z</time>
      </trkpt>
      <trkpt lat="38.044198" lon="-4.076332">
        <ele>255.196130</ele>
        <time>2020-08-11T05:57:24.836Z</time>
      </trkpt>
      <trkpt lat="38.044242" lon="-4.076446">
        <ele>255.281952</ele>
        <time>2020-08-11T05:57:26.827Z</time>
      </trkpt>
      <trkpt lat="38.044262" lon="-4.076560">
        <ele>255.360905</ele>
        <time>2020-08-11T05:57:28.837Z</time>
      </trkpt>
      <trkpt lat="38.044332" lon="-4.076667">
        <ele>255.454939</ele>
        <time>2020-08-11T05:57:30.827Z</time>
      </trkpt>
      <trkpt lat="38.044375" lon="-4.076832">
        <ele>255.572428</ele>
        <time>2020-08-11T05:57:33.816Z</time>
      </trkpt>
      <trkpt lat="38.044384" lon="-4.076993">
        <ele>255.681538</ele>
        <time>2020-08-11T05:57:35.823Z</time>
      </trkpt>
      <trkpt lat="38.044495" lon="-4.077060">
        <ele>255.787035</ele>
        <time>2020-08-11T05:57:37.827Z</time>
      </trkpt>
      <trkpt lat="38.044602" lon="-4.077093">
        <ele>255.881552</ele>
        <time>2020-08-11T05:57:39.825Z</time>
      </trkpt>
      <trkpt lat="38.044577" lon="-4.077276">
        <ele>256.007107</ele>
        <time>2020-08-11T05:57:42.834Z</time>
      </trkpt>
      <trkpt lat="38.044524" lon="-4.077474">
        <ele>256.148475</ele>
        <time>2020-08-11T05:57:44.844Z</time>
      </trkpt>
      <trkpt lat="38.044580" lon="-4.077600">
        <ele>256.246279</ele>
        <time>2020-08-11T05:57:46.836Z</time>
      </trkpt>
      <trkpt lat="38.044588" lon="-4.077728">
        <ele>256.333079</ele>
        <time>2020-08-11T05:57:48.832Z</time>
      </trkpt>
      <trkpt lat="38.044575" lon="-4.077900">
        <ele>256.449885</ele>
        <time>2020-08-11T05:57:50.837Z</time>
      </trkpt>
      <trkpt lat="38.044538" lon="-4.078097">
        <ele>256.586792</ele>
        <time>2020-08-11T05:57:52.835Z</time>
      </trkpt>
      <trkpt lat="38.044573" lon="-4.078239">
        <ele>256.678621</ele>
        <time>2020-08-11T05:57:55.825Z</time>
      </trkpt>
      <trkpt lat="38.044582" lon="-4.078392">
        <ele>256.734432</ele>
        <time>2020-08-11T05:57:57.832Z</time>
      </trkpt>
      <trkpt lat="38.044542" lon="-4.078584">
        <ele>256.806678</ele>
        <time>2020-08-11T05:57:59.833Z</time>
      </trkpt>
      <trkpt lat="38.044562" lon="-4.078715">
        <ele>256.855218</ele>
        <time>2020-08-11T05:58:01.829Z</time>
      </trkpt>
      <trkpt lat="38.044664" lon="-4.078792">
        <ele>256.910030</ele>
        <time>2020-08-11T05:58:03.825Z</time>
      </trkpt>
      <trkpt lat="38.044564" lon="-4.078919">
        <ele>256.975359</ele>
        <time>2020-08-11T05:58:04.817Z</time>
      </trkpt>
      <trkpt lat="38.044576" lon="-4.079122">
        <ele>257.049411</ele>
        <time>2020-08-11T05:58:07.826Z</time>
      </trkpt>
      <trkpt lat="38.044649" lon="-4.079255">
        <ele>257.108383</ele>
        <time>2020-08-11T05:58:10.842Z</time>
      </trkpt>
      <trkpt lat="38.044618" lon="-4.079424">
        <ele>257.171505</ele>
        <time>2020-08-11T05:58:12.823Z</time>
      </trkpt>
      <trkpt lat="38.044562" lon="-4.079552">
        <ele>257.224769</ele>
        <time>2020-08-11T05:58:15.844Z</time>
      </trkpt>
      <trkpt lat="38.044558" lon="-4.079671">
        <ele>257.268097</ele>
        <time>2020-08-11T05:58:17.836Z</time>
      </trkpt>
      <trkpt lat="38.044499" lon="-4.079802">
        <ele>257.322993</ele>
        <time>2020-08-11T05:58:19.829Z</time>
      </trkpt>
      <trkpt lat="38.044478" lon="-4.079922">
        <ele>257.367709</ele>
        <time>2020-08-11T05:58:21.835Z</time>
      </trkpt>
      <trkpt lat="38.044495" lon="-4.080061">
        <ele>257.418879</ele>
        <time>2020-08-11T05:58:23.816Z</time>
      </trkpt>
      <trkpt lat="38.044569" lon="-4.080154">
        <ele>257.466971</ele>
        <time>2020-08-11T05:58:26.839Z</time>
      </trkpt>
      <trkpt lat="38.044568" lon="-4.080295">
        <ele>257.511655</ele>
        <time>2020-08-11T05:58:28.829Z</time>
      </trkpt>
      <trkpt lat="38.044498" lon="-4.080475">
        <ele>257.559330</ele>
        <time>2020-08-11T05:58:31.826Z</time>
      </trkpt>
      <trkpt lat="38.044443" lon="-4.080682">
        <ele>257.611211</ele>
        <time>2020-08-11T05:58:34.837Z</time>
      </trkpt>
      <trkpt lat="38.044435" lon="-4.080841">
        <ele>257.649048</ele>
        <time>2020-08-11T05:58:36.843Z</time>
      </trkpt>
      <trkpt lat="38.044368" lon="-4.081001">
        <ele>257.692083</ele>
        <time>2020-08-11T05:58:38.828Z</time>
      </trkpt>
      <trkpt lat="38.044318" lon="-4.081155">
        <ele>257.731642</ele>
        <time>2020-08-11T05:58:40.831Z</time>
      </trkpt>
      <trkpt lat="38.044293" lon="-4.081276">
        <ele>257.761350</ele>
        <time>2020-08-11T05:58:42.831Z</time>
      </trkpt>
      <trkpt lat="38.044241" lon="-4.081441">
        <ele>257.803556</ele>
        <time>2020-08-11T05:58:44.829Z</time>
      </trkpt>
      <trkpt lat="38.044190" lon="-4.081574">
        <ele>257.838687</ele>
        <time>2020-08-11T05:58:46.830Z</time>
      </trkpt>
      <trkpt lat="38.044142" lon="-4.081702">
        <ele>257.872355</ele>
        <time>2020-08-11T05:58:48.833Z</time>
      </trkpt>
      <trkpt lat="38.044084" lon="-4.081836">
        <ele>257.908668</ele>
        <time>2020-08-11T05:58:50.830Z</time>
      </trkpt>
      <trkpt lat="38.044049" lon="-4.081943">
        <ele>257.936183</ele>
        <time>2020-08-11T05:58:52.827Z</time>
      </trkpt>
      <trkpt lat="38.044002" lon="-4.082061">
        <ele>257.967587</ele>
        <time>2020-08-11T05:58:54.836Z</time>
      </trkpt>
      <trkpt lat="38.043995" lon="-4.082200">
        <ele>258.000665</ele>
        <time>2020-08-11T05:58:56.846Z</time>
      </trkpt>
      <trkpt lat="38.043956" lon="-4.082321">
        <ele>258.031714</ele>
        <time>2020-08-11T05:58:58.817Z</time>
      </trkpt>
      <trkpt lat="38.043903" lon="-4.082451">
        <ele>257.994837</ele>
        <time>2020-08-11T05:59:00.832Z</time>
      </trkpt>
      <trkpt lat="38.043816" lon="-4.082615">
        <ele>257.906489</ele>
        <time>2020-08-11T05:59:03.823Z</time>
      </trkpt>
      <trkpt lat="38.043758" lon="-4.082769">
        <ele>257.830220</ele>
        <time>2020-08-11T05:59:05.830Z</time>
      </trkpt>
      <trkpt lat="38.043707" lon="-4.082926">
        <ele>257.754340</ele>
        <time>2020-08-11T05:59:07.837Z</time>
      </trkpt>
      <trkpt lat="38.043681" lon="-4.083039">
        <ele>257.701741</ele>
        <time>2020-08-11T05:59:09.847Z</time>
      </trkpt>
      <trkpt lat="38.043637" lon="-4.083147">
        <ele>257.647413</ele>
        <time>2020-08-11T05:59:11.830Z</time>
      </trkpt>
      <trkpt lat="38.043621" lon="-4.083288">
        <ele>257.583764</ele>
        <time>2020-08-11T05:59:13.820Z</time>
      </trkpt>
      <trkpt lat="38.043610" lon="-4.083413">
        <ele>257.527567</ele>
        <time>2020-08-11T05:59:15.823Z</time>
      </trkpt>
      <trkpt lat="38.043572" lon="-4.083585">
        <ele>257.447752</ele>
        <time>2020-08-11T05:59:17.834Z</time>
      </trkpt>
      <trkpt lat="38.043548" lon="-4.083720">
        <ele>257.385916</ele>
        <time>2020-08-11T05:59:19.816Z</time>
      </trkpt>
      <trkpt lat="38.043506" lon="-4.083857">
        <ele>257.320231</ele>
        <time>2020-08-11T05:59:21.825Z</time>
      </trkpt>
      <trkpt lat="38.043424" lon="-4.083962">
        <ele>257.254162</ele>
        <time>2020-08-11T05:59:23.820Z</time>
      </trkpt>
      <trkpt lat="38.043375" lon="-4.084079">
        <ele>257.194955</ele>
        <time>2020-08-11T05:59:25.822Z</time>
      </trkpt>
      <trkpt lat="38.043315" lon="-4.084213">
        <ele>257.126084</ele>
        <time>2020-08-11T05:59:27.823Z</time>
      </trkpt>
      <trkpt lat="38.043298" lon="-4.084335">
        <ele>257.070728</ele>
        <time>2020-08-11T05:59:30.833Z</time>
      </trkpt>
      <trkpt lat="38.043318" lon="-4.084481">
        <ele>256.947912</ele>
        <time>2020-08-11T05:59:32.820Z</time>
      </trkpt>
      <trkpt lat="38.043278" lon="-4.084692">
        <ele>256.521792</ele>
        <time>2020-08-11T05:59:34.822Z</time>
      </trkpt>
      <trkpt lat="38.043209" lon="-4.084917">
        <ele>256.047707</ele>
        <time>2020-08-11T05:59:35.821Z</time>
      </trkpt>
      <trkpt lat="38.043162" lon="-4.085042">
        <ele>255.775739</ele>
        <time>2020-08-11T05:59:37.826Z</time>
      </trkpt>
      <trkpt lat="38.043137" lon="-4.085213">
        <ele>255.434254</ele>
        <time>2020-08-11T05:59:40.834Z</time>
      </trkpt>
      <trkpt lat="38.043155" lon="-4.085390">
        <ele>255.083839</ele>
        <time>2020-08-11T05:59:43.818Z</time>
      </trkpt>
      <trkpt lat="38.043189" lon="-4.085542">
        <ele>254.773591</ele>
        <time>2020-08-11T05:59:45.833Z</time>
      </trkpt>
      <trkpt lat="38.043116" lon="-4.085698">
        <ele>254.417303</ele>
        <time>2020-08-11T05:59:47.843Z</time>
      </trkpt>
      <trkpt lat="38.043042" lon="-4.085801">
        <ele>254.143559</ele>
        <time>2020-08-11T05:59:49.832Z</time>
      </trkpt>
      <trkpt lat="38.042987" lon="-4.085946">
        <ele>253.827559</ele>
        <time>2020-08-11T05:59:52.836Z</time>
      </trkpt>
      <trkpt lat="38.042936" lon="-4.086083">
        <ele>253.530029</ele>
        <time>2020-08-11T05:59:54.834Z</time>
      </trkpt>
      <trkpt lat="38.042891" lon="-4.086260">
        <ele>253.164839</ele>
        <time>2020-08-11T05:59:57.833Z</time>
      </trkpt>
      <trkpt lat="38.042873" lon="-4.086404">
        <ele>252.878563</ele>
        <time>2020-08-11T05:59:59.827Z</time>
      </trkpt>
      <trkpt lat="38.042827" lon="-4.086518">
        <ele>252.627060</ele>
        <time>2020-08-11T06:00:01.825Z</time>
      </trkpt>
      <trkpt lat="38.042772" lon="-4.086611">
        <ele>252.367437</ele>
        <time>2020-08-11T06:00:03.823Z</time>
      </trkpt>
      <trkpt lat="38.042693" lon="-4.086751">
        <ele>251.952800</ele>
        <time>2020-08-11T06:00:06.830Z</time>
      </trkpt>
      <trkpt lat="38.042643" lon="-4.086919">
        <ele>251.520422</ele>
        <time>2020-08-11T06:00:08.826Z</time>
      </trkpt>
      <trkpt lat="38.042595" lon="-4.087039">
        <ele>251.196394</ele>
        <time>2020-08-11T06:00:10.830Z</time>
      </trkpt>
      <trkpt lat="38.042521" lon="-4.087138">
        <ele>250.867791</ele>
        <time>2020-08-11T06:00:12.782Z</time>
      </trkpt>
      <trkpt lat="38.042450" lon="-4.087240">
        <ele>250.540056</ele>
        <time>2020-08-11T06:00:14.792Z</time>
      </trkpt>
      <trkpt lat="38.042370" lon="-4.087344">
        <ele>250.190059</ele>
        <time>2020-08-11T06:00:16.769Z</time>
      </trkpt>
      <trkpt lat="38.042384" lon="-4.087468">
        <ele>249.888475</ele>
        <time>2020-08-11T06:00:17.772Z</time>
      </trkpt>
      <trkpt lat="38.042332" lon="-4.087615">
        <ele>249.500510</ele>
        <time>2020-08-11T06:00:19.767Z</time>
      </trkpt>
      <trkpt lat="38.042314" lon="-4.087743">
        <ele>249.187474</ele>
        <time>2020-08-11T06:00:21.768Z</time>
      </trkpt>
      <trkpt lat="38.042273" lon="-4.087846">
        <ele>248.909626</ele>
        <time>2020-08-11T06:00:23.767Z</time>
      </trkpt>
      <trkpt lat="38.042220" lon="-4.087953">
        <ele>248.605307</ele>
        <time>2020-08-11T06:00:25.780Z</time>
      </trkpt>
      <trkpt lat="38.042157" lon="-4.088103">
        <ele>248.196036</ele>
        <time>2020-08-11T06:00:27.788Z</time>
      </trkpt>
      <trkpt lat="38.042120" lon="-4.088222">
        <ele>247.888022</ele>
        <time>2020-08-11T06:00:29.778Z</time>
      </trkpt>
      <trkpt lat="38.042088" lon="-4.088382">
        <ele>247.490592</ele>
        <time>2020-08-11T06:00:32.782Z</time>
      </trkpt>
      <trkpt lat="38.042008" lon="-4.088474">
        <ele>247.160643</ele>
        <time>2020-08-11T06:00:34.773Z</time>
      </trkpt>
      <trkpt lat="38.041946" lon="-4.088587">
        <ele>247.245486</ele>
        <time>2020-08-11T06:00:36.786Z</time>
      </trkpt>
      <trkpt lat="38.041855" lon="-4.088688">
        <ele>247.610256</ele>
        <time>2020-08-11T06:00:38.785Z</time>
      </trkpt>
      <trkpt lat="38.041798" lon="-4.088800">
        <ele>247.927211</ele>
        <time>2020-08-11T06:00:40.770Z</time>
      </trkpt>
      <trkpt lat="38.041748" lon="-4.088906">
        <ele>248.220892</ele>
        <time>2020-08-11T06:00:42.780Z</time>
      </trkpt>
      <trkpt lat="38.041681" lon="-4.089024">
        <ele>248.566654</ele>
        <time>2020-08-11T06:00:44.770Z</time>
      </trkpt>
      <trkpt lat="38.041619" lon="-4.089128">
        <ele>248.876682</ele>
        <time>2020-08-11T06:00:46.770Z</time>
      </trkpt>
      <trkpt lat="38.041543" lon="-4.089226">
        <ele>249.203589</ele>
        <time>2020-08-11T06:00:48.776Z</time>
      </trkpt>
      <trkpt lat="38.041462" lon="-4.089342">
        <ele>249.572073</ele>
        <time>2020-08-11T06:00:50.772Z</time>
      </trkpt>
      <trkpt lat="38.041393" lon="-4.089420">
        <ele>249.850886</ele>
        <time>2020-08-11T06:00:52.781Z</time>
      </trkpt>
      <trkpt lat="38.041312" lon="-4.089496">
        <ele>250.154846</ele>
        <time>2020-08-11T06:00:54.787Z</time>
      </trkpt>
      <trkpt lat="38.041185" lon="-4.089572">
        <ele>250.578569</ele>
        <time>2020-08-11T06:00:56.786Z</time>
      </trkpt>
      <trkpt lat="38.041119" lon="-4.089657">
        <ele>250.862284</ele>
        <time>2020-08-11T06:00:58.784Z</time>
      </trkpt>
      <trkpt lat="38.041119" lon="-4.089798">
        <ele>251.197425</ele>
        <time>2020-08-11T06:01:00.779Z</time>
      </trkpt>
      <trkpt lat="38.041025" lon="-4.089926">
        <ele>251.613412</ele>
        <time>2020-08-11T06:01:02.773Z</time>
      </trkpt>
      <trkpt lat="38.040960" lon="-4.090092">
        <ele>252.054052</ele>
        <time>2020-08-11T06:01:05.776Z</time>
      </trkpt>
      <trkpt lat="38.040902" lon="-4.090218">
        <ele>252.400944</ele>
        <time>2020-08-11T06:01:07.785Z</time>
      </trkpt>
      <trkpt lat="38.040846" lon="-4.090356">
        <ele>252.554980</ele>
        <time>2020-08-11T06:01:09.783Z</time>
      </trkpt>
      <trkpt lat="38.040791" lon="-4.090463">
        <ele>252.643227</ele>
        <time>2020-08-11T06:01:11.774Z</time>
      </trkpt>
      <trkpt lat="38.040699" lon="-4.090579">
        <ele>252.756927</ele>
        <time>2020-08-11T06:01:13.776Z</time>
      </trkpt>
      <trkpt lat="38.040655" lon="-4.090704">
        <ele>252.851490</ele>
        <time>2020-08-11T06:01:15.775Z</time>
      </trkpt>
      <trkpt lat="38.040615" lon="-4.090812">
        <ele>252.933918</ele>
        <time>2020-08-11T06:01:17.766Z</time>
      </trkpt>
      <trkpt lat="38.040584" lon="-4.090933">
        <ele>253.021798</ele>
        <time>2020-08-11T06:01:19.766Z</time>
      </trkpt>
      <trkpt lat="38.040511" lon="-4.091061">
        <ele>253.130947</ele>
        <time>2020-08-11T06:01:21.772Z</time>
      </trkpt>
      <trkpt lat="38.040473" lon="-4.091180">
        <ele>253.219635</ele>
        <time>2020-08-11T06:01:23.781Z</time>
      </trkpt>
      <trkpt lat="38.040432" lon="-4.091307">
        <ele>253.314432</ele>
        <time>2020-08-11T06:01:25.776Z</time>
      </trkpt>
      <trkpt lat="38.040365" lon="-4.091440">
        <ele>253.423474</ele>
        <time>2020-08-11T06:01:28.786Z</time>
      </trkpt>
      <trkpt lat="38.040361" lon="-4.091620">
        <ele>253.547842</ele>
        <time>2020-08-11T06:01:30.779Z</time>
      </trkpt>
      <trkpt lat="38.040334" lon="-4.091770">
        <ele>253.654113</ele>
        <time>2020-08-11T06:01:32.787Z</time>
      </trkpt>
      <trkpt lat="38.040295" lon="-4.091929">
        <ele>253.769131</ele>
        <time>2020-08-11T06:01:34.776Z</time>
      </trkpt>
      <trkpt lat="38.040264" lon="-4.092057">
        <ele>253.861621</ele>
        <time>2020-08-11T06:01:36.764Z</time>
      </trkpt>
      <trkpt lat="38.040254" lon="-4.092178">
        <ele>253.945650</ele>
        <time>2020-08-11T06:01:38.762Z</time>
      </trkpt>
      <trkpt lat="38.040238" lon="-4.092313">
        <ele>254.039940</ele>
        <time>2020-08-11T06:01:40.764Z</time>
      </trkpt>
      <trkpt lat="38.040205" lon="-4.092444">
        <ele>254.085020</ele>
        <time>2020-08-11T06:01:42.780Z</time>
      </trkpt>
      <trkpt lat="38.040165" lon="-4.092559">
        <ele>254.124057</ele>
        <time>2020-08-11T06:01:44.768Z</time>
      </trkpt>
      <trkpt lat="38.040136" lon="-4.092687">
        <ele>254.165416</ele>
        <time>2020-08-11T06:01:46.780Z</time>
      </trkpt>
      <trkpt lat="38.040165" lon="-4.092830">
        <ele>254.211268</ele>
        <time>2020-08-11T06:01:48.774Z</time>
      </trkpt>
      <trkpt lat="38.040167" lon="-4.092961">
        <ele>254.251954</ele>
        <time>2020-08-11T06:01:50.784Z</time>
      </trkpt>
      <trkpt lat="38.040120" lon="-4.093075">
        <ele>254.291910</ele>
        <time>2020-08-11T06:01:52.770Z</time>
      </trkpt>
      <trkpt lat="38.040083" lon="-4.093183">
        <ele>254.328482</ele>
        <time>2020-08-11T06:01:54.772Z</time>
      </trkpt>
      <trkpt lat="38.040037" lon="-4.093281">
        <ele>254.363907</ele>
        <time>2020-08-11T06:01:56.771Z</time>
      </trkpt>
      <trkpt lat="38.040007" lon="-4.093404">
        <ele>254.403891</ele>
        <time>2020-08-11T06:01:58.765Z</time>
      </trkpt>
      <trkpt lat="38.039982" lon="-4.093534">
        <ele>254.445444</ele>
        <time>2020-08-11T06:02:00.773Z</time>
      </trkpt>
      <trkpt lat="38.039875" lon="-4.093694">
        <ele>254.510622</ele>
        <time>2020-08-11T06:02:03.778Z</time>
      </trkpt>
      <trkpt lat="38.039832" lon="-4.093829">
        <ele>254.555841</ele>
        <time>2020-08-11T06:02:05.775Z</time>
      </trkpt>
      <trkpt lat="38.039785" lon="-4.093999">
        <ele>254.611788</ele>
        <time>2020-08-11T06:02:07.766Z</time>
      </trkpt>
      <trkpt lat="38.039740" lon="-4.094119">
        <ele>254.653059</ele>
        <time>2020-08-11T06:02:09.779Z</time>
      </trkpt>
      <trkpt lat="38.039711" lon="-4.094257">
        <ele>254.697410</ele>
        <time>2020-08-11T06:02:11.777Z</time>
      </trkpt>
      <trkpt lat="38.039651" lon="-4.094376">
        <ele>254.741285</ele>
        <time>2020-08-11T06:02:13.765Z</time>
      </trkpt>
      <trkpt lat="38.039626" lon="-4.094490">
        <ele>254.764323</ele>
        <time>2020-08-11T06:02:15.776Z</time>
      </trkpt>
      <trkpt lat="38.039604" lon="-4.094644">
        <ele>254.785872</ele>
        <time>2020-08-11T06:02:17.770Z</time>
      </trkpt>
      <trkpt lat="38.039585" lon="-4.094775">
        <ele>254.804212</ele>
        <time>2020-08-11T06:02:19.789Z</time>
      </trkpt>
      <trkpt lat="38.039542" lon="-4.094905">
        <ele>254.823625</ele>
        <time>2020-08-11T06:02:21.775Z</time>
      </trkpt>
      <trkpt lat="38.039514" lon="-4.095026">
        <ele>254.840989</ele>
        <time>2020-08-11T06:02:23.772Z</time>
      </trkpt>
      <trkpt lat="38.039497" lon="-4.095162">
        <ele>254.859948</ele>
        <time>2020-08-11T06:02:25.776Z</time>
      </trkpt>
      <trkpt lat="38.039449" lon="-4.095273">
        <ele>254.877383</ele>
        <time>2020-08-11T06:02:27.767Z</time>
      </trkpt>
      <trkpt lat="38.039410" lon="-4.095398">
        <ele>254.895895</ele>
        <time>2020-08-11T06:02:29.766Z</time>
      </trkpt>
      <trkpt lat="38.039368" lon="-4.095514">
        <ele>254.913473</ele>
        <time>2020-08-11T06:02:31.775Z</time>
      </trkpt>
      <trkpt lat="38.039309" lon="-4.095654">
        <ele>254.935335</ele>
        <time>2020-08-11T06:02:33.769Z</time>
      </trkpt>
      <trkpt lat="38.039271" lon="-4.095767">
        <ele>254.952252</ele>
        <time>2020-08-11T06:02:35.781Z</time>
      </trkpt>
      <trkpt lat="38.039220" lon="-4.095873">
        <ele>254.969354</ele>
        <time>2020-08-11T06:02:37.765Z</time>
      </trkpt>
      <trkpt lat="38.039146" lon="-4.095988">
        <ele>254.989801</ele>
        <time>2020-08-11T06:02:39.785Z</time>
      </trkpt>
      <trkpt lat="38.039096" lon="-4.096108">
        <ele>255.008492</ele>
        <time>2020-08-11T06:02:41.780Z</time>
      </trkpt>
      <trkpt lat="38.039046" lon="-4.096226">
        <ele>255.026941</ele>
        <time>2020-08-11T06:02:43.779Z</time>
      </trkpt>
      <trkpt lat="38.039040" lon="-4.096357">
        <ele>255.045008</ele>
        <time>2020-08-11T06:02:45.766Z</time>
      </trkpt>
      <trkpt lat="38.038992" lon="-4.096477">
        <ele>255.063539</ele>
        <time>2020-08-11T06:02:47.782Z</time>
      </trkpt>
      <trkpt lat="38.038958" lon="-4.096603">
        <ele>255.069556</ele>
        <time>2020-08-11T06:02:49.775Z</time>
      </trkpt>
      <trkpt lat="38.038916" lon="-4.096743">
        <ele>255.072082</ele>
        <time>2020-08-11T06:02:51.789Z</time>
      </trkpt>
      <trkpt lat="38.038875" lon="-4.096884">
        <ele>255.074618</ele>
        <time>2020-08-11T06:02:53.787Z</time>
      </trkpt>
      <trkpt lat="38.038850" lon="-4.097007">
        <ele>255.076760</ele>
        <time>2020-08-11T06:02:55.780Z</time>
      </trkpt>
      <trkpt lat="38.038799" lon="-4.097127">
        <ele>255.079060</ele>
        <time>2020-08-11T06:02:57.780Z</time>
      </trkpt>
      <trkpt lat="38.038758" lon="-4.097235">
        <ele>255.081082</ele>
        <time>2020-08-11T06:02:59.770Z</time>
      </trkpt>
      <trkpt lat="38.038759" lon="-4.097377">
        <ele>255.083477</ele>
        <time>2020-08-11T06:03:01.768Z</time>
      </trkpt>
      <trkpt lat="38.038705" lon="-4.097490">
        <ele>255.085706</ele>
        <time>2020-08-11T06:03:03.779Z</time>
      </trkpt>
      <trkpt lat="38.038652" lon="-4.097654">
        <ele>255.088696</ele>
        <time>2020-08-11T06:03:06.781Z</time>
      </trkpt>
      <trkpt lat="38.038628" lon="-4.097772">
        <ele>255.090752</ele>
        <time>2020-08-11T06:03:08.772Z</time>
      </trkpt>
      <trkpt lat="38.038586" lon="-4.097883">
        <ele>255.092829</ele>
        <time>2020-08-11T06:03:10.756Z</time>
      </trkpt>
      <trkpt lat="38.038554" lon="-4.098038">
        <ele>255.095531</ele>
        <time>2020-08-11T06:03:13.787Z</time>
      </trkpt>
      <trkpt lat="38.038548" lon="-4.098161">
        <ele>255.097610</ele>
        <time>2020-08-11T06:03:15.770Z</time>
      </trkpt>
      <trkpt lat="38.038516" lon="-4.098278">
        <ele>255.099699</ele>
        <time>2020-08-11T06:03:17.789Z</time>
      </trkpt>
      <trkpt lat="38.038488" lon="-4.098443">
        <ele>255.102546</ele>
        <time>2020-08-11T06:03:20.789Z</time>
      </trkpt>
      <trkpt lat="38.038469" lon="-4.098608">
        <ele>255.105358</ele>
        <time>2020-08-11T06:03:23.781Z</time>
      </trkpt>
      <trkpt lat="38.038452" lon="-4.098748">
        <ele>255.091231</ele>
        <time>2020-08-11T06:03:25.786Z</time>
      </trkpt>
      <trkpt lat="38.038445" lon="-4.098886">
        <ele>255.065929</ele>
        <time>2020-08-11T06:03:27.791Z</time>
      </trkpt>
      <trkpt lat="38.038441" lon="-4.099001">
        <ele>255.044866</ele>
        <time>2020-08-11T06:03:29.778Z</time>
      </trkpt>
      <trkpt lat="38.038438" lon="-4.099124">
        <ele>255.022350</ele>
        <time>2020-08-11T06:03:31.788Z</time>
      </trkpt>
      <trkpt lat="38.038430" lon="-4.099249">
        <ele>254.999403</ele>
        <time>2020-08-11T06:03:33.774Z</time>
      </trkpt>
      <trkpt lat="38.038399" lon="-4.099368">
        <ele>254.976470</ele>
        <time>2020-08-11T06:03:35.782Z</time>
      </trkpt>
      <trkpt lat="38.038350" lon="-4.099501">
        <ele>254.949604</ele>
        <time>2020-08-11T06:03:37.779Z</time>
      </trkpt>
      <trkpt lat="38.038318" lon="-4.099614">
        <ele>254.927632</ele>
        <time>2020-08-11T06:03:39.771Z</time>
      </trkpt>
      <trkpt lat="38.038271" lon="-4.099724">
        <ele>254.904734</ele>
        <time>2020-08-11T06:03:41.780Z</time>
      </trkpt>
      <trkpt lat="38.038229" lon="-4.099844">
        <ele>254.880707</ele>
        <time>2020-08-11T06:03:43.775Z</time>
      </trkpt>
      <trkpt lat="38.038205" lon="-4.099969">
        <ele>254.857166</ele>
        <time>2020-08-11T06:03:45.778Z</time>
      </trkpt>
      <trkpt lat="38.038164" lon="-4.100080">
        <ele>254.834734</ele>
        <time>2020-08-11T06:03:47.788Z</time>
      </trkpt>
      <trkpt lat="38.038133" lon="-4.100203">
        <ele>254.811104</ele>
        <time>2020-08-11T06:03:49.783Z</time>
      </trkpt>
      <trkpt lat="38.038092" lon="-4.100311">
        <ele>254.789167</ele>
        <time>2020-08-11T06:03:51.785Z</time>
      </trkpt>
      <trkpt lat="38.038048" lon="-4.100438">
        <ele>254.763781</ele>
        <time>2020-08-11T06:03:53.763Z</time>
      </trkpt>
      <trkpt lat="38.038025" lon="-4.100568">
        <ele>254.739402</ele>
        <time>2020-08-11T06:03:55.793Z</time>
      </trkpt>
      <trkpt lat="38.038002" lon="-4.100694">
        <ele>254.715736</ele>
        <time>2020-08-11T06:03:57.779Z</time>
      </trkpt>
      <trkpt lat="38.037983" lon="-4.100821">
        <ele>254.692083</ele>
        <time>2020-08-11T06:03:59.779Z</time>
      </trkpt>
      <trkpt lat="38.037969" lon="-4.100955">
        <ele>254.528835</ele>
        <time>2020-08-11T06:04:01.780Z</time>
      </trkpt>
      <trkpt lat="38.037954" lon="-4.101090">
        <ele>254.340520</ele>
        <time>2020-08-11T06:04:03.782Z</time>
      </trkpt>
      <trkpt lat="38.037940" lon="-4.101208">
        <ele>254.175693</ele>
        <time>2020-08-11T06:04:05.780Z</time>
      </trkpt>
      <trkpt lat="38.037923" lon="-4.101336">
        <ele>253.996397</ele>
        <time>2020-08-11T06:04:07.777Z</time>
      </trkpt>
      <trkpt lat="38.037920" lon="-4.101467">
        <ele>253.815377</ele>
        <time>2020-08-11T06:04:09.779Z</time>
      </trkpt>
      <trkpt lat="38.037910" lon="-4.101595">
        <ele>253.637709</ele>
        <time>2020-08-11T06:04:11.773Z</time>
      </trkpt>
      <trkpt lat="38.037907" lon="-4.101720">
        <ele>253.464972</ele>
        <time>2020-08-11T06:04:13.783Z</time>
      </trkpt>
      <trkpt lat="38.037905" lon="-4.101851">
        <ele>253.283995</ele>
        <time>2020-08-11T06:04:15.766Z</time>
      </trkpt>
      <trkpt lat="38.037910" lon="-4.101976">
        <ele>253.111116</ele>
        <time>2020-08-11T06:04:17.777Z</time>
      </trkpt>
      <trkpt lat="38.037905" lon="-4.102096">
        <ele>252.945134</ele>
        <time>2020-08-11T06:04:19.788Z</time>
      </trkpt>
      <trkpt lat="38.037906" lon="-4.102214">
        <ele>252.782137</ele>
        <time>2020-08-11T06:04:21.781Z</time>
      </trkpt>
      <trkpt lat="38.037905" lon="-4.102341">
        <ele>252.606709</ele>
        <time>2020-08-11T06:04:23.783Z</time>
      </trkpt>
      <trkpt lat="38.037910" lon="-4.102462">
        <ele>252.439348</ele>
        <time>2020-08-11T06:04:25.761Z</time>
      </trkpt>
      <trkpt lat="38.037931" lon="-4.102575">
        <ele>252.278980</ele>
        <time>2020-08-11T06:04:27.784Z</time>
      </trkpt>
      <trkpt lat="38.037940" lon="-4.102694">
        <ele>252.113855</ele>
        <time>2020-08-11T06:04:29.776Z</time>
      </trkpt>
      <trkpt lat="38.037943" lon="-4.102823">
        <ele>251.935596</ele>
        <time>2020-08-11T06:04:31.771Z</time>
      </trkpt>
      <trkpt lat="38.037930" lon="-4.102952">
        <ele>251.755962</ele>
        <time>2020-08-11T06:04:33.792Z</time>
      </trkpt>
      <trkpt lat="38.037926" lon="-4.103081">
        <ele>251.577643</ele>
        <time>2020-08-11T06:04:35.768Z</time>
      </trkpt>
      <trkpt lat="38.037926" lon="-4.103196">
        <ele>251.572834</ele>
        <time>2020-08-11T06:04:37.780Z</time>
      </trkpt>
      <trkpt lat="38.037927" lon="-4.103372">
        <ele>251.654367</ele>
        <time>2020-08-11T06:04:40.773Z</time>
      </trkpt>
      <trkpt lat="38.037929" lon="-4.103488">
        <ele>251.708117</ele>
        <time>2020-08-11T06:04:42.781Z</time>
      </trkpt>
      <trkpt lat="38.037931" lon="-4.103617">
        <ele>251.767887</ele>
        <time>2020-08-11T06:04:44.770Z</time>
      </trkpt>
      <trkpt lat="38.037929" lon="-4.103738">
        <ele>251.823952</ele>
        <time>2020-08-11T06:04:46.777Z</time>
      </trkpt>
      <trkpt lat="38.037929" lon="-4.103867">
        <ele>251.883711</ele>
        <time>2020-08-11T06:04:48.773Z</time>
      </trkpt>
      <trkpt lat="38.037930" lon="-4.103991">
        <ele>251.941157</ele>
        <time>2020-08-11T06:04:50.766Z</time>
      </trkpt>
      <trkpt lat="38.037925" lon="-4.104114">
        <ele>251.998212</ele>
        <time>2020-08-11T06:04:52.786Z</time>
      </trkpt>
      <trkpt lat="38.037923" lon="-4.104246">
        <ele>252.059372</ele>
        <time>2020-08-11T06:04:54.780Z</time>
      </trkpt>
      <trkpt lat="38.037919" lon="-4.104368">
        <ele>252.115937</ele>
        <time>2020-08-11T06:04:56.777Z</time>
      </trkpt>
      <trkpt lat="38.037913" lon="-4.104483">
        <ele>252.169327</ele>
        <time>2020-08-11T06:04:58.763Z</time>
      </trkpt>
      <trkpt lat="38.037917" lon="-4.104609">
        <ele>252.227743</ele>
        <time>2020-08-11T06:05:00.783Z</time>
      </trkpt>
      <trkpt lat="38.037918" lon="-4.104736">
        <ele>252.286578</ele>
        <time>2020-08-11T06:05:02.788Z</time>
      </trkpt>
      <trkpt lat="38.037919" lon="-4.104860">
        <ele>252.344024</ele>
        <time>2020-08-11T06:05:04.782Z</time>
      </trkpt>
      <trkpt lat="38.037925" lon="-4.104981">
        <ele>252.400188</ele>
        <time>2020-08-11T06:05:06.785Z</time>
      </trkpt>
      <trkpt lat="38.037925" lon="-4.105111">
        <ele>252.460410</ele>
        <time>2020-08-11T06:05:08.777Z</time>
      </trkpt>
      <trkpt lat="38.037923" lon="-4.105236">
        <ele>252.518327</ele>
        <time>2020-08-11T06:05:10.779Z</time>
      </trkpt>
      <trkpt lat="38.037925" lon="-4.105352">
        <ele>252.572077</ele>
        <time>2020-08-11T06:05:12.788Z</time>
      </trkpt>
      <trkpt lat="38.037926" lon="-4.105481">
        <ele>252.607803</ele>
        <time>2020-08-11T06:05:14.778Z</time>
      </trkpt>
      <trkpt lat="38.037937" lon="-4.105601">
        <ele>252.629953</ele>
        <time>2020-08-11T06:05:16.774Z</time>
      </trkpt>
      <trkpt lat="38.037949" lon="-4.105729">
        <ele>252.653587</ele>
        <time>2020-08-11T06:05:18.762Z</time>
      </trkpt>
      <trkpt lat="38.037975" lon="-4.105849">
        <ele>252.676405</ele>
        <time>2020-08-11T06:05:20.759Z</time>
      </trkpt>
      <trkpt lat="38.038003" lon="-4.105970">
        <ele>252.699527</ele>
        <time>2020-08-11T06:05:22.776Z</time>
      </trkpt>
      <trkpt lat="38.038049" lon="-4.106093">
        <ele>252.724491</ele>
        <time>2020-08-11T06:05:24.777Z</time>
      </trkpt>
      <trkpt lat="38.038106" lon="-4.106199">
        <ele>252.748023</ele>
        <time>2020-08-11T06:05:26.770Z</time>
      </trkpt>
      <trkpt lat="38.038165" lon="-4.106296">
        <ele>252.770493</ele>
        <time>2020-08-11T06:05:28.766Z</time>
      </trkpt>
      <trkpt lat="38.038264" lon="-4.106409">
        <ele>252.801483</ele>
        <time>2020-08-11T06:05:31.776Z</time>
      </trkpt>
      <trkpt lat="38.038377" lon="-4.106507">
        <ele>252.833338</ele>
        <time>2020-08-11T06:05:34.775Z</time>
      </trkpt>
      <trkpt lat="38.038453" lon="-4.106583">
        <ele>252.855858</ele>
        <time>2020-08-11T06:05:36.773Z</time>
      </trkpt>
      <trkpt lat="38.038526" lon="-4.106651">
        <ele>252.876934</ele>
        <time>2020-08-11T06:05:38.779Z</time>
      </trkpt>
      <trkpt lat="38.038601" lon="-4.106731">
        <ele>252.899736</ele>
        <time>2020-08-11T06:05:40.781Z</time>
      </trkpt>
      <trkpt lat="38.038679" lon="-4.106809">
        <ele>252.922849</ele>
        <time>2020-08-11T06:05:42.786Z</time>
      </trkpt>
      <trkpt lat="38.038761" lon="-4.106886">
        <ele>252.946591</ele>
        <time>2020-08-11T06:05:44.778Z</time>
      </trkpt>
      <trkpt lat="38.038841" lon="-4.106960">
        <ele>252.969632</ele>
        <time>2020-08-11T06:05:46.786Z</time>
      </trkpt>
      <trkpt lat="38.038922" lon="-4.107025">
        <ele>252.991937</ele>
        <time>2020-08-11T06:05:48.778Z</time>
      </trkpt>
      <trkpt lat="38.039005" lon="-4.107095">
        <ele>253.005127</ele>
        <time>2020-08-11T06:05:50.789Z</time>
      </trkpt>
      <trkpt lat="38.039106" lon="-4.107215">
        <ele>252.963682</ele>
        <time>2020-08-11T06:05:53.782Z</time>
      </trkpt>
      <trkpt lat="38.039190" lon="-4.107290">
        <ele>252.932914</ele>
        <time>2020-08-11T06:05:55.774Z</time>
      </trkpt>
      <trkpt lat="38.039263" lon="-4.107366">
        <ele>252.904628</ele>
        <time>2020-08-11T06:05:57.782Z</time>
      </trkpt>
      <trkpt lat="38.039314" lon="-4.107467">
        <ele>252.876316</ele>
        <time>2020-08-11T06:05:59.772Z</time>
      </trkpt>
      <trkpt lat="38.039389" lon="-4.107535">
        <ele>252.848703</ele>
        <time>2020-08-11T06:06:01.769Z</time>
      </trkpt>
      <trkpt lat="38.039456" lon="-4.107621">
        <ele>252.820157</ele>
        <time>2020-08-11T06:06:03.775Z</time>
      </trkpt>
      <trkpt lat="38.039535" lon="-4.107689">
        <ele>252.791560</ele>
        <time>2020-08-11T06:06:05.773Z</time>
      </trkpt>
      <trkpt lat="38.039617" lon="-4.107768">
        <ele>252.760719</ele>
        <time>2020-08-11T06:06:07.780Z</time>
      </trkpt>
      <trkpt lat="38.039705" lon="-4.107842">
        <ele>252.729094</ele>
        <time>2020-08-11T06:06:09.782Z</time>
      </trkpt>
      <trkpt lat="38.039789" lon="-4.107924">
        <ele>252.697346</ele>
        <time>2020-08-11T06:06:11.774Z</time>
      </trkpt>
      <trkpt lat="38.039874" lon="-4.108013">
        <ele>252.664335</ele>
        <time>2020-08-11T06:06:13.783Z</time>
      </trkpt>
      <trkpt lat="38.039960" lon="-4.108088">
        <ele>252.633075</ele>
        <time>2020-08-11T06:06:15.773Z</time>
      </trkpt>
      <trkpt lat="38.040047" lon="-4.108158">
        <ele>252.602214</ele>
        <time>2020-08-11T06:06:17.773Z</time>
      </trkpt>
      <trkpt lat="38.040133" lon="-4.108240">
        <ele>252.569990</ele>
        <time>2020-08-11T06:06:19.768Z</time>
      </trkpt>
      <trkpt lat="38.040212" lon="-4.108334">
        <ele>252.537550</ele>
        <time>2020-08-11T06:06:21.768Z</time>
      </trkpt>
      <trkpt lat="38.040300" lon="-4.108422">
        <ele>252.503988</ele>
        <time>2020-08-11T06:06:23.774Z</time>
      </trkpt>
      <trkpt lat="38.040386" lon="-4.108504">
        <ele>252.471911</ele>
        <time>2020-08-11T06:06:25.773Z</time>
      </trkpt>
      <trkpt lat="38.040471" lon="-4.108588">
        <ele>252.502979</ele>
        <time>2020-08-11T06:06:27.775Z</time>
      </trkpt>
      <trkpt lat="38.040545" lon="-4.108669">
        <ele>252.531160</ele>
        <time>2020-08-11T06:06:29.775Z</time>
      </trkpt>
      <trkpt lat="38.040622" lon="-4.108749">
        <ele>252.559858</ele>
        <time>2020-08-11T06:06:31.777Z</time>
      </trkpt>
      <trkpt lat="38.040700" lon="-4.108835">
        <ele>252.589654</ele>
        <time>2020-08-11T06:06:33.783Z</time>
      </trkpt>
      <trkpt lat="38.040786" lon="-4.108975">
        <ele>252.629988</ele>
        <time>2020-08-11T06:06:36.783Z</time>
      </trkpt>
      <trkpt lat="38.040867" lon="-4.109112">
        <ele>252.668903</ele>
        <time>2020-08-11T06:06:39.791Z</time>
      </trkpt>
      <trkpt lat="38.040925" lon="-4.109200">
        <ele>252.694970</ele>
        <time>2020-08-11T06:06:41.760Z</time>
      </trkpt>
      <trkpt lat="38.040986" lon="-4.109292">
        <ele>252.722290</ele>
        <time>2020-08-11T06:06:43.783Z</time>
      </trkpt>
      <trkpt lat="38.041039" lon="-4.109387">
        <ele>252.748737</ele>
        <time>2020-08-11T06:06:45.771Z</time>
      </trkpt>
      <trkpt lat="38.041097" lon="-4.109477">
        <ele>252.775154</ele>
        <time>2020-08-11T06:06:47.775Z</time>
      </trkpt>
      <trkpt lat="38.041158" lon="-4.109576">
        <ele>252.803708</ele>
        <time>2020-08-11T06:06:49.780Z</time>
      </trkpt>
      <trkpt lat="38.041216" lon="-4.109669">
        <ele>252.830656</ele>
        <time>2020-08-11T06:06:51.779Z</time>
      </trkpt>
      <trkpt lat="38.041272" lon="-4.109766">
        <ele>252.857978</ele>
        <time>2020-08-11T06:06:53.799Z</time>
      </trkpt>
      <trkpt lat="38.041328" lon="-4.109857">
        <ele>252.884212</ele>
        <time>2020-08-11T06:06:55.793Z</time>
      </trkpt>
      <trkpt lat="38.041385" lon="-4.109955">
        <ele>252.911887</ele>
        <time>2020-08-11T06:06:57.789Z</time>
      </trkpt>
      <trkpt lat="38.041444" lon="-4.110055">
        <ele>252.940271</ele>
        <time>2020-08-11T06:06:59.761Z</time>
      </trkpt>
      <trkpt lat="38.041502" lon="-4.110153">
        <ele>252.968118</ele>
        <time>2020-08-11T06:07:01.774Z</time>
      </trkpt>
      <trkpt lat="38.041555" lon="-4.110252">
        <ele>252.986713</ele>
        <time>2020-08-11T06:07:03.777Z</time>
      </trkpt>
      <trkpt lat="38.041606" lon="-4.110350">
        <ele>252.964305</ele>
        <time>2020-08-11T06:07:05.783Z</time>
      </trkpt>
      <trkpt lat="38.041659" lon="-4.110445">
        <ele>252.942096</ele>
        <time>2020-08-11T06:07:07.774Z</time>
      </trkpt>
      <trkpt lat="38.041718" lon="-4.110542">
        <ele>252.918715</ele>
        <time>2020-08-11T06:07:09.772Z</time>
      </trkpt>
      <trkpt lat="38.041779" lon="-4.110643">
        <ele>252.894434</ele>
        <time>2020-08-11T06:07:11.780Z</time>
      </trkpt>
      <trkpt lat="38.041867" lon="-4.110776">
        <ele>252.861297</ele>
        <time>2020-08-11T06:07:14.770Z</time>
      </trkpt>
      <trkpt lat="38.041929" lon="-4.110875">
        <ele>252.837167</ele>
        <time>2020-08-11T06:07:16.776Z</time>
      </trkpt>
      <trkpt lat="38.041990" lon="-4.110977">
        <ele>252.812735</ele>
        <time>2020-08-11T06:07:18.779Z</time>
      </trkpt>
      <trkpt lat="38.042054" lon="-4.111081">
        <ele>252.787557</ele>
        <time>2020-08-11T06:07:20.791Z</time>
      </trkpt>
      <trkpt lat="38.042109" lon="-4.111186">
        <ele>252.763501</ele>
        <time>2020-08-11T06:07:22.780Z</time>
      </trkpt>
      <trkpt lat="38.042160" lon="-4.111284">
        <ele>252.741093</ele>
        <time>2020-08-11T06:07:24.786Z</time>
      </trkpt>
      <trkpt lat="38.042219" lon="-4.111373">
        <ele>252.718900</ele>
        <time>2020-08-11T06:07:26.777Z</time>
      </trkpt>
      <trkpt lat="38.042279" lon="-4.111466">
        <ele>252.695966</ele>
        <time>2020-08-11T06:07:28.805Z</time>
      </trkpt>
      <trkpt lat="38.042343" lon="-4.111560">
        <ele>252.672262</ele>
        <time>2020-08-11T06:07:30.787Z</time>
      </trkpt>
      <trkpt lat="38.042407" lon="-4.111660">
        <ele>252.647681</ele>
        <time>2020-08-11T06:07:32.780Z</time>
      </trkpt>
      <trkpt lat="38.042468" lon="-4.111756">
        <ele>252.624150</ele>
        <time>2020-08-11T06:07:34.793Z</time>
      </trkpt>
      <trkpt lat="38.042537" lon="-4.111841">
        <ele>252.600864</ele>
        <time>2020-08-11T06:07:36.780Z</time>
      </trkpt>
      <trkpt lat="38.042610" lon="-4.111925">
        <ele>252.577001</ele>
        <time>2020-08-11T06:07:38.775Z</time>
      </trkpt>
      <trkpt lat="38.042678" lon="-4.112009">
        <ele>252.549708</ele>
        <time>2020-08-11T06:07:40.791Z</time>
      </trkpt>
      <trkpt lat="38.042748" lon="-4.112093">
        <ele>252.419491</ele>
        <time>2020-08-11T06:07:42.789Z</time>
      </trkpt>
      <trkpt lat="38.042816" lon="-4.112170">
        <ele>252.296308</ele>
        <time>2020-08-11T06:07:44.786Z</time>
      </trkpt>
      <trkpt lat="38.042917" lon="-4.112291">
        <ele>252.108571</ele>
        <time>2020-08-11T06:07:47.779Z</time>
      </trkpt>
      <trkpt lat="38.042981" lon="-4.112382">
        <ele>251.978665</ele>
        <time>2020-08-11T06:07:49.770Z</time>
      </trkpt>
      <trkpt lat="38.043049" lon="-4.112469">
        <ele>251.848153</ele>
        <time>2020-08-11T06:07:51.779Z</time>
      </trkpt>
      <trkpt lat="38.043113" lon="-4.112565">
        <ele>251.714230</ele>
        <time>2020-08-11T06:07:53.765Z</time>
      </trkpt>
      <trkpt lat="38.043187" lon="-4.112649">
        <ele>251.580032</ele>
        <time>2020-08-11T06:07:55.769Z</time>
      </trkpt>
      <trkpt lat="38.043257" lon="-4.112732">
        <ele>251.450545</ele>
        <time>2020-08-11T06:07:57.788Z</time>
      </trkpt>
      <trkpt lat="38.043333" lon="-4.112815">
        <ele>251.315016</ele>
        <time>2020-08-11T06:07:59.764Z</time>
      </trkpt>
      <trkpt lat="38.043414" lon="-4.112890">
        <ele>251.179480</ele>
        <time>2020-08-11T06:08:01.768Z</time>
      </trkpt>
      <trkpt lat="38.043477" lon="-4.112976">
        <ele>251.054421</ele>
        <time>2020-08-11T06:08:03.783Z</time>
      </trkpt>
      <trkpt lat="38.043548" lon="-4.113051">
        <ele>250.929555</ele>
        <time>2020-08-11T06:08:05.791Z</time>
      </trkpt>
      <trkpt lat="38.043629" lon="-4.113168">
        <ele>250.763687</ele>
        <time>2020-08-11T06:08:08.764Z</time>
      </trkpt>
      <trkpt lat="38.043700" lon="-4.113244">
        <ele>250.638137</ele>
        <time>2020-08-11T06:08:10.771Z</time>
      </trkpt>
      <trkpt lat="38.043769" lon="-4.113325">
        <ele>250.511091</ele>
        <time>2020-08-11T06:08:12.780Z</time>
      </trkpt>
      <trkpt lat="38.043849" lon="-4.113400">
        <ele>250.376645</ele>
        <time>2020-08-11T06:08:14.788Z</time>
      </trkpt>
      <trkpt lat="38.043934" lon="-4.113472">
        <ele>250.238501</ele>
        <time>2020-08-11T06:08:16.775Z</time>
      </trkpt>
      <trkpt lat="38.044014" lon="-4.113533">
        <ele>250.108732</ele>
        <time>2020-08-11T06:08:18.774Z</time>
      </trkpt>
      <trkpt lat="38.044098" lon="-4.113591">
        <ele>249.936527</ele>
        <time>2020-08-11T06:08:20.785Z</time>
      </trkpt>
      <trkpt lat="38.044185" lon="-4.113656">
        <ele>249.754729</ele>
        <time>2020-08-11T06:08:22.764Z</time>
      </trkpt>
      <trkpt lat="38.044284" lon="-4.113735">
        <ele>249.544144</ele>
        <time>2020-08-11T06:08:25.780Z</time>
      </trkpt>
      <trkpt lat="38.044375" lon="-4.113792">
        <ele>249.361397</ele>
        <time>2020-08-11T06:08:27.772Z</time>
      </trkpt>
      <trkpt lat="38.044451" lon="-4.113862">
        <ele>249.192303</ele>
        <time>2020-08-11T06:08:29.795Z</time>
      </trkpt>
      <trkpt lat="38.044554" lon="-4.113964">
        <ele>248.957055</ele>
        <time>2020-08-11T06:08:32.787Z</time>
      </trkpt>
      <trkpt lat="38.044620" lon="-4.114076">
        <ele>248.758651</ele>
        <time>2020-08-11T06:08:35.780Z</time>
      </trkpt>
      <trkpt lat="38.044572" lon="-4.114204">
        <ele>248.557571</ele>
        <time>2020-08-11T06:08:38.774Z</time>
      </trkpt>
      <trkpt lat="38.044470" lon="-4.114275">
        <ele>248.348077</ele>
        <time>2020-08-11T06:08:41.772Z</time>
      </trkpt>
      <trkpt lat="38.044387" lon="-4.114325">
        <ele>248.182624</ele>
        <time>2020-08-11T06:08:43.776Z</time>
      </trkpt>
      <trkpt lat="38.044307" lon="-4.114396">
        <ele>248.006840</ele>
        <time>2020-08-11T06:08:45.768Z</time>
      </trkpt>
      <trkpt lat="38.044242" lon="-4.114489">
        <ele>247.830477</ele>
        <time>2020-08-11T06:08:47.783Z</time>
      </trkpt>
      <trkpt lat="38.044166" lon="-4.114587">
        <ele>247.635398</ele>
        <time>2020-08-11T06:08:49.780Z</time>
      </trkpt>
      <trkpt lat="38.044087" lon="-4.114687">
        <ele>247.434498</ele>
        <time>2020-08-11T06:08:51.775Z</time>
      </trkpt>
      <trkpt lat="38.044012" lon="-4.114782">
        <ele>247.243706</ele>
        <time>2020-08-11T06:08:53.784Z</time>
      </trkpt>
      <trkpt lat="38.043934" lon="-4.114892">
        <ele>247.033763</ele>
        <time>2020-08-11T06:08:55.777Z</time>
      </trkpt>
      <trkpt lat="38.043867" lon="-4.115013">
        <ele>246.902858</ele>
        <time>2020-08-11T06:08:57.789Z</time>
      </trkpt>
      <trkpt lat="38.043783" lon="-4.115117">
        <ele>246.970013</ele>
        <time>2020-08-11T06:08:59.765Z</time>
      </trkpt>
      <trkpt lat="38.043697" lon="-4.115224">
        <ele>247.038932</ele>
        <time>2020-08-11T06:09:01.782Z</time>
      </trkpt>
      <trkpt lat="38.043611" lon="-4.115335">
        <ele>247.109125</ele>
        <time>2020-08-11T06:09:03.770Z</time>
      </trkpt>
      <trkpt lat="38.043530" lon="-4.115441">
        <ele>247.175706</ele>
        <time>2020-08-11T06:09:05.779Z</time>
      </trkpt>
      <trkpt lat="38.043456" lon="-4.115549">
        <ele>247.240238</ele>
        <time>2020-08-11T06:09:07.778Z</time>
      </trkpt>
      <trkpt lat="38.043373" lon="-4.115655">
        <ele>247.307621</ele>
        <time>2020-08-11T06:09:09.770Z</time>
      </trkpt>
      <trkpt lat="38.043277" lon="-4.115747">
        <ele>247.376466</ele>
        <time>2020-08-11T06:09:11.774Z</time>
      </trkpt>
      <trkpt lat="38.043177" lon="-4.115836">
        <ele>247.446367</ele>
        <time>2020-08-11T06:09:13.776Z</time>
      </trkpt>
      <trkpt lat="38.043094" lon="-4.115937">
        <ele>247.512171</ele>
        <time>2020-08-11T06:09:15.779Z</time>
      </trkpt>
      <trkpt lat="38.043013" lon="-4.116055">
        <ele>247.582735</ele>
        <time>2020-08-11T06:09:17.822Z</time>
      </trkpt>
      <trkpt lat="38.042937" lon="-4.116170">
        <ele>247.650410</ele>
        <time>2020-08-11T06:09:19.770Z</time>
      </trkpt>
      <trkpt lat="38.042857" lon="-4.116273">
        <ele>247.715624</ele>
        <time>2020-08-11T06:09:21.762Z</time>
      </trkpt>
      <trkpt lat="38.042773" lon="-4.116378">
        <ele>247.783095</ele>
        <time>2020-08-11T06:09:23.779Z</time>
      </trkpt>
      <trkpt lat="38.042697" lon="-4.116475">
        <ele>247.844777</ele>
        <time>2020-08-11T06:09:25.781Z</time>
      </trkpt>
      <trkpt lat="38.042609" lon="-4.116565">
        <ele>247.909455</ele>
        <time>2020-08-11T06:09:27.785Z</time>
      </trkpt>
      <trkpt lat="38.042520" lon="-4.116664">
        <ele>248.051256</ele>
        <time>2020-08-11T06:09:29.770Z</time>
      </trkpt>
      <trkpt lat="38.042440" lon="-4.116763">
        <ele>248.189434</ele>
        <time>2020-08-11T06:09:31.768Z</time>
      </trkpt>
      <trkpt lat="38.042366" lon="-4.116863">
        <ele>248.323107</ele>
        <time>2020-08-11T06:09:33.778Z</time>
      </trkpt>
      <trkpt lat="38.042290" lon="-4.116963">
        <ele>248.458486</ele>
        <time>2020-08-11T06:09:35.770Z</time>
      </trkpt>
      <trkpt lat="38.042210" lon="-4.117066">
        <ele>248.599412</ele>
        <time>2020-08-11T06:09:37.767Z</time>
      </trkpt>
      <trkpt lat="38.042138" lon="-4.117156">
        <ele>248.724387</ele>
        <time>2020-08-11T06:09:39.785Z</time>
      </trkpt>
      <trkpt lat="38.042068" lon="-4.117247">
        <ele>248.848306</ele>
        <time>2020-08-11T06:09:41.773Z</time>
      </trkpt>
      <trkpt lat="38.041999" lon="-4.117351">
        <ele>248.980778</ele>
        <time>2020-08-11T06:09:43.774Z</time>
      </trkpt>
      <trkpt lat="38.041932" lon="-4.117442">
        <ele>249.102133</ele>
        <time>2020-08-11T06:09:45.783Z</time>
      </trkpt>
      <trkpt lat="38.041866" lon="-4.117541">
        <ele>249.228490</ele>
        <time>2020-08-11T06:09:47.778Z</time>
      </trkpt>
      <trkpt lat="38.041792" lon="-4.117617">
        <ele>249.346218</ele>
        <time>2020-08-11T06:09:49.779Z</time>
      </trkpt>
      <trkpt lat="38.041725" lon="-4.117694">
        <ele>249.457999</ele>
        <time>2020-08-11T06:09:51.782Z</time>
      </trkpt>
      <trkpt lat="38.041654" lon="-4.117783">
        <ele>249.581409</ele>
        <time>2020-08-11T06:09:53.781Z</time>
      </trkpt>
      <trkpt lat="38.041592" lon="-4.117868">
        <ele>249.694273</ele>
        <time>2020-08-11T06:09:55.781Z</time>
      </trkpt>
      <trkpt lat="38.041538" lon="-4.117962">
        <ele>249.807618</ele>
        <time>2020-08-11T06:09:57.777Z</time>
      </trkpt>
      <trkpt lat="38.041453" lon="-4.118099">
        <ele>249.977519</ele>
        <time>2020-08-11T06:10:00.765Z</time>
      </trkpt>
      <trkpt lat="38.041391" lon="-4.118189">
        <ele>250.094003</ele>
        <time>2020-08-11T06:10:02.782Z</time>
      </trkpt>
      <trkpt lat="38.041313" lon="-4.118250">
        <ele>250.158580</ele>
        <time>2020-08-11T06:10:04.781Z</time>
      </trkpt>
      <trkpt lat="38.041250" lon="-4.118381">
        <ele>250.202661</ele>
        <time>2020-08-11T06:10:07.776Z</time>
      </trkpt>
      <trkpt lat="38.041182" lon="-4.118486">
        <ele>250.241702</ele>
        <time>2020-08-11T06:10:10.782Z</time>
      </trkpt>
      <trkpt lat="38.041223" lon="-4.118608">
        <ele>250.279796</ele>
        <time>2020-08-11T06:10:14.775Z</time>
      </trkpt>
      <trkpt lat="38.041284" lon="-4.118750">
        <ele>250.326249</ele>
        <time>2020-08-11T06:10:18.773Z</time>
      </trkpt>
      <trkpt lat="38.041355" lon="-4.118878">
        <ele>250.371211</ele>
        <time>2020-08-11T06:10:21.774Z</time>
      </trkpt>
      <trkpt lat="38.041421" lon="-4.119005">
        <ele>250.414909</ele>
        <time>2020-08-11T06:10:24.764Z</time>
      </trkpt>
      <trkpt lat="38.041499" lon="-4.119112">
        <ele>250.456781</ele>
        <time>2020-08-11T06:10:27.777Z</time>
      </trkpt>
      <trkpt lat="38.041559" lon="-4.119198">
        <ele>250.489777</ele>
        <time>2020-08-11T06:10:29.769Z</time>
      </trkpt>
      <trkpt lat="38.041602" lon="-4.119309">
        <ele>250.525302</ele>
        <time>2020-08-11T06:10:31.781Z</time>
      </trkpt>
      <trkpt lat="38.041678" lon="-4.119413">
        <ele>250.566047</ele>
        <time>2020-08-11T06:10:33.769Z</time>
      </trkpt>
      <trkpt lat="38.041735" lon="-4.119514">
        <ele>250.601731</ele>
        <time>2020-08-11T06:10:35.759Z</time>
      </trkpt>
      <trkpt lat="38.041800" lon="-4.119618">
        <ele>250.639861</ele>
        <time>2020-08-11T06:10:37.793Z</time>
      </trkpt>
      <trkpt lat="38.041861" lon="-4.119716">
        <ele>250.675734</ele>
        <time>2020-08-11T06:10:39.787Z</time>
      </trkpt>
      <trkpt lat="38.041903" lon="-4.119829">
        <ele>250.711618</ele>
        <time>2020-08-11T06:10:41.783Z</time>
      </trkpt>
      <trkpt lat="38.041954" lon="-4.119929">
        <ele>250.745833</ele>
        <time>2020-08-11T06:10:43.785Z</time>
      </trkpt>
      <trkpt lat="38.041999" lon="-4.120037">
        <ele>250.780922</ele>
        <time>2020-08-11T06:10:45.777Z</time>
      </trkpt>
      <trkpt lat="38.042047" lon="-4.120151">
        <ele>250.821310</ele>
        <time>2020-08-11T06:10:47.787Z</time>
      </trkpt>
      <trkpt lat="38.042099" lon="-4.120265">
        <ele>250.864297</ele>
        <time>2020-08-11T06:10:49.769Z</time>
      </trkpt>
      <trkpt lat="38.042163" lon="-4.120409">
        <ele>250.918250</ele>
        <time>2020-08-11T06:10:52.781Z</time>
      </trkpt>
      <trkpt lat="38.042219" lon="-4.120528">
        <ele>250.963484</ele>
        <time>2020-08-11T06:10:55.774Z</time>
      </trkpt>
      <trkpt lat="38.042256" lon="-4.120657">
        <ele>251.008281</ele>
        <time>2020-08-11T06:11:23.765Z</time>
      </trkpt>
      <trkpt lat="38.042305" lon="-4.120767">
        <ele>251.049518</ele>
        <time>2020-08-11T06:11:26.774Z</time>
      </trkpt>
      <trkpt lat="38.042359" lon="-4.120893">
        <ele>251.096325</ele>
        <time>2020-08-11T06:11:29.780Z</time>
      </trkpt>
      <trkpt lat="38.042402" lon="-4.120999">
        <ele>251.135232</ele>
        <time>2020-08-11T06:11:31.772Z</time>
      </trkpt>
      <trkpt lat="38.042438" lon="-4.121110">
        <ele>251.174402</ele>
        <time>2020-08-11T06:11:33.766Z</time>
      </trkpt>
      <trkpt lat="38.042486" lon="-4.121230">
        <ele>251.218319</ele>
        <time>2020-08-11T06:11:35.778Z</time>
      </trkpt>
      <trkpt lat="38.042522" lon="-4.121363">
        <ele>251.264209</ele>
        <time>2020-08-11T06:11:37.783Z</time>
      </trkpt>
      <trkpt lat="38.042554" lon="-4.121487">
        <ele>251.306787</ele>
        <time>2020-08-11T06:11:39.786Z</time>
      </trkpt>
      <trkpt lat="38.042603" lon="-4.121615">
        <ele>251.353226</ele>
        <time>2020-08-11T06:11:41.786Z</time>
      </trkpt>
      <trkpt lat="38.042656" lon="-4.121736">
        <ele>251.398404</ele>
        <time>2020-08-11T06:11:43.782Z</time>
      </trkpt>
      <trkpt lat="38.042703" lon="-4.121861">
        <ele>251.443601</ele>
        <time>2020-08-11T06:11:45.777Z</time>
      </trkpt>
      <trkpt lat="38.042755" lon="-4.121983">
        <ele>251.488866</ele>
        <time>2020-08-11T06:11:47.785Z</time>
      </trkpt>
      <trkpt lat="38.042800" lon="-4.122106">
        <ele>251.533120</ele>
        <time>2020-08-11T06:11:49.790Z</time>
      </trkpt>
      <trkpt lat="38.042842" lon="-4.122221">
        <ele>251.595503</ele>
        <time>2020-08-11T06:11:51.764Z</time>
      </trkpt>
      <trkpt lat="38.042880" lon="-4.122347">
        <ele>251.665833</ele>
        <time>2020-08-11T06:11:53.774Z</time>
      </trkpt>
      <trkpt lat="38.042918" lon="-4.122481">
        <ele>251.740072</ele>
        <time>2020-08-11T06:11:55.781Z</time>
      </trkpt>
      <trkpt lat="38.042970" lon="-4.122603">
        <ele>251.812382</ele>
        <time>2020-08-11T06:11:57.786Z</time>
      </trkpt>
      <trkpt lat="38.043016" lon="-4.122713">
        <ele>251.877303</ele>
        <time>2020-08-11T06:11:59.781Z</time>
      </trkpt>
      <trkpt lat="38.043053" lon="-4.122826">
        <ele>251.941094</ele>
        <time>2020-08-11T06:12:01.781Z</time>
      </trkpt>
      <trkpt lat="38.043093" lon="-4.122941">
        <ele>252.006625</ele>
        <time>2020-08-11T06:12:03.783Z</time>
      </trkpt>
      <trkpt lat="38.043147" lon="-4.123052">
        <ele>252.074634</ele>
        <time>2020-08-11T06:12:05.780Z</time>
      </trkpt>
      <trkpt lat="38.043195" lon="-4.123169">
        <ele>252.143400</ele>
        <time>2020-08-11T06:12:07.776Z</time>
      </trkpt>
      <trkpt lat="38.043242" lon="-4.123289">
        <ele>252.213260</ele>
        <time>2020-08-11T06:12:09.775Z</time>
      </trkpt>
      <trkpt lat="38.043295" lon="-4.123410">
        <ele>252.285431</ele>
        <time>2020-08-11T06:12:11.781Z</time>
      </trkpt>
      <trkpt lat="38.043339" lon="-4.123527">
        <ele>252.353015</ele>
        <time>2020-08-11T06:12:13.780Z</time>
      </trkpt>
      <trkpt lat="38.043381" lon="-4.123653">
        <ele>252.424335</ele>
        <time>2020-08-11T06:12:15.766Z</time>
      </trkpt>
      <trkpt lat="38.043421" lon="-4.123775">
        <ele>252.493219</ele>
        <time>2020-08-11T06:12:17.783Z</time>
      </trkpt>
      <trkpt lat="38.043475" lon="-4.123895">
        <ele>252.565261</ele>
        <time>2020-08-11T06:12:19.792Z</time>
      </trkpt>
      <trkpt lat="38.043514" lon="-4.124010">
        <ele>252.630528</ele>
        <time>2020-08-11T06:12:21.787Z</time>
      </trkpt>
      <trkpt lat="38.043554" lon="-4.124124">
        <ele>252.695582</ele>
        <time>2020-08-11T06:12:23.792Z</time>
      </trkpt>
      <trkpt lat="38.043602" lon="-4.124239">
        <ele>252.716792</ele>
        <time>2020-08-11T06:12:25.774Z</time>
      </trkpt>
      <trkpt lat="38.043655" lon="-4.124364">
        <ele>252.688210</ele>
        <time>2020-08-11T06:12:27.772Z</time>
      </trkpt>
      <trkpt lat="38.043697" lon="-4.124502">
        <ele>252.658423</ele>
        <time>2020-08-11T06:12:29.780Z</time>
      </trkpt>
      <trkpt lat="38.043747" lon="-4.124662">
        <ele>252.623767</ele>
        <time>2020-08-11T06:12:31.771Z</time>
      </trkpt>
      <trkpt lat="38.043816" lon="-4.124764">
        <ele>252.596695</ele>
        <time>2020-08-11T06:12:33.775Z</time>
      </trkpt>
      <trkpt lat="38.043872" lon="-4.124907">
        <ele>252.564541</ele>
        <time>2020-08-11T06:12:35.775Z</time>
      </trkpt>
      <trkpt lat="38.043916" lon="-4.125050">
        <ele>252.533631</ele>
        <time>2020-08-11T06:12:37.777Z</time>
      </trkpt>
      <trkpt lat="38.043957" lon="-4.125207">
        <ele>252.500330</ele>
        <time>2020-08-11T06:12:39.791Z</time>
      </trkpt>
      <trkpt lat="38.043970" lon="-4.125365">
        <ele>252.468346</ele>
        <time>2020-08-11T06:12:41.789Z</time>
      </trkpt>
      <trkpt lat="38.044055" lon="-4.125476">
        <ele>252.437175</ele>
        <time>2020-08-11T06:12:43.775Z</time>
      </trkpt>
      <trkpt lat="38.044114" lon="-4.125589">
        <ele>252.409879</ele>
        <time>2020-08-11T06:12:45.772Z</time>
      </trkpt>
      <trkpt lat="38.044170" lon="-4.125703">
        <ele>252.382828</ele>
        <time>2020-08-11T06:12:47.780Z</time>
      </trkpt>
      <trkpt lat="38.044215" lon="-4.125819">
        <ele>252.356794</ele>
        <time>2020-08-11T06:12:49.775Z</time>
      </trkpt>
      <trkpt lat="38.044271" lon="-4.125953">
        <ele>252.326252</ele>
        <time>2020-08-11T06:12:51.776Z</time>
      </trkpt>
      <trkpt lat="38.044310" lon="-4.126099">
        <ele>252.295213</ele>
        <time>2020-08-11T06:12:53.785Z</time>
      </trkpt>
      <trkpt lat="38.044323" lon="-4.126255">
        <ele>252.229472</ele>
        <time>2020-08-11T06:12:55.767Z</time>
      </trkpt>
      <trkpt lat="38.044371" lon="-4.126384">
        <ele>252.045897</ele>
        <time>2020-08-11T06:12:57.783Z</time>
      </trkpt>
      <trkpt lat="38.044419" lon="-4.126505">
        <ele>251.871574</ele>
        <time>2020-08-11T06:12:59.772Z</time>
      </trkpt>
      <trkpt lat="38.044488" lon="-4.126652">
        <ele>251.651386</ele>
        <time>2020-08-11T06:13:01.767Z</time>
      </trkpt>
      <trkpt lat="38.044533" lon="-4.126793">
        <ele>251.455634</ele>
        <time>2020-08-11T06:13:03.782Z</time>
      </trkpt>
      <trkpt lat="38.044586" lon="-4.126933">
        <ele>251.255768</ele>
        <time>2020-08-11T06:13:05.788Z</time>
      </trkpt>
      <trkpt lat="38.044646" lon="-4.127082">
        <ele>251.040446</ele>
        <time>2020-08-11T06:13:07.784Z</time>
      </trkpt>
      <trkpt lat="38.044702" lon="-4.127231">
        <ele>250.828019</ele>
        <time>2020-08-11T06:13:09.774Z</time>
      </trkpt>
      <trkpt lat="38.044767" lon="-4.127372">
        <ele>250.617803</ele>
        <time>2020-08-11T06:13:11.776Z</time>
      </trkpt>
      <trkpt lat="38.044827" lon="-4.127533">
        <ele>250.388626</ele>
        <time>2020-08-11T06:13:13.787Z</time>
      </trkpt>
      <trkpt lat="38.044888" lon="-4.127674">
        <ele>250.181634</ele>
        <time>2020-08-11T06:13:15.775Z</time>
      </trkpt>
      <trkpt lat="38.044947" lon="-4.127815">
        <ele>249.976196</ele>
        <time>2020-08-11T06:13:17.779Z</time>
      </trkpt>
      <trkpt lat="38.045014" lon="-4.127988">
        <ele>249.728143</ele>
        <time>2020-08-11T06:13:19.779Z</time>
      </trkpt>
      <trkpt lat="38.045054" lon="-4.128096">
        <ele>249.574583</ele>
        <time>2020-08-11T06:13:20.792Z</time>
      </trkpt>
      <trkpt lat="38.045102" lon="-4.128245">
        <ele>249.367451</ele>
        <time>2020-08-11T06:13:22.788Z</time>
      </trkpt>
      <trkpt lat="38.045155" lon="-4.128382">
        <ele>249.312457</ele>
        <time>2020-08-11T06:13:24.765Z</time>
      </trkpt>
      <trkpt lat="38.045213" lon="-4.128538">
        <ele>249.286307</ele>
        <time>2020-08-11T06:13:26.768Z</time>
      </trkpt>
      <trkpt lat="38.045270" lon="-4.128689">
        <ele>249.260923</ele>
        <time>2020-08-11T06:13:28.777Z</time>
      </trkpt>
      <trkpt lat="38.045322" lon="-4.128838">
        <ele>249.236219</ele>
        <time>2020-08-11T06:13:30.786Z</time>
      </trkpt>
      <trkpt lat="38.045365" lon="-4.129002">
        <ele>249.210017</ele>
        <time>2020-08-11T06:13:32.783Z</time>
      </trkpt>
      <trkpt lat="38.045416" lon="-4.129152">
        <ele>249.185250</ele>
        <time>2020-08-11T06:13:34.782Z</time>
      </trkpt>
      <trkpt lat="38.045461" lon="-4.129303">
        <ele>249.160776</ele>
        <time>2020-08-11T06:13:36.783Z</time>
      </trkpt>
      <trkpt lat="38.045511" lon="-4.129455">
        <ele>249.135806</ele>
        <time>2020-08-11T06:13:38.793Z</time>
      </trkpt>
      <trkpt lat="38.045561" lon="-4.129624">
        <ele>249.108439</ele>
        <time>2020-08-11T06:13:40.785Z</time>
      </trkpt>
      <trkpt lat="38.045612" lon="-4.129787">
        <ele>249.081852</ele>
        <time>2020-08-11T06:13:42.763Z</time>
      </trkpt>
      <trkpt lat="38.045664" lon="-4.129951">
        <ele>249.055053</ele>
        <time>2020-08-11T06:13:44.774Z</time>
      </trkpt>
      <trkpt lat="38.045714" lon="-4.130095">
        <ele>249.031197</ele>
        <time>2020-08-11T06:13:46.797Z</time>
      </trkpt>
      <trkpt lat="38.045768" lon="-4.130260">
        <ele>249.004111</ele>
        <time>2020-08-11T06:13:48.776Z</time>
      </trkpt>
      <trkpt lat="38.045813" lon="-4.130416">
        <ele>249.020931</ele>
        <time>2020-08-11T06:13:50.774Z</time>
      </trkpt>
      <trkpt lat="38.045865" lon="-4.130575">
        <ele>249.171630</ele>
        <time>2020-08-11T06:13:52.791Z</time>
      </trkpt>
      <trkpt lat="38.045910" lon="-4.130720">
        <ele>249.308050</ele>
        <time>2020-08-11T06:13:54.771Z</time>
      </trkpt>
      <trkpt lat="38.045958" lon="-4.130858">
        <ele>249.440100</ele>
        <time>2020-08-11T06:13:56.778Z</time>
      </trkpt>
      <trkpt lat="38.045996" lon="-4.130979">
        <ele>249.554123</ele>
        <time>2020-08-11T06:13:58.789Z</time>
      </trkpt>
      <trkpt lat="38.046042" lon="-4.131129">
        <ele>249.695023</ele>
        <time>2020-08-11T06:14:00.787Z</time>
      </trkpt>
      <trkpt lat="38.046088" lon="-4.131281">
        <ele>249.837556</ele>
        <time>2020-08-11T06:14:02.786Z</time>
      </trkpt>
      <trkpt lat="38.046128" lon="-4.131434">
        <ele>249.978665</ele>
        <time>2020-08-11T06:14:04.770Z</time>
      </trkpt>
      <trkpt lat="38.046178" lon="-4.131579">
        <ele>250.117218</ele>
        <time>2020-08-11T06:14:06.777Z</time>
      </trkpt>
      <trkpt lat="38.046202" lon="-4.131720">
        <ele>250.243486</ele>
        <time>2020-08-11T06:14:08.780Z</time>
      </trkpt>
      <trkpt lat="38.046242" lon="-4.131856">
        <ele>250.370559</ele>
        <time>2020-08-11T06:14:10.772Z</time>
      </trkpt>
      <trkpt lat="38.046287" lon="-4.131975">
        <ele>250.486107</ele>
        <time>2020-08-11T06:14:12.774Z</time>
      </trkpt>
      <trkpt lat="38.046337" lon="-4.132121">
        <ele>250.625462</ele>
        <time>2020-08-11T06:14:15.781Z</time>
      </trkpt>
      <trkpt lat="38.046386" lon="-4.132268">
        <ele>250.765184</ele>
        <time>2020-08-11T06:14:18.786Z</time>
      </trkpt>
      <trkpt lat="38.046416" lon="-4.132394">
        <ele>250.880402</ele>
        <time>2020-08-11T06:14:21.775Z</time>
      </trkpt>
      <trkpt lat="38.046437" lon="-4.132538">
        <ele>251.069081</ele>
        <time>2020-08-11T06:14:25.800Z</time>
      </trkpt>
      <trkpt lat="38.046455" lon="-4.132651">
        <ele>251.421153</ele>
        <time>2020-08-11T06:14:28.774Z</time>
      </trkpt>
      <trkpt lat="38.046475" lon="-4.132770">
        <ele>251.792744</ele>
        <time>2020-08-11T06:14:31.782Z</time>
      </trkpt>
      <trkpt lat="38.046489" lon="-4.132898">
        <ele>252.187388</ele>
        <time>2020-08-11T06:14:34.773Z</time>
      </trkpt>
      <trkpt lat="38.046510" lon="-4.133022">
        <ele>252.574721</ele>
        <time>2020-08-11T06:14:37.783Z</time>
      </trkpt>
      <trkpt lat="38.046532" lon="-4.133145">
        <ele>252.959910</ele>
        <time>2020-08-11T06:14:40.769Z</time>
      </trkpt>
      <trkpt lat="38.046545" lon="-4.133273">
        <ele>253.354039</ele>
        <time>2020-08-11T06:14:43.780Z</time>
      </trkpt>
      <trkpt lat="38.046555" lon="-4.133395">
        <ele>253.728619</ele>
        <time>2020-08-11T06:14:46.778Z</time>
      </trkpt>
      <trkpt lat="38.046570" lon="-4.133517">
        <ele>254.105701</ele>
        <time>2020-08-11T06:14:49.776Z</time>
      </trkpt>
      <trkpt lat="38.046588" lon="-4.133668">
        <ele>254.572083</ele>
        <time>2020-08-11T06:14:53.780Z</time>
      </trkpt>
      <trkpt lat="38.046603" lon="-4.133815">
        <ele>255.024750</ele>
        <time>2020-08-11T06:14:57.785Z</time>
      </trkpt>
      <trkpt lat="38.046614" lon="-4.133956">
        <ele>255.457448</ele>
        <time>2020-08-11T06:15:01.777Z</time>
      </trkpt>
      <trkpt lat="38.046635" lon="-4.134094">
        <ele>255.886673</ele>
        <time>2020-08-11T06:15:05.782Z</time>
      </trkpt>
      <trkpt lat="38.046634" lon="-4.134212">
        <ele>256.247047</ele>
        <time>2020-08-11T06:15:08.784Z</time>
      </trkpt>
      <trkpt lat="38.046638" lon="-4.134356">
        <ele>256.687072</ele>
        <time>2020-08-11T06:15:12.779Z</time>
      </trkpt>
      <trkpt lat="38.046646" lon="-4.134480">
        <ele>257.067016</ele>
        <time>2020-08-11T06:15:16.774Z</time>
      </trkpt>
      <trkpt lat="38.046650" lon="-4.134607">
        <ele>257.455163</ele>
        <time>2020-08-11T06:15:20.783Z</time>
      </trkpt>
      <trkpt lat="38.046650" lon="-4.134735">
        <ele>257.846054</ele>
        <time>2020-08-11T06:15:24.780Z</time>
      </trkpt>
      <trkpt lat="38.046639" lon="-4.134869">
        <ele>258.160775</ele>
        <time>2020-08-11T06:15:28.782Z</time>
      </trkpt>
      <trkpt lat="38.046626" lon="-4.134999">
        <ele>258.431243</ele>
        <time>2020-08-11T06:15:32.772Z</time>
      </trkpt>
      <trkpt lat="38.046604" lon="-4.135122">
        <ele>258.691575</ele>
        <time>2020-08-11T06:15:36.777Z</time>
      </trkpt>
      <trkpt lat="38.046577" lon="-4.135252">
        <ele>258.969063</ele>
        <time>2020-08-11T06:15:40.791Z</time>
      </trkpt>
      <trkpt lat="38.046550" lon="-4.135383">
        <ele>259.248548</ele>
        <time>2020-08-11T06:15:44.781Z</time>
      </trkpt>
      <trkpt lat="38.046512" lon="-4.135517">
        <ele>259.542503</ele>
        <time>2020-08-11T06:15:48.773Z</time>
      </trkpt>
      <trkpt lat="38.046476" lon="-4.135645">
        <ele>259.823031</ele>
        <time>2020-08-11T06:15:52.791Z</time>
      </trkpt>
      <trkpt lat="38.046446" lon="-4.135775">
        <ele>260.102628</ele>
        <time>2020-08-11T06:15:56.775Z</time>
      </trkpt>
      <trkpt lat="38.046418" lon="-4.135911">
        <ele>260.392761</ele>
        <time>2020-08-11T06:16:00.783Z</time>
      </trkpt>
      <trkpt lat="38.046386" lon="-4.136046">
        <ele>260.683743</ele>
        <time>2020-08-11T06:16:04.775Z</time>
      </trkpt>
      <trkpt lat="38.046348" lon="-4.136179">
        <ele>260.975757</ele>
        <time>2020-08-11T06:16:08.779Z</time>
      </trkpt>
      <trkpt lat="38.046308" lon="-4.136316">
        <ele>261.277328</ele>
        <time>2020-08-11T06:16:12.775Z</time>
      </trkpt>
      <trkpt lat="38.046266" lon="-4.136450">
        <ele>261.574999</ele>
        <time>2020-08-11T06:16:16.769Z</time>
      </trkpt>
      <trkpt lat="38.046243" lon="-4.136580">
        <ele>261.850002</ele>
        <time>2020-08-11T06:16:20.777Z</time>
      </trkpt>
      <trkpt lat="38.046246" lon="-4.136711">
        <ele>262.120495</ele>
        <time>2020-08-11T06:16:24.780Z</time>
      </trkpt>
      <trkpt lat="38.046271" lon="-4.136848">
        <ele>262.410750</ele>
        <time>2020-08-11T06:16:28.778Z</time>
      </trkpt>
      <trkpt lat="38.046303" lon="-4.136979">
        <ele>262.686157</ele>
        <time>2020-08-11T06:16:32.788Z</time>
      </trkpt>
      <trkpt lat="38.046336" lon="-4.137108">
        <ele>262.862322</ele>
        <time>2020-08-11T06:16:36.785Z</time>
      </trkpt>
      <trkpt lat="38.046362" lon="-4.137237">
        <ele>263.035268</ele>
        <time>2020-08-11T06:16:40.775Z</time>
      </trkpt>
      <trkpt lat="38.046394" lon="-4.137382">
        <ele>263.230850</ele>
        <time>2020-08-11T06:16:44.768Z</time>
      </trkpt>
      <trkpt lat="38.046442" lon="-4.137513">
        <ele>263.418509</ele>
        <time>2020-08-11T06:16:48.756Z</time>
      </trkpt>
      <trkpt lat="38.046611" lon="-4.137715">
        <ele>263.801287</ele>
        <time>2020-08-11T06:18:38.783Z</time>
      </trkpt>
      <trkpt lat="38.046655" lon="-4.137829">
        <ele>263.966177</ele>
        <time>2020-08-11T06:18:41.777Z</time>
      </trkpt>
      <trkpt lat="38.046691" lon="-4.137946">
        <ele>264.129325</ele>
        <time>2020-08-11T06:18:45.785Z</time>
      </trkpt>
      <trkpt lat="38.046731" lon="-4.138070">
        <ele>264.303364</ele>
        <time>2020-08-11T06:18:49.783Z</time>
      </trkpt>
      <trkpt lat="38.046748" lon="-4.138192">
        <ele>264.464279</ele>
        <time>2020-08-11T06:18:53.781Z</time>
      </trkpt>
      <trkpt lat="38.046750" lon="-4.138314">
        <ele>264.622767</ele>
        <time>2020-08-11T06:18:57.797Z</time>
      </trkpt>
      <trkpt lat="38.046730" lon="-4.138427">
        <ele>264.773192</ele>
        <time>2020-08-11T06:19:01.799Z</time>
      </trkpt>
      <trkpt lat="38.046683" lon="-4.138540">
        <ele>264.939169</ele>
        <time>2020-08-11T06:19:05.789Z</time>
      </trkpt>
      <trkpt lat="38.046648" lon="-4.138647">
        <ele>265.089653</ele>
        <time>2020-08-11T06:19:09.789Z</time>
      </trkpt>
      <trkpt lat="38.046605" lon="-4.138755">
        <ele>265.246832</ele>
        <time>2020-08-11T06:19:13.793Z</time>
      </trkpt>
      <trkpt lat="38.046559" lon="-4.138859">
        <ele>265.401754</ele>
        <time>2020-08-11T06:19:17.780Z</time>
      </trkpt>
      <trkpt lat="38.046515" lon="-4.138974">
        <ele>265.567812</ele>
        <time>2020-08-11T06:19:21.782Z</time>
      </trkpt>
      <trkpt lat="38.046485" lon="-4.139094">
        <ele>265.568774</ele>
        <time>2020-08-11T06:19:25.787Z</time>
      </trkpt>
      <trkpt lat="38.046432" lon="-4.139212">
        <ele>265.432757</ele>
        <time>2020-08-11T06:19:30.789Z</time>
      </trkpt>
      <trkpt lat="38.046394" lon="-4.139324">
        <ele>265.310648</ele>
        <time>2020-08-11T06:19:34.801Z</time>
      </trkpt>
      <trkpt lat="38.046355" lon="-4.139458">
        <ele>265.167606</ele>
        <time>2020-08-11T06:19:39.795Z</time>
      </trkpt>
      <trkpt lat="38.046326" lon="-4.139594">
        <ele>265.026527</ele>
        <time>2020-08-11T06:19:44.786Z</time>
      </trkpt>
      <trkpt lat="38.046300" lon="-4.139710">
        <ele>264.905766</ele>
        <time>2020-08-11T06:19:48.804Z</time>
      </trkpt>
      <trkpt lat="38.046287" lon="-4.139830">
        <ele>264.784480</ele>
        <time>2020-08-11T06:19:52.797Z</time>
      </trkpt>
      <trkpt lat="38.046295" lon="-4.139970">
        <ele>264.643931</ele>
        <time>2020-08-11T06:19:56.792Z</time>
      </trkpt>
      <trkpt lat="38.046312" lon="-4.140086">
        <ele>264.525788</ele>
        <time>2020-08-11T06:19:59.768Z</time>
      </trkpt>
      <trkpt lat="38.046343" lon="-4.140196">
        <ele>264.408807</ele>
        <time>2020-08-11T06:20:02.804Z</time>
      </trkpt>
      <trkpt lat="38.046389" lon="-4.140310">
        <ele>264.280549</ele>
        <time>2020-08-11T06:20:06.786Z</time>
      </trkpt>
      <trkpt lat="38.046440" lon="-4.140407">
        <ele>264.163767</ele>
        <time>2020-08-11T06:20:10.798Z</time>
      </trkpt>
      <trkpt lat="38.046496" lon="-4.140501">
        <ele>264.045749</ele>
        <time>2020-08-11T06:20:14.792Z</time>
      </trkpt>
      <trkpt lat="38.046550" lon="-4.140600">
        <ele>263.925167</ele>
        <time>2020-08-11T06:20:18.789Z</time>
      </trkpt>
      <trkpt lat="38.046604" lon="-4.140714">
        <ele>263.791963</ele>
        <time>2020-08-11T06:20:22.784Z</time>
      </trkpt>
      <trkpt lat="38.046651" lon="-4.140814">
        <ele>263.675358</ele>
        <time>2020-08-11T06:20:26.785Z</time>
      </trkpt>
      <trkpt lat="38.046691" lon="-4.140925">
        <ele>263.553132</ele>
        <time>2020-08-11T06:20:30.785Z</time>
      </trkpt>
      <trkpt lat="38.046741" lon="-4.141045">
        <ele>263.417197</ele>
        <time>2020-08-11T06:20:34.786Z</time>
      </trkpt>
      <trkpt lat="38.046800" lon="-4.141172">
        <ele>263.619606</ele>
        <time>2020-08-11T06:20:38.792Z</time>
      </trkpt>
      <trkpt lat="38.046857" lon="-4.141289">
        <ele>264.062167</ele>
        <time>2020-08-11T06:20:42.791Z</time>
      </trkpt>
      <trkpt lat="38.046912" lon="-4.141409">
        <ele>264.508798</ele>
        <time>2020-08-11T06:20:46.800Z</time>
      </trkpt>
      <trkpt lat="38.046955" lon="-4.141512">
        <ele>264.883805</ele>
        <time>2020-08-11T06:20:49.792Z</time>
      </trkpt>
      <trkpt lat="38.046999" lon="-4.141613">
        <ele>265.255098</ele>
        <time>2020-08-11T06:20:52.786Z</time>
      </trkpt>
      <trkpt lat="38.047057" lon="-4.141733">
        <ele>265.708017</ele>
        <time>2020-08-11T06:20:56.792Z</time>
      </trkpt>
      <trkpt lat="38.047118" lon="-4.141848">
        <ele>266.154037</ele>
        <time>2020-08-11T06:21:00.780Z</time>
      </trkpt>
      <trkpt lat="38.047173" lon="-4.141958">
        <ele>266.573177</ele>
        <time>2020-08-11T06:21:04.801Z</time>
      </trkpt>
      <trkpt lat="38.047217" lon="-4.142071">
        <ele>266.978679</ele>
        <time>2020-08-11T06:21:08.787Z</time>
      </trkpt>
      <trkpt lat="38.047231" lon="-4.142207">
        <ele>267.419881</ele>
        <time>2020-08-11T06:21:13.784Z</time>
      </trkpt>
      <trkpt lat="38.047234" lon="-4.142346">
        <ele>267.867179</ele>
        <time>2020-08-11T06:21:18.801Z</time>
      </trkpt>
      <trkpt lat="38.047228" lon="-4.142471">
        <ele>268.270021</ele>
        <time>2020-08-11T06:21:22.784Z</time>
      </trkpt>
      <trkpt lat="38.047195" lon="-4.142600">
        <ele>268.706329</ele>
        <time>2020-08-11T06:21:26.789Z</time>
      </trkpt>
      <trkpt lat="38.047174" lon="-4.142719">
        <ele>269.098617</ele>
        <time>2020-08-11T06:21:29.790Z</time>
      </trkpt>
      <trkpt lat="38.047177" lon="-4.142869">
        <ele>269.581288</ele>
        <time>2020-08-11T06:21:32.816Z</time>
      </trkpt>
      <trkpt lat="38.047189" lon="-4.143030">
        <ele>270.101502</ele>
        <time>2020-08-11T06:21:35.795Z</time>
      </trkpt>
      <trkpt lat="38.047198" lon="-4.143145">
        <ele>270.473253</ele>
        <time>2020-08-11T06:21:37.787Z</time>
      </trkpt>
      <trkpt lat="38.047201" lon="-4.143264">
        <ele>270.947877</ele>
        <time>2020-08-11T06:21:39.791Z</time>
      </trkpt>
      <trkpt lat="38.047204" lon="-4.143380">
        <ele>271.539746</ele>
        <time>2020-08-11T06:21:41.784Z</time>
      </trkpt>
      <trkpt lat="38.047199" lon="-4.143503">
        <ele>272.167828</ele>
        <time>2020-08-11T06:21:43.773Z</time>
      </trkpt>
      <trkpt lat="38.047191" lon="-4.143633">
        <ele>272.832792</ele>
        <time>2020-08-11T06:21:45.781Z</time>
      </trkpt>
      <trkpt lat="38.047177" lon="-4.143766">
        <ele>273.517067</ele>
        <time>2020-08-11T06:21:47.762Z</time>
      </trkpt>
      <trkpt lat="38.047177" lon="-4.143908">
        <ele>274.241205</ele>
        <time>2020-08-11T06:21:49.784Z</time>
      </trkpt>
      <trkpt lat="38.047165" lon="-4.144054">
        <ele>274.989787</ele>
        <time>2020-08-11T06:21:51.769Z</time>
      </trkpt>
      <trkpt lat="38.047157" lon="-4.144197">
        <ele>275.720863</ele>
        <time>2020-08-11T06:21:53.789Z</time>
      </trkpt>
      <trkpt lat="38.047163" lon="-4.144330">
        <ele>276.400217</ele>
        <time>2020-08-11T06:21:55.786Z</time>
      </trkpt>
      <trkpt lat="38.047163" lon="-4.144465">
        <ele>277.088659</ele>
        <time>2020-08-11T06:21:57.787Z</time>
      </trkpt>
      <trkpt lat="38.047163" lon="-4.144632">
        <ele>277.940287</ele>
        <time>2020-08-11T06:21:59.790Z</time>
      </trkpt>
      <trkpt lat="38.047154" lon="-4.144781">
        <ele>278.702354</ele>
        <time>2020-08-11T06:22:01.796Z</time>
      </trkpt>
      <trkpt lat="38.047154" lon="-4.144950">
        <ele>279.564182</ele>
        <time>2020-08-11T06:22:03.778Z</time>
      </trkpt>
      <trkpt lat="38.047141" lon="-4.145112">
        <ele>280.394590</ele>
        <time>2020-08-11T06:22:05.791Z</time>
      </trkpt>
      <trkpt lat="38.047135" lon="-4.145283">
        <ele>281.267482</ele>
        <time>2020-08-11T06:22:07.786Z</time>
      </trkpt>
      <trkpt lat="38.047137" lon="-4.145467">
        <ele>282.205892</ele>
        <time>2020-08-11T06:22:09.788Z</time>
      </trkpt>
      <trkpt lat="38.047118" lon="-4.145623">
        <ele>283.233321</ele>
        <time>2020-08-11T06:22:11.785Z</time>
      </trkpt>
      <trkpt lat="38.047075" lon="-4.145785">
        <ele>284.397219</ele>
        <time>2020-08-11T06:22:13.794Z</time>
      </trkpt>
      <trkpt lat="38.047050" lon="-4.145969">
        <ele>285.668441</ele>
        <time>2020-08-11T06:22:15.796Z</time>
      </trkpt>
      <trkpt lat="38.046996" lon="-4.146134">
        <ele>286.884944</ele>
        <time>2020-08-11T06:22:17.789Z</time>
      </trkpt>
      <trkpt lat="38.046961" lon="-4.146316">
        <ele>288.160454</ele>
        <time>2020-08-11T06:22:19.785Z</time>
      </trkpt>
      <trkpt lat="38.046946" lon="-4.146513">
        <ele>289.507932</ele>
        <time>2020-08-11T06:22:21.777Z</time>
      </trkpt>
      <trkpt lat="38.046901" lon="-4.146690">
        <ele>290.774233</ele>
        <time>2020-08-11T06:22:23.783Z</time>
      </trkpt>
      <trkpt lat="38.046870" lon="-4.146858">
        <ele>291.948997</ele>
        <time>2020-08-11T06:22:25.795Z</time>
      </trkpt>
      <trkpt lat="38.046837" lon="-4.147044">
        <ele>293.247071</ele>
        <time>2020-08-11T06:22:27.793Z</time>
      </trkpt>
      <trkpt lat="38.046803" lon="-4.147227">
        <ele>294.527185</ele>
        <time>2020-08-11T06:22:29.786Z</time>
      </trkpt>
      <trkpt lat="38.046784" lon="-4.147420">
        <ele>295.851405</ele>
        <time>2020-08-11T06:22:31.796Z</time>
      </trkpt>
      <trkpt lat="38.046800" lon="-4.147619">
        <ele>297.213291</ele>
        <time>2020-08-11T06:22:33.798Z</time>
      </trkpt>
      <trkpt lat="38.046801" lon="-4.147805">
        <ele>297.882380</ele>
        <time>2020-08-11T06:22:35.787Z</time>
      </trkpt>
      <trkpt lat="38.046814" lon="-4.148003">
        <ele>297.848806</ele>
        <time>2020-08-11T06:22:37.782Z</time>
      </trkpt>
      <trkpt lat="38.046815" lon="-4.148178">
        <ele>297.819234</ele>
        <time>2020-08-11T06:22:39.786Z</time>
      </trkpt>
      <trkpt lat="38.046820" lon="-4.148344">
        <ele>297.791164</ele>
        <time>2020-08-11T06:22:41.790Z</time>
      </trkpt>
      <trkpt lat="38.046836" lon="-4.148524">
        <ele>297.760555</ele>
        <time>2020-08-11T06:22:43.794Z</time>
      </trkpt>
      <trkpt lat="38.046849" lon="-4.148690">
        <ele>297.732366</ele>
        <time>2020-08-11T06:22:45.793Z</time>
      </trkpt>
      <trkpt lat="38.046839" lon="-4.148847">
        <ele>297.705750</ele>
        <time>2020-08-11T06:22:47.785Z</time>
      </trkpt>
      <trkpt lat="38.046851" lon="-4.149003">
        <ele>297.679264</ele>
        <time>2020-08-11T06:22:49.787Z</time>
      </trkpt>
      <trkpt lat="38.046858" lon="-4.149157">
        <ele>297.653198</ele>
        <time>2020-08-11T06:22:51.788Z</time>
      </trkpt>
      <trkpt lat="38.046866" lon="-4.149284">
        <ele>297.631670</ele>
        <time>2020-08-11T06:22:53.790Z</time>
      </trkpt>
      <trkpt lat="38.046851" lon="-4.149417">
        <ele>297.608967</ele>
        <time>2020-08-11T06:22:55.790Z</time>
      </trkpt>
      <trkpt lat="38.046870" lon="-4.149540">
        <ele>297.587786</ele>
        <time>2020-08-11T06:22:57.784Z</time>
      </trkpt>
      <trkpt lat="38.046879" lon="-4.149706">
        <ele>297.559670</ele>
        <time>2020-08-11T06:23:00.784Z</time>
      </trkpt>
      <trkpt lat="38.046891" lon="-4.149894">
        <ele>297.527798</ele>
        <time>2020-08-11T06:23:03.801Z</time>
      </trkpt>
      <trkpt lat="38.046897" lon="-4.150052">
        <ele>297.549884</ele>
        <time>2020-08-11T06:23:06.792Z</time>
      </trkpt>
      <trkpt lat="38.046921" lon="-4.150207">
        <ele>297.655646</ele>
        <time>2020-08-11T06:23:09.793Z</time>
      </trkpt>
      <trkpt lat="38.046956" lon="-4.150348">
        <ele>297.754626</ele>
        <time>2020-08-11T06:23:12.805Z</time>
      </trkpt>
      <trkpt lat="38.047006" lon="-4.150513">
        <ele>297.872993</ele>
        <time>2020-08-11T06:23:15.786Z</time>
      </trkpt>
      <trkpt lat="38.047104" lon="-4.150650">
        <ele>297.996907</ele>
        <time>2020-08-11T06:23:18.788Z</time>
      </trkpt>
      <trkpt lat="38.047165" lon="-4.150754">
        <ele>298.083728</ele>
        <time>2020-08-11T06:23:20.816Z</time>
      </trkpt>
      <trkpt lat="38.047214" lon="-4.150855">
        <ele>298.163151</ele>
        <time>2020-08-11T06:23:22.783Z</time>
      </trkpt>
      <trkpt lat="38.047237" lon="-4.150970">
        <ele>298.242589</ele>
        <time>2020-08-11T06:23:24.783Z</time>
      </trkpt>
      <trkpt lat="38.047266" lon="-4.151100">
        <ele>298.333050</ele>
        <time>2020-08-11T06:23:26.807Z</time>
      </trkpt>
      <trkpt lat="38.047277" lon="-4.151231">
        <ele>298.421253</ele>
        <time>2020-08-11T06:23:28.788Z</time>
      </trkpt>
      <trkpt lat="38.047262" lon="-4.151344">
        <ele>298.497975</ele>
        <time>2020-08-11T06:23:30.786Z</time>
      </trkpt>
      <trkpt lat="38.047271" lon="-4.151498">
        <ele>298.601364</ele>
        <time>2020-08-11T06:23:33.795Z</time>
      </trkpt>
      <trkpt lat="38.047290" lon="-4.151614">
        <ele>298.680689</ele>
        <time>2020-08-11T06:23:35.785Z</time>
      </trkpt>
      <trkpt lat="38.047312" lon="-4.151751">
        <ele>298.774300</ele>
        <time>2020-08-11T06:23:38.797Z</time>
      </trkpt>
      <trkpt lat="38.047320" lon="-4.151926">
        <ele>298.891661</ele>
        <time>2020-08-11T06:23:41.788Z</time>
      </trkpt>
      <trkpt lat="38.047322" lon="-4.152050">
        <ele>298.974698</ele>
        <time>2020-08-11T06:23:43.786Z</time>
      </trkpt>
      <trkpt lat="38.047330" lon="-4.152213">
        <ele>298.961502</ele>
        <time>2020-08-11T06:23:46.796Z</time>
      </trkpt>
      <trkpt lat="38.047321" lon="-4.152328">
        <ele>298.823294</ele>
        <time>2020-08-11T06:23:48.793Z</time>
      </trkpt>
      <trkpt lat="38.047353" lon="-4.152454">
        <ele>298.664966</ele>
        <time>2020-08-11T06:23:50.787Z</time>
      </trkpt>
      <trkpt lat="38.047370" lon="-4.152589">
        <ele>298.501467</ele>
        <time>2020-08-11T06:23:52.783Z</time>
      </trkpt>
      <trkpt lat="38.047376" lon="-4.152715">
        <ele>298.350506</ele>
        <time>2020-08-11T06:23:54.793Z</time>
      </trkpt>
      <trkpt lat="38.047383" lon="-4.152830">
        <ele>298.212566</ele>
        <time>2020-08-11T06:23:56.804Z</time>
      </trkpt>
      <trkpt lat="38.047389" lon="-4.152970">
        <ele>298.044890</ele>
        <time>2020-08-11T06:23:58.786Z</time>
      </trkpt>
      <trkpt lat="38.047411" lon="-4.153146">
        <ele>297.831774</ele>
        <time>2020-08-11T06:24:01.800Z</time>
      </trkpt>
      <trkpt lat="38.047415" lon="-4.153280">
        <ele>297.671407</ele>
        <time>2020-08-11T06:24:03.785Z</time>
      </trkpt>
      <trkpt lat="38.047442" lon="-4.153455">
        <ele>297.458143</ele>
        <time>2020-08-11T06:24:06.778Z</time>
      </trkpt>
      <trkpt lat="38.047489" lon="-4.153595">
        <ele>297.276136</ele>
        <time>2020-08-11T06:24:08.822Z</time>
      </trkpt>
      <trkpt lat="38.047523" lon="-4.153718">
        <ele>297.120240</ele>
        <time>2020-08-11T06:24:10.788Z</time>
      </trkpt>
      <trkpt lat="38.047521" lon="-4.153839">
        <ele>296.975503</ele>
        <time>2020-08-11T06:24:12.779Z</time>
      </trkpt>
      <trkpt lat="38.047516" lon="-4.153978">
        <ele>296.809098</ele>
        <time>2020-08-11T06:24:14.797Z</time>
      </trkpt>
      <trkpt lat="38.047522" lon="-4.154097">
        <ele>296.666493</ele>
        <time>2020-08-11T06:24:16.784Z</time>
      </trkpt>
      <trkpt lat="38.047537" lon="-4.154243">
        <ele>296.490410</ele>
        <time>2020-08-11T06:24:18.772Z</time>
      </trkpt>
      <trkpt lat="38.047531" lon="-4.154365">
        <ele>296.344225</ele>
        <time>2020-08-11T06:24:20.817Z</time>
      </trkpt>
      <trkpt lat="38.047546" lon="-4.154551">
        <ele>296.440270</ele>
        <time>2020-08-11T06:24:23.786Z</time>
      </trkpt>
      <trkpt lat="38.047553" lon="-4.154681">
        <ele>296.549413</ele>
        <time>2020-08-11T06:24:25.791Z</time>
      </trkpt>
      <trkpt lat="38.047547" lon="-4.154807">
        <ele>296.655144</ele>
        <time>2020-08-11T06:24:27.779Z</time>
      </trkpt>
      <trkpt lat="38.047571" lon="-4.154931">
        <ele>296.762098</ele>
        <time>2020-08-11T06:24:29.789Z</time>
      </trkpt>
      <trkpt lat="38.047581" lon="-4.155075">
        <ele>296.883181</ele>
        <time>2020-08-11T06:24:31.775Z</time>
      </trkpt>
      <trkpt lat="38.047580" lon="-4.155225">
        <ele>297.008826</ele>
        <time>2020-08-11T06:24:33.784Z</time>
      </trkpt>
      <trkpt lat="38.047594" lon="-4.155379">
        <ele>297.138673</ele>
        <time>2020-08-11T06:24:35.782Z</time>
      </trkpt>
      <trkpt lat="38.047600" lon="-4.155523">
        <ele>297.259457</ele>
        <time>2020-08-11T06:24:37.802Z</time>
      </trkpt>
      <trkpt lat="38.047600" lon="-4.155661">
        <ele>297.375046</ele>
        <time>2020-08-11T06:24:39.783Z</time>
      </trkpt>
      <trkpt lat="38.047599" lon="-4.155798">
        <ele>297.489802</ele>
        <time>2020-08-11T06:24:41.787Z</time>
      </trkpt>
      <trkpt lat="38.047611" lon="-4.155936">
        <ele>297.606094</ele>
        <time>2020-08-11T06:24:43.795Z</time>
      </trkpt>
      <trkpt lat="38.047604" lon="-4.156079">
        <ele>297.726103</ele>
        <time>2020-08-11T06:24:45.794Z</time>
      </trkpt>
      <trkpt lat="38.047636" lon="-4.156224">
        <ele>297.852234</ele>
        <time>2020-08-11T06:24:47.800Z</time>
      </trkpt>
      <trkpt lat="38.047640" lon="-4.156372">
        <ele>297.976272</ele>
        <time>2020-08-11T06:24:49.786Z</time>
      </trkpt>
      <trkpt lat="38.047634" lon="-4.156514">
        <ele>298.095383</ele>
        <time>2020-08-11T06:24:51.783Z</time>
      </trkpt>
      <trkpt lat="38.047615" lon="-4.156656">
        <ele>298.216027</ele>
        <time>2020-08-11T06:24:53.786Z</time>
      </trkpt>
      <trkpt lat="38.047620" lon="-4.156808">
        <ele>298.461007</ele>
        <time>2020-08-11T06:24:55.778Z</time>
      </trkpt>
      <trkpt lat="38.047628" lon="-4.156952">
        <ele>298.698652</ele>
        <time>2020-08-11T06:24:57.802Z</time>
      </trkpt>
      <trkpt lat="38.047634" lon="-4.157092">
        <ele>298.929465</ele>
        <time>2020-08-11T06:24:59.788Z</time>
      </trkpt>
      <trkpt lat="38.047639" lon="-4.157242">
        <ele>299.176620</ele>
        <time>2020-08-11T06:25:01.789Z</time>
      </trkpt>
      <trkpt lat="38.047638" lon="-4.157398">
        <ele>299.433440</ele>
        <time>2020-08-11T06:25:03.785Z</time>
      </trkpt>
      <trkpt lat="38.047641" lon="-4.157545">
        <ele>299.675516</ele>
        <time>2020-08-11T06:25:05.790Z</time>
      </trkpt>
      <trkpt lat="38.047662" lon="-4.157699">
        <ele>299.932808</ele>
        <time>2020-08-11T06:25:07.780Z</time>
      </trkpt>
      <trkpt lat="38.047652" lon="-4.157836">
        <ele>300.159307</ele>
        <time>2020-08-11T06:25:09.776Z</time>
      </trkpt>
      <trkpt lat="38.047658" lon="-4.157969">
        <ele>300.378614</ele>
        <time>2020-08-11T06:25:11.792Z</time>
      </trkpt>
      <trkpt lat="38.047697" lon="-4.158144">
        <ele>300.678017</ele>
        <time>2020-08-11T06:25:13.785Z</time>
      </trkpt>
      <trkpt lat="38.047707" lon="-4.158283">
        <ele>300.907796</ele>
        <time>2020-08-11T06:25:15.789Z</time>
      </trkpt>
      <trkpt lat="38.047714" lon="-4.158432">
        <ele>301.153519</ele>
        <time>2020-08-11T06:25:17.786Z</time>
      </trkpt>
      <trkpt lat="38.047724" lon="-4.158592">
        <ele>301.417743</ele>
        <time>2020-08-11T06:25:19.790Z</time>
      </trkpt>
      <trkpt lat="38.047737" lon="-4.158752">
        <ele>301.682537</ele>
        <time>2020-08-11T06:25:21.788Z</time>
      </trkpt>
      <trkpt lat="38.047756" lon="-4.158907">
        <ele>301.940775</ele>
        <time>2020-08-11T06:25:23.801Z</time>
      </trkpt>
      <trkpt lat="38.047770" lon="-4.159067">
        <ele>301.928459</ele>
        <time>2020-08-11T06:25:25.798Z</time>
      </trkpt>
      <trkpt lat="38.047793" lon="-4.159231">
        <ele>301.863366</ele>
        <time>2020-08-11T06:25:27.791Z</time>
      </trkpt>
      <trkpt lat="38.047801" lon="-4.159368">
        <ele>301.809685</ele>
        <time>2020-08-11T06:25:29.776Z</time>
      </trkpt>
      <trkpt lat="38.047810" lon="-4.159530">
        <ele>301.746224</ele>
        <time>2020-08-11T06:25:31.775Z</time>
      </trkpt>
      <trkpt lat="38.047822" lon="-4.159690">
        <ele>301.683420</ele>
        <time>2020-08-11T06:25:33.777Z</time>
      </trkpt>
      <trkpt lat="38.047817" lon="-4.159833">
        <ele>301.627486</ele>
        <time>2020-08-11T06:25:35.804Z</time>
      </trkpt>
      <trkpt lat="38.047853" lon="-4.159965">
        <ele>301.572900</ele>
        <time>2020-08-11T06:25:37.790Z</time>
      </trkpt>
      <trkpt lat="38.047850" lon="-4.160113">
        <ele>301.515048</ele>
        <time>2020-08-11T06:25:39.794Z</time>
      </trkpt>
      <trkpt lat="38.047852" lon="-4.160257">
        <ele>301.458770</ele>
        <time>2020-08-11T06:25:41.814Z</time>
      </trkpt>
      <trkpt lat="38.047862" lon="-4.160409">
        <ele>301.399167</ele>
        <time>2020-08-11T06:25:43.807Z</time>
      </trkpt>
      <trkpt lat="38.047856" lon="-4.160553">
        <ele>301.342819</ele>
        <time>2020-08-11T06:25:45.787Z</time>
      </trkpt>
      <trkpt lat="38.047867" lon="-4.160705">
        <ele>301.283173</ele>
        <time>2020-08-11T06:25:47.796Z</time>
      </trkpt>
      <trkpt lat="38.047868" lon="-4.160858">
        <ele>301.223385</ele>
        <time>2020-08-11T06:25:49.781Z</time>
      </trkpt>
      <trkpt lat="38.047874" lon="-4.161016">
        <ele>301.161573</ele>
        <time>2020-08-11T06:25:51.763Z</time>
      </trkpt>
      <trkpt lat="38.047874" lon="-4.161181">
        <ele>301.097098</ele>
        <time>2020-08-11T06:25:53.765Z</time>
      </trkpt>
      <trkpt lat="38.047878" lon="-4.161338">
        <ele>301.057636</ele>
        <time>2020-08-11T06:25:55.787Z</time>
      </trkpt>
      <trkpt lat="38.047888" lon="-4.161493">
        <ele>301.021789</ele>
        <time>2020-08-11T06:25:57.789Z</time>
      </trkpt>
      <trkpt lat="38.047919" lon="-4.161630">
        <ele>300.988933</ele>
        <time>2020-08-11T06:25:59.804Z</time>
      </trkpt>
      <trkpt lat="38.047917" lon="-4.161773">
        <ele>300.955967</ele>
        <time>2020-08-11T06:26:01.783Z</time>
      </trkpt>
      <trkpt lat="38.047928" lon="-4.161926">
        <ele>300.920554</ele>
        <time>2020-08-11T06:26:03.796Z</time>
      </trkpt>
      <trkpt lat="38.047940" lon="-4.162093">
        <ele>300.881901</ele>
        <time>2020-08-11T06:26:05.801Z</time>
      </trkpt>
      <trkpt lat="38.047928" lon="-4.162217">
        <ele>300.853104</ele>
        <time>2020-08-11T06:26:07.800Z</time>
      </trkpt>
      <trkpt lat="38.047936" lon="-4.162373">
        <ele>300.817070</ele>
        <time>2020-08-11T06:26:09.790Z</time>
      </trkpt>
      <trkpt lat="38.047945" lon="-4.162527">
        <ele>300.781476</ele>
        <time>2020-08-11T06:26:11.794Z</time>
      </trkpt>
      <trkpt lat="38.047917" lon="-4.162653">
        <ele>300.751299</ele>
        <time>2020-08-11T06:26:13.801Z</time>
      </trkpt>
      <trkpt lat="38.047926" lon="-4.162807">
        <ele>300.715704</ele>
        <time>2020-08-11T06:26:15.785Z</time>
      </trkpt>
      <trkpt lat="38.047905" lon="-4.162942">
        <ele>300.683986</ele>
        <time>2020-08-11T06:26:17.786Z</time>
      </trkpt>
      <trkpt lat="38.047910" lon="-4.163094">
        <ele>300.648919</ele>
        <time>2020-08-11T06:26:19.815Z</time>
      </trkpt>
      <trkpt lat="38.047922" lon="-4.163257">
        <ele>300.611184</ele>
        <time>2020-08-11T06:26:21.787Z</time>
      </trkpt>
      <trkpt lat="38.047922" lon="-4.163391">
        <ele>300.580298</ele>
        <time>2020-08-11T06:26:23.784Z</time>
      </trkpt>
      <trkpt lat="38.047916" lon="-4.163520">
        <ele>300.575986</ele>
        <time>2020-08-11T06:26:25.798Z</time>
      </trkpt>
      <trkpt lat="38.047903" lon="-4.163655">
        <ele>300.610137</ele>
        <time>2020-08-11T06:26:27.784Z</time>
      </trkpt>
      <trkpt lat="38.047903" lon="-4.163775">
        <ele>300.640270</ele>
        <time>2020-08-11T06:26:29.782Z</time>
      </trkpt>
      <trkpt lat="38.047890" lon="-4.163904">
        <ele>300.672926</ele>
        <time>2020-08-11T06:26:31.785Z</time>
      </trkpt>
      <trkpt lat="38.047889" lon="-4.164062">
        <ele>300.712602</ele>
        <time>2020-08-11T06:26:33.779Z</time>
      </trkpt>
      <trkpt lat="38.047891" lon="-4.164217">
        <ele>300.751528</ele>
        <time>2020-08-11T06:26:35.790Z</time>
      </trkpt>
      <trkpt lat="38.047886" lon="-4.164389">
        <ele>300.794747</ele>
        <time>2020-08-11T06:26:37.785Z</time>
      </trkpt>
      <trkpt lat="38.047870" lon="-4.164540">
        <ele>300.833005</ele>
        <time>2020-08-11T06:26:39.774Z</time>
      </trkpt>
      <trkpt lat="38.047856" lon="-4.164703">
        <ele>300.874178</ele>
        <time>2020-08-11T06:26:41.801Z</time>
      </trkpt>
      <trkpt lat="38.047848" lon="-4.164889">
        <ele>300.920952</ele>
        <time>2020-08-11T06:26:43.784Z</time>
      </trkpt>
      <trkpt lat="38.047835" lon="-4.165072">
        <ele>300.967091</ele>
        <time>2020-08-11T06:26:45.780Z</time>
      </trkpt>
      <trkpt lat="38.047854" lon="-4.165247">
        <ele>301.011449</ele>
        <time>2020-08-11T06:26:47.800Z</time>
      </trkpt>
      <trkpt lat="38.047834" lon="-4.165429">
        <ele>301.057593</ele>
        <time>2020-08-11T06:26:49.777Z</time>
      </trkpt>
      <trkpt lat="38.047824" lon="-4.165620">
        <ele>301.105660</ele>
        <time>2020-08-11T06:26:51.796Z</time>
      </trkpt>
      <trkpt lat="38.047810" lon="-4.165785">
        <ele>301.149620</ele>
        <time>2020-08-11T06:26:53.816Z</time>
      </trkpt>
      <trkpt lat="38.047811" lon="-4.165969">
        <ele>301.205343</ele>
        <time>2020-08-11T06:26:55.774Z</time>
      </trkpt>
      <trkpt lat="38.047821" lon="-4.166157">
        <ele>301.262406</ele>
        <time>2020-08-11T06:26:57.791Z</time>
      </trkpt>
      <trkpt lat="38.047800" lon="-4.166312">
        <ele>301.310035</ele>
        <time>2020-08-11T06:26:59.806Z</time>
      </trkpt>
      <trkpt lat="38.047796" lon="-4.166480">
        <ele>301.360935</ele>
        <time>2020-08-11T06:27:01.769Z</time>
      </trkpt>
      <trkpt lat="38.047775" lon="-4.166642">
        <ele>301.410654</ele>
        <time>2020-08-11T06:27:03.785Z</time>
      </trkpt>
      <trkpt lat="38.047746" lon="-4.166790">
        <ele>301.456841</ele>
        <time>2020-08-11T06:27:05.813Z</time>
      </trkpt>
      <trkpt lat="38.047714" lon="-4.166944">
        <ele>301.505074</ele>
        <time>2020-08-11T06:27:07.777Z</time>
      </trkpt>
      <trkpt lat="38.047697" lon="-4.167096">
        <ele>301.551567</ele>
        <time>2020-08-11T06:27:09.787Z</time>
      </trkpt>
      <trkpt lat="38.047708" lon="-4.167288">
        <ele>301.609865</ele>
        <time>2020-08-11T06:27:11.786Z</time>
      </trkpt>
      <trkpt lat="38.047711" lon="-4.167480">
        <ele>301.668021</ele>
        <time>2020-08-11T06:27:13.781Z</time>
      </trkpt>
      <trkpt lat="38.047700" lon="-4.167634">
        <ele>301.714849</ele>
        <time>2020-08-11T06:27:15.773Z</time>
      </trkpt>
      <trkpt lat="38.047697" lon="-4.167808">
        <ele>301.767555</ele>
        <time>2020-08-11T06:27:17.800Z</time>
      </trkpt>
      <trkpt lat="38.047694" lon="-4.167980">
        <ele>301.819656</ele>
        <time>2020-08-11T06:27:19.771Z</time>
      </trkpt>
      <trkpt lat="38.047708" lon="-4.168182">
        <ele>301.682023</ele>
        <time>2020-08-11T06:27:21.797Z</time>
      </trkpt>
      <trkpt lat="38.047707" lon="-4.168384">
        <ele>301.514167</ele>
        <time>2020-08-11T06:27:23.798Z</time>
      </trkpt>
      <trkpt lat="38.047699" lon="-4.168561">
        <ele>301.366846</ele>
        <time>2020-08-11T06:27:25.780Z</time>
      </trkpt>
      <trkpt lat="38.047689" lon="-4.168739">
        <ele>301.218560</ele>
        <time>2020-08-11T06:27:27.784Z</time>
      </trkpt>
      <trkpt lat="38.047685" lon="-4.168919">
        <ele>301.068929</ele>
        <time>2020-08-11T06:27:29.811Z</time>
      </trkpt>
      <trkpt lat="38.047665" lon="-4.169088">
        <ele>300.926921</ele>
        <time>2020-08-11T06:27:31.813Z</time>
      </trkpt>
      <trkpt lat="38.047641" lon="-4.169260">
        <ele>300.781771</ele>
        <time>2020-08-11T06:27:33.783Z</time>
      </trkpt>
      <trkpt lat="38.047645" lon="-4.169469">
        <ele>300.608050</ele>
        <time>2020-08-11T06:27:35.793Z</time>
      </trkpt>
      <trkpt lat="38.047633" lon="-4.169650">
        <ele>300.457115</ele>
        <time>2020-08-11T06:27:37.787Z</time>
      </trkpt>
      <trkpt lat="38.047642" lon="-4.169856">
        <ele>300.285676</ele>
        <time>2020-08-11T06:27:39.780Z</time>
      </trkpt>
      <trkpt lat="38.047642" lon="-4.170049">
        <ele>300.125301</ele>
        <time>2020-08-11T06:27:41.810Z</time>
      </trkpt>
      <trkpt lat="38.047636" lon="-4.170333">
        <ele>299.930822</ele>
        <time>2020-08-11T06:27:44.776Z</time>
      </trkpt>
      <trkpt lat="38.047616" lon="-4.170522">
        <ele>299.933995</ele>
        <time>2020-08-11T06:27:46.776Z</time>
      </trkpt>
      <trkpt lat="38.047596" lon="-4.170698">
        <ele>299.936953</ele>
        <time>2020-08-11T06:27:48.782Z</time>
      </trkpt>
      <trkpt lat="38.047591" lon="-4.170887">
        <ele>299.940100</ele>
        <time>2020-08-11T06:27:50.774Z</time>
      </trkpt>
      <trkpt lat="38.047592" lon="-4.171089">
        <ele>299.943461</ele>
        <time>2020-08-11T06:27:52.787Z</time>
      </trkpt>
      <trkpt lat="38.047592" lon="-4.171260">
        <ele>299.946306</ele>
        <time>2020-08-11T06:27:54.790Z</time>
      </trkpt>
      <trkpt lat="38.047577" lon="-4.171437">
        <ele>299.949268</ele>
        <time>2020-08-11T06:27:56.774Z</time>
      </trkpt>
      <trkpt lat="38.047568" lon="-4.171617">
        <ele>299.952268</ele>
        <time>2020-08-11T06:27:58.780Z</time>
      </trkpt>
      <trkpt lat="38.047543" lon="-4.171768">
        <ele>299.954836</ele>
        <time>2020-08-11T06:28:00.776Z</time>
      </trkpt>
      <trkpt lat="38.047533" lon="-4.171963">
        <ele>299.958087</ele>
        <time>2020-08-11T06:28:02.794Z</time>
      </trkpt>
      <trkpt lat="38.047508" lon="-4.172135">
        <ele>299.960997</ele>
        <time>2020-08-11T06:28:04.811Z</time>
      </trkpt>
      <trkpt lat="38.047460" lon="-4.172278">
        <ele>299.963583</ele>
        <time>2020-08-11T06:28:06.780Z</time>
      </trkpt>
      <trkpt lat="38.047424" lon="-4.172449">
        <ele>299.966528</ele>
        <time>2020-08-11T06:28:08.801Z</time>
      </trkpt>
      <trkpt lat="38.047399" lon="-4.172646">
        <ele>299.983966</ele>
        <time>2020-08-11T06:28:10.781Z</time>
      </trkpt>
      <trkpt lat="38.047355" lon="-4.172827">
        <ele>300.011274</ele>
        <time>2020-08-11T06:28:12.791Z</time>
      </trkpt>
      <trkpt lat="38.047341" lon="-4.173025">
        <ele>300.039932</ele>
        <time>2020-08-11T06:28:14.791Z</time>
      </trkpt>
      <trkpt lat="38.047332" lon="-4.173139">
        <ele>300.056449</ele>
        <time>2020-08-11T06:28:15.774Z</time>
      </trkpt>
      <trkpt lat="38.047282" lon="-4.173311">
        <ele>300.082879</ele>
        <time>2020-08-11T06:28:17.775Z</time>
      </trkpt>
      <trkpt lat="38.047237" lon="-4.173423">
        <ele>300.101005</ele>
        <time>2020-08-11T06:28:18.788Z</time>
      </trkpt>
      <trkpt lat="38.047180" lon="-4.173608">
        <ele>300.129643</ele>
        <time>2020-08-11T06:28:20.785Z</time>
      </trkpt>
      <trkpt lat="38.047139" lon="-4.173763">
        <ele>300.153214</ele>
        <time>2020-08-11T06:28:22.771Z</time>
      </trkpt>
      <trkpt lat="38.047072" lon="-4.173947">
        <ele>300.182438</ele>
        <time>2020-08-11T06:28:24.769Z</time>
      </trkpt>
      <trkpt lat="38.047034" lon="-4.174131">
        <ele>300.209860</ele>
        <time>2020-08-11T06:28:26.785Z</time>
      </trkpt>
      <trkpt lat="38.046914" lon="-4.174248">
        <ele>300.237555</ele>
        <time>2020-08-11T06:28:28.799Z</time>
      </trkpt>
      <trkpt lat="38.046887" lon="-4.174406">
        <ele>300.260862</ele>
        <time>2020-08-11T06:28:30.786Z</time>
      </trkpt>
      <trkpt lat="38.046857" lon="-4.174559">
        <ele>300.283592</ele>
        <time>2020-08-11T06:28:32.782Z</time>
      </trkpt>
      <trkpt lat="38.046857" lon="-4.174756">
        <ele>300.173856</ele>
        <time>2020-08-11T06:28:34.768Z</time>
      </trkpt>
      <trkpt lat="38.046825" lon="-4.174908">
        <ele>299.983832</ele>
        <time>2020-08-11T06:28:36.796Z</time>
      </trkpt>
      <trkpt lat="38.046821" lon="-4.175072">
        <ele>299.785667</ele>
        <time>2020-08-11T06:28:38.785Z</time>
      </trkpt>
      <trkpt lat="38.046809" lon="-4.175235">
        <ele>299.587946</ele>
        <time>2020-08-11T06:28:40.784Z</time>
      </trkpt>
      <trkpt lat="38.046794" lon="-4.175416">
        <ele>299.368136</ele>
        <time>2020-08-11T06:28:42.785Z</time>
      </trkpt>
      <trkpt lat="38.046805" lon="-4.175575">
        <ele>299.175365</ele>
        <time>2020-08-11T06:28:44.793Z</time>
      </trkpt>
      <trkpt lat="38.046842" lon="-4.175719">
        <ele>298.992426</ele>
        <time>2020-08-11T06:28:46.788Z</time>
      </trkpt>
      <trkpt lat="38.046893" lon="-4.175832">
        <ele>298.835127</ele>
        <time>2020-08-11T06:28:48.786Z</time>
      </trkpt>
      <trkpt lat="38.046824" lon="-4.175541">
        <ele>298.468087</ele>
        <time>2020-08-11T06:30:51.795Z</time>
      </trkpt>
      <trkpt lat="38.046780" lon="-4.175412">
        <ele>298.298302</ele>
        <time>2020-08-11T06:30:54.771Z</time>
      </trkpt>
      <trkpt lat="38.046731" lon="-4.175248">
        <ele>298.086455</ele>
        <time>2020-08-11T06:30:57.774Z</time>
      </trkpt>
      <trkpt lat="38.046690" lon="-4.175081">
        <ele>297.875187</ele>
        <time>2020-08-11T06:31:00.759Z</time>
      </trkpt>
      <trkpt lat="38.046655" lon="-4.174975">
        <ele>297.736368</ele>
        <time>2020-08-11T06:31:02.766Z</time>
      </trkpt>
      <trkpt lat="38.046604" lon="-4.174837">
        <ele>297.552258</ele>
        <time>2020-08-11T06:31:05.765Z</time>
      </trkpt>
      <trkpt lat="38.046575" lon="-4.174697">
        <ele>297.554464</ele>
        <time>2020-08-11T06:31:08.777Z</time>
      </trkpt>
      <trkpt lat="38.046557" lon="-4.174565">
        <ele>297.570165</ele>
        <time>2020-08-11T06:31:11.789Z</time>
      </trkpt>
      <trkpt lat="38.046523" lon="-4.174452">
        <ele>297.584343</ele>
        <time>2020-08-11T06:31:14.763Z</time>
      </trkpt>
      <trkpt lat="38.046491" lon="-4.174346">
        <ele>297.597648</ele>
        <time>2020-08-11T06:31:17.770Z</time>
      </trkpt>
      <trkpt lat="38.046467" lon="-4.174233">
        <ele>297.611364</ele>
        <time>2020-08-11T06:31:20.759Z</time>
      </trkpt>
      <trkpt lat="38.046417" lon="-4.174095">
        <ele>297.629168</ele>
        <time>2020-08-11T06:31:24.768Z</time>
      </trkpt>
      <trkpt lat="38.046363" lon="-4.173955">
        <ele>297.647439</ele>
        <time>2020-08-11T06:31:28.764Z</time>
      </trkpt>
      <trkpt lat="38.046331" lon="-4.173839">
        <ele>297.661844</ele>
        <time>2020-08-11T06:31:31.761Z</time>
      </trkpt>
      <trkpt lat="38.046291" lon="-4.173733">
        <ele>297.675620</ele>
        <time>2020-08-11T06:31:34.762Z</time>
      </trkpt>
      <trkpt lat="38.046206" lon="-4.173693">
        <ele>297.689111</ele>
        <time>2020-08-11T06:31:39.756Z</time>
      </trkpt>
      <trkpt lat="38.046031" lon="-4.173482">
        <ele>297.725026</ele>
        <time>2020-08-11T06:33:54.779Z</time>
      </trkpt>
      <trkpt lat="38.045933" lon="-4.173469">
        <ele>297.739690</ele>
        <time>2020-08-11T06:33:58.775Z</time>
      </trkpt>
      <trkpt lat="38.045825" lon="-4.173439">
        <ele>297.756143</ele>
        <time>2020-08-11T06:34:02.785Z</time>
      </trkpt>
      <trkpt lat="38.045725" lon="-4.173415">
        <ele>297.771289</ele>
        <time>2020-08-11T06:34:06.775Z</time>
      </trkpt>
      <trkpt lat="38.045634" lon="-4.173400">
        <ele>297.784946</ele>
        <time>2020-08-11T06:34:09.772Z</time>
      </trkpt>
      <trkpt lat="38.045541" lon="-4.173390">
        <ele>297.798836</ele>
        <time>2020-08-11T06:34:12.784Z</time>
      </trkpt>
      <trkpt lat="38.045438" lon="-4.173358">
        <ele>297.776345</ele>
        <time>2020-08-11T06:34:15.766Z</time>
      </trkpt>
      <trkpt lat="38.045346" lon="-4.173308">
        <ele>297.721130</ele>
        <time>2020-08-11T06:34:18.766Z</time>
      </trkpt>
      <trkpt lat="38.045241" lon="-4.173272">
        <ele>297.661121</ele>
        <time>2020-08-11T06:34:22.763Z</time>
      </trkpt>
      <trkpt lat="38.045148" lon="-4.173230">
        <ele>297.606660</ele>
        <time>2020-08-11T06:34:26.768Z</time>
      </trkpt>
      <trkpt lat="38.045142" lon="-4.173109">
        <ele>297.553979</ele>
        <time>2020-08-11T06:34:29.768Z</time>
      </trkpt>
      <trkpt lat="38.045158" lon="-4.172977">
        <ele>297.495947</ele>
        <time>2020-08-11T06:34:32.769Z</time>
      </trkpt>
      <trkpt lat="38.045163" lon="-4.172847">
        <ele>297.439392</ele>
        <time>2020-08-11T06:34:35.771Z</time>
      </trkpt>
      <trkpt lat="38.045202" lon="-4.172730">
        <ele>297.384187</ele>
        <time>2020-08-11T06:34:38.766Z</time>
      </trkpt>
      <trkpt lat="38.045249" lon="-4.172607">
        <ele>297.324782</ele>
        <time>2020-08-11T06:34:41.772Z</time>
      </trkpt>
      <trkpt lat="38.045280" lon="-4.172479">
        <ele>297.266593</ele>
        <time>2020-08-11T06:34:44.767Z</time>
      </trkpt>
      <trkpt lat="38.045313" lon="-4.172365">
        <ele>297.213817</ele>
        <time>2020-08-11T06:34:47.775Z</time>
      </trkpt>
      <trkpt lat="38.045361" lon="-4.172241">
        <ele>297.153780</ele>
        <time>2020-08-11T06:34:50.783Z</time>
      </trkpt>
      <trkpt lat="38.045402" lon="-4.172133">
        <ele>297.101684</ele>
        <time>2020-08-11T06:34:53.757Z</time>
      </trkpt>
      <trkpt lat="38.045430" lon="-4.172005">
        <ele>297.043960</ele>
        <time>2020-08-11T06:34:57.787Z</time>
      </trkpt>
      <trkpt lat="38.045454" lon="-4.171869">
        <ele>296.983400</ele>
        <time>2020-08-11T06:35:00.772Z</time>
      </trkpt>
      <trkpt lat="38.045470" lon="-4.171748">
        <ele>296.930087</ele>
        <time>2020-08-11T06:35:03.779Z</time>
      </trkpt>
      <trkpt lat="38.045443" lon="-4.171613">
        <ele>296.869565</ele>
        <time>2020-08-11T06:35:07.773Z</time>
      </trkpt>
      <trkpt lat="38.045437" lon="-4.171479">
        <ele>296.815787</ele>
        <time>2020-08-11T06:35:11.770Z</time>
      </trkpt>
      <trkpt lat="38.045446" lon="-4.171364">
        <ele>296.846017</ele>
        <time>2020-08-11T06:35:14.761Z</time>
      </trkpt>
      <trkpt lat="38.045438" lon="-4.171237">
        <ele>296.879344</ele>
        <time>2020-08-11T06:35:18.784Z</time>
      </trkpt>
      <trkpt lat="38.045333" lon="-4.171212">
        <ele>296.914829</ele>
        <time>2020-08-11T06:35:21.783Z</time>
      </trkpt>
      <trkpt lat="38.045233" lon="-4.171199">
        <ele>296.948219</ele>
        <time>2020-08-11T06:35:24.765Z</time>
      </trkpt>
      <trkpt lat="38.045146" lon="-4.171167">
        <ele>296.978305</ele>
        <time>2020-08-11T06:35:27.783Z</time>
      </trkpt>
      <trkpt lat="38.045048" lon="-4.171112">
        <ele>297.013894</ele>
        <time>2020-08-11T06:35:30.784Z</time>
      </trkpt>
      <trkpt lat="38.044955" lon="-4.171056">
        <ele>297.048082</ele>
        <time>2020-08-11T06:35:33.794Z</time>
      </trkpt>
      <trkpt lat="38.044861" lon="-4.171007">
        <ele>297.081834</ele>
        <time>2020-08-11T06:35:36.782Z</time>
      </trkpt>
      <trkpt lat="38.044755" lon="-4.170946">
        <ele>297.120490</ele>
        <time>2020-08-11T06:35:39.783Z</time>
      </trkpt>
      <trkpt lat="38.044654" lon="-4.170906">
        <ele>297.155632</ele>
        <time>2020-08-11T06:35:42.773Z</time>
      </trkpt>
      <trkpt lat="38.044554" lon="-4.170866">
        <ele>297.190457</ele>
        <time>2020-08-11T06:35:45.781Z</time>
      </trkpt>
      <trkpt lat="38.044457" lon="-4.170778">
        <ele>297.230056</ele>
        <time>2020-08-11T06:35:49.782Z</time>
      </trkpt>
      <trkpt lat="38.044397" lon="-4.170679">
        <ele>297.262734</ele>
        <time>2020-08-11T06:35:52.782Z</time>
      </trkpt>
      <trkpt lat="38.044319" lon="-4.170574">
        <ele>297.300492</ele>
        <time>2020-08-11T06:35:56.783Z</time>
      </trkpt>
      <trkpt lat="38.044257" lon="-4.170491">
        <ele>297.330417</ele>
        <time>2020-08-11T06:35:59.770Z</time>
      </trkpt>
      <trkpt lat="38.044181" lon="-4.170407">
        <ele>297.363885</ele>
        <time>2020-08-11T06:36:02.785Z</time>
      </trkpt>
      <trkpt lat="38.044090" lon="-4.170305">
        <ele>297.404203</ele>
        <time>2020-08-11T06:36:05.780Z</time>
      </trkpt>
      <trkpt lat="38.043995" lon="-4.170184">
        <ele>297.381029</ele>
        <time>2020-08-11T06:36:08.779Z</time>
      </trkpt>
      <trkpt lat="38.043868" lon="-4.170117">
        <ele>297.343767</ele>
        <time>2020-08-11T06:36:10.766Z</time>
      </trkpt>
      <trkpt lat="38.043801" lon="-4.170028">
        <ele>297.317495</ele>
        <time>2020-08-11T06:36:12.779Z</time>
      </trkpt>
      <trkpt lat="38.043686" lon="-4.169945">
        <ele>297.281655</ele>
        <time>2020-08-11T06:36:15.778Z</time>
      </trkpt>
      <trkpt lat="38.043568" lon="-4.169848">
        <ele>297.243568</ele>
        <time>2020-08-11T06:36:18.780Z</time>
      </trkpt>
      <trkpt lat="38.043504" lon="-4.169762">
        <ele>297.218320</ele>
        <time>2020-08-11T06:36:20.777Z</time>
      </trkpt>
      <trkpt lat="38.043442" lon="-4.169668">
        <ele>297.192157</ele>
        <time>2020-08-11T06:36:22.780Z</time>
      </trkpt>
      <trkpt lat="38.043345" lon="-4.169652">
        <ele>297.165654</ele>
        <time>2020-08-11T06:36:24.780Z</time>
      </trkpt>
      <trkpt lat="38.043272" lon="-4.169566">
        <ele>297.138673</ele>
        <time>2020-08-11T06:36:27.779Z</time>
      </trkpt>
      <trkpt lat="38.043171" lon="-4.169487">
        <ele>297.106532</ele>
        <time>2020-08-11T06:36:30.771Z</time>
      </trkpt>
      <trkpt lat="38.043074" lon="-4.169400">
        <ele>297.074355</ele>
        <time>2020-08-11T06:36:33.781Z</time>
      </trkpt>
      <trkpt lat="38.042987" lon="-4.169319">
        <ele>297.045125</ele>
        <time>2020-08-11T06:36:36.770Z</time>
      </trkpt>
      <trkpt lat="38.042870" lon="-4.169287">
        <ele>297.012697</ele>
        <time>2020-08-11T06:36:39.773Z</time>
      </trkpt>
      <trkpt lat="38.042738" lon="-4.169267">
        <ele>296.976678</ele>
        <time>2020-08-11T06:36:42.772Z</time>
      </trkpt>
      <trkpt lat="38.042607" lon="-4.169296">
        <ele>296.940649</ele>
        <time>2020-08-11T06:36:45.770Z</time>
      </trkpt>
      <trkpt lat="38.042508" lon="-4.169259">
        <ele>296.898832</ele>
        <time>2020-08-11T06:36:47.775Z</time>
      </trkpt>
      <trkpt lat="38.042398" lon="-4.169287">
        <ele>296.831796</ele>
        <time>2020-08-11T06:36:49.777Z</time>
      </trkpt>
      <trkpt lat="38.042245" lon="-4.169277">
        <ele>296.740253</ele>
        <time>2020-08-11T06:36:51.772Z</time>
      </trkpt>
      <trkpt lat="38.042131" lon="-4.169234">
        <ele>296.669193</ele>
        <time>2020-08-11T06:36:52.766Z</time>
      </trkpt>
      <trkpt lat="38.042048" lon="-4.169300">
        <ele>296.610676</ele>
        <time>2020-08-11T06:36:54.774Z</time>
      </trkpt>
      <trkpt lat="38.041893" lon="-4.169334">
        <ele>296.516687</ele>
        <time>2020-08-11T06:36:56.776Z</time>
      </trkpt>
      <trkpt lat="38.041727" lon="-4.169329">
        <ele>296.417470</ele>
        <time>2020-08-11T06:36:58.781Z</time>
      </trkpt>
      <trkpt lat="38.041596" lon="-4.169367">
        <ele>296.337177</ele>
        <time>2020-08-11T06:37:00.779Z</time>
      </trkpt>
      <trkpt lat="38.041463" lon="-4.169422">
        <ele>296.253597</ele>
        <time>2020-08-11T06:37:02.782Z</time>
      </trkpt>
      <trkpt lat="38.041303" lon="-4.169480">
        <ele>296.154173</ele>
        <time>2020-08-11T06:37:04.782Z</time>
      </trkpt>
      <trkpt lat="38.041153" lon="-4.169510">
        <ele>296.063439</ele>
        <time>2020-08-11T06:37:06.764Z</time>
      </trkpt>
      <trkpt lat="38.040980" lon="-4.169547">
        <ele>295.958611</ele>
        <time>2020-08-11T06:37:08.767Z</time>
      </trkpt>
      <trkpt lat="38.040817" lon="-4.169603">
        <ele>295.857711</ele>
        <time>2020-08-11T06:37:10.767Z</time>
      </trkpt>
      <trkpt lat="38.040742" lon="-4.169686">
        <ele>295.759153</ele>
        <time>2020-08-11T06:37:11.763Z</time>
      </trkpt>
      <trkpt lat="38.040651" lon="-4.169724">
        <ele>295.658171</ele>
        <time>2020-08-11T06:37:12.788Z</time>
      </trkpt>
      <trkpt lat="38.040487" lon="-4.169795">
        <ele>295.475517</ele>
        <time>2020-08-11T06:37:14.783Z</time>
      </trkpt>
      <trkpt lat="38.040391" lon="-4.169824">
        <ele>295.371494</ele>
        <time>2020-08-11T06:37:15.775Z</time>
      </trkpt>
      <trkpt lat="38.040216" lon="-4.169895">
        <ele>295.177829</ele>
        <time>2020-08-11T06:37:17.770Z</time>
      </trkpt>
      <trkpt lat="38.040119" lon="-4.169929">
        <ele>295.071752</ele>
        <time>2020-08-11T06:37:18.774Z</time>
      </trkpt>
      <trkpt lat="38.040026" lon="-4.169961">
        <ele>294.970180</ele>
        <time>2020-08-11T06:37:19.769Z</time>
      </trkpt>
      <trkpt lat="38.039833" lon="-4.169985">
        <ele>294.765755</ele>
        <time>2020-08-11T06:37:21.767Z</time>
      </trkpt>
      <trkpt lat="38.039737" lon="-4.169997">
        <ele>294.664067</ele>
        <time>2020-08-11T06:37:22.776Z</time>
      </trkpt>
      <trkpt lat="38.039568" lon="-4.170049">
        <ele>294.480759</ele>
        <time>2020-08-11T06:37:24.773Z</time>
      </trkpt>
      <trkpt lat="38.039432" lon="-4.170111">
        <ele>294.328434</ele>
        <time>2020-08-11T06:37:26.778Z</time>
      </trkpt>
      <trkpt lat="38.039304" lon="-4.170143">
        <ele>294.190912</ele>
        <time>2020-08-11T06:37:28.764Z</time>
      </trkpt>
      <trkpt lat="38.039196" lon="-4.170168">
        <ele>294.075187</ele>
        <time>2020-08-11T06:37:30.766Z</time>
      </trkpt>
      <trkpt lat="38.039067" lon="-4.170197">
        <ele>293.916039</ele>
        <time>2020-08-11T06:37:32.770Z</time>
      </trkpt>
      <trkpt lat="38.038956" lon="-4.170237">
        <ele>293.637495</ele>
        <time>2020-08-11T06:37:34.774Z</time>
      </trkpt>
      <trkpt lat="38.038835" lon="-4.170314">
        <ele>293.310759</ele>
        <time>2020-08-11T06:37:36.767Z</time>
      </trkpt>
      <trkpt lat="38.038711" lon="-4.170382">
        <ele>292.984688</ele>
        <time>2020-08-11T06:37:38.767Z</time>
      </trkpt>
      <trkpt lat="38.038554" lon="-4.170426">
        <ele>292.596557</ele>
        <time>2020-08-11T06:37:40.770Z</time>
      </trkpt>
      <trkpt lat="38.038469" lon="-4.170472">
        <ele>292.373501</ele>
        <time>2020-08-11T06:37:41.775Z</time>
      </trkpt>
      <trkpt lat="38.038316" lon="-4.170535">
        <ele>291.985211</ele>
        <time>2020-08-11T06:37:43.772Z</time>
      </trkpt>
      <trkpt lat="38.038227" lon="-4.170553">
        <ele>291.767651</ele>
        <time>2020-08-11T06:37:44.768Z</time>
      </trkpt>
      <trkpt lat="38.038045" lon="-4.170486">
        <ele>291.310197</ele>
        <time>2020-08-11T06:37:46.773Z</time>
      </trkpt>
      <trkpt lat="38.037950" lon="-4.170420">
        <ele>291.048774</ele>
        <time>2020-08-11T06:37:47.780Z</time>
      </trkpt>
      <trkpt lat="38.037874" lon="-4.170359">
        <ele>290.831720</ele>
        <time>2020-08-11T06:37:48.765Z</time>
      </trkpt>
      <trkpt lat="38.037797" lon="-4.170262">
        <ele>290.569869</ele>
        <time>2020-08-11T06:37:49.768Z</time>
      </trkpt>
      <trkpt lat="38.037719" lon="-4.170148">
        <ele>290.282750</ele>
        <time>2020-08-11T06:37:50.779Z</time>
      </trkpt>
      <trkpt lat="38.037648" lon="-4.170048">
        <ele>290.026766</ele>
        <time>2020-08-11T06:37:51.766Z</time>
      </trkpt>
      <trkpt lat="38.037577" lon="-4.169948">
        <ele>289.770782</ele>
        <time>2020-08-11T06:37:52.770Z</time>
      </trkpt>
      <trkpt lat="38.037507" lon="-4.169830">
        <ele>289.333327</ele>
        <time>2020-08-11T06:37:53.774Z</time>
      </trkpt>
      <trkpt lat="38.037433" lon="-4.169718">
        <ele>288.697051</ele>
        <time>2020-08-11T06:37:54.770Z</time>
      </trkpt>
      <trkpt lat="38.037357" lon="-4.169606">
        <ele>288.053616</ele>
        <time>2020-08-11T06:37:55.768Z</time>
      </trkpt>
      <trkpt lat="38.037282" lon="-4.169489">
        <ele>287.397043</ele>
        <time>2020-08-11T06:37:56.781Z</time>
      </trkpt>
      <trkpt lat="38.037205" lon="-4.169383">
        <ele>286.769425</ele>
        <time>2020-08-11T06:37:57.763Z</time>
      </trkpt>
      <trkpt lat="38.037131" lon="-4.169271">
        <ele>286.133147</ele>
        <time>2020-08-11T06:37:58.784Z</time>
      </trkpt>
      <trkpt lat="38.037046" lon="-4.169144">
        <ele>285.407770</ele>
        <time>2020-08-11T06:37:59.781Z</time>
      </trkpt>
      <trkpt lat="38.036970" lon="-4.169020">
        <ele>284.723914</ele>
        <time>2020-08-11T06:38:00.768Z</time>
      </trkpt>
      <trkpt lat="38.036903" lon="-4.168901">
        <ele>284.087250</ele>
        <time>2020-08-11T06:38:01.767Z</time>
      </trkpt>
      <trkpt lat="38.036815" lon="-4.168785">
        <ele>283.386260</ele>
        <time>2020-08-11T06:38:02.785Z</time>
      </trkpt>
      <trkpt lat="38.036750" lon="-4.168691">
        <ele>282.841827</ele>
        <time>2020-08-11T06:38:03.767Z</time>
      </trkpt>
      <trkpt lat="38.036667" lon="-4.168584">
        <ele>282.188177</ele>
        <time>2020-08-11T06:38:04.771Z</time>
      </trkpt>
      <trkpt lat="38.036569" lon="-4.168489">
        <ele>281.506819</ele>
        <time>2020-08-11T06:38:05.783Z</time>
      </trkpt>
      <trkpt lat="38.036474" lon="-4.168386">
        <ele>280.816475</ele>
        <time>2020-08-11T06:38:06.774Z</time>
      </trkpt>
      <trkpt lat="38.036366" lon="-4.168318">
        <ele>280.150303</ele>
        <time>2020-08-11T06:38:07.774Z</time>
      </trkpt>
      <trkpt lat="38.036239" lon="-4.168261">
        <ele>279.379690</ele>
        <time>2020-08-11T06:38:08.774Z</time>
      </trkpt>
      <trkpt lat="38.036126" lon="-4.168223">
        <ele>278.669980</ele>
        <time>2020-08-11T06:38:09.788Z</time>
      </trkpt>
      <trkpt lat="38.036012" lon="-4.168168">
        <ele>277.929571</ele>
        <time>2020-08-11T06:38:10.779Z</time>
      </trkpt>
      <trkpt lat="38.035904" lon="-4.168129">
        <ele>277.247869</ele>
        <time>2020-08-11T06:38:11.773Z</time>
      </trkpt>
      <trkpt lat="38.035783" lon="-4.168071">
        <ele>276.462634</ele>
        <time>2020-08-11T06:38:12.784Z</time>
      </trkpt>
      <trkpt lat="38.035666" lon="-4.168038">
        <ele>275.734979</ele>
        <time>2020-08-11T06:38:13.778Z</time>
      </trkpt>
      <trkpt lat="38.035543" lon="-4.167999">
        <ele>274.965278</ele>
        <time>2020-08-11T06:38:14.764Z</time>
      </trkpt>
      <trkpt lat="38.035427" lon="-4.167940">
        <ele>274.206602</ele>
        <time>2020-08-11T06:38:15.775Z</time>
      </trkpt>
      <trkpt lat="38.035298" lon="-4.167924">
        <ele>273.419680</ele>
        <time>2020-08-11T06:38:16.779Z</time>
      </trkpt>
      <trkpt lat="38.035185" lon="-4.167926">
        <ele>272.733560</ele>
        <time>2020-08-11T06:38:17.767Z</time>
      </trkpt>
      <trkpt lat="38.035067" lon="-4.167877">
        <ele>271.979806</ele>
        <time>2020-08-11T06:38:18.765Z</time>
      </trkpt>
      <trkpt lat="38.034940" lon="-4.167831">
        <ele>271.177992</ele>
        <time>2020-08-11T06:38:19.787Z</time>
      </trkpt>
      <trkpt lat="38.034834" lon="-4.167786">
        <ele>270.499415</ele>
        <time>2020-08-11T06:38:20.769Z</time>
      </trkpt>
      <trkpt lat="38.034718" lon="-4.167740">
        <ele>269.761595</ele>
        <time>2020-08-11T06:38:21.779Z</time>
      </trkpt>
      <trkpt lat="38.034599" lon="-4.167711">
        <ele>269.025925</ele>
        <time>2020-08-11T06:38:22.768Z</time>
      </trkpt>
      <trkpt lat="38.034471" lon="-4.167677">
        <ele>268.411317</ele>
        <time>2020-08-11T06:38:23.763Z</time>
      </trkpt>
      <trkpt lat="38.034355" lon="-4.167637">
        <ele>267.933269</ele>
        <time>2020-08-11T06:38:24.767Z</time>
      </trkpt>
      <trkpt lat="38.034239" lon="-4.167615">
        <ele>267.466815</ele>
        <time>2020-08-11T06:38:25.772Z</time>
      </trkpt>
      <trkpt lat="38.034118" lon="-4.167624">
        <ele>266.984770</ele>
        <time>2020-08-11T06:38:26.768Z</time>
      </trkpt>
      <trkpt lat="38.034000" lon="-4.167634">
        <ele>266.514437</ele>
        <time>2020-08-11T06:38:27.768Z</time>
      </trkpt>
      <trkpt lat="38.033875" lon="-4.167633">
        <ele>266.017299</ele>
        <time>2020-08-11T06:38:28.777Z</time>
      </trkpt>
      <trkpt lat="38.033755" lon="-4.167626">
        <ele>265.539553</ele>
        <time>2020-08-11T06:38:29.766Z</time>
      </trkpt>
      <trkpt lat="38.033639" lon="-4.167636">
        <ele>265.077156</ele>
        <time>2020-08-11T06:38:30.766Z</time>
      </trkpt>
      <trkpt lat="38.033516" lon="-4.167664">
        <ele>264.580181</ele>
        <time>2020-08-11T06:38:31.767Z</time>
      </trkpt>
      <trkpt lat="38.033396" lon="-4.167654">
        <ele>264.101911</ele>
        <time>2020-08-11T06:38:32.770Z</time>
      </trkpt>
      <trkpt lat="38.033283" lon="-4.167661">
        <ele>263.651972</ele>
        <time>2020-08-11T06:38:33.767Z</time>
      </trkpt>
      <trkpt lat="38.033171" lon="-4.167643">
        <ele>263.202991</ele>
        <time>2020-08-11T06:38:34.770Z</time>
      </trkpt>
      <trkpt lat="38.033062" lon="-4.167645">
        <ele>262.769450</ele>
        <time>2020-08-11T06:38:35.769Z</time>
      </trkpt>
      <trkpt lat="38.032939" lon="-4.167621">
        <ele>262.274532</ele>
        <time>2020-08-11T06:38:36.779Z</time>
      </trkpt>
      <trkpt lat="38.032837" lon="-4.167617">
        <ele>261.868682</ele>
        <time>2020-08-11T06:38:37.778Z</time>
      </trkpt>
      <trkpt lat="38.032729" lon="-4.167590">
        <ele>261.241552</ele>
        <time>2020-08-11T06:38:38.771Z</time>
      </trkpt>
      <trkpt lat="38.032635" lon="-4.167613">
        <ele>260.430990</ele>
        <time>2020-08-11T06:38:39.784Z</time>
      </trkpt>
      <trkpt lat="38.032514" lon="-4.167604">
        <ele>259.404705</ele>
        <time>2020-08-11T06:38:40.772Z</time>
      </trkpt>
      <trkpt lat="38.032404" lon="-4.167599">
        <ele>258.472719</ele>
        <time>2020-08-11T06:38:41.769Z</time>
      </trkpt>
      <trkpt lat="38.032293" lon="-4.167606">
        <ele>257.531704</ele>
        <time>2020-08-11T06:38:42.765Z</time>
      </trkpt>
      <trkpt lat="38.032199" lon="-4.167606">
        <ele>256.735789</ele>
        <time>2020-08-11T06:38:43.773Z</time>
      </trkpt>
      <trkpt lat="38.032093" lon="-4.167614">
        <ele>255.836684</ele>
        <time>2020-08-11T06:38:44.785Z</time>
      </trkpt>
      <trkpt lat="38.032001" lon="-4.167622">
        <ele>255.055879</ele>
        <time>2020-08-11T06:38:45.778Z</time>
      </trkpt>
      <trkpt lat="38.031900" lon="-4.167624">
        <ele>254.200590</ele>
        <time>2020-08-11T06:38:46.768Z</time>
      </trkpt>
      <trkpt lat="38.031791" lon="-4.167616">
        <ele>253.276127</ele>
        <time>2020-08-11T06:38:47.770Z</time>
      </trkpt>
      <trkpt lat="38.031693" lon="-4.167607">
        <ele>252.444175</ele>
        <time>2020-08-11T06:38:48.768Z</time>
      </trkpt>
      <trkpt lat="38.031509" lon="-4.167585">
        <ele>250.879321</ele>
        <time>2020-08-11T06:38:50.785Z</time>
      </trkpt>
      <trkpt lat="38.031414" lon="-4.167562">
        <ele>250.060443</ele>
        <time>2020-08-11T06:38:51.768Z</time>
      </trkpt>
      <trkpt lat="38.031318" lon="-4.167536">
        <ele>249.229304</ele>
        <time>2020-08-11T06:38:52.763Z</time>
      </trkpt>
      <trkpt lat="38.031140" lon="-4.167511">
        <ele>247.712952</ele>
        <time>2020-08-11T06:38:54.780Z</time>
      </trkpt>
      <trkpt lat="38.031046" lon="-4.167493">
        <ele>246.908035</ele>
        <time>2020-08-11T06:38:55.771Z</time>
      </trkpt>
      <trkpt lat="38.030872" lon="-4.167460">
        <ele>246.339752</ele>
        <time>2020-08-11T06:38:57.792Z</time>
      </trkpt>
      <trkpt lat="38.030701" lon="-4.167434">
        <ele>246.294573</ele>
        <time>2020-08-11T06:38:59.770Z</time>
      </trkpt>
      <trkpt lat="38.030606" lon="-4.167409">
        <ele>246.269121</ele>
        <time>2020-08-11T06:39:00.783Z</time>
      </trkpt>
      <trkpt lat="38.030518" lon="-4.167385">
        <ele>246.245510</ele>
        <time>2020-08-11T06:39:01.766Z</time>
      </trkpt>
      <trkpt lat="38.030347" lon="-4.167341">
        <ele>246.199739</ele>
        <time>2020-08-11T06:39:03.785Z</time>
      </trkpt>
      <trkpt lat="38.030187" lon="-4.167286">
        <ele>246.156255</ele>
        <time>2020-08-11T06:39:05.778Z</time>
      </trkpt>
      <trkpt lat="38.030024" lon="-4.167225">
        <ele>246.111676</ele>
        <time>2020-08-11T06:39:07.781Z</time>
      </trkpt>
      <trkpt lat="38.029867" lon="-4.167171">
        <ele>246.069006</ele>
        <time>2020-08-11T06:39:09.779Z</time>
      </trkpt>
      <trkpt lat="38.029706" lon="-4.167105">
        <ele>246.024623</ele>
        <time>2020-08-11T06:39:11.773Z</time>
      </trkpt>
      <trkpt lat="38.029546" lon="-4.167036">
        <ele>245.980295</ele>
        <time>2020-08-11T06:39:13.776Z</time>
      </trkpt>
      <trkpt lat="38.029409" lon="-4.167010">
        <ele>245.943956</ele>
        <time>2020-08-11T06:39:15.785Z</time>
      </trkpt>
      <trkpt lat="38.029270" lon="-4.166942">
        <ele>245.904879</ele>
        <time>2020-08-11T06:39:17.772Z</time>
      </trkpt>
      <trkpt lat="38.029134" lon="-4.166877">
        <ele>246.039885</ele>
        <time>2020-08-11T06:39:19.775Z</time>
      </trkpt>
      <trkpt lat="38.028999" lon="-4.166805">
        <ele>246.218701</ele>
        <time>2020-08-11T06:39:21.777Z</time>
      </trkpt>
      <trkpt lat="38.028864" lon="-4.166781">
        <ele>246.385169</ele>
        <time>2020-08-11T06:39:23.771Z</time>
      </trkpt>
      <trkpt lat="38.028730" lon="-4.166771">
        <ele>246.549089</ele>
        <time>2020-08-11T06:39:25.783Z</time>
      </trkpt>
      <trkpt lat="38.028606" lon="-4.166774">
        <ele>246.700543</ele>
        <time>2020-08-11T06:39:27.775Z</time>
      </trkpt>
      <trkpt lat="38.028459" lon="-4.166752">
        <ele>246.881300</ele>
        <time>2020-08-11T06:39:29.768Z</time>
      </trkpt>
      <trkpt lat="38.028347" lon="-4.166793">
        <ele>247.023645</ele>
        <time>2020-08-11T06:39:31.771Z</time>
      </trkpt>
      <trkpt lat="38.028229" lon="-4.166853">
        <ele>247.178872</ele>
        <time>2020-08-11T06:39:33.771Z</time>
      </trkpt>
      <trkpt lat="38.028094" lon="-4.166862">
        <ele>247.343959</ele>
        <time>2020-08-11T06:39:35.771Z</time>
      </trkpt>
      <trkpt lat="38.027969" lon="-4.166846">
        <ele>247.497380</ele>
        <time>2020-08-11T06:39:37.765Z</time>
      </trkpt>
      <trkpt lat="38.027827" lon="-4.166856">
        <ele>247.671054</ele>
        <time>2020-08-11T06:39:39.770Z</time>
      </trkpt>
      <trkpt lat="38.027684" lon="-4.166870">
        <ele>247.846202</ele>
        <time>2020-08-11T06:39:41.761Z</time>
      </trkpt>
      <trkpt lat="38.027571" lon="-4.166887">
        <ele>247.985161</ele>
        <time>2020-08-11T06:39:43.783Z</time>
      </trkpt>
      <trkpt lat="38.027465" lon="-4.166940">
        <ele>248.099537</ele>
        <time>2020-08-11T06:39:45.783Z</time>
      </trkpt>
      <trkpt lat="38.027360" lon="-4.167016">
        <ele>248.127165</ele>
        <time>2020-08-11T06:39:47.772Z</time>
      </trkpt>
      <trkpt lat="38.027236" lon="-4.167079">
        <ele>248.157695</ele>
        <time>2020-08-11T06:39:49.765Z</time>
      </trkpt>
      <trkpt lat="38.027154" lon="-4.167183">
        <ele>248.184190</ele>
        <time>2020-08-11T06:39:51.766Z</time>
      </trkpt>
      <trkpt lat="38.027073" lon="-4.167294">
        <ele>248.211434</ele>
        <time>2020-08-11T06:39:53.776Z</time>
      </trkpt>
      <trkpt lat="38.026970" lon="-4.167356">
        <ele>248.237490</ele>
        <time>2020-08-11T06:39:55.766Z</time>
      </trkpt>
      <trkpt lat="38.026869" lon="-4.167328">
        <ele>248.261121</ele>
        <time>2020-08-11T06:39:56.775Z</time>
      </trkpt>
      <trkpt lat="38.026769" lon="-4.167362">
        <ele>248.284785</ele>
        <time>2020-08-11T06:39:58.774Z</time>
      </trkpt>
      <trkpt lat="38.026628" lon="-4.167371">
        <ele>248.317055</ele>
        <time>2020-08-11T06:40:00.771Z</time>
      </trkpt>
      <trkpt lat="38.026514" lon="-4.167398">
        <ele>248.343563</ele>
        <time>2020-08-11T06:40:02.791Z</time>
      </trkpt>
      <trkpt lat="38.026405" lon="-4.167467">
        <ele>248.371404</ele>
        <time>2020-08-11T06:40:04.770Z</time>
      </trkpt>
      <trkpt lat="38.026290" lon="-4.167493">
        <ele>248.398105</ele>
        <time>2020-08-11T06:40:06.772Z</time>
      </trkpt>
      <trkpt lat="38.026189" lon="-4.167507">
        <ele>248.421329</ele>
        <time>2020-08-11T06:40:08.774Z</time>
      </trkpt>
      <trkpt lat="38.026064" lon="-4.167541">
        <ele>248.450550</ele>
        <time>2020-08-11T06:40:10.776Z</time>
      </trkpt>
      <trkpt lat="38.025946" lon="-4.167569">
        <ele>248.477989</ele>
        <time>2020-08-11T06:40:12.772Z</time>
      </trkpt>
      <trkpt lat="38.025825" lon="-4.167608">
        <ele>248.495055</ele>
        <time>2020-08-11T06:40:14.771Z</time>
      </trkpt>
      <trkpt lat="38.025691" lon="-4.167644">
        <ele>248.294991</ele>
        <time>2020-08-11T06:40:16.774Z</time>
      </trkpt>
      <trkpt lat="38.025566" lon="-4.167695">
        <ele>248.103210</ele>
        <time>2020-08-11T06:40:18.777Z</time>
      </trkpt>
      <trkpt lat="38.025410" lon="-4.167738">
        <ele>247.870038</ele>
        <time>2020-08-11T06:40:20.786Z</time>
      </trkpt>
      <trkpt lat="38.025258" lon="-4.167814">
        <ele>247.631416</ele>
        <time>2020-08-11T06:40:22.771Z</time>
      </trkpt>
      <trkpt lat="38.025100" lon="-4.167861">
        <ele>247.394380</ele>
        <time>2020-08-11T06:40:24.771Z</time>
      </trkpt>
      <trkpt lat="38.025001" lon="-4.167867">
        <ele>247.249610</ele>
        <time>2020-08-11T06:40:25.766Z</time>
      </trkpt>
      <trkpt lat="38.024850" lon="-4.167905">
        <ele>247.024758</ele>
        <time>2020-08-11T06:40:27.777Z</time>
      </trkpt>
      <trkpt lat="38.024688" lon="-4.167929">
        <ele>246.786525</ele>
        <time>2020-08-11T06:40:29.776Z</time>
      </trkpt>
      <trkpt lat="38.024564" lon="-4.167960">
        <ele>246.601924</ele>
        <time>2020-08-11T06:40:31.775Z</time>
      </trkpt>
      <trkpt lat="38.024440" lon="-4.167941">
        <ele>246.419488</ele>
        <time>2020-08-11T06:40:33.779Z</time>
      </trkpt>
      <trkpt lat="38.024327" lon="-4.167889">
        <ele>246.243923</ele>
        <time>2020-08-11T06:40:35.778Z</time>
      </trkpt>
      <trkpt lat="38.024224" lon="-4.167895">
        <ele>246.093316</ele>
        <time>2020-08-11T06:40:37.770Z</time>
      </trkpt>
      <trkpt lat="38.024121" lon="-4.167888">
        <ele>245.942653</ele>
        <time>2020-08-11T06:40:39.780Z</time>
      </trkpt>
      <trkpt lat="38.023993" lon="-4.167884">
        <ele>245.901776</ele>
        <time>2020-08-11T06:40:41.775Z</time>
      </trkpt>
      <trkpt lat="38.023883" lon="-4.167887">
        <ele>245.933373</ele>
        <time>2020-08-11T06:40:43.771Z</time>
      </trkpt>
      <trkpt lat="38.023779" lon="-4.167930">
        <ele>245.964783</ele>
        <time>2020-08-11T06:40:45.772Z</time>
      </trkpt>
      <trkpt lat="38.023664" lon="-4.167966">
        <ele>245.998797</ele>
        <time>2020-08-11T06:40:47.768Z</time>
      </trkpt>
      <trkpt lat="38.023571" lon="-4.168017">
        <ele>246.027890</ele>
        <time>2020-08-11T06:40:49.770Z</time>
      </trkpt>
      <trkpt lat="38.023476" lon="-4.168101">
        <ele>246.061137</ele>
        <time>2020-08-11T06:40:51.767Z</time>
      </trkpt>
      <trkpt lat="38.023373" lon="-4.168197">
        <ele>246.097832</ele>
        <time>2020-08-11T06:40:53.769Z</time>
      </trkpt>
      <trkpt lat="38.023258" lon="-4.168272">
        <ele>246.134961</ele>
        <time>2020-08-11T06:40:55.781Z</time>
      </trkpt>
      <trkpt lat="38.023174" lon="-4.168365">
        <ele>246.166969</ele>
        <time>2020-08-11T06:40:57.785Z</time>
      </trkpt>
      <trkpt lat="38.023066" lon="-4.168427">
        <ele>246.201008</ele>
        <time>2020-08-11T06:40:59.776Z</time>
      </trkpt>
      <trkpt lat="38.022957" lon="-4.168501">
        <ele>246.236505</ele>
        <time>2020-08-11T06:41:01.780Z</time>
      </trkpt>
      <trkpt lat="38.022844" lon="-4.168585">
        <ele>246.274110</ele>
        <time>2020-08-11T06:41:03.785Z</time>
      </trkpt>
      <trkpt lat="38.022739" lon="-4.168653">
        <ele>246.307961</ele>
        <time>2020-08-11T06:41:05.777Z</time>
      </trkpt>
      <trkpt lat="38.022637" lon="-4.168729">
        <ele>246.341926</ele>
        <time>2020-08-11T06:41:07.786Z</time>
      </trkpt>
      <trkpt lat="38.022537" lon="-4.168794">
        <ele>246.374189</ele>
        <time>2020-08-11T06:41:09.777Z</time>
      </trkpt>
      <trkpt lat="38.022431" lon="-4.168871">
        <ele>246.325415</ele>
        <time>2020-08-11T06:41:11.780Z</time>
      </trkpt>
      <trkpt lat="38.022336" lon="-4.168961">
        <ele>246.168849</ele>
        <time>2020-08-11T06:41:13.775Z</time>
      </trkpt>
      <trkpt lat="38.022259" lon="-4.169048">
        <ele>246.032698</ele>
        <time>2020-08-11T06:41:15.776Z</time>
      </trkpt>
      <trkpt lat="38.022174" lon="-4.169141">
        <ele>245.884484</ele>
        <time>2020-08-11T06:41:17.781Z</time>
      </trkpt>
      <trkpt lat="38.022069" lon="-4.169212">
        <ele>245.727353</ele>
        <time>2020-08-11T06:41:19.787Z</time>
      </trkpt>
      <trkpt lat="38.021973" lon="-4.169269">
        <ele>245.587372</ele>
        <time>2020-08-11T06:41:21.770Z</time>
      </trkpt>
      <trkpt lat="38.021872" lon="-4.169304">
        <ele>245.449091</ele>
        <time>2020-08-11T06:41:23.780Z</time>
      </trkpt>
      <trkpt lat="38.021771" lon="-4.169365">
        <ele>245.301363</ele>
        <time>2020-08-11T06:41:25.775Z</time>
      </trkpt>
      <trkpt lat="38.021666" lon="-4.169419">
        <ele>245.151730</ele>
        <time>2020-08-11T06:41:27.774Z</time>
      </trkpt>
      <trkpt lat="38.021557" lon="-4.169478">
        <ele>244.995223</ele>
        <time>2020-08-11T06:41:29.778Z</time>
      </trkpt>
      <trkpt lat="38.021446" lon="-4.169499">
        <ele>244.846996</ele>
        <time>2020-08-11T06:41:31.771Z</time>
      </trkpt>
      <trkpt lat="38.021329" lon="-4.169542">
        <ele>244.686117</ele>
        <time>2020-08-11T06:41:33.768Z</time>
      </trkpt>
      <trkpt lat="38.021225" lon="-4.169576">
        <ele>244.544273</ele>
        <time>2020-08-11T06:41:35.772Z</time>
      </trkpt>
      <trkpt lat="38.021097" lon="-4.169606">
        <ele>244.372355</ele>
        <time>2020-08-11T06:41:37.776Z</time>
      </trkpt>
      <trkpt lat="38.020967" lon="-4.169588">
        <ele>244.199634</ele>
        <time>2020-08-11T06:41:39.776Z</time>
      </trkpt>
      <trkpt lat="38.020853" lon="-4.169619">
        <ele>244.045648</ele>
        <time>2020-08-11T06:41:41.782Z</time>
      </trkpt>
      <trkpt lat="38.020776" lon="-4.169687">
        <ele>243.938140</ele>
        <time>2020-08-11T06:41:43.777Z</time>
      </trkpt>
      <trkpt lat="38.020661" lon="-4.169738">
        <ele>243.804449</ele>
        <time>2020-08-11T06:41:45.779Z</time>
      </trkpt>
      <trkpt lat="38.020570" lon="-4.169808">
        <ele>243.687672</ele>
        <time>2020-08-11T06:41:47.779Z</time>
      </trkpt>
      <trkpt lat="38.020467" lon="-4.169860">
        <ele>243.566019</ele>
        <time>2020-08-11T06:41:49.768Z</time>
      </trkpt>
      <trkpt lat="38.020337" lon="-4.169902">
        <ele>243.418798</ele>
        <time>2020-08-11T06:41:51.775Z</time>
      </trkpt>
      <trkpt lat="38.020227" lon="-4.169956">
        <ele>243.289362</ele>
        <time>2020-08-11T06:41:53.788Z</time>
      </trkpt>
      <trkpt lat="38.020096" lon="-4.169998">
        <ele>243.141077</ele>
        <time>2020-08-11T06:41:55.886Z</time>
      </trkpt>
      <trkpt lat="38.019988" lon="-4.170069">
        <ele>243.007596</ele>
        <time>2020-08-11T06:41:57.777Z</time>
      </trkpt>
      <trkpt lat="38.019840" lon="-4.170092">
        <ele>242.843956</ele>
        <time>2020-08-11T06:41:59.783Z</time>
      </trkpt>
      <trkpt lat="38.019716" lon="-4.170154">
        <ele>242.697691</ele>
        <time>2020-08-11T06:42:02.767Z</time>
      </trkpt>
      <trkpt lat="38.019610" lon="-4.170169">
        <ele>242.580638</ele>
        <time>2020-08-11T06:42:04.774Z</time>
      </trkpt>
      <trkpt lat="38.019526" lon="-4.170218">
        <ele>242.479181</ele>
        <time>2020-08-11T06:42:06.784Z</time>
      </trkpt>
      <trkpt lat="38.019399" lon="-4.170251">
        <ele>242.336910</ele>
        <time>2020-08-11T06:42:08.781Z</time>
      </trkpt>
      <trkpt lat="38.019271" lon="-4.170277">
        <ele>242.194646</ele>
        <time>2020-08-11T06:42:10.779Z</time>
      </trkpt>
      <trkpt lat="38.019146" lon="-4.170322">
        <ele>242.052050</ele>
        <time>2020-08-11T06:42:12.780Z</time>
      </trkpt>
      <trkpt lat="38.019009" lon="-4.170360">
        <ele>241.801290</ele>
        <time>2020-08-11T06:42:14.779Z</time>
      </trkpt>
      <trkpt lat="38.018890" lon="-4.170420">
        <ele>241.567880</ele>
        <time>2020-08-11T06:42:16.783Z</time>
      </trkpt>
      <trkpt lat="38.018776" lon="-4.170442">
        <ele>241.357683</ele>
        <time>2020-08-11T06:42:18.764Z</time>
      </trkpt>
      <trkpt lat="38.018659" lon="-4.170466">
        <ele>241.141638</ele>
        <time>2020-08-11T06:42:20.765Z</time>
      </trkpt>
      <trkpt lat="38.018514" lon="-4.170463">
        <ele>240.877284</ele>
        <time>2020-08-11T06:42:22.785Z</time>
      </trkpt>
      <trkpt lat="38.018416" lon="-4.170507">
        <ele>240.687795</ele>
        <time>2020-08-11T06:42:24.776Z</time>
      </trkpt>
      <trkpt lat="38.018327" lon="-4.170579">
        <ele>240.495410</ele>
        <time>2020-08-11T06:42:26.769Z</time>
      </trkpt>
      <trkpt lat="38.018216" lon="-4.170614">
        <ele>240.286920</ele>
        <time>2020-08-11T06:42:28.773Z</time>
      </trkpt>
      <trkpt lat="38.018122" lon="-4.170646">
        <ele>240.109513</ele>
        <time>2020-08-11T06:42:30.767Z</time>
      </trkpt>
      <trkpt lat="38.018005" lon="-4.170687">
        <ele>239.888257</ele>
        <time>2020-08-11T06:42:32.788Z</time>
      </trkpt>
      <trkpt lat="38.017884" lon="-4.170721">
        <ele>239.662348</ele>
        <time>2020-08-11T06:42:34.783Z</time>
      </trkpt>
      <trkpt lat="38.017748" lon="-4.170758">
        <ele>239.408805</ele>
        <time>2020-08-11T06:42:36.784Z</time>
      </trkpt>
      <trkpt lat="38.017622" lon="-4.170803">
        <ele>239.170202</ele>
        <time>2020-08-11T06:42:38.773Z</time>
      </trkpt>
      <trkpt lat="38.017499" lon="-4.170850">
        <ele>238.936048</ele>
        <time>2020-08-11T06:42:40.782Z</time>
      </trkpt>
      <trkpt lat="38.017364" lon="-4.170901">
        <ele>238.714326</ele>
        <time>2020-08-11T06:42:42.781Z</time>
      </trkpt>
      <trkpt lat="38.017238" lon="-4.170954">
        <ele>238.570170</ele>
        <time>2020-08-11T06:42:44.786Z</time>
      </trkpt>
      <trkpt lat="38.017108" lon="-4.170997">
        <ele>238.424274</ele>
        <time>2020-08-11T06:42:46.782Z</time>
      </trkpt>
      <trkpt lat="38.016980" lon="-4.171038">
        <ele>238.280906</ele>
        <time>2020-08-11T06:42:48.791Z</time>
      </trkpt>
      <trkpt lat="38.016850" lon="-4.171083">
        <ele>238.134569</ele>
        <time>2020-08-11T06:42:50.773Z</time>
      </trkpt>
      <trkpt lat="38.016715" lon="-4.171132">
        <ele>237.982081</ele>
        <time>2020-08-11T06:42:52.791Z</time>
      </trkpt>
      <trkpt lat="38.016583" lon="-4.171176">
        <ele>237.833866</ele>
        <time>2020-08-11T06:42:54.784Z</time>
      </trkpt>
      <trkpt lat="38.016470" lon="-4.171228">
        <ele>237.703331</ele>
        <time>2020-08-11T06:42:56.777Z</time>
      </trkpt>
      <trkpt lat="38.016362" lon="-4.171268">
        <ele>237.581150</ele>
        <time>2020-08-11T06:42:58.762Z</time>
      </trkpt>
      <trkpt lat="38.016257" lon="-4.171313">
        <ele>237.460794</ele>
        <time>2020-08-11T06:43:00.781Z</time>
      </trkpt>
      <trkpt lat="38.016155" lon="-4.171359">
        <ele>237.343237</ele>
        <time>2020-08-11T06:43:02.779Z</time>
      </trkpt>
      <trkpt lat="38.016058" lon="-4.171406">
        <ele>237.230479</ele>
        <time>2020-08-11T06:43:04.779Z</time>
      </trkpt>
      <trkpt lat="38.015972" lon="-4.171461">
        <ele>237.125897</ele>
        <time>2020-08-11T06:43:06.781Z</time>
      </trkpt>
      <trkpt lat="38.015890" lon="-4.171524">
        <ele>237.021801</ele>
        <time>2020-08-11T06:43:08.783Z</time>
      </trkpt>
      <trkpt lat="38.015800" lon="-4.171559">
        <ele>236.919575</ele>
        <time>2020-08-11T06:43:10.782Z</time>
      </trkpt>
      <trkpt lat="38.015707" lon="-4.171629">
        <ele>236.812646</ele>
        <time>2020-08-11T06:43:12.774Z</time>
      </trkpt>
      <trkpt lat="38.015624" lon="-4.171685">
        <ele>236.812981</ele>
        <time>2020-08-11T06:43:14.772Z</time>
      </trkpt>
      <trkpt lat="38.015531" lon="-4.171758">
        <ele>236.813372</ele>
        <time>2020-08-11T06:43:16.784Z</time>
      </trkpt>
      <trkpt lat="38.015437" lon="-4.171832">
        <ele>236.813766</ele>
        <time>2020-08-11T06:43:18.784Z</time>
      </trkpt>
      <trkpt lat="38.015342" lon="-4.171899">
        <ele>236.814154</ele>
        <time>2020-08-11T06:43:20.781Z</time>
      </trkpt>
      <trkpt lat="38.015244" lon="-4.171969">
        <ele>236.814556</ele>
        <time>2020-08-11T06:43:22.786Z</time>
      </trkpt>
      <trkpt lat="38.015146" lon="-4.172047">
        <ele>236.814968</ele>
        <time>2020-08-11T06:43:24.786Z</time>
      </trkpt>
      <trkpt lat="38.015049" lon="-4.172125">
        <ele>236.815378</ele>
        <time>2020-08-11T06:43:26.767Z</time>
      </trkpt>
      <trkpt lat="38.014936" lon="-4.172202">
        <ele>236.815836</ele>
        <time>2020-08-11T06:43:28.768Z</time>
      </trkpt>
      <trkpt lat="38.014833" lon="-4.172289">
        <ele>236.816278</ele>
        <time>2020-08-11T06:43:30.771Z</time>
      </trkpt>
      <trkpt lat="38.014725" lon="-4.172369">
        <ele>236.816724</ele>
        <time>2020-08-11T06:43:32.786Z</time>
      </trkpt>
      <trkpt lat="38.014615" lon="-4.172445">
        <ele>236.817171</ele>
        <time>2020-08-11T06:43:34.782Z</time>
      </trkpt>
      <trkpt lat="38.014503" lon="-4.172532">
        <ele>236.817639</ele>
        <time>2020-08-11T06:43:36.781Z</time>
      </trkpt>
      <trkpt lat="38.014394" lon="-4.172609">
        <ele>236.818085</ele>
        <time>2020-08-11T06:43:38.757Z</time>
      </trkpt>
      <trkpt lat="38.014283" lon="-4.172683">
        <ele>236.818532</ele>
        <time>2020-08-11T06:43:40.790Z</time>
      </trkpt>
      <trkpt lat="38.014180" lon="-4.172779">
        <ele>236.818988</ele>
        <time>2020-08-11T06:43:42.777Z</time>
      </trkpt>
      <trkpt lat="38.014064" lon="-4.172856">
        <ele>236.922218</ele>
        <time>2020-08-11T06:43:44.772Z</time>
      </trkpt>
      <trkpt lat="38.013951" lon="-4.172923">
        <ele>237.030397</ele>
        <time>2020-08-11T06:43:46.772Z</time>
      </trkpt>
      <trkpt lat="38.013846" lon="-4.173002">
        <ele>237.136269</ele>
        <time>2020-08-11T06:43:48.774Z</time>
      </trkpt>
      <trkpt lat="38.013743" lon="-4.173090">
        <ele>237.243963</ele>
        <time>2020-08-11T06:43:50.779Z</time>
      </trkpt>
      <trkpt lat="38.013637" lon="-4.173184">
        <ele>237.356121</ele>
        <time>2020-08-11T06:43:52.784Z</time>
      </trkpt>
      <trkpt lat="38.013525" lon="-4.173282">
        <ele>237.474114</ele>
        <time>2020-08-11T06:43:54.768Z</time>
      </trkpt>
      <trkpt lat="38.013425" lon="-4.173389">
        <ele>237.587559</ele>
        <time>2020-08-11T06:43:56.781Z</time>
      </trkpt>
      <trkpt lat="38.013343" lon="-4.173492">
        <ele>237.687624</ele>
        <time>2020-08-11T06:43:58.777Z</time>
      </trkpt>
      <trkpt lat="38.013240" lon="-4.173585">
        <ele>237.797262</ele>
        <time>2020-08-11T06:44:00.779Z</time>
      </trkpt>
      <trkpt lat="38.013159" lon="-4.173685">
        <ele>237.895273</ele>
        <time>2020-08-11T06:44:02.781Z</time>
      </trkpt>
      <trkpt lat="38.013075" lon="-4.173790">
        <ele>237.997533</ele>
        <time>2020-08-11T06:44:04.776Z</time>
      </trkpt>
      <trkpt lat="38.012983" lon="-4.173896">
        <ele>238.105305</ele>
        <time>2020-08-11T06:44:06.765Z</time>
      </trkpt>
      <trkpt lat="38.012881" lon="-4.174000">
        <ele>238.218788</ele>
        <time>2020-08-11T06:44:08.771Z</time>
      </trkpt>
      <trkpt lat="38.012795" lon="-4.174120">
        <ele>238.329644</ele>
        <time>2020-08-11T06:44:10.784Z</time>
      </trkpt>
      <trkpt lat="38.012720" lon="-4.174233">
        <ele>238.377374</ele>
        <time>2020-08-11T06:44:12.776Z</time>
      </trkpt>
      <trkpt lat="38.012645" lon="-4.174355">
        <ele>238.373794</ele>
        <time>2020-08-11T06:44:14.771Z</time>
      </trkpt>
      <trkpt lat="38.012547" lon="-4.174466">
        <ele>238.369937</ele>
        <time>2020-08-11T06:44:16.776Z</time>
      </trkpt>
      <trkpt lat="38.012485" lon="-4.174598">
        <ele>238.366382</ele>
        <time>2020-08-11T06:44:18.770Z</time>
      </trkpt>
      <trkpt lat="38.012407" lon="-4.174720">
        <ele>238.362747</ele>
        <time>2020-08-11T06:44:20.784Z</time>
      </trkpt>
      <trkpt lat="38.012357" lon="-4.174856">
        <ele>238.359275</ele>
        <time>2020-08-11T06:44:22.776Z</time>
      </trkpt>
      <trkpt lat="38.012310" lon="-4.175000">
        <ele>238.355669</ele>
        <time>2020-08-11T06:44:24.778Z</time>
      </trkpt>
      <trkpt lat="38.012251" lon="-4.175140">
        <ele>238.351996</ele>
        <time>2020-08-11T06:44:26.775Z</time>
      </trkpt>
      <trkpt lat="38.012217" lon="-4.175309">
        <ele>238.347961</ele>
        <time>2020-08-11T06:44:28.774Z</time>
      </trkpt>
      <trkpt lat="38.012177" lon="-4.175460">
        <ele>238.344275</ele>
        <time>2020-08-11T06:44:30.784Z</time>
      </trkpt>
      <trkpt lat="38.012132" lon="-4.175615">
        <ele>238.340453</ele>
        <time>2020-08-11T06:44:32.786Z</time>
      </trkpt>
      <trkpt lat="38.012090" lon="-4.175764">
        <ele>238.336792</ele>
        <time>2020-08-11T06:44:34.780Z</time>
      </trkpt>
      <trkpt lat="38.012051" lon="-4.175910">
        <ele>238.333226</ele>
        <time>2020-08-11T06:44:36.791Z</time>
      </trkpt>
      <trkpt lat="38.011998" lon="-4.176028">
        <ele>238.330083</ele>
        <time>2020-08-11T06:44:38.799Z</time>
      </trkpt>
      <trkpt lat="38.011968" lon="-4.176166">
        <ele>238.326771</ele>
        <time>2020-08-11T06:44:40.787Z</time>
      </trkpt>
      <trkpt lat="38.011943" lon="-4.176307">
        <ele>238.297663</ele>
        <time>2020-08-11T06:44:42.781Z</time>
      </trkpt>
      <trkpt lat="38.011926" lon="-4.176463">
        <ele>238.261368</ele>
        <time>2020-08-11T06:44:44.773Z</time>
      </trkpt>
      <trkpt lat="38.011921" lon="-4.176628">
        <ele>238.223312</ele>
        <time>2020-08-11T06:44:46.785Z</time>
      </trkpt>
      <trkpt lat="38.011941" lon="-4.176794">
        <ele>238.184609</ele>
        <time>2020-08-11T06:44:48.785Z</time>
      </trkpt>
      <trkpt lat="38.011983" lon="-4.176934">
        <ele>238.150083</ele>
        <time>2020-08-11T06:44:50.782Z</time>
      </trkpt>
      <trkpt lat="38.012003" lon="-4.177110">
        <ele>238.109100</ele>
        <time>2020-08-11T06:44:52.779Z</time>
      </trkpt>
      <trkpt lat="38.012006" lon="-4.177274">
        <ele>238.071293</ele>
        <time>2020-08-11T06:44:54.768Z</time>
      </trkpt>
      <trkpt lat="38.012030" lon="-4.177458">
        <ele>238.028309</ele>
        <time>2020-08-11T06:44:56.783Z</time>
      </trkpt>
      <trkpt lat="38.012036" lon="-4.177659">
        <ele>237.981951</ele>
        <time>2020-08-11T06:44:58.772Z</time>
      </trkpt>
      <trkpt lat="38.012056" lon="-4.177802">
        <ele>237.948479</ele>
        <time>2020-08-11T06:45:00.786Z</time>
      </trkpt>
      <trkpt lat="38.012017" lon="-4.178006">
        <ele>237.900098</ele>
        <time>2020-08-11T06:45:02.779Z</time>
      </trkpt>
      <trkpt lat="38.011985" lon="-4.178141">
        <ele>237.867607</ele>
        <time>2020-08-11T06:45:04.774Z</time>
      </trkpt>
      <trkpt lat="38.011961" lon="-4.178301">
        <ele>237.830069</ele>
        <time>2020-08-11T06:45:06.781Z</time>
      </trkpt>
      <trkpt lat="38.011925" lon="-4.178462">
        <ele>237.775342</ele>
        <time>2020-08-11T06:45:08.780Z</time>
      </trkpt>
      <trkpt lat="38.011907" lon="-4.178617">
        <ele>237.671910</ele>
        <time>2020-08-11T06:45:10.770Z</time>
      </trkpt>
      <trkpt lat="38.011860" lon="-4.178771">
        <ele>237.562883</ele>
        <time>2020-08-11T06:45:12.781Z</time>
      </trkpt>
      <trkpt lat="38.011837" lon="-4.178954">
        <ele>237.440544</ele>
        <time>2020-08-11T06:45:14.783Z</time>
      </trkpt>
      <trkpt lat="38.011799" lon="-4.179119">
        <ele>237.327058</ele>
        <time>2020-08-11T06:45:16.785Z</time>
      </trkpt>
      <trkpt lat="38.011765" lon="-4.179285">
        <ele>237.213828</ele>
        <time>2020-08-11T06:45:18.772Z</time>
      </trkpt>
      <trkpt lat="38.011749" lon="-4.179434">
        <ele>237.114553</ele>
        <time>2020-08-11T06:45:20.778Z</time>
      </trkpt>
      <trkpt lat="38.011703" lon="-4.179603">
        <ele>236.996514</ele>
        <time>2020-08-11T06:45:22.784Z</time>
      </trkpt>
      <trkpt lat="38.011662" lon="-4.179769">
        <ele>236.881667</ele>
        <time>2020-08-11T06:45:24.778Z</time>
      </trkpt>
      <trkpt lat="38.011634" lon="-4.179931">
        <ele>236.772176</ele>
        <time>2020-08-11T06:45:26.771Z</time>
      </trkpt>
      <trkpt lat="38.011592" lon="-4.180092">
        <ele>236.660214</ele>
        <time>2020-08-11T06:45:28.771Z</time>
      </trkpt>
      <trkpt lat="38.011561" lon="-4.180250">
        <ele>236.552721</ele>
        <time>2020-08-11T06:45:30.783Z</time>
      </trkpt>
      <trkpt lat="38.011542" lon="-4.180430">
        <ele>236.432828</ele>
        <time>2020-08-11T06:45:32.784Z</time>
      </trkpt>
      <trkpt lat="38.011506" lon="-4.180596">
        <ele>236.319164</ele>
        <time>2020-08-11T06:45:34.778Z</time>
      </trkpt>
      <trkpt lat="38.011484" lon="-4.180762">
        <ele>236.265407</ele>
        <time>2020-08-11T06:45:36.773Z</time>
      </trkpt>
      <trkpt lat="38.011469" lon="-4.180932">
        <ele>236.228664</ele>
        <time>2020-08-11T06:45:38.780Z</time>
      </trkpt>
      <trkpt lat="38.011458" lon="-4.181097">
        <ele>236.193096</ele>
        <time>2020-08-11T06:45:40.784Z</time>
      </trkpt>
      <trkpt lat="38.011448" lon="-4.181257">
        <ele>236.158620</ele>
        <time>2020-08-11T06:45:42.777Z</time>
      </trkpt>
      <trkpt lat="38.011440" lon="-4.181409">
        <ele>236.125899</ele>
        <time>2020-08-11T06:45:44.784Z</time>
      </trkpt>
      <trkpt lat="38.011443" lon="-4.181555">
        <ele>236.094528</ele>
        <time>2020-08-11T06:45:46.782Z</time>
      </trkpt>
      <trkpt lat="38.011406" lon="-4.181707">
        <ele>236.060356</ele>
        <time>2020-08-11T06:45:48.782Z</time>
      </trkpt>
      <trkpt lat="38.011400" lon="-4.181856">
        <ele>236.028310</ele>
        <time>2020-08-11T06:45:50.784Z</time>
      </trkpt>
      <trkpt lat="38.011388" lon="-4.182008">
        <ele>235.995498</ele>
        <time>2020-08-11T06:45:52.762Z</time>
      </trkpt>
      <trkpt lat="38.011372" lon="-4.182153">
        <ele>235.964048</ele>
        <time>2020-08-11T06:45:54.771Z</time>
      </trkpt>
      <trkpt lat="38.011355" lon="-4.182307">
        <ele>235.930647</ele>
        <time>2020-08-11T06:45:56.781Z</time>
      </trkpt>
      <trkpt lat="38.011342" lon="-4.182449">
        <ele>235.899941</ele>
        <time>2020-08-11T06:45:58.770Z</time>
      </trkpt>
      <trkpt lat="38.011324" lon="-4.182594">
        <ele>235.868411</ele>
        <time>2020-08-11T06:46:00.784Z</time>
      </trkpt>
      <trkpt lat="38.011323" lon="-4.182736">
        <ele>235.837909</ele>
        <time>2020-08-11T06:46:02.777Z</time>
      </trkpt>
      <trkpt lat="38.011302" lon="-4.182881">
        <ele>235.806241</ele>
        <time>2020-08-11T06:46:04.779Z</time>
      </trkpt>
      <trkpt lat="38.011291" lon="-4.183045">
        <ele>235.872358</ele>
        <time>2020-08-11T06:46:06.782Z</time>
      </trkpt>
      <trkpt lat="38.011280" lon="-4.183202">
        <ele>235.946400</ele>
        <time>2020-08-11T06:46:08.773Z</time>
      </trkpt>
      <trkpt lat="38.011259" lon="-4.183345">
        <ele>236.014732</ele>
        <time>2020-08-11T06:46:10.781Z</time>
      </trkpt>
      <trkpt lat="38.011251" lon="-4.183509">
        <ele>236.091919</ele>
        <time>2020-08-11T06:46:12.783Z</time>
      </trkpt>
      <trkpt lat="38.011213" lon="-4.183669">
        <ele>236.170421</ele>
        <time>2020-08-11T06:46:14.774Z</time>
      </trkpt>
      <trkpt lat="38.011204" lon="-4.183819">
        <ele>236.241088</ele>
        <time>2020-08-11T06:46:16.776Z</time>
      </trkpt>
      <trkpt lat="38.011198" lon="-4.183970">
        <ele>236.312112</ele>
        <time>2020-08-11T06:46:18.774Z</time>
      </trkpt>
      <trkpt lat="38.011189" lon="-4.184128">
        <ele>236.386527</ele>
        <time>2020-08-11T06:46:20.779Z</time>
      </trkpt>
      <trkpt lat="38.011175" lon="-4.184283">
        <ele>236.459816</ele>
        <time>2020-08-11T06:46:22.770Z</time>
      </trkpt>
      <trkpt lat="38.011165" lon="-4.184447">
        <ele>236.537086</ele>
        <time>2020-08-11T06:46:24.782Z</time>
      </trkpt>
      <trkpt lat="38.011151" lon="-4.184587">
        <ele>236.603380</ele>
        <time>2020-08-11T06:46:26.773Z</time>
      </trkpt>
      <trkpt lat="38.011142" lon="-4.184728">
        <ele>236.669832</ele>
        <time>2020-08-11T06:46:28.778Z</time>
      </trkpt>
      <trkpt lat="38.011129" lon="-4.184858">
        <ele>236.731390</ele>
        <time>2020-08-11T06:46:30.784Z</time>
      </trkpt>
      <trkpt lat="38.011118" lon="-4.184990">
        <ele>236.793744</ele>
        <time>2020-08-11T06:46:32.782Z</time>
      </trkpt>
      <trkpt lat="38.011103" lon="-4.185127">
        <ele>236.858719</ele>
        <time>2020-08-11T06:46:34.778Z</time>
      </trkpt>
      <trkpt lat="38.011094" lon="-4.185280">
        <ele>236.718568</ele>
        <time>2020-08-11T06:46:36.786Z</time>
      </trkpt>
      <trkpt lat="38.011068" lon="-4.185420">
        <ele>236.528596</ele>
        <time>2020-08-11T06:46:38.777Z</time>
      </trkpt>
      <trkpt lat="38.011060" lon="-4.185562">
        <ele>236.340570</ele>
        <time>2020-08-11T06:46:40.767Z</time>
      </trkpt>
      <trkpt lat="38.011050" lon="-4.185708">
        <ele>236.147013</ele>
        <time>2020-08-11T06:46:42.775Z</time>
      </trkpt>
      <trkpt lat="38.011027" lon="-4.185855">
        <ele>235.949072</ele>
        <time>2020-08-11T06:46:44.776Z</time>
      </trkpt>
      <trkpt lat="38.011016" lon="-4.185994">
        <ele>235.764563</ele>
        <time>2020-08-11T06:46:46.781Z</time>
      </trkpt>
      <trkpt lat="38.010981" lon="-4.186115">
        <ele>235.594323</ele>
        <time>2020-08-11T06:46:48.779Z</time>
      </trkpt>
      <trkpt lat="38.010959" lon="-4.186253">
        <ele>235.408365</ele>
        <time>2020-08-11T06:46:50.775Z</time>
      </trkpt>
      <trkpt lat="38.010943" lon="-4.186385">
        <ele>235.231974</ele>
        <time>2020-08-11T06:46:52.776Z</time>
      </trkpt>
      <trkpt lat="38.010941" lon="-4.186518">
        <ele>235.056282</ele>
        <time>2020-08-11T06:46:54.771Z</time>
      </trkpt>
      <trkpt lat="38.010951" lon="-4.186685">
        <ele>234.835080</ele>
        <time>2020-08-11T06:46:56.788Z</time>
      </trkpt>
      <trkpt lat="38.010947" lon="-4.186827">
        <ele>234.647413</ele>
        <time>2020-08-11T06:46:58.783Z</time>
      </trkpt>
      <trkpt lat="38.010927" lon="-4.186963">
        <ele>234.464689</ele>
        <time>2020-08-11T06:47:00.792Z</time>
      </trkpt>
      <trkpt lat="38.010914" lon="-4.187098">
        <ele>234.285060</ele>
        <time>2020-08-11T06:47:02.771Z</time>
      </trkpt>
      <trkpt lat="38.010897" lon="-4.187218">
        <ele>234.124028</ele>
        <time>2020-08-11T06:47:04.783Z</time>
      </trkpt>
      <trkpt lat="38.010878" lon="-4.187345">
        <ele>233.953295</ele>
        <time>2020-08-11T06:47:06.780Z</time>
      </trkpt>
      <trkpt lat="38.010860" lon="-4.187469">
        <ele>233.885134</ele>
        <time>2020-08-11T06:47:08.783Z</time>
      </trkpt>
      <trkpt lat="38.010823" lon="-4.187589">
        <ele>233.943459</ele>
        <time>2020-08-11T06:47:10.768Z</time>
      </trkpt>
      <trkpt lat="38.010771" lon="-4.187698">
        <ele>234.001133</ele>
        <time>2020-08-11T06:47:12.786Z</time>
      </trkpt>
      <trkpt lat="38.010726" lon="-4.187811">
        <ele>234.058440</ele>
        <time>2020-08-11T06:47:14.780Z</time>
      </trkpt>
      <trkpt lat="38.010680" lon="-4.187925">
        <ele>234.116412</ele>
        <time>2020-08-11T06:47:16.784Z</time>
      </trkpt>
      <trkpt lat="38.010624" lon="-4.188042">
        <ele>234.178373</ele>
        <time>2020-08-11T06:47:18.782Z</time>
      </trkpt>
      <trkpt lat="38.010572" lon="-4.188153">
        <ele>234.236824</ele>
        <time>2020-08-11T06:47:20.777Z</time>
      </trkpt>
      <trkpt lat="38.010525" lon="-4.188264">
        <ele>234.293860</ele>
        <time>2020-08-11T06:47:22.774Z</time>
      </trkpt>
      <trkpt lat="38.010482" lon="-4.188396">
        <ele>234.358510</ele>
        <time>2020-08-11T06:47:24.775Z</time>
      </trkpt>
      <trkpt lat="38.010451" lon="-4.188524">
        <ele>234.419121</ele>
        <time>2020-08-11T06:47:26.782Z</time>
      </trkpt>
      <trkpt lat="38.010428" lon="-4.188651">
        <ele>234.478102</ele>
        <time>2020-08-11T06:47:28.790Z</time>
      </trkpt>
      <trkpt lat="38.010426" lon="-4.188800">
        <ele>234.545552</ele>
        <time>2020-08-11T06:47:30.781Z</time>
      </trkpt>
      <trkpt lat="38.010414" lon="-4.188937">
        <ele>234.607943</ele>
        <time>2020-08-11T06:47:32.774Z</time>
      </trkpt>
      <trkpt lat="38.010408" lon="-4.189071">
        <ele>234.668691</ele>
        <time>2020-08-11T06:47:34.792Z</time>
      </trkpt>
      <trkpt lat="38.010389" lon="-4.189211">
        <ele>234.732991</ele>
        <time>2020-08-11T06:47:36.785Z</time>
      </trkpt>
      <trkpt lat="38.010368" lon="-4.189356">
        <ele>234.799720</ele>
        <time>2020-08-11T06:47:38.779Z</time>
      </trkpt>
      <trkpt lat="38.010354" lon="-4.189482">
        <ele>234.857314</ele>
        <time>2020-08-11T06:47:40.777Z</time>
      </trkpt>
      <trkpt lat="38.010336" lon="-4.189606">
        <ele>234.917752</ele>
        <time>2020-08-11T06:47:42.785Z</time>
      </trkpt>
      <trkpt lat="38.010305" lon="-4.189737">
        <ele>234.989543</ele>
        <time>2020-08-11T06:47:44.779Z</time>
      </trkpt>
      <trkpt lat="38.010297" lon="-4.189883">
        <ele>235.066357</ele>
        <time>2020-08-11T06:47:46.780Z</time>
      </trkpt>
      <trkpt lat="38.010295" lon="-4.190021">
        <ele>235.138800</ele>
        <time>2020-08-11T06:47:48.773Z</time>
      </trkpt>
      <trkpt lat="38.010285" lon="-4.190149">
        <ele>235.206312</ele>
        <time>2020-08-11T06:47:50.775Z</time>
      </trkpt>
      <trkpt lat="38.010271" lon="-4.190287">
        <ele>235.279341</ele>
        <time>2020-08-11T06:47:52.784Z</time>
      </trkpt>
      <trkpt lat="38.010259" lon="-4.190430">
        <ele>235.354820</ele>
        <time>2020-08-11T06:47:54.779Z</time>
      </trkpt>
      <trkpt lat="38.010238" lon="-4.190582">
        <ele>235.435816</ele>
        <time>2020-08-11T06:47:56.780Z</time>
      </trkpt>
      <trkpt lat="38.010232" lon="-4.190730">
        <ele>235.513598</ele>
        <time>2020-08-11T06:47:58.775Z</time>
      </trkpt>
      <trkpt lat="38.010213" lon="-4.190870">
        <ele>235.588161</ele>
        <time>2020-08-11T06:48:00.782Z</time>
      </trkpt>
      <trkpt lat="38.010208" lon="-4.191016">
        <ele>235.664863</ele>
        <time>2020-08-11T06:48:02.770Z</time>
      </trkpt>
      <trkpt lat="38.010196" lon="-4.191149">
        <ele>235.735125</ele>
        <time>2020-08-11T06:48:04.786Z</time>
      </trkpt>
      <trkpt lat="38.010181" lon="-4.191287">
        <ele>235.808242</ele>
        <time>2020-08-11T06:48:06.775Z</time>
      </trkpt>
      <trkpt lat="38.010163" lon="-4.191449">
        <ele>235.894111</ele>
        <time>2020-08-11T06:48:08.772Z</time>
      </trkpt>
      <trkpt lat="38.010154" lon="-4.191613">
        <ele>235.980396</ele>
        <time>2020-08-11T06:48:10.775Z</time>
      </trkpt>
      <trkpt lat="38.010142" lon="-4.191773">
        <ele>236.064754</ele>
        <time>2020-08-11T06:48:12.784Z</time>
      </trkpt>
      <trkpt lat="38.010130" lon="-4.191941">
        <ele>236.116404</ele>
        <time>2020-08-11T06:48:14.782Z</time>
      </trkpt>
      <trkpt lat="38.010126" lon="-4.192104">
        <ele>236.150945</ele>
        <time>2020-08-11T06:48:16.781Z</time>
      </trkpt>
      <trkpt lat="38.010121" lon="-4.192260">
        <ele>236.184013</ele>
        <time>2020-08-11T06:48:18.781Z</time>
      </trkpt>
      <trkpt lat="38.010127" lon="-4.192420">
        <ele>236.217940</ele>
        <time>2020-08-11T06:48:20.777Z</time>
      </trkpt>
      <trkpt lat="38.010124" lon="-4.192578">
        <ele>236.251415</ele>
        <time>2020-08-11T06:48:22.781Z</time>
      </trkpt>
      <trkpt lat="38.010129" lon="-4.192737">
        <ele>236.285118</ele>
        <time>2020-08-11T06:48:24.765Z</time>
      </trkpt>
      <trkpt lat="38.010133" lon="-4.192875">
        <ele>236.314367</ele>
        <time>2020-08-11T06:48:26.771Z</time>
      </trkpt>
      <trkpt lat="38.010108" lon="-4.193051">
        <ele>236.352246</ele>
        <time>2020-08-11T06:48:28.774Z</time>
      </trkpt>
      <trkpt lat="38.010108" lon="-4.193183">
        <ele>236.380204</ele>
        <time>2020-08-11T06:48:30.784Z</time>
      </trkpt>
      <trkpt lat="38.010115" lon="-4.193327">
        <ele>236.410761</ele>
        <time>2020-08-11T06:48:32.787Z</time>
      </trkpt>
      <trkpt lat="38.010096" lon="-4.193464">
        <ele>236.440224</ele>
        <time>2020-08-11T06:48:34.780Z</time>
      </trkpt>
      <trkpt lat="38.010108" lon="-4.193579">
        <ele>236.464795</ele>
        <time>2020-08-11T06:48:36.784Z</time>
      </trkpt>
      <trkpt lat="38.010110" lon="-4.193703">
        <ele>236.491064</ele>
        <time>2020-08-11T06:48:38.768Z</time>
      </trkpt>
      <trkpt lat="38.010142" lon="-4.193815">
        <ele>236.516297</ele>
        <time>2020-08-11T06:48:40.784Z</time>
      </trkpt>
      <trkpt lat="38.010084" lon="-4.193915">
        <ele>236.542598</ele>
        <time>2020-08-11T06:48:43.777Z</time>
      </trkpt>
      <trkpt lat="38.010112" lon="-4.193744">
        <ele>236.569338</ele>
        <time>2020-08-11T06:48:48.764Z</time>
      </trkpt>
      <trkpt lat="38.010165" lon="-4.193651">
        <ele>236.539850</ele>
        <time>2020-08-11T06:48:51.769Z</time>
      </trkpt>
      <trkpt lat="38.010259" lon="-4.193643">
        <ele>236.509129</ele>
        <time>2020-08-11T06:48:54.760Z</time>
      </trkpt>
      <trkpt lat="38.010382" lon="-4.193675">
        <ele>236.468187</ele>
        <time>2020-08-11T06:48:56.764Z</time>
      </trkpt>
      <trkpt lat="38.010518" lon="-4.193678">
        <ele>236.423833</ele>
        <time>2020-08-11T06:48:59.773Z</time>
      </trkpt>
      <trkpt lat="38.010620" lon="-4.193733">
        <ele>236.387696</ele>
        <time>2020-08-11T06:49:01.774Z</time>
      </trkpt>
      <trkpt lat="38.010715" lon="-4.193773">
        <ele>236.355058</ele>
        <time>2020-08-11T06:49:03.763Z</time>
      </trkpt>
      <trkpt lat="38.010848" lon="-4.193816">
        <ele>236.310304</ele>
        <time>2020-08-11T06:49:06.773Z</time>
      </trkpt>
      <trkpt lat="38.010996" lon="-4.193875">
        <ele>236.259719</ele>
        <time>2020-08-11T06:49:09.776Z</time>
      </trkpt>
      <trkpt lat="38.011091" lon="-4.193947">
        <ele>236.223639</ele>
        <time>2020-08-11T06:49:11.761Z</time>
      </trkpt>
      <trkpt lat="38.011164" lon="-4.194035">
        <ele>236.190809</ele>
        <time>2020-08-11T06:49:13.770Z</time>
      </trkpt>
      <trkpt lat="38.011251" lon="-4.194114">
        <ele>236.155927</ele>
        <time>2020-08-11T06:49:15.781Z</time>
      </trkpt>
      <trkpt lat="38.011335" lon="-4.194227">
        <ele>236.116014</ele>
        <time>2020-08-11T06:49:17.776Z</time>
      </trkpt>
      <trkpt lat="38.011415" lon="-4.194316">
        <ele>236.081324</ele>
        <time>2020-08-11T06:49:19.783Z</time>
      </trkpt>
      <trkpt lat="38.011496" lon="-4.194419">
        <ele>236.043936</ele>
        <time>2020-08-11T06:49:21.776Z</time>
      </trkpt>
      <trkpt lat="38.011569" lon="-4.194546">
        <ele>236.003548</ele>
        <time>2020-08-11T06:49:23.782Z</time>
      </trkpt>
      <trkpt lat="38.011656" lon="-4.194636">
        <ele>235.911993</ele>
        <time>2020-08-11T06:49:25.775Z</time>
      </trkpt>
      <trkpt lat="38.011741" lon="-4.194717">
        <ele>235.788755</ele>
        <time>2020-08-11T06:49:27.774Z</time>
      </trkpt>
      <trkpt lat="38.011838" lon="-4.194793">
        <ele>235.656586</ele>
        <time>2020-08-11T06:49:29.780Z</time>
      </trkpt>
      <trkpt lat="38.011925" lon="-4.194886">
        <ele>235.524706</ele>
        <time>2020-08-11T06:49:31.774Z</time>
      </trkpt>
      <trkpt lat="38.012014" lon="-4.194968">
        <ele>235.397194</ele>
        <time>2020-08-11T06:49:33.773Z</time>
      </trkpt>
      <trkpt lat="38.012093" lon="-4.195046">
        <ele>235.281147</ele>
        <time>2020-08-11T06:49:35.767Z</time>
      </trkpt>
      <trkpt lat="38.012173" lon="-4.195140">
        <ele>235.154747</ele>
        <time>2020-08-11T06:49:37.781Z</time>
      </trkpt>
      <trkpt lat="38.012237" lon="-4.195222">
        <ele>235.049308</ele>
        <time>2020-08-11T06:49:39.769Z</time>
      </trkpt>
      <trkpt lat="38.012333" lon="-4.195332">
        <ele>234.899354</ele>
        <time>2020-08-11T06:49:42.785Z</time>
      </trkpt>
      <trkpt lat="38.012403" lon="-4.195444">
        <ele>234.768760</ele>
        <time>2020-08-11T06:49:44.779Z</time>
      </trkpt>
      <trkpt lat="38.012475" lon="-4.195536">
        <ele>234.650304</ele>
        <time>2020-08-11T06:49:46.780Z</time>
      </trkpt>
      <trkpt lat="38.012538" lon="-4.195634">
        <ele>234.534763</ele>
        <time>2020-08-11T06:49:48.766Z</time>
      </trkpt>
      <trkpt lat="38.012587" lon="-4.195751">
        <ele>234.413722</ele>
        <time>2020-08-11T06:49:50.782Z</time>
      </trkpt>
      <trkpt lat="38.012649" lon="-4.195854">
        <ele>234.295315</ele>
        <time>2020-08-11T06:49:52.783Z</time>
      </trkpt>
      <trkpt lat="38.012703" lon="-4.195951">
        <ele>234.186818</ele>
        <time>2020-08-11T06:49:54.785Z</time>
      </trkpt>
      <trkpt lat="38.012769" lon="-4.196061">
        <ele>234.060513</ele>
        <time>2020-08-11T06:49:56.786Z</time>
      </trkpt>
      <trkpt lat="38.012815" lon="-4.196162">
        <ele>233.953944</ele>
        <time>2020-08-11T06:49:58.774Z</time>
      </trkpt>
      <trkpt lat="38.012864" lon="-4.196262">
        <ele>233.961446</ele>
        <time>2020-08-11T06:50:00.781Z</time>
      </trkpt>
      <trkpt lat="38.012918" lon="-4.196368">
        <ele>234.080314</ele>
        <time>2020-08-11T06:50:02.773Z</time>
      </trkpt>
      <trkpt lat="38.012971" lon="-4.196469">
        <ele>234.194590</ele>
        <time>2020-08-11T06:50:04.788Z</time>
      </trkpt>
      <trkpt lat="38.013025" lon="-4.196571">
        <ele>234.310313</ele>
        <time>2020-08-11T06:50:06.784Z</time>
      </trkpt>
      <trkpt lat="38.013075" lon="-4.196678">
        <ele>234.427463</ele>
        <time>2020-08-11T06:50:08.777Z</time>
      </trkpt>
      <trkpt lat="38.013139" lon="-4.196794">
        <ele>234.560819</ele>
        <time>2020-08-11T06:50:10.776Z</time>
      </trkpt>
      <trkpt lat="38.013195" lon="-4.196897">
        <ele>234.678666</ele>
        <time>2020-08-11T06:50:12.774Z</time>
      </trkpt>
      <trkpt lat="38.013244" lon="-4.197011">
        <ele>234.800955</ele>
        <time>2020-08-11T06:50:14.775Z</time>
      </trkpt>
      <trkpt lat="38.013296" lon="-4.197118">
        <ele>234.919342</ele>
        <time>2020-08-11T06:50:16.780Z</time>
      </trkpt>
      <trkpt lat="38.013350" lon="-4.197230">
        <ele>235.042992</ele>
        <time>2020-08-11T06:50:18.780Z</time>
      </trkpt>
      <trkpt lat="38.013400" lon="-4.197345">
        <ele>235.166681</ele>
        <time>2020-08-11T06:50:20.781Z</time>
      </trkpt>
      <trkpt lat="38.013474" lon="-4.197498">
        <ele>235.335741</ele>
        <time>2020-08-11T06:50:23.771Z</time>
      </trkpt>
      <trkpt lat="38.013532" lon="-4.197605">
        <ele>235.458046</ele>
        <time>2020-08-11T06:50:25.760Z</time>
      </trkpt>
      <trkpt lat="38.013602" lon="-4.197708">
        <ele>235.586138</ele>
        <time>2020-08-11T06:50:27.779Z</time>
      </trkpt>
      <trkpt lat="38.013657" lon="-4.197822">
        <ele>235.712018</ele>
        <time>2020-08-11T06:50:29.775Z</time>
      </trkpt>
      <trkpt lat="38.013726" lon="-4.197968">
        <ele>235.872342</ele>
        <time>2020-08-11T06:50:32.786Z</time>
      </trkpt>
      <trkpt lat="38.013790" lon="-4.198061">
        <ele>235.988622</ele>
        <time>2020-08-11T06:50:34.776Z</time>
      </trkpt>
      <trkpt lat="38.013845" lon="-4.198163">
        <ele>236.043640</ele>
        <time>2020-08-11T06:50:36.780Z</time>
      </trkpt>
      <trkpt lat="38.013899" lon="-4.198279">
        <ele>236.021296</ele>
        <time>2020-08-11T06:50:38.790Z</time>
      </trkpt>
      <trkpt lat="38.013961" lon="-4.198433">
        <ele>235.992616</ele>
        <time>2020-08-11T06:50:41.780Z</time>
      </trkpt>
      <trkpt lat="38.014007" lon="-4.198546">
        <ele>235.971523</ele>
        <time>2020-08-11T06:50:43.771Z</time>
      </trkpt>
      <trkpt lat="38.014059" lon="-4.198661">
        <ele>235.949534</ele>
        <time>2020-08-11T06:50:45.773Z</time>
      </trkpt>
      <trkpt lat="38.014136" lon="-4.198780">
        <ele>235.923997</ele>
        <time>2020-08-11T06:50:48.770Z</time>
      </trkpt>
      <trkpt lat="38.014190" lon="-4.198878">
        <ele>235.904165</ele>
        <time>2020-08-11T06:50:50.781Z</time>
      </trkpt>
      <trkpt lat="38.014258" lon="-4.198980">
        <ele>235.882007</ele>
        <time>2020-08-11T06:50:52.778Z</time>
      </trkpt>
      <trkpt lat="38.014323" lon="-4.199090">
        <ele>235.859204</ele>
        <time>2020-08-11T06:50:54.781Z</time>
      </trkpt>
      <trkpt lat="38.014377" lon="-4.199190">
        <ele>235.839099</ele>
        <time>2020-08-11T06:50:56.782Z</time>
      </trkpt>
      <trkpt lat="38.014443" lon="-4.199306">
        <ele>235.815370</ele>
        <time>2020-08-11T06:50:58.782Z</time>
      </trkpt>
      <trkpt lat="38.014503" lon="-4.199423">
        <ele>235.792219</ele>
        <time>2020-08-11T06:51:00.791Z</time>
      </trkpt>
      <trkpt lat="38.014567" lon="-4.199521">
        <ele>235.771110</ele>
        <time>2020-08-11T06:51:02.765Z</time>
      </trkpt>
      <trkpt lat="38.014614" lon="-4.199651">
        <ele>235.747390</ele>
        <time>2020-08-11T06:51:04.784Z</time>
      </trkpt>
      <trkpt lat="38.014680" lon="-4.199766">
        <ele>235.723796</ele>
        <time>2020-08-11T06:51:06.780Z</time>
      </trkpt>
      <trkpt lat="38.014733" lon="-4.199886">
        <ele>235.700982</ele>
        <time>2020-08-11T06:51:08.790Z</time>
      </trkpt>
      <trkpt lat="38.014785" lon="-4.199997">
        <ele>235.679566</ele>
        <time>2020-08-11T06:51:10.781Z</time>
      </trkpt>
      <trkpt lat="38.014834" lon="-4.200100">
        <ele>235.684204</ele>
        <time>2020-08-11T06:51:12.791Z</time>
      </trkpt>
      <trkpt lat="38.014914" lon="-4.200233">
        <ele>235.703120</ele>
        <time>2020-08-11T06:51:15.775Z</time>
      </trkpt>
      <trkpt lat="38.014961" lon="-4.200334">
        <ele>235.716380</ele>
        <time>2020-08-11T06:51:17.774Z</time>
      </trkpt>
      <trkpt lat="38.015021" lon="-4.200445">
        <ele>235.731598</ele>
        <time>2020-08-11T06:51:19.781Z</time>
      </trkpt>
      <trkpt lat="38.015080" lon="-4.200556">
        <ele>235.746735</ele>
        <time>2020-08-11T06:51:21.779Z</time>
      </trkpt>
      <trkpt lat="38.015132" lon="-4.200676">
        <ele>235.762217</ele>
        <time>2020-08-11T06:51:23.758Z</time>
      </trkpt>
      <trkpt lat="38.015207" lon="-4.200770">
        <ele>235.777341</ele>
        <time>2020-08-11T06:51:25.776Z</time>
      </trkpt>
      <trkpt lat="38.015275" lon="-4.200894">
        <ele>235.794420</ele>
        <time>2020-08-11T06:51:28.784Z</time>
      </trkpt>
      <trkpt lat="38.015324" lon="-4.200995">
        <ele>235.807829</ele>
        <time>2020-08-11T06:51:30.774Z</time>
      </trkpt>
      <trkpt lat="38.015373" lon="-4.201094">
        <ele>235.821046</ele>
        <time>2020-08-11T06:51:32.780Z</time>
      </trkpt>
      <trkpt lat="38.015438" lon="-4.201209">
        <ele>235.837045</ele>
        <time>2020-08-11T06:51:34.767Z</time>
      </trkpt>
      <trkpt lat="38.015493" lon="-4.201304">
        <ele>235.850372</ele>
        <time>2020-08-11T06:51:36.781Z</time>
      </trkpt>
      <trkpt lat="38.015543" lon="-4.201414">
        <ele>235.864729</ele>
        <time>2020-08-11T06:51:38.793Z</time>
      </trkpt>
      <trkpt lat="38.015592" lon="-4.201533">
        <ele>235.879908</ele>
        <time>2020-08-11T06:51:40.778Z</time>
      </trkpt>
      <trkpt lat="38.015648" lon="-4.201644">
        <ele>235.894808</ele>
        <time>2020-08-11T06:51:42.785Z</time>
      </trkpt>
      <trkpt lat="38.015699" lon="-4.201761">
        <ele>235.909924</ele>
        <time>2020-08-11T06:51:44.785Z</time>
      </trkpt>
      <trkpt lat="38.015760" lon="-4.201859">
        <ele>235.924043</ele>
        <time>2020-08-11T06:51:46.766Z</time>
      </trkpt>
      <trkpt lat="38.015807" lon="-4.201972">
        <ele>235.928496</ele>
        <time>2020-08-11T06:51:48.765Z</time>
      </trkpt>
      <trkpt lat="38.015861" lon="-4.202089">
        <ele>235.919001</ele>
        <time>2020-08-11T06:51:50.772Z</time>
      </trkpt>
      <trkpt lat="38.015916" lon="-4.202190">
        <ele>235.910403</ele>
        <time>2020-08-11T06:51:52.775Z</time>
      </trkpt>
      <trkpt lat="38.015976" lon="-4.202324">
        <ele>235.899610</ele>
        <time>2020-08-11T06:51:55.775Z</time>
      </trkpt>
      <trkpt lat="38.016000" lon="-4.202437">
        <ele>235.891415</ele>
        <time>2020-08-11T06:51:57.775Z</time>
      </trkpt>
      <trkpt lat="38.016062" lon="-4.202533">
        <ele>235.882723</ele>
        <time>2020-08-11T06:51:59.777Z</time>
      </trkpt>
      <trkpt lat="38.016104" lon="-4.202645">
        <ele>235.874037</ele>
        <time>2020-08-11T06:52:01.781Z</time>
      </trkpt>
      <trkpt lat="38.016156" lon="-4.202768">
        <ele>235.864262</ele>
        <time>2020-08-11T06:52:03.782Z</time>
      </trkpt>
      <trkpt lat="38.016235" lon="-4.202935">
        <ele>235.850622</ele>
        <time>2020-08-11T06:52:06.777Z</time>
      </trkpt>
      <trkpt lat="38.016277" lon="-4.203049">
        <ele>235.841810</ele>
        <time>2020-08-11T06:52:08.760Z</time>
      </trkpt>
      <trkpt lat="38.016350" lon="-4.203160">
        <ele>235.831685</ele>
        <time>2020-08-11T06:52:10.785Z</time>
      </trkpt>
      <trkpt lat="38.016421" lon="-4.203296">
        <ele>235.820261</ele>
        <time>2020-08-11T06:52:13.768Z</time>
      </trkpt>
      <trkpt lat="38.016468" lon="-4.203418">
        <ele>235.810751</ele>
        <time>2020-08-11T06:52:15.771Z</time>
      </trkpt>
      <trkpt lat="38.016509" lon="-4.203533">
        <ele>235.801912</ele>
        <time>2020-08-11T06:52:17.777Z</time>
      </trkpt>
      <trkpt lat="38.016564" lon="-4.203648">
        <ele>235.792492</ele>
        <time>2020-08-11T06:52:19.782Z</time>
      </trkpt>
      <trkpt lat="38.016609" lon="-4.203767">
        <ele>235.783249</ele>
        <time>2020-08-11T06:52:21.787Z</time>
      </trkpt>
      <trkpt lat="38.016655" lon="-4.203878">
        <ele>235.774467</ele>
        <time>2020-08-11T06:52:23.780Z</time>
      </trkpt>
      <trkpt lat="38.016708" lon="-4.204043">
        <ele>235.812254</ele>
        <time>2020-08-11T06:52:26.773Z</time>
      </trkpt>
      <trkpt lat="38.016782" lon="-4.204134">
        <ele>235.847091</ele>
        <time>2020-08-11T06:52:28.790Z</time>
      </trkpt>
      <trkpt lat="38.016841" lon="-4.204235">
        <ele>235.880584</ele>
        <time>2020-08-11T06:52:30.773Z</time>
      </trkpt>
      <trkpt lat="38.016894" lon="-4.204334">
        <ele>235.912467</ele>
        <time>2020-08-11T06:52:32.776Z</time>
      </trkpt>
      <trkpt lat="38.016942" lon="-4.204459">
        <ele>235.949509</ele>
        <time>2020-08-11T06:52:34.786Z</time>
      </trkpt>
      <trkpt lat="38.017001" lon="-4.204561">
        <ele>235.983216</ele>
        <time>2020-08-11T06:52:36.786Z</time>
      </trkpt>
      <trkpt lat="38.017060" lon="-4.204668">
        <ele>236.018006</ele>
        <time>2020-08-11T06:52:38.774Z</time>
      </trkpt>
      <trkpt lat="38.017133" lon="-4.204814">
        <ele>236.064068</ele>
        <time>2020-08-11T06:52:41.779Z</time>
      </trkpt>
      <trkpt lat="38.017173" lon="-4.204948">
        <ele>236.102238</ele>
        <time>2020-08-11T06:52:43.783Z</time>
      </trkpt>
      <trkpt lat="38.017225" lon="-4.205073">
        <ele>236.139892</ele>
        <time>2020-08-11T06:52:45.780Z</time>
      </trkpt>
      <trkpt lat="38.017257" lon="-4.205203">
        <ele>236.176171</ele>
        <time>2020-08-11T06:52:47.780Z</time>
      </trkpt>
      <trkpt lat="38.017313" lon="-4.205326">
        <ele>236.214013</ele>
        <time>2020-08-11T06:52:49.780Z</time>
      </trkpt>
      <trkpt lat="38.017395" lon="-4.205452">
        <ele>236.257547</ele>
        <time>2020-08-11T06:52:51.785Z</time>
      </trkpt>
      <trkpt lat="38.017452" lon="-4.205545">
        <ele>236.288933</ele>
        <time>2020-08-11T06:52:53.787Z</time>
      </trkpt>
      <trkpt lat="38.017499" lon="-4.205669">
        <ele>236.325588</ele>
        <time>2020-08-11T06:52:55.780Z</time>
      </trkpt>
      <trkpt lat="38.017555" lon="-4.205799">
        <ele>236.365055</ele>
        <time>2020-08-11T06:52:57.767Z</time>
      </trkpt>
      <trkpt lat="38.017632" lon="-4.205900">
        <ele>236.378644</ele>
        <time>2020-08-11T06:52:59.771Z</time>
      </trkpt>
      <trkpt lat="38.017682" lon="-4.206021">
        <ele>236.375396</ele>
        <time>2020-08-11T06:53:01.768Z</time>
      </trkpt>
      <trkpt lat="38.017731" lon="-4.206138">
        <ele>236.372246</ele>
        <time>2020-08-11T06:53:03.781Z</time>
      </trkpt>
      <trkpt lat="38.017793" lon="-4.206244">
        <ele>236.369107</ele>
        <time>2020-08-11T06:53:05.776Z</time>
      </trkpt>
      <trkpt lat="38.017851" lon="-4.206381">
        <ele>236.365410</ele>
        <time>2020-08-11T06:53:07.771Z</time>
      </trkpt>
      <trkpt lat="38.017918" lon="-4.206505">
        <ele>236.361836</ele>
        <time>2020-08-11T06:53:09.787Z</time>
      </trkpt>
      <trkpt lat="38.017962" lon="-4.206628">
        <ele>236.358625</ele>
        <time>2020-08-11T06:53:11.769Z</time>
      </trkpt>
      <trkpt lat="38.018002" lon="-4.206744">
        <ele>236.355615</ele>
        <time>2020-08-11T06:53:13.772Z</time>
      </trkpt>
      <trkpt lat="38.018086" lon="-4.206893">
        <ele>236.351259</ele>
        <time>2020-08-11T06:53:16.780Z</time>
      </trkpt>
      <trkpt lat="38.018142" lon="-4.206998">
        <ele>236.348245</ele>
        <time>2020-08-11T06:53:18.769Z</time>
      </trkpt>
      <trkpt lat="38.018188" lon="-4.207127">
        <ele>236.344879</ele>
        <time>2020-08-11T06:53:20.767Z</time>
      </trkpt>
      <trkpt lat="38.018244" lon="-4.207245">
        <ele>236.341604</ele>
        <time>2020-08-11T06:53:22.766Z</time>
      </trkpt>
      <trkpt lat="38.018287" lon="-4.207353">
        <ele>236.338728</ele>
        <time>2020-08-11T06:53:24.784Z</time>
      </trkpt>
      <trkpt lat="38.018345" lon="-4.207487">
        <ele>236.335093</ele>
        <time>2020-08-11T06:53:26.772Z</time>
      </trkpt>
      <trkpt lat="38.018392" lon="-4.207626">
        <ele>236.331498</ele>
        <time>2020-08-11T06:53:28.784Z</time>
      </trkpt>
      <trkpt lat="38.018439" lon="-4.207752">
        <ele>236.328184</ele>
        <time>2020-08-11T06:53:30.928Z</time>
      </trkpt>
      <trkpt lat="38.018491" lon="-4.207857">
        <ele>236.314162</ele>
        <time>2020-08-11T06:53:32.785Z</time>
      </trkpt>
      <trkpt lat="38.018527" lon="-4.207970">
        <ele>236.281829</ele>
        <time>2020-08-11T06:53:34.776Z</time>
      </trkpt>
      <trkpt lat="38.018556" lon="-4.208079">
        <ele>236.251311</ele>
        <time>2020-08-11T06:53:36.774Z</time>
      </trkpt>
      <trkpt lat="38.018585" lon="-4.208189">
        <ele>236.220542</ele>
        <time>2020-08-11T06:53:38.784Z</time>
      </trkpt>
      <trkpt lat="38.018630" lon="-4.208303">
        <ele>236.186718</ele>
        <time>2020-08-11T06:53:40.781Z</time>
      </trkpt>
      <trkpt lat="38.018676" lon="-4.208461">
        <ele>236.142036</ele>
        <time>2020-08-11T06:53:43.783Z</time>
      </trkpt>
      <trkpt lat="38.018752" lon="-4.208610">
        <ele>236.094951</ele>
        <time>2020-08-11T06:53:46.771Z</time>
      </trkpt>
      <trkpt lat="38.018797" lon="-4.208714">
        <ele>236.063477</ele>
        <time>2020-08-11T06:53:48.785Z</time>
      </trkpt>
      <trkpt lat="38.018854" lon="-4.208833">
        <ele>236.026534</ele>
        <time>2020-08-11T06:53:51.784Z</time>
      </trkpt>
      <trkpt lat="38.018893" lon="-4.208975">
        <ele>235.986643</ele>
        <time>2020-08-11T06:53:54.785Z</time>
      </trkpt>
      <trkpt lat="38.018931" lon="-4.209116">
        <ele>235.947114</ele>
        <time>2020-08-11T06:53:57.775Z</time>
      </trkpt>
      <trkpt lat="38.018984" lon="-4.209248">
        <ele>235.907814</ele>
        <time>2020-08-11T06:54:00.786Z</time>
      </trkpt>
      <trkpt lat="38.019037" lon="-4.209381">
        <ele>235.868277</ele>
        <time>2020-08-11T06:54:03.781Z</time>
      </trkpt>
      <trkpt lat="38.019092" lon="-4.209523">
        <ele>235.826304</ele>
        <time>2020-08-11T06:54:06.777Z</time>
      </trkpt>
      <trkpt lat="38.019142" lon="-4.209679">
        <ele>235.781630</ele>
        <time>2020-08-11T06:54:09.782Z</time>
      </trkpt>
      <trkpt lat="38.019187" lon="-4.209782">
        <ele>235.750388</ele>
        <time>2020-08-11T06:54:11.786Z</time>
      </trkpt>
      <trkpt lat="38.019212" lon="-4.209898">
        <ele>235.724030</ele>
        <time>2020-08-11T06:54:13.778Z</time>
      </trkpt>
      <trkpt lat="38.019267" lon="-4.210015">
        <ele>235.778136</ele>
        <time>2020-08-11T06:54:16.776Z</time>
      </trkpt>
      <trkpt lat="38.019294" lon="-4.210126">
        <ele>235.824270</ele>
        <time>2020-08-11T06:54:18.777Z</time>
      </trkpt>
      <trkpt lat="38.019337" lon="-4.210226">
        <ele>235.869512</ele>
        <time>2020-08-11T06:54:20.780Z</time>
      </trkpt>
      <trkpt lat="38.019370" lon="-4.210339">
        <ele>235.917371</ele>
        <time>2020-08-11T06:54:22.780Z</time>
      </trkpt>
      <trkpt lat="38.019427" lon="-4.210457">
        <ele>235.972339</ele>
        <time>2020-08-11T06:54:24.792Z</time>
      </trkpt>
      <trkpt lat="38.019461" lon="-4.210572">
        <ele>236.021117</ele>
        <time>2020-08-11T06:54:26.757Z</time>
      </trkpt>
      <trkpt lat="38.019513" lon="-4.210686">
        <ele>236.073430</ele>
        <time>2020-08-11T06:54:28.791Z</time>
      </trkpt>
      <trkpt lat="38.019531" lon="-4.210812">
        <ele>236.124283</ele>
        <time>2020-08-11T06:54:30.775Z</time>
      </trkpt>
      <trkpt lat="38.019562" lon="-4.210988">
        <ele>236.195902</ele>
        <time>2020-08-11T06:54:33.777Z</time>
      </trkpt>
      <trkpt lat="38.019606" lon="-4.211103">
        <ele>236.246671</ele>
        <time>2020-08-11T06:54:35.781Z</time>
      </trkpt>
      <trkpt lat="38.019629" lon="-4.211217">
        <ele>236.293404</ele>
        <time>2020-08-11T06:54:37.782Z</time>
      </trkpt>
      <trkpt lat="38.019669" lon="-4.211339">
        <ele>236.345880</ele>
        <time>2020-08-11T06:54:39.783Z</time>
      </trkpt>
      <trkpt lat="38.019690" lon="-4.211473">
        <ele>236.400137</ele>
        <time>2020-08-11T06:54:41.769Z</time>
      </trkpt>
      <trkpt lat="38.019731" lon="-4.211574">
        <ele>236.445258</ele>
        <time>2020-08-11T06:54:43.777Z</time>
      </trkpt>
      <trkpt lat="38.019768" lon="-4.211679">
        <ele>236.490936</ele>
        <time>2020-08-11T06:54:45.783Z</time>
      </trkpt>
      <trkpt lat="38.019759" lon="-4.211805">
        <ele>236.541178</ele>
        <time>2020-08-11T06:54:47.769Z</time>
      </trkpt>
      <trkpt lat="38.019811" lon="-4.211907">
        <ele>236.589426</ele>
        <time>2020-08-11T06:54:49.777Z</time>
      </trkpt>
      <trkpt lat="38.019842" lon="-4.212028">
        <ele>236.634041</ele>
        <time>2020-08-11T06:54:51.780Z</time>
      </trkpt>
      <trkpt lat="38.019890" lon="-4.212134">
        <ele>236.659771</ele>
        <time>2020-08-11T06:54:53.788Z</time>
      </trkpt>
      <trkpt lat="38.019921" lon="-4.212250">
        <ele>236.685549</ele>
        <time>2020-08-11T06:54:55.779Z</time>
      </trkpt>
      <trkpt lat="38.019959" lon="-4.212361">
        <ele>236.711018</ele>
        <time>2020-08-11T06:54:57.776Z</time>
      </trkpt>
      <trkpt lat="38.019987" lon="-4.212486">
        <ele>236.738366</ele>
        <time>2020-08-11T06:54:59.780Z</time>
      </trkpt>
      <trkpt lat="38.020013" lon="-4.212607">
        <ele>236.764759</ele>
        <time>2020-08-11T06:55:01.777Z</time>
      </trkpt>
      <trkpt lat="38.020074" lon="-4.212762">
        <ele>236.801222</ele>
        <time>2020-08-11T06:55:04.782Z</time>
      </trkpt>
      <trkpt lat="38.020089" lon="-4.212879">
        <ele>236.826167</ele>
        <time>2020-08-11T06:55:06.772Z</time>
      </trkpt>
      <trkpt lat="38.020111" lon="-4.213005">
        <ele>236.853326</ele>
        <time>2020-08-11T06:55:08.774Z</time>
      </trkpt>
      <trkpt lat="38.020101" lon="-4.213137">
        <ele>236.881233</ele>
        <time>2020-08-11T06:55:10.790Z</time>
      </trkpt>
      <trkpt lat="38.020116" lon="-4.213251">
        <ele>236.905555</ele>
        <time>2020-08-11T06:55:12.770Z</time>
      </trkpt>
      <trkpt lat="38.020138" lon="-4.213414">
        <ele>236.940357</ele>
        <time>2020-08-11T06:55:15.785Z</time>
      </trkpt>
      <trkpt lat="38.020168" lon="-4.213529">
        <ele>236.965850</ele>
        <time>2020-08-11T06:55:17.781Z</time>
      </trkpt>
      <trkpt lat="38.020225" lon="-4.213630">
        <ele>236.991996</ele>
        <time>2020-08-11T06:55:19.782Z</time>
      </trkpt>
      <trkpt lat="38.020243" lon="-4.213756">
        <ele>237.018944</ele>
        <time>2020-08-11T06:55:21.775Z</time>
      </trkpt>
      <trkpt lat="38.020266" lon="-4.213883">
        <ele>237.046367</ele>
        <time>2020-08-11T06:55:23.777Z</time>
      </trkpt>
      <trkpt lat="38.020293" lon="-4.214001">
        <ele>237.072225</ele>
        <time>2020-08-11T06:55:25.780Z</time>
      </trkpt>
      <trkpt lat="38.020325" lon="-4.214173">
        <ele>237.105815</ele>
        <time>2020-08-11T06:55:28.783Z</time>
      </trkpt>
      <trkpt lat="38.020359" lon="-4.214282">
        <ele>237.074020</ele>
        <time>2020-08-11T06:55:30.777Z</time>
      </trkpt>
      <trkpt lat="38.020388" lon="-4.214409">
        <ele>237.038159</ele>
        <time>2020-08-11T06:55:32.782Z</time>
      </trkpt>
      <trkpt lat="38.020398" lon="-4.214524">
        <ele>237.006780</ele>
        <time>2020-08-11T06:55:34.775Z</time>
      </trkpt>
      <trkpt lat="38.020434" lon="-4.214641">
        <ele>236.972714</ele>
        <time>2020-08-11T06:55:36.784Z</time>
      </trkpt>
      <trkpt lat="38.020470" lon="-4.214760">
        <ele>236.938142</ele>
        <time>2020-08-11T06:55:38.774Z</time>
      </trkpt>
      <trkpt lat="38.020510" lon="-4.214868">
        <ele>236.905775</ele>
        <time>2020-08-11T06:55:40.779Z</time>
      </trkpt>
      <trkpt lat="38.020532" lon="-4.214989">
        <ele>236.872096</ele>
        <time>2020-08-11T06:55:42.786Z</time>
      </trkpt>
      <trkpt lat="38.020558" lon="-4.215124">
        <ele>236.834405</ele>
        <time>2020-08-11T06:55:44.783Z</time>
      </trkpt>
      <trkpt lat="38.020599" lon="-4.215292">
        <ele>236.786705</ele>
        <time>2020-08-11T06:55:47.786Z</time>
      </trkpt>
      <trkpt lat="38.020605" lon="-4.215423">
        <ele>236.751116</ele>
        <time>2020-08-11T06:55:49.783Z</time>
      </trkpt>
      <trkpt lat="38.020647" lon="-4.215537">
        <ele>236.716984</ele>
        <time>2020-08-11T06:55:51.778Z</time>
      </trkpt>
      <trkpt lat="38.020684" lon="-4.215650">
        <ele>236.683796</ele>
        <time>2020-08-11T06:55:53.786Z</time>
      </trkpt>
      <trkpt lat="38.020708" lon="-4.215773">
        <ele>236.649429</ele>
        <time>2020-08-11T06:55:55.785Z</time>
      </trkpt>
      <trkpt lat="38.020737" lon="-4.215890">
        <ele>236.616164</ele>
        <time>2020-08-11T06:55:57.784Z</time>
      </trkpt>
      <trkpt lat="38.020770" lon="-4.216009">
        <ele>236.581949</ele>
        <time>2020-08-11T06:55:59.777Z</time>
      </trkpt>
      <trkpt lat="38.020793" lon="-4.216125">
        <ele>236.549507</ele>
        <time>2020-08-11T06:56:01.772Z</time>
      </trkpt>
      <trkpt lat="38.020828" lon="-4.216234">
        <ele>236.517584</ele>
        <time>2020-08-11T06:56:03.777Z</time>
      </trkpt>
      <trkpt lat="38.020860" lon="-4.216341">
        <ele>236.484308</ele>
        <time>2020-08-11T06:56:05.771Z</time>
      </trkpt>
      <trkpt lat="38.020896" lon="-4.216451">
        <ele>236.417348</ele>
        <time>2020-08-11T06:56:07.789Z</time>
      </trkpt>
      <trkpt lat="38.020919" lon="-4.216562">
        <ele>236.352827</ele>
        <time>2020-08-11T06:56:09.780Z</time>
      </trkpt>
      <trkpt lat="38.020952" lon="-4.216683">
        <ele>236.280847</ele>
        <time>2020-08-11T06:56:11.773Z</time>
      </trkpt>
      <trkpt lat="38.020977" lon="-4.216798">
        <ele>236.213784</ele>
        <time>2020-08-11T06:56:13.781Z</time>
      </trkpt>
      <trkpt lat="38.021001" lon="-4.216920">
        <ele>236.143096</ele>
        <time>2020-08-11T06:56:15.782Z</time>
      </trkpt>
      <trkpt lat="38.021023" lon="-4.217040">
        <ele>236.073836</ele>
        <time>2020-08-11T06:56:17.780Z</time>
      </trkpt>
      <trkpt lat="38.021055" lon="-4.217186">
        <ele>235.988645</ele>
        <time>2020-08-11T06:56:20.781Z</time>
      </trkpt>
      <trkpt lat="38.021087" lon="-4.217299">
        <ele>235.921143</ele>
        <time>2020-08-11T06:56:22.770Z</time>
      </trkpt>
      <trkpt lat="38.021104" lon="-4.217418">
        <ele>235.853157</ele>
        <time>2020-08-11T06:56:24.783Z</time>
      </trkpt>
      <trkpt lat="38.021155" lon="-4.217520">
        <ele>235.785244</ele>
        <time>2020-08-11T06:56:26.780Z</time>
      </trkpt>
      <trkpt lat="38.021202" lon="-4.217625">
        <ele>235.717356</ele>
        <time>2020-08-11T06:56:28.775Z</time>
      </trkpt>
      <trkpt lat="38.021269" lon="-4.217772">
        <ele>235.621887</ele>
        <time>2020-08-11T06:56:31.784Z</time>
      </trkpt>
      <trkpt lat="38.021350" lon="-4.217883">
        <ele>235.536832</ele>
        <time>2020-08-11T06:56:34.783Z</time>
      </trkpt>
      <trkpt lat="38.021270" lon="-4.217808">
        <ele>235.465865</ele>
        <time>2020-08-11T06:56:41.759Z</time>
      </trkpt>
      <trkpt lat="38.021194" lon="-4.217696">
        <ele>235.382768</ele>
        <time>2020-08-11T06:56:45.767Z</time>
      </trkpt>
      <trkpt lat="38.021142" lon="-4.217600">
        <ele>235.317276</ele>
        <time>2020-08-11T06:56:48.773Z</time>
      </trkpt>
      <trkpt lat="38.021137" lon="-4.217468">
        <ele>235.242987</ele>
        <time>2020-08-11T06:56:52.778Z</time>
      </trkpt>
      <trkpt lat="38.021260" lon="-4.217664">
        <ele>235.289987</ele>
        <time>2020-08-11T07:02:42.769Z</time>
      </trkpt>
      <trkpt lat="38.021343" lon="-4.217764">
        <ele>235.357218</ele>
        <time>2020-08-11T07:02:45.779Z</time>
      </trkpt>
      <trkpt lat="38.021413" lon="-4.217884">
        <ele>235.426325</ele>
        <time>2020-08-11T07:02:48.772Z</time>
      </trkpt>
      <trkpt lat="38.021507" lon="-4.218006">
        <ele>235.505307</ele>
        <time>2020-08-11T07:02:51.771Z</time>
      </trkpt>
      <trkpt lat="38.021573" lon="-4.218090">
        <ele>235.560215</ele>
        <time>2020-08-11T07:02:53.777Z</time>
      </trkpt>
      <trkpt lat="38.021654" lon="-4.218156">
        <ele>235.616763</ele>
        <time>2020-08-11T07:02:55.776Z</time>
      </trkpt>
      <trkpt lat="38.021733" lon="-4.218222">
        <ele>235.672326</ele>
        <time>2020-08-11T07:02:57.765Z</time>
      </trkpt>
      <trkpt lat="38.021832" lon="-4.218298">
        <ele>235.740298</ele>
        <time>2020-08-11T07:03:00.785Z</time>
      </trkpt>
      <trkpt lat="38.021941" lon="-4.218340">
        <ele>235.807221</ele>
        <time>2020-08-11T07:03:03.791Z</time>
      </trkpt>
      <trkpt lat="38.022047" lon="-4.218391">
        <ele>235.873819</ele>
        <time>2020-08-11T07:03:06.781Z</time>
      </trkpt>
      <trkpt lat="38.022150" lon="-4.218440">
        <ele>235.938442</ele>
        <time>2020-08-11T07:03:09.772Z</time>
      </trkpt>
      <trkpt lat="38.022243" lon="-4.218514">
        <ele>236.002927</ele>
        <time>2020-08-11T07:03:12.774Z</time>
      </trkpt>
      <trkpt lat="38.022317" lon="-4.218610">
        <ele>236.065089</ele>
        <time>2020-08-11T07:03:15.777Z</time>
      </trkpt>
      <trkpt lat="38.022360" lon="-4.218736">
        <ele>236.128641</ele>
        <time>2020-08-11T07:03:18.765Z</time>
      </trkpt>
      <trkpt lat="38.022391" lon="-4.218850">
        <ele>236.184457</ele>
        <time>2020-08-11T07:03:21.789Z</time>
      </trkpt>
      <trkpt lat="38.022428" lon="-4.218985">
        <ele>236.250611</ele>
        <time>2020-08-11T07:03:25.777Z</time>
      </trkpt>
      <trkpt lat="38.022470" lon="-4.219114">
        <ele>236.450166</ele>
        <time>2020-08-11T07:03:29.785Z</time>
      </trkpt>
      <trkpt lat="38.022515" lon="-4.219249">
        <ele>236.689635</ele>
        <time>2020-08-11T07:03:33.779Z</time>
      </trkpt>
      <trkpt lat="38.022557" lon="-4.219364">
        <ele>236.896709</ele>
        <time>2020-08-11T07:03:37.785Z</time>
      </trkpt>
      <trkpt lat="38.022601" lon="-4.219478">
        <ele>237.104092</ele>
        <time>2020-08-11T07:03:41.777Z</time>
      </trkpt>
      <trkpt lat="38.022657" lon="-4.219595">
        <ele>237.327739</ele>
        <time>2020-08-11T07:03:45.784Z</time>
      </trkpt>
      <trkpt lat="38.022719" lon="-4.219703">
        <ele>237.546046</ele>
        <time>2020-08-11T07:03:49.774Z</time>
      </trkpt>
      <trkpt lat="38.022783" lon="-4.219816">
        <ele>237.773402</ele>
        <time>2020-08-11T07:03:53.777Z</time>
      </trkpt>
      <trkpt lat="38.022833" lon="-4.219927">
        <ele>237.982284</ele>
        <time>2020-08-11T07:03:59.783Z</time>
      </trkpt>
      <trkpt lat="38.022888" lon="-4.220037">
        <ele>238.195121</ele>
        <time>2020-08-11T07:04:03.768Z</time>
      </trkpt>
      <trkpt lat="38.022945" lon="-4.220146">
        <ele>238.408846</ele>
        <time>2020-08-11T07:04:07.788Z</time>
      </trkpt>
      <trkpt lat="38.022999" lon="-4.220260">
        <ele>238.626152</ele>
        <time>2020-08-11T07:04:11.790Z</time>
      </trkpt>
      <trkpt lat="38.023038" lon="-4.220390">
        <ele>238.853400</ele>
        <time>2020-08-11T07:04:15.768Z</time>
      </trkpt>
      <trkpt lat="38.023070" lon="-4.220519">
        <ele>239.074336</ele>
        <time>2020-08-11T07:04:19.772Z</time>
      </trkpt>
      <trkpt lat="38.023135" lon="-4.220621">
        <ele>239.288658</ele>
        <time>2020-08-11T07:04:23.760Z</time>
      </trkpt>
      <trkpt lat="38.023199" lon="-4.220733">
        <ele>239.514688</ele>
        <time>2020-08-11T07:04:27.777Z</time>
      </trkpt>
      <trkpt lat="38.023231" lon="-4.220866">
        <ele>239.741865</ele>
        <time>2020-08-11T07:04:31.772Z</time>
      </trkpt>
      <trkpt lat="38.023263" lon="-4.220977">
        <ele>239.934956</ele>
        <time>2020-08-11T07:04:34.775Z</time>
      </trkpt>
      <trkpt lat="38.023306" lon="-4.221081">
        <ele>240.245892</ele>
        <time>2020-08-11T07:04:38.769Z</time>
      </trkpt>
      <trkpt lat="38.023340" lon="-4.221196">
        <ele>240.623431</ele>
        <time>2020-08-11T07:04:42.771Z</time>
      </trkpt>
      <trkpt lat="38.023370" lon="-4.221321">
        <ele>241.025068</ele>
        <time>2020-08-11T07:04:46.774Z</time>
      </trkpt>
      <trkpt lat="38.023391" lon="-4.221454">
        <ele>241.441989</ele>
        <time>2020-08-11T07:04:50.778Z</time>
      </trkpt>
      <trkpt lat="38.023422" lon="-4.221570">
        <ele>241.818486</ele>
        <time>2020-08-11T07:04:54.783Z</time>
      </trkpt>
      <trkpt lat="38.023443" lon="-4.221691">
        <ele>242.199311</ele>
        <time>2020-08-11T07:04:58.781Z</time>
      </trkpt>
      <trkpt lat="38.023472" lon="-4.221813">
        <ele>242.590991</ele>
        <time>2020-08-11T07:05:02.776Z</time>
      </trkpt>
      <trkpt lat="38.023501" lon="-4.221940">
        <ele>242.997408</ele>
        <time>2020-08-11T07:05:06.789Z</time>
      </trkpt>
      <trkpt lat="38.023543" lon="-4.222060">
        <ele>243.401006</ele>
        <time>2020-08-11T07:05:10.754Z</time>
      </trkpt>
      <trkpt lat="38.023578" lon="-4.222194">
        <ele>243.834919</ele>
        <time>2020-08-11T07:05:14.781Z</time>
      </trkpt>
      <trkpt lat="38.023619" lon="-4.222326">
        <ele>244.271033</ele>
        <time>2020-08-11T07:05:18.781Z</time>
      </trkpt>
      <trkpt lat="38.023669" lon="-4.222437">
        <ele>244.664041</ele>
        <time>2020-08-11T07:05:21.763Z</time>
      </trkpt>
      <trkpt lat="38.023727" lon="-4.222557">
        <ele>245.096763</ele>
        <time>2020-08-11T07:05:25.772Z</time>
      </trkpt>
      <trkpt lat="38.023799" lon="-4.222677">
        <ele>245.560395</ele>
        <time>2020-08-11T07:05:29.777Z</time>
      </trkpt>
      <trkpt lat="38.023846" lon="-4.222775">
        <ele>245.913038</ele>
        <time>2020-08-11T07:05:32.774Z</time>
      </trkpt>
      <trkpt lat="38.023887" lon="-4.222880">
        <ele>246.273237</ele>
        <time>2020-08-11T07:05:35.776Z</time>
      </trkpt>
      <trkpt lat="38.023928" lon="-4.222995">
        <ele>246.661215</ele>
        <time>2020-08-11T07:05:38.774Z</time>
      </trkpt>
      <trkpt lat="38.023957" lon="-4.223107">
        <ele>247.015883</ele>
        <time>2020-08-11T07:05:41.756Z</time>
      </trkpt>
      <trkpt lat="38.023982" lon="-4.223240">
        <ele>247.205592</ele>
        <time>2020-08-11T07:05:45.756Z</time>
      </trkpt>
      <trkpt lat="38.023990" lon="-4.223373">
        <ele>247.390657</ele>
        <time>2020-08-11T07:05:49.773Z</time>
      </trkpt>
      <trkpt lat="38.023993" lon="-4.223523">
        <ele>247.598838</ele>
        <time>2020-08-11T07:05:53.775Z</time>
      </trkpt>
      <trkpt lat="38.024009" lon="-4.223666">
        <ele>247.799231</ele>
        <time>2020-08-11T07:05:57.780Z</time>
      </trkpt>
      <trkpt lat="38.024023" lon="-4.223793">
        <ele>247.977151</ele>
        <time>2020-08-11T07:06:01.772Z</time>
      </trkpt>
      <trkpt lat="38.024033" lon="-4.223911">
        <ele>248.141812</ele>
        <time>2020-08-11T07:06:05.777Z</time>
      </trkpt>
      <trkpt lat="38.024043" lon="-4.224028">
        <ele>248.305094</ele>
        <time>2020-08-11T07:06:09.775Z</time>
      </trkpt>
      <trkpt lat="38.024066" lon="-4.224161">
        <ele>248.494015</ele>
        <time>2020-08-11T07:06:14.772Z</time>
      </trkpt>
      <trkpt lat="38.024079" lon="-4.224297">
        <ele>248.684089</ele>
        <time>2020-08-11T07:06:19.770Z</time>
      </trkpt>
      <trkpt lat="38.024107" lon="-4.224410">
        <ele>248.848442</ele>
        <time>2020-08-11T07:06:23.785Z</time>
      </trkpt>
      <trkpt lat="38.024148" lon="-4.224528">
        <ele>249.027376</ele>
        <time>2020-08-11T07:06:27.785Z</time>
      </trkpt>
      <trkpt lat="38.024182" lon="-4.224651">
        <ele>249.208230</ele>
        <time>2020-08-11T07:06:31.776Z</time>
      </trkpt>
      <trkpt lat="38.024209" lon="-4.224787">
        <ele>249.402820</ele>
        <time>2020-08-11T07:06:35.777Z</time>
      </trkpt>
      <trkpt lat="38.024242" lon="-4.224894">
        <ele>249.562246</ele>
        <time>2020-08-11T07:06:39.774Z</time>
      </trkpt>
      <trkpt lat="38.024275" lon="-4.225030">
        <ele>249.759684</ele>
        <time>2020-08-11T07:06:44.768Z</time>
      </trkpt>
      <trkpt lat="38.024290" lon="-4.225168">
        <ele>249.952962</ele>
        <time>2020-08-11T07:06:48.784Z</time>
      </trkpt>
      <trkpt lat="38.024320" lon="-4.225302">
        <ele>250.146239</ele>
        <time>2020-08-11T07:06:52.782Z</time>
      </trkpt>
      <trkpt lat="38.024362" lon="-4.225418">
        <ele>250.397696</ele>
        <time>2020-08-11T07:06:56.778Z</time>
      </trkpt>
      <trkpt lat="38.024400" lon="-4.225551">
        <ele>250.693948</ele>
        <time>2020-08-11T07:07:00.793Z</time>
      </trkpt>
      <trkpt lat="38.024424" lon="-4.225685">
        <ele>250.981703</ele>
        <time>2020-08-11T07:07:04.792Z</time>
      </trkpt>
      <trkpt lat="38.024456" lon="-4.225821">
        <ele>251.278916</ele>
        <time>2020-08-11T07:07:08.793Z</time>
      </trkpt>
      <trkpt lat="38.024487" lon="-4.225960">
        <ele>251.581419</ele>
        <time>2020-08-11T07:07:12.781Z</time>
      </trkpt>
      <trkpt lat="38.024512" lon="-4.226071">
        <ele>251.823164</ele>
        <time>2020-08-11T07:07:15.781Z</time>
      </trkpt>
      <trkpt lat="38.024543" lon="-4.226205">
        <ele>252.115606</ele>
        <time>2020-08-11T07:07:19.782Z</time>
      </trkpt>
      <trkpt lat="38.024571" lon="-4.226320">
        <ele>252.367653</ele>
        <time>2020-08-11T07:07:23.797Z</time>
      </trkpt>
      <trkpt lat="38.024588" lon="-4.226437">
        <ele>252.616781</ele>
        <time>2020-08-11T07:07:27.783Z</time>
      </trkpt>
      <trkpt lat="38.024608" lon="-4.226559">
        <ele>252.877719</ele>
        <time>2020-08-11T07:07:31.789Z</time>
      </trkpt>
      <trkpt lat="38.024631" lon="-4.226686">
        <ele>253.150591</ele>
        <time>2020-08-11T07:07:35.777Z</time>
      </trkpt>
      <trkpt lat="38.024643" lon="-4.226817">
        <ele>253.426750</ele>
        <time>2020-08-11T07:07:39.777Z</time>
      </trkpt>
      <trkpt lat="38.024661" lon="-4.226948">
        <ele>253.705202</ele>
        <time>2020-08-11T07:07:43.757Z</time>
      </trkpt>
      <trkpt lat="38.024683" lon="-4.227060">
        <ele>253.946908</ele>
        <time>2020-08-11T07:07:47.774Z</time>
      </trkpt>
      <trkpt lat="38.024696" lon="-4.227174">
        <ele>254.188109</ele>
        <time>2020-08-11T07:07:51.772Z</time>
      </trkpt>
      <trkpt lat="38.024716" lon="-4.227305">
        <ele>254.467523</ele>
        <time>2020-08-11T07:07:56.762Z</time>
      </trkpt>
      <trkpt lat="38.024741" lon="-4.227428">
        <ele>254.733517</ele>
        <time>2020-08-11T07:08:01.766Z</time>
      </trkpt>
      <trkpt lat="38.024770" lon="-4.227564">
        <ele>254.945933</ele>
        <time>2020-08-11T07:08:05.795Z</time>
      </trkpt>
      <trkpt lat="38.024781" lon="-4.227722">
        <ele>254.886172</ele>
        <time>2020-08-11T07:08:08.778Z</time>
      </trkpt>
      <trkpt lat="38.024799" lon="-4.227855">
        <ele>254.835328</ele>
        <time>2020-08-11T07:08:11.776Z</time>
      </trkpt>
      <trkpt lat="38.024827" lon="-4.227966">
        <ele>254.791415</ele>
        <time>2020-08-11T07:08:14.772Z</time>
      </trkpt>
      <trkpt lat="38.024846" lon="-4.228090">
        <ele>254.743820</ele>
        <time>2020-08-11T07:08:17.786Z</time>
      </trkpt>
      <trkpt lat="38.024854" lon="-4.228212">
        <ele>254.697696</ele>
        <time>2020-08-11T07:08:20.771Z</time>
      </trkpt>
      <trkpt lat="38.024853" lon="-4.228359">
        <ele>254.642309</ele>
        <time>2020-08-11T07:08:23.776Z</time>
      </trkpt>
      <trkpt lat="38.024855" lon="-4.228508">
        <ele>254.586163</ele>
        <time>2020-08-11T07:08:26.796Z</time>
      </trkpt>
      <trkpt lat="38.024858" lon="-4.228653">
        <ele>254.531513</ele>
        <time>2020-08-11T07:08:29.776Z</time>
      </trkpt>
      <trkpt lat="38.024866" lon="-4.228840">
        <ele>254.460954</ele>
        <time>2020-08-11T07:08:32.769Z</time>
      </trkpt>
      <trkpt lat="38.024866" lon="-4.228986">
        <ele>254.405946</ele>
        <time>2020-08-11T07:08:34.770Z</time>
      </trkpt>
      <trkpt lat="38.024888" lon="-4.229112">
        <ele>254.357321</ele>
        <time>2020-08-11T07:08:36.802Z</time>
      </trkpt>
      <trkpt lat="38.024888" lon="-4.229240">
        <ele>254.309095</ele>
        <time>2020-08-11T07:08:38.777Z</time>
      </trkpt>
      <trkpt lat="38.024885" lon="-4.229367">
        <ele>254.261224</ele>
        <time>2020-08-11T07:08:40.782Z</time>
      </trkpt>
      <trkpt lat="38.024911" lon="-4.229523">
        <ele>254.201148</ele>
        <time>2020-08-11T07:08:43.769Z</time>
      </trkpt>
      <trkpt lat="38.024902" lon="-4.229644">
        <ele>254.155356</ele>
        <time>2020-08-11T07:08:45.792Z</time>
      </trkpt>
      <trkpt lat="38.024926" lon="-4.229799">
        <ele>254.099481</ele>
        <time>2020-08-11T07:08:48.780Z</time>
      </trkpt>
      <trkpt lat="38.024926" lon="-4.229949">
        <ele>254.127787</ele>
        <time>2020-08-11T07:08:51.803Z</time>
      </trkpt>
      <trkpt lat="38.024946" lon="-4.230076">
        <ele>254.152227</ele>
        <time>2020-08-11T07:08:54.796Z</time>
      </trkpt>
      <trkpt lat="38.024979" lon="-4.230217">
        <ele>254.179984</ele>
        <time>2020-08-11T07:08:57.791Z</time>
      </trkpt>
      <trkpt lat="38.025023" lon="-4.230371">
        <ele>254.210897</ele>
        <time>2020-08-11T07:09:00.784Z</time>
      </trkpt>
      <trkpt lat="38.025060" lon="-4.230497">
        <ele>254.236272</ele>
        <time>2020-08-11T07:09:02.781Z</time>
      </trkpt>
      <trkpt lat="38.025119" lon="-4.230623">
        <ele>254.263932</ele>
        <time>2020-08-11T07:09:05.787Z</time>
      </trkpt>
      <trkpt lat="38.025170" lon="-4.230780">
        <ele>254.295979</ele>
        <time>2020-08-11T07:09:08.789Z</time>
      </trkpt>
      <trkpt lat="38.025208" lon="-4.230900">
        <ele>254.320385</ele>
        <time>2020-08-11T07:09:10.783Z</time>
      </trkpt>
      <trkpt lat="38.025261" lon="-4.231001">
        <ele>254.343286</ele>
        <time>2020-08-11T07:09:12.763Z</time>
      </trkpt>
      <trkpt lat="38.025306" lon="-4.231157">
        <ele>254.374635</ele>
        <time>2020-08-11T07:09:15.816Z</time>
      </trkpt>
      <trkpt lat="38.025375" lon="-4.231233">
        <ele>254.396519</ele>
        <time>2020-08-11T07:09:17.773Z</time>
      </trkpt>
      <trkpt lat="38.025412" lon="-4.231349">
        <ele>254.420135</ele>
        <time>2020-08-11T07:09:19.783Z</time>
      </trkpt>
      <trkpt lat="38.025489" lon="-4.231474">
        <ele>254.450079</ele>
        <time>2020-08-11T07:09:22.781Z</time>
      </trkpt>
      <trkpt lat="38.025524" lon="-4.231602">
        <ele>254.475647</ele>
        <time>2020-08-11T07:09:24.780Z</time>
      </trkpt>
      <trkpt lat="38.025576" lon="-4.231700">
        <ele>254.497944</ele>
        <time>2020-08-11T07:09:26.794Z</time>
      </trkpt>
      <trkpt lat="38.025606" lon="-4.231807">
        <ele>254.519376</ele>
        <time>2020-08-11T07:09:28.787Z</time>
      </trkpt>
      <trkpt lat="38.025629" lon="-4.231921">
        <ele>254.939983</ele>
        <time>2020-08-11T07:09:30.781Z</time>
      </trkpt>
      <trkpt lat="38.025667" lon="-4.232065">
        <ele>255.885863</ele>
        <time>2020-08-11T07:09:32.785Z</time>
      </trkpt>
      <trkpt lat="38.025698" lon="-4.232204">
        <ele>256.785641</ele>
        <time>2020-08-11T07:09:34.777Z</time>
      </trkpt>
      <trkpt lat="38.025735" lon="-4.232346">
        <ele>257.717203</ele>
        <time>2020-08-11T07:09:36.776Z</time>
      </trkpt>
      <trkpt lat="38.025755" lon="-4.232473">
        <ele>258.523863</ele>
        <time>2020-08-11T07:09:38.822Z</time>
      </trkpt>
      <trkpt lat="38.025772" lon="-4.232608">
        <ele>259.375373</ele>
        <time>2020-08-11T07:09:40.785Z</time>
      </trkpt>
      <trkpt lat="38.025796" lon="-4.232731">
        <ele>260.164619</ele>
        <time>2020-08-11T07:09:42.784Z</time>
      </trkpt>
      <trkpt lat="38.025830" lon="-4.232840">
        <ele>260.894803</ele>
        <time>2020-08-11T07:09:44.793Z</time>
      </trkpt>
      <trkpt lat="38.025875" lon="-4.232990">
        <ele>261.894521</ele>
        <time>2020-08-11T07:09:47.419Z</time>
      </trkpt>
      <trkpt lat="38.025910" lon="-4.233099">
        <ele>262.627652</ele>
        <time>2020-08-11T07:09:49.425Z</time>
      </trkpt>
      <trkpt lat="38.025954" lon="-4.233206">
        <ele>263.379431</ele>
        <time>2020-08-11T07:09:51.418Z</time>
      </trkpt>
      <trkpt lat="38.026021" lon="-4.233391">
        <ele>264.647626</ele>
        <time>2020-08-11T07:09:55.413Z</time>
      </trkpt>
      <trkpt lat="38.026056" lon="-4.233507">
        <ele>265.421304</ele>
        <time>2020-08-11T07:09:57.414Z</time>
      </trkpt>
      <trkpt lat="38.026120" lon="-4.233638">
        <ele>266.381403</ele>
        <time>2020-08-11T07:10:00.426Z</time>
      </trkpt>
      <trkpt lat="38.026171" lon="-4.233784">
        <ele>267.376143</ele>
        <time>2020-08-11T07:10:03.425Z</time>
      </trkpt>
      <trkpt lat="38.026221" lon="-4.233936">
        <ele>268.402084</ele>
        <time>2020-08-11T07:10:06.423Z</time>
      </trkpt>
      <trkpt lat="38.026275" lon="-4.234032">
        <ele>268.906131</ele>
        <time>2020-08-11T07:10:08.420Z</time>
      </trkpt>
      <trkpt lat="38.026311" lon="-4.234142">
        <ele>269.204983</ele>
        <time>2020-08-11T07:10:10.411Z</time>
      </trkpt>
      <trkpt lat="38.026373" lon="-4.234287">
        <ele>269.618915</ele>
        <time>2020-08-11T07:10:13.439Z</time>
      </trkpt>
      <trkpt lat="38.026449" lon="-4.234426">
        <ele>270.043429</ele>
        <time>2020-08-11T07:10:16.415Z</time>
      </trkpt>
      <trkpt lat="38.026505" lon="-4.234538">
        <ele>270.376254</ele>
        <time>2020-08-11T07:10:19.437Z</time>
      </trkpt>
      <trkpt lat="38.026534" lon="-4.234712">
        <ele>270.822469</ele>
        <time>2020-08-11T07:10:22.422Z</time>
      </trkpt>
      <trkpt lat="38.026538" lon="-4.234852">
        <ele>271.173947</ele>
        <time>2020-08-11T07:10:25.410Z</time>
      </trkpt>
      <trkpt lat="38.026532" lon="-4.235007">
        <ele>271.563297</ele>
        <time>2020-08-11T07:10:28.415Z</time>
      </trkpt>
      <trkpt lat="38.026532" lon="-4.235157">
        <ele>271.939634</ele>
        <time>2020-08-11T07:10:31.409Z</time>
      </trkpt>
      <trkpt lat="38.026528" lon="-4.235301">
        <ele>272.301141</ele>
        <time>2020-08-11T07:10:34.425Z</time>
      </trkpt>
      <trkpt lat="38.026513" lon="-4.235431">
        <ele>272.630780</ele>
        <time>2020-08-11T07:10:37.413Z</time>
      </trkpt>
      <trkpt lat="38.026490" lon="-4.235564">
        <ele>272.972412</ele>
        <time>2020-08-11T07:10:40.431Z</time>
      </trkpt>
      <trkpt lat="38.026469" lon="-4.235695">
        <ele>273.307816</ele>
        <time>2020-08-11T07:10:43.416Z</time>
      </trkpt>
      <trkpt lat="38.026425" lon="-4.235809">
        <ele>273.626319</ele>
        <time>2020-08-11T07:10:46.416Z</time>
      </trkpt>
      <trkpt lat="38.026382" lon="-4.235922">
        <ele>273.941173</ele>
        <time>2020-08-11T07:10:49.427Z</time>
      </trkpt>
      <trkpt lat="38.026351" lon="-4.236047">
        <ele>274.269963</ele>
        <time>2020-08-11T07:10:52.432Z</time>
      </trkpt>
      <trkpt lat="38.026313" lon="-4.236166">
        <ele>274.332308</ele>
        <time>2020-08-11T07:10:55.425Z</time>
      </trkpt>
      <trkpt lat="38.026281" lon="-4.236277">
        <ele>273.946414</ele>
        <time>2020-08-11T07:10:58.428Z</time>
      </trkpt>
      <trkpt lat="38.026244" lon="-4.236414">
        <ele>273.473585</ele>
        <time>2020-08-11T07:11:02.433Z</time>
      </trkpt>
      <trkpt lat="38.026222" lon="-4.236536">
        <ele>273.064982</ele>
        <time>2020-08-11T07:11:05.432Z</time>
      </trkpt>
      <trkpt lat="38.026196" lon="-4.236653">
        <ele>272.668097</ele>
        <time>2020-08-11T07:11:08.427Z</time>
      </trkpt>
      <trkpt lat="38.026164" lon="-4.236774">
        <ele>272.251392</ele>
        <time>2020-08-11T07:11:11.448Z</time>
      </trkpt>
      <trkpt lat="38.026123" lon="-4.236885">
        <ele>271.851142</ele>
        <time>2020-08-11T07:11:14.412Z</time>
      </trkpt>
      <trkpt lat="38.026088" lon="-4.237025">
        <ele>271.371609</ele>
        <time>2020-08-11T07:11:18.418Z</time>
      </trkpt>
      <trkpt lat="38.026055" lon="-4.237132">
        <ele>270.996460</ele>
        <time>2020-08-11T07:11:21.424Z</time>
      </trkpt>
      <trkpt lat="38.026020" lon="-4.237240">
        <ele>270.615193</ele>
        <time>2020-08-11T07:11:24.413Z</time>
      </trkpt>
      <trkpt lat="38.025993" lon="-4.237354">
        <ele>270.226551</ele>
        <time>2020-08-11T07:11:27.424Z</time>
      </trkpt>
      <trkpt lat="38.025969" lon="-4.237468">
        <ele>269.841305</ele>
        <time>2020-08-11T07:11:30.436Z</time>
      </trkpt>
      <trkpt lat="38.025933" lon="-4.237608">
        <ele>269.360501</ele>
        <time>2020-08-11T07:11:34.423Z</time>
      </trkpt>
      <trkpt lat="38.025893" lon="-4.237742">
        <ele>268.892664</ele>
        <time>2020-08-11T07:11:38.435Z</time>
      </trkpt>
      <trkpt lat="38.025866" lon="-4.237859">
        <ele>268.494632</ele>
        <time>2020-08-11T07:11:41.407Z</time>
      </trkpt>
      <trkpt lat="38.025848" lon="-4.237972">
        <ele>268.118245</ele>
        <time>2020-08-11T07:11:44.423Z</time>
      </trkpt>
      <trkpt lat="38.025814" lon="-4.238112">
        <ele>267.639948</ele>
        <time>2020-08-11T07:11:48.422Z</time>
      </trkpt>
      <trkpt lat="38.025784" lon="-4.238226">
        <ele>267.247544</ele>
        <time>2020-08-11T07:11:51.431Z</time>
      </trkpt>
      <trkpt lat="38.025753" lon="-4.238346">
        <ele>267.068561</ele>
        <time>2020-08-11T07:11:54.418Z</time>
      </trkpt>
      <trkpt lat="38.025722" lon="-4.238483">
        <ele>267.176261</ele>
        <time>2020-08-11T07:11:57.425Z</time>
      </trkpt>
      <trkpt lat="38.025685" lon="-4.238613">
        <ele>267.280701</ele>
        <time>2020-08-11T07:12:00.427Z</time>
      </trkpt>
      <trkpt lat="38.025663" lon="-4.238741">
        <ele>267.379690</ele>
        <time>2020-08-11T07:12:03.427Z</time>
      </trkpt>
      <trkpt lat="38.025639" lon="-4.238861">
        <ele>267.473237</ele>
        <time>2020-08-11T07:12:06.413Z</time>
      </trkpt>
      <trkpt lat="38.025607" lon="-4.238969">
        <ele>267.560421</ele>
        <time>2020-08-11T07:12:09.425Z</time>
      </trkpt>
      <trkpt lat="38.025578" lon="-4.239117">
        <ele>267.675654</ele>
        <time>2020-08-11T07:12:13.414Z</time>
      </trkpt>
      <trkpt lat="38.025537" lon="-4.239229">
        <ele>267.768971</ele>
        <time>2020-08-11T07:12:16.414Z</time>
      </trkpt>
      <trkpt lat="38.025489" lon="-4.239345">
        <ele>267.867975</ele>
        <time>2020-08-11T07:12:19.431Z</time>
      </trkpt>
      <trkpt lat="38.025431" lon="-4.239460">
        <ele>267.971150</ele>
        <time>2020-08-11T07:12:22.419Z</time>
      </trkpt>
      <trkpt lat="38.025382" lon="-4.239566">
        <ele>268.064014</ele>
        <time>2020-08-11T07:12:25.416Z</time>
      </trkpt>
      <trkpt lat="38.025326" lon="-4.239670">
        <ele>268.159198</ele>
        <time>2020-08-11T07:12:28.414Z</time>
      </trkpt>
      <trkpt lat="38.025266" lon="-4.239786">
        <ele>268.264052</ele>
        <time>2020-08-11T07:12:31.412Z</time>
      </trkpt>
      <trkpt lat="38.025199" lon="-4.239900">
        <ele>268.371520</ele>
        <time>2020-08-11T07:12:33.422Z</time>
      </trkpt>
      <trkpt lat="38.025139" lon="-4.240005">
        <ele>268.469532</ele>
        <time>2020-08-11T07:12:35.417Z</time>
      </trkpt>
      <trkpt lat="38.025082" lon="-4.240109">
        <ele>268.565262</ele>
        <time>2020-08-11T07:12:37.426Z</time>
      </trkpt>
      <trkpt lat="38.025009" lon="-4.240220">
        <ele>268.674518</ele>
        <time>2020-08-11T07:12:39.415Z</time>
      </trkpt>
      <trkpt lat="38.024949" lon="-4.240369">
        <ele>269.330720</ele>
        <time>2020-08-11T07:12:41.421Z</time>
      </trkpt>
      <trkpt lat="38.024887" lon="-4.240534">
        <ele>270.902977</ele>
        <time>2020-08-11T07:12:43.412Z</time>
      </trkpt>
      <trkpt lat="38.024835" lon="-4.240677">
        <ele>272.257560</ele>
        <time>2020-08-11T07:12:45.420Z</time>
      </trkpt>
      <trkpt lat="38.024776" lon="-4.240848">
        <ele>273.863129</ele>
        <time>2020-08-11T07:12:47.423Z</time>
      </trkpt>
      <trkpt lat="38.024716" lon="-4.241026">
        <ele>275.528284</ele>
        <time>2020-08-11T07:12:49.418Z</time>
      </trkpt>
      <trkpt lat="38.024668" lon="-4.241194">
        <ele>277.065272</ele>
        <time>2020-08-11T07:12:51.416Z</time>
      </trkpt>
      <trkpt lat="38.024617" lon="-4.241377">
        <ele>278.734758</ele>
        <time>2020-08-11T07:12:53.418Z</time>
      </trkpt>
      <trkpt lat="38.024554" lon="-4.241557">
        <ele>280.428777</ele>
        <time>2020-08-11T07:12:55.425Z</time>
      </trkpt>
      <trkpt lat="38.024492" lon="-4.241752">
        <ele>282.237334</ele>
        <time>2020-08-11T07:12:57.402Z</time>
      </trkpt>
      <trkpt lat="38.024430" lon="-4.241935">
        <ele>283.950624</ele>
        <time>2020-08-11T07:12:59.410Z</time>
      </trkpt>
      <trkpt lat="38.024364" lon="-4.242134">
        <ele>285.807636</ele>
        <time>2020-08-11T07:13:01.407Z</time>
      </trkpt>
      <trkpt lat="38.024283" lon="-4.242321">
        <ele>287.643041</ele>
        <time>2020-08-11T07:13:03.422Z</time>
      </trkpt>
      <trkpt lat="38.024235" lon="-4.242419">
        <ele>288.371881</ele>
        <time>2020-08-11T07:13:04.422Z</time>
      </trkpt>
      <trkpt lat="38.024179" lon="-4.242516">
        <ele>288.307619</ele>
        <time>2020-08-11T07:13:05.420Z</time>
      </trkpt>
      <trkpt lat="38.024136" lon="-4.242624">
        <ele>288.242955</ele>
        <time>2020-08-11T07:13:06.411Z</time>
      </trkpt>
      <trkpt lat="38.024038" lon="-4.242809">
        <ele>288.123826</ele>
        <time>2020-08-11T07:13:08.416Z</time>
      </trkpt>
      <trkpt lat="38.023985" lon="-4.242903">
        <ele>288.062055</ele>
        <time>2020-08-11T07:13:09.409Z</time>
      </trkpt>
      <trkpt lat="38.023888" lon="-4.243090">
        <ele>287.942412</ele>
        <time>2020-08-11T07:13:11.425Z</time>
      </trkpt>
      <trkpt lat="38.023781" lon="-4.243268">
        <ele>287.822765</ele>
        <time>2020-08-11T07:13:13.419Z</time>
      </trkpt>
      <trkpt lat="38.023687" lon="-4.243455">
        <ele>287.704228</ele>
        <time>2020-08-11T07:13:15.427Z</time>
      </trkpt>
      <trkpt lat="38.023615" lon="-4.243639">
        <ele>287.594443</ele>
        <time>2020-08-11T07:13:17.420Z</time>
      </trkpt>
      <trkpt lat="38.023520" lon="-4.243796">
        <ele>287.488654</ele>
        <time>2020-08-11T07:13:19.421Z</time>
      </trkpt>
      <trkpt lat="38.023430" lon="-4.243973">
        <ele>287.376080</ele>
        <time>2020-08-11T07:13:21.426Z</time>
      </trkpt>
      <trkpt lat="38.023317" lon="-4.244141">
        <ele>287.258034</ele>
        <time>2020-08-11T07:13:23.419Z</time>
      </trkpt>
      <trkpt lat="38.023231" lon="-4.244338">
        <ele>287.114801</ele>
        <time>2020-08-11T07:13:25.424Z</time>
      </trkpt>
      <trkpt lat="38.023147" lon="-4.244493">
        <ele>286.936394</ele>
        <time>2020-08-11T07:13:27.437Z</time>
      </trkpt>
      <trkpt lat="38.023058" lon="-4.244665">
        <ele>286.741251</ele>
        <time>2020-08-11T07:13:29.413Z</time>
      </trkpt>
      <trkpt lat="38.023000" lon="-4.244755">
        <ele>286.630985</ele>
        <time>2020-08-11T07:13:30.418Z</time>
      </trkpt>
      <trkpt lat="38.022886" lon="-4.244930">
        <ele>286.415645</ele>
        <time>2020-08-11T07:13:32.423Z</time>
      </trkpt>
      <trkpt lat="38.022792" lon="-4.245097">
        <ele>286.221010</ele>
        <time>2020-08-11T07:13:34.427Z</time>
      </trkpt>
      <trkpt lat="38.022684" lon="-4.245250">
        <ele>286.026196</ele>
        <time>2020-08-11T07:13:36.397Z</time>
      </trkpt>
      <trkpt lat="38.022609" lon="-4.245340">
        <ele>285.901959</ele>
        <time>2020-08-11T07:13:37.424Z</time>
      </trkpt>
      <trkpt lat="38.022538" lon="-4.245437">
        <ele>285.776397</ele>
        <time>2020-08-11T07:13:38.407Z</time>
      </trkpt>
      <trkpt lat="38.022471" lon="-4.245538">
        <ele>285.651185</ele>
        <time>2020-08-11T07:13:39.402Z</time>
      </trkpt>
      <trkpt lat="38.022399" lon="-4.245628">
        <ele>285.529547</ele>
        <time>2020-08-11T07:13:40.407Z</time>
      </trkpt>
      <trkpt lat="38.022335" lon="-4.245726">
        <ele>285.408833</ele>
        <time>2020-08-11T07:13:41.422Z</time>
      </trkpt>
      <trkpt lat="38.022257" lon="-4.245833">
        <ele>285.270588</ele>
        <time>2020-08-11T07:13:42.424Z</time>
      </trkpt>
      <trkpt lat="38.022190" lon="-4.245951">
        <ele>285.132653</ele>
        <time>2020-08-11T07:13:43.406Z</time>
      </trkpt>
      <trkpt lat="38.022120" lon="-4.246061">
        <ele>284.997395</ele>
        <time>2020-08-11T07:13:44.413Z</time>
      </trkpt>
      <trkpt lat="38.022048" lon="-4.246196">
        <ele>284.791626</ele>
        <time>2020-08-11T07:13:45.418Z</time>
      </trkpt>
      <trkpt lat="38.021981" lon="-4.246330">
        <ele>284.591305</ele>
        <time>2020-08-11T07:13:46.415Z</time>
      </trkpt>
      <trkpt lat="38.021927" lon="-4.246437">
        <ele>284.430916</ele>
        <time>2020-08-11T07:13:47.412Z</time>
      </trkpt>
      <trkpt lat="38.021862" lon="-4.246578">
        <ele>284.224718</ele>
        <time>2020-08-11T07:13:48.415Z</time>
      </trkpt>
      <trkpt lat="38.021803" lon="-4.246701">
        <ele>284.042956</ele>
        <time>2020-08-11T07:13:49.416Z</time>
      </trkpt>
      <trkpt lat="38.021745" lon="-4.246825">
        <ele>283.860938</ele>
        <time>2020-08-11T07:13:50.425Z</time>
      </trkpt>
      <trkpt lat="38.021709" lon="-4.246948">
        <ele>283.695322</ele>
        <time>2020-08-11T07:13:51.431Z</time>
      </trkpt>
      <trkpt lat="38.021678" lon="-4.247085">
        <ele>283.515413</ele>
        <time>2020-08-11T07:13:52.416Z</time>
      </trkpt>
      <trkpt lat="38.021660" lon="-4.247210">
        <ele>283.355027</ele>
        <time>2020-08-11T07:13:53.409Z</time>
      </trkpt>
      <trkpt lat="38.021637" lon="-4.247344">
        <ele>283.181928</ele>
        <time>2020-08-11T07:13:54.426Z</time>
      </trkpt>
      <trkpt lat="38.021616" lon="-4.247471">
        <ele>283.018138</ele>
        <time>2020-08-11T07:13:55.410Z</time>
      </trkpt>
      <trkpt lat="38.021595" lon="-4.247593">
        <ele>282.860520</ele>
        <time>2020-08-11T07:13:56.414Z</time>
      </trkpt>
      <trkpt lat="38.021588" lon="-4.247719">
        <ele>282.701091</ele>
        <time>2020-08-11T07:13:57.425Z</time>
      </trkpt>
      <trkpt lat="38.021562" lon="-4.247852">
        <ele>282.528130</ele>
        <time>2020-08-11T07:13:58.423Z</time>
      </trkpt>
      <trkpt lat="38.021559" lon="-4.247981">
        <ele>282.365239</ele>
        <time>2020-08-11T07:13:59.405Z</time>
      </trkpt>
      <trkpt lat="38.021551" lon="-4.248102">
        <ele>282.211979</ele>
        <time>2020-08-11T07:14:00.422Z</time>
      </trkpt>
      <trkpt lat="38.021529" lon="-4.248214">
        <ele>282.093160</ele>
        <time>2020-08-11T07:14:01.413Z</time>
      </trkpt>
      <trkpt lat="38.021519" lon="-4.248338">
        <ele>282.014119</ele>
        <time>2020-08-11T07:14:02.421Z</time>
      </trkpt>
      <trkpt lat="38.021492" lon="-4.248459">
        <ele>281.934372</ele>
        <time>2020-08-11T07:14:03.417Z</time>
      </trkpt>
      <trkpt lat="38.021464" lon="-4.248579">
        <ele>281.855010</ele>
        <time>2020-08-11T07:14:04.429Z</time>
      </trkpt>
      <trkpt lat="38.021428" lon="-4.248690">
        <ele>281.778891</ele>
        <time>2020-08-11T07:14:05.428Z</time>
      </trkpt>
      <trkpt lat="38.021394" lon="-4.248802">
        <ele>281.702779</ele>
        <time>2020-08-11T07:14:06.419Z</time>
      </trkpt>
      <trkpt lat="38.021356" lon="-4.248907">
        <ele>281.629507</ele>
        <time>2020-08-11T07:14:07.425Z</time>
      </trkpt>
      <trkpt lat="38.021313" lon="-4.249010">
        <ele>281.555588</ele>
        <time>2020-08-11T07:14:08.414Z</time>
      </trkpt>
      <trkpt lat="38.021274" lon="-4.249113">
        <ele>281.483121</ele>
        <time>2020-08-11T07:14:09.419Z</time>
      </trkpt>
      <trkpt lat="38.021214" lon="-4.249220">
        <ele>281.399837</ele>
        <time>2020-08-11T07:14:10.433Z</time>
      </trkpt>
      <trkpt lat="38.021140" lon="-4.249427">
        <ele>281.255691</ele>
        <time>2020-08-11T07:14:12.431Z</time>
      </trkpt>
      <trkpt lat="38.021093" lon="-4.249538">
        <ele>281.175780</ele>
        <time>2020-08-11T07:14:13.421Z</time>
      </trkpt>
      <trkpt lat="38.021061" lon="-4.249646">
        <ele>281.102611</ele>
        <time>2020-08-11T07:14:14.420Z</time>
      </trkpt>
      <trkpt lat="38.020972" lon="-4.249831">
        <ele>280.965154</ele>
        <time>2020-08-11T07:14:16.422Z</time>
      </trkpt>
      <trkpt lat="38.020916" lon="-4.250014">
        <ele>280.840662</ele>
        <time>2020-08-11T07:14:18.421Z</time>
      </trkpt>
      <trkpt lat="38.020864" lon="-4.250192">
        <ele>280.720277</ele>
        <time>2020-08-11T07:14:20.415Z</time>
      </trkpt>
      <trkpt lat="38.020804" lon="-4.250364">
        <ele>280.577023</ele>
        <time>2020-08-11T07:14:22.416Z</time>
      </trkpt>
      <trkpt lat="38.020733" lon="-4.250552">
        <ele>280.400493</ele>
        <time>2020-08-11T07:14:24.425Z</time>
      </trkpt>
      <trkpt lat="38.020669" lon="-4.250721">
        <ele>280.241722</ele>
        <time>2020-08-11T07:14:26.419Z</time>
      </trkpt>
      <trkpt lat="38.020598" lon="-4.250883">
        <ele>280.084754</ele>
        <time>2020-08-11T07:14:28.425Z</time>
      </trkpt>
      <trkpt lat="38.020520" lon="-4.251046">
        <ele>279.923271</ele>
        <time>2020-08-11T07:14:30.429Z</time>
      </trkpt>
      <trkpt lat="38.020447" lon="-4.251200">
        <ele>279.771089</ele>
        <time>2020-08-11T07:14:32.454Z</time>
      </trkpt>
      <trkpt lat="38.020391" lon="-4.251334">
        <ele>279.642651</ele>
        <time>2020-08-11T07:14:34.415Z</time>
      </trkpt>
      <trkpt lat="38.020311" lon="-4.251475">
        <ele>279.495522</ele>
        <time>2020-08-11T07:14:36.413Z</time>
      </trkpt>
      <trkpt lat="38.020237" lon="-4.251612">
        <ele>279.354872</ele>
        <time>2020-08-11T07:14:38.426Z</time>
      </trkpt>
      <trkpt lat="38.020126" lon="-4.251735">
        <ele>279.196505</ele>
        <time>2020-08-11T07:14:40.419Z</time>
      </trkpt>
      <trkpt lat="38.020043" lon="-4.251876">
        <ele>279.047468</ele>
        <time>2020-08-11T07:14:42.425Z</time>
      </trkpt>
      <trkpt lat="38.019969" lon="-4.252002">
        <ele>278.914395</ele>
        <time>2020-08-11T07:14:44.426Z</time>
      </trkpt>
      <trkpt lat="38.019870" lon="-4.252148">
        <ele>278.751285</ele>
        <time>2020-08-11T07:14:46.430Z</time>
      </trkpt>
      <trkpt lat="38.019783" lon="-4.252294">
        <ele>278.545617</ele>
        <time>2020-08-11T07:14:48.409Z</time>
      </trkpt>
      <trkpt lat="38.019703" lon="-4.252463">
        <ele>278.319528</ele>
        <time>2020-08-11T07:14:50.416Z</time>
      </trkpt>
      <trkpt lat="38.019581" lon="-4.252632">
        <ele>278.056676</ele>
        <time>2020-08-11T07:14:52.415Z</time>
      </trkpt>
      <trkpt lat="38.019515" lon="-4.252710">
        <ele>277.925415</ele>
        <time>2020-08-11T07:14:53.411Z</time>
      </trkpt>
      <trkpt lat="38.019404" lon="-4.252906">
        <ele>277.648612</ele>
        <time>2020-08-11T07:14:55.412Z</time>
      </trkpt>
      <trkpt lat="38.019344" lon="-4.253007">
        <ele>277.503556</ele>
        <time>2020-08-11T07:14:56.414Z</time>
      </trkpt>
      <trkpt lat="38.019280" lon="-4.253113">
        <ele>277.350412</ele>
        <time>2020-08-11T07:14:57.427Z</time>
      </trkpt>
      <trkpt lat="38.019219" lon="-4.253215">
        <ele>277.203562</ele>
        <time>2020-08-11T07:14:58.422Z</time>
      </trkpt>
      <trkpt lat="38.019139" lon="-4.253295">
        <ele>277.055321</ele>
        <time>2020-08-11T07:14:59.414Z</time>
      </trkpt>
      <trkpt lat="38.019082" lon="-4.253412">
        <ele>276.897573</ele>
        <time>2020-08-11T07:15:00.413Z</time>
      </trkpt>
      <trkpt lat="38.019044" lon="-4.253543">
        <ele>276.737493</ele>
        <time>2020-08-11T07:15:01.419Z</time>
      </trkpt>
      <trkpt lat="38.019003" lon="-4.253684">
        <ele>276.565143</ele>
        <time>2020-08-11T07:15:02.425Z</time>
      </trkpt>
      <trkpt lat="38.018950" lon="-4.253816">
        <ele>276.395250</ele>
        <time>2020-08-11T07:15:03.412Z</time>
      </trkpt>
      <trkpt lat="38.018898" lon="-4.253957">
        <ele>276.216723</ele>
        <time>2020-08-11T07:15:04.422Z</time>
      </trkpt>
      <trkpt lat="38.018831" lon="-4.254082">
        <ele>275.819015</ele>
        <time>2020-08-11T07:15:05.406Z</time>
      </trkpt>
      <trkpt lat="38.018763" lon="-4.254207">
        <ele>275.142866</ele>
        <time>2020-08-11T07:15:06.411Z</time>
      </trkpt>
      <trkpt lat="38.018678" lon="-4.254318">
        <ele>274.453845</ele>
        <time>2020-08-11T07:15:07.409Z</time>
      </trkpt>
      <trkpt lat="38.018591" lon="-4.254405">
        <ele>273.828080</ele>
        <time>2020-08-11T07:15:08.426Z</time>
      </trkpt>
      <trkpt lat="38.018496" lon="-4.254499">
        <ele>273.147519</ele>
        <time>2020-08-11T07:15:09.410Z</time>
      </trkpt>
      <trkpt lat="38.018407" lon="-4.254587">
        <ele>272.510113</ele>
        <time>2020-08-11T07:15:10.401Z</time>
      </trkpt>
      <trkpt lat="38.018315" lon="-4.254671">
        <ele>271.869809</ele>
        <time>2020-08-11T07:15:11.418Z</time>
      </trkpt>
      <trkpt lat="38.018216" lon="-4.254747">
        <ele>271.216119</ele>
        <time>2020-08-11T07:15:12.424Z</time>
      </trkpt>
      <trkpt lat="38.018117" lon="-4.254817">
        <ele>270.575842</ele>
        <time>2020-08-11T07:15:13.426Z</time>
      </trkpt>
      <trkpt lat="38.018021" lon="-4.254894">
        <ele>269.934229</ele>
        <time>2020-08-11T07:15:14.421Z</time>
      </trkpt>
      <trkpt lat="38.017906" lon="-4.254931">
        <ele>269.263932</ele>
        <time>2020-08-11T07:15:15.419Z</time>
      </trkpt>
      <trkpt lat="38.017802" lon="-4.254977">
        <ele>268.641681</ele>
        <time>2020-08-11T07:15:16.418Z</time>
      </trkpt>
      <trkpt lat="38.017697" lon="-4.255035">
        <ele>267.994691</ele>
        <time>2020-08-11T07:15:17.415Z</time>
      </trkpt>
      <trkpt lat="38.017592" lon="-4.255087">
        <ele>267.357887</ele>
        <time>2020-08-11T07:15:18.409Z</time>
      </trkpt>
      <trkpt lat="38.017477" lon="-4.255135">
        <ele>266.673911</ele>
        <time>2020-08-11T07:15:19.409Z</time>
      </trkpt>
      <trkpt lat="38.017364" lon="-4.255166">
        <ele>266.020720</ele>
        <time>2020-08-11T07:15:20.417Z</time>
      </trkpt>
      <trkpt lat="38.017273" lon="-4.255210">
        <ele>265.419813</ele>
        <time>2020-08-11T07:15:21.427Z</time>
      </trkpt>
      <trkpt lat="38.017169" lon="-4.255250">
        <ele>264.742066</ele>
        <time>2020-08-11T07:15:22.432Z</time>
      </trkpt>
      <trkpt lat="38.017069" lon="-4.255294">
        <ele>264.081981</ele>
        <time>2020-08-11T07:15:23.415Z</time>
      </trkpt>
      <trkpt lat="38.016959" lon="-4.255316">
        <ele>263.387472</ele>
        <time>2020-08-11T07:15:24.417Z</time>
      </trkpt>
      <trkpt lat="38.016865" lon="-4.255326">
        <ele>262.799160</ele>
        <time>2020-08-11T07:15:25.422Z</time>
      </trkpt>
      <trkpt lat="38.016765" lon="-4.255368">
        <ele>262.142227</ele>
        <time>2020-08-11T07:15:26.426Z</time>
      </trkpt>
      <trkpt lat="38.016661" lon="-4.255399">
        <ele>261.475958</ele>
        <time>2020-08-11T07:15:27.425Z</time>
      </trkpt>
      <trkpt lat="38.016546" lon="-4.255435">
        <ele>260.737238</ele>
        <time>2020-08-11T07:15:28.431Z</time>
      </trkpt>
      <trkpt lat="38.016437" lon="-4.255463">
        <ele>260.043648</ele>
        <time>2020-08-11T07:15:29.423Z</time>
      </trkpt>
      <trkpt lat="38.016319" lon="-4.255488">
        <ele>259.297528</ele>
        <time>2020-08-11T07:15:30.417Z</time>
      </trkpt>
      <trkpt lat="38.016217" lon="-4.255521">
        <ele>258.641038</ele>
        <time>2020-08-11T07:15:31.415Z</time>
      </trkpt>
      <trkpt lat="38.016112" lon="-4.255558">
        <ele>257.961409</ele>
        <time>2020-08-11T07:15:32.427Z</time>
      </trkpt>
      <trkpt lat="38.016011" lon="-4.255597">
        <ele>257.302992</ele>
        <time>2020-08-11T07:15:33.418Z</time>
      </trkpt>
      <trkpt lat="38.015905" lon="-4.255633">
        <ele>256.618638</ele>
        <time>2020-08-11T07:15:34.423Z</time>
      </trkpt>
      <trkpt lat="38.015805" lon="-4.255674">
        <ele>255.963231</ele>
        <time>2020-08-11T07:15:35.403Z</time>
      </trkpt>
      <trkpt lat="38.015692" lon="-4.255711">
        <ele>255.235404</ele>
        <time>2020-08-11T07:15:36.412Z</time>
      </trkpt>
      <trkpt lat="38.015594" lon="-4.255753">
        <ele>254.758850</ele>
        <time>2020-08-11T07:15:37.424Z</time>
      </trkpt>
      <trkpt lat="38.015488" lon="-4.255799">
        <ele>254.840813</ele>
        <time>2020-08-11T07:15:38.426Z</time>
      </trkpt>
      <trkpt lat="38.015395" lon="-4.255830">
        <ele>254.911164</ele>
        <time>2020-08-11T07:15:39.427Z</time>
      </trkpt>
      <trkpt lat="38.015305" lon="-4.255891">
        <ele>254.985813</ele>
        <time>2020-08-11T07:15:40.426Z</time>
      </trkpt>
      <trkpt lat="38.015211" lon="-4.255940">
        <ele>255.060163</ele>
        <time>2020-08-11T07:15:41.419Z</time>
      </trkpt>
      <trkpt lat="38.015125" lon="-4.255986">
        <ele>255.128444</ele>
        <time>2020-08-11T07:15:42.419Z</time>
      </trkpt>
      <trkpt lat="38.015055" lon="-4.256068">
        <ele>255.198139</ele>
        <time>2020-08-11T07:15:43.418Z</time>
      </trkpt>
      <trkpt lat="38.014979" lon="-4.256130">
        <ele>255.264239</ele>
        <time>2020-08-11T07:15:44.408Z</time>
      </trkpt>
      <trkpt lat="38.014805" lon="-4.256238">
        <ele>255.405954</ele>
        <time>2020-08-11T07:15:46.432Z</time>
      </trkpt>
      <trkpt lat="38.014646" lon="-4.256341">
        <ele>255.536563</ele>
        <time>2020-08-11T07:15:48.418Z</time>
      </trkpt>
      <trkpt lat="38.014566" lon="-4.256394">
        <ele>255.602589</ele>
        <time>2020-08-11T07:15:49.429Z</time>
      </trkpt>
      <trkpt lat="38.014476" lon="-4.256442">
        <ele>255.674015</ele>
        <time>2020-08-11T07:15:50.415Z</time>
      </trkpt>
      <trkpt lat="38.014327" lon="-4.256580">
        <ele>255.808969</ele>
        <time>2020-08-11T07:15:52.435Z</time>
      </trkpt>
      <trkpt lat="38.014162" lon="-4.256675">
        <ele>255.941532</ele>
        <time>2020-08-11T07:15:54.409Z</time>
      </trkpt>
      <trkpt lat="38.014073" lon="-4.256715">
        <ele>256.010611</ele>
        <time>2020-08-11T07:15:55.423Z</time>
      </trkpt>
      <trkpt lat="38.013989" lon="-4.256776">
        <ele>256.239119</ele>
        <time>2020-08-11T07:15:56.419Z</time>
      </trkpt>
      <trkpt lat="38.013835" lon="-4.256872">
        <ele>257.180086</ele>
        <time>2020-08-11T07:15:58.411Z</time>
      </trkpt>
      <trkpt lat="38.013702" lon="-4.256981">
        <ele>258.048355</ele>
        <time>2020-08-11T07:16:00.426Z</time>
      </trkpt>
      <trkpt lat="38.013554" lon="-4.257079">
        <ele>258.963867</ele>
        <time>2020-08-11T07:16:02.424Z</time>
      </trkpt>
      <trkpt lat="38.013410" lon="-4.257172">
        <ele>259.849981</ele>
        <time>2020-08-11T07:16:04.413Z</time>
      </trkpt>
      <trkpt lat="38.013286" lon="-4.257264">
        <ele>260.637714</ele>
        <time>2020-08-11T07:16:06.418Z</time>
      </trkpt>
      <trkpt lat="38.013187" lon="-4.257399">
        <ele>261.434634</ele>
        <time>2020-08-11T07:16:08.417Z</time>
      </trkpt>
      <trkpt lat="38.013056" lon="-4.257529">
        <ele>262.346624</ele>
        <time>2020-08-11T07:16:10.426Z</time>
      </trkpt>
      <trkpt lat="38.012948" lon="-4.257628">
        <ele>263.077264</ele>
        <time>2020-08-11T07:16:12.419Z</time>
      </trkpt>
      <trkpt lat="38.012833" lon="-4.257745">
        <ele>263.885585</ele>
        <time>2020-08-11T07:16:14.417Z</time>
      </trkpt>
      <trkpt lat="38.012741" lon="-4.257894">
        <ele>264.703575</ele>
        <time>2020-08-11T07:16:16.428Z</time>
      </trkpt>
      <trkpt lat="38.012647" lon="-4.258021">
        <ele>265.456520</ele>
        <time>2020-08-11T07:16:18.405Z</time>
      </trkpt>
      <trkpt lat="38.012548" lon="-4.258136">
        <ele>265.933300</ele>
        <time>2020-08-11T07:16:20.427Z</time>
      </trkpt>
      <trkpt lat="38.012460" lon="-4.258256">
        <ele>265.963765</ele>
        <time>2020-08-11T07:16:22.433Z</time>
      </trkpt>
      <trkpt lat="38.012349" lon="-4.258364">
        <ele>265.996755</ele>
        <time>2020-08-11T07:16:24.417Z</time>
      </trkpt>
      <trkpt lat="38.012248" lon="-4.258441">
        <ele>266.024545</ele>
        <time>2020-08-11T07:16:26.404Z</time>
      </trkpt>
      <trkpt lat="38.012143" lon="-4.258550">
        <ele>266.056540</ele>
        <time>2020-08-11T07:16:28.434Z</time>
      </trkpt>
      <trkpt lat="38.012036" lon="-4.258626">
        <ele>266.085461</ele>
        <time>2020-08-11T07:16:30.410Z</time>
      </trkpt>
      <trkpt lat="38.011934" lon="-4.258725">
        <ele>266.115748</ele>
        <time>2020-08-11T07:16:32.419Z</time>
      </trkpt>
      <trkpt lat="38.011846" lon="-4.258826">
        <ele>266.143732</ele>
        <time>2020-08-11T07:16:34.415Z</time>
      </trkpt>
      <trkpt lat="38.011738" lon="-4.258922">
        <ele>266.174832</ele>
        <time>2020-08-11T07:16:36.414Z</time>
      </trkpt>
      <trkpt lat="38.011619" lon="-4.259036">
        <ele>266.209998</ele>
        <time>2020-08-11T07:16:38.422Z</time>
      </trkpt>
      <trkpt lat="38.011491" lon="-4.259136">
        <ele>266.245450</ele>
        <time>2020-08-11T07:16:40.412Z</time>
      </trkpt>
      <trkpt lat="38.011377" lon="-4.259231">
        <ele>266.277617</ele>
        <time>2020-08-11T07:16:42.398Z</time>
      </trkpt>
      <trkpt lat="38.011269" lon="-4.259363">
        <ele>266.312982</ele>
        <time>2020-08-11T07:16:44.426Z</time>
      </trkpt>
      <trkpt lat="38.011147" lon="-4.259446">
        <ele>266.345632</ele>
        <time>2020-08-11T07:16:46.427Z</time>
      </trkpt>
      <trkpt lat="38.011034" lon="-4.259577">
        <ele>265.979647</ele>
        <time>2020-08-11T07:16:48.433Z</time>
      </trkpt>
      <trkpt lat="38.010933" lon="-4.259722">
        <ele>265.612052</ele>
        <time>2020-08-11T07:16:50.414Z</time>
      </trkpt>
      <trkpt lat="38.010815" lon="-4.259871">
        <ele>265.210800</ele>
        <time>2020-08-11T07:16:52.425Z</time>
      </trkpt>
      <trkpt lat="38.010715" lon="-4.260034">
        <ele>264.818425</ele>
        <time>2020-08-11T07:16:54.410Z</time>
      </trkpt>
      <trkpt lat="38.010660" lon="-4.260131">
        <ele>264.591442</ele>
        <time>2020-08-11T07:16:55.410Z</time>
      </trkpt>
      <trkpt lat="38.010604" lon="-4.260238">
        <ele>264.347463</ele>
        <time>2020-08-11T07:16:56.409Z</time>
      </trkpt>
      <trkpt lat="38.010544" lon="-4.260338">
        <ele>264.108727</ele>
        <time>2020-08-11T07:16:57.416Z</time>
      </trkpt>
      <trkpt lat="38.010484" lon="-4.260428">
        <ele>263.884805</ele>
        <time>2020-08-11T07:16:58.416Z</time>
      </trkpt>
      <trkpt lat="38.010405" lon="-4.260531">
        <ele>263.611787</ele>
        <time>2020-08-11T07:16:59.408Z</time>
      </trkpt>
      <trkpt lat="38.010331" lon="-4.260626">
        <ele>263.358055</ele>
        <time>2020-08-11T07:17:00.426Z</time>
      </trkpt>
      <trkpt lat="38.010248" lon="-4.260720">
        <ele>263.089897</ele>
        <time>2020-08-11T07:17:01.417Z</time>
      </trkpt>
      <trkpt lat="38.010048" lon="-4.260831">
        <ele>262.563689</ele>
        <time>2020-08-11T07:17:03.422Z</time>
      </trkpt>
      <trkpt lat="38.009942" lon="-4.260846">
        <ele>262.306578</ele>
        <time>2020-08-11T07:17:04.426Z</time>
      </trkpt>
      <trkpt lat="38.009808" lon="-4.260859">
        <ele>261.937201</ele>
        <time>2020-08-11T07:17:05.420Z</time>
      </trkpt>
      <trkpt lat="38.009696" lon="-4.260869">
        <ele>261.218125</ele>
        <time>2020-08-11T07:17:06.430Z</time>
      </trkpt>
      <trkpt lat="38.009593" lon="-4.260892">
        <ele>260.548330</ele>
        <time>2020-08-11T07:17:07.408Z</time>
      </trkpt>
      <trkpt lat="38.009486" lon="-4.260912">
        <ele>259.855658</ele>
        <time>2020-08-11T07:17:08.422Z</time>
      </trkpt>
      <trkpt lat="38.009368" lon="-4.260953">
        <ele>259.072119</ele>
        <time>2020-08-11T07:17:09.423Z</time>
      </trkpt>
      <trkpt lat="38.009284" lon="-4.261016">
        <ele>258.447231</ele>
        <time>2020-08-11T07:17:10.401Z</time>
      </trkpt>
      <trkpt lat="38.009203" lon="-4.261092">
        <ele>257.802099</ele>
        <time>2020-08-11T07:17:11.424Z</time>
      </trkpt>
      <trkpt lat="38.009144" lon="-4.261194">
        <ele>257.163578</ele>
        <time>2020-08-11T07:17:12.436Z</time>
      </trkpt>
      <trkpt lat="38.009036" lon="-4.261363">
        <ele>256.065532</ele>
        <time>2020-08-11T07:17:14.414Z</time>
      </trkpt>
      <trkpt lat="38.008930" lon="-4.261530">
        <ele>254.983386</ele>
        <time>2020-08-11T07:17:16.421Z</time>
      </trkpt>
      <trkpt lat="38.008846" lon="-4.261684">
        <ele>254.038227</ele>
        <time>2020-08-11T07:17:18.417Z</time>
      </trkpt>
      <trkpt lat="38.008726" lon="-4.261808">
        <ele>253.047172</ele>
        <time>2020-08-11T07:17:20.421Z</time>
      </trkpt>
      <trkpt lat="38.008603" lon="-4.261894">
        <ele>252.147790</ele>
        <time>2020-08-11T07:17:22.413Z</time>
      </trkpt>
      <trkpt lat="38.008479" lon="-4.261984">
        <ele>251.232942</ele>
        <time>2020-08-11T07:17:24.411Z</time>
      </trkpt>
      <trkpt lat="38.008362" lon="-4.262064">
        <ele>250.375976</ele>
        <time>2020-08-11T07:17:26.436Z</time>
      </trkpt>
      <trkpt lat="38.008274" lon="-4.262133">
        <ele>249.678110</ele>
        <time>2020-08-11T07:17:28.421Z</time>
      </trkpt>
      <trkpt lat="38.008173" lon="-4.262208">
        <ele>248.888639</ele>
        <time>2020-08-11T07:17:30.420Z</time>
      </trkpt>
      <trkpt lat="38.008071" lon="-4.262270">
        <ele>248.125633</ele>
        <time>2020-08-11T07:17:32.417Z</time>
      </trkpt>
      <trkpt lat="38.007984" lon="-4.262354">
        <ele>247.388135</ele>
        <time>2020-08-11T07:17:34.424Z</time>
      </trkpt>
      <trkpt lat="38.007884" lon="-4.262411">
        <ele>246.648556</ele>
        <time>2020-08-11T07:17:36.423Z</time>
      </trkpt>
      <trkpt lat="38.007772" lon="-4.262467">
        <ele>245.836412</ele>
        <time>2020-08-11T07:17:38.396Z</time>
      </trkpt>
      <trkpt lat="38.007662" lon="-4.262513">
        <ele>245.055037</ele>
        <time>2020-08-11T07:17:40.412Z</time>
      </trkpt>
      <trkpt lat="38.007556" lon="-4.262570">
        <ele>244.278354</ele>
        <time>2020-08-11T07:17:42.421Z</time>
      </trkpt>
      <trkpt lat="38.007451" lon="-4.262621">
        <ele>243.519855</ele>
        <time>2020-08-11T07:17:44.415Z</time>
      </trkpt>
      <trkpt lat="38.007327" lon="-4.262674">
        <ele>242.637108</ele>
        <time>2020-08-11T07:17:46.412Z</time>
      </trkpt>
      <trkpt lat="38.007216" lon="-4.262729">
        <ele>241.833185</ele>
        <time>2020-08-11T07:17:48.430Z</time>
      </trkpt>
      <trkpt lat="38.007115" lon="-4.262788">
        <ele>241.083062</ele>
        <time>2020-08-11T07:17:50.418Z</time>
      </trkpt>
      <trkpt lat="38.007018" lon="-4.262846">
        <ele>240.359648</ele>
        <time>2020-08-11T07:17:52.419Z</time>
      </trkpt>
      <trkpt lat="38.006898" lon="-4.262905">
        <ele>239.491426</ele>
        <time>2020-08-11T07:17:54.426Z</time>
      </trkpt>
      <trkpt lat="38.006794" lon="-4.262969">
        <ele>238.711647</ele>
        <time>2020-08-11T07:17:56.426Z</time>
      </trkpt>
      <trkpt lat="38.006664" lon="-4.263019">
        <ele>238.263545</ele>
        <time>2020-08-11T07:17:58.418Z</time>
      </trkpt>
      <trkpt lat="38.006531" lon="-4.263066">
        <ele>238.110144</ele>
        <time>2020-08-11T07:18:00.412Z</time>
      </trkpt>
      <trkpt lat="38.006420" lon="-4.263110">
        <ele>237.980934</ele>
        <time>2020-08-11T07:18:02.423Z</time>
      </trkpt>
      <trkpt lat="38.006293" lon="-4.263149">
        <ele>237.835750</ele>
        <time>2020-08-11T07:18:04.428Z</time>
      </trkpt>
      <trkpt lat="38.006163" lon="-4.263174">
        <ele>237.689655</ele>
        <time>2020-08-11T07:18:06.401Z</time>
      </trkpt>
      <trkpt lat="38.006047" lon="-4.263209">
        <ele>237.557173</ele>
        <time>2020-08-11T07:18:08.411Z</time>
      </trkpt>
      <trkpt lat="38.005918" lon="-4.263243">
        <ele>237.410780</ele>
        <time>2020-08-11T07:18:10.415Z</time>
      </trkpt>
      <trkpt lat="38.005806" lon="-4.263281">
        <ele>237.281964</ele>
        <time>2020-08-11T07:18:12.421Z</time>
      </trkpt>
      <trkpt lat="38.005682" lon="-4.263293">
        <ele>237.143786</ele>
        <time>2020-08-11T07:18:14.423Z</time>
      </trkpt>
      <trkpt lat="38.005562" lon="-4.263331">
        <ele>237.006363</ele>
        <time>2020-08-11T07:18:16.412Z</time>
      </trkpt>
      <trkpt lat="38.005455" lon="-4.263393">
        <ele>236.875668</ele>
        <time>2020-08-11T07:18:18.426Z</time>
      </trkpt>
      <trkpt lat="38.005332" lon="-4.263417">
        <ele>236.737394</ele>
        <time>2020-08-11T07:18:20.410Z</time>
      </trkpt>
      <trkpt lat="38.005201" lon="-4.263461">
        <ele>236.586826</ele>
        <time>2020-08-11T07:18:22.418Z</time>
      </trkpt>
      <trkpt lat="38.005079" lon="-4.263532">
        <ele>236.437697</ele>
        <time>2020-08-11T07:18:24.417Z</time>
      </trkpt>
      <trkpt lat="38.004947" lon="-4.263605">
        <ele>235.809934</ele>
        <time>2020-08-11T07:18:26.420Z</time>
      </trkpt>
      <trkpt lat="38.004823" lon="-4.263686">
        <ele>234.745155</ele>
        <time>2020-08-11T07:18:28.420Z</time>
      </trkpt>
      <trkpt lat="38.004681" lon="-4.263764">
        <ele>233.563801</ele>
        <time>2020-08-11T07:18:30.417Z</time>
      </trkpt>
      <trkpt lat="38.004534" lon="-4.263837">
        <ele>232.358603</ele>
        <time>2020-08-11T07:18:32.426Z</time>
      </trkpt>
      <trkpt lat="38.004408" lon="-4.263888">
        <ele>231.348860</ele>
        <time>2020-08-11T07:18:34.403Z</time>
      </trkpt>
      <trkpt lat="38.004316" lon="-4.263989">
        <ele>230.420104</ele>
        <time>2020-08-11T07:18:36.408Z</time>
      </trkpt>
      <trkpt lat="38.004208" lon="-4.264123">
        <ele>229.266936</ele>
        <time>2020-08-11T07:18:38.413Z</time>
      </trkpt>
      <trkpt lat="38.004093" lon="-4.264195">
        <ele>228.287887</ele>
        <time>2020-08-11T07:18:40.411Z</time>
      </trkpt>
      <trkpt lat="38.004005" lon="-4.264317">
        <ele>227.292843</ele>
        <time>2020-08-11T07:18:42.413Z</time>
      </trkpt>
      <trkpt lat="38.003898" lon="-4.264433">
        <ele>226.218413</ele>
        <time>2020-08-11T07:18:44.428Z</time>
      </trkpt>
      <trkpt lat="38.003783" lon="-4.264578">
        <ele>224.980723</ele>
        <time>2020-08-11T07:18:46.424Z</time>
      </trkpt>
      <trkpt lat="38.003663" lon="-4.264681">
        <ele>223.874657</ele>
        <time>2020-08-11T07:18:48.422Z</time>
      </trkpt>
      <trkpt lat="38.003549" lon="-4.264794">
        <ele>222.770248</ele>
        <time>2020-08-11T07:18:50.427Z</time>
      </trkpt>
      <trkpt lat="38.003438" lon="-4.264925">
        <ele>222.522661</ele>
        <time>2020-08-11T07:18:52.427Z</time>
      </trkpt>
      <trkpt lat="38.003331" lon="-4.265050">
        <ele>222.410501</ele>
        <time>2020-08-11T07:18:54.416Z</time>
      </trkpt>
      <trkpt lat="38.003236" lon="-4.265157">
        <ele>222.312543</ele>
        <time>2020-08-11T07:18:56.431Z</time>
      </trkpt>
      <trkpt lat="38.003151" lon="-4.265289">
        <ele>222.208948</ele>
        <time>2020-08-11T07:18:58.418Z</time>
      </trkpt>
      <trkpt lat="38.003057" lon="-4.265384">
        <ele>222.116275</ele>
        <time>2020-08-11T07:19:00.426Z</time>
      </trkpt>
      <trkpt lat="38.002929" lon="-4.265467">
        <ele>222.005420</ele>
        <time>2020-08-11T07:19:02.410Z</time>
      </trkpt>
      <trkpt lat="38.002792" lon="-4.265576">
        <ele>221.880717</ele>
        <time>2020-08-11T07:19:04.423Z</time>
      </trkpt>
      <trkpt lat="38.002671" lon="-4.265695">
        <ele>221.762659</ele>
        <time>2020-08-11T07:19:06.422Z</time>
      </trkpt>
      <trkpt lat="38.002577" lon="-4.265814">
        <ele>221.660262</ele>
        <time>2020-08-11T07:19:08.420Z</time>
      </trkpt>
      <trkpt lat="38.002446" lon="-4.265923">
        <ele>221.539454</ele>
        <time>2020-08-11T07:19:10.427Z</time>
      </trkpt>
      <trkpt lat="38.002331" lon="-4.266084">
        <ele>221.407399</ele>
        <time>2020-08-11T07:19:12.423Z</time>
      </trkpt>
      <trkpt lat="38.002236" lon="-4.266249">
        <ele>221.283213</ele>
        <time>2020-08-11T07:19:14.424Z</time>
      </trkpt>
      <trkpt lat="38.002166" lon="-4.266390">
        <ele>221.196229</ele>
        <time>2020-08-11T07:19:16.421Z</time>
      </trkpt>
      <trkpt lat="38.002115" lon="-4.266559">
        <ele>221.114417</ele>
        <time>2020-08-11T07:19:18.408Z</time>
      </trkpt>
      <trkpt lat="38.002083" lon="-4.266735">
        <ele>221.032762</ele>
        <time>2020-08-11T07:19:20.416Z</time>
      </trkpt>
      <trkpt lat="38.002032" lon="-4.266878">
        <ele>220.961802</ele>
        <time>2020-08-11T07:19:22.416Z</time>
      </trkpt>
      <trkpt lat="38.001983" lon="-4.267015">
        <ele>220.893787</ele>
        <time>2020-08-11T07:19:24.427Z</time>
      </trkpt>
      <trkpt lat="38.001945" lon="-4.267156">
        <ele>220.826419</ele>
        <time>2020-08-11T07:19:26.423Z</time>
      </trkpt>
      <trkpt lat="38.001903" lon="-4.267305">
        <ele>220.754880</ele>
        <time>2020-08-11T07:19:28.417Z</time>
      </trkpt>
      <trkpt lat="38.001875" lon="-4.267484">
        <ele>220.672380</ele>
        <time>2020-08-11T07:19:30.413Z</time>
      </trkpt>
      <trkpt lat="38.001824" lon="-4.267621">
        <ele>220.603882</ele>
        <time>2020-08-11T07:19:32.424Z</time>
      </trkpt>
      <trkpt lat="38.001779" lon="-4.267753">
        <ele>220.538863</ele>
        <time>2020-08-11T07:19:34.419Z</time>
      </trkpt>
      <trkpt lat="38.001735" lon="-4.267862">
        <ele>220.483497</ele>
        <time>2020-08-11T07:19:36.412Z</time>
      </trkpt>
      <trkpt lat="38.001678" lon="-4.268008">
        <ele>220.409837</ele>
        <time>2020-08-11T07:19:38.411Z</time>
      </trkpt>
      <trkpt lat="38.001638" lon="-4.268140">
        <ele>220.345903</ele>
        <time>2020-08-11T07:19:40.419Z</time>
      </trkpt>
      <trkpt lat="38.001563" lon="-4.268281">
        <ele>220.268997</ele>
        <time>2020-08-11T07:19:42.414Z</time>
      </trkpt>
      <trkpt lat="38.001522" lon="-4.268409">
        <ele>220.206533</ele>
        <time>2020-08-11T07:19:44.413Z</time>
      </trkpt>
      <trkpt lat="38.001470" lon="-4.268528">
        <ele>220.109965</ele>
        <time>2020-08-11T07:19:46.402Z</time>
      </trkpt>
      <trkpt lat="38.001415" lon="-4.268665">
        <ele>220.000401</ele>
        <time>2020-08-11T07:19:48.418Z</time>
      </trkpt>
      <trkpt lat="38.001373" lon="-4.268800">
        <ele>219.896975</ele>
        <time>2020-08-11T07:19:50.424Z</time>
      </trkpt>
      <trkpt lat="38.001325" lon="-4.268917">
        <ele>219.802979</ele>
        <time>2020-08-11T07:19:52.422Z</time>
      </trkpt>
      <trkpt lat="38.001253" lon="-4.269020">
        <ele>219.704865</ele>
        <time>2020-08-11T07:19:54.404Z</time>
      </trkpt>
      <trkpt lat="38.001179" lon="-4.269122">
        <ele>219.606067</ele>
        <time>2020-08-11T07:19:56.419Z</time>
      </trkpt>
      <trkpt lat="38.001148" lon="-4.269264">
        <ele>219.501068</ele>
        <time>2020-08-11T07:19:58.417Z</time>
      </trkpt>
      <trkpt lat="38.001111" lon="-4.269413">
        <ele>219.389745</ele>
        <time>2020-08-11T07:20:00.434Z</time>
      </trkpt>
      <trkpt lat="38.001051" lon="-4.269535">
        <ele>219.287266</ele>
        <time>2020-08-11T07:20:02.424Z</time>
      </trkpt>
      <trkpt lat="38.001007" lon="-4.269672">
        <ele>219.181844</ele>
        <time>2020-08-11T07:20:04.423Z</time>
      </trkpt>
      <trkpt lat="38.000955" lon="-4.269794">
        <ele>219.083005</ele>
        <time>2020-08-11T07:20:06.424Z</time>
      </trkpt>
      <trkpt lat="38.000926" lon="-4.269935">
        <ele>218.979163</ele>
        <time>2020-08-11T07:20:08.425Z</time>
      </trkpt>
      <trkpt lat="38.000868" lon="-4.270070">
        <ele>218.869594</ele>
        <time>2020-08-11T07:20:10.423Z</time>
      </trkpt>
      <trkpt lat="38.000812" lon="-4.270210">
        <ele>218.757714</ele>
        <time>2020-08-11T07:20:12.397Z</time>
      </trkpt>
      <trkpt lat="38.000769" lon="-4.270340">
        <ele>218.657246</ele>
        <time>2020-08-11T07:20:14.399Z</time>
      </trkpt>
      <trkpt lat="38.000713" lon="-4.270449">
        <ele>218.610235</ele>
        <time>2020-08-11T07:20:16.420Z</time>
      </trkpt>
      <trkpt lat="38.000652" lon="-4.270577">
        <ele>218.832825</ele>
        <time>2020-08-11T07:20:18.415Z</time>
      </trkpt>
      <trkpt lat="38.000568" lon="-4.270675">
        <ele>219.048292</ele>
        <time>2020-08-11T07:20:20.422Z</time>
      </trkpt>
      <trkpt lat="38.000492" lon="-4.270771">
        <ele>219.250784</ele>
        <time>2020-08-11T07:20:22.416Z</time>
      </trkpt>
      <trkpt lat="38.000390" lon="-4.270870">
        <ele>219.493273</ele>
        <time>2020-08-11T07:20:24.432Z</time>
      </trkpt>
      <trkpt lat="38.000294" lon="-4.270966">
        <ele>219.724075</ele>
        <time>2020-08-11T07:20:26.410Z</time>
      </trkpt>
      <trkpt lat="38.000183" lon="-4.271044">
        <ele>219.963672</ele>
        <time>2020-08-11T07:20:28.414Z</time>
      </trkpt>
      <trkpt lat="38.000093" lon="-4.271141">
        <ele>220.186646</ele>
        <time>2020-08-11T07:20:30.422Z</time>
      </trkpt>
      <trkpt lat="37.999987" lon="-4.271219">
        <ele>220.418028</ele>
        <time>2020-08-11T07:20:32.426Z</time>
      </trkpt>
      <trkpt lat="37.999878" lon="-4.271315">
        <ele>220.668573</ele>
        <time>2020-08-11T07:20:34.399Z</time>
      </trkpt>
      <trkpt lat="37.999775" lon="-4.271412">
        <ele>220.910780</ele>
        <time>2020-08-11T07:20:36.423Z</time>
      </trkpt>
      <trkpt lat="37.999671" lon="-4.271502">
        <ele>221.148486</ele>
        <time>2020-08-11T07:20:38.410Z</time>
      </trkpt>
      <trkpt lat="37.999572" lon="-4.271605">
        <ele>221.390231</ele>
        <time>2020-08-11T07:20:40.426Z</time>
      </trkpt>
      <trkpt lat="37.999479" lon="-4.271695">
        <ele>221.611086</ele>
        <time>2020-08-11T07:20:42.405Z</time>
      </trkpt>
      <trkpt lat="37.999394" lon="-4.271820">
        <ele>221.856772</ele>
        <time>2020-08-11T07:20:44.403Z</time>
      </trkpt>
      <trkpt lat="37.999299" lon="-4.271915">
        <ele>221.892730</ele>
        <time>2020-08-11T07:20:46.415Z</time>
      </trkpt>
      <trkpt lat="37.999223" lon="-4.272015">
        <ele>221.735727</ele>
        <time>2020-08-11T07:20:48.404Z</time>
      </trkpt>
      <trkpt lat="37.999128" lon="-4.272103">
        <ele>221.567054</ele>
        <time>2020-08-11T07:20:50.421Z</time>
      </trkpt>
      <trkpt lat="37.999049" lon="-4.272189">
        <ele>221.417787</ele>
        <time>2020-08-11T07:20:52.407Z</time>
      </trkpt>
      <trkpt lat="37.998970" lon="-4.272286">
        <ele>221.260143</ele>
        <time>2020-08-11T07:20:54.417Z</time>
      </trkpt>
      <trkpt lat="37.998872" lon="-4.272382">
        <ele>221.082600</ele>
        <time>2020-08-11T07:20:56.427Z</time>
      </trkpt>
      <trkpt lat="37.998772" lon="-4.272468">
        <ele>220.909362</ele>
        <time>2020-08-11T07:20:58.428Z</time>
      </trkpt>
      <trkpt lat="37.998674" lon="-4.272553">
        <ele>220.739131</ele>
        <time>2020-08-11T07:21:00.422Z</time>
      </trkpt>
      <trkpt lat="37.998604" lon="-4.272640">
        <ele>220.598618</ele>
        <time>2020-08-11T07:21:02.411Z</time>
      </trkpt>
      <trkpt lat="37.998512" lon="-4.272742">
        <ele>220.423421</ele>
        <time>2020-08-11T07:21:04.424Z</time>
      </trkpt>
      <trkpt lat="37.998408" lon="-4.272825">
        <ele>220.247233</ele>
        <time>2020-08-11T07:21:06.407Z</time>
      </trkpt>
      <trkpt lat="37.998309" lon="-4.272924">
        <ele>220.066474</ele>
        <time>2020-08-11T07:21:08.410Z</time>
      </trkpt>
      <trkpt lat="37.998218" lon="-4.273032">
        <ele>219.887792</ele>
        <time>2020-08-11T07:21:10.423Z</time>
      </trkpt>
      <trkpt lat="37.998123" lon="-4.273101">
        <ele>219.730817</ele>
        <time>2020-08-11T07:21:12.408Z</time>
      </trkpt>
      <trkpt lat="37.998018" lon="-4.273176">
        <ele>219.558022</ele>
        <time>2020-08-11T07:21:14.409Z</time>
      </trkpt>
      <trkpt lat="37.997931" lon="-4.273285">
        <ele>219.376280</ele>
        <time>2020-08-11T07:21:16.409Z</time>
      </trkpt>
      <trkpt lat="37.997844" lon="-4.273411">
        <ele>219.098290</ele>
        <time>2020-08-11T07:21:18.413Z</time>
      </trkpt>
      <trkpt lat="37.997755" lon="-4.273510">
        <ele>218.849068</ele>
        <time>2020-08-11T07:21:20.421Z</time>
      </trkpt>
      <trkpt lat="37.997684" lon="-4.273627">
        <ele>218.604023</ele>
        <time>2020-08-11T07:21:22.408Z</time>
      </trkpt>
      <trkpt lat="37.997611" lon="-4.273752">
        <ele>218.345847</ele>
        <time>2020-08-11T07:21:24.409Z</time>
      </trkpt>
      <trkpt lat="37.997534" lon="-4.273840">
        <ele>218.127639</ele>
        <time>2020-08-11T07:21:26.406Z</time>
      </trkpt>
      <trkpt lat="37.997447" lon="-4.273946">
        <ele>217.873667</ele>
        <time>2020-08-11T07:21:28.405Z</time>
      </trkpt>
      <trkpt lat="37.997373" lon="-4.274064">
        <ele>217.623420</ele>
        <time>2020-08-11T07:21:30.418Z</time>
      </trkpt>
      <trkpt lat="37.997316" lon="-4.274186">
        <ele>217.388065</ele>
        <time>2020-08-11T07:21:32.412Z</time>
      </trkpt>
      <trkpt lat="37.997260" lon="-4.274317">
        <ele>217.140757</ele>
        <time>2020-08-11T07:21:34.415Z</time>
      </trkpt>
      <trkpt lat="37.997202" lon="-4.274456">
        <ele>216.879759</ele>
        <time>2020-08-11T07:21:36.409Z</time>
      </trkpt>
      <trkpt lat="37.997142" lon="-4.274573">
        <ele>216.648117</ele>
        <time>2020-08-11T07:21:38.413Z</time>
      </trkpt>
      <trkpt lat="37.997103" lon="-4.274718">
        <ele>216.393873</ele>
        <time>2020-08-11T07:21:40.424Z</time>
      </trkpt>
      <trkpt lat="37.997037" lon="-4.274853">
        <ele>216.130242</ele>
        <time>2020-08-11T07:21:42.408Z</time>
      </trkpt>
      <trkpt lat="37.996993" lon="-4.275004">
        <ele>215.863088</ele>
        <time>2020-08-11T07:21:44.426Z</time>
      </trkpt>
      <trkpt lat="37.996930" lon="-4.275137">
        <ele>215.611082</ele>
        <time>2020-08-11T07:21:46.429Z</time>
      </trkpt>
      <trkpt lat="37.996878" lon="-4.275261">
        <ele>215.764825</ele>
        <time>2020-08-11T07:21:48.421Z</time>
      </trkpt>
      <trkpt lat="37.996821" lon="-4.275386">
        <ele>215.922897</ele>
        <time>2020-08-11T07:21:50.419Z</time>
      </trkpt>
      <trkpt lat="37.996743" lon="-4.275477">
        <ele>216.070062</ele>
        <time>2020-08-11T07:21:52.421Z</time>
      </trkpt>
      <trkpt lat="37.996615" lon="-4.275463">
        <ele>216.248504</ele>
        <time>2020-08-11T07:21:54.399Z</time>
      </trkpt>
      <trkpt lat="37.996495" lon="-4.275450">
        <ele>216.415782</ele>
        <time>2020-08-11T07:21:56.412Z</time>
      </trkpt>
      <trkpt lat="37.996357" lon="-4.275406">
        <ele>216.613413</ele>
        <time>2020-08-11T07:21:58.421Z</time>
      </trkpt>
      <trkpt lat="37.996251" lon="-4.275330">
        <ele>216.782515</ele>
        <time>2020-08-11T07:22:00.440Z</time>
      </trkpt>
      <trkpt lat="37.996148" lon="-4.275278">
        <ele>216.936481</ele>
        <time>2020-08-11T07:22:02.436Z</time>
      </trkpt>
      <trkpt lat="37.996033" lon="-4.275214">
        <ele>217.110894</ele>
        <time>2020-08-11T07:22:04.421Z</time>
      </trkpt>
      <trkpt lat="37.995926" lon="-4.275166">
        <ele>217.268523</ele>
        <time>2020-08-11T07:22:06.408Z</time>
      </trkpt>
      <trkpt lat="37.995820" lon="-4.275114">
        <ele>217.426369</ele>
        <time>2020-08-11T07:22:08.421Z</time>
      </trkpt>
      <trkpt lat="37.995714" lon="-4.275076">
        <ele>217.579358</ele>
        <time>2020-08-11T07:22:10.418Z</time>
      </trkpt>
      <trkpt lat="37.995602" lon="-4.275025">
        <ele>217.744631</ele>
        <time>2020-08-11T07:22:12.417Z</time>
      </trkpt>
      <trkpt lat="37.995507" lon="-4.274958">
        <ele>217.895589</ele>
        <time>2020-08-11T07:22:14.411Z</time>
      </trkpt>
      <trkpt lat="37.995407" lon="-4.274897">
        <ele>218.049697</ele>
        <time>2020-08-11T07:22:16.413Z</time>
      </trkpt>
      <trkpt lat="37.995306" lon="-4.274851">
        <ele>218.098101</ele>
        <time>2020-08-11T07:22:18.423Z</time>
      </trkpt>
      <trkpt lat="37.995184" lon="-4.274793">
        <ele>218.080359</ele>
        <time>2020-08-11T07:22:20.422Z</time>
      </trkpt>
      <trkpt lat="37.995102" lon="-4.274714">
        <ele>218.066339</ele>
        <time>2020-08-11T07:22:22.411Z</time>
      </trkpt>
      <trkpt lat="37.994983" lon="-4.274642">
        <ele>218.048386</ele>
        <time>2020-08-11T07:22:24.421Z</time>
      </trkpt>
      <trkpt lat="37.994868" lon="-4.274573">
        <ele>218.031063</ele>
        <time>2020-08-11T07:22:26.422Z</time>
      </trkpt>
      <trkpt lat="37.994760" lon="-4.274518">
        <ele>218.015215</ele>
        <time>2020-08-11T07:22:28.419Z</time>
      </trkpt>
      <trkpt lat="37.994650" lon="-4.274433">
        <ele>217.997677</ele>
        <time>2020-08-11T07:22:30.426Z</time>
      </trkpt>
      <trkpt lat="37.994547" lon="-4.274390">
        <ele>217.982911</ele>
        <time>2020-08-11T07:22:32.426Z</time>
      </trkpt>
      <trkpt lat="37.994418" lon="-4.274369">
        <ele>217.965200</ele>
        <time>2020-08-11T07:22:34.427Z</time>
      </trkpt>
      <trkpt lat="37.994269" lon="-4.274329">
        <ele>217.944460</ele>
        <time>2020-08-11T07:22:36.408Z</time>
      </trkpt>
      <trkpt lat="37.994143" lon="-4.274319">
        <ele>217.927268</ele>
        <time>2020-08-11T07:22:38.424Z</time>
      </trkpt>
      <trkpt lat="37.994029" lon="-4.274271">
        <ele>217.910911</ele>
        <time>2020-08-11T07:22:40.421Z</time>
      </trkpt>
      <trkpt lat="37.993925" lon="-4.274202">
        <ele>217.894930</ele>
        <time>2020-08-11T07:22:42.417Z</time>
      </trkpt>
      <trkpt lat="37.993819" lon="-4.274149">
        <ele>217.879415</ele>
        <time>2020-08-11T07:22:44.425Z</time>
      </trkpt>
      <trkpt lat="37.993714" lon="-4.274092">
        <ele>217.863862</ele>
        <time>2020-08-11T07:22:46.427Z</time>
      </trkpt>
      <trkpt lat="37.993618" lon="-4.274023">
        <ele>217.795068</ele>
        <time>2020-08-11T07:22:48.418Z</time>
      </trkpt>
      <trkpt lat="37.993536" lon="-4.273972">
        <ele>217.732405</ele>
        <time>2020-08-11T07:22:50.418Z</time>
      </trkpt>
      <trkpt lat="37.993443" lon="-4.273941">
        <ele>217.666424</ele>
        <time>2020-08-11T07:22:52.420Z</time>
      </trkpt>
      <trkpt lat="37.993347" lon="-4.273896">
        <ele>217.596198</ele>
        <time>2020-08-11T07:22:54.413Z</time>
      </trkpt>
      <trkpt lat="37.993252" lon="-4.273839">
        <ele>217.524090</ele>
        <time>2020-08-11T07:22:56.423Z</time>
      </trkpt>
      <trkpt lat="37.993133" lon="-4.273799">
        <ele>217.439617</ele>
        <time>2020-08-11T07:22:59.428Z</time>
      </trkpt>
      <trkpt lat="37.993044" lon="-4.273748">
        <ele>217.372607</ele>
        <time>2020-08-11T07:23:01.413Z</time>
      </trkpt>
      <trkpt lat="37.992945" lon="-4.273706">
        <ele>217.300978</ele>
        <time>2020-08-11T07:23:03.412Z</time>
      </trkpt>
      <trkpt lat="37.992828" lon="-4.273650">
        <ele>217.215172</ele>
        <time>2020-08-11T07:23:05.414Z</time>
      </trkpt>
      <trkpt lat="37.992714" lon="-4.273599">
        <ele>217.132227</ele>
        <time>2020-08-11T07:23:07.413Z</time>
      </trkpt>
      <trkpt lat="37.992625" lon="-4.273577">
        <ele>217.070008</ele>
        <time>2020-08-11T07:23:09.425Z</time>
      </trkpt>
      <trkpt lat="37.992537" lon="-4.273530">
        <ele>217.004492</ele>
        <time>2020-08-11T07:23:11.410Z</time>
      </trkpt>
      <trkpt lat="37.992422" lon="-4.273485">
        <ele>216.921913</ele>
        <time>2020-08-11T07:23:14.410Z</time>
      </trkpt>
      <trkpt lat="37.992332" lon="-4.273448">
        <ele>216.856995</ele>
        <time>2020-08-11T07:23:16.419Z</time>
      </trkpt>
      <trkpt lat="37.992236" lon="-4.273427">
        <ele>216.790149</ele>
        <time>2020-08-11T07:23:18.407Z</time>
      </trkpt>
      <trkpt lat="37.992145" lon="-4.273402">
        <ele>216.726259</ele>
        <time>2020-08-11T07:23:20.419Z</time>
      </trkpt>
      <trkpt lat="37.992054" lon="-4.273376">
        <ele>216.662252</ele>
        <time>2020-08-11T07:23:22.426Z</time>
      </trkpt>
      <trkpt lat="37.991964" lon="-4.273330">
        <ele>216.760895</ele>
        <time>2020-08-11T07:23:24.425Z</time>
      </trkpt>
      <trkpt lat="37.991861" lon="-4.273268">
        <ele>217.083252</ele>
        <time>2020-08-11T07:23:26.422Z</time>
      </trkpt>
      <trkpt lat="37.991758" lon="-4.273210">
        <ele>217.401891</ele>
        <time>2020-08-11T07:23:28.420Z</time>
      </trkpt>
      <trkpt lat="37.991647" lon="-4.273167">
        <ele>217.730061</ele>
        <time>2020-08-11T07:23:31.421Z</time>
      </trkpt>
      <trkpt lat="37.991544" lon="-4.273192">
        <ele>218.026588</ele>
        <time>2020-08-11T07:23:34.402Z</time>
      </trkpt>
      <trkpt lat="37.991424" lon="-4.273205">
        <ele>218.367139</ele>
        <time>2020-08-11T07:23:37.412Z</time>
      </trkpt>
      <trkpt lat="37.991333" lon="-4.273175">
        <ele>218.632998</ele>
        <time>2020-08-11T07:23:39.417Z</time>
      </trkpt>
      <trkpt lat="37.991246" lon="-4.273099">
        <ele>218.931666</ele>
        <time>2020-08-11T07:23:41.406Z</time>
      </trkpt>
      <trkpt lat="37.991141" lon="-4.273021">
        <ele>219.275707</ele>
        <time>2020-08-11T07:23:44.427Z</time>
      </trkpt>
      <trkpt lat="37.991031" lon="-4.272955">
        <ele>219.619769</ele>
        <time>2020-08-11T07:23:46.425Z</time>
      </trkpt>
      <trkpt lat="37.990942" lon="-4.272874">
        <ele>219.929472</ele>
        <time>2020-08-11T07:23:48.427Z</time>
      </trkpt>
      <trkpt lat="37.990853" lon="-4.272789">
        <ele>220.244453</ele>
        <time>2020-08-11T07:23:50.413Z</time>
      </trkpt>
      <trkpt lat="37.990754" lon="-4.272717">
        <ele>220.567112</ele>
        <time>2020-08-11T07:23:52.424Z</time>
      </trkpt>
      <trkpt lat="37.990658" lon="-4.272653">
        <ele>220.873753</ele>
        <time>2020-08-11T07:23:54.420Z</time>
      </trkpt>
      <trkpt lat="37.990569" lon="-4.272590">
        <ele>221.161926</ele>
        <time>2020-08-11T07:23:56.417Z</time>
      </trkpt>
      <trkpt lat="37.990476" lon="-4.272550">
        <ele>221.439594</ele>
        <time>2020-08-11T07:23:58.418Z</time>
      </trkpt>
      <trkpt lat="37.990351" lon="-4.272535">
        <ele>221.707595</ele>
        <time>2020-08-11T07:24:02.406Z</time>
      </trkpt>
      <trkpt lat="37.990244" lon="-4.272529">
        <ele>221.684126</ele>
        <time>2020-08-11T07:24:04.423Z</time>
      </trkpt>
      <trkpt lat="37.990157" lon="-4.272580">
        <ele>221.663127</ele>
        <time>2020-08-11T07:24:06.406Z</time>
      </trkpt>
      <trkpt lat="37.990070" lon="-4.272612">
        <ele>221.643279</ele>
        <time>2020-08-11T07:24:08.406Z</time>
      </trkpt>
      <trkpt lat="37.989967" lon="-4.272726">
        <ele>221.613331</ele>
        <time>2020-08-11T07:24:11.422Z</time>
      </trkpt>
      <trkpt lat="37.989893" lon="-4.272803">
        <ele>221.592361</ele>
        <time>2020-08-11T07:24:13.421Z</time>
      </trkpt>
      <trkpt lat="37.989817" lon="-4.272889">
        <ele>221.570048</ele>
        <time>2020-08-11T07:24:15.403Z</time>
      </trkpt>
      <trkpt lat="37.989732" lon="-4.272985">
        <ele>221.545113</ele>
        <time>2020-08-11T07:24:17.417Z</time>
      </trkpt>
      <trkpt lat="37.989669" lon="-4.273074">
        <ele>221.524455</ele>
        <time>2020-08-11T07:24:19.423Z</time>
      </trkpt>
      <trkpt lat="37.989589" lon="-4.273152">
        <ele>221.502348</ele>
        <time>2020-08-11T07:24:21.416Z</time>
      </trkpt>
      <trkpt lat="37.989506" lon="-4.273232">
        <ele>221.479509</ele>
        <time>2020-08-11T07:24:23.420Z</time>
      </trkpt>
      <trkpt lat="37.989424" lon="-4.273343">
        <ele>221.453236</ele>
        <time>2020-08-11T07:24:25.424Z</time>
      </trkpt>
      <trkpt lat="37.989344" lon="-4.273456">
        <ele>221.427005</ele>
        <time>2020-08-11T07:24:27.420Z</time>
      </trkpt>
      <trkpt lat="37.989257" lon="-4.273563">
        <ele>221.400456</ele>
        <time>2020-08-11T07:24:29.412Z</time>
      </trkpt>
      <trkpt lat="37.989187" lon="-4.273691">
        <ele>221.373551</ele>
        <time>2020-08-11T07:24:31.425Z</time>
      </trkpt>
      <trkpt lat="37.989107" lon="-4.273825">
        <ele>221.344521</ele>
        <time>2020-08-11T07:24:33.415Z</time>
      </trkpt>
      <trkpt lat="37.989028" lon="-4.273942">
        <ele>221.309693</ele>
        <time>2020-08-11T07:24:35.429Z</time>
      </trkpt>
      <trkpt lat="37.988943" lon="-4.274068">
        <ele>221.152173</ele>
        <time>2020-08-11T07:24:37.422Z</time>
      </trkpt>
      <trkpt lat="37.988877" lon="-4.274171">
        <ele>221.026096</ele>
        <time>2020-08-11T07:24:39.421Z</time>
      </trkpt>
      <trkpt lat="37.988791" lon="-4.274270">
        <ele>220.886162</ele>
        <time>2020-08-11T07:24:41.423Z</time>
      </trkpt>
      <trkpt lat="37.988700" lon="-4.274367">
        <ele>220.742939</ele>
        <time>2020-08-11T07:24:43.412Z</time>
      </trkpt>
      <trkpt lat="37.988603" lon="-4.274505">
        <ele>220.567320</ele>
        <time>2020-08-11T07:24:45.422Z</time>
      </trkpt>
      <trkpt lat="37.988532" lon="-4.274585">
        <ele>220.452893</ele>
        <time>2020-08-11T07:24:47.423Z</time>
      </trkpt>
      <trkpt lat="37.988467" lon="-4.274676">
        <ele>220.336251</ele>
        <time>2020-08-11T07:24:49.418Z</time>
      </trkpt>
      <trkpt lat="37.988389" lon="-4.274761">
        <ele>220.212346</ele>
        <time>2020-08-11T07:24:51.423Z</time>
      </trkpt>
      <trkpt lat="37.988328" lon="-4.274850">
        <ele>220.100325</ele>
        <time>2020-08-11T07:24:53.421Z</time>
      </trkpt>
      <trkpt lat="37.988231" lon="-4.274932">
        <ele>219.959865</ele>
        <time>2020-08-11T07:24:55.405Z</time>
      </trkpt>
      <trkpt lat="37.988149" lon="-4.275022">
        <ele>219.829208</ele>
        <time>2020-08-11T07:24:57.427Z</time>
      </trkpt>
      <trkpt lat="37.988075" lon="-4.275108">
        <ele>219.708279</ele>
        <time>2020-08-11T07:24:59.422Z</time>
      </trkpt>
      <trkpt lat="37.987986" lon="-4.275233">
        <ele>219.548287</ele>
        <time>2020-08-11T07:25:02.412Z</time>
      </trkpt>
      <trkpt lat="37.987882" lon="-4.275362">
        <ele>219.373022</ele>
        <time>2020-08-11T07:25:05.424Z</time>
      </trkpt>
      <trkpt lat="37.987818" lon="-4.275452">
        <ele>219.257892</ele>
        <time>2020-08-11T07:25:07.407Z</time>
      </trkpt>
      <trkpt lat="37.987749" lon="-4.275529">
        <ele>219.139861</ele>
        <time>2020-08-11T07:25:09.410Z</time>
      </trkpt>
      <trkpt lat="37.987687" lon="-4.275622">
        <ele>218.858363</ele>
        <time>2020-08-11T07:25:11.406Z</time>
      </trkpt>
      <trkpt lat="37.987597" lon="-4.275698">
        <ele>218.541363</ele>
        <time>2020-08-11T07:25:13.395Z</time>
      </trkpt>
      <trkpt lat="37.987535" lon="-4.275794">
        <ele>218.254537</ele>
        <time>2020-08-11T07:25:15.409Z</time>
      </trkpt>
      <trkpt lat="37.987478" lon="-4.275882">
        <ele>217.991303</ele>
        <time>2020-08-11T07:25:17.417Z</time>
      </trkpt>
      <trkpt lat="37.987398" lon="-4.275961">
        <ele>217.694054</ele>
        <time>2020-08-11T07:25:19.416Z</time>
      </trkpt>
      <trkpt lat="37.987339" lon="-4.276088">
        <ele>217.353365</ele>
        <time>2020-08-11T07:25:21.416Z</time>
      </trkpt>
      <trkpt lat="37.987277" lon="-4.276206">
        <ele>217.025625</ele>
        <time>2020-08-11T07:25:23.420Z</time>
      </trkpt>
      <trkpt lat="37.987205" lon="-4.276319">
        <ele>216.689818</ele>
        <time>2020-08-11T07:25:25.414Z</time>
      </trkpt>
      <trkpt lat="37.987160" lon="-4.276485">
        <ele>216.284135</ele>
        <time>2020-08-11T07:25:27.415Z</time>
      </trkpt>
      <trkpt lat="37.987138" lon="-4.276642">
        <ele>215.915618</ele>
        <time>2020-08-11T07:25:29.422Z</time>
      </trkpt>
      <trkpt lat="37.987146" lon="-4.276802">
        <ele>215.545114</ele>
        <time>2020-08-11T07:25:31.418Z</time>
      </trkpt>
      <trkpt lat="37.987164" lon="-4.276945">
        <ele>215.210453</ele>
        <time>2020-08-11T07:25:33.422Z</time>
      </trkpt>
      <trkpt lat="37.987162" lon="-4.277095">
        <ele>214.863753</ele>
        <time>2020-08-11T07:25:35.410Z</time>
      </trkpt>
      <trkpt lat="37.987169" lon="-4.277247">
        <ele>214.511882</ele>
        <time>2020-08-11T07:25:37.421Z</time>
      </trkpt>
      <trkpt lat="37.987180" lon="-4.277409">
        <ele>214.136113</ele>
        <time>2020-08-11T07:25:39.412Z</time>
      </trkpt>
      <trkpt lat="37.987203" lon="-4.277569">
        <ele>213.854152</ele>
        <time>2020-08-11T07:25:41.423Z</time>
      </trkpt>
      <trkpt lat="37.987212" lon="-4.277719">
        <ele>213.783064</ele>
        <time>2020-08-11T07:25:43.420Z</time>
      </trkpt>
      <trkpt lat="37.987204" lon="-4.277856">
        <ele>213.718147</ele>
        <time>2020-08-11T07:25:45.423Z</time>
      </trkpt>
      <trkpt lat="37.987213" lon="-4.278017">
        <ele>213.641874</ele>
        <time>2020-08-11T07:25:47.423Z</time>
      </trkpt>
      <trkpt lat="37.987227" lon="-4.278162">
        <ele>213.572842</ele>
        <time>2020-08-11T07:25:49.407Z</time>
      </trkpt>
      <trkpt lat="37.987244" lon="-4.278334">
        <ele>213.490927</ele>
        <time>2020-08-11T07:25:51.419Z</time>
      </trkpt>
      <trkpt lat="37.987274" lon="-4.278478">
        <ele>213.420542</ele>
        <time>2020-08-11T07:25:53.417Z</time>
      </trkpt>
      <trkpt lat="37.987283" lon="-4.278637">
        <ele>213.345213</ele>
        <time>2020-08-11T07:25:55.426Z</time>
      </trkpt>
      <trkpt lat="37.987284" lon="-4.278786">
        <ele>213.274800</ele>
        <time>2020-08-11T07:25:57.405Z</time>
      </trkpt>
      <trkpt lat="37.987285" lon="-4.278926">
        <ele>213.208640</ele>
        <time>2020-08-11T07:25:59.408Z</time>
      </trkpt>
      <trkpt lat="37.987296" lon="-4.279088">
        <ele>213.131803</ele>
        <time>2020-08-11T07:26:01.421Z</time>
      </trkpt>
      <trkpt lat="37.987298" lon="-4.279247">
        <ele>213.056657</ele>
        <time>2020-08-11T07:26:03.413Z</time>
      </trkpt>
      <trkpt lat="37.987306" lon="-4.279388">
        <ele>212.989855</ele>
        <time>2020-08-11T07:26:05.414Z</time>
      </trkpt>
      <trkpt lat="37.987324" lon="-4.279538">
        <ele>212.918156</ele>
        <time>2020-08-11T07:26:07.431Z</time>
      </trkpt>
      <trkpt lat="37.987330" lon="-4.279685">
        <ele>212.848597</ele>
        <time>2020-08-11T07:26:09.409Z</time>
      </trkpt>
      <trkpt lat="37.987350" lon="-4.279836">
        <ele>212.846844</ele>
        <time>2020-08-11T07:26:11.409Z</time>
      </trkpt>
      <trkpt lat="37.987377" lon="-4.279990">
        <ele>212.995062</ele>
        <time>2020-08-11T07:26:13.401Z</time>
      </trkpt>
      <trkpt lat="37.987422" lon="-4.280120">
        <ele>213.128457</ele>
        <time>2020-08-11T07:26:15.408Z</time>
      </trkpt>
      <trkpt lat="37.987463" lon="-4.280261">
        <ele>213.269653</ele>
        <time>2020-08-11T07:26:17.421Z</time>
      </trkpt>
      <trkpt lat="37.987505" lon="-4.280393">
        <ele>213.403390</ele>
        <time>2020-08-11T07:26:19.410Z</time>
      </trkpt>
      <trkpt lat="37.987543" lon="-4.280527">
        <ele>213.537183</ele>
        <time>2020-08-11T07:26:21.413Z</time>
      </trkpt>
      <trkpt lat="37.987610" lon="-4.280658">
        <ele>213.683899</ele>
        <time>2020-08-11T07:26:23.416Z</time>
      </trkpt>
      <trkpt lat="37.987669" lon="-4.280775">
        <ele>213.814393</ele>
        <time>2020-08-11T07:26:25.419Z</time>
      </trkpt>
      <trkpt lat="37.987751" lon="-4.280887">
        <ele>213.958011</ele>
        <time>2020-08-11T07:26:27.413Z</time>
      </trkpt>
      <trkpt lat="37.987876" lon="-4.280946">
        <ele>214.116991</ele>
        <time>2020-08-11T07:26:29.416Z</time>
      </trkpt>
      <trkpt lat="37.988013" lon="-4.280958">
        <ele>214.280687</ele>
        <time>2020-08-11T07:26:31.423Z</time>
      </trkpt>
      <trkpt lat="37.988125" lon="-4.280983">
        <ele>214.416245</ele>
        <time>2020-08-11T07:26:33.425Z</time>
      </trkpt>
      <trkpt lat="37.988240" lon="-4.280989">
        <ele>214.553444</ele>
        <time>2020-08-11T07:26:35.403Z</time>
      </trkpt>
      <trkpt lat="37.988342" lon="-4.280948">
        <ele>214.680986</ele>
        <time>2020-08-11T07:26:37.423Z</time>
      </trkpt>
      <trkpt lat="37.988428" lon="-4.281009">
        <ele>214.798431</ele>
        <time>2020-08-11T07:26:39.412Z</time>
      </trkpt>
      <trkpt lat="37.988494" lon="-4.281190">
        <ele>214.927608</ele>
        <time>2020-08-11T07:26:41.404Z</time>
      </trkpt>
      <trkpt lat="37.988507" lon="-4.281321">
        <ele>214.879363</ele>
        <time>2020-08-11T07:26:43.420Z</time>
      </trkpt>
      <trkpt lat="37.988479" lon="-4.281445">
        <ele>214.832232</ele>
        <time>2020-08-11T07:26:45.407Z</time>
      </trkpt>
      <trkpt lat="37.988353" lon="-4.281474">
        <ele>214.772863</ele>
        <time>2020-08-11T07:26:48.412Z</time>
      </trkpt>
      <trkpt lat="37.988241" lon="-4.281423">
        <ele>214.717695</ele>
        <time>2020-08-11T07:26:51.425Z</time>
      </trkpt>
      <trkpt lat="37.988103" lon="-4.281379">
        <ele>214.651727</ele>
        <time>2020-08-11T07:26:54.415Z</time>
      </trkpt>
      <trkpt lat="37.988007" lon="-4.281397">
        <ele>214.606737</ele>
        <time>2020-08-11T07:26:56.416Z</time>
      </trkpt>
      <trkpt lat="37.987895" lon="-4.281408">
        <ele>214.554656</ele>
        <time>2020-08-11T07:26:58.413Z</time>
      </trkpt>
      <trkpt lat="37.987786" lon="-4.281400">
        <ele>214.504038</ele>
        <time>2020-08-11T07:27:00.420Z</time>
      </trkpt>
      <trkpt lat="37.987677" lon="-4.281403">
        <ele>214.453491</ele>
        <time>2020-08-11T07:27:02.417Z</time>
      </trkpt>
      <trkpt lat="37.987568" lon="-4.281384">
        <ele>214.402483</ele>
        <time>2020-08-11T07:27:04.404Z</time>
      </trkpt>
      <trkpt lat="37.987466" lon="-4.281346">
        <ele>214.353197</ele>
        <time>2020-08-11T07:27:06.403Z</time>
      </trkpt>
      <trkpt lat="37.987376" lon="-4.281276">
        <ele>214.304256</ele>
        <time>2020-08-11T07:27:08.409Z</time>
      </trkpt>
      <trkpt lat="37.987275" lon="-4.281238">
        <ele>214.255416</ele>
        <time>2020-08-11T07:27:10.406Z</time>
      </trkpt>
      <trkpt lat="37.987163" lon="-4.281220">
        <ele>214.203076</ele>
        <time>2020-08-11T07:27:12.422Z</time>
      </trkpt>
      <trkpt lat="37.987048" lon="-4.281189">
        <ele>214.148570</ele>
        <time>2020-08-11T07:27:14.412Z</time>
      </trkpt>
      <trkpt lat="37.986928" lon="-4.281139">
        <ele>214.128670</ele>
        <time>2020-08-11T07:27:16.409Z</time>
      </trkpt>
      <trkpt lat="37.986823" lon="-4.281111">
        <ele>214.175036</ele>
        <time>2020-08-11T07:27:18.413Z</time>
      </trkpt>
      <trkpt lat="37.986722" lon="-4.281113">
        <ele>214.218687</ele>
        <time>2020-08-11T07:27:20.425Z</time>
      </trkpt>
      <trkpt lat="37.986615" lon="-4.281117">
        <ele>214.264945</ele>
        <time>2020-08-11T07:27:22.416Z</time>
      </trkpt>
      <trkpt lat="37.986502" lon="-4.281082">
        <ele>214.315210</ele>
        <time>2020-08-11T07:27:25.428Z</time>
      </trkpt>
      <trkpt lat="37.986383" lon="-4.281158">
        <ele>214.372781</ele>
        <time>2020-08-11T07:27:29.419Z</time>
      </trkpt>
      <trkpt lat="37.986281" lon="-4.281194">
        <ele>214.418532</ele>
        <time>2020-08-11T07:27:31.397Z</time>
      </trkpt>
      <trkpt lat="37.986185" lon="-4.281257">
        <ele>214.465238</ele>
        <time>2020-08-11T07:27:33.412Z</time>
      </trkpt>
      <trkpt lat="37.986111" lon="-4.281323">
        <ele>214.504326</ele>
        <time>2020-08-11T07:27:35.406Z</time>
      </trkpt>
      <trkpt lat="37.986039" lon="-4.281404">
        <ele>214.545909</ele>
        <time>2020-08-11T07:27:37.412Z</time>
      </trkpt>
      <trkpt lat="37.985971" lon="-4.281480">
        <ele>214.585069</ele>
        <time>2020-08-11T07:27:39.406Z</time>
      </trkpt>
      <trkpt lat="37.985891" lon="-4.281601">
        <ele>214.638861</ele>
        <time>2020-08-11T07:27:41.418Z</time>
      </trkpt>
      <trkpt lat="37.985821" lon="-4.281757">
        <ele>214.700000</ele>
        <time>2020-08-11T07:27:43.407Z</time>
      </trkpt>
      <trkpt lat="37.985726" lon="-4.281890">
        <ele>214.761134</ele>
        <time>2020-08-11T07:27:45.420Z</time>
      </trkpt>
      <trkpt lat="37.985634" lon="-4.282032">
        <ele>214.823741</ele>
        <time>2020-08-11T07:27:47.400Z</time>
      </trkpt>
      <trkpt lat="37.985583" lon="-4.282172">
        <ele>214.876270</ele>
        <time>2020-08-11T07:27:49.402Z</time>
      </trkpt>
      <trkpt lat="37.985522" lon="-4.282330">
        <ele>215.048242</ele>
        <time>2020-08-11T07:27:51.402Z</time>
      </trkpt>
      <trkpt lat="37.985432" lon="-4.282456">
        <ele>215.238816</ele>
        <time>2020-08-11T07:27:53.418Z</time>
      </trkpt>
      <trkpt lat="37.985366" lon="-4.282589">
        <ele>215.414956</ele>
        <time>2020-08-11T07:27:55.407Z</time>
      </trkpt>
      <trkpt lat="37.985291" lon="-4.282712">
        <ele>215.589243</ele>
        <time>2020-08-11T07:27:57.428Z</time>
      </trkpt>
      <trkpt lat="37.985213" lon="-4.282851">
        <ele>215.780474</ele>
        <time>2020-08-11T07:27:59.409Z</time>
      </trkpt>
      <trkpt lat="37.985136" lon="-4.282972">
        <ele>215.954766</ele>
        <time>2020-08-11T07:28:01.426Z</time>
      </trkpt>
      <trkpt lat="37.985073" lon="-4.283121">
        <ele>216.144266</ele>
        <time>2020-08-11T07:28:03.490Z</time>
      </trkpt>
      <trkpt lat="37.985010" lon="-4.283257">
        <ele>216.321062</ele>
        <time>2020-08-11T07:28:05.410Z</time>
      </trkpt>
      <trkpt lat="37.984941" lon="-4.283397">
        <ele>216.506116</ele>
        <time>2020-08-11T07:28:07.425Z</time>
      </trkpt>
      <trkpt lat="37.984868" lon="-4.283538">
        <ele>216.695183</ele>
        <time>2020-08-11T07:28:09.421Z</time>
      </trkpt>
      <trkpt lat="37.984801" lon="-4.283666">
        <ele>216.867391</ele>
        <time>2020-08-11T07:28:11.406Z</time>
      </trkpt>
      <trkpt lat="37.984749" lon="-4.283819">
        <ele>217.054126</ele>
        <time>2020-08-11T07:28:13.412Z</time>
      </trkpt>
      <trkpt lat="37.984688" lon="-4.283948">
        <ele>217.222725</ele>
        <time>2020-08-11T07:28:15.411Z</time>
      </trkpt>
      <trkpt lat="37.984636" lon="-4.284070">
        <ele>217.378168</ele>
        <time>2020-08-11T07:28:17.403Z</time>
      </trkpt>
      <trkpt lat="37.984579" lon="-4.284193">
        <ele>217.389345</ele>
        <time>2020-08-11T07:28:19.411Z</time>
      </trkpt>
      <trkpt lat="37.984523" lon="-4.284296">
        <ele>217.305876</ele>
        <time>2020-08-11T07:28:21.425Z</time>
      </trkpt>
      <trkpt lat="37.984468" lon="-4.284427">
        <ele>217.206865</ele>
        <time>2020-08-11T07:28:23.408Z</time>
      </trkpt>
      <trkpt lat="37.984409" lon="-4.284537">
        <ele>217.118109</ele>
        <time>2020-08-11T07:28:25.401Z</time>
      </trkpt>
      <trkpt lat="37.984360" lon="-4.284663">
        <ele>217.024384</ele>
        <time>2020-08-11T07:28:27.415Z</time>
      </trkpt>
      <trkpt lat="37.984291" lon="-4.284777">
        <ele>216.928502</ele>
        <time>2020-08-11T07:28:29.420Z</time>
      </trkpt>
      <trkpt lat="37.984240" lon="-4.284877">
        <ele>216.849048</ele>
        <time>2020-08-11T07:28:31.421Z</time>
      </trkpt>
      <trkpt lat="37.984177" lon="-4.284989">
        <ele>216.757261</ele>
        <time>2020-08-11T07:28:33.413Z</time>
      </trkpt>
      <trkpt lat="37.984109" lon="-4.285108">
        <ele>216.659212</ele>
        <time>2020-08-11T07:28:35.410Z</time>
      </trkpt>
      <trkpt lat="37.984064" lon="-4.285246">
        <ele>216.559589</ele>
        <time>2020-08-11T07:28:37.427Z</time>
      </trkpt>
      <trkpt lat="37.984020" lon="-4.285377">
        <ele>216.464599</ele>
        <time>2020-08-11T07:28:39.415Z</time>
      </trkpt>
      <trkpt lat="37.983960" lon="-4.285489">
        <ele>216.374263</ele>
        <time>2020-08-11T07:28:41.416Z</time>
      </trkpt>
      <trkpt lat="37.983919" lon="-4.285613">
        <ele>216.284562</ele>
        <time>2020-08-11T07:28:43.411Z</time>
      </trkpt>
      <trkpt lat="37.983876" lon="-4.285745">
        <ele>216.189284</ele>
        <time>2020-08-11T07:28:45.414Z</time>
      </trkpt>
      <trkpt lat="37.983806" lon="-4.285899">
        <ele>216.070695</ele>
        <time>2020-08-11T07:28:48.411Z</time>
      </trkpt>
      <trkpt lat="37.983754" lon="-4.286034">
        <ele>215.970462</ele>
        <time>2020-08-11T07:28:51.398Z</time>
      </trkpt>
      <trkpt lat="37.983703" lon="-4.286128">
        <ele>215.987615</ele>
        <time>2020-08-11T07:28:53.415Z</time>
      </trkpt>
      <trkpt lat="37.983674" lon="-4.286236">
        <ele>216.162947</ele>
        <time>2020-08-11T07:28:55.405Z</time>
      </trkpt>
      <trkpt lat="37.983612" lon="-4.286385">
        <ele>216.421867</ele>
        <time>2020-08-11T07:28:58.426Z</time>
      </trkpt>
      <trkpt lat="37.983569" lon="-4.286490">
        <ele>216.603703</ele>
        <time>2020-08-11T07:29:00.426Z</time>
      </trkpt>
      <trkpt lat="37.983507" lon="-4.286639">
        <ele>216.862623</ele>
        <time>2020-08-11T07:29:03.407Z</time>
      </trkpt>
      <trkpt lat="37.983447" lon="-4.286775">
        <ele>217.102129</ele>
        <time>2020-08-11T07:29:06.411Z</time>
      </trkpt>
      <trkpt lat="37.983379" lon="-4.286910">
        <ele>217.348331</ele>
        <time>2020-08-11T07:29:09.412Z</time>
      </trkpt>
      <trkpt lat="37.983309" lon="-4.287004">
        <ele>217.547059</ele>
        <time>2020-08-11T07:29:11.406Z</time>
      </trkpt>
      <trkpt lat="37.983245" lon="-4.287132">
        <ele>217.779999</ele>
        <time>2020-08-11T07:29:14.419Z</time>
      </trkpt>
      <trkpt lat="37.983180" lon="-4.287254">
        <ele>218.006294</ele>
        <time>2020-08-11T07:29:17.409Z</time>
      </trkpt>
      <trkpt lat="37.983136" lon="-4.287389">
        <ele>218.230789</ele>
        <time>2020-08-11T07:29:20.415Z</time>
      </trkpt>
      <trkpt lat="37.983094" lon="-4.287520">
        <ele>218.448118</ele>
        <time>2020-08-11T07:29:23.417Z</time>
      </trkpt>
      <trkpt lat="37.983064" lon="-4.287653">
        <ele>218.660707</ele>
        <time>2020-08-11T07:29:26.427Z</time>
      </trkpt>
      <trkpt lat="37.983021" lon="-4.287834">
        <ele>218.951215</ele>
        <time>2020-08-11T07:29:29.423Z</time>
      </trkpt>
      <trkpt lat="37.982970" lon="-4.287978">
        <ele>219.193817</ele>
        <time>2020-08-11T07:29:32.402Z</time>
      </trkpt>
      <trkpt lat="37.982909" lon="-4.288126">
        <ele>219.507813</ele>
        <time>2020-08-11T07:29:35.418Z</time>
      </trkpt>
      <trkpt lat="37.982869" lon="-4.288287">
        <ele>220.471826</ele>
        <time>2020-08-11T07:29:38.420Z</time>
      </trkpt>
      <trkpt lat="37.982833" lon="-4.288437">
        <ele>221.367259</ele>
        <time>2020-08-11T07:29:41.416Z</time>
      </trkpt>
      <trkpt lat="37.982778" lon="-4.288588">
        <ele>222.317194</ele>
        <time>2020-08-11T07:29:44.421Z</time>
      </trkpt>
      <trkpt lat="37.982745" lon="-4.288734">
        <ele>223.184559</ele>
        <time>2020-08-11T07:29:46.404Z</time>
      </trkpt>
      <trkpt lat="37.982713" lon="-4.288861">
        <ele>223.945974</ele>
        <time>2020-08-11T07:29:48.407Z</time>
      </trkpt>
      <trkpt lat="37.982696" lon="-4.288991">
        <ele>224.698512</ele>
        <time>2020-08-11T07:29:50.423Z</time>
      </trkpt>
      <trkpt lat="37.982673" lon="-4.289137">
        <ele>225.548763</ele>
        <time>2020-08-11T07:29:52.421Z</time>
      </trkpt>
      <trkpt lat="37.982664" lon="-4.289250">
        <ele>226.197357</ele>
        <time>2020-08-11T07:29:54.413Z</time>
      </trkpt>
      <trkpt lat="37.982632" lon="-4.289384">
        <ele>226.996942</ele>
        <time>2020-08-11T07:29:56.426Z</time>
      </trkpt>
      <trkpt lat="37.982624" lon="-4.289514">
        <ele>227.741592</ele>
        <time>2020-08-11T07:29:58.434Z</time>
      </trkpt>
      <trkpt lat="37.982610" lon="-4.289655">
        <ele>228.553164</ele>
        <time>2020-08-11T07:30:00.425Z</time>
      </trkpt>
      <trkpt lat="37.982622" lon="-4.289791">
        <ele>229.334670</ele>
        <time>2020-08-11T07:30:02.424Z</time>
      </trkpt>
      <trkpt lat="37.982643" lon="-4.289936">
        <ele>230.176584</ele>
        <time>2020-08-11T07:30:04.422Z</time>
      </trkpt>
      <trkpt lat="37.982634" lon="-4.290086">
        <ele>231.035666</ele>
        <time>2020-08-11T07:30:06.431Z</time>
      </trkpt>
      <trkpt lat="37.982640" lon="-4.290225">
        <ele>231.830643</ele>
        <time>2020-08-11T07:30:08.416Z</time>
      </trkpt>
      <trkpt lat="37.982609" lon="-4.290372">
        <ele>232.369302</ele>
        <time>2020-08-11T07:30:10.422Z</time>
      </trkpt>
      <trkpt lat="37.982574" lon="-4.290546">
        <ele>231.975232</ele>
        <time>2020-08-11T07:30:12.402Z</time>
      </trkpt>
      <trkpt lat="37.982568" lon="-4.290696">
        <ele>231.645642</ele>
        <time>2020-08-11T07:30:14.414Z</time>
      </trkpt>
      <trkpt lat="37.982560" lon="-4.290845">
        <ele>231.317913</ele>
        <time>2020-08-11T07:30:16.413Z</time>
      </trkpt>
      <trkpt lat="37.982561" lon="-4.291005">
        <ele>230.966792</ele>
        <time>2020-08-11T07:30:18.427Z</time>
      </trkpt>
      <trkpt lat="37.982554" lon="-4.291158">
        <ele>230.630477</ele>
        <time>2020-08-11T07:30:20.407Z</time>
      </trkpt>
      <trkpt lat="37.982572" lon="-4.291294">
        <ele>230.327855</ele>
        <time>2020-08-11T07:30:22.424Z</time>
      </trkpt>
      <trkpt lat="37.982579" lon="-4.291446">
        <ele>229.993732</ele>
        <time>2020-08-11T07:30:24.419Z</time>
      </trkpt>
      <trkpt lat="37.982590" lon="-4.291591">
        <ele>229.674068</ele>
        <time>2020-08-11T07:30:26.416Z</time>
      </trkpt>
      <trkpt lat="37.982598" lon="-4.291740">
        <ele>229.346338</ele>
        <time>2020-08-11T07:30:28.413Z</time>
      </trkpt>
      <trkpt lat="37.982603" lon="-4.291871">
        <ele>229.058530</ele>
        <time>2020-08-11T07:30:30.425Z</time>
      </trkpt>
      <trkpt lat="37.982629" lon="-4.291998">
        <ele>228.770589</ele>
        <time>2020-08-11T07:30:32.425Z</time>
      </trkpt>
      <trkpt lat="37.982648" lon="-4.292131">
        <ele>228.473974</ele>
        <time>2020-08-11T07:30:34.411Z</time>
      </trkpt>
      <trkpt lat="37.982675" lon="-4.292264">
        <ele>228.172589</ele>
        <time>2020-08-11T07:30:36.412Z</time>
      </trkpt>
      <trkpt lat="37.982716" lon="-4.292426">
        <ele>227.799213</ele>
        <time>2020-08-11T07:30:39.417Z</time>
      </trkpt>
      <trkpt lat="37.982757" lon="-4.292558">
        <ele>227.487868</ele>
        <time>2020-08-11T07:30:41.419Z</time>
      </trkpt>
      <trkpt lat="37.982790" lon="-4.292682">
        <ele>227.394088</ele>
        <time>2020-08-11T07:30:43.410Z</time>
      </trkpt>
      <trkpt lat="37.982800" lon="-4.292802">
        <ele>227.331975</ele>
        <time>2020-08-11T07:30:45.409Z</time>
      </trkpt>
      <trkpt lat="37.982835" lon="-4.292930">
        <ele>227.262236</ele>
        <time>2020-08-11T07:30:47.420Z</time>
      </trkpt>
      <trkpt lat="37.982881" lon="-4.293056">
        <ele>227.190760</ele>
        <time>2020-08-11T07:30:49.423Z</time>
      </trkpt>
      <trkpt lat="37.982898" lon="-4.293196">
        <ele>227.117846</ele>
        <time>2020-08-11T07:30:51.421Z</time>
      </trkpt>
      <trkpt lat="37.982936" lon="-4.293306">
        <ele>227.056025</ele>
        <time>2020-08-11T07:30:53.416Z</time>
      </trkpt>
      <trkpt lat="37.982968" lon="-4.293435">
        <ele>226.986413</ele>
        <time>2020-08-11T07:30:55.421Z</time>
      </trkpt>
      <trkpt lat="37.982980" lon="-4.293558">
        <ele>226.922617</ele>
        <time>2020-08-11T07:30:57.412Z</time>
      </trkpt>
      <trkpt lat="37.983021" lon="-4.293687">
        <ele>226.851021</ele>
        <time>2020-08-11T07:30:59.418Z</time>
      </trkpt>
      <trkpt lat="37.983063" lon="-4.293825">
        <ele>226.774876</ele>
        <time>2020-08-11T07:31:01.422Z</time>
      </trkpt>
      <trkpt lat="37.983090" lon="-4.293940">
        <ele>226.713110</ele>
        <time>2020-08-11T07:31:03.409Z</time>
      </trkpt>
      <trkpt lat="37.983077" lon="-4.294069">
        <ele>226.646169</ele>
        <time>2020-08-11T07:31:05.407Z</time>
      </trkpt>
      <trkpt lat="37.983127" lon="-4.294194">
        <ele>226.574015</ele>
        <time>2020-08-11T07:31:07.419Z</time>
      </trkpt>
      <trkpt lat="37.983157" lon="-4.294316">
        <ele>226.508232</ele>
        <time>2020-08-11T07:31:09.407Z</time>
      </trkpt>
      <trkpt lat="37.983174" lon="-4.294457">
        <ele>226.434810</ele>
        <time>2020-08-11T07:31:11.412Z</time>
      </trkpt>
      <trkpt lat="37.983212" lon="-4.294574">
        <ele>226.369673</ele>
        <time>2020-08-11T07:31:13.417Z</time>
      </trkpt>
      <trkpt lat="37.983236" lon="-4.294690">
        <ele>226.307941</ele>
        <time>2020-08-11T07:31:15.412Z</time>
      </trkpt>
      <trkpt lat="37.983248" lon="-4.294852">
        <ele>226.168301</ele>
        <time>2020-08-11T07:31:18.409Z</time>
      </trkpt>
      <trkpt lat="37.983334" lon="-4.294939">
        <ele>226.022884</ele>
        <time>2020-08-11T07:31:20.411Z</time>
      </trkpt>
      <trkpt lat="37.983354" lon="-4.295071">
        <ele>225.882816</ele>
        <time>2020-08-11T07:31:22.406Z</time>
      </trkpt>
      <trkpt lat="37.983375" lon="-4.295194">
        <ele>225.751672</ele>
        <time>2020-08-11T07:31:24.414Z</time>
      </trkpt>
      <trkpt lat="37.983403" lon="-4.295307">
        <ele>225.628240</ele>
        <time>2020-08-11T07:31:26.418Z</time>
      </trkpt>
      <trkpt lat="37.983444" lon="-4.295435">
        <ele>225.484265</ele>
        <time>2020-08-11T07:31:28.404Z</time>
      </trkpt>
      <trkpt lat="37.983471" lon="-4.295578">
        <ele>225.331037</ele>
        <time>2020-08-11T07:31:30.402Z</time>
      </trkpt>
      <trkpt lat="37.983513" lon="-4.295699">
        <ele>225.193265</ele>
        <time>2020-08-11T07:31:32.413Z</time>
      </trkpt>
      <trkpt lat="37.983555" lon="-4.295814">
        <ele>225.061190</ele>
        <time>2020-08-11T07:31:34.416Z</time>
      </trkpt>
      <trkpt lat="37.983595" lon="-4.295980">
        <ele>224.880309</ele>
        <time>2020-08-11T07:31:37.415Z</time>
      </trkpt>
      <trkpt lat="37.983624" lon="-4.296115">
        <ele>224.734502</ele>
        <time>2020-08-11T07:31:39.417Z</time>
      </trkpt>
      <trkpt lat="37.983638" lon="-4.296275">
        <ele>224.566752</ele>
        <time>2020-08-11T07:31:41.423Z</time>
      </trkpt>
      <trkpt lat="37.983693" lon="-4.296388">
        <ele>224.428359</ele>
        <time>2020-08-11T07:31:43.433Z</time>
      </trkpt>
      <trkpt lat="37.983759" lon="-4.296501">
        <ele>224.281802</ele>
        <time>2020-08-11T07:31:45.407Z</time>
      </trkpt>
      <trkpt lat="37.983773" lon="-4.296616">
        <ele>224.160547</ele>
        <time>2020-08-11T07:31:47.411Z</time>
      </trkpt>
      <trkpt lat="37.983797" lon="-4.296749">
        <ele>224.018370</ele>
        <time>2020-08-11T07:31:49.401Z</time>
      </trkpt>
      <trkpt lat="37.983845" lon="-4.296864">
        <ele>223.928567</ele>
        <time>2020-08-11T07:31:51.419Z</time>
      </trkpt>
      <trkpt lat="37.983844" lon="-4.297004">
        <ele>224.153174</ele>
        <time>2020-08-11T07:31:53.412Z</time>
      </trkpt>
      <trkpt lat="37.983889" lon="-4.297136">
        <ele>224.383897</ele>
        <time>2020-08-11T07:31:55.402Z</time>
      </trkpt>
      <trkpt lat="37.983895" lon="-4.297261">
        <ele>224.584803</ele>
        <time>2020-08-11T07:31:57.431Z</time>
      </trkpt>
      <trkpt lat="37.983961" lon="-4.297377">
        <ele>224.814319</ele>
        <time>2020-08-11T07:31:59.405Z</time>
      </trkpt>
      <trkpt lat="37.983950" lon="-4.297494">
        <ele>225.003349</ele>
        <time>2020-08-11T07:32:01.401Z</time>
      </trkpt>
      <trkpt lat="37.984012" lon="-4.297593">
        <ele>225.206203</ele>
        <time>2020-08-11T07:32:03.404Z</time>
      </trkpt>
      <trkpt lat="37.984039" lon="-4.297734">
        <ele>225.438985</ele>
        <time>2020-08-11T07:32:05.406Z</time>
      </trkpt>
      <trkpt lat="37.984053" lon="-4.297900">
        <ele>225.706814</ele>
        <time>2020-08-11T07:32:07.413Z</time>
      </trkpt>
      <trkpt lat="37.984092" lon="-4.298033">
        <ele>225.934469</ele>
        <time>2020-08-11T07:32:09.405Z</time>
      </trkpt>
      <trkpt lat="37.984114" lon="-4.298161">
        <ele>226.144641</ele>
        <time>2020-08-11T07:32:11.418Z</time>
      </trkpt>
      <trkpt lat="37.984143" lon="-4.298285">
        <ele>226.352143</ele>
        <time>2020-08-11T07:32:13.408Z</time>
      </trkpt>
      <trkpt lat="37.984154" lon="-4.298419">
        <ele>226.568277</ele>
        <time>2020-08-11T07:32:15.408Z</time>
      </trkpt>
      <trkpt lat="37.984184" lon="-4.298554">
        <ele>226.793296</ele>
        <time>2020-08-11T07:32:17.415Z</time>
      </trkpt>
      <trkpt lat="37.984206" lon="-4.298688">
        <ele>227.012882</ele>
        <time>2020-08-11T07:32:19.404Z</time>
      </trkpt>
      <trkpt lat="37.984217" lon="-4.298834">
        <ele>227.248172</ele>
        <time>2020-08-11T07:32:21.413Z</time>
      </trkpt>
      <trkpt lat="37.984242" lon="-4.298987">
        <ele>227.498843</ele>
        <time>2020-08-11T07:32:23.415Z</time>
      </trkpt>
      <trkpt lat="37.984279" lon="-4.299126">
        <ele>227.645443</ele>
        <time>2020-08-11T07:32:25.414Z</time>
      </trkpt>
      <trkpt lat="37.984345" lon="-4.299251">
        <ele>227.762565</ele>
        <time>2020-08-11T07:32:27.410Z</time>
      </trkpt>
      <trkpt lat="37.984457" lon="-4.299279">
        <ele>227.875310</ele>
        <time>2020-08-11T07:32:29.399Z</time>
      </trkpt>
      <trkpt lat="37.984581" lon="-4.299323">
        <ele>228.002480</ele>
        <time>2020-08-11T07:32:31.393Z</time>
      </trkpt>
      <trkpt lat="37.984689" lon="-4.299369">
        <ele>228.114997</ele>
        <time>2020-08-11T07:32:33.404Z</time>
      </trkpt>
      <trkpt lat="37.984808" lon="-4.299404">
        <ele>228.235646</ele>
        <time>2020-08-11T07:32:35.417Z</time>
      </trkpt>
      <trkpt lat="37.984921" lon="-4.299453">
        <ele>228.353590</ele>
        <time>2020-08-11T07:32:37.408Z</time>
      </trkpt>
      <trkpt lat="37.985061" lon="-4.299494">
        <ele>228.495498</ele>
        <time>2020-08-11T07:32:39.410Z</time>
      </trkpt>
      <trkpt lat="37.985175" lon="-4.299515">
        <ele>228.609272</ele>
        <time>2020-08-11T07:32:41.403Z</time>
      </trkpt>
      <trkpt lat="37.985291" lon="-4.299555">
        <ele>228.727996</ele>
        <time>2020-08-11T07:32:43.412Z</time>
      </trkpt>
      <trkpt lat="37.985399" lon="-4.299582">
        <ele>228.836715</ele>
        <time>2020-08-11T07:32:45.418Z</time>
      </trkpt>
      <trkpt lat="37.985496" lon="-4.299598">
        <ele>228.933324</ele>
        <time>2020-08-11T07:32:47.424Z</time>
      </trkpt>
      <trkpt lat="37.985608" lon="-4.299614">
        <ele>229.044641</ele>
        <time>2020-08-11T07:32:49.420Z</time>
      </trkpt>
      <trkpt lat="37.985712" lon="-4.299676">
        <ele>229.158131</ele>
        <time>2020-08-11T07:32:51.408Z</time>
      </trkpt>
      <trkpt lat="37.985835" lon="-4.299740">
        <ele>229.289432</ele>
        <time>2020-08-11T07:32:53.429Z</time>
      </trkpt>
      <trkpt lat="37.985960" lon="-4.299766">
        <ele>229.338225</ele>
        <time>2020-08-11T07:32:55.410Z</time>
      </trkpt>
      <trkpt lat="37.986075" lon="-4.299822">
        <ele>229.338240</ele>
        <time>2020-08-11T07:32:57.417Z</time>
      </trkpt>
      <trkpt lat="37.986418" lon="-4.300018">
        <ele>229.338287</ele>
        <time>2020-08-11T07:33:03.416Z</time>
      </trkpt>
      <trkpt lat="37.986515" lon="-4.300034">
        <ele>229.338300</ele>
        <time>2020-08-11T07:33:05.395Z</time>
      </trkpt>
      <trkpt lat="37.986614" lon="-4.300041">
        <ele>229.338312</ele>
        <time>2020-08-11T07:33:07.414Z</time>
      </trkpt>
      <trkpt lat="37.986718" lon="-4.300010">
        <ele>229.338326</ele>
        <time>2020-08-11T07:33:09.394Z</time>
      </trkpt>
      <trkpt lat="37.986816" lon="-4.300107">
        <ele>229.338341</ele>
        <time>2020-08-11T07:33:12.402Z</time>
      </trkpt>
      <trkpt lat="37.986918" lon="-4.300170">
        <ele>229.338356</ele>
        <time>2020-08-11T07:33:15.418Z</time>
      </trkpt>
      <trkpt lat="37.987064" lon="-4.300209">
        <ele>229.338375</ele>
        <time>2020-08-11T07:33:18.405Z</time>
      </trkpt>
      <trkpt lat="37.987155" lon="-4.300247">
        <ele>229.338387</ele>
        <time>2020-08-11T07:33:20.412Z</time>
      </trkpt>
      <trkpt lat="37.987272" lon="-4.300288">
        <ele>229.338402</ele>
        <time>2020-08-11T07:33:23.401Z</time>
      </trkpt>
      <trkpt lat="37.987402" lon="-4.300314">
        <ele>229.338418</ele>
        <time>2020-08-11T07:33:26.422Z</time>
      </trkpt>
      <trkpt lat="37.987483" lon="-4.300363">
        <ele>229.338430</ele>
        <time>2020-08-11T07:33:28.423Z</time>
      </trkpt>
      <trkpt lat="37.987573" lon="-4.300414">
        <ele>229.336086</ele>
        <time>2020-08-11T07:33:30.421Z</time>
      </trkpt>
      <trkpt lat="37.987667" lon="-4.300453">
        <ele>229.296086</ele>
        <time>2020-08-11T07:33:32.407Z</time>
      </trkpt>
      <trkpt lat="37.987763" lon="-4.300501">
        <ele>229.254351</ele>
        <time>2020-08-11T07:33:34.412Z</time>
      </trkpt>
      <trkpt lat="37.987876" lon="-4.300529">
        <ele>229.207784</ele>
        <time>2020-08-11T07:33:36.408Z</time>
      </trkpt>
      <trkpt lat="37.987974" lon="-4.300576">
        <ele>229.165410</ele>
        <time>2020-08-11T07:33:38.411Z</time>
      </trkpt>
      <trkpt lat="37.988078" lon="-4.300606">
        <ele>229.122273</ele>
        <time>2020-08-11T07:33:40.409Z</time>
      </trkpt>
      <trkpt lat="37.988181" lon="-4.300638">
        <ele>229.079383</ele>
        <time>2020-08-11T07:33:42.420Z</time>
      </trkpt>
      <trkpt lat="37.988301" lon="-4.300700">
        <ele>229.026978</ele>
        <time>2020-08-11T07:33:45.405Z</time>
      </trkpt>
      <trkpt lat="37.988417" lon="-4.300708">
        <ele>228.979991</ele>
        <time>2020-08-11T07:33:47.404Z</time>
      </trkpt>
      <trkpt lat="37.988506" lon="-4.300725">
        <ele>228.943588</ele>
        <time>2020-08-11T07:33:49.428Z</time>
      </trkpt>
      <trkpt lat="37.988594" lon="-4.300763">
        <ele>228.905991</ele>
        <time>2020-08-11T07:33:51.419Z</time>
      </trkpt>
      <trkpt lat="37.988682" lon="-4.300811">
        <ele>228.867249</ele>
        <time>2020-08-11T07:33:53.426Z</time>
      </trkpt>
      <trkpt lat="37.988777" lon="-4.300863">
        <ele>228.825402</ele>
        <time>2020-08-11T07:33:55.418Z</time>
      </trkpt>
      <trkpt lat="37.988894" lon="-4.300888">
        <ele>228.777414</ele>
        <time>2020-08-11T07:33:57.407Z</time>
      </trkpt>
      <trkpt lat="37.988989" lon="-4.300929">
        <ele>228.736828</ele>
        <time>2020-08-11T07:33:59.415Z</time>
      </trkpt>
      <trkpt lat="37.989082" lon="-4.300965">
        <ele>228.697502</ele>
        <time>2020-08-11T07:34:01.416Z</time>
      </trkpt>
      <trkpt lat="37.989183" lon="-4.301022">
        <ele>228.652793</ele>
        <time>2020-08-11T07:34:03.416Z</time>
      </trkpt>
      <trkpt lat="37.989268" lon="-4.301075">
        <ele>228.614487</ele>
        <time>2020-08-11T07:34:05.423Z</time>
      </trkpt>
      <trkpt lat="37.989401" lon="-4.301120">
        <ele>228.559149</ele>
        <time>2020-08-11T07:34:08.408Z</time>
      </trkpt>
      <trkpt lat="37.989486" lon="-4.301183">
        <ele>228.519590</ele>
        <time>2020-08-11T07:34:10.413Z</time>
      </trkpt>
      <trkpt lat="37.989594" lon="-4.301185">
        <ele>228.476185</ele>
        <time>2020-08-11T07:34:12.421Z</time>
      </trkpt>
      <trkpt lat="37.989702" lon="-4.301236">
        <ele>228.429875</ele>
        <time>2020-08-11T07:34:14.411Z</time>
      </trkpt>
      <trkpt lat="37.989791" lon="-4.301278">
        <ele>228.391716</ele>
        <time>2020-08-11T07:34:16.421Z</time>
      </trkpt>
      <trkpt lat="37.989893" lon="-4.301343">
        <ele>228.345847</ele>
        <time>2020-08-11T07:34:18.409Z</time>
      </trkpt>
      <trkpt lat="37.990032" lon="-4.301371">
        <ele>228.289289</ele>
        <time>2020-08-11T07:34:21.418Z</time>
      </trkpt>
      <trkpt lat="37.990139" lon="-4.301405">
        <ele>228.244962</ele>
        <time>2020-08-11T07:34:23.413Z</time>
      </trkpt>
      <trkpt lat="37.990232" lon="-4.301457">
        <ele>228.204121</ele>
        <time>2020-08-11T07:34:25.422Z</time>
      </trkpt>
      <trkpt lat="37.990334" lon="-4.301493">
        <ele>228.161575</ele>
        <time>2020-08-11T07:34:27.414Z</time>
      </trkpt>
      <trkpt lat="37.990437" lon="-4.301516">
        <ele>228.119547</ele>
        <time>2020-08-11T07:34:29.403Z</time>
      </trkpt>
      <trkpt lat="37.990536" lon="-4.301534">
        <ele>228.079357</ele>
        <time>2020-08-11T07:34:31.410Z</time>
      </trkpt>
      <trkpt lat="37.990633" lon="-4.301534">
        <ele>228.040376</ele>
        <time>2020-08-11T07:34:33.416Z</time>
      </trkpt>
      <trkpt lat="37.990748" lon="-4.301532">
        <ele>227.994158</ele>
        <time>2020-08-11T07:34:35.403Z</time>
      </trkpt>
      <trkpt lat="37.990863" lon="-4.301530">
        <ele>227.947939</ele>
        <time>2020-08-11T07:34:37.424Z</time>
      </trkpt>
      <trkpt lat="37.990975" lon="-4.301547">
        <ele>227.902610</ele>
        <time>2020-08-11T07:34:39.404Z</time>
      </trkpt>
      <trkpt lat="37.991071" lon="-4.301553">
        <ele>227.789215</ele>
        <time>2020-08-11T07:34:41.409Z</time>
      </trkpt>
      <trkpt lat="37.991173" lon="-4.301495">
        <ele>227.605358</ele>
        <time>2020-08-11T07:34:43.418Z</time>
      </trkpt>
      <trkpt lat="37.991271" lon="-4.301499">
        <ele>227.444075</ele>
        <time>2020-08-11T07:34:45.437Z</time>
      </trkpt>
      <trkpt lat="37.991372" lon="-4.301516">
        <ele>227.276484</ele>
        <time>2020-08-11T07:34:47.404Z</time>
      </trkpt>
      <trkpt lat="37.991473" lon="-4.301522">
        <ele>227.110168</ele>
        <time>2020-08-11T07:34:49.422Z</time>
      </trkpt>
      <trkpt lat="37.991612" lon="-4.301519">
        <ele>226.881494</ele>
        <time>2020-08-11T07:34:52.425Z</time>
      </trkpt>
      <trkpt lat="37.991747" lon="-4.301554">
        <ele>226.654845</ele>
        <time>2020-08-11T07:34:55.427Z</time>
      </trkpt>
      <trkpt lat="37.991860" lon="-4.301604">
        <ele>226.457994</ele>
        <time>2020-08-11T07:34:57.432Z</time>
      </trkpt>
      <trkpt lat="37.991956" lon="-4.301602">
        <ele>226.300062</ele>
        <time>2020-08-11T07:34:59.431Z</time>
      </trkpt>
      <trkpt lat="37.992085" lon="-4.301640">
        <ele>226.082227</ele>
        <time>2020-08-11T07:35:02.403Z</time>
      </trkpt>
      <trkpt lat="37.992164" lon="-4.301792">
        <ele>225.846193</ele>
        <time>2020-08-11T07:35:04.407Z</time>
      </trkpt>
      <trkpt lat="37.992244" lon="-4.301871">
        <ele>225.679446</ele>
        <time>2020-08-11T07:35:06.404Z</time>
      </trkpt>
      <trkpt lat="37.992340" lon="-4.301984">
        <ele>225.464054</ele>
        <time>2020-08-11T07:35:08.417Z</time>
      </trkpt>
      <trkpt lat="37.992400" lon="-4.302069">
        <ele>225.316129</ele>
        <time>2020-08-11T07:35:10.417Z</time>
      </trkpt>
      <trkpt lat="37.992492" lon="-4.302131">
        <ele>225.144779</ele>
        <time>2020-08-11T07:35:12.419Z</time>
      </trkpt>
      <trkpt lat="37.992592" lon="-4.302204">
        <ele>224.955011</ele>
        <time>2020-08-11T07:35:14.422Z</time>
      </trkpt>
      <trkpt lat="37.992699" lon="-4.302281">
        <ele>224.668902</ele>
        <time>2020-08-11T07:35:16.422Z</time>
      </trkpt>
      <trkpt lat="37.992830" lon="-4.302331">
        <ele>224.337327</ele>
        <time>2020-08-11T07:35:19.418Z</time>
      </trkpt>
      <trkpt lat="37.992957" lon="-4.302348">
        <ele>224.027792</ele>
        <time>2020-08-11T07:35:22.424Z</time>
      </trkpt>
      <trkpt lat="37.993060" lon="-4.302400">
        <ele>223.759103</ele>
        <time>2020-08-11T07:35:24.408Z</time>
      </trkpt>
      <trkpt lat="37.993188" lon="-4.302447">
        <ele>223.436124</ele>
        <time>2020-08-11T07:35:27.409Z</time>
      </trkpt>
      <trkpt lat="37.993290" lon="-4.302461">
        <ele>223.187451</ele>
        <time>2020-08-11T07:35:29.407Z</time>
      </trkpt>
      <trkpt lat="37.993394" lon="-4.302496">
        <ele>222.926658</ele>
        <time>2020-08-11T07:35:31.418Z</time>
      </trkpt>
      <trkpt lat="37.993501" lon="-4.302519">
        <ele>222.663613</ele>
        <time>2020-08-11T07:35:33.411Z</time>
      </trkpt>
      <trkpt lat="37.993612" lon="-4.302527">
        <ele>222.394134</ele>
        <time>2020-08-11T07:35:35.413Z</time>
      </trkpt>
      <trkpt lat="37.993715" lon="-4.302571">
        <ele>222.130712</ele>
        <time>2020-08-11T07:35:37.416Z</time>
      </trkpt>
      <trkpt lat="37.993810" lon="-4.302590">
        <ele>221.897605</ele>
        <time>2020-08-11T07:35:39.404Z</time>
      </trkpt>
      <trkpt lat="37.993911" lon="-4.302614">
        <ele>221.648543</ele>
        <time>2020-08-11T07:35:41.417Z</time>
      </trkpt>
      <trkpt lat="37.993999" lon="-4.302663">
        <ele>221.415613</ele>
        <time>2020-08-11T07:35:43.403Z</time>
      </trkpt>
      <trkpt lat="37.994098" lon="-4.302691">
        <ele>221.169765</ele>
        <time>2020-08-11T07:35:45.404Z</time>
      </trkpt>
      <trkpt lat="37.994187" lon="-4.302715">
        <ele>220.949227</ele>
        <time>2020-08-11T07:35:47.405Z</time>
      </trkpt>
      <trkpt lat="37.994289" lon="-4.302732">
        <ele>220.699873</ele>
        <time>2020-08-11T07:35:49.419Z</time>
      </trkpt>
      <trkpt lat="37.994381" lon="-4.302761">
        <ele>220.590705</ele>
        <time>2020-08-11T07:35:51.404Z</time>
      </trkpt>
      <trkpt lat="37.994476" lon="-4.302786">
        <ele>220.639550</ele>
        <time>2020-08-11T07:35:53.416Z</time>
      </trkpt>
      <trkpt lat="37.994615" lon="-4.302818">
        <ele>220.710671</ele>
        <time>2020-08-11T07:35:56.425Z</time>
      </trkpt>
      <trkpt lat="37.994705" lon="-4.302863">
        <ele>220.759371</ele>
        <time>2020-08-11T07:35:58.416Z</time>
      </trkpt>
      <trkpt lat="37.994794" lon="-4.302908">
        <ele>220.807603</ele>
        <time>2020-08-11T07:36:00.429Z</time>
      </trkpt>
      <trkpt lat="37.994884" lon="-4.302975">
        <ele>220.860135</ele>
        <time>2020-08-11T07:36:02.415Z</time>
      </trkpt>
      <trkpt lat="37.994985" lon="-4.303018">
        <ele>220.913768</ele>
        <time>2020-08-11T07:36:04.413Z</time>
      </trkpt>
      <trkpt lat="37.995082" lon="-4.303059">
        <ele>220.965240</ele>
        <time>2020-08-11T07:36:06.405Z</time>
      </trkpt>
      <trkpt lat="37.995176" lon="-4.303084">
        <ele>221.013592</ele>
        <time>2020-08-11T07:36:08.409Z</time>
      </trkpt>
      <trkpt lat="37.995254" lon="-4.303154">
        <ele>221.061688</ele>
        <time>2020-08-11T07:36:10.407Z</time>
      </trkpt>
      <trkpt lat="37.995379" lon="-4.303220">
        <ele>221.129849</ele>
        <time>2020-08-11T07:36:13.421Z</time>
      </trkpt>
      <trkpt lat="37.995470" lon="-4.303311">
        <ele>221.188178</ele>
        <time>2020-08-11T07:36:15.407Z</time>
      </trkpt>
      <trkpt lat="37.995550" lon="-4.303396">
        <ele>221.240708</ele>
        <time>2020-08-11T07:36:17.425Z</time>
      </trkpt>
      <trkpt lat="37.995617" lon="-4.303490">
        <ele>221.290993</ele>
        <time>2020-08-11T07:36:19.406Z</time>
      </trkpt>
      <trkpt lat="37.995691" lon="-4.303571">
        <ele>221.340193</ele>
        <time>2020-08-11T07:36:21.408Z</time>
      </trkpt>
      <trkpt lat="37.995783" lon="-4.303629">
        <ele>221.391911</ele>
        <time>2020-08-11T07:36:23.423Z</time>
      </trkpt>
      <trkpt lat="37.995874" lon="-4.303694">
        <ele>221.444483</ele>
        <time>2020-08-11T07:36:25.404Z</time>
      </trkpt>
      <trkpt lat="37.995949" lon="-4.303807">
        <ele>221.481605</ele>
        <time>2020-08-11T07:36:27.409Z</time>
      </trkpt>
      <trkpt lat="37.996030" lon="-4.303902">
        <ele>221.493928</ele>
        <time>2020-08-11T07:36:29.418Z</time>
      </trkpt>
      <trkpt lat="37.996121" lon="-4.303990">
        <ele>221.506710</ele>
        <time>2020-08-11T07:36:31.409Z</time>
      </trkpt>
      <trkpt lat="37.996214" lon="-4.304054">
        <ele>221.518529</ele>
        <time>2020-08-11T07:36:33.410Z</time>
      </trkpt>
      <trkpt lat="37.996309" lon="-4.304124">
        <ele>221.530802</ele>
        <time>2020-08-11T07:36:35.419Z</time>
      </trkpt>
      <trkpt lat="37.996388" lon="-4.304213">
        <ele>221.542604</ele>
        <time>2020-08-11T07:36:37.408Z</time>
      </trkpt>
      <trkpt lat="37.996468" lon="-4.304332">
        <ele>221.556375</ele>
        <time>2020-08-11T07:36:39.407Z</time>
      </trkpt>
      <trkpt lat="37.996552" lon="-4.304427">
        <ele>221.568945</ele>
        <time>2020-08-11T07:36:41.414Z</time>
      </trkpt>
      <trkpt lat="37.996640" lon="-4.304509">
        <ele>221.581143</ele>
        <time>2020-08-11T07:36:43.423Z</time>
      </trkpt>
      <trkpt lat="37.996711" lon="-4.304594">
        <ele>221.592048</ele>
        <time>2020-08-11T07:36:45.418Z</time>
      </trkpt>
      <trkpt lat="37.996787" lon="-4.304682">
        <ele>221.603542</ele>
        <time>2020-08-11T07:36:47.418Z</time>
      </trkpt>
      <trkpt lat="37.996881" lon="-4.304771">
        <ele>221.616644</ele>
        <time>2020-08-11T07:36:49.409Z</time>
      </trkpt>
      <trkpt lat="37.996979" lon="-4.304832">
        <ele>221.628839</ele>
        <time>2020-08-11T07:36:51.418Z</time>
      </trkpt>
      <trkpt lat="37.997068" lon="-4.304914">
        <ele>221.641126</ele>
        <time>2020-08-11T07:36:53.406Z</time>
      </trkpt>
      <trkpt lat="37.997163" lon="-4.304962">
        <ele>221.652550</ele>
        <time>2020-08-11T07:36:55.418Z</time>
      </trkpt>
      <trkpt lat="37.997249" lon="-4.305028">
        <ele>221.663778</ele>
        <time>2020-08-11T07:36:57.412Z</time>
      </trkpt>
      <trkpt lat="37.997338" lon="-4.305088">
        <ele>221.675037</ele>
        <time>2020-08-11T07:36:59.418Z</time>
      </trkpt>
      <trkpt lat="37.997435" lon="-4.305133">
        <ele>221.676490</ele>
        <time>2020-08-11T07:37:01.418Z</time>
      </trkpt>
      <trkpt lat="37.997530" lon="-4.305204">
        <ele>221.676577</ele>
        <time>2020-08-11T07:37:03.423Z</time>
      </trkpt>
      <trkpt lat="37.997625" lon="-4.305266">
        <ele>221.676661</ele>
        <time>2020-08-11T07:37:05.415Z</time>
      </trkpt>
      <trkpt lat="37.997709" lon="-4.305336">
        <ele>221.676741</ele>
        <time>2020-08-11T07:37:07.406Z</time>
      </trkpt>
      <trkpt lat="37.997800" lon="-4.305409">
        <ele>221.676826</ele>
        <time>2020-08-11T07:37:09.413Z</time>
      </trkpt>
      <trkpt lat="37.997890" lon="-4.305460">
        <ele>221.676904</ele>
        <time>2020-08-11T07:37:11.415Z</time>
      </trkpt>
      <trkpt lat="37.997988" lon="-4.305524">
        <ele>221.676991</ele>
        <time>2020-08-11T07:37:13.404Z</time>
      </trkpt>
      <trkpt lat="37.998087" lon="-4.305570">
        <ele>221.677074</ele>
        <time>2020-08-11T07:37:15.413Z</time>
      </trkpt>
      <trkpt lat="37.998176" lon="-4.305662">
        <ele>221.677165</ele>
        <time>2020-08-11T07:37:17.410Z</time>
      </trkpt>
      <trkpt lat="37.998275" lon="-4.305712">
        <ele>221.677249</ele>
        <time>2020-08-11T07:37:19.409Z</time>
      </trkpt>
      <trkpt lat="37.998380" lon="-4.305776">
        <ele>221.677341</ele>
        <time>2020-08-11T07:37:21.417Z</time>
      </trkpt>
      <trkpt lat="37.998470" lon="-4.305865">
        <ele>221.677431</ele>
        <time>2020-08-11T07:37:23.404Z</time>
      </trkpt>
      <trkpt lat="37.998567" lon="-4.305931">
        <ele>221.677518</ele>
        <time>2020-08-11T07:37:25.411Z</time>
      </trkpt>
      <trkpt lat="37.998656" lon="-4.305997">
        <ele>221.677600</ele>
        <time>2020-08-11T07:37:27.413Z</time>
      </trkpt>
      <trkpt lat="37.998752" lon="-4.306062">
        <ele>221.677686</ele>
        <time>2020-08-11T07:37:29.409Z</time>
      </trkpt>
      <trkpt lat="37.998840" lon="-4.306124">
        <ele>221.677765</ele>
        <time>2020-08-11T07:37:31.412Z</time>
      </trkpt>
      <trkpt lat="37.998947" lon="-4.306173">
        <ele>221.698250</ele>
        <time>2020-08-11T07:37:33.412Z</time>
      </trkpt>
      <trkpt lat="37.999036" lon="-4.306235">
        <ele>221.801814</ele>
        <time>2020-08-11T07:37:35.409Z</time>
      </trkpt>
      <trkpt lat="37.999123" lon="-4.306297">
        <ele>221.903595</ele>
        <time>2020-08-11T07:37:37.412Z</time>
      </trkpt>
      <trkpt lat="37.999219" lon="-4.306388">
        <ele>222.025824</ele>
        <time>2020-08-11T07:37:39.425Z</time>
      </trkpt>
      <trkpt lat="37.999314" lon="-4.306462">
        <ele>222.139528</ele>
        <time>2020-08-11T07:37:41.427Z</time>
      </trkpt>
      <trkpt lat="37.999407" lon="-4.306515">
        <ele>222.243520</ele>
        <time>2020-08-11T07:37:43.409Z</time>
      </trkpt>
      <trkpt lat="37.999510" lon="-4.306565">
        <ele>222.356010</ele>
        <time>2020-08-11T07:37:45.421Z</time>
      </trkpt>
      <trkpt lat="37.999596" lon="-4.306644">
        <ele>222.464306</ele>
        <time>2020-08-11T07:37:47.425Z</time>
      </trkpt>
      <trkpt lat="37.999698" lon="-4.306702">
        <ele>222.578319</ele>
        <time>2020-08-11T07:37:49.425Z</time>
      </trkpt>
      <trkpt lat="37.999780" lon="-4.306812">
        <ele>222.700033</ele>
        <time>2020-08-11T07:37:51.423Z</time>
      </trkpt>
      <trkpt lat="37.999857" lon="-4.306933">
        <ele>222.825048</ele>
        <time>2020-08-11T07:37:53.422Z</time>
      </trkpt>
      <trkpt lat="37.999922" lon="-4.307120">
        <ele>222.989335</ele>
        <time>2020-08-11T07:37:55.415Z</time>
      </trkpt>
      <trkpt lat="38.000015" lon="-4.307174">
        <ele>223.093658</ele>
        <time>2020-08-11T07:37:57.408Z</time>
      </trkpt>
      <trkpt lat="38.000097" lon="-4.307227">
        <ele>223.187527</ele>
        <time>2020-08-11T07:37:59.408Z</time>
      </trkpt>
      <trkpt lat="38.000173" lon="-4.307298">
        <ele>223.283792</ele>
        <time>2020-08-11T07:38:01.418Z</time>
      </trkpt>
      <trkpt lat="38.000254" lon="-4.307385">
        <ele>223.392037</ele>
        <time>2020-08-11T07:38:03.426Z</time>
      </trkpt>
      <trkpt lat="38.000338" lon="-4.307460">
        <ele>223.496805</ele>
        <time>2020-08-11T07:38:05.415Z</time>
      </trkpt>
      <trkpt lat="38.000408" lon="-4.307552">
        <ele>223.409117</ele>
        <time>2020-08-11T07:38:07.395Z</time>
      </trkpt>
      <trkpt lat="38.000472" lon="-4.307664">
        <ele>223.276995</ele>
        <time>2020-08-11T07:38:09.418Z</time>
      </trkpt>
      <trkpt lat="38.000550" lon="-4.307770">
        <ele>223.138492</ele>
        <time>2020-08-11T07:38:11.415Z</time>
      </trkpt>
      <trkpt lat="38.000649" lon="-4.307903">
        <ele>222.963770</ele>
        <time>2020-08-11T07:38:14.409Z</time>
      </trkpt>
      <trkpt lat="38.000710" lon="-4.308030">
        <ele>222.821732</ele>
        <time>2020-08-11T07:38:16.402Z</time>
      </trkpt>
      <trkpt lat="38.000765" lon="-4.308144">
        <ele>222.694078</ele>
        <time>2020-08-11T07:38:18.400Z</time>
      </trkpt>
      <trkpt lat="38.000835" lon="-4.308234">
        <ele>222.573314</ele>
        <time>2020-08-11T07:38:20.408Z</time>
      </trkpt>
      <trkpt lat="38.000902" lon="-4.308338">
        <ele>222.445027</ele>
        <time>2020-08-11T07:38:22.410Z</time>
      </trkpt>
      <trkpt lat="38.000962" lon="-4.308450">
        <ele>222.315692</ele>
        <time>2020-08-11T07:38:24.414Z</time>
      </trkpt>
      <trkpt lat="38.001030" lon="-4.308546">
        <ele>222.192418</ele>
        <time>2020-08-11T07:38:26.407Z</time>
      </trkpt>
      <trkpt lat="38.001094" lon="-4.308652">
        <ele>222.064891</ele>
        <time>2020-08-11T07:38:28.410Z</time>
      </trkpt>
      <trkpt lat="38.001167" lon="-4.308801">
        <ele>221.897338</ele>
        <time>2020-08-11T07:38:31.413Z</time>
      </trkpt>
      <trkpt lat="38.001243" lon="-4.308872">
        <ele>221.782967</ele>
        <time>2020-08-11T07:38:33.403Z</time>
      </trkpt>
      <trkpt lat="38.001306" lon="-4.308967">
        <ele>221.664391</ele>
        <time>2020-08-11T07:38:35.415Z</time>
      </trkpt>
      <trkpt lat="38.001363" lon="-4.309090">
        <ele>221.528122</ele>
        <time>2020-08-11T07:38:37.404Z</time>
      </trkpt>
      <trkpt lat="38.001407" lon="-4.309214">
        <ele>221.398251</ele>
        <time>2020-08-11T07:38:39.422Z</time>
      </trkpt>
      <trkpt lat="38.001454" lon="-4.309341">
        <ele>221.103471</ele>
        <time>2020-08-11T07:38:41.422Z</time>
      </trkpt>
      <trkpt lat="38.001506" lon="-4.309467">
        <ele>220.648749</ele>
        <time>2020-08-11T07:38:43.405Z</time>
      </trkpt>
      <trkpt lat="38.001568" lon="-4.309565">
        <ele>220.246963</ele>
        <time>2020-08-11T07:38:45.403Z</time>
      </trkpt>
      <trkpt lat="38.001610" lon="-4.309696">
        <ele>219.794821</ele>
        <time>2020-08-11T07:38:47.410Z</time>
      </trkpt>
      <trkpt lat="38.001650" lon="-4.309809">
        <ele>219.398787</ele>
        <time>2020-08-11T07:38:49.416Z</time>
      </trkpt>
      <trkpt lat="38.001718" lon="-4.309904">
        <ele>218.988479</ele>
        <time>2020-08-11T07:38:51.405Z</time>
      </trkpt>
      <trkpt lat="38.001793" lon="-4.309979">
        <ele>218.601078</ele>
        <time>2020-08-11T07:38:53.407Z</time>
      </trkpt>
      <trkpt lat="38.001839" lon="-4.310091">
        <ele>218.197300</ele>
        <time>2020-08-11T07:38:55.420Z</time>
      </trkpt>
      <trkpt lat="38.001899" lon="-4.310198">
        <ele>217.777453</ele>
        <time>2020-08-11T07:38:57.425Z</time>
      </trkpt>
      <trkpt lat="38.001954" lon="-4.310300">
        <ele>217.382324</ele>
        <time>2020-08-11T07:38:59.396Z</time>
      </trkpt>
      <trkpt lat="38.002016" lon="-4.310427">
        <ele>216.904705</ele>
        <time>2020-08-11T07:39:01.398Z</time>
      </trkpt>
      <trkpt lat="38.002073" lon="-4.310536">
        <ele>216.486484</ele>
        <time>2020-08-11T07:39:03.416Z</time>
      </trkpt>
      <trkpt lat="38.002134" lon="-4.310629">
        <ele>216.099644</ele>
        <time>2020-08-11T07:39:05.404Z</time>
      </trkpt>
      <trkpt lat="38.002190" lon="-4.310729">
        <ele>215.707440</ele>
        <time>2020-08-11T07:39:07.417Z</time>
      </trkpt>
      <trkpt lat="38.002247" lon="-4.310848">
        <ele>215.262231</ele>
        <time>2020-08-11T07:39:09.416Z</time>
      </trkpt>
      <trkpt lat="38.002305" lon="-4.310973">
        <ele>214.798478</ele>
        <time>2020-08-11T07:39:11.412Z</time>
      </trkpt>
      <trkpt lat="38.002367" lon="-4.311063">
        <ele>214.416302</ele>
        <time>2020-08-11T07:39:13.411Z</time>
      </trkpt>
      <trkpt lat="38.002420" lon="-4.311178">
        <ele>214.023058</ele>
        <time>2020-08-11T07:39:15.426Z</time>
      </trkpt>
      <trkpt lat="38.002468" lon="-4.311283">
        <ele>213.916290</ele>
        <time>2020-08-11T07:39:17.418Z</time>
      </trkpt>
      <trkpt lat="38.002521" lon="-4.311384">
        <ele>213.809561</ele>
        <time>2020-08-11T07:39:19.412Z</time>
      </trkpt>
      <trkpt lat="38.002596" lon="-4.311460">
        <ele>213.702434</ele>
        <time>2020-08-11T07:39:21.414Z</time>
      </trkpt>
      <trkpt lat="38.002651" lon="-4.311629">
        <ele>213.541613</ele>
        <time>2020-08-11T07:39:24.414Z</time>
      </trkpt>
      <trkpt lat="38.002709" lon="-4.311735">
        <ele>213.428109</ele>
        <time>2020-08-11T07:39:26.425Z</time>
      </trkpt>
      <trkpt lat="38.002780" lon="-4.311831">
        <ele>213.312308</ele>
        <time>2020-08-11T07:39:28.420Z</time>
      </trkpt>
      <trkpt lat="38.002824" lon="-4.311939">
        <ele>213.205373</ele>
        <time>2020-08-11T07:39:30.419Z</time>
      </trkpt>
      <trkpt lat="38.002877" lon="-4.312062">
        <ele>213.082072</ele>
        <time>2020-08-11T07:39:32.409Z</time>
      </trkpt>
      <trkpt lat="38.002922" lon="-4.312190">
        <ele>212.958795</ele>
        <time>2020-08-11T07:39:34.419Z</time>
      </trkpt>
      <trkpt lat="38.002976" lon="-4.312299">
        <ele>212.845552</ele>
        <time>2020-08-11T07:39:36.417Z</time>
      </trkpt>
      <trkpt lat="38.003041" lon="-4.312414">
        <ele>212.721076</ele>
        <time>2020-08-11T07:39:38.415Z</time>
      </trkpt>
      <trkpt lat="38.003105" lon="-4.312532">
        <ele>212.595082</ele>
        <time>2020-08-11T07:39:40.404Z</time>
      </trkpt>
      <trkpt lat="38.003169" lon="-4.312656">
        <ele>212.464707</ele>
        <time>2020-08-11T07:39:42.417Z</time>
      </trkpt>
      <trkpt lat="38.003223" lon="-4.312797">
        <ele>212.326821</ele>
        <time>2020-08-11T07:39:44.416Z</time>
      </trkpt>
      <trkpt lat="38.003289" lon="-4.312910">
        <ele>212.203108</ele>
        <time>2020-08-11T07:39:46.404Z</time>
      </trkpt>
      <trkpt lat="38.003355" lon="-4.313034">
        <ele>212.071497</ele>
        <time>2020-08-11T07:39:48.414Z</time>
      </trkpt>
      <trkpt lat="38.003418" lon="-4.313155">
        <ele>212.002163</ele>
        <time>2020-08-11T07:39:50.413Z</time>
      </trkpt>
      <trkpt lat="38.003486" lon="-4.313270">
        <ele>211.963471</ele>
        <time>2020-08-11T07:39:52.411Z</time>
      </trkpt>
      <trkpt lat="38.003540" lon="-4.313399">
        <ele>211.924163</ele>
        <time>2020-08-11T07:39:54.422Z</time>
      </trkpt>
      <trkpt lat="38.003596" lon="-4.313528">
        <ele>211.884529</ele>
        <time>2020-08-11T07:39:56.413Z</time>
      </trkpt>
      <trkpt lat="38.003667" lon="-4.313626">
        <ele>211.848704</ele>
        <time>2020-08-11T07:39:58.425Z</time>
      </trkpt>
      <trkpt lat="38.003743" lon="-4.313758">
        <ele>211.804711</ele>
        <time>2020-08-11T07:40:00.400Z</time>
      </trkpt>
      <trkpt lat="38.003804" lon="-4.313858">
        <ele>211.770679</ele>
        <time>2020-08-11T07:40:02.408Z</time>
      </trkpt>
      <trkpt lat="38.003882" lon="-4.313974">
        <ele>211.729643</ele>
        <time>2020-08-11T07:40:04.408Z</time>
      </trkpt>
      <trkpt lat="38.003952" lon="-4.314106">
        <ele>211.686826</ele>
        <time>2020-08-11T07:40:06.416Z</time>
      </trkpt>
      <trkpt lat="38.004043" lon="-4.314213">
        <ele>211.644460</ele>
        <time>2020-08-11T07:40:08.405Z</time>
      </trkpt>
      <trkpt lat="38.004113" lon="-4.314335">
        <ele>211.603849</ele>
        <time>2020-08-11T07:40:10.414Z</time>
      </trkpt>
      <trkpt lat="38.004190" lon="-4.314441">
        <ele>211.565052</ele>
        <time>2020-08-11T07:40:12.413Z</time>
      </trkpt>
      <trkpt lat="38.004288" lon="-4.314547">
        <ele>211.521078</ele>
        <time>2020-08-11T07:40:14.417Z</time>
      </trkpt>
      <trkpt lat="38.004374" lon="-4.314679">
        <ele>211.474987</ele>
        <time>2020-08-11T07:40:16.413Z</time>
      </trkpt>
      <trkpt lat="38.004459" lon="-4.314766">
        <ele>211.437694</ele>
        <time>2020-08-11T07:40:18.413Z</time>
      </trkpt>
      <trkpt lat="38.004535" lon="-4.314890">
        <ele>211.392039</ele>
        <time>2020-08-11T07:40:20.412Z</time>
      </trkpt>
      <trkpt lat="38.004598" lon="-4.315023">
        <ele>211.342503</ele>
        <time>2020-08-11T07:40:22.411Z</time>
      </trkpt>
      <trkpt lat="38.004681" lon="-4.315128">
        <ele>211.295025</ele>
        <time>2020-08-11T07:40:24.402Z</time>
      </trkpt>
      <trkpt lat="38.004749" lon="-4.315237">
        <ele>211.250646</ele>
        <time>2020-08-11T07:40:26.412Z</time>
      </trkpt>
      <trkpt lat="38.004819" lon="-4.315338">
        <ele>211.207708</ele>
        <time>2020-08-11T07:40:28.415Z</time>
      </trkpt>
      <trkpt lat="38.004898" lon="-4.315425">
        <ele>211.165334</ele>
        <time>2020-08-11T07:40:30.408Z</time>
      </trkpt>
      <trkpt lat="38.004977" lon="-4.315523">
        <ele>211.120580</ele>
        <time>2020-08-11T07:40:32.421Z</time>
      </trkpt>
      <trkpt lat="38.005058" lon="-4.315620">
        <ele>211.075462</ele>
        <time>2020-08-11T07:40:34.417Z</time>
      </trkpt>
      <trkpt lat="38.005131" lon="-4.315743">
        <ele>211.026307</ele>
        <time>2020-08-11T07:40:36.421Z</time>
      </trkpt>
      <trkpt lat="38.005192" lon="-4.315928">
        <ele>210.962290</ele>
        <time>2020-08-11T07:40:39.408Z</time>
      </trkpt>
      <trkpt lat="38.005281" lon="-4.316033">
        <ele>210.913062</ele>
        <time>2020-08-11T07:40:41.413Z</time>
      </trkpt>
      <trkpt lat="38.005350" lon="-4.316130">
        <ele>210.871347</ele>
        <time>2020-08-11T07:40:43.392Z</time>
      </trkpt>
      <trkpt lat="38.005394" lon="-4.316244">
        <ele>210.830826</ele>
        <time>2020-08-11T07:40:45.397Z</time>
      </trkpt>
      <trkpt lat="38.005472" lon="-4.316330">
        <ele>210.788967</ele>
        <time>2020-08-11T07:40:47.416Z</time>
      </trkpt>
      <trkpt lat="38.005518" lon="-4.316457">
        <ele>210.744349</ele>
        <time>2020-08-11T07:40:49.405Z</time>
      </trkpt>
      <trkpt lat="38.005583" lon="-4.316571">
        <ele>210.699430</ele>
        <time>2020-08-11T07:40:51.403Z</time>
      </trkpt>
      <trkpt lat="38.005654" lon="-4.316718">
        <ele>210.422828</ele>
        <time>2020-08-11T07:40:54.418Z</time>
      </trkpt>
      <trkpt lat="38.005707" lon="-4.316851">
        <ele>210.115081</ele>
        <time>2020-08-11T07:40:56.405Z</time>
      </trkpt>
      <trkpt lat="38.005760" lon="-4.316971">
        <ele>209.831029</ele>
        <time>2020-08-11T07:40:58.413Z</time>
      </trkpt>
      <trkpt lat="38.005810" lon="-4.317102">
        <ele>209.530472</ele>
        <time>2020-08-11T07:41:00.410Z</time>
      </trkpt>
      <trkpt lat="38.005878" lon="-4.317210">
        <ele>209.245018</ele>
        <time>2020-08-11T07:41:02.411Z</time>
      </trkpt>
      <trkpt lat="38.005952" lon="-4.317329">
        <ele>208.931999</ele>
        <time>2020-08-11T07:41:04.415Z</time>
      </trkpt>
      <trkpt lat="38.006019" lon="-4.317456">
        <ele>208.616414</ele>
        <time>2020-08-11T07:41:06.406Z</time>
      </trkpt>
      <trkpt lat="38.006084" lon="-4.317590">
        <ele>208.291499</ele>
        <time>2020-08-11T07:41:08.414Z</time>
      </trkpt>
      <trkpt lat="38.006132" lon="-4.317691">
        <ele>208.047954</ele>
        <time>2020-08-11T07:41:10.411Z</time>
      </trkpt>
      <trkpt lat="38.006203" lon="-4.317793">
        <ele>207.766929</ele>
        <time>2020-08-11T07:41:12.421Z</time>
      </trkpt>
      <trkpt lat="38.006276" lon="-4.317907">
        <ele>207.463608</ele>
        <time>2020-08-11T07:41:14.415Z</time>
      </trkpt>
      <trkpt lat="38.006334" lon="-4.318017">
        <ele>207.190314</ele>
        <time>2020-08-11T07:41:16.425Z</time>
      </trkpt>
      <trkpt lat="38.006410" lon="-4.318132">
        <ele>206.880395</ele>
        <time>2020-08-11T07:41:18.410Z</time>
      </trkpt>
      <trkpt lat="38.006471" lon="-4.318234">
        <ele>206.615990</ele>
        <time>2020-08-11T07:41:20.409Z</time>
      </trkpt>
      <trkpt lat="38.006533" lon="-4.318368">
        <ele>206.295127</ele>
        <time>2020-08-11T07:41:22.411Z</time>
      </trkpt>
      <trkpt lat="38.006604" lon="-4.318479">
        <ele>205.999920</ele>
        <time>2020-08-11T07:41:24.406Z</time>
      </trkpt>
      <trkpt lat="38.006672" lon="-4.318590">
        <ele>206.130149</ele>
        <time>2020-08-11T07:41:26.403Z</time>
      </trkpt>
      <trkpt lat="38.006749" lon="-4.318708">
        <ele>206.321761</ele>
        <time>2020-08-11T07:41:28.422Z</time>
      </trkpt>
      <trkpt lat="38.006810" lon="-4.318819">
        <ele>206.491010</ele>
        <time>2020-08-11T07:41:30.428Z</time>
      </trkpt>
      <trkpt lat="38.006869" lon="-4.318929">
        <ele>206.657429</ele>
        <time>2020-08-11T07:41:32.426Z</time>
      </trkpt>
      <trkpt lat="38.006939" lon="-4.319041">
        <ele>206.836214</ele>
        <time>2020-08-11T07:41:34.421Z</time>
      </trkpt>
      <trkpt lat="38.006999" lon="-4.319158">
        <ele>207.010800</ele>
        <time>2020-08-11T07:41:36.426Z</time>
      </trkpt>
      <trkpt lat="38.007062" lon="-4.319279">
        <ele>207.192180</ele>
        <time>2020-08-11T07:41:38.415Z</time>
      </trkpt>
      <trkpt lat="38.007102" lon="-4.319389">
        <ele>207.343693</ele>
        <time>2020-08-11T07:41:40.409Z</time>
      </trkpt>
      <trkpt lat="38.007154" lon="-4.319512">
        <ele>207.518264</ele>
        <time>2020-08-11T07:41:42.427Z</time>
      </trkpt>
      <trkpt lat="38.007212" lon="-4.319628">
        <ele>207.690081</ele>
        <time>2020-08-11T07:41:44.408Z</time>
      </trkpt>
      <trkpt lat="38.007281" lon="-4.319728">
        <ele>207.856318</ele>
        <time>2020-08-11T07:41:46.418Z</time>
      </trkpt>
      <trkpt lat="38.007347" lon="-4.319829">
        <ele>208.020419</ele>
        <time>2020-08-11T07:41:48.403Z</time>
      </trkpt>
      <trkpt lat="38.007390" lon="-4.319949">
        <ele>208.185285</ele>
        <time>2020-08-11T07:41:50.408Z</time>
      </trkpt>
      <trkpt lat="38.007447" lon="-4.320056">
        <ele>208.346815</ele>
        <time>2020-08-11T07:41:52.411Z</time>
      </trkpt>
      <trkpt lat="38.007515" lon="-4.320160">
        <ele>208.515830</ele>
        <time>2020-08-11T07:41:54.408Z</time>
      </trkpt>
      <trkpt lat="38.007562" lon="-4.320294">
        <ele>208.699267</ele>
        <time>2020-08-11T07:41:56.415Z</time>
      </trkpt>
      <trkpt lat="38.007621" lon="-4.320405">
        <ele>208.885809</ele>
        <time>2020-08-11T07:41:58.406Z</time>
      </trkpt>
      <trkpt lat="38.007686" lon="-4.320522">
        <ele>209.149536</ele>
        <time>2020-08-11T07:42:00.397Z</time>
      </trkpt>
      <trkpt lat="38.007736" lon="-4.320653">
        <ele>209.417688</ele>
        <time>2020-08-11T07:42:02.404Z</time>
      </trkpt>
      <trkpt lat="38.007791" lon="-4.320772">
        <ele>209.671842</ele>
        <time>2020-08-11T07:42:04.408Z</time>
      </trkpt>
      <trkpt lat="38.007843" lon="-4.320880">
        <ele>209.905005</ele>
        <time>2020-08-11T07:42:06.405Z</time>
      </trkpt>
      <trkpt lat="38.007913" lon="-4.320982">
        <ele>210.154191</ele>
        <time>2020-08-11T07:42:08.407Z</time>
      </trkpt>
      <trkpt lat="38.007963" lon="-4.321080">
        <ele>210.369270</ele>
        <time>2020-08-11T07:42:10.410Z</time>
      </trkpt>
      <trkpt lat="38.008029" lon="-4.321176">
        <ele>210.603977</ele>
        <time>2020-08-11T07:42:12.423Z</time>
      </trkpt>
      <trkpt lat="38.008068" lon="-4.321297">
        <ele>210.844812</ele>
        <time>2020-08-11T07:42:14.420Z</time>
      </trkpt>
      <trkpt lat="38.008130" lon="-4.321406">
        <ele>211.092467</ele>
        <time>2020-08-11T07:42:17.420Z</time>
      </trkpt>
      <trkpt lat="38.008174" lon="-4.321507">
        <ele>211.305074</ele>
        <time>2020-08-11T07:42:19.423Z</time>
      </trkpt>
      <trkpt lat="38.008220" lon="-4.321690">
        <ele>211.658934</ele>
        <time>2020-08-11T07:42:22.419Z</time>
      </trkpt>
      <trkpt lat="38.008284" lon="-4.321829">
        <ele>211.955513</ele>
        <time>2020-08-11T07:42:25.428Z</time>
      </trkpt>
      <trkpt lat="38.008350" lon="-4.321919">
        <ele>212.182009</ele>
        <time>2020-08-11T07:42:27.404Z</time>
      </trkpt>
      <trkpt lat="38.008394" lon="-4.322023">
        <ele>212.399468</ele>
        <time>2020-08-11T07:42:29.413Z</time>
      </trkpt>
      <trkpt lat="38.008424" lon="-4.322167">
        <ele>212.673859</ele>
        <time>2020-08-11T07:42:31.402Z</time>
      </trkpt>
      <trkpt lat="38.008456" lon="-4.322298">
        <ele>212.926517</ele>
        <time>2020-08-11T07:42:33.413Z</time>
      </trkpt>
      <trkpt lat="38.008476" lon="-4.322458">
        <ele>212.883538</ele>
        <time>2020-08-11T07:42:35.425Z</time>
      </trkpt>
      <trkpt lat="38.008500" lon="-4.322587">
        <ele>212.696441</ele>
        <time>2020-08-11T07:42:37.422Z</time>
      </trkpt>
      <trkpt lat="38.008546" lon="-4.322698">
        <ele>212.519409</ele>
        <time>2020-08-11T07:42:39.419Z</time>
      </trkpt>
      <trkpt lat="38.008565" lon="-4.322852">
        <ele>212.299382</ele>
        <time>2020-08-11T07:42:41.407Z</time>
      </trkpt>
      <trkpt lat="38.008586" lon="-4.323002">
        <ele>212.084333</ele>
        <time>2020-08-11T07:42:43.414Z</time>
      </trkpt>
      <trkpt lat="38.008603" lon="-4.323122">
        <ele>211.912231</ele>
        <time>2020-08-11T07:42:45.413Z</time>
      </trkpt>
      <trkpt lat="38.008621" lon="-4.323289">
        <ele>211.674307</ele>
        <time>2020-08-11T07:42:47.415Z</time>
      </trkpt>
      <trkpt lat="38.008636" lon="-4.323446">
        <ele>211.451071</ele>
        <time>2020-08-11T07:42:49.406Z</time>
      </trkpt>
      <trkpt lat="38.008645" lon="-4.323592">
        <ele>211.244355</ele>
        <time>2020-08-11T07:42:51.431Z</time>
      </trkpt>
      <trkpt lat="38.008691" lon="-4.323730">
        <ele>211.032847</ele>
        <time>2020-08-11T07:42:53.415Z</time>
      </trkpt>
      <trkpt lat="38.008696" lon="-4.323861">
        <ele>210.847718</ele>
        <time>2020-08-11T07:42:55.410Z</time>
      </trkpt>
      <trkpt lat="38.008755" lon="-4.323957">
        <ele>210.675861</ele>
        <time>2020-08-11T07:42:57.416Z</time>
      </trkpt>
      <trkpt lat="38.008786" lon="-4.324117">
        <ele>210.443286</ele>
        <time>2020-08-11T07:43:00.425Z</time>
      </trkpt>
      <trkpt lat="38.008815" lon="-4.324250">
        <ele>210.248495</ele>
        <time>2020-08-11T07:43:03.406Z</time>
      </trkpt>
      <trkpt lat="38.008860" lon="-4.324382">
        <ele>210.045479</ele>
        <time>2020-08-11T07:43:06.416Z</time>
      </trkpt>
      <trkpt lat="38.008907" lon="-4.324529">
        <ele>209.821549</ele>
        <time>2020-08-11T07:43:09.410Z</time>
      </trkpt>
      <trkpt lat="38.008926" lon="-4.324707">
        <ele>209.820618</ele>
        <time>2020-08-11T07:43:12.418Z</time>
      </trkpt>
      <trkpt lat="38.008981" lon="-4.324837">
        <ele>209.830297</ele>
        <time>2020-08-11T07:43:15.403Z</time>
      </trkpt>
      <trkpt lat="38.009034" lon="-4.324995">
        <ele>209.841562</ele>
        <time>2020-08-11T07:43:18.408Z</time>
      </trkpt>
      <trkpt lat="38.009080" lon="-4.325097">
        <ele>209.849271</ele>
        <time>2020-08-11T07:43:20.407Z</time>
      </trkpt>
      <trkpt lat="38.009134" lon="-4.325194">
        <ele>209.857061</ele>
        <time>2020-08-11T07:43:22.411Z</time>
      </trkpt>
      <trkpt lat="38.009192" lon="-4.325339">
        <ele>209.867728</ele>
        <time>2020-08-11T07:43:25.407Z</time>
      </trkpt>
      <trkpt lat="38.009233" lon="-4.325447">
        <ele>209.875592</ele>
        <time>2020-08-11T07:43:27.409Z</time>
      </trkpt>
      <trkpt lat="38.009295" lon="-4.325594">
        <ele>209.886529</ele>
        <time>2020-08-11T07:43:30.424Z</time>
      </trkpt>
      <trkpt lat="38.009341" lon="-4.325710">
        <ele>209.895047</ele>
        <time>2020-08-11T07:43:32.421Z</time>
      </trkpt>
      <trkpt lat="38.009406" lon="-4.325850">
        <ele>209.905706</ele>
        <time>2020-08-11T07:43:35.404Z</time>
      </trkpt>
      <trkpt lat="38.009442" lon="-4.325977">
        <ele>209.914560</ele>
        <time>2020-08-11T07:43:37.422Z</time>
      </trkpt>
      <trkpt lat="38.009472" lon="-4.326093">
        <ele>209.922568</ele>
        <time>2020-08-11T07:43:39.405Z</time>
      </trkpt>
      <trkpt lat="38.009506" lon="-4.326199">
        <ele>209.930075</ele>
        <time>2020-08-11T07:43:41.406Z</time>
      </trkpt>
      <trkpt lat="38.009550" lon="-4.326329">
        <ele>209.939356</ele>
        <time>2020-08-11T07:43:44.415Z</time>
      </trkpt>
      <trkpt lat="38.009606" lon="-4.326472">
        <ele>209.949831</ele>
        <time>2020-08-11T07:43:47.407Z</time>
      </trkpt>
      <trkpt lat="38.009655" lon="-4.326591">
        <ele>209.958638</ele>
        <time>2020-08-11T07:43:49.417Z</time>
      </trkpt>
      <trkpt lat="38.009712" lon="-4.326736">
        <ele>209.900178</ele>
        <time>2020-08-11T07:43:52.397Z</time>
      </trkpt>
      <trkpt lat="38.009764" lon="-4.326840">
        <ele>209.853137</ele>
        <time>2020-08-11T07:43:54.423Z</time>
      </trkpt>
      <trkpt lat="38.009790" lon="-4.326975">
        <ele>209.800060</ele>
        <time>2020-08-11T07:43:56.408Z</time>
      </trkpt>
      <trkpt lat="38.009847" lon="-4.327083">
        <ele>209.750415</ele>
        <time>2020-08-11T07:43:58.418Z</time>
      </trkpt>
      <trkpt lat="38.009881" lon="-4.327203">
        <ele>209.701712</ele>
        <time>2020-08-11T07:44:00.413Z</time>
      </trkpt>
      <trkpt lat="38.009922" lon="-4.327319">
        <ele>209.653157</ele>
        <time>2020-08-11T07:44:02.406Z</time>
      </trkpt>
      <trkpt lat="38.009967" lon="-4.327451">
        <ele>209.598227</ele>
        <time>2020-08-11T07:44:04.412Z</time>
      </trkpt>
      <trkpt lat="38.010022" lon="-4.327593">
        <ele>209.537797</ele>
        <time>2020-08-11T07:44:06.406Z</time>
      </trkpt>
      <trkpt lat="38.010070" lon="-4.327728">
        <ele>209.481232</ele>
        <time>2020-08-11T07:44:08.417Z</time>
      </trkpt>
      <trkpt lat="38.010123" lon="-4.327873">
        <ele>209.420186</ele>
        <time>2020-08-11T07:44:10.406Z</time>
      </trkpt>
      <trkpt lat="38.010172" lon="-4.327980">
        <ele>209.372920</ele>
        <time>2020-08-11T07:44:12.419Z</time>
      </trkpt>
      <trkpt lat="38.010208" lon="-4.328112">
        <ele>209.319573</ele>
        <time>2020-08-11T07:44:14.407Z</time>
      </trkpt>
      <trkpt lat="38.010263" lon="-4.328248">
        <ele>209.261191</ele>
        <time>2020-08-11T07:44:16.420Z</time>
      </trkpt>
      <trkpt lat="38.010304" lon="-4.328385">
        <ele>209.205222</ele>
        <time>2020-08-11T07:44:18.402Z</time>
      </trkpt>
      <trkpt lat="38.010351" lon="-4.328521">
        <ele>209.148505</ele>
        <time>2020-08-11T07:44:20.395Z</time>
      </trkpt>
      <trkpt lat="38.010410" lon="-4.328632">
        <ele>209.097368</ele>
        <time>2020-08-11T07:44:22.415Z</time>
      </trkpt>
      <trkpt lat="38.010458" lon="-4.328753">
        <ele>209.221133</ele>
        <time>2020-08-11T07:44:24.415Z</time>
      </trkpt>
      <trkpt lat="38.010517" lon="-4.328869">
        <ele>209.390489</ele>
        <time>2020-08-11T07:44:26.395Z</time>
      </trkpt>
      <trkpt lat="38.010584" lon="-4.328970">
        <ele>209.552437</ele>
        <time>2020-08-11T07:44:28.409Z</time>
      </trkpt>
      <trkpt lat="38.010654" lon="-4.329064">
        <ele>209.711087</ele>
        <time>2020-08-11T07:44:30.424Z</time>
      </trkpt>
      <trkpt lat="38.010708" lon="-4.329187">
        <ele>209.883798</ele>
        <time>2020-08-11T07:44:32.404Z</time>
      </trkpt>
      <trkpt lat="38.010779" lon="-4.329266">
        <ele>210.030791</ele>
        <time>2020-08-11T07:44:34.408Z</time>
      </trkpt>
      <trkpt lat="38.010861" lon="-4.329357">
        <ele>210.200365</ele>
        <time>2020-08-11T07:44:36.404Z</time>
      </trkpt>
      <trkpt lat="38.010943" lon="-4.329430">
        <ele>210.356293</ele>
        <time>2020-08-11T07:44:38.407Z</time>
      </trkpt>
      <trkpt lat="38.011042" lon="-4.329539">
        <ele>210.560325</ele>
        <time>2020-08-11T07:44:41.397Z</time>
      </trkpt>
      <trkpt lat="38.011112" lon="-4.329612">
        <ele>210.701368</ele>
        <time>2020-08-11T07:44:43.408Z</time>
      </trkpt>
      <trkpt lat="38.011191" lon="-4.329692">
        <ele>210.858703</ele>
        <time>2020-08-11T07:44:45.409Z</time>
      </trkpt>
      <trkpt lat="38.011308" lon="-4.329764">
        <ele>211.061128</ele>
        <time>2020-08-11T07:44:48.408Z</time>
      </trkpt>
      <trkpt lat="38.011445" lon="-4.329821">
        <ele>211.285575</ele>
        <time>2020-08-11T07:44:51.423Z</time>
      </trkpt>
      <trkpt lat="38.011531" lon="-4.329861">
        <ele>211.428166</ele>
        <time>2020-08-11T07:44:53.416Z</time>
      </trkpt>
      <trkpt lat="38.011604" lon="-4.329928">
        <ele>211.568412</ele>
        <time>2020-08-11T07:44:55.418Z</time>
      </trkpt>
      <trkpt lat="38.011736" lon="-4.330015">
        <ele>211.799964</ele>
        <time>2020-08-11T07:44:58.397Z</time>
      </trkpt>
      <trkpt lat="38.011841" lon="-4.330055">
        <ele>212.098073</ele>
        <time>2020-08-11T07:45:00.427Z</time>
      </trkpt>
      <trkpt lat="38.011906" lon="-4.330159">
        <ele>212.510248</ele>
        <time>2020-08-11T07:45:02.412Z</time>
      </trkpt>
      <trkpt lat="38.012000" lon="-4.330220">
        <ele>212.926298</ele>
        <time>2020-08-11T07:45:04.423Z</time>
      </trkpt>
      <trkpt lat="38.012014" lon="-4.330337">
        <ele>213.293739</ele>
        <time>2020-08-11T07:45:06.392Z</time>
      </trkpt>
      <trkpt lat="38.011976" lon="-4.330460">
        <ele>213.703955</ele>
        <time>2020-08-11T07:45:09.417Z</time>
      </trkpt>
      <trkpt lat="38.011893" lon="-4.330517">
        <ele>214.075856</ele>
        <time>2020-08-11T07:45:12.403Z</time>
      </trkpt>
      <trkpt lat="38.011800" lon="-4.330563">
        <ele>214.469201</ele>
        <time>2020-08-11T07:45:16.421Z</time>
      </trkpt>
      <trkpt lat="38.011707" lon="-4.330638">
        <ele>214.903424</ele>
        <time>2020-08-11T07:45:20.406Z</time>
      </trkpt>
      <trkpt lat="38.011607" lon="-4.330708">
        <ele>215.353470</ele>
        <time>2020-08-11T07:45:24.411Z</time>
      </trkpt>
      <trkpt lat="38.011505" lon="-4.330758">
        <ele>215.784374</ele>
        <time>2020-08-11T07:45:28.415Z</time>
      </trkpt>
      <trkpt lat="38.011388" lon="-4.330790">
        <ele>216.256037</ele>
        <time>2020-08-11T07:45:32.413Z</time>
      </trkpt>
      <trkpt lat="38.011302" lon="-4.330870">
        <ele>216.676230</ele>
        <time>2020-08-11T07:45:36.415Z</time>
      </trkpt>
      <trkpt lat="38.011316" lon="-4.331003">
        <ele>217.092857</ele>
        <time>2020-08-11T07:45:39.416Z</time>
      </trkpt>
      <trkpt lat="38.011383" lon="-4.331122">
        <ele>217.546991</ele>
        <time>2020-08-11T07:45:41.412Z</time>
      </trkpt>
      <trkpt lat="38.011426" lon="-4.331281">
        <ele>218.068950</ele>
        <time>2020-08-11T07:45:43.404Z</time>
      </trkpt>
      <trkpt lat="38.011476" lon="-4.331438">
        <ele>218.594743</ele>
        <time>2020-08-11T07:45:45.417Z</time>
      </trkpt>
      <trkpt lat="38.011541" lon="-4.331567">
        <ele>219.039015</ele>
        <time>2020-08-11T07:45:47.411Z</time>
      </trkpt>
      <trkpt lat="38.011577" lon="-4.331718">
        <ele>219.367460</ele>
        <time>2020-08-11T07:45:49.418Z</time>
      </trkpt>
      <trkpt lat="38.011587" lon="-4.331850">
        <ele>219.643538</ele>
        <time>2020-08-11T07:45:51.426Z</time>
      </trkpt>
      <trkpt lat="38.011616" lon="-4.331973">
        <ele>219.910832</ele>
        <time>2020-08-11T07:45:53.422Z</time>
      </trkpt>
      <trkpt lat="38.011623" lon="-4.332142">
        <ele>220.263159</ele>
        <time>2020-08-11T07:45:56.421Z</time>
      </trkpt>
      <trkpt lat="38.011678" lon="-4.332247">
        <ele>220.525660</ele>
        <time>2020-08-11T07:45:59.420Z</time>
      </trkpt>
      <trkpt lat="38.011716" lon="-4.332382">
        <ele>220.824115</ele>
        <time>2020-08-11T07:46:02.416Z</time>
      </trkpt>
      <trkpt lat="38.011742" lon="-4.332494">
        <ele>221.067198</ele>
        <time>2020-08-11T07:46:05.419Z</time>
      </trkpt>
      <trkpt lat="38.011745" lon="-4.332614">
        <ele>221.317151</ele>
        <time>2020-08-11T07:46:08.424Z</time>
      </trkpt>
      <trkpt lat="38.011769" lon="-4.332747">
        <ele>221.601213</ele>
        <time>2020-08-11T07:46:12.423Z</time>
      </trkpt>
      <trkpt lat="38.011774" lon="-4.332891">
        <ele>221.901297</ele>
        <time>2020-08-11T07:46:16.409Z</time>
      </trkpt>
      <trkpt lat="38.011788" lon="-4.333016">
        <ele>222.164150</ele>
        <time>2020-08-11T07:46:20.416Z</time>
      </trkpt>
      <trkpt lat="38.011783" lon="-4.333134">
        <ele>222.410169</ele>
        <time>2020-08-11T07:46:24.403Z</time>
      </trkpt>
      <trkpt lat="38.011815" lon="-4.333249">
        <ele>222.664080</ele>
        <time>2020-08-11T07:46:28.415Z</time>
      </trkpt>
      <trkpt lat="38.011835" lon="-4.333372">
        <ele>222.925549</ele>
        <time>2020-08-11T07:46:32.412Z</time>
      </trkpt>
      <trkpt lat="38.011836" lon="-4.333501">
        <ele>223.194127</ele>
        <time>2020-08-11T07:46:36.409Z</time>
      </trkpt>
      <trkpt lat="38.011824" lon="-4.333623">
        <ele>223.450090</ele>
        <time>2020-08-11T07:46:40.406Z</time>
      </trkpt>
      <trkpt lat="38.011837" lon="-4.333765">
        <ele>223.777610</ele>
        <time>2020-08-11T07:46:44.410Z</time>
      </trkpt>
      <trkpt lat="38.011870" lon="-4.333893">
        <ele>224.489960</ele>
        <time>2020-08-11T07:46:48.411Z</time>
      </trkpt>
      <trkpt lat="38.011922" lon="-4.333989">
        <ele>225.106151</ele>
        <time>2020-08-11T07:46:53.415Z</time>
      </trkpt>
      <trkpt lat="38.011937" lon="-4.334129">
        <ele>225.853463</ele>
        <time>2020-08-11T07:46:59.407Z</time>
      </trkpt>
      <trkpt lat="38.011928" lon="-4.334250">
        <ele>226.496308</ele>
        <time>2020-08-11T07:47:03.410Z</time>
      </trkpt>
      <trkpt lat="38.011909" lon="-4.334377">
        <ele>227.180046</ele>
        <time>2020-08-11T07:47:07.419Z</time>
      </trkpt>
      <trkpt lat="38.011906" lon="-4.334498">
        <ele>227.820363</ele>
        <time>2020-08-11T07:47:11.414Z</time>
      </trkpt>
      <trkpt lat="38.011918" lon="-4.334617">
        <ele>228.454918</ele>
        <time>2020-08-11T07:47:15.421Z</time>
      </trkpt>
      <trkpt lat="38.011931" lon="-4.334739">
        <ele>229.106082</ele>
        <time>2020-08-11T07:47:19.408Z</time>
      </trkpt>
      <trkpt lat="38.011960" lon="-4.334851">
        <ele>229.729649</ele>
        <time>2020-08-11T07:47:23.400Z</time>
      </trkpt>
      <trkpt lat="38.011983" lon="-4.334978">
        <ele>230.418901</ele>
        <time>2020-08-11T07:47:27.395Z</time>
      </trkpt>
      <trkpt lat="38.011988" lon="-4.335105">
        <ele>231.091474</ele>
        <time>2020-08-11T07:47:31.415Z</time>
      </trkpt>
      <trkpt lat="38.011983" lon="-4.335228">
        <ele>231.742917</ele>
        <time>2020-08-11T07:47:35.407Z</time>
      </trkpt>
      <trkpt lat="38.011996" lon="-4.335345">
        <ele>232.367882</ele>
        <time>2020-08-11T07:47:40.425Z</time>
      </trkpt>
      <trkpt lat="38.011985" lon="-4.335462">
        <ele>232.991115</ele>
        <time>2020-08-11T07:47:50.398Z</time>
      </trkpt>
      <trkpt lat="38.011999" lon="-4.335575">
        <ele>233.596144</ele>
        <time>2020-08-11T07:48:00.408Z</time>
      </trkpt>
      <trkpt lat="38.011978" lon="-4.335691">
        <ele>234.225685</ele>
        <time>2020-08-11T07:48:08.414Z</time>
      </trkpt>
      <trkpt lat="38.011948" lon="-4.335803">
        <ele>234.851380</ele>
        <time>2020-08-11T07:48:19.409Z</time>
      </trkpt>
      <trkpt lat="38.012016" lon="-4.336103">
        <ele>236.161466</ele>
        <time>2020-08-11T07:49:15.408Z</time>
      </trkpt>
      <trkpt lat="38.012039" lon="-4.336474">
        <ele>237.170101</ele>
        <time>2020-08-11T07:49:39.412Z</time>
      </trkpt>
      <trkpt lat="38.012039" lon="-4.336614">
        <ele>237.549545</ele>
        <time>2020-08-11T07:49:43.412Z</time>
      </trkpt>
      <trkpt lat="38.012039" lon="-4.336750">
        <ele>237.918148</ele>
        <time>2020-08-11T07:49:46.394Z</time>
      </trkpt>
      <trkpt lat="38.012046" lon="-4.336902">
        <ele>238.330818</ele>
        <time>2020-08-11T07:49:49.392Z</time>
      </trkpt>
      <trkpt lat="38.012048" lon="-4.337049">
        <ele>238.729294</ele>
        <time>2020-08-11T07:49:52.399Z</time>
      </trkpt>
      <trkpt lat="38.012046" lon="-4.337197">
        <ele>239.130479</ele>
        <time>2020-08-11T07:49:55.403Z</time>
      </trkpt>
      <trkpt lat="38.012050" lon="-4.337330">
        <ele>239.491214</ele>
        <time>2020-08-11T07:49:58.398Z</time>
      </trkpt>
      <trkpt lat="38.012059" lon="-4.337448">
        <ele>239.812526</ele>
        <time>2020-08-11T07:50:01.398Z</time>
      </trkpt>
      <trkpt lat="38.012061" lon="-4.337575">
        <ele>240.156804</ele>
        <time>2020-08-11T07:50:05.408Z</time>
      </trkpt>
      <trkpt lat="38.012049" lon="-4.337701">
        <ele>240.500790</ele>
        <time>2020-08-11T07:50:08.396Z</time>
      </trkpt>
      <trkpt lat="38.012043" lon="-4.337855">
        <ele>240.918688</ele>
        <time>2020-08-11T07:50:11.408Z</time>
      </trkpt>
      <trkpt lat="38.012048" lon="-4.338008">
        <ele>241.333723</ele>
        <time>2020-08-11T07:50:14.399Z</time>
      </trkpt>
      <trkpt lat="38.012053" lon="-4.338157">
        <ele>241.737926</ele>
        <time>2020-08-11T07:50:17.409Z</time>
      </trkpt>
      <trkpt lat="38.012069" lon="-4.338307">
        <ele>241.907295</ele>
        <time>2020-08-11T07:50:20.422Z</time>
      </trkpt>
      <trkpt lat="38.012078" lon="-4.338468">
        <ele>241.676966</ele>
        <time>2020-08-11T07:50:23.423Z</time>
      </trkpt>
      <trkpt lat="38.012076" lon="-4.338631">
        <ele>241.444333</ele>
        <time>2020-08-11T07:50:26.407Z</time>
      </trkpt>
      <trkpt lat="38.012075" lon="-4.338777">
        <ele>241.235980</ele>
        <time>2020-08-11T07:50:29.401Z</time>
      </trkpt>
      <trkpt lat="38.012082" lon="-4.338918">
        <ele>241.034371</ele>
        <time>2020-08-11T07:50:32.405Z</time>
      </trkpt>
      <trkpt lat="38.012087" lon="-4.339044">
        <ele>240.854338</ele>
        <time>2020-08-11T07:50:35.410Z</time>
      </trkpt>
      <trkpt lat="38.012105" lon="-4.339189">
        <ele>240.644868</ele>
        <time>2020-08-11T07:50:38.418Z</time>
      </trkpt>
      <trkpt lat="38.012126" lon="-4.339357">
        <ele>240.402129</ele>
        <time>2020-08-11T07:50:41.415Z</time>
      </trkpt>
      <trkpt lat="38.012135" lon="-4.339495">
        <ele>240.204527</ele>
        <time>2020-08-11T07:50:43.419Z</time>
      </trkpt>
      <trkpt lat="38.012101" lon="-4.339648">
        <ele>239.977674</ele>
        <time>2020-08-11T07:50:45.405Z</time>
      </trkpt>
      <trkpt lat="38.012096" lon="-4.339788">
        <ele>239.777686</ele>
        <time>2020-08-11T07:50:47.426Z</time>
      </trkpt>
      <trkpt lat="38.012061" lon="-4.339949">
        <ele>239.539350</ele>
        <time>2020-08-11T07:50:49.415Z</time>
      </trkpt>
      <trkpt lat="38.012032" lon="-4.340099">
        <ele>239.318946</ele>
        <time>2020-08-11T07:50:51.403Z</time>
      </trkpt>
      <trkpt lat="38.011985" lon="-4.340275">
        <ele>239.053756</ele>
        <time>2020-08-11T07:50:53.429Z</time>
      </trkpt>
      <trkpt lat="38.011969" lon="-4.340439">
        <ele>238.817936</ele>
        <time>2020-08-11T07:50:55.404Z</time>
      </trkpt>
      <trkpt lat="38.011940" lon="-4.340619">
        <ele>238.552606</ele>
        <time>2020-08-11T07:50:57.408Z</time>
      </trkpt>
      <trkpt lat="38.011962" lon="-4.340762">
        <ele>238.340983</ele>
        <time>2020-08-11T07:50:59.418Z</time>
      </trkpt>
      <trkpt lat="38.011990" lon="-4.340872">
        <ele>238.173083</ele>
        <time>2020-08-11T07:51:01.413Z</time>
      </trkpt>
      <trkpt lat="38.011940" lon="-4.341038">
        <ele>237.914959</ele>
        <time>2020-08-11T07:51:03.405Z</time>
      </trkpt>
      <trkpt lat="38.011971" lon="-4.341220">
        <ele>237.644507</ele>
        <time>2020-08-11T07:51:05.412Z</time>
      </trkpt>
      <trkpt lat="38.011987" lon="-4.341375">
        <ele>237.417455</ele>
        <time>2020-08-11T07:51:07.431Z</time>
      </trkpt>
      <trkpt lat="38.012009" lon="-4.341519">
        <ele>237.204407</ele>
        <time>2020-08-11T07:51:09.431Z</time>
      </trkpt>
      <trkpt lat="38.012019" lon="-4.341668">
        <ele>236.987209</ele>
        <time>2020-08-11T07:51:11.423Z</time>
      </trkpt>
      <trkpt lat="38.012022" lon="-4.341854">
        <ele>236.716998</ele>
        <time>2020-08-11T07:51:13.428Z</time>
      </trkpt>
      <trkpt lat="38.011990" lon="-4.342014">
        <ele>236.477236</ele>
        <time>2020-08-11T07:51:15.426Z</time>
      </trkpt>
      <trkpt lat="38.012004" lon="-4.342161">
        <ele>236.262173</ele>
        <time>2020-08-11T07:51:18.416Z</time>
      </trkpt>
      <trkpt lat="38.011963" lon="-4.342309">
        <ele>236.034310</ele>
        <time>2020-08-11T07:51:20.430Z</time>
      </trkpt>
      <trkpt lat="38.011916" lon="-4.342486">
        <ele>235.763020</ele>
        <time>2020-08-11T07:51:22.409Z</time>
      </trkpt>
      <trkpt lat="38.011853" lon="-4.342633">
        <ele>235.519967</ele>
        <time>2020-08-11T07:51:24.415Z</time>
      </trkpt>
      <trkpt lat="38.011811" lon="-4.342754">
        <ele>235.174756</ele>
        <time>2020-08-11T07:51:25.423Z</time>
      </trkpt>
      <trkpt lat="38.011787" lon="-4.342883">
        <ele>234.650791</ele>
        <time>2020-08-11T07:51:27.409Z</time>
      </trkpt>
      <trkpt lat="38.011794" lon="-4.343028">
        <ele>234.076527</ele>
        <time>2020-08-11T07:51:29.416Z</time>
      </trkpt>
      <trkpt lat="38.011747" lon="-4.343163">
        <ele>233.493090</ele>
        <time>2020-08-11T07:51:31.415Z</time>
      </trkpt>
      <trkpt lat="38.011705" lon="-4.343316">
        <ele>232.852617</ele>
        <time>2020-08-11T07:51:33.431Z</time>
      </trkpt>
      <trkpt lat="38.011629" lon="-4.343471">
        <ele>232.130935</ele>
        <time>2020-08-11T07:51:35.408Z</time>
      </trkpt>
      <trkpt lat="38.011576" lon="-4.343611">
        <ele>231.516939</ele>
        <time>2020-08-11T07:51:37.401Z</time>
      </trkpt>
      <trkpt lat="38.011522" lon="-4.343726">
        <ele>230.987727</ele>
        <time>2020-08-11T07:51:39.412Z</time>
      </trkpt>
      <trkpt lat="38.011493" lon="-4.343859">
        <ele>230.442211</ele>
        <time>2020-08-11T07:51:41.410Z</time>
      </trkpt>
      <trkpt lat="38.011425" lon="-4.343959">
        <ele>229.920037</ele>
        <time>2020-08-11T07:51:43.396Z</time>
      </trkpt>
      <trkpt lat="38.011367" lon="-4.344073">
        <ele>229.383599</ele>
        <time>2020-08-11T07:51:45.403Z</time>
      </trkpt>
      <trkpt lat="38.011287" lon="-4.344196">
        <ele>228.753105</ele>
        <time>2020-08-11T07:51:47.409Z</time>
      </trkpt>
      <trkpt lat="38.011218" lon="-4.344328">
        <ele>228.126904</ele>
        <time>2020-08-11T07:51:49.409Z</time>
      </trkpt>
      <trkpt lat="38.011150" lon="-4.344448">
        <ele>227.542589</ele>
        <time>2020-08-11T07:51:51.407Z</time>
      </trkpt>
      <trkpt lat="38.011087" lon="-4.344573">
        <ele>226.956006</ele>
        <time>2020-08-11T07:51:53.408Z</time>
      </trkpt>
      <trkpt lat="38.010999" lon="-4.344691">
        <ele>226.300241</ele>
        <time>2020-08-11T07:51:55.410Z</time>
      </trkpt>
      <trkpt lat="38.010905" lon="-4.344813">
        <ele>225.510390</ele>
        <time>2020-08-11T07:51:57.410Z</time>
      </trkpt>
      <trkpt lat="38.010797" lon="-4.344928">
        <ele>224.682184</ele>
        <time>2020-08-11T07:51:59.411Z</time>
      </trkpt>
      <trkpt lat="38.010699" lon="-4.345074">
        <ele>223.794387</ele>
        <time>2020-08-11T07:52:01.408Z</time>
      </trkpt>
      <trkpt lat="38.010619" lon="-4.345234">
        <ele>222.917239</ele>
        <time>2020-08-11T07:52:03.419Z</time>
      </trkpt>
      <trkpt lat="38.010522" lon="-4.345409">
        <ele>221.926832</ele>
        <time>2020-08-11T07:52:05.404Z</time>
      </trkpt>
      <trkpt lat="38.010421" lon="-4.345595">
        <ele>220.881210</ele>
        <time>2020-08-11T07:52:07.411Z</time>
      </trkpt>
      <trkpt lat="38.010331" lon="-4.345764">
        <ele>219.937013</ele>
        <time>2020-08-11T07:52:09.415Z</time>
      </trkpt>
      <trkpt lat="38.010211" lon="-4.345921">
        <ele>218.924525</ele>
        <time>2020-08-11T07:52:11.415Z</time>
      </trkpt>
      <trkpt lat="38.010128" lon="-4.346066">
        <ele>218.094918</ele>
        <time>2020-08-11T07:52:13.416Z</time>
      </trkpt>
      <trkpt lat="38.010048" lon="-4.346212">
        <ele>217.271748</ele>
        <time>2020-08-11T07:52:15.416Z</time>
      </trkpt>
      <trkpt lat="38.009955" lon="-4.346354">
        <ele>216.417027</ele>
        <time>2020-08-11T07:52:17.424Z</time>
      </trkpt>
      <trkpt lat="38.009901" lon="-4.346446">
        <ele>215.885996</ele>
        <time>2020-08-11T07:52:18.410Z</time>
      </trkpt>
      <trkpt lat="38.009816" lon="-4.346610">
        <ele>215.598790</ele>
        <time>2020-08-11T07:52:20.426Z</time>
      </trkpt>
      <trkpt lat="38.009726" lon="-4.346769">
        <ele>215.356317</ele>
        <time>2020-08-11T07:52:22.408Z</time>
      </trkpt>
      <trkpt lat="38.009656" lon="-4.346949">
        <ele>215.107709</ele>
        <time>2020-08-11T07:52:24.413Z</time>
      </trkpt>
      <trkpt lat="38.009561" lon="-4.347114">
        <ele>214.854606</ele>
        <time>2020-08-11T07:52:26.407Z</time>
      </trkpt>
      <trkpt lat="38.009458" lon="-4.347246">
        <ele>214.624518</ele>
        <time>2020-08-11T07:52:28.412Z</time>
      </trkpt>
      <trkpt lat="38.009341" lon="-4.347377">
        <ele>214.379268</ele>
        <time>2020-08-11T07:52:30.421Z</time>
      </trkpt>
      <trkpt lat="38.009266" lon="-4.347543">
        <ele>214.142270</ele>
        <time>2020-08-11T07:52:32.427Z</time>
      </trkpt>
      <trkpt lat="38.009165" lon="-4.347715">
        <ele>213.876591</ele>
        <time>2020-08-11T07:52:34.399Z</time>
      </trkpt>
      <trkpt lat="38.009065" lon="-4.347866">
        <ele>213.632287</ele>
        <time>2020-08-11T07:52:36.422Z</time>
      </trkpt>
      <trkpt lat="38.009036" lon="-4.348042">
        <ele>213.409592</ele>
        <time>2020-08-11T07:52:38.422Z</time>
      </trkpt>
      <trkpt lat="38.008987" lon="-4.348251">
        <ele>213.139523</ele>
        <time>2020-08-11T07:52:40.417Z</time>
      </trkpt>
      <trkpt lat="38.008956" lon="-4.348438">
        <ele>213.115488</ele>
        <time>2020-08-11T07:52:42.408Z</time>
      </trkpt>
      <trkpt lat="38.008950" lon="-4.348613">
        <ele>213.380770</ele>
        <time>2020-08-11T07:52:44.409Z</time>
      </trkpt>
      <trkpt lat="38.008901" lon="-4.348747">
        <ele>213.604498</ele>
        <time>2020-08-11T07:52:46.419Z</time>
      </trkpt>
      <trkpt lat="38.008858" lon="-4.348866">
        <ele>213.802767</ele>
        <time>2020-08-11T07:52:48.403Z</time>
      </trkpt>
      <trkpt lat="38.008769" lon="-4.348951">
        <ele>214.016859</ele>
        <time>2020-08-11T07:52:50.419Z</time>
      </trkpt>
      <trkpt lat="38.008686" lon="-4.349005">
        <ele>214.196134</ele>
        <time>2020-08-11T07:52:52.407Z</time>
      </trkpt>
      <trkpt lat="38.008602" lon="-4.349080">
        <ele>214.393543</ele>
        <time>2020-08-11T07:52:55.417Z</time>
      </trkpt>
      <trkpt lat="38.008517" lon="-4.349136">
        <ele>214.577623</ele>
        <time>2020-08-11T07:52:57.423Z</time>
      </trkpt>
      <trkpt lat="38.008437" lon="-4.349212">
        <ele>214.769698</ele>
        <time>2020-08-11T07:53:01.415Z</time>
      </trkpt>
      <trkpt lat="38.008417" lon="-4.349343">
        <ele>214.971784</ele>
        <time>2020-08-11T07:53:04.405Z</time>
      </trkpt>
      <trkpt lat="38.008348" lon="-4.349451">
        <ele>215.182360</ele>
        <time>2020-08-11T07:53:08.402Z</time>
      </trkpt>
      <trkpt lat="38.008262" lon="-4.349542">
        <ele>215.397577</ele>
        <time>2020-08-11T07:53:13.420Z</time>
      </trkpt>
      <trkpt lat="38.008188" lon="-4.349635">
        <ele>215.597749</ele>
        <time>2020-08-11T07:53:17.405Z</time>
      </trkpt>
      <trkpt lat="38.008116" lon="-4.349740">
        <ele>215.808556</ele>
        <time>2020-08-11T07:53:21.423Z</time>
      </trkpt>
      <trkpt lat="38.008034" lon="-4.349846">
        <ele>216.033530</ele>
        <time>2020-08-11T07:53:25.413Z</time>
      </trkpt>
      <trkpt lat="38.007965" lon="-4.349971">
        <ele>216.264674</ele>
        <time>2020-08-11T07:53:29.402Z</time>
      </trkpt>
      <trkpt lat="38.007897" lon="-4.350054">
        <ele>216.446015</ele>
        <time>2020-08-11T07:53:32.408Z</time>
      </trkpt>
      <trkpt lat="38.007828" lon="-4.350158">
        <ele>216.538329</ele>
        <time>2020-08-11T07:53:35.410Z</time>
      </trkpt>
      <trkpt lat="38.007755" lon="-4.350268">
        <ele>216.630046</ele>
        <time>2020-08-11T07:53:38.407Z</time>
      </trkpt>
      <trkpt lat="38.007684" lon="-4.350376">
        <ele>216.719746</ele>
        <time>2020-08-11T07:53:41.403Z</time>
      </trkpt>
      <trkpt lat="38.007620" lon="-4.350502">
        <ele>216.815350</ele>
        <time>2020-08-11T07:53:44.415Z</time>
      </trkpt>
      <trkpt lat="38.007541" lon="-4.350603">
        <ele>216.906109</ele>
        <time>2020-08-11T07:53:47.404Z</time>
      </trkpt>
      <trkpt lat="38.007464" lon="-4.350698">
        <ele>216.993025</ele>
        <time>2020-08-11T07:53:50.425Z</time>
      </trkpt>
      <trkpt lat="38.007404" lon="-4.350794">
        <ele>217.071170</ele>
        <time>2020-08-11T07:53:53.411Z</time>
      </trkpt>
      <trkpt lat="38.007331" lon="-4.350897">
        <ele>217.159520</ele>
        <time>2020-08-11T07:53:56.405Z</time>
      </trkpt>
      <trkpt lat="38.007252" lon="-4.350997">
        <ele>217.249827</ele>
        <time>2020-08-11T07:53:59.410Z</time>
      </trkpt>
      <trkpt lat="38.007170" lon="-4.351090">
        <ele>217.338835</ele>
        <time>2020-08-11T07:54:02.410Z</time>
      </trkpt>
      <trkpt lat="38.007084" lon="-4.351193">
        <ele>217.434542</ele>
        <time>2020-08-11T07:54:05.414Z</time>
      </trkpt>
      <trkpt lat="38.006997" lon="-4.351310">
        <ele>217.537137</ele>
        <time>2020-08-11T07:54:08.411Z</time>
      </trkpt>
      <trkpt lat="38.006988" lon="-4.351464">
        <ele>217.635619</ele>
        <time>2020-08-11T07:54:10.410Z</time>
      </trkpt>
      <trkpt lat="38.006990" lon="-4.351601">
        <ele>217.723004</ele>
        <time>2020-08-11T07:54:12.403Z</time>
      </trkpt>
      <trkpt lat="38.007021" lon="-4.351772">
        <ele>217.834906</ele>
        <time>2020-08-11T07:54:14.421Z</time>
      </trkpt>
      <trkpt lat="38.007032" lon="-4.351959">
        <ele>217.924123</ele>
        <time>2020-08-11T07:54:16.413Z</time>
      </trkpt>
      <trkpt lat="38.007046" lon="-4.352134">
        <ele>217.957085</ele>
        <time>2020-08-11T07:54:18.425Z</time>
      </trkpt>
      <trkpt lat="38.007075" lon="-4.352324">
        <ele>217.993351</ele>
        <time>2020-08-11T07:54:20.417Z</time>
      </trkpt>
      <trkpt lat="38.007087" lon="-4.352443">
        <ele>218.015833</ele>
        <time>2020-08-11T07:54:21.412Z</time>
      </trkpt>
      <trkpt lat="38.007094" lon="-4.352630">
        <ele>218.050914</ele>
        <time>2020-08-11T07:54:23.418Z</time>
      </trkpt>
      <trkpt lat="38.007117" lon="-4.352803">
        <ele>218.083791</ele>
        <time>2020-08-11T07:54:25.415Z</time>
      </trkpt>
      <trkpt lat="38.007124" lon="-4.352965">
        <ele>218.114194</ele>
        <time>2020-08-11T07:54:27.419Z</time>
      </trkpt>
      <trkpt lat="38.007121" lon="-4.353109">
        <ele>218.141188</ele>
        <time>2020-08-11T07:54:29.403Z</time>
      </trkpt>
      <trkpt lat="38.007108" lon="-4.353229">
        <ele>218.163887</ele>
        <time>2020-08-11T07:54:31.415Z</time>
      </trkpt>
      <trkpt lat="38.007084" lon="-4.353378">
        <ele>218.192385</ele>
        <time>2020-08-11T07:54:34.415Z</time>
      </trkpt>
      <trkpt lat="38.007123" lon="-4.353502">
        <ele>218.217405</ele>
        <time>2020-08-11T07:54:37.408Z</time>
      </trkpt>
      <trkpt lat="38.007203" lon="-4.353591">
        <ele>218.242706</ele>
        <time>2020-08-11T07:54:41.404Z</time>
      </trkpt>
      <trkpt lat="38.007298" lon="-4.353638">
        <ele>218.266955</ele>
        <time>2020-08-11T07:54:44.415Z</time>
      </trkpt>
      <trkpt lat="38.007402" lon="-4.353704">
        <ele>218.294609</ele>
        <time>2020-08-11T07:54:48.412Z</time>
      </trkpt>
      <trkpt lat="38.007460" lon="-4.353830">
        <ele>218.321954</ele>
        <time>2020-08-11T07:54:52.406Z</time>
      </trkpt>
      <trkpt lat="38.007449" lon="-4.353972">
        <ele>218.422420</ele>
        <time>2020-08-11T07:54:56.404Z</time>
      </trkpt>
      <trkpt lat="38.007428" lon="-4.354104">
        <ele>218.644689</ele>
        <time>2020-08-11T07:55:00.412Z</time>
      </trkpt>
      <trkpt lat="38.007414" lon="-4.354252">
        <ele>218.890725</ele>
        <time>2020-08-11T07:55:04.423Z</time>
      </trkpt>
      <trkpt lat="38.007405" lon="-4.354399">
        <ele>219.134086</ele>
        <time>2020-08-11T07:55:08.440Z</time>
      </trkpt>
      <trkpt lat="38.007406" lon="-4.354526">
        <ele>219.343716</ele>
        <time>2020-08-11T07:55:11.412Z</time>
      </trkpt>
      <trkpt lat="38.007411" lon="-4.354656">
        <ele>219.558543</ele>
        <time>2020-08-11T07:55:14.423Z</time>
      </trkpt>
      <trkpt lat="38.007424" lon="-4.354770">
        <ele>219.748666</ele>
        <time>2020-08-11T07:55:17.430Z</time>
      </trkpt>
      <trkpt lat="38.007446" lon="-4.354917">
        <ele>219.995634</ele>
        <time>2020-08-11T07:55:21.411Z</time>
      </trkpt>
      <trkpt lat="38.007482" lon="-4.355035">
        <ele>220.204489</ele>
        <time>2020-08-11T07:55:24.419Z</time>
      </trkpt>
      <trkpt lat="38.007529" lon="-4.355142">
        <ele>220.406686</ele>
        <time>2020-08-11T07:55:27.413Z</time>
      </trkpt>
      <trkpt lat="38.007561" lon="-4.355268">
        <ele>220.625191</ele>
        <time>2020-08-11T07:55:30.433Z</time>
      </trkpt>
      <trkpt lat="38.007600" lon="-4.355382">
        <ele>220.830324</ele>
        <time>2020-08-11T07:55:33.412Z</time>
      </trkpt>
      <trkpt lat="38.007629" lon="-4.355515">
        <ele>221.058096</ele>
        <time>2020-08-11T07:55:37.406Z</time>
      </trkpt>
      <trkpt lat="38.007661" lon="-4.355645">
        <ele>221.282894</ele>
        <time>2020-08-11T07:55:42.404Z</time>
      </trkpt>
      <trkpt lat="38.007694" lon="-4.355755">
        <ele>221.477168</ele>
        <time>2020-08-11T07:55:46.413Z</time>
      </trkpt>
      <trkpt lat="38.007735" lon="-4.355882">
        <ele>221.703700</ele>
        <time>2020-08-11T07:55:50.418Z</time>
      </trkpt>
      <trkpt lat="38.007778" lon="-4.355984">
        <ele>221.894637</ele>
        <time>2020-08-11T07:55:54.428Z</time>
      </trkpt>
      <trkpt lat="38.007806" lon="-4.356123">
        <ele>222.118185</ele>
        <time>2020-08-11T07:55:59.411Z</time>
      </trkpt>
      <trkpt lat="38.007837" lon="-4.356231">
        <ele>222.204910</ele>
        <time>2020-08-11T07:56:03.407Z</time>
      </trkpt>
      <trkpt lat="38.007867" lon="-4.356341">
        <ele>222.292737</ele>
        <time>2020-08-11T07:56:07.413Z</time>
      </trkpt>
      <trkpt lat="38.007908" lon="-4.356447">
        <ele>222.381831</ele>
        <time>2020-08-11T07:56:11.418Z</time>
      </trkpt>
      <trkpt lat="38.007953" lon="-4.356565">
        <ele>222.480743</ele>
        <time>2020-08-11T07:56:16.409Z</time>
      </trkpt>
      <trkpt lat="38.007989" lon="-4.356703">
        <ele>222.590422</ele>
        <time>2020-08-11T07:56:21.402Z</time>
      </trkpt>
      <trkpt lat="38.008014" lon="-4.356835">
        <ele>222.692853</ele>
        <time>2020-08-11T07:56:26.425Z</time>
      </trkpt>
      <trkpt lat="38.008034" lon="-4.356956">
        <ele>222.786135</ele>
        <time>2020-08-11T07:56:30.409Z</time>
      </trkpt>
      <trkpt lat="38.008078" lon="-4.357062">
        <ele>222.876532</ele>
        <time>2020-08-11T07:56:34.408Z</time>
      </trkpt>
      <trkpt lat="38.008121" lon="-4.357191">
        <ele>222.982214</ele>
        <time>2020-08-11T07:56:38.408Z</time>
      </trkpt>
      <trkpt lat="38.008155" lon="-4.357321">
        <ele>223.085562</ele>
        <time>2020-08-11T07:56:41.408Z</time>
      </trkpt>
      <trkpt lat="38.008187" lon="-4.357513">
        <ele>223.233632</ele>
        <time>2020-08-11T07:56:44.419Z</time>
      </trkpt>
      <trkpt lat="38.008226" lon="-4.357621">
        <ele>223.323268</ele>
        <time>2020-08-11T07:56:46.410Z</time>
      </trkpt>
      <trkpt lat="38.008244" lon="-4.357748">
        <ele>223.420627</ele>
        <time>2020-08-11T07:56:48.412Z</time>
      </trkpt>
      <trkpt lat="38.008304" lon="-4.357860">
        <ele>223.522813</ele>
        <time>2020-08-11T07:56:50.404Z</time>
      </trkpt>
      <trkpt lat="38.008339" lon="-4.357972">
        <ele>223.613721</ele>
        <time>2020-08-11T07:56:52.406Z</time>
      </trkpt>
      <trkpt lat="38.008381" lon="-4.358111">
        <ele>223.726044</ele>
        <time>2020-08-11T07:56:55.405Z</time>
      </trkpt>
      <trkpt lat="38.008421" lon="-4.358216">
        <ele>223.814040</ele>
        <time>2020-08-11T07:56:57.413Z</time>
      </trkpt>
      <trkpt lat="38.008457" lon="-4.358351">
        <ele>224.105300</ele>
        <time>2020-08-11T07:56:59.407Z</time>
      </trkpt>
      <trkpt lat="38.008533" lon="-4.358504">
        <ele>224.513694</ele>
        <time>2020-08-11T07:57:01.413Z</time>
      </trkpt>
      <trkpt lat="38.008615" lon="-4.358709">
        <ele>225.032812</ele>
        <time>2020-08-11T07:57:03.398Z</time>
      </trkpt>
      <trkpt lat="38.008660" lon="-4.358815">
        <ele>225.304687</ele>
        <time>2020-08-11T07:57:04.410Z</time>
      </trkpt>
      <trkpt lat="38.008696" lon="-4.358923">
        <ele>225.569473</ele>
        <time>2020-08-11T07:57:05.415Z</time>
      </trkpt>
      <trkpt lat="38.008766" lon="-4.359119">
        <ele>226.055377</ele>
        <time>2020-08-11T07:57:07.405Z</time>
      </trkpt>
      <trkpt lat="38.008789" lon="-4.359290">
        <ele>226.447075</ele>
        <time>2020-08-11T07:57:09.407Z</time>
      </trkpt>
      <trkpt lat="38.008859" lon="-4.359432">
        <ele>226.825289</ele>
        <time>2020-08-11T07:57:12.411Z</time>
      </trkpt>
      <trkpt lat="38.008884" lon="-4.359587">
        <ele>227.182532</ele>
        <time>2020-08-11T07:57:15.408Z</time>
      </trkpt>
      <trkpt lat="38.008916" lon="-4.359747">
        <ele>227.555263</ele>
        <time>2020-08-11T07:57:18.406Z</time>
      </trkpt>
      <trkpt lat="38.008966" lon="-4.359907">
        <ele>227.943915</ele>
        <time>2020-08-11T07:57:21.412Z</time>
      </trkpt>
      <trkpt lat="38.009018" lon="-4.360054">
        <ele>228.307753</ele>
        <time>2020-08-11T07:57:24.407Z</time>
      </trkpt>
      <trkpt lat="38.009062" lon="-4.360193">
        <ele>228.645991</ele>
        <time>2020-08-11T07:57:27.409Z</time>
      </trkpt>
      <trkpt lat="38.009115" lon="-4.360309">
        <ele>228.948766</ele>
        <time>2020-08-11T07:57:30.416Z</time>
      </trkpt>
      <trkpt lat="38.009181" lon="-4.360399">
        <ele>229.905447</ele>
        <time>2020-08-11T07:57:33.410Z</time>
      </trkpt>
      <trkpt lat="38.009224" lon="-4.360516">
        <ele>231.013068</ele>
        <time>2020-08-11T07:57:37.407Z</time>
      </trkpt>
      <trkpt lat="38.009218" lon="-4.360659">
        <ele>232.241662</ele>
        <time>2020-08-11T07:57:41.414Z</time>
      </trkpt>
      <trkpt lat="38.009228" lon="-4.360777">
        <ele>233.259872</ele>
        <time>2020-08-11T07:57:44.422Z</time>
      </trkpt>
      <trkpt lat="38.009255" lon="-4.360899">
        <ele>234.347066</ele>
        <time>2020-08-11T07:57:47.421Z</time>
      </trkpt>
      <trkpt lat="38.009283" lon="-4.361041">
        <ele>235.602912</ele>
        <time>2020-08-11T07:57:51.131Z</time>
      </trkpt>
      <trkpt lat="38.009301" lon="-4.361168">
        <ele>236.709984</ele>
        <time>2020-08-11T07:57:55.110Z</time>
      </trkpt>
      <trkpt lat="38.009328" lon="-4.361299">
        <ele>237.871703</ele>
        <time>2020-08-11T07:57:59.117Z</time>
      </trkpt>
      <trkpt lat="38.009344" lon="-4.361445">
        <ele>239.136353</ele>
        <time>2020-08-11T07:58:03.113Z</time>
      </trkpt>
      <trkpt lat="38.009358" lon="-4.361585">
        <ele>240.347103</ele>
        <time>2020-08-11T07:58:07.111Z</time>
      </trkpt>
      <trkpt lat="38.009378" lon="-4.361713">
        <ele>241.466651</ele>
        <time>2020-08-11T07:58:11.121Z</time>
      </trkpt>
      <trkpt lat="38.009399" lon="-4.361845">
        <ele>242.621985</ele>
        <time>2020-08-11T07:58:15.122Z</time>
      </trkpt>
      <trkpt lat="38.009429" lon="-4.361960">
        <ele>243.661287</ele>
        <time>2020-08-11T07:58:19.115Z</time>
      </trkpt>
      <trkpt lat="38.009446" lon="-4.362097">
        <ele>244.851150</ele>
        <time>2020-08-11T07:58:23.125Z</time>
      </trkpt>
      <trkpt lat="38.009473" lon="-4.362213">
        <ele>245.888875</ele>
        <time>2020-08-11T07:58:28.118Z</time>
      </trkpt>
      <trkpt lat="38.009492" lon="-4.362325">
        <ele>246.871786</ele>
        <time>2020-08-11T07:58:41.112Z</time>
      </trkpt>
      <trkpt lat="38.009522" lon="-4.362435">
        <ele>247.870454</ele>
        <time>2020-08-11T07:58:49.116Z</time>
      </trkpt>
      <trkpt lat="38.009578" lon="-4.362549">
        <ele>248.483244</ele>
        <time>2020-08-11T07:58:57.117Z</time>
      </trkpt>
      <trkpt lat="38.009613" lon="-4.362660">
        <ele>248.289797</ele>
        <time>2020-08-11T07:59:07.118Z</time>
      </trkpt>
      <trkpt lat="38.009641" lon="-4.362771">
        <ele>248.101218</ele>
        <time>2020-08-11T07:59:15.106Z</time>
      </trkpt>
      <trkpt lat="38.009682" lon="-4.362878">
        <ele>247.908703</ele>
        <time>2020-08-11T07:59:25.105Z</time>
      </trkpt>
      <trkpt lat="38.009721" lon="-4.362984">
        <ele>247.719416</ele>
        <time>2020-08-11T07:59:31.111Z</time>
      </trkpt>
      <trkpt lat="38.009767" lon="-4.363085">
        <ele>247.530659</ele>
        <time>2020-08-11T07:59:41.117Z</time>
      </trkpt>
      <trkpt lat="38.009790" lon="-4.363197">
        <ele>247.343388</ele>
        <time>2020-08-11T07:59:48.121Z</time>
      </trkpt>
      <trkpt lat="38.009790" lon="-4.363322">
        <ele>247.141137</ele>
        <time>2020-08-11T08:00:56.130Z</time>
      </trkpt>
      <trkpt lat="38.009813" lon="-4.363464">
        <ele>246.906576</ele>
        <time>2020-08-11T08:01:00.109Z</time>
      </trkpt>
      <trkpt lat="38.009821" lon="-4.363615">
        <ele>246.661705</ele>
        <time>2020-08-11T08:01:04.126Z</time>
      </trkpt>
      <trkpt lat="38.009832" lon="-4.363765">
        <ele>246.417955</ele>
        <time>2020-08-11T08:01:08.115Z</time>
      </trkpt>
      <trkpt lat="38.009845" lon="-4.363880">
        <ele>246.229979</ele>
        <time>2020-08-11T08:01:11.121Z</time>
      </trkpt>
      <trkpt lat="38.009860" lon="-4.364016">
        <ele>246.007784</ele>
        <time>2020-08-11T08:01:14.118Z</time>
      </trkpt>
      <trkpt lat="38.009873" lon="-4.364157">
        <ele>245.778089</ele>
        <time>2020-08-11T08:01:17.117Z</time>
      </trkpt>
      <trkpt lat="38.009902" lon="-4.364297">
        <ele>245.543870</ele>
        <time>2020-08-11T08:01:20.114Z</time>
      </trkpt>
      <trkpt lat="38.009943" lon="-4.364449">
        <ele>245.283921</ele>
        <time>2020-08-11T08:01:23.119Z</time>
      </trkpt>
      <trkpt lat="38.009966" lon="-4.364590">
        <ele>245.050944</ele>
        <time>2020-08-11T08:01:26.120Z</time>
      </trkpt>
      <trkpt lat="38.009992" lon="-4.364737">
        <ele>244.962886</ele>
        <time>2020-08-11T08:01:29.133Z</time>
      </trkpt>
      <trkpt lat="38.010013" lon="-4.364859">
        <ele>245.222837</ele>
        <time>2020-08-11T08:01:32.116Z</time>
      </trkpt>
      <trkpt lat="38.010040" lon="-4.365004">
        <ele>245.532990</ele>
        <time>2020-08-11T08:01:36.129Z</time>
      </trkpt>
      <trkpt lat="38.010073" lon="-4.365138">
        <ele>245.825238</ele>
        <time>2020-08-11T08:01:40.125Z</time>
      </trkpt>
      <trkpt lat="38.010095" lon="-4.365257">
        <ele>246.079682</ele>
        <time>2020-08-11T08:01:44.116Z</time>
      </trkpt>
      <trkpt lat="38.010118" lon="-4.365369">
        <ele>246.320615</ele>
        <time>2020-08-11T08:01:48.117Z</time>
      </trkpt>
      <trkpt lat="38.010130" lon="-4.365494">
        <ele>246.582744</ele>
        <time>2020-08-11T08:01:52.125Z</time>
      </trkpt>
      <trkpt lat="38.010172" lon="-4.365622">
        <ele>246.871377</ele>
        <time>2020-08-11T08:01:57.116Z</time>
      </trkpt>
      <trkpt lat="38.010199" lon="-4.365740">
        <ele>247.127159</ele>
        <time>2020-08-11T08:02:01.121Z</time>
      </trkpt>
      <trkpt lat="38.010219" lon="-4.365868">
        <ele>247.398797</ele>
        <time>2020-08-11T08:02:05.117Z</time>
      </trkpt>
      <trkpt lat="38.010275" lon="-4.365997">
        <ele>247.705390</ele>
        <time>2020-08-11T08:02:09.115Z</time>
      </trkpt>
      <trkpt lat="38.010319" lon="-4.366102">
        <ele>247.952953</ele>
        <time>2020-08-11T08:02:13.125Z</time>
      </trkpt>
      <trkpt lat="38.010371" lon="-4.366213">
        <ele>248.221772</ele>
        <time>2020-08-11T08:02:17.122Z</time>
      </trkpt>
      <trkpt lat="38.010400" lon="-4.366341">
        <ele>248.499018</ele>
        <time>2020-08-11T08:02:23.115Z</time>
      </trkpt>
      <trkpt lat="38.010417" lon="-4.366455">
        <ele>248.740538</ele>
        <time>2020-08-11T08:02:27.123Z</time>
      </trkpt>
      <trkpt lat="38.010389" lon="-4.366575">
        <ele>249.001057</ele>
        <time>2020-08-11T08:02:31.106Z</time>
      </trkpt>
      <trkpt lat="38.010385" lon="-4.366724">
        <ele>249.311401</ele>
        <time>2020-08-11T08:02:34.117Z</time>
      </trkpt>
      <trkpt lat="38.010433" lon="-4.366895">
        <ele>249.443862</ele>
        <time>2020-08-11T08:02:36.114Z</time>
      </trkpt>
      <trkpt lat="38.010445" lon="-4.367019">
        <ele>248.674084</ele>
        <time>2020-08-11T08:02:38.119Z</time>
      </trkpt>
      <trkpt lat="38.010482" lon="-4.367189">
        <ele>247.587384</ele>
        <time>2020-08-11T08:02:40.122Z</time>
      </trkpt>
      <trkpt lat="38.010495" lon="-4.367318">
        <ele>246.786065</ele>
        <time>2020-08-11T08:02:41.113Z</time>
      </trkpt>
      <trkpt lat="38.010492" lon="-4.367453">
        <ele>245.953920</ele>
        <time>2020-08-11T08:02:42.118Z</time>
      </trkpt>
      <trkpt lat="38.010548" lon="-4.367557">
        <ele>245.177764</ele>
        <time>2020-08-11T08:02:43.132Z</time>
      </trkpt>
      <trkpt lat="38.010596" lon="-4.367674">
        <ele>244.364986</ele>
        <time>2020-08-11T08:02:44.132Z</time>
      </trkpt>
      <trkpt lat="38.010736" lon="-4.367729">
        <ele>243.218899</ele>
        <time>2020-08-11T08:02:45.125Z</time>
      </trkpt>
      <trkpt lat="38.010812" lon="-4.367806">
        <ele>242.458415</ele>
        <time>2020-08-11T08:02:46.116Z</time>
      </trkpt>
      <trkpt lat="38.010883" lon="-4.367895">
        <ele>241.678025</ele>
        <time>2020-08-11T08:02:47.117Z</time>
      </trkpt>
      <trkpt lat="38.010968" lon="-4.367984">
        <ele>240.816296</ele>
        <time>2020-08-11T08:02:48.122Z</time>
      </trkpt>
      <trkpt lat="38.011109" lon="-4.367959">
        <ele>239.702929</ele>
        <time>2020-08-11T08:02:49.119Z</time>
      </trkpt>
      <trkpt lat="38.011218" lon="-4.367953">
        <ele>238.849718</ele>
        <time>2020-08-11T08:02:50.114Z</time>
      </trkpt>
      <trkpt lat="38.011312" lon="-4.367976">
        <ele>238.101076</ele>
        <time>2020-08-11T08:02:51.114Z</time>
      </trkpt>
      <trkpt lat="38.011416" lon="-4.367999">
        <ele>237.275513</ele>
        <time>2020-08-11T08:02:52.119Z</time>
      </trkpt>
      <trkpt lat="38.011499" lon="-4.368059">
        <ele>236.528532</ele>
        <time>2020-08-11T08:02:53.119Z</time>
      </trkpt>
      <trkpt lat="38.011600" lon="-4.368256">
        <ele>235.635426</ele>
        <time>2020-08-11T08:02:55.114Z</time>
      </trkpt>
      <trkpt lat="38.011630" lon="-4.368369">
        <ele>235.748472</ele>
        <time>2020-08-11T08:02:56.123Z</time>
      </trkpt>
      <trkpt lat="38.011653" lon="-4.368585">
        <ele>235.955108</ele>
        <time>2020-08-11T08:02:58.127Z</time>
      </trkpt>
      <trkpt lat="38.011643" lon="-4.368772">
        <ele>236.132798</ele>
        <time>2020-08-11T08:03:00.113Z</time>
      </trkpt>
      <trkpt lat="38.011638" lon="-4.368926">
        <ele>236.278919</ele>
        <time>2020-08-11T08:03:02.113Z</time>
      </trkpt>
      <trkpt lat="38.011619" lon="-4.369082">
        <ele>236.428569</ele>
        <time>2020-08-11T08:03:04.125Z</time>
      </trkpt>
      <trkpt lat="38.011706" lon="-4.369255">
        <ele>236.623139</ele>
        <time>2020-08-11T08:03:06.118Z</time>
      </trkpt>
      <trkpt lat="38.011768" lon="-4.369414">
        <ele>236.791327</ele>
        <time>2020-08-11T08:03:08.107Z</time>
      </trkpt>
      <trkpt lat="38.011782" lon="-4.369584">
        <ele>236.953370</ele>
        <time>2020-08-11T08:03:10.111Z</time>
      </trkpt>
      <trkpt lat="38.011837" lon="-4.369737">
        <ele>237.112803</ele>
        <time>2020-08-11T08:03:12.112Z</time>
      </trkpt>
      <trkpt lat="38.011887" lon="-4.369912">
        <ele>237.289280</ele>
        <time>2020-08-11T08:03:14.108Z</time>
      </trkpt>
      <trkpt lat="38.011909" lon="-4.370129">
        <ele>237.496698</ele>
        <time>2020-08-11T08:03:16.122Z</time>
      </trkpt>
      <trkpt lat="38.011942" lon="-4.370334">
        <ele>237.695059</ele>
        <time>2020-08-11T08:03:18.116Z</time>
      </trkpt>
      <trkpt lat="38.011949" lon="-4.370459">
        <ele>237.481866</ele>
        <time>2020-08-11T08:03:19.112Z</time>
      </trkpt>
      <trkpt lat="38.011971" lon="-4.370598">
        <ele>237.110432</ele>
        <time>2020-08-11T08:03:20.113Z</time>
      </trkpt>
      <trkpt lat="38.011975" lon="-4.370725">
        <ele>236.777446</ele>
        <time>2020-08-11T08:03:21.126Z</time>
      </trkpt>
      <trkpt lat="38.011979" lon="-4.370842">
        <ele>236.470635</ele>
        <time>2020-08-11T08:03:22.118Z</time>
      </trkpt>
      <trkpt lat="38.011985" lon="-4.370956">
        <ele>236.171307</ele>
        <time>2020-08-11T08:03:23.110Z</time>
      </trkpt>
      <trkpt lat="38.011971" lon="-4.371180">
        <ele>235.582617</ele>
        <time>2020-08-11T08:03:25.126Z</time>
      </trkpt>
      <trkpt lat="38.011969" lon="-4.371297">
        <ele>235.276023</ele>
        <time>2020-08-11T08:03:26.115Z</time>
      </trkpt>
      <trkpt lat="38.011941" lon="-4.371516">
        <ele>234.694770</ele>
        <time>2020-08-11T08:03:28.124Z</time>
      </trkpt>
      <trkpt lat="38.011943" lon="-4.371735">
        <ele>234.120985</ele>
        <time>2020-08-11T08:03:30.113Z</time>
      </trkpt>
      <trkpt lat="38.011892" lon="-4.371921">
        <ele>233.605027</ele>
        <time>2020-08-11T08:03:32.133Z</time>
      </trkpt>
      <trkpt lat="38.011968" lon="-4.371987">
        <ele>233.298821</ele>
        <time>2020-08-11T08:03:33.115Z</time>
      </trkpt>
      <trkpt lat="38.011936" lon="-4.372142">
        <ele>232.879035</ele>
        <time>2020-08-11T08:03:35.118Z</time>
      </trkpt>
      <trkpt lat="38.011892" lon="-4.372312">
        <ele>232.410244</ele>
        <time>2020-08-11T08:03:37.117Z</time>
      </trkpt>
      <trkpt lat="38.011806" lon="-4.372481">
        <ele>231.883169</ele>
        <time>2020-08-11T08:03:39.124Z</time>
      </trkpt>
      <trkpt lat="38.011749" lon="-4.372575">
        <ele>231.726498</ele>
        <time>2020-08-11T08:03:40.124Z</time>
      </trkpt>
      <trkpt lat="38.011671" lon="-4.372784">
        <ele>231.662060</ele>
        <time>2020-08-11T08:03:42.118Z</time>
      </trkpt>
      <trkpt lat="38.011589" lon="-4.372875">
        <ele>231.623539</ele>
        <time>2020-08-11T08:03:43.110Z</time>
      </trkpt>
      <trkpt lat="38.011535" lon="-4.372967">
        <ele>231.591573</ele>
        <time>2020-08-11T08:03:44.119Z</time>
      </trkpt>
      <trkpt lat="38.011458" lon="-4.373114">
        <ele>231.542387</ele>
        <time>2020-08-11T08:03:46.118Z</time>
      </trkpt>
      <trkpt lat="38.011366" lon="-4.373272">
        <ele>231.487645</ele>
        <time>2020-08-11T08:03:48.114Z</time>
      </trkpt>
      <trkpt lat="38.011267" lon="-4.373423">
        <ele>231.432909</ele>
        <time>2020-08-11T08:03:50.113Z</time>
      </trkpt>
      <trkpt lat="38.011201" lon="-4.373517">
        <ele>231.397826</ele>
        <time>2020-08-11T08:03:51.109Z</time>
      </trkpt>
      <trkpt lat="38.011101" lon="-4.373694">
        <ele>231.337138</ele>
        <time>2020-08-11T08:03:53.123Z</time>
      </trkpt>
      <trkpt lat="38.011040" lon="-4.373788">
        <ele>231.303206</ele>
        <time>2020-08-11T08:03:54.121Z</time>
      </trkpt>
      <trkpt lat="38.010944" lon="-4.373950">
        <ele>231.246724</ele>
        <time>2020-08-11T08:03:56.115Z</time>
      </trkpt>
      <trkpt lat="38.010878" lon="-4.374077">
        <ele>231.204333</ele>
        <time>2020-08-11T08:03:58.124Z</time>
      </trkpt>
      <trkpt lat="38.010878" lon="-4.374206">
        <ele>231.168388</ele>
        <time>2020-08-11T08:04:01.120Z</time>
      </trkpt>
      <trkpt lat="38.010999" lon="-4.374299">
        <ele>231.118362</ele>
        <time>2020-08-11T08:04:03.111Z</time>
      </trkpt>
      <trkpt lat="38.011131" lon="-4.374318">
        <ele>231.027239</ele>
        <time>2020-08-11T08:04:05.112Z</time>
      </trkpt>
      <trkpt lat="38.011277" lon="-4.374252">
        <ele>230.907679</ele>
        <time>2020-08-11T08:04:07.113Z</time>
      </trkpt>
      <trkpt lat="38.011359" lon="-4.374189">
        <ele>230.833734</ele>
        <time>2020-08-11T08:04:08.113Z</time>
      </trkpt>
      <trkpt lat="38.011432" lon="-4.374091">
        <ele>230.751763</ele>
        <time>2020-08-11T08:04:09.119Z</time>
      </trkpt>
      <trkpt lat="38.011512" lon="-4.374017">
        <ele>230.675397</ele>
        <time>2020-08-11T08:04:10.126Z</time>
      </trkpt>
      <trkpt lat="38.011590" lon="-4.373947">
        <ele>230.601703</ele>
        <time>2020-08-11T08:04:11.124Z</time>
      </trkpt>
      <trkpt lat="38.011746" lon="-4.373878">
        <ele>230.474260</ele>
        <time>2020-08-11T08:04:13.113Z</time>
      </trkpt>
      <trkpt lat="38.011838" lon="-4.373862">
        <ele>230.402625</ele>
        <time>2020-08-11T08:04:14.133Z</time>
      </trkpt>
      <trkpt lat="38.011936" lon="-4.373854">
        <ele>230.326868</ele>
        <time>2020-08-11T08:04:15.113Z</time>
      </trkpt>
      <trkpt lat="38.012033" lon="-4.373855">
        <ele>230.252036</ele>
        <time>2020-08-11T08:04:16.120Z</time>
      </trkpt>
      <trkpt lat="38.012203" lon="-4.373950">
        <ele>230.108744</ele>
        <time>2020-08-11T08:04:18.115Z</time>
      </trkpt>
      <trkpt lat="38.012288" lon="-4.374035">
        <ele>230.025265</ele>
        <time>2020-08-11T08:04:19.105Z</time>
      </trkpt>
      <trkpt lat="38.012361" lon="-4.374136">
        <ele>229.941959</ele>
        <time>2020-08-11T08:04:20.111Z</time>
      </trkpt>
      <trkpt lat="38.012445" lon="-4.374233">
        <ele>229.854352</ele>
        <time>2020-08-11T08:04:21.109Z</time>
      </trkpt>
      <trkpt lat="38.012505" lon="-4.374322">
        <ele>229.783158</ele>
        <time>2020-08-11T08:04:22.116Z</time>
      </trkpt>
      <trkpt lat="38.012630" lon="-4.374486">
        <ele>229.676317</ele>
        <time>2020-08-11T08:04:24.115Z</time>
      </trkpt>
      <trkpt lat="38.012737" lon="-4.374641">
        <ele>229.603044</ele>
        <time>2020-08-11T08:04:26.111Z</time>
      </trkpt>
      <trkpt lat="38.012850" lon="-4.374786">
        <ele>229.530529</ele>
        <time>2020-08-11T08:04:28.113Z</time>
      </trkpt>
      <trkpt lat="38.012992" lon="-4.374855">
        <ele>229.461911</ele>
        <time>2020-08-11T08:04:30.114Z</time>
      </trkpt>
      <trkpt lat="38.013122" lon="-4.374877">
        <ele>229.402725</ele>
        <time>2020-08-11T08:04:32.126Z</time>
      </trkpt>
      <trkpt lat="38.013226" lon="-4.374916">
        <ele>229.353786</ele>
        <time>2020-08-11T08:04:34.123Z</time>
      </trkpt>
      <trkpt lat="38.013333" lon="-4.374972">
        <ele>229.301554</ele>
        <time>2020-08-11T08:04:37.116Z</time>
      </trkpt>
      <trkpt lat="38.013432" lon="-4.375010">
        <ele>229.254879</ele>
        <time>2020-08-11T08:04:41.114Z</time>
      </trkpt>
      <trkpt lat="38.013523" lon="-4.375083">
        <ele>229.206297</ele>
        <time>2020-08-11T08:04:45.114Z</time>
      </trkpt>
      <trkpt lat="38.013598" lon="-4.375150">
        <ele>229.164908</ele>
        <time>2020-08-11T08:04:49.113Z</time>
      </trkpt>
      <trkpt lat="38.013679" lon="-4.375207">
        <ele>229.123112</ele>
        <time>2020-08-11T08:04:53.124Z</time>
      </trkpt>
      <trkpt lat="38.013782" lon="-4.375243">
        <ele>229.074900</ele>
        <time>2020-08-11T08:04:57.139Z</time>
      </trkpt>
      <trkpt lat="38.013865" lon="-4.375300">
        <ele>229.032312</ele>
        <time>2020-08-11T08:05:01.118Z</time>
      </trkpt>
      <trkpt lat="38.013950" lon="-4.375370">
        <ele>228.986586</ele>
        <time>2020-08-11T08:05:06.132Z</time>
      </trkpt>
      <trkpt lat="38.014032" lon="-4.375447">
        <ele>228.940555</ele>
        <time>2020-08-11T08:05:11.129Z</time>
      </trkpt>
      <trkpt lat="38.014115" lon="-4.375520">
        <ele>228.909509</ele>
        <time>2020-08-11T08:05:16.124Z</time>
      </trkpt>
      <trkpt lat="38.014195" lon="-4.375608">
        <ele>228.909509</ele>
        <time>2020-08-11T08:05:21.112Z</time>
      </trkpt>
      <trkpt lat="38.014276" lon="-4.375694">
        <ele>228.909509</ele>
        <time>2020-08-11T08:05:26.129Z</time>
      </trkpt>
      <trkpt lat="38.014354" lon="-4.375755">
        <ele>228.909509</ele>
        <time>2020-08-11T08:05:31.115Z</time>
      </trkpt>
      <trkpt lat="38.014434" lon="-4.375848">
        <ele>228.909509</ele>
        <time>2020-08-11T08:05:36.112Z</time>
      </trkpt>
      <trkpt lat="38.014449" lon="-4.375962">
        <ele>228.909509</ele>
        <time>2020-08-11T08:05:40.116Z</time>
      </trkpt>
      <trkpt lat="38.014505" lon="-4.376082">
        <ele>228.909509</ele>
        <time>2020-08-11T08:05:45.123Z</time>
      </trkpt>
      <trkpt lat="38.014555" lon="-4.376200">
        <ele>228.909509</ele>
        <time>2020-08-11T08:05:50.115Z</time>
      </trkpt>
      <trkpt lat="38.014609" lon="-4.376308">
        <ele>228.909509</ele>
        <time>2020-08-11T08:05:54.116Z</time>
      </trkpt>
      <trkpt lat="38.014622" lon="-4.376430">
        <ele>228.909509</ele>
        <time>2020-08-11T08:06:05.124Z</time>
      </trkpt>
      <trkpt lat="38.014671" lon="-4.376527">
        <ele>228.909509</ele>
        <time>2020-08-11T08:06:15.123Z</time>
      </trkpt>
      <trkpt lat="38.014736" lon="-4.376612">
        <ele>228.909509</ele>
        <time>2020-08-11T08:06:24.111Z</time>
      </trkpt>
      <trkpt lat="38.014818" lon="-4.376676">
        <ele>228.909509</ele>
        <time>2020-08-11T08:06:33.129Z</time>
      </trkpt>
      <trkpt lat="38.014853" lon="-4.376783">
        <ele>228.909509</ele>
        <time>2020-08-11T08:06:41.115Z</time>
      </trkpt>
      <trkpt lat="38.014910" lon="-4.376888">
        <ele>228.909509</ele>
        <time>2020-08-11T08:06:48.124Z</time>
      </trkpt>
      <trkpt lat="38.014913" lon="-4.377006">
        <ele>228.909509</ele>
        <time>2020-08-11T08:06:55.132Z</time>
      </trkpt>
      <trkpt lat="38.014993" lon="-4.377089">
        <ele>228.909509</ele>
        <time>2020-08-11T08:07:07.122Z</time>
      </trkpt>
      <trkpt lat="38.015085" lon="-4.377102">
        <ele>228.909509</ele>
        <time>2020-08-11T08:07:13.114Z</time>
      </trkpt>
      <trkpt lat="38.015120" lon="-4.377210">
        <ele>228.909509</ele>
        <time>2020-08-11T08:07:21.119Z</time>
      </trkpt>
      <trkpt lat="38.015177" lon="-4.377316">
        <ele>228.909509</ele>
        <time>2020-08-11T08:07:30.125Z</time>
      </trkpt>
      <trkpt lat="38.015167" lon="-4.377436">
        <ele>228.909509</ele>
        <time>2020-08-11T08:07:37.124Z</time>
      </trkpt>
      <trkpt lat="38.015182" lon="-4.377508">
        <ele>228.909509</ele>
        <time>2020-08-11T08:07:49.918Z</time>
      </trkpt>
      <trkpt lat="38.023553" lon="-4.382517">
        <ele>230.110288</ele>
        <time>2020-08-12T05:31:48.199Z</time>
      </trkpt>
      <trkpt lat="38.023651" lon="-4.382531">
        <ele>230.110288</ele>
        <time>2020-08-12T05:31:54.197Z</time>
      </trkpt>
      <trkpt lat="38.023734" lon="-4.382587">
        <ele>230.110288</ele>
        <time>2020-08-12T05:32:30.209Z</time>
      </trkpt>
      <trkpt lat="38.024905" lon="-4.381485">
        <ele>224.627430</ele>
        <time>2020-08-12T05:44:26.208Z</time>
      </trkpt>
      <trkpt lat="38.024792" lon="-4.381481">
        <ele>223.802098</ele>
        <time>2020-08-12T05:44:29.204Z</time>
      </trkpt>
      <trkpt lat="38.024749" lon="-4.381620">
        <ele>222.943231</ele>
        <time>2020-08-12T05:44:32.207Z</time>
      </trkpt>
      <trkpt lat="38.024669" lon="-4.381688">
        <ele>222.240309</ele>
        <time>2020-08-12T05:44:35.212Z</time>
      </trkpt>
      <trkpt lat="38.024565" lon="-4.381713">
        <ele>221.467512</ele>
        <time>2020-08-12T05:44:38.202Z</time>
      </trkpt>
      <trkpt lat="38.024451" lon="-4.381679">
        <ele>220.612537</ele>
        <time>2020-08-12T05:44:41.208Z</time>
      </trkpt>
      <trkpt lat="38.024362" lon="-4.381615">
        <ele>219.865736</ele>
        <time>2020-08-12T05:44:44.199Z</time>
      </trkpt>
      <trkpt lat="38.024262" lon="-4.381601">
        <ele>219.131211</ele>
        <time>2020-08-12T05:44:48.204Z</time>
      </trkpt>
      <trkpt lat="38.024155" lon="-4.381636">
        <ele>218.324487</ele>
        <time>2020-08-12T05:44:54.198Z</time>
      </trkpt>
      <trkpt lat="38.024029" lon="-4.381638">
        <ele>217.404491</ele>
        <time>2020-08-12T05:45:03.191Z</time>
      </trkpt>
      <trkpt lat="38.023949" lon="-4.381694">
        <ele>216.950674</ele>
        <time>2020-08-12T05:45:08.189Z</time>
      </trkpt>
      <trkpt lat="38.023851" lon="-4.381726">
        <ele>216.865612</ele>
        <time>2020-08-12T05:45:12.202Z</time>
      </trkpt>
      <trkpt lat="38.023750" lon="-4.381794">
        <ele>216.769506</ele>
        <time>2020-08-12T05:45:16.203Z</time>
      </trkpt>
      <trkpt lat="38.023632" lon="-4.381823">
        <ele>216.668471</ele>
        <time>2020-08-12T05:45:19.209Z</time>
      </trkpt>
      <trkpt lat="38.023524" lon="-4.381861">
        <ele>216.574260</ele>
        <time>2020-08-12T05:45:22.209Z</time>
      </trkpt>
      <trkpt lat="38.023419" lon="-4.381901">
        <ele>216.482106</ele>
        <time>2020-08-12T05:45:25.202Z</time>
      </trkpt>
      <trkpt lat="38.023324" lon="-4.381941">
        <ele>216.397968</ele>
        <time>2020-08-12T05:45:29.203Z</time>
      </trkpt>
      <trkpt lat="38.023251" lon="-4.382010">
        <ele>216.321460</ele>
        <time>2020-08-12T05:45:32.209Z</time>
      </trkpt>
      <trkpt lat="38.023165" lon="-4.382043">
        <ele>216.245935</ele>
        <time>2020-08-12T05:45:37.210Z</time>
      </trkpt>
      <trkpt lat="38.023050" lon="-4.382067">
        <ele>216.147966</ele>
        <time>2020-08-12T05:45:41.213Z</time>
      </trkpt>
      <trkpt lat="38.022962" lon="-4.382103">
        <ele>216.070244</ele>
        <time>2020-08-12T05:45:44.208Z</time>
      </trkpt>
      <trkpt lat="38.022893" lon="-4.382185">
        <ele>215.990790</ele>
        <time>2020-08-12T05:45:48.210Z</time>
      </trkpt>
      <trkpt lat="38.022796" lon="-4.382222">
        <ele>215.905648</ele>
        <time>2020-08-12T05:45:51.211Z</time>
      </trkpt>
      <trkpt lat="38.022699" lon="-4.382263">
        <ele>215.819706</ele>
        <time>2020-08-12T05:45:54.205Z</time>
      </trkpt>
      <trkpt lat="38.022581" lon="-4.382274">
        <ele>215.720245</ele>
        <time>2020-08-12T05:45:58.207Z</time>
      </trkpt>
      <trkpt lat="38.022475" lon="-4.382302">
        <ele>215.629230</ele>
        <time>2020-08-12T05:46:02.200Z</time>
      </trkpt>
      <trkpt lat="38.009662" lon="-4.380190">
        <ele>268.607034</ele>
        <time>2020-08-12T05:57:56.826Z</time>
      </trkpt>
      <trkpt lat="38.009740" lon="-4.380132">
        <ele>268.599690</ele>
        <time>2020-08-12T05:58:06.188Z</time>
      </trkpt>
      <trkpt lat="38.009412" lon="-4.380110">
        <ele>268.573009</ele>
        <time>2020-08-12T05:58:34.199Z</time>
      </trkpt>
      <trkpt lat="38.009293" lon="-4.380123">
        <ele>268.563306</ele>
        <time>2020-08-12T05:58:36.200Z</time>
      </trkpt>
      <trkpt lat="38.009177" lon="-4.380123">
        <ele>268.553883</ele>
        <time>2020-08-12T05:58:38.185Z</time>
      </trkpt>
      <trkpt lat="38.009055" lon="-4.380124">
        <ele>268.543972</ele>
        <time>2020-08-12T05:58:40.194Z</time>
      </trkpt>
      <trkpt lat="38.008947" lon="-4.380136">
        <ele>268.535165</ele>
        <time>2020-08-12T05:58:42.209Z</time>
      </trkpt>
      <trkpt lat="38.008850" lon="-4.380133">
        <ele>268.527283</ele>
        <time>2020-08-12T05:58:44.196Z</time>
      </trkpt>
      <trkpt lat="38.008755" lon="-4.380203">
        <ele>268.518360</ele>
        <time>2020-08-12T05:58:46.210Z</time>
      </trkpt>
      <trkpt lat="38.008653" lon="-4.380225">
        <ele>268.509955</ele>
        <time>2020-08-12T05:58:48.197Z</time>
      </trkpt>
      <trkpt lat="38.008564" lon="-4.380245">
        <ele>268.502613</ele>
        <time>2020-08-12T05:58:50.206Z</time>
      </trkpt>
      <trkpt lat="38.008453" lon="-4.380234">
        <ele>268.493568</ele>
        <time>2020-08-12T05:58:52.199Z</time>
      </trkpt>
      <trkpt lat="38.008324" lon="-4.380260">
        <ele>268.482958</ele>
        <time>2020-08-12T05:58:55.207Z</time>
      </trkpt>
      <trkpt lat="38.008205" lon="-4.380241">
        <ele>268.473215</ele>
        <time>2020-08-12T05:58:57.205Z</time>
      </trkpt>
      <trkpt lat="38.008095" lon="-4.380249">
        <ele>268.367552</ele>
        <time>2020-08-12T05:58:59.208Z</time>
      </trkpt>
      <trkpt lat="38.007851" lon="-4.380155">
        <ele>268.088033</ele>
        <time>2020-08-12T05:59:04.185Z</time>
      </trkpt>
      <trkpt lat="38.007735" lon="-4.379991">
        <ele>267.897683</ele>
        <time>2020-08-12T05:59:06.190Z</time>
      </trkpt>
      <trkpt lat="38.007644" lon="-4.379921">
        <ele>267.781039</ele>
        <time>2020-08-12T05:59:08.209Z</time>
      </trkpt>
      <trkpt lat="38.007502" lon="-4.379867">
        <ele>267.618544</ele>
        <time>2020-08-12T05:59:10.203Z</time>
      </trkpt>
      <trkpt lat="38.007392" lon="-4.379852">
        <ele>267.497271</ele>
        <time>2020-08-12T05:59:12.205Z</time>
      </trkpt>
      <trkpt lat="38.007236" lon="-4.379827">
        <ele>267.324909</ele>
        <time>2020-08-12T05:59:14.207Z</time>
      </trkpt>
      <trkpt lat="38.007061" lon="-4.379835">
        <ele>267.132953</ele>
        <time>2020-08-12T05:59:16.205Z</time>
      </trkpt>
      <trkpt lat="38.006903" lon="-4.379806">
        <ele>266.957955</ele>
        <time>2020-08-12T05:59:18.195Z</time>
      </trkpt>
      <trkpt lat="38.006731" lon="-4.379789">
        <ele>266.768841</ele>
        <time>2020-08-12T05:59:20.196Z</time>
      </trkpt>
      <trkpt lat="38.006630" lon="-4.379785">
        <ele>266.658073</ele>
        <time>2020-08-12T05:59:21.204Z</time>
      </trkpt>
      <trkpt lat="38.006535" lon="-4.379792">
        <ele>266.553761</ele>
        <time>2020-08-12T05:59:22.203Z</time>
      </trkpt>
      <trkpt lat="38.006444" lon="-4.379768">
        <ele>266.467786</ele>
        <time>2020-08-12T05:59:23.191Z</time>
      </trkpt>
      <trkpt lat="38.006347" lon="-4.379753">
        <ele>266.395810</ele>
        <time>2020-08-12T05:59:24.198Z</time>
      </trkpt>
      <trkpt lat="38.006164" lon="-4.379756">
        <ele>266.261006</ele>
        <time>2020-08-12T05:59:26.205Z</time>
      </trkpt>
      <trkpt lat="38.006039" lon="-4.379762">
        <ele>266.168869</ele>
        <time>2020-08-12T05:59:27.181Z</time>
      </trkpt>
      <trkpt lat="38.005840" lon="-4.379711">
        <ele>266.019333</ele>
        <time>2020-08-12T05:59:29.200Z</time>
      </trkpt>
      <trkpt lat="38.005743" lon="-4.379693">
        <ele>265.947126</ele>
        <time>2020-08-12T05:59:30.200Z</time>
      </trkpt>
      <trkpt lat="38.004355" lon="-4.379742">
        <ele>265.247796</ele>
        <time>2020-08-12T05:59:44.204Z</time>
      </trkpt>
      <trkpt lat="38.004267" lon="-4.379672">
        <ele>265.269801</ele>
        <time>2020-08-12T05:59:45.194Z</time>
      </trkpt>
      <trkpt lat="38.004170" lon="-4.379688">
        <ele>265.290527</ele>
        <time>2020-08-12T05:59:46.184Z</time>
      </trkpt>
      <trkpt lat="38.003995" lon="-4.379694">
        <ele>265.327621</ele>
        <time>2020-08-12T05:59:48.184Z</time>
      </trkpt>
      <trkpt lat="37.996369" lon="-4.382041">
        <ele>267.055987</ele>
        <time>2020-08-12T06:02:46.205Z</time>
      </trkpt>
      <trkpt lat="37.996050" lon="-4.381428">
        <ele>266.523123</ele>
        <time>2020-08-12T06:02:47.207Z</time>
      </trkpt>
      <trkpt lat="37.996466" lon="-4.382101">
        <ele>263.637709</ele>
        <time>2020-08-12T06:02:48.190Z</time>
      </trkpt>
      <trkpt lat="37.996438" lon="-4.381983">
        <ele>263.221989</ele>
        <time>2020-08-12T06:02:51.195Z</time>
      </trkpt>
      <trkpt lat="37.996250" lon="-4.381788">
        <ele>262.182565</ele>
        <time>2020-08-12T06:02:52.185Z</time>
      </trkpt>
      <trkpt lat="37.996355" lon="-4.381701">
        <ele>261.645753</ele>
        <time>2020-08-12T06:03:45.181Z</time>
      </trkpt>
      <trkpt lat="37.996067" lon="-4.381739">
        <ele>260.406251</ele>
        <time>2020-08-12T06:04:37.208Z</time>
      </trkpt>
      <trkpt lat="37.995927" lon="-4.381665">
        <ele>259.757033</ele>
        <time>2020-08-12T06:04:39.197Z</time>
      </trkpt>
      <trkpt lat="37.995819" lon="-4.381612">
        <ele>259.449424</ele>
        <time>2020-08-12T06:04:41.203Z</time>
      </trkpt>
      <trkpt lat="37.995729" lon="-4.381611">
        <ele>259.415197</ele>
        <time>2020-08-12T06:04:43.204Z</time>
      </trkpt>
      <trkpt lat="37.995639" lon="-4.381586">
        <ele>259.380162</ele>
        <time>2020-08-12T06:04:45.204Z</time>
      </trkpt>
      <trkpt lat="37.995543" lon="-4.381566">
        <ele>259.343166</ele>
        <time>2020-08-12T06:04:47.207Z</time>
      </trkpt>
      <trkpt lat="37.995438" lon="-4.381569">
        <ele>259.303227</ele>
        <time>2020-08-12T06:04:49.197Z</time>
      </trkpt>
      <trkpt lat="37.995338" lon="-4.381560">
        <ele>259.265103</ele>
        <time>2020-08-12T06:04:51.211Z</time>
      </trkpt>
      <trkpt lat="37.995248" lon="-4.381530">
        <ele>259.229717</ele>
        <time>2020-08-12T06:04:53.204Z</time>
      </trkpt>
      <trkpt lat="37.995116" lon="-4.381507">
        <ele>259.179049</ele>
        <time>2020-08-12T06:04:56.194Z</time>
      </trkpt>
      <trkpt lat="37.994989" lon="-4.381487">
        <ele>259.130383</ele>
        <time>2020-08-12T06:04:59.198Z</time>
      </trkpt>
      <trkpt lat="37.994885" lon="-4.381479">
        <ele>259.090761</ele>
        <time>2020-08-12T06:05:01.191Z</time>
      </trkpt>
      <trkpt lat="37.994785" lon="-4.381461">
        <ele>259.052353</ele>
        <time>2020-08-12T06:05:03.197Z</time>
      </trkpt>
      <trkpt lat="37.994691" lon="-4.381447">
        <ele>259.016361</ele>
        <time>2020-08-12T06:05:05.202Z</time>
      </trkpt>
      <trkpt lat="37.994592" lon="-4.381432">
        <ele>258.978446</ele>
        <time>2020-08-12T06:05:07.203Z</time>
      </trkpt>
      <trkpt lat="37.994481" lon="-4.381502">
        <ele>258.931309</ele>
        <time>2020-08-12T06:05:09.189Z</time>
      </trkpt>
      <trkpt lat="37.988946" lon="-4.382517">
        <ele>266.056615</ele>
        <time>2020-08-12T06:07:53.260Z</time>
      </trkpt>
      <trkpt lat="37.988853" lon="-4.382506">
        <ele>266.191506</ele>
        <time>2020-08-12T06:07:58.184Z</time>
      </trkpt>
      <trkpt lat="37.988757" lon="-4.382457">
        <ele>266.335807</ele>
        <time>2020-08-12T06:08:01.192Z</time>
      </trkpt>
      <trkpt lat="37.988654" lon="-4.382409">
        <ele>266.391534</ele>
        <time>2020-08-12T06:08:04.188Z</time>
      </trkpt>
      <trkpt lat="37.988542" lon="-4.382379">
        <ele>266.449668</ele>
        <time>2020-08-12T06:08:07.208Z</time>
      </trkpt>
      <trkpt lat="37.988427" lon="-4.382324">
        <ele>266.512083</ele>
        <time>2020-08-12T06:08:10.203Z</time>
      </trkpt>
      <trkpt lat="37.988335" lon="-4.382248">
        <ele>266.567837</ele>
        <time>2020-08-12T06:08:13.192Z</time>
      </trkpt>
      <trkpt lat="37.988231" lon="-4.382211">
        <ele>266.622691</ele>
        <time>2020-08-12T06:08:17.183Z</time>
      </trkpt>
      <trkpt lat="37.988292" lon="-4.382428">
        <ele>266.714908</ele>
        <time>2020-08-12T06:08:18.189Z</time>
      </trkpt>
      <trkpt lat="37.988061" lon="-4.382310">
        <ele>266.841375</ele>
        <time>2020-08-12T06:08:25.206Z</time>
      </trkpt>
      <trkpt lat="37.987980" lon="-4.382225">
        <ele>266.894758</ele>
        <time>2020-08-12T06:08:28.214Z</time>
      </trkpt>
      <trkpt lat="37.987859" lon="-4.382171">
        <ele>266.959900</ele>
        <time>2020-08-12T06:08:31.202Z</time>
      </trkpt>
      <trkpt lat="37.987747" lon="-4.382188">
        <ele>267.017186</ele>
        <time>2020-08-12T06:08:36.200Z</time>
      </trkpt>
      <trkpt lat="37.987631" lon="-4.382141">
        <ele>267.079029</ele>
        <time>2020-08-12T06:08:39.208Z</time>
      </trkpt>
      <trkpt lat="37.987513" lon="-4.382096">
        <ele>267.141605</ele>
        <time>2020-08-12T06:08:42.202Z</time>
      </trkpt>
      <trkpt lat="37.987392" lon="-4.382057">
        <ele>267.205008</ele>
        <time>2020-08-12T06:08:45.200Z</time>
      </trkpt>
      <trkpt lat="37.987286" lon="-4.382018">
        <ele>267.254250</ele>
        <time>2020-08-12T06:08:48.206Z</time>
      </trkpt>
      <trkpt lat="37.987183" lon="-4.382007">
        <ele>267.282221</ele>
        <time>2020-08-12T06:08:51.205Z</time>
      </trkpt>
      <trkpt lat="37.987079" lon="-4.381987">
        <ele>267.310687</ele>
        <time>2020-08-12T06:08:54.208Z</time>
      </trkpt>
      <trkpt lat="37.986987" lon="-4.381985">
        <ele>267.335587</ele>
        <time>2020-08-12T06:08:57.210Z</time>
      </trkpt>
      <trkpt lat="37.986879" lon="-4.381987">
        <ele>267.364816</ele>
        <time>2020-08-12T06:09:00.210Z</time>
      </trkpt>
      <trkpt lat="37.986773" lon="-4.381997">
        <ele>267.393580</ele>
        <time>2020-08-12T06:09:03.199Z</time>
      </trkpt>
      <trkpt lat="37.986680" lon="-4.382032">
        <ele>267.419831</ele>
        <time>2020-08-12T06:09:07.203Z</time>
      </trkpt>
      <trkpt lat="37.986572" lon="-4.382008">
        <ele>267.449502</ele>
        <time>2020-08-12T06:09:10.208Z</time>
      </trkpt>
      <trkpt lat="37.986475" lon="-4.381974">
        <ele>267.476735</ele>
        <time>2020-08-12T06:09:13.188Z</time>
      </trkpt>
      <trkpt lat="37.986372" lon="-4.381952">
        <ele>267.505000</ele>
        <time>2020-08-12T06:09:16.203Z</time>
      </trkpt>
      <trkpt lat="37.986268" lon="-4.381951">
        <ele>267.533145</ele>
        <time>2020-08-12T06:09:20.208Z</time>
      </trkpt>
      <trkpt lat="37.986173" lon="-4.381933">
        <ele>267.559138</ele>
        <time>2020-08-12T06:09:23.203Z</time>
      </trkpt>
      <trkpt lat="37.986062" lon="-4.381912">
        <ele>267.589508</ele>
        <time>2020-08-12T06:09:26.205Z</time>
      </trkpt>
      <trkpt lat="37.985965" lon="-4.381881">
        <ele>267.616578</ele>
        <time>2020-08-12T06:09:29.208Z</time>
      </trkpt>
      <trkpt lat="37.985871" lon="-4.381844">
        <ele>267.643211</ele>
        <time>2020-08-12T06:09:32.200Z</time>
      </trkpt>
      <trkpt lat="37.985794" lon="-4.381783">
        <ele>267.667777</ele>
        <time>2020-08-12T06:09:34.200Z</time>
      </trkpt>
      <trkpt lat="37.985719" lon="-4.381710">
        <ele>267.693357</ele>
        <time>2020-08-12T06:09:36.197Z</time>
      </trkpt>
      <trkpt lat="37.985615" lon="-4.381608">
        <ele>267.728929</ele>
        <time>2020-08-12T06:09:39.198Z</time>
      </trkpt>
      <trkpt lat="37.985529" lon="-4.381547">
        <ele>267.774627</ele>
        <time>2020-08-12T06:09:42.209Z</time>
      </trkpt>
      <trkpt lat="37.985438" lon="-4.381510">
        <ele>267.822489</ele>
        <time>2020-08-12T06:09:45.202Z</time>
      </trkpt>
      <trkpt lat="37.985328" lon="-4.381444">
        <ele>267.883435</ele>
        <time>2020-08-12T06:09:48.203Z</time>
      </trkpt>
      <trkpt lat="37.985227" lon="-4.381410">
        <ele>267.935773</ele>
        <time>2020-08-12T06:09:51.200Z</time>
      </trkpt>
      <trkpt lat="37.985141" lon="-4.381373">
        <ele>267.981256</ele>
        <time>2020-08-12T06:09:54.194Z</time>
      </trkpt>
      <trkpt lat="37.985054" lon="-4.381311">
        <ele>268.031235</ele>
        <time>2020-08-12T06:09:57.188Z</time>
      </trkpt>
      <trkpt lat="37.984976" lon="-4.381241">
        <ele>268.079088</ele>
        <time>2020-08-12T06:10:00.187Z</time>
      </trkpt>
      <trkpt lat="37.984902" lon="-4.381155">
        <ele>268.129351</ele>
        <time>2020-08-12T06:10:03.208Z</time>
      </trkpt>
      <trkpt lat="37.984840" lon="-4.381056">
        <ele>268.179269</ele>
        <time>2020-08-12T06:10:05.196Z</time>
      </trkpt>
      <trkpt lat="37.984735" lon="-4.381032">
        <ele>268.232706</ele>
        <time>2020-08-12T06:10:06.208Z</time>
      </trkpt>
      <trkpt lat="37.984632" lon="-4.380990">
        <ele>268.286895</ele>
        <time>2020-08-12T06:10:08.185Z</time>
      </trkpt>
      <trkpt lat="37.984529" lon="-4.380846">
        <ele>268.363661</ele>
        <time>2020-08-12T06:10:10.200Z</time>
      </trkpt>
      <trkpt lat="37.984516" lon="-4.380730">
        <ele>268.409915</ele>
        <time>2020-08-12T06:10:15.191Z</time>
      </trkpt>
      <trkpt lat="37.984445" lon="-4.380649">
        <ele>268.457739</ele>
        <time>2020-08-12T06:10:17.208Z</time>
      </trkpt>
      <trkpt lat="37.984402" lon="-4.380542">
        <ele>268.505153</ele>
        <time>2020-08-12T06:10:18.188Z</time>
      </trkpt>
      <trkpt lat="37.984368" lon="-4.380406">
        <ele>268.561478</ele>
        <time>2020-08-12T06:10:21.186Z</time>
      </trkpt>
      <trkpt lat="37.984246" lon="-4.380288">
        <ele>268.634037</ele>
        <time>2020-08-12T06:10:23.197Z</time>
      </trkpt>
      <trkpt lat="37.984188" lon="-4.380137">
        <ele>268.633053</ele>
        <time>2020-08-12T06:10:25.188Z</time>
      </trkpt>
      <trkpt lat="37.984127" lon="-4.380004">
        <ele>268.632151</ele>
        <time>2020-08-12T06:10:27.187Z</time>
      </trkpt>
      <trkpt lat="37.984048" lon="-4.379912">
        <ele>268.631353</ele>
        <time>2020-08-12T06:10:29.207Z</time>
      </trkpt>
      <trkpt lat="37.983960" lon="-4.379816">
        <ele>268.630490</ele>
        <time>2020-08-12T06:10:32.197Z</time>
      </trkpt>
      <trkpt lat="37.983816" lon="-4.379619">
        <ele>268.628916</ele>
        <time>2020-08-12T06:16:10.785Z</time>
      </trkpt>
      <trkpt lat="37.970530" lon="-4.373275">
        <ele>274.560225</ele>
        <time>2020-08-12T06:17:08.218Z</time>
      </trkpt>
      <trkpt lat="37.970571" lon="-4.373403">
        <ele>275.642045</ele>
        <time>2020-08-12T06:17:10.192Z</time>
      </trkpt>
      <trkpt lat="37.970466" lon="-4.373382">
        <ele>276.697839</ele>
        <time>2020-08-12T06:17:28.208Z</time>
      </trkpt>
      <trkpt lat="37.970374" lon="-4.373332">
        <ele>277.691964</ele>
        <time>2020-08-12T06:17:32.191Z</time>
      </trkpt>
      <trkpt lat="37.970283" lon="-4.373341">
        <ele>278.598563</ele>
        <time>2020-08-12T06:17:35.191Z</time>
      </trkpt>
      <trkpt lat="37.970190" lon="-4.373325">
        <ele>279.530741</ele>
        <time>2020-08-12T06:17:38.207Z</time>
      </trkpt>
      <trkpt lat="37.970089" lon="-4.373287">
        <ele>280.577117</ele>
        <time>2020-08-12T06:17:42.210Z</time>
      </trkpt>
      <trkpt lat="37.969998" lon="-4.373221">
        <ele>281.618282</ele>
        <time>2020-08-12T06:17:46.205Z</time>
      </trkpt>
      <trkpt lat="37.969937" lon="-4.373094">
        <ele>282.782744</ele>
        <time>2020-08-12T06:17:51.194Z</time>
      </trkpt>
      <trkpt lat="37.969893" lon="-4.372963">
        <ele>283.897709</ele>
        <time>2020-08-12T06:17:55.206Z</time>
      </trkpt>
      <trkpt lat="37.969868" lon="-4.372835">
        <ele>284.930266</ele>
        <time>2020-08-12T06:17:58.209Z</time>
      </trkpt>
      <trkpt lat="37.969841" lon="-4.372682">
        <ele>286.157924</ele>
        <time>2020-08-12T06:18:02.206Z</time>
      </trkpt>
      <trkpt lat="37.969704" lon="-4.371828">
        <ele>289.070558</ele>
        <time>2020-08-12T06:18:23.256Z</time>
      </trkpt>
      <trkpt lat="37.969595" lon="-4.371806">
        <ele>289.395921</ele>
        <time>2020-08-12T06:18:26.205Z</time>
      </trkpt>
      <trkpt lat="37.966967" lon="-4.372175">
        <ele>295.769414</ele>
        <time>2020-08-12T06:21:53.192Z</time>
      </trkpt>
      <trkpt lat="37.966826" lon="-4.372164">
        <ele>296.053428</ele>
        <time>2020-08-12T06:22:31.196Z</time>
      </trkpt>
      <trkpt lat="37.966916" lon="-4.372160">
        <ele>296.234483</ele>
        <time>2020-08-12T06:22:33.191Z</time>
      </trkpt>
      <trkpt lat="37.965935" lon="-4.374191">
        <ele>292.994362</ele>
        <time>2020-08-12T06:25:13.241Z</time>
      </trkpt>
      <trkpt lat="37.965856" lon="-4.374246">
        <ele>293.540742</ele>
        <time>2020-08-12T06:25:20.178Z</time>
      </trkpt>
      <trkpt lat="37.965792" lon="-4.374363">
        <ele>294.221424</ele>
        <time>2020-08-12T06:25:24.191Z</time>
      </trkpt>
      <trkpt lat="37.965777" lon="-4.374480">
        <ele>294.788021</ele>
        <time>2020-08-12T06:25:30.197Z</time>
      </trkpt>
      <trkpt lat="37.965730" lon="-4.374615">
        <ele>295.493428</ele>
        <time>2020-08-12T06:25:37.196Z</time>
      </trkpt>
      <trkpt lat="37.965660" lon="-4.374728">
        <ele>296.180352</ele>
        <time>2020-08-12T06:25:40.192Z</time>
      </trkpt>
      <trkpt lat="37.965556" lon="-4.374828">
        <ele>296.971597</ele>
        <time>2020-08-12T06:25:43.188Z</time>
      </trkpt>
      <trkpt lat="37.965442" lon="-4.374921">
        <ele>297.793387</ele>
        <time>2020-08-12T06:25:46.181Z</time>
      </trkpt>
      <trkpt lat="37.965333" lon="-4.374985">
        <ele>298.521622</ele>
        <time>2020-08-12T06:25:48.196Z</time>
      </trkpt>
      <trkpt lat="37.965249" lon="-4.375051">
        <ele>299.120706</ele>
        <time>2020-08-12T06:25:50.195Z</time>
      </trkpt>
      <trkpt lat="37.965160" lon="-4.375129">
        <ele>299.776588</ele>
        <time>2020-08-12T06:25:52.206Z</time>
      </trkpt>
      <trkpt lat="37.965082" lon="-4.375198">
        <ele>300.353151</ele>
        <time>2020-08-12T06:25:54.195Z</time>
      </trkpt>
      <trkpt lat="37.965015" lon="-4.375286">
        <ele>300.937915</ele>
        <time>2020-08-12T06:25:56.196Z</time>
      </trkpt>
      <trkpt lat="37.964899" lon="-4.375390">
        <ele>301.799172</ele>
        <time>2020-08-12T06:25:59.203Z</time>
      </trkpt>
      <trkpt lat="37.964835" lon="-4.375474">
        <ele>302.357548</ele>
        <time>2020-08-12T06:26:01.190Z</time>
      </trkpt>
      <trkpt lat="37.964748" lon="-4.375586">
        <ele>303.109108</ele>
        <time>2020-08-12T06:26:04.191Z</time>
      </trkpt>
      <trkpt lat="37.964654" lon="-4.375674">
        <ele>303.666063</ele>
        <time>2020-08-12T06:26:07.193Z</time>
      </trkpt>
      <trkpt lat="37.964544" lon="-4.375724">
        <ele>303.118474</ele>
        <time>2020-08-12T06:26:09.199Z</time>
      </trkpt>
      <trkpt lat="37.964499" lon="-4.375883">
        <ele>302.494326</ele>
        <time>2020-08-12T06:26:12.199Z</time>
      </trkpt>
      <trkpt lat="37.964442" lon="-4.376024">
        <ele>301.908894</ele>
        <time>2020-08-12T06:26:15.193Z</time>
      </trkpt>
      <trkpt lat="37.964355" lon="-4.376113">
        <ele>301.385112</ele>
        <time>2020-08-12T06:26:17.192Z</time>
      </trkpt>
      <trkpt lat="37.964276" lon="-4.376181">
        <ele>300.937700</ele>
        <time>2020-08-12T06:26:19.187Z</time>
      </trkpt>
      <trkpt lat="37.964175" lon="-4.376294">
        <ele>300.306570</ele>
        <time>2020-08-12T06:26:21.192Z</time>
      </trkpt>
      <trkpt lat="37.964087" lon="-4.376350">
        <ele>299.845187</ele>
        <time>2020-08-12T06:26:26.208Z</time>
      </trkpt>
      <trkpt lat="37.964000" lon="-4.376410">
        <ele>299.381114</ele>
        <time>2020-08-12T06:26:29.209Z</time>
      </trkpt>
      <trkpt lat="37.963912" lon="-4.376471">
        <ele>298.911157</ele>
        <time>2020-08-12T06:26:31.208Z</time>
      </trkpt>
      <trkpt lat="37.963840" lon="-4.376569">
        <ele>298.416238</ele>
        <time>2020-08-12T06:26:34.182Z</time>
      </trkpt>
      <trkpt lat="37.963736" lon="-4.376659">
        <ele>297.826238</ele>
        <time>2020-08-12T06:26:37.188Z</time>
      </trkpt>
      <trkpt lat="37.963631" lon="-4.376743">
        <ele>297.244483</ele>
        <time>2020-08-12T06:26:40.203Z</time>
      </trkpt>
      <trkpt lat="37.963520" lon="-4.376821">
        <ele>296.649814</ele>
        <time>2020-08-12T06:26:43.207Z</time>
      </trkpt>
      <trkpt lat="37.963422" lon="-4.376888">
        <ele>296.128094</ele>
        <time>2020-08-12T06:26:46.204Z</time>
      </trkpt>
      <trkpt lat="37.963365" lon="-4.377021">
        <ele>295.568794</ele>
        <time>2020-08-12T06:26:50.190Z</time>
      </trkpt>
      <trkpt lat="37.963300" lon="-4.377103">
        <ele>295.205941</ele>
        <time>2020-08-12T06:26:54.191Z</time>
      </trkpt>
      <trkpt lat="37.963246" lon="-4.377218">
        <ele>294.912771</ele>
        <time>2020-08-12T06:26:59.198Z</time>
      </trkpt>
      <trkpt lat="37.963217" lon="-4.377329">
        <ele>294.656651</ele>
        <time>2020-08-12T06:27:02.207Z</time>
      </trkpt>
      <trkpt lat="37.963165" lon="-4.377448">
        <ele>294.358654</ele>
        <time>2020-08-12T06:27:07.197Z</time>
      </trkpt>
      <trkpt lat="37.963108" lon="-4.377547">
        <ele>294.090153</ele>
        <time>2020-08-12T06:27:10.189Z</time>
      </trkpt>
      <trkpt lat="37.963047" lon="-4.377651">
        <ele>293.806243</ele>
        <time>2020-08-12T06:27:13.207Z</time>
      </trkpt>
      <trkpt lat="37.962988" lon="-4.377763">
        <ele>293.511213</ele>
        <time>2020-08-12T06:27:16.189Z</time>
      </trkpt>
      <trkpt lat="37.961040" lon="-4.381592">
        <ele>289.369678</ele>
        <time>2020-08-12T06:28:01.202Z</time>
      </trkpt>
      <trkpt lat="37.960938" lon="-4.381848">
        <ele>289.492928</ele>
        <time>2020-08-12T06:28:03.205Z</time>
      </trkpt>
      <trkpt lat="37.961049" lon="-4.382048">
        <ele>289.598025</ele>
        <time>2020-08-12T06:28:05.189Z</time>
      </trkpt>
      <trkpt lat="37.961058" lon="-4.382171">
        <ele>289.651104</ele>
        <time>2020-08-12T06:28:06.187Z</time>
      </trkpt>
      <trkpt lat="37.960999" lon="-4.382435">
        <ele>289.769013</ele>
        <time>2020-08-12T06:28:07.182Z</time>
      </trkpt>
      <trkpt lat="37.958689" lon="-4.408859">
        <ele>281.401633</ele>
        <time>2020-08-12T06:32:21.359Z</time>
      </trkpt>
      <trkpt lat="37.958607" lon="-4.408614">
        <ele>279.017268</ele>
        <time>2020-08-12T06:32:22.359Z</time>
      </trkpt>
      <trkpt lat="37.958687" lon="-4.408551">
        <ele>277.947350</ele>
        <time>2020-08-12T06:32:25.351Z</time>
      </trkpt>
      <trkpt lat="37.958699" lon="-4.408430">
        <ele>276.854844</ele>
        <time>2020-08-12T06:32:33.372Z</time>
      </trkpt>
      <trkpt lat="37.958716" lon="-4.408317">
        <ele>275.824284</ele>
        <time>2020-08-12T06:32:40.347Z</time>
      </trkpt>
      <trkpt lat="37.958761" lon="-4.408466">
        <ele>274.394913</ele>
        <time>2020-08-12T06:33:00.376Z</time>
      </trkpt>
      <trkpt lat="37.958789" lon="-4.408670">
        <ele>272.539921</ele>
        <time>2020-08-12T06:33:03.346Z</time>
      </trkpt>
      <trkpt lat="37.958812" lon="-4.408834">
        <ele>271.047688</ele>
        <time>2020-08-12T06:33:06.355Z</time>
      </trkpt>
      <trkpt lat="37.958806" lon="-4.408984">
        <ele>269.702205</ele>
        <time>2020-08-12T06:33:08.365Z</time>
      </trkpt>
      <trkpt lat="37.958825" lon="-4.409123">
        <ele>269.119473</ele>
        <time>2020-08-12T06:33:10.365Z</time>
      </trkpt>
      <trkpt lat="37.958856" lon="-4.409257">
        <ele>268.672251</ele>
        <time>2020-08-12T06:33:12.359Z</time>
      </trkpt>
      <trkpt lat="37.958855" lon="-4.409396">
        <ele>268.227090</ele>
        <time>2020-08-12T06:33:14.375Z</time>
      </trkpt>
      <trkpt lat="37.958881" lon="-4.409507">
        <ele>267.856261</ele>
        <time>2020-08-12T06:33:16.346Z</time>
      </trkpt>
      <trkpt lat="37.958872" lon="-4.409646">
        <ele>267.409620</ele>
        <time>2020-08-12T06:33:18.375Z</time>
      </trkpt>
      <trkpt lat="37.958858" lon="-4.409782">
        <ele>266.970388</ele>
        <time>2020-08-12T06:33:20.362Z</time>
      </trkpt>
      <trkpt lat="37.958820" lon="-4.409948">
        <ele>266.416826</ele>
        <time>2020-08-12T06:33:22.373Z</time>
      </trkpt>
      <trkpt lat="37.958787" lon="-4.410078">
        <ele>265.979460</ele>
        <time>2020-08-12T06:33:24.370Z</time>
      </trkpt>
      <trkpt lat="37.958801" lon="-4.410220">
        <ele>265.521168</ele>
        <time>2020-08-12T06:33:26.366Z</time>
      </trkpt>
      <trkpt lat="37.958785" lon="-4.410385">
        <ele>264.988779</ele>
        <time>2020-08-12T06:33:28.356Z</time>
      </trkpt>
      <trkpt lat="37.958773" lon="-4.410552">
        <ele>264.451750</ele>
        <time>2020-08-12T06:33:30.350Z</time>
      </trkpt>
      <trkpt lat="37.958753" lon="-4.410721">
        <ele>263.904471</ele>
        <time>2020-08-12T06:33:32.349Z</time>
      </trkpt>
      <trkpt lat="37.958752" lon="-4.410910">
        <ele>263.299190</ele>
        <time>2020-08-12T06:33:34.360Z</time>
      </trkpt>
      <trkpt lat="37.958739" lon="-4.411075">
        <ele>262.768151</ele>
        <time>2020-08-12T06:33:36.366Z</time>
      </trkpt>
      <trkpt lat="37.958734" lon="-4.411200">
        <ele>262.367327</ele>
        <time>2020-08-12T06:33:38.365Z</time>
      </trkpt>
      <trkpt lat="37.958703" lon="-4.411373">
        <ele>261.786833</ele>
        <time>2020-08-12T06:33:41.363Z</time>
      </trkpt>
      <trkpt lat="37.958702" lon="-4.411504">
        <ele>261.354140</ele>
        <time>2020-08-12T06:33:42.370Z</time>
      </trkpt>
      <trkpt lat="37.958739" lon="-4.411624">
        <ele>260.928571</ele>
        <time>2020-08-12T06:33:45.370Z</time>
      </trkpt>
      <trkpt lat="37.958744" lon="-4.411885">
        <ele>260.066274</ele>
        <time>2020-08-12T06:33:47.358Z</time>
      </trkpt>
      <trkpt lat="37.958744" lon="-4.412031">
        <ele>259.584059</ele>
        <time>2020-08-12T06:33:49.357Z</time>
      </trkpt>
      <trkpt lat="37.958669" lon="-4.412158">
        <ele>259.059985</ele>
        <time>2020-08-12T06:33:50.358Z</time>
      </trkpt>
      <trkpt lat="37.958679" lon="-4.412282">
        <ele>258.648295</ele>
        <time>2020-08-12T06:33:51.360Z</time>
      </trkpt>
      <trkpt lat="37.958738" lon="-4.412437">
        <ele>258.079817</ele>
        <time>2020-08-12T06:33:53.360Z</time>
      </trkpt>
      <trkpt lat="37.958695" lon="-4.412558">
        <ele>257.641455</ele>
        <time>2020-08-12T06:33:54.362Z</time>
      </trkpt>
      <trkpt lat="37.958751" lon="-4.412719">
        <ele>257.060252</ele>
        <time>2020-08-12T06:33:55.371Z</time>
      </trkpt>
      <trkpt lat="37.958722" lon="-4.412896">
        <ele>256.463160</ele>
        <time>2020-08-12T06:33:57.363Z</time>
      </trkpt>
      <trkpt lat="37.958730" lon="-4.413089">
        <ele>255.824831</ele>
        <time>2020-08-12T06:33:59.366Z</time>
      </trkpt>
      <trkpt lat="37.958741" lon="-4.413279">
        <ele>255.195602</ele>
        <time>2020-08-12T06:34:01.369Z</time>
      </trkpt>
      <trkpt lat="37.958761" lon="-4.413443">
        <ele>254.643317</ele>
        <time>2020-08-12T06:34:03.366Z</time>
      </trkpt>
      <trkpt lat="37.958776" lon="-4.413593">
        <ele>253.950697</ele>
        <time>2020-08-12T06:34:05.374Z</time>
      </trkpt>
      <trkpt lat="37.958761" lon="-4.413778">
        <ele>253.098785</ele>
        <time>2020-08-12T06:34:07.396Z</time>
      </trkpt>
      <trkpt lat="37.958785" lon="-4.413937">
        <ele>252.357216</ele>
        <time>2020-08-12T06:34:09.372Z</time>
      </trkpt>
      <trkpt lat="37.958781" lon="-4.414100">
        <ele>251.610189</ele>
        <time>2020-08-12T06:34:11.372Z</time>
      </trkpt>
      <trkpt lat="37.958769" lon="-4.414258">
        <ele>250.883077</ele>
        <time>2020-08-12T06:34:13.355Z</time>
      </trkpt>
      <trkpt lat="37.958768" lon="-4.414425">
        <ele>250.118067</ele>
        <time>2020-08-12T06:34:15.372Z</time>
      </trkpt>
      <trkpt lat="37.958753" lon="-4.414583">
        <ele>249.389077</ele>
        <time>2020-08-12T06:34:17.366Z</time>
      </trkpt>
      <trkpt lat="37.958777" lon="-4.414722">
        <ele>248.737261</ele>
        <time>2020-08-12T06:34:19.372Z</time>
      </trkpt>
      <trkpt lat="37.958776" lon="-4.414861">
        <ele>248.100508</ele>
        <time>2020-08-12T06:34:21.366Z</time>
      </trkpt>
      <trkpt lat="37.958765" lon="-4.415044">
        <ele>247.259794</ele>
        <time>2020-08-12T06:34:23.375Z</time>
      </trkpt>
      <trkpt lat="37.958758" lon="-4.415220">
        <ele>246.452554</ele>
        <time>2020-08-12T06:34:25.354Z</time>
      </trkpt>
      <trkpt lat="37.958749" lon="-4.415400">
        <ele>245.626358</ele>
        <time>2020-08-12T06:34:27.379Z</time>
      </trkpt>
      <trkpt lat="37.958734" lon="-4.415582">
        <ele>244.788116</ele>
        <time>2020-08-12T06:34:29.358Z</time>
      </trkpt>
      <trkpt lat="37.958748" lon="-4.415742">
        <ele>244.219066</ele>
        <time>2020-08-12T06:34:31.359Z</time>
      </trkpt>
      <trkpt lat="37.958767" lon="-4.415896">
        <ele>244.266846</ele>
        <time>2020-08-12T06:34:33.374Z</time>
      </trkpt>
      <trkpt lat="37.958780" lon="-4.416044">
        <ele>244.312492</ele>
        <time>2020-08-12T06:34:35.362Z</time>
      </trkpt>
      <trkpt lat="37.958762" lon="-4.416215">
        <ele>244.365373</ele>
        <time>2020-08-12T06:34:37.359Z</time>
      </trkpt>
      <trkpt lat="37.958774" lon="-4.416366">
        <ele>244.411892</ele>
        <time>2020-08-12T06:34:39.362Z</time>
      </trkpt>
      <trkpt lat="37.958783" lon="-4.416528">
        <ele>244.461672</ele>
        <time>2020-08-12T06:34:41.375Z</time>
      </trkpt>
      <trkpt lat="37.958797" lon="-4.416674">
        <ele>244.506755</ele>
        <time>2020-08-12T06:34:43.371Z</time>
      </trkpt>
      <trkpt lat="37.958830" lon="-4.416819">
        <ele>244.553015</ele>
        <time>2020-08-12T06:34:45.372Z</time>
      </trkpt>
      <trkpt lat="37.958867" lon="-4.416963">
        <ele>244.599439</ele>
        <time>2020-08-12T06:34:47.365Z</time>
      </trkpt>
      <trkpt lat="37.958892" lon="-4.417096">
        <ele>244.641350</ele>
        <time>2020-08-12T06:34:49.359Z</time>
      </trkpt>
      <trkpt lat="37.958949" lon="-4.417256">
        <ele>244.695167</ele>
        <time>2020-08-12T06:34:52.373Z</time>
      </trkpt>
      <trkpt lat="37.959004" lon="-4.417375">
        <ele>244.737449</ele>
        <time>2020-08-12T06:34:54.372Z</time>
      </trkpt>
      <trkpt lat="37.959076" lon="-4.417481">
        <ele>244.780335</ele>
        <time>2020-08-12T06:34:56.369Z</time>
      </trkpt>
      <trkpt lat="37.959120" lon="-4.417592">
        <ele>244.818417</ele>
        <time>2020-08-12T06:34:58.368Z</time>
      </trkpt>
      <trkpt lat="37.959199" lon="-4.417715">
        <ele>244.867045</ele>
        <time>2020-08-12T06:35:01.373Z</time>
      </trkpt>
      <trkpt lat="37.959280" lon="-4.417847">
        <ele>244.941786</ele>
        <time>2020-08-12T06:35:04.371Z</time>
      </trkpt>
      <trkpt lat="37.959340" lon="-4.417961">
        <ele>245.077196</ele>
        <time>2020-08-12T06:35:06.369Z</time>
      </trkpt>
      <trkpt lat="37.959404" lon="-4.418069">
        <ele>245.210668</ele>
        <time>2020-08-12T06:35:08.363Z</time>
      </trkpt>
      <trkpt lat="37.959451" lon="-4.418190">
        <ele>245.343926</ele>
        <time>2020-08-12T06:35:10.360Z</time>
      </trkpt>
      <trkpt lat="37.959506" lon="-4.418319">
        <ele>245.488808</ele>
        <time>2020-08-12T06:35:12.379Z</time>
      </trkpt>
      <trkpt lat="37.959554" lon="-4.418428">
        <ele>245.612150</ele>
        <time>2020-08-12T06:35:14.376Z</time>
      </trkpt>
      <trkpt lat="37.959614" lon="-4.418536">
        <ele>245.742672</ele>
        <time>2020-08-12T06:35:16.366Z</time>
      </trkpt>
      <trkpt lat="37.959661" lon="-4.418657">
        <ele>245.875929</ele>
        <time>2020-08-12T06:35:18.350Z</time>
      </trkpt>
      <trkpt lat="37.959715" lon="-4.418754">
        <ele>245.993237</ele>
        <time>2020-08-12T06:35:20.363Z</time>
      </trkpt>
      <trkpt lat="37.959797" lon="-4.418856">
        <ele>246.137150</ele>
        <time>2020-08-12T06:35:23.362Z</time>
      </trkpt>
      <trkpt lat="37.959866" lon="-4.418995">
        <ele>246.299421</ele>
        <time>2020-08-12T06:35:26.370Z</time>
      </trkpt>
      <trkpt lat="37.959935" lon="-4.419124">
        <ele>246.453422</ele>
        <time>2020-08-12T06:35:29.369Z</time>
      </trkpt>
      <trkpt lat="37.959997" lon="-4.419234">
        <ele>246.587005</ele>
        <time>2020-08-12T06:35:32.368Z</time>
      </trkpt>
      <trkpt lat="37.960070" lon="-4.419328">
        <ele>246.717352</ele>
        <time>2020-08-12T06:35:35.361Z</time>
      </trkpt>
      <trkpt lat="37.960136" lon="-4.419422">
        <ele>246.841701</ele>
        <time>2020-08-12T06:35:38.371Z</time>
      </trkpt>
      <trkpt lat="37.960202" lon="-4.419512">
        <ele>246.963127</ele>
        <time>2020-08-12T06:35:41.369Z</time>
      </trkpt>
      <trkpt lat="37.960271" lon="-4.419614">
        <ele>247.095901</ele>
        <time>2020-08-12T06:35:44.367Z</time>
      </trkpt>
      <trkpt lat="37.960343" lon="-4.419720">
        <ele>246.866120</ele>
        <time>2020-08-12T06:35:47.369Z</time>
      </trkpt>
      <trkpt lat="37.960411" lon="-4.419839">
        <ele>246.275975</ele>
        <time>2020-08-12T06:35:50.367Z</time>
      </trkpt>
      <trkpt lat="37.960479" lon="-4.420004">
        <ele>245.528368</ele>
        <time>2020-08-12T06:35:53.368Z</time>
      </trkpt>
      <trkpt lat="37.960539" lon="-4.420108">
        <ele>245.010899</ele>
        <time>2020-08-12T06:35:55.358Z</time>
      </trkpt>
      <trkpt lat="37.960592" lon="-4.420250">
        <ele>244.380039</ele>
        <time>2020-08-12T06:35:57.381Z</time>
      </trkpt>
      <trkpt lat="37.960678" lon="-4.420342">
        <ele>243.807053</ele>
        <time>2020-08-12T06:35:59.365Z</time>
      </trkpt>
      <trkpt lat="37.960751" lon="-4.420505">
        <ele>243.054311</ele>
        <time>2020-08-12T06:36:01.380Z</time>
      </trkpt>
      <trkpt lat="37.960799" lon="-4.420706">
        <ele>242.210995</ele>
        <time>2020-08-12T06:36:03.367Z</time>
      </trkpt>
      <trkpt lat="37.960878" lon="-4.420846">
        <ele>241.519686</ele>
        <time>2020-08-12T06:36:05.367Z</time>
      </trkpt>
      <trkpt lat="37.960938" lon="-4.421038">
        <ele>240.690369</ele>
        <time>2020-08-12T06:36:07.363Z</time>
      </trkpt>
      <trkpt lat="37.960975" lon="-4.421216">
        <ele>239.951197</ele>
        <time>2020-08-12T06:36:09.354Z</time>
      </trkpt>
      <trkpt lat="37.960982" lon="-4.421349">
        <ele>239.415954</ele>
        <time>2020-08-12T06:36:10.361Z</time>
      </trkpt>
      <trkpt lat="37.960998" lon="-4.421471">
        <ele>238.919339</ele>
        <time>2020-08-12T06:36:11.361Z</time>
      </trkpt>
      <trkpt lat="37.961006" lon="-4.421603">
        <ele>238.387737</ele>
        <time>2020-08-12T06:36:12.371Z</time>
      </trkpt>
      <trkpt lat="37.961017" lon="-4.421850">
        <ele>237.346210</ele>
        <time>2020-08-12T06:36:14.369Z</time>
      </trkpt>
      <trkpt lat="37.961035" lon="-4.421974">
        <ele>236.799760</ele>
        <time>2020-08-12T06:36:15.375Z</time>
      </trkpt>
      <trkpt lat="37.961058" lon="-4.422089">
        <ele>236.285564</ele>
        <time>2020-08-12T06:36:16.375Z</time>
      </trkpt>
      <trkpt lat="37.961065" lon="-4.422207">
        <ele>235.772706</ele>
        <time>2020-08-12T06:36:17.370Z</time>
      </trkpt>
      <trkpt lat="37.961093" lon="-4.422425">
        <ele>234.815438</ele>
        <time>2020-08-12T06:36:19.377Z</time>
      </trkpt>
      <trkpt lat="37.961104" lon="-4.422645">
        <ele>233.860042</ele>
        <time>2020-08-12T06:36:21.364Z</time>
      </trkpt>
      <trkpt lat="37.961229" lon="-4.423474">
        <ele>230.202042</ele>
        <time>2020-08-12T06:36:31.369Z</time>
      </trkpt>
      <trkpt lat="37.961242" lon="-4.423652">
        <ele>229.427288</ele>
        <time>2020-08-12T06:36:33.371Z</time>
      </trkpt>
      <trkpt lat="37.961255" lon="-4.423803">
        <ele>228.768965</ele>
        <time>2020-08-12T06:36:35.353Z</time>
      </trkpt>
      <trkpt lat="37.961278" lon="-4.423931">
        <ele>228.199989</ele>
        <time>2020-08-12T06:36:37.361Z</time>
      </trkpt>
      <trkpt lat="37.961257" lon="-4.425145">
        <ele>230.350190</ele>
        <time>2020-08-12T06:37:11.416Z</time>
      </trkpt>
      <trkpt lat="37.961256" lon="-4.425261">
        <ele>230.567390</ele>
        <time>2020-08-12T06:37:15.372Z</time>
      </trkpt>
      <trkpt lat="37.961328" lon="-4.425356">
        <ele>230.814111</ele>
        <time>2020-08-12T06:37:18.373Z</time>
      </trkpt>
      <trkpt lat="37.961326" lon="-4.425500">
        <ele>231.083764</ele>
        <time>2020-08-12T06:37:25.347Z</time>
      </trkpt>
      <trkpt lat="37.961270" lon="-4.425597">
        <ele>231.308860</ele>
        <time>2020-08-12T06:37:29.362Z</time>
      </trkpt>
      <trkpt lat="37.961212" lon="-4.425696">
        <ele>231.539789</ele>
        <time>2020-08-12T06:37:34.346Z</time>
      </trkpt>
      <trkpt lat="37.961244" lon="-4.425819">
        <ele>231.782296</ele>
        <time>2020-08-12T06:37:39.367Z</time>
      </trkpt>
      <trkpt lat="37.961190" lon="-4.425917">
        <ele>232.006152</ele>
        <time>2020-08-12T06:37:42.358Z</time>
      </trkpt>
      <trkpt lat="37.960974" lon="-4.426153">
        <ele>234.755239</ele>
        <time>2020-08-12T06:37:44.360Z</time>
      </trkpt>
      <trkpt lat="37.960954" lon="-4.426272">
        <ele>236.567046</ele>
        <time>2020-08-12T06:37:47.370Z</time>
      </trkpt>
      <trkpt lat="37.961000" lon="-4.426383">
        <ele>238.434331</ele>
        <time>2020-08-12T06:37:51.355Z</time>
      </trkpt>
      <trkpt lat="37.961026" lon="-4.426498">
        <ele>240.215776</ele>
        <time>2020-08-12T06:37:58.361Z</time>
      </trkpt>
      <trkpt lat="37.961086" lon="-4.426621">
        <ele>242.369544</ele>
        <time>2020-08-12T06:38:04.360Z</time>
      </trkpt>
      <trkpt lat="37.961154" lon="-4.426705">
        <ele>244.162287</ele>
        <time>2020-08-12T06:38:08.356Z</time>
      </trkpt>
      <trkpt lat="37.961183" lon="-4.426829">
        <ele>246.088251</ele>
        <time>2020-08-12T06:38:13.357Z</time>
      </trkpt>
      <trkpt lat="37.961165" lon="-4.426952">
        <ele>247.951086</ele>
        <time>2020-08-12T06:38:16.359Z</time>
      </trkpt>
      <trkpt lat="37.961140" lon="-4.427095">
        <ele>250.132172</ele>
        <time>2020-08-12T06:38:20.371Z</time>
      </trkpt>
      <trkpt lat="37.961164" lon="-4.427220">
        <ele>252.047902</ele>
        <time>2020-08-12T06:38:24.355Z</time>
      </trkpt>
      <trkpt lat="37.961289" lon="-4.427338">
        <ele>254.990834</ele>
        <time>2020-08-12T06:38:27.375Z</time>
      </trkpt>
      <trkpt lat="37.961392" lon="-4.427266">
        <ele>257.212026</ele>
        <time>2020-08-12T06:38:28.355Z</time>
      </trkpt>
      <trkpt lat="37.961363" lon="-4.427398">
        <ele>259.252472</ele>
        <time>2020-08-12T06:38:30.361Z</time>
      </trkpt>
      <trkpt lat="37.961484" lon="-4.427500">
        <ele>261.996437</ele>
        <time>2020-08-12T06:38:32.366Z</time>
      </trkpt>
      <trkpt lat="37.961527" lon="-4.427708">
        <ele>265.198384</ele>
        <time>2020-08-12T06:38:34.352Z</time>
      </trkpt>
      <trkpt lat="37.961577" lon="-4.427836">
        <ele>266.096719</ele>
        <time>2020-08-12T06:38:35.360Z</time>
      </trkpt>
      <trkpt lat="37.961668" lon="-4.428031">
        <ele>265.197430</ele>
        <time>2020-08-12T06:38:37.366Z</time>
      </trkpt>
      <trkpt lat="37.961733" lon="-4.428170">
        <ele>264.556058</ele>
        <time>2020-08-12T06:38:38.359Z</time>
      </trkpt>
      <trkpt lat="37.961756" lon="-4.428300">
        <ele>264.027305</ele>
        <time>2020-08-12T06:38:39.356Z</time>
      </trkpt>
      <trkpt lat="37.961820" lon="-4.428421">
        <ele>263.449049</ele>
        <time>2020-08-12T06:38:40.362Z</time>
      </trkpt>
      <trkpt lat="37.961844" lon="-4.428618">
        <ele>262.657950</ele>
        <time>2020-08-12T06:38:41.360Z</time>
      </trkpt>
      <trkpt lat="37.961854" lon="-4.428752">
        <ele>262.123776</ele>
        <time>2020-08-12T06:38:42.366Z</time>
      </trkpt>
      <trkpt lat="37.961833" lon="-4.428887">
        <ele>261.577683</ele>
        <time>2020-08-12T06:38:43.354Z</time>
      </trkpt>
      <trkpt lat="37.961828" lon="-4.429025">
        <ele>261.029434</ele>
        <time>2020-08-12T06:38:44.359Z</time>
      </trkpt>
      <trkpt lat="37.961830" lon="-4.429140">
        <ele>260.572930</ele>
        <time>2020-08-12T06:38:45.353Z</time>
      </trkpt>
      <trkpt lat="37.961842" lon="-4.429262">
        <ele>260.085004</ele>
        <time>2020-08-12T06:38:46.369Z</time>
      </trkpt>
      <trkpt lat="37.961831" lon="-4.429416">
        <ele>259.471331</ele>
        <time>2020-08-12T06:38:47.359Z</time>
      </trkpt>
      <trkpt lat="37.961837" lon="-4.429658">
        <ele>258.510448</ele>
        <time>2020-08-12T06:38:49.363Z</time>
      </trkpt>
      <trkpt lat="37.961834" lon="-4.429793">
        <ele>257.974469</ele>
        <time>2020-08-12T06:38:50.366Z</time>
      </trkpt>
      <trkpt lat="37.961825" lon="-4.429911">
        <ele>257.503985</ele>
        <time>2020-08-12T06:38:51.370Z</time>
      </trkpt>
      <trkpt lat="37.961835" lon="-4.430129">
        <ele>255.325841</ele>
        <time>2020-08-12T06:38:53.358Z</time>
      </trkpt>
      <trkpt lat="37.961860" lon="-4.430330">
        <ele>252.923684</ele>
        <time>2020-08-12T06:38:55.368Z</time>
      </trkpt>
      <trkpt lat="37.961856" lon="-4.430448">
        <ele>251.529402</ele>
        <time>2020-08-12T06:38:56.361Z</time>
      </trkpt>
      <trkpt lat="37.961869" lon="-4.430667">
        <ele>248.936783</ele>
        <time>2020-08-12T06:38:58.369Z</time>
      </trkpt>
      <trkpt lat="37.961895" lon="-4.430860">
        <ele>246.625392</ele>
        <time>2020-08-12T06:39:00.374Z</time>
      </trkpt>
      <trkpt lat="37.961906" lon="-4.431060">
        <ele>244.258648</ele>
        <time>2020-08-12T06:39:02.356Z</time>
      </trkpt>
      <trkpt lat="37.961926" lon="-4.431254">
        <ele>241.948977</ele>
        <time>2020-08-12T06:39:04.367Z</time>
      </trkpt>
      <trkpt lat="37.961931" lon="-4.431455">
        <ele>239.574987</ele>
        <time>2020-08-12T06:39:06.361Z</time>
      </trkpt>
      <trkpt lat="37.961966" lon="-4.431652">
        <ele>237.191082</ele>
        <time>2020-08-12T06:39:08.376Z</time>
      </trkpt>
      <trkpt lat="37.961936" lon="-4.431891">
        <ele>234.334149</ele>
        <time>2020-08-12T06:39:10.364Z</time>
      </trkpt>
      <trkpt lat="37.961925" lon="-4.432090">
        <ele>231.979182</ele>
        <time>2020-08-12T06:39:12.374Z</time>
      </trkpt>
      <trkpt lat="37.961956" lon="-4.432225">
        <ele>230.368692</ele>
        <time>2020-08-12T06:39:14.364Z</time>
      </trkpt>
      <trkpt lat="37.962025" lon="-4.432370">
        <ele>230.300514</ele>
        <time>2020-08-12T06:39:16.354Z</time>
      </trkpt>
      <trkpt lat="37.962028" lon="-4.432554">
        <ele>230.226429</ele>
        <time>2020-08-12T06:39:18.361Z</time>
      </trkpt>
      <trkpt lat="37.962087" lon="-4.432685">
        <ele>230.165697</ele>
        <time>2020-08-12T06:39:20.374Z</time>
      </trkpt>
      <trkpt lat="37.962101" lon="-4.432841">
        <ele>230.102494</ele>
        <time>2020-08-12T06:39:22.377Z</time>
      </trkpt>
      <trkpt lat="37.962135" lon="-4.433031">
        <ele>230.024064</ele>
        <time>2020-08-12T06:39:24.373Z</time>
      </trkpt>
      <trkpt lat="37.962100" lon="-4.433136">
        <ele>229.978173</ele>
        <time>2020-08-12T06:39:25.357Z</time>
      </trkpt>
      <trkpt lat="37.962122" lon="-4.433323">
        <ele>229.902063</ele>
        <time>2020-08-12T06:39:27.364Z</time>
      </trkpt>
      <trkpt lat="37.962189" lon="-4.433436">
        <ele>229.845147</ele>
        <time>2020-08-12T06:39:29.371Z</time>
      </trkpt>
      <trkpt lat="37.962284" lon="-4.433556">
        <ele>229.776691</ele>
        <time>2020-08-12T06:39:31.355Z</time>
      </trkpt>
      <trkpt lat="37.962275" lon="-4.433794">
        <ele>229.680774</ele>
        <time>2020-08-12T06:39:33.370Z</time>
      </trkpt>
      <trkpt lat="37.962215" lon="-4.433939">
        <ele>229.614853</ele>
        <time>2020-08-12T06:39:34.368Z</time>
      </trkpt>
      <trkpt lat="37.962222" lon="-4.434123">
        <ele>229.540698</ele>
        <time>2020-08-12T06:39:36.360Z</time>
      </trkpt>
      <trkpt lat="37.962324" lon="-4.434221">
        <ele>229.475364</ele>
        <time>2020-08-12T06:39:38.364Z</time>
      </trkpt>
      <trkpt lat="37.962385" lon="-4.434356">
        <ele>229.681503</ele>
        <time>2020-08-12T06:39:40.351Z</time>
      </trkpt>
      <trkpt lat="37.962404" lon="-4.434551">
        <ele>230.142563</ele>
        <time>2020-08-12T06:39:42.372Z</time>
      </trkpt>
      <trkpt lat="37.962410" lon="-4.434690">
        <ele>230.469223</ele>
        <time>2020-08-12T06:39:44.360Z</time>
      </trkpt>
      <trkpt lat="37.962467" lon="-4.434873">
        <ele>230.930940</ele>
        <time>2020-08-12T06:39:46.365Z</time>
      </trkpt>
      <trkpt lat="37.962594" lon="-4.434856">
        <ele>231.311030</ele>
        <time>2020-08-12T06:39:47.365Z</time>
      </trkpt>
      <trkpt lat="37.962644" lon="-4.435029">
        <ele>231.743400</ele>
        <time>2020-08-12T06:39:49.365Z</time>
      </trkpt>
      <trkpt lat="37.962604" lon="-4.435201">
        <ele>232.164200</ele>
        <time>2020-08-12T06:39:50.374Z</time>
      </trkpt>
      <trkpt lat="37.962592" lon="-4.435360">
        <ele>232.539007</ele>
        <time>2020-08-12T06:39:51.344Z</time>
      </trkpt>
      <trkpt lat="37.962565" lon="-4.435501">
        <ele>232.879490</ele>
        <time>2020-08-12T06:39:52.370Z</time>
      </trkpt>
      <trkpt lat="37.962575" lon="-4.435619">
        <ele>233.157979</ele>
        <time>2020-08-12T06:39:53.373Z</time>
      </trkpt>
      <trkpt lat="37.962550" lon="-4.435795">
        <ele>233.577622</ele>
        <time>2020-08-12T06:39:54.371Z</time>
      </trkpt>
      <trkpt lat="37.962494" lon="-4.435961">
        <ele>234.001311</ele>
        <time>2020-08-12T06:39:56.372Z</time>
      </trkpt>
      <trkpt lat="37.962476" lon="-4.436080">
        <ele>234.285644</ele>
        <time>2020-08-12T06:39:57.359Z</time>
      </trkpt>
      <trkpt lat="37.962474" lon="-4.436197">
        <ele>234.560255</ele>
        <time>2020-08-12T06:39:58.362Z</time>
      </trkpt>
      <trkpt lat="37.962423" lon="-4.436405">
        <ele>235.759262</ele>
        <time>2020-08-12T06:40:00.364Z</time>
      </trkpt>
      <trkpt lat="37.962423" lon="-4.436590">
        <ele>237.315937</ele>
        <time>2020-08-12T06:40:02.358Z</time>
      </trkpt>
      <trkpt lat="37.962419" lon="-4.436711">
        <ele>238.334980</ele>
        <time>2020-08-12T06:40:03.369Z</time>
      </trkpt>
      <trkpt lat="37.962408" lon="-4.436832">
        <ele>239.359876</ele>
        <time>2020-08-12T06:40:04.357Z</time>
      </trkpt>
      <trkpt lat="37.962465" lon="-4.436922">
        <ele>240.331257</ele>
        <time>2020-08-12T06:40:06.384Z</time>
      </trkpt>
      <trkpt lat="37.962440" lon="-4.437070">
        <ele>241.604858</ele>
        <time>2020-08-12T06:40:08.373Z</time>
      </trkpt>
      <trkpt lat="37.962439" lon="-4.437294">
        <ele>243.489726</ele>
        <time>2020-08-12T06:40:10.370Z</time>
      </trkpt>
      <trkpt lat="37.962410" lon="-4.437489">
        <ele>245.159481</ele>
        <time>2020-08-12T06:40:12.377Z</time>
      </trkpt>
      <trkpt lat="37.962388" lon="-4.437676">
        <ele>246.750406</ele>
        <time>2020-08-12T06:40:14.366Z</time>
      </trkpt>
      <trkpt lat="37.962392" lon="-4.437863">
        <ele>248.324489</ele>
        <time>2020-08-12T06:40:16.374Z</time>
      </trkpt>
      <trkpt lat="37.962409" lon="-4.438073">
        <ele>250.100816</ele>
        <time>2020-08-12T06:40:18.360Z</time>
      </trkpt>
      <trkpt lat="37.962426" lon="-4.438204">
        <ele>251.217942</ele>
        <time>2020-08-12T06:40:20.365Z</time>
      </trkpt>
      <trkpt lat="37.962487" lon="-4.438377">
        <ele>252.812590</ele>
        <time>2020-08-12T06:40:22.352Z</time>
      </trkpt>
      <trkpt lat="37.962499" lon="-4.438569">
        <ele>253.536391</ele>
        <time>2020-08-12T06:40:24.353Z</time>
      </trkpt>
      <trkpt lat="37.962540" lon="-4.438721">
        <ele>252.079170</ele>
        <time>2020-08-12T06:40:26.360Z</time>
      </trkpt>
      <trkpt lat="37.962588" lon="-4.438875">
        <ele>250.577068</ele>
        <time>2020-08-12T06:40:28.356Z</time>
      </trkpt>
      <trkpt lat="37.962633" lon="-4.438995">
        <ele>249.371719</ele>
        <time>2020-08-12T06:40:30.356Z</time>
      </trkpt>
      <trkpt lat="37.962684" lon="-4.439097">
        <ele>248.276127</ele>
        <time>2020-08-12T06:40:32.350Z</time>
      </trkpt>
      <trkpt lat="37.962726" lon="-4.439246">
        <ele>246.840797</ele>
        <time>2020-08-12T06:40:34.361Z</time>
      </trkpt>
      <trkpt lat="37.962778" lon="-4.439355">
        <ele>245.685168</ele>
        <time>2020-08-12T06:40:36.356Z</time>
      </trkpt>
      <trkpt lat="37.962840" lon="-4.439464">
        <ele>244.465998</ele>
        <time>2020-08-12T06:40:38.357Z</time>
      </trkpt>
      <trkpt lat="37.962875" lon="-4.439654">
        <ele>242.696136</ele>
        <time>2020-08-12T06:40:41.369Z</time>
      </trkpt>
      <trkpt lat="37.962946" lon="-4.439750">
        <ele>241.502174</ele>
        <time>2020-08-12T06:40:43.379Z</time>
      </trkpt>
      <trkpt lat="37.963004" lon="-4.439842">
        <ele>240.433675</ele>
        <time>2020-08-12T06:40:45.366Z</time>
      </trkpt>
      <trkpt lat="37.963009" lon="-4.439988">
        <ele>239.108098</ele>
        <time>2020-08-12T06:40:47.373Z</time>
      </trkpt>
      <trkpt lat="37.963089" lon="-4.440082">
        <ele>237.853441</ele>
        <time>2020-08-12T06:40:50.369Z</time>
      </trkpt>
      <trkpt lat="37.963167" lon="-4.440178">
        <ele>236.603000</ele>
        <time>2020-08-12T06:40:52.374Z</time>
      </trkpt>
      <trkpt lat="37.963232" lon="-4.440274">
        <ele>235.455164</ele>
        <time>2020-08-12T06:40:54.374Z</time>
      </trkpt>
      <trkpt lat="37.963255" lon="-4.440395">
        <ele>234.326160</ele>
        <time>2020-08-12T06:40:56.375Z</time>
      </trkpt>
      <trkpt lat="37.963304" lon="-4.440501">
        <ele>233.233268</ele>
        <time>2020-08-12T06:40:58.366Z</time>
      </trkpt>
      <trkpt lat="37.963343" lon="-4.440641">
        <ele>232.189320</ele>
        <time>2020-08-12T06:41:00.360Z</time>
      </trkpt>
      <trkpt lat="37.963378" lon="-4.440801">
        <ele>231.021895</ele>
        <time>2020-08-12T06:41:02.374Z</time>
      </trkpt>
      <trkpt lat="37.963434" lon="-4.440902">
        <ele>230.153765</ele>
        <time>2020-08-12T06:41:04.359Z</time>
      </trkpt>
      <trkpt lat="37.963487" lon="-4.441011">
        <ele>229.253382</ele>
        <time>2020-08-12T06:41:06.370Z</time>
      </trkpt>
      <trkpt lat="37.963558" lon="-4.441153">
        <ele>228.071166</ele>
        <time>2020-08-12T06:41:09.375Z</time>
      </trkpt>
      <trkpt lat="37.963590" lon="-4.441298">
        <ele>227.012517</ele>
        <time>2020-08-12T06:41:12.369Z</time>
      </trkpt>
      <trkpt lat="37.963618" lon="-4.441468">
        <ele>225.791482</ele>
        <time>2020-08-12T06:41:15.365Z</time>
      </trkpt>
      <trkpt lat="37.963650" lon="-4.441625">
        <ele>224.651361</ele>
        <time>2020-08-12T06:41:18.372Z</time>
      </trkpt>
      <trkpt lat="37.963701" lon="-4.441733">
        <ele>223.766252</ele>
        <time>2020-08-12T06:41:20.377Z</time>
      </trkpt>
      <trkpt lat="37.963714" lon="-4.441919">
        <ele>222.453402</ele>
        <time>2020-08-12T06:41:22.365Z</time>
      </trkpt>
      <trkpt lat="37.963753" lon="-4.442038">
        <ele>221.547334</ele>
        <time>2020-08-12T06:41:24.370Z</time>
      </trkpt>
      <trkpt lat="37.963827" lon="-4.442161">
        <ele>220.459523</ele>
        <time>2020-08-12T06:41:26.372Z</time>
      </trkpt>
      <trkpt lat="37.963824" lon="-4.442279">
        <ele>219.629463</ele>
        <time>2020-08-12T06:41:27.370Z</time>
      </trkpt>
      <trkpt lat="37.963898" lon="-4.442450">
        <ele>218.258001</ele>
        <time>2020-08-12T06:41:29.366Z</time>
      </trkpt>
      <trkpt lat="37.963982" lon="-4.442575">
        <ele>217.285725</ele>
        <time>2020-08-12T06:41:31.372Z</time>
      </trkpt>
      <trkpt lat="37.964060" lon="-4.442699">
        <ele>217.404435</ele>
        <time>2020-08-12T06:41:33.357Z</time>
      </trkpt>
      <trkpt lat="37.964136" lon="-4.442813">
        <ele>217.516157</ele>
        <time>2020-08-12T06:41:35.348Z</time>
      </trkpt>
      <trkpt lat="37.964218" lon="-4.442887">
        <ele>217.611680</ele>
        <time>2020-08-12T06:41:36.350Z</time>
      </trkpt>
      <trkpt lat="37.964276" lon="-4.443073">
        <ele>217.761362</ele>
        <time>2020-08-12T06:41:38.364Z</time>
      </trkpt>
      <trkpt lat="37.964332" lon="-4.443241">
        <ele>217.897857</ele>
        <time>2020-08-12T06:41:40.361Z</time>
      </trkpt>
      <trkpt lat="37.964370" lon="-4.443345">
        <ele>217.983636</ele>
        <time>2020-08-12T06:41:41.357Z</time>
      </trkpt>
      <trkpt lat="37.964448" lon="-4.443532">
        <ele>218.141953</ele>
        <time>2020-08-12T06:41:43.367Z</time>
      </trkpt>
      <trkpt lat="37.964524" lon="-4.443657">
        <ele>218.260080</ele>
        <time>2020-08-12T06:41:45.375Z</time>
      </trkpt>
      <trkpt lat="37.964620" lon="-4.443725">
        <ele>218.364448</ele>
        <time>2020-08-12T06:41:47.381Z</time>
      </trkpt>
      <trkpt lat="37.964709" lon="-4.443869">
        <ele>218.501373</ele>
        <time>2020-08-12T06:41:49.371Z</time>
      </trkpt>
      <trkpt lat="37.964734" lon="-4.444010">
        <ele>218.609523</ele>
        <time>2020-08-12T06:41:50.369Z</time>
      </trkpt>
      <trkpt lat="37.964788" lon="-4.444121">
        <ele>218.707129</ele>
        <time>2020-08-12T06:41:52.375Z</time>
      </trkpt>
      <trkpt lat="37.964856" lon="-4.444253">
        <ele>218.825127</ele>
        <time>2020-08-12T06:41:54.372Z</time>
      </trkpt>
      <trkpt lat="37.964930" lon="-4.444385">
        <ele>218.946333</ele>
        <time>2020-08-12T06:41:56.373Z</time>
      </trkpt>
      <trkpt lat="37.964966" lon="-4.444523">
        <ele>219.542362</ele>
        <time>2020-08-12T06:41:58.364Z</time>
      </trkpt>
      <trkpt lat="37.965052" lon="-4.444612">
        <ele>220.291884</ele>
        <time>2020-08-12T06:42:01.351Z</time>
      </trkpt>
      <trkpt lat="37.965102" lon="-4.444715">
        <ele>220.935860</ele>
        <time>2020-08-12T06:42:04.372Z</time>
      </trkpt>
      <trkpt lat="37.965162" lon="-4.444808">
        <ele>221.575636</ele>
        <time>2020-08-12T06:42:08.356Z</time>
      </trkpt>
      <trkpt lat="37.965199" lon="-4.444914">
        <ele>222.192807</ele>
        <time>2020-08-12T06:42:11.372Z</time>
      </trkpt>
      <trkpt lat="37.965254" lon="-4.445008">
        <ele>222.816017</ele>
        <time>2020-08-12T06:42:14.361Z</time>
      </trkpt>
      <trkpt lat="37.965311" lon="-4.445114">
        <ele>223.499121</ele>
        <time>2020-08-12T06:42:17.363Z</time>
      </trkpt>
      <trkpt lat="37.965356" lon="-4.445227">
        <ele>224.173112</ele>
        <time>2020-08-12T06:42:20.373Z</time>
      </trkpt>
      <trkpt lat="37.965383" lon="-4.445344">
        <ele>224.822143</ele>
        <time>2020-08-12T06:42:23.370Z</time>
      </trkpt>
      <trkpt lat="37.965412" lon="-4.445470">
        <ele>225.520952</ele>
        <time>2020-08-12T06:42:26.365Z</time>
      </trkpt>
      <trkpt lat="37.965436" lon="-4.445637">
        <ele>226.424690</ele>
        <time>2020-08-12T06:42:29.364Z</time>
      </trkpt>
      <trkpt lat="37.965455" lon="-4.445751">
        <ele>227.045026</ele>
        <time>2020-08-12T06:42:31.362Z</time>
      </trkpt>
      <trkpt lat="37.965499" lon="-4.445908">
        <ele>227.932114</ele>
        <time>2020-08-12T06:42:34.363Z</time>
      </trkpt>
      <trkpt lat="37.965542" lon="-4.446054">
        <ele>228.761867</ele>
        <time>2020-08-12T06:42:37.362Z</time>
      </trkpt>
      <trkpt lat="37.965572" lon="-4.446200">
        <ele>229.565118</ele>
        <time>2020-08-12T06:42:40.371Z</time>
      </trkpt>
      <trkpt lat="37.965593" lon="-4.446318">
        <ele>230.209141</ele>
        <time>2020-08-12T06:42:42.375Z</time>
      </trkpt>
      <trkpt lat="37.965592" lon="-4.446463">
        <ele>230.981130</ele>
        <time>2020-08-12T06:42:45.374Z</time>
      </trkpt>
      <trkpt lat="37.965593" lon="-4.446610">
        <ele>230.284153</ele>
        <time>2020-08-12T06:42:47.365Z</time>
      </trkpt>
      <trkpt lat="37.965610" lon="-4.446757">
        <ele>229.252929</ele>
        <time>2020-08-12T06:42:49.373Z</time>
      </trkpt>
      <trkpt lat="37.965612" lon="-4.446885">
        <ele>228.364325</ele>
        <time>2020-08-12T06:42:51.370Z</time>
      </trkpt>
      <trkpt lat="37.965650" lon="-4.447012">
        <ele>227.421486</ele>
        <time>2020-08-12T06:42:53.367Z</time>
      </trkpt>
      <trkpt lat="37.965677" lon="-4.447161">
        <ele>226.360333</ele>
        <time>2020-08-12T06:42:55.367Z</time>
      </trkpt>
      <trkpt lat="37.965697" lon="-4.447276">
        <ele>225.542945</ele>
        <time>2020-08-12T06:42:57.373Z</time>
      </trkpt>
      <trkpt lat="37.965739" lon="-4.447443">
        <ele>224.326274</ele>
        <time>2020-08-12T06:43:00.372Z</time>
      </trkpt>
      <trkpt lat="37.965746" lon="-4.447590">
        <ele>223.304111</ele>
        <time>2020-08-12T06:43:02.362Z</time>
      </trkpt>
      <trkpt lat="37.965769" lon="-4.447730">
        <ele>222.311519</ele>
        <time>2020-08-12T06:43:04.370Z</time>
      </trkpt>
      <trkpt lat="37.965783" lon="-4.447851">
        <ele>221.462681</ele>
        <time>2020-08-12T06:43:06.373Z</time>
      </trkpt>
      <trkpt lat="37.965767" lon="-4.447991">
        <ele>220.480807</ele>
        <time>2020-08-12T06:43:08.364Z</time>
      </trkpt>
      <trkpt lat="37.965767" lon="-4.448129">
        <ele>219.522971</ele>
        <time>2020-08-12T06:43:10.359Z</time>
      </trkpt>
      <trkpt lat="37.965728" lon="-4.448269">
        <ele>218.492376</ele>
        <time>2020-08-12T06:43:12.361Z</time>
      </trkpt>
      <trkpt lat="37.965715" lon="-4.448388">
        <ele>217.658523</ele>
        <time>2020-08-12T06:43:14.360Z</time>
      </trkpt>
      <trkpt lat="37.965691" lon="-4.448506">
        <ele>216.812687</ele>
        <time>2020-08-12T06:43:16.363Z</time>
      </trkpt>
      <trkpt lat="37.965660" lon="-4.448613">
        <ele>216.021456</ele>
        <time>2020-08-12T06:43:18.363Z</time>
      </trkpt>
      <trkpt lat="37.965649" lon="-4.448749">
        <ele>215.422740</ele>
        <time>2020-08-12T06:43:20.369Z</time>
      </trkpt>
      <trkpt lat="37.965634" lon="-4.448885">
        <ele>216.030821</ele>
        <time>2020-08-12T06:43:22.374Z</time>
      </trkpt>
      <trkpt lat="37.965597" lon="-4.449059">
        <ele>216.828837</ele>
        <time>2020-08-12T06:43:25.370Z</time>
      </trkpt>
      <trkpt lat="37.965552" lon="-4.449181">
        <ele>217.425263</ele>
        <time>2020-08-12T06:43:27.362Z</time>
      </trkpt>
      <trkpt lat="37.965572" lon="-4.449296">
        <ele>217.946733</ele>
        <time>2020-08-12T06:43:29.348Z</time>
      </trkpt>
      <trkpt lat="37.965578" lon="-4.449471">
        <ele>218.722376</ele>
        <time>2020-08-12T06:43:32.348Z</time>
      </trkpt>
      <trkpt lat="37.965591" lon="-4.449605">
        <ele>219.320212</ele>
        <time>2020-08-12T06:43:34.374Z</time>
      </trkpt>
      <trkpt lat="37.965587" lon="-4.449734">
        <ele>219.891873</ele>
        <time>2020-08-12T06:43:36.365Z</time>
      </trkpt>
      <trkpt lat="37.965619" lon="-4.449859">
        <ele>220.473830</ele>
        <time>2020-08-12T06:43:38.363Z</time>
      </trkpt>
      <trkpt lat="37.965633" lon="-4.449993">
        <ele>221.072378</ele>
        <time>2020-08-12T06:43:40.360Z</time>
      </trkpt>
      <trkpt lat="37.965642" lon="-4.450138">
        <ele>221.716433</ele>
        <time>2020-08-12T06:43:42.371Z</time>
      </trkpt>
      <trkpt lat="37.965641" lon="-4.450283">
        <ele>222.358526</ele>
        <time>2020-08-12T06:43:44.362Z</time>
      </trkpt>
      <trkpt lat="37.965653" lon="-4.450406">
        <ele>222.907331</ele>
        <time>2020-08-12T06:43:46.367Z</time>
      </trkpt>
      <trkpt lat="37.965709" lon="-4.450572">
        <ele>223.706856</ele>
        <time>2020-08-12T06:43:49.372Z</time>
      </trkpt>
      <trkpt lat="37.965729" lon="-4.450708">
        <ele>224.319458</ele>
        <time>2020-08-12T06:43:51.372Z</time>
      </trkpt>
      <trkpt lat="37.965748" lon="-4.450840">
        <ele>224.913623</ele>
        <time>2020-08-12T06:43:53.366Z</time>
      </trkpt>
      <trkpt lat="37.965775" lon="-4.450951">
        <ele>225.327001</ele>
        <time>2020-08-12T06:43:55.353Z</time>
      </trkpt>
      <trkpt lat="37.965804" lon="-4.451093">
        <ele>224.307209</ele>
        <time>2020-08-12T06:43:58.361Z</time>
      </trkpt>
      <trkpt lat="37.965829" lon="-4.451237">
        <ele>223.282111</ele>
        <time>2020-08-12T06:44:00.373Z</time>
      </trkpt>
      <trkpt lat="37.965866" lon="-4.451363">
        <ele>222.347347</ele>
        <time>2020-08-12T06:44:02.363Z</time>
      </trkpt>
      <trkpt lat="37.965947" lon="-4.451484">
        <ele>221.243792</ele>
        <time>2020-08-12T06:44:04.365Z</time>
      </trkpt>
      <trkpt lat="37.966004" lon="-4.451587">
        <ele>220.368916</ele>
        <time>2020-08-12T06:44:06.374Z</time>
      </trkpt>
      <trkpt lat="37.966027" lon="-4.451714">
        <ele>219.462998</ele>
        <time>2020-08-12T06:44:08.370Z</time>
      </trkpt>
      <trkpt lat="37.966077" lon="-4.451845">
        <ele>218.451151</ele>
        <time>2020-08-12T06:44:10.367Z</time>
      </trkpt>
      <trkpt lat="37.966144" lon="-4.451997">
        <ele>217.240473</ele>
        <time>2020-08-12T06:44:13.370Z</time>
      </trkpt>
      <trkpt lat="37.966201" lon="-4.452113">
        <ele>216.290206</ele>
        <time>2020-08-12T06:44:15.372Z</time>
      </trkpt>
      <trkpt lat="37.966283" lon="-4.452216">
        <ele>215.272548</ele>
        <time>2020-08-12T06:44:17.373Z</time>
      </trkpt>
      <trkpt lat="37.966358" lon="-4.452347">
        <ele>214.147009</ele>
        <time>2020-08-12T06:44:19.376Z</time>
      </trkpt>
      <trkpt lat="37.966427" lon="-4.452473">
        <ele>213.080453</ele>
        <time>2020-08-12T06:44:22.369Z</time>
      </trkpt>
      <trkpt lat="37.966433" lon="-4.452610">
        <ele>212.126546</ele>
        <time>2020-08-12T06:44:24.353Z</time>
      </trkpt>
      <trkpt lat="37.966413" lon="-4.452740">
        <ele>211.205726</ele>
        <time>2020-08-12T06:44:26.363Z</time>
      </trkpt>
      <trkpt lat="37.966399" lon="-4.452880">
        <ele>210.224633</ele>
        <time>2020-08-12T06:44:28.349Z</time>
      </trkpt>
      <trkpt lat="37.966374" lon="-4.453033">
        <ele>209.521403</ele>
        <time>2020-08-12T06:44:30.361Z</time>
      </trkpt>
      <trkpt lat="37.966383" lon="-4.453166">
        <ele>209.506367</ele>
        <time>2020-08-12T06:44:33.367Z</time>
      </trkpt>
      <trkpt lat="37.966457" lon="-4.453275">
        <ele>209.490163</ele>
        <time>2020-08-12T06:44:35.365Z</time>
      </trkpt>
      <trkpt lat="37.966446" lon="-4.453415">
        <ele>209.474315</ele>
        <time>2020-08-12T06:44:38.368Z</time>
      </trkpt>
      <trkpt lat="37.966540" lon="-4.453489">
        <ele>209.458507</ele>
        <time>2020-08-12T06:44:40.359Z</time>
      </trkpt>
      <trkpt lat="37.966672" lon="-4.453420">
        <ele>209.438108</ele>
        <time>2020-08-12T06:44:44.355Z</time>
      </trkpt>
      <trkpt lat="37.966789" lon="-4.453511">
        <ele>209.418498</ele>
        <time>2020-08-12T06:44:46.351Z</time>
      </trkpt>
      <trkpt lat="37.966884" lon="-4.453493">
        <ele>209.404773</ele>
        <time>2020-08-12T06:44:47.367Z</time>
      </trkpt>
      <trkpt lat="37.966972" lon="-4.453617">
        <ele>209.385979</ele>
        <time>2020-08-12T06:44:49.367Z</time>
      </trkpt>
      <trkpt lat="37.967056" lon="-4.453744">
        <ele>209.367306</ele>
        <time>2020-08-12T06:44:51.360Z</time>
      </trkpt>
      <trkpt lat="37.967159" lon="-4.453814">
        <ele>209.350609</ele>
        <time>2020-08-12T06:44:54.354Z</time>
      </trkpt>
      <trkpt lat="37.967256" lon="-4.453884">
        <ele>209.334664</ele>
        <time>2020-08-12T06:44:56.370Z</time>
      </trkpt>
      <trkpt lat="37.967346" lon="-4.453941">
        <ele>209.320290</ele>
        <time>2020-08-12T06:44:58.372Z</time>
      </trkpt>
      <trkpt lat="37.967446" lon="-4.453883">
        <ele>209.304579</ele>
        <time>2020-08-12T06:45:00.371Z</time>
      </trkpt>
      <trkpt lat="37.967536" lon="-4.453978">
        <ele>209.287849</ele>
        <time>2020-08-12T06:45:02.371Z</time>
      </trkpt>
      <trkpt lat="37.967685" lon="-4.454032">
        <ele>209.297281</ele>
        <time>2020-08-12T06:45:04.350Z</time>
      </trkpt>
      <trkpt lat="37.967810" lon="-4.454009">
        <ele>209.393021</ele>
        <time>2020-08-12T06:45:06.360Z</time>
      </trkpt>
      <trkpt lat="37.967896" lon="-4.454169">
        <ele>209.508740</ele>
        <time>2020-08-12T06:45:08.370Z</time>
      </trkpt>
      <trkpt lat="37.968008" lon="-4.454242">
        <ele>209.604186</ele>
        <time>2020-08-12T06:45:10.360Z</time>
      </trkpt>
      <trkpt lat="37.968133" lon="-4.454272">
        <ele>209.700616</ele>
        <time>2020-08-12T06:45:12.363Z</time>
      </trkpt>
      <trkpt lat="37.968289" lon="-4.454295">
        <ele>209.819658</ele>
        <time>2020-08-12T06:45:14.368Z</time>
      </trkpt>
      <trkpt lat="37.968452" lon="-4.454371">
        <ele>209.951293</ele>
        <time>2020-08-12T06:45:16.366Z</time>
      </trkpt>
      <trkpt lat="37.968597" lon="-4.454234">
        <ele>210.088339</ele>
        <time>2020-08-12T06:45:18.365Z</time>
      </trkpt>
      <trkpt lat="37.968697" lon="-4.454344">
        <ele>210.188669</ele>
        <time>2020-08-12T06:45:20.352Z</time>
      </trkpt>
      <trkpt lat="37.968825" lon="-4.454331">
        <ele>210.286002</ele>
        <time>2020-08-12T06:45:22.367Z</time>
      </trkpt>
      <trkpt lat="37.968928" lon="-4.454481">
        <ele>210.404870</ele>
        <time>2020-08-12T06:45:24.367Z</time>
      </trkpt>
      <trkpt lat="37.969037" lon="-4.454578">
        <ele>210.505795</ele>
        <time>2020-08-12T06:45:26.371Z</time>
      </trkpt>
      <trkpt lat="37.969189" lon="-4.454467">
        <ele>210.638849</ele>
        <time>2020-08-12T06:45:28.357Z</time>
      </trkpt>
      <trkpt lat="37.969300" lon="-4.454458">
        <ele>210.725159</ele>
        <time>2020-08-12T06:45:30.360Z</time>
      </trkpt>
      <trkpt lat="37.969410" lon="-4.454486">
        <ele>210.812219</ele>
        <time>2020-08-12T06:45:32.360Z</time>
      </trkpt>
      <trkpt lat="37.969552" lon="-4.454516">
        <ele>210.923926</ele>
        <time>2020-08-12T06:45:35.368Z</time>
      </trkpt>
      <trkpt lat="37.969686" lon="-4.454489">
        <ele>211.029211</ele>
        <time>2020-08-12T06:45:37.363Z</time>
      </trkpt>
      <trkpt lat="37.969809" lon="-4.454506">
        <ele>211.125222</ele>
        <time>2020-08-12T06:45:39.355Z</time>
      </trkpt>
      <trkpt lat="37.969927" lon="-4.454565">
        <ele>211.223644</ele>
        <time>2020-08-12T06:45:42.353Z</time>
      </trkpt>
      <trkpt lat="37.970032" lon="-4.454581">
        <ele>211.305708</ele>
        <time>2020-08-12T06:45:44.367Z</time>
      </trkpt>
      <trkpt lat="37.970149" lon="-4.454644">
        <ele>211.404339</ele>
        <time>2020-08-12T06:45:47.373Z</time>
      </trkpt>
      <trkpt lat="37.970255" lon="-4.454713">
        <ele>211.496791</ele>
        <time>2020-08-12T06:45:50.360Z</time>
      </trkpt>
      <trkpt lat="37.970342" lon="-4.454839">
        <ele>211.599254</ele>
        <time>2020-08-12T06:45:53.377Z</time>
      </trkpt>
      <trkpt lat="37.970414" lon="-4.454929">
        <ele>211.677693</ele>
        <time>2020-08-12T06:45:56.377Z</time>
      </trkpt>
      <trkpt lat="37.970449" lon="-4.455056">
        <ele>211.759993</ele>
        <time>2020-08-12T06:45:58.360Z</time>
      </trkpt>
      <trkpt lat="37.970462" lon="-4.455180">
        <ele>211.836515</ele>
        <time>2020-08-12T06:46:00.356Z</time>
      </trkpt>
      <trkpt lat="37.970357" lon="-4.455251">
        <ele>211.928846</ele>
        <time>2020-08-12T06:46:04.363Z</time>
      </trkpt>
      <trkpt lat="37.970294" lon="-4.455333">
        <ele>211.998890</ele>
        <time>2020-08-12T06:46:06.369Z</time>
      </trkpt>
      <trkpt lat="37.970239" lon="-4.455432">
        <ele>212.081487</ele>
        <time>2020-08-12T06:46:09.368Z</time>
      </trkpt>
      <trkpt lat="37.970146" lon="-4.455481">
        <ele>212.175023</ele>
        <time>2020-08-12T06:46:11.361Z</time>
      </trkpt>
      <trkpt lat="37.970073" lon="-4.455555">
        <ele>212.261817</ele>
        <time>2020-08-12T06:46:14.360Z</time>
      </trkpt>
      <trkpt lat="37.970015" lon="-4.455684">
        <ele>212.370556</ele>
        <time>2020-08-12T06:46:18.351Z</time>
      </trkpt>
      <trkpt lat="37.969920" lon="-4.455784">
        <ele>212.485219</ele>
        <time>2020-08-12T06:46:21.369Z</time>
      </trkpt>
      <trkpt lat="37.969817" lon="-4.455894">
        <ele>212.610278</ele>
        <time>2020-08-12T06:46:24.362Z</time>
      </trkpt>
      <trkpt lat="37.969700" lon="-4.455867">
        <ele>212.720734</ele>
        <time>2020-08-12T06:46:26.363Z</time>
      </trkpt>
      <trkpt lat="37.969586" lon="-4.455922">
        <ele>212.834020</ele>
        <time>2020-08-12T06:46:29.377Z</time>
      </trkpt>
      <trkpt lat="37.969508" lon="-4.455992">
        <ele>212.922766</ele>
        <time>2020-08-12T06:46:32.369Z</time>
      </trkpt>
      <trkpt lat="37.969423" lon="-4.456076">
        <ele>213.022847</ele>
        <time>2020-08-12T06:46:35.369Z</time>
      </trkpt>
      <trkpt lat="37.969342" lon="-4.456167">
        <ele>213.123346</ele>
        <time>2020-08-12T06:46:39.357Z</time>
      </trkpt>
      <trkpt lat="37.969276" lon="-4.456259">
        <ele>213.214429</ele>
        <time>2020-08-12T06:46:42.362Z</time>
      </trkpt>
      <trkpt lat="37.969204" lon="-4.456337">
        <ele>213.302373</ele>
        <time>2020-08-12T06:46:45.358Z</time>
      </trkpt>
      <trkpt lat="37.969107" lon="-4.456386">
        <ele>213.399350</ele>
        <time>2020-08-12T06:46:49.376Z</time>
      </trkpt>
      <trkpt lat="37.969019" lon="-4.456454">
        <ele>213.495058</ele>
        <time>2020-08-12T06:46:52.369Z</time>
      </trkpt>
      <trkpt lat="37.968942" lon="-4.456524">
        <ele>213.583048</ele>
        <time>2020-08-12T06:46:55.370Z</time>
      </trkpt>
      <trkpt lat="37.968838" lon="-4.456571">
        <ele>213.685593</ele>
        <time>2020-08-12T06:46:58.360Z</time>
      </trkpt>
      <trkpt lat="37.968723" lon="-4.456613">
        <ele>213.789716</ele>
        <time>2020-08-12T06:47:02.366Z</time>
      </trkpt>
      <trkpt lat="37.968635" lon="-4.456654">
        <ele>213.870437</ele>
        <time>2020-08-12T06:47:05.357Z</time>
      </trkpt>
      <trkpt lat="37.968556" lon="-4.456729">
        <ele>213.955401</ele>
        <time>2020-08-12T06:47:08.359Z</time>
      </trkpt>
      <trkpt lat="37.968457" lon="-4.456789">
        <ele>214.049874</ele>
        <time>2020-08-12T06:47:11.373Z</time>
      </trkpt>
      <trkpt lat="37.968358" lon="-4.456851">
        <ele>214.144940</ele>
        <time>2020-08-12T06:47:14.368Z</time>
      </trkpt>
      <trkpt lat="37.968238" lon="-4.456924">
        <ele>214.259533</ele>
        <time>2020-08-12T06:47:17.364Z</time>
      </trkpt>
      <trkpt lat="37.968138" lon="-4.456952">
        <ele>214.347709</ele>
        <time>2020-08-12T06:47:19.374Z</time>
      </trkpt>
      <trkpt lat="37.968045" lon="-4.457023">
        <ele>214.441171</ele>
        <time>2020-08-12T06:47:21.369Z</time>
      </trkpt>
      <trkpt lat="37.967983" lon="-4.457145">
        <ele>214.539701</ele>
        <time>2020-08-12T06:47:23.366Z</time>
      </trkpt>
      <trkpt lat="37.967885" lon="-4.457340">
        <ele>214.696677</ele>
        <time>2020-08-12T06:47:26.379Z</time>
      </trkpt>
      <trkpt lat="37.967814" lon="-4.457445">
        <ele>214.790578</ele>
        <time>2020-08-12T06:47:28.375Z</time>
      </trkpt>
      <trkpt lat="37.967715" lon="-4.457489">
        <ele>214.880902</ele>
        <time>2020-08-12T06:47:30.358Z</time>
      </trkpt>
      <trkpt lat="37.967666" lon="-4.457625">
        <ele>214.982404</ele>
        <time>2020-08-12T06:47:32.374Z</time>
      </trkpt>
      <trkpt lat="37.967578" lon="-4.457701">
        <ele>215.074071</ele>
        <time>2020-08-12T06:47:34.369Z</time>
      </trkpt>
      <trkpt lat="37.967486" lon="-4.457787">
        <ele>215.172473</ele>
        <time>2020-08-12T06:47:36.371Z</time>
      </trkpt>
      <trkpt lat="37.967425" lon="-4.457881">
        <ele>215.235815</ele>
        <time>2020-08-12T06:47:38.370Z</time>
      </trkpt>
      <trkpt lat="37.967336" lon="-4.457983">
        <ele>215.007511</ele>
        <time>2020-08-12T06:47:40.367Z</time>
      </trkpt>
      <trkpt lat="37.967249" lon="-4.458065">
        <ele>214.801206</ele>
        <time>2020-08-12T06:47:42.353Z</time>
      </trkpt>
      <trkpt lat="37.967162" lon="-4.458196">
        <ele>214.544180</ele>
        <time>2020-08-12T06:47:44.351Z</time>
      </trkpt>
      <trkpt lat="37.967046" lon="-4.458338">
        <ele>214.237338</ele>
        <time>2020-08-12T06:47:46.356Z</time>
      </trkpt>
      <trkpt lat="37.966906" lon="-4.458452">
        <ele>213.920682</ele>
        <time>2020-08-12T06:47:48.356Z</time>
      </trkpt>
      <trkpt lat="37.966796" lon="-4.458607">
        <ele>213.607739</ele>
        <time>2020-08-12T06:47:50.380Z</time>
      </trkpt>
      <trkpt lat="37.966770" lon="-4.458722">
        <ele>213.428218</ele>
        <time>2020-08-12T06:47:51.370Z</time>
      </trkpt>
      <trkpt lat="37.966682" lon="-4.458765">
        <ele>213.248722</ele>
        <time>2020-08-12T06:47:52.379Z</time>
      </trkpt>
      <trkpt lat="37.966594" lon="-4.458827">
        <ele>213.057120</ele>
        <time>2020-08-12T06:47:53.374Z</time>
      </trkpt>
      <trkpt lat="37.966517" lon="-4.458892">
        <ele>212.881071</ele>
        <time>2020-08-12T06:47:54.359Z</time>
      </trkpt>
      <trkpt lat="37.966461" lon="-4.459004">
        <ele>212.682056</ele>
        <time>2020-08-12T06:47:55.374Z</time>
      </trkpt>
      <trkpt lat="37.966375" lon="-4.459066">
        <ele>212.493774</ele>
        <time>2020-08-12T06:47:56.371Z</time>
      </trkpt>
      <trkpt lat="37.966290" lon="-4.459111">
        <ele>212.318460</ele>
        <time>2020-08-12T06:47:57.367Z</time>
      </trkpt>
      <trkpt lat="37.966207" lon="-4.459161">
        <ele>212.143568</ele>
        <time>2020-08-12T06:47:58.374Z</time>
      </trkpt>
      <trkpt lat="37.966120" lon="-4.459212">
        <ele>211.961145</ele>
        <time>2020-08-12T06:47:59.367Z</time>
      </trkpt>
      <trkpt lat="37.965967" lon="-4.459234">
        <ele>211.546643</ele>
        <time>2020-08-12T06:48:01.363Z</time>
      </trkpt>
      <trkpt lat="37.965877" lon="-4.459287">
        <ele>211.212214</ele>
        <time>2020-08-12T06:48:02.371Z</time>
      </trkpt>
      <trkpt lat="37.965744" lon="-4.459402">
        <ele>210.669712</ele>
        <time>2020-08-12T06:48:04.374Z</time>
      </trkpt>
      <trkpt lat="37.965585" lon="-4.459506">
        <ele>210.066768</ele>
        <time>2020-08-12T06:48:06.362Z</time>
      </trkpt>
      <trkpt lat="37.965464" lon="-4.459610">
        <ele>209.574146</ele>
        <time>2020-08-12T06:48:08.372Z</time>
      </trkpt>
      <trkpt lat="37.965390" lon="-4.459690">
        <ele>209.246441</ele>
        <time>2020-08-12T06:48:10.366Z</time>
      </trkpt>
      <trkpt lat="37.965266" lon="-4.459636">
        <ele>208.804570</ele>
        <time>2020-08-12T06:48:15.366Z</time>
      </trkpt>
      <trkpt lat="37.965160" lon="-4.459549">
        <ele>208.379042</ele>
        <time>2020-08-12T06:48:17.372Z</time>
      </trkpt>
      <trkpt lat="37.965061" lon="-4.459455">
        <ele>207.962246</ele>
        <time>2020-08-12T06:48:19.369Z</time>
      </trkpt>
      <trkpt lat="37.964967" lon="-4.459424">
        <ele>207.634898</ele>
        <time>2020-08-12T06:48:21.358Z</time>
      </trkpt>
      <trkpt lat="37.964877" lon="-4.459393">
        <ele>207.320580</ele>
        <time>2020-08-12T06:48:25.370Z</time>
      </trkpt>
      <trkpt lat="37.964791" lon="-4.459342">
        <ele>207.000614</ele>
        <time>2020-08-12T06:48:28.355Z</time>
      </trkpt>
      <trkpt lat="37.964686" lon="-4.459286">
        <ele>206.616715</ele>
        <time>2020-08-12T06:48:31.370Z</time>
      </trkpt>
      <trkpt lat="37.964593" lon="-4.459318">
        <ele>206.291942</ele>
        <time>2020-08-12T06:48:35.346Z</time>
      </trkpt>
      <trkpt lat="37.964574" lon="-4.459438">
        <ele>205.966715</ele>
        <time>2020-08-12T06:48:37.361Z</time>
      </trkpt>
      <trkpt lat="37.964548" lon="-4.459555">
        <ele>205.669868</ele>
        <time>2020-08-12T06:48:38.374Z</time>
      </trkpt>
      <trkpt lat="37.964480" lon="-4.459748">
        <ele>205.230786</ele>
        <time>2020-08-12T06:48:40.361Z</time>
      </trkpt>
      <trkpt lat="37.964404" lon="-4.459850">
        <ele>204.939281</ele>
        <time>2020-08-12T06:48:42.373Z</time>
      </trkpt>
      <trkpt lat="37.964347" lon="-4.459980">
        <ele>204.630314</ele>
        <time>2020-08-12T06:48:44.362Z</time>
      </trkpt>
      <trkpt lat="37.964300" lon="-4.460097">
        <ele>204.357570</ele>
        <time>2020-08-12T06:48:46.368Z</time>
      </trkpt>
      <trkpt lat="37.964253" lon="-4.460223">
        <ele>204.068045</ele>
        <time>2020-08-12T06:48:48.371Z</time>
      </trkpt>
      <trkpt lat="37.964197" lon="-4.460369">
        <ele>203.730809</ele>
        <time>2020-08-12T06:48:50.376Z</time>
      </trkpt>
      <trkpt lat="37.964172" lon="-4.460528">
        <ele>203.394052</ele>
        <time>2020-08-12T06:48:52.360Z</time>
      </trkpt>
      <trkpt lat="37.964114" lon="-4.460655">
        <ele>203.089203</ele>
        <time>2020-08-12T06:48:54.363Z</time>
      </trkpt>
      <trkpt lat="37.964042" lon="-4.460807">
        <ele>202.720886</ele>
        <time>2020-08-12T06:48:57.359Z</time>
      </trkpt>
      <trkpt lat="37.963979" lon="-4.460919">
        <ele>202.435113</ele>
        <time>2020-08-12T06:48:59.368Z</time>
      </trkpt>
      <trkpt lat="37.963910" lon="-4.461031">
        <ele>202.139879</ele>
        <time>2020-08-12T06:49:01.368Z</time>
      </trkpt>
      <trkpt lat="37.963826" lon="-4.461135">
        <ele>201.830626</ele>
        <time>2020-08-12T06:49:03.370Z</time>
      </trkpt>
      <trkpt lat="37.963761" lon="-4.461250">
        <ele>201.536719</ele>
        <time>2020-08-12T06:49:05.359Z</time>
      </trkpt>
      <trkpt lat="37.963663" lon="-4.461354">
        <ele>201.200085</ele>
        <time>2020-08-12T06:49:07.361Z</time>
      </trkpt>
      <trkpt lat="37.963556" lon="-4.461442">
        <ele>201.456106</ele>
        <time>2020-08-12T06:49:09.378Z</time>
      </trkpt>
      <trkpt lat="37.963455" lon="-4.461521">
        <ele>202.294520</ele>
        <time>2020-08-12T06:49:11.372Z</time>
      </trkpt>
      <trkpt lat="37.963345" lon="-4.461590">
        <ele>203.161593</ele>
        <time>2020-08-12T06:49:13.363Z</time>
      </trkpt>
      <trkpt lat="37.963220" lon="-4.461653">
        <ele>204.111971</ele>
        <time>2020-08-12T06:49:15.371Z</time>
      </trkpt>
      <trkpt lat="37.963099" lon="-4.461697">
        <ele>205.001357</ele>
        <time>2020-08-12T06:49:17.365Z</time>
      </trkpt>
      <trkpt lat="37.962957" lon="-4.461766">
        <ele>206.075788</ele>
        <time>2020-08-12T06:49:19.374Z</time>
      </trkpt>
      <trkpt lat="37.962846" lon="-4.461808">
        <ele>206.894230</ele>
        <time>2020-08-12T06:49:21.372Z</time>
      </trkpt>
      <trkpt lat="37.962752" lon="-4.461902">
        <ele>207.739998</ele>
        <time>2020-08-12T06:49:23.367Z</time>
      </trkpt>
      <trkpt lat="37.962664" lon="-4.461967">
        <ele>208.459524</ele>
        <time>2020-08-12T06:49:25.362Z</time>
      </trkpt>
      <trkpt lat="37.962542" lon="-4.461993">
        <ele>209.333618</ele>
        <time>2020-08-12T06:49:27.377Z</time>
      </trkpt>
      <trkpt lat="37.962390" lon="-4.461982">
        <ele>210.409345</ele>
        <time>2020-08-12T06:49:29.375Z</time>
      </trkpt>
      <trkpt lat="37.962307" lon="-4.462077">
        <ele>211.199275</ele>
        <time>2020-08-12T06:49:31.376Z</time>
      </trkpt>
      <trkpt lat="37.962214" lon="-4.462135">
        <ele>211.931520</ele>
        <time>2020-08-12T06:49:33.374Z</time>
      </trkpt>
      <trkpt lat="37.962146" lon="-4.462224">
        <ele>212.621922</ele>
        <time>2020-08-12T06:49:35.358Z</time>
      </trkpt>
      <trkpt lat="37.962058" lon="-4.462286">
        <ele>213.333186</ele>
        <time>2020-08-12T06:49:42.374Z</time>
      </trkpt>
      <trkpt lat="37.961980" lon="-4.462358">
        <ele>213.881514</ele>
        <time>2020-08-12T06:49:45.369Z</time>
      </trkpt>
      <trkpt lat="37.961872" lon="-4.462379">
        <ele>214.287722</ele>
        <time>2020-08-12T06:49:47.368Z</time>
      </trkpt>
      <trkpt lat="37.961738" lon="-4.462422">
        <ele>214.801597</ele>
        <time>2020-08-12T06:49:50.371Z</time>
      </trkpt>
      <trkpt lat="37.961620" lon="-4.462427">
        <ele>215.240537</ele>
        <time>2020-08-12T06:49:52.362Z</time>
      </trkpt>
      <trkpt lat="37.961492" lon="-4.462478">
        <ele>215.739336</ele>
        <time>2020-08-12T06:49:54.365Z</time>
      </trkpt>
      <trkpt lat="37.961359" lon="-4.462532">
        <ele>216.258513</ele>
        <time>2020-08-12T06:49:56.372Z</time>
      </trkpt>
      <trkpt lat="37.961223" lon="-4.462602">
        <ele>216.804174</ele>
        <time>2020-08-12T06:49:58.365Z</time>
      </trkpt>
      <trkpt lat="37.961070" lon="-4.462660">
        <ele>217.397852</ele>
        <time>2020-08-12T06:50:00.358Z</time>
      </trkpt>
      <trkpt lat="37.960983" lon="-4.462691">
        <ele>217.733818</ele>
        <time>2020-08-12T06:50:01.370Z</time>
      </trkpt>
      <trkpt lat="37.960835" lon="-4.462728">
        <ele>218.294631</ele>
        <time>2020-08-12T06:50:03.374Z</time>
      </trkpt>
      <trkpt lat="37.960670" lon="-4.462768">
        <ele>218.919165</ele>
        <time>2020-08-12T06:50:05.365Z</time>
      </trkpt>
      <trkpt lat="37.960505" lon="-4.462785">
        <ele>219.534614</ele>
        <time>2020-08-12T06:50:07.371Z</time>
      </trkpt>
      <trkpt lat="37.960366" lon="-4.462845">
        <ele>220.080489</ele>
        <time>2020-08-12T06:50:09.362Z</time>
      </trkpt>
      <trkpt lat="37.960228" lon="-4.462907">
        <ele>220.242536</ele>
        <time>2020-08-12T06:50:11.375Z</time>
      </trkpt>
      <trkpt lat="37.960092" lon="-4.462946">
        <ele>219.791396</ele>
        <time>2020-08-12T06:50:13.350Z</time>
      </trkpt>
      <trkpt lat="37.959960" lon="-4.463012">
        <ele>219.332317</ele>
        <time>2020-08-12T06:50:15.379Z</time>
      </trkpt>
      <trkpt lat="37.959831" lon="-4.463052">
        <ele>218.902640</ele>
        <time>2020-08-12T06:50:17.367Z</time>
      </trkpt>
      <trkpt lat="37.959701" lon="-4.463078">
        <ele>218.476824</ele>
        <time>2020-08-12T06:50:19.367Z</time>
      </trkpt>
      <trkpt lat="37.959552" lon="-4.463130">
        <ele>217.976811</ele>
        <time>2020-08-12T06:50:21.371Z</time>
      </trkpt>
      <trkpt lat="37.959416" lon="-4.463165">
        <ele>217.527811</ele>
        <time>2020-08-12T06:50:23.371Z</time>
      </trkpt>
      <trkpt lat="37.959281" lon="-4.463229">
        <ele>217.061498</ele>
        <time>2020-08-12T06:50:25.372Z</time>
      </trkpt>
      <trkpt lat="37.959141" lon="-4.463256">
        <ele>216.603316</ele>
        <time>2020-08-12T06:50:27.361Z</time>
      </trkpt>
      <trkpt lat="37.958999" lon="-4.463295">
        <ele>216.133222</ele>
        <time>2020-08-12T06:50:29.361Z</time>
      </trkpt>
      <trkpt lat="37.958881" lon="-4.463350">
        <ele>215.726463</ele>
        <time>2020-08-12T06:50:31.370Z</time>
      </trkpt>
      <trkpt lat="37.958757" lon="-4.463383">
        <ele>215.316520</ele>
        <time>2020-08-12T06:50:33.371Z</time>
      </trkpt>
      <trkpt lat="37.958653" lon="-4.463432">
        <ele>214.957556</ele>
        <time>2020-08-12T06:50:35.373Z</time>
      </trkpt>
      <trkpt lat="37.958545" lon="-4.463491">
        <ele>214.495152</ele>
        <time>2020-08-12T06:50:37.368Z</time>
      </trkpt>
      <trkpt lat="37.958421" lon="-4.463512">
        <ele>212.693919</ele>
        <time>2020-08-12T06:50:39.365Z</time>
      </trkpt>
      <trkpt lat="37.958308" lon="-4.463561">
        <ele>210.974448</ele>
        <time>2020-08-12T06:50:41.378Z</time>
      </trkpt>
      <trkpt lat="37.958207" lon="-4.463614">
        <ele>209.400665</ele>
        <time>2020-08-12T06:50:43.373Z</time>
      </trkpt>
      <trkpt lat="37.958088" lon="-4.463651">
        <ele>207.636534</ele>
        <time>2020-08-12T06:50:45.368Z</time>
      </trkpt>
      <trkpt lat="37.957985" lon="-4.463724">
        <ele>205.937666</ele>
        <time>2020-08-12T06:50:47.366Z</time>
      </trkpt>
      <trkpt lat="37.957884" lon="-4.463793">
        <ele>204.285889</ele>
        <time>2020-08-12T06:50:49.369Z</time>
      </trkpt>
      <trkpt lat="37.957777" lon="-4.463836">
        <ele>202.669784</ele>
        <time>2020-08-12T06:50:51.366Z</time>
      </trkpt>
      <trkpt lat="37.957672" lon="-4.463876">
        <ele>201.091239</ele>
        <time>2020-08-12T06:50:53.366Z</time>
      </trkpt>
      <trkpt lat="37.957570" lon="-4.463924">
        <ele>199.524779</ele>
        <time>2020-08-12T06:50:55.378Z</time>
      </trkpt>
      <trkpt lat="37.957466" lon="-4.463985">
        <ele>197.874980</ele>
        <time>2020-08-12T06:50:57.373Z</time>
      </trkpt>
      <trkpt lat="37.957328" lon="-4.464000">
        <ele>195.880734</ele>
        <time>2020-08-12T06:50:59.433Z</time>
      </trkpt>
      <trkpt lat="37.957224" lon="-4.464058">
        <ele>194.244939</ele>
        <time>2020-08-12T06:51:01.372Z</time>
      </trkpt>
      <trkpt lat="37.957105" lon="-4.464096">
        <ele>192.478069</ele>
        <time>2020-08-12T06:51:03.365Z</time>
      </trkpt>
      <trkpt lat="37.957016" lon="-4.464195">
        <ele>190.773580</ele>
        <time>2020-08-12T06:51:05.371Z</time>
      </trkpt>
      <trkpt lat="37.956919" lon="-4.464236">
        <ele>189.301427</ele>
        <time>2020-08-12T06:51:07.368Z</time>
      </trkpt>
      <trkpt lat="37.956809" lon="-4.464286">
        <ele>188.708811</ele>
        <time>2020-08-12T06:51:09.377Z</time>
      </trkpt>
      <trkpt lat="37.956711" lon="-4.464348">
        <ele>188.716586</ele>
        <time>2020-08-12T06:51:11.369Z</time>
      </trkpt>
      <trkpt lat="37.956578" lon="-4.464372">
        <ele>188.726123</ele>
        <time>2020-08-12T06:51:13.371Z</time>
      </trkpt>
      <trkpt lat="37.956471" lon="-4.464397">
        <ele>188.733846</ele>
        <time>2020-08-12T06:51:15.365Z</time>
      </trkpt>
      <trkpt lat="37.956339" lon="-4.464389">
        <ele>188.743228</ele>
        <time>2020-08-12T06:51:17.364Z</time>
      </trkpt>
      <trkpt lat="37.956249" lon="-4.464379">
        <ele>188.749641</ele>
        <time>2020-08-12T06:51:19.367Z</time>
      </trkpt>
      <trkpt lat="37.956155" lon="-4.464354">
        <ele>188.756459</ele>
        <time>2020-08-12T06:51:21.374Z</time>
      </trkpt>
      <trkpt lat="37.956036" lon="-4.464342">
        <ele>188.764934</ele>
        <time>2020-08-12T06:51:23.373Z</time>
      </trkpt>
      <trkpt lat="37.955896" lon="-4.464309">
        <ele>188.775042</ele>
        <time>2020-08-12T06:51:25.354Z</time>
      </trkpt>
      <trkpt lat="37.955789" lon="-4.464328">
        <ele>188.782712</ele>
        <time>2020-08-12T06:51:27.370Z</time>
      </trkpt>
      <trkpt lat="37.955669" lon="-4.464348">
        <ele>188.791304</ele>
        <time>2020-08-12T06:51:29.364Z</time>
      </trkpt>
      <trkpt lat="37.955551" lon="-4.464371">
        <ele>188.799780</ele>
        <time>2020-08-12T06:51:31.380Z</time>
      </trkpt>
      <trkpt lat="37.955476" lon="-4.464504">
        <ele>188.808932</ele>
        <time>2020-08-12T06:51:34.365Z</time>
      </trkpt>
      <trkpt lat="37.955395" lon="-4.464601">
        <ele>188.816841</ele>
        <time>2020-08-12T06:51:36.372Z</time>
      </trkpt>
      <trkpt lat="37.955326" lon="-4.464694">
        <ele>188.823988</ele>
        <time>2020-08-12T06:51:38.373Z</time>
      </trkpt>
      <trkpt lat="37.955212" lon="-4.464706">
        <ele>188.807504</ele>
        <time>2020-08-12T06:51:41.358Z</time>
      </trkpt>
      <trkpt lat="37.955115" lon="-4.464660">
        <ele>188.626396</ele>
        <time>2020-08-12T06:51:43.366Z</time>
      </trkpt>
      <trkpt lat="37.955028" lon="-4.464589">
        <ele>188.445470</ele>
        <time>2020-08-12T06:51:45.351Z</time>
      </trkpt>
      <trkpt lat="37.954924" lon="-4.464574">
        <ele>188.262419</ele>
        <time>2020-08-12T06:51:47.360Z</time>
      </trkpt>
      <trkpt lat="37.954794" lon="-4.464715">
        <ele>187.963270</ele>
        <time>2020-08-12T06:51:50.383Z</time>
      </trkpt>
      <trkpt lat="37.954733" lon="-4.464853">
        <ele>187.745113</ele>
        <time>2020-08-12T06:51:52.373Z</time>
      </trkpt>
      <trkpt lat="37.954711" lon="-4.465003">
        <ele>187.534723</ele>
        <time>2020-08-12T06:51:54.372Z</time>
      </trkpt>
      <trkpt lat="37.954667" lon="-4.465123">
        <ele>187.352233</ele>
        <time>2020-08-12T06:51:56.370Z</time>
      </trkpt>
      <trkpt lat="37.954585" lon="-4.465193">
        <ele>187.179369</ele>
        <time>2020-08-12T06:51:58.372Z</time>
      </trkpt>
      <trkpt lat="37.954525" lon="-4.465288">
        <ele>187.011526</ele>
        <time>2020-08-12T06:52:00.363Z</time>
      </trkpt>
      <trkpt lat="37.954444" lon="-4.465399">
        <ele>186.802972</ele>
        <time>2020-08-12T06:52:03.370Z</time>
      </trkpt>
      <trkpt lat="37.954358" lon="-4.465444">
        <ele>186.640275</ele>
        <time>2020-08-12T06:52:04.355Z</time>
      </trkpt>
      <trkpt lat="37.954262" lon="-4.465496">
        <ele>186.457715</ele>
        <time>2020-08-12T06:52:06.368Z</time>
      </trkpt>
      <trkpt lat="37.954181" lon="-4.465550">
        <ele>186.297681</ele>
        <time>2020-08-12T06:52:08.360Z</time>
      </trkpt>
      <trkpt lat="37.954104" lon="-4.465611">
        <ele>186.138908</ele>
        <time>2020-08-12T06:52:10.375Z</time>
      </trkpt>
      <trkpt lat="37.954014" lon="-4.465699">
        <ele>185.940166</ele>
        <time>2020-08-12T06:52:12.370Z</time>
      </trkpt>
      <trkpt lat="37.953892" lon="-4.465722">
        <ele>185.724464</ele>
        <time>2020-08-12T06:52:14.364Z</time>
      </trkpt>
      <trkpt lat="37.953775" lon="-4.465772">
        <ele>185.517246</ele>
        <time>2020-08-12T06:52:16.375Z</time>
      </trkpt>
      <trkpt lat="37.953634" lon="-4.465827">
        <ele>185.271934</ele>
        <time>2020-08-12T06:52:18.370Z</time>
      </trkpt>
      <trkpt lat="37.953498" lon="-4.465869">
        <ele>185.039168</ele>
        <time>2020-08-12T06:52:20.370Z</time>
      </trkpt>
      <trkpt lat="37.953398" lon="-4.465901">
        <ele>184.867664</ele>
        <time>2020-08-12T06:52:22.379Z</time>
      </trkpt>
      <trkpt lat="37.953280" lon="-4.465939">
        <ele>184.665212</ele>
        <time>2020-08-12T06:52:24.372Z</time>
      </trkpt>
      <trkpt lat="37.953164" lon="-4.465974">
        <ele>184.466929</ele>
        <time>2020-08-12T06:52:26.366Z</time>
      </trkpt>
      <trkpt lat="37.953045" lon="-4.465998">
        <ele>184.266555</ele>
        <time>2020-08-12T06:52:28.369Z</time>
      </trkpt>
      <trkpt lat="37.952969" lon="-4.466090">
        <ele>184.091842</ele>
        <time>2020-08-12T06:52:30.377Z</time>
      </trkpt>
      <trkpt lat="37.952870" lon="-4.466250">
        <ele>183.825162</ele>
        <time>2020-08-12T06:52:32.381Z</time>
      </trkpt>
      <trkpt lat="37.952771" lon="-4.466373">
        <ele>183.594695</ele>
        <time>2020-08-12T06:52:34.365Z</time>
      </trkpt>
      <trkpt lat="37.952661" lon="-4.466431">
        <ele>183.396594</ele>
        <time>2020-08-12T06:52:36.376Z</time>
      </trkpt>
      <trkpt lat="37.952539" lon="-4.466470">
        <ele>183.187372</ele>
        <time>2020-08-12T06:52:38.372Z</time>
      </trkpt>
      <trkpt lat="37.952424" lon="-4.466489">
        <ele>182.994520</ele>
        <time>2020-08-12T06:52:40.367Z</time>
      </trkpt>
      <trkpt lat="37.952327" lon="-4.466559">
        <ele>182.808930</ele>
        <time>2020-08-12T06:52:42.369Z</time>
      </trkpt>
      <trkpt lat="37.952239" lon="-4.466610">
        <ele>182.709776</ele>
        <time>2020-08-12T06:52:44.371Z</time>
      </trkpt>
      <trkpt lat="37.952121" lon="-4.466617">
        <ele>182.773627</ele>
        <time>2020-08-12T06:52:46.368Z</time>
      </trkpt>
      <trkpt lat="37.952023" lon="-4.466659">
        <ele>182.829542</ele>
        <time>2020-08-12T06:52:48.370Z</time>
      </trkpt>
      <trkpt lat="37.951918" lon="-4.466730">
        <ele>182.893860</ele>
        <time>2020-08-12T06:52:50.364Z</time>
      </trkpt>
      <trkpt lat="37.951797" lon="-4.466795">
        <ele>182.964890</ele>
        <time>2020-08-12T06:52:53.372Z</time>
      </trkpt>
      <trkpt lat="37.951684" lon="-4.466850">
        <ele>183.030313</ele>
        <time>2020-08-12T06:52:55.370Z</time>
      </trkpt>
      <trkpt lat="37.951591" lon="-4.466908">
        <ele>183.086331</ele>
        <time>2020-08-12T06:52:57.368Z</time>
      </trkpt>
      <trkpt lat="37.951469" lon="-4.466950">
        <ele>183.154662</ele>
        <time>2020-08-12T06:52:59.377Z</time>
      </trkpt>
      <trkpt lat="37.951360" lon="-4.466967">
        <ele>183.214023</ele>
        <time>2020-08-12T06:53:01.372Z</time>
      </trkpt>
      <trkpt lat="37.951256" lon="-4.467005">
        <ele>183.272525</ele>
        <time>2020-08-12T06:53:03.366Z</time>
      </trkpt>
      <trkpt lat="37.951114" lon="-4.467019">
        <ele>183.349511</ele>
        <time>2020-08-12T06:53:05.363Z</time>
      </trkpt>
      <trkpt lat="37.951020" lon="-4.467069">
        <ele>183.404608</ele>
        <time>2020-08-12T06:53:07.366Z</time>
      </trkpt>
      <trkpt lat="37.950912" lon="-4.467115">
        <ele>183.466190</ele>
        <time>2020-08-12T06:53:09.363Z</time>
      </trkpt>
      <trkpt lat="37.950795" lon="-4.467154">
        <ele>183.531579</ele>
        <time>2020-08-12T06:53:11.374Z</time>
      </trkpt>
      <trkpt lat="37.950699" lon="-4.467196">
        <ele>183.586471</ele>
        <time>2020-08-12T06:53:13.367Z</time>
      </trkpt>
      <trkpt lat="37.950599" lon="-4.467234">
        <ele>183.642898</ele>
        <time>2020-08-12T06:53:15.362Z</time>
      </trkpt>
      <trkpt lat="37.950497" lon="-4.467294">
        <ele>184.374873</ele>
        <time>2020-08-12T06:53:17.371Z</time>
      </trkpt>
      <trkpt lat="37.950386" lon="-4.467341">
        <ele>185.590846</ele>
        <time>2020-08-12T06:53:19.357Z</time>
      </trkpt>
      <trkpt lat="37.950281" lon="-4.467369">
        <ele>186.705742</ele>
        <time>2020-08-12T06:53:21.371Z</time>
      </trkpt>
      <trkpt lat="37.950165" lon="-4.467435">
        <ele>188.026831</ele>
        <time>2020-08-12T06:53:24.364Z</time>
      </trkpt>
      <trkpt lat="37.950046" lon="-4.467479">
        <ele>189.314824</ele>
        <time>2020-08-12T06:53:26.365Z</time>
      </trkpt>
      <trkpt lat="37.949954" lon="-4.467535">
        <ele>190.375197</ele>
        <time>2020-08-12T06:53:28.363Z</time>
      </trkpt>
      <trkpt lat="37.949861" lon="-4.467571">
        <ele>191.385560</ele>
        <time>2020-08-12T06:53:30.361Z</time>
      </trkpt>
      <trkpt lat="37.949758" lon="-4.467640">
        <ele>192.595965</ele>
        <time>2020-08-12T06:53:33.369Z</time>
      </trkpt>
      <trkpt lat="37.949637" lon="-4.467671">
        <ele>193.878656</ele>
        <time>2020-08-12T06:53:35.374Z</time>
      </trkpt>
      <trkpt lat="37.949535" lon="-4.467727">
        <ele>195.033581</ele>
        <time>2020-08-12T06:53:37.365Z</time>
      </trkpt>
      <trkpt lat="37.949428" lon="-4.467816">
        <ele>196.363216</ele>
        <time>2020-08-12T06:53:40.371Z</time>
      </trkpt>
      <trkpt lat="37.949337" lon="-4.467856">
        <ele>197.363972</ele>
        <time>2020-08-12T06:53:42.369Z</time>
      </trkpt>
      <trkpt lat="37.949245" lon="-4.467936">
        <ele>198.523080</ele>
        <time>2020-08-12T06:53:44.372Z</time>
      </trkpt>
      <trkpt lat="37.949157" lon="-4.468001">
        <ele>199.581271</ele>
        <time>2020-08-12T06:53:46.367Z</time>
      </trkpt>
      <trkpt lat="37.949069" lon="-4.468054">
        <ele>200.593547</ele>
        <time>2020-08-12T06:53:48.372Z</time>
      </trkpt>
      <trkpt lat="37.948988" lon="-4.468112">
        <ele>201.560106</ele>
        <time>2020-08-12T06:53:50.390Z</time>
      </trkpt>
      <trkpt lat="37.948876" lon="-4.468155">
        <ele>203.201615</ele>
        <time>2020-08-12T06:53:53.378Z</time>
      </trkpt>
      <trkpt lat="37.948782" lon="-4.468218">
        <ele>205.426257</ele>
        <time>2020-08-12T06:53:55.384Z</time>
      </trkpt>
      <trkpt lat="37.948675" lon="-4.468273">
        <ele>207.842045</ele>
        <time>2020-08-12T06:53:58.367Z</time>
      </trkpt>
      <trkpt lat="37.948562" lon="-4.468327">
        <ele>210.368757</ele>
        <time>2020-08-12T06:54:00.366Z</time>
      </trkpt>
      <trkpt lat="37.948458" lon="-4.468369">
        <ele>212.652527</ele>
        <time>2020-08-12T06:54:02.368Z</time>
      </trkpt>
      <trkpt lat="37.948364" lon="-4.468391">
        <ele>214.652594</ele>
        <time>2020-08-12T06:54:04.372Z</time>
      </trkpt>
      <trkpt lat="37.948265" lon="-4.468440">
        <ele>216.876251</ele>
        <time>2020-08-12T06:54:06.372Z</time>
      </trkpt>
      <trkpt lat="37.948109" lon="-4.468463">
        <ele>220.162371</ele>
        <time>2020-08-12T06:54:09.365Z</time>
      </trkpt>
      <trkpt lat="37.948007" lon="-4.468486">
        <ele>222.330090</ele>
        <time>2020-08-12T06:54:11.349Z</time>
      </trkpt>
      <trkpt lat="37.947888" lon="-4.468553">
        <ele>225.054419</ele>
        <time>2020-08-12T06:54:14.379Z</time>
      </trkpt>
      <trkpt lat="37.947766" lon="-4.468568">
        <ele>227.619110</ele>
        <time>2020-08-12T06:54:16.374Z</time>
      </trkpt>
      <trkpt lat="37.947651" lon="-4.468592">
        <ele>230.057730</ele>
        <time>2020-08-12T06:54:18.370Z</time>
      </trkpt>
      <trkpt lat="37.947521" lon="-4.468660">
        <ele>233.000161</ele>
        <time>2020-08-12T06:54:21.372Z</time>
      </trkpt>
      <trkpt lat="37.947411" lon="-4.468705">
        <ele>235.418595</ele>
        <time>2020-08-12T06:54:23.364Z</time>
      </trkpt>
      <trkpt lat="37.947339" lon="-4.468835">
        <ele>238.039797</ele>
        <time>2020-08-12T06:54:25.375Z</time>
      </trkpt>
      <trkpt lat="37.947197" lon="-4.468847">
        <ele>239.890336</ele>
        <time>2020-08-12T06:54:27.374Z</time>
      </trkpt>
      <trkpt lat="37.947087" lon="-4.468939">
        <ele>239.620229</ele>
        <time>2020-08-12T06:54:30.359Z</time>
      </trkpt>
      <trkpt lat="37.946936" lon="-4.468931">
        <ele>239.310435</ele>
        <time>2020-08-12T06:54:33.377Z</time>
      </trkpt>
      <trkpt lat="37.946832" lon="-4.468957">
        <ele>239.093150</ele>
        <time>2020-08-12T06:54:35.368Z</time>
      </trkpt>
      <trkpt lat="37.946709" lon="-4.469016">
        <ele>238.823586</ele>
        <time>2020-08-12T06:54:38.372Z</time>
      </trkpt>
      <trkpt lat="37.946609" lon="-4.469040">
        <ele>238.614965</ele>
        <time>2020-08-12T06:54:40.366Z</time>
      </trkpt>
      <trkpt lat="37.946499" lon="-4.469077">
        <ele>238.381686</ele>
        <time>2020-08-12T06:54:43.381Z</time>
      </trkpt>
      <trkpt lat="37.946404" lon="-4.469083">
        <ele>238.186711</ele>
        <time>2020-08-12T06:54:45.358Z</time>
      </trkpt>
      <trkpt lat="37.946309" lon="-4.469117">
        <ele>237.984370</ele>
        <time>2020-08-12T06:54:47.373Z</time>
      </trkpt>
      <trkpt lat="37.946217" lon="-4.469167">
        <ele>237.779196</ele>
        <time>2020-08-12T06:54:49.373Z</time>
      </trkpt>
      <trkpt lat="37.946122" lon="-4.469210">
        <ele>237.572429</ele>
        <time>2020-08-12T06:54:51.371Z</time>
      </trkpt>
      <trkpt lat="37.946033" lon="-4.469271">
        <ele>237.365052</ele>
        <time>2020-08-12T06:54:53.373Z</time>
      </trkpt>
      <trkpt lat="37.945908" lon="-4.469333">
        <ele>237.089920</ele>
        <time>2020-08-12T06:54:55.366Z</time>
      </trkpt>
      <trkpt lat="37.945780" lon="-4.469347">
        <ele>236.826568</ele>
        <time>2020-08-12T06:54:57.358Z</time>
      </trkpt>
      <trkpt lat="37.945688" lon="-4.469392">
        <ele>236.624441</ele>
        <time>2020-08-12T06:54:59.377Z</time>
      </trkpt>
      <trkpt lat="37.945562" lon="-4.469460">
        <ele>236.343745</ele>
        <time>2020-08-12T06:55:02.368Z</time>
      </trkpt>
      <trkpt lat="37.945460" lon="-4.469532">
        <ele>235.817885</ele>
        <time>2020-08-12T06:55:04.372Z</time>
      </trkpt>
      <trkpt lat="37.945337" lon="-4.469585">
        <ele>235.169198</ele>
        <time>2020-08-12T06:55:06.378Z</time>
      </trkpt>
      <trkpt lat="37.945281" lon="-4.469744">
        <ele>234.483475</ele>
        <time>2020-08-12T06:55:08.373Z</time>
      </trkpt>
      <trkpt lat="37.945180" lon="-4.469775">
        <ele>233.964572</ele>
        <time>2020-08-12T06:55:10.382Z</time>
      </trkpt>
      <trkpt lat="37.945075" lon="-4.469895">
        <ele>233.258739</ele>
        <time>2020-08-12T06:55:13.376Z</time>
      </trkpt>
      <trkpt lat="37.944955" lon="-4.469999">
        <ele>232.532943</ele>
        <time>2020-08-12T06:55:16.371Z</time>
      </trkpt>
      <trkpt lat="37.944845" lon="-4.470108">
        <ele>231.835846</ele>
        <time>2020-08-12T06:55:19.376Z</time>
      </trkpt>
      <trkpt lat="37.944747" lon="-4.470222">
        <ele>231.171769</ele>
        <time>2020-08-12T06:55:22.370Z</time>
      </trkpt>
      <trkpt lat="37.944673" lon="-4.470330">
        <ele>230.608374</ele>
        <time>2020-08-12T06:55:25.373Z</time>
      </trkpt>
      <trkpt lat="37.944573" lon="-4.470409">
        <ele>230.020051</ele>
        <time>2020-08-12T06:55:28.374Z</time>
      </trkpt>
      <trkpt lat="37.944498" lon="-4.470528">
        <ele>229.420175</ele>
        <time>2020-08-12T06:55:30.381Z</time>
      </trkpt>
      <trkpt lat="37.944412" lon="-4.470599">
        <ele>228.907743</ele>
        <time>2020-08-12T06:55:32.371Z</time>
      </trkpt>
      <trkpt lat="37.944326" lon="-4.470669">
        <ele>228.397448</ele>
        <time>2020-08-12T06:55:34.373Z</time>
      </trkpt>
      <trkpt lat="37.944285" lon="-4.470831">
        <ele>227.727463</ele>
        <time>2020-08-12T06:55:38.369Z</time>
      </trkpt>
      <trkpt lat="37.944206" lon="-4.470904">
        <ele>227.231405</ele>
        <time>2020-08-12T06:55:40.373Z</time>
      </trkpt>
      <trkpt lat="37.944085" lon="-4.470908">
        <ele>226.569271</ele>
        <time>2020-08-12T06:55:44.370Z</time>
      </trkpt>
      <trkpt lat="37.944029" lon="-4.471003">
        <ele>226.057606</ele>
        <time>2020-08-12T06:55:46.365Z</time>
      </trkpt>
      <trkpt lat="37.943970" lon="-4.471157">
        <ele>225.319007</ele>
        <time>2020-08-12T06:55:48.369Z</time>
      </trkpt>
      <trkpt lat="37.943851" lon="-4.471256">
        <ele>224.540445</ele>
        <time>2020-08-12T06:55:50.374Z</time>
      </trkpt>
      <trkpt lat="37.943822" lon="-4.471396">
        <ele>223.916001</ele>
        <time>2020-08-12T06:55:53.359Z</time>
      </trkpt>
      <trkpt lat="37.943723" lon="-4.471511">
        <ele>223.181554</ele>
        <time>2020-08-12T06:55:56.373Z</time>
      </trkpt>
      <trkpt lat="37.943690" lon="-4.471689">
        <ele>222.392732</ele>
        <time>2020-08-12T06:55:58.375Z</time>
      </trkpt>
      <trkpt lat="37.943598" lon="-4.471764">
        <ele>221.794431</ele>
        <time>2020-08-12T06:56:00.374Z</time>
      </trkpt>
      <trkpt lat="37.943493" lon="-4.471877">
        <ele>221.041068</ele>
        <time>2020-08-12T06:56:03.373Z</time>
      </trkpt>
      <trkpt lat="37.943338" lon="-4.471950">
        <ele>220.136574</ele>
        <time>2020-08-12T06:56:05.372Z</time>
      </trkpt>
      <trkpt lat="37.943262" lon="-4.472026">
        <ele>219.607104</ele>
        <time>2020-08-12T06:56:07.365Z</time>
      </trkpt>
      <trkpt lat="37.943195" lon="-4.472116">
        <ele>219.073177</ele>
        <time>2020-08-12T06:56:10.373Z</time>
      </trkpt>
      <trkpt lat="37.943099" lon="-4.472211">
        <ele>218.407035</ele>
        <time>2020-08-12T06:56:12.367Z</time>
      </trkpt>
      <trkpt lat="37.942959" lon="-4.472278">
        <ele>217.588461</ele>
        <time>2020-08-12T06:56:14.371Z</time>
      </trkpt>
      <trkpt lat="37.943070" lon="-4.472533">
        <ele>214.219148</ele>
        <time>2020-08-12T06:56:15.367Z</time>
      </trkpt>
      <trkpt lat="37.942972" lon="-4.472666">
        <ele>211.993087</ele>
        <time>2020-08-12T06:56:17.368Z</time>
      </trkpt>
      <trkpt lat="37.942929" lon="-4.472796">
        <ele>210.269037</ele>
        <time>2020-08-12T06:56:19.373Z</time>
      </trkpt>
      <trkpt lat="37.942811" lon="-4.472848">
        <ele>208.331769</ele>
        <time>2020-08-12T06:56:22.358Z</time>
      </trkpt>
      <trkpt lat="37.942839" lon="-4.472962">
        <ele>206.871521</ele>
        <time>2020-08-12T06:56:23.361Z</time>
      </trkpt>
      <trkpt lat="37.942731" lon="-4.473056">
        <ele>204.840105</ele>
        <time>2020-08-12T06:56:25.375Z</time>
      </trkpt>
      <trkpt lat="37.942713" lon="-4.473174">
        <ele>203.370240</ele>
        <time>2020-08-12T06:56:28.373Z</time>
      </trkpt>
      <trkpt lat="37.942685" lon="-4.473286">
        <ele>201.933324</ele>
        <time>2020-08-12T06:56:31.379Z</time>
      </trkpt>
      <trkpt lat="37.942624" lon="-4.473390">
        <ele>200.348209</ele>
        <time>2020-08-12T06:56:33.359Z</time>
      </trkpt>
      <trkpt lat="37.942510" lon="-4.473483">
        <ele>198.246061</ele>
        <time>2020-08-12T06:56:36.372Z</time>
      </trkpt>
      <trkpt lat="37.942420" lon="-4.473538">
        <ele>196.696735</ele>
        <time>2020-08-12T06:56:37.370Z</time>
      </trkpt>
      <trkpt lat="37.942400" lon="-4.473655">
        <ele>195.232614</ele>
        <time>2020-08-12T06:56:39.375Z</time>
      </trkpt>
      <trkpt lat="37.942281" lon="-4.473783">
        <ele>192.812672</ele>
        <time>2020-08-12T06:56:42.363Z</time>
      </trkpt>
      <trkpt lat="37.942193" lon="-4.473853">
        <ele>191.201695</ele>
        <time>2020-08-12T06:56:44.354Z</time>
      </trkpt>
      <trkpt lat="37.942143" lon="-4.473994">
        <ele>189.567442</ele>
        <time>2020-08-12T06:56:46.369Z</time>
      </trkpt>
      <trkpt lat="37.942043" lon="-4.474042">
        <ele>189.430606</ele>
        <time>2020-08-12T06:56:47.379Z</time>
      </trkpt>
      <trkpt lat="37.941952" lon="-4.474110">
        <ele>189.295432</ele>
        <time>2020-08-12T06:56:48.370Z</time>
      </trkpt>
      <trkpt lat="37.941868" lon="-4.474265">
        <ele>189.105623</ele>
        <time>2020-08-12T06:56:51.371Z</time>
      </trkpt>
      <trkpt lat="37.941842" lon="-4.474390">
        <ele>188.975152</ele>
        <time>2020-08-12T06:56:53.361Z</time>
      </trkpt>
      <trkpt lat="37.941816" lon="-4.474519">
        <ele>188.840774</ele>
        <time>2020-08-12T06:56:55.365Z</time>
      </trkpt>
      <trkpt lat="37.941824" lon="-4.474645">
        <ele>188.713197</ele>
        <time>2020-08-12T06:56:57.373Z</time>
      </trkpt>
      <trkpt lat="37.941778" lon="-4.474752">
        <ele>188.590204</ele>
        <time>2020-08-12T06:56:59.377Z</time>
      </trkpt>
      <trkpt lat="37.941689" lon="-4.474824">
        <ele>188.455101</ele>
        <time>2020-08-12T06:57:03.371Z</time>
      </trkpt>
      <trkpt lat="37.941715" lon="-4.474966">
        <ele>188.307975</ele>
        <time>2020-08-12T06:57:05.372Z</time>
      </trkpt>
      <trkpt lat="37.941737" lon="-4.475096">
        <ele>188.173786</ele>
        <time>2020-08-12T06:57:07.370Z</time>
      </trkpt>
      <trkpt lat="37.941688" lon="-4.475258">
        <ele>187.998674</ele>
        <time>2020-08-12T06:57:09.374Z</time>
      </trkpt>
      <trkpt lat="37.941688" lon="-4.475377">
        <ele>187.878573</ele>
        <time>2020-08-12T06:57:11.367Z</time>
      </trkpt>
      <trkpt lat="37.941685" lon="-4.475549">
        <ele>187.704939</ele>
        <time>2020-08-12T06:57:13.359Z</time>
      </trkpt>
      <trkpt lat="37.941711" lon="-4.475668">
        <ele>187.580314</ele>
        <time>2020-08-12T06:57:16.367Z</time>
      </trkpt>
      <trkpt lat="37.941755" lon="-4.475820">
        <ele>187.416900</ele>
        <time>2020-08-12T06:57:18.364Z</time>
      </trkpt>
      <trkpt lat="37.941729" lon="-4.475969">
        <ele>187.216912</ele>
        <time>2020-08-12T06:57:20.371Z</time>
      </trkpt>
      <trkpt lat="37.941723" lon="-4.476117">
        <ele>186.801094</ele>
        <time>2020-08-12T06:57:22.372Z</time>
      </trkpt>
      <trkpt lat="37.941724" lon="-4.476243">
        <ele>186.447535</ele>
        <time>2020-08-12T06:57:24.375Z</time>
      </trkpt>
      <trkpt lat="37.941702" lon="-4.476893">
        <ele>184.622034</ele>
        <time>2020-08-12T06:57:34.414Z</time>
      </trkpt>
      <trkpt lat="37.941667" lon="-4.477032">
        <ele>184.212620</ele>
        <time>2020-08-12T06:57:36.356Z</time>
      </trkpt>
      <trkpt lat="37.941800" lon="-4.477163">
        <ele>183.613433</ele>
        <time>2020-08-12T06:57:39.370Z</time>
      </trkpt>
      <trkpt lat="37.941836" lon="-4.477276">
        <ele>183.271475</ele>
        <time>2020-08-12T06:57:41.359Z</time>
      </trkpt>
      <trkpt lat="37.941790" lon="-4.477438">
        <ele>182.788357</ele>
        <time>2020-08-12T06:57:43.374Z</time>
      </trkpt>
      <trkpt lat="37.941674" lon="-4.477560">
        <ele>182.252153</ele>
        <time>2020-08-12T06:57:45.375Z</time>
      </trkpt>
      <trkpt lat="37.941659" lon="-4.477678">
        <ele>181.916786</ele>
        <time>2020-08-12T06:57:48.358Z</time>
      </trkpt>
      <trkpt lat="37.941633" lon="-4.477796">
        <ele>181.573012</ele>
        <time>2020-08-12T06:57:50.371Z</time>
      </trkpt>
      <trkpt lat="37.941632" lon="-4.477955">
        <ele>181.126862</ele>
        <time>2020-08-12T06:57:52.374Z</time>
      </trkpt>
      <trkpt lat="37.941748" lon="-4.478124">
        <ele>181.738016</ele>
        <time>2020-08-12T06:57:54.360Z</time>
      </trkpt>
      <trkpt lat="37.941787" lon="-4.478265">
        <ele>182.647734</ele>
        <time>2020-08-12T06:57:57.369Z</time>
      </trkpt>
      <trkpt lat="37.941760" lon="-4.478401">
        <ele>183.501577</ele>
        <time>2020-08-12T06:57:59.377Z</time>
      </trkpt>
      <trkpt lat="37.941777" lon="-4.478534">
        <ele>184.321888</ele>
        <time>2020-08-12T06:58:01.377Z</time>
      </trkpt>
      <trkpt lat="37.941724" lon="-4.478629">
        <ele>185.030371</ele>
        <time>2020-08-12T06:58:03.376Z</time>
      </trkpt>
      <trkpt lat="37.941836" lon="-4.478628">
        <ele>185.895037</ele>
        <time>2020-08-12T06:58:04.368Z</time>
      </trkpt>
      <trkpt lat="37.941850" lon="-4.478826">
        <ele>187.105356</ele>
        <time>2020-08-12T06:58:06.373Z</time>
      </trkpt>
      <trkpt lat="37.941852" lon="-4.478952">
        <ele>187.872636</ele>
        <time>2020-08-12T06:58:08.377Z</time>
      </trkpt>
      <trkpt lat="37.941851" lon="-4.479097">
        <ele>188.755473</ele>
        <time>2020-08-12T06:58:10.377Z</time>
      </trkpt>
      <trkpt lat="37.941914" lon="-4.479187">
        <ele>189.488136</ele>
        <time>2020-08-12T06:58:12.361Z</time>
      </trkpt>
      <trkpt lat="37.941928" lon="-4.479318">
        <ele>190.292992</ele>
        <time>2020-08-12T06:58:14.347Z</time>
      </trkpt>
      <trkpt lat="37.941910" lon="-4.479476">
        <ele>191.264927</ele>
        <time>2020-08-12T06:58:16.363Z</time>
      </trkpt>
      <trkpt lat="37.941937" lon="-4.479640">
        <ele>192.284932</ele>
        <time>2020-08-12T06:58:19.373Z</time>
      </trkpt>
      <trkpt lat="37.941881" lon="-4.479781">
        <ele>193.246097</ele>
        <time>2020-08-12T06:58:23.352Z</time>
      </trkpt>
      <trkpt lat="37.941835" lon="-4.479948">
        <ele>194.323075</ele>
        <time>2020-08-12T06:58:26.381Z</time>
      </trkpt>
      <trkpt lat="37.941797" lon="-4.480077">
        <ele>196.446365</ele>
        <time>2020-08-12T06:58:28.361Z</time>
      </trkpt>
      <trkpt lat="37.941733" lon="-4.480183">
        <ele>199.961026</ele>
        <time>2020-08-12T06:58:30.363Z</time>
      </trkpt>
      <trkpt lat="37.941750" lon="-4.480333">
        <ele>203.950708</ele>
        <time>2020-08-12T06:58:33.372Z</time>
      </trkpt>
      <trkpt lat="37.941760" lon="-4.480508">
        <ele>208.570083</ele>
        <time>2020-08-12T06:58:35.365Z</time>
      </trkpt>
      <trkpt lat="37.941929" lon="-4.480598">
        <ele>214.689259</ele>
        <time>2020-08-12T06:58:39.361Z</time>
      </trkpt>
      <trkpt lat="37.942193" lon="-4.484849">
        <ele>260.562194</ele>
        <time>2020-08-12T06:59:37.379Z</time>
      </trkpt>
      <trkpt lat="37.942159" lon="-4.484992">
        <ele>260.150315</ele>
        <time>2020-08-12T06:59:38.370Z</time>
      </trkpt>
      <trkpt lat="37.942331" lon="-4.485033">
        <ele>259.538334</ele>
        <time>2020-08-12T06:59:39.359Z</time>
      </trkpt>
      <trkpt lat="37.942318" lon="-4.485177">
        <ele>259.138637</ele>
        <time>2020-08-12T06:59:42.356Z</time>
      </trkpt>
      <trkpt lat="37.942352" lon="-4.485288">
        <ele>258.810258</ele>
        <time>2020-08-12T06:59:44.375Z</time>
      </trkpt>
      <trkpt lat="37.942370" lon="-4.485403">
        <ele>258.486941</ele>
        <time>2020-08-12T06:59:46.370Z</time>
      </trkpt>
      <trkpt lat="37.942377" lon="-4.485560">
        <ele>258.053297</ele>
        <time>2020-08-12T06:59:49.367Z</time>
      </trkpt>
      <trkpt lat="37.942404" lon="-4.485704">
        <ele>257.645124</ele>
        <time>2020-08-12T06:59:52.362Z</time>
      </trkpt>
      <trkpt lat="37.942296" lon="-4.485770">
        <ele>257.225902</ele>
        <time>2020-08-12T06:59:53.364Z</time>
      </trkpt>
      <trkpt lat="37.942366" lon="-4.486575">
        <ele>255.772129</ele>
        <time>2020-08-12T07:00:07.360Z</time>
      </trkpt>
      <trkpt lat="37.942480" lon="-4.486661">
        <ele>255.970091</ele>
        <time>2020-08-12T07:00:08.373Z</time>
      </trkpt>
      <trkpt lat="37.942468" lon="-4.486835">
        <ele>256.175657</ele>
        <time>2020-08-12T07:00:10.363Z</time>
      </trkpt>
      <trkpt lat="37.942523" lon="-4.487013">
        <ele>256.400656</ele>
        <time>2020-08-12T07:00:12.367Z</time>
      </trkpt>
      <trkpt lat="37.942425" lon="-4.487163">
        <ele>256.629906</ele>
        <time>2020-08-12T07:00:14.363Z</time>
      </trkpt>
      <trkpt lat="37.942173" lon="-4.487616">
        <ele>257.282350</ele>
        <time>2020-08-12T07:00:24.365Z</time>
      </trkpt>
      <trkpt lat="37.942405" lon="-4.488055">
        <ele>257.904302</ele>
        <time>2020-08-12T07:00:31.371Z</time>
      </trkpt>
      <trkpt lat="37.942414" lon="-4.488187">
        <ele>258.060236</ele>
        <time>2020-08-12T07:00:33.365Z</time>
      </trkpt>
      <trkpt lat="37.942376" lon="-4.488354">
        <ele>258.082507</ele>
        <time>2020-08-12T07:00:35.371Z</time>
      </trkpt>
      <trkpt lat="37.942314" lon="-4.488467">
        <ele>257.535011</ele>
        <time>2020-08-12T07:00:36.371Z</time>
      </trkpt>
      <trkpt lat="37.942382" lon="-4.488595">
        <ele>256.921191</ele>
        <time>2020-08-12T07:00:38.360Z</time>
      </trkpt>
      <trkpt lat="37.942432" lon="-4.488737">
        <ele>256.302689</ele>
        <time>2020-08-12T07:00:40.368Z</time>
      </trkpt>
      <trkpt lat="37.942500" lon="-4.488841">
        <ele>255.765383</ele>
        <time>2020-08-12T07:00:43.369Z</time>
      </trkpt>
      <trkpt lat="37.942472" lon="-4.488969">
        <ele>255.237078</ele>
        <time>2020-08-12T07:00:45.360Z</time>
      </trkpt>
      <trkpt lat="37.942497" lon="-4.489109">
        <ele>254.666171</ele>
        <time>2020-08-12T07:00:47.374Z</time>
      </trkpt>
      <trkpt lat="37.942521" lon="-4.489228">
        <ele>254.177651</ele>
        <time>2020-08-12T07:00:49.369Z</time>
      </trkpt>
      <trkpt lat="37.942601" lon="-4.489291">
        <ele>253.702719</ele>
        <time>2020-08-12T07:00:50.365Z</time>
      </trkpt>
      <trkpt lat="37.942633" lon="-4.489454">
        <ele>253.034648</ele>
        <time>2020-08-12T07:00:53.367Z</time>
      </trkpt>
      <trkpt lat="37.942704" lon="-4.489566">
        <ele>252.463128</ele>
        <time>2020-08-12T07:00:55.377Z</time>
      </trkpt>
      <trkpt lat="37.942776" lon="-4.489731">
        <ele>251.713128</ele>
        <time>2020-08-12T07:00:57.373Z</time>
      </trkpt>
      <trkpt lat="37.942867" lon="-4.489713">
        <ele>251.248646</ele>
        <time>2020-08-12T07:00:58.361Z</time>
      </trkpt>
      <trkpt lat="37.942888" lon="-4.489837">
        <ele>250.744230</ele>
        <time>2020-08-12T07:01:00.374Z</time>
      </trkpt>
      <trkpt lat="37.942824" lon="-4.490053">
        <ele>249.826522</ele>
        <time>2020-08-12T07:01:03.371Z</time>
      </trkpt>
      <trkpt lat="37.942747" lon="-4.490162">
        <ele>249.244514</ele>
        <time>2020-08-12T07:01:06.361Z</time>
      </trkpt>
      <trkpt lat="37.942755" lon="-4.490314">
        <ele>245.137308</ele>
        <time>2020-08-12T07:01:09.374Z</time>
      </trkpt>
      <trkpt lat="37.942839" lon="-4.490387">
        <ele>241.122625</ele>
        <time>2020-08-12T07:01:14.367Z</time>
      </trkpt>
      <trkpt lat="37.942790" lon="-4.490551">
        <ele>235.670124</ele>
        <time>2020-08-12T07:01:16.372Z</time>
      </trkpt>
      <trkpt lat="37.942776" lon="-4.490676">
        <ele>231.744821</ele>
        <time>2020-08-12T07:01:19.372Z</time>
      </trkpt>
      <trkpt lat="37.942774" lon="-4.490839">
        <ele>226.676463</ele>
        <time>2020-08-12T07:01:22.373Z</time>
      </trkpt>
      <trkpt lat="37.942787" lon="-4.490960">
        <ele>222.879768</ele>
        <time>2020-08-12T07:01:24.375Z</time>
      </trkpt>
      <trkpt lat="37.942798" lon="-4.491086">
        <ele>218.938441</ele>
        <time>2020-08-12T07:01:26.374Z</time>
      </trkpt>
      <trkpt lat="37.942820" lon="-4.491209">
        <ele>215.017195</ele>
        <time>2020-08-12T07:01:28.364Z</time>
      </trkpt>
      <trkpt lat="37.942825" lon="-4.491407">
        <ele>208.858134</ele>
        <time>2020-08-12T07:01:30.368Z</time>
      </trkpt>
      <trkpt lat="37.942851" lon="-4.491522">
        <ele>205.138707</ele>
        <time>2020-08-12T07:01:32.375Z</time>
      </trkpt>
      <trkpt lat="37.942814" lon="-4.491635">
        <ele>201.334705</ele>
        <time>2020-08-12T07:01:36.374Z</time>
      </trkpt>
      <trkpt lat="37.942787" lon="-4.492057">
        <ele>188.171429</ele>
        <time>2020-08-12T07:01:44.368Z</time>
      </trkpt>
      <trkpt lat="37.942826" lon="-4.492206">
        <ele>183.290465</ele>
        <time>2020-08-12T07:01:46.369Z</time>
      </trkpt>
      <trkpt lat="37.942845" lon="-4.492318">
        <ele>179.728684</ele>
        <time>2020-08-12T07:01:48.369Z</time>
      </trkpt>
      <trkpt lat="37.942890" lon="-4.492431">
        <ele>178.334266</ele>
        <time>2020-08-12T07:01:50.374Z</time>
      </trkpt>
      <trkpt lat="37.942894" lon="-4.492584">
        <ele>178.511100</ele>
        <time>2020-08-12T07:01:52.364Z</time>
      </trkpt>
      <trkpt lat="37.942902" lon="-4.492700">
        <ele>178.645608</ele>
        <time>2020-08-12T07:01:54.379Z</time>
      </trkpt>
      <trkpt lat="37.942912" lon="-4.492863">
        <ele>178.834466</ele>
        <time>2020-08-12T07:01:57.379Z</time>
      </trkpt>
      <trkpt lat="37.942924" lon="-4.493031">
        <ele>179.029324</ele>
        <time>2020-08-12T07:02:00.369Z</time>
      </trkpt>
      <trkpt lat="37.942951" lon="-4.493172">
        <ele>179.196932</ele>
        <time>2020-08-12T07:02:03.373Z</time>
      </trkpt>
      <trkpt lat="37.942951" lon="-4.493315">
        <ele>179.362118</ele>
        <time>2020-08-12T07:02:06.368Z</time>
      </trkpt>
      <trkpt lat="37.942952" lon="-4.493461">
        <ele>179.530775</ele>
        <time>2020-08-12T07:02:09.360Z</time>
      </trkpt>
      <trkpt lat="37.942959" lon="-4.493616">
        <ele>179.710116</ele>
        <time>2020-08-12T07:02:12.368Z</time>
      </trkpt>
      <trkpt lat="37.942966" lon="-4.493758">
        <ele>179.874467</ele>
        <time>2020-08-12T07:02:15.374Z</time>
      </trkpt>
      <trkpt lat="37.942949" lon="-4.493880">
        <ele>180.017577</ele>
        <time>2020-08-12T07:02:17.373Z</time>
      </trkpt>
      <trkpt lat="37.942976" lon="-4.494041">
        <ele>180.207714</ele>
        <time>2020-08-12T07:02:20.363Z</time>
      </trkpt>
      <trkpt lat="37.943000" lon="-4.494187">
        <ele>180.379990</ele>
        <time>2020-08-12T07:02:23.374Z</time>
      </trkpt>
      <trkpt lat="37.943046" lon="-4.494311">
        <ele>180.538283</ele>
        <time>2020-08-12T07:02:26.360Z</time>
      </trkpt>
      <trkpt lat="37.943076" lon="-4.494438">
        <ele>180.691426</ele>
        <time>2020-08-12T07:02:29.358Z</time>
      </trkpt>
      <trkpt lat="37.943116" lon="-4.494558">
        <ele>180.841917</ele>
        <time>2020-08-12T07:02:32.369Z</time>
      </trkpt>
      <trkpt lat="37.943148" lon="-4.494700">
        <ele>180.965393</ele>
        <time>2020-08-12T07:02:35.374Z</time>
      </trkpt>
      <trkpt lat="37.943195" lon="-4.494812">
        <ele>181.060680</ele>
        <time>2020-08-12T07:02:38.379Z</time>
      </trkpt>
      <trkpt lat="37.943265" lon="-4.494920">
        <ele>181.165676</ele>
        <time>2020-08-12T07:02:41.365Z</time>
      </trkpt>
      <trkpt lat="37.943352" lon="-4.495032">
        <ele>181.283750</ele>
        <time>2020-08-12T07:02:44.371Z</time>
      </trkpt>
      <trkpt lat="37.943441" lon="-4.495152">
        <ele>181.407474</ele>
        <time>2020-08-12T07:02:47.366Z</time>
      </trkpt>
      <trkpt lat="37.943529" lon="-4.495256">
        <ele>181.522040</ele>
        <time>2020-08-12T07:02:50.365Z</time>
      </trkpt>
      <trkpt lat="37.943619" lon="-4.495358">
        <ele>181.637000</ele>
        <time>2020-08-12T07:02:53.373Z</time>
      </trkpt>
      <trkpt lat="37.943707" lon="-4.495466">
        <ele>181.753635</ele>
        <time>2020-08-12T07:02:56.376Z</time>
      </trkpt>
      <trkpt lat="37.943792" lon="-4.495587">
        <ele>181.875341</ele>
        <time>2020-08-12T07:02:59.368Z</time>
      </trkpt>
      <trkpt lat="37.943877" lon="-4.495711">
        <ele>181.998738</ele>
        <time>2020-08-12T07:03:02.378Z</time>
      </trkpt>
      <trkpt lat="37.943956" lon="-4.495826">
        <ele>182.113284</ele>
        <time>2020-08-12T07:03:05.364Z</time>
      </trkpt>
      <trkpt lat="37.944039" lon="-4.495932">
        <ele>182.225475</ele>
        <time>2020-08-12T07:03:08.369Z</time>
      </trkpt>
      <trkpt lat="37.944116" lon="-4.496028">
        <ele>182.328317</ele>
        <time>2020-08-12T07:03:11.374Z</time>
      </trkpt>
      <trkpt lat="37.944184" lon="-4.496138">
        <ele>182.433291</ele>
        <time>2020-08-12T07:03:14.363Z</time>
      </trkpt>
      <trkpt lat="37.944253" lon="-4.496268">
        <ele>182.550983</ele>
        <time>2020-08-12T07:03:17.367Z</time>
      </trkpt>
      <trkpt lat="37.944316" lon="-4.496381">
        <ele>183.182120</ele>
        <time>2020-08-12T07:03:20.372Z</time>
      </trkpt>
      <trkpt lat="37.944368" lon="-4.496508">
        <ele>184.173315</ele>
        <time>2020-08-12T07:03:23.377Z</time>
      </trkpt>
      <trkpt lat="37.944421" lon="-4.496622">
        <ele>185.089966</ele>
        <time>2020-08-12T07:03:26.363Z</time>
      </trkpt>
      <trkpt lat="37.944454" lon="-4.496733">
        <ele>185.911651</ele>
        <time>2020-08-12T07:03:29.356Z</time>
      </trkpt>
      <trkpt lat="37.944484" lon="-4.496879">
        <ele>186.956714</ele>
        <time>2020-08-12T07:03:33.364Z</time>
      </trkpt>
      <trkpt lat="37.944512" lon="-4.497020">
        <ele>187.963866</ele>
        <time>2020-08-12T07:03:37.379Z</time>
      </trkpt>
      <trkpt lat="37.944524" lon="-4.497165">
        <ele>188.973751</ele>
        <time>2020-08-12T07:03:41.370Z</time>
      </trkpt>
      <trkpt lat="37.944534" lon="-4.497312">
        <ele>189.995755</ele>
        <time>2020-08-12T07:03:45.378Z</time>
      </trkpt>
      <trkpt lat="37.944521" lon="-4.497452">
        <ele>190.972191</ele>
        <time>2020-08-12T07:03:49.365Z</time>
      </trkpt>
      <trkpt lat="37.944511" lon="-4.497579">
        <ele>191.856254</ele>
        <time>2020-08-12T07:03:53.362Z</time>
      </trkpt>
      <trkpt lat="37.944509" lon="-4.497719">
        <ele>192.826150</ele>
        <time>2020-08-12T07:03:57.368Z</time>
      </trkpt>
      <trkpt lat="37.944487" lon="-4.497860">
        <ele>193.821746</ele>
        <time>2020-08-12T07:04:01.372Z</time>
      </trkpt>
      <trkpt lat="37.944471" lon="-4.498004">
        <ele>194.829041</ele>
        <time>2020-08-12T07:04:05.354Z</time>
      </trkpt>
      <trkpt lat="37.944453" lon="-4.498149">
        <ele>195.845779</ele>
        <time>2020-08-12T07:04:09.365Z</time>
      </trkpt>
      <trkpt lat="37.944410" lon="-4.498275">
        <ele>196.796760</ele>
        <time>2020-08-12T07:04:13.377Z</time>
      </trkpt>
      <trkpt lat="37.944381" lon="-4.498426">
        <ele>197.873261</ele>
        <time>2020-08-12T07:04:17.370Z</time>
      </trkpt>
      <trkpt lat="37.944365" lon="-4.498549">
        <ele>198.729450</ele>
        <time>2020-08-12T07:04:19.376Z</time>
      </trkpt>
      <trkpt lat="37.944335" lon="-4.498698">
        <ele>199.772242</ele>
        <time>2020-08-12T07:04:21.365Z</time>
      </trkpt>
      <trkpt lat="37.944338" lon="-4.498853">
        <ele>200.823626</ele>
        <time>2020-08-12T07:04:23.366Z</time>
      </trkpt>
      <trkpt lat="37.944359" lon="-4.499035">
        <ele>202.070924</ele>
        <time>2020-08-12T07:04:25.364Z</time>
      </trkpt>
      <trkpt lat="37.944405" lon="-4.499213">
        <ele>203.341113</ele>
        <time>2020-08-12T07:04:27.362Z</time>
      </trkpt>
      <trkpt lat="37.944446" lon="-4.499409">
        <ele>204.716167</ele>
        <time>2020-08-12T07:04:29.367Z</time>
      </trkpt>
      <trkpt lat="37.944491" lon="-4.499585">
        <ele>205.970796</ele>
        <time>2020-08-12T07:04:31.369Z</time>
      </trkpt>
      <trkpt lat="37.944568" lon="-4.499681">
        <ele>206.899324</ele>
        <time>2020-08-12T07:04:32.363Z</time>
      </trkpt>
      <trkpt lat="37.944654" lon="-4.499875">
        <ele>208.408450</ele>
        <time>2020-08-12T07:04:34.363Z</time>
      </trkpt>
      <trkpt lat="37.944753" lon="-4.500058">
        <ele>209.913306</ele>
        <time>2020-08-12T07:04:36.372Z</time>
      </trkpt>
      <trkpt lat="37.944802" lon="-4.500160">
        <ele>210.723201</ele>
        <time>2020-08-12T07:04:37.355Z</time>
      </trkpt>
      <trkpt lat="37.944859" lon="-4.500252">
        <ele>211.516564</ele>
        <time>2020-08-12T07:04:38.370Z</time>
      </trkpt>
      <trkpt lat="37.944918" lon="-4.500352">
        <ele>212.363445</ele>
        <time>2020-08-12T07:04:39.367Z</time>
      </trkpt>
      <trkpt lat="37.944975" lon="-4.500456">
        <ele>213.222266</ele>
        <time>2020-08-12T07:04:40.371Z</time>
      </trkpt>
      <trkpt lat="37.945032" lon="-4.500552">
        <ele>213.895468</ele>
        <time>2020-08-12T07:04:41.370Z</time>
      </trkpt>
      <trkpt lat="37.945085" lon="-4.500668">
        <ele>214.096435</ele>
        <time>2020-08-12T07:04:42.360Z</time>
      </trkpt>
      <trkpt lat="37.945150" lon="-4.500767">
        <ele>214.289544</ele>
        <time>2020-08-12T07:04:43.373Z</time>
      </trkpt>
      <trkpt lat="37.945197" lon="-4.500864">
        <ele>214.460206</ele>
        <time>2020-08-12T07:04:44.371Z</time>
      </trkpt>
      <trkpt lat="37.945286" lon="-4.501021">
        <ele>214.750053</ele>
        <time>2020-08-12T07:04:46.365Z</time>
      </trkpt>
      <trkpt lat="37.945339" lon="-4.501113">
        <ele>214.920845</ele>
        <time>2020-08-12T07:04:47.361Z</time>
      </trkpt>
      <trkpt lat="37.945428" lon="-4.501287">
        <ele>215.231740</ele>
        <time>2020-08-12T07:04:49.375Z</time>
      </trkpt>
      <trkpt lat="37.945516" lon="-4.501436">
        <ele>215.510793</ele>
        <time>2020-08-12T07:04:51.375Z</time>
      </trkpt>
      <trkpt lat="37.945600" lon="-4.501584">
        <ele>215.784138</ele>
        <time>2020-08-12T07:04:53.367Z</time>
      </trkpt>
      <trkpt lat="37.945687" lon="-4.501734">
        <ele>216.063261</ele>
        <time>2020-08-12T07:04:55.383Z</time>
      </trkpt>
      <trkpt lat="37.945756" lon="-4.501889">
        <ele>216.330076</ele>
        <time>2020-08-12T07:04:57.369Z</time>
      </trkpt>
      <trkpt lat="37.945840" lon="-4.502023">
        <ele>216.586680</ele>
        <time>2020-08-12T07:04:59.363Z</time>
      </trkpt>
      <trkpt lat="37.945916" lon="-4.502167">
        <ele>216.846423</ele>
        <time>2020-08-12T07:05:01.368Z</time>
      </trkpt>
      <trkpt lat="37.945974" lon="-4.502284">
        <ele>217.053585</ele>
        <time>2020-08-12T07:05:03.367Z</time>
      </trkpt>
      <trkpt lat="37.946032" lon="-4.502402">
        <ele>217.262018</ele>
        <time>2020-08-12T07:05:05.369Z</time>
      </trkpt>
      <trkpt lat="37.946088" lon="-4.502516">
        <ele>217.108186</ele>
        <time>2020-08-12T07:05:07.371Z</time>
      </trkpt>
      <trkpt lat="37.946141" lon="-4.502619">
        <ele>216.946187</ele>
        <time>2020-08-12T07:05:09.365Z</time>
      </trkpt>
      <trkpt lat="37.946213" lon="-4.502743">
        <ele>216.743357</ele>
        <time>2020-08-12T07:05:12.378Z</time>
      </trkpt>
      <trkpt lat="37.946266" lon="-4.502845">
        <ele>216.582461</ele>
        <time>2020-08-12T07:05:14.370Z</time>
      </trkpt>
      <trkpt lat="37.946321" lon="-4.502947">
        <ele>216.419703</ele>
        <time>2020-08-12T07:05:16.368Z</time>
      </trkpt>
      <trkpt lat="37.946403" lon="-4.503084">
        <ele>216.193156</ele>
        <time>2020-08-12T07:05:19.359Z</time>
      </trkpt>
      <trkpt lat="37.946471" lon="-4.503176">
        <ele>216.027068</ele>
        <time>2020-08-12T07:05:22.379Z</time>
      </trkpt>
      <trkpt lat="37.946547" lon="-4.503261">
        <ele>215.857805</ele>
        <time>2020-08-12T07:05:25.365Z</time>
      </trkpt>
      <trkpt lat="37.946604" lon="-4.503373">
        <ele>215.682227</ele>
        <time>2020-08-12T07:05:28.377Z</time>
      </trkpt>
      <trkpt lat="37.946654" lon="-4.503480">
        <ele>215.518402</ele>
        <time>2020-08-12T07:05:31.371Z</time>
      </trkpt>
      <trkpt lat="37.946713" lon="-4.503580">
        <ele>215.353899</ele>
        <time>2020-08-12T07:05:34.381Z</time>
      </trkpt>
      <trkpt lat="37.946774" lon="-4.503678">
        <ele>215.189449</ele>
        <time>2020-08-12T07:05:37.371Z</time>
      </trkpt>
      <trkpt lat="37.946831" lon="-4.503788">
        <ele>215.016078</ele>
        <time>2020-08-12T07:05:40.369Z</time>
      </trkpt>
      <trkpt lat="37.946885" lon="-4.503890">
        <ele>214.854258</ele>
        <time>2020-08-12T07:05:43.376Z</time>
      </trkpt>
      <trkpt lat="37.946942" lon="-4.503992">
        <ele>214.689592</ele>
        <time>2020-08-12T07:05:46.378Z</time>
      </trkpt>
      <trkpt lat="37.946992" lon="-4.504120">
        <ele>214.501443</ele>
        <time>2020-08-12T07:05:49.381Z</time>
      </trkpt>
      <trkpt lat="37.947047" lon="-4.504240">
        <ele>214.318624</ele>
        <time>2020-08-12T07:05:52.360Z</time>
      </trkpt>
      <trkpt lat="37.947098" lon="-4.504366">
        <ele>214.354439</ele>
        <time>2020-08-12T07:05:55.375Z</time>
      </trkpt>
      <trkpt lat="37.947142" lon="-4.504488">
        <ele>214.462596</ele>
        <time>2020-08-12T07:05:58.363Z</time>
      </trkpt>
      <trkpt lat="37.947185" lon="-4.504617">
        <ele>214.575507</ele>
        <time>2020-08-12T07:06:01.371Z</time>
      </trkpt>
      <trkpt lat="37.947222" lon="-4.504740">
        <ele>214.681640</ele>
        <time>2020-08-12T07:06:04.374Z</time>
      </trkpt>
      <trkpt lat="37.947253" lon="-4.504862">
        <ele>214.784978</ele>
        <time>2020-08-12T07:06:07.372Z</time>
      </trkpt>
      <trkpt lat="37.947296" lon="-4.504981">
        <ele>214.890510</ele>
        <time>2020-08-12T07:06:10.374Z</time>
      </trkpt>
      <trkpt lat="37.947338" lon="-4.505108">
        <ele>215.001538</ele>
        <time>2020-08-12T07:06:13.378Z</time>
      </trkpt>
      <trkpt lat="37.947387" lon="-4.505247">
        <ele>215.124288</ele>
        <time>2020-08-12T07:06:16.372Z</time>
      </trkpt>
      <trkpt lat="37.947446" lon="-4.505394">
        <ele>215.257268</ele>
        <time>2020-08-12T07:06:19.377Z</time>
      </trkpt>
      <trkpt lat="37.947498" lon="-4.505534">
        <ele>215.382031</ele>
        <time>2020-08-12T07:06:22.368Z</time>
      </trkpt>
      <trkpt lat="37.947501" lon="-4.505671">
        <ele>215.492524</ele>
        <time>2020-08-12T07:06:24.380Z</time>
      </trkpt>
      <trkpt lat="37.947565" lon="-4.505771">
        <ele>215.596355</ele>
        <time>2020-08-12T07:06:27.369Z</time>
      </trkpt>
      <trkpt lat="37.947569" lon="-4.505939">
        <ele>215.731859</ele>
        <time>2020-08-12T07:06:29.377Z</time>
      </trkpt>
      <trkpt lat="37.947600" lon="-4.506072">
        <ele>215.843671</ele>
        <time>2020-08-12T07:06:31.352Z</time>
      </trkpt>
      <trkpt lat="37.947658" lon="-4.506192">
        <ele>215.957142</ele>
        <time>2020-08-12T07:06:36.377Z</time>
      </trkpt>
      <trkpt lat="37.947713" lon="-4.506297">
        <ele>216.058767</ele>
        <time>2020-08-12T07:06:38.366Z</time>
      </trkpt>
      <trkpt lat="37.947731" lon="-4.506416">
        <ele>216.129856</ele>
        <time>2020-08-12T07:06:40.358Z</time>
      </trkpt>
      <trkpt lat="37.947796" lon="-4.506534">
        <ele>216.181030</ele>
        <time>2020-08-12T07:06:43.376Z</time>
      </trkpt>
      <trkpt lat="37.947830" lon="-4.506671">
        <ele>216.232093</ele>
        <time>2020-08-12T07:06:46.369Z</time>
      </trkpt>
      <trkpt lat="37.947859" lon="-4.506814">
        <ele>216.284588</ele>
        <time>2020-08-12T07:06:49.374Z</time>
      </trkpt>
      <trkpt lat="37.947881" lon="-4.506942">
        <ele>216.331164</ele>
        <time>2020-08-12T07:06:51.377Z</time>
      </trkpt>
      <trkpt lat="37.947902" lon="-4.507068">
        <ele>216.376951</ele>
        <time>2020-08-12T07:06:53.378Z</time>
      </trkpt>
      <trkpt lat="37.947940" lon="-4.507191">
        <ele>216.423917</ele>
        <time>2020-08-12T07:06:55.375Z</time>
      </trkpt>
      <trkpt lat="37.947981" lon="-4.507307">
        <ele>216.469112</ele>
        <time>2020-08-12T07:06:57.377Z</time>
      </trkpt>
      <trkpt lat="37.948015" lon="-4.507446">
        <ele>216.520853</ele>
        <time>2020-08-12T07:07:00.358Z</time>
      </trkpt>
      <trkpt lat="37.948046" lon="-4.507558">
        <ele>216.563054</ele>
        <time>2020-08-12T07:07:02.377Z</time>
      </trkpt>
      <trkpt lat="37.948091" lon="-4.507676">
        <ele>216.609655</ele>
        <time>2020-08-12T07:07:04.369Z</time>
      </trkpt>
      <trkpt lat="37.948112" lon="-4.507797">
        <ele>216.653703</ele>
        <time>2020-08-12T07:07:06.380Z</time>
      </trkpt>
      <trkpt lat="37.948141" lon="-4.507916">
        <ele>216.697985</ele>
        <time>2020-08-12T07:07:08.376Z</time>
      </trkpt>
      <trkpt lat="37.948176" lon="-4.508081">
        <ele>216.758733</ele>
        <time>2020-08-12T07:07:11.375Z</time>
      </trkpt>
      <trkpt lat="37.948221" lon="-4.508197">
        <ele>216.804694</ele>
        <time>2020-08-12T07:07:13.377Z</time>
      </trkpt>
      <trkpt lat="37.948262" lon="-4.508349">
        <ele>216.861808</ele>
        <time>2020-08-12T07:07:16.368Z</time>
      </trkpt>
      <trkpt lat="37.948306" lon="-4.508488">
        <ele>216.915060</ele>
        <time>2020-08-12T07:07:19.378Z</time>
      </trkpt>
      <trkpt lat="37.948329" lon="-4.508644">
        <ele>217.298912</ele>
        <time>2020-08-12T07:07:22.372Z</time>
      </trkpt>
      <trkpt lat="37.948356" lon="-4.508756">
        <ele>217.604327</ele>
        <time>2020-08-12T07:07:24.367Z</time>
      </trkpt>
      <trkpt lat="37.948376" lon="-4.508884">
        <ele>217.944613</ele>
        <time>2020-08-12T07:07:26.373Z</time>
      </trkpt>
      <trkpt lat="37.948400" lon="-4.508996">
        <ele>218.247276</ele>
        <time>2020-08-12T07:07:28.370Z</time>
      </trkpt>
      <trkpt lat="37.948413" lon="-4.509116">
        <ele>218.563149</ele>
        <time>2020-08-12T07:07:30.368Z</time>
      </trkpt>
      <trkpt lat="37.948436" lon="-4.509230">
        <ele>218.870012</ele>
        <time>2020-08-12T07:07:32.360Z</time>
      </trkpt>
      <trkpt lat="37.948463" lon="-4.509387">
        <ele>219.289056</ele>
        <time>2020-08-12T07:07:35.373Z</time>
      </trkpt>
      <trkpt lat="37.948461" lon="-4.509501">
        <ele>219.586417</ele>
        <time>2020-08-12T07:07:37.371Z</time>
      </trkpt>
      <trkpt lat="37.948486" lon="-4.509625">
        <ele>219.920183</ele>
        <time>2020-08-12T07:07:39.369Z</time>
      </trkpt>
      <trkpt lat="37.948503" lon="-4.509798">
        <ele>220.374818</ele>
        <time>2020-08-12T07:07:42.367Z</time>
      </trkpt>
      <trkpt lat="37.948525" lon="-4.509909">
        <ele>220.673284</ele>
        <time>2020-08-12T07:07:44.376Z</time>
      </trkpt>
      <trkpt lat="37.948585" lon="-4.510033">
        <ele>221.052671</ele>
        <time>2020-08-12T07:07:46.375Z</time>
      </trkpt>
      <trkpt lat="37.948632" lon="-4.510174">
        <ele>221.451868</ele>
        <time>2020-08-12T07:07:49.365Z</time>
      </trkpt>
      <trkpt lat="37.948664" lon="-4.510334">
        <ele>221.882323</ele>
        <time>2020-08-12T07:07:53.371Z</time>
      </trkpt>
      <trkpt lat="37.948723" lon="-4.510489">
        <ele>222.331155</ele>
        <time>2020-08-12T07:07:56.373Z</time>
      </trkpt>
      <trkpt lat="37.948742" lon="-4.510632">
        <ele>222.709322</ele>
        <time>2020-08-12T07:07:59.373Z</time>
      </trkpt>
      <trkpt lat="37.948783" lon="-4.510739">
        <ele>222.596102</ele>
        <time>2020-08-12T07:08:02.374Z</time>
      </trkpt>
      <trkpt lat="37.948828" lon="-4.510855">
        <ele>221.991872</ele>
        <time>2020-08-12T07:08:05.372Z</time>
      </trkpt>
      <trkpt lat="37.948865" lon="-4.510978">
        <ele>221.376571</ele>
        <time>2020-08-12T07:08:08.375Z</time>
      </trkpt>
      <trkpt lat="37.948906" lon="-4.511105">
        <ele>220.735166</ele>
        <time>2020-08-12T07:08:11.377Z</time>
      </trkpt>
      <trkpt lat="37.948952" lon="-4.511232">
        <ele>220.081956</ele>
        <time>2020-08-12T07:08:14.371Z</time>
      </trkpt>
      <trkpt lat="37.948987" lon="-4.511359">
        <ele>219.453163</ele>
        <time>2020-08-12T07:08:17.368Z</time>
      </trkpt>
      <trkpt lat="37.949033" lon="-4.511479">
        <ele>218.829536</ele>
        <time>2020-08-12T07:08:20.370Z</time>
      </trkpt>
      <trkpt lat="37.949068" lon="-4.511621">
        <ele>218.134176</ele>
        <time>2020-08-12T07:08:23.369Z</time>
      </trkpt>
      <trkpt lat="37.949102" lon="-4.511754">
        <ele>217.480697</ele>
        <time>2020-08-12T07:08:26.375Z</time>
      </trkpt>
      <trkpt lat="37.949125" lon="-4.511912">
        <ele>216.729743</ele>
        <time>2020-08-12T07:08:29.372Z</time>
      </trkpt>
      <trkpt lat="37.949150" lon="-4.512069">
        <ele>215.981130</ele>
        <time>2020-08-12T07:08:32.362Z</time>
      </trkpt>
      <trkpt lat="37.949160" lon="-4.512214">
        <ele>215.300828</ele>
        <time>2020-08-12T07:08:35.370Z</time>
      </trkpt>
      <trkpt lat="37.949177" lon="-4.512346">
        <ele>214.675699</ele>
        <time>2020-08-12T07:08:38.353Z</time>
      </trkpt>
      <trkpt lat="37.949193" lon="-4.512474">
        <ele>214.069971</ele>
        <time>2020-08-12T07:08:41.370Z</time>
      </trkpt>
      <trkpt lat="37.949203" lon="-4.512594">
        <ele>213.505980</ele>
        <time>2020-08-12T07:08:44.370Z</time>
      </trkpt>
      <trkpt lat="37.949208" lon="-4.512727">
        <ele>212.883646</ele>
        <time>2020-08-12T07:08:47.367Z</time>
      </trkpt>
      <trkpt lat="37.949221" lon="-4.512868">
        <ele>212.220138</ele>
        <time>2020-08-12T07:08:50.367Z</time>
      </trkpt>
      <trkpt lat="37.949234" lon="-4.513013">
        <ele>212.101124</ele>
        <time>2020-08-12T07:08:53.364Z</time>
      </trkpt>
      <trkpt lat="37.949250" lon="-4.513170">
        <ele>211.983953</ele>
        <time>2020-08-12T07:08:56.368Z</time>
      </trkpt>
      <trkpt lat="37.949263" lon="-4.513335">
        <ele>211.861220</ele>
        <time>2020-08-12T07:08:59.369Z</time>
      </trkpt>
      <trkpt lat="37.949274" lon="-4.513496">
        <ele>211.741608</ele>
        <time>2020-08-12T07:09:02.376Z</time>
      </trkpt>
      <trkpt lat="37.949288" lon="-4.513659">
        <ele>211.620250</ele>
        <time>2020-08-12T07:09:05.371Z</time>
      </trkpt>
      <trkpt lat="37.949305" lon="-4.513828">
        <ele>211.494150</ele>
        <time>2020-08-12T07:09:08.379Z</time>
      </trkpt>
      <trkpt lat="37.949316" lon="-4.513943">
        <ele>211.408408</ele>
        <time>2020-08-12T07:09:10.370Z</time>
      </trkpt>
      <trkpt lat="37.949338" lon="-4.514109">
        <ele>211.283819</ele>
        <time>2020-08-12T07:09:13.370Z</time>
      </trkpt>
      <trkpt lat="37.949349" lon="-4.514280">
        <ele>211.156833</ele>
        <time>2020-08-12T07:09:16.380Z</time>
      </trkpt>
      <trkpt lat="37.949370" lon="-4.514434">
        <ele>211.041157</ele>
        <time>2020-08-12T07:09:19.375Z</time>
      </trkpt>
      <trkpt lat="37.949377" lon="-4.514586">
        <ele>210.928462</ele>
        <time>2020-08-12T07:09:22.373Z</time>
      </trkpt>
      <trkpt lat="37.949394" lon="-4.514745">
        <ele>210.809701</ele>
        <time>2020-08-12T07:09:25.367Z</time>
      </trkpt>
      <trkpt lat="37.949410" lon="-4.514903">
        <ele>210.691796</ele>
        <time>2020-08-12T07:09:28.363Z</time>
      </trkpt>
      <trkpt lat="37.949418" lon="-4.515049">
        <ele>210.583474</ele>
        <time>2020-08-12T07:09:31.373Z</time>
      </trkpt>
      <trkpt lat="37.949423" lon="-4.515183">
        <ele>210.699341</ele>
        <time>2020-08-12T07:09:34.374Z</time>
      </trkpt>
      <trkpt lat="37.949428" lon="-4.515312">
        <ele>211.197473</ele>
        <time>2020-08-12T07:09:37.378Z</time>
      </trkpt>
      <trkpt lat="37.949438" lon="-4.515443">
        <ele>211.705081</ele>
        <time>2020-08-12T07:09:40.375Z</time>
      </trkpt>
      <trkpt lat="37.949449" lon="-4.515562">
        <ele>212.167187</ele>
        <time>2020-08-12T07:09:43.372Z</time>
      </trkpt>
      <trkpt lat="37.949450" lon="-4.515692">
        <ele>212.668600</ele>
        <time>2020-08-12T07:09:47.385Z</time>
      </trkpt>
      <trkpt lat="37.949461" lon="-4.515836">
        <ele>213.226584</ele>
        <time>2020-08-12T07:09:51.370Z</time>
      </trkpt>
      <trkpt lat="37.949480" lon="-4.515959">
        <ele>213.709991</ele>
        <time>2020-08-12T07:09:54.382Z</time>
      </trkpt>
      <trkpt lat="37.949494" lon="-4.516080">
        <ele>214.181665</ele>
        <time>2020-08-12T07:09:57.371Z</time>
      </trkpt>
      <trkpt lat="37.949507" lon="-4.516195">
        <ele>214.629735</ele>
        <time>2020-08-12T07:10:00.376Z</time>
      </trkpt>
      <trkpt lat="37.949524" lon="-4.516336">
        <ele>215.179869</ele>
        <time>2020-08-12T07:10:04.375Z</time>
      </trkpt>
      <trkpt lat="37.949540" lon="-4.516485">
        <ele>215.759841</ele>
        <time>2020-08-12T07:10:08.375Z</time>
      </trkpt>
      <trkpt lat="37.949554" lon="-4.516627">
        <ele>216.311775</ele>
        <time>2020-08-12T07:10:12.377Z</time>
      </trkpt>
      <trkpt lat="37.949559" lon="-4.516764">
        <ele>216.840726</ele>
        <time>2020-08-12T07:10:16.376Z</time>
      </trkpt>
      <trkpt lat="37.949577" lon="-4.516899">
        <ele>217.368789</ele>
        <time>2020-08-12T07:10:20.360Z</time>
      </trkpt>
      <trkpt lat="37.949591" lon="-4.517036">
        <ele>217.901593</ele>
        <time>2020-08-12T07:10:24.376Z</time>
      </trkpt>
      <trkpt lat="37.949604" lon="-4.517158">
        <ele>218.376403</ele>
        <time>2020-08-12T07:10:27.377Z</time>
      </trkpt>
      <trkpt lat="37.949621" lon="-4.517278">
        <ele>218.846632</ele>
        <time>2020-08-12T07:10:30.368Z</time>
      </trkpt>
      <trkpt lat="37.949641" lon="-4.517402">
        <ele>219.340645</ele>
        <time>2020-08-12T07:10:33.352Z</time>
      </trkpt>
      <trkpt lat="37.949658" lon="-4.517528">
        <ele>219.987941</ele>
        <time>2020-08-12T07:10:36.380Z</time>
      </trkpt>
      <trkpt lat="37.949673" lon="-4.517649">
        <ele>220.608171</ele>
        <time>2020-08-12T07:10:39.384Z</time>
      </trkpt>
      <trkpt lat="37.949685" lon="-4.517779">
        <ele>221.270945</ele>
        <time>2020-08-12T07:10:42.372Z</time>
      </trkpt>
      <trkpt lat="37.949705" lon="-4.517908">
        <ele>221.936665</ele>
        <time>2020-08-12T07:10:45.373Z</time>
      </trkpt>
      <trkpt lat="37.949725" lon="-4.518039">
        <ele>222.612325</ele>
        <time>2020-08-12T07:10:48.370Z</time>
      </trkpt>
      <trkpt lat="37.949741" lon="-4.518167">
        <ele>223.268569</ele>
        <time>2020-08-12T07:10:51.369Z</time>
      </trkpt>
      <trkpt lat="37.949750" lon="-4.518298">
        <ele>223.934423</ele>
        <time>2020-08-12T07:10:54.369Z</time>
      </trkpt>
      <trkpt lat="37.949760" lon="-4.518438">
        <ele>224.646240</ele>
        <time>2020-08-12T07:10:57.370Z</time>
      </trkpt>
      <trkpt lat="37.949769" lon="-4.518578">
        <ele>225.357507</ele>
        <time>2020-08-12T07:11:00.369Z</time>
      </trkpt>
      <trkpt lat="37.949768" lon="-4.518720">
        <ele>226.076577</ele>
        <time>2020-08-12T07:11:03.378Z</time>
      </trkpt>
      <trkpt lat="37.949765" lon="-4.518852">
        <ele>226.745260</ele>
        <time>2020-08-12T07:11:06.378Z</time>
      </trkpt>
      <trkpt lat="37.949746" lon="-4.518998">
        <ele>227.494557</ele>
        <time>2020-08-12T07:11:09.376Z</time>
      </trkpt>
      <trkpt lat="37.949731" lon="-4.519159">
        <ele>228.315479</ele>
        <time>2020-08-12T07:11:12.373Z</time>
      </trkpt>
      <trkpt lat="37.949721" lon="-4.519318">
        <ele>229.123161</ele>
        <time>2020-08-12T07:11:15.381Z</time>
      </trkpt>
      <trkpt lat="37.949713" lon="-4.519471">
        <ele>229.899605</ele>
        <time>2020-08-12T07:11:18.362Z</time>
      </trkpt>
      <trkpt lat="37.949690" lon="-4.519625">
        <ele>230.693275</ele>
        <time>2020-08-12T07:11:21.373Z</time>
      </trkpt>
      <trkpt lat="37.949659" lon="-4.519775">
        <ele>231.180013</ele>
        <time>2020-08-12T07:11:24.374Z</time>
      </trkpt>
      <trkpt lat="37.949620" lon="-4.519883">
        <ele>231.488383</ele>
        <time>2020-08-12T07:11:26.364Z</time>
      </trkpt>
      <trkpt lat="37.949601" lon="-4.520005">
        <ele>231.811215</ele>
        <time>2020-08-12T07:11:28.374Z</time>
      </trkpt>
      <trkpt lat="37.949567" lon="-4.520126">
        <ele>232.144680</ele>
        <time>2020-08-12T07:11:30.379Z</time>
      </trkpt>
      <trkpt lat="37.949537" lon="-4.520235">
        <ele>232.444386</ele>
        <time>2020-08-12T07:11:32.372Z</time>
      </trkpt>
      <trkpt lat="37.949502" lon="-4.520367">
        <ele>232.805915</ele>
        <time>2020-08-12T07:11:34.363Z</time>
      </trkpt>
      <trkpt lat="37.949462" lon="-4.520487">
        <ele>233.144126</ele>
        <time>2020-08-12T07:11:36.375Z</time>
      </trkpt>
      <trkpt lat="37.949435" lon="-4.520619">
        <ele>233.498142</ele>
        <time>2020-08-12T07:11:38.377Z</time>
      </trkpt>
      <trkpt lat="37.949390" lon="-4.520758">
        <ele>233.888216</ele>
        <time>2020-08-12T07:11:40.377Z</time>
      </trkpt>
      <trkpt lat="37.949379" lon="-4.520897">
        <ele>234.250876</ele>
        <time>2020-08-12T07:11:42.383Z</time>
      </trkpt>
      <trkpt lat="37.949342" lon="-4.521044">
        <ele>234.651461</ele>
        <time>2020-08-12T07:11:44.381Z</time>
      </trkpt>
      <trkpt lat="37.949323" lon="-4.521202">
        <ele>235.066375</ele>
        <time>2020-08-12T07:11:46.362Z</time>
      </trkpt>
      <trkpt lat="37.949297" lon="-4.521375">
        <ele>235.523572</ele>
        <time>2020-08-12T07:11:48.359Z</time>
      </trkpt>
      <trkpt lat="37.949261" lon="-4.521550">
        <ele>235.993081</ele>
        <time>2020-08-12T07:11:50.372Z</time>
      </trkpt>
      <trkpt lat="37.949222" lon="-4.521722">
        <ele>236.457691</ele>
        <time>2020-08-12T07:11:52.370Z</time>
      </trkpt>
      <trkpt lat="37.949201" lon="-4.521896">
        <ele>236.979249</ele>
        <time>2020-08-12T07:11:54.374Z</time>
      </trkpt>
      <trkpt lat="37.949165" lon="-4.522083">
        <ele>237.732572</ele>
        <time>2020-08-12T07:11:56.362Z</time>
      </trkpt>
      <trkpt lat="37.949152" lon="-4.522269">
        <ele>238.463342</ele>
        <time>2020-08-12T07:11:58.376Z</time>
      </trkpt>
      <trkpt lat="37.949119" lon="-4.522441">
        <ele>239.156106</ele>
        <time>2020-08-12T07:12:00.373Z</time>
      </trkpt>
      <trkpt lat="37.949117" lon="-4.522613">
        <ele>239.829306</ele>
        <time>2020-08-12T07:12:02.372Z</time>
      </trkpt>
      <trkpt lat="37.949094" lon="-4.522787">
        <ele>240.519761</ele>
        <time>2020-08-12T07:12:04.374Z</time>
      </trkpt>
      <trkpt lat="37.949081" lon="-4.522962">
        <ele>241.207661</ele>
        <time>2020-08-12T07:12:06.369Z</time>
      </trkpt>
      <trkpt lat="37.949047" lon="-4.523139">
        <ele>241.920613</ele>
        <time>2020-08-12T07:12:08.379Z</time>
      </trkpt>
      <trkpt lat="37.948998" lon="-4.523306">
        <ele>242.617949</ele>
        <time>2020-08-12T07:12:10.380Z</time>
      </trkpt>
      <trkpt lat="37.948973" lon="-4.523472">
        <ele>243.279338</ele>
        <time>2020-08-12T07:12:12.384Z</time>
      </trkpt>
      <trkpt lat="37.948954" lon="-4.523636">
        <ele>243.928048</ele>
        <time>2020-08-12T07:12:14.372Z</time>
      </trkpt>
      <trkpt lat="37.948917" lon="-4.523781">
        <ele>244.524482</ele>
        <time>2020-08-12T07:12:16.375Z</time>
      </trkpt>
      <trkpt lat="37.948837" lon="-4.523940">
        <ele>245.262610</ele>
        <time>2020-08-12T07:12:18.380Z</time>
      </trkpt>
      <trkpt lat="37.948786" lon="-4.524109">
        <ele>245.843101</ele>
        <time>2020-08-12T07:12:20.375Z</time>
      </trkpt>
      <trkpt lat="37.948732" lon="-4.524294">
        <ele>246.231438</ele>
        <time>2020-08-12T07:12:22.365Z</time>
      </trkpt>
      <trkpt lat="37.948679" lon="-4.524467">
        <ele>246.596801</ele>
        <time>2020-08-12T07:12:24.372Z</time>
      </trkpt>
      <trkpt lat="37.948602" lon="-4.524661">
        <ele>247.024354</ele>
        <time>2020-08-12T07:12:26.367Z</time>
      </trkpt>
      <trkpt lat="37.948539" lon="-4.524831">
        <ele>247.394127</ele>
        <time>2020-08-12T07:12:28.371Z</time>
      </trkpt>
      <trkpt lat="37.948502" lon="-4.525043">
        <ele>247.821566</ele>
        <time>2020-08-12T07:12:30.367Z</time>
      </trkpt>
      <trkpt lat="37.948456" lon="-4.525154">
        <ele>248.068417</ele>
        <time>2020-08-12T07:12:31.373Z</time>
      </trkpt>
      <trkpt lat="37.948409" lon="-4.525265">
        <ele>248.316438</ele>
        <time>2020-08-12T07:12:32.377Z</time>
      </trkpt>
      <trkpt lat="37.948403" lon="-4.525422">
        <ele>248.625870</ele>
        <time>2020-08-12T07:12:33.355Z</time>
      </trkpt>
      <trkpt lat="37.948375" lon="-4.525583">
        <ele>248.950429</ele>
        <time>2020-08-12T07:12:34.373Z</time>
      </trkpt>
      <trkpt lat="37.948260" lon="-4.525755">
        <ele>249.394352</ele>
        <time>2020-08-12T07:12:36.375Z</time>
      </trkpt>
      <trkpt lat="37.948165" lon="-4.525938">
        <ele>249.825660</ele>
        <time>2020-08-12T07:12:38.380Z</time>
      </trkpt>
      <trkpt lat="37.948108" lon="-4.526139">
        <ele>250.107077</ele>
        <time>2020-08-12T07:12:40.369Z</time>
      </trkpt>
      <trkpt lat="37.948044" lon="-4.526344">
        <ele>249.107665</ele>
        <time>2020-08-12T07:12:42.366Z</time>
      </trkpt>
      <trkpt lat="37.948017" lon="-4.526549">
        <ele>248.165555</ele>
        <time>2020-08-12T07:12:44.372Z</time>
      </trkpt>
      <trkpt lat="37.947998" lon="-4.526786">
        <ele>247.085727</ele>
        <time>2020-08-12T07:12:46.361Z</time>
      </trkpt>
      <trkpt lat="37.947991" lon="-4.526933">
        <ele>246.418181</ele>
        <time>2020-08-12T07:12:47.370Z</time>
      </trkpt>
      <trkpt lat="37.947989" lon="-4.527060">
        <ele>245.842391</ele>
        <time>2020-08-12T07:12:48.374Z</time>
      </trkpt>
      <trkpt lat="37.947987" lon="-4.527177">
        <ele>245.311920</ele>
        <time>2020-08-12T07:12:49.371Z</time>
      </trkpt>
      <trkpt lat="37.947990" lon="-4.527292">
        <ele>244.790355</ele>
        <time>2020-08-12T07:12:50.358Z</time>
      </trkpt>
      <trkpt lat="37.947976" lon="-4.527412">
        <ele>244.240489</ele>
        <time>2020-08-12T07:12:51.354Z</time>
      </trkpt>
      <trkpt lat="37.947986" lon="-4.527531">
        <ele>243.698023</ele>
        <time>2020-08-12T07:12:52.366Z</time>
      </trkpt>
      <trkpt lat="37.948020" lon="-4.527732">
        <ele>242.766190</ele>
        <time>2020-08-12T07:12:54.375Z</time>
      </trkpt>
      <trkpt lat="37.948029" lon="-4.527850">
        <ele>242.228815</ele>
        <time>2020-08-12T07:12:55.370Z</time>
      </trkpt>
      <trkpt lat="37.948030" lon="-4.528034">
        <ele>241.394747</ele>
        <time>2020-08-12T07:12:56.365Z</time>
      </trkpt>
      <trkpt lat="37.948091" lon="-4.528133">
        <ele>240.825247</ele>
        <time>2020-08-12T07:12:57.375Z</time>
      </trkpt>
      <trkpt lat="37.948094" lon="-4.528291">
        <ele>240.108847</ele>
        <time>2020-08-12T07:12:59.368Z</time>
      </trkpt>
      <trkpt lat="37.948144" lon="-4.528456">
        <ele>238.762373</ele>
        <time>2020-08-12T07:13:01.376Z</time>
      </trkpt>
      <trkpt lat="37.948177" lon="-4.528693">
        <ele>236.604454</ele>
        <time>2020-08-12T07:13:03.371Z</time>
      </trkpt>
      <trkpt lat="37.948211" lon="-4.528873">
        <ele>234.944839</ele>
        <time>2020-08-12T07:13:05.371Z</time>
      </trkpt>
      <trkpt lat="37.948278" lon="-4.529024">
        <ele>233.391292</ele>
        <time>2020-08-12T07:13:07.354Z</time>
      </trkpt>
      <trkpt lat="37.948303" lon="-4.529172">
        <ele>232.034156</ele>
        <time>2020-08-12T07:13:09.355Z</time>
      </trkpt>
      <trkpt lat="37.948331" lon="-4.529336">
        <ele>230.529592</ele>
        <time>2020-08-12T07:13:11.364Z</time>
      </trkpt>
      <trkpt lat="37.948345" lon="-4.529477">
        <ele>229.255345</ele>
        <time>2020-08-12T07:13:13.358Z</time>
      </trkpt>
      <trkpt lat="37.948370" lon="-4.529625">
        <ele>227.898211</ele>
        <time>2020-08-12T07:13:15.368Z</time>
      </trkpt>
      <trkpt lat="37.948398" lon="-4.529765">
        <ele>226.603168</ele>
        <time>2020-08-12T07:13:17.361Z</time>
      </trkpt>
      <trkpt lat="37.948428" lon="-4.529892">
        <ele>225.414439</ele>
        <time>2020-08-12T07:13:19.360Z</time>
      </trkpt>
      <trkpt lat="37.948455" lon="-4.530013">
        <ele>224.286904</ele>
        <time>2020-08-12T07:13:21.386Z</time>
      </trkpt>
      <trkpt lat="37.948473" lon="-4.530136">
        <ele>223.165206</ele>
        <time>2020-08-12T07:13:23.368Z</time>
      </trkpt>
      <trkpt lat="37.948501" lon="-4.530255">
        <ele>222.051718</ele>
        <time>2020-08-12T07:13:25.365Z</time>
      </trkpt>
      <trkpt lat="37.948511" lon="-4.530376">
        <ele>220.960841</ele>
        <time>2020-08-12T07:13:27.375Z</time>
      </trkpt>
      <trkpt lat="37.948530" lon="-4.530546">
        <ele>219.421320</ele>
        <time>2020-08-12T07:13:30.371Z</time>
      </trkpt>
      <trkpt lat="37.948536" lon="-4.530666">
        <ele>219.145457</ele>
        <time>2020-08-12T07:13:32.365Z</time>
      </trkpt>
      <trkpt lat="37.948538" lon="-4.530811">
        <ele>218.819819</ele>
        <time>2020-08-12T07:13:34.368Z</time>
      </trkpt>
      <trkpt lat="37.948603" lon="-4.530947">
        <ele>218.462728</ele>
        <time>2020-08-12T07:13:37.366Z</time>
      </trkpt>
      <trkpt lat="37.948650" lon="-4.531062">
        <ele>218.171883</ele>
        <time>2020-08-12T07:13:39.370Z</time>
      </trkpt>
      <trkpt lat="37.948707" lon="-4.531189">
        <ele>217.843759</ele>
        <time>2020-08-12T07:13:41.358Z</time>
      </trkpt>
      <trkpt lat="37.948747" lon="-4.531323">
        <ele>217.522035</ele>
        <time>2020-08-12T07:13:43.372Z</time>
      </trkpt>
      <trkpt lat="37.948740" lon="-4.531465">
        <ele>217.202562</ele>
        <time>2020-08-12T07:13:45.364Z</time>
      </trkpt>
      <trkpt lat="37.948693" lon="-4.531632">
        <ele>216.804408</ele>
        <time>2020-08-12T07:13:47.363Z</time>
      </trkpt>
      <trkpt lat="37.948688" lon="-4.531775">
        <ele>216.482997</ele>
        <time>2020-08-12T07:13:49.382Z</time>
      </trkpt>
      <trkpt lat="37.948696" lon="-4.531909">
        <ele>216.181248</ele>
        <time>2020-08-12T07:13:51.379Z</time>
      </trkpt>
      <trkpt lat="37.948684" lon="-4.532065">
        <ele>215.829298</ele>
        <time>2020-08-12T07:13:53.372Z</time>
      </trkpt>
      <trkpt lat="37.948661" lon="-4.532198">
        <ele>215.523559</ele>
        <time>2020-08-12T07:13:55.367Z</time>
      </trkpt>
      <trkpt lat="37.948641" lon="-4.532315">
        <ele>215.254742</ele>
        <time>2020-08-12T07:13:57.372Z</time>
      </trkpt>
      <trkpt lat="37.948628" lon="-4.532441">
        <ele>214.969406</ele>
        <time>2020-08-12T07:13:59.370Z</time>
      </trkpt>
      <trkpt lat="37.948598" lon="-4.532575">
        <ele>214.656627</ele>
        <time>2020-08-12T07:14:01.390Z</time>
      </trkpt>
      <trkpt lat="37.948574" lon="-4.532721">
        <ele>214.321747</ele>
        <time>2020-08-12T07:14:03.373Z</time>
      </trkpt>
      <trkpt lat="37.948550" lon="-4.532850">
        <ele>214.222947</ele>
        <time>2020-08-12T07:14:05.373Z</time>
      </trkpt>
      <trkpt lat="37.948521" lon="-4.532985">
        <ele>214.142082</ele>
        <time>2020-08-12T07:14:07.372Z</time>
      </trkpt>
      <trkpt lat="37.948508" lon="-4.533124">
        <ele>214.061186</ele>
        <time>2020-08-12T07:14:09.369Z</time>
      </trkpt>
      <trkpt lat="37.948504" lon="-4.533267">
        <ele>213.978490</ele>
        <time>2020-08-12T07:14:11.365Z</time>
      </trkpt>
      <trkpt lat="37.948499" lon="-4.533426">
        <ele>213.886525</ele>
        <time>2020-08-12T07:14:13.373Z</time>
      </trkpt>
      <trkpt lat="37.948482" lon="-4.533572">
        <ele>213.801231</ele>
        <time>2020-08-12T07:14:15.373Z</time>
      </trkpt>
      <trkpt lat="37.948455" lon="-4.533746">
        <ele>213.698742</ele>
        <time>2020-08-12T07:14:18.376Z</time>
      </trkpt>
      <trkpt lat="37.948440" lon="-4.533928">
        <ele>213.592985</ele>
        <time>2020-08-12T07:14:21.366Z</time>
      </trkpt>
      <trkpt lat="37.948417" lon="-4.534051">
        <ele>213.519928</ele>
        <time>2020-08-12T07:14:23.377Z</time>
      </trkpt>
      <trkpt lat="37.948401" lon="-4.534171">
        <ele>213.449591</ele>
        <time>2020-08-12T07:14:25.364Z</time>
      </trkpt>
      <trkpt lat="37.948387" lon="-4.534344">
        <ele>213.349083</ele>
        <time>2020-08-12T07:14:28.365Z</time>
      </trkpt>
      <trkpt lat="37.948384" lon="-4.534514">
        <ele>213.250809</ele>
        <time>2020-08-12T07:14:31.371Z</time>
      </trkpt>
      <trkpt lat="37.948375" lon="-4.534660">
        <ele>213.166173</ele>
        <time>2020-08-12T07:14:34.373Z</time>
      </trkpt>
      <trkpt lat="37.948396" lon="-4.534838">
        <ele>213.062156</ele>
        <time>2020-08-12T07:14:36.352Z</time>
      </trkpt>
      <trkpt lat="37.948363" lon="-4.534950">
        <ele>212.993056</ele>
        <time>2020-08-12T07:14:38.368Z</time>
      </trkpt>
      <trkpt lat="37.948360" lon="-4.535097">
        <ele>212.819862</ele>
        <time>2020-08-12T07:14:40.371Z</time>
      </trkpt>
      <trkpt lat="37.948336" lon="-4.535242">
        <ele>212.619033</ele>
        <time>2020-08-12T07:14:42.369Z</time>
      </trkpt>
      <trkpt lat="37.948327" lon="-4.535366">
        <ele>212.450242</ele>
        <time>2020-08-12T07:14:44.370Z</time>
      </trkpt>
      <trkpt lat="37.948314" lon="-4.535548">
        <ele>212.202534</ele>
        <time>2020-08-12T07:14:46.371Z</time>
      </trkpt>
      <trkpt lat="37.948278" lon="-4.535714">
        <ele>211.969169</ele>
        <time>2020-08-12T07:14:48.380Z</time>
      </trkpt>
      <trkpt lat="37.948257" lon="-4.535886">
        <ele>211.733247</ele>
        <time>2020-08-12T07:14:50.370Z</time>
      </trkpt>
      <trkpt lat="37.948227" lon="-4.536048">
        <ele>211.507684</ele>
        <time>2020-08-12T07:14:52.375Z</time>
      </trkpt>
      <trkpt lat="37.948207" lon="-4.536207">
        <ele>211.289436</ele>
        <time>2020-08-12T07:14:54.374Z</time>
      </trkpt>
      <trkpt lat="37.948190" lon="-4.536371">
        <ele>211.065224</ele>
        <time>2020-08-12T07:14:56.369Z</time>
      </trkpt>
      <trkpt lat="37.948138" lon="-4.536515">
        <ele>210.850541</ele>
        <time>2020-08-12T07:14:58.375Z</time>
      </trkpt>
      <trkpt lat="37.948114" lon="-4.536674">
        <ele>210.631105</ele>
        <time>2020-08-12T07:15:00.368Z</time>
      </trkpt>
      <trkpt lat="37.948048" lon="-4.536814">
        <ele>210.410010</ele>
        <time>2020-08-12T07:15:02.375Z</time>
      </trkpt>
      <trkpt lat="37.947995" lon="-4.536943">
        <ele>210.212842</ele>
        <time>2020-08-12T07:15:04.372Z</time>
      </trkpt>
      <trkpt lat="37.947944" lon="-4.537102">
        <ele>209.980171</ele>
        <time>2020-08-12T07:15:06.364Z</time>
      </trkpt>
      <trkpt lat="37.947902" lon="-4.537256">
        <ele>209.940243</ele>
        <time>2020-08-12T07:15:08.376Z</time>
      </trkpt>
      <trkpt lat="37.947850" lon="-4.537409">
        <ele>210.047712</ele>
        <time>2020-08-12T07:15:10.373Z</time>
      </trkpt>
      <trkpt lat="37.947792" lon="-4.537567">
        <ele>210.160132</ele>
        <time>2020-08-12T07:15:12.375Z</time>
      </trkpt>
      <trkpt lat="37.947798" lon="-4.537761">
        <ele>210.285369</ele>
        <time>2020-08-12T07:15:14.353Z</time>
      </trkpt>
      <trkpt lat="37.947772" lon="-4.537939">
        <ele>210.402141</ele>
        <time>2020-08-12T07:15:16.373Z</time>
      </trkpt>
      <trkpt lat="37.947755" lon="-4.538072">
        <ele>210.489053</ele>
        <time>2020-08-12T07:15:18.364Z</time>
      </trkpt>
      <trkpt lat="37.947673" lon="-4.538200">
        <ele>210.595432</ele>
        <time>2020-08-12T07:15:20.377Z</time>
      </trkpt>
      <trkpt lat="37.947618" lon="-4.538353">
        <ele>210.703896</ele>
        <time>2020-08-12T07:15:22.367Z</time>
      </trkpt>
      <trkpt lat="37.947566" lon="-4.538509">
        <ele>210.813145</ele>
        <time>2020-08-12T07:15:24.372Z</time>
      </trkpt>
      <trkpt lat="37.947480" lon="-4.538650">
        <ele>210.928129</ele>
        <time>2020-08-12T07:15:26.374Z</time>
      </trkpt>
      <trkpt lat="37.947418" lon="-4.538804">
        <ele>211.039665</ele>
        <time>2020-08-12T07:15:28.366Z</time>
      </trkpt>
      <trkpt lat="37.947352" lon="-4.538947">
        <ele>211.146546</ele>
        <time>2020-08-12T07:15:30.375Z</time>
      </trkpt>
      <trkpt lat="37.947280" lon="-4.539080">
        <ele>211.250609</ele>
        <time>2020-08-12T07:15:32.377Z</time>
      </trkpt>
      <trkpt lat="37.947231" lon="-4.539236">
        <ele>211.356098</ele>
        <time>2020-08-12T07:15:34.372Z</time>
      </trkpt>
      <trkpt lat="37.947153" lon="-4.539357">
        <ele>211.407200</ele>
        <time>2020-08-12T07:15:36.375Z</time>
      </trkpt>
      <trkpt lat="37.947086" lon="-4.539504">
        <ele>211.462717</ele>
        <time>2020-08-12T07:15:38.366Z</time>
      </trkpt>
      <trkpt lat="37.947029" lon="-4.539661">
        <ele>211.519232</ele>
        <time>2020-08-12T07:15:40.370Z</time>
      </trkpt>
      <trkpt lat="37.946978" lon="-4.539799">
        <ele>211.569064</ele>
        <time>2020-08-12T07:15:42.374Z</time>
      </trkpt>
      <trkpt lat="37.946908" lon="-4.539946">
        <ele>211.625214</ele>
        <time>2020-08-12T07:15:44.381Z</time>
      </trkpt>
      <trkpt lat="37.946877" lon="-4.540098">
        <ele>211.676550</ele>
        <time>2020-08-12T07:15:46.363Z</time>
      </trkpt>
      <trkpt lat="37.946816" lon="-4.540204">
        <ele>211.719457</ele>
        <time>2020-08-12T07:15:48.377Z</time>
      </trkpt>
      <trkpt lat="37.946742" lon="-4.540321">
        <ele>211.768499</ele>
        <time>2020-08-12T07:15:50.373Z</time>
      </trkpt>
      <trkpt lat="37.946665" lon="-4.540450">
        <ele>211.821400</ele>
        <time>2020-08-12T07:15:52.377Z</time>
      </trkpt>
      <trkpt lat="37.946601" lon="-4.540566">
        <ele>211.867692</ele>
        <time>2020-08-12T07:15:54.375Z</time>
      </trkpt>
      <trkpt lat="37.946533" lon="-4.540698">
        <ele>211.919246</ele>
        <time>2020-08-12T07:15:56.375Z</time>
      </trkpt>
      <trkpt lat="37.946476" lon="-4.540816">
        <ele>211.964494</ele>
        <time>2020-08-12T07:15:58.367Z</time>
      </trkpt>
      <trkpt lat="37.946403" lon="-4.540951">
        <ele>212.018017</ele>
        <time>2020-08-12T07:16:00.374Z</time>
      </trkpt>
      <trkpt lat="37.946354" lon="-4.541077">
        <ele>212.063954</ele>
        <time>2020-08-12T07:16:02.372Z</time>
      </trkpt>
      <trkpt lat="37.946329" lon="-4.541235">
        <ele>212.193977</ele>
        <time>2020-08-12T07:16:05.372Z</time>
      </trkpt>
      <trkpt lat="37.946306" lon="-4.541360">
        <ele>212.419714</ele>
        <time>2020-08-12T07:16:07.372Z</time>
      </trkpt>
      <trkpt lat="37.946274" lon="-4.541478">
        <ele>212.639163</ele>
        <time>2020-08-12T07:16:09.376Z</time>
      </trkpt>
      <trkpt lat="37.946222" lon="-4.541607">
        <ele>212.893951</ele>
        <time>2020-08-12T07:16:11.373Z</time>
      </trkpt>
      <trkpt lat="37.946200" lon="-4.541725">
        <ele>213.107194</ele>
        <time>2020-08-12T07:16:13.369Z</time>
      </trkpt>
      <trkpt lat="37.946146" lon="-4.541832">
        <ele>213.330606</ele>
        <time>2020-08-12T07:16:15.371Z</time>
      </trkpt>
      <trkpt lat="37.946120" lon="-4.541952">
        <ele>213.549466</ele>
        <time>2020-08-12T07:16:17.369Z</time>
      </trkpt>
      <trkpt lat="37.946084" lon="-4.542060">
        <ele>213.755672</ele>
        <time>2020-08-12T07:16:19.364Z</time>
      </trkpt>
      <trkpt lat="37.946041" lon="-4.542163">
        <ele>213.960632</ele>
        <time>2020-08-12T07:16:21.374Z</time>
      </trkpt>
      <trkpt lat="37.946002" lon="-4.542286">
        <ele>214.193778</ele>
        <time>2020-08-12T07:16:24.375Z</time>
      </trkpt>
      <trkpt lat="37.945943" lon="-4.542384">
        <ele>214.410612</ele>
        <time>2020-08-12T07:16:27.373Z</time>
      </trkpt>
      <trkpt lat="37.945889" lon="-4.542505">
        <ele>214.655123</ele>
        <time>2020-08-12T07:16:30.378Z</time>
      </trkpt>
      <trkpt lat="37.945836" lon="-4.542603">
        <ele>214.864109</ele>
        <time>2020-08-12T07:16:32.371Z</time>
      </trkpt>
      <trkpt lat="37.945801" lon="-4.542725">
        <ele>215.092423</ele>
        <time>2020-08-12T07:16:34.377Z</time>
      </trkpt>
      <trkpt lat="37.945742" lon="-4.542854">
        <ele>215.354686</ele>
        <time>2020-08-12T07:16:37.370Z</time>
      </trkpt>
      <trkpt lat="37.945689" lon="-4.543004">
        <ele>215.643756</ele>
        <time>2020-08-12T07:16:40.369Z</time>
      </trkpt>
      <trkpt lat="37.945644" lon="-4.543133">
        <ele>215.891829</ele>
        <time>2020-08-12T07:16:43.372Z</time>
      </trkpt>
      <trkpt lat="37.945598" lon="-4.543254">
        <ele>216.101099</ele>
        <time>2020-08-12T07:16:46.371Z</time>
      </trkpt>
      <trkpt lat="37.945565" lon="-4.543415">
        <ele>215.952046</ele>
        <time>2020-08-12T07:16:49.383Z</time>
      </trkpt>
      <trkpt lat="37.945544" lon="-4.543567">
        <ele>215.813776</ele>
        <time>2020-08-12T07:16:52.376Z</time>
      </trkpt>
      <trkpt lat="37.945515" lon="-4.543714">
        <ele>215.678002</ele>
        <time>2020-08-12T07:16:55.361Z</time>
      </trkpt>
      <trkpt lat="37.945496" lon="-4.543877">
        <ele>215.530363</ele>
        <time>2020-08-12T07:16:58.373Z</time>
      </trkpt>
      <trkpt lat="37.945484" lon="-4.543992">
        <ele>215.426423</ele>
        <time>2020-08-12T07:17:00.371Z</time>
      </trkpt>
      <trkpt lat="37.945493" lon="-4.544116">
        <ele>215.314846</ele>
        <time>2020-08-12T07:17:02.377Z</time>
      </trkpt>
      <trkpt lat="37.945509" lon="-4.544284">
        <ele>215.163220</ele>
        <time>2020-08-12T07:17:05.371Z</time>
      </trkpt>
      <trkpt lat="37.945507" lon="-4.544420">
        <ele>215.041340</ele>
        <time>2020-08-12T07:17:07.374Z</time>
      </trkpt>
      <trkpt lat="37.945485" lon="-4.544578">
        <ele>214.897579</ele>
        <time>2020-08-12T07:17:10.357Z</time>
      </trkpt>
      <trkpt lat="37.945494" lon="-4.544717">
        <ele>214.772612</ele>
        <time>2020-08-12T07:17:13.373Z</time>
      </trkpt>
      <trkpt lat="37.945522" lon="-4.544872">
        <ele>214.630132</ele>
        <time>2020-08-12T07:17:16.372Z</time>
      </trkpt>
      <trkpt lat="37.945537" lon="-4.544984">
        <ele>214.528340</ele>
        <time>2020-08-12T07:17:19.367Z</time>
      </trkpt>
      <trkpt lat="37.945545" lon="-4.545101">
        <ele>214.423112</ele>
        <time>2020-08-12T07:17:21.374Z</time>
      </trkpt>
      <trkpt lat="37.945548" lon="-4.545250">
        <ele>214.289561</ele>
        <time>2020-08-12T07:17:24.374Z</time>
      </trkpt>
      <trkpt lat="37.945594" lon="-4.545369">
        <ele>214.170814</ele>
        <time>2020-08-12T07:17:27.358Z</time>
      </trkpt>
      <trkpt lat="37.945603" lon="-4.545498">
        <ele>214.035803</ele>
        <time>2020-08-12T07:17:30.360Z</time>
      </trkpt>
      <trkpt lat="37.945614" lon="-4.545641">
        <ele>213.699391</ele>
        <time>2020-08-12T07:17:33.358Z</time>
      </trkpt>
      <trkpt lat="37.945646" lon="-4.545775">
        <ele>213.371571</ele>
        <time>2020-08-12T07:17:36.372Z</time>
      </trkpt>
      <trkpt lat="37.945701" lon="-4.545869">
        <ele>213.097512</ele>
        <time>2020-08-12T07:17:41.362Z</time>
      </trkpt>
      <trkpt lat="37.945756" lon="-4.545976">
        <ele>212.798459</ele>
        <time>2020-08-12T07:17:45.353Z</time>
      </trkpt>
      <trkpt lat="37.945804" lon="-4.546086">
        <ele>212.504102</ele>
        <time>2020-08-12T07:17:51.376Z</time>
      </trkpt>
      <trkpt lat="37.945833" lon="-4.546233">
        <ele>212.149308</ele>
        <time>2020-08-12T07:17:56.365Z</time>
      </trkpt>
      <trkpt lat="37.945904" lon="-4.546349">
        <ele>211.805494</ele>
        <time>2020-08-12T07:17:59.359Z</time>
      </trkpt>
      <trkpt lat="37.946000" lon="-4.546430">
        <ele>211.463131</ele>
        <time>2020-08-12T07:18:01.370Z</time>
      </trkpt>
      <trkpt lat="37.946079" lon="-4.546507">
        <ele>211.167290</ele>
        <time>2020-08-12T07:18:03.368Z</time>
      </trkpt>
      <trkpt lat="37.946178" lon="-4.546532">
        <ele>210.867577</ele>
        <time>2020-08-12T07:18:05.377Z</time>
      </trkpt>
      <trkpt lat="37.946276" lon="-4.546570">
        <ele>210.563306</ele>
        <time>2020-08-12T07:18:07.374Z</time>
      </trkpt>
      <trkpt lat="37.946372" lon="-4.546611">
        <ele>210.262541</ele>
        <time>2020-08-12T07:18:10.355Z</time>
      </trkpt>
      <trkpt lat="37.946499" lon="-4.546591">
        <ele>209.882569</ele>
        <time>2020-08-12T07:18:13.372Z</time>
      </trkpt>
      <trkpt lat="37.946590" lon="-4.546582">
        <ele>209.611560</ele>
        <time>2020-08-12T07:18:15.373Z</time>
      </trkpt>
      <trkpt lat="37.946686" lon="-4.546580">
        <ele>209.326488</ele>
        <time>2020-08-12T07:18:17.372Z</time>
      </trkpt>
      <trkpt lat="37.946773" lon="-4.546539">
        <ele>209.050915</ele>
        <time>2020-08-12T07:18:19.377Z</time>
      </trkpt>
      <trkpt lat="37.946851" lon="-4.546469">
        <ele>208.767197</ele>
        <time>2020-08-12T07:18:21.365Z</time>
      </trkpt>
      <trkpt lat="37.946937" lon="-4.546365">
        <ele>208.475540</ele>
        <time>2020-08-12T07:18:23.352Z</time>
      </trkpt>
      <trkpt lat="37.947011" lon="-4.546298">
        <ele>208.258540</ele>
        <time>2020-08-12T07:18:25.371Z</time>
      </trkpt>
      <trkpt lat="37.947078" lon="-4.546172">
        <ele>207.972536</ele>
        <time>2020-08-12T07:18:27.358Z</time>
      </trkpt>
      <trkpt lat="37.947127" lon="-4.546015">
        <ele>207.654764</ele>
        <time>2020-08-12T07:18:29.357Z</time>
      </trkpt>
      <trkpt lat="37.947219" lon="-4.545878">
        <ele>207.316112</ele>
        <time>2020-08-12T07:18:31.372Z</time>
      </trkpt>
      <trkpt lat="37.947299" lon="-4.545709">
        <ele>206.945152</ele>
        <time>2020-08-12T07:18:33.409Z</time>
      </trkpt>
      <trkpt lat="37.947370" lon="-4.545531">
        <ele>206.569743</ele>
        <time>2020-08-12T07:18:35.372Z</time>
      </trkpt>
      <trkpt lat="37.947449" lon="-4.545354">
        <ele>206.186978</ele>
        <time>2020-08-12T07:18:37.357Z</time>
      </trkpt>
      <trkpt lat="37.947506" lon="-4.545169">
        <ele>205.813181</ele>
        <time>2020-08-12T07:18:39.372Z</time>
      </trkpt>
      <trkpt lat="37.947592" lon="-4.544982">
        <ele>205.405775</ele>
        <time>2020-08-12T07:18:41.360Z</time>
      </trkpt>
      <trkpt lat="37.947663" lon="-4.544792">
        <ele>205.010084</ele>
        <time>2020-08-12T07:18:43.370Z</time>
      </trkpt>
      <trkpt lat="37.947737" lon="-4.544618">
        <ele>204.638034</ele>
        <time>2020-08-12T07:18:45.373Z</time>
      </trkpt>
      <trkpt lat="37.947793" lon="-4.544471">
        <ele>204.531677</ele>
        <time>2020-08-12T07:18:47.374Z</time>
      </trkpt>
      <trkpt lat="37.947836" lon="-4.544347">
        <ele>204.774780</ele>
        <time>2020-08-12T07:18:49.375Z</time>
      </trkpt>
      <trkpt lat="37.947873" lon="-4.544230">
        <ele>205.001009</ele>
        <time>2020-08-12T07:18:53.366Z</time>
      </trkpt>
      <trkpt lat="37.947907" lon="-4.544100">
        <ele>205.246811</ele>
        <time>2020-08-12T07:18:56.374Z</time>
      </trkpt>
      <trkpt lat="37.948002" lon="-4.544026">
        <ele>205.500545</ele>
        <time>2020-08-12T07:18:59.378Z</time>
      </trkpt>
      <trkpt lat="37.948098" lon="-4.544020">
        <ele>205.719289</ele>
        <time>2020-08-12T07:19:01.352Z</time>
      </trkpt>
      <trkpt lat="37.948213" lon="-4.544026">
        <ele>205.981231</ele>
        <time>2020-08-12T07:19:03.358Z</time>
      </trkpt>
      <trkpt lat="37.948312" lon="-4.544016">
        <ele>206.207251</ele>
        <time>2020-08-12T07:19:05.375Z</time>
      </trkpt>
      <trkpt lat="37.948426" lon="-4.544013">
        <ele>206.466752</ele>
        <time>2020-08-12T07:19:07.374Z</time>
      </trkpt>
      <trkpt lat="37.948555" lon="-4.544008">
        <ele>206.760470</ele>
        <time>2020-08-12T07:19:09.374Z</time>
      </trkpt>
      <trkpt lat="37.948668" lon="-4.543996">
        <ele>207.018539</ele>
        <time>2020-08-12T07:19:11.370Z</time>
      </trkpt>
      <trkpt lat="37.948802" lon="-4.544058">
        <ele>207.343164</ele>
        <time>2020-08-12T07:19:13.357Z</time>
      </trkpt>
      <trkpt lat="37.948924" lon="-4.544128">
        <ele>207.647912</ele>
        <time>2020-08-12T07:19:15.376Z</time>
      </trkpt>
      <trkpt lat="37.949034" lon="-4.544088">
        <ele>207.908342</ele>
        <time>2020-08-12T07:19:17.366Z</time>
      </trkpt>
      <trkpt lat="37.949160" lon="-4.544245">
        <ele>208.310354</ele>
        <time>2020-08-12T07:19:19.376Z</time>
      </trkpt>
      <trkpt lat="37.949230" lon="-4.544324">
        <ele>208.523613</ele>
        <time>2020-08-12T07:19:20.377Z</time>
      </trkpt>
      <trkpt lat="37.949367" lon="-4.544406">
        <ele>208.352934</ele>
        <time>2020-08-12T07:19:22.366Z</time>
      </trkpt>
      <trkpt lat="37.949515" lon="-4.544463">
        <ele>208.173416</ele>
        <time>2020-08-12T07:19:24.367Z</time>
      </trkpt>
      <trkpt lat="37.949643" lon="-4.544555">
        <ele>208.002655</ele>
        <time>2020-08-12T07:19:26.375Z</time>
      </trkpt>
      <trkpt lat="37.949777" lon="-4.544659">
        <ele>207.820318</ele>
        <time>2020-08-12T07:19:28.370Z</time>
      </trkpt>
      <trkpt lat="37.949927" lon="-4.544738">
        <ele>207.631808</ele>
        <time>2020-08-12T07:19:30.380Z</time>
      </trkpt>
      <trkpt lat="37.950075" lon="-4.544849">
        <ele>207.432245</ele>
        <time>2020-08-12T07:19:32.373Z</time>
      </trkpt>
      <trkpt lat="37.950231" lon="-4.544948">
        <ele>207.229784</ele>
        <time>2020-08-12T07:19:34.373Z</time>
      </trkpt>
      <trkpt lat="37.950394" lon="-4.545025">
        <ele>207.027904</ele>
        <time>2020-08-12T07:19:36.375Z</time>
      </trkpt>
      <trkpt lat="37.950551" lon="-4.545128">
        <ele>206.822748</ele>
        <time>2020-08-12T07:19:38.372Z</time>
      </trkpt>
      <trkpt lat="37.950639" lon="-4.545161">
        <ele>206.716242</ele>
        <time>2020-08-12T07:19:39.377Z</time>
      </trkpt>
      <trkpt lat="37.950728" lon="-4.545187">
        <ele>206.610242</ele>
        <time>2020-08-12T07:19:40.376Z</time>
      </trkpt>
      <trkpt lat="37.950820" lon="-4.545204">
        <ele>206.502337</ele>
        <time>2020-08-12T07:19:41.367Z</time>
      </trkpt>
      <trkpt lat="37.950920" lon="-4.545224">
        <ele>205.706104</ele>
        <time>2020-08-12T07:19:42.366Z</time>
      </trkpt>
      <trkpt lat="37.951011" lon="-4.545226">
        <ele>204.288374</ele>
        <time>2020-08-12T07:19:43.366Z</time>
      </trkpt>
      <trkpt lat="37.951109" lon="-4.545215">
        <ele>202.755849</ele>
        <time>2020-08-12T07:19:44.350Z</time>
      </trkpt>
      <trkpt lat="37.951205" lon="-4.545226">
        <ele>201.254354</ele>
        <time>2020-08-12T07:19:45.353Z</time>
      </trkpt>
      <trkpt lat="37.951298" lon="-4.545231">
        <ele>199.804381</ele>
        <time>2020-08-12T07:19:46.367Z</time>
      </trkpt>
      <trkpt lat="37.951388" lon="-4.545207">
        <ele>198.371782</ele>
        <time>2020-08-12T07:19:47.376Z</time>
      </trkpt>
      <trkpt lat="37.951481" lon="-4.545193">
        <ele>196.912940</ele>
        <time>2020-08-12T07:19:48.364Z</time>
      </trkpt>
      <trkpt lat="37.951587" lon="-4.545128">
        <ele>195.078869</ele>
        <time>2020-08-12T07:19:49.360Z</time>
      </trkpt>
      <trkpt lat="37.951756" lon="-4.545090">
        <ele>192.405279</ele>
        <time>2020-08-12T07:19:51.376Z</time>
      </trkpt>
      <trkpt lat="37.951921" lon="-4.545064">
        <ele>189.815291</ele>
        <time>2020-08-12T07:19:53.375Z</time>
      </trkpt>
      <trkpt lat="37.952080" lon="-4.545040">
        <ele>187.321048</ele>
        <time>2020-08-12T07:19:55.361Z</time>
      </trkpt>
      <trkpt lat="37.952231" lon="-4.545023">
        <ele>184.959653</ele>
        <time>2020-08-12T07:19:57.366Z</time>
      </trkpt>
      <trkpt lat="37.952381" lon="-4.544981">
        <ele>182.566814</ele>
        <time>2020-08-12T07:19:59.374Z</time>
      </trkpt>
      <trkpt lat="37.952536" lon="-4.544955">
        <ele>180.131333</ele>
        <time>2020-08-12T07:20:01.381Z</time>
      </trkpt>
      <trkpt lat="37.952687" lon="-4.544943">
        <ele>178.437504</ele>
        <time>2020-08-12T07:20:03.371Z</time>
      </trkpt>
      <trkpt lat="37.952840" lon="-4.544932">
        <ele>178.495377</ele>
        <time>2020-08-12T07:20:05.378Z</time>
      </trkpt>
      <trkpt lat="37.952988" lon="-4.544938">
        <ele>178.551297</ele>
        <time>2020-08-12T07:20:07.373Z</time>
      </trkpt>
      <trkpt lat="37.953111" lon="-4.544920">
        <ele>178.598055</ele>
        <time>2020-08-12T07:20:09.375Z</time>
      </trkpt>
      <trkpt lat="37.953221" lon="-4.544878">
        <ele>178.641438</ele>
        <time>2020-08-12T07:20:11.368Z</time>
      </trkpt>
      <trkpt lat="37.953335" lon="-4.544870">
        <ele>178.684555</ele>
        <time>2020-08-12T07:20:13.374Z</time>
      </trkpt>
      <trkpt lat="37.953456" lon="-4.544860">
        <ele>178.730347</ele>
        <time>2020-08-12T07:20:15.383Z</time>
      </trkpt>
      <trkpt lat="37.953564" lon="-4.544864">
        <ele>178.771150</ele>
        <time>2020-08-12T07:20:17.364Z</time>
      </trkpt>
      <trkpt lat="37.953685" lon="-4.544833">
        <ele>178.817768</ele>
        <time>2020-08-12T07:20:19.373Z</time>
      </trkpt>
      <trkpt lat="37.953811" lon="-4.544809">
        <ele>178.865885</ele>
        <time>2020-08-12T07:20:21.378Z</time>
      </trkpt>
      <trkpt lat="37.953903" lon="-4.544793">
        <ele>178.900954</ele>
        <time>2020-08-12T07:20:23.378Z</time>
      </trkpt>
      <trkpt lat="37.954014" lon="-4.544786">
        <ele>178.942924</ele>
        <time>2020-08-12T07:20:25.376Z</time>
      </trkpt>
      <trkpt lat="37.954115" lon="-4.544791">
        <ele>178.981095</ele>
        <time>2020-08-12T07:20:27.371Z</time>
      </trkpt>
      <trkpt lat="37.954221" lon="-4.544825">
        <ele>179.022386</ele>
        <time>2020-08-12T07:20:29.376Z</time>
      </trkpt>
      <trkpt lat="37.954321" lon="-4.544846">
        <ele>179.060664</ele>
        <time>2020-08-12T07:20:31.377Z</time>
      </trkpt>
      <trkpt lat="37.954415" lon="-4.544880">
        <ele>179.097578</ele>
        <time>2020-08-12T07:20:33.375Z</time>
      </trkpt>
      <trkpt lat="37.954513" lon="-4.544904">
        <ele>179.041822</ele>
        <time>2020-08-12T07:20:35.359Z</time>
      </trkpt>
      <trkpt lat="37.954645" lon="-4.544956">
        <ele>178.951437</ele>
        <time>2020-08-12T07:20:38.372Z</time>
      </trkpt>
      <trkpt lat="37.954727" lon="-4.545024">
        <ele>178.887370</ele>
        <time>2020-08-12T07:20:40.376Z</time>
      </trkpt>
      <trkpt lat="37.954847" lon="-4.545095">
        <ele>178.800781</ele>
        <time>2020-08-12T07:20:43.368Z</time>
      </trkpt>
      <trkpt lat="37.954979" lon="-4.545131">
        <ele>178.712490</ele>
        <time>2020-08-12T07:20:46.373Z</time>
      </trkpt>
      <trkpt lat="37.955078" lon="-4.545261">
        <ele>178.619303</ele>
        <time>2020-08-12T07:20:49.366Z</time>
      </trkpt>
      <trkpt lat="37.955154" lon="-4.545373">
        <ele>178.543114</ele>
        <time>2020-08-12T07:20:52.380Z</time>
      </trkpt>
      <trkpt lat="37.955220" lon="-4.545475">
        <ele>178.475080</ele>
        <time>2020-08-12T07:20:54.372Z</time>
      </trkpt>
      <trkpt lat="37.955296" lon="-4.545590">
        <ele>178.397712</ele>
        <time>2020-08-12T07:20:56.379Z</time>
      </trkpt>
      <trkpt lat="37.955396" lon="-4.545661">
        <ele>178.322771</ele>
        <time>2020-08-12T07:20:58.364Z</time>
      </trkpt>
      <trkpt lat="37.955483" lon="-4.545718">
        <ele>178.258737</ele>
        <time>2020-08-12T07:21:00.369Z</time>
      </trkpt>
      <trkpt lat="37.955551" lon="-4.545800">
        <ele>178.197379</ele>
        <time>2020-08-12T07:21:02.363Z</time>
      </trkpt>
      <trkpt lat="37.955657" lon="-4.545884">
        <ele>178.115645</ele>
        <time>2020-08-12T07:21:05.372Z</time>
      </trkpt>
      <trkpt lat="37.955758" lon="-4.545999">
        <ele>178.026887</ele>
        <time>2020-08-12T07:21:08.367Z</time>
      </trkpt>
      <trkpt lat="37.955835" lon="-4.546078">
        <ele>177.962123</ele>
        <time>2020-08-12T07:21:10.371Z</time>
      </trkpt>
      <trkpt lat="37.955904" lon="-4.546152">
        <ele>177.939488</ele>
        <time>2020-08-12T07:21:12.374Z</time>
      </trkpt>
      <trkpt lat="37.955980" lon="-4.546227">
        <ele>177.981515</ele>
        <time>2020-08-12T07:21:14.377Z</time>
      </trkpt>
      <trkpt lat="37.956063" lon="-4.546332">
        <ele>178.032679</ele>
        <time>2020-08-12T07:21:17.358Z</time>
      </trkpt>
      <trkpt lat="37.956138" lon="-4.546445">
        <ele>178.083508</ele>
        <time>2020-08-12T07:21:20.361Z</time>
      </trkpt>
      <trkpt lat="37.956241" lon="-4.546562">
        <ele>178.143856</ele>
        <time>2020-08-12T07:21:24.372Z</time>
      </trkpt>
      <trkpt lat="37.956348" lon="-4.546560">
        <ele>178.190559</ele>
        <time>2020-08-12T07:21:27.352Z</time>
      </trkpt>
      <trkpt lat="37.956456" lon="-4.546650">
        <ele>178.246959</ele>
        <time>2020-08-12T07:21:31.364Z</time>
      </trkpt>
      <trkpt lat="37.956532" lon="-4.546726">
        <ele>178.289199</ele>
        <time>2020-08-12T07:21:33.372Z</time>
      </trkpt>
      <trkpt lat="37.956633" lon="-4.546880">
        <ele>178.358129</ele>
        <time>2020-08-12T07:21:35.371Z</time>
      </trkpt>
      <trkpt lat="37.956679" lon="-4.547075">
        <ele>178.428172</ele>
        <time>2020-08-12T07:21:37.368Z</time>
      </trkpt>
      <trkpt lat="37.956704" lon="-4.547210">
        <ele>178.475892</ele>
        <time>2020-08-12T07:21:39.374Z</time>
      </trkpt>
      <trkpt lat="37.956796" lon="-4.547312">
        <ele>178.529223</ele>
        <time>2020-08-12T07:21:42.377Z</time>
      </trkpt>
      <trkpt lat="37.957337" lon="-4.548869">
        <ele>178.697131</ele>
        <time>2020-08-12T07:22:16.414Z</time>
      </trkpt>
      <trkpt lat="37.957407" lon="-4.548974">
        <ele>178.695640</ele>
        <time>2020-08-12T07:22:20.347Z</time>
      </trkpt>
      <trkpt lat="37.957485" lon="-4.549066">
        <ele>178.694175</ele>
        <time>2020-08-12T07:22:23.372Z</time>
      </trkpt>
      <trkpt lat="37.957571" lon="-4.549120">
        <ele>178.692855</ele>
        <time>2020-08-12T07:22:26.369Z</time>
      </trkpt>
      <trkpt lat="37.957694" lon="-4.549167">
        <ele>178.691088</ele>
        <time>2020-08-12T07:22:29.367Z</time>
      </trkpt>
      <trkpt lat="37.957799" lon="-4.549179">
        <ele>178.689638</ele>
        <time>2020-08-12T07:22:31.370Z</time>
      </trkpt>
      <trkpt lat="37.957904" lon="-4.549259">
        <ele>178.687954</ele>
        <time>2020-08-12T07:22:33.356Z</time>
      </trkpt>
      <trkpt lat="37.958011" lon="-4.549341">
        <ele>178.686234</ele>
        <time>2020-08-12T07:22:35.364Z</time>
      </trkpt>
      <trkpt lat="37.958107" lon="-4.549311">
        <ele>178.687294</ele>
        <time>2020-08-12T07:22:36.373Z</time>
      </trkpt>
      <trkpt lat="37.958261" lon="-4.549215">
        <ele>178.705567</ele>
        <time>2020-08-12T07:22:40.352Z</time>
      </trkpt>
      <trkpt lat="37.958401" lon="-4.549076">
        <ele>178.724499</ele>
        <time>2020-08-12T07:22:42.357Z</time>
      </trkpt>
      <trkpt lat="37.958488" lon="-4.549118">
        <ele>178.734411</ele>
        <time>2020-08-12T07:22:43.372Z</time>
      </trkpt>
      <trkpt lat="37.958627" lon="-4.549094">
        <ele>178.749349</ele>
        <time>2020-08-12T07:22:45.364Z</time>
      </trkpt>
      <trkpt lat="37.958648" lon="-4.549330">
        <ele>178.769289</ele>
        <time>2020-08-12T07:22:48.378Z</time>
      </trkpt>
      <trkpt lat="37.958514" lon="-4.549644">
        <ele>178.799265</ele>
        <time>2020-08-12T07:22:54.381Z</time>
      </trkpt>
      <trkpt lat="37.958555" lon="-4.549747">
        <ele>178.808953</ele>
        <time>2020-08-12T07:22:55.346Z</time>
      </trkpt>
      <trkpt lat="37.958403" lon="-4.549848">
        <ele>178.827225</ele>
        <time>2020-08-12T07:22:56.352Z</time>
      </trkpt>
      <trkpt lat="37.958310" lon="-4.550000">
        <ele>178.843378</ele>
        <time>2020-08-12T07:22:58.372Z</time>
      </trkpt>
      <trkpt lat="37.958261" lon="-4.550110">
        <ele>178.853985</ele>
        <time>2020-08-12T07:23:00.370Z</time>
      </trkpt>
      <trkpt lat="37.958233" lon="-4.550221">
        <ele>178.863770</ele>
        <time>2020-08-12T07:23:02.367Z</time>
      </trkpt>
      <trkpt lat="37.958156" lon="-4.550353">
        <ele>178.877036</ele>
        <time>2020-08-12T07:23:04.369Z</time>
      </trkpt>
      <trkpt lat="37.958127" lon="-4.550500">
        <ele>178.882234</ele>
        <time>2020-08-12T07:23:06.361Z</time>
      </trkpt>
      <trkpt lat="37.958184" lon="-4.550633">
        <ele>178.887427</ele>
        <time>2020-08-12T07:23:08.374Z</time>
      </trkpt>
      <trkpt lat="37.958178" lon="-4.550797">
        <ele>178.893059</ele>
        <time>2020-08-12T07:23:11.374Z</time>
      </trkpt>
      <trkpt lat="37.958188" lon="-4.550964">
        <ele>178.898805</ele>
        <time>2020-08-12T07:23:14.361Z</time>
      </trkpt>
      <trkpt lat="37.958254" lon="-4.551086">
        <ele>178.903880</ele>
        <time>2020-08-12T07:23:17.367Z</time>
      </trkpt>
      <trkpt lat="37.958163" lon="-4.551237">
        <ele>178.910400</ele>
        <time>2020-08-12T07:23:21.356Z</time>
      </trkpt>
      <trkpt lat="37.958148" lon="-4.551367">
        <ele>178.914907</ele>
        <time>2020-08-12T07:23:25.362Z</time>
      </trkpt>
      <trkpt lat="37.957695" lon="-4.554574">
        <ele>178.404494</ele>
        <time>2020-08-12T07:24:50.365Z</time>
      </trkpt>
      <trkpt lat="37.957751" lon="-4.554685">
        <ele>178.369809</ele>
        <time>2020-08-12T07:24:56.373Z</time>
      </trkpt>
      <trkpt lat="37.957738" lon="-4.554806">
        <ele>178.343999</ele>
        <time>2020-08-12T07:24:59.364Z</time>
      </trkpt>
      <trkpt lat="37.957773" lon="-4.554935">
        <ele>178.321595</ele>
        <time>2020-08-12T07:25:02.371Z</time>
      </trkpt>
      <trkpt lat="37.957803" lon="-4.555064">
        <ele>178.299508</ele>
        <time>2020-08-12T07:25:06.364Z</time>
      </trkpt>
      <trkpt lat="37.957852" lon="-4.555193">
        <ele>178.275993</ele>
        <time>2020-08-12T07:25:09.370Z</time>
      </trkpt>
      <trkpt lat="37.957879" lon="-4.555315">
        <ele>178.255183</ele>
        <time>2020-08-12T07:25:12.362Z</time>
      </trkpt>
      <trkpt lat="37.957757" lon="-4.555459">
        <ele>178.220471</ele>
        <time>2020-08-12T07:25:13.374Z</time>
      </trkpt>
      <trkpt lat="37.957847" lon="-4.555558">
        <ele>178.195657</ele>
        <time>2020-08-12T07:25:16.371Z</time>
      </trkpt>
      <trkpt lat="37.957733" lon="-4.555758">
        <ele>178.155128</ele>
        <time>2020-08-12T07:25:19.362Z</time>
      </trkpt>
      <trkpt lat="37.957821" lon="-4.555799">
        <ele>178.135602</ele>
        <time>2020-08-12T07:25:21.361Z</time>
      </trkpt>
      <trkpt lat="37.957915" lon="-4.555837">
        <ele>178.115053</ele>
        <time>2020-08-12T07:25:23.356Z</time>
      </trkpt>
      <trkpt lat="37.957986" lon="-4.555918">
        <ele>178.095162</ele>
        <time>2020-08-12T07:25:25.364Z</time>
      </trkpt>
      <trkpt lat="37.957990" lon="-4.556079">
        <ele>178.068709</ele>
        <time>2020-08-12T07:25:26.369Z</time>
      </trkpt>
      <trkpt lat="37.957983" lon="-4.556205">
        <ele>178.047965</ele>
        <time>2020-08-12T07:25:28.369Z</time>
      </trkpt>
      <trkpt lat="37.957963" lon="-4.556317">
        <ele>178.029106</ele>
        <time>2020-08-12T07:25:30.367Z</time>
      </trkpt>
      <trkpt lat="37.958013" lon="-4.556419">
        <ele>178.009382</ele>
        <time>2020-08-12T07:25:32.361Z</time>
      </trkpt>
      <trkpt lat="37.957971" lon="-4.557505">
        <ele>178.178349</ele>
        <time>2020-08-12T07:25:51.374Z</time>
      </trkpt>
      <trkpt lat="37.958008" lon="-4.557615">
        <ele>178.204499</ele>
        <time>2020-08-12T07:25:53.373Z</time>
      </trkpt>
      <trkpt lat="37.958011" lon="-4.557773">
        <ele>178.239058</ele>
        <time>2020-08-12T07:25:56.372Z</time>
      </trkpt>
      <trkpt lat="37.957937" lon="-4.557875">
        <ele>178.269368</ele>
        <time>2020-08-12T07:25:58.364Z</time>
      </trkpt>
      <trkpt lat="37.957961" lon="-4.558044">
        <ele>178.306917</ele>
        <time>2020-08-12T07:26:01.369Z</time>
      </trkpt>
      <trkpt lat="37.957898" lon="-4.558138">
        <ele>178.333894</ele>
        <time>2020-08-12T07:26:03.361Z</time>
      </trkpt>
      <trkpt lat="37.957902" lon="-4.558279">
        <ele>178.364746</ele>
        <time>2020-08-12T07:26:05.362Z</time>
      </trkpt>
      <trkpt lat="37.958007" lon="-4.558326">
        <ele>178.395626</ele>
        <time>2020-08-12T07:26:06.370Z</time>
      </trkpt>
      <trkpt lat="37.957913" lon="-4.558524">
        <ele>178.446165</ele>
        <time>2020-08-12T07:26:09.371Z</time>
      </trkpt>
      <trkpt lat="37.957906" lon="-4.558649">
        <ele>178.473567</ele>
        <time>2020-08-12T07:26:11.369Z</time>
      </trkpt>
      <trkpt lat="37.957909" lon="-4.558855">
        <ele>179.164741</ele>
        <time>2020-08-12T07:26:14.371Z</time>
      </trkpt>
      <trkpt lat="37.957899" lon="-4.559005">
        <ele>179.730434</ele>
        <time>2020-08-12T07:26:16.367Z</time>
      </trkpt>
      <trkpt lat="37.958087" lon="-4.559117">
        <ele>180.720383</ele>
        <time>2020-08-12T07:26:18.360Z</time>
      </trkpt>
      <trkpt lat="37.957530" lon="-4.571576">
        <ele>217.616879</ele>
        <time>2020-08-12T07:29:28.428Z</time>
      </trkpt>
      <trkpt lat="37.957569" lon="-4.571716">
        <ele>217.285664</ele>
        <time>2020-08-12T07:29:31.349Z</time>
      </trkpt>
      <trkpt lat="37.957636" lon="-4.571797">
        <ele>217.023792</ele>
        <time>2020-08-12T07:29:35.374Z</time>
      </trkpt>
      <trkpt lat="37.957635" lon="-4.572009">
        <ele>216.550879</ele>
        <time>2020-08-12T07:40:20.364Z</time>
      </trkpt>
      <trkpt lat="37.957605" lon="-4.572136">
        <ele>216.255141</ele>
        <time>2020-08-12T07:40:24.374Z</time>
      </trkpt>
      <trkpt lat="37.957584" lon="-4.572260">
        <ele>215.775945</ele>
        <time>2020-08-12T07:40:27.375Z</time>
      </trkpt>
      <trkpt lat="37.957574" lon="-4.572383">
        <ele>215.306927</ele>
        <time>2020-08-12T07:40:30.371Z</time>
      </trkpt>
      <trkpt lat="37.957577" lon="-4.572508">
        <ele>214.832577</ele>
        <time>2020-08-12T07:40:33.368Z</time>
      </trkpt>
      <trkpt lat="37.957582" lon="-4.572634">
        <ele>214.354049</ele>
        <time>2020-08-12T07:40:36.377Z</time>
      </trkpt>
      <trkpt lat="37.957579" lon="-4.572773">
        <ele>213.826619</ele>
        <time>2020-08-12T07:40:39.380Z</time>
      </trkpt>
      <trkpt lat="37.957580" lon="-4.572900">
        <ele>213.344878</ele>
        <time>2020-08-12T07:40:42.371Z</time>
      </trkpt>
      <trkpt lat="37.957588" lon="-4.573038">
        <ele>212.820026</ele>
        <time>2020-08-12T07:40:45.373Z</time>
      </trkpt>
      <trkpt lat="37.957586" lon="-4.573211">
        <ele>212.163759</ele>
        <time>2020-08-12T07:40:48.362Z</time>
      </trkpt>
      <trkpt lat="37.957559" lon="-4.573376">
        <ele>211.524571</ele>
        <time>2020-08-12T07:40:51.369Z</time>
      </trkpt>
      <trkpt lat="37.957538" lon="-4.573531">
        <ele>210.928033</ele>
        <time>2020-08-12T07:40:54.374Z</time>
      </trkpt>
      <trkpt lat="37.957548" lon="-4.573688">
        <ele>210.330585</ele>
        <time>2020-08-12T07:40:57.375Z</time>
      </trkpt>
      <trkpt lat="37.957532" lon="-4.573818">
        <ele>209.831518</ele>
        <time>2020-08-12T07:40:59.371Z</time>
      </trkpt>
      <trkpt lat="37.957518" lon="-4.573972">
        <ele>209.243519</ele>
        <time>2020-08-12T07:41:01.371Z</time>
      </trkpt>
      <trkpt lat="37.957500" lon="-4.574110">
        <ele>208.712965</ele>
        <time>2020-08-12T07:41:03.381Z</time>
      </trkpt>
      <trkpt lat="37.957468" lon="-4.574255">
        <ele>208.141836</ele>
        <time>2020-08-12T07:41:05.375Z</time>
      </trkpt>
      <trkpt lat="37.957456" lon="-4.574422">
        <ele>207.405815</ele>
        <time>2020-08-12T07:41:07.367Z</time>
      </trkpt>
      <trkpt lat="37.957428" lon="-4.574591">
        <ele>206.054596</ele>
        <time>2020-08-12T07:41:09.368Z</time>
      </trkpt>
      <trkpt lat="37.957382" lon="-4.574746">
        <ele>204.758732</ele>
        <time>2020-08-12T07:41:11.369Z</time>
      </trkpt>
      <trkpt lat="37.957354" lon="-4.574933">
        <ele>203.269399</ele>
        <time>2020-08-12T07:41:13.375Z</time>
      </trkpt>
      <trkpt lat="37.957355" lon="-4.575113">
        <ele>201.860952</ele>
        <time>2020-08-12T07:41:15.372Z</time>
      </trkpt>
      <trkpt lat="37.957341" lon="-4.575302">
        <ele>200.375608</ele>
        <time>2020-08-12T07:41:17.375Z</time>
      </trkpt>
      <trkpt lat="37.957328" lon="-4.575479">
        <ele>198.984673</ele>
        <time>2020-08-12T07:41:19.372Z</time>
      </trkpt>
      <trkpt lat="37.957310" lon="-4.575686">
        <ele>197.355178</ele>
        <time>2020-08-12T07:41:21.384Z</time>
      </trkpt>
      <trkpt lat="37.957293" lon="-4.575808">
        <ele>196.385795</ele>
        <time>2020-08-12T07:41:22.371Z</time>
      </trkpt>
      <trkpt lat="37.957289" lon="-4.576040">
        <ele>194.570072</ele>
        <time>2020-08-12T07:41:24.371Z</time>
      </trkpt>
      <trkpt lat="37.957275" lon="-4.576287">
        <ele>192.632429</ele>
        <time>2020-08-12T07:41:26.379Z</time>
      </trkpt>
      <trkpt lat="37.957263" lon="-4.576414">
        <ele>191.631605</ele>
        <time>2020-08-12T07:41:27.370Z</time>
      </trkpt>
      <trkpt lat="37.957257" lon="-4.576546">
        <ele>190.597053</ele>
        <time>2020-08-12T07:41:28.367Z</time>
      </trkpt>
      <trkpt lat="37.957247" lon="-4.576674">
        <ele>189.703089</ele>
        <time>2020-08-12T07:41:29.375Z</time>
      </trkpt>
      <trkpt lat="37.957242" lon="-4.576814">
        <ele>189.377178</ele>
        <time>2020-08-12T07:41:30.369Z</time>
      </trkpt>
      <trkpt lat="37.957245" lon="-4.576931">
        <ele>189.104944</ele>
        <time>2020-08-12T07:41:31.381Z</time>
      </trkpt>
      <trkpt lat="37.957248" lon="-4.577065">
        <ele>188.793195</ele>
        <time>2020-08-12T07:41:32.359Z</time>
      </trkpt>
      <trkpt lat="37.957235" lon="-4.577199">
        <ele>188.479221</ele>
        <time>2020-08-12T07:41:33.375Z</time>
      </trkpt>
      <trkpt lat="37.957221" lon="-4.577328">
        <ele>188.176396</ele>
        <time>2020-08-12T07:41:34.370Z</time>
      </trkpt>
      <trkpt lat="37.957218" lon="-4.577451">
        <ele>187.890216</ele>
        <time>2020-08-12T07:41:35.371Z</time>
      </trkpt>
      <trkpt lat="37.957208" lon="-4.577577">
        <ele>187.595715</ele>
        <time>2020-08-12T07:41:36.378Z</time>
      </trkpt>
      <trkpt lat="37.957195" lon="-4.577699">
        <ele>187.309419</ele>
        <time>2020-08-12T07:41:37.380Z</time>
      </trkpt>
      <trkpt lat="37.957188" lon="-4.577816">
        <ele>187.036546</ele>
        <time>2020-08-12T07:41:38.374Z</time>
      </trkpt>
      <trkpt lat="37.957166" lon="-4.578015">
        <ele>186.569234</ele>
        <time>2020-08-12T07:41:40.377Z</time>
      </trkpt>
      <trkpt lat="37.957159" lon="-4.578208">
        <ele>186.119927</ele>
        <time>2020-08-12T07:41:42.373Z</time>
      </trkpt>
      <trkpt lat="37.957153" lon="-4.578345">
        <ele>185.800835</ele>
        <time>2020-08-12T07:41:44.373Z</time>
      </trkpt>
      <trkpt lat="37.957122" lon="-4.578476">
        <ele>185.482762</ele>
        <time>2020-08-12T07:41:46.377Z</time>
      </trkpt>
      <trkpt lat="37.957090" lon="-4.578587">
        <ele>185.207912</ele>
        <time>2020-08-12T07:41:48.369Z</time>
      </trkpt>
      <trkpt lat="37.957078" lon="-4.578730">
        <ele>184.873479</ele>
        <time>2020-08-12T07:41:52.375Z</time>
      </trkpt>
      <trkpt lat="37.957048" lon="-4.578840">
        <ele>184.602797</ele>
        <time>2020-08-12T07:41:55.370Z</time>
      </trkpt>
      <trkpt lat="37.957009" lon="-4.578983">
        <ele>185.392711</ele>
        <time>2020-08-12T07:41:59.367Z</time>
      </trkpt>
      <trkpt lat="37.956978" lon="-4.579104">
        <ele>186.831622</ele>
        <time>2020-08-12T07:42:03.366Z</time>
      </trkpt>
      <trkpt lat="37.956934" lon="-4.579224">
        <ele>188.328367</ele>
        <time>2020-08-12T07:42:07.362Z</time>
      </trkpt>
      <trkpt lat="37.956896" lon="-4.579354">
        <ele>189.896422</ele>
        <time>2020-08-12T07:42:11.374Z</time>
      </trkpt>
      <trkpt lat="37.956850" lon="-4.579474">
        <ele>191.405489</ele>
        <time>2020-08-12T07:42:15.379Z</time>
      </trkpt>
      <trkpt lat="37.956817" lon="-4.579603">
        <ele>192.939318</ele>
        <time>2020-08-12T07:42:19.370Z</time>
      </trkpt>
      <trkpt lat="37.956798" lon="-4.579752">
        <ele>194.646374</ele>
        <time>2020-08-12T07:42:23.374Z</time>
      </trkpt>
      <trkpt lat="37.956771" lon="-4.579878">
        <ele>196.123098</ele>
        <time>2020-08-12T07:42:26.367Z</time>
      </trkpt>
      <trkpt lat="37.956745" lon="-4.579990">
        <ele>197.443555</ele>
        <time>2020-08-12T07:42:29.367Z</time>
      </trkpt>
      <trkpt lat="37.956717" lon="-4.580129">
        <ele>199.066112</ele>
        <time>2020-08-12T07:42:33.368Z</time>
      </trkpt>
      <trkpt lat="37.956700" lon="-4.580272">
        <ele>200.701694</ele>
        <time>2020-08-12T07:42:37.370Z</time>
      </trkpt>
      <trkpt lat="37.956682" lon="-4.580385">
        <ele>202.005523</ele>
        <time>2020-08-12T07:42:40.374Z</time>
      </trkpt>
      <trkpt lat="37.956660" lon="-4.580501">
        <ele>203.354880</ele>
        <time>2020-08-12T07:42:43.385Z</time>
      </trkpt>
      <trkpt lat="37.956637" lon="-4.580642">
        <ele>204.983333</ele>
        <time>2020-08-12T07:42:47.373Z</time>
      </trkpt>
      <trkpt lat="37.956624" lon="-4.580796">
        <ele>206.734999</ele>
        <time>2020-08-12T07:42:51.375Z</time>
      </trkpt>
      <trkpt lat="37.956614" lon="-4.580931">
        <ele>208.268548</ele>
        <time>2020-08-12T07:42:54.376Z</time>
      </trkpt>
      <trkpt lat="37.956609" lon="-4.581069">
        <ele>209.830951</ele>
        <time>2020-08-12T07:42:57.376Z</time>
      </trkpt>
      <trkpt lat="37.956598" lon="-4.581207">
        <ele>209.868433</ele>
        <time>2020-08-12T07:43:00.372Z</time>
      </trkpt>
      <trkpt lat="37.956602" lon="-4.581329">
        <ele>209.417747</ele>
        <time>2020-08-12T07:43:02.372Z</time>
      </trkpt>
      <trkpt lat="37.956622" lon="-4.581468">
        <ele>208.896231</ele>
        <time>2020-08-12T07:43:04.373Z</time>
      </trkpt>
      <trkpt lat="37.956625" lon="-4.581591">
        <ele>208.442025</ele>
        <time>2020-08-12T07:43:06.375Z</time>
      </trkpt>
      <trkpt lat="37.956607" lon="-4.581754">
        <ele>207.834527</ele>
        <time>2020-08-12T07:43:08.380Z</time>
      </trkpt>
      <trkpt lat="37.956614" lon="-4.581896">
        <ele>207.309386</ele>
        <time>2020-08-12T07:43:10.372Z</time>
      </trkpt>
      <trkpt lat="37.956623" lon="-4.582071">
        <ele>206.662096</ele>
        <time>2020-08-12T07:43:12.372Z</time>
      </trkpt>
      <trkpt lat="37.956624" lon="-4.582235">
        <ele>206.056760</ele>
        <time>2020-08-12T07:43:14.368Z</time>
      </trkpt>
      <trkpt lat="37.956637" lon="-4.582412">
        <ele>205.400631</ele>
        <time>2020-08-12T07:43:16.357Z</time>
      </trkpt>
      <trkpt lat="37.956656" lon="-4.582605">
        <ele>204.682745</ele>
        <time>2020-08-12T07:43:18.373Z</time>
      </trkpt>
      <trkpt lat="37.956667" lon="-4.582777">
        <ele>204.045815</ele>
        <time>2020-08-12T07:43:20.374Z</time>
      </trkpt>
      <trkpt lat="37.956691" lon="-4.582992">
        <ele>203.244346</ele>
        <time>2020-08-12T07:43:22.375Z</time>
      </trkpt>
      <trkpt lat="37.956729" lon="-4.583170">
        <ele>202.563700</ele>
        <time>2020-08-12T07:43:24.356Z</time>
      </trkpt>
      <trkpt lat="37.956776" lon="-4.583359">
        <ele>201.832237</ele>
        <time>2020-08-12T07:43:26.351Z</time>
      </trkpt>
      <trkpt lat="37.956852" lon="-4.583543">
        <ele>201.581206</ele>
        <time>2020-08-12T07:43:28.372Z</time>
      </trkpt>
      <trkpt lat="37.956925" lon="-4.583745">
        <ele>201.317549</ele>
        <time>2020-08-12T07:43:30.360Z</time>
      </trkpt>
      <trkpt lat="37.956983" lon="-4.583924">
        <ele>201.087923</ele>
        <time>2020-08-12T07:43:32.357Z</time>
      </trkpt>
      <trkpt lat="37.957031" lon="-4.584146">
        <ele>200.814786</ele>
        <time>2020-08-12T07:43:34.369Z</time>
      </trkpt>
      <trkpt lat="37.957078" lon="-4.584345">
        <ele>200.568299</ele>
        <time>2020-08-12T07:43:36.362Z</time>
      </trkpt>
      <trkpt lat="37.957084" lon="-4.584578">
        <ele>200.291688</ele>
        <time>2020-08-12T07:43:38.377Z</time>
      </trkpt>
      <trkpt lat="37.957092" lon="-4.584803">
        <ele>200.024446</ele>
        <time>2020-08-12T07:43:40.367Z</time>
      </trkpt>
      <trkpt lat="37.957104" lon="-4.584986">
        <ele>199.806559</ele>
        <time>2020-08-12T07:43:42.357Z</time>
      </trkpt>
      <trkpt lat="37.957122" lon="-4.585175">
        <ele>199.580673</ele>
        <time>2020-08-12T07:43:44.381Z</time>
      </trkpt>
      <trkpt lat="37.957135" lon="-4.585325">
        <ele>199.401621</ele>
        <time>2020-08-12T07:43:46.371Z</time>
      </trkpt>
      <trkpt lat="37.957138" lon="-4.585474">
        <ele>199.224769</ele>
        <time>2020-08-12T07:43:48.374Z</time>
      </trkpt>
      <trkpt lat="37.957143" lon="-4.585632">
        <ele>199.191963</ele>
        <time>2020-08-12T07:43:50.377Z</time>
      </trkpt>
      <trkpt lat="37.957149" lon="-4.585805">
        <ele>199.376040</ele>
        <time>2020-08-12T07:43:52.375Z</time>
      </trkpt>
      <trkpt lat="37.957167" lon="-4.585955">
        <ele>199.537327</ele>
        <time>2020-08-12T07:43:54.380Z</time>
      </trkpt>
      <trkpt lat="37.957172" lon="-4.586140">
        <ele>199.734098</ele>
        <time>2020-08-12T07:43:56.375Z</time>
      </trkpt>
      <trkpt lat="37.957171" lon="-4.586339">
        <ele>199.945641</ele>
        <time>2020-08-12T07:43:58.357Z</time>
      </trkpt>
      <trkpt lat="37.957187" lon="-4.586532">
        <ele>200.151931</ele>
        <time>2020-08-12T07:44:00.371Z</time>
      </trkpt>
      <trkpt lat="37.957204" lon="-4.586749">
        <ele>200.383739</ele>
        <time>2020-08-12T07:44:02.367Z</time>
      </trkpt>
      <trkpt lat="37.957264" lon="-4.586959">
        <ele>200.621174</ele>
        <time>2020-08-12T07:44:04.369Z</time>
      </trkpt>
      <trkpt lat="37.957295" lon="-4.587172">
        <ele>200.851418</ele>
        <time>2020-08-12T07:44:06.367Z</time>
      </trkpt>
      <trkpt lat="37.957333" lon="-4.587353">
        <ele>201.050526</ele>
        <time>2020-08-12T07:44:08.368Z</time>
      </trkpt>
      <trkpt lat="37.957351" lon="-4.587543">
        <ele>201.253949</ele>
        <time>2020-08-12T07:44:10.364Z</time>
      </trkpt>
      <trkpt lat="37.957381" lon="-4.587687">
        <ele>201.412274</ele>
        <time>2020-08-12T07:44:12.372Z</time>
      </trkpt>
      <trkpt lat="37.957420" lon="-4.587801">
        <ele>201.540589</ele>
        <time>2020-08-12T07:44:14.372Z</time>
      </trkpt>
      <trkpt lat="37.957447" lon="-4.587940">
        <ele>200.824760</ele>
        <time>2020-08-12T07:44:17.355Z</time>
      </trkpt>
      <trkpt lat="37.957450" lon="-4.588074">
        <ele>200.154443</ele>
        <time>2020-08-12T07:44:21.368Z</time>
      </trkpt>
      <trkpt lat="37.957473" lon="-4.588204">
        <ele>199.488234</ele>
        <time>2020-08-12T07:44:25.372Z</time>
      </trkpt>
      <trkpt lat="37.957470" lon="-4.588338">
        <ele>198.817918</ele>
        <time>2020-08-12T07:44:29.390Z</time>
      </trkpt>
      <trkpt lat="37.957466" lon="-4.588459">
        <ele>198.212344</ele>
        <time>2020-08-12T07:44:33.369Z</time>
      </trkpt>
      <trkpt lat="37.957429" lon="-4.588587">
        <ele>197.530643</ele>
        <time>2020-08-12T07:44:37.375Z</time>
      </trkpt>
      <trkpt lat="37.957403" lon="-4.588730">
        <ele>196.796828</ele>
        <time>2020-08-12T07:44:42.357Z</time>
      </trkpt>
      <trkpt lat="37.957394" lon="-4.588854">
        <ele>196.174163</ele>
        <time>2020-08-12T07:44:46.376Z</time>
      </trkpt>
      <trkpt lat="37.957390" lon="-4.588982">
        <ele>195.533615</ele>
        <time>2020-08-12T07:44:50.371Z</time>
      </trkpt>
      <trkpt lat="37.957414" lon="-4.589124">
        <ele>194.807436</ele>
        <time>2020-08-12T07:44:54.365Z</time>
      </trkpt>
      <trkpt lat="37.957440" lon="-4.589254">
        <ele>194.136804</ele>
        <time>2020-08-12T07:44:57.361Z</time>
      </trkpt>
      <trkpt lat="37.957462" lon="-4.589408">
        <ele>193.354213</ele>
        <time>2020-08-12T07:45:00.369Z</time>
      </trkpt>
      <trkpt lat="37.957486" lon="-4.589572">
        <ele>192.520151</ele>
        <time>2020-08-12T07:45:03.375Z</time>
      </trkpt>
      <trkpt lat="37.957534" lon="-4.589737">
        <ele>191.640729</ele>
        <time>2020-08-12T07:45:06.393Z</time>
      </trkpt>
      <trkpt lat="37.957544" lon="-4.589866">
        <ele>190.992575</ele>
        <time>2020-08-12T07:45:08.372Z</time>
      </trkpt>
      <trkpt lat="37.957544" lon="-4.589988">
        <ele>190.382533</ele>
        <time>2020-08-12T07:45:10.377Z</time>
      </trkpt>
      <trkpt lat="37.957579" lon="-4.590116">
        <ele>190.485981</ele>
        <time>2020-08-12T07:45:13.379Z</time>
      </trkpt>
      <trkpt lat="37.957610" lon="-4.590236">
        <ele>190.996238</ele>
        <time>2020-08-12T07:45:15.372Z</time>
      </trkpt>
      <trkpt lat="37.957624" lon="-4.590365">
        <ele>191.522414</ele>
        <time>2020-08-12T07:45:17.371Z</time>
      </trkpt>
      <trkpt lat="37.957664" lon="-4.590528">
        <ele>192.212226</ele>
        <time>2020-08-12T07:45:20.369Z</time>
      </trkpt>
      <trkpt lat="37.957665" lon="-4.590674">
        <ele>192.802202</ele>
        <time>2020-08-12T07:45:22.358Z</time>
      </trkpt>
      <trkpt lat="37.957686" lon="-4.590810">
        <ele>193.362188</ele>
        <time>2020-08-12T07:45:24.368Z</time>
      </trkpt>
      <trkpt lat="37.957691" lon="-4.590966">
        <ele>193.993070</ele>
        <time>2020-08-12T07:45:26.370Z</time>
      </trkpt>
      <trkpt lat="37.957706" lon="-4.591141">
        <ele>194.704373</ele>
        <time>2020-08-12T07:45:28.362Z</time>
      </trkpt>
      <trkpt lat="37.957745" lon="-4.591347">
        <ele>195.560433</ele>
        <time>2020-08-12T07:45:30.357Z</time>
      </trkpt>
      <trkpt lat="37.957738" lon="-4.591464">
        <ele>196.034563</ele>
        <time>2020-08-12T07:45:31.371Z</time>
      </trkpt>
      <trkpt lat="37.957746" lon="-4.591579">
        <ele>196.501058</ele>
        <time>2020-08-12T07:45:32.374Z</time>
      </trkpt>
      <trkpt lat="37.957757" lon="-4.591698">
        <ele>196.985204</ele>
        <time>2020-08-12T07:45:33.379Z</time>
      </trkpt>
      <trkpt lat="37.957770" lon="-4.591829">
        <ele>197.518722</ele>
        <time>2020-08-12T07:45:34.367Z</time>
      </trkpt>
      <trkpt lat="37.957777" lon="-4.591970">
        <ele>198.089599</ele>
        <time>2020-08-12T07:45:35.359Z</time>
      </trkpt>
      <trkpt lat="37.957771" lon="-4.592104">
        <ele>198.631936</ele>
        <time>2020-08-12T07:45:36.374Z</time>
      </trkpt>
      <trkpt lat="37.957739" lon="-4.592243">
        <ele>199.217056</ele>
        <time>2020-08-12T07:45:37.369Z</time>
      </trkpt>
      <trkpt lat="37.957698" lon="-4.592374">
        <ele>199.186935</ele>
        <time>2020-08-12T07:45:38.359Z</time>
      </trkpt>
      <trkpt lat="37.957673" lon="-4.592508">
        <ele>198.970634</ele>
        <time>2020-08-12T07:45:39.377Z</time>
      </trkpt>
      <trkpt lat="37.957617" lon="-4.592645">
        <ele>198.728232</ele>
        <time>2020-08-12T07:45:40.374Z</time>
      </trkpt>
      <trkpt lat="37.957572" lon="-4.592768">
        <ele>198.515236</ele>
        <time>2020-08-12T07:45:41.378Z</time>
      </trkpt>
      <trkpt lat="37.957541" lon="-4.592893">
        <ele>198.309400</ele>
        <time>2020-08-12T07:45:42.377Z</time>
      </trkpt>
      <trkpt lat="37.957502" lon="-4.593023">
        <ele>198.090912</ele>
        <time>2020-08-12T07:45:43.362Z</time>
      </trkpt>
      <trkpt lat="37.957477" lon="-4.593154">
        <ele>197.879193</ele>
        <time>2020-08-12T07:45:44.372Z</time>
      </trkpt>
      <trkpt lat="37.957465" lon="-4.593271">
        <ele>197.693859</ele>
        <time>2020-08-12T07:45:45.375Z</time>
      </trkpt>
      <trkpt lat="37.957438" lon="-4.593393">
        <ele>197.494813</ele>
        <time>2020-08-12T07:45:46.379Z</time>
      </trkpt>
      <trkpt lat="37.957480" lon="-4.593600">
        <ele>197.159060</ele>
        <time>2020-08-12T07:45:48.364Z</time>
      </trkpt>
      <trkpt lat="37.957525" lon="-4.593765">
        <ele>196.884808</ele>
        <time>2020-08-12T07:45:50.373Z</time>
      </trkpt>
      <trkpt lat="37.957566" lon="-4.593917">
        <ele>196.632459</ele>
        <time>2020-08-12T07:45:52.358Z</time>
      </trkpt>
      <trkpt lat="37.957573" lon="-4.594050">
        <ele>196.423076</ele>
        <time>2020-08-12T07:45:54.372Z</time>
      </trkpt>
      <trkpt lat="37.957593" lon="-4.594171">
        <ele>196.228875</ele>
        <time>2020-08-12T07:45:56.373Z</time>
      </trkpt>
      <trkpt lat="37.957637" lon="-4.594311">
        <ele>195.992135</ele>
        <time>2020-08-12T07:45:59.379Z</time>
      </trkpt>
      <trkpt lat="37.957659" lon="-4.594429">
        <ele>195.801667</ele>
        <time>2020-08-12T07:46:02.369Z</time>
      </trkpt>
      <trkpt lat="37.957677" lon="-4.594545">
        <ele>195.868475</ele>
        <time>2020-08-12T07:46:06.367Z</time>
      </trkpt>
      <trkpt lat="37.957698" lon="-4.594661">
        <ele>195.985120</ele>
        <time>2020-08-12T07:46:10.372Z</time>
      </trkpt>
      <trkpt lat="37.957741" lon="-4.594792">
        <ele>196.124189</ele>
        <time>2020-08-12T07:46:14.374Z</time>
      </trkpt>
      <trkpt lat="37.957761" lon="-4.594924">
        <ele>196.255924</ele>
        <time>2020-08-12T07:46:18.373Z</time>
      </trkpt>
      <trkpt lat="37.957779" lon="-4.595052">
        <ele>196.383351</ele>
        <time>2020-08-12T07:46:22.374Z</time>
      </trkpt>
      <trkpt lat="37.957807" lon="-4.595168">
        <ele>196.502246</ele>
        <time>2020-08-12T07:46:26.369Z</time>
      </trkpt>
      <trkpt lat="37.957837" lon="-4.595278">
        <ele>196.616320</ele>
        <time>2020-08-12T07:46:30.353Z</time>
      </trkpt>
      <trkpt lat="37.957836" lon="-4.595398">
        <ele>196.733933</ele>
        <time>2020-08-12T07:46:34.367Z</time>
      </trkpt>
      <trkpt lat="37.957835" lon="-4.595534">
        <ele>196.867227</ele>
        <time>2020-08-12T07:46:38.365Z</time>
      </trkpt>
      <trkpt lat="37.957846" lon="-4.595648">
        <ele>196.979787</ele>
        <time>2020-08-12T07:46:41.374Z</time>
      </trkpt>
      <trkpt lat="37.957842" lon="-4.595793">
        <ele>197.121982</ele>
        <time>2020-08-12T07:46:45.375Z</time>
      </trkpt>
      <trkpt lat="37.957834" lon="-4.595935">
        <ele>197.261505</ele>
        <time>2020-08-12T07:46:49.391Z</time>
      </trkpt>
      <trkpt lat="37.957838" lon="-4.596078">
        <ele>197.401742</ele>
        <time>2020-08-12T07:46:53.374Z</time>
      </trkpt>
      <trkpt lat="37.957803" lon="-4.596192">
        <ele>197.521640</ele>
        <time>2020-08-12T07:46:56.367Z</time>
      </trkpt>
      <trkpt lat="37.957758" lon="-4.596305">
        <ele>197.645710</ele>
        <time>2020-08-12T07:46:59.374Z</time>
      </trkpt>
      <trkpt lat="37.957714" lon="-4.596432">
        <ele>197.781664</ele>
        <time>2020-08-12T07:47:03.374Z</time>
      </trkpt>
      <trkpt lat="37.957655" lon="-4.596548">
        <ele>197.916953</ele>
        <time>2020-08-12T07:47:07.372Z</time>
      </trkpt>
      <trkpt lat="37.957612" lon="-4.596669">
        <ele>197.935320</ele>
        <time>2020-08-12T07:47:11.376Z</time>
      </trkpt>
      <trkpt lat="37.957626" lon="-4.596810">
        <ele>197.684302</ele>
        <time>2020-08-12T07:47:15.380Z</time>
      </trkpt>
      <trkpt lat="37.957611" lon="-4.596975">
        <ele>197.390929</ele>
        <time>2020-08-12T07:47:19.370Z</time>
      </trkpt>
      <trkpt lat="37.957585" lon="-4.597089">
        <ele>197.181314</ele>
        <time>2020-08-12T07:47:21.356Z</time>
      </trkpt>
      <trkpt lat="37.957559" lon="-4.597217">
        <ele>196.947843</ele>
        <time>2020-08-12T07:47:23.373Z</time>
      </trkpt>
      <trkpt lat="37.957555" lon="-4.597339">
        <ele>196.732166</ele>
        <time>2020-08-12T07:47:25.370Z</time>
      </trkpt>
      <trkpt lat="37.957534" lon="-4.597478">
        <ele>196.482182</ele>
        <time>2020-08-12T07:47:27.366Z</time>
      </trkpt>
      <trkpt lat="37.957554" lon="-4.597620">
        <ele>196.227394</ele>
        <time>2020-08-12T07:47:29.374Z</time>
      </trkpt>
      <trkpt lat="37.957556" lon="-4.597761">
        <ele>195.978303</ele>
        <time>2020-08-12T07:47:31.373Z</time>
      </trkpt>
      <trkpt lat="37.957575" lon="-4.597917">
        <ele>195.699489</ele>
        <time>2020-08-12T07:47:33.362Z</time>
      </trkpt>
      <trkpt lat="37.957605" lon="-4.598101">
        <ele>195.367611</ele>
        <time>2020-08-12T07:47:35.358Z</time>
      </trkpt>
      <trkpt lat="37.957598" lon="-4.598274">
        <ele>195.061635</ele>
        <time>2020-08-12T07:47:37.381Z</time>
      </trkpt>
      <trkpt lat="37.957591" lon="-4.598480">
        <ele>194.697436</ele>
        <time>2020-08-12T07:47:39.371Z</time>
      </trkpt>
      <trkpt lat="37.957644" lon="-4.598669">
        <ele>194.343117</ele>
        <time>2020-08-12T07:47:41.378Z</time>
      </trkpt>
      <trkpt lat="37.957724" lon="-4.598862">
        <ele>193.989900</ele>
        <time>2020-08-12T07:47:43.374Z</time>
      </trkpt>
      <trkpt lat="37.957769" lon="-4.598964">
        <ele>194.115050</ele>
        <time>2020-08-12T07:47:44.374Z</time>
      </trkpt>
      <trkpt lat="37.957838" lon="-4.599169">
        <ele>194.353715</ele>
        <time>2020-08-12T07:47:46.379Z</time>
      </trkpt>
      <trkpt lat="37.957853" lon="-4.599304">
        <ele>194.499693</ele>
        <time>2020-08-12T07:47:47.369Z</time>
      </trkpt>
      <trkpt lat="37.957885" lon="-4.599432">
        <ele>194.643472</ele>
        <time>2020-08-12T07:47:48.373Z</time>
      </trkpt>
      <trkpt lat="37.957894" lon="-4.599561">
        <ele>194.782137</ele>
        <time>2020-08-12T07:47:49.364Z</time>
      </trkpt>
      <trkpt lat="37.957912" lon="-4.599682">
        <ele>194.913982</ele>
        <time>2020-08-12T07:47:50.379Z</time>
      </trkpt>
      <trkpt lat="37.957922" lon="-4.599815">
        <ele>195.057036</ele>
        <time>2020-08-12T07:47:51.368Z</time>
      </trkpt>
      <trkpt lat="37.957934" lon="-4.600037">
        <ele>195.295297</ele>
        <time>2020-08-12T07:47:53.373Z</time>
      </trkpt>
      <trkpt lat="37.957950" lon="-4.600234">
        <ele>195.507348</ele>
        <time>2020-08-12T07:47:55.369Z</time>
      </trkpt>
      <trkpt lat="37.957957" lon="-4.600409">
        <ele>195.694968</ele>
        <time>2020-08-12T07:47:57.369Z</time>
      </trkpt>
      <trkpt lat="37.957964" lon="-4.600551">
        <ele>195.847309</ele>
        <time>2020-08-12T07:47:59.374Z</time>
      </trkpt>
      <trkpt lat="37.957975" lon="-4.600676">
        <ele>195.981982</ele>
        <time>2020-08-12T07:48:01.375Z</time>
      </trkpt>
      <trkpt lat="37.957982" lon="-4.600825">
        <ele>196.141805</ele>
        <time>2020-08-12T07:48:04.375Z</time>
      </trkpt>
      <trkpt lat="37.957973" lon="-4.600961">
        <ele>196.287937</ele>
        <time>2020-08-12T07:48:08.368Z</time>
      </trkpt>
      <trkpt lat="37.957969" lon="-4.601097">
        <ele>196.418273</ele>
        <time>2020-08-12T07:48:12.379Z</time>
      </trkpt>
      <trkpt lat="37.957975" lon="-4.601210">
        <ele>196.398594</ele>
        <time>2020-08-12T07:48:15.368Z</time>
      </trkpt>
      <trkpt lat="37.957981" lon="-4.601349">
        <ele>196.374406</ele>
        <time>2020-08-12T07:48:19.372Z</time>
      </trkpt>
      <trkpt lat="37.957972" lon="-4.601485">
        <ele>196.350693</ele>
        <time>2020-08-12T07:48:23.378Z</time>
      </trkpt>
      <trkpt lat="37.957989" lon="-4.601605">
        <ele>196.329509</ele>
        <time>2020-08-12T07:48:27.372Z</time>
      </trkpt>
      <trkpt lat="37.957989" lon="-4.601745">
        <ele>196.305184</ele>
        <time>2020-08-12T07:48:31.378Z</time>
      </trkpt>
      <trkpt lat="37.957990" lon="-4.601892">
        <ele>196.279641</ele>
        <time>2020-08-12T07:48:34.381Z</time>
      </trkpt>
      <trkpt lat="37.957975" lon="-4.602039">
        <ele>196.253886</ele>
        <time>2020-08-12T07:48:37.381Z</time>
      </trkpt>
      <trkpt lat="37.957972" lon="-4.602179">
        <ele>196.229552</ele>
        <time>2020-08-12T07:48:40.374Z</time>
      </trkpt>
      <trkpt lat="37.957976" lon="-4.602339">
        <ele>196.201738</ele>
        <time>2020-08-12T07:48:43.368Z</time>
      </trkpt>
      <trkpt lat="37.957982" lon="-4.602505">
        <ele>196.172865</ele>
        <time>2020-08-12T07:48:46.377Z</time>
      </trkpt>
      <trkpt lat="37.957985" lon="-4.602632">
        <ele>196.150788</ele>
        <time>2020-08-12T07:48:48.368Z</time>
      </trkpt>
      <trkpt lat="37.958001" lon="-4.602750">
        <ele>196.129985</ele>
        <time>2020-08-12T07:48:50.363Z</time>
      </trkpt>
      <trkpt lat="37.958010" lon="-4.602890">
        <ele>196.105579</ele>
        <time>2020-08-12T07:48:52.377Z</time>
      </trkpt>
      <trkpt lat="37.958004" lon="-4.603027">
        <ele>196.081738</ele>
        <time>2020-08-12T07:48:54.372Z</time>
      </trkpt>
      <trkpt lat="37.958009" lon="-4.603169">
        <ele>196.057040</ele>
        <time>2020-08-12T07:48:56.373Z</time>
      </trkpt>
      <trkpt lat="37.958006" lon="-4.603311">
        <ele>196.032359</ele>
        <time>2020-08-12T07:48:58.373Z</time>
      </trkpt>
      <trkpt lat="37.958000" lon="-4.603470">
        <ele>196.262997</ele>
        <time>2020-08-12T07:49:00.370Z</time>
      </trkpt>
      <trkpt lat="37.957992" lon="-4.603633">
        <ele>196.613292</ele>
        <time>2020-08-12T07:49:02.373Z</time>
      </trkpt>
      <trkpt lat="37.958007" lon="-4.603758">
        <ele>196.884491</ele>
        <time>2020-08-12T07:49:04.373Z</time>
      </trkpt>
      <trkpt lat="37.957994" lon="-4.603903">
        <ele>197.197505</ele>
        <time>2020-08-12T07:49:06.372Z</time>
      </trkpt>
      <trkpt lat="37.958019" lon="-4.604058">
        <ele>197.536849</ele>
        <time>2020-08-12T07:49:09.374Z</time>
      </trkpt>
      <trkpt lat="37.958002" lon="-4.604188">
        <ele>197.819495</ele>
        <time>2020-08-12T07:49:12.376Z</time>
      </trkpt>
      <trkpt lat="37.957979" lon="-4.604307">
        <ele>198.082294</ele>
        <time>2020-08-12T07:49:15.371Z</time>
      </trkpt>
      <trkpt lat="37.957980" lon="-4.604436">
        <ele>198.358999</ele>
        <time>2020-08-12T07:49:19.373Z</time>
      </trkpt>
      <trkpt lat="37.957975" lon="-4.604577">
        <ele>198.661735</ele>
        <time>2020-08-12T07:49:23.364Z</time>
      </trkpt>
      <trkpt lat="37.957977" lon="-4.604713">
        <ele>198.953492</ele>
        <time>2020-08-12T07:49:27.373Z</time>
      </trkpt>
      <trkpt lat="37.957994" lon="-4.604842">
        <ele>199.234022</ele>
        <time>2020-08-12T07:49:31.378Z</time>
      </trkpt>
      <trkpt lat="37.957997" lon="-4.604971">
        <ele>199.510834</ele>
        <time>2020-08-12T07:49:35.359Z</time>
      </trkpt>
      <trkpt lat="37.958010" lon="-4.605090">
        <ele>199.768515</ele>
        <time>2020-08-12T07:49:39.369Z</time>
      </trkpt>
      <trkpt lat="37.958028" lon="-4.605223">
        <ele>200.057958</ele>
        <time>2020-08-12T07:49:45.365Z</time>
      </trkpt>
      <trkpt lat="37.958011" lon="-4.605356">
        <ele>200.346953</ele>
        <time>2020-08-12T07:49:50.358Z</time>
      </trkpt>
      <trkpt lat="37.958011" lon="-4.605479">
        <ele>200.610776</ele>
        <time>2020-08-12T07:49:54.380Z</time>
      </trkpt>
      <trkpt lat="37.957995" lon="-4.605619">
        <ele>200.914199</ele>
        <time>2020-08-12T07:49:58.363Z</time>
      </trkpt>
      <trkpt lat="37.957999" lon="-4.605745">
        <ele>201.196070</ele>
        <time>2020-08-12T07:50:02.370Z</time>
      </trkpt>
      <trkpt lat="37.957991" lon="-4.605892">
        <ele>201.525575</ele>
        <time>2020-08-12T07:50:06.370Z</time>
      </trkpt>
      <trkpt lat="37.957979" lon="-4.606024">
        <ele>201.822709</ele>
        <time>2020-08-12T07:50:09.369Z</time>
      </trkpt>
      <trkpt lat="37.957981" lon="-4.606138">
        <ele>202.077700</ele>
        <time>2020-08-12T07:50:12.369Z</time>
      </trkpt>
      <trkpt lat="37.957987" lon="-4.606274">
        <ele>202.382300</ele>
        <time>2020-08-12T07:50:16.363Z</time>
      </trkpt>
      <trkpt lat="37.957990" lon="-4.606415">
        <ele>202.697720</ele>
        <time>2020-08-12T07:50:20.363Z</time>
      </trkpt>
      <trkpt lat="37.957987" lon="-4.606560">
        <ele>203.022082</ele>
        <time>2020-08-12T07:50:24.374Z</time>
      </trkpt>
      <trkpt lat="37.958005" lon="-4.606703">
        <ele>203.345909</ele>
        <time>2020-08-12T07:50:28.370Z</time>
      </trkpt>
      <trkpt lat="37.958006" lon="-4.606818">
        <ele>203.603088</ele>
        <time>2020-08-12T07:50:31.373Z</time>
      </trkpt>
      <trkpt lat="37.957998" lon="-4.606941">
        <ele>203.879076</ele>
        <time>2020-08-12T07:50:34.378Z</time>
      </trkpt>
      <trkpt lat="37.957984" lon="-4.607060">
        <ele>204.148130</ele>
        <time>2020-08-12T07:50:37.373Z</time>
      </trkpt>
      <trkpt lat="37.957963" lon="-4.607173">
        <ele>204.407746</ele>
        <time>2020-08-12T07:50:40.392Z</time>
      </trkpt>
      <trkpt lat="37.957953" lon="-4.607290">
        <ele>204.670915</ele>
        <time>2020-08-12T07:50:43.374Z</time>
      </trkpt>
      <trkpt lat="37.957942" lon="-4.607415">
        <ele>204.952177</ele>
        <time>2020-08-12T07:50:47.373Z</time>
      </trkpt>
      <trkpt lat="37.957921" lon="-4.607553">
        <ele>205.266469</ele>
        <time>2020-08-12T07:50:51.374Z</time>
      </trkpt>
      <trkpt lat="37.957913" lon="-4.607693">
        <ele>205.580359</ele>
        <time>2020-08-12T07:50:55.370Z</time>
      </trkpt>
      <trkpt lat="37.957900" lon="-4.607821">
        <ele>205.868959</ele>
        <time>2020-08-12T07:50:59.378Z</time>
      </trkpt>
      <trkpt lat="37.957902" lon="-4.607943">
        <ele>206.236301</ele>
        <time>2020-08-12T07:51:03.377Z</time>
      </trkpt>
      <trkpt lat="37.957910" lon="-4.608064">
        <ele>206.715384</ele>
        <time>2020-08-12T07:51:07.374Z</time>
      </trkpt>
      <trkpt lat="37.957912" lon="-4.608184">
        <ele>207.188953</ele>
        <time>2020-08-12T07:51:11.349Z</time>
      </trkpt>
      <trkpt lat="37.957921" lon="-4.608319">
        <ele>207.723499</ele>
        <time>2020-08-12T07:51:15.363Z</time>
      </trkpt>
      <trkpt lat="37.957953" lon="-4.608438">
        <ele>208.219572</ele>
        <time>2020-08-12T07:51:19.369Z</time>
      </trkpt>
      <trkpt lat="37.957959" lon="-4.608566">
        <ele>208.725491</ele>
        <time>2020-08-12T07:51:23.377Z</time>
      </trkpt>
      <trkpt lat="37.957949" lon="-4.608690">
        <ele>209.217288</ele>
        <time>2020-08-12T07:51:27.369Z</time>
      </trkpt>
      <trkpt lat="37.957946" lon="-4.608816">
        <ele>209.714650</ele>
        <time>2020-08-12T07:51:32.373Z</time>
      </trkpt>
      <trkpt lat="37.957930" lon="-4.608937">
        <ele>210.198726</ele>
        <time>2020-08-12T07:51:37.350Z</time>
      </trkpt>
      <trkpt lat="37.957921" lon="-4.609078">
        <ele>210.756864</ele>
        <time>2020-08-12T07:51:42.376Z</time>
      </trkpt>
      <trkpt lat="37.957911" lon="-4.609223">
        <ele>211.331150</ele>
        <time>2020-08-12T07:51:47.376Z</time>
      </trkpt>
      <trkpt lat="37.957898" lon="-4.609345">
        <ele>211.816879</ele>
        <time>2020-08-12T07:51:51.373Z</time>
      </trkpt>
      <trkpt lat="37.957895" lon="-4.609473">
        <ele>212.322130</ele>
        <time>2020-08-12T07:51:55.378Z</time>
      </trkpt>
      <trkpt lat="37.957884" lon="-4.609594">
        <ele>212.802701</ele>
        <time>2020-08-12T07:52:01.350Z</time>
      </trkpt>
      <trkpt lat="37.957857" lon="-4.609710">
        <ele>213.279908</ele>
        <time>2020-08-12T07:52:06.361Z</time>
      </trkpt>
      <trkpt lat="37.957820" lon="-4.609830">
        <ele>213.788286</ele>
        <time>2020-08-12T07:52:11.369Z</time>
      </trkpt>
      <trkpt lat="37.957790" lon="-4.609946">
        <ele>214.269959</ele>
        <time>2020-08-12T07:52:15.365Z</time>
      </trkpt>
      <trkpt lat="37.957763" lon="-4.610073">
        <ele>214.788938</ele>
        <time>2020-08-12T07:52:19.359Z</time>
      </trkpt>
      <trkpt lat="37.957710" lon="-4.610191">
        <ele>215.016044</ele>
        <time>2020-08-12T07:52:23.379Z</time>
      </trkpt>
      <trkpt lat="37.957640" lon="-4.610297">
        <ele>215.011148</ele>
        <time>2020-08-12T07:52:27.363Z</time>
      </trkpt>
      <trkpt lat="37.957567" lon="-4.610366">
        <ele>215.007059</ele>
        <time>2020-08-12T07:52:30.357Z</time>
      </trkpt>
      <trkpt lat="37.957482" lon="-4.610407">
        <ele>215.002975</ele>
        <time>2020-08-12T07:52:33.376Z</time>
      </trkpt>
      <trkpt lat="37.957378" lon="-4.610471">
        <ele>214.997783</ele>
        <time>2020-08-12T07:52:37.361Z</time>
      </trkpt>
      <trkpt lat="37.957297" lon="-4.610531">
        <ele>214.993571</ele>
        <time>2020-08-12T07:52:40.374Z</time>
      </trkpt>
      <trkpt lat="37.957194" lon="-4.610595">
        <ele>214.988419</ele>
        <time>2020-08-12T07:52:44.367Z</time>
      </trkpt>
      <trkpt lat="37.957109" lon="-4.610644">
        <ele>214.984226</ele>
        <time>2020-08-12T07:52:47.382Z</time>
      </trkpt>
      <trkpt lat="37.957012" lon="-4.610685">
        <ele>214.979634</ele>
        <time>2020-08-12T07:52:50.374Z</time>
      </trkpt>
      <trkpt lat="37.956902" lon="-4.610724">
        <ele>214.974504</ele>
        <time>2020-08-12T07:52:53.365Z</time>
      </trkpt>
      <trkpt lat="37.956769" lon="-4.610808">
        <ele>214.967832</ele>
        <time>2020-08-12T07:52:56.377Z</time>
      </trkpt>
      <trkpt lat="37.956672" lon="-4.610827">
        <ele>214.963424</ele>
        <time>2020-08-12T07:52:58.354Z</time>
      </trkpt>
      <trkpt lat="37.956558" lon="-4.610874">
        <ele>214.958040</ele>
        <time>2020-08-12T07:53:00.373Z</time>
      </trkpt>
      <trkpt lat="37.956410" lon="-4.610940">
        <ele>214.950994</ele>
        <time>2020-08-12T07:53:02.373Z</time>
      </trkpt>
      <trkpt lat="37.956258" lon="-4.611006">
        <ele>214.943779</ele>
        <time>2020-08-12T07:53:04.392Z</time>
      </trkpt>
      <trkpt lat="37.956133" lon="-4.611147">
        <ele>214.867837</ele>
        <time>2020-08-12T07:53:06.377Z</time>
      </trkpt>
      <trkpt lat="37.956099" lon="-4.611311">
        <ele>214.626391</ele>
        <time>2020-08-12T07:53:07.369Z</time>
      </trkpt>
      <trkpt lat="37.955996" lon="-4.611489">
        <ele>214.312022</ele>
        <time>2020-08-12T07:53:09.355Z</time>
      </trkpt>
      <trkpt lat="37.955944" lon="-4.611585">
        <ele>214.146187</ele>
        <time>2020-08-12T07:53:10.372Z</time>
      </trkpt>
      <trkpt lat="37.955900" lon="-4.611708">
        <ele>213.953874</ele>
        <time>2020-08-12T07:53:11.355Z</time>
      </trkpt>
      <trkpt lat="37.955846" lon="-4.611822">
        <ele>213.764518</ele>
        <time>2020-08-12T07:53:12.369Z</time>
      </trkpt>
      <trkpt lat="37.955723" lon="-4.612002">
        <ele>213.425374</ele>
        <time>2020-08-12T07:53:14.368Z</time>
      </trkpt>
      <trkpt lat="37.955659" lon="-4.612088">
        <ele>213.256997</ele>
        <time>2020-08-12T07:53:15.372Z</time>
      </trkpt>
      <trkpt lat="37.955573" lon="-4.612183">
        <ele>213.051050</ele>
        <time>2020-08-12T07:53:16.373Z</time>
      </trkpt>
      <trkpt lat="37.955493" lon="-4.612284">
        <ele>212.847211</ele>
        <time>2020-08-12T07:53:17.370Z</time>
      </trkpt>
      <trkpt lat="37.955415" lon="-4.612373">
        <ele>212.657744</ele>
        <time>2020-08-12T07:53:18.370Z</time>
      </trkpt>
      <trkpt lat="37.955336" lon="-4.612472">
        <ele>212.457192</ele>
        <time>2020-08-12T07:53:19.357Z</time>
      </trkpt>
      <trkpt lat="37.955242" lon="-4.612565">
        <ele>212.241907</ele>
        <time>2020-08-12T07:53:20.366Z</time>
      </trkpt>
      <trkpt lat="37.955160" lon="-4.612645">
        <ele>212.055088</ele>
        <time>2020-08-12T07:53:21.376Z</time>
      </trkpt>
      <trkpt lat="37.955080" lon="-4.612735">
        <ele>211.861978</ele>
        <time>2020-08-12T07:53:22.371Z</time>
      </trkpt>
      <trkpt lat="37.955008" lon="-4.612825">
        <ele>211.690367</ele>
        <time>2020-08-12T07:53:23.369Z</time>
      </trkpt>
      <trkpt lat="37.954926" lon="-4.612909">
        <ele>211.696288</ele>
        <time>2020-08-12T07:53:24.370Z</time>
      </trkpt>
      <trkpt lat="37.954842" lon="-4.613007">
        <ele>211.702698</ele>
        <time>2020-08-12T07:53:25.376Z</time>
      </trkpt>
      <trkpt lat="37.954735" lon="-4.613082">
        <ele>211.709565</ele>
        <time>2020-08-12T07:53:26.374Z</time>
      </trkpt>
      <trkpt lat="37.954641" lon="-4.613149">
        <ele>211.715621</ele>
        <time>2020-08-12T07:53:27.376Z</time>
      </trkpt>
      <trkpt lat="37.954452" lon="-4.613241">
        <ele>211.726991</ele>
        <time>2020-08-12T07:53:29.365Z</time>
      </trkpt>
      <trkpt lat="37.954329" lon="-4.613232">
        <ele>211.733911</ele>
        <time>2020-08-12T07:53:30.370Z</time>
      </trkpt>
      <trkpt lat="37.954154" lon="-4.613226">
        <ele>211.743744</ele>
        <time>2020-08-12T07:53:32.349Z</time>
      </trkpt>
      <trkpt lat="37.953995" lon="-4.613189">
        <ele>211.752823</ele>
        <time>2020-08-12T07:53:34.370Z</time>
      </trkpt>
      <trkpt lat="37.953917" lon="-4.613130">
        <ele>211.757924</ele>
        <time>2020-08-12T07:53:35.369Z</time>
      </trkpt>
      <trkpt lat="37.953807" lon="-4.613047">
        <ele>211.765113</ele>
        <time>2020-08-12T07:53:37.373Z</time>
      </trkpt>
      <trkpt lat="37.953728" lon="-4.612937">
        <ele>211.771702</ele>
        <time>2020-08-12T07:53:39.381Z</time>
      </trkpt>
      <trkpt lat="37.953647" lon="-4.612847">
        <ele>211.777751</ele>
        <time>2020-08-12T07:53:41.375Z</time>
      </trkpt>
      <trkpt lat="37.953579" lon="-4.612765">
        <ele>211.783021</ele>
        <time>2020-08-12T07:53:43.375Z</time>
      </trkpt>
      <trkpt lat="37.953465" lon="-4.612687">
        <ele>211.790296</ele>
        <time>2020-08-12T07:53:46.358Z</time>
      </trkpt>
      <trkpt lat="37.953355" lon="-4.612622">
        <ele>211.769775</ele>
        <time>2020-08-12T07:53:49.366Z</time>
      </trkpt>
      <trkpt lat="37.953255" lon="-4.612654">
        <ele>211.749408</ele>
        <time>2020-08-12T07:53:51.366Z</time>
      </trkpt>
      <trkpt lat="37.953160" lon="-4.612636">
        <ele>211.730439</ele>
        <time>2020-08-12T07:53:53.373Z</time>
      </trkpt>
      <trkpt lat="37.953065" lon="-4.612609">
        <ele>211.711213</ele>
        <time>2020-08-12T07:53:56.379Z</time>
      </trkpt>
      <trkpt lat="37.952945" lon="-4.612623">
        <ele>211.687415</ele>
        <time>2020-08-12T07:54:00.376Z</time>
      </trkpt>
      <trkpt lat="37.952847" lon="-4.612594">
        <ele>211.667541</ele>
        <time>2020-08-12T07:54:03.373Z</time>
      </trkpt>
      <trkpt lat="37.952727" lon="-4.612610">
        <ele>211.643713</ele>
        <time>2020-08-12T07:54:07.377Z</time>
      </trkpt>
      <trkpt lat="37.952616" lon="-4.612654">
        <ele>211.620746</ele>
        <time>2020-08-12T07:54:11.374Z</time>
      </trkpt>
      <trkpt lat="37.952518" lon="-4.612706">
        <ele>211.599767</ele>
        <time>2020-08-12T07:54:15.371Z</time>
      </trkpt>
      <trkpt lat="37.952424" lon="-4.612754">
        <ele>211.579756</ele>
        <time>2020-08-12T07:54:19.375Z</time>
      </trkpt>
      <trkpt lat="37.952316" lon="-4.612783">
        <ele>211.557955</ele>
        <time>2020-08-12T07:54:23.378Z</time>
      </trkpt>
      <trkpt lat="37.952220" lon="-4.612841">
        <ele>211.536955</ele>
        <time>2020-08-12T07:54:27.371Z</time>
      </trkpt>
      <trkpt lat="37.952113" lon="-4.612904">
        <ele>211.513658</ele>
        <time>2020-08-12T07:54:31.376Z</time>
      </trkpt>
      <trkpt lat="37.952052" lon="-4.613008">
        <ele>211.493474</ele>
        <time>2020-08-12T07:54:35.362Z</time>
      </trkpt>
      <trkpt lat="37.952005" lon="-4.613117">
        <ele>211.474128</ele>
        <time>2020-08-12T07:54:38.371Z</time>
      </trkpt>
      <trkpt lat="37.951949" lon="-4.613248">
        <ele>211.450924</ele>
        <time>2020-08-12T07:54:42.355Z</time>
      </trkpt>
      <trkpt lat="37.951896" lon="-4.613347">
        <ele>211.514316</ele>
        <time>2020-08-12T07:54:45.373Z</time>
      </trkpt>
      <trkpt lat="37.951838" lon="-4.613439">
        <ele>211.917756</ele>
        <time>2020-08-12T07:54:49.367Z</time>
      </trkpt>
      <trkpt lat="37.951758" lon="-4.613496">
        <ele>212.316338</ele>
        <time>2020-08-12T07:54:53.360Z</time>
      </trkpt>
      <trkpt lat="37.951669" lon="-4.613557">
        <ele>212.755771</ele>
        <time>2020-08-12T07:54:57.374Z</time>
      </trkpt>
      <trkpt lat="37.951576" lon="-4.613602">
        <ele>213.188137</ele>
        <time>2020-08-12T07:55:01.378Z</time>
      </trkpt>
      <trkpt lat="37.951463" lon="-4.613640">
        <ele>213.695935</ele>
        <time>2020-08-12T07:55:06.371Z</time>
      </trkpt>
      <trkpt lat="37.951375" lon="-4.613663">
        <ele>214.086211</ele>
        <time>2020-08-12T07:55:10.377Z</time>
      </trkpt>
      <trkpt lat="37.951301" lon="-4.613733">
        <ele>214.487213</ele>
        <time>2020-08-12T07:55:14.371Z</time>
      </trkpt>
      <trkpt lat="37.951230" lon="-4.613808">
        <ele>214.888587</ele>
        <time>2020-08-12T07:55:18.374Z</time>
      </trkpt>
      <trkpt lat="37.951154" lon="-4.613887">
        <ele>215.315430</ele>
        <time>2020-08-12T07:55:21.373Z</time>
      </trkpt>
      <trkpt lat="37.951073" lon="-4.613972">
        <ele>215.772102</ele>
        <time>2020-08-12T07:55:24.374Z</time>
      </trkpt>
      <trkpt lat="37.950989" lon="-4.614084">
        <ele>216.301527</ele>
        <time>2020-08-12T07:55:27.380Z</time>
      </trkpt>
      <trkpt lat="37.950907" lon="-4.614241">
        <ele>216.946536</ele>
        <time>2020-08-12T07:55:30.372Z</time>
      </trkpt>
      <trkpt lat="37.950804" lon="-4.614378">
        <ele>217.594885</ele>
        <time>2020-08-12T07:55:32.376Z</time>
      </trkpt>
      <trkpt lat="37.950722" lon="-4.614497">
        <ele>218.136177</ele>
        <time>2020-08-12T07:55:34.365Z</time>
      </trkpt>
      <trkpt lat="37.950639" lon="-4.614604">
        <ele>218.650273</ele>
        <time>2020-08-12T07:55:36.375Z</time>
      </trkpt>
      <trkpt lat="37.950535" lon="-4.614751">
        <ele>219.232207</ele>
        <time>2020-08-12T07:55:38.350Z</time>
      </trkpt>
      <trkpt lat="37.950449" lon="-4.614919">
        <ele>219.088600</ele>
        <time>2020-08-12T07:55:40.351Z</time>
      </trkpt>
      <trkpt lat="37.950362" lon="-4.615081">
        <ele>218.948071</ele>
        <time>2020-08-12T07:55:42.368Z</time>
      </trkpt>
      <trkpt lat="37.950294" lon="-4.615170">
        <ele>218.859219</ele>
        <time>2020-08-12T07:55:43.374Z</time>
      </trkpt>
      <trkpt lat="37.950241" lon="-4.615274">
        <ele>218.770437</ele>
        <time>2020-08-12T07:55:44.375Z</time>
      </trkpt>
      <trkpt lat="37.950188" lon="-4.615370">
        <ele>218.686414</ele>
        <time>2020-08-12T07:55:45.369Z</time>
      </trkpt>
      <trkpt lat="37.950112" lon="-4.615541">
        <ele>218.545677</ele>
        <time>2020-08-12T07:55:47.375Z</time>
      </trkpt>
      <trkpt lat="37.950049" lon="-4.615640">
        <ele>218.454466</ele>
        <time>2020-08-12T07:55:48.374Z</time>
      </trkpt>
      <trkpt lat="37.949971" lon="-4.615831">
        <ele>218.300247</ele>
        <time>2020-08-12T07:55:50.380Z</time>
      </trkpt>
      <trkpt lat="37.949915" lon="-4.615948">
        <ele>218.202117</ele>
        <time>2020-08-12T07:55:51.374Z</time>
      </trkpt>
      <trkpt lat="37.949856" lon="-4.616044">
        <ele>218.114850</ele>
        <time>2020-08-12T07:55:52.365Z</time>
      </trkpt>
      <trkpt lat="37.949803" lon="-4.616140">
        <ele>218.030827</ele>
        <time>2020-08-12T07:55:53.368Z</time>
      </trkpt>
      <trkpt lat="37.949763" lon="-4.616255">
        <ele>217.940709</ele>
        <time>2020-08-12T07:55:54.375Z</time>
      </trkpt>
      <trkpt lat="37.949700" lon="-4.616353">
        <ele>217.850054</ele>
        <time>2020-08-12T07:55:55.378Z</time>
      </trkpt>
      <trkpt lat="37.949647" lon="-4.616457">
        <ele>217.761271</ele>
        <time>2020-08-12T07:55:56.372Z</time>
      </trkpt>
      <trkpt lat="37.949598" lon="-4.616562">
        <ele>217.673792</ele>
        <time>2020-08-12T07:55:57.373Z</time>
      </trkpt>
      <trkpt lat="37.949539" lon="-4.616652">
        <ele>217.487813</ele>
        <time>2020-08-12T07:55:58.372Z</time>
      </trkpt>
      <trkpt lat="37.949501" lon="-4.616757">
        <ele>217.041922</ele>
        <time>2020-08-12T07:55:59.379Z</time>
      </trkpt>
      <trkpt lat="37.949436" lon="-4.616845">
        <ele>216.576556</ele>
        <time>2020-08-12T07:56:00.377Z</time>
      </trkpt>
      <trkpt lat="37.949370" lon="-4.616943">
        <ele>216.079152</ele>
        <time>2020-08-12T07:56:01.379Z</time>
      </trkpt>
      <trkpt lat="37.949280" lon="-4.617131">
        <ele>215.230317</ele>
        <time>2020-08-12T07:56:03.373Z</time>
      </trkpt>
      <trkpt lat="37.949229" lon="-4.617226">
        <ele>214.786758</ele>
        <time>2020-08-12T07:56:04.368Z</time>
      </trkpt>
      <trkpt lat="37.949138" lon="-4.617403">
        <ele>213.971250</ele>
        <time>2020-08-12T07:56:06.378Z</time>
      </trkpt>
      <trkpt lat="37.949036" lon="-4.617587">
        <ele>213.103176</ele>
        <time>2020-08-12T07:56:08.369Z</time>
      </trkpt>
      <trkpt lat="37.948964" lon="-4.617767">
        <ele>212.324191</ele>
        <time>2020-08-12T07:56:10.374Z</time>
      </trkpt>
      <trkpt lat="37.948879" lon="-4.617932">
        <ele>211.563517</ele>
        <time>2020-08-12T07:56:12.373Z</time>
      </trkpt>
      <trkpt lat="37.948811" lon="-4.618134">
        <ele>210.715818</ele>
        <time>2020-08-12T07:56:14.370Z</time>
      </trkpt>
      <trkpt lat="37.948774" lon="-4.618237">
        <ele>210.278979</ele>
        <time>2020-08-12T07:56:15.373Z</time>
      </trkpt>
      <trkpt lat="37.948718" lon="-4.618441">
        <ele>209.445286</ele>
        <time>2020-08-12T07:56:17.371Z</time>
      </trkpt>
      <trkpt lat="37.948671" lon="-4.618642">
        <ele>208.724646</ele>
        <time>2020-08-12T07:56:19.371Z</time>
      </trkpt>
      <trkpt lat="37.948615" lon="-4.618847">
        <ele>208.314020</ele>
        <time>2020-08-12T07:56:21.372Z</time>
      </trkpt>
      <trkpt lat="37.948573" lon="-4.619042">
        <ele>207.931423</ele>
        <time>2020-08-12T07:56:23.376Z</time>
      </trkpt>
      <trkpt lat="37.948574" lon="-4.619236">
        <ele>207.564230</ele>
        <time>2020-08-12T07:56:25.373Z</time>
      </trkpt>
      <trkpt lat="37.948516" lon="-4.619444">
        <ele>207.146658</ele>
        <time>2020-08-12T07:56:27.371Z</time>
      </trkpt>
      <trkpt lat="37.948510" lon="-4.619655">
        <ele>206.747038</ele>
        <time>2020-08-12T07:56:29.371Z</time>
      </trkpt>
      <trkpt lat="37.948498" lon="-4.619872">
        <ele>206.335311</ele>
        <time>2020-08-12T07:56:31.379Z</time>
      </trkpt>
      <trkpt lat="37.948485" lon="-4.619988">
        <ele>206.113551</ele>
        <time>2020-08-12T07:56:32.373Z</time>
      </trkpt>
      <trkpt lat="37.948472" lon="-4.620101">
        <ele>205.897411</ele>
        <time>2020-08-12T07:56:33.382Z</time>
      </trkpt>
      <trkpt lat="37.948480" lon="-4.620216">
        <ele>205.678904</ele>
        <time>2020-08-12T07:56:34.378Z</time>
      </trkpt>
      <trkpt lat="37.948467" lon="-4.620338">
        <ele>205.445895</ele>
        <time>2020-08-12T07:56:35.376Z</time>
      </trkpt>
      <trkpt lat="37.948416" lon="-4.620568">
        <ele>204.993689</ele>
        <time>2020-08-12T07:56:37.374Z</time>
      </trkpt>
      <trkpt lat="37.948383" lon="-4.620691">
        <ele>204.747780</ele>
        <time>2020-08-12T07:56:38.367Z</time>
      </trkpt>
      <trkpt lat="37.948328" lon="-4.620811">
        <ele>204.486968</ele>
        <time>2020-08-12T07:56:39.375Z</time>
      </trkpt>
      <trkpt lat="37.948269" lon="-4.620937">
        <ele>204.278136</ele>
        <time>2020-08-12T07:56:40.369Z</time>
      </trkpt>
      <trkpt lat="37.948219" lon="-4.621063">
        <ele>204.077121</ele>
        <time>2020-08-12T07:56:41.367Z</time>
      </trkpt>
      <trkpt lat="37.948168" lon="-4.621294">
        <ele>203.735266</ele>
        <time>2020-08-12T07:56:43.375Z</time>
      </trkpt>
      <trkpt lat="37.948101" lon="-4.621495">
        <ele>203.424283</ele>
        <time>2020-08-12T07:56:45.367Z</time>
      </trkpt>
      <trkpt lat="37.948048" lon="-4.621693">
        <ele>203.126301</ele>
        <time>2020-08-12T07:56:47.371Z</time>
      </trkpt>
      <trkpt lat="37.947989" lon="-4.621789">
        <ele>202.952850</ele>
        <time>2020-08-12T07:56:48.359Z</time>
      </trkpt>
      <trkpt lat="37.947933" lon="-4.621945">
        <ele>202.708584</ele>
        <time>2020-08-12T07:56:50.370Z</time>
      </trkpt>
      <trkpt lat="37.947909" lon="-4.622111">
        <ele>202.468075</ele>
        <time>2020-08-12T07:56:52.380Z</time>
      </trkpt>
      <trkpt lat="37.947896" lon="-4.622279">
        <ele>202.227509</ele>
        <time>2020-08-12T07:56:54.373Z</time>
      </trkpt>
      <trkpt lat="37.947917" lon="-4.622460">
        <ele>201.966789</ele>
        <time>2020-08-12T07:56:56.374Z</time>
      </trkpt>
      <trkpt lat="37.947925" lon="-4.622623">
        <ele>201.734049</ele>
        <time>2020-08-12T07:56:58.359Z</time>
      </trkpt>
      <trkpt lat="37.947926" lon="-4.622789">
        <ele>201.497477</ele>
        <time>2020-08-12T07:57:00.363Z</time>
      </trkpt>
      <trkpt lat="37.947926" lon="-4.622939">
        <ele>201.283712</ele>
        <time>2020-08-12T07:57:02.368Z</time>
      </trkpt>
      <trkpt lat="37.947952" lon="-4.623092">
        <ele>200.910102</ele>
        <time>2020-08-12T07:57:04.370Z</time>
      </trkpt>
      <trkpt lat="37.947960" lon="-4.623239">
        <ele>200.525989</ele>
        <time>2020-08-12T07:57:06.378Z</time>
      </trkpt>
      <trkpt lat="37.947998" lon="-4.623388">
        <ele>200.117766</ele>
        <time>2020-08-12T07:57:08.374Z</time>
      </trkpt>
      <trkpt lat="37.947995" lon="-4.623560">
        <ele>199.669285</ele>
        <time>2020-08-12T07:57:10.367Z</time>
      </trkpt>
      <trkpt lat="37.948006" lon="-4.623714">
        <ele>199.266193</ele>
        <time>2020-08-12T07:57:12.372Z</time>
      </trkpt>
      <trkpt lat="37.948018" lon="-4.623873">
        <ele>198.849816</ele>
        <time>2020-08-12T07:57:14.368Z</time>
      </trkpt>
      <trkpt lat="37.948029" lon="-4.624036">
        <ele>198.423353</ele>
        <time>2020-08-12T07:57:16.358Z</time>
      </trkpt>
      <trkpt lat="37.948083" lon="-4.624165">
        <ele>198.042631</ele>
        <time>2020-08-12T07:57:18.369Z</time>
      </trkpt>
      <trkpt lat="37.948109" lon="-4.624344">
        <ele>197.568163</ele>
        <time>2020-08-12T07:57:20.371Z</time>
      </trkpt>
      <trkpt lat="37.948115" lon="-4.624510">
        <ele>197.134979</ele>
        <time>2020-08-12T07:57:22.374Z</time>
      </trkpt>
      <trkpt lat="37.948105" lon="-4.624685">
        <ele>196.677592</ele>
        <time>2020-08-12T07:57:24.374Z</time>
      </trkpt>
      <trkpt lat="37.948091" lon="-4.624870">
        <ele>196.193117</ele>
        <time>2020-08-12T07:57:26.373Z</time>
      </trkpt>
      <trkpt lat="37.948066" lon="-4.625036">
        <ele>195.752566</ele>
        <time>2020-08-12T07:57:28.363Z</time>
      </trkpt>
      <trkpt lat="37.948066" lon="-4.625198">
        <ele>195.330263</ele>
        <time>2020-08-12T07:57:30.375Z</time>
      </trkpt>
      <trkpt lat="37.948060" lon="-4.625358">
        <ele>195.092119</ele>
        <time>2020-08-12T07:57:32.371Z</time>
      </trkpt>
      <trkpt lat="37.948065" lon="-4.625521">
        <ele>194.865735</ele>
        <time>2020-08-12T07:57:34.380Z</time>
      </trkpt>
      <trkpt lat="37.948056" lon="-4.625680">
        <ele>194.644505</ele>
        <time>2020-08-12T07:57:36.373Z</time>
      </trkpt>
      <trkpt lat="37.948061" lon="-4.625862">
        <ele>194.391770</ele>
        <time>2020-08-12T07:57:38.375Z</time>
      </trkpt>
      <trkpt lat="37.948039" lon="-4.626070">
        <ele>194.100520</ele>
        <time>2020-08-12T07:57:40.376Z</time>
      </trkpt>
      <trkpt lat="37.948041" lon="-4.626265">
        <ele>193.829874</ele>
        <time>2020-08-12T07:57:42.373Z</time>
      </trkpt>
      <trkpt lat="37.948039" lon="-4.626455">
        <ele>193.566166</ele>
        <time>2020-08-12T07:57:44.374Z</time>
      </trkpt>
      <trkpt lat="37.948044" lon="-4.626654">
        <ele>193.289851</ele>
        <time>2020-08-12T07:57:46.383Z</time>
      </trkpt>
      <trkpt lat="37.948036" lon="-4.626871">
        <ele>192.988367</ele>
        <time>2020-08-12T07:57:48.369Z</time>
      </trkpt>
      <trkpt lat="37.948029" lon="-4.627082">
        <ele>192.695279</ele>
        <time>2020-08-12T07:57:50.377Z</time>
      </trkpt>
      <trkpt lat="37.947975" lon="-4.627278">
        <ele>192.407144</ele>
        <time>2020-08-12T07:57:52.370Z</time>
      </trkpt>
      <trkpt lat="37.947902" lon="-4.627448">
        <ele>192.138504</ele>
        <time>2020-08-12T07:57:54.374Z</time>
      </trkpt>
      <trkpt lat="37.947803" lon="-4.627600">
        <ele>191.957411</ele>
        <time>2020-08-12T07:57:56.369Z</time>
      </trkpt>
      <trkpt lat="37.947724" lon="-4.627746">
        <ele>191.797127</ele>
        <time>2020-08-12T07:57:58.363Z</time>
      </trkpt>
      <trkpt lat="37.947635" lon="-4.627879">
        <ele>191.639226</ele>
        <time>2020-08-12T07:58:00.373Z</time>
      </trkpt>
      <trkpt lat="37.947545" lon="-4.628015">
        <ele>191.478509</ele>
        <time>2020-08-12T07:58:02.370Z</time>
      </trkpt>
      <trkpt lat="37.947477" lon="-4.628147">
        <ele>191.335782</ele>
        <time>2020-08-12T07:58:04.369Z</time>
      </trkpt>
      <trkpt lat="37.947443" lon="-4.628342">
        <ele>191.154999</ele>
        <time>2020-08-12T07:58:06.354Z</time>
      </trkpt>
      <trkpt lat="37.947399" lon="-4.628516">
        <ele>190.989589</ele>
        <time>2020-08-12T07:58:08.366Z</time>
      </trkpt>
      <trkpt lat="37.947354" lon="-4.628702">
        <ele>190.813470</ele>
        <time>2020-08-12T07:58:10.377Z</time>
      </trkpt>
      <trkpt lat="37.947360" lon="-4.628818">
        <ele>190.708238</ele>
        <time>2020-08-12T07:58:11.370Z</time>
      </trkpt>
      <trkpt lat="37.947316" lon="-4.629040">
        <ele>190.501027</ele>
        <time>2020-08-12T07:58:13.376Z</time>
      </trkpt>
      <trkpt lat="37.947284" lon="-4.629169">
        <ele>190.378611</ele>
        <time>2020-08-12T07:58:14.366Z</time>
      </trkpt>
      <trkpt lat="37.947288" lon="-4.629292">
        <ele>190.267173</ele>
        <time>2020-08-12T07:58:15.366Z</time>
      </trkpt>
      <trkpt lat="37.947271" lon="-4.629423">
        <ele>190.146993</ele>
        <time>2020-08-12T07:58:16.376Z</time>
      </trkpt>
      <trkpt lat="37.947251" lon="-4.629573">
        <ele>189.917773</ele>
        <time>2020-08-12T07:58:17.374Z</time>
      </trkpt>
      <trkpt lat="37.947213" lon="-4.629719">
        <ele>189.554898</ele>
        <time>2020-08-12T07:58:18.359Z</time>
      </trkpt>
      <trkpt lat="37.947198" lon="-4.629861">
        <ele>189.216753</ele>
        <time>2020-08-12T07:58:19.376Z</time>
      </trkpt>
      <trkpt lat="37.947153" lon="-4.630014">
        <ele>188.831341</ele>
        <time>2020-08-12T07:58:20.380Z</time>
      </trkpt>
      <trkpt lat="37.947116" lon="-4.630165">
        <ele>188.458139</ele>
        <time>2020-08-12T07:58:21.366Z</time>
      </trkpt>
      <trkpt lat="37.947091" lon="-4.630305">
        <ele>188.119342</ele>
        <time>2020-08-12T07:58:22.374Z</time>
      </trkpt>
      <trkpt lat="37.947069" lon="-4.630451">
        <ele>187.768515</ele>
        <time>2020-08-12T07:58:23.374Z</time>
      </trkpt>
      <trkpt lat="37.947039" lon="-4.630589">
        <ele>187.430654</ele>
        <time>2020-08-12T07:58:24.374Z</time>
      </trkpt>
      <trkpt lat="37.947009" lon="-4.630722">
        <ele>187.104155</ele>
        <time>2020-08-12T07:58:25.367Z</time>
      </trkpt>
      <trkpt lat="37.946961" lon="-4.630869">
        <ele>186.728635</ele>
        <time>2020-08-12T07:58:26.372Z</time>
      </trkpt>
      <trkpt lat="37.946929" lon="-4.631019">
        <ele>186.361874</ele>
        <time>2020-08-12T07:58:27.381Z</time>
      </trkpt>
      <trkpt lat="37.946891" lon="-4.631160">
        <ele>186.010184</ele>
        <time>2020-08-12T07:58:28.367Z</time>
      </trkpt>
      <trkpt lat="37.946853" lon="-4.631289">
        <ele>185.685166</ele>
        <time>2020-08-12T07:58:29.375Z</time>
      </trkpt>
      <trkpt lat="37.946820" lon="-4.631422">
        <ele>185.356084</ele>
        <time>2020-08-12T07:58:30.373Z</time>
      </trkpt>
      <trkpt lat="37.946786" lon="-4.631562">
        <ele>185.010337</ele>
        <time>2020-08-12T07:58:31.367Z</time>
      </trkpt>
      <trkpt lat="37.946742" lon="-4.631708">
        <ele>184.651113</ele>
        <time>2020-08-12T07:58:32.367Z</time>
      </trkpt>
      <trkpt lat="37.946710" lon="-4.631847">
        <ele>184.389180</ele>
        <time>2020-08-12T07:58:33.375Z</time>
      </trkpt>
      <trkpt lat="37.946667" lon="-4.631976">
        <ele>184.135841</ele>
        <time>2020-08-12T07:58:34.376Z</time>
      </trkpt>
      <trkpt lat="37.946642" lon="-4.632102">
        <ele>183.900815</ele>
        <time>2020-08-12T07:58:35.374Z</time>
      </trkpt>
      <trkpt lat="37.946604" lon="-4.632229">
        <ele>183.655102</ele>
        <time>2020-08-12T07:58:36.374Z</time>
      </trkpt>
      <trkpt lat="37.946561" lon="-4.632363">
        <ele>183.393408</ele>
        <time>2020-08-12T07:58:37.360Z</time>
      </trkpt>
      <trkpt lat="37.946526" lon="-4.632478">
        <ele>183.170429</ele>
        <time>2020-08-12T07:58:38.374Z</time>
      </trkpt>
      <trkpt lat="37.946460" lon="-4.632609">
        <ele>182.889227</ele>
        <time>2020-08-12T07:58:39.377Z</time>
      </trkpt>
      <trkpt lat="37.946408" lon="-4.632726">
        <ele>182.646286</ele>
        <time>2020-08-12T07:58:40.363Z</time>
      </trkpt>
      <trkpt lat="37.946367" lon="-4.632837">
        <ele>182.424562</ele>
        <time>2020-08-12T07:58:41.362Z</time>
      </trkpt>
      <trkpt lat="37.946312" lon="-4.632949">
        <ele>182.185892</ele>
        <time>2020-08-12T07:58:42.370Z</time>
      </trkpt>
      <trkpt lat="37.946290" lon="-4.633071">
        <ele>181.959508</ele>
        <time>2020-08-12T07:58:43.369Z</time>
      </trkpt>
      <trkpt lat="37.946281" lon="-4.633200">
        <ele>181.725247</ele>
        <time>2020-08-12T07:58:44.381Z</time>
      </trkpt>
      <trkpt lat="37.946245" lon="-4.633307">
        <ele>181.514813</ele>
        <time>2020-08-12T07:58:45.374Z</time>
      </trkpt>
      <trkpt lat="37.946222" lon="-4.633441">
        <ele>181.266742</ele>
        <time>2020-08-12T07:58:46.372Z</time>
      </trkpt>
      <trkpt lat="37.946172" lon="-4.633557">
        <ele>181.027608</ele>
        <time>2020-08-12T07:58:47.374Z</time>
      </trkpt>
      <trkpt lat="37.946126" lon="-4.633664">
        <ele>180.807160</ele>
        <time>2020-08-12T07:58:48.372Z</time>
      </trkpt>
      <trkpt lat="37.946078" lon="-4.633787">
        <ele>180.558910</ele>
        <time>2020-08-12T07:58:49.371Z</time>
      </trkpt>
      <trkpt lat="37.946034" lon="-4.633907">
        <ele>180.231202</ele>
        <time>2020-08-12T07:58:50.377Z</time>
      </trkpt>
      <trkpt lat="37.945996" lon="-4.634048">
        <ele>179.861422</ele>
        <time>2020-08-12T07:58:51.372Z</time>
      </trkpt>
      <trkpt lat="37.945975" lon="-4.634295">
        <ele>179.244906</ele>
        <time>2020-08-12T07:58:53.370Z</time>
      </trkpt>
      <trkpt lat="37.946010" lon="-4.634436">
        <ele>178.878069</ele>
        <time>2020-08-12T07:58:54.377Z</time>
      </trkpt>
      <trkpt lat="37.946034" lon="-4.634573">
        <ele>178.529798</ele>
        <time>2020-08-12T07:58:55.353Z</time>
      </trkpt>
      <trkpt lat="37.946077" lon="-4.634706">
        <ele>178.173078</ele>
        <time>2020-08-12T07:58:56.363Z</time>
      </trkpt>
      <trkpt lat="37.946128" lon="-4.634822">
        <ele>177.843492</ele>
        <time>2020-08-12T07:58:57.362Z</time>
      </trkpt>
      <trkpt lat="37.946181" lon="-4.634937">
        <ele>177.512942</ele>
        <time>2020-08-12T07:58:58.351Z</time>
      </trkpt>
      <trkpt lat="37.946245" lon="-4.635046">
        <ele>177.175700</ele>
        <time>2020-08-12T07:58:59.368Z</time>
      </trkpt>
      <trkpt lat="37.946339" lon="-4.635146">
        <ele>176.789580</ele>
        <time>2020-08-12T07:59:00.369Z</time>
      </trkpt>
      <trkpt lat="37.946414" lon="-4.635249">
        <ele>176.441671</ele>
        <time>2020-08-12T07:59:01.375Z</time>
      </trkpt>
      <trkpt lat="37.946500" lon="-4.635339">
        <ele>176.090777</ele>
        <time>2020-08-12T07:59:02.372Z</time>
      </trkpt>
      <trkpt lat="37.946619" lon="-4.635416">
        <ele>175.670359</ele>
        <time>2020-08-12T07:59:03.370Z</time>
      </trkpt>
      <trkpt lat="37.946715" lon="-4.635496">
        <ele>175.308860</ele>
        <time>2020-08-12T07:59:04.357Z</time>
      </trkpt>
      <trkpt lat="37.946817" lon="-4.635455">
        <ele>174.972134</ele>
        <time>2020-08-12T07:59:05.369Z</time>
      </trkpt>
      <trkpt lat="37.946929" lon="-4.635493">
        <ele>174.730827</ele>
        <time>2020-08-12T07:59:06.357Z</time>
      </trkpt>
      <trkpt lat="37.947033" lon="-4.635551">
        <ele>174.525853</ele>
        <time>2020-08-12T07:59:07.374Z</time>
      </trkpt>
      <trkpt lat="37.947149" lon="-4.635575">
        <ele>174.313806</ele>
        <time>2020-08-12T07:59:08.357Z</time>
      </trkpt>
      <trkpt lat="37.947250" lon="-4.635620">
        <ele>174.120668</ele>
        <time>2020-08-12T07:59:09.372Z</time>
      </trkpt>
      <trkpt lat="37.947369" lon="-4.635633">
        <ele>173.905181</ele>
        <time>2020-08-12T07:59:10.367Z</time>
      </trkpt>
      <trkpt lat="37.947478" lon="-4.635623">
        <ele>173.708015</ele>
        <time>2020-08-12T07:59:11.373Z</time>
      </trkpt>
      <trkpt lat="37.947577" lon="-4.635609">
        <ele>173.528299</ele>
        <time>2020-08-12T07:59:12.376Z</time>
      </trkpt>
      <trkpt lat="37.947684" lon="-4.635594">
        <ele>173.334080</ele>
        <time>2020-08-12T07:59:13.376Z</time>
      </trkpt>
      <trkpt lat="37.947779" lon="-4.635607">
        <ele>173.161691</ele>
        <time>2020-08-12T07:59:14.376Z</time>
      </trkpt>
      <trkpt lat="37.947924" lon="-4.635571">
        <ele>172.895125</ele>
        <time>2020-08-12T07:59:16.375Z</time>
      </trkpt>
      <trkpt lat="37.947998" lon="-4.635716">
        <ele>172.649402</ele>
        <time>2020-08-12T07:59:18.377Z</time>
      </trkpt>
      <trkpt lat="37.947989" lon="-4.635883">
        <ele>172.411259</ele>
        <time>2020-08-12T07:59:21.379Z</time>
      </trkpt>
      <trkpt lat="37.947978" lon="-4.636053">
        <ele>172.168589</ele>
        <time>2020-08-12T07:59:23.376Z</time>
      </trkpt>
      <trkpt lat="37.947997" lon="-4.636216">
        <ele>171.934171</ele>
        <time>2020-08-12T07:59:25.375Z</time>
      </trkpt>
      <trkpt lat="37.947983" lon="-4.636402">
        <ele>171.668349</ele>
        <time>2020-08-12T07:59:27.361Z</time>
      </trkpt>
      <trkpt lat="37.947958" lon="-4.636535">
        <ele>172.067739</ele>
        <time>2020-08-12T07:59:29.379Z</time>
      </trkpt>
      <trkpt lat="37.947961" lon="-4.636664">
        <ele>172.496787</ele>
        <time>2020-08-12T07:59:31.361Z</time>
      </trkpt>
      <trkpt lat="37.947976" lon="-4.636795">
        <ele>172.936865</ele>
        <time>2020-08-12T07:59:33.376Z</time>
      </trkpt>
      <trkpt lat="37.947960" lon="-4.636933">
        <ele>173.400580</ele>
        <time>2020-08-12T07:59:36.372Z</time>
      </trkpt>
      <trkpt lat="37.947905" lon="-4.637026">
        <ele>173.787048</ele>
        <time>2020-08-12T07:59:41.351Z</time>
      </trkpt>
      <trkpt lat="37.947793" lon="-4.637061">
        <ele>174.273351</ele>
        <time>2020-08-12T07:59:46.353Z</time>
      </trkpt>
      <trkpt lat="37.947699" lon="-4.637067">
        <ele>174.670145</ele>
        <time>2020-08-12T07:59:49.369Z</time>
      </trkpt>
      <trkpt lat="37.947609" lon="-4.637118">
        <ele>175.085734</ele>
        <time>2020-08-12T07:59:52.374Z</time>
      </trkpt>
      <trkpt lat="37.947512" lon="-4.637157">
        <ele>175.514736</ele>
        <time>2020-08-12T07:59:55.373Z</time>
      </trkpt>
      <trkpt lat="37.947396" lon="-4.637154">
        <ele>176.003879</ele>
        <time>2020-08-12T07:59:58.370Z</time>
      </trkpt>
      <trkpt lat="37.947304" lon="-4.637145">
        <ele>176.392892</ele>
        <time>2020-08-12T08:00:01.373Z</time>
      </trkpt>
      <trkpt lat="37.947194" lon="-4.637164">
        <ele>176.860920</ele>
        <time>2020-08-12T08:00:05.370Z</time>
      </trkpt>
      <trkpt lat="37.947073" lon="-4.637174">
        <ele>177.372123</ele>
        <time>2020-08-12T08:00:09.372Z</time>
      </trkpt>
      <trkpt lat="37.946973" lon="-4.637227">
        <ele>177.829051</ele>
        <time>2020-08-12T08:00:13.370Z</time>
      </trkpt>
      <trkpt lat="37.946876" lon="-4.637289">
        <ele>178.287001</ele>
        <time>2020-08-12T08:00:17.370Z</time>
      </trkpt>
      <trkpt lat="37.946798" lon="-4.637351">
        <ele>178.675101</ele>
        <time>2020-08-12T08:00:20.375Z</time>
      </trkpt>
      <trkpt lat="37.946700" lon="-4.637429">
        <ele>179.162894</ele>
        <time>2020-08-12T08:00:24.361Z</time>
      </trkpt>
      <trkpt lat="37.946628" lon="-4.637506">
        <ele>179.007941</ele>
        <time>2020-08-12T08:00:27.368Z</time>
      </trkpt>
      <trkpt lat="37.946562" lon="-4.637591">
        <ele>178.731522</ele>
        <time>2020-08-12T08:00:30.366Z</time>
      </trkpt>
      <trkpt lat="37.946466" lon="-4.637662">
        <ele>178.404958</ele>
        <time>2020-08-12T08:00:34.369Z</time>
      </trkpt>
      <trkpt lat="37.946372" lon="-4.637728">
        <ele>178.089228</ele>
        <time>2020-08-12T08:00:38.371Z</time>
      </trkpt>
      <trkpt lat="37.946274" lon="-4.637779">
        <ele>177.777952</ele>
        <time>2020-08-12T08:00:42.354Z</time>
      </trkpt>
      <trkpt lat="37.946186" lon="-4.637850">
        <ele>177.471465</ele>
        <time>2020-08-12T08:00:46.374Z</time>
      </trkpt>
      <trkpt lat="37.946117" lon="-4.637951">
        <ele>177.161813</ele>
        <time>2020-08-12T08:00:50.372Z</time>
      </trkpt>
      <trkpt lat="37.946060" lon="-4.638057">
        <ele>176.864513</ele>
        <time>2020-08-12T08:00:54.380Z</time>
      </trkpt>
      <trkpt lat="37.946021" lon="-4.638175">
        <ele>176.568034</ele>
        <time>2020-08-12T08:00:58.376Z</time>
      </trkpt>
      <trkpt lat="37.945972" lon="-4.638284">
        <ele>176.277297</ele>
        <time>2020-08-12T08:01:02.376Z</time>
      </trkpt>
      <trkpt lat="37.945923" lon="-4.638403">
        <ele>175.966216</ele>
        <time>2020-08-12T08:01:06.372Z</time>
      </trkpt>
      <trkpt lat="37.945890" lon="-4.638546">
        <ele>175.620952</ele>
        <time>2020-08-12T08:01:10.371Z</time>
      </trkpt>
      <trkpt lat="37.945883" lon="-4.638666">
        <ele>175.342122</ele>
        <time>2020-08-12T08:01:14.378Z</time>
      </trkpt>
      <trkpt lat="37.945862" lon="-4.638798">
        <ele>175.030083</ele>
        <time>2020-08-12T08:01:19.376Z</time>
      </trkpt>
      <trkpt lat="37.945851" lon="-4.638926">
        <ele>174.731719</ele>
        <time>2020-08-12T08:01:24.374Z</time>
      </trkpt>
      <trkpt lat="37.945849" lon="-4.639052">
        <ele>174.439686</ele>
        <time>2020-08-12T08:01:28.372Z</time>
      </trkpt>
      <trkpt lat="37.945855" lon="-4.639183">
        <ele>174.135614</ele>
        <time>2020-08-12T08:01:32.373Z</time>
      </trkpt>
      <trkpt lat="37.945854" lon="-4.639300">
        <ele>174.055646</ele>
        <time>2020-08-12T08:01:35.384Z</time>
      </trkpt>
      <trkpt lat="37.945852" lon="-4.639417">
        <ele>174.394780</ele>
        <time>2020-08-12T08:01:39.371Z</time>
      </trkpt>
      <trkpt lat="37.945859" lon="-4.639537">
        <ele>174.743480</ele>
        <time>2020-08-12T08:01:43.372Z</time>
      </trkpt>
      <trkpt lat="37.945867" lon="-4.639666">
        <ele>175.118464</ele>
        <time>2020-08-12T08:01:47.377Z</time>
      </trkpt>
      <trkpt lat="37.945874" lon="-4.639786">
        <ele>175.467163</ele>
        <time>2020-08-12T08:01:51.372Z</time>
      </trkpt>
      <trkpt lat="37.945887" lon="-4.639912">
        <ele>175.835411</ele>
        <time>2020-08-12T08:01:56.377Z</time>
      </trkpt>
      <trkpt lat="37.945926" lon="-4.640029">
        <ele>176.203512</ele>
        <time>2020-08-12T08:02:01.373Z</time>
      </trkpt>
      <trkpt lat="37.945947" lon="-4.640148">
        <ele>176.556892</ele>
        <time>2020-08-12T08:02:05.367Z</time>
      </trkpt>
      <trkpt lat="37.945945" lon="-4.640300">
        <ele>176.997434</ele>
        <time>2020-08-12T08:02:09.381Z</time>
      </trkpt>
      <trkpt lat="37.945951" lon="-4.640418">
        <ele>177.340097</ele>
        <time>2020-08-12T08:02:12.370Z</time>
      </trkpt>
      <trkpt lat="37.945958" lon="-4.640543">
        <ele>177.703248</ele>
        <time>2020-08-12T08:02:15.375Z</time>
      </trkpt>
      <trkpt lat="37.945956" lon="-4.640678">
        <ele>178.094534</ele>
        <time>2020-08-12T08:02:18.374Z</time>
      </trkpt>
      <trkpt lat="37.945947" lon="-4.640833">
        <ele>178.544925</ele>
        <time>2020-08-12T08:02:21.378Z</time>
      </trkpt>
      <trkpt lat="37.945942" lon="-4.640972">
        <ele>178.948152</ele>
        <time>2020-08-12T08:02:24.376Z</time>
      </trkpt>
      <trkpt lat="37.945943" lon="-4.641094">
        <ele>179.301716</ele>
        <time>2020-08-12T08:02:27.373Z</time>
      </trkpt>
      <trkpt lat="37.945943" lon="-4.641218">
        <ele>179.661056</ele>
        <time>2020-08-12T08:02:30.370Z</time>
      </trkpt>
      <trkpt lat="37.945934" lon="-4.641356">
        <ele>180.062332</ele>
        <time>2020-08-12T08:02:33.374Z</time>
      </trkpt>
      <trkpt lat="37.945925" lon="-4.641483">
        <ele>180.431849</ele>
        <time>2020-08-12T08:02:36.379Z</time>
      </trkpt>
      <trkpt lat="37.945930" lon="-4.641614">
        <ele>180.546376</ele>
        <time>2020-08-12T08:02:39.379Z</time>
      </trkpt>
      <trkpt lat="37.945937" lon="-4.641739">
        <ele>180.528173</ele>
        <time>2020-08-12T08:02:42.374Z</time>
      </trkpt>
      <trkpt lat="37.945929" lon="-4.641867">
        <ele>180.509522</ele>
        <time>2020-08-12T08:02:45.365Z</time>
      </trkpt>
      <trkpt lat="37.945916" lon="-4.642004">
        <ele>180.489478</ele>
        <time>2020-08-12T08:02:48.379Z</time>
      </trkpt>
      <trkpt lat="37.945893" lon="-4.642150">
        <ele>180.467851</ele>
        <time>2020-08-12T08:02:51.377Z</time>
      </trkpt>
      <trkpt lat="37.945884" lon="-4.642283">
        <ele>180.448461</ele>
        <time>2020-08-12T08:02:54.366Z</time>
      </trkpt>
      <trkpt lat="37.945877" lon="-4.642408">
        <ele>180.430257</ele>
        <time>2020-08-12T08:02:57.352Z</time>
      </trkpt>
      <trkpt lat="37.945866" lon="-4.642547">
        <ele>180.409965</ele>
        <time>2020-08-12T08:03:00.372Z</time>
      </trkpt>
      <trkpt lat="37.945855" lon="-4.642673">
        <ele>180.391551</ele>
        <time>2020-08-12T08:03:02.359Z</time>
      </trkpt>
      <trkpt lat="37.945870" lon="-4.642826">
        <ele>180.369155</ele>
        <time>2020-08-12T08:03:05.380Z</time>
      </trkpt>
      <trkpt lat="37.945824" lon="-4.642979">
        <ele>180.345370</ele>
        <time>2020-08-12T08:03:07.372Z</time>
      </trkpt>
      <trkpt lat="37.945800" lon="-4.643117">
        <ele>180.324843</ele>
        <time>2020-08-12T08:03:09.359Z</time>
      </trkpt>
      <trkpt lat="37.945789" lon="-4.643248">
        <ele>180.305706</ele>
        <time>2020-08-12T08:03:11.376Z</time>
      </trkpt>
      <trkpt lat="37.945779" lon="-4.643387">
        <ele>180.285431</ele>
        <time>2020-08-12T08:03:13.373Z</time>
      </trkpt>
      <trkpt lat="37.945770" lon="-4.643510">
        <ele>180.267488</ele>
        <time>2020-08-12T08:03:15.362Z</time>
      </trkpt>
      <trkpt lat="37.945770" lon="-4.643624">
        <ele>180.250928</ele>
        <time>2020-08-12T08:03:17.382Z</time>
      </trkpt>
      <trkpt lat="37.945771" lon="-4.643753">
        <ele>180.232189</ele>
        <time>2020-08-12T08:03:19.372Z</time>
      </trkpt>
      <trkpt lat="37.945758" lon="-4.643885">
        <ele>180.296214</ele>
        <time>2020-08-12T08:03:21.365Z</time>
      </trkpt>
      <trkpt lat="37.945740" lon="-4.644010">
        <ele>180.381177</ele>
        <time>2020-08-12T08:03:23.374Z</time>
      </trkpt>
      <trkpt lat="37.945725" lon="-4.644161">
        <ele>180.482940</ele>
        <time>2020-08-12T08:03:25.369Z</time>
      </trkpt>
      <trkpt lat="37.945705" lon="-4.644296">
        <ele>180.574786</ele>
        <time>2020-08-12T08:03:27.361Z</time>
      </trkpt>
      <trkpt lat="37.945694" lon="-4.644422">
        <ele>180.659550</ele>
        <time>2020-08-12T08:03:29.359Z</time>
      </trkpt>
      <trkpt lat="37.945692" lon="-4.644542">
        <ele>180.739806</ele>
        <time>2020-08-12T08:03:31.371Z</time>
      </trkpt>
      <trkpt lat="37.945667" lon="-4.644686">
        <ele>180.838396</ele>
        <time>2020-08-12T08:03:33.371Z</time>
      </trkpt>
      <trkpt lat="37.945643" lon="-4.644823">
        <ele>180.932234</ele>
        <time>2020-08-12T08:03:35.369Z</time>
      </trkpt>
      <trkpt lat="37.945657" lon="-4.644947">
        <ele>181.015992</ele>
        <time>2020-08-12T08:03:37.363Z</time>
      </trkpt>
      <trkpt lat="37.945622" lon="-4.645116">
        <ele>181.132825</ele>
        <time>2020-08-12T08:03:39.362Z</time>
      </trkpt>
      <trkpt lat="37.945623" lon="-4.645266">
        <ele>181.233125</ele>
        <time>2020-08-12T08:03:41.369Z</time>
      </trkpt>
      <trkpt lat="37.945618" lon="-4.645408">
        <ele>181.328168</ele>
        <time>2020-08-12T08:03:43.368Z</time>
      </trkpt>
      <trkpt lat="37.945637" lon="-4.645547">
        <ele>181.422495</ele>
        <time>2020-08-12T08:03:45.370Z</time>
      </trkpt>
      <trkpt lat="37.945614" lon="-4.645692">
        <ele>181.521391</ele>
        <time>2020-08-12T08:03:47.373Z</time>
      </trkpt>
      <trkpt lat="37.945595" lon="-4.645832">
        <ele>181.616378</ele>
        <time>2020-08-12T08:03:49.371Z</time>
      </trkpt>
      <trkpt lat="37.945601" lon="-4.645974">
        <ele>181.711462</ele>
        <time>2020-08-12T08:03:51.375Z</time>
      </trkpt>
      <trkpt lat="37.945591" lon="-4.646125">
        <ele>181.772592</ele>
        <time>2020-08-12T08:03:53.363Z</time>
      </trkpt>
      <trkpt lat="37.945576" lon="-4.646276">
        <ele>181.806167</ele>
        <time>2020-08-12T08:03:55.374Z</time>
      </trkpt>
      <trkpt lat="37.945554" lon="-4.646412">
        <ele>181.836794</ele>
        <time>2020-08-12T08:03:57.374Z</time>
      </trkpt>
      <trkpt lat="37.945548" lon="-4.646551">
        <ele>181.867504</ele>
        <time>2020-08-12T08:03:59.384Z</time>
      </trkpt>
      <trkpt lat="37.945520" lon="-4.646690">
        <ele>181.899152</ele>
        <time>2020-08-12T08:04:01.368Z</time>
      </trkpt>
      <trkpt lat="37.945499" lon="-4.646825">
        <ele>181.929508</ele>
        <time>2020-08-12T08:04:03.373Z</time>
      </trkpt>
      <trkpt lat="37.945485" lon="-4.646956">
        <ele>181.958671</ele>
        <time>2020-08-12T08:04:05.372Z</time>
      </trkpt>
      <trkpt lat="37.945487" lon="-4.647070">
        <ele>181.983827</ele>
        <time>2020-08-12T08:04:07.372Z</time>
      </trkpt>
      <trkpt lat="37.945491" lon="-4.647212">
        <ele>182.015172</ele>
        <time>2020-08-12T08:04:09.371Z</time>
      </trkpt>
      <trkpt lat="37.945490" lon="-4.647335">
        <ele>182.042308</ele>
        <time>2020-08-12T08:04:11.373Z</time>
      </trkpt>
      <trkpt lat="37.945482" lon="-4.647502">
        <ele>182.079217</ele>
        <time>2020-08-12T08:04:14.379Z</time>
      </trkpt>
      <trkpt lat="37.945463" lon="-4.647686">
        <ele>182.120155</ele>
        <time>2020-08-12T08:04:17.382Z</time>
      </trkpt>
      <trkpt lat="37.945443" lon="-4.647816">
        <ele>182.149374</ele>
        <time>2020-08-12T08:04:19.378Z</time>
      </trkpt>
      <trkpt lat="37.945416" lon="-4.647960">
        <ele>182.182027</ele>
        <time>2020-08-12T08:04:21.367Z</time>
      </trkpt>
      <trkpt lat="37.945411" lon="-4.648127">
        <ele>182.218895</ele>
        <time>2020-08-12T08:04:24.367Z</time>
      </trkpt>
      <trkpt lat="37.945377" lon="-4.648267">
        <ele>182.251211</ele>
        <time>2020-08-12T08:04:26.378Z</time>
      </trkpt>
      <trkpt lat="37.945339" lon="-4.648419">
        <ele>182.205325</ele>
        <time>2020-08-12T08:04:28.372Z</time>
      </trkpt>
      <trkpt lat="37.945309" lon="-4.648542">
        <ele>182.158052</ele>
        <time>2020-08-12T08:04:30.357Z</time>
      </trkpt>
      <trkpt lat="37.945297" lon="-4.648667">
        <ele>182.111816</ele>
        <time>2020-08-12T08:04:32.370Z</time>
      </trkpt>
      <trkpt lat="37.945245" lon="-4.648822">
        <ele>182.049968</ele>
        <time>2020-08-12T08:04:34.371Z</time>
      </trkpt>
      <trkpt lat="37.945249" lon="-4.649003">
        <ele>181.983484</ele>
        <time>2020-08-12T08:04:37.374Z</time>
      </trkpt>
      <trkpt lat="37.945226" lon="-4.649134">
        <ele>181.934206</ele>
        <time>2020-08-12T08:04:39.371Z</time>
      </trkpt>
      <trkpt lat="37.945216" lon="-4.649251">
        <ele>181.890995</ele>
        <time>2020-08-12T08:04:41.373Z</time>
      </trkpt>
      <trkpt lat="37.945170" lon="-4.649369">
        <ele>181.842664</ele>
        <time>2020-08-12T08:04:43.364Z</time>
      </trkpt>
      <trkpt lat="37.945170" lon="-4.649516">
        <ele>181.788689</ele>
        <time>2020-08-12T08:04:46.369Z</time>
      </trkpt>
      <trkpt lat="37.945136" lon="-4.649684">
        <ele>181.725005</ele>
        <time>2020-08-12T08:04:49.361Z</time>
      </trkpt>
      <trkpt lat="37.945129" lon="-4.649799">
        <ele>181.682654</ele>
        <time>2020-08-12T08:04:51.371Z</time>
      </trkpt>
      <trkpt lat="37.945118" lon="-4.649919">
        <ele>181.638296</ele>
        <time>2020-08-12T08:04:53.368Z</time>
      </trkpt>
      <trkpt lat="37.945082" lon="-4.650052">
        <ele>181.586666</ele>
        <time>2020-08-12T08:04:55.372Z</time>
      </trkpt>
      <trkpt lat="37.945047" lon="-4.650173">
        <ele>181.539343</ele>
        <time>2020-08-12T08:04:57.370Z</time>
      </trkpt>
      <trkpt lat="37.945024" lon="-4.650313">
        <ele>181.486835</ele>
        <time>2020-08-12T08:05:00.376Z</time>
      </trkpt>
      <trkpt lat="37.944997" lon="-4.650428">
        <ele>181.442778</ele>
        <time>2020-08-12T08:05:02.371Z</time>
      </trkpt>
      <trkpt lat="37.944943" lon="-4.650578">
        <ele>181.361747</ele>
        <time>2020-08-12T08:05:05.377Z</time>
      </trkpt>
      <trkpt lat="37.944879" lon="-4.650694">
        <ele>181.280408</ele>
        <time>2020-08-12T08:05:08.388Z</time>
      </trkpt>
      <trkpt lat="37.944818" lon="-4.650786">
        <ele>181.211349</ele>
        <time>2020-08-12T08:05:10.377Z</time>
      </trkpt>
      <trkpt lat="37.944723" lon="-4.650898">
        <ele>181.116842</ele>
        <time>2020-08-12T08:05:13.375Z</time>
      </trkpt>
      <trkpt lat="37.944646" lon="-4.650961">
        <ele>181.050079</ele>
        <time>2020-08-12T08:05:15.372Z</time>
      </trkpt>
      <trkpt lat="37.944568" lon="-4.651066">
        <ele>180.967200</ele>
        <time>2020-08-12T08:05:17.374Z</time>
      </trkpt>
      <trkpt lat="37.944452" lon="-4.651138">
        <ele>180.873105</ele>
        <time>2020-08-12T08:05:19.372Z</time>
      </trkpt>
      <trkpt lat="37.944335" lon="-4.651210">
        <ele>180.778355</ele>
        <time>2020-08-12T08:05:21.368Z</time>
      </trkpt>
      <trkpt lat="37.944197" lon="-4.651276">
        <ele>180.670899</ele>
        <time>2020-08-12T08:05:23.374Z</time>
      </trkpt>
      <trkpt lat="37.944093" lon="-4.651347">
        <ele>180.584845</ele>
        <time>2020-08-12T08:05:25.364Z</time>
      </trkpt>
      <trkpt lat="37.943964" lon="-4.651399">
        <ele>180.486225</ele>
        <time>2020-08-12T08:05:27.363Z</time>
      </trkpt>
      <trkpt lat="37.943826" lon="-4.651429">
        <ele>180.384216</ele>
        <time>2020-08-12T08:05:29.363Z</time>
      </trkpt>
      <trkpt lat="37.943702" lon="-4.651486">
        <ele>180.288121</ele>
        <time>2020-08-12T08:05:31.369Z</time>
      </trkpt>
      <trkpt lat="37.943549" lon="-4.651536">
        <ele>180.173008</ele>
        <time>2020-08-12T08:05:33.374Z</time>
      </trkpt>
      <trkpt lat="37.943403" lon="-4.651573">
        <ele>179.966807</ele>
        <time>2020-08-12T08:05:35.372Z</time>
      </trkpt>
      <trkpt lat="37.943269" lon="-4.651599">
        <ele>179.646381</ele>
        <time>2020-08-12T08:05:37.368Z</time>
      </trkpt>
      <trkpt lat="37.943123" lon="-4.651680">
        <ele>179.269690</ele>
        <time>2020-08-12T08:05:39.365Z</time>
      </trkpt>
      <trkpt lat="37.942956" lon="-4.651737">
        <ele>178.860897</ele>
        <time>2020-08-12T08:05:41.363Z</time>
      </trkpt>
      <trkpt lat="37.942788" lon="-4.651799">
        <ele>178.447314</ele>
        <time>2020-08-12T08:05:43.352Z</time>
      </trkpt>
      <trkpt lat="37.942616" lon="-4.651849">
        <ele>178.030206</ele>
        <time>2020-08-12T08:05:45.374Z</time>
      </trkpt>
      <trkpt lat="37.942469" lon="-4.651987">
        <ele>177.597875</ele>
        <time>2020-08-12T08:05:47.372Z</time>
      </trkpt>
      <trkpt lat="37.942389" lon="-4.652061">
        <ele>177.363809</ele>
        <time>2020-08-12T08:05:48.369Z</time>
      </trkpt>
      <trkpt lat="37.942245" lon="-4.652223">
        <ele>176.908780</ele>
        <time>2020-08-12T08:05:50.363Z</time>
      </trkpt>
      <trkpt lat="37.942152" lon="-4.652306">
        <ele>176.639963</ele>
        <time>2020-08-12T08:05:51.377Z</time>
      </trkpt>
      <trkpt lat="37.942102" lon="-4.652438">
        <ele>176.366988</ele>
        <time>2020-08-12T08:05:52.359Z</time>
      </trkpt>
      <trkpt lat="37.942054" lon="-4.652551">
        <ele>176.127730</ele>
        <time>2020-08-12T08:05:53.371Z</time>
      </trkpt>
      <trkpt lat="37.942026" lon="-4.652685">
        <ele>175.869320</ele>
        <time>2020-08-12T08:05:54.366Z</time>
      </trkpt>
      <trkpt lat="37.941994" lon="-4.652824">
        <ele>175.764921</ele>
        <time>2020-08-12T08:05:55.369Z</time>
      </trkpt>
      <trkpt lat="37.941959" lon="-4.652942">
        <ele>175.681173</ele>
        <time>2020-08-12T08:05:56.372Z</time>
      </trkpt>
      <trkpt lat="37.941914" lon="-4.653058">
        <ele>175.595296</ele>
        <time>2020-08-12T08:05:57.368Z</time>
      </trkpt>
      <trkpt lat="37.941885" lon="-4.653204">
        <ele>175.495279</ele>
        <time>2020-08-12T08:05:58.371Z</time>
      </trkpt>
      <trkpt lat="37.941861" lon="-4.653351">
        <ele>175.395556</ele>
        <time>2020-08-12T08:05:59.371Z</time>
      </trkpt>
      <trkpt lat="37.941824" lon="-4.653463">
        <ele>175.314890</ele>
        <time>2020-08-12T08:06:00.372Z</time>
      </trkpt>
      <trkpt lat="37.941774" lon="-4.653596">
        <ele>175.217012</ele>
        <time>2020-08-12T08:06:01.374Z</time>
      </trkpt>
      <trkpt lat="37.941735" lon="-4.653722">
        <ele>175.127094</ele>
        <time>2020-08-12T08:06:02.371Z</time>
      </trkpt>
      <trkpt lat="37.941692" lon="-4.653850">
        <ele>175.034670</ele>
        <time>2020-08-12T08:06:03.367Z</time>
      </trkpt>
      <trkpt lat="37.941658" lon="-4.653975">
        <ele>174.946832</ele>
        <time>2020-08-12T08:06:04.365Z</time>
      </trkpt>
      <trkpt lat="37.941637" lon="-4.654098">
        <ele>174.863230</ele>
        <time>2020-08-12T08:06:05.368Z</time>
      </trkpt>
      <trkpt lat="37.941597" lon="-4.654218">
        <ele>174.776685</ele>
        <time>2020-08-12T08:06:06.367Z</time>
      </trkpt>
      <trkpt lat="37.941549" lon="-4.654346">
        <ele>174.682531</ele>
        <time>2020-08-12T08:06:07.373Z</time>
      </trkpt>
      <trkpt lat="37.941482" lon="-4.654560">
        <ele>174.529577</ele>
        <time>2020-08-12T08:06:09.375Z</time>
      </trkpt>
      <trkpt lat="37.941416" lon="-4.654757">
        <ele>174.387390</ele>
        <time>2020-08-12T08:06:11.371Z</time>
      </trkpt>
      <trkpt lat="37.941378" lon="-4.654862">
        <ele>174.176519</ele>
        <time>2020-08-12T08:06:12.358Z</time>
      </trkpt>
      <trkpt lat="37.941308" lon="-4.655053">
        <ele>173.428305</ele>
        <time>2020-08-12T08:06:14.360Z</time>
      </trkpt>
      <trkpt lat="37.941260" lon="-4.655228">
        <ele>172.770091</ele>
        <time>2020-08-12T08:06:16.364Z</time>
      </trkpt>
      <trkpt lat="37.941209" lon="-4.655413">
        <ele>172.073884</ele>
        <time>2020-08-12T08:06:18.373Z</time>
      </trkpt>
      <trkpt lat="37.941151" lon="-4.655566">
        <ele>171.470819</ele>
        <time>2020-08-12T08:06:20.370Z</time>
      </trkpt>
      <trkpt lat="37.941064" lon="-4.655737">
        <ele>170.747899</ele>
        <time>2020-08-12T08:06:22.366Z</time>
      </trkpt>
      <trkpt lat="37.941029" lon="-4.655906">
        <ele>170.127170</ele>
        <time>2020-08-12T08:06:24.375Z</time>
      </trkpt>
      <trkpt lat="37.940994" lon="-4.656038">
        <ele>169.632445</ele>
        <time>2020-08-12T08:06:26.353Z</time>
      </trkpt>
      <trkpt lat="37.940974" lon="-4.656169">
        <ele>169.158426</ele>
        <time>2020-08-12T08:06:28.371Z</time>
      </trkpt>
      <trkpt lat="37.940937" lon="-4.656319">
        <ele>168.600093</ele>
        <time>2020-08-12T08:06:30.365Z</time>
      </trkpt>
      <trkpt lat="37.940926" lon="-4.656487">
        <ele>168.001217</ele>
        <time>2020-08-12T08:06:32.374Z</time>
      </trkpt>
      <trkpt lat="37.940898" lon="-4.656630">
        <ele>167.477785</ele>
        <time>2020-08-12T08:06:34.369Z</time>
      </trkpt>
      <trkpt lat="37.940855" lon="-4.656783">
        <ele>166.900768</ele>
        <time>2020-08-12T08:06:36.370Z</time>
      </trkpt>
      <trkpt lat="37.940805" lon="-4.656951">
        <ele>166.262861</ele>
        <time>2020-08-12T08:06:38.365Z</time>
      </trkpt>
      <trkpt lat="37.940750" lon="-4.657121">
        <ele>165.715907</ele>
        <time>2020-08-12T08:06:40.375Z</time>
      </trkpt>
      <trkpt lat="37.940707" lon="-4.657274">
        <ele>165.235918</ele>
        <time>2020-08-12T08:06:42.375Z</time>
      </trkpt>
      <trkpt lat="37.940650" lon="-4.657465">
        <ele>164.632425</ele>
        <time>2020-08-12T08:06:44.376Z</time>
      </trkpt>
      <trkpt lat="37.940608" lon="-4.657629">
        <ele>164.122868</ele>
        <time>2020-08-12T08:06:46.370Z</time>
      </trkpt>
      <trkpt lat="37.940560" lon="-4.657801">
        <ele>163.583698</ele>
        <time>2020-08-12T08:06:48.375Z</time>
      </trkpt>
      <trkpt lat="37.940499" lon="-4.657971">
        <ele>163.031767</ele>
        <time>2020-08-12T08:06:50.365Z</time>
      </trkpt>
      <trkpt lat="37.940439" lon="-4.658122">
        <ele>162.532101</ele>
        <time>2020-08-12T08:06:52.377Z</time>
      </trkpt>
      <trkpt lat="37.940378" lon="-4.658304">
        <ele>161.947707</ele>
        <time>2020-08-12T08:06:54.370Z</time>
      </trkpt>
      <trkpt lat="37.940288" lon="-4.658504">
        <ele>161.267229</ele>
        <time>2020-08-12T08:06:56.376Z</time>
      </trkpt>
      <trkpt lat="37.940225" lon="-4.658652">
        <ele>160.770223</ele>
        <time>2020-08-12T08:06:58.369Z</time>
      </trkpt>
      <trkpt lat="37.940176" lon="-4.658792">
        <ele>160.317587</ele>
        <time>2020-08-12T08:07:00.370Z</time>
      </trkpt>
      <trkpt lat="37.940112" lon="-4.658905">
        <ele>159.906463</ele>
        <time>2020-08-12T08:07:02.371Z</time>
      </trkpt>
      <trkpt lat="37.940047" lon="-4.659060">
        <ele>159.467737</ele>
        <time>2020-08-12T08:07:06.374Z</time>
      </trkpt>
      <trkpt lat="37.939999" lon="-4.659219">
        <ele>159.324298</ele>
        <time>2020-08-12T08:07:09.374Z</time>
      </trkpt>
      <trkpt lat="37.939949" lon="-4.659317">
        <ele>159.225959</ele>
        <time>2020-08-12T08:07:11.372Z</time>
      </trkpt>
      <trkpt lat="37.939854" lon="-4.659458">
        <ele>159.069716</ele>
        <time>2020-08-12T08:07:14.367Z</time>
      </trkpt>
      <trkpt lat="37.939806" lon="-4.659555">
        <ele>158.973236</ele>
        <time>2020-08-12T08:07:16.377Z</time>
      </trkpt>
      <trkpt lat="37.939734" lon="-4.659687">
        <ele>158.838016</ele>
        <time>2020-08-12T08:07:20.373Z</time>
      </trkpt>
      <trkpt lat="37.939680" lon="-4.659786">
        <ele>158.736601</ele>
        <time>2020-08-12T08:07:22.372Z</time>
      </trkpt>
      <trkpt lat="37.939618" lon="-4.659890">
        <ele>158.626762</ele>
        <time>2020-08-12T08:07:24.376Z</time>
      </trkpt>
      <trkpt lat="37.939529" lon="-4.660014">
        <ele>158.485501</ele>
        <time>2020-08-12T08:07:26.371Z</time>
      </trkpt>
      <trkpt lat="37.939476" lon="-4.660121">
        <ele>158.379046</ele>
        <time>2020-08-12T08:07:28.373Z</time>
      </trkpt>
      <trkpt lat="37.939409" lon="-4.660245">
        <ele>158.252406</ele>
        <time>2020-08-12T08:07:30.371Z</time>
      </trkpt>
      <trkpt lat="37.939329" lon="-4.660368">
        <ele>158.118081</ele>
        <time>2020-08-12T08:07:32.365Z</time>
      </trkpt>
      <trkpt lat="37.939287" lon="-4.660473">
        <ele>158.018888</ele>
        <time>2020-08-12T08:07:34.374Z</time>
      </trkpt>
      <trkpt lat="37.939264" lon="-4.660593">
        <ele>157.914842</ele>
        <time>2020-08-12T08:07:36.366Z</time>
      </trkpt>
      <trkpt lat="37.939174" lon="-4.660686">
        <ele>157.790811</ele>
        <time>2020-08-12T08:07:38.367Z</time>
      </trkpt>
      <trkpt lat="37.939130" lon="-4.660818">
        <ele>157.670072</ele>
        <time>2020-08-12T08:07:40.377Z</time>
      </trkpt>
      <trkpt lat="37.939109" lon="-4.660946">
        <ele>157.554216</ele>
        <time>2020-08-12T08:07:43.372Z</time>
      </trkpt>
      <trkpt lat="37.938996" lon="-4.661129">
        <ele>157.297232</ele>
        <time>2020-08-12T08:07:45.376Z</time>
      </trkpt>
      <trkpt lat="37.938910" lon="-4.661208">
        <ele>157.148345</ele>
        <time>2020-08-12T08:07:46.372Z</time>
      </trkpt>
      <trkpt lat="37.938892" lon="-4.661327">
        <ele>157.014369</ele>
        <time>2020-08-12T08:07:49.375Z</time>
      </trkpt>
      <trkpt lat="37.938829" lon="-4.661455">
        <ele>156.847539</ele>
        <time>2020-08-12T08:07:51.375Z</time>
      </trkpt>
      <trkpt lat="37.938780" lon="-4.661586">
        <ele>156.687228</ele>
        <time>2020-08-12T08:07:53.377Z</time>
      </trkpt>
      <trkpt lat="37.938706" lon="-4.661719">
        <ele>156.507256</ele>
        <time>2020-08-12T08:07:55.377Z</time>
      </trkpt>
      <trkpt lat="37.938579" lon="-4.661867">
        <ele>156.265426</ele>
        <time>2020-08-12T08:07:57.382Z</time>
      </trkpt>
      <trkpt lat="37.938517" lon="-4.662016">
        <ele>156.079152</ele>
        <time>2020-08-12T08:07:59.375Z</time>
      </trkpt>
      <trkpt lat="37.938460" lon="-4.662126">
        <ele>155.933620</ele>
        <time>2020-08-12T08:08:01.364Z</time>
      </trkpt>
      <trkpt lat="37.938410" lon="-4.662291">
        <ele>155.738175</ele>
        <time>2020-08-12T08:08:06.374Z</time>
      </trkpt>
      <trkpt lat="37.938371" lon="-4.662411">
        <ele>155.594666</ele>
        <time>2020-08-12T08:08:08.365Z</time>
      </trkpt>
      <trkpt lat="37.938323" lon="-4.662517">
        <ele>155.459515</ele>
        <time>2020-08-12T08:08:10.375Z</time>
      </trkpt>
      <trkpt lat="37.938275" lon="-4.662644">
        <ele>155.303798</ele>
        <time>2020-08-12T08:08:12.368Z</time>
      </trkpt>
      <trkpt lat="37.938223" lon="-4.662782">
        <ele>155.134689</ele>
        <time>2020-08-12T08:08:15.371Z</time>
      </trkpt>
      <trkpt lat="37.938191" lon="-4.662899">
        <ele>155.137020</ele>
        <time>2020-08-12T08:08:17.379Z</time>
      </trkpt>
      <trkpt lat="37.938195" lon="-4.663035">
        <ele>155.343260</ele>
        <time>2020-08-12T08:08:19.375Z</time>
      </trkpt>
      <trkpt lat="37.938181" lon="-4.663162">
        <ele>155.537589</ele>
        <time>2020-08-12T08:08:21.366Z</time>
      </trkpt>
      <trkpt lat="37.938151" lon="-4.663273">
        <ele>155.715403</ele>
        <time>2020-08-12T08:08:23.376Z</time>
      </trkpt>
      <trkpt lat="37.938118" lon="-4.663458">
        <ele>156.002836</ele>
        <time>2020-08-12T08:08:26.376Z</time>
      </trkpt>
      <trkpt lat="37.938068" lon="-4.663571">
        <ele>156.199188</ele>
        <time>2020-08-12T08:08:28.371Z</time>
      </trkpt>
      <trkpt lat="37.938032" lon="-4.663734">
        <ele>156.455704</ele>
        <time>2020-08-12T08:08:31.374Z</time>
      </trkpt>
      <trkpt lat="37.938011" lon="-4.663861">
        <ele>156.652347</ele>
        <time>2020-08-12T08:08:33.362Z</time>
      </trkpt>
      <trkpt lat="37.938018" lon="-4.663979">
        <ele>156.831672</ele>
        <time>2020-08-12T08:08:36.377Z</time>
      </trkpt>
      <trkpt lat="37.938000" lon="-4.664093">
        <ele>157.007858</ele>
        <time>2020-08-12T08:08:38.372Z</time>
      </trkpt>
      <trkpt lat="37.937936" lon="-4.664218">
        <ele>157.233702</ele>
        <time>2020-08-12T08:08:40.369Z</time>
      </trkpt>
      <trkpt lat="37.937911" lon="-4.664332">
        <ele>157.413014</ele>
        <time>2020-08-12T08:08:42.374Z</time>
      </trkpt>
      <trkpt lat="37.937908" lon="-4.664474">
        <ele>157.628281</ele>
        <time>2020-08-12T08:08:45.378Z</time>
      </trkpt>
      <trkpt lat="37.937904" lon="-4.664629">
        <ele>157.863297</ele>
        <time>2020-08-12T08:08:48.369Z</time>
      </trkpt>
      <trkpt lat="37.937932" lon="-4.664757">
        <ele>158.064594</ele>
        <time>2020-08-12T08:08:51.375Z</time>
      </trkpt>
      <trkpt lat="37.937974" lon="-4.664861">
        <ele>158.241658</ele>
        <time>2020-08-12T08:08:54.371Z</time>
      </trkpt>
      <trkpt lat="37.938015" lon="-4.665004">
        <ele>158.472239</ele>
        <time>2020-08-12T08:08:58.368Z</time>
      </trkpt>
      <trkpt lat="37.938031" lon="-4.665137">
        <ele>158.813382</ele>
        <time>2020-08-12T08:09:01.370Z</time>
      </trkpt>
      <trkpt lat="37.938061" lon="-4.665265">
        <ele>159.185549</ele>
        <time>2020-08-12T08:09:04.380Z</time>
      </trkpt>
      <trkpt lat="37.938089" lon="-4.665388">
        <ele>159.542355</ele>
        <time>2020-08-12T08:09:07.375Z</time>
      </trkpt>
      <trkpt lat="37.938108" lon="-4.665517">
        <ele>159.908105</ele>
        <time>2020-08-12T08:09:10.371Z</time>
      </trkpt>
      <trkpt lat="37.938122" lon="-4.665650">
        <ele>160.282075</ele>
        <time>2020-08-12T08:09:13.366Z</time>
      </trkpt>
      <trkpt lat="37.938137" lon="-4.665768">
        <ele>160.615195</ele>
        <time>2020-08-12T08:09:16.374Z</time>
      </trkpt>
      <trkpt lat="37.938163" lon="-4.665884">
        <ele>160.951300</ele>
        <time>2020-08-12T08:09:19.374Z</time>
      </trkpt>
      <trkpt lat="37.938171" lon="-4.666015">
        <ele>161.317501</ele>
        <time>2020-08-12T08:09:22.375Z</time>
      </trkpt>
      <trkpt lat="37.938161" lon="-4.666155">
        <ele>161.709290</ele>
        <time>2020-08-12T08:09:25.373Z</time>
      </trkpt>
      <trkpt lat="37.938128" lon="-4.666297">
        <ele>162.121880</ele>
        <time>2020-08-12T08:09:28.373Z</time>
      </trkpt>
      <trkpt lat="37.938073" lon="-4.666429">
        <ele>162.537962</ele>
        <time>2020-08-12T08:09:31.381Z</time>
      </trkpt>
      <trkpt lat="37.937984" lon="-4.666492">
        <ele>162.898171</ele>
        <time>2020-08-12T08:09:34.370Z</time>
      </trkpt>
      <trkpt lat="37.937892" lon="-4.666515">
        <ele>163.229548</ele>
        <time>2020-08-12T08:09:37.374Z</time>
      </trkpt>
      <trkpt lat="37.937800" lon="-4.666527">
        <ele>163.556381</ele>
        <time>2020-08-12T08:09:54.356Z</time>
      </trkpt>
      <trkpt lat="37.937674" lon="-4.666481">
        <ele>164.019740</ele>
        <time>2020-08-12T08:09:57.374Z</time>
      </trkpt>
      <trkpt lat="37.937584" lon="-4.666449">
        <ele>164.350058</ele>
        <time>2020-08-12T08:09:59.374Z</time>
      </trkpt>
      <trkpt lat="37.937493" lon="-4.666427">
        <ele>164.677435</ele>
        <time>2020-08-12T08:10:01.362Z</time>
      </trkpt>
      <trkpt lat="37.937363" lon="-4.666390">
        <ele>164.877294</ele>
        <time>2020-08-12T08:10:04.376Z</time>
      </trkpt>
      <trkpt lat="37.937249" lon="-4.666347">
        <ele>164.890147</ele>
        <time>2020-08-12T08:10:07.367Z</time>
      </trkpt>
      <trkpt lat="37.937146" lon="-4.666351">
        <ele>164.901283</ele>
        <time>2020-08-12T08:10:09.373Z</time>
      </trkpt>
      <trkpt lat="37.937009" lon="-4.666281">
        <ele>164.917245</ele>
        <time>2020-08-12T08:10:11.372Z</time>
      </trkpt>
      <trkpt lat="37.936908" lon="-4.666270">
        <ele>164.928200</ele>
        <time>2020-08-12T08:10:13.358Z</time>
      </trkpt>
      <trkpt lat="37.936810" lon="-4.666238">
        <ele>164.939136</ele>
        <time>2020-08-12T08:10:14.376Z</time>
      </trkpt>
      <trkpt lat="37.936719" lon="-4.666242">
        <ele>164.948976</ele>
        <time>2020-08-12T08:10:16.375Z</time>
      </trkpt>
      <trkpt lat="37.936606" lon="-4.666219">
        <ele>164.961344</ele>
        <time>2020-08-12T08:10:18.375Z</time>
      </trkpt>
      <trkpt lat="37.936538" lon="-4.666307">
        <ele>164.971844</ele>
        <time>2020-08-12T08:10:21.377Z</time>
      </trkpt>
      <trkpt lat="37.936437" lon="-4.666331">
        <ele>164.982949</ele>
        <time>2020-08-12T08:10:23.373Z</time>
      </trkpt>
      <trkpt lat="37.936358" lon="-4.666394">
        <ele>164.993034</ele>
        <time>2020-08-12T08:10:25.369Z</time>
      </trkpt>
      <trkpt lat="37.936262" lon="-4.666421">
        <ele>165.003660</ele>
        <time>2020-08-12T08:10:27.366Z</time>
      </trkpt>
      <trkpt lat="37.936159" lon="-4.666471">
        <ele>165.015579</ele>
        <time>2020-08-12T08:10:30.375Z</time>
      </trkpt>
      <trkpt lat="37.936073" lon="-4.666527">
        <ele>165.026027</ele>
        <time>2020-08-12T08:10:32.371Z</time>
      </trkpt>
      <trkpt lat="37.935992" lon="-4.666588">
        <ele>165.036208</ele>
        <time>2020-08-12T08:10:34.368Z</time>
      </trkpt>
      <trkpt lat="37.935882" lon="-4.666690">
        <ele>165.050935</ele>
        <time>2020-08-12T08:10:37.376Z</time>
      </trkpt>
      <trkpt lat="37.935821" lon="-4.666837">
        <ele>165.173618</ele>
        <time>2020-08-12T08:10:39.359Z</time>
      </trkpt>
      <trkpt lat="37.935716" lon="-4.666878">
        <ele>165.838239</ele>
        <time>2020-08-12T08:10:41.360Z</time>
      </trkpt>
      <trkpt lat="37.935612" lon="-4.666962">
        <ele>166.584179</ele>
        <time>2020-08-12T08:10:44.371Z</time>
      </trkpt>
      <trkpt lat="37.935533" lon="-4.667098">
        <ele>167.390048</ele>
        <time>2020-08-12T08:10:47.370Z</time>
      </trkpt>
      <trkpt lat="37.935481" lon="-4.667200">
        <ele>167.969519</ele>
        <time>2020-08-12T08:10:49.360Z</time>
      </trkpt>
      <trkpt lat="37.935419" lon="-4.667303">
        <ele>168.587718</ele>
        <time>2020-08-12T08:10:51.359Z</time>
      </trkpt>
      <trkpt lat="37.935320" lon="-4.667415">
        <ele>169.390347</ele>
        <time>2020-08-12T08:10:54.362Z</time>
      </trkpt>
      <trkpt lat="37.935233" lon="-4.667510">
        <ele>170.084918</ele>
        <time>2020-08-12T08:10:56.373Z</time>
      </trkpt>
      <trkpt lat="37.935141" lon="-4.667652">
        <ele>170.961701</ele>
        <time>2020-08-12T08:10:59.376Z</time>
      </trkpt>
      <trkpt lat="37.935074" lon="-4.667752">
        <ele>171.587731</ele>
        <time>2020-08-12T08:11:01.372Z</time>
      </trkpt>
      <trkpt lat="37.935031" lon="-4.667859">
        <ele>172.160696</ele>
        <time>2020-08-12T08:11:03.361Z</time>
      </trkpt>
      <trkpt lat="37.934982" lon="-4.667985">
        <ele>172.830969</ele>
        <time>2020-08-12T08:11:06.378Z</time>
      </trkpt>
      <trkpt lat="37.934902" lon="-4.668068">
        <ele>173.456291</ele>
        <time>2020-08-12T08:11:08.378Z</time>
      </trkpt>
      <trkpt lat="37.934802" lon="-4.668173">
        <ele>174.241734</ele>
        <time>2020-08-12T08:11:11.378Z</time>
      </trkpt>
      <trkpt lat="37.934692" lon="-4.668331">
        <ele>175.247260</ele>
        <time>2020-08-12T08:11:14.377Z</time>
      </trkpt>
      <trkpt lat="37.934621" lon="-4.668458">
        <ele>175.896542</ele>
        <time>2020-08-12T08:11:18.372Z</time>
      </trkpt>
      <trkpt lat="37.934519" lon="-4.668628">
        <ele>174.856682</ele>
        <time>2020-08-12T08:11:21.374Z</time>
      </trkpt>
      <trkpt lat="37.934436" lon="-4.668732">
        <ele>174.136403</ele>
        <time>2020-08-12T08:11:23.375Z</time>
      </trkpt>
      <trkpt lat="37.934375" lon="-4.668834">
        <ele>173.513233</ele>
        <time>2020-08-12T08:11:25.376Z</time>
      </trkpt>
      <trkpt lat="37.934307" lon="-4.668933">
        <ele>172.874129</ele>
        <time>2020-08-12T08:11:26.366Z</time>
      </trkpt>
      <trkpt lat="37.934220" lon="-4.669021">
        <ele>172.187177</ele>
        <time>2020-08-12T08:11:29.365Z</time>
      </trkpt>
      <trkpt lat="37.934141" lon="-4.669150">
        <ele>171.392086</ele>
        <time>2020-08-12T08:11:32.374Z</time>
      </trkpt>
      <trkpt lat="37.934103" lon="-4.669298">
        <ele>170.634362</ele>
        <time>2020-08-12T08:11:34.377Z</time>
      </trkpt>
      <trkpt lat="37.934051" lon="-4.669418">
        <ele>169.967801</ele>
        <time>2020-08-12T08:11:36.379Z</time>
      </trkpt>
      <trkpt lat="37.933973" lon="-4.669562">
        <ele>169.117364</ele>
        <time>2020-08-12T08:11:39.378Z</time>
      </trkpt>
      <trkpt lat="37.933872" lon="-4.669657">
        <ele>168.341129</ele>
        <time>2020-08-12T08:11:41.373Z</time>
      </trkpt>
      <trkpt lat="37.933785" lon="-4.669787">
        <ele>167.511125</ele>
        <time>2020-08-12T08:11:43.367Z</time>
      </trkpt>
      <trkpt lat="37.933653" lon="-4.669929">
        <ele>166.442607</ele>
        <time>2020-08-12T08:11:45.370Z</time>
      </trkpt>
      <trkpt lat="37.933586" lon="-4.670034">
        <ele>165.785093</ele>
        <time>2020-08-12T08:11:47.374Z</time>
      </trkpt>
      <trkpt lat="37.933676" lon="-4.670013">
        <ele>165.220247</ele>
        <time>2020-08-12T08:11:49.369Z</time>
      </trkpt>
      <trkpt lat="37.933623" lon="-4.670139">
        <ele>164.951636</ele>
        <time>2020-08-12T08:11:51.372Z</time>
      </trkpt>
      <trkpt lat="37.933557" lon="-4.670218">
        <ele>165.145999</ele>
        <time>2020-08-12T08:11:52.364Z</time>
      </trkpt>
      <trkpt lat="37.933468" lon="-4.670392">
        <ele>165.496262</ele>
        <time>2020-08-12T08:11:54.371Z</time>
      </trkpt>
      <trkpt lat="37.933465" lon="-4.670514">
        <ele>165.702413</ele>
        <time>2020-08-12T08:11:57.376Z</time>
      </trkpt>
      <trkpt lat="37.933414" lon="-4.670668">
        <ele>165.984507</ele>
        <time>2020-08-12T08:11:59.366Z</time>
      </trkpt>
      <trkpt lat="37.933352" lon="-4.670811">
        <ele>166.260112</ele>
        <time>2020-08-12T08:12:00.372Z</time>
      </trkpt>
      <trkpt lat="37.933370" lon="-4.670968">
        <ele>166.528063</ele>
        <time>2020-08-12T08:12:04.363Z</time>
      </trkpt>
      <trkpt lat="37.933292" lon="-4.671114">
        <ele>166.825893</ele>
        <time>2020-08-12T08:12:07.370Z</time>
      </trkpt>
      <trkpt lat="37.933248" lon="-4.671224">
        <ele>167.034203</ele>
        <time>2020-08-12T08:12:08.374Z</time>
      </trkpt>
      <trkpt lat="37.933171" lon="-4.671385">
        <ele>167.352209</ele>
        <time>2020-08-12T08:12:11.368Z</time>
      </trkpt>
      <trkpt lat="37.933168" lon="-4.671516">
        <ele>167.573555</ele>
        <time>2020-08-12T08:12:15.385Z</time>
      </trkpt>
      <trkpt lat="37.933109" lon="-4.671672">
        <ele>167.865756</ele>
        <time>2020-08-12T08:12:18.368Z</time>
      </trkpt>
      <trkpt lat="37.933054" lon="-4.671799">
        <ele>168.110460</ele>
        <time>2020-08-12T08:12:22.363Z</time>
      </trkpt>
      <trkpt lat="37.933012" lon="-4.671909">
        <ele>168.316869</ele>
        <time>2020-08-12T08:12:24.369Z</time>
      </trkpt>
      <trkpt lat="37.932996" lon="-4.672060">
        <ele>168.574192</ele>
        <time>2020-08-12T08:12:25.370Z</time>
      </trkpt>
      <trkpt lat="37.932947" lon="-4.672199">
        <ele>168.744431</ele>
        <time>2020-08-12T08:12:28.379Z</time>
      </trkpt>
      <trkpt lat="37.932916" lon="-4.672411">
        <ele>168.879314</ele>
        <time>2020-08-12T08:12:31.381Z</time>
      </trkpt>
      <trkpt lat="37.932889" lon="-4.672540">
        <ele>168.962807</ele>
        <time>2020-08-12T08:12:34.371Z</time>
      </trkpt>
      <trkpt lat="37.932850" lon="-4.672651">
        <ele>169.038824</ele>
        <time>2020-08-12T08:12:36.371Z</time>
      </trkpt>
      <trkpt lat="37.932843" lon="-4.672766">
        <ele>169.110980</ele>
        <time>2020-08-12T08:12:37.366Z</time>
      </trkpt>
      <trkpt lat="37.932782" lon="-4.672860">
        <ele>169.187130</ele>
        <time>2020-08-12T08:12:39.374Z</time>
      </trkpt>
      <trkpt lat="37.932713" lon="-4.672993">
        <ele>169.286717</ele>
        <time>2020-08-12T08:12:44.379Z</time>
      </trkpt>
      <trkpt lat="37.932649" lon="-4.673103">
        <ele>169.372228</ele>
        <time>2020-08-12T08:12:46.363Z</time>
      </trkpt>
      <trkpt lat="37.932599" lon="-4.673232">
        <ele>169.462146</ele>
        <time>2020-08-12T08:12:49.372Z</time>
      </trkpt>
      <trkpt lat="37.932513" lon="-4.673395">
        <ele>169.584827</ele>
        <time>2020-08-12T08:12:51.375Z</time>
      </trkpt>
      <trkpt lat="37.932473" lon="-4.673553">
        <ele>169.688636</ele>
        <time>2020-08-12T08:12:53.374Z</time>
      </trkpt>
      <trkpt lat="37.932360" lon="-4.673675">
        <ele>169.806354</ele>
        <time>2020-08-12T08:12:56.371Z</time>
      </trkpt>
      <trkpt lat="37.932288" lon="-4.673860">
        <ele>169.935410</ele>
        <time>2020-08-12T08:13:00.374Z</time>
      </trkpt>
      <trkpt lat="37.932206" lon="-4.674048">
        <ele>170.069805</ele>
        <time>2020-08-12T08:13:03.372Z</time>
      </trkpt>
      <trkpt lat="37.932123" lon="-4.674178">
        <ele>170.024953</ele>
        <time>2020-08-12T08:13:06.378Z</time>
      </trkpt>
      <trkpt lat="37.932057" lon="-4.674287">
        <ele>169.875322</ele>
        <time>2020-08-12T08:13:09.374Z</time>
      </trkpt>
      <trkpt lat="37.931987" lon="-4.674370">
        <ele>169.743006</ele>
        <time>2020-08-12T08:13:11.373Z</time>
      </trkpt>
      <trkpt lat="37.931912" lon="-4.674491">
        <ele>169.575433</ele>
        <time>2020-08-12T08:13:13.368Z</time>
      </trkpt>
      <trkpt lat="37.931818" lon="-4.674665">
        <ele>169.345782</ele>
        <time>2020-08-12T08:13:15.358Z</time>
      </trkpt>
      <trkpt lat="37.931735" lon="-4.674808">
        <ele>169.152452</ele>
        <time>2020-08-12T08:13:17.380Z</time>
      </trkpt>
      <trkpt lat="37.931661" lon="-4.674905">
        <ele>169.005505</ele>
        <time>2020-08-12T08:13:19.366Z</time>
      </trkpt>
      <trkpt lat="37.931626" lon="-4.675040">
        <ele>168.850765</ele>
        <time>2020-08-12T08:13:23.370Z</time>
      </trkpt>
      <trkpt lat="37.931575" lon="-4.675144">
        <ele>168.717416</ele>
        <time>2020-08-12T08:13:25.371Z</time>
      </trkpt>
      <trkpt lat="37.931520" lon="-4.675236">
        <ele>168.591712</ele>
        <time>2020-08-12T08:13:26.373Z</time>
      </trkpt>
      <trkpt lat="37.931469" lon="-4.675385">
        <ele>168.414846</ele>
        <time>2020-08-12T08:13:28.374Z</time>
      </trkpt>
      <trkpt lat="37.931410" lon="-4.675485">
        <ele>168.278861</ele>
        <time>2020-08-12T08:13:30.362Z</time>
      </trkpt>
      <trkpt lat="37.931350" lon="-4.675625">
        <ele>168.105363</ele>
        <time>2020-08-12T08:13:33.370Z</time>
      </trkpt>
      <trkpt lat="37.931267" lon="-4.675810">
        <ele>167.873606</ele>
        <time>2020-08-12T08:13:36.374Z</time>
      </trkpt>
      <trkpt lat="37.931195" lon="-4.675888">
        <ele>167.742860</ele>
        <time>2020-08-12T08:13:38.378Z</time>
      </trkpt>
      <trkpt lat="37.931154" lon="-4.676021">
        <ele>167.563105</ele>
        <time>2020-08-12T08:13:40.377Z</time>
      </trkpt>
      <trkpt lat="37.931177" lon="-4.676131">
        <ele>167.378326</ele>
        <time>2020-08-12T08:13:43.368Z</time>
      </trkpt>
      <trkpt lat="37.931177" lon="-4.676271">
        <ele>167.151005</ele>
        <time>2020-08-12T08:13:44.376Z</time>
      </trkpt>
      <trkpt lat="37.931137" lon="-4.676376">
        <ele>166.961669</ele>
        <time>2020-08-12T08:13:45.362Z</time>
      </trkpt>
      <trkpt lat="37.931045" lon="-4.676554">
        <ele>166.616121</ele>
        <time>2020-08-12T08:13:47.376Z</time>
      </trkpt>
      <trkpt lat="37.930949" lon="-4.676530">
        <ele>166.414689</ele>
        <time>2020-08-12T08:13:50.361Z</time>
      </trkpt>
      <trkpt lat="37.930930" lon="-4.676646">
        <ele>166.222318</ele>
        <time>2020-08-12T08:13:51.364Z</time>
      </trkpt>
      <trkpt lat="37.930870" lon="-4.676745">
        <ele>166.019595</ele>
        <time>2020-08-12T08:13:52.373Z</time>
      </trkpt>
      <trkpt lat="37.930870" lon="-4.676875">
        <ele>165.808510</ele>
        <time>2020-08-12T08:13:55.376Z</time>
      </trkpt>
      <trkpt lat="37.930770" lon="-4.677029">
        <ele>165.484618</ele>
        <time>2020-08-12T08:13:57.374Z</time>
      </trkpt>
      <trkpt lat="37.930699" lon="-4.677188">
        <ele>165.187941</ele>
        <time>2020-08-12T08:13:59.372Z</time>
      </trkpt>
      <trkpt lat="37.930628" lon="-4.677344">
        <ele>164.895494</ele>
        <time>2020-08-12T08:14:02.376Z</time>
      </trkpt>
      <trkpt lat="37.930723" lon="-4.677336">
        <ele>164.699495</ele>
        <time>2020-08-12T08:14:04.373Z</time>
      </trkpt>
      <trkpt lat="37.930784" lon="-4.677446">
        <ele>164.481159</ele>
        <time>2020-08-12T08:14:08.372Z</time>
      </trkpt>
      <trkpt lat="37.930710" lon="-4.677517">
        <ele>164.290116</ele>
        <time>2020-08-12T08:14:09.369Z</time>
      </trkpt>
      <trkpt lat="37.930626" lon="-4.677694">
        <ele>163.954703</ele>
        <time>2020-08-12T08:14:11.376Z</time>
      </trkpt>
      <trkpt lat="37.930636" lon="-4.677823">
        <ele>163.599743</ele>
        <time>2020-08-12T08:14:13.374Z</time>
      </trkpt>
      <trkpt lat="37.930568" lon="-4.677967">
        <ele>163.119799</ele>
        <time>2020-08-12T08:14:15.365Z</time>
      </trkpt>
      <trkpt lat="37.930555" lon="-4.678089">
        <ele>162.767756</ele>
        <time>2020-08-12T08:14:17.382Z</time>
      </trkpt>
      <trkpt lat="37.930506" lon="-4.678250">
        <ele>162.274271</ele>
        <time>2020-08-12T08:14:20.374Z</time>
      </trkpt>
      <trkpt lat="37.930481" lon="-4.678373">
        <ele>161.911046</ele>
        <time>2020-08-12T08:14:22.375Z</time>
      </trkpt>
      <trkpt lat="37.930419" lon="-4.678483">
        <ele>161.524428</ele>
        <time>2020-08-12T08:14:24.368Z</time>
      </trkpt>
      <trkpt lat="37.930388" lon="-4.678596">
        <ele>161.182303</ele>
        <time>2020-08-12T08:14:26.371Z</time>
      </trkpt>
      <trkpt lat="37.930390" lon="-4.678725">
        <ele>160.813339</ele>
        <time>2020-08-12T08:14:29.372Z</time>
      </trkpt>
      <trkpt lat="37.930388" lon="-4.678925">
        <ele>160.241366</ele>
        <time>2020-08-12T08:14:33.375Z</time>
      </trkpt>
      <trkpt lat="37.930400" lon="-4.679054">
        <ele>159.869917</ele>
        <time>2020-08-12T08:14:36.370Z</time>
      </trkpt>
      <trkpt lat="37.930367" lon="-4.679223">
        <ele>159.372050</ele>
        <time>2020-08-12T08:14:38.370Z</time>
      </trkpt>
      <trkpt lat="37.930307" lon="-4.679388">
        <ele>158.852482</ele>
        <time>2020-08-12T08:14:41.373Z</time>
      </trkpt>
      <trkpt lat="37.930285" lon="-4.679544">
        <ele>158.399304</ele>
        <time>2020-08-12T08:14:43.361Z</time>
      </trkpt>
      <trkpt lat="37.930253" lon="-4.679703">
        <ele>157.930054</ele>
        <time>2020-08-12T08:14:46.375Z</time>
      </trkpt>
      <trkpt lat="37.930260" lon="-4.679825">
        <ele>157.580256</ele>
        <time>2020-08-12T08:14:49.384Z</time>
      </trkpt>
      <trkpt lat="37.930216" lon="-4.679977">
        <ele>157.429115</ele>
        <time>2020-08-12T08:14:51.366Z</time>
      </trkpt>
      <trkpt lat="37.930206" lon="-4.680111">
        <ele>157.449941</ele>
        <time>2020-08-12T08:14:54.369Z</time>
      </trkpt>
      <trkpt lat="37.930169" lon="-4.680259">
        <ele>157.473963</ele>
        <time>2020-08-12T08:14:57.371Z</time>
      </trkpt>
      <trkpt lat="37.930143" lon="-4.680407">
        <ele>157.497424</ele>
        <time>2020-08-12T08:15:00.380Z</time>
      </trkpt>
      <trkpt lat="37.930067" lon="-4.680591">
        <ele>157.529561</ele>
        <time>2020-08-12T08:15:03.375Z</time>
      </trkpt>
      <trkpt lat="37.930028" lon="-4.680723">
        <ele>157.551370</ele>
        <time>2020-08-12T08:15:08.370Z</time>
      </trkpt>
      <trkpt lat="37.929976" lon="-4.680843">
        <ele>157.572555</ele>
        <time>2020-08-12T08:15:11.376Z</time>
      </trkpt>
      <trkpt lat="37.929908" lon="-4.680968">
        <ele>157.596050</ele>
        <time>2020-08-12T08:15:14.370Z</time>
      </trkpt>
      <trkpt lat="37.929824" lon="-4.681078">
        <ele>157.619739</ele>
        <time>2020-08-12T08:15:17.365Z</time>
      </trkpt>
      <trkpt lat="37.929743" lon="-4.681176">
        <ele>157.641702</ele>
        <time>2020-08-12T08:15:20.374Z</time>
      </trkpt>
      <trkpt lat="37.929645" lon="-4.681257">
        <ele>157.664651</ele>
        <time>2020-08-12T08:15:23.364Z</time>
      </trkpt>
      <trkpt lat="37.929537" lon="-4.681327">
        <ele>157.688445</ele>
        <time>2020-08-12T08:15:26.376Z</time>
      </trkpt>
      <trkpt lat="37.929417" lon="-4.681408">
        <ele>157.715113</ele>
        <time>2020-08-12T08:15:29.374Z</time>
      </trkpt>
      <trkpt lat="37.929299" lon="-4.681467">
        <ele>157.739995</ele>
        <time>2020-08-12T08:15:31.378Z</time>
      </trkpt>
      <trkpt lat="37.929201" lon="-4.681507">
        <ele>157.760191</ele>
        <time>2020-08-12T08:15:33.379Z</time>
      </trkpt>
      <trkpt lat="37.929101" lon="-4.681561">
        <ele>157.699631</ele>
        <time>2020-08-12T08:15:35.377Z</time>
      </trkpt>
      <trkpt lat="37.929000" lon="-4.681630">
        <ele>157.603838</ele>
        <time>2020-08-12T08:15:37.376Z</time>
      </trkpt>
      <trkpt lat="37.928910" lon="-4.681699">
        <ele>157.516023</ele>
        <time>2020-08-12T08:15:39.377Z</time>
      </trkpt>
      <trkpt lat="37.928818" lon="-4.681754">
        <ele>157.431097</ele>
        <time>2020-08-12T08:15:41.369Z</time>
      </trkpt>
      <trkpt lat="37.928731" lon="-4.681823">
        <ele>157.345414</ele>
        <time>2020-08-12T08:15:43.368Z</time>
      </trkpt>
      <trkpt lat="37.928644" lon="-4.681897">
        <ele>157.257941</ele>
        <time>2020-08-12T08:15:45.365Z</time>
      </trkpt>
      <trkpt lat="37.928528" lon="-4.681962">
        <ele>157.152050</ele>
        <time>2020-08-12T08:15:48.372Z</time>
      </trkpt>
      <trkpt lat="37.928442" lon="-4.682022">
        <ele>157.070091</ele>
        <time>2020-08-12T08:15:50.371Z</time>
      </trkpt>
      <trkpt lat="37.928332" lon="-4.682115">
        <ele>156.959699</ele>
        <time>2020-08-12T08:15:53.382Z</time>
      </trkpt>
      <trkpt lat="37.928241" lon="-4.682236">
        <ele>156.849594</ele>
        <time>2020-08-12T08:15:56.373Z</time>
      </trkpt>
      <trkpt lat="37.928177" lon="-4.682322">
        <ele>156.771727</ele>
        <time>2020-08-12T08:15:58.370Z</time>
      </trkpt>
      <trkpt lat="37.928107" lon="-4.682438">
        <ele>156.675539</ele>
        <time>2020-08-12T08:16:00.357Z</time>
      </trkpt>
      <trkpt lat="37.928049" lon="-4.682541">
        <ele>156.592193</ele>
        <time>2020-08-12T08:16:02.383Z</time>
      </trkpt>
      <trkpt lat="37.927994" lon="-4.682652">
        <ele>156.505864</ele>
        <time>2020-08-12T08:16:04.372Z</time>
      </trkpt>
      <trkpt lat="37.927929" lon="-4.682776">
        <ele>156.407811</ele>
        <time>2020-08-12T08:16:06.377Z</time>
      </trkpt>
      <trkpt lat="37.927872" lon="-4.682897">
        <ele>156.314992</ele>
        <time>2020-08-12T08:16:08.390Z</time>
      </trkpt>
      <trkpt lat="37.927792" lon="-4.683016">
        <ele>156.258213</ele>
        <time>2020-08-12T08:16:10.367Z</time>
      </trkpt>
      <trkpt lat="37.927724" lon="-4.683149">
        <ele>156.246267</ele>
        <time>2020-08-12T08:16:12.364Z</time>
      </trkpt>
      <trkpt lat="37.927659" lon="-4.683257">
        <ele>156.236028</ele>
        <time>2020-08-12T08:16:14.375Z</time>
      </trkpt>
      <trkpt lat="37.927593" lon="-4.683373">
        <ele>156.225248</ele>
        <time>2020-08-12T08:16:16.372Z</time>
      </trkpt>
      <trkpt lat="37.927505" lon="-4.683500">
        <ele>156.212507</ele>
        <time>2020-08-12T08:16:18.373Z</time>
      </trkpt>
      <trkpt lat="37.927427" lon="-4.683614">
        <ele>156.201132</ele>
        <time>2020-08-12T08:16:20.374Z</time>
      </trkpt>
      <trkpt lat="37.927339" lon="-4.683740">
        <ele>156.188448</ele>
        <time>2020-08-12T08:16:22.374Z</time>
      </trkpt>
      <trkpt lat="37.927249" lon="-4.683871">
        <ele>156.175354</ele>
        <time>2020-08-12T08:16:24.368Z</time>
      </trkpt>
      <trkpt lat="37.927190" lon="-4.683989">
        <ele>156.164823</ele>
        <time>2020-08-12T08:16:26.380Z</time>
      </trkpt>
      <trkpt lat="37.927101" lon="-4.684096">
        <ele>156.153103</ele>
        <time>2020-08-12T08:16:28.370Z</time>
      </trkpt>
      <trkpt lat="37.927003" lon="-4.684214">
        <ele>156.140188</ele>
        <time>2020-08-12T08:16:30.377Z</time>
      </trkpt>
      <trkpt lat="37.926927" lon="-4.684326">
        <ele>156.129053</ele>
        <time>2020-08-12T08:16:32.377Z</time>
      </trkpt>
      <trkpt lat="37.926849" lon="-4.684432">
        <ele>156.118126</ele>
        <time>2020-08-12T08:16:34.373Z</time>
      </trkpt>
      <trkpt lat="37.926779" lon="-4.684542">
        <ele>156.107474</ele>
        <time>2020-08-12T08:16:36.376Z</time>
      </trkpt>
      <trkpt lat="37.926708" lon="-4.684641">
        <ele>156.097389</ele>
        <time>2020-08-12T08:16:38.374Z</time>
      </trkpt>
      <trkpt lat="37.926641" lon="-4.684750">
        <ele>156.136865</ele>
        <time>2020-08-12T08:16:40.376Z</time>
      </trkpt>
      <trkpt lat="37.926589" lon="-4.684855">
        <ele>156.214791</ele>
        <time>2020-08-12T08:16:42.379Z</time>
      </trkpt>
      <trkpt lat="37.926513" lon="-4.684963">
        <ele>156.305761</ele>
        <time>2020-08-12T08:16:44.376Z</time>
      </trkpt>
      <trkpt lat="37.926443" lon="-4.685066">
        <ele>156.391216</ele>
        <time>2020-08-12T08:16:46.376Z</time>
      </trkpt>
      <trkpt lat="37.926360" lon="-4.685174">
        <ele>156.485990</ele>
        <time>2020-08-12T08:16:48.379Z</time>
      </trkpt>
      <trkpt lat="37.926277" lon="-4.685271">
        <ele>156.575942</ele>
        <time>2020-08-12T08:16:50.370Z</time>
      </trkpt>
      <trkpt lat="37.926196" lon="-4.685378">
        <ele>156.669157</ele>
        <time>2020-08-12T08:16:52.368Z</time>
      </trkpt>
      <trkpt lat="37.926145" lon="-4.685494">
        <ele>156.752628</ele>
        <time>2020-08-12T08:16:54.379Z</time>
      </trkpt>
      <trkpt lat="37.926091" lon="-4.685608">
        <ele>156.836210</ele>
        <time>2020-08-12T08:16:56.363Z</time>
      </trkpt>
      <trkpt lat="37.926019" lon="-4.685724">
        <ele>156.928987</ele>
        <time>2020-08-12T08:16:58.372Z</time>
      </trkpt>
      <trkpt lat="37.925946" lon="-4.685822">
        <ele>157.013709</ele>
        <time>2020-08-12T08:17:00.376Z</time>
      </trkpt>
      <trkpt lat="37.925885" lon="-4.685935">
        <ele>157.099775</ele>
        <time>2020-08-12T08:17:02.378Z</time>
      </trkpt>
      <trkpt lat="37.925834" lon="-4.686038">
        <ele>157.176213</ele>
        <time>2020-08-12T08:17:04.371Z</time>
      </trkpt>
      <trkpt lat="37.925783" lon="-4.686158">
        <ele>157.261890</ele>
        <time>2020-08-12T08:17:06.378Z</time>
      </trkpt>
      <trkpt lat="37.925714" lon="-4.686272">
        <ele>157.352208</ele>
        <time>2020-08-12T08:17:08.376Z</time>
      </trkpt>
      <trkpt lat="37.925652" lon="-4.686378">
        <ele>157.435153</ele>
        <time>2020-08-12T08:17:10.384Z</time>
      </trkpt>
      <trkpt lat="37.925569" lon="-4.686489">
        <ele>157.532264</ele>
        <time>2020-08-12T08:17:12.352Z</time>
      </trkpt>
      <trkpt lat="37.925511" lon="-4.686584">
        <ele>157.620596</ele>
        <time>2020-08-12T08:17:14.378Z</time>
      </trkpt>
      <trkpt lat="37.925451" lon="-4.686675">
        <ele>157.707804</ele>
        <time>2020-08-12T08:17:16.376Z</time>
      </trkpt>
      <trkpt lat="37.925390" lon="-4.686778">
        <ele>157.802509</ele>
        <time>2020-08-12T08:17:18.374Z</time>
      </trkpt>
      <trkpt lat="37.925313" lon="-4.686900">
        <ele>157.917395</ele>
        <time>2020-08-12T08:17:20.378Z</time>
      </trkpt>
      <trkpt lat="37.925246" lon="-4.687032">
        <ele>158.032812</ele>
        <time>2020-08-12T08:17:23.380Z</time>
      </trkpt>
      <trkpt lat="37.925170" lon="-4.687140">
        <ele>158.139231</ele>
        <time>2020-08-12T08:17:25.375Z</time>
      </trkpt>
      <trkpt lat="37.925107" lon="-4.687227">
        <ele>158.226070</ele>
        <time>2020-08-12T08:17:27.374Z</time>
      </trkpt>
      <trkpt lat="37.925042" lon="-4.687323">
        <ele>158.319096</ele>
        <time>2020-08-12T08:17:29.367Z</time>
      </trkpt>
      <trkpt lat="37.924979" lon="-4.687478">
        <ele>158.447307</ele>
        <time>2020-08-12T08:17:32.381Z</time>
      </trkpt>
      <trkpt lat="37.924908" lon="-4.687586">
        <ele>158.550682</ele>
        <time>2020-08-12T08:17:34.377Z</time>
      </trkpt>
      <trkpt lat="37.924850" lon="-4.687699">
        <ele>158.649812</ele>
        <time>2020-08-12T08:17:36.374Z</time>
      </trkpt>
      <trkpt lat="37.924782" lon="-4.687792">
        <ele>158.743054</ele>
        <time>2020-08-12T08:17:38.380Z</time>
      </trkpt>
      <trkpt lat="37.924697" lon="-4.687931">
        <ele>158.872376</ele>
        <time>2020-08-12T08:17:41.375Z</time>
      </trkpt>
      <trkpt lat="37.924643" lon="-4.688045">
        <ele>158.970152</ele>
        <time>2020-08-12T08:17:43.372Z</time>
      </trkpt>
      <trkpt lat="37.924567" lon="-4.688162">
        <ele>159.081598</ele>
        <time>2020-08-12T08:17:45.372Z</time>
      </trkpt>
      <trkpt lat="37.924510" lon="-4.688260">
        <ele>159.171128</ele>
        <time>2020-08-12T08:17:47.368Z</time>
      </trkpt>
      <trkpt lat="37.924436" lon="-4.688350">
        <ele>159.064018</ele>
        <time>2020-08-12T08:17:49.378Z</time>
      </trkpt>
      <trkpt lat="37.924363" lon="-4.688443">
        <ele>158.857653</ele>
        <time>2020-08-12T08:17:51.373Z</time>
      </trkpt>
      <trkpt lat="37.924301" lon="-4.688528">
        <ele>158.675557</ele>
        <time>2020-08-12T08:17:53.381Z</time>
      </trkpt>
      <trkpt lat="37.924227" lon="-4.688633">
        <ele>158.454085</ele>
        <time>2020-08-12T08:17:55.376Z</time>
      </trkpt>
      <trkpt lat="37.924171" lon="-4.688736">
        <ele>158.257321</ele>
        <time>2020-08-12T08:17:57.374Z</time>
      </trkpt>
      <trkpt lat="37.924115" lon="-4.688881">
        <ele>158.003379</ele>
        <time>2020-08-12T08:18:00.385Z</time>
      </trkpt>
      <trkpt lat="37.924059" lon="-4.688981">
        <ele>157.810481</ele>
        <time>2020-08-12T08:18:02.390Z</time>
      </trkpt>
      <trkpt lat="37.923978" lon="-4.689115">
        <ele>157.544940</ele>
        <time>2020-08-12T08:18:05.376Z</time>
      </trkpt>
      <trkpt lat="37.923922" lon="-4.689241">
        <ele>157.317459</ele>
        <time>2020-08-12T08:18:07.377Z</time>
      </trkpt>
      <trkpt lat="37.923851" lon="-4.689381">
        <ele>157.055666</ele>
        <time>2020-08-12T08:18:10.378Z</time>
      </trkpt>
      <trkpt lat="37.923789" lon="-4.689508">
        <ele>156.820743</ele>
        <time>2020-08-12T08:18:12.385Z</time>
      </trkpt>
      <trkpt lat="37.923706" lon="-4.689588">
        <ele>156.612836</ele>
        <time>2020-08-12T08:18:14.381Z</time>
      </trkpt>
      <trkpt lat="37.923624" lon="-4.689690">
        <ele>156.383761</ele>
        <time>2020-08-12T08:18:16.375Z</time>
      </trkpt>
      <trkpt lat="37.923576" lon="-4.689798">
        <ele>156.188776</ele>
        <time>2020-08-12T08:18:18.382Z</time>
      </trkpt>
      <trkpt lat="37.923524" lon="-4.689908">
        <ele>155.987063</ele>
        <time>2020-08-12T08:18:20.362Z</time>
      </trkpt>
      <trkpt lat="37.923504" lon="-4.690031">
        <ele>155.789525</ele>
        <time>2020-08-12T08:18:22.376Z</time>
      </trkpt>
      <trkpt lat="37.923455" lon="-4.690128">
        <ele>155.617406</ele>
        <time>2020-08-12T08:18:24.382Z</time>
      </trkpt>
      <trkpt lat="37.923391" lon="-4.690276">
        <ele>155.681528</ele>
        <time>2020-08-12T08:18:27.378Z</time>
      </trkpt>
      <trkpt lat="37.923332" lon="-4.690388">
        <ele>155.732695</ele>
        <time>2020-08-12T08:18:29.377Z</time>
      </trkpt>
      <trkpt lat="37.923256" lon="-4.690508">
        <ele>155.791161</ele>
        <time>2020-08-12T08:18:31.384Z</time>
      </trkpt>
      <trkpt lat="37.923190" lon="-4.690626">
        <ele>155.846117</ele>
        <time>2020-08-12T08:18:34.374Z</time>
      </trkpt>
      <trkpt lat="37.923123" lon="-4.690770">
        <ele>155.909633</ele>
        <time>2020-08-12T08:18:37.379Z</time>
      </trkpt>
      <trkpt lat="37.923063" lon="-4.690901">
        <ele>155.967183</ele>
        <time>2020-08-12T08:18:39.368Z</time>
      </trkpt>
      <trkpt lat="37.923006" lon="-4.690997">
        <ele>156.012832</ele>
        <time>2020-08-12T08:18:41.377Z</time>
      </trkpt>
      <trkpt lat="37.922944" lon="-4.691079">
        <ele>156.055985</ele>
        <time>2020-08-12T08:18:43.370Z</time>
      </trkpt>
      <trkpt lat="37.922894" lon="-4.691201">
        <ele>156.108218</ele>
        <time>2020-08-12T08:18:45.371Z</time>
      </trkpt>
      <trkpt lat="37.922864" lon="-4.691314">
        <ele>156.153515</ele>
        <time>2020-08-12T08:18:47.362Z</time>
      </trkpt>
      <trkpt lat="37.922833" lon="-4.691453">
        <ele>156.208394</ele>
        <time>2020-08-12T08:18:49.379Z</time>
      </trkpt>
      <trkpt lat="37.922775" lon="-4.691571">
        <ele>156.261215</ele>
        <time>2020-08-12T08:18:52.368Z</time>
      </trkpt>
      <trkpt lat="37.922716" lon="-4.691668">
        <ele>156.307750</ele>
        <time>2020-08-12T08:18:54.372Z</time>
      </trkpt>
      <trkpt lat="37.922667" lon="-4.691771">
        <ele>156.353448</ele>
        <time>2020-08-12T08:18:56.373Z</time>
      </trkpt>
      <trkpt lat="37.922593" lon="-4.691878">
        <ele>156.407510</ele>
        <time>2020-08-12T08:18:58.356Z</time>
      </trkpt>
      <trkpt lat="37.922546" lon="-4.691989">
        <ele>156.455373</ele>
        <time>2020-08-12T08:19:00.373Z</time>
      </trkpt>
      <trkpt lat="37.922498" lon="-4.692124">
        <ele>156.530965</ele>
        <time>2020-08-12T08:19:03.373Z</time>
      </trkpt>
      <trkpt lat="37.922493" lon="-4.692244">
        <ele>156.606314</ele>
        <time>2020-08-12T08:19:05.378Z</time>
      </trkpt>
      <trkpt lat="37.922429" lon="-4.692387">
        <ele>156.709405</ele>
        <time>2020-08-12T08:19:08.385Z</time>
      </trkpt>
      <trkpt lat="37.922358" lon="-4.692501">
        <ele>156.800480</ele>
        <time>2020-08-12T08:19:10.374Z</time>
      </trkpt>
      <trkpt lat="37.922269" lon="-4.692609">
        <ele>156.898412</ele>
        <time>2020-08-12T08:19:13.375Z</time>
      </trkpt>
      <trkpt lat="37.922208" lon="-4.692721">
        <ele>156.983752</ele>
        <time>2020-08-12T08:19:15.378Z</time>
      </trkpt>
      <trkpt lat="37.922115" lon="-4.692857">
        <ele>157.096609</ele>
        <time>2020-08-12T08:19:18.378Z</time>
      </trkpt>
      <trkpt lat="37.922086" lon="-4.693001">
        <ele>157.189798</ele>
        <time>2020-08-12T08:19:21.381Z</time>
      </trkpt>
      <trkpt lat="37.922010" lon="-4.693145">
        <ele>157.298436</ele>
        <time>2020-08-12T08:19:24.374Z</time>
      </trkpt>
      <trkpt lat="37.921917" lon="-4.693302">
        <ele>157.421546</ele>
        <time>2020-08-12T08:19:27.374Z</time>
      </trkpt>
      <trkpt lat="37.921875" lon="-4.693418">
        <ele>157.501577</ele>
        <time>2020-08-12T08:19:29.373Z</time>
      </trkpt>
      <trkpt lat="37.921799" lon="-4.693544">
        <ele>157.601033</ele>
        <time>2020-08-12T08:19:32.376Z</time>
      </trkpt>
      <trkpt lat="37.921746" lon="-4.693649">
        <ele>157.679197</ele>
        <time>2020-08-12T08:19:34.375Z</time>
      </trkpt>
      <trkpt lat="37.921686" lon="-4.693791">
        <ele>157.780205</ele>
        <time>2020-08-12T08:19:37.368Z</time>
      </trkpt>
      <trkpt lat="37.921643" lon="-4.693916">
        <ele>157.865713</ele>
        <time>2020-08-12T08:19:40.368Z</time>
      </trkpt>
      <trkpt lat="37.921543" lon="-4.694075">
        <ele>157.869887</ele>
        <time>2020-08-12T08:19:43.368Z</time>
      </trkpt>
      <trkpt lat="37.921524" lon="-4.694188">
        <ele>157.832862</ele>
        <time>2020-08-12T08:19:45.375Z</time>
      </trkpt>
      <trkpt lat="37.921486" lon="-4.694305">
        <ele>157.792315</ele>
        <time>2020-08-12T08:19:48.376Z</time>
      </trkpt>
      <trkpt lat="37.921425" lon="-4.694407">
        <ele>157.751297</ele>
        <time>2020-08-12T08:19:50.378Z</time>
      </trkpt>
      <trkpt lat="37.921363" lon="-4.694514">
        <ele>157.708753</ele>
        <time>2020-08-12T08:19:52.384Z</time>
      </trkpt>
      <trkpt lat="37.921306" lon="-4.694678">
        <ele>157.651323</ele>
        <time>2020-08-12T08:19:55.380Z</time>
      </trkpt>
      <trkpt lat="37.921247" lon="-4.694790">
        <ele>157.608165</ele>
        <time>2020-08-12T08:19:57.375Z</time>
      </trkpt>
      <trkpt lat="37.921183" lon="-4.694880">
        <ele>157.569335</ele>
        <time>2020-08-12T08:19:59.380Z</time>
      </trkpt>
      <trkpt lat="37.921118" lon="-4.695007">
        <ele>157.520822</ele>
        <time>2020-08-12T08:20:01.371Z</time>
      </trkpt>
      <trkpt lat="37.921075" lon="-4.695111">
        <ele>157.483194</ele>
        <time>2020-08-12T08:20:03.376Z</time>
      </trkpt>
      <trkpt lat="37.921007" lon="-4.695217">
        <ele>157.439411</ele>
        <time>2020-08-12T08:20:05.370Z</time>
      </trkpt>
      <trkpt lat="37.920948" lon="-4.695391">
        <ele>157.378719</ele>
        <time>2020-08-12T08:20:08.381Z</time>
      </trkpt>
      <trkpt lat="37.920899" lon="-4.695544">
        <ele>157.325802</ele>
        <time>2020-08-12T08:20:11.372Z</time>
      </trkpt>
      <trkpt lat="37.920861" lon="-4.695668">
        <ele>157.283172</ele>
        <time>2020-08-12T08:20:13.382Z</time>
      </trkpt>
      <trkpt lat="37.920816" lon="-4.695783">
        <ele>157.242035</ele>
        <time>2020-08-12T08:20:15.375Z</time>
      </trkpt>
      <trkpt lat="37.920730" lon="-4.695896">
        <ele>157.191718</ele>
        <time>2020-08-12T08:20:17.371Z</time>
      </trkpt>
      <trkpt lat="37.920734" lon="-4.696064">
        <ele>157.235061</ele>
        <time>2020-08-12T08:20:20.371Z</time>
      </trkpt>
      <trkpt lat="37.920721" lon="-4.696224">
        <ele>157.299816</ele>
        <time>2020-08-12T08:20:23.362Z</time>
      </trkpt>
      <trkpt lat="37.920662" lon="-4.696327">
        <ele>157.351062</ele>
        <time>2020-08-12T08:20:25.377Z</time>
      </trkpt>
      <trkpt lat="37.920611" lon="-4.696460">
        <ele>157.410597</ele>
        <time>2020-08-12T08:20:27.383Z</time>
      </trkpt>
      <trkpt lat="37.920541" lon="-4.696591">
        <ele>157.474297</ele>
        <time>2020-08-12T08:20:30.372Z</time>
      </trkpt>
      <trkpt lat="37.920482" lon="-4.696711">
        <ele>157.531223</ele>
        <time>2020-08-12T08:20:32.385Z</time>
      </trkpt>
      <trkpt lat="37.920454" lon="-4.696839">
        <ele>157.584699</ele>
        <time>2020-08-12T08:20:34.369Z</time>
      </trkpt>
      <trkpt lat="37.920370" lon="-4.696957">
        <ele>157.648688</ele>
        <time>2020-08-12T08:20:36.375Z</time>
      </trkpt>
      <trkpt lat="37.920309" lon="-4.697068">
        <ele>157.703150</ele>
        <time>2020-08-12T08:20:38.375Z</time>
      </trkpt>
      <trkpt lat="37.920264" lon="-4.697190">
        <ele>157.757370</ele>
        <time>2020-08-12T08:20:40.377Z</time>
      </trkpt>
      <trkpt lat="37.920207" lon="-4.697307">
        <ele>157.812732</ele>
        <time>2020-08-12T08:20:42.375Z</time>
      </trkpt>
      <trkpt lat="37.920147" lon="-4.697425">
        <ele>157.869251</ele>
        <time>2020-08-12T08:20:44.374Z</time>
      </trkpt>
      <trkpt lat="37.920088" lon="-4.697531">
        <ele>157.921479</ele>
        <time>2020-08-12T08:20:46.374Z</time>
      </trkpt>
      <trkpt lat="37.920029" lon="-4.697663">
        <ele>157.982559</ele>
        <time>2020-08-12T08:20:48.381Z</time>
      </trkpt>
      <trkpt lat="37.919979" lon="-4.697808">
        <ele>158.046268</ele>
        <time>2020-08-12T08:20:50.377Z</time>
      </trkpt>
      <trkpt lat="37.919922" lon="-4.697927">
        <ele>158.100649</ele>
        <time>2020-08-12T08:20:52.374Z</time>
      </trkpt>
      <trkpt lat="37.919895" lon="-4.698043">
        <ele>158.125834</ele>
        <time>2020-08-12T08:20:54.370Z</time>
      </trkpt>
      <trkpt lat="37.919861" lon="-4.698217">
        <ele>158.163162</ele>
        <time>2020-08-12T08:20:57.378Z</time>
      </trkpt>
      <trkpt lat="37.919827" lon="-4.698331">
        <ele>158.188541</ele>
        <time>2020-08-12T08:20:59.367Z</time>
      </trkpt>
      <trkpt lat="37.919776" lon="-4.698463">
        <ele>158.219148</ele>
        <time>2020-08-12T08:21:01.375Z</time>
      </trkpt>
      <trkpt lat="37.919714" lon="-4.698587">
        <ele>158.249719</ele>
        <time>2020-08-12T08:21:03.357Z</time>
      </trkpt>
      <trkpt lat="37.919661" lon="-4.698713">
        <ele>158.279454</ele>
        <time>2020-08-12T08:21:05.374Z</time>
      </trkpt>
      <trkpt lat="37.919614" lon="-4.698832">
        <ele>158.307166</ele>
        <time>2020-08-12T08:21:07.380Z</time>
      </trkpt>
      <trkpt lat="37.919561" lon="-4.698952">
        <ele>158.335805</ele>
        <time>2020-08-12T08:21:09.372Z</time>
      </trkpt>
      <trkpt lat="37.919513" lon="-4.699080">
        <ele>158.365317</ele>
        <time>2020-08-12T08:21:11.380Z</time>
      </trkpt>
      <trkpt lat="37.919457" lon="-4.699203">
        <ele>158.394890</ele>
        <time>2020-08-12T08:21:13.375Z</time>
      </trkpt>
      <trkpt lat="37.919421" lon="-4.699338">
        <ele>158.424565</ele>
        <time>2020-08-12T08:21:15.383Z</time>
      </trkpt>
      <trkpt lat="37.919388" lon="-4.699451">
        <ele>158.449656</ele>
        <time>2020-08-12T08:21:17.379Z</time>
      </trkpt>
      <trkpt lat="37.919343" lon="-4.699592">
        <ele>158.481330</ele>
        <time>2020-08-12T08:21:19.385Z</time>
      </trkpt>
      <trkpt lat="37.919322" lon="-4.699711">
        <ele>158.506723</ele>
        <time>2020-08-12T08:21:21.377Z</time>
      </trkpt>
      <trkpt lat="37.919275" lon="-4.699829">
        <ele>158.534249</ele>
        <time>2020-08-12T08:21:23.377Z</time>
      </trkpt>
      <trkpt lat="37.919270" lon="-4.699945">
        <ele>158.558441</ele>
        <time>2020-08-12T08:21:25.374Z</time>
      </trkpt>
      <trkpt lat="37.919223" lon="-4.700099">
        <ele>158.574072</ele>
        <time>2020-08-12T08:21:28.368Z</time>
      </trkpt>
      <trkpt lat="37.919192" lon="-4.700263">
        <ele>158.574853</ele>
        <time>2020-08-12T08:21:31.380Z</time>
      </trkpt>
      <trkpt lat="37.919160" lon="-4.700388">
        <ele>158.575461</ele>
        <time>2020-08-12T08:21:33.374Z</time>
      </trkpt>
      <trkpt lat="37.919130" lon="-4.700498">
        <ele>158.575999</ele>
        <time>2020-08-12T08:21:35.368Z</time>
      </trkpt>
      <trkpt lat="37.919095" lon="-4.700609">
        <ele>158.576552</ele>
        <time>2020-08-12T08:21:37.374Z</time>
      </trkpt>
      <trkpt lat="37.919064" lon="-4.700724">
        <ele>158.577115</ele>
        <time>2020-08-12T08:21:39.371Z</time>
      </trkpt>
      <trkpt lat="37.919020" lon="-4.700861">
        <ele>158.577799</ele>
        <time>2020-08-12T08:21:41.381Z</time>
      </trkpt>
      <trkpt lat="37.918982" lon="-4.700989">
        <ele>158.578432</ele>
        <time>2020-08-12T08:21:43.376Z</time>
      </trkpt>
      <trkpt lat="37.918935" lon="-4.701156">
        <ele>158.579252</ele>
        <time>2020-08-12T08:21:46.375Z</time>
      </trkpt>
      <trkpt lat="37.918904" lon="-4.701282">
        <ele>158.579863</ele>
        <time>2020-08-12T08:21:48.373Z</time>
      </trkpt>
      <trkpt lat="37.918876" lon="-4.701400">
        <ele>158.580433</ele>
        <time>2020-08-12T08:21:50.373Z</time>
      </trkpt>
      <trkpt lat="37.918844" lon="-4.701516">
        <ele>158.581001</ele>
        <time>2020-08-12T08:21:52.367Z</time>
      </trkpt>
      <trkpt lat="37.918819" lon="-4.701626">
        <ele>158.581531</ele>
        <time>2020-08-12T08:21:54.379Z</time>
      </trkpt>
      <trkpt lat="37.918798" lon="-4.701746">
        <ele>158.582100</ele>
        <time>2020-08-12T08:21:56.372Z</time>
      </trkpt>
      <trkpt lat="37.918758" lon="-4.701851">
        <ele>158.582639</ele>
        <time>2020-08-12T08:21:58.360Z</time>
      </trkpt>
      <trkpt lat="37.918704" lon="-4.702021">
        <ele>158.583487</ele>
        <time>2020-08-12T08:22:01.377Z</time>
      </trkpt>
      <trkpt lat="37.918678" lon="-4.702161">
        <ele>158.584153</ele>
        <time>2020-08-12T08:22:04.362Z</time>
      </trkpt>
      <trkpt lat="37.918642" lon="-4.702323">
        <ele>158.588764</ele>
        <time>2020-08-12T08:22:07.372Z</time>
      </trkpt>
      <trkpt lat="37.918614" lon="-4.702446">
        <ele>158.592440</ele>
        <time>2020-08-12T08:22:09.372Z</time>
      </trkpt>
      <trkpt lat="37.918572" lon="-4.702607">
        <ele>158.597310</ele>
        <time>2020-08-12T08:22:12.353Z</time>
      </trkpt>
      <trkpt lat="37.918504" lon="-4.702768">
        <ele>158.602554</ele>
        <time>2020-08-12T08:22:15.375Z</time>
      </trkpt>
      <trkpt lat="37.918454" lon="-4.702918">
        <ele>158.607230</ele>
        <time>2020-08-12T08:22:18.379Z</time>
      </trkpt>
      <trkpt lat="37.918415" lon="-4.703078">
        <ele>158.612039</ele>
        <time>2020-08-12T08:22:21.374Z</time>
      </trkpt>
      <trkpt lat="37.918387" lon="-4.703189">
        <ele>158.615386</ele>
        <time>2020-08-12T08:22:23.371Z</time>
      </trkpt>
      <trkpt lat="37.918356" lon="-4.703315">
        <ele>158.619176</ele>
        <time>2020-08-12T08:22:25.381Z</time>
      </trkpt>
      <trkpt lat="37.918336" lon="-4.703431">
        <ele>158.622586</ele>
        <time>2020-08-12T08:22:27.374Z</time>
      </trkpt>
      <trkpt lat="37.918279" lon="-4.703579">
        <ele>158.627316</ele>
        <time>2020-08-12T08:22:30.361Z</time>
      </trkpt>
      <trkpt lat="37.918233" lon="-4.703690">
        <ele>158.630916</ele>
        <time>2020-08-12T08:22:32.381Z</time>
      </trkpt>
      <trkpt lat="37.918194" lon="-4.703852">
        <ele>158.635780</ele>
        <time>2020-08-12T08:22:35.374Z</time>
      </trkpt>
      <trkpt lat="37.918184" lon="-4.703968">
        <ele>158.639131</ele>
        <time>2020-08-12T08:22:37.376Z</time>
      </trkpt>
      <trkpt lat="37.918158" lon="-4.704084">
        <ele>158.642594</ele>
        <time>2020-08-12T08:22:39.377Z</time>
      </trkpt>
      <trkpt lat="37.918127" lon="-4.704194">
        <ele>158.645949</ele>
        <time>2020-08-12T08:22:41.378Z</time>
      </trkpt>
      <trkpt lat="37.918101" lon="-4.704322">
        <ele>158.653965</ele>
        <time>2020-08-12T08:22:43.374Z</time>
      </trkpt>
      <trkpt lat="37.918049" lon="-4.704479">
        <ele>158.933022</ele>
        <time>2020-08-12T08:22:46.378Z</time>
      </trkpt>
      <trkpt lat="37.918014" lon="-4.704613">
        <ele>159.164353</ele>
        <time>2020-08-12T08:22:48.377Z</time>
      </trkpt>
      <trkpt lat="37.917966" lon="-4.704726">
        <ele>159.374683</ele>
        <time>2020-08-12T08:22:50.371Z</time>
      </trkpt>
      <trkpt lat="37.917917" lon="-4.704852">
        <ele>159.604906</ele>
        <time>2020-08-12T08:22:53.381Z</time>
      </trkpt>
      <trkpt lat="37.917901" lon="-4.704981">
        <ele>159.818915</ele>
        <time>2020-08-12T08:22:55.380Z</time>
      </trkpt>
      <trkpt lat="37.917851" lon="-4.705098">
        <ele>160.036988</ele>
        <time>2020-08-12T08:22:57.371Z</time>
      </trkpt>
      <trkpt lat="37.917814" lon="-4.705205">
        <ele>160.228453</ele>
        <time>2020-08-12T08:23:00.373Z</time>
      </trkpt>
      <trkpt lat="37.917742" lon="-4.705351">
        <ele>160.510630</ele>
        <time>2020-08-12T08:23:03.373Z</time>
      </trkpt>
      <trkpt lat="37.917671" lon="-4.705530">
        <ele>160.838980</ele>
        <time>2020-08-12T08:23:06.372Z</time>
      </trkpt>
      <trkpt lat="37.917624" lon="-4.705665">
        <ele>161.080813</ele>
        <time>2020-08-12T08:23:09.371Z</time>
      </trkpt>
      <trkpt lat="37.917569" lon="-4.705795">
        <ele>161.322569</ele>
        <time>2020-08-12T08:23:13.372Z</time>
      </trkpt>
      <trkpt lat="37.917551" lon="-4.705911">
        <ele>161.516320</ele>
        <time>2020-08-12T08:23:16.370Z</time>
      </trkpt>
      <trkpt lat="37.917509" lon="-4.706016">
        <ele>161.709257</ele>
        <time>2020-08-12T08:23:20.363Z</time>
      </trkpt>
      <trkpt lat="37.917477" lon="-4.706157">
        <ele>161.949710</ele>
        <time>2020-08-12T08:23:24.362Z</time>
      </trkpt>
      <trkpt lat="37.917441" lon="-4.706279">
        <ele>162.163181</ele>
        <time>2020-08-12T08:23:27.374Z</time>
      </trkpt>
      <trkpt lat="37.917392" lon="-4.706403">
        <ele>162.398985</ele>
        <time>2020-08-12T08:23:30.365Z</time>
      </trkpt>
      <trkpt lat="37.917341" lon="-4.706517">
        <ele>163.042241</ele>
        <time>2020-08-12T08:23:33.371Z</time>
      </trkpt>
      <trkpt lat="37.917283" lon="-4.706629">
        <ele>163.699832</ele>
        <time>2020-08-12T08:23:36.377Z</time>
      </trkpt>
      <trkpt lat="37.917227" lon="-4.706748">
        <ele>164.379947</ele>
        <time>2020-08-12T08:23:39.367Z</time>
      </trkpt>
      <trkpt lat="37.917191" lon="-4.706859">
        <ele>164.969015</ele>
        <time>2020-08-12T08:23:42.371Z</time>
      </trkpt>
      <trkpt lat="37.917154" lon="-4.706976">
        <ele>165.587711</ele>
        <time>2020-08-12T08:23:45.377Z</time>
      </trkpt>
      <trkpt lat="37.917118" lon="-4.707114">
        <ele>166.301133</ele>
        <time>2020-08-12T08:23:48.372Z</time>
      </trkpt>
      <trkpt lat="37.917072" lon="-4.707222">
        <ele>166.903559</ele>
        <time>2020-08-12T08:23:51.369Z</time>
      </trkpt>
      <trkpt lat="37.917024" lon="-4.707346">
        <ele>167.581514</ele>
        <time>2020-08-12T08:23:55.378Z</time>
      </trkpt>
      <trkpt lat="37.916974" lon="-4.707442">
        <ele>168.146142</ele>
        <time>2020-08-12T08:23:58.374Z</time>
      </trkpt>
      <trkpt lat="37.916908" lon="-4.707549">
        <ele>168.812812</ele>
        <time>2020-08-12T08:24:02.375Z</time>
      </trkpt>
      <trkpt lat="37.916856" lon="-4.707648">
        <ele>169.396589</ele>
        <time>2020-08-12T08:24:05.374Z</time>
      </trkpt>
      <trkpt lat="37.916809" lon="-4.707753">
        <ele>169.989146</ele>
        <time>2020-08-12T08:24:08.371Z</time>
      </trkpt>
      <trkpt lat="37.916770" lon="-4.707882">
        <ele>170.667226</ele>
        <time>2020-08-12T08:24:12.356Z</time>
      </trkpt>
      <trkpt lat="37.916713" lon="-4.708002">
        <ele>171.354753</ele>
        <time>2020-08-12T08:24:15.744Z</time>
      </trkpt>
      <trkpt lat="37.916672" lon="-4.708113">
        <ele>171.956342</ele>
        <time>2020-08-12T08:24:19.743Z</time>
      </trkpt>
      <trkpt lat="37.916631" lon="-4.708220">
        <ele>172.540209</ele>
        <time>2020-08-12T08:24:23.745Z</time>
      </trkpt>
      <trkpt lat="37.916584" lon="-4.708352">
        <ele>173.251047</ele>
        <time>2020-08-12T08:24:27.736Z</time>
      </trkpt>
      <trkpt lat="37.916516" lon="-4.708468">
        <ele>173.816493</ele>
        <time>2020-08-12T08:24:31.743Z</time>
      </trkpt>
      <trkpt lat="37.916460" lon="-4.708567">
        <ele>174.190063</ele>
        <time>2020-08-12T08:24:34.737Z</time>
      </trkpt>
      <trkpt lat="37.916395" lon="-4.708688">
        <ele>174.638978</ele>
        <time>2020-08-12T08:24:38.731Z</time>
      </trkpt>
      <trkpt lat="37.916341" lon="-4.708811">
        <ele>175.070645</ele>
        <time>2020-08-12T08:24:42.746Z</time>
      </trkpt>
      <trkpt lat="37.916285" lon="-4.708935">
        <ele>175.508803</ele>
        <time>2020-08-12T08:24:46.740Z</time>
      </trkpt>
      <trkpt lat="37.916230" lon="-4.709027">
        <ele>175.862787</ele>
        <time>2020-08-12T08:24:49.734Z</time>
      </trkpt>
      <trkpt lat="37.916173" lon="-4.709125">
        <ele>176.236163</ele>
        <time>2020-08-12T08:24:52.727Z</time>
      </trkpt>
      <trkpt lat="37.916108" lon="-4.709251">
        <ele>176.697834</ele>
        <time>2020-08-12T08:24:56.740Z</time>
      </trkpt>
      <trkpt lat="37.916054" lon="-4.709353">
        <ele>177.074533</ele>
        <time>2020-08-12T08:24:59.739Z</time>
      </trkpt>
      <trkpt lat="37.915996" lon="-4.709463">
        <ele>177.480268</ele>
        <time>2020-08-12T08:25:02.721Z</time>
      </trkpt>
      <trkpt lat="37.915933" lon="-4.709565">
        <ele>177.877525</ele>
        <time>2020-08-12T08:25:05.753Z</time>
      </trkpt>
      <trkpt lat="37.915864" lon="-4.709653">
        <ele>178.258005</ele>
        <time>2020-08-12T08:25:08.754Z</time>
      </trkpt>
      <trkpt lat="37.915803" lon="-4.709753">
        <ele>178.645648</ele>
        <time>2020-08-12T08:25:11.751Z</time>
      </trkpt>
      <trkpt lat="37.915771" lon="-4.709881">
        <ele>179.057415</ele>
        <time>2020-08-12T08:25:16.751Z</time>
      </trkpt>
      <trkpt lat="37.915723" lon="-4.709977">
        <ele>179.405959</ele>
        <time>2020-08-12T08:25:19.733Z</time>
      </trkpt>
      <trkpt lat="37.915687" lon="-4.710082">
        <ele>179.757050</ele>
        <time>2020-08-12T08:25:23.741Z</time>
      </trkpt>
      <trkpt lat="37.915622" lon="-4.710186">
        <ele>180.163937</ele>
        <time>2020-08-12T08:25:26.746Z</time>
      </trkpt>
      <trkpt lat="37.915516" lon="-4.710247">
        <ele>180.596249</ele>
        <time>2020-08-12T08:25:29.749Z</time>
      </trkpt>
      <trkpt lat="37.915421" lon="-4.710351">
        <ele>180.878622</ele>
        <time>2020-08-12T08:25:32.748Z</time>
      </trkpt>
      <trkpt lat="37.915393" lon="-4.710462">
        <ele>181.085436</ele>
        <time>2020-08-12T08:25:34.731Z</time>
      </trkpt>
      <trkpt lat="37.915347" lon="-4.710588">
        <ele>181.331829</ele>
        <time>2020-08-12T08:25:37.749Z</time>
      </trkpt>
      <trkpt lat="37.915374" lon="-4.710745">
        <ele>181.616997</ele>
        <time>2020-08-12T08:25:40.734Z</time>
      </trkpt>
      <trkpt lat="37.915392" lon="-4.710877">
        <ele>181.854730</ele>
        <time>2020-08-12T08:25:44.738Z</time>
      </trkpt>
      <trkpt lat="37.915303" lon="-4.710982">
        <ele>182.128237</ele>
        <time>2020-08-12T08:25:48.736Z</time>
      </trkpt>
      <trkpt lat="37.915224" lon="-4.711050">
        <ele>182.343050</ele>
        <time>2020-08-12T08:25:51.757Z</time>
      </trkpt>
      <trkpt lat="37.915167" lon="-4.711164">
        <ele>182.582575</ele>
        <time>2020-08-12T08:25:56.745Z</time>
      </trkpt>
      <trkpt lat="37.915132" lon="-4.711308">
        <ele>182.849984</ele>
        <time>2020-08-12T08:26:00.743Z</time>
      </trkpt>
      <trkpt lat="37.915058" lon="-4.711415">
        <ele>183.102509</ele>
        <time>2020-08-12T08:26:03.721Z</time>
      </trkpt>
      <trkpt lat="37.914974" lon="-4.711531">
        <ele>183.381948</ele>
        <time>2020-08-12T08:26:06.728Z</time>
      </trkpt>
      <trkpt lat="37.914903" lon="-4.711648">
        <ele>183.643908</ele>
        <time>2020-08-12T08:26:09.727Z</time>
      </trkpt>
      <trkpt lat="37.914828" lon="-4.711764">
        <ele>183.910075</ele>
        <time>2020-08-12T08:26:12.747Z</time>
      </trkpt>
      <trkpt lat="37.914771" lon="-4.711895">
        <ele>184.175575</ele>
        <time>2020-08-12T08:26:14.755Z</time>
      </trkpt>
      <trkpt lat="37.914708" lon="-4.711986">
        <ele>184.390438</ele>
        <time>2020-08-12T08:26:16.749Z</time>
      </trkpt>
      <trkpt lat="37.914611" lon="-4.712127">
        <ele>184.638366</ele>
        <time>2020-08-12T08:26:19.731Z</time>
      </trkpt>
      <trkpt lat="37.914527" lon="-4.712222">
        <ele>184.694223</ele>
        <time>2020-08-12T08:26:21.748Z</time>
      </trkpt>
      <trkpt lat="37.914457" lon="-4.712335">
        <ele>184.750463</ele>
        <time>2020-08-12T08:26:23.743Z</time>
      </trkpt>
      <trkpt lat="37.914394" lon="-4.712453">
        <ele>184.806237</ele>
        <time>2020-08-12T08:26:25.751Z</time>
      </trkpt>
      <trkpt lat="37.914320" lon="-4.712574">
        <ele>184.866167</ele>
        <time>2020-08-12T08:26:27.741Z</time>
      </trkpt>
      <trkpt lat="37.914266" lon="-4.712666">
        <ele>184.911054</ele>
        <time>2020-08-12T08:26:29.742Z</time>
      </trkpt>
      <trkpt lat="37.914214" lon="-4.712768">
        <ele>184.958593</ele>
        <time>2020-08-12T08:26:31.744Z</time>
      </trkpt>
      <trkpt lat="37.914128" lon="-4.712921">
        <ele>185.032131</ele>
        <time>2020-08-12T08:26:33.744Z</time>
      </trkpt>
      <trkpt lat="37.914093" lon="-4.713035">
        <ele>185.080016</ele>
        <time>2020-08-12T08:26:35.746Z</time>
      </trkpt>
      <trkpt lat="37.914004" lon="-4.713179">
        <ele>185.151622</ele>
        <time>2020-08-12T08:26:37.733Z</time>
      </trkpt>
      <trkpt lat="37.913940" lon="-4.713268">
        <ele>185.198762</ele>
        <time>2020-08-12T08:26:39.742Z</time>
      </trkpt>
      <trkpt lat="37.913891" lon="-4.713381">
        <ele>185.249237</ele>
        <time>2020-08-12T08:26:41.750Z</time>
      </trkpt>
      <trkpt lat="37.913807" lon="-4.713503">
        <ele>185.312624</ele>
        <time>2020-08-12T08:26:43.741Z</time>
      </trkpt>
      <trkpt lat="37.913750" lon="-4.713618">
        <ele>185.365788</ele>
        <time>2020-08-12T08:26:45.746Z</time>
      </trkpt>
      <trkpt lat="37.913682" lon="-4.713710">
        <ele>185.415137</ele>
        <time>2020-08-12T08:26:47.743Z</time>
      </trkpt>
      <trkpt lat="37.913668" lon="-4.713833">
        <ele>185.463784</ele>
        <time>2020-08-12T08:26:50.747Z</time>
      </trkpt>
      <trkpt lat="37.913632" lon="-4.713958">
        <ele>185.486404</ele>
        <time>2020-08-12T08:26:52.742Z</time>
      </trkpt>
      <trkpt lat="37.913589" lon="-4.714058">
        <ele>185.382670</ele>
        <time>2020-08-12T08:26:53.748Z</time>
      </trkpt>
      <trkpt lat="37.913558" lon="-4.714186">
        <ele>185.260713</ele>
        <time>2020-08-12T08:26:55.752Z</time>
      </trkpt>
      <trkpt lat="37.913519" lon="-4.714289">
        <ele>185.156652</ele>
        <time>2020-08-12T08:26:58.741Z</time>
      </trkpt>
      <trkpt lat="37.913479" lon="-4.714436">
        <ele>185.015018</ele>
        <time>2020-08-12T08:27:00.743Z</time>
      </trkpt>
      <trkpt lat="37.913420" lon="-4.714551">
        <ele>184.890072</ele>
        <time>2020-08-12T08:27:03.736Z</time>
      </trkpt>
      <trkpt lat="37.913373" lon="-4.714689">
        <ele>184.753164</ele>
        <time>2020-08-12T08:27:05.726Z</time>
      </trkpt>
      <trkpt lat="37.913318" lon="-4.714853">
        <ele>184.590851</ele>
        <time>2020-08-12T08:27:07.748Z</time>
      </trkpt>
      <trkpt lat="37.913259" lon="-4.714971">
        <ele>184.463605</ele>
        <time>2020-08-12T08:27:09.750Z</time>
      </trkpt>
      <trkpt lat="37.913165" lon="-4.715103">
        <ele>184.301639</ele>
        <time>2020-08-12T08:27:11.749Z</time>
      </trkpt>
      <trkpt lat="37.913075" lon="-4.715223">
        <ele>184.150831</ele>
        <time>2020-08-12T08:27:13.748Z</time>
      </trkpt>
      <trkpt lat="37.913004" lon="-4.715377">
        <ele>183.988367</ele>
        <time>2020-08-12T08:27:15.734Z</time>
      </trkpt>
      <trkpt lat="37.912967" lon="-4.715520">
        <ele>183.851291</ele>
        <time>2020-08-12T08:27:18.745Z</time>
      </trkpt>
      <trkpt lat="37.912911" lon="-4.715634">
        <ele>183.728972</ele>
        <time>2020-08-12T08:27:21.744Z</time>
      </trkpt>
      <trkpt lat="37.912863" lon="-4.715758">
        <ele>183.603165</ele>
        <time>2020-08-12T08:27:23.748Z</time>
      </trkpt>
      <trkpt lat="37.912822" lon="-4.715884">
        <ele>183.479020</ele>
        <time>2020-08-12T08:27:25.736Z</time>
      </trkpt>
      <trkpt lat="37.912752" lon="-4.716001">
        <ele>183.208768</ele>
        <time>2020-08-12T08:27:27.746Z</time>
      </trkpt>
      <trkpt lat="37.912676" lon="-4.716134">
        <ele>182.819518</ele>
        <time>2020-08-12T08:27:29.732Z</time>
      </trkpt>
      <trkpt lat="37.912663" lon="-4.716265">
        <ele>182.506565</ele>
        <time>2020-08-12T08:27:32.746Z</time>
      </trkpt>
      <trkpt lat="37.912602" lon="-4.716438">
        <ele>182.057417</ele>
        <time>2020-08-12T08:27:34.738Z</time>
      </trkpt>
      <trkpt lat="37.912545" lon="-4.716558">
        <ele>181.725410</ele>
        <time>2020-08-12T08:27:36.748Z</time>
      </trkpt>
      <trkpt lat="37.912461" lon="-4.716631">
        <ele>181.419423</ele>
        <time>2020-08-12T08:27:38.751Z</time>
      </trkpt>
      <trkpt lat="37.912334" lon="-4.716773">
        <ele>180.910632</ele>
        <time>2020-08-12T08:27:42.752Z</time>
      </trkpt>
      <trkpt lat="37.912248" lon="-4.716964">
        <ele>180.389366</ele>
        <time>2020-08-12T08:27:45.736Z</time>
      </trkpt>
      <trkpt lat="37.912184" lon="-4.717086">
        <ele>180.042100</ele>
        <time>2020-08-12T08:27:47.740Z</time>
      </trkpt>
      <trkpt lat="37.912081" lon="-4.717238">
        <ele>179.567165</ele>
        <time>2020-08-12T08:27:49.744Z</time>
      </trkpt>
      <trkpt lat="37.912023" lon="-4.717327">
        <ele>179.293548</ele>
        <time>2020-08-12T08:27:50.741Z</time>
      </trkpt>
      <trkpt lat="37.911914" lon="-4.717500">
        <ele>178.768771</ele>
        <time>2020-08-12T08:27:52.734Z</time>
      </trkpt>
      <trkpt lat="37.911842" lon="-4.717633">
        <ele>178.386444</ele>
        <time>2020-08-12T08:27:54.748Z</time>
      </trkpt>
      <trkpt lat="37.911767" lon="-4.717797">
        <ele>178.061575</ele>
        <time>2020-08-12T08:27:57.752Z</time>
      </trkpt>
      <trkpt lat="37.911698" lon="-4.717892">
        <ele>178.180696</ele>
        <time>2020-08-12T08:27:59.733Z</time>
      </trkpt>
      <trkpt lat="37.911621" lon="-4.718051">
        <ele>178.352803</ele>
        <time>2020-08-12T08:28:01.735Z</time>
      </trkpt>
      <trkpt lat="37.911585" lon="-4.718191">
        <ele>178.488641</ele>
        <time>2020-08-12T08:28:03.744Z</time>
      </trkpt>
      <trkpt lat="37.911528" lon="-4.718291">
        <ele>178.602450</ele>
        <time>2020-08-12T08:28:06.757Z</time>
      </trkpt>
      <trkpt lat="37.911429" lon="-4.718403">
        <ele>178.757612</ele>
        <time>2020-08-12T08:28:08.749Z</time>
      </trkpt>
      <trkpt lat="37.911408" lon="-4.718533">
        <ele>178.880027</ele>
        <time>2020-08-12T08:28:10.751Z</time>
      </trkpt>
      <trkpt lat="37.911388" lon="-4.718693">
        <ele>179.029470</ele>
        <time>2020-08-12T08:28:13.741Z</time>
      </trkpt>
      <trkpt lat="37.911327" lon="-4.718820">
        <ele>179.166633</ele>
        <time>2020-08-12T08:28:15.728Z</time>
      </trkpt>
      <trkpt lat="37.911238" lon="-4.718931">
        <ele>179.312630</ele>
        <time>2020-08-12T08:28:17.730Z</time>
      </trkpt>
      <trkpt lat="37.911176" lon="-4.719047">
        <ele>179.441886</ele>
        <time>2020-08-12T08:28:19.745Z</time>
      </trkpt>
      <trkpt lat="37.911097" lon="-4.719167">
        <ele>179.586065</ele>
        <time>2020-08-12T08:28:21.741Z</time>
      </trkpt>
      <trkpt lat="37.911035" lon="-4.719253">
        <ele>179.693535</ele>
        <time>2020-08-12T08:28:23.737Z</time>
      </trkpt>
      <trkpt lat="37.910983" lon="-4.719383">
        <ele>179.827995</ele>
        <time>2020-08-12T08:28:25.742Z</time>
      </trkpt>
      <trkpt lat="37.910919" lon="-4.719503">
        <ele>179.961618</ele>
        <time>2020-08-12T08:28:27.729Z</time>
      </trkpt>
      <trkpt lat="37.910828" lon="-4.719616">
        <ele>180.110577</ele>
        <time>2020-08-12T08:28:29.755Z</time>
      </trkpt>
      <trkpt lat="37.910725" lon="-4.719756">
        <ele>180.188636</ele>
        <time>2020-08-12T08:28:32.748Z</time>
      </trkpt>
      <trkpt lat="37.910665" lon="-4.719905">
        <ele>180.246322</ele>
        <time>2020-08-12T08:28:35.747Z</time>
      </trkpt>
      <trkpt lat="37.910617" lon="-4.720011">
        <ele>180.288467</ele>
        <time>2020-08-12T08:28:37.746Z</time>
      </trkpt>
      <trkpt lat="37.910568" lon="-4.720167">
        <ele>180.346368</ele>
        <time>2020-08-12T08:28:39.745Z</time>
      </trkpt>
      <trkpt lat="37.910494" lon="-4.720336">
        <ele>180.413018</ele>
        <time>2020-08-12T08:28:42.738Z</time>
      </trkpt>
      <trkpt lat="37.910438" lon="-4.720441">
        <ele>180.456723</ele>
        <time>2020-08-12T08:28:44.741Z</time>
      </trkpt>
      <trkpt lat="37.910388" lon="-4.720571">
        <ele>180.506594</ele>
        <time>2020-08-12T08:28:46.741Z</time>
      </trkpt>
      <trkpt lat="37.910315" lon="-4.720698">
        <ele>180.560778</ele>
        <time>2020-08-12T08:28:48.749Z</time>
      </trkpt>
      <trkpt lat="37.910249" lon="-4.720815">
        <ele>180.610376</ele>
        <time>2020-08-12T08:28:50.740Z</time>
      </trkpt>
      <trkpt lat="37.910176" lon="-4.720933">
        <ele>180.662084</ele>
        <time>2020-08-12T08:28:52.747Z</time>
      </trkpt>
      <trkpt lat="37.910124" lon="-4.721074">
        <ele>180.715755</ele>
        <time>2020-08-12T08:28:54.744Z</time>
      </trkpt>
      <trkpt lat="37.910081" lon="-4.721219">
        <ele>180.769172</ele>
        <time>2020-08-12T08:28:56.746Z</time>
      </trkpt>
      <trkpt lat="37.909972" lon="-4.721365">
        <ele>180.838486</ele>
        <time>2020-08-12T08:28:58.746Z</time>
      </trkpt>
      <trkpt lat="37.909906" lon="-4.721474">
        <ele>180.885866</ele>
        <time>2020-08-12T08:29:00.743Z</time>
      </trkpt>
      <trkpt lat="37.909863" lon="-4.721583">
        <ele>180.900854</ele>
        <time>2020-08-12T08:29:02.731Z</time>
      </trkpt>
      <trkpt lat="37.909765" lon="-4.721726">
        <ele>180.818265</ele>
        <time>2020-08-12T08:29:05.725Z</time>
      </trkpt>
      <trkpt lat="37.909703" lon="-4.721820">
        <ele>180.764844</ele>
        <time>2020-08-12T08:29:07.741Z</time>
      </trkpt>
      <trkpt lat="37.909650" lon="-4.721973">
        <ele>180.691985</ele>
        <time>2020-08-12T08:29:10.745Z</time>
      </trkpt>
      <trkpt lat="37.909597" lon="-4.722098">
        <ele>180.630111</ele>
        <time>2020-08-12T08:29:12.744Z</time>
      </trkpt>
      <trkpt lat="37.909533" lon="-4.722226">
        <ele>180.564036</ele>
        <time>2020-08-12T08:29:14.760Z</time>
      </trkpt>
      <trkpt lat="37.909492" lon="-4.722332">
        <ele>180.512563</ele>
        <time>2020-08-12T08:29:16.741Z</time>
      </trkpt>
      <trkpt lat="37.909391" lon="-4.722500">
        <ele>180.420468</ele>
        <time>2020-08-12T08:29:19.736Z</time>
      </trkpt>
      <trkpt lat="37.909297" lon="-4.722664">
        <ele>180.332083</ele>
        <time>2020-08-12T08:29:21.757Z</time>
      </trkpt>
      <trkpt lat="37.909219" lon="-4.722787">
        <ele>180.263276</ele>
        <time>2020-08-12T08:29:23.750Z</time>
      </trkpt>
      <trkpt lat="37.909145" lon="-4.722911">
        <ele>180.195484</ele>
        <time>2020-08-12T08:29:25.743Z</time>
      </trkpt>
      <trkpt lat="37.909060" lon="-4.722987">
        <ele>180.137997</ele>
        <time>2020-08-12T08:29:27.743Z</time>
      </trkpt>
      <trkpt lat="37.908995" lon="-4.723069">
        <ele>180.087315</ele>
        <time>2020-08-12T08:29:29.743Z</time>
      </trkpt>
      <trkpt lat="37.908918" lon="-4.723186">
        <ele>180.020882</ele>
        <time>2020-08-12T08:29:31.733Z</time>
      </trkpt>
      <trkpt lat="37.908863" lon="-4.723289">
        <ele>179.966652</ele>
        <time>2020-08-12T08:29:33.742Z</time>
      </trkpt>
      <trkpt lat="37.908789" lon="-4.723420">
        <ele>179.853994</ele>
        <time>2020-08-12T08:29:36.744Z</time>
      </trkpt>
      <trkpt lat="37.908725" lon="-4.723561">
        <ele>179.665318</ele>
        <time>2020-08-12T08:29:38.748Z</time>
      </trkpt>
      <trkpt lat="37.908665" lon="-4.723691">
        <ele>179.490629</ele>
        <time>2020-08-12T08:29:41.746Z</time>
      </trkpt>
      <trkpt lat="37.908626" lon="-4.723817">
        <ele>179.333640</ele>
        <time>2020-08-12T08:29:44.730Z</time>
      </trkpt>
      <trkpt lat="37.908586" lon="-4.723946">
        <ele>179.172874</ele>
        <time>2020-08-12T08:29:47.737Z</time>
      </trkpt>
      <trkpt lat="37.908509" lon="-4.724057">
        <ele>179.001440</ele>
        <time>2020-08-12T08:29:50.753Z</time>
      </trkpt>
      <trkpt lat="37.908437" lon="-4.724158">
        <ele>178.843557</ele>
        <time>2020-08-12T08:29:52.753Z</time>
      </trkpt>
      <trkpt lat="37.908371" lon="-4.724311">
        <ele>178.641301</ele>
        <time>2020-08-12T08:29:55.733Z</time>
      </trkpt>
      <trkpt lat="37.908308" lon="-4.724449">
        <ele>178.456373</ele>
        <time>2020-08-12T08:29:58.744Z</time>
      </trkpt>
      <trkpt lat="37.908246" lon="-4.724550">
        <ele>178.307943</ele>
        <time>2020-08-12T08:30:00.726Z</time>
      </trkpt>
      <trkpt lat="37.908168" lon="-4.724694">
        <ele>178.105346</ele>
        <time>2020-08-12T08:30:03.735Z</time>
      </trkpt>
      <trkpt lat="37.908138" lon="-4.724805">
        <ele>177.969253</ele>
        <time>2020-08-12T08:30:05.728Z</time>
      </trkpt>
      <trkpt lat="37.908075" lon="-4.724904">
        <ele>177.821729</ele>
        <time>2020-08-12T08:30:07.731Z</time>
      </trkpt>
      <trkpt lat="37.908003" lon="-4.725028">
        <ele>177.643152</ele>
        <time>2020-08-12T08:30:09.750Z</time>
      </trkpt>
      <trkpt lat="37.907933" lon="-4.725161">
        <ele>177.457713</ele>
        <time>2020-08-12T08:30:11.748Z</time>
      </trkpt>
      <trkpt lat="37.907839" lon="-4.725285">
        <ele>177.300669</ele>
        <time>2020-08-12T08:30:13.743Z</time>
      </trkpt>
      <trkpt lat="37.907733" lon="-4.725445">
        <ele>177.584687</ele>
        <time>2020-08-12T08:30:15.749Z</time>
      </trkpt>
      <trkpt lat="37.907679" lon="-4.725551">
        <ele>177.756214</ele>
        <time>2020-08-12T08:30:17.746Z</time>
      </trkpt>
      <trkpt lat="37.907630" lon="-4.725688">
        <ele>177.960699</ele>
        <time>2020-08-12T08:30:19.742Z</time>
      </trkpt>
      <trkpt lat="37.907594" lon="-4.725830">
        <ele>178.163460</ele>
        <time>2020-08-12T08:30:21.730Z</time>
      </trkpt>
      <trkpt lat="37.907534" lon="-4.725958">
        <ele>178.365860</ele>
        <time>2020-08-12T08:30:23.733Z</time>
      </trkpt>
      <trkpt lat="37.907487" lon="-4.726082">
        <ele>178.552873</ele>
        <time>2020-08-12T08:30:25.744Z</time>
      </trkpt>
      <trkpt lat="37.907419" lon="-4.726198">
        <ele>178.749329</ele>
        <time>2020-08-12T08:30:27.742Z</time>
      </trkpt>
      <trkpt lat="37.907348" lon="-4.726310">
        <ele>178.944643</ele>
        <time>2020-08-12T08:30:29.732Z</time>
      </trkpt>
      <trkpt lat="37.907272" lon="-4.726421">
        <ele>179.144436</ele>
        <time>2020-08-12T08:30:31.739Z</time>
      </trkpt>
      <trkpt lat="37.907218" lon="-4.726524">
        <ele>179.312552</ele>
        <time>2020-08-12T08:30:33.744Z</time>
      </trkpt>
      <trkpt lat="37.907171" lon="-4.726629">
        <ele>179.476664</ele>
        <time>2020-08-12T08:30:35.746Z</time>
      </trkpt>
      <trkpt lat="37.907099" lon="-4.726746">
        <ele>179.678377</ele>
        <time>2020-08-12T08:30:38.729Z</time>
      </trkpt>
      <trkpt lat="37.907023" lon="-4.726876">
        <ele>179.898332</ele>
        <time>2020-08-12T08:30:41.737Z</time>
      </trkpt>
      <trkpt lat="37.906945" lon="-4.726980">
        <ele>180.093397</ele>
        <time>2020-08-12T08:30:43.741Z</time>
      </trkpt>
      <trkpt lat="37.906885" lon="-4.727073">
        <ele>180.256711</ele>
        <time>2020-08-12T08:30:45.735Z</time>
      </trkpt>
      <trkpt lat="37.906816" lon="-4.727160">
        <ele>180.352079</ele>
        <time>2020-08-12T08:30:47.741Z</time>
      </trkpt>
      <trkpt lat="37.906737" lon="-4.727295">
        <ele>180.233328</ele>
        <time>2020-08-12T08:30:50.738Z</time>
      </trkpt>
      <trkpt lat="37.906655" lon="-4.727379">
        <ele>180.138915</ele>
        <time>2020-08-12T08:30:52.740Z</time>
      </trkpt>
      <trkpt lat="37.906546" lon="-4.727449">
        <ele>180.029495</ele>
        <time>2020-08-12T08:30:54.746Z</time>
      </trkpt>
      <trkpt lat="37.906501" lon="-4.727585">
        <ele>179.925300</ele>
        <time>2020-08-12T08:30:56.752Z</time>
      </trkpt>
      <trkpt lat="37.906422" lon="-4.727657">
        <ele>179.838168</ele>
        <time>2020-08-12T08:30:58.741Z</time>
      </trkpt>
      <trkpt lat="37.906380" lon="-4.727758">
        <ele>179.757504</ele>
        <time>2020-08-12T08:31:00.750Z</time>
      </trkpt>
      <trkpt lat="37.906291" lon="-4.727777">
        <ele>179.676686</ele>
        <time>2020-08-12T08:31:01.735Z</time>
      </trkpt>
      <trkpt lat="37.906273" lon="-4.727920">
        <ele>179.574374</ele>
        <time>2020-08-12T08:31:03.745Z</time>
      </trkpt>
      <trkpt lat="37.906199" lon="-4.728015">
        <ele>179.480055</ele>
        <time>2020-08-12T08:31:05.720Z</time>
      </trkpt>
      <trkpt lat="37.906117" lon="-4.728126">
        <ele>179.372621</ele>
        <time>2020-08-12T08:31:07.746Z</time>
      </trkpt>
      <trkpt lat="37.906042" lon="-4.728266">
        <ele>179.253062</ele>
        <time>2020-08-12T08:31:10.731Z</time>
      </trkpt>
      <trkpt lat="37.905975" lon="-4.728351">
        <ele>179.168173</ele>
        <time>2020-08-12T08:31:12.743Z</time>
      </trkpt>
      <trkpt lat="37.905896" lon="-4.728481">
        <ele>179.052239</ele>
        <time>2020-08-12T08:31:15.743Z</time>
      </trkpt>
      <trkpt lat="37.905823" lon="-4.728578">
        <ele>178.957529</ele>
        <time>2020-08-12T08:31:17.735Z</time>
      </trkpt>
      <trkpt lat="37.905755" lon="-4.728682">
        <ele>178.862099</ele>
        <time>2020-08-12T08:31:19.745Z</time>
      </trkpt>
      <trkpt lat="37.905647" lon="-4.728790">
        <ele>178.721425</ele>
        <time>2020-08-12T08:31:21.748Z</time>
      </trkpt>
      <trkpt lat="37.905557" lon="-4.728917">
        <ele>178.523555</ele>
        <time>2020-08-12T08:31:23.740Z</time>
      </trkpt>
      <trkpt lat="37.905475" lon="-4.729030">
        <ele>178.345599</ele>
        <time>2020-08-12T08:31:25.738Z</time>
      </trkpt>
      <trkpt lat="37.905383" lon="-4.729150">
        <ele>178.151653</ele>
        <time>2020-08-12T08:31:27.748Z</time>
      </trkpt>
      <trkpt lat="37.905290" lon="-4.729285">
        <ele>177.943918</ele>
        <time>2020-08-12T08:31:29.737Z</time>
      </trkpt>
      <trkpt lat="37.905203" lon="-4.729413">
        <ele>177.748088</ele>
        <time>2020-08-12T08:31:31.731Z</time>
      </trkpt>
      <trkpt lat="37.905114" lon="-4.729542">
        <ele>177.549456</ele>
        <time>2020-08-12T08:31:33.746Z</time>
      </trkpt>
      <trkpt lat="37.905026" lon="-4.729691">
        <ele>177.333717</ele>
        <time>2020-08-12T08:31:35.748Z</time>
      </trkpt>
      <trkpt lat="37.904916" lon="-4.729832">
        <ele>177.103876</ele>
        <time>2020-08-12T08:31:37.731Z</time>
      </trkpt>
      <trkpt lat="37.904804" lon="-4.729991">
        <ele>176.856811</ele>
        <time>2020-08-12T08:31:39.740Z</time>
      </trkpt>
      <trkpt lat="37.904695" lon="-4.730145">
        <ele>176.617004</ele>
        <time>2020-08-12T08:31:41.742Z</time>
      </trkpt>
      <trkpt lat="37.904629" lon="-4.730235">
        <ele>176.474579</ele>
        <time>2020-08-12T08:31:42.747Z</time>
      </trkpt>
      <trkpt lat="37.904520" lon="-4.730406">
        <ele>176.219763</ele>
        <time>2020-08-12T08:31:44.735Z</time>
      </trkpt>
      <trkpt lat="37.904434" lon="-4.730556">
        <ele>175.754036</ele>
        <time>2020-08-12T08:31:46.748Z</time>
      </trkpt>
      <trkpt lat="37.904379" lon="-4.730674">
        <ele>175.260395</ele>
        <time>2020-08-12T08:31:48.735Z</time>
      </trkpt>
      <trkpt lat="37.904325" lon="-4.730798">
        <ele>174.750251</ele>
        <time>2020-08-12T08:31:50.743Z</time>
      </trkpt>
      <trkpt lat="37.904263" lon="-4.730910">
        <ele>174.257458</ele>
        <time>2020-08-12T08:31:52.730Z</time>
      </trkpt>
      <trkpt lat="37.904185" lon="-4.731018">
        <ele>173.730101</ele>
        <time>2020-08-12T08:31:54.740Z</time>
      </trkpt>
      <trkpt lat="37.904119" lon="-4.731111">
        <ele>173.279566</ele>
        <time>2020-08-12T08:31:56.756Z</time>
      </trkpt>
      <trkpt lat="37.904066" lon="-4.731235">
        <ele>172.771610</ele>
        <time>2020-08-12T08:31:58.734Z</time>
      </trkpt>
      <trkpt lat="37.903986" lon="-4.731339">
        <ele>172.248456</ele>
        <time>2020-08-12T08:32:01.733Z</time>
      </trkpt>
      <trkpt lat="37.904033" lon="-4.731230">
        <ele>171.801048</ele>
        <time>2020-08-12T08:32:12.723Z</time>
      </trkpt>
      <trkpt lat="37.904109" lon="-4.731155">
        <ele>171.361344</ele>
        <time>2020-08-12T08:32:19.730Z</time>
      </trkpt>
      <trkpt lat="37.904172" lon="-4.731067">
        <ele>170.933353</ele>
        <time>2020-08-12T08:32:27.730Z</time>
      </trkpt>
      <trkpt lat="37.904236" lon="-4.730965">
        <ele>170.463957</ele>
        <time>2020-08-12T08:32:35.747Z</time>
      </trkpt>
      <trkpt lat="37.904307" lon="-4.730888">
        <ele>170.037380</ele>
        <time>2020-08-12T08:32:40.748Z</time>
      </trkpt>
      <trkpt lat="37.904346" lon="-4.730783">
        <ele>169.619374</ele>
        <time>2020-08-12T08:32:45.746Z</time>
      </trkpt>
      <trkpt lat="37.904423" lon="-4.730698">
        <ele>169.153234</ele>
        <time>2020-08-12T08:32:51.745Z</time>
      </trkpt>
      <trkpt lat="37.904176" lon="-4.730982">
        <ele>167.686661</ele>
        <time>2020-08-12T08:34:04.748Z</time>
      </trkpt>
      <trkpt lat="37.904115" lon="-4.731099">
        <ele>167.281438</ele>
        <time>2020-08-12T08:34:06.743Z</time>
      </trkpt>
      <trkpt lat="37.904028" lon="-4.731212">
        <ele>166.825222</ele>
        <time>2020-08-12T08:34:08.750Z</time>
      </trkpt>
      <trkpt lat="37.903948" lon="-4.731326">
        <ele>166.384371</ele>
        <time>2020-08-12T08:34:10.730Z</time>
      </trkpt>
      <trkpt lat="37.903859" lon="-4.731458">
        <ele>165.882651</ele>
        <time>2020-08-12T08:34:13.837Z</time>
      </trkpt>
      <trkpt lat="37.903746" lon="-4.731664">
        <ele>165.157673</ele>
        <time>2020-08-12T08:34:15.732Z</time>
      </trkpt>
      <trkpt lat="37.903664" lon="-4.731798">
        <ele>164.667661</ele>
        <time>2020-08-12T08:34:17.748Z</time>
      </trkpt>
      <trkpt lat="37.903585" lon="-4.731960">
        <ele>164.117353</ele>
        <time>2020-08-12T08:34:19.731Z</time>
      </trkpt>
      <trkpt lat="37.903531" lon="-4.732091">
        <ele>163.690266</ele>
        <time>2020-08-12T08:34:21.742Z</time>
      </trkpt>
      <trkpt lat="37.903468" lon="-4.732196">
        <ele>163.309097</ele>
        <time>2020-08-12T08:34:22.741Z</time>
      </trkpt>
      <trkpt lat="37.903410" lon="-4.732338">
        <ele>162.847050</ele>
        <time>2020-08-12T08:34:24.743Z</time>
      </trkpt>
      <trkpt lat="37.903343" lon="-4.732485">
        <ele>162.356499</ele>
        <time>2020-08-12T08:34:26.744Z</time>
      </trkpt>
      <trkpt lat="37.903291" lon="-4.732595">
        <ele>161.985957</ele>
        <time>2020-08-12T08:34:28.747Z</time>
      </trkpt>
      <trkpt lat="37.903196" lon="-4.732759">
        <ele>161.398059</ele>
        <time>2020-08-12T08:34:30.748Z</time>
      </trkpt>
      <trkpt lat="37.903149" lon="-4.732868">
        <ele>161.499283</ele>
        <time>2020-08-12T08:34:32.740Z</time>
      </trkpt>
      <trkpt lat="37.903116" lon="-4.732988">
        <ele>161.720665</ele>
        <time>2020-08-12T08:34:34.742Z</time>
      </trkpt>
      <trkpt lat="37.903066" lon="-4.733140">
        <ele>162.007551</ele>
        <time>2020-08-12T08:34:36.747Z</time>
      </trkpt>
      <trkpt lat="37.903024" lon="-4.733294">
        <ele>162.291404</ele>
        <time>2020-08-12T08:34:38.739Z</time>
      </trkpt>
      <trkpt lat="37.902977" lon="-4.733403">
        <ele>162.507794</ele>
        <time>2020-08-12T08:34:40.745Z</time>
      </trkpt>
      <trkpt lat="37.902939" lon="-4.733571">
        <ele>162.812252</ele>
        <time>2020-08-12T08:34:43.733Z</time>
      </trkpt>
      <trkpt lat="37.902880" lon="-4.733662">
        <ele>163.017434</ele>
        <time>2020-08-12T08:34:45.745Z</time>
      </trkpt>
      <trkpt lat="37.902813" lon="-4.733756">
        <ele>163.238109</ele>
        <time>2020-08-12T08:34:47.732Z</time>
      </trkpt>
      <trkpt lat="37.902777" lon="-4.733864">
        <ele>163.442354</ele>
        <time>2020-08-12T08:34:49.743Z</time>
      </trkpt>
      <trkpt lat="37.902704" lon="-4.733967">
        <ele>163.683544</ele>
        <time>2020-08-12T08:34:51.725Z</time>
      </trkpt>
      <trkpt lat="37.902674" lon="-4.734119">
        <ele>163.956500</ele>
        <time>2020-08-12T08:34:54.733Z</time>
      </trkpt>
      <trkpt lat="37.902628" lon="-4.734220">
        <ele>164.159658</ele>
        <time>2020-08-12T08:34:56.746Z</time>
      </trkpt>
      <trkpt lat="37.902571" lon="-4.734321">
        <ele>164.375982</ele>
        <time>2020-08-12T08:34:58.750Z</time>
      </trkpt>
      <trkpt lat="37.902496" lon="-4.734450">
        <ele>164.655127</ele>
        <time>2020-08-12T08:35:01.742Z</time>
      </trkpt>
      <trkpt lat="37.902446" lon="-4.734545">
        <ele>164.854065</ele>
        <time>2020-08-12T08:35:03.745Z</time>
      </trkpt>
      <trkpt lat="37.902358" lon="-4.734675">
        <ele>165.152456</ele>
        <time>2020-08-12T08:35:06.747Z</time>
      </trkpt>
      <trkpt lat="37.902291" lon="-4.734804">
        <ele>165.358858</ele>
        <time>2020-08-12T08:35:08.744Z</time>
      </trkpt>
      <trkpt lat="37.902224" lon="-4.734918">
        <ele>165.481611</ele>
        <time>2020-08-12T08:35:10.742Z</time>
      </trkpt>
      <trkpt lat="37.902175" lon="-4.735037">
        <ele>165.597525</ele>
        <time>2020-08-12T08:35:13.739Z</time>
      </trkpt>
      <trkpt lat="37.902103" lon="-4.735146">
        <ele>165.720282</ele>
        <time>2020-08-12T08:35:15.727Z</time>
      </trkpt>
      <trkpt lat="37.902032" lon="-4.735264">
        <ele>165.848428</ele>
        <time>2020-08-12T08:35:17.738Z</time>
      </trkpt>
      <trkpt lat="37.901990" lon="-4.735365">
        <ele>165.947018</ele>
        <time>2020-08-12T08:35:19.733Z</time>
      </trkpt>
      <trkpt lat="37.901926" lon="-4.735470">
        <ele>166.061594</ele>
        <time>2020-08-12T08:35:21.735Z</time>
      </trkpt>
      <trkpt lat="37.901841" lon="-4.735590">
        <ele>166.200851</ele>
        <time>2020-08-12T08:35:23.736Z</time>
      </trkpt>
      <trkpt lat="37.901760" lon="-4.735679">
        <ele>166.318177</ele>
        <time>2020-08-12T08:35:25.736Z</time>
      </trkpt>
      <trkpt lat="37.901670" lon="-4.735809">
        <ele>166.467524</ele>
        <time>2020-08-12T08:35:28.732Z</time>
      </trkpt>
      <trkpt lat="37.901592" lon="-4.735921">
        <ele>166.596527</ele>
        <time>2020-08-12T08:35:30.742Z</time>
      </trkpt>
      <trkpt lat="37.901523" lon="-4.736023">
        <ele>166.712549</ele>
        <time>2020-08-12T08:35:32.746Z</time>
      </trkpt>
      <trkpt lat="37.901453" lon="-4.736119">
        <ele>166.825429</ele>
        <time>2020-08-12T08:35:34.748Z</time>
      </trkpt>
      <trkpt lat="37.901371" lon="-4.736258">
        <ele>166.975303</ele>
        <time>2020-08-12T08:35:37.747Z</time>
      </trkpt>
      <trkpt lat="37.901232" lon="-4.736329">
        <ele>167.139318</ele>
        <time>2020-08-12T08:35:39.735Z</time>
      </trkpt>
      <trkpt lat="37.901149" lon="-4.736461">
        <ele>167.274227</ele>
        <time>2020-08-12T08:35:41.737Z</time>
      </trkpt>
      <trkpt lat="37.901121" lon="-4.736598">
        <ele>167.327865</ele>
        <time>2020-08-12T08:35:44.728Z</time>
      </trkpt>
      <trkpt lat="37.901060" lon="-4.736724">
        <ele>167.383891</ele>
        <time>2020-08-12T08:35:46.734Z</time>
      </trkpt>
      <trkpt lat="37.900922" lon="-4.736849">
        <ele>167.465366</ele>
        <time>2020-08-12T08:35:48.737Z</time>
      </trkpt>
      <trkpt lat="37.900838" lon="-4.736956">
        <ele>167.522571</ele>
        <time>2020-08-12T08:35:50.748Z</time>
      </trkpt>
      <trkpt lat="37.900735" lon="-4.737031">
        <ele>167.579629</ele>
        <time>2020-08-12T08:35:51.744Z</time>
      </trkpt>
      <trkpt lat="37.900666" lon="-4.737122">
        <ele>167.627462</ele>
        <time>2020-08-12T08:35:53.742Z</time>
      </trkpt>
      <trkpt lat="37.900568" lon="-4.737259">
        <ele>167.697546</ele>
        <time>2020-08-12T08:35:55.742Z</time>
      </trkpt>
      <trkpt lat="37.900512" lon="-4.737421">
        <ele>167.764579</ele>
        <time>2020-08-12T08:35:57.741Z</time>
      </trkpt>
      <trkpt lat="37.900400" lon="-4.737553">
        <ele>167.838043</ele>
        <time>2020-08-12T08:35:58.744Z</time>
      </trkpt>
      <trkpt lat="37.900402" lon="-4.737686">
        <ele>167.888460</ele>
        <time>2020-08-12T08:36:01.742Z</time>
      </trkpt>
      <trkpt lat="37.900294" lon="-4.737759">
        <ele>167.947252</ele>
        <time>2020-08-12T08:36:04.734Z</time>
      </trkpt>
      <trkpt lat="37.900202" lon="-4.737766">
        <ele>167.991521</ele>
        <time>2020-08-12T08:36:05.740Z</time>
      </trkpt>
      <trkpt lat="37.900143" lon="-4.737887">
        <ele>168.045431</ele>
        <time>2020-08-12T08:36:07.725Z</time>
      </trkpt>
      <trkpt lat="37.900078" lon="-4.738020">
        <ele>168.104725</ele>
        <time>2020-08-12T08:36:09.725Z</time>
      </trkpt>
      <trkpt lat="37.900034" lon="-4.738141">
        <ele>167.976817</ele>
        <time>2020-08-12T08:36:11.745Z</time>
      </trkpt>
      <trkpt lat="37.899941" lon="-4.738260">
        <ele>167.597124</ele>
        <time>2020-08-12T08:36:13.735Z</time>
      </trkpt>
      <trkpt lat="37.899861" lon="-4.738376">
        <ele>167.247866</ele>
        <time>2020-08-12T08:36:15.726Z</time>
      </trkpt>
      <trkpt lat="37.899712" lon="-4.738489">
        <ele>166.748995</ele>
        <time>2020-08-12T08:36:17.727Z</time>
      </trkpt>
      <trkpt lat="37.899613" lon="-4.738590">
        <ele>166.383859</ele>
        <time>2020-08-12T08:36:19.743Z</time>
      </trkpt>
      <trkpt lat="37.899540" lon="-4.738727">
        <ele>166.009096</ele>
        <time>2020-08-12T08:36:22.734Z</time>
      </trkpt>
      <trkpt lat="37.899451" lon="-4.738882">
        <ele>165.574522</ele>
        <time>2020-08-12T08:36:25.749Z</time>
      </trkpt>
      <trkpt lat="37.899331" lon="-4.739016">
        <ele>165.115020</ele>
        <time>2020-08-12T08:36:26.867Z</time>
      </trkpt>
      <trkpt lat="37.899247" lon="-4.739073">
        <ele>164.841272</ele>
        <time>2020-08-12T08:36:29.871Z</time>
      </trkpt>
      <trkpt lat="37.899186" lon="-4.739178">
        <ele>164.545678</ele>
        <time>2020-08-12T08:36:30.874Z</time>
      </trkpt>
      <trkpt lat="37.899152" lon="-4.739297">
        <ele>164.258760</ele>
        <time>2020-08-12T08:36:32.858Z</time>
      </trkpt>
      <trkpt lat="37.899077" lon="-4.739416">
        <ele>163.913493</ele>
        <time>2020-08-12T08:36:34.875Z</time>
      </trkpt>
      <trkpt lat="37.898948" lon="-4.739553">
        <ele>163.429946</ele>
        <time>2020-08-12T08:36:37.865Z</time>
      </trkpt>
      <trkpt lat="37.898952" lon="-4.739668">
        <ele>163.168982</ele>
        <time>2020-08-12T08:36:38.868Z</time>
      </trkpt>
      <trkpt lat="37.898911" lon="-4.739813">
        <ele>162.861960</ele>
        <time>2020-08-12T08:36:40.872Z</time>
      </trkpt>
      <trkpt lat="37.898792" lon="-4.739910">
        <ele>162.575818</ele>
        <time>2020-08-12T08:36:42.867Z</time>
      </trkpt>
      <trkpt lat="37.898692" lon="-4.740048">
        <ele>162.276826</ele>
        <time>2020-08-12T08:36:45.863Z</time>
      </trkpt>
      <trkpt lat="37.898700" lon="-4.740221">
        <ele>162.000275</ele>
        <time>2020-08-12T08:36:47.860Z</time>
      </trkpt>
      <trkpt lat="37.898600" lon="-4.740347">
        <ele>161.715093</ele>
        <time>2020-08-12T08:36:49.870Z</time>
      </trkpt>
      <trkpt lat="37.898518" lon="-4.740474">
        <ele>161.453225</ele>
        <time>2020-08-12T08:36:51.865Z</time>
      </trkpt>
      <trkpt lat="37.898380" lon="-4.740520">
        <ele>161.164651</ele>
        <time>2020-08-12T08:36:53.871Z</time>
      </trkpt>
      <trkpt lat="37.898300" lon="-4.740642">
        <ele>160.911512</ele>
        <time>2020-08-12T08:36:55.873Z</time>
      </trkpt>
      <trkpt lat="37.898221" lon="-4.740731">
        <ele>160.697743</ele>
        <time>2020-08-12T08:36:56.868Z</time>
      </trkpt>
      <trkpt lat="37.898149" lon="-4.740806">
        <ele>160.509258</ele>
        <time>2020-08-12T08:36:57.867Z</time>
      </trkpt>
      <trkpt lat="37.898058" lon="-4.740975">
        <ele>160.182756</ele>
        <time>2020-08-12T08:36:59.867Z</time>
      </trkpt>
      <trkpt lat="37.897901" lon="-4.741061">
        <ele>159.836858</ele>
        <time>2020-08-12T08:37:02.874Z</time>
      </trkpt>
      <trkpt lat="37.897818" lon="-4.741138">
        <ele>159.628834</ele>
        <time>2020-08-12T08:37:04.866Z</time>
      </trkpt>
      <trkpt lat="37.897785" lon="-4.741281">
        <ele>159.391071</ele>
        <time>2020-08-12T08:37:06.871Z</time>
      </trkpt>
      <trkpt lat="37.897761" lon="-4.741426">
        <ele>159.454513</ele>
        <time>2020-08-12T08:37:09.871Z</time>
      </trkpt>
      <trkpt lat="37.897691" lon="-4.741570">
        <ele>159.660382</ele>
        <time>2020-08-12T08:37:12.861Z</time>
      </trkpt>
      <trkpt lat="37.897607" lon="-4.741657">
        <ele>159.827724</ele>
        <time>2020-08-12T08:37:14.870Z</time>
      </trkpt>
      <trkpt lat="37.897505" lon="-4.741783">
        <ele>160.047445</ele>
        <time>2020-08-12T08:37:16.871Z</time>
      </trkpt>
      <trkpt lat="37.897416" lon="-4.741919">
        <ele>160.262507</ele>
        <time>2020-08-12T08:37:18.870Z</time>
      </trkpt>
      <trkpt lat="37.897338" lon="-4.742022">
        <ele>160.436274</ele>
        <time>2020-08-12T08:37:20.876Z</time>
      </trkpt>
      <trkpt lat="37.897218" lon="-4.742177">
        <ele>160.700584</ele>
        <time>2020-08-12T08:37:22.861Z</time>
      </trkpt>
      <trkpt lat="37.897215" lon="-4.742316">
        <ele>160.869842</ele>
        <time>2020-08-12T08:37:24.867Z</time>
      </trkpt>
      <trkpt lat="37.897141" lon="-4.742409">
        <ele>161.030604</ele>
        <time>2020-08-12T08:37:26.847Z</time>
      </trkpt>
      <trkpt lat="37.897057" lon="-4.742524">
        <ele>161.221349</ele>
        <time>2020-08-12T08:37:28.869Z</time>
      </trkpt>
      <trkpt lat="37.896971" lon="-4.742664">
        <ele>161.437308</ele>
        <time>2020-08-12T08:37:30.874Z</time>
      </trkpt>
      <trkpt lat="37.896951" lon="-4.742778">
        <ele>161.579461</ele>
        <time>2020-08-12T08:37:32.864Z</time>
      </trkpt>
      <trkpt lat="37.896844" lon="-4.742840">
        <ele>161.760947</ele>
        <time>2020-08-12T08:37:34.876Z</time>
      </trkpt>
      <trkpt lat="37.896834" lon="-4.742957">
        <ele>161.904196</ele>
        <time>2020-08-12T08:37:35.871Z</time>
      </trkpt>
      <trkpt lat="37.896811" lon="-4.743086">
        <ele>162.065178</ele>
        <time>2020-08-12T08:37:37.861Z</time>
      </trkpt>
      <trkpt lat="37.896748" lon="-4.743175">
        <ele>161.976297</ele>
        <time>2020-08-12T08:37:39.865Z</time>
      </trkpt>
      <trkpt lat="37.896714" lon="-4.743300">
        <ele>161.798882</ele>
        <time>2020-08-12T08:37:41.865Z</time>
      </trkpt>
      <trkpt lat="37.896658" lon="-4.743404">
        <ele>161.629938</ele>
        <time>2020-08-12T08:37:43.866Z</time>
      </trkpt>
      <trkpt lat="37.896625" lon="-4.743551">
        <ele>161.424860</ele>
        <time>2020-08-12T08:37:46.869Z</time>
      </trkpt>
      <trkpt lat="37.896630" lon="-4.743673">
        <ele>161.260935</ele>
        <time>2020-08-12T08:37:48.873Z</time>
      </trkpt>
      <trkpt lat="37.896600" lon="-4.743783">
        <ele>161.104765</ele>
        <time>2020-08-12T08:37:50.872Z</time>
      </trkpt>
      <trkpt lat="37.896559" lon="-4.743903">
        <ele>160.929299</ele>
        <time>2020-08-12T08:37:52.875Z</time>
      </trkpt>
      <trkpt lat="37.896539" lon="-4.744014">
        <ele>160.776520</ele>
        <time>2020-08-12T08:37:54.871Z</time>
      </trkpt>
      <trkpt lat="37.896530" lon="-4.744139">
        <ele>160.608093</ele>
        <time>2020-08-12T08:37:56.866Z</time>
      </trkpt>
      <trkpt lat="37.896511" lon="-4.744290">
        <ele>160.402914</ele>
        <time>2020-08-12T08:37:59.867Z</time>
      </trkpt>
      <trkpt lat="37.896469" lon="-4.744406">
        <ele>160.231658</ele>
        <time>2020-08-12T08:38:01.879Z</time>
      </trkpt>
      <trkpt lat="37.896409" lon="-4.744502">
        <ele>160.067331</ele>
        <time>2020-08-12T08:38:03.868Z</time>
      </trkpt>
      <trkpt lat="37.896356" lon="-4.744616">
        <ele>159.889787</ele>
        <time>2020-08-12T08:38:05.868Z</time>
      </trkpt>
      <trkpt lat="37.896313" lon="-4.744745">
        <ele>159.701878</ele>
        <time>2020-08-12T08:38:07.878Z</time>
      </trkpt>
      <trkpt lat="37.896246" lon="-4.744891">
        <ele>159.475250</ele>
        <time>2020-08-12T08:38:09.857Z</time>
      </trkpt>
      <trkpt lat="37.896188" lon="-4.745055">
        <ele>159.234096</ele>
        <time>2020-08-12T08:38:11.853Z</time>
      </trkpt>
      <trkpt lat="37.896150" lon="-4.745179">
        <ele>159.055600</ele>
        <time>2020-08-12T08:38:13.875Z</time>
      </trkpt>
      <trkpt lat="37.896089" lon="-4.745334">
        <ele>159.239764</ele>
        <time>2020-08-12T08:38:15.871Z</time>
      </trkpt>
      <trkpt lat="37.896029" lon="-4.745450">
        <ele>159.410017</ele>
        <time>2020-08-12T08:38:17.875Z</time>
      </trkpt>
      <trkpt lat="37.896010" lon="-4.745568">
        <ele>159.557848</ele>
        <time>2020-08-12T08:38:19.871Z</time>
      </trkpt>
      <trkpt lat="37.895973" lon="-4.745712">
        <ele>159.743744</ele>
        <time>2020-08-12T08:38:21.854Z</time>
      </trkpt>
      <trkpt lat="37.895905" lon="-4.745868">
        <ele>159.962508</ele>
        <time>2020-08-12T08:38:23.860Z</time>
      </trkpt>
      <trkpt lat="37.895797" lon="-4.746347">
        <ele>160.574017</ele>
        <time>2020-08-12T08:39:19.871Z</time>
      </trkpt>
      <trkpt lat="37.895759" lon="-4.746483">
        <ele>160.751115</ele>
        <time>2020-08-12T08:39:21.867Z</time>
      </trkpt>
      <trkpt lat="37.895721" lon="-4.746611">
        <ele>160.918988</ele>
        <time>2020-08-12T08:39:23.880Z</time>
      </trkpt>
      <trkpt lat="37.895680" lon="-4.746766">
        <ele>161.119658</ele>
        <time>2020-08-12T08:39:25.865Z</time>
      </trkpt>
      <trkpt lat="37.895635" lon="-4.746876">
        <ele>161.271750</ele>
        <time>2020-08-12T08:39:27.864Z</time>
      </trkpt>
      <trkpt lat="37.895603" lon="-4.747001">
        <ele>161.433062</ele>
        <time>2020-08-12T08:39:29.863Z</time>
      </trkpt>
      <trkpt lat="37.895567" lon="-4.747175">
        <ele>161.653869</ele>
        <time>2020-08-12T08:39:32.871Z</time>
      </trkpt>
      <trkpt lat="37.895550" lon="-4.747292">
        <ele>161.799903</ele>
        <time>2020-08-12T08:39:34.860Z</time>
      </trkpt>
      <trkpt lat="37.895484" lon="-4.747452">
        <ele>161.732570</ele>
        <time>2020-08-12T08:39:37.860Z</time>
      </trkpt>
      <trkpt lat="37.895447" lon="-4.747583">
        <ele>161.633584</ele>
        <time>2020-08-12T08:39:39.870Z</time>
      </trkpt>
      <trkpt lat="37.895407" lon="-4.747718">
        <ele>161.530994</ele>
        <time>2020-08-12T08:39:41.876Z</time>
      </trkpt>
      <trkpt lat="37.895380" lon="-4.747843">
        <ele>161.438795</ele>
        <time>2020-08-12T08:39:43.866Z</time>
      </trkpt>
      <trkpt lat="37.895334" lon="-4.747970">
        <ele>161.339381</ele>
        <time>2020-08-12T08:39:45.868Z</time>
      </trkpt>
      <trkpt lat="37.895285" lon="-4.748086">
        <ele>161.245777</ele>
        <time>2020-08-12T08:39:47.870Z</time>
      </trkpt>
      <trkpt lat="37.895251" lon="-4.748192">
        <ele>161.164374</ele>
        <time>2020-08-12T08:39:49.859Z</time>
      </trkpt>
      <trkpt lat="37.895209" lon="-4.748300">
        <ele>161.078717</ele>
        <time>2020-08-12T08:39:51.875Z</time>
      </trkpt>
      <trkpt lat="37.895145" lon="-4.748429">
        <ele>160.970312</ele>
        <time>2020-08-12T08:39:54.859Z</time>
      </trkpt>
      <trkpt lat="37.895070" lon="-4.748586">
        <ele>160.839747</ele>
        <time>2020-08-12T08:39:57.870Z</time>
      </trkpt>
      <trkpt lat="37.895031" lon="-4.748693">
        <ele>160.755897</ele>
        <time>2020-08-12T08:39:59.870Z</time>
      </trkpt>
      <trkpt lat="37.895003" lon="-4.748815">
        <ele>160.665506</ele>
        <time>2020-08-12T08:40:01.867Z</time>
      </trkpt>
      <trkpt lat="37.894963" lon="-4.748928">
        <ele>160.577397</ele>
        <time>2020-08-12T08:40:03.867Z</time>
      </trkpt>
      <trkpt lat="37.894915" lon="-4.749042">
        <ele>160.485472</ele>
        <time>2020-08-12T08:40:05.871Z</time>
      </trkpt>
      <trkpt lat="37.894881" lon="-4.749188">
        <ele>160.377175</ele>
        <time>2020-08-12T08:40:08.874Z</time>
      </trkpt>
      <trkpt lat="37.894833" lon="-4.749304">
        <ele>160.283992</ele>
        <time>2020-08-12T08:40:10.870Z</time>
      </trkpt>
      <trkpt lat="37.894776" lon="-4.749474">
        <ele>160.245503</ele>
        <time>2020-08-12T08:40:13.863Z</time>
      </trkpt>
      <trkpt lat="37.894709" lon="-4.749583">
        <ele>160.288855</ele>
        <time>2020-08-12T08:40:15.865Z</time>
      </trkpt>
      <trkpt lat="37.894684" lon="-4.749716">
        <ele>160.331753</ele>
        <time>2020-08-12T08:40:18.881Z</time>
      </trkpt>
      <trkpt lat="37.894637" lon="-4.749816">
        <ele>160.368274</ele>
        <time>2020-08-12T08:40:20.875Z</time>
      </trkpt>
      <trkpt lat="37.894573" lon="-4.749956">
        <ele>160.419040</ele>
        <time>2020-08-12T08:40:23.855Z</time>
      </trkpt>
      <trkpt lat="37.894528" lon="-4.750082">
        <ele>160.462435</ele>
        <time>2020-08-12T08:40:26.871Z</time>
      </trkpt>
      <trkpt lat="37.894489" lon="-4.750186">
        <ele>160.498564</ele>
        <time>2020-08-12T08:40:35.875Z</time>
      </trkpt>
      <trkpt lat="37.894457" lon="-4.750295">
        <ele>160.535055</ele>
        <time>2020-08-12T08:40:49.865Z</time>
      </trkpt>
      <trkpt lat="37.894414" lon="-4.750395">
        <ele>160.570788</ele>
        <time>2020-08-12T08:40:52.851Z</time>
      </trkpt>
      <trkpt lat="37.894364" lon="-4.750519">
        <ele>160.614480</ele>
        <time>2020-08-12T08:40:55.869Z</time>
      </trkpt>
      <trkpt lat="37.894305" lon="-4.750639">
        <ele>160.658843</ele>
        <time>2020-08-12T08:40:58.863Z</time>
      </trkpt>
      <trkpt lat="37.894227" lon="-4.750775">
        <ele>160.711595</ele>
        <time>2020-08-12T08:41:01.869Z</time>
      </trkpt>
      <trkpt lat="37.894146" lon="-4.750894">
        <ele>160.760905</ele>
        <time>2020-08-12T08:41:03.876Z</time>
      </trkpt>
      <trkpt lat="37.894104" lon="-4.751001">
        <ele>160.798402</ele>
        <time>2020-08-12T08:41:05.874Z</time>
      </trkpt>
      <trkpt lat="37.894041" lon="-4.751133">
        <ele>160.846806</ele>
        <time>2020-08-12T08:41:07.874Z</time>
      </trkpt>
      <trkpt lat="37.893996" lon="-4.751240">
        <ele>160.884849</ele>
        <time>2020-08-12T08:41:09.871Z</time>
      </trkpt>
      <trkpt lat="37.893969" lon="-4.751361">
        <ele>160.924304</ele>
        <time>2020-08-12T08:41:11.867Z</time>
      </trkpt>
      <trkpt lat="37.893904" lon="-4.751493">
        <ele>160.888918</ele>
        <time>2020-08-12T08:41:14.867Z</time>
      </trkpt>
      <trkpt lat="37.893855" lon="-4.751636">
        <ele>160.837133</ele>
        <time>2020-08-12T08:41:16.866Z</time>
      </trkpt>
      <trkpt lat="37.893823" lon="-4.751746">
        <ele>160.798191</ele>
        <time>2020-08-12T08:41:18.861Z</time>
      </trkpt>
      <trkpt lat="37.893780" lon="-4.751860">
        <ele>160.756221</ele>
        <time>2020-08-12T08:41:20.869Z</time>
      </trkpt>
      <trkpt lat="37.893710" lon="-4.752005">
        <ele>160.699759</ele>
        <time>2020-08-12T08:41:23.859Z</time>
      </trkpt>
      <trkpt lat="37.893662" lon="-4.752116">
        <ele>160.657715</ele>
        <time>2020-08-12T08:41:25.863Z</time>
      </trkpt>
      <trkpt lat="37.893618" lon="-4.752299">
        <ele>160.594169</ele>
        <time>2020-08-12T08:41:28.870Z</time>
      </trkpt>
      <trkpt lat="37.893548" lon="-4.752420">
        <ele>160.544334</ele>
        <time>2020-08-12T08:41:30.867Z</time>
      </trkpt>
      <trkpt lat="37.893492" lon="-4.752514">
        <ele>160.505211</ele>
        <time>2020-08-12T08:41:33.869Z</time>
      </trkpt>
      <trkpt lat="37.893445" lon="-4.752635">
        <ele>160.460414</ele>
        <time>2020-08-12T08:41:36.860Z</time>
      </trkpt>
      <trkpt lat="37.893396" lon="-4.752746">
        <ele>160.418166</ele>
        <time>2020-08-12T08:41:39.860Z</time>
      </trkpt>
      <trkpt lat="37.893325" lon="-4.752889">
        <ele>160.362047</ele>
        <time>2020-08-12T08:41:42.864Z</time>
      </trkpt>
      <trkpt lat="37.893255" lon="-4.753019">
        <ele>160.309770</ele>
        <time>2020-08-12T08:41:44.860Z</time>
      </trkpt>
      <trkpt lat="37.893203" lon="-4.753130">
        <ele>160.266892</ele>
        <time>2020-08-12T08:41:46.855Z</time>
      </trkpt>
      <trkpt lat="37.893144" lon="-4.753265">
        <ele>160.215631</ele>
        <time>2020-08-12T08:41:48.857Z</time>
      </trkpt>
      <trkpt lat="37.893080" lon="-4.753375">
        <ele>160.118090</ele>
        <time>2020-08-12T08:41:50.859Z</time>
      </trkpt>
      <trkpt lat="37.893040" lon="-4.753507">
        <ele>159.571437</ele>
        <time>2020-08-12T08:41:53.858Z</time>
      </trkpt>
      <trkpt lat="37.892977" lon="-4.753619">
        <ele>159.039699</ele>
        <time>2020-08-12T08:41:55.872Z</time>
      </trkpt>
      <trkpt lat="37.892923" lon="-4.753724">
        <ele>158.555168</ele>
        <time>2020-08-12T08:41:57.874Z</time>
      </trkpt>
      <trkpt lat="37.892883" lon="-4.753854">
        <ele>158.015726</ele>
        <time>2020-08-12T08:41:59.864Z</time>
      </trkpt>
      <trkpt lat="37.892828" lon="-4.753948">
        <ele>157.563322</ele>
        <time>2020-08-12T08:42:01.861Z</time>
      </trkpt>
      <trkpt lat="37.892776" lon="-4.754077">
        <ele>157.003301</ele>
        <time>2020-08-12T08:42:03.854Z</time>
      </trkpt>
      <trkpt lat="37.892720" lon="-4.754192">
        <ele>156.480871</ele>
        <time>2020-08-12T08:42:05.871Z</time>
      </trkpt>
      <trkpt lat="37.892665" lon="-4.754340">
        <ele>155.848421</ele>
        <time>2020-08-12T08:42:08.861Z</time>
      </trkpt>
      <trkpt lat="37.892616" lon="-4.754447">
        <ele>155.370144</ele>
        <time>2020-08-12T08:42:10.871Z</time>
      </trkpt>
      <trkpt lat="37.892563" lon="-4.754549">
        <ele>154.897997</ele>
        <time>2020-08-12T08:42:12.877Z</time>
      </trkpt>
      <trkpt lat="37.892534" lon="-4.754666">
        <ele>154.423877</ele>
        <time>2020-08-12T08:42:14.861Z</time>
      </trkpt>
      <trkpt lat="37.892480" lon="-4.754791">
        <ele>153.872944</ele>
        <time>2020-08-12T08:42:17.871Z</time>
      </trkpt>
      <trkpt lat="37.892435" lon="-4.754909">
        <ele>153.366269</ele>
        <time>2020-08-12T08:42:19.872Z</time>
      </trkpt>
      <trkpt lat="37.892402" lon="-4.755019">
        <ele>152.911305</ele>
        <time>2020-08-12T08:42:21.865Z</time>
      </trkpt>
      <trkpt lat="37.892342" lon="-4.755155">
        <ele>152.308929</ele>
        <time>2020-08-12T08:42:24.868Z</time>
      </trkpt>
      <trkpt lat="37.892263" lon="-4.755278">
        <ele>151.695809</ele>
        <time>2020-08-12T08:42:27.868Z</time>
      </trkpt>
      <trkpt lat="37.892191" lon="-4.755384">
        <ele>151.414622</ele>
        <time>2020-08-12T08:42:30.865Z</time>
      </trkpt>
      <trkpt lat="37.892119" lon="-4.755536">
        <ele>151.582314</ele>
        <time>2020-08-12T08:42:33.867Z</time>
      </trkpt>
      <trkpt lat="37.892045" lon="-4.755681">
        <ele>151.745654</ele>
        <time>2020-08-12T08:42:35.863Z</time>
      </trkpt>
      <trkpt lat="37.891987" lon="-4.755850">
        <ele>151.919978</ele>
        <time>2020-08-12T08:42:38.872Z</time>
      </trkpt>
      <trkpt lat="37.891887" lon="-4.756007">
        <ele>152.110824</ele>
        <time>2020-08-12T08:42:41.862Z</time>
      </trkpt>
      <trkpt lat="37.891825" lon="-4.756123">
        <ele>152.243349</ele>
        <time>2020-08-12T08:42:43.865Z</time>
      </trkpt>
      <trkpt lat="37.891787" lon="-4.756250">
        <ele>152.371827</ele>
        <time>2020-08-12T08:42:45.868Z</time>
      </trkpt>
      <trkpt lat="37.891741" lon="-4.756365">
        <ele>152.493784</ele>
        <time>2020-08-12T08:42:47.861Z</time>
      </trkpt>
      <trkpt lat="37.891706" lon="-4.756476">
        <ele>152.606852</ele>
        <time>2020-08-12T08:42:49.881Z</time>
      </trkpt>
      <trkpt lat="37.891668" lon="-4.756605">
        <ele>152.737101</ele>
        <time>2020-08-12T08:42:51.864Z</time>
      </trkpt>
      <trkpt lat="37.891613" lon="-4.756720">
        <ele>152.864300</ele>
        <time>2020-08-12T08:42:53.867Z</time>
      </trkpt>
      <trkpt lat="37.891585" lon="-4.756830">
        <ele>152.973630</ele>
        <time>2020-08-12T08:42:55.863Z</time>
      </trkpt>
      <trkpt lat="37.891524" lon="-4.756975">
        <ele>153.129062</ele>
        <time>2020-08-12T08:42:57.868Z</time>
      </trkpt>
      <trkpt lat="37.891434" lon="-4.757104">
        <ele>153.291934</ele>
        <time>2020-08-12T08:42:59.874Z</time>
      </trkpt>
      <trkpt lat="37.891403" lon="-4.757226">
        <ele>153.413172</ele>
        <time>2020-08-12T08:43:01.872Z</time>
      </trkpt>
      <trkpt lat="37.891363" lon="-4.757360">
        <ele>153.568030</ele>
        <time>2020-08-12T08:43:03.868Z</time>
      </trkpt>
      <trkpt lat="37.891309" lon="-4.757506">
        <ele>153.821653</ele>
        <time>2020-08-12T08:43:05.877Z</time>
      </trkpt>
      <trkpt lat="37.891234" lon="-4.757648">
        <ele>154.090421</ele>
        <time>2020-08-12T08:43:08.867Z</time>
      </trkpt>
      <trkpt lat="37.891160" lon="-4.757763">
        <ele>154.323821</ele>
        <time>2020-08-12T08:43:10.855Z</time>
      </trkpt>
      <trkpt lat="37.891105" lon="-4.757891">
        <ele>154.553070</ele>
        <time>2020-08-12T08:43:12.868Z</time>
      </trkpt>
      <trkpt lat="37.891059" lon="-4.758009">
        <ele>154.760090</ele>
        <time>2020-08-12T08:43:14.867Z</time>
      </trkpt>
      <trkpt lat="37.890976" lon="-4.758123">
        <ele>155.004063</ele>
        <time>2020-08-12T08:43:16.871Z</time>
      </trkpt>
      <trkpt lat="37.890924" lon="-4.758258">
        <ele>155.240357</ele>
        <time>2020-08-12T08:43:18.859Z</time>
      </trkpt>
      <trkpt lat="37.890851" lon="-4.758408">
        <ele>155.517558</ele>
        <time>2020-08-12T08:43:21.870Z</time>
      </trkpt>
      <trkpt lat="37.890781" lon="-4.758520">
        <ele>155.742287</ele>
        <time>2020-08-12T08:43:23.867Z</time>
      </trkpt>
      <trkpt lat="37.890732" lon="-4.758623">
        <ele>155.931463</ele>
        <time>2020-08-12T08:43:25.861Z</time>
      </trkpt>
      <trkpt lat="37.890673" lon="-4.758730">
        <ele>156.136783</ele>
        <time>2020-08-12T08:43:28.866Z</time>
      </trkpt>
      <trkpt lat="37.890434" lon="-4.759309">
        <ele>157.071822</ele>
        <time>2020-08-12T08:44:18.847Z</time>
      </trkpt>
      <trkpt lat="37.890356" lon="-4.759455">
        <ele>156.920970</ele>
        <time>2020-08-12T08:44:20.857Z</time>
      </trkpt>
      <trkpt lat="37.890296" lon="-4.759598">
        <ele>156.782399</ele>
        <time>2020-08-12T08:44:22.862Z</time>
      </trkpt>
      <trkpt lat="37.890226" lon="-4.759766">
        <ele>156.619851</ele>
        <time>2020-08-12T08:44:24.855Z</time>
      </trkpt>
      <trkpt lat="37.890160" lon="-4.759918">
        <ele>156.471411</ele>
        <time>2020-08-12T08:44:26.861Z</time>
      </trkpt>
      <trkpt lat="37.890120" lon="-4.760024">
        <ele>156.370881</ele>
        <time>2020-08-12T08:44:28.848Z</time>
      </trkpt>
      <trkpt lat="37.890084" lon="-4.760157">
        <ele>156.250576</ele>
        <time>2020-08-12T08:44:30.851Z</time>
      </trkpt>
      <trkpt lat="37.890029" lon="-4.760266">
        <ele>156.139880</ele>
        <time>2020-08-12T08:44:32.854Z</time>
      </trkpt>
      <trkpt lat="37.889955" lon="-4.760373">
        <ele>156.018149</ele>
        <time>2020-08-12T08:44:34.870Z</time>
      </trkpt>
      <trkpt lat="37.889885" lon="-4.760485">
        <ele>155.895908</ele>
        <time>2020-08-12T08:44:36.859Z</time>
      </trkpt>
      <trkpt lat="37.889810" lon="-4.760579">
        <ele>155.781537</ele>
        <time>2020-08-12T08:44:38.870Z</time>
      </trkpt>
      <trkpt lat="37.889712" lon="-4.760705">
        <ele>155.630172</ele>
        <time>2020-08-12T08:44:41.851Z</time>
      </trkpt>
      <trkpt lat="37.889638" lon="-4.760799">
        <ele>155.516570</ele>
        <time>2020-08-12T08:44:43.859Z</time>
      </trkpt>
      <trkpt lat="37.889568" lon="-4.760897">
        <ele>155.403474</ele>
        <time>2020-08-12T08:44:45.851Z</time>
      </trkpt>
      <trkpt lat="37.889504" lon="-4.760994">
        <ele>155.295294</ele>
        <time>2020-08-12T08:44:47.862Z</time>
      </trkpt>
      <trkpt lat="37.889420" lon="-4.761090">
        <ele>155.172653</ele>
        <time>2020-08-12T08:44:50.858Z</time>
      </trkpt>
      <trkpt lat="37.889314" lon="-4.761217">
        <ele>154.978623</ele>
        <time>2020-08-12T08:44:53.852Z</time>
      </trkpt>
      <trkpt lat="37.889219" lon="-4.761303">
        <ele>154.819606</ele>
        <time>2020-08-12T08:44:55.869Z</time>
      </trkpt>
      <trkpt lat="37.889145" lon="-4.761401">
        <ele>154.673818</ele>
        <time>2020-08-12T08:44:57.851Z</time>
      </trkpt>
      <trkpt lat="37.889066" lon="-4.761486">
        <ele>154.532663</ele>
        <time>2020-08-12T08:44:59.854Z</time>
      </trkpt>
      <trkpt lat="37.888986" lon="-4.761578">
        <ele>154.385519</ele>
        <time>2020-08-12T08:45:01.868Z</time>
      </trkpt>
      <trkpt lat="37.888893" lon="-4.761690">
        <ele>154.210771</ele>
        <time>2020-08-12T08:45:03.864Z</time>
      </trkpt>
      <trkpt lat="37.888806" lon="-4.761774">
        <ele>154.061798</ele>
        <time>2020-08-12T08:45:05.852Z</time>
      </trkpt>
      <trkpt lat="37.888706" lon="-4.761865">
        <ele>153.894114</ele>
        <time>2020-08-12T08:45:07.865Z</time>
      </trkpt>
      <trkpt lat="37.888570" lon="-4.761963">
        <ele>153.681026</ele>
        <time>2020-08-12T08:45:09.856Z</time>
      </trkpt>
      <trkpt lat="37.888453" lon="-4.762026">
        <ele>153.507881</ele>
        <time>2020-08-12T08:45:10.870Z</time>
      </trkpt>
      <trkpt lat="37.888458" lon="-4.762196">
        <ele>153.325023</ele>
        <time>2020-08-12T08:45:12.851Z</time>
      </trkpt>
      <trkpt lat="37.888337" lon="-4.762237">
        <ele>153.154431</ele>
        <time>2020-08-12T08:45:15.857Z</time>
      </trkpt>
      <trkpt lat="37.888246" lon="-4.762309">
        <ele>153.008312</ele>
        <time>2020-08-12T08:45:20.868Z</time>
      </trkpt>
      <trkpt lat="37.888168" lon="-4.762387">
        <ele>152.872978</ele>
        <time>2020-08-12T08:45:24.855Z</time>
      </trkpt>
      <trkpt lat="37.888086" lon="-4.762465">
        <ele>152.733326</ele>
        <time>2020-08-12T08:45:28.846Z</time>
      </trkpt>
      <trkpt lat="37.888006" lon="-4.762533">
        <ele>152.640288</ele>
        <time>2020-08-12T08:45:35.854Z</time>
      </trkpt>
      <trkpt lat="37.887926" lon="-4.762644">
        <ele>152.538809</ele>
        <time>2020-08-12T08:45:39.858Z</time>
      </trkpt>
      <trkpt lat="37.887843" lon="-4.762737">
        <ele>152.444035</ele>
        <time>2020-08-12T08:45:42.858Z</time>
      </trkpt>
      <trkpt lat="37.887719" lon="-4.762865">
        <ele>152.307224</ele>
        <time>2020-08-12T08:45:44.862Z</time>
      </trkpt>
      <trkpt lat="37.887636" lon="-4.762966">
        <ele>152.208788</ele>
        <time>2020-08-12T08:45:46.869Z</time>
      </trkpt>
      <trkpt lat="37.887565" lon="-4.763099">
        <ele>152.100391</ele>
        <time>2020-08-12T08:45:49.863Z</time>
      </trkpt>
      <trkpt lat="37.887561" lon="-4.763268">
        <ele>151.986250</ele>
        <time>2020-08-12T08:45:52.878Z</time>
      </trkpt>
      <trkpt lat="37.887465" lon="-4.763329">
        <ele>151.894386</ele>
        <time>2020-08-12T08:45:53.863Z</time>
      </trkpt>
      <trkpt lat="37.887407" lon="-4.763468">
        <ele>151.788241</ele>
        <time>2020-08-12T08:45:55.855Z</time>
      </trkpt>
      <trkpt lat="37.887293" lon="-4.763595">
        <ele>151.658396</ele>
        <time>2020-08-12T08:45:57.868Z</time>
      </trkpt>
      <trkpt lat="37.887146" lon="-4.763614">
        <ele>151.532001</ele>
        <time>2020-08-12T08:45:59.863Z</time>
      </trkpt>
      <trkpt lat="37.886993" lon="-4.763556">
        <ele>151.395396</ele>
        <time>2020-08-12T08:46:01.860Z</time>
      </trkpt>
      <trkpt lat="37.886874" lon="-4.763632">
        <ele>151.281405</ele>
        <time>2020-08-12T08:46:02.872Z</time>
      </trkpt>
      <trkpt lat="37.886782" lon="-4.763618">
        <ele>151.202144</ele>
        <time>2020-08-12T08:46:03.855Z</time>
      </trkpt>
      <trkpt lat="37.886696" lon="-4.763685">
        <ele>151.156649</ele>
        <time>2020-08-12T08:46:06.870Z</time>
      </trkpt>
      <trkpt lat="37.886567" lon="-4.763795">
        <ele>151.131455</ele>
        <time>2020-08-12T08:46:08.864Z</time>
      </trkpt>
      <trkpt lat="37.886566" lon="-4.763985">
        <ele>151.107158</ele>
        <time>2020-08-12T08:46:11.871Z</time>
      </trkpt>
      <trkpt lat="37.886420" lon="-4.764047">
        <ele>151.082209</ele>
        <time>2020-08-12T08:46:12.860Z</time>
      </trkpt>
      <trkpt lat="37.886308" lon="-4.764159">
        <ele>151.059091</ele>
        <time>2020-08-12T08:46:14.859Z</time>
      </trkpt>
      <trkpt lat="37.886304" lon="-4.764336">
        <ele>151.036448</ele>
        <time>2020-08-12T08:46:15.865Z</time>
      </trkpt>
      <trkpt lat="37.886228" lon="-4.764398">
        <ele>151.021802</ele>
        <time>2020-08-12T08:46:20.863Z</time>
      </trkpt>
      <trkpt lat="37.886127" lon="-4.764486">
        <ele>151.001942</ele>
        <time>2020-08-12T08:46:25.872Z</time>
      </trkpt>
      <trkpt lat="37.886111" lon="-4.764611">
        <ele>150.985749</ele>
        <time>2020-08-12T08:46:28.868Z</time>
      </trkpt>
      <trkpt lat="37.886066" lon="-4.764721">
        <ele>150.969905</ele>
        <time>2020-08-12T08:46:31.865Z</time>
      </trkpt>
      <trkpt lat="37.885995" lon="-4.764846">
        <ele>150.950211</ele>
        <time>2020-08-12T08:46:35.860Z</time>
      </trkpt>
      <trkpt lat="37.885913" lon="-4.764925">
        <ele>150.933521</ele>
        <time>2020-08-12T08:46:40.864Z</time>
      </trkpt>
      <trkpt lat="37.885841" lon="-4.764995">
        <ele>150.918816</ele>
        <time>2020-08-12T08:46:43.853Z</time>
      </trkpt>
      <trkpt lat="37.885773" lon="-4.765099">
        <ele>150.901546</ele>
        <time>2020-08-12T08:46:46.870Z</time>
      </trkpt>
      <trkpt lat="37.885721" lon="-4.765198">
        <ele>150.886339</ele>
        <time>2020-08-12T08:46:48.862Z</time>
      </trkpt>
      <trkpt lat="37.885648" lon="-4.765348">
        <ele>150.875972</ele>
        <time>2020-08-12T08:46:51.871Z</time>
      </trkpt>
      <trkpt lat="37.885571" lon="-4.765516">
        <ele>150.878694</ele>
        <time>2020-08-12T08:46:53.885Z</time>
      </trkpt>
      <trkpt lat="37.885546" lon="-4.765648">
        <ele>150.880596</ele>
        <time>2020-08-12T08:46:56.863Z</time>
      </trkpt>
      <trkpt lat="37.885489" lon="-4.765808">
        <ele>150.883055</ele>
        <time>2020-08-12T08:46:59.864Z</time>
      </trkpt>
      <trkpt lat="37.885410" lon="-4.765945">
        <ele>150.885432</ele>
        <time>2020-08-12T08:47:02.870Z</time>
      </trkpt>
      <trkpt lat="37.885317" lon="-4.766027">
        <ele>150.887444</ele>
        <time>2020-08-12T08:47:06.869Z</time>
      </trkpt>
      <trkpt lat="37.885242" lon="-4.766133">
        <ele>150.889438</ele>
        <time>2020-08-12T08:47:09.853Z</time>
      </trkpt>
      <trkpt lat="37.885163" lon="-4.766194">
        <ele>150.891080</ele>
        <time>2020-08-12T08:47:12.879Z</time>
      </trkpt>
      <trkpt lat="37.885072" lon="-4.766296">
        <ele>150.893237</ele>
        <time>2020-08-12T08:47:15.872Z</time>
      </trkpt>
      <trkpt lat="37.885008" lon="-4.766377">
        <ele>150.894843</ele>
        <time>2020-08-12T08:47:17.868Z</time>
      </trkpt>
      <trkpt lat="37.884920" lon="-4.766489">
        <ele>150.897057</ele>
        <time>2020-08-12T08:47:20.875Z</time>
      </trkpt>
      <trkpt lat="37.884813" lon="-4.766545">
        <ele>150.899112</ele>
        <time>2020-08-12T08:47:23.868Z</time>
      </trkpt>
      <trkpt lat="37.884709" lon="-4.766600">
        <ele>150.901113</ele>
        <time>2020-08-12T08:47:26.861Z</time>
      </trkpt>
      <trkpt lat="37.884602" lon="-4.766648">
        <ele>150.903128</ele>
        <time>2020-08-12T08:47:29.865Z</time>
      </trkpt>
      <trkpt lat="37.884486" lon="-4.766679">
        <ele>150.905232</ele>
        <time>2020-08-12T08:47:32.848Z</time>
      </trkpt>
      <trkpt lat="37.884387" lon="-4.766707">
        <ele>150.867114</ele>
        <time>2020-08-12T08:47:35.878Z</time>
      </trkpt>
      <trkpt lat="37.884292" lon="-4.766735">
        <ele>150.661593</ele>
        <time>2020-08-12T08:47:38.865Z</time>
      </trkpt>
      <trkpt lat="37.884186" lon="-4.766755">
        <ele>150.435776</ele>
        <time>2020-08-12T08:47:41.865Z</time>
      </trkpt>
      <trkpt lat="37.884074" lon="-4.766781">
        <ele>150.195850</ele>
        <time>2020-08-12T08:47:44.875Z</time>
      </trkpt>
      <trkpt lat="37.883974" lon="-4.766815">
        <ele>149.977684</ele>
        <time>2020-08-12T08:47:47.861Z</time>
      </trkpt>
      <trkpt lat="37.883881" lon="-4.766823">
        <ele>149.781271</ele>
        <time>2020-08-12T08:47:50.862Z</time>
      </trkpt>
      <trkpt lat="37.883782" lon="-4.766835">
        <ele>149.571714</ele>
        <time>2020-08-12T08:47:53.858Z</time>
      </trkpt>
      <trkpt lat="37.883687" lon="-4.766862">
        <ele>149.366564</ele>
        <time>2020-08-12T08:47:56.861Z</time>
      </trkpt>
      <trkpt lat="37.883585" lon="-4.766874">
        <ele>149.150714</ele>
        <time>2020-08-12T08:47:59.858Z</time>
      </trkpt>
      <trkpt lat="37.883482" lon="-4.766881">
        <ele>148.933369</ele>
        <time>2020-08-12T08:48:02.856Z</time>
      </trkpt>
      <trkpt lat="37.883381" lon="-4.766867">
        <ele>148.719280</ele>
        <time>2020-08-12T08:48:05.862Z</time>
      </trkpt>
      <trkpt lat="37.883289" lon="-4.766846">
        <ele>148.522305</ele>
        <time>2020-08-12T08:48:08.869Z</time>
      </trkpt>
      <trkpt lat="37.883192" lon="-4.766838">
        <ele>148.317482</ele>
        <time>2020-08-12T08:48:10.866Z</time>
      </trkpt>
      <trkpt lat="37.883082" lon="-4.766862">
        <ele>148.082288</ele>
        <time>2020-08-12T08:48:12.885Z</time>
      </trkpt>
      <trkpt lat="37.882975" lon="-4.766870">
        <ele>147.856434</ele>
        <time>2020-08-12T08:48:14.863Z</time>
      </trkpt>
      <trkpt lat="37.882875" lon="-4.766902">
        <ele>147.639106</ele>
        <time>2020-08-12T08:48:16.861Z</time>
      </trkpt>
      <trkpt lat="37.882780" lon="-4.766941">
        <ele>147.428684</ele>
        <time>2020-08-12T08:48:18.876Z</time>
      </trkpt>
      <trkpt lat="37.882685" lon="-4.766963">
        <ele>147.225192</ele>
        <time>2020-08-12T08:48:20.872Z</time>
      </trkpt>
      <trkpt lat="37.882580" lon="-4.766994">
        <ele>147.079727</ele>
        <time>2020-08-12T08:48:22.855Z</time>
      </trkpt>
      <trkpt lat="37.882471" lon="-4.767025">
        <ele>147.006326</ele>
        <time>2020-08-12T08:48:24.861Z</time>
      </trkpt>
      <trkpt lat="37.882357" lon="-4.767035">
        <ele>146.931243</ele>
        <time>2020-08-12T08:48:27.859Z</time>
      </trkpt>
      <trkpt lat="37.882235" lon="-4.767032">
        <ele>146.851068</ele>
        <time>2020-08-12T08:48:30.861Z</time>
      </trkpt>
      <trkpt lat="37.882138" lon="-4.767041">
        <ele>146.787164</ele>
        <time>2020-08-12T08:48:32.855Z</time>
      </trkpt>
      <trkpt lat="37.882023" lon="-4.767061">
        <ele>146.710895</ele>
        <time>2020-08-12T08:48:34.848Z</time>
      </trkpt>
      <trkpt lat="37.881928" lon="-4.767103">
        <ele>146.644784</ele>
        <time>2020-08-12T08:48:36.855Z</time>
      </trkpt>
      <trkpt lat="37.881839" lon="-4.767128">
        <ele>146.584886</ele>
        <time>2020-08-12T08:48:38.855Z</time>
      </trkpt>
      <trkpt lat="37.881729" lon="-4.767152">
        <ele>146.511547</ele>
        <time>2020-08-12T08:48:41.871Z</time>
      </trkpt>
      <trkpt lat="37.881636" lon="-4.767188">
        <ele>146.447653</ele>
        <time>2020-08-12T08:48:48.860Z</time>
      </trkpt>
      <trkpt lat="37.881526" lon="-4.767249">
        <ele>146.368758</ele>
        <time>2020-08-12T08:48:52.859Z</time>
      </trkpt>
      <trkpt lat="37.881409" lon="-4.767279">
        <ele>146.290325</ele>
        <time>2020-08-12T08:48:55.873Z</time>
      </trkpt>
      <trkpt lat="37.881294" lon="-4.767299">
        <ele>146.214055</ele>
        <time>2020-08-12T08:48:58.862Z</time>
      </trkpt>
      <trkpt lat="37.881184" lon="-4.767302">
        <ele>146.141763</ele>
        <time>2020-08-12T08:49:01.846Z</time>
      </trkpt>
      <trkpt lat="37.881071" lon="-4.767336">
        <ele>146.065452</ele>
        <time>2020-08-12T08:49:04.864Z</time>
      </trkpt>
      <trkpt lat="37.880972" lon="-4.767413">
        <ele>145.989125</ele>
        <time>2020-08-12T08:49:07.872Z</time>
      </trkpt>
      <trkpt lat="37.880887" lon="-4.767533">
        <ele>146.053559</ele>
        <time>2020-08-12T08:49:10.858Z</time>
      </trkpt>
      <trkpt lat="37.880839" lon="-4.767630">
        <ele>146.292704</ele>
        <time>2020-08-12T08:49:12.856Z</time>
      </trkpt>
      <trkpt lat="37.880800" lon="-4.767774">
        <ele>146.610713</ele>
        <time>2020-08-12T08:49:15.873Z</time>
      </trkpt>
      <trkpt lat="37.880800" lon="-4.767930">
        <ele>146.936572</ele>
        <time>2020-08-12T08:49:18.869Z</time>
      </trkpt>
      <trkpt lat="37.880813" lon="-4.768077">
        <ele>147.245552</ele>
        <time>2020-08-12T08:49:21.855Z</time>
      </trkpt>
      <trkpt lat="37.880846" lon="-4.768228">
        <ele>147.572834</ele>
        <time>2020-08-12T08:49:24.847Z</time>
      </trkpt>
      <trkpt lat="37.880882" lon="-4.768367">
        <ele>147.878415</ele>
        <time>2020-08-12T08:49:27.876Z</time>
      </trkpt>
      <trkpt lat="37.880895" lon="-4.768526">
        <ele>148.212317</ele>
        <time>2020-08-12T08:49:30.861Z</time>
      </trkpt>
      <trkpt lat="37.880893" lon="-4.768670">
        <ele>148.513156</ele>
        <time>2020-08-12T08:49:33.876Z</time>
      </trkpt>
      <trkpt lat="37.880847" lon="-4.769150">
        <ele>149.523161</ele>
        <time>2020-08-12T08:50:36.880Z</time>
      </trkpt>
      <trkpt lat="37.880872" lon="-4.769307">
        <ele>149.857716</ele>
        <time>2020-08-12T08:50:39.874Z</time>
      </trkpt>
      <trkpt lat="37.880875" lon="-4.769432">
        <ele>150.118942</ele>
        <time>2020-08-12T08:50:41.860Z</time>
      </trkpt>
      <trkpt lat="37.880848" lon="-4.769606">
        <ele>150.489357</ele>
        <time>2020-08-12T08:50:43.858Z</time>
      </trkpt>
      <trkpt lat="37.880876" lon="-4.769742">
        <ele>150.678722</ele>
        <time>2020-08-12T08:50:46.868Z</time>
      </trkpt>
      <trkpt lat="37.880882" lon="-4.769895">
        <ele>150.619386</ele>
        <time>2020-08-12T08:50:49.857Z</time>
      </trkpt>
      <trkpt lat="37.880895" lon="-4.770018">
        <ele>150.571317</ele>
        <time>2020-08-12T08:50:52.876Z</time>
      </trkpt>
      <trkpt lat="37.880908" lon="-4.770173">
        <ele>150.510941</ele>
        <time>2020-08-12T08:50:55.851Z</time>
      </trkpt>
      <trkpt lat="37.880897" lon="-4.770333">
        <ele>150.448731</ele>
        <time>2020-08-12T08:50:57.870Z</time>
      </trkpt>
      <trkpt lat="37.880873" lon="-4.770459">
        <ele>150.398525</ele>
        <time>2020-08-12T08:50:59.856Z</time>
      </trkpt>
      <trkpt lat="37.880852" lon="-4.770573">
        <ele>150.353181</ele>
        <time>2020-08-12T08:51:01.854Z</time>
      </trkpt>
      <trkpt lat="37.880835" lon="-4.770688">
        <ele>150.307862</ele>
        <time>2020-08-12T08:51:03.858Z</time>
      </trkpt>
      <trkpt lat="37.880796" lon="-4.770844">
        <ele>150.244478</ele>
        <time>2020-08-12T08:51:06.874Z</time>
      </trkpt>
      <trkpt lat="37.880773" lon="-4.770971">
        <ele>150.194006</ele>
        <time>2020-08-12T08:51:09.866Z</time>
      </trkpt>
      <trkpt lat="37.880775" lon="-4.771090">
        <ele>150.147902</ele>
        <time>2020-08-12T08:51:12.861Z</time>
      </trkpt>
      <trkpt lat="37.880779" lon="-4.771226">
        <ele>150.095187</ele>
        <time>2020-08-12T08:51:15.864Z</time>
      </trkpt>
      <trkpt lat="37.880774" lon="-4.771375">
        <ele>150.037420</ele>
        <time>2020-08-12T08:51:18.870Z</time>
      </trkpt>
      <trkpt lat="37.880772" lon="-4.771541">
        <ele>149.973114</ele>
        <time>2020-08-12T08:51:21.857Z</time>
      </trkpt>
      <trkpt lat="37.880785" lon="-4.771705">
        <ele>149.909269</ele>
        <time>2020-08-12T08:51:24.861Z</time>
      </trkpt>
      <trkpt lat="37.880796" lon="-4.771855">
        <ele>149.850918</ele>
        <time>2020-08-12T08:51:27.866Z</time>
      </trkpt>
      <trkpt lat="37.880785" lon="-4.772012">
        <ele>149.849211</ele>
        <time>2020-08-12T08:51:30.859Z</time>
      </trkpt>
      <trkpt lat="37.880772" lon="-4.772180">
        <ele>149.956475</ele>
        <time>2020-08-12T08:51:33.874Z</time>
      </trkpt>
      <trkpt lat="37.880775" lon="-4.772296">
        <ele>150.030224</ele>
        <time>2020-08-12T08:51:35.879Z</time>
      </trkpt>
      <trkpt lat="37.880790" lon="-4.772426">
        <ele>150.113707</ele>
        <time>2020-08-12T08:51:38.873Z</time>
      </trkpt>
      <trkpt lat="37.880775" lon="-4.772577">
        <ele>150.210413</ele>
        <time>2020-08-12T08:51:41.853Z</time>
      </trkpt>
      <trkpt lat="37.880756" lon="-4.772733">
        <ele>150.310713</ele>
        <time>2020-08-12T08:51:44.877Z</time>
      </trkpt>
      <trkpt lat="37.880748" lon="-4.772847">
        <ele>150.383438</ele>
        <time>2020-08-12T08:51:46.869Z</time>
      </trkpt>
      <trkpt lat="37.880728" lon="-4.772966">
        <ele>150.460749</ele>
        <time>2020-08-12T08:51:48.848Z</time>
      </trkpt>
      <trkpt lat="37.880708" lon="-4.773081">
        <ele>150.535576</ele>
        <time>2020-08-12T08:51:50.880Z</time>
      </trkpt>
      <trkpt lat="37.880670" lon="-4.773229">
        <ele>150.634470</ele>
        <time>2020-08-12T08:51:53.876Z</time>
      </trkpt>
      <trkpt lat="37.880631" lon="-4.773376">
        <ele>150.733013</ele>
        <time>2020-08-12T08:51:56.882Z</time>
      </trkpt>
      <trkpt lat="37.880585" lon="-4.773518">
        <ele>150.830548</ele>
        <time>2020-08-12T08:51:59.869Z</time>
      </trkpt>
      <trkpt lat="37.880531" lon="-4.773664">
        <ele>150.933001</ele>
        <time>2020-08-12T08:52:02.865Z</time>
      </trkpt>
      <trkpt lat="37.880483" lon="-4.773815">
        <ele>151.036440</ele>
        <time>2020-08-12T08:52:05.871Z</time>
      </trkpt>
      <trkpt lat="37.880435" lon="-4.773950">
        <ele>151.130525</ele>
        <time>2020-08-12T08:52:08.875Z</time>
      </trkpt>
      <trkpt lat="37.880392" lon="-4.774070">
        <ele>151.214267</ele>
        <time>2020-08-12T08:52:11.850Z</time>
      </trkpt>
      <trkpt lat="37.880348" lon="-4.774201">
        <ele>151.303945</ele>
        <time>2020-08-12T08:52:14.860Z</time>
      </trkpt>
      <trkpt lat="37.880307" lon="-4.774308">
        <ele>151.378184</ele>
        <time>2020-08-12T08:52:17.871Z</time>
      </trkpt>
      <trkpt lat="37.880245" lon="-4.774416">
        <ele>151.461537</ele>
        <time>2020-08-12T08:52:20.876Z</time>
      </trkpt>
      <trkpt lat="37.880181" lon="-4.774547">
        <ele>151.557698</ele>
        <time>2020-08-12T08:52:23.870Z</time>
      </trkpt>
      <trkpt lat="37.880125" lon="-4.774665">
        <ele>151.643637</ele>
        <time>2020-08-12T08:52:26.873Z</time>
      </trkpt>
      <trkpt lat="37.880072" lon="-4.774758">
        <ele>151.715233</ele>
        <time>2020-08-12T08:52:28.880Z</time>
      </trkpt>
      <trkpt lat="37.879990" lon="-4.774889">
        <ele>151.819589</ele>
        <time>2020-08-12T08:52:31.873Z</time>
      </trkpt>
      <trkpt lat="37.879928" lon="-4.774981">
        <ele>151.895095</ele>
        <time>2020-08-12T08:52:33.882Z</time>
      </trkpt>
      <trkpt lat="37.879856" lon="-4.775083">
        <ele>151.980506</ele>
        <time>2020-08-12T08:52:35.864Z</time>
      </trkpt>
      <trkpt lat="37.879789" lon="-4.775182">
        <ele>152.061902</ele>
        <time>2020-08-12T08:52:37.871Z</time>
      </trkpt>
      <trkpt lat="37.879725" lon="-4.775278">
        <ele>152.140335</ele>
        <time>2020-08-12T08:52:39.859Z</time>
      </trkpt>
      <trkpt lat="37.879630" lon="-4.775388">
        <ele>152.242107</ele>
        <time>2020-08-12T08:52:40.878Z</time>
      </trkpt>
      <trkpt lat="37.879545" lon="-4.775486">
        <ele>152.332990</ele>
        <time>2020-08-12T08:52:42.868Z</time>
      </trkpt>
      <trkpt lat="37.879477" lon="-4.775645">
        <ele>152.445864</ele>
        <time>2020-08-12T08:52:45.873Z</time>
      </trkpt>
      <trkpt lat="37.879410" lon="-4.775764">
        <ele>152.537100</ele>
        <time>2020-08-12T08:52:47.854Z</time>
      </trkpt>
      <trkpt lat="37.879335" lon="-4.775888">
        <ele>152.634608</ele>
        <time>2020-08-12T08:52:49.848Z</time>
      </trkpt>
      <trkpt lat="37.879298" lon="-4.776005">
        <ele>152.641405</ele>
        <time>2020-08-12T08:52:51.858Z</time>
      </trkpt>
      <trkpt lat="37.879243" lon="-4.776105">
        <ele>152.538727</ele>
        <time>2020-08-12T08:52:53.878Z</time>
      </trkpt>
      <trkpt lat="37.879183" lon="-4.776211">
        <ele>152.428842</ele>
        <time>2020-08-12T08:52:55.872Z</time>
      </trkpt>
      <trkpt lat="37.879129" lon="-4.776303">
        <ele>152.332258</ele>
        <time>2020-08-12T08:52:57.854Z</time>
      </trkpt>
      <trkpt lat="37.879071" lon="-4.776397">
        <ele>152.231746</ele>
        <time>2020-08-12T08:52:59.870Z</time>
      </trkpt>
      <trkpt lat="37.879003" lon="-4.776498">
        <ele>152.119912</ele>
        <time>2020-08-12T08:53:01.864Z</time>
      </trkpt>
      <trkpt lat="37.878952" lon="-4.776595">
        <ele>152.021727</ele>
        <time>2020-08-12T08:53:03.856Z</time>
      </trkpt>
      <trkpt lat="37.878878" lon="-4.776740">
        <ele>151.876266</ele>
        <time>2020-08-12T08:53:05.865Z</time>
      </trkpt>
      <trkpt lat="37.878790" lon="-4.776834">
        <ele>151.753415</ele>
        <time>2020-08-12T08:53:07.869Z</time>
      </trkpt>
      <trkpt lat="37.878722" lon="-4.776956">
        <ele>151.627597</ele>
        <time>2020-08-12T08:53:09.867Z</time>
      </trkpt>
      <trkpt lat="37.878636" lon="-4.777106">
        <ele>151.471414</ele>
        <time>2020-08-12T08:53:12.848Z</time>
      </trkpt>
      <trkpt lat="37.878570" lon="-4.777225">
        <ele>151.348891</ele>
        <time>2020-08-12T08:53:14.870Z</time>
      </trkpt>
      <trkpt lat="37.878506" lon="-4.777312">
        <ele>151.248703</ele>
        <time>2020-08-12T08:53:17.855Z</time>
      </trkpt>
      <trkpt lat="37.878441" lon="-4.777475">
        <ele>151.094857</ele>
        <time>2020-08-12T08:53:20.851Z</time>
      </trkpt>
      <trkpt lat="37.878367" lon="-4.777611">
        <ele>150.955701</ele>
        <time>2020-08-12T08:53:23.845Z</time>
      </trkpt>
      <trkpt lat="37.878288" lon="-4.777761">
        <ele>150.803788</ele>
        <time>2020-08-12T08:53:26.854Z</time>
      </trkpt>
      <trkpt lat="37.878237" lon="-4.777865">
        <ele>150.593312</ele>
        <time>2020-08-12T08:53:29.851Z</time>
      </trkpt>
      <trkpt lat="37.878175" lon="-4.777978">
        <ele>150.277831</ele>
        <time>2020-08-12T08:53:33.847Z</time>
      </trkpt>
      <trkpt lat="37.878251" lon="-4.778073">
        <ele>149.967753</ele>
        <time>2020-08-12T08:53:52.858Z</time>
      </trkpt>
      <trkpt lat="37.878331" lon="-4.778128">
        <ele>149.703403</ele>
        <time>2020-08-12T08:53:55.870Z</time>
      </trkpt>
      <trkpt lat="37.878416" lon="-4.778199">
        <ele>149.407710</ele>
        <time>2020-08-12T08:53:58.863Z</time>
      </trkpt>
      <trkpt lat="37.878486" lon="-4.778287">
        <ele>149.121306</ele>
        <time>2020-08-12T08:54:02.844Z</time>
      </trkpt>
      <trkpt lat="37.878591" lon="-4.778283">
        <ele>148.816215</ele>
        <time>2020-08-12T08:54:05.867Z</time>
      </trkpt>
      <trkpt lat="37.878661" lon="-4.778201">
        <ele>148.539327</ele>
        <time>2020-08-12T08:54:11.861Z</time>
      </trkpt>
      <trkpt lat="37.878704" lon="-4.778099">
        <ele>148.274241</ele>
        <time>2020-08-12T08:54:15.877Z</time>
      </trkpt>
      <trkpt lat="37.878771" lon="-4.778018">
        <ele>148.005274</ele>
        <time>2020-08-12T08:54:18.868Z</time>
      </trkpt>
      <trkpt lat="37.878827" lon="-4.777914">
        <ele>147.716671</ele>
        <time>2020-08-12T08:54:21.869Z</time>
      </trkpt>
      <trkpt lat="37.878906" lon="-4.777850">
        <ele>147.444333</ele>
        <time>2020-08-12T08:54:24.869Z</time>
      </trkpt>
      <trkpt lat="37.879007" lon="-4.777779">
        <ele>147.108869</ele>
        <time>2020-08-12T08:54:28.855Z</time>
      </trkpt>
      <trkpt lat="37.879054" lon="-4.777668">
        <ele>146.820112</ele>
        <time>2020-08-12T08:54:31.876Z</time>
      </trkpt>
      <trkpt lat="37.879118" lon="-4.777559">
        <ele>146.508687</ele>
        <time>2020-08-12T08:54:34.862Z</time>
      </trkpt>
      <trkpt lat="37.879172" lon="-4.777441">
        <ele>146.196008</ele>
        <time>2020-08-12T08:54:38.849Z</time>
      </trkpt>
      <trkpt lat="37.879212" lon="-4.777336">
        <ele>145.928739</ele>
        <time>2020-08-12T08:54:42.872Z</time>
      </trkpt>
      <trkpt lat="37.879287" lon="-4.777238">
        <ele>145.615823</ele>
        <time>2020-08-12T08:54:47.846Z</time>
      </trkpt>
      <trkpt lat="37.879362" lon="-4.777151">
        <ele>145.539189</ele>
        <time>2020-08-12T08:54:50.865Z</time>
      </trkpt>
      <trkpt lat="37.879464" lon="-4.777083">
        <ele>145.539189</ele>
        <time>2020-08-12T08:54:53.869Z</time>
      </trkpt>
      <trkpt lat="37.879561" lon="-4.776988">
        <ele>145.539189</ele>
        <time>2020-08-12T08:54:56.859Z</time>
      </trkpt>
      <trkpt lat="37.879653" lon="-4.776924">
        <ele>145.539189</ele>
        <time>2020-08-12T08:55:00.877Z</time>
      </trkpt>
      <trkpt lat="37.879569" lon="-4.776983">
        <ele>145.539189</ele>
        <time>2020-08-12T08:55:15.869Z</time>
      </trkpt>
      <trkpt lat="37.879482" lon="-4.776901">
        <ele>145.539189</ele>
        <time>2020-08-12T08:55:19.855Z</time>
      </trkpt>
      <trkpt lat="37.879401" lon="-4.776827">
        <ele>145.539189</ele>
        <time>2020-08-12T08:55:23.863Z</time>
      </trkpt>
      <trkpt lat="37.879303" lon="-4.776789">
        <ele>145.539189</ele>
        <time>2020-08-12T08:55:28.847Z</time>
      </trkpt>
      <trkpt lat="37.879374" lon="-4.776685">
        <ele>145.539189</ele>
        <time>2020-08-12T08:55:35.853Z</time>
      </trkpt>
      <trkpt lat="37.879420" lon="-4.776550">
        <ele>145.539189</ele>
        <time>2020-08-12T08:55:39.865Z</time>
      </trkpt>
      <trkpt lat="37.879459" lon="-4.776445">
        <ele>145.539189</ele>
        <time>2020-08-12T08:55:42.861Z</time>
      </trkpt>
      <trkpt lat="37.879479" lon="-4.776331">
        <ele>145.539189</ele>
        <time>2020-08-12T08:55:46.866Z</time>
      </trkpt>
      <trkpt lat="37.879377" lon="-4.776249">
        <ele>145.539189</ele>
        <time>2020-08-12T08:55:51.848Z</time>
      </trkpt>
      <trkpt lat="37.879330" lon="-4.776197">
        <ele>145.539189</ele>
        <time>2020-08-12T08:57:25.721Z</time>
      </trkpt>
      <trkpt lat="37.878604" lon="-4.778276">
        <ele>154.088339</ele>
        <time>2020-08-13T05:31:35.672Z</time>
      </trkpt>
      <trkpt lat="37.878537" lon="-4.778364">
        <ele>154.088339</ele>
        <time>2020-08-13T05:31:37.673Z</time>
      </trkpt>
      <trkpt lat="37.878464" lon="-4.778478">
        <ele>154.088339</ele>
        <time>2020-08-13T05:31:40.679Z</time>
      </trkpt>
      <trkpt lat="37.878385" lon="-4.778587">
        <ele>154.088339</ele>
        <time>2020-08-13T05:31:43.684Z</time>
      </trkpt>
      <trkpt lat="37.878321" lon="-4.778682">
        <ele>154.088339</ele>
        <time>2020-08-13T05:31:46.673Z</time>
      </trkpt>
      <trkpt lat="37.878271" lon="-4.778810">
        <ele>154.088339</ele>
        <time>2020-08-13T05:31:50.673Z</time>
      </trkpt>
      <trkpt lat="37.878244" lon="-4.778951">
        <ele>154.088339</ele>
        <time>2020-08-13T05:31:54.687Z</time>
      </trkpt>
      <trkpt lat="37.878219" lon="-4.779072">
        <ele>154.088339</ele>
        <time>2020-08-13T05:32:00.682Z</time>
      </trkpt>
      <trkpt lat="37.878138" lon="-4.779161">
        <ele>154.088339</ele>
        <time>2020-08-13T05:32:03.685Z</time>
      </trkpt>
      <trkpt lat="37.878095" lon="-4.779316">
        <ele>153.953079</ele>
        <time>2020-08-13T05:32:06.680Z</time>
      </trkpt>
      <trkpt lat="37.878074" lon="-4.779445">
        <ele>153.799086</ele>
        <time>2020-08-13T05:32:08.675Z</time>
      </trkpt>
      <trkpt lat="37.877991" lon="-4.779544">
        <ele>153.630234</ele>
        <time>2020-08-13T05:32:11.681Z</time>
      </trkpt>
      <trkpt lat="37.877854" lon="-4.779476">
        <ele>153.412292</ele>
        <time>2020-08-13T05:32:14.677Z</time>
      </trkpt>
      <trkpt lat="37.877777" lon="-4.779392">
        <ele>153.261783</ele>
        <time>2020-08-13T05:32:16.670Z</time>
      </trkpt>
      <trkpt lat="37.877717" lon="-4.779277">
        <ele>153.100614</ele>
        <time>2020-08-13T05:32:21.679Z</time>
      </trkpt>
      <trkpt lat="37.877634" lon="-4.779199">
        <ele>152.947544</ele>
        <time>2020-08-13T05:32:26.674Z</time>
      </trkpt>
      <trkpt lat="37.877567" lon="-4.779120">
        <ele>152.811973</ele>
        <time>2020-08-13T05:32:28.680Z</time>
      </trkpt>
      <trkpt lat="37.877475" lon="-4.779004">
        <ele>152.619716</ele>
        <time>2020-08-13T05:32:31.685Z</time>
      </trkpt>
      <trkpt lat="37.877396" lon="-4.778898">
        <ele>152.449272</ele>
        <time>2020-08-13T05:32:34.676Z</time>
      </trkpt>
      <trkpt lat="37.877325" lon="-4.778829">
        <ele>152.316729</ele>
        <time>2020-08-13T05:32:37.671Z</time>
      </trkpt>
      <trkpt lat="37.877252" lon="-4.778723">
        <ele>152.152260</ele>
        <time>2020-08-13T05:32:42.677Z</time>
      </trkpt>
      <trkpt lat="37.877190" lon="-4.778612">
        <ele>151.993277</ele>
        <time>2020-08-13T05:32:47.689Z</time>
      </trkpt>
      <trkpt lat="37.877122" lon="-4.778527">
        <ele>151.851782</ele>
        <time>2020-08-13T05:32:52.683Z</time>
      </trkpt>
      <trkpt lat="37.877042" lon="-4.778441">
        <ele>151.696376</ele>
        <time>2020-08-13T05:32:58.688Z</time>
      </trkpt>
      <trkpt lat="37.876941" lon="-4.778389">
        <ele>151.534893</ele>
        <time>2020-08-13T05:33:05.674Z</time>
      </trkpt>
      <trkpt lat="37.876869" lon="-4.778301">
        <ele>151.447264</ele>
        <time>2020-08-13T05:33:09.687Z</time>
      </trkpt>
      <trkpt lat="37.876812" lon="-4.778200">
        <ele>151.536642</ele>
        <time>2020-08-13T05:33:13.673Z</time>
      </trkpt>
      <trkpt lat="37.876749" lon="-4.778113">
        <ele>151.621632</ele>
        <time>2020-08-13T05:33:16.682Z</time>
      </trkpt>
      <trkpt lat="37.876673" lon="-4.778006">
        <ele>151.725251</ele>
        <time>2020-08-13T05:33:20.682Z</time>
      </trkpt>
      <trkpt lat="37.876605" lon="-4.777896">
        <ele>151.825830</ele>
        <time>2020-08-13T05:33:24.685Z</time>
      </trkpt>
      <trkpt lat="37.876502" lon="-4.777784">
        <ele>151.949620</ele>
        <time>2020-08-13T05:33:27.665Z</time>
      </trkpt>
      <trkpt lat="37.876434" lon="-4.777703">
        <ele>152.034742</ele>
        <time>2020-08-13T05:33:29.694Z</time>
      </trkpt>
      <trkpt lat="37.876335" lon="-4.777597">
        <ele>152.152955</ele>
        <time>2020-08-13T05:33:32.683Z</time>
      </trkpt>
      <trkpt lat="37.876248" lon="-4.777480">
        <ele>152.268665</ele>
        <time>2020-08-13T05:33:35.681Z</time>
      </trkpt>
      <trkpt lat="37.876172" lon="-4.777369">
        <ele>152.374443</ele>
        <time>2020-08-13T05:33:38.684Z</time>
      </trkpt>
      <trkpt lat="37.876088" lon="-4.777275">
        <ele>152.476655</ele>
        <time>2020-08-13T05:33:41.673Z</time>
      </trkpt>
      <trkpt lat="37.876011" lon="-4.777181">
        <ele>152.574175</ele>
        <time>2020-08-13T05:33:44.668Z</time>
      </trkpt>
      <trkpt lat="37.875940" lon="-4.777086">
        <ele>152.668354</ele>
        <time>2020-08-13T05:33:47.677Z</time>
      </trkpt>
      <trkpt lat="37.875870" lon="-4.776995">
        <ele>152.759823</ele>
        <time>2020-08-13T05:33:50.671Z</time>
      </trkpt>
      <trkpt lat="37.875816" lon="-4.776896">
        <ele>152.846450</ele>
        <time>2020-08-13T05:33:53.692Z</time>
      </trkpt>
      <trkpt lat="37.875809" lon="-4.776764">
        <ele>152.941687</ele>
        <time>2020-08-13T05:33:56.680Z</time>
      </trkpt>
      <trkpt lat="37.875826" lon="-4.776640">
        <ele>153.032288</ele>
        <time>2020-08-13T05:33:58.704Z</time>
      </trkpt>
      <trkpt lat="37.875824" lon="-4.776506">
        <ele>153.185405</ele>
        <time>2020-08-13T05:34:00.700Z</time>
      </trkpt>
      <trkpt lat="37.875783" lon="-4.776380">
        <ele>153.370006</ele>
        <time>2020-08-13T05:34:02.688Z</time>
      </trkpt>
      <trkpt lat="37.875739" lon="-4.776260">
        <ele>153.549227</ele>
        <time>2020-08-13T05:34:05.666Z</time>
      </trkpt>
      <trkpt lat="37.875622" lon="-4.776210">
        <ele>153.761113</ele>
        <time>2020-08-13T05:34:09.678Z</time>
      </trkpt>
      <trkpt lat="37.875523" lon="-4.776255">
        <ele>153.941600</ele>
        <time>2020-08-13T05:34:12.678Z</time>
      </trkpt>
      <trkpt lat="37.875454" lon="-4.776338">
        <ele>154.104875</ele>
        <time>2020-08-13T05:34:14.693Z</time>
      </trkpt>
      <trkpt lat="37.875354" lon="-4.776426">
        <ele>154.313811</ele>
        <time>2020-08-13T05:34:16.683Z</time>
      </trkpt>
      <trkpt lat="37.875277" lon="-4.776496">
        <ele>154.476442</ele>
        <time>2020-08-13T05:34:18.678Z</time>
      </trkpt>
      <trkpt lat="37.875208" lon="-4.776580">
        <ele>154.640653</ele>
        <time>2020-08-13T05:34:20.677Z</time>
      </trkpt>
      <trkpt lat="37.875139" lon="-4.776712">
        <ele>154.855100</ele>
        <time>2020-08-13T05:34:23.677Z</time>
      </trkpt>
      <trkpt lat="37.875071" lon="-4.776799">
        <ele>155.020940</ele>
        <time>2020-08-13T05:34:26.689Z</time>
      </trkpt>
      <trkpt lat="37.874993" lon="-4.776862">
        <ele>155.179676</ele>
        <time>2020-08-13T05:34:29.678Z</time>
      </trkpt>
      <trkpt lat="37.874922" lon="-4.776978">
        <ele>155.378503</ele>
        <time>2020-08-13T05:34:34.677Z</time>
      </trkpt>
      <trkpt lat="37.874846" lon="-4.777075">
        <ele>155.563628</ele>
        <time>2020-08-13T05:34:38.678Z</time>
      </trkpt>
      <trkpt lat="37.874768" lon="-4.777180">
        <ele>155.758930</ele>
        <time>2020-08-13T05:34:42.693Z</time>
      </trkpt>
      <trkpt lat="37.874694" lon="-4.777260">
        <ele>155.925865</ele>
        <time>2020-08-13T05:34:45.683Z</time>
      </trkpt>
      <trkpt lat="37.874604" lon="-4.777343">
        <ele>156.116891</ele>
        <time>2020-08-13T05:34:48.694Z</time>
      </trkpt>
      <trkpt lat="37.874515" lon="-4.777447">
        <ele>156.049144</ele>
        <time>2020-08-13T05:34:51.684Z</time>
      </trkpt>
      <trkpt lat="37.874428" lon="-4.777558">
        <ele>155.924910</ele>
        <time>2020-08-13T05:34:54.687Z</time>
      </trkpt>
      <trkpt lat="37.874353" lon="-4.777635">
        <ele>155.827780</ele>
        <time>2020-08-13T05:34:56.680Z</time>
      </trkpt>
      <trkpt lat="37.874251" lon="-4.777705">
        <ele>155.711062</ele>
        <time>2020-08-13T05:34:58.685Z</time>
      </trkpt>
      <trkpt lat="37.874167" lon="-4.777772">
        <ele>155.611189</ele>
        <time>2020-08-13T05:35:00.685Z</time>
      </trkpt>
      <trkpt lat="37.874085" lon="-4.777853">
        <ele>155.506568</ele>
        <time>2020-08-13T05:35:02.691Z</time>
      </trkpt>
      <trkpt lat="37.873989" lon="-4.777972">
        <ele>155.371430</ele>
        <time>2020-08-13T05:35:05.678Z</time>
      </trkpt>
      <trkpt lat="37.873928" lon="-4.778073">
        <ele>155.270428</ele>
        <time>2020-08-13T05:35:07.675Z</time>
      </trkpt>
      <trkpt lat="37.873837" lon="-4.778163">
        <ele>155.154271</ele>
        <time>2020-08-13T05:35:09.680Z</time>
      </trkpt>
      <trkpt lat="37.873743" lon="-4.778235">
        <ele>155.043749</ele>
        <time>2020-08-13T05:35:11.681Z</time>
      </trkpt>
      <trkpt lat="37.873648" lon="-4.778319">
        <ele>154.927185</ele>
        <time>2020-08-13T05:35:13.672Z</time>
      </trkpt>
      <trkpt lat="37.873543" lon="-4.778441">
        <ele>154.783834</ele>
        <time>2020-08-13T05:35:16.669Z</time>
      </trkpt>
      <trkpt lat="37.873447" lon="-4.778540">
        <ele>154.659286</ele>
        <time>2020-08-13T05:35:18.686Z</time>
      </trkpt>
      <trkpt lat="37.873342" lon="-4.778615">
        <ele>154.538005</ele>
        <time>2020-08-13T05:35:20.682Z</time>
      </trkpt>
      <trkpt lat="37.873307" lon="-4.778737">
        <ele>154.434909</ele>
        <time>2020-08-13T05:35:23.688Z</time>
      </trkpt>
      <trkpt lat="37.873197" lon="-4.778762">
        <ele>154.368761</ele>
        <time>2020-08-13T05:35:25.683Z</time>
      </trkpt>
      <trkpt lat="37.873096" lon="-4.778886">
        <ele>154.575522</ele>
        <time>2020-08-13T05:35:28.699Z</time>
      </trkpt>
      <trkpt lat="37.873033" lon="-4.779011">
        <ele>154.747619</ele>
        <time>2020-08-13T05:35:31.676Z</time>
      </trkpt>
      <trkpt lat="37.872916" lon="-4.779098">
        <ele>154.947056</ele>
        <time>2020-08-13T05:35:34.688Z</time>
      </trkpt>
      <trkpt lat="37.872864" lon="-4.779195">
        <ele>155.083121</ele>
        <time>2020-08-13T05:35:36.678Z</time>
      </trkpt>
      <trkpt lat="37.872788" lon="-4.779313">
        <ele>155.259847</ele>
        <time>2020-08-13T05:35:39.692Z</time>
      </trkpt>
      <trkpt lat="37.872702" lon="-4.779431">
        <ele>155.446216</ele>
        <time>2020-08-13T05:35:42.679Z</time>
      </trkpt>
      <trkpt lat="37.872619" lon="-4.779520">
        <ele>155.606072</ele>
        <time>2020-08-13T05:35:45.680Z</time>
      </trkpt>
      <trkpt lat="37.872533" lon="-4.779619">
        <ele>155.776897</ele>
        <time>2020-08-13T05:35:48.676Z</time>
      </trkpt>
      <trkpt lat="37.872452" lon="-4.779730">
        <ele>155.952311</ele>
        <time>2020-08-13T05:35:51.677Z</time>
      </trkpt>
      <trkpt lat="37.872340" lon="-4.779811">
        <ele>156.141899</ele>
        <time>2020-08-13T05:35:54.683Z</time>
      </trkpt>
      <trkpt lat="37.872251" lon="-4.779864">
        <ele>156.286469</ele>
        <time>2020-08-13T05:35:56.691Z</time>
      </trkpt>
      <trkpt lat="37.872147" lon="-4.779977">
        <ele>156.487886</ele>
        <time>2020-08-13T05:35:58.675Z</time>
      </trkpt>
      <trkpt lat="37.872051" lon="-4.780031">
        <ele>156.642298</ele>
        <time>2020-08-13T05:36:01.682Z</time>
      </trkpt>
      <trkpt lat="37.871976" lon="-4.780100">
        <ele>156.778560</ele>
        <time>2020-08-13T05:36:03.674Z</time>
      </trkpt>
      <trkpt lat="37.871924" lon="-4.780222">
        <ele>156.939453</ele>
        <time>2020-08-13T05:36:07.674Z</time>
      </trkpt>
      <trkpt lat="37.871852" lon="-4.780299">
        <ele>156.833767</ele>
        <time>2020-08-13T05:36:10.682Z</time>
      </trkpt>
      <trkpt lat="37.871777" lon="-4.780369">
        <ele>156.609510</ele>
        <time>2020-08-13T05:36:13.679Z</time>
      </trkpt>
      <trkpt lat="37.871704" lon="-4.780458">
        <ele>156.365616</ele>
        <time>2020-08-13T05:36:16.682Z</time>
      </trkpt>
      <trkpt lat="37.871611" lon="-4.780565">
        <ele>156.063186</ele>
        <time>2020-08-13T05:36:19.682Z</time>
      </trkpt>
      <trkpt lat="37.871520" lon="-4.780679">
        <ele>155.755099</ele>
        <time>2020-08-13T05:36:22.661Z</time>
      </trkpt>
      <trkpt lat="37.871449" lon="-4.780790">
        <ele>155.483613</ele>
        <time>2020-08-13T05:36:25.686Z</time>
      </trkpt>
      <trkpt lat="37.871389" lon="-4.780877">
        <ele>155.264081</ele>
        <time>2020-08-13T05:36:28.677Z</time>
      </trkpt>
      <trkpt lat="37.871295" lon="-4.780919">
        <ele>155.024134</ele>
        <time>2020-08-13T05:36:32.669Z</time>
      </trkpt>
      <trkpt lat="37.871219" lon="-4.780850">
        <ele>154.799047</ele>
        <time>2020-08-13T05:37:00.681Z</time>
      </trkpt>
      <trkpt lat="37.871112" lon="-4.780790">
        <ele>154.517361</ele>
        <time>2020-08-13T05:37:30.685Z</time>
      </trkpt>
      <trkpt lat="37.871053" lon="-4.780692">
        <ele>154.283153</ele>
        <time>2020-08-13T05:37:33.670Z</time>
      </trkpt>
      <trkpt lat="37.870998" lon="-4.780564">
        <ele>154.006216</ele>
        <time>2020-08-13T05:37:36.683Z</time>
      </trkpt>
      <trkpt lat="37.870934" lon="-4.780432">
        <ele>153.711841</ele>
        <time>2020-08-13T05:37:39.679Z</time>
      </trkpt>
      <trkpt lat="37.870859" lon="-4.780357">
        <ele>153.481821</ele>
        <time>2020-08-13T05:37:47.684Z</time>
      </trkpt>
      <trkpt lat="37.870798" lon="-4.780240">
        <ele>153.215370</ele>
        <time>2020-08-13T05:37:51.687Z</time>
      </trkpt>
      <trkpt lat="37.870703" lon="-4.780180">
        <ele>152.959832</ele>
        <time>2020-08-13T05:37:54.685Z</time>
      </trkpt>
      <trkpt lat="37.870657" lon="-4.780052">
        <ele>152.692573</ele>
        <time>2020-08-13T05:37:57.671Z</time>
      </trkpt>
      <trkpt lat="37.870667" lon="-4.779927">
        <ele>152.856520</ele>
        <time>2020-08-13T05:37:59.661Z</time>
      </trkpt>
      <trkpt lat="37.870698" lon="-4.779788">
        <ele>153.129974</ele>
        <time>2020-08-13T05:38:01.669Z</time>
      </trkpt>
      <trkpt lat="37.870747" lon="-4.779648">
        <ele>153.419904</ele>
        <time>2020-08-13T05:38:03.678Z</time>
      </trkpt>
      <trkpt lat="37.870833" lon="-4.779534">
        <ele>153.718432</ele>
        <time>2020-08-13T05:38:05.667Z</time>
      </trkpt>
      <trkpt lat="37.870939" lon="-4.779394">
        <ele>154.085685</ele>
        <time>2020-08-13T05:38:06.685Z</time>
      </trkpt>
      <trkpt lat="37.871026" lon="-4.779273">
        <ele>154.395539</ele>
        <time>2020-08-13T05:38:09.684Z</time>
      </trkpt>
      <trkpt lat="37.871117" lon="-4.779155">
        <ele>154.707845</ele>
        <time>2020-08-13T05:38:12.694Z</time>
      </trkpt>
      <trkpt lat="37.871191" lon="-4.779086">
        <ele>154.928209</ele>
        <time>2020-08-13T05:38:14.688Z</time>
      </trkpt>
      <trkpt lat="37.871286" lon="-4.779041">
        <ele>155.171451</ele>
        <time>2020-08-13T05:38:16.691Z</time>
      </trkpt>
      <trkpt lat="37.871384" lon="-4.778958">
        <ele>155.454170</ele>
        <time>2020-08-13T05:38:18.693Z</time>
      </trkpt>
      <trkpt lat="37.871494" lon="-4.778856">
        <ele>155.781101</ele>
        <time>2020-08-13T05:38:21.671Z</time>
      </trkpt>
      <trkpt lat="37.871495" lon="-4.778737">
        <ele>156.006400</ele>
        <time>2020-08-13T05:38:28.685Z</time>
      </trkpt>
      <trkpt lat="37.871591" lon="-4.778746">
        <ele>156.237264</ele>
        <time>2020-08-13T05:38:37.685Z</time>
      </trkpt>
      <trkpt lat="37.871263" lon="-4.779044">
        <ele>156.716370</ele>
        <time>2020-08-13T06:03:44.423Z</time>
      </trkpt>
      <trkpt lat="37.871174" lon="-4.779121">
        <ele>156.439629</ele>
        <time>2020-08-13T06:03:48.409Z</time>
      </trkpt>
      <trkpt lat="37.871104" lon="-4.779222">
        <ele>156.167198</ele>
        <time>2020-08-13T06:03:51.418Z</time>
      </trkpt>
      <trkpt lat="37.871033" lon="-4.779315">
        <ele>155.904954</ele>
        <time>2020-08-13T06:03:54.401Z</time>
      </trkpt>
      <trkpt lat="37.870961" lon="-4.779397">
        <ele>155.656346</ele>
        <time>2020-08-13T06:03:57.402Z</time>
      </trkpt>
      <trkpt lat="37.870901" lon="-4.779518">
        <ele>155.366708</ele>
        <time>2020-08-13T06:04:01.409Z</time>
      </trkpt>
      <trkpt lat="37.870831" lon="-4.779617">
        <ele>155.097309</ele>
        <time>2020-08-13T06:04:05.424Z</time>
      </trkpt>
      <trkpt lat="37.870758" lon="-4.779685">
        <ele>154.864642</ele>
        <time>2020-08-13T06:04:08.419Z</time>
      </trkpt>
      <trkpt lat="37.870661" lon="-4.779789">
        <ele>154.538336</ele>
        <time>2020-08-13T06:04:11.413Z</time>
      </trkpt>
      <trkpt lat="37.870650" lon="-4.779905">
        <ele>154.301517</ele>
        <time>2020-08-13T06:04:13.416Z</time>
      </trkpt>
      <trkpt lat="37.870680" lon="-4.780029">
        <ele>154.038632</ele>
        <time>2020-08-13T06:04:16.420Z</time>
      </trkpt>
      <trkpt lat="37.870751" lon="-4.780150">
        <ele>153.733032</ele>
        <time>2020-08-13T06:04:19.411Z</time>
      </trkpt>
      <trkpt lat="37.870829" lon="-4.780250">
        <ele>153.448076</ele>
        <time>2020-08-13T06:04:22.427Z</time>
      </trkpt>
      <trkpt lat="37.870930" lon="-4.780325">
        <ele>153.147461</ele>
        <time>2020-08-13T06:04:25.409Z</time>
      </trkpt>
      <trkpt lat="37.871026" lon="-4.780372">
        <ele>152.883189</ele>
        <time>2020-08-13T06:04:28.415Z</time>
      </trkpt>
      <trkpt lat="37.871204" lon="-4.780617">
        <ele>152.250116</ele>
        <time>2020-08-13T06:04:38.411Z</time>
      </trkpt>
      <trkpt lat="37.871205" lon="-4.780751">
        <ele>152.058294</ele>
        <time>2020-08-13T06:04:46.416Z</time>
      </trkpt>
      <trkpt lat="37.871162" lon="-4.780880">
        <ele>151.857849</ele>
        <time>2020-08-13T06:04:49.418Z</time>
      </trkpt>
      <trkpt lat="37.871088" lon="-4.780970">
        <ele>151.671829</ele>
        <time>2020-08-13T06:04:52.426Z</time>
      </trkpt>
      <trkpt lat="37.870981" lon="-4.781053">
        <ele>151.444314</ele>
        <time>2020-08-13T06:04:55.404Z</time>
      </trkpt>
      <trkpt lat="37.870858" lon="-4.781133">
        <ele>151.193592</ele>
        <time>2020-08-13T06:04:57.421Z</time>
      </trkpt>
      <trkpt lat="37.870772" lon="-4.781233">
        <ele>150.981907</ele>
        <time>2020-08-13T06:05:00.420Z</time>
      </trkpt>
      <trkpt lat="37.870670" lon="-4.781314">
        <ele>150.763608</ele>
        <time>2020-08-13T06:05:03.412Z</time>
      </trkpt>
      <trkpt lat="37.870587" lon="-4.781368">
        <ele>150.594410</ele>
        <time>2020-08-13T06:05:06.428Z</time>
      </trkpt>
      <trkpt lat="37.870505" lon="-4.781448">
        <ele>150.406729</ele>
        <time>2020-08-13T06:05:08.401Z</time>
      </trkpt>
      <trkpt lat="37.870460" lon="-4.781582">
        <ele>150.198278</ele>
        <time>2020-08-13T06:05:11.416Z</time>
      </trkpt>
      <trkpt lat="37.870410" lon="-4.781682">
        <ele>150.028834</ele>
        <time>2020-08-13T06:05:13.414Z</time>
      </trkpt>
      <trkpt lat="37.870320" lon="-4.781786">
        <ele>149.807932</ele>
        <time>2020-08-13T06:05:16.415Z</time>
      </trkpt>
      <trkpt lat="37.870207" lon="-4.781850">
        <ele>149.583475</ele>
        <time>2020-08-13T06:05:19.419Z</time>
      </trkpt>
      <trkpt lat="37.870112" lon="-4.781905">
        <ele>149.394069</ele>
        <time>2020-08-13T06:05:22.418Z</time>
      </trkpt>
      <trkpt lat="37.870023" lon="-4.781978">
        <ele>149.201804</ele>
        <time>2020-08-13T06:05:27.415Z</time>
      </trkpt>
      <trkpt lat="37.869922" lon="-4.781989">
        <ele>149.068757</ele>
        <time>2020-08-13T06:05:31.420Z</time>
      </trkpt>
      <trkpt lat="37.869820" lon="-4.782026">
        <ele>149.013646</ele>
        <time>2020-08-13T06:05:35.403Z</time>
      </trkpt>
      <trkpt lat="37.869721" lon="-4.782058">
        <ele>148.960574</ele>
        <time>2020-08-13T06:05:39.421Z</time>
      </trkpt>
      <trkpt lat="37.869617" lon="-4.782093">
        <ele>148.904679</ele>
        <time>2020-08-13T06:05:43.409Z</time>
      </trkpt>
      <trkpt lat="37.869525" lon="-4.782120">
        <ele>148.855626</ele>
        <time>2020-08-13T06:05:46.417Z</time>
      </trkpt>
      <trkpt lat="37.869425" lon="-4.782180">
        <ele>148.798150</ele>
        <time>2020-08-13T06:05:50.415Z</time>
      </trkpt>
      <trkpt lat="37.869334" lon="-4.782262">
        <ele>148.740143</ele>
        <time>2020-08-13T06:05:54.411Z</time>
      </trkpt>
      <trkpt lat="37.869229" lon="-4.782318">
        <ele>148.680966</ele>
        <time>2020-08-13T06:05:58.423Z</time>
      </trkpt>
      <trkpt lat="37.869139" lon="-4.782331">
        <ele>148.633914</ele>
        <time>2020-08-13T06:06:01.420Z</time>
      </trkpt>
      <trkpt lat="37.869030" lon="-4.782391">
        <ele>148.572181</ele>
        <time>2020-08-13T06:06:05.433Z</time>
      </trkpt>
      <trkpt lat="37.868933" lon="-4.782449">
        <ele>148.516465</ele>
        <time>2020-08-13T06:06:08.414Z</time>
      </trkpt>
      <trkpt lat="37.868833" lon="-4.782496">
        <ele>148.461062</ele>
        <time>2020-08-13T06:06:11.420Z</time>
      </trkpt>
      <trkpt lat="37.868740" lon="-4.782557">
        <ele>148.406663</ele>
        <time>2020-08-13T06:06:14.442Z</time>
      </trkpt>
      <trkpt lat="37.868636" lon="-4.782637">
        <ele>148.343462</ele>
        <time>2020-08-13T06:06:17.424Z</time>
      </trkpt>
      <trkpt lat="37.868525" lon="-4.782690">
        <ele>148.281845</ele>
        <time>2020-08-13T06:06:20.425Z</time>
      </trkpt>
      <trkpt lat="37.868421" lon="-4.782773">
        <ele>148.217997</ele>
        <time>2020-08-13T06:06:23.414Z</time>
      </trkpt>
      <trkpt lat="37.868286" lon="-4.782844">
        <ele>148.100974</ele>
        <time>2020-08-13T06:06:26.427Z</time>
      </trkpt>
      <trkpt lat="37.868172" lon="-4.782941">
        <ele>147.800561</ele>
        <time>2020-08-13T06:06:29.415Z</time>
      </trkpt>
      <trkpt lat="37.868082" lon="-4.782986">
        <ele>147.588902</ele>
        <time>2020-08-13T06:06:31.424Z</time>
      </trkpt>
      <trkpt lat="37.868015" lon="-4.783072">
        <ele>147.380247</ele>
        <time>2020-08-13T06:06:33.416Z</time>
      </trkpt>
      <trkpt lat="37.867890" lon="-4.783132">
        <ele>147.087835</ele>
        <time>2020-08-13T06:06:36.420Z</time>
      </trkpt>
      <trkpt lat="37.867801" lon="-4.783185">
        <ele>146.872705</ele>
        <time>2020-08-13T06:06:38.406Z</time>
      </trkpt>
      <trkpt lat="37.867722" lon="-4.783312">
        <ele>146.593485</ele>
        <time>2020-08-13T06:06:41.417Z</time>
      </trkpt>
      <trkpt lat="37.867646" lon="-4.783383">
        <ele>146.386911</ele>
        <time>2020-08-13T06:06:43.418Z</time>
      </trkpt>
      <trkpt lat="37.867524" lon="-4.783458">
        <ele>146.090266</ele>
        <time>2020-08-13T06:06:46.414Z</time>
      </trkpt>
      <trkpt lat="37.867434" lon="-4.783504">
        <ele>145.877967</ele>
        <time>2020-08-13T06:06:48.423Z</time>
      </trkpt>
      <trkpt lat="37.867347" lon="-4.783550">
        <ele>145.671739</ele>
        <time>2020-08-13T06:06:50.423Z</time>
      </trkpt>
      <trkpt lat="37.867229" lon="-4.783625">
        <ele>145.382941</ele>
        <time>2020-08-13T06:06:53.419Z</time>
      </trkpt>
      <trkpt lat="37.867145" lon="-4.783678">
        <ele>145.177656</ele>
        <time>2020-08-13T06:06:55.399Z</time>
      </trkpt>
      <trkpt lat="37.867036" lon="-4.783700">
        <ele>144.936209</ele>
        <time>2020-08-13T06:06:57.418Z</time>
      </trkpt>
      <trkpt lat="37.866935" lon="-4.783791">
        <ele>144.665081</ele>
        <time>2020-08-13T06:07:00.415Z</time>
      </trkpt>
      <trkpt lat="37.866850" lon="-4.783832">
        <ele>144.466118</ele>
        <time>2020-08-13T06:07:02.405Z</time>
      </trkpt>
      <trkpt lat="37.866772" lon="-4.783911">
        <ele>144.247656</ele>
        <time>2020-08-13T06:07:04.420Z</time>
      </trkpt>
      <trkpt lat="37.866674" lon="-4.783955">
        <ele>144.284971</ele>
        <time>2020-08-13T06:07:06.412Z</time>
      </trkpt>
      <trkpt lat="37.866595" lon="-4.784029">
        <ele>144.354441</ele>
        <time>2020-08-13T06:07:08.422Z</time>
      </trkpt>
      <trkpt lat="37.866476" lon="-4.784118">
        <ele>144.452152</ele>
        <time>2020-08-13T06:07:11.420Z</time>
      </trkpt>
      <trkpt lat="37.866358" lon="-4.784190">
        <ele>144.544760</ele>
        <time>2020-08-13T06:07:14.431Z</time>
      </trkpt>
      <trkpt lat="37.866240" lon="-4.784276">
        <ele>144.641016</ele>
        <time>2020-08-13T06:07:17.415Z</time>
      </trkpt>
      <trkpt lat="37.866129" lon="-4.784341">
        <ele>144.727480</ele>
        <time>2020-08-13T06:07:20.426Z</time>
      </trkpt>
      <trkpt lat="37.866031" lon="-4.784436">
        <ele>144.814734</ele>
        <time>2020-08-13T06:07:23.423Z</time>
      </trkpt>
      <trkpt lat="37.865945" lon="-4.784494">
        <ele>144.883622</ele>
        <time>2020-08-13T06:07:25.414Z</time>
      </trkpt>
      <trkpt lat="37.865856" lon="-4.784572">
        <ele>144.960144</ele>
        <time>2020-08-13T06:07:27.420Z</time>
      </trkpt>
      <trkpt lat="37.865791" lon="-4.784655">
        <ele>145.025402</ele>
        <time>2020-08-13T06:07:29.416Z</time>
      </trkpt>
      <trkpt lat="37.865705" lon="-4.784693">
        <ele>145.089802</ele>
        <time>2020-08-13T06:07:31.430Z</time>
      </trkpt>
      <trkpt lat="37.865603" lon="-4.784733">
        <ele>145.165299</ele>
        <time>2020-08-13T06:07:33.417Z</time>
      </trkpt>
      <trkpt lat="37.865513" lon="-4.784788">
        <ele>145.235952</ele>
        <time>2020-08-13T06:07:35.426Z</time>
      </trkpt>
      <trkpt lat="37.865384" lon="-4.784849">
        <ele>145.333311</ele>
        <time>2020-08-13T06:07:38.423Z</time>
      </trkpt>
      <trkpt lat="37.865290" lon="-4.784893">
        <ele>145.404167</ele>
        <time>2020-08-13T06:07:40.429Z</time>
      </trkpt>
      <trkpt lat="37.865185" lon="-4.784932">
        <ele>145.481534</ele>
        <time>2020-08-13T06:07:42.423Z</time>
      </trkpt>
      <trkpt lat="37.865127" lon="-4.785033">
        <ele>145.511300</ele>
        <time>2020-08-13T06:07:44.431Z</time>
      </trkpt>
      <trkpt lat="37.865048" lon="-4.785091">
        <ele>145.532302</ele>
        <time>2020-08-13T06:07:46.425Z</time>
      </trkpt>
      <trkpt lat="37.864982" lon="-4.785171">
        <ele>145.553313</ele>
        <time>2020-08-13T06:07:48.420Z</time>
      </trkpt>
      <trkpt lat="37.864865" lon="-4.785259">
        <ele>145.584610</ele>
        <time>2020-08-13T06:07:51.429Z</time>
      </trkpt>
      <trkpt lat="37.864782" lon="-4.785304">
        <ele>145.605376</ele>
        <time>2020-08-13T06:07:53.418Z</time>
      </trkpt>
      <trkpt lat="37.864683" lon="-4.785383">
        <ele>145.632288</ele>
        <time>2020-08-13T06:07:55.417Z</time>
      </trkpt>
      <trkpt lat="37.864577" lon="-4.785414">
        <ele>145.657310</ele>
        <time>2020-08-13T06:07:57.402Z</time>
      </trkpt>
      <trkpt lat="37.864485" lon="-4.785485">
        <ele>145.682088</ele>
        <time>2020-08-13T06:07:59.408Z</time>
      </trkpt>
      <trkpt lat="37.864400" lon="-4.785524">
        <ele>145.702881</ele>
        <time>2020-08-13T06:08:01.413Z</time>
      </trkpt>
      <trkpt lat="37.864324" lon="-4.785613">
        <ele>145.726687</ele>
        <time>2020-08-13T06:08:03.402Z</time>
      </trkpt>
      <trkpt lat="37.864220" lon="-4.785679">
        <ele>145.753442</ele>
        <time>2020-08-13T06:08:06.413Z</time>
      </trkpt>
      <trkpt lat="37.864140" lon="-4.785766">
        <ele>145.777694</ele>
        <time>2020-08-13T06:08:08.416Z</time>
      </trkpt>
      <trkpt lat="37.864035" lon="-4.785802">
        <ele>145.802713</ele>
        <time>2020-08-13T06:08:10.412Z</time>
      </trkpt>
      <trkpt lat="37.863929" lon="-4.785844">
        <ele>145.828259</ele>
        <time>2020-08-13T06:08:12.409Z</time>
      </trkpt>
      <trkpt lat="37.863865" lon="-4.785958">
        <ele>145.853659</ele>
        <time>2020-08-13T06:08:14.423Z</time>
      </trkpt>
      <trkpt lat="37.863775" lon="-4.785984">
        <ele>145.874891</ele>
        <time>2020-08-13T06:08:16.426Z</time>
      </trkpt>
      <trkpt lat="37.863721" lon="-4.786076">
        <ele>145.895708</ele>
        <time>2020-08-13T06:08:18.418Z</time>
      </trkpt>
      <trkpt lat="37.863632" lon="-4.786123">
        <ele>145.857906</ele>
        <time>2020-08-13T06:08:20.445Z</time>
      </trkpt>
      <trkpt lat="37.863528" lon="-4.786192">
        <ele>145.751609</ele>
        <time>2020-08-13T06:08:22.411Z</time>
      </trkpt>
      <trkpt lat="37.863436" lon="-4.786281">
        <ele>145.646797</ele>
        <time>2020-08-13T06:08:24.423Z</time>
      </trkpt>
      <trkpt lat="37.863344" lon="-4.786335">
        <ele>145.554992</ele>
        <time>2020-08-13T06:08:26.411Z</time>
      </trkpt>
      <trkpt lat="37.863267" lon="-4.786430">
        <ele>145.457670</ele>
        <time>2020-08-13T06:08:28.421Z</time>
      </trkpt>
      <trkpt lat="37.863184" lon="-4.786488">
        <ele>145.371845</ele>
        <time>2020-08-13T06:08:30.411Z</time>
      </trkpt>
      <trkpt lat="37.863085" lon="-4.786562">
        <ele>145.267766</ele>
        <time>2020-08-13T06:08:32.417Z</time>
      </trkpt>
      <trkpt lat="37.862993" lon="-4.786620">
        <ele>145.174723</ele>
        <time>2020-08-13T06:08:34.432Z</time>
      </trkpt>
      <trkpt lat="37.862909" lon="-4.786690">
        <ele>145.083685</ele>
        <time>2020-08-13T06:08:36.416Z</time>
      </trkpt>
      <trkpt lat="37.862809" lon="-4.786742">
        <ele>144.985813</ele>
        <time>2020-08-13T06:08:38.420Z</time>
      </trkpt>
      <trkpt lat="37.862725" lon="-4.786797">
        <ele>144.900198</ele>
        <time>2020-08-13T06:08:40.411Z</time>
      </trkpt>
      <trkpt lat="37.862658" lon="-4.786891">
        <ele>144.809675</ele>
        <time>2020-08-13T06:08:42.418Z</time>
      </trkpt>
      <trkpt lat="37.862602" lon="-4.786985">
        <ele>144.725500</ele>
        <time>2020-08-13T06:08:44.415Z</time>
      </trkpt>
      <trkpt lat="37.862521" lon="-4.787059">
        <ele>144.635077</ele>
        <time>2020-08-13T06:08:46.420Z</time>
      </trkpt>
      <trkpt lat="37.862438" lon="-4.787125">
        <ele>144.546347</ele>
        <time>2020-08-13T06:08:48.420Z</time>
      </trkpt>
      <trkpt lat="37.862350" lon="-4.787220">
        <ele>144.441660</ele>
        <time>2020-08-13T06:08:50.428Z</time>
      </trkpt>
      <trkpt lat="37.862252" lon="-4.787314">
        <ele>144.330360</ele>
        <time>2020-08-13T06:08:52.417Z</time>
      </trkpt>
      <trkpt lat="37.862162" lon="-4.787405">
        <ele>144.232931</ele>
        <time>2020-08-13T06:08:54.418Z</time>
      </trkpt>
      <trkpt lat="37.862061" lon="-4.787481">
        <ele>144.140780</ele>
        <time>2020-08-13T06:08:56.420Z</time>
      </trkpt>
      <trkpt lat="37.861972" lon="-4.787572">
        <ele>144.051061</ele>
        <time>2020-08-13T06:08:58.418Z</time>
      </trkpt>
      <trkpt lat="37.861872" lon="-4.787652">
        <ele>143.958285</ele>
        <time>2020-08-13T06:09:00.432Z</time>
      </trkpt>
      <trkpt lat="37.861788" lon="-4.787738">
        <ele>143.873562</ele>
        <time>2020-08-13T06:09:02.408Z</time>
      </trkpt>
      <trkpt lat="37.861717" lon="-4.787826">
        <ele>143.795642</ele>
        <time>2020-08-13T06:09:04.419Z</time>
      </trkpt>
      <trkpt lat="37.861621" lon="-4.787911">
        <ele>143.703765</ele>
        <time>2020-08-13T06:09:06.429Z</time>
      </trkpt>
      <trkpt lat="37.861507" lon="-4.787988">
        <ele>143.602423</ele>
        <time>2020-08-13T06:09:08.420Z</time>
      </trkpt>
      <trkpt lat="37.861424" lon="-4.788090">
        <ele>143.511710</ele>
        <time>2020-08-13T06:09:10.419Z</time>
      </trkpt>
      <trkpt lat="37.861330" lon="-4.788227">
        <ele>143.399305</ele>
        <time>2020-08-13T06:09:13.420Z</time>
      </trkpt>
      <trkpt lat="37.861277" lon="-4.788329">
        <ele>143.323685</ele>
        <time>2020-08-13T06:09:15.415Z</time>
      </trkpt>
      <trkpt lat="37.861182" lon="-4.788457">
        <ele>143.214889</ele>
        <time>2020-08-13T06:09:18.425Z</time>
      </trkpt>
      <trkpt lat="37.861092" lon="-4.788570">
        <ele>143.115486</ele>
        <time>2020-08-13T06:09:21.419Z</time>
      </trkpt>
      <trkpt lat="37.861003" lon="-4.788677">
        <ele>143.019233</ele>
        <time>2020-08-13T06:09:24.416Z</time>
      </trkpt>
      <trkpt lat="37.860912" lon="-4.788803">
        <ele>142.913479</ele>
        <time>2020-08-13T06:09:27.420Z</time>
      </trkpt>
      <trkpt lat="37.860842" lon="-4.788912">
        <ele>142.842684</ele>
        <time>2020-08-13T06:09:30.421Z</time>
      </trkpt>
      <trkpt lat="37.860735" lon="-4.788984">
        <ele>142.786265</ele>
        <time>2020-08-13T06:09:33.416Z</time>
      </trkpt>
      <trkpt lat="37.860622" lon="-4.789078">
        <ele>142.723314</ele>
        <time>2020-08-13T06:09:36.418Z</time>
      </trkpt>
      <trkpt lat="37.860543" lon="-4.789174">
        <ele>142.672335</ele>
        <time>2020-08-13T06:09:39.419Z</time>
      </trkpt>
      <trkpt lat="37.860449" lon="-4.789283">
        <ele>142.612992</ele>
        <time>2020-08-13T06:09:42.423Z</time>
      </trkpt>
      <trkpt lat="37.860388" lon="-4.789408">
        <ele>142.558968</ele>
        <time>2020-08-13T06:09:45.422Z</time>
      </trkpt>
      <trkpt lat="37.860298" lon="-4.789485">
        <ele>142.508395</ele>
        <time>2020-08-13T06:09:47.419Z</time>
      </trkpt>
      <trkpt lat="37.860198" lon="-4.789606">
        <ele>142.443998</ele>
        <time>2020-08-13T06:09:50.413Z</time>
      </trkpt>
      <trkpt lat="37.860094" lon="-4.789711">
        <ele>142.382068</ele>
        <time>2020-08-13T06:09:53.416Z</time>
      </trkpt>
      <trkpt lat="37.860013" lon="-4.789798">
        <ele>142.332615</ele>
        <time>2020-08-13T06:09:55.424Z</time>
      </trkpt>
      <trkpt lat="37.859907" lon="-4.789856">
        <ele>142.278848</ele>
        <time>2020-08-13T06:09:58.422Z</time>
      </trkpt>
      <trkpt lat="37.859843" lon="-4.789967">
        <ele>142.228317</ele>
        <time>2020-08-13T06:10:01.420Z</time>
      </trkpt>
      <trkpt lat="37.859778" lon="-4.790090">
        <ele>142.173903</ele>
        <time>2020-08-13T06:10:05.420Z</time>
      </trkpt>
      <trkpt lat="37.859680" lon="-4.790145">
        <ele>142.123991</ele>
        <time>2020-08-13T06:10:09.429Z</time>
      </trkpt>
      <trkpt lat="37.859638" lon="-4.790283">
        <ele>142.069618</ele>
        <time>2020-08-13T06:10:13.416Z</time>
      </trkpt>
      <trkpt lat="37.859609" lon="-4.790399">
        <ele>142.066302</ele>
        <time>2020-08-13T06:10:16.419Z</time>
      </trkpt>
      <trkpt lat="37.859517" lon="-4.790507">
        <ele>142.618859</ele>
        <time>2020-08-13T06:10:19.417Z</time>
      </trkpt>
      <trkpt lat="37.859445" lon="-4.790579">
        <ele>143.022957</ele>
        <time>2020-08-13T06:10:21.415Z</time>
      </trkpt>
      <trkpt lat="37.859397" lon="-4.790724">
        <ele>143.569781</ele>
        <time>2020-08-13T06:10:23.415Z</time>
      </trkpt>
      <trkpt lat="37.859347" lon="-4.790848">
        <ele>144.054024</ele>
        <time>2020-08-13T06:10:25.403Z</time>
      </trkpt>
      <trkpt lat="37.859270" lon="-4.790926">
        <ele>144.488349</ele>
        <time>2020-08-13T06:10:28.420Z</time>
      </trkpt>
      <trkpt lat="37.859196" lon="-4.791050">
        <ele>145.028941</ele>
        <time>2020-08-13T06:10:30.416Z</time>
      </trkpt>
      <trkpt lat="37.859154" lon="-4.791189">
        <ele>145.546559</ele>
        <time>2020-08-13T06:10:32.421Z</time>
      </trkpt>
      <trkpt lat="37.859108" lon="-4.791318">
        <ele>146.038842</ele>
        <time>2020-08-13T06:10:34.427Z</time>
      </trkpt>
      <trkpt lat="37.859078" lon="-4.791440">
        <ele>146.483246</ele>
        <time>2020-08-13T06:10:36.418Z</time>
      </trkpt>
      <trkpt lat="37.859027" lon="-4.791540">
        <ele>146.897284</ele>
        <time>2020-08-13T06:10:38.425Z</time>
      </trkpt>
      <trkpt lat="37.858939" lon="-4.791664">
        <ele>147.477155</ele>
        <time>2020-08-13T06:10:41.408Z</time>
      </trkpt>
      <trkpt lat="37.858888" lon="-4.791786">
        <ele>147.957262</ele>
        <time>2020-08-13T06:10:44.413Z</time>
      </trkpt>
      <trkpt lat="37.858807" lon="-4.791924">
        <ele>148.555311</ele>
        <time>2020-08-13T06:10:47.420Z</time>
      </trkpt>
      <trkpt lat="37.858745" lon="-4.792020">
        <ele>148.986663</ele>
        <time>2020-08-13T06:10:49.401Z</time>
      </trkpt>
      <trkpt lat="37.858685" lon="-4.792128">
        <ele>149.445946</ele>
        <time>2020-08-13T06:10:51.411Z</time>
      </trkpt>
      <trkpt lat="37.858645" lon="-4.792250">
        <ele>149.905380</ele>
        <time>2020-08-13T06:10:53.417Z</time>
      </trkpt>
      <trkpt lat="37.858580" lon="-4.792383">
        <ele>149.981764</ele>
        <time>2020-08-13T06:10:56.423Z</time>
      </trkpt>
      <trkpt lat="37.858521" lon="-4.792505">
        <ele>150.011598</ele>
        <time>2020-08-13T06:10:59.412Z</time>
      </trkpt>
      <trkpt lat="37.858434" lon="-4.792638">
        <ele>150.047616</ele>
        <time>2020-08-13T06:11:02.425Z</time>
      </trkpt>
      <trkpt lat="37.858361" lon="-4.792777">
        <ele>150.082430</ele>
        <time>2020-08-13T06:11:05.416Z</time>
      </trkpt>
      <trkpt lat="37.858283" lon="-4.792900">
        <ele>150.115329</ele>
        <time>2020-08-13T06:11:08.419Z</time>
      </trkpt>
      <trkpt lat="37.858209" lon="-4.793036">
        <ele>150.149773</ele>
        <time>2020-08-13T06:11:11.421Z</time>
      </trkpt>
      <trkpt lat="37.858154" lon="-4.793139">
        <ele>150.175704</ele>
        <time>2020-08-13T06:11:13.418Z</time>
      </trkpt>
      <trkpt lat="37.858086" lon="-4.793236">
        <ele>150.202755</ele>
        <time>2020-08-13T06:11:15.415Z</time>
      </trkpt>
      <trkpt lat="37.857997" lon="-4.793364">
        <ele>150.238323</ele>
        <time>2020-08-13T06:11:18.423Z</time>
      </trkpt>
      <trkpt lat="37.857935" lon="-4.793478">
        <ele>150.267191</ele>
        <time>2020-08-13T06:11:20.418Z</time>
      </trkpt>
      <trkpt lat="37.857860" lon="-4.793609">
        <ele>150.300936</ele>
        <time>2020-08-13T06:11:23.404Z</time>
      </trkpt>
      <trkpt lat="37.857792" lon="-4.793713">
        <ele>150.329095</ele>
        <time>2020-08-13T06:11:25.416Z</time>
      </trkpt>
      <trkpt lat="37.857733" lon="-4.793856">
        <ele>150.362742</ele>
        <time>2020-08-13T06:11:28.415Z</time>
      </trkpt>
      <trkpt lat="37.857669" lon="-4.793942">
        <ele>150.387387</ele>
        <time>2020-08-13T06:11:30.409Z</time>
      </trkpt>
      <trkpt lat="37.857612" lon="-4.794030">
        <ele>150.411124</ele>
        <time>2020-08-13T06:11:32.419Z</time>
      </trkpt>
      <trkpt lat="37.857539" lon="-4.794121">
        <ele>150.487204</ele>
        <time>2020-08-13T06:11:34.430Z</time>
      </trkpt>
      <trkpt lat="37.857460" lon="-4.794260">
        <ele>150.679673</ele>
        <time>2020-08-13T06:11:37.422Z</time>
      </trkpt>
      <trkpt lat="37.857378" lon="-4.794374">
        <ele>150.852980</ele>
        <time>2020-08-13T06:11:39.417Z</time>
      </trkpt>
      <trkpt lat="37.857284" lon="-4.794503">
        <ele>151.050255</ele>
        <time>2020-08-13T06:11:42.431Z</time>
      </trkpt>
      <trkpt lat="37.857223" lon="-4.794625">
        <ele>151.212538</ele>
        <time>2020-08-13T06:11:44.408Z</time>
      </trkpt>
      <trkpt lat="37.857147" lon="-4.794724">
        <ele>151.367714</ele>
        <time>2020-08-13T06:11:47.415Z</time>
      </trkpt>
      <trkpt lat="37.857084" lon="-4.794852">
        <ele>151.537221</ele>
        <time>2020-08-13T06:11:49.453Z</time>
      </trkpt>
      <trkpt lat="37.857062" lon="-4.794967">
        <ele>151.670198</ele>
        <time>2020-08-13T06:11:51.415Z</time>
      </trkpt>
      <trkpt lat="37.856990" lon="-4.795096">
        <ele>151.847733</ele>
        <time>2020-08-13T06:11:54.416Z</time>
      </trkpt>
      <trkpt lat="37.856928" lon="-4.795184">
        <ele>151.980276</ele>
        <time>2020-08-13T06:11:56.414Z</time>
      </trkpt>
      <trkpt lat="37.856852" lon="-4.795270">
        <ele>152.125337</ele>
        <time>2020-08-13T06:11:58.418Z</time>
      </trkpt>
      <trkpt lat="37.856760" lon="-4.795360">
        <ele>152.290797</ele>
        <time>2020-08-13T06:12:00.424Z</time>
      </trkpt>
      <trkpt lat="37.856658" lon="-4.795481">
        <ele>152.489716</ele>
        <time>2020-08-13T06:12:03.419Z</time>
      </trkpt>
      <trkpt lat="37.856579" lon="-4.795622">
        <ele>152.684015</ele>
        <time>2020-08-13T06:12:06.418Z</time>
      </trkpt>
      <trkpt lat="37.856516" lon="-4.795734">
        <ele>152.838557</ele>
        <time>2020-08-13T06:12:09.419Z</time>
      </trkpt>
      <trkpt lat="37.856452" lon="-4.795831">
        <ele>152.980618</ele>
        <time>2020-08-13T06:12:11.415Z</time>
      </trkpt>
      <trkpt lat="37.856365" lon="-4.795914">
        <ele>152.919686</ele>
        <time>2020-08-13T06:12:13.420Z</time>
      </trkpt>
      <trkpt lat="37.856291" lon="-4.796014">
        <ele>152.849771</ele>
        <time>2020-08-13T06:12:15.417Z</time>
      </trkpt>
      <trkpt lat="37.856229" lon="-4.796103">
        <ele>152.789226</ele>
        <time>2020-08-13T06:12:17.405Z</time>
      </trkpt>
      <trkpt lat="37.856170" lon="-4.796219">
        <ele>152.718837</ele>
        <time>2020-08-13T06:12:19.414Z</time>
      </trkpt>
      <trkpt lat="37.856114" lon="-4.796344">
        <ele>152.645523</ele>
        <time>2020-08-13T06:12:21.401Z</time>
      </trkpt>
      <trkpt lat="37.856051" lon="-4.796484">
        <ele>152.563321</ele>
        <time>2020-08-13T06:12:24.417Z</time>
      </trkpt>
      <trkpt lat="37.855978" lon="-4.796580">
        <ele>152.495331</ele>
        <time>2020-08-13T06:12:27.412Z</time>
      </trkpt>
      <trkpt lat="37.855876" lon="-4.796728">
        <ele>152.395117</ele>
        <time>2020-08-13T06:12:30.415Z</time>
      </trkpt>
      <trkpt lat="37.855811" lon="-4.796813">
        <ele>152.334754</ele>
        <time>2020-08-13T06:12:32.407Z</time>
      </trkpt>
      <trkpt lat="37.855712" lon="-4.796914">
        <ele>152.252621</ele>
        <time>2020-08-13T06:12:34.405Z</time>
      </trkpt>
      <trkpt lat="37.855597" lon="-4.797029">
        <ele>152.157954</ele>
        <time>2020-08-13T06:12:37.410Z</time>
      </trkpt>
      <trkpt lat="37.855544" lon="-4.797123">
        <ele>152.099031</ele>
        <time>2020-08-13T06:12:39.413Z</time>
      </trkpt>
      <trkpt lat="37.855451" lon="-4.797239">
        <ele>152.014699</ele>
        <time>2020-08-13T06:12:42.413Z</time>
      </trkpt>
      <trkpt lat="37.855400" lon="-4.797333">
        <ele>151.956518</ele>
        <time>2020-08-13T06:12:44.408Z</time>
      </trkpt>
      <trkpt lat="37.855318" lon="-4.797459">
        <ele>151.873222</ele>
        <time>2020-08-13T06:12:47.416Z</time>
      </trkpt>
      <trkpt lat="37.855233" lon="-4.797536">
        <ele>151.799376</ele>
        <time>2020-08-13T06:12:49.405Z</time>
      </trkpt>
      <trkpt lat="37.855164" lon="-4.797636">
        <ele>151.709454</ele>
        <time>2020-08-13T06:12:51.402Z</time>
      </trkpt>
      <trkpt lat="37.855064" lon="-4.797740">
        <ele>151.598490</ele>
        <time>2020-08-13T06:12:54.408Z</time>
      </trkpt>
      <trkpt lat="37.854990" lon="-4.797823">
        <ele>151.513722</ele>
        <time>2020-08-13T06:12:56.408Z</time>
      </trkpt>
      <trkpt lat="37.854906" lon="-4.797900">
        <ele>151.424799</ele>
        <time>2020-08-13T06:12:58.417Z</time>
      </trkpt>
      <trkpt lat="37.854810" lon="-4.798029">
        <ele>151.304770</ele>
        <time>2020-08-13T06:13:01.412Z</time>
      </trkpt>
      <trkpt lat="37.854747" lon="-4.798120">
        <ele>151.222822</ele>
        <time>2020-08-13T06:13:03.402Z</time>
      </trkpt>
      <trkpt lat="37.854681" lon="-4.798198">
        <ele>151.145408</ele>
        <time>2020-08-13T06:13:05.410Z</time>
      </trkpt>
      <trkpt lat="37.854593" lon="-4.798324">
        <ele>151.031506</ele>
        <time>2020-08-13T06:13:08.403Z</time>
      </trkpt>
      <trkpt lat="37.854532" lon="-4.798414">
        <ele>150.951193</ele>
        <time>2020-08-13T06:13:10.410Z</time>
      </trkpt>
      <trkpt lat="37.854436" lon="-4.798508">
        <ele>150.847132</ele>
        <time>2020-08-13T06:13:13.409Z</time>
      </trkpt>
      <trkpt lat="37.854352" lon="-4.798605">
        <ele>150.749649</ele>
        <time>2020-08-13T06:13:15.425Z</time>
      </trkpt>
      <trkpt lat="37.854259" lon="-4.798667">
        <ele>150.659521</ele>
        <time>2020-08-13T06:13:17.404Z</time>
      </trkpt>
      <trkpt lat="37.854184" lon="-4.798738">
        <ele>150.579222</ele>
        <time>2020-08-13T06:13:19.411Z</time>
      </trkpt>
      <trkpt lat="37.854099" lon="-4.798853">
        <ele>150.472560</ele>
        <time>2020-08-13T06:13:22.406Z</time>
      </trkpt>
      <trkpt lat="37.853990" lon="-4.798946">
        <ele>150.359853</ele>
        <time>2020-08-13T06:13:25.413Z</time>
      </trkpt>
      <trkpt lat="37.853904" lon="-4.799071">
        <ele>150.179783</ele>
        <time>2020-08-13T06:13:28.397Z</time>
      </trkpt>
      <trkpt lat="37.853831" lon="-4.799159">
        <ele>149.925881</ele>
        <time>2020-08-13T06:13:30.401Z</time>
      </trkpt>
      <trkpt lat="37.853742" lon="-4.799221">
        <ele>149.669979</ele>
        <time>2020-08-13T06:13:32.399Z</time>
      </trkpt>
      <trkpt lat="37.853638" lon="-4.799326">
        <ele>149.334903</ele>
        <time>2020-08-13T06:13:35.408Z</time>
      </trkpt>
      <trkpt lat="37.853587" lon="-4.799427">
        <ele>149.096420</ele>
        <time>2020-08-13T06:13:37.404Z</time>
      </trkpt>
      <trkpt lat="37.853486" lon="-4.799495">
        <ele>148.808247</ele>
        <time>2020-08-13T06:13:39.401Z</time>
      </trkpt>
      <trkpt lat="37.853405" lon="-4.799568">
        <ele>148.557787</ele>
        <time>2020-08-13T06:13:41.402Z</time>
      </trkpt>
      <trkpt lat="37.853302" lon="-4.799620">
        <ele>148.278438</ele>
        <time>2020-08-13T06:13:43.422Z</time>
      </trkpt>
      <trkpt lat="37.853197" lon="-4.799660">
        <ele>148.002200</ele>
        <time>2020-08-13T06:13:45.410Z</time>
      </trkpt>
      <trkpt lat="37.853093" lon="-4.799701">
        <ele>147.727788</ele>
        <time>2020-08-13T06:13:47.423Z</time>
      </trkpt>
      <trkpt lat="37.853007" lon="-4.799779">
        <ele>147.461297</ele>
        <time>2020-08-13T06:13:49.399Z</time>
      </trkpt>
      <trkpt lat="37.852903" lon="-4.799816">
        <ele>147.189144</ele>
        <time>2020-08-13T06:13:51.419Z</time>
      </trkpt>
      <trkpt lat="37.852777" lon="-4.799845">
        <ele>146.866508</ele>
        <time>2020-08-13T06:13:53.398Z</time>
      </trkpt>
      <trkpt lat="37.852667" lon="-4.799926">
        <ele>146.545943</ele>
        <time>2020-08-13T06:13:56.414Z</time>
      </trkpt>
      <trkpt lat="37.852557" lon="-4.800009">
        <ele>146.223359</ele>
        <time>2020-08-13T06:13:59.415Z</time>
      </trkpt>
      <trkpt lat="37.852443" lon="-4.800072">
        <ele>145.910002</ele>
        <time>2020-08-13T06:14:02.424Z</time>
      </trkpt>
      <trkpt lat="37.852303" lon="-4.800129">
        <ele>145.638554</ele>
        <time>2020-08-13T06:14:05.398Z</time>
      </trkpt>
      <trkpt lat="37.852210" lon="-4.800175">
        <ele>145.504707</ele>
        <time>2020-08-13T06:14:07.402Z</time>
      </trkpt>
      <trkpt lat="37.852101" lon="-4.800209">
        <ele>145.354215</ele>
        <time>2020-08-13T06:14:09.423Z</time>
      </trkpt>
      <trkpt lat="37.852010" lon="-4.800242">
        <ele>145.227318</ele>
        <time>2020-08-13T06:14:11.420Z</time>
      </trkpt>
      <trkpt lat="37.851912" lon="-4.800249">
        <ele>145.095730</ele>
        <time>2020-08-13T06:14:13.425Z</time>
      </trkpt>
      <trkpt lat="37.851818" lon="-4.800281">
        <ele>144.965241</ele>
        <time>2020-08-13T06:14:15.403Z</time>
      </trkpt>
      <trkpt lat="37.851697" lon="-4.800274">
        <ele>144.802859</ele>
        <time>2020-08-13T06:14:17.418Z</time>
      </trkpt>
      <trkpt lat="37.851555" lon="-4.800317">
        <ele>144.607128</ele>
        <time>2020-08-13T06:14:20.416Z</time>
      </trkpt>
      <trkpt lat="37.851472" lon="-4.800374">
        <ele>144.480552</ele>
        <time>2020-08-13T06:14:22.412Z</time>
      </trkpt>
      <trkpt lat="37.851360" lon="-4.800376">
        <ele>144.330390</ele>
        <time>2020-08-13T06:14:24.400Z</time>
      </trkpt>
      <trkpt lat="37.851273" lon="-4.800432">
        <ele>144.199558</ele>
        <time>2020-08-13T06:14:26.414Z</time>
      </trkpt>
      <trkpt lat="37.851175" lon="-4.800438">
        <ele>144.068025</ele>
        <time>2020-08-13T06:14:28.421Z</time>
      </trkpt>
      <trkpt lat="37.851085" lon="-4.800511">
        <ele>143.924747</ele>
        <time>2020-08-13T06:14:30.415Z</time>
      </trkpt>
      <trkpt lat="37.851012" lon="-4.800585">
        <ele>143.799394</ele>
        <time>2020-08-13T06:14:32.413Z</time>
      </trkpt>
      <trkpt lat="37.850912" lon="-4.800613">
        <ele>143.662097</ele>
        <time>2020-08-13T06:14:34.410Z</time>
      </trkpt>
      <trkpt lat="37.850814" lon="-4.800646">
        <ele>143.526153</ele>
        <time>2020-08-13T06:14:36.398Z</time>
      </trkpt>
      <trkpt lat="37.850720" lon="-4.800690">
        <ele>143.391805</ele>
        <time>2020-08-13T06:14:38.419Z</time>
      </trkpt>
      <trkpt lat="37.850640" lon="-4.800758">
        <ele>143.319182</ele>
        <time>2020-08-13T06:14:40.415Z</time>
      </trkpt>
      <trkpt lat="37.850540" lon="-4.800797">
        <ele>143.281526</ele>
        <time>2020-08-13T06:14:42.420Z</time>
      </trkpt>
      <trkpt lat="37.850454" lon="-4.800838">
        <ele>143.248456</ele>
        <time>2020-08-13T06:14:44.412Z</time>
      </trkpt>
      <trkpt lat="37.850345" lon="-4.800883">
        <ele>143.207197</ele>
        <time>2020-08-13T06:14:46.416Z</time>
      </trkpt>
      <trkpt lat="37.850252" lon="-4.800953">
        <ele>143.168263</ele>
        <time>2020-08-13T06:14:48.415Z</time>
      </trkpt>
      <trkpt lat="37.850162" lon="-4.801015">
        <ele>143.131392</ele>
        <time>2020-08-13T06:14:50.401Z</time>
      </trkpt>
      <trkpt lat="37.850079" lon="-4.801074">
        <ele>143.097138</ele>
        <time>2020-08-13T06:14:52.417Z</time>
      </trkpt>
      <trkpt lat="37.849989" lon="-4.801158">
        <ele>143.056903</ele>
        <time>2020-08-13T06:14:55.433Z</time>
      </trkpt>
      <trkpt lat="37.849865" lon="-4.801220">
        <ele>143.008926</ele>
        <time>2020-08-13T06:14:58.409Z</time>
      </trkpt>
      <trkpt lat="37.849756" lon="-4.801294">
        <ele>142.964418</ele>
        <time>2020-08-13T06:15:01.417Z</time>
      </trkpt>
      <trkpt lat="37.849636" lon="-4.801358">
        <ele>142.917558</ele>
        <time>2020-08-13T06:15:04.427Z</time>
      </trkpt>
      <trkpt lat="37.849551" lon="-4.801405">
        <ele>142.884180</ele>
        <time>2020-08-13T06:15:06.414Z</time>
      </trkpt>
      <trkpt lat="37.849427" lon="-4.801478">
        <ele>142.834969</ele>
        <time>2020-08-13T06:15:09.420Z</time>
      </trkpt>
      <trkpt lat="37.849304" lon="-4.801504">
        <ele>142.790091</ele>
        <time>2020-08-13T06:15:12.406Z</time>
      </trkpt>
      <trkpt lat="37.849175" lon="-4.801521">
        <ele>142.743415</ele>
        <time>2020-08-13T06:15:15.410Z</time>
      </trkpt>
      <trkpt lat="37.849094" lon="-4.801580">
        <ele>142.709787</ele>
        <time>2020-08-13T06:15:17.417Z</time>
      </trkpt>
      <trkpt lat="37.849004" lon="-4.801611">
        <ele>142.718877</ele>
        <time>2020-08-13T06:15:19.409Z</time>
      </trkpt>
      <trkpt lat="37.848878" lon="-4.801641">
        <ele>142.792669</ele>
        <time>2020-08-13T06:15:22.411Z</time>
      </trkpt>
      <trkpt lat="37.848763" lon="-4.801661">
        <ele>142.859481</ele>
        <time>2020-08-13T06:15:25.415Z</time>
      </trkpt>
      <trkpt lat="37.848647" lon="-4.801714">
        <ele>142.930459</ele>
        <time>2020-08-13T06:15:28.399Z</time>
      </trkpt>
      <trkpt lat="37.848527" lon="-4.801756">
        <ele>143.002116</ele>
        <time>2020-08-13T06:15:31.413Z</time>
      </trkpt>
      <trkpt lat="37.848437" lon="-4.801780">
        <ele>143.055053</ele>
        <time>2020-08-13T06:15:33.420Z</time>
      </trkpt>
      <trkpt lat="37.848337" lon="-4.801873">
        <ele>143.126463</ele>
        <time>2020-08-13T06:15:36.406Z</time>
      </trkpt>
      <trkpt lat="37.848231" lon="-4.801903">
        <ele>143.188978</ele>
        <time>2020-08-13T06:15:39.415Z</time>
      </trkpt>
      <trkpt lat="37.848138" lon="-4.801904">
        <ele>143.242508</ele>
        <time>2020-08-13T06:15:41.418Z</time>
      </trkpt>
      <trkpt lat="37.848037" lon="-4.801933">
        <ele>143.302115</ele>
        <time>2020-08-13T06:15:45.421Z</time>
      </trkpt>
      <trkpt lat="37.847933" lon="-4.801950">
        <ele>143.362471</ele>
        <time>2020-08-13T06:15:49.412Z</time>
      </trkpt>
      <trkpt lat="37.847828" lon="-4.801969">
        <ele>143.423519</ele>
        <time>2020-08-13T06:15:53.416Z</time>
      </trkpt>
      <trkpt lat="37.847736" lon="-4.801941">
        <ele>143.477979</ele>
        <time>2020-08-13T06:15:56.408Z</time>
      </trkpt>
      <trkpt lat="37.847632" lon="-4.801935">
        <ele>143.537900</ele>
        <time>2020-08-13T06:16:00.417Z</time>
      </trkpt>
      <trkpt lat="37.847533" lon="-4.801953">
        <ele>143.595466</ele>
        <time>2020-08-13T06:16:04.425Z</time>
      </trkpt>
      <trkpt lat="37.847434" lon="-4.801960">
        <ele>143.652536</ele>
        <time>2020-08-13T06:16:07.413Z</time>
      </trkpt>
      <trkpt lat="37.847338" lon="-4.801972">
        <ele>143.708059</ele>
        <time>2020-08-13T06:16:10.404Z</time>
      </trkpt>
      <trkpt lat="37.847234" lon="-4.801979">
        <ele>143.860782</ele>
        <time>2020-08-13T06:16:14.413Z</time>
      </trkpt>
      <trkpt lat="37.847152" lon="-4.802081">
        <ele>144.079889</ele>
        <time>2020-08-13T06:16:19.398Z</time>
      </trkpt>
      <trkpt lat="37.847082" lon="-4.802187">
        <ele>144.287892</ele>
        <time>2020-08-13T06:16:23.425Z</time>
      </trkpt>
      <trkpt lat="37.846955" lon="-4.802206">
        <ele>144.531670</ele>
        <time>2020-08-13T06:16:27.409Z</time>
      </trkpt>
      <trkpt lat="37.846861" lon="-4.802205">
        <ele>144.710865</ele>
        <time>2020-08-13T06:16:30.409Z</time>
      </trkpt>
      <trkpt lat="37.846754" lon="-4.802219">
        <ele>144.915921</ele>
        <time>2020-08-13T06:16:35.415Z</time>
      </trkpt>
      <trkpt lat="37.846721" lon="-4.802105">
        <ele>145.098691</ele>
        <time>2020-08-13T06:16:39.401Z</time>
      </trkpt>
      <trkpt lat="37.846981" lon="-4.802010">
        <ele>145.614537</ele>
        <time>2020-08-13T06:17:39.415Z</time>
      </trkpt>
      <trkpt lat="37.846835" lon="-4.802027">
        <ele>145.894025</ele>
        <time>2020-08-13T06:17:45.414Z</time>
      </trkpt>
      <trkpt lat="37.846658" lon="-4.802059">
        <ele>146.234854</ele>
        <time>2020-08-13T06:17:53.422Z</time>
      </trkpt>
      <trkpt lat="37.846636" lon="-4.801934">
        <ele>146.427632</ele>
        <time>2020-08-13T06:18:02.420Z</time>
      </trkpt>
      <trkpt lat="37.846609" lon="-4.802055">
        <ele>146.616905</ele>
        <time>2020-08-13T06:18:15.405Z</time>
      </trkpt>
      <trkpt lat="37.846525" lon="-4.802125">
        <ele>146.808590</ele>
        <time>2020-08-13T06:18:24.410Z</time>
      </trkpt>
      <trkpt lat="37.846438" lon="-4.802206">
        <ele>147.014433</ele>
        <time>2020-08-13T06:18:29.406Z</time>
      </trkpt>
      <trkpt lat="37.846368" lon="-4.802294">
        <ele>147.176373</ele>
        <time>2020-08-13T06:18:34.417Z</time>
      </trkpt>
      <trkpt lat="37.846314" lon="-4.802393">
        <ele>147.254568</ele>
        <time>2020-08-13T06:18:39.415Z</time>
      </trkpt>
      <trkpt lat="37.846226" lon="-4.802433">
        <ele>147.331514</ele>
        <time>2020-08-13T06:18:43.428Z</time>
      </trkpt>
      <trkpt lat="37.846127" lon="-4.802475">
        <ele>147.417440</ele>
        <time>2020-08-13T06:18:47.417Z</time>
      </trkpt>
      <trkpt lat="37.846096" lon="-4.802620">
        <ele>147.515065</ele>
        <time>2020-08-13T06:18:52.408Z</time>
      </trkpt>
      <trkpt lat="37.846128" lon="-4.802749">
        <ele>147.602939</ele>
        <time>2020-08-13T06:18:55.408Z</time>
      </trkpt>
      <trkpt lat="37.846176" lon="-4.802869">
        <ele>147.690358</ele>
        <time>2020-08-13T06:18:58.423Z</time>
      </trkpt>
      <trkpt lat="37.846264" lon="-4.802983">
        <ele>147.793962</ele>
        <time>2020-08-13T06:19:01.411Z</time>
      </trkpt>
      <trkpt lat="37.846352" lon="-4.803091">
        <ele>147.894815</ele>
        <time>2020-08-13T06:19:04.417Z</time>
      </trkpt>
      <trkpt lat="37.846430" lon="-4.803204">
        <ele>147.992352</ele>
        <time>2020-08-13T06:19:06.422Z</time>
      </trkpt>
      <trkpt lat="37.846469" lon="-4.803360">
        <ele>148.098692</ele>
        <time>2020-08-13T06:19:08.422Z</time>
      </trkpt>
      <trkpt lat="37.846499" lon="-4.803506">
        <ele>148.196734</ele>
        <time>2020-08-13T06:19:10.412Z</time>
      </trkpt>
      <trkpt lat="37.846500" lon="-4.803675">
        <ele>148.306566</ele>
        <time>2020-08-13T06:19:12.412Z</time>
      </trkpt>
      <trkpt lat="37.846455" lon="-4.803811">
        <ele>148.402394</ele>
        <time>2020-08-13T06:19:14.418Z</time>
      </trkpt>
      <trkpt lat="37.846418" lon="-4.803978">
        <ele>148.515114</ele>
        <time>2020-08-13T06:19:17.415Z</time>
      </trkpt>
      <trkpt lat="37.846359" lon="-4.804083">
        <ele>148.598864</ele>
        <time>2020-08-13T06:19:19.405Z</time>
      </trkpt>
      <trkpt lat="37.846304" lon="-4.804177">
        <ele>148.797829</ele>
        <time>2020-08-13T06:19:21.416Z</time>
      </trkpt>
      <trkpt lat="37.846223" lon="-4.804281">
        <ele>149.199203</ele>
        <time>2020-08-13T06:19:24.421Z</time>
      </trkpt>
      <trkpt lat="37.846131" lon="-4.804295">
        <ele>149.521633</ele>
        <time>2020-08-13T06:19:37.425Z</time>
      </trkpt>
      <trkpt lat="37.846083" lon="-4.804197">
        <ele>149.838504</ele>
        <time>2020-08-13T06:19:44.415Z</time>
      </trkpt>
      <trkpt lat="37.846048" lon="-4.804087">
        <ele>150.164369</ele>
        <time>2020-08-13T06:19:51.408Z</time>
      </trkpt>
      <trkpt lat="37.845966" lon="-4.804034">
        <ele>150.484716</ele>
        <time>2020-08-13T06:20:07.423Z</time>
      </trkpt>
      <trkpt lat="37.845898" lon="-4.803951">
        <ele>150.813349</ele>
        <time>2020-08-13T06:20:22.417Z</time>
      </trkpt>
      <trkpt lat="37.845832" lon="-4.803861">
        <ele>151.150836</ele>
        <time>2020-08-13T06:20:33.419Z</time>
      </trkpt>
      <trkpt lat="37.845776" lon="-4.803768">
        <ele>151.472195</ele>
        <time>2020-08-13T06:20:42.408Z</time>
      </trkpt>
      <trkpt lat="37.845685" lon="-4.803748">
        <ele>151.793576</ele>
        <time>2020-08-13T06:20:55.407Z</time>
      </trkpt>
      <trkpt lat="37.845606" lon="-4.803670">
        <ele>152.142145</ele>
        <time>2020-08-13T06:20:59.405Z</time>
      </trkpt>
      <trkpt lat="37.845530" lon="-4.803596">
        <ele>152.475732</ele>
        <time>2020-08-13T06:21:02.418Z</time>
      </trkpt>
      <trkpt lat="37.845446" lon="-4.803542">
        <ele>152.803527</ele>
        <time>2020-08-13T06:21:05.412Z</time>
      </trkpt>
      <trkpt lat="37.845366" lon="-4.803482">
        <ele>153.127057</ele>
        <time>2020-08-13T06:21:08.409Z</time>
      </trkpt>
      <trkpt lat="37.845274" lon="-4.803398">
        <ele>153.521716</ele>
        <time>2020-08-13T06:21:12.411Z</time>
      </trkpt>
      <trkpt lat="37.845181" lon="-4.803327">
        <ele>153.899581</ele>
        <time>2020-08-13T06:21:16.412Z</time>
      </trkpt>
      <trkpt lat="37.845092" lon="-4.803271">
        <ele>154.245391</ele>
        <time>2020-08-13T06:21:20.411Z</time>
      </trkpt>
      <trkpt lat="37.844991" lon="-4.803227">
        <ele>154.617049</ele>
        <time>2020-08-13T06:21:24.411Z</time>
      </trkpt>
      <trkpt lat="37.844886" lon="-4.803241">
        <ele>154.936123</ele>
        <time>2020-08-13T06:21:28.406Z</time>
      </trkpt>
      <trkpt lat="37.844802" lon="-4.803314">
        <ele>155.098177</ele>
        <time>2020-08-13T06:21:32.422Z</time>
      </trkpt>
      <trkpt lat="37.844719" lon="-4.803396">
        <ele>155.265629</ele>
        <time>2020-08-13T06:21:36.419Z</time>
      </trkpt>
      <trkpt lat="37.844639" lon="-4.803480">
        <ele>155.430936</ele>
        <time>2020-08-13T06:21:40.422Z</time>
      </trkpt>
      <trkpt lat="37.844570" lon="-4.803560">
        <ele>155.579746</ele>
        <time>2020-08-13T06:21:44.421Z</time>
      </trkpt>
      <trkpt lat="37.844489" lon="-4.803659">
        <ele>155.758813</ele>
        <time>2020-08-13T06:21:49.417Z</time>
      </trkpt>
      <trkpt lat="37.844452" lon="-4.803780">
        <ele>155.921801</ele>
        <time>2020-08-13T06:21:54.409Z</time>
      </trkpt>
      <trkpt lat="37.844412" lon="-4.803902">
        <ele>156.087731</ele>
        <time>2020-08-13T06:21:59.413Z</time>
      </trkpt>
      <trkpt lat="37.844348" lon="-4.803992">
        <ele>156.239863</ele>
        <time>2020-08-13T06:22:03.421Z</time>
      </trkpt>
      <trkpt lat="37.844273" lon="-4.804079">
        <ele>156.401650</ele>
        <time>2020-08-13T06:22:07.414Z</time>
      </trkpt>
      <trkpt lat="37.844186" lon="-4.804137">
        <ele>156.558044</ele>
        <time>2020-08-13T06:22:11.397Z</time>
      </trkpt>
      <trkpt lat="37.843916" lon="-4.804278">
        <ele>157.022611</ele>
        <time>2020-08-13T06:23:04.411Z</time>
      </trkpt>
      <trkpt lat="37.843845" lon="-4.804376">
        <ele>157.189670</ele>
        <time>2020-08-13T06:23:23.404Z</time>
      </trkpt>
      <trkpt lat="37.843783" lon="-4.804481">
        <ele>157.354358</ele>
        <time>2020-08-13T06:23:26.410Z</time>
      </trkpt>
      <trkpt lat="37.843696" lon="-4.804558">
        <ele>157.523196</ele>
        <time>2020-08-13T06:23:29.411Z</time>
      </trkpt>
      <trkpt lat="37.843619" lon="-4.804617">
        <ele>157.666354</ele>
        <time>2020-08-13T06:23:31.419Z</time>
      </trkpt>
      <trkpt lat="37.843553" lon="-4.804697">
        <ele>157.951480</ele>
        <time>2020-08-13T06:23:33.412Z</time>
      </trkpt>
      <trkpt lat="37.843470" lon="-4.804813">
        <ele>158.646145</ele>
        <time>2020-08-13T06:23:36.414Z</time>
      </trkpt>
      <trkpt lat="37.843391" lon="-4.804899">
        <ele>159.231594</ele>
        <time>2020-08-13T06:23:39.404Z</time>
      </trkpt>
      <trkpt lat="37.843315" lon="-4.804962">
        <ele>159.742058</ele>
        <time>2020-08-13T06:23:42.424Z</time>
      </trkpt>
      <trkpt lat="37.843231" lon="-4.805026">
        <ele>160.292965</ele>
        <time>2020-08-13T06:23:45.428Z</time>
      </trkpt>
      <trkpt lat="37.843149" lon="-4.805106">
        <ele>160.874678</ele>
        <time>2020-08-13T06:23:49.447Z</time>
      </trkpt>
      <trkpt lat="37.843045" lon="-4.805158">
        <ele>161.503031</ele>
        <time>2020-08-13T06:23:53.418Z</time>
      </trkpt>
      <trkpt lat="37.842930" lon="-4.805176">
        <ele>162.154209</ele>
        <time>2020-08-13T06:23:57.412Z</time>
      </trkpt>
      <trkpt lat="37.842845" lon="-4.805234">
        <ele>162.696814</ele>
        <time>2020-08-13T06:24:01.419Z</time>
      </trkpt>
      <trkpt lat="37.842751" lon="-4.805301">
        <ele>163.302992</ele>
        <time>2020-08-13T06:24:06.421Z</time>
      </trkpt>
      <trkpt lat="37.842689" lon="-4.805383">
        <ele>163.806798</ele>
        <time>2020-08-13T06:24:10.418Z</time>
      </trkpt>
      <trkpt lat="37.842646" lon="-4.805511">
        <ele>164.424102</ele>
        <time>2020-08-13T06:24:15.420Z</time>
      </trkpt>
      <trkpt lat="37.842611" lon="-4.805639">
        <ele>165.025233</ele>
        <time>2020-08-13T06:24:20.421Z</time>
      </trkpt>
      <trkpt lat="37.842572" lon="-4.805763">
        <ele>165.617563</ele>
        <time>2020-08-13T06:24:25.426Z</time>
      </trkpt>
      <trkpt lat="37.842546" lon="-4.805891">
        <ele>166.204096</ele>
        <time>2020-08-13T06:24:30.418Z</time>
      </trkpt>
      <trkpt lat="37.842512" lon="-4.806016">
        <ele>166.790809</ele>
        <time>2020-08-13T06:24:35.426Z</time>
      </trkpt>
      <trkpt lat="37.842496" lon="-4.806130">
        <ele>167.304651</ele>
        <time>2020-08-13T06:24:40.417Z</time>
      </trkpt>
      <trkpt lat="37.842486" lon="-4.806253">
        <ele>167.853390</ele>
        <time>2020-08-13T06:24:45.413Z</time>
      </trkpt>
      <trkpt lat="37.842475" lon="-4.806373">
        <ele>168.336642</ele>
        <time>2020-08-13T06:24:50.429Z</time>
      </trkpt>
      <trkpt lat="37.842477" lon="-4.806497">
        <ele>168.831654</ele>
        <time>2020-08-13T06:24:54.417Z</time>
      </trkpt>
      <trkpt lat="37.842470" lon="-4.806616">
        <ele>169.307923</ele>
        <time>2020-08-13T06:24:58.432Z</time>
      </trkpt>
      <trkpt lat="37.842491" lon="-4.806750">
        <ele>169.853173</ele>
        <time>2020-08-13T06:25:03.404Z</time>
      </trkpt>
      <trkpt lat="37.842521" lon="-4.806870">
        <ele>170.355544</ele>
        <time>2020-08-13T06:25:08.424Z</time>
      </trkpt>
      <trkpt lat="37.842542" lon="-4.806999">
        <ele>170.881234</ele>
        <time>2020-08-13T06:25:13.410Z</time>
      </trkpt>
      <trkpt lat="37.842567" lon="-4.807127">
        <ele>171.407501</ele>
        <time>2020-08-13T06:25:18.412Z</time>
      </trkpt>
      <trkpt lat="37.842584" lon="-4.807241">
        <ele>171.870538</ele>
        <time>2020-08-13T06:25:22.420Z</time>
      </trkpt>
      <trkpt lat="37.842613" lon="-4.807368">
        <ele>172.398185</ele>
        <time>2020-08-13T06:25:26.414Z</time>
      </trkpt>
      <trkpt lat="37.842662" lon="-4.807481">
        <ele>172.912710</ele>
        <time>2020-08-13T06:25:30.408Z</time>
      </trkpt>
      <trkpt lat="37.842712" lon="-4.807587">
        <ele>173.405502</ele>
        <time>2020-08-13T06:25:34.416Z</time>
      </trkpt>
      <trkpt lat="37.842749" lon="-4.807729">
        <ele>174.002304</ele>
        <time>2020-08-13T06:25:38.417Z</time>
      </trkpt>
      <trkpt lat="37.842787" lon="-4.807867">
        <ele>174.585612</ele>
        <time>2020-08-13T06:25:42.411Z</time>
      </trkpt>
      <trkpt lat="37.842825" lon="-4.807998">
        <ele>175.142614</ele>
        <time>2020-08-13T06:25:45.415Z</time>
      </trkpt>
      <trkpt lat="37.842869" lon="-4.808114">
        <ele>175.656229</ele>
        <time>2020-08-13T06:25:47.419Z</time>
      </trkpt>
      <trkpt lat="37.842921" lon="-4.808214">
        <ele>176.134105</ele>
        <time>2020-08-13T06:25:49.422Z</time>
      </trkpt>
      <trkpt lat="37.842970" lon="-4.808332">
        <ele>176.666206</ele>
        <time>2020-08-13T06:25:51.416Z</time>
      </trkpt>
      <trkpt lat="37.843010" lon="-4.808439">
        <ele>176.926341</ele>
        <time>2020-08-13T06:25:53.416Z</time>
      </trkpt>
      <trkpt lat="37.843066" lon="-4.808563">
        <ele>176.838451</ele>
        <time>2020-08-13T06:25:55.414Z</time>
      </trkpt>
      <trkpt lat="37.843117" lon="-4.808698">
        <ele>176.746374</ele>
        <time>2020-08-13T06:25:57.422Z</time>
      </trkpt>
      <trkpt lat="37.843177" lon="-4.808832">
        <ele>176.651596</ele>
        <time>2020-08-13T06:25:59.414Z</time>
      </trkpt>
      <trkpt lat="37.843219" lon="-4.808976">
        <ele>176.557146</ele>
        <time>2020-08-13T06:26:01.416Z</time>
      </trkpt>
      <trkpt lat="37.843278" lon="-4.809111">
        <ele>176.462212</ele>
        <time>2020-08-13T06:26:03.421Z</time>
      </trkpt>
      <trkpt lat="37.843333" lon="-4.809271">
        <ele>176.354846</ele>
        <time>2020-08-13T06:26:05.424Z</time>
      </trkpt>
      <trkpt lat="37.843399" lon="-4.809423">
        <ele>176.248119</ele>
        <time>2020-08-13T06:26:07.413Z</time>
      </trkpt>
      <trkpt lat="37.843443" lon="-4.809589">
        <ele>176.140384</ele>
        <time>2020-08-13T06:26:09.420Z</time>
      </trkpt>
      <trkpt lat="37.843501" lon="-4.809734">
        <ele>176.040377</ele>
        <time>2020-08-13T06:26:11.421Z</time>
      </trkpt>
      <trkpt lat="37.843569" lon="-4.809890">
        <ele>175.930743</ele>
        <time>2020-08-13T06:26:13.421Z</time>
      </trkpt>
      <trkpt lat="37.843637" lon="-4.810044">
        <ele>175.822185</ele>
        <time>2020-08-13T06:26:15.411Z</time>
      </trkpt>
      <trkpt lat="37.843710" lon="-4.810195">
        <ele>175.713251</ele>
        <time>2020-08-13T06:26:17.417Z</time>
      </trkpt>
      <trkpt lat="37.843778" lon="-4.810353">
        <ele>175.602539</ele>
        <time>2020-08-13T06:26:19.420Z</time>
      </trkpt>
      <trkpt lat="37.843828" lon="-4.810498">
        <ele>175.533546</ele>
        <time>2020-08-13T06:26:21.420Z</time>
      </trkpt>
      <trkpt lat="37.843906" lon="-4.810651">
        <ele>175.487508</ele>
        <time>2020-08-13T06:26:23.427Z</time>
      </trkpt>
      <trkpt lat="37.843959" lon="-4.810803">
        <ele>175.445504</ele>
        <time>2020-08-13T06:26:25.421Z</time>
      </trkpt>
      <trkpt lat="37.844040" lon="-4.810977">
        <ele>175.394443</ele>
        <time>2020-08-13T06:26:27.419Z</time>
      </trkpt>
      <trkpt lat="37.844069" lon="-4.811118">
        <ele>175.357609</ele>
        <time>2020-08-13T06:26:29.431Z</time>
      </trkpt>
      <trkpt lat="37.844115" lon="-4.811275">
        <ele>175.315276</ele>
        <time>2020-08-13T06:26:31.418Z</time>
      </trkpt>
      <trkpt lat="37.844180" lon="-4.811402">
        <ele>175.277017</ele>
        <time>2020-08-13T06:26:33.421Z</time>
      </trkpt>
      <trkpt lat="37.844224" lon="-4.811545">
        <ele>175.238220</ele>
        <time>2020-08-13T06:26:35.420Z</time>
      </trkpt>
      <trkpt lat="37.844265" lon="-4.811658">
        <ele>175.206783</ele>
        <time>2020-08-13T06:26:37.419Z</time>
      </trkpt>
      <trkpt lat="37.844318" lon="-4.811782">
        <ele>175.171139</ele>
        <time>2020-08-13T06:26:39.413Z</time>
      </trkpt>
      <trkpt lat="37.844350" lon="-4.811890">
        <ele>175.141978</ele>
        <time>2020-08-13T06:26:41.420Z</time>
      </trkpt>
      <trkpt lat="37.844390" lon="-4.812055">
        <ele>175.098345</ele>
        <time>2020-08-13T06:26:44.410Z</time>
      </trkpt>
      <trkpt lat="37.844436" lon="-4.812198">
        <ele>175.059311</ele>
        <time>2020-08-13T06:26:46.418Z</time>
      </trkpt>
      <trkpt lat="37.844458" lon="-4.812354">
        <ele>175.019251</ele>
        <time>2020-08-13T06:26:49.418Z</time>
      </trkpt>
      <trkpt lat="37.844473" lon="-4.812519">
        <ele>174.981768</ele>
        <time>2020-08-13T06:26:52.424Z</time>
      </trkpt>
      <trkpt lat="37.844485" lon="-4.812641">
        <ele>175.475745</ele>
        <time>2020-08-13T06:26:54.414Z</time>
      </trkpt>
      <trkpt lat="37.844498" lon="-4.812756">
        <ele>175.942518</ele>
        <time>2020-08-13T06:26:56.419Z</time>
      </trkpt>
      <trkpt lat="37.844487" lon="-4.812929">
        <ele>176.639871</ele>
        <time>2020-08-13T06:26:58.412Z</time>
      </trkpt>
      <trkpt lat="37.844487" lon="-4.813056">
        <ele>177.150150</ele>
        <time>2020-08-13T06:27:00.411Z</time>
      </trkpt>
      <trkpt lat="37.844478" lon="-4.813196">
        <ele>177.714523</ele>
        <time>2020-08-13T06:27:02.420Z</time>
      </trkpt>
      <trkpt lat="37.844472" lon="-4.813335">
        <ele>178.273850</ele>
        <time>2020-08-13T06:27:04.423Z</time>
      </trkpt>
      <trkpt lat="37.844490" lon="-4.813463">
        <ele>178.796238</ele>
        <time>2020-08-13T06:27:06.420Z</time>
      </trkpt>
      <trkpt lat="37.844487" lon="-4.813578">
        <ele>179.258553</ele>
        <time>2020-08-13T06:27:08.418Z</time>
      </trkpt>
      <trkpt lat="37.844475" lon="-4.813714">
        <ele>179.808394</ele>
        <time>2020-08-13T06:27:10.421Z</time>
      </trkpt>
      <trkpt lat="37.844426" lon="-4.813875">
        <ele>180.501664</ele>
        <time>2020-08-13T06:27:13.419Z</time>
      </trkpt>
      <trkpt lat="37.844385" lon="-4.814031">
        <ele>181.162266</ele>
        <time>2020-08-13T06:27:16.416Z</time>
      </trkpt>
      <trkpt lat="37.844360" lon="-4.814150">
        <ele>181.657033</ele>
        <time>2020-08-13T06:27:18.421Z</time>
      </trkpt>
      <trkpt lat="37.844325" lon="-4.814262">
        <ele>182.140999</ele>
        <time>2020-08-13T06:27:20.409Z</time>
      </trkpt>
      <trkpt lat="37.844298" lon="-4.814390">
        <ele>182.673328</ele>
        <time>2020-08-13T06:27:22.416Z</time>
      </trkpt>
      <trkpt lat="37.844269" lon="-4.814508">
        <ele>183.169877</ele>
        <time>2020-08-13T06:27:24.414Z</time>
      </trkpt>
      <trkpt lat="37.844229" lon="-4.814628">
        <ele>183.693226</ele>
        <time>2020-08-13T06:27:26.421Z</time>
      </trkpt>
      <trkpt lat="37.844192" lon="-4.814742">
        <ele>184.036713</ele>
        <time>2020-08-13T06:27:28.427Z</time>
      </trkpt>
      <trkpt lat="37.844158" lon="-4.814850">
        <ele>183.308487</ele>
        <time>2020-08-13T06:27:30.421Z</time>
      </trkpt>
      <trkpt lat="37.844113" lon="-4.814961">
        <ele>182.526977</ele>
        <time>2020-08-13T06:27:32.416Z</time>
      </trkpt>
      <trkpt lat="37.844080" lon="-4.815083">
        <ele>181.719250</ele>
        <time>2020-08-13T06:27:34.413Z</time>
      </trkpt>
      <trkpt lat="37.844049" lon="-4.815194">
        <ele>180.981807</ele>
        <time>2020-08-13T06:27:36.422Z</time>
      </trkpt>
      <trkpt lat="37.844004" lon="-4.815328">
        <ele>180.069762</ele>
        <time>2020-08-13T06:27:38.418Z</time>
      </trkpt>
      <trkpt lat="37.843978" lon="-4.815454">
        <ele>179.254066</ele>
        <time>2020-08-13T06:27:40.420Z</time>
      </trkpt>
      <trkpt lat="37.843927" lon="-4.815579">
        <ele>178.372808</ele>
        <time>2020-08-13T06:27:42.414Z</time>
      </trkpt>
      <trkpt lat="37.843872" lon="-4.815721">
        <ele>177.382171</ele>
        <time>2020-08-13T06:27:44.415Z</time>
      </trkpt>
      <trkpt lat="37.843850" lon="-4.815850">
        <ele>176.555555</ele>
        <time>2020-08-13T06:27:46.427Z</time>
      </trkpt>
      <trkpt lat="37.843809" lon="-4.815986">
        <ele>175.643758</ele>
        <time>2020-08-13T06:27:48.425Z</time>
      </trkpt>
      <trkpt lat="37.843739" lon="-4.816156">
        <ele>174.442906</ele>
        <time>2020-08-13T06:27:50.417Z</time>
      </trkpt>
      <trkpt lat="37.843680" lon="-4.816326">
        <ele>173.279816</ele>
        <time>2020-08-13T06:27:52.418Z</time>
      </trkpt>
      <trkpt lat="37.843639" lon="-4.816428">
        <ele>172.562937</ele>
        <time>2020-08-13T06:27:53.420Z</time>
      </trkpt>
      <trkpt lat="37.843610" lon="-4.816538">
        <ele>171.836570</ele>
        <time>2020-08-13T06:27:54.417Z</time>
      </trkpt>
      <trkpt lat="37.843553" lon="-4.816738">
        <ele>170.504783</ele>
        <time>2020-08-13T06:27:56.417Z</time>
      </trkpt>
      <trkpt lat="37.843486" lon="-4.816933">
        <ele>169.640242</ele>
        <time>2020-08-13T06:27:58.413Z</time>
      </trkpt>
      <trkpt lat="37.843424" lon="-4.817145">
        <ele>169.183226</ele>
        <time>2020-08-13T06:28:00.416Z</time>
      </trkpt>
      <trkpt lat="37.843364" lon="-4.817343">
        <ele>168.754498</ele>
        <time>2020-08-13T06:28:02.419Z</time>
      </trkpt>
      <trkpt lat="37.843301" lon="-4.817562">
        <ele>168.283316</ele>
        <time>2020-08-13T06:28:04.413Z</time>
      </trkpt>
      <trkpt lat="37.843260" lon="-4.817775">
        <ele>167.840115</ele>
        <time>2020-08-13T06:28:06.418Z</time>
      </trkpt>
      <trkpt lat="37.843204" lon="-4.817903">
        <ele>167.544297</ele>
        <time>2020-08-13T06:28:07.411Z</time>
      </trkpt>
      <trkpt lat="37.843174" lon="-4.818097">
        <ele>167.144664</ele>
        <time>2020-08-13T06:28:09.418Z</time>
      </trkpt>
      <trkpt lat="37.843161" lon="-4.818217">
        <ele>166.899804</ele>
        <time>2020-08-13T06:28:10.420Z</time>
      </trkpt>
      <trkpt lat="37.843108" lon="-4.818438">
        <ele>166.432890</ele>
        <time>2020-08-13T06:28:12.403Z</time>
      </trkpt>
      <trkpt lat="37.843098" lon="-4.818652">
        <ele>165.999517</ele>
        <time>2020-08-13T06:28:14.416Z</time>
      </trkpt>
      <trkpt lat="37.843100" lon="-4.818865">
        <ele>165.568892</ele>
        <time>2020-08-13T06:28:16.414Z</time>
      </trkpt>
      <trkpt lat="37.843086" lon="-4.819067">
        <ele>165.238078</ele>
        <time>2020-08-13T06:28:18.421Z</time>
      </trkpt>
      <trkpt lat="37.843093" lon="-4.819183">
        <ele>165.189660</ele>
        <time>2020-08-13T06:28:19.419Z</time>
      </trkpt>
      <trkpt lat="37.843106" lon="-4.819402">
        <ele>165.098260</ele>
        <time>2020-08-13T06:28:21.417Z</time>
      </trkpt>
      <trkpt lat="37.843123" lon="-4.819632">
        <ele>165.002120</ele>
        <time>2020-08-13T06:28:23.417Z</time>
      </trkpt>
      <trkpt lat="37.843142" lon="-4.819846">
        <ele>164.912497</ele>
        <time>2020-08-13T06:28:25.418Z</time>
      </trkpt>
      <trkpt lat="37.843162" lon="-4.820065">
        <ele>164.820746</ele>
        <time>2020-08-13T06:28:27.424Z</time>
      </trkpt>
      <trkpt lat="37.843159" lon="-4.820291">
        <ele>164.726677</ele>
        <time>2020-08-13T06:28:29.417Z</time>
      </trkpt>
      <trkpt lat="37.843157" lon="-4.820415">
        <ele>164.675060</ele>
        <time>2020-08-13T06:28:30.420Z</time>
      </trkpt>
      <trkpt lat="37.843156" lon="-4.820540">
        <ele>164.623035</ele>
        <time>2020-08-13T06:28:31.411Z</time>
      </trkpt>
      <trkpt lat="37.843160" lon="-4.820662">
        <ele>164.572217</ele>
        <time>2020-08-13T06:28:32.425Z</time>
      </trkpt>
      <trkpt lat="37.843156" lon="-4.820879">
        <ele>164.481882</ele>
        <time>2020-08-13T06:28:34.418Z</time>
      </trkpt>
      <trkpt lat="37.843175" lon="-4.821108">
        <ele>164.386052</ele>
        <time>2020-08-13T06:28:36.414Z</time>
      </trkpt>
      <trkpt lat="37.843190" lon="-4.821337">
        <ele>164.262616</ele>
        <time>2020-08-13T06:28:38.415Z</time>
      </trkpt>
      <trkpt lat="37.843181" lon="-4.821558">
        <ele>164.044113</ele>
        <time>2020-08-13T06:28:40.424Z</time>
      </trkpt>
      <trkpt lat="37.843187" lon="-4.821788">
        <ele>163.816889</ele>
        <time>2020-08-13T06:28:42.417Z</time>
      </trkpt>
      <trkpt lat="37.843218" lon="-4.822003">
        <ele>163.601091</ele>
        <time>2020-08-13T06:28:44.420Z</time>
      </trkpt>
      <trkpt lat="37.843226" lon="-4.822118">
        <ele>163.487101</ele>
        <time>2020-08-13T06:28:45.399Z</time>
      </trkpt>
      <trkpt lat="37.843219" lon="-4.822371">
        <ele>163.237138</ele>
        <time>2020-08-13T06:28:47.421Z</time>
      </trkpt>
      <trkpt lat="37.843216" lon="-4.822497">
        <ele>163.112671</ele>
        <time>2020-08-13T06:28:48.420Z</time>
      </trkpt>
      <trkpt lat="37.843230" lon="-4.822720">
        <ele>162.891788</ele>
        <time>2020-08-13T06:28:50.424Z</time>
      </trkpt>
      <trkpt lat="37.843263" lon="-4.822830">
        <ele>162.775602</ele>
        <time>2020-08-13T06:28:51.417Z</time>
      </trkpt>
      <trkpt lat="37.843341" lon="-4.823034">
        <ele>162.551806</ele>
        <time>2020-08-13T06:28:53.418Z</time>
      </trkpt>
      <trkpt lat="37.843362" lon="-4.823168">
        <ele>162.416916</ele>
        <time>2020-08-13T06:28:54.417Z</time>
      </trkpt>
      <trkpt lat="37.843415" lon="-4.823274">
        <ele>162.293037</ele>
        <time>2020-08-13T06:28:55.419Z</time>
      </trkpt>
      <trkpt lat="37.843453" lon="-4.823382">
        <ele>162.176293</ele>
        <time>2020-08-13T06:28:56.413Z</time>
      </trkpt>
      <trkpt lat="37.843493" lon="-4.823488">
        <ele>162.059689</ele>
        <time>2020-08-13T06:28:57.408Z</time>
      </trkpt>
      <trkpt lat="37.843550" lon="-4.823601">
        <ele>161.872181</ele>
        <time>2020-08-13T06:28:58.411Z</time>
      </trkpt>
      <trkpt lat="37.843595" lon="-4.823709">
        <ele>161.701417</ele>
        <time>2020-08-13T06:28:59.416Z</time>
      </trkpt>
      <trkpt lat="37.843642" lon="-4.823820">
        <ele>161.525287</ele>
        <time>2020-08-13T06:29:00.431Z</time>
      </trkpt>
      <trkpt lat="37.843702" lon="-4.823921">
        <ele>161.348544</ele>
        <time>2020-08-13T06:29:01.416Z</time>
      </trkpt>
      <trkpt lat="37.843750" lon="-4.824034">
        <ele>161.169112</ele>
        <time>2020-08-13T06:29:02.422Z</time>
      </trkpt>
      <trkpt lat="37.843791" lon="-4.824142">
        <ele>161.001537</ele>
        <time>2020-08-13T06:29:03.417Z</time>
      </trkpt>
      <trkpt lat="37.843828" lon="-4.824252">
        <ele>160.834338</ele>
        <time>2020-08-13T06:29:04.423Z</time>
      </trkpt>
      <trkpt lat="37.843929" lon="-4.824437">
        <ele>160.519825</ele>
        <time>2020-08-13T06:29:06.409Z</time>
      </trkpt>
      <trkpt lat="37.843983" lon="-4.824537">
        <ele>160.350415</ele>
        <time>2020-08-13T06:29:07.419Z</time>
      </trkpt>
      <trkpt lat="37.844023" lon="-4.824639">
        <ele>160.191157</ele>
        <time>2020-08-13T06:29:08.418Z</time>
      </trkpt>
      <trkpt lat="37.844072" lon="-4.824747">
        <ele>160.016976</ele>
        <time>2020-08-13T06:29:09.414Z</time>
      </trkpt>
      <trkpt lat="37.844161" lon="-4.824928">
        <ele>159.718806</ele>
        <time>2020-08-13T06:29:11.411Z</time>
      </trkpt>
      <trkpt lat="37.844246" lon="-4.825118">
        <ele>159.413433</ele>
        <time>2020-08-13T06:29:13.415Z</time>
      </trkpt>
      <trkpt lat="37.844303" lon="-4.825272">
        <ele>159.175597</ele>
        <time>2020-08-13T06:29:15.422Z</time>
      </trkpt>
      <trkpt lat="37.844341" lon="-4.825460">
        <ele>158.904221</ele>
        <time>2020-08-13T06:29:17.413Z</time>
      </trkpt>
      <trkpt lat="37.844339" lon="-4.825678">
        <ele>158.785532</ele>
        <time>2020-08-13T06:29:19.415Z</time>
      </trkpt>
      <trkpt lat="37.844301" lon="-4.825897">
        <ele>158.682523</ele>
        <time>2020-08-13T06:29:21.419Z</time>
      </trkpt>
      <trkpt lat="37.844239" lon="-4.826074">
        <ele>158.593569</ele>
        <time>2020-08-13T06:29:23.415Z</time>
      </trkpt>
      <trkpt lat="37.844181" lon="-4.826167">
        <ele>158.539127</ele>
        <time>2020-08-13T06:29:24.427Z</time>
      </trkpt>
      <trkpt lat="37.844115" lon="-4.826271">
        <ele>158.477833</ele>
        <time>2020-08-13T06:29:25.416Z</time>
      </trkpt>
      <trkpt lat="37.843965" lon="-4.826404">
        <ele>158.371306</ele>
        <time>2020-08-13T06:29:27.410Z</time>
      </trkpt>
      <trkpt lat="37.843790" lon="-4.826517">
        <ele>158.257027</ele>
        <time>2020-08-13T06:29:29.415Z</time>
      </trkpt>
      <trkpt lat="37.843706" lon="-4.826567">
        <ele>158.203031</ele>
        <time>2020-08-13T06:29:30.422Z</time>
      </trkpt>
      <trkpt lat="37.843613" lon="-4.826604">
        <ele>158.146320</ele>
        <time>2020-08-13T06:29:31.432Z</time>
      </trkpt>
      <trkpt lat="37.843526" lon="-4.826645">
        <ele>158.092316</ele>
        <time>2020-08-13T06:29:32.422Z</time>
      </trkpt>
      <trkpt lat="37.843358" lon="-4.826745">
        <ele>157.984323</ele>
        <time>2020-08-13T06:29:34.402Z</time>
      </trkpt>
      <trkpt lat="37.843265" lon="-4.826790">
        <ele>157.926405</ele>
        <time>2020-08-13T06:29:35.420Z</time>
      </trkpt>
      <trkpt lat="37.843178" lon="-4.826854">
        <ele>157.867872</ele>
        <time>2020-08-13T06:29:36.418Z</time>
      </trkpt>
      <trkpt lat="37.843010" lon="-4.826942">
        <ele>157.355836</ele>
        <time>2020-08-13T06:29:38.415Z</time>
      </trkpt>
      <trkpt lat="37.842831" lon="-4.827028">
        <ele>156.580469</ele>
        <time>2020-08-13T06:29:40.434Z</time>
      </trkpt>
      <trkpt lat="37.842747" lon="-4.827085">
        <ele>156.194507</ele>
        <time>2020-08-13T06:29:41.417Z</time>
      </trkpt>
      <trkpt lat="37.842569" lon="-4.827147">
        <ele>155.446840</ele>
        <time>2020-08-13T06:29:43.429Z</time>
      </trkpt>
      <trkpt lat="37.842432" lon="-4.827214">
        <ele>154.852054</ele>
        <time>2020-08-13T06:29:45.426Z</time>
      </trkpt>
      <trkpt lat="37.842268" lon="-4.827293">
        <ele>154.141426</ele>
        <time>2020-08-13T06:29:47.421Z</time>
      </trkpt>
      <trkpt lat="37.842121" lon="-4.827383">
        <ele>153.480148</ele>
        <time>2020-08-13T06:29:49.421Z</time>
      </trkpt>
      <trkpt lat="37.841975" lon="-4.827461">
        <ele>152.838383</ele>
        <time>2020-08-13T06:29:51.407Z</time>
      </trkpt>
      <trkpt lat="37.841866" lon="-4.827546">
        <ele>152.319945</ele>
        <time>2020-08-13T06:29:53.413Z</time>
      </trkpt>
      <trkpt lat="37.841740" lon="-4.827640">
        <ele>151.727674</ele>
        <time>2020-08-13T06:29:55.415Z</time>
      </trkpt>
      <trkpt lat="37.841646" lon="-4.827737">
        <ele>151.236578</ele>
        <time>2020-08-13T06:29:57.404Z</time>
      </trkpt>
      <trkpt lat="37.841540" lon="-4.827831">
        <ele>150.712480</ele>
        <time>2020-08-13T06:29:59.407Z</time>
      </trkpt>
      <trkpt lat="37.841442" lon="-4.827923">
        <ele>150.532885</ele>
        <time>2020-08-13T06:30:01.415Z</time>
      </trkpt>
      <trkpt lat="37.841344" lon="-4.828018">
        <ele>150.513141</ele>
        <time>2020-08-13T06:30:03.402Z</time>
      </trkpt>
      <trkpt lat="37.841226" lon="-4.828106">
        <ele>150.491233</ele>
        <time>2020-08-13T06:30:05.415Z</time>
      </trkpt>
      <trkpt lat="37.841144" lon="-4.828200">
        <ele>150.473538</ele>
        <time>2020-08-13T06:30:07.420Z</time>
      </trkpt>
      <trkpt lat="37.841051" lon="-4.828266">
        <ele>150.456483</ele>
        <time>2020-08-13T06:30:09.423Z</time>
      </trkpt>
      <trkpt lat="37.840972" lon="-4.828337">
        <ele>150.440985</ele>
        <time>2020-08-13T06:30:11.417Z</time>
      </trkpt>
      <trkpt lat="37.840882" lon="-4.828444">
        <ele>150.421236</ele>
        <time>2020-08-13T06:30:13.418Z</time>
      </trkpt>
      <trkpt lat="37.840814" lon="-4.828535">
        <ele>150.405409</ele>
        <time>2020-08-13T06:30:15.419Z</time>
      </trkpt>
      <trkpt lat="37.840712" lon="-4.828619">
        <ele>150.385944</ele>
        <time>2020-08-13T06:30:17.422Z</time>
      </trkpt>
      <trkpt lat="37.840640" lon="-4.828716">
        <ele>150.369126</ele>
        <time>2020-08-13T06:30:19.411Z</time>
      </trkpt>
      <trkpt lat="37.840548" lon="-4.828818">
        <ele>150.349564</ele>
        <time>2020-08-13T06:30:21.420Z</time>
      </trkpt>
      <trkpt lat="37.840472" lon="-4.828916">
        <ele>150.332211</ele>
        <time>2020-08-13T06:30:23.413Z</time>
      </trkpt>
      <trkpt lat="37.840384" lon="-4.829008">
        <ele>150.313955</ele>
        <time>2020-08-13T06:30:25.415Z</time>
      </trkpt>
      <trkpt lat="37.840301" lon="-4.829080">
        <ele>150.297860</ele>
        <time>2020-08-13T06:30:27.417Z</time>
      </trkpt>
      <trkpt lat="37.840234" lon="-4.829167">
        <ele>150.282508</ele>
        <time>2020-08-13T06:30:29.417Z</time>
      </trkpt>
      <trkpt lat="37.840152" lon="-4.829253">
        <ele>150.265475</ele>
        <time>2020-08-13T06:30:31.415Z</time>
      </trkpt>
      <trkpt lat="37.840058" lon="-4.829314">
        <ele>150.235947</ele>
        <time>2020-08-13T06:30:33.416Z</time>
      </trkpt>
      <trkpt lat="37.839995" lon="-4.829398">
        <ele>150.201855</ele>
        <time>2020-08-13T06:30:35.420Z</time>
      </trkpt>
      <trkpt lat="37.839925" lon="-4.829479">
        <ele>150.166518</ele>
        <time>2020-08-13T06:30:37.421Z</time>
      </trkpt>
      <trkpt lat="37.839865" lon="-4.829574">
        <ele>150.130719</ele>
        <time>2020-08-13T06:30:39.412Z</time>
      </trkpt>
      <trkpt lat="37.839757" lon="-4.829666">
        <ele>150.082213</ele>
        <time>2020-08-13T06:30:41.420Z</time>
      </trkpt>
      <trkpt lat="37.839672" lon="-4.829756">
        <ele>150.040923</ele>
        <time>2020-08-13T06:30:43.417Z</time>
      </trkpt>
      <trkpt lat="37.839575" lon="-4.829877">
        <ele>149.990182</ele>
        <time>2020-08-13T06:30:46.418Z</time>
      </trkpt>
      <trkpt lat="37.839481" lon="-4.829933">
        <ele>149.951470</ele>
        <time>2020-08-13T06:30:48.425Z</time>
      </trkpt>
      <trkpt lat="37.839397" lon="-4.830019">
        <ele>149.911215</ele>
        <time>2020-08-13T06:30:50.422Z</time>
      </trkpt>
      <trkpt lat="37.839328" lon="-4.830122">
        <ele>149.871466</ele>
        <time>2020-08-13T06:30:52.427Z</time>
      </trkpt>
      <trkpt lat="37.839236" lon="-4.830195">
        <ele>149.831007</ele>
        <time>2020-08-13T06:30:54.424Z</time>
      </trkpt>
      <trkpt lat="37.839134" lon="-4.830292">
        <ele>149.783471</ele>
        <time>2020-08-13T06:30:56.417Z</time>
      </trkpt>
      <trkpt lat="37.839039" lon="-4.830365">
        <ele>149.742060</ele>
        <time>2020-08-13T06:30:58.417Z</time>
      </trkpt>
      <trkpt lat="37.838960" lon="-4.830479">
        <ele>149.697425</ele>
        <time>2020-08-13T06:31:00.436Z</time>
      </trkpt>
      <trkpt lat="37.838880" lon="-4.830580">
        <ele>149.655327</ele>
        <time>2020-08-13T06:31:02.415Z</time>
      </trkpt>
      <trkpt lat="37.838793" lon="-4.830668">
        <ele>149.613832</ele>
        <time>2020-08-13T06:31:04.427Z</time>
      </trkpt>
      <trkpt lat="37.838697" lon="-4.830805">
        <ele>149.694703</ele>
        <time>2020-08-13T06:31:07.421Z</time>
      </trkpt>
      <trkpt lat="37.838638" lon="-4.830908">
        <ele>149.838265</ele>
        <time>2020-08-13T06:31:09.418Z</time>
      </trkpt>
      <trkpt lat="37.838568" lon="-4.830981">
        <ele>149.967821</ele>
        <time>2020-08-13T06:31:11.418Z</time>
      </trkpt>
      <trkpt lat="37.838493" lon="-4.831061">
        <ele>150.107922</ele>
        <time>2020-08-13T06:31:13.418Z</time>
      </trkpt>
      <trkpt lat="37.838412" lon="-4.831157">
        <ele>150.266425</ele>
        <time>2020-08-13T06:31:15.427Z</time>
      </trkpt>
      <trkpt lat="37.838335" lon="-4.831263">
        <ele>150.428920</ele>
        <time>2020-08-13T06:31:17.403Z</time>
      </trkpt>
      <trkpt lat="37.838248" lon="-4.831352">
        <ele>150.588708</ele>
        <time>2020-08-13T06:31:19.410Z</time>
      </trkpt>
      <trkpt lat="37.838167" lon="-4.831422">
        <ele>150.728812</ele>
        <time>2020-08-13T06:31:21.410Z</time>
      </trkpt>
      <trkpt lat="37.838109" lon="-4.831514">
        <ele>150.861631</ele>
        <time>2020-08-13T06:31:23.403Z</time>
      </trkpt>
      <trkpt lat="37.838019" lon="-4.831584">
        <ele>151.012529</ele>
        <time>2020-08-13T06:31:25.422Z</time>
      </trkpt>
      <trkpt lat="37.837942" lon="-4.831653">
        <ele>151.147296</ele>
        <time>2020-08-13T06:31:27.419Z</time>
      </trkpt>
      <trkpt lat="37.837872" lon="-4.831776">
        <ele>151.318354</ele>
        <time>2020-08-13T06:31:30.419Z</time>
      </trkpt>
      <trkpt lat="37.837788" lon="-4.831855">
        <ele>151.467841</ele>
        <time>2020-08-13T06:31:32.407Z</time>
      </trkpt>
      <trkpt lat="37.837684" lon="-4.831966">
        <ele>151.662163</ele>
        <time>2020-08-13T06:31:35.403Z</time>
      </trkpt>
      <trkpt lat="37.837583" lon="-4.832026">
        <ele>151.821548</ele>
        <time>2020-08-13T06:31:37.424Z</time>
      </trkpt>
      <trkpt lat="37.837509" lon="-4.832107">
        <ele>151.961295</ele>
        <time>2020-08-13T06:31:39.422Z</time>
      </trkpt>
      <trkpt lat="37.837416" lon="-4.832191">
        <ele>152.124499</ele>
        <time>2020-08-13T06:31:41.420Z</time>
      </trkpt>
      <trkpt lat="37.837354" lon="-4.832312">
        <ele>152.168529</ele>
        <time>2020-08-13T06:31:44.420Z</time>
      </trkpt>
      <trkpt lat="37.837245" lon="-4.832413">
        <ele>152.184998</ele>
        <time>2020-08-13T06:31:47.432Z</time>
      </trkpt>
      <trkpt lat="37.837169" lon="-4.832528">
        <ele>152.199437</ele>
        <time>2020-08-13T06:31:50.413Z</time>
      </trkpt>
      <trkpt lat="37.837104" lon="-4.832621">
        <ele>152.211396</ele>
        <time>2020-08-13T06:31:52.418Z</time>
      </trkpt>
      <trkpt lat="37.837037" lon="-4.832724">
        <ele>152.224246</ele>
        <time>2020-08-13T06:31:54.423Z</time>
      </trkpt>
      <trkpt lat="37.836949" lon="-4.832821">
        <ele>152.238472</ele>
        <time>2020-08-13T06:31:56.416Z</time>
      </trkpt>
      <trkpt lat="37.836879" lon="-4.832896">
        <ele>152.249653</ele>
        <time>2020-08-13T06:31:58.417Z</time>
      </trkpt>
      <trkpt lat="37.836807" lon="-4.832976">
        <ele>152.261332</ele>
        <time>2020-08-13T06:32:00.411Z</time>
      </trkpt>
      <trkpt lat="37.836729" lon="-4.833095">
        <ele>152.276224</ele>
        <time>2020-08-13T06:32:03.410Z</time>
      </trkpt>
      <trkpt lat="37.836666" lon="-4.833193">
        <ele>152.288392</ele>
        <time>2020-08-13T06:32:05.421Z</time>
      </trkpt>
      <trkpt lat="37.836592" lon="-4.833259">
        <ele>152.299429</ele>
        <time>2020-08-13T06:32:07.419Z</time>
      </trkpt>
      <trkpt lat="37.836506" lon="-4.833343">
        <ele>152.312672</ele>
        <time>2020-08-13T06:32:09.415Z</time>
      </trkpt>
      <trkpt lat="37.836434" lon="-4.833414">
        <ele>152.323799</ele>
        <time>2020-08-13T06:32:11.420Z</time>
      </trkpt>
      <trkpt lat="37.836339" lon="-4.833538">
        <ele>152.340435</ele>
        <time>2020-08-13T06:32:14.412Z</time>
      </trkpt>
      <trkpt lat="37.836254" lon="-4.833618">
        <ele>152.353349</ele>
        <time>2020-08-13T06:32:16.399Z</time>
      </trkpt>
      <trkpt lat="37.836189" lon="-4.833716">
        <ele>152.365673</ele>
        <time>2020-08-13T06:32:18.419Z</time>
      </trkpt>
      <trkpt lat="37.836117" lon="-4.833810">
        <ele>152.379293</ele>
        <time>2020-08-13T06:32:20.417Z</time>
      </trkpt>
      <trkpt lat="37.836051" lon="-4.833898">
        <ele>152.398740</ele>
        <time>2020-08-13T06:32:22.419Z</time>
      </trkpt>
      <trkpt lat="37.835970" lon="-4.833974">
        <ele>152.419196</ele>
        <time>2020-08-13T06:32:24.418Z</time>
      </trkpt>
      <trkpt lat="37.835906" lon="-4.834082">
        <ele>152.440833</ele>
        <time>2020-08-13T06:32:26.416Z</time>
      </trkpt>
      <trkpt lat="37.835841" lon="-4.834177">
        <ele>152.460975</ele>
        <time>2020-08-13T06:32:28.411Z</time>
      </trkpt>
      <trkpt lat="37.835754" lon="-4.834271">
        <ele>152.484181</ele>
        <time>2020-08-13T06:32:30.410Z</time>
      </trkpt>
      <trkpt lat="37.835640" lon="-4.834353">
        <ele>152.510784</ele>
        <time>2020-08-13T06:32:32.427Z</time>
      </trkpt>
      <trkpt lat="37.835568" lon="-4.834457">
        <ele>152.532946</ele>
        <time>2020-08-13T06:32:34.423Z</time>
      </trkpt>
      <trkpt lat="37.835486" lon="-4.834544">
        <ele>152.554653</ele>
        <time>2020-08-13T06:32:36.422Z</time>
      </trkpt>
      <trkpt lat="37.835384" lon="-4.834644">
        <ele>152.580828</ele>
        <time>2020-08-13T06:32:39.416Z</time>
      </trkpt>
      <trkpt lat="37.835303" lon="-4.834725">
        <ele>152.601771</ele>
        <time>2020-08-13T06:32:41.419Z</time>
      </trkpt>
      <trkpt lat="37.835197" lon="-4.834806">
        <ele>152.626892</ele>
        <time>2020-08-13T06:32:43.417Z</time>
      </trkpt>
      <trkpt lat="37.835090" lon="-4.834892">
        <ele>152.652608</ele>
        <time>2020-08-13T06:32:45.425Z</time>
      </trkpt>
      <trkpt lat="37.835011" lon="-4.834978">
        <ele>152.673747</ele>
        <time>2020-08-13T06:32:47.421Z</time>
      </trkpt>
      <trkpt lat="37.834925" lon="-4.835076">
        <ele>152.697223</ele>
        <time>2020-08-13T06:32:49.422Z</time>
      </trkpt>
      <trkpt lat="37.834843" lon="-4.835182">
        <ele>152.721001</ele>
        <time>2020-08-13T06:32:51.421Z</time>
      </trkpt>
      <trkpt lat="37.834772" lon="-4.835286">
        <ele>152.741273</ele>
        <time>2020-08-13T06:32:53.423Z</time>
      </trkpt>
      <trkpt lat="37.834683" lon="-4.835378">
        <ele>152.733472</ele>
        <time>2020-08-13T06:32:55.416Z</time>
      </trkpt>
      <trkpt lat="37.834611" lon="-4.835496">
        <ele>152.725475</ele>
        <time>2020-08-13T06:32:57.418Z</time>
      </trkpt>
      <trkpt lat="37.834536" lon="-4.835586">
        <ele>152.718459</ele>
        <time>2020-08-13T06:32:59.420Z</time>
      </trkpt>
      <trkpt lat="37.834434" lon="-4.835661">
        <ele>152.710450</ele>
        <time>2020-08-13T06:33:01.416Z</time>
      </trkpt>
      <trkpt lat="37.834337" lon="-4.835746">
        <ele>152.702441</ele>
        <time>2020-08-13T06:33:03.417Z</time>
      </trkpt>
      <trkpt lat="37.834239" lon="-4.835834">
        <ele>152.694283</ele>
        <time>2020-08-13T06:33:05.425Z</time>
      </trkpt>
      <trkpt lat="37.834156" lon="-4.835939">
        <ele>152.686317</ele>
        <time>2020-08-13T06:33:07.419Z</time>
      </trkpt>
      <trkpt lat="37.834058" lon="-4.836019">
        <ele>152.678399</ele>
        <time>2020-08-13T06:33:09.417Z</time>
      </trkpt>
      <trkpt lat="37.833991" lon="-4.836142">
        <ele>152.670387</ele>
        <time>2020-08-13T06:33:11.417Z</time>
      </trkpt>
      <trkpt lat="37.833939" lon="-4.836254">
        <ele>152.663420</ele>
        <time>2020-08-13T06:33:13.422Z</time>
      </trkpt>
      <trkpt lat="37.833876" lon="-4.836364">
        <ele>152.656133</ele>
        <time>2020-08-13T06:33:15.423Z</time>
      </trkpt>
      <trkpt lat="37.833838" lon="-4.836480">
        <ele>152.649398</ele>
        <time>2020-08-13T06:33:17.417Z</time>
      </trkpt>
      <trkpt lat="37.833776" lon="-4.836585">
        <ele>152.642368</ele>
        <time>2020-08-13T06:33:19.416Z</time>
      </trkpt>
      <trkpt lat="37.833695" lon="-4.836672">
        <ele>152.635156</ele>
        <time>2020-08-13T06:33:21.423Z</time>
      </trkpt>
      <trkpt lat="37.833634" lon="-4.836771">
        <ele>152.628422</ele>
        <time>2020-08-13T06:33:23.417Z</time>
      </trkpt>
      <trkpt lat="37.833591" lon="-4.836885">
        <ele>152.621647</ele>
        <time>2020-08-13T06:33:25.411Z</time>
      </trkpt>
      <trkpt lat="37.833506" lon="-4.836986">
        <ele>152.573892</ele>
        <time>2020-08-13T06:33:27.413Z</time>
      </trkpt>
      <trkpt lat="37.833446" lon="-4.837091">
        <ele>152.519647</ele>
        <time>2020-08-13T06:33:29.424Z</time>
      </trkpt>
      <trkpt lat="37.833369" lon="-4.837196">
        <ele>152.459674</ele>
        <time>2020-08-13T06:33:31.419Z</time>
      </trkpt>
      <trkpt lat="37.833302" lon="-4.837296">
        <ele>152.404786</ele>
        <time>2020-08-13T06:33:33.417Z</time>
      </trkpt>
      <trkpt lat="37.833227" lon="-4.837418">
        <ele>152.340076</ele>
        <time>2020-08-13T06:33:35.415Z</time>
      </trkpt>
      <trkpt lat="37.833165" lon="-4.837524">
        <ele>152.284867</ele>
        <time>2020-08-13T06:33:37.417Z</time>
      </trkpt>
      <trkpt lat="37.833071" lon="-4.837666">
        <ele>152.207316</ele>
        <time>2020-08-13T06:33:40.416Z</time>
      </trkpt>
      <trkpt lat="37.832980" lon="-4.837756">
        <ele>152.146121</ele>
        <time>2020-08-13T06:33:42.420Z</time>
      </trkpt>
      <trkpt lat="37.832936" lon="-4.837867">
        <ele>152.094137</ele>
        <time>2020-08-13T06:33:44.403Z</time>
      </trkpt>
      <trkpt lat="37.832865" lon="-4.837970">
        <ele>152.036914</ele>
        <time>2020-08-13T06:33:46.421Z</time>
      </trkpt>
      <trkpt lat="37.832789" lon="-4.838094">
        <ele>151.971218</ele>
        <time>2020-08-13T06:33:49.417Z</time>
      </trkpt>
      <trkpt lat="37.832749" lon="-4.838196">
        <ele>151.923551</ele>
        <time>2020-08-13T06:33:51.414Z</time>
      </trkpt>
      <trkpt lat="37.832692" lon="-4.838328">
        <ele>151.860582</ele>
        <time>2020-08-13T06:33:54.415Z</time>
      </trkpt>
      <trkpt lat="37.832638" lon="-4.838423">
        <ele>151.811591</ele>
        <time>2020-08-13T06:33:56.412Z</time>
      </trkpt>
      <trkpt lat="37.832555" lon="-4.838513">
        <ele>151.753678</ele>
        <time>2020-08-13T06:33:59.420Z</time>
      </trkpt>
      <trkpt lat="37.832475" lon="-4.838569">
        <ele>151.705234</ele>
        <time>2020-08-13T06:34:02.414Z</time>
      </trkpt>
      <trkpt lat="37.832304" lon="-4.838574">
        <ele>151.662979</ele>
        <time>2020-08-13T06:34:05.420Z</time>
      </trkpt>
      <trkpt lat="37.832208" lon="-4.838661">
        <ele>151.658868</ele>
        <time>2020-08-13T06:34:08.414Z</time>
      </trkpt>
      <trkpt lat="37.832116" lon="-4.838705">
        <ele>151.655444</ele>
        <time>2020-08-13T06:34:10.420Z</time>
      </trkpt>
      <trkpt lat="37.832058" lon="-4.838841">
        <ele>151.651193</ele>
        <time>2020-08-13T06:34:13.419Z</time>
      </trkpt>
      <trkpt lat="37.831972" lon="-4.838945">
        <ele>151.647052</ele>
        <time>2020-08-13T06:34:17.414Z</time>
      </trkpt>
      <trkpt lat="37.831906" lon="-4.839026">
        <ele>151.643852</ele>
        <time>2020-08-13T06:34:20.413Z</time>
      </trkpt>
      <trkpt lat="37.831838" lon="-4.839118">
        <ele>151.640387</ele>
        <time>2020-08-13T06:34:23.425Z</time>
      </trkpt>
      <trkpt lat="37.831777" lon="-4.839239">
        <ele>151.636439</ele>
        <time>2020-08-13T06:34:26.416Z</time>
      </trkpt>
      <trkpt lat="37.831706" lon="-4.839358">
        <ele>151.632338</ele>
        <time>2020-08-13T06:34:29.424Z</time>
      </trkpt>
      <trkpt lat="37.831616" lon="-4.839491">
        <ele>151.627521</ele>
        <time>2020-08-13T06:34:32.421Z</time>
      </trkpt>
      <trkpt lat="37.831560" lon="-4.839597">
        <ele>151.624014</ele>
        <time>2020-08-13T06:34:34.410Z</time>
      </trkpt>
      <trkpt lat="37.831534" lon="-4.839723">
        <ele>151.620432</ele>
        <time>2020-08-13T06:34:36.414Z</time>
      </trkpt>
      <trkpt lat="37.831463" lon="-4.839811">
        <ele>151.616973</ele>
        <time>2020-08-13T06:34:38.416Z</time>
      </trkpt>
      <trkpt lat="37.831426" lon="-4.839921">
        <ele>151.613685</ele>
        <time>2020-08-13T06:34:40.398Z</time>
      </trkpt>
      <trkpt lat="37.831359" lon="-4.840004">
        <ele>151.610421</ele>
        <time>2020-08-13T06:34:42.407Z</time>
      </trkpt>
      <trkpt lat="37.831291" lon="-4.840117">
        <ele>151.606514</ele>
        <time>2020-08-13T06:34:44.428Z</time>
      </trkpt>
      <trkpt lat="37.831233" lon="-4.840228">
        <ele>151.624050</ele>
        <time>2020-08-13T06:34:46.415Z</time>
      </trkpt>
      <trkpt lat="37.831128" lon="-4.840364">
        <ele>151.741998</ele>
        <time>2020-08-13T06:34:49.408Z</time>
      </trkpt>
      <trkpt lat="37.831078" lon="-4.840494">
        <ele>151.831674</ele>
        <time>2020-08-13T06:34:51.408Z</time>
      </trkpt>
      <trkpt lat="37.831011" lon="-4.840575">
        <ele>151.904415</ele>
        <time>2020-08-13T06:34:53.414Z</time>
      </trkpt>
      <trkpt lat="37.830966" lon="-4.840675">
        <ele>151.975793</ele>
        <time>2020-08-13T06:34:55.409Z</time>
      </trkpt>
      <trkpt lat="37.830876" lon="-4.840795">
        <ele>152.078423</ele>
        <time>2020-08-13T06:34:58.408Z</time>
      </trkpt>
      <trkpt lat="37.830827" lon="-4.840925">
        <ele>152.167758</ele>
        <time>2020-08-13T06:35:01.415Z</time>
      </trkpt>
      <trkpt lat="37.830731" lon="-4.841022">
        <ele>152.264201</ele>
        <time>2020-08-13T06:35:04.408Z</time>
      </trkpt>
      <trkpt lat="37.830646" lon="-4.841074">
        <ele>152.338328</ele>
        <time>2020-08-13T06:35:06.416Z</time>
      </trkpt>
      <trkpt lat="37.830563" lon="-4.841137">
        <ele>152.414316</ele>
        <time>2020-08-13T06:35:08.421Z</time>
      </trkpt>
      <trkpt lat="37.830456" lon="-4.841187">
        <ele>152.503874</ele>
        <time>2020-08-13T06:35:10.417Z</time>
      </trkpt>
      <trkpt lat="37.830361" lon="-4.841318">
        <ele>152.614170</ele>
        <time>2020-08-13T06:35:13.411Z</time>
      </trkpt>
      <trkpt lat="37.830271" lon="-4.841386">
        <ele>152.696467</ele>
        <time>2020-08-13T06:35:15.411Z</time>
      </trkpt>
      <trkpt lat="37.830184" lon="-4.841510">
        <ele>152.799331</ele>
        <time>2020-08-13T06:35:18.415Z</time>
      </trkpt>
      <trkpt lat="37.830079" lon="-4.841616">
        <ele>152.904780</ele>
        <time>2020-08-13T06:35:21.425Z</time>
      </trkpt>
      <trkpt lat="37.829970" lon="-4.841676">
        <ele>152.998109</ele>
        <time>2020-08-13T06:35:23.409Z</time>
      </trkpt>
      <trkpt lat="37.829894" lon="-4.841747">
        <ele>152.939298</ele>
        <time>2020-08-13T06:35:25.424Z</time>
      </trkpt>
      <trkpt lat="37.829803" lon="-4.841822">
        <ele>152.822781</ele>
        <time>2020-08-13T06:35:28.410Z</time>
      </trkpt>
      <trkpt lat="37.829694" lon="-4.841879">
        <ele>152.696231</ele>
        <time>2020-08-13T06:35:30.421Z</time>
      </trkpt>
      <trkpt lat="37.829581" lon="-4.841921">
        <ele>152.569856</ele>
        <time>2020-08-13T06:35:32.407Z</time>
      </trkpt>
      <trkpt lat="37.829487" lon="-4.841988">
        <ele>152.454100</ele>
        <time>2020-08-13T06:35:34.416Z</time>
      </trkpt>
      <trkpt lat="37.829400" lon="-4.842036">
        <ele>152.352263</ele>
        <time>2020-08-13T06:35:36.416Z</time>
      </trkpt>
      <trkpt lat="37.829305" lon="-4.842080">
        <ele>152.243713</ele>
        <time>2020-08-13T06:35:38.417Z</time>
      </trkpt>
      <trkpt lat="37.829202" lon="-4.842131">
        <ele>152.125034</ele>
        <time>2020-08-13T06:35:40.423Z</time>
      </trkpt>
      <trkpt lat="37.829110" lon="-4.842187">
        <ele>152.015493</ele>
        <time>2020-08-13T06:35:42.421Z</time>
      </trkpt>
      <trkpt lat="37.829017" lon="-4.842227">
        <ele>151.910095</ele>
        <time>2020-08-13T06:35:44.429Z</time>
      </trkpt>
      <trkpt lat="37.828911" lon="-4.842248">
        <ele>151.794964</ele>
        <time>2020-08-13T06:35:46.413Z</time>
      </trkpt>
      <trkpt lat="37.828808" lon="-4.842263">
        <ele>151.683708</ele>
        <time>2020-08-13T06:35:48.418Z</time>
      </trkpt>
      <trkpt lat="37.828685" lon="-4.842305">
        <ele>151.547003</ele>
        <time>2020-08-13T06:35:50.422Z</time>
      </trkpt>
      <trkpt lat="37.828583" lon="-4.842354">
        <ele>151.429935</ele>
        <time>2020-08-13T06:35:52.419Z</time>
      </trkpt>
      <trkpt lat="37.828480" lon="-4.842425">
        <ele>151.304087</ele>
        <time>2020-08-13T06:35:54.416Z</time>
      </trkpt>
      <trkpt lat="37.828382" lon="-4.842467">
        <ele>151.193063</ele>
        <time>2020-08-13T06:35:56.421Z</time>
      </trkpt>
      <trkpt lat="37.828263" lon="-4.842488">
        <ele>151.112326</ele>
        <time>2020-08-13T06:35:58.421Z</time>
      </trkpt>
      <trkpt lat="37.828164" lon="-4.842517">
        <ele>151.243649</ele>
        <time>2020-08-13T06:36:00.417Z</time>
      </trkpt>
      <trkpt lat="37.828078" lon="-4.842572">
        <ele>151.368166</ele>
        <time>2020-08-13T06:36:02.405Z</time>
      </trkpt>
      <trkpt lat="37.827977" lon="-4.842599">
        <ele>151.501571</ele>
        <time>2020-08-13T06:36:04.415Z</time>
      </trkpt>
      <trkpt lat="37.827872" lon="-4.842616">
        <ele>151.638373</ele>
        <time>2020-08-13T06:36:06.404Z</time>
      </trkpt>
      <trkpt lat="37.827771" lon="-4.842652">
        <ele>151.773975</ele>
        <time>2020-08-13T06:36:08.419Z</time>
      </trkpt>
      <trkpt lat="37.827679" lon="-4.842680">
        <ele>151.896258</ele>
        <time>2020-08-13T06:36:10.427Z</time>
      </trkpt>
      <trkpt lat="37.827568" lon="-4.842691">
        <ele>152.040148</ele>
        <time>2020-08-13T06:36:12.417Z</time>
      </trkpt>
      <trkpt lat="37.827459" lon="-4.842743">
        <ele>152.190683</ele>
        <time>2020-08-13T06:36:15.408Z</time>
      </trkpt>
      <trkpt lat="37.827362" lon="-4.842773">
        <ele>152.319728</ele>
        <time>2020-08-13T06:36:17.410Z</time>
      </trkpt>
      <trkpt lat="37.827279" lon="-4.842817">
        <ele>152.436016</ele>
        <time>2020-08-13T06:36:19.423Z</time>
      </trkpt>
      <trkpt lat="37.827161" lon="-4.842886">
        <ele>152.603994</ele>
        <time>2020-08-13T06:36:22.421Z</time>
      </trkpt>
      <trkpt lat="37.827059" lon="-4.842979">
        <ele>152.766440</ele>
        <time>2020-08-13T06:36:25.408Z</time>
      </trkpt>
      <trkpt lat="37.826921" lon="-4.843016">
        <ele>152.948740</ele>
        <time>2020-08-13T06:36:28.423Z</time>
      </trkpt>
      <trkpt lat="37.826833" lon="-4.843081">
        <ele>153.080407</ele>
        <time>2020-08-13T06:36:30.415Z</time>
      </trkpt>
      <trkpt lat="37.826716" lon="-4.843141">
        <ele>153.243545</ele>
        <time>2020-08-13T06:36:33.417Z</time>
      </trkpt>
      <trkpt lat="37.826594" lon="-4.843219">
        <ele>153.408217</ele>
        <time>2020-08-13T06:36:36.415Z</time>
      </trkpt>
      <trkpt lat="37.826484" lon="-4.843332">
        <ele>153.365639</ele>
        <time>2020-08-13T06:36:39.423Z</time>
      </trkpt>
      <trkpt lat="37.826427" lon="-4.843422">
        <ele>153.338252</ele>
        <time>2020-08-13T06:36:41.414Z</time>
      </trkpt>
      <trkpt lat="37.826336" lon="-4.843522">
        <ele>153.302034</ele>
        <time>2020-08-13T06:36:44.416Z</time>
      </trkpt>
      <trkpt lat="37.826231" lon="-4.843598">
        <ele>153.265681</ele>
        <time>2020-08-13T06:36:47.417Z</time>
      </trkpt>
      <trkpt lat="37.826154" lon="-4.843673">
        <ele>153.236480</ele>
        <time>2020-08-13T06:36:49.427Z</time>
      </trkpt>
      <trkpt lat="37.826049" lon="-4.843787">
        <ele>153.194905</ele>
        <time>2020-08-13T06:36:52.417Z</time>
      </trkpt>
      <trkpt lat="37.825972" lon="-4.843855">
        <ele>153.166687</ele>
        <time>2020-08-13T06:36:54.425Z</time>
      </trkpt>
      <trkpt lat="37.825849" lon="-4.843931">
        <ele>153.125549</ele>
        <time>2020-08-13T06:36:57.423Z</time>
      </trkpt>
      <trkpt lat="37.825813" lon="-4.844066">
        <ele>153.091721</ele>
        <time>2020-08-13T06:36:59.412Z</time>
      </trkpt>
      <trkpt lat="37.825741" lon="-4.844168">
        <ele>153.059244</ele>
        <time>2020-08-13T06:37:01.420Z</time>
      </trkpt>
      <trkpt lat="37.825699" lon="-4.844275">
        <ele>153.030878</ele>
        <time>2020-08-13T06:37:03.421Z</time>
      </trkpt>
      <trkpt lat="37.825685" lon="-4.844430">
        <ele>152.993839</ele>
        <time>2020-08-13T06:37:05.423Z</time>
      </trkpt>
      <trkpt lat="37.825624" lon="-4.844532">
        <ele>152.963465</ele>
        <time>2020-08-13T06:37:07.416Z</time>
      </trkpt>
      <trkpt lat="37.825587" lon="-4.844641">
        <ele>152.935299</ele>
        <time>2020-08-13T06:37:09.411Z</time>
      </trkpt>
      <trkpt lat="37.825541" lon="-4.844750">
        <ele>152.905959</ele>
        <time>2020-08-13T06:37:11.422Z</time>
      </trkpt>
      <trkpt lat="37.825448" lon="-4.844867">
        <ele>152.834000</ele>
        <time>2020-08-13T06:37:14.426Z</time>
      </trkpt>
      <trkpt lat="37.825379" lon="-4.844963">
        <ele>152.500013</ele>
        <time>2020-08-13T06:37:16.420Z</time>
      </trkpt>
      <trkpt lat="37.825305" lon="-4.845052">
        <ele>152.167505</ele>
        <time>2020-08-13T06:37:18.420Z</time>
      </trkpt>
      <trkpt lat="37.825237" lon="-4.845177">
        <ele>151.776955</ele>
        <time>2020-08-13T06:37:21.418Z</time>
      </trkpt>
      <trkpt lat="37.825169" lon="-4.845313">
        <ele>151.362781</ele>
        <time>2020-08-13T06:37:24.408Z</time>
      </trkpt>
      <trkpt lat="37.825118" lon="-4.845419">
        <ele>151.043407</ele>
        <time>2020-08-13T06:37:26.429Z</time>
      </trkpt>
      <trkpt lat="37.825067" lon="-4.845533">
        <ele>150.706281</ele>
        <time>2020-08-13T06:37:28.429Z</time>
      </trkpt>
      <trkpt lat="37.825004" lon="-4.845659">
        <ele>150.322560</ele>
        <time>2020-08-13T06:37:31.417Z</time>
      </trkpt>
      <trkpt lat="37.824962" lon="-4.845774">
        <ele>149.996542</ele>
        <time>2020-08-13T06:37:33.423Z</time>
      </trkpt>
      <trkpt lat="37.824916" lon="-4.845874">
        <ele>149.698768</ele>
        <time>2020-08-13T06:37:35.423Z</time>
      </trkpt>
      <trkpt lat="37.824861" lon="-4.846005">
        <ele>149.317020</ele>
        <time>2020-08-13T06:37:38.420Z</time>
      </trkpt>
      <trkpt lat="37.824813" lon="-4.846107">
        <ele>149.011504</ele>
        <time>2020-08-13T06:37:40.413Z</time>
      </trkpt>
      <trkpt lat="37.824756" lon="-4.846212">
        <ele>148.683661</ele>
        <time>2020-08-13T06:37:42.418Z</time>
      </trkpt>
      <trkpt lat="37.824704" lon="-4.846313">
        <ele>148.373434</ele>
        <time>2020-08-13T06:37:44.411Z</time>
      </trkpt>
      <trkpt lat="37.824644" lon="-4.846454">
        <ele>147.961311</ele>
        <time>2020-08-13T06:37:47.421Z</time>
      </trkpt>
      <trkpt lat="37.824596" lon="-4.846565">
        <ele>147.635683</ele>
        <time>2020-08-13T06:37:49.419Z</time>
      </trkpt>
      <trkpt lat="37.824534" lon="-4.846714">
        <ele>147.202328</ele>
        <time>2020-08-13T06:37:52.421Z</time>
      </trkpt>
      <trkpt lat="37.824477" lon="-4.846819">
        <ele>146.939756</ele>
        <time>2020-08-13T06:37:54.411Z</time>
      </trkpt>
      <trkpt lat="37.824429" lon="-4.846922">
        <ele>146.779740</ele>
        <time>2020-08-13T06:37:56.424Z</time>
      </trkpt>
      <trkpt lat="37.824390" lon="-4.847029">
        <ele>146.622062</ele>
        <time>2020-08-13T06:37:58.415Z</time>
      </trkpt>
      <trkpt lat="37.824337" lon="-4.847133">
        <ele>146.456457</ele>
        <time>2020-08-13T06:38:00.423Z</time>
      </trkpt>
      <trkpt lat="37.824285" lon="-4.847253">
        <ele>146.273317</ele>
        <time>2020-08-13T06:38:02.419Z</time>
      </trkpt>
      <trkpt lat="37.824234" lon="-4.847350">
        <ele>146.117404</ele>
        <time>2020-08-13T06:38:04.422Z</time>
      </trkpt>
      <trkpt lat="37.824165" lon="-4.847503">
        <ele>145.881666</ele>
        <time>2020-08-13T06:38:07.417Z</time>
      </trkpt>
      <trkpt lat="37.824120" lon="-4.847614">
        <ele>145.714723</ele>
        <time>2020-08-13T06:38:09.406Z</time>
      </trkpt>
      <trkpt lat="37.824047" lon="-4.847766">
        <ele>145.476698</ele>
        <time>2020-08-13T06:38:12.425Z</time>
      </trkpt>
      <trkpt lat="37.823972" lon="-4.847910">
        <ele>145.245903</ele>
        <time>2020-08-13T06:38:15.417Z</time>
      </trkpt>
      <trkpt lat="37.823917" lon="-4.848012">
        <ele>145.080654</ele>
        <time>2020-08-13T06:38:17.426Z</time>
      </trkpt>
      <trkpt lat="37.823880" lon="-4.848119">
        <ele>144.924365</ele>
        <time>2020-08-13T06:38:19.422Z</time>
      </trkpt>
      <trkpt lat="37.823803" lon="-4.848243">
        <ele>144.713315</ele>
        <time>2020-08-13T06:38:22.414Z</time>
      </trkpt>
      <trkpt lat="37.823722" lon="-4.848362">
        <ele>144.503123</ele>
        <time>2020-08-13T06:38:25.417Z</time>
      </trkpt>
      <trkpt lat="37.823674" lon="-4.848460">
        <ele>144.348831</ele>
        <time>2020-08-13T06:38:27.416Z</time>
      </trkpt>
      <trkpt lat="37.823630" lon="-4.848586">
        <ele>144.164495</ele>
        <time>2020-08-13T06:38:30.418Z</time>
      </trkpt>
      <trkpt lat="37.823581" lon="-4.848719">
        <ele>143.968128</ele>
        <time>2020-08-13T06:38:33.423Z</time>
      </trkpt>
      <trkpt lat="37.823524" lon="-4.848847">
        <ele>143.982200</ele>
        <time>2020-08-13T06:38:36.422Z</time>
      </trkpt>
      <trkpt lat="37.823469" lon="-4.848978">
        <ele>144.001369</ele>
        <time>2020-08-13T06:38:39.419Z</time>
      </trkpt>
      <trkpt lat="37.823424" lon="-4.849085">
        <ele>144.017032</ele>
        <time>2020-08-13T06:38:41.421Z</time>
      </trkpt>
      <trkpt lat="37.823353" lon="-4.849224">
        <ele>144.038420</ele>
        <time>2020-08-13T06:38:44.413Z</time>
      </trkpt>
      <trkpt lat="37.823312" lon="-4.849326">
        <ele>144.053208</ele>
        <time>2020-08-13T06:38:46.416Z</time>
      </trkpt>
      <trkpt lat="37.823275" lon="-4.849441">
        <ele>144.069252</ele>
        <time>2020-08-13T06:38:49.416Z</time>
      </trkpt>
      <trkpt lat="37.823205" lon="-4.849572">
        <ele>144.089688</ele>
        <time>2020-08-13T06:38:52.415Z</time>
      </trkpt>
      <trkpt lat="37.823146" lon="-4.849685">
        <ele>144.107190</ele>
        <time>2020-08-13T06:38:55.411Z</time>
      </trkpt>
      <trkpt lat="37.823080" lon="-4.849823">
        <ele>144.128035</ele>
        <time>2020-08-13T06:38:58.424Z</time>
      </trkpt>
      <trkpt lat="37.823007" lon="-4.849948">
        <ele>144.148121</ele>
        <time>2020-08-13T06:39:01.421Z</time>
      </trkpt>
      <trkpt lat="37.822963" lon="-4.850077">
        <ele>144.166277</ele>
        <time>2020-08-13T06:39:04.408Z</time>
      </trkpt>
      <trkpt lat="37.822899" lon="-4.850199">
        <ele>144.185201</ele>
        <time>2020-08-13T06:39:07.421Z</time>
      </trkpt>
      <trkpt lat="37.822832" lon="-4.850323">
        <ele>144.204613</ele>
        <time>2020-08-13T06:39:10.443Z</time>
      </trkpt>
      <trkpt lat="37.822777" lon="-4.850438">
        <ele>144.221984</ele>
        <time>2020-08-13T06:39:13.406Z</time>
      </trkpt>
      <trkpt lat="37.822719" lon="-4.850560">
        <ele>144.240382</ele>
        <time>2020-08-13T06:39:16.425Z</time>
      </trkpt>
      <trkpt lat="37.822679" lon="-4.850683">
        <ele>144.257569</ele>
        <time>2020-08-13T06:39:19.410Z</time>
      </trkpt>
      <trkpt lat="37.822628" lon="-4.850802">
        <ele>144.398745</ele>
        <time>2020-08-13T06:39:22.407Z</time>
      </trkpt>
      <trkpt lat="37.822581" lon="-4.850915">
        <ele>144.533912</ele>
        <time>2020-08-13T06:39:25.413Z</time>
      </trkpt>
      <trkpt lat="37.822515" lon="-4.851034">
        <ele>144.687809</ele>
        <time>2020-08-13T06:39:28.424Z</time>
      </trkpt>
      <trkpt lat="37.822451" lon="-4.851159">
        <ele>144.845471</ele>
        <time>2020-08-13T06:39:31.417Z</time>
      </trkpt>
      <trkpt lat="37.822379" lon="-4.851271">
        <ele>144.998309</ele>
        <time>2020-08-13T06:39:34.406Z</time>
      </trkpt>
      <trkpt lat="37.822316" lon="-4.851384">
        <ele>145.144699</ele>
        <time>2020-08-13T06:39:37.428Z</time>
      </trkpt>
      <trkpt lat="37.822265" lon="-4.851508">
        <ele>145.292667</ele>
        <time>2020-08-13T06:39:40.422Z</time>
      </trkpt>
      <trkpt lat="37.822215" lon="-4.851628">
        <ele>145.436263</ele>
        <time>2020-08-13T06:39:43.415Z</time>
      </trkpt>
      <trkpt lat="37.822149" lon="-4.851757">
        <ele>145.598937</ele>
        <time>2020-08-13T06:39:46.418Z</time>
      </trkpt>
      <trkpt lat="37.822088" lon="-4.851860">
        <ele>145.735191</ele>
        <time>2020-08-13T06:39:48.406Z</time>
      </trkpt>
      <trkpt lat="37.822038" lon="-4.851956">
        <ele>145.856898</ele>
        <time>2020-08-13T06:39:50.402Z</time>
      </trkpt>
      <trkpt lat="37.821981" lon="-4.852097">
        <ele>146.024543</ele>
        <time>2020-08-13T06:39:53.409Z</time>
      </trkpt>
      <trkpt lat="37.821945" lon="-4.852210">
        <ele>146.153505</ele>
        <time>2020-08-13T06:39:56.408Z</time>
      </trkpt>
      <trkpt lat="37.821893" lon="-4.852331">
        <ele>146.299300</ele>
        <time>2020-08-13T06:39:59.399Z</time>
      </trkpt>
      <trkpt lat="37.821845" lon="-4.852449">
        <ele>146.439781</ele>
        <time>2020-08-13T06:40:02.408Z</time>
      </trkpt>
      <trkpt lat="37.821790" lon="-4.852544">
        <ele>146.564446</ele>
        <time>2020-08-13T06:40:05.401Z</time>
      </trkpt>
      <trkpt lat="37.821651" lon="-4.852818">
        <ele>146.684527</ele>
        <time>2020-08-13T06:43:10.527Z</time>
      </trkpt>
      <trkpt lat="37.821600" lon="-4.852930">
        <ele>146.693969</ele>
        <time>2020-08-13T06:43:13.554Z</time>
      </trkpt>
      <trkpt lat="37.821547" lon="-4.853043">
        <ele>146.703569</ele>
        <time>2020-08-13T06:43:16.522Z</time>
      </trkpt>
      <trkpt lat="37.821500" lon="-4.853151">
        <ele>146.712575</ele>
        <time>2020-08-13T06:43:20.513Z</time>
      </trkpt>
      <trkpt lat="37.821448" lon="-4.853276">
        <ele>146.722895</ele>
        <time>2020-08-13T06:43:25.513Z</time>
      </trkpt>
      <trkpt lat="37.821397" lon="-4.853382">
        <ele>146.731960</ele>
        <time>2020-08-13T06:43:28.525Z</time>
      </trkpt>
      <trkpt lat="37.821336" lon="-4.853493">
        <ele>146.741837</ele>
        <time>2020-08-13T06:43:31.526Z</time>
      </trkpt>
      <trkpt lat="37.821277" lon="-4.853595">
        <ele>146.751072</ele>
        <time>2020-08-13T06:43:34.518Z</time>
      </trkpt>
      <trkpt lat="37.821230" lon="-4.853711">
        <ele>146.760594</ele>
        <time>2020-08-13T06:43:37.538Z</time>
      </trkpt>
      <trkpt lat="37.821175" lon="-4.853820">
        <ele>146.770042</ele>
        <time>2020-08-13T06:43:40.531Z</time>
      </trkpt>
      <trkpt lat="37.821129" lon="-4.853919">
        <ele>146.778431</ele>
        <time>2020-08-13T06:43:43.532Z</time>
      </trkpt>
      <trkpt lat="37.821082" lon="-4.854024">
        <ele>146.787247</ele>
        <time>2020-08-13T06:43:46.522Z</time>
      </trkpt>
      <trkpt lat="37.821040" lon="-4.854127">
        <ele>146.795713</ele>
        <time>2020-08-13T06:43:49.523Z</time>
      </trkpt>
      <trkpt lat="37.820998" lon="-4.854268">
        <ele>146.806721</ele>
        <time>2020-08-13T06:43:53.517Z</time>
      </trkpt>
      <trkpt lat="37.820950" lon="-4.854375">
        <ele>146.815709</ele>
        <time>2020-08-13T06:43:56.519Z</time>
      </trkpt>
      <trkpt lat="37.820904" lon="-4.854482">
        <ele>146.824607</ele>
        <time>2020-08-13T06:43:59.523Z</time>
      </trkpt>
      <trkpt lat="37.820850" lon="-4.854597">
        <ele>146.839153</ele>
        <time>2020-08-13T06:44:02.525Z</time>
      </trkpt>
      <trkpt lat="37.820803" lon="-4.854707">
        <ele>147.088726</ele>
        <time>2020-08-13T06:44:05.536Z</time>
      </trkpt>
      <trkpt lat="37.820751" lon="-4.854842">
        <ele>147.388458</ele>
        <time>2020-08-13T06:44:09.530Z</time>
      </trkpt>
      <trkpt lat="37.820693" lon="-4.854952">
        <ele>147.652387</ele>
        <time>2020-08-13T06:44:12.528Z</time>
      </trkpt>
      <trkpt lat="37.820645" lon="-4.855062">
        <ele>147.903172</ele>
        <time>2020-08-13T06:44:15.521Z</time>
      </trkpt>
      <trkpt lat="37.820584" lon="-4.855169">
        <ele>148.166505</ele>
        <time>2020-08-13T06:44:18.517Z</time>
      </trkpt>
      <trkpt lat="37.820529" lon="-4.855268">
        <ele>148.408041</ele>
        <time>2020-08-13T06:44:21.541Z</time>
      </trkpt>
      <trkpt lat="37.820468" lon="-4.855393">
        <ele>148.701257</ele>
        <time>2020-08-13T06:44:25.528Z</time>
      </trkpt>
      <trkpt lat="37.820403" lon="-4.855513">
        <ele>148.991625</ele>
        <time>2020-08-13T06:44:29.534Z</time>
      </trkpt>
      <trkpt lat="37.820347" lon="-4.855610">
        <ele>149.231389</ele>
        <time>2020-08-13T06:44:32.518Z</time>
      </trkpt>
      <trkpt lat="37.820302" lon="-4.855720">
        <ele>149.478600</ele>
        <time>2020-08-13T06:44:35.506Z</time>
      </trkpt>
      <trkpt lat="37.820261" lon="-4.855826">
        <ele>149.714135</ele>
        <time>2020-08-13T06:44:38.517Z</time>
      </trkpt>
      <trkpt lat="37.820221" lon="-4.855928">
        <ele>149.941393</ele>
        <time>2020-08-13T06:44:41.522Z</time>
      </trkpt>
      <trkpt lat="37.820193" lon="-4.856042">
        <ele>150.179639</ele>
        <time>2020-08-13T06:44:44.516Z</time>
      </trkpt>
      <trkpt lat="37.820179" lon="-4.856160">
        <ele>150.417766</ele>
        <time>2020-08-13T06:44:47.531Z</time>
      </trkpt>
      <trkpt lat="37.820163" lon="-4.856283">
        <ele>150.666535</ele>
        <time>2020-08-13T06:44:50.525Z</time>
      </trkpt>
      <trkpt lat="37.820126" lon="-4.856423">
        <ele>150.961146</ele>
        <time>2020-08-13T06:44:53.522Z</time>
      </trkpt>
      <trkpt lat="37.820109" lon="-4.856557">
        <ele>151.231989</ele>
        <time>2020-08-13T06:44:56.520Z</time>
      </trkpt>
      <trkpt lat="37.820100" lon="-4.856698">
        <ele>151.431209</ele>
        <time>2020-08-13T06:44:59.521Z</time>
      </trkpt>
      <trkpt lat="37.820096" lon="-4.856842">
        <ele>151.543282</ele>
        <time>2020-08-13T06:45:02.523Z</time>
      </trkpt>
      <trkpt lat="37.820097" lon="-4.856983">
        <ele>151.652957</ele>
        <time>2020-08-13T06:45:05.535Z</time>
      </trkpt>
      <trkpt lat="37.820098" lon="-4.857127">
        <ele>151.764965</ele>
        <time>2020-08-13T06:45:08.539Z</time>
      </trkpt>
      <trkpt lat="37.820094" lon="-4.857272">
        <ele>151.877816</ele>
        <time>2020-08-13T06:45:11.527Z</time>
      </trkpt>
      <trkpt lat="37.820089" lon="-4.857419">
        <ele>151.992259</ele>
        <time>2020-08-13T06:45:14.529Z</time>
      </trkpt>
      <trkpt lat="37.820084" lon="-4.857549">
        <ele>152.093494</ele>
        <time>2020-08-13T06:45:17.529Z</time>
      </trkpt>
      <trkpt lat="37.820086" lon="-4.857674">
        <ele>152.190739</ele>
        <time>2020-08-13T06:45:20.526Z</time>
      </trkpt>
      <trkpt lat="37.820093" lon="-4.857806">
        <ele>152.293641</ele>
        <time>2020-08-13T06:45:23.518Z</time>
      </trkpt>
      <trkpt lat="37.820109" lon="-4.857932">
        <ele>152.392903</ele>
        <time>2020-08-13T06:45:26.521Z</time>
      </trkpt>
      <trkpt lat="37.820123" lon="-4.858050">
        <ele>152.485713</ele>
        <time>2020-08-13T06:45:29.534Z</time>
      </trkpt>
      <trkpt lat="37.820139" lon="-4.858195">
        <ele>152.599590</ele>
        <time>2020-08-13T06:45:33.525Z</time>
      </trkpt>
      <trkpt lat="37.820164" lon="-4.858320">
        <ele>152.699883</ele>
        <time>2020-08-13T06:45:36.517Z</time>
      </trkpt>
      <trkpt lat="37.820183" lon="-4.858434">
        <ele>152.790505</ele>
        <time>2020-08-13T06:45:39.521Z</time>
      </trkpt>
      <trkpt lat="37.820216" lon="-4.858579">
        <ele>152.907874</ele>
        <time>2020-08-13T06:45:43.525Z</time>
      </trkpt>
      <trkpt lat="37.820246" lon="-4.858695">
        <ele>153.002812</ele>
        <time>2020-08-13T06:45:46.531Z</time>
      </trkpt>
      <trkpt lat="37.820284" lon="-4.858819">
        <ele>153.106263</ele>
        <time>2020-08-13T06:45:49.525Z</time>
      </trkpt>
      <trkpt lat="37.820325" lon="-4.858942">
        <ele>153.174955</ele>
        <time>2020-08-13T06:45:52.523Z</time>
      </trkpt>
      <trkpt lat="37.820374" lon="-4.859052">
        <ele>153.216531</ele>
        <time>2020-08-13T06:45:55.521Z</time>
      </trkpt>
      <trkpt lat="37.820449" lon="-4.859156">
        <ele>153.262892</ele>
        <time>2020-08-13T06:45:58.524Z</time>
      </trkpt>
      <trkpt lat="37.820514" lon="-4.859247">
        <ele>153.303284</ele>
        <time>2020-08-13T06:46:01.522Z</time>
      </trkpt>
      <trkpt lat="37.820580" lon="-4.859350">
        <ele>153.346948</ele>
        <time>2020-08-13T06:46:04.526Z</time>
      </trkpt>
      <trkpt lat="37.820633" lon="-4.859461">
        <ele>153.389649</ele>
        <time>2020-08-13T06:46:07.523Z</time>
      </trkpt>
      <trkpt lat="37.820675" lon="-4.859565">
        <ele>153.428103</ele>
        <time>2020-08-13T06:46:10.523Z</time>
      </trkpt>
      <trkpt lat="37.820732" lon="-4.859702">
        <ele>153.479080</ele>
        <time>2020-08-13T06:46:14.534Z</time>
      </trkpt>
      <trkpt lat="37.820781" lon="-4.859820">
        <ele>153.522969</ele>
        <time>2020-08-13T06:46:17.533Z</time>
      </trkpt>
      <trkpt lat="37.820816" lon="-4.859949">
        <ele>153.567874</ele>
        <time>2020-08-13T06:46:20.528Z</time>
      </trkpt>
      <trkpt lat="37.820857" lon="-4.860074">
        <ele>153.612434</ele>
        <time>2020-08-13T06:46:23.520Z</time>
      </trkpt>
      <trkpt lat="37.820909" lon="-4.860189">
        <ele>153.656059</ele>
        <time>2020-08-13T06:46:26.523Z</time>
      </trkpt>
      <trkpt lat="37.820956" lon="-4.860296">
        <ele>153.696365</ele>
        <time>2020-08-13T06:46:29.528Z</time>
      </trkpt>
      <trkpt lat="37.821011" lon="-4.860395">
        <ele>153.736212</ele>
        <time>2020-08-13T06:46:32.521Z</time>
      </trkpt>
      <trkpt lat="37.821077" lon="-4.860494">
        <ele>153.778861</ele>
        <time>2020-08-13T06:46:35.525Z</time>
      </trkpt>
      <trkpt lat="37.821137" lon="-4.860589">
        <ele>153.818905</ele>
        <time>2020-08-13T06:46:38.523Z</time>
      </trkpt>
      <trkpt lat="37.821190" lon="-4.860708">
        <ele>153.863880</ele>
        <time>2020-08-13T06:46:41.521Z</time>
      </trkpt>
      <trkpt lat="37.821232" lon="-4.860844">
        <ele>153.944479</ele>
        <time>2020-08-13T06:46:44.527Z</time>
      </trkpt>
      <trkpt lat="37.821254" lon="-4.860976">
        <ele>154.098598</ele>
        <time>2020-08-13T06:46:47.524Z</time>
      </trkpt>
      <trkpt lat="37.821287" lon="-4.861106">
        <ele>154.254592</ele>
        <time>2020-08-13T06:46:50.513Z</time>
      </trkpt>
      <trkpt lat="37.821314" lon="-4.861225">
        <ele>154.396036</ele>
        <time>2020-08-13T06:46:53.521Z</time>
      </trkpt>
      <trkpt lat="37.821356" lon="-4.861355">
        <ele>154.556492</ele>
        <time>2020-08-13T06:46:56.527Z</time>
      </trkpt>
      <trkpt lat="37.821387" lon="-4.861497">
        <ele>154.724796</ele>
        <time>2020-08-13T06:46:59.527Z</time>
      </trkpt>
      <trkpt lat="37.821417" lon="-4.861636">
        <ele>154.889412</ele>
        <time>2020-08-13T06:47:02.518Z</time>
      </trkpt>
      <trkpt lat="37.821444" lon="-4.861764">
        <ele>155.040765</ele>
        <time>2020-08-13T06:47:05.524Z</time>
      </trkpt>
      <trkpt lat="37.821455" lon="-4.861913">
        <ele>155.211726</ele>
        <time>2020-08-13T06:47:08.523Z</time>
      </trkpt>
      <trkpt lat="37.821458" lon="-4.862040">
        <ele>155.356877</ele>
        <time>2020-08-13T06:47:11.521Z</time>
      </trkpt>
      <trkpt lat="37.821468" lon="-4.862166">
        <ele>155.501546</ele>
        <time>2020-08-13T06:47:14.530Z</time>
      </trkpt>
      <trkpt lat="37.821478" lon="-4.862283">
        <ele>155.635988</ele>
        <time>2020-08-13T06:47:17.528Z</time>
      </trkpt>
      <trkpt lat="37.821479" lon="-4.862399">
        <ele>155.768516</ele>
        <time>2020-08-13T06:47:20.529Z</time>
      </trkpt>
      <trkpt lat="37.821487" lon="-4.862516">
        <ele>155.902678</ele>
        <time>2020-08-13T06:47:23.514Z</time>
      </trkpt>
      <trkpt lat="37.821487" lon="-4.862648">
        <ele>156.053477</ele>
        <time>2020-08-13T06:47:26.552Z</time>
      </trkpt>
      <trkpt lat="37.821475" lon="-4.862768">
        <ele>156.191660</ele>
        <time>2020-08-13T06:47:29.528Z</time>
      </trkpt>
      <trkpt lat="37.821451" lon="-4.862917">
        <ele>156.365382</ele>
        <time>2020-08-13T06:47:33.526Z</time>
      </trkpt>
      <trkpt lat="37.821419" lon="-4.863055">
        <ele>156.538840</ele>
        <time>2020-08-13T06:47:37.525Z</time>
      </trkpt>
      <trkpt lat="37.821401" lon="-4.863190">
        <ele>156.743525</ele>
        <time>2020-08-13T06:47:41.523Z</time>
      </trkpt>
      <trkpt lat="37.821373" lon="-4.863340">
        <ele>156.973956</ele>
        <time>2020-08-13T06:47:45.521Z</time>
      </trkpt>
      <trkpt lat="37.821355" lon="-4.863464">
        <ele>157.162445</ele>
        <time>2020-08-13T06:47:48.522Z</time>
      </trkpt>
      <trkpt lat="37.821318" lon="-4.863569">
        <ele>157.334335</ele>
        <time>2020-08-13T06:47:51.528Z</time>
      </trkpt>
      <trkpt lat="37.821283" lon="-4.863682">
        <ele>157.515796</ele>
        <time>2020-08-13T06:47:54.523Z</time>
      </trkpt>
      <trkpt lat="37.821245" lon="-4.863788">
        <ele>157.689826</ele>
        <time>2020-08-13T06:47:57.526Z</time>
      </trkpt>
      <trkpt lat="37.821214" lon="-4.863899">
        <ele>157.865842</ele>
        <time>2020-08-13T06:48:00.519Z</time>
      </trkpt>
      <trkpt lat="37.821183" lon="-4.864018">
        <ele>158.053176</ele>
        <time>2020-08-13T06:48:03.520Z</time>
      </trkpt>
      <trkpt lat="37.821145" lon="-4.864128">
        <ele>158.232669</ele>
        <time>2020-08-13T06:48:06.510Z</time>
      </trkpt>
      <trkpt lat="37.821091" lon="-4.864231">
        <ele>158.417487</ele>
        <time>2020-08-13T06:48:09.527Z</time>
      </trkpt>
      <trkpt lat="37.821041" lon="-4.864354">
        <ele>158.624298</ele>
        <time>2020-08-13T06:48:12.521Z</time>
      </trkpt>
      <trkpt lat="37.820984" lon="-4.864459">
        <ele>158.814773</ele>
        <time>2020-08-13T06:48:15.515Z</time>
      </trkpt>
      <trkpt lat="37.820930" lon="-4.864575">
        <ele>159.016072</ele>
        <time>2020-08-13T06:48:18.518Z</time>
      </trkpt>
      <trkpt lat="37.820866" lon="-4.864666">
        <ele>159.198229</ele>
        <time>2020-08-13T06:48:21.526Z</time>
      </trkpt>
      <trkpt lat="37.820799" lon="-4.864758">
        <ele>159.385307</ele>
        <time>2020-08-13T06:48:24.515Z</time>
      </trkpt>
      <trkpt lat="37.820739" lon="-4.864861">
        <ele>159.576640</ele>
        <time>2020-08-13T06:48:27.526Z</time>
      </trkpt>
      <trkpt lat="37.820654" lon="-4.864951">
        <ele>159.786366</ele>
        <time>2020-08-13T06:48:30.523Z</time>
      </trkpt>
      <trkpt lat="37.820574" lon="-4.865018">
        <ele>159.980300</ele>
        <time>2020-08-13T06:48:33.521Z</time>
      </trkpt>
      <trkpt lat="37.820488" lon="-4.865117">
        <ele>160.243075</ele>
        <time>2020-08-13T06:48:37.529Z</time>
      </trkpt>
      <trkpt lat="37.820432" lon="-4.865222">
        <ele>160.469312</ele>
        <time>2020-08-13T06:48:40.528Z</time>
      </trkpt>
      <trkpt lat="37.820330" lon="-4.865307">
        <ele>160.745370</ele>
        <time>2020-08-13T06:48:43.534Z</time>
      </trkpt>
      <trkpt lat="37.820231" lon="-4.865353">
        <ele>160.983770</ele>
        <time>2020-08-13T06:48:46.523Z</time>
      </trkpt>
      <trkpt lat="37.820155" lon="-4.865416">
        <ele>161.189133</ele>
        <time>2020-08-13T06:48:49.531Z</time>
      </trkpt>
      <trkpt lat="37.820066" lon="-4.865475">
        <ele>161.416245</ele>
        <time>2020-08-13T06:48:52.543Z</time>
      </trkpt>
      <trkpt lat="37.819977" lon="-4.865542">
        <ele>161.650327</ele>
        <time>2020-08-13T06:48:55.525Z</time>
      </trkpt>
      <trkpt lat="37.819896" lon="-4.865606">
        <ele>161.866177</ele>
        <time>2020-08-13T06:48:58.522Z</time>
      </trkpt>
      <trkpt lat="37.819786" lon="-4.865666">
        <ele>162.136945</ele>
        <time>2020-08-13T06:49:01.524Z</time>
      </trkpt>
      <trkpt lat="37.819690" lon="-4.865694">
        <ele>162.359650</ele>
        <time>2020-08-13T06:49:03.524Z</time>
      </trkpt>
      <trkpt lat="37.819574" lon="-4.865737">
        <ele>162.632893</ele>
        <time>2020-08-13T06:49:06.525Z</time>
      </trkpt>
      <trkpt lat="37.819470" lon="-4.865763">
        <ele>162.872537</ele>
        <time>2020-08-13T06:49:09.524Z</time>
      </trkpt>
      <trkpt lat="37.819380" lon="-4.865801">
        <ele>163.087011</ele>
        <time>2020-08-13T06:49:12.517Z</time>
      </trkpt>
      <trkpt lat="37.819276" lon="-4.865851">
        <ele>163.338499</ele>
        <time>2020-08-13T06:49:15.517Z</time>
      </trkpt>
      <trkpt lat="37.819161" lon="-4.865862">
        <ele>163.599211</ele>
        <time>2020-08-13T06:49:18.528Z</time>
      </trkpt>
      <trkpt lat="37.819040" lon="-4.865850">
        <ele>163.873583</ele>
        <time>2020-08-13T06:49:21.510Z</time>
      </trkpt>
      <trkpt lat="37.818943" lon="-4.865859">
        <ele>164.241216</ele>
        <time>2020-08-13T06:49:24.525Z</time>
      </trkpt>
      <trkpt lat="37.818837" lon="-4.865873">
        <ele>164.771065</ele>
        <time>2020-08-13T06:49:27.529Z</time>
      </trkpt>
      <trkpt lat="37.818718" lon="-4.865887">
        <ele>165.365233</ele>
        <time>2020-08-13T06:49:31.524Z</time>
      </trkpt>
      <trkpt lat="37.818613" lon="-4.865880">
        <ele>165.887972</ele>
        <time>2020-08-13T06:49:34.523Z</time>
      </trkpt>
      <trkpt lat="37.818505" lon="-4.865857">
        <ele>166.432449</ele>
        <time>2020-08-13T06:49:37.520Z</time>
      </trkpt>
      <trkpt lat="37.818415" lon="-4.865839">
        <ele>166.885441</ele>
        <time>2020-08-13T06:49:40.534Z</time>
      </trkpt>
      <trkpt lat="37.818324" lon="-4.865814">
        <ele>167.348387</ele>
        <time>2020-08-13T06:49:43.525Z</time>
      </trkpt>
      <trkpt lat="37.818229" lon="-4.865803">
        <ele>167.822659</ele>
        <time>2020-08-13T06:49:46.526Z</time>
      </trkpt>
      <trkpt lat="37.818109" lon="-4.865791">
        <ele>168.421108</ele>
        <time>2020-08-13T06:49:50.517Z</time>
      </trkpt>
      <trkpt lat="37.818012" lon="-4.865755">
        <ele>168.923650</ele>
        <time>2020-08-13T06:49:53.529Z</time>
      </trkpt>
      <trkpt lat="37.817909" lon="-4.865716">
        <ele>169.458140</ele>
        <time>2020-08-13T06:49:56.528Z</time>
      </trkpt>
      <trkpt lat="37.817814" lon="-4.865683">
        <ele>169.947900</ele>
        <time>2020-08-13T06:49:59.520Z</time>
      </trkpt>
      <trkpt lat="37.817723" lon="-4.865665">
        <ele>170.405804</ele>
        <time>2020-08-13T06:50:02.529Z</time>
      </trkpt>
      <trkpt lat="37.817621" lon="-4.865630">
        <ele>170.931205</ele>
        <time>2020-08-13T06:50:05.517Z</time>
      </trkpt>
      <trkpt lat="37.817513" lon="-4.865588">
        <ele>171.492902</ele>
        <time>2020-08-13T06:50:08.524Z</time>
      </trkpt>
      <trkpt lat="37.817422" lon="-4.865550">
        <ele>171.969297</ele>
        <time>2020-08-13T06:50:11.516Z</time>
      </trkpt>
      <trkpt lat="37.817337" lon="-4.865509">
        <ele>172.421520</ele>
        <time>2020-08-13T06:50:14.537Z</time>
      </trkpt>
      <trkpt lat="37.817246" lon="-4.865476">
        <ele>172.892133</ele>
        <time>2020-08-13T06:50:17.527Z</time>
      </trkpt>
      <trkpt lat="37.817153" lon="-4.865440">
        <ele>173.137788</ele>
        <time>2020-08-13T06:50:20.530Z</time>
      </trkpt>
      <trkpt lat="37.817039" lon="-4.865398">
        <ele>173.425034</ele>
        <time>2020-08-13T06:50:24.526Z</time>
      </trkpt>
      <trkpt lat="37.816939" lon="-4.865366">
        <ele>173.674576</ele>
        <time>2020-08-13T06:50:27.533Z</time>
      </trkpt>
      <trkpt lat="37.816841" lon="-4.865348">
        <ele>173.914152</ele>
        <time>2020-08-13T06:50:30.527Z</time>
      </trkpt>
      <trkpt lat="37.816743" lon="-4.865329">
        <ele>174.154011</ele>
        <time>2020-08-13T06:50:33.540Z</time>
      </trkpt>
      <trkpt lat="37.816639" lon="-4.865313">
        <ele>174.407471</ele>
        <time>2020-08-13T06:50:36.527Z</time>
      </trkpt>
      <trkpt lat="37.816537" lon="-4.865293">
        <ele>174.657185</ele>
        <time>2020-08-13T06:50:39.529Z</time>
      </trkpt>
      <trkpt lat="37.816423" lon="-4.865254">
        <ele>174.942882</ele>
        <time>2020-08-13T06:50:43.532Z</time>
      </trkpt>
      <trkpt lat="37.816338" lon="-4.865211">
        <ele>175.164337</ele>
        <time>2020-08-13T06:50:46.534Z</time>
      </trkpt>
      <trkpt lat="37.816237" lon="-4.865175">
        <ele>175.418191</ele>
        <time>2020-08-13T06:50:49.535Z</time>
      </trkpt>
      <trkpt lat="37.816140" lon="-4.865141">
        <ele>175.661695</ele>
        <time>2020-08-13T06:50:52.528Z</time>
      </trkpt>
      <trkpt lat="37.816047" lon="-4.865122">
        <ele>175.889604</ele>
        <time>2020-08-13T06:50:55.530Z</time>
      </trkpt>
      <trkpt lat="37.815951" lon="-4.865108">
        <ele>176.123394</ele>
        <time>2020-08-13T06:50:58.526Z</time>
      </trkpt>
      <trkpt lat="37.815862" lon="-4.865085">
        <ele>176.343155</ele>
        <time>2020-08-13T06:51:01.525Z</time>
      </trkpt>
      <trkpt lat="37.815766" lon="-4.865057">
        <ele>176.581495</ele>
        <time>2020-08-13T06:51:04.521Z</time>
      </trkpt>
      <trkpt lat="37.815675" lon="-4.865034">
        <ele>176.805999</ele>
        <time>2020-08-13T06:51:07.533Z</time>
      </trkpt>
      <trkpt lat="37.815580" lon="-4.865045">
        <ele>177.036794</ele>
        <time>2020-08-13T06:51:10.524Z</time>
      </trkpt>
      <trkpt lat="37.815490" lon="-4.865061">
        <ele>177.256670</ele>
        <time>2020-08-13T06:51:13.525Z</time>
      </trkpt>
      <trkpt lat="37.815389" lon="-4.865062">
        <ele>176.970673</ele>
        <time>2020-08-13T06:51:16.532Z</time>
      </trkpt>
      <trkpt lat="37.815285" lon="-4.865067">
        <ele>176.659475</ele>
        <time>2020-08-13T06:51:19.541Z</time>
      </trkpt>
      <trkpt lat="37.815173" lon="-4.865073">
        <ele>176.324280</ele>
        <time>2020-08-13T06:51:22.530Z</time>
      </trkpt>
      <trkpt lat="37.815066" lon="-4.865091">
        <ele>176.001523</ele>
        <time>2020-08-13T06:51:25.525Z</time>
      </trkpt>
      <trkpt lat="37.814961" lon="-4.865090">
        <ele>175.687550</ele>
        <time>2020-08-13T06:51:28.528Z</time>
      </trkpt>
      <trkpt lat="37.814861" lon="-4.865087">
        <ele>175.388453</ele>
        <time>2020-08-13T06:51:31.526Z</time>
      </trkpt>
      <trkpt lat="37.814766" lon="-4.865105">
        <ele>175.101225</ele>
        <time>2020-08-13T06:51:34.509Z</time>
      </trkpt>
      <trkpt lat="37.814668" lon="-4.865137">
        <ele>174.798599</ele>
        <time>2020-08-13T06:51:37.528Z</time>
      </trkpt>
      <trkpt lat="37.814563" lon="-4.865166">
        <ele>174.477249</ele>
        <time>2020-08-13T06:51:40.524Z</time>
      </trkpt>
      <trkpt lat="37.814460" lon="-4.865198">
        <ele>174.160124</ele>
        <time>2020-08-13T06:51:43.520Z</time>
      </trkpt>
      <trkpt lat="37.814356" lon="-4.865241">
        <ele>173.832982</ele>
        <time>2020-08-13T06:51:46.524Z</time>
      </trkpt>
      <trkpt lat="37.814263" lon="-4.865283">
        <ele>173.537731</ele>
        <time>2020-08-13T06:51:49.521Z</time>
      </trkpt>
      <trkpt lat="37.814162" lon="-4.865322">
        <ele>173.221988</ele>
        <time>2020-08-13T06:51:52.512Z</time>
      </trkpt>
      <trkpt lat="37.814062" lon="-4.865373">
        <ele>172.899617</ele>
        <time>2020-08-13T06:51:55.521Z</time>
      </trkpt>
      <trkpt lat="37.813974" lon="-4.865434">
        <ele>172.599614</ele>
        <time>2020-08-13T06:51:58.519Z</time>
      </trkpt>
      <trkpt lat="37.813894" lon="-4.865499">
        <ele>172.315365</ele>
        <time>2020-08-13T06:52:01.516Z</time>
      </trkpt>
      <trkpt lat="37.813817" lon="-4.865571">
        <ele>172.029117</ele>
        <time>2020-08-13T06:52:04.524Z</time>
      </trkpt>
      <trkpt lat="37.813750" lon="-4.865666">
        <ele>171.807116</ele>
        <time>2020-08-13T06:52:07.520Z</time>
      </trkpt>
      <trkpt lat="37.813685" lon="-4.865753">
        <ele>171.665948</ele>
        <time>2020-08-13T06:52:10.520Z</time>
      </trkpt>
      <trkpt lat="37.813598" lon="-4.865851">
        <ele>171.492157</ele>
        <time>2020-08-13T06:52:14.536Z</time>
      </trkpt>
      <trkpt lat="37.813531" lon="-4.865930">
        <ele>171.355516</ele>
        <time>2020-08-13T06:52:17.521Z</time>
      </trkpt>
      <trkpt lat="37.813456" lon="-4.866015">
        <ele>171.205290</ele>
        <time>2020-08-13T06:52:20.533Z</time>
      </trkpt>
      <trkpt lat="37.813386" lon="-4.866097">
        <ele>171.062962</ele>
        <time>2020-08-13T06:52:23.530Z</time>
      </trkpt>
      <trkpt lat="37.813316" lon="-4.866169">
        <ele>170.928364</ele>
        <time>2020-08-13T06:52:26.523Z</time>
      </trkpt>
      <trkpt lat="37.813238" lon="-4.866245">
        <ele>170.781475</ele>
        <time>2020-08-13T06:52:29.539Z</time>
      </trkpt>
      <trkpt lat="37.813148" lon="-4.866294">
        <ele>170.635273</ele>
        <time>2020-08-13T06:52:32.530Z</time>
      </trkpt>
      <trkpt lat="37.813067" lon="-4.866367">
        <ele>170.486891</ele>
        <time>2020-08-13T06:52:35.529Z</time>
      </trkpt>
      <trkpt lat="37.813021" lon="-4.866478">
        <ele>170.339119</ele>
        <time>2020-08-13T06:52:38.524Z</time>
      </trkpt>
      <trkpt lat="37.812986" lon="-4.866588">
        <ele>170.199314</ele>
        <time>2020-08-13T06:52:41.517Z</time>
      </trkpt>
      <trkpt lat="37.812942" lon="-4.866707">
        <ele>170.044417</ele>
        <time>2020-08-13T06:52:44.525Z</time>
      </trkpt>
      <trkpt lat="37.812900" lon="-4.866826">
        <ele>169.890761</ele>
        <time>2020-08-13T06:52:47.528Z</time>
      </trkpt>
      <trkpt lat="37.812847" lon="-4.866919">
        <ele>169.755571</ele>
        <time>2020-08-13T06:52:50.531Z</time>
      </trkpt>
      <trkpt lat="37.812790" lon="-4.867019">
        <ele>169.610196</ele>
        <time>2020-08-13T06:52:54.535Z</time>
      </trkpt>
      <trkpt lat="37.812735" lon="-4.867131">
        <ele>169.454725</ele>
        <time>2020-08-13T06:52:58.525Z</time>
      </trkpt>
      <trkpt lat="37.812678" lon="-4.867245">
        <ele>169.295672</ele>
        <time>2020-08-13T06:53:02.534Z</time>
      </trkpt>
      <trkpt lat="37.812620" lon="-4.867364">
        <ele>169.359727</ele>
        <time>2020-08-13T06:53:06.525Z</time>
      </trkpt>
      <trkpt lat="37.812562" lon="-4.867491">
        <ele>169.746394</ele>
        <time>2020-08-13T06:53:10.538Z</time>
      </trkpt>
      <trkpt lat="37.812523" lon="-4.867594">
        <ele>170.047463</ele>
        <time>2020-08-13T06:53:13.522Z</time>
      </trkpt>
      <trkpt lat="37.812490" lon="-4.867707">
        <ele>170.365018</ele>
        <time>2020-08-13T06:53:16.523Z</time>
      </trkpt>
      <trkpt lat="37.812452" lon="-4.867851">
        <ele>170.765202</ele>
        <time>2020-08-13T06:53:20.533Z</time>
      </trkpt>
      <trkpt lat="37.812424" lon="-4.867963">
        <ele>171.074851</ele>
        <time>2020-08-13T06:53:23.528Z</time>
      </trkpt>
      <trkpt lat="37.812384" lon="-4.868103">
        <ele>171.467268</ele>
        <time>2020-08-13T06:53:27.527Z</time>
      </trkpt>
      <trkpt lat="37.812373" lon="-4.868252">
        <ele>171.861728</ele>
        <time>2020-08-13T06:53:31.528Z</time>
      </trkpt>
      <trkpt lat="37.812362" lon="-4.868374">
        <ele>172.185395</ele>
        <time>2020-08-13T06:53:34.540Z</time>
      </trkpt>
      <trkpt lat="37.812345" lon="-4.868503">
        <ele>172.530125</ele>
        <time>2020-08-13T06:53:37.528Z</time>
      </trkpt>
      <trkpt lat="37.812336" lon="-4.868630">
        <ele>172.866228</ele>
        <time>2020-08-13T06:53:40.529Z</time>
      </trkpt>
      <trkpt lat="37.812336" lon="-4.868757">
        <ele>173.200987</ele>
        <time>2020-08-13T06:53:43.525Z</time>
      </trkpt>
      <trkpt lat="37.812336" lon="-4.868882">
        <ele>173.530475</ele>
        <time>2020-08-13T06:53:46.516Z</time>
      </trkpt>
      <trkpt lat="37.812325" lon="-4.869009">
        <ele>173.867240</ele>
        <time>2020-08-13T06:53:49.522Z</time>
      </trkpt>
      <trkpt lat="37.812316" lon="-4.869130">
        <ele>174.187594</ele>
        <time>2020-08-13T06:53:52.525Z</time>
      </trkpt>
      <trkpt lat="37.812304" lon="-4.869249">
        <ele>174.503811</ele>
        <time>2020-08-13T06:53:55.523Z</time>
      </trkpt>
      <trkpt lat="37.812306" lon="-4.869377">
        <ele>174.841273</ele>
        <time>2020-08-13T06:53:58.522Z</time>
      </trkpt>
      <trkpt lat="37.812330" lon="-4.869507">
        <ele>175.193171</ele>
        <time>2020-08-13T06:54:01.529Z</time>
      </trkpt>
      <trkpt lat="37.812358" lon="-4.869623">
        <ele>175.485722</ele>
        <time>2020-08-13T06:54:04.528Z</time>
      </trkpt>
      <trkpt lat="37.812381" lon="-4.869737">
        <ele>175.768695</ele>
        <time>2020-08-13T06:54:07.527Z</time>
      </trkpt>
      <trkpt lat="37.812396" lon="-4.869855">
        <ele>176.056139</ele>
        <time>2020-08-13T06:54:10.525Z</time>
      </trkpt>
      <trkpt lat="37.812411" lon="-4.869976">
        <ele>176.350709</ele>
        <time>2020-08-13T06:54:13.512Z</time>
      </trkpt>
      <trkpt lat="37.812427" lon="-4.870104">
        <ele>176.662383</ele>
        <time>2020-08-13T06:54:16.523Z</time>
      </trkpt>
      <trkpt lat="37.812455" lon="-4.870242">
        <ele>177.005048</ele>
        <time>2020-08-13T06:54:19.529Z</time>
      </trkpt>
      <trkpt lat="37.812484" lon="-4.870375">
        <ele>177.336877</ele>
        <time>2020-08-13T06:54:22.526Z</time>
      </trkpt>
      <trkpt lat="37.812507" lon="-4.870496">
        <ele>177.636190</ele>
        <time>2020-08-13T06:54:25.525Z</time>
      </trkpt>
      <trkpt lat="37.812550" lon="-4.870630">
        <ele>177.984035</ele>
        <time>2020-08-13T06:54:28.534Z</time>
      </trkpt>
      <trkpt lat="37.812615" lon="-4.870759">
        <ele>178.352015</ele>
        <time>2020-08-13T06:54:31.722Z</time>
      </trkpt>
      <trkpt lat="37.812645" lon="-4.870883">
        <ele>178.663908</ele>
        <time>2020-08-13T06:54:34.734Z</time>
      </trkpt>
      <trkpt lat="37.812686" lon="-4.870996">
        <ele>178.962968</ele>
        <time>2020-08-13T06:54:37.710Z</time>
      </trkpt>
      <trkpt lat="37.812727" lon="-4.871115">
        <ele>179.275198</ele>
        <time>2020-08-13T06:54:40.730Z</time>
      </trkpt>
      <trkpt lat="37.812756" lon="-4.871230">
        <ele>179.565524</ele>
        <time>2020-08-13T06:54:43.722Z</time>
      </trkpt>
      <trkpt lat="37.812781" lon="-4.871373">
        <ele>179.917762</ele>
        <time>2020-08-13T06:54:46.720Z</time>
      </trkpt>
      <trkpt lat="37.812805" lon="-4.871487">
        <ele>180.201502</ele>
        <time>2020-08-13T06:54:49.711Z</time>
      </trkpt>
      <trkpt lat="37.812821" lon="-4.871610">
        <ele>180.501302</ele>
        <time>2020-08-13T06:54:52.719Z</time>
      </trkpt>
      <trkpt lat="37.812845" lon="-4.871732">
        <ele>180.776552</ele>
        <time>2020-08-13T06:54:55.720Z</time>
      </trkpt>
      <trkpt lat="37.812858" lon="-4.871861">
        <ele>181.021682</ele>
        <time>2020-08-13T06:54:58.716Z</time>
      </trkpt>
      <trkpt lat="37.812869" lon="-4.871990">
        <ele>181.266255</ele>
        <time>2020-08-13T06:55:01.707Z</time>
      </trkpt>
      <trkpt lat="37.812888" lon="-4.872129">
        <ele>181.532157</ele>
        <time>2020-08-13T06:55:04.724Z</time>
      </trkpt>
      <trkpt lat="37.812914" lon="-4.872261">
        <ele>181.788588</ele>
        <time>2020-08-13T06:55:07.720Z</time>
      </trkpt>
      <trkpt lat="37.812924" lon="-4.872392">
        <ele>182.036668</ele>
        <time>2020-08-13T06:55:10.721Z</time>
      </trkpt>
      <trkpt lat="37.812930" lon="-4.872519">
        <ele>182.276486</ele>
        <time>2020-08-13T06:55:13.720Z</time>
      </trkpt>
      <trkpt lat="37.812937" lon="-4.872636">
        <ele>182.497657</ele>
        <time>2020-08-13T06:55:16.723Z</time>
      </trkpt>
      <trkpt lat="37.812956" lon="-4.872751">
        <ele>182.719117</ele>
        <time>2020-08-13T06:55:19.737Z</time>
      </trkpt>
      <trkpt lat="37.812967" lon="-4.872878">
        <ele>182.959941</ele>
        <time>2020-08-13T06:55:22.715Z</time>
      </trkpt>
      <trkpt lat="37.812966" lon="-4.873005">
        <ele>183.199343</ele>
        <time>2020-08-13T06:55:25.722Z</time>
      </trkpt>
      <trkpt lat="37.812970" lon="-4.873128">
        <ele>183.431389</ele>
        <time>2020-08-13T06:55:28.726Z</time>
      </trkpt>
      <trkpt lat="37.812970" lon="-4.873251">
        <ele>183.663239</ele>
        <time>2020-08-13T06:55:31.743Z</time>
      </trkpt>
      <trkpt lat="37.812976" lon="-4.873376">
        <ele>183.899293</ele>
        <time>2020-08-13T06:55:34.724Z</time>
      </trkpt>
      <trkpt lat="37.812976" lon="-4.873500">
        <ele>184.133028</ele>
        <time>2020-08-13T06:55:37.719Z</time>
      </trkpt>
      <trkpt lat="37.812975" lon="-4.873615">
        <ele>184.349811</ele>
        <time>2020-08-13T06:55:40.731Z</time>
      </trkpt>
      <trkpt lat="37.812964" lon="-4.873729">
        <ele>184.566293</ele>
        <time>2020-08-13T06:55:43.725Z</time>
      </trkpt>
      <trkpt lat="37.812947" lon="-4.873852">
        <ele>184.801664</ele>
        <time>2020-08-13T06:55:46.727Z</time>
      </trkpt>
      <trkpt lat="37.812929" lon="-4.873981">
        <ele>185.011650</ele>
        <time>2020-08-13T06:55:49.719Z</time>
      </trkpt>
      <trkpt lat="37.812907" lon="-4.874112">
        <ele>185.145802</ele>
        <time>2020-08-13T06:55:52.720Z</time>
      </trkpt>
      <trkpt lat="37.812893" lon="-4.874231">
        <ele>185.266316</ele>
        <time>2020-08-13T06:55:55.718Z</time>
      </trkpt>
      <trkpt lat="37.812874" lon="-4.874354">
        <ele>185.391856</ele>
        <time>2020-08-13T06:55:58.737Z</time>
      </trkpt>
      <trkpt lat="37.812840" lon="-4.874484">
        <ele>185.529024</ele>
        <time>2020-08-13T06:56:01.723Z</time>
      </trkpt>
      <trkpt lat="37.812807" lon="-4.874607">
        <ele>185.659142</ele>
        <time>2020-08-13T06:56:04.724Z</time>
      </trkpt>
      <trkpt lat="37.812795" lon="-4.874728">
        <ele>185.781296</ele>
        <time>2020-08-13T06:56:07.723Z</time>
      </trkpt>
      <trkpt lat="37.812762" lon="-4.874870">
        <ele>185.929561</ele>
        <time>2020-08-13T06:56:11.722Z</time>
      </trkpt>
      <trkpt lat="37.812736" lon="-4.874990">
        <ele>186.054202</ele>
        <time>2020-08-13T06:56:14.732Z</time>
      </trkpt>
      <trkpt lat="37.812687" lon="-4.875130">
        <ele>186.207583</ele>
        <time>2020-08-13T06:56:18.721Z</time>
      </trkpt>
      <trkpt lat="37.812657" lon="-4.875238">
        <ele>186.322257</ele>
        <time>2020-08-13T06:56:21.721Z</time>
      </trkpt>
      <trkpt lat="37.812622" lon="-4.875353">
        <ele>186.445703</ele>
        <time>2020-08-13T06:56:24.721Z</time>
      </trkpt>
      <trkpt lat="37.812587" lon="-4.875464">
        <ele>186.565419</ele>
        <time>2020-08-13T06:56:27.722Z</time>
      </trkpt>
      <trkpt lat="37.812552" lon="-4.875575">
        <ele>186.685134</ele>
        <time>2020-08-13T06:56:30.719Z</time>
      </trkpt>
      <trkpt lat="37.812495" lon="-4.875708">
        <ele>186.836699</ele>
        <time>2020-08-13T06:56:34.731Z</time>
      </trkpt>
      <trkpt lat="37.812449" lon="-4.875816">
        <ele>186.959601</ele>
        <time>2020-08-13T06:56:37.723Z</time>
      </trkpt>
      <trkpt lat="37.812414" lon="-4.875931">
        <ele>187.083047</ele>
        <time>2020-08-13T06:56:40.724Z</time>
      </trkpt>
      <trkpt lat="37.812368" lon="-4.876034">
        <ele>187.201565</ele>
        <time>2020-08-13T06:56:43.708Z</time>
      </trkpt>
      <trkpt lat="37.812311" lon="-4.876159">
        <ele>187.456369</ele>
        <time>2020-08-13T06:56:47.720Z</time>
      </trkpt>
      <trkpt lat="37.812261" lon="-4.876276">
        <ele>187.742870</ele>
        <time>2020-08-13T06:56:51.723Z</time>
      </trkpt>
      <trkpt lat="37.812206" lon="-4.876397">
        <ele>188.043538</ele>
        <time>2020-08-13T06:56:55.722Z</time>
      </trkpt>
      <trkpt lat="37.812171" lon="-4.876529">
        <ele>188.343426</ele>
        <time>2020-08-13T06:56:59.727Z</time>
      </trkpt>
      <trkpt lat="37.811978" lon="-4.876741">
        <ele>189.040092</ele>
        <time>2020-08-13T06:58:53.722Z</time>
      </trkpt>
      <trkpt lat="37.811904" lon="-4.876809">
        <ele>189.289392</ele>
        <time>2020-08-13T06:59:13.726Z</time>
      </trkpt>
      <trkpt lat="37.811884" lon="-4.876921">
        <ele>189.536705</ele>
        <time>2020-08-13T07:00:07.728Z</time>
      </trkpt>
      <trkpt lat="37.811822" lon="-4.877014">
        <ele>189.798798</ele>
        <time>2020-08-13T07:00:34.744Z</time>
      </trkpt>
      <trkpt lat="37.811758" lon="-4.877107">
        <ele>190.064439</ele>
        <time>2020-08-13T07:00:41.766Z</time>
      </trkpt>
      <trkpt lat="37.811680" lon="-4.877181">
        <ele>190.330188</ele>
        <time>2020-08-13T07:00:48.737Z</time>
      </trkpt>
      <trkpt lat="37.811623" lon="-4.877275">
        <ele>190.585409</ele>
        <time>2020-08-13T07:00:56.731Z</time>
      </trkpt>
      <trkpt lat="37.811541" lon="-4.877325">
        <ele>190.833549</ele>
        <time>2020-08-13T07:01:05.782Z</time>
      </trkpt>
      <trkpt lat="37.811486" lon="-4.877421">
        <ele>191.088962</ele>
        <time>2020-08-13T07:01:45.727Z</time>
      </trkpt>
      <trkpt lat="37.811429" lon="-4.877510">
        <ele>191.335728</ele>
        <time>2020-08-13T07:01:50.749Z</time>
      </trkpt>
      <trkpt lat="37.811357" lon="-4.877591">
        <ele>191.598343</ele>
        <time>2020-08-13T07:01:56.735Z</time>
      </trkpt>
      <trkpt lat="37.811279" lon="-4.877652">
        <ele>191.848305</ele>
        <time>2020-08-13T07:02:14.729Z</time>
      </trkpt>
      <trkpt lat="37.811072" lon="-4.877845">
        <ele>191.662802</ele>
        <time>2020-08-13T07:06:34.727Z</time>
      </trkpt>
      <trkpt lat="37.810979" lon="-4.877923">
        <ele>191.285026</ele>
        <time>2020-08-13T07:07:04.705Z</time>
      </trkpt>
      <trkpt lat="37.810713" lon="-4.878132">
        <ele>190.224869</ele>
        <time>2020-08-13T07:07:40.727Z</time>
      </trkpt>
      <trkpt lat="37.810635" lon="-4.878190">
        <ele>189.918541</ele>
        <time>2020-08-13T07:07:43.725Z</time>
      </trkpt>
      <trkpt lat="37.810557" lon="-4.878274">
        <ele>189.571755</ele>
        <time>2020-08-13T07:07:48.709Z</time>
      </trkpt>
      <trkpt lat="37.810477" lon="-4.878362">
        <ele>189.212857</ele>
        <time>2020-08-13T07:07:54.725Z</time>
      </trkpt>
      <trkpt lat="37.810395" lon="-4.878421">
        <ele>188.893462</ele>
        <time>2020-08-13T07:07:58.727Z</time>
      </trkpt>
      <trkpt lat="37.810312" lon="-4.878498">
        <ele>188.545001</ele>
        <time>2020-08-13T07:08:02.716Z</time>
      </trkpt>
      <trkpt lat="37.810227" lon="-4.878584">
        <ele>188.176521</ele>
        <time>2020-08-13T07:08:06.714Z</time>
      </trkpt>
      <trkpt lat="37.810149" lon="-4.878660">
        <ele>187.843204</ele>
        <time>2020-08-13T07:08:10.722Z</time>
      </trkpt>
      <trkpt lat="37.810068" lon="-4.878720">
        <ele>187.525405</ele>
        <time>2020-08-13T07:08:14.726Z</time>
      </trkpt>
      <trkpt lat="37.809974" lon="-4.878786">
        <ele>187.161410</ele>
        <time>2020-08-13T07:08:19.724Z</time>
      </trkpt>
      <trkpt lat="37.809887" lon="-4.878871">
        <ele>186.789256</ele>
        <time>2020-08-13T07:08:24.617Z</time>
      </trkpt>
      <trkpt lat="37.809823" lon="-4.878964">
        <ele>186.459305</ele>
        <time>2020-08-13T07:08:29.612Z</time>
      </trkpt>
      <trkpt lat="37.809772" lon="-4.879060">
        <ele>186.149816</ele>
        <time>2020-08-13T07:08:33.615Z</time>
      </trkpt>
      <trkpt lat="37.809673" lon="-4.879128">
        <ele>186.124564</ele>
        <time>2020-08-13T07:08:37.599Z</time>
      </trkpt>
      <trkpt lat="37.809590" lon="-4.879174">
        <ele>186.188315</ele>
        <time>2020-08-13T07:08:40.610Z</time>
      </trkpt>
      <trkpt lat="37.809500" lon="-4.879256">
        <ele>186.266337</ele>
        <time>2020-08-13T07:08:44.604Z</time>
      </trkpt>
      <trkpt lat="37.809441" lon="-4.879351">
        <ele>186.333507</ele>
        <time>2020-08-13T07:08:47.613Z</time>
      </trkpt>
      <trkpt lat="37.809365" lon="-4.879433">
        <ele>186.403771</ele>
        <time>2020-08-13T07:08:51.618Z</time>
      </trkpt>
      <trkpt lat="37.809283" lon="-4.879530">
        <ele>186.482738</ele>
        <time>2020-08-13T07:08:55.600Z</time>
      </trkpt>
      <trkpt lat="37.809206" lon="-4.879628">
        <ele>186.559567</ele>
        <time>2020-08-13T07:08:59.615Z</time>
      </trkpt>
      <trkpt lat="37.809144" lon="-4.879731">
        <ele>186.631546</ele>
        <time>2020-08-13T07:09:02.607Z</time>
      </trkpt>
      <trkpt lat="37.809075" lon="-4.879842">
        <ele>186.710057</ele>
        <time>2020-08-13T07:09:05.613Z</time>
      </trkpt>
      <trkpt lat="37.808991" lon="-4.879954">
        <ele>186.795900</ele>
        <time>2020-08-13T07:09:08.611Z</time>
      </trkpt>
      <trkpt lat="37.808927" lon="-4.880063">
        <ele>186.871391</ele>
        <time>2020-08-13T07:09:11.611Z</time>
      </trkpt>
      <trkpt lat="37.808864" lon="-4.880151">
        <ele>186.937403</ele>
        <time>2020-08-13T07:09:14.613Z</time>
      </trkpt>
      <trkpt lat="37.808805" lon="-4.880241">
        <ele>187.002412</ele>
        <time>2020-08-13T07:09:17.619Z</time>
      </trkpt>
      <trkpt lat="37.808741" lon="-4.880345">
        <ele>187.075691</ele>
        <time>2020-08-13T07:09:20.614Z</time>
      </trkpt>
      <trkpt lat="37.808683" lon="-4.880434">
        <ele>187.139822</ele>
        <time>2020-08-13T07:09:23.612Z</time>
      </trkpt>
      <trkpt lat="37.808614" lon="-4.880512">
        <ele>187.204913</ele>
        <time>2020-08-13T07:09:26.619Z</time>
      </trkpt>
      <trkpt lat="37.808558" lon="-4.880608">
        <ele>187.271247</ele>
        <time>2020-08-13T07:09:29.608Z</time>
      </trkpt>
      <trkpt lat="37.808506" lon="-4.880711">
        <ele>187.343658</ele>
        <time>2020-08-13T07:09:32.616Z</time>
      </trkpt>
      <trkpt lat="37.808460" lon="-4.880821">
        <ele>187.442535</ele>
        <time>2020-08-13T07:09:35.611Z</time>
      </trkpt>
      <trkpt lat="37.808429" lon="-4.880937">
        <ele>187.539822</ele>
        <time>2020-08-13T07:09:38.610Z</time>
      </trkpt>
      <trkpt lat="37.808365" lon="-4.881058">
        <ele>187.655506</ele>
        <time>2020-08-13T07:09:42.618Z</time>
      </trkpt>
      <trkpt lat="37.808313" lon="-4.881184">
        <ele>187.768443</ele>
        <time>2020-08-13T07:09:46.610Z</time>
      </trkpt>
      <trkpt lat="37.808261" lon="-4.881307">
        <ele>187.879272</ele>
        <time>2020-08-13T07:09:50.608Z</time>
      </trkpt>
      <trkpt lat="37.808211" lon="-4.881430">
        <ele>187.989167</ele>
        <time>2020-08-13T07:09:53.611Z</time>
      </trkpt>
      <trkpt lat="37.808167" lon="-4.881583">
        <ele>188.118523</ele>
        <time>2020-08-13T07:09:56.613Z</time>
      </trkpt>
      <trkpt lat="37.808122" lon="-4.881715">
        <ele>188.232738</ele>
        <time>2020-08-13T07:09:58.611Z</time>
      </trkpt>
      <trkpt lat="37.808080" lon="-4.881858">
        <ele>188.353943</ele>
        <time>2020-08-13T07:10:00.614Z</time>
      </trkpt>
      <trkpt lat="37.808053" lon="-4.881975">
        <ele>188.450780</ele>
        <time>2020-08-13T07:10:02.610Z</time>
      </trkpt>
      <trkpt lat="37.808019" lon="-4.882115">
        <ele>188.567141</ele>
        <time>2020-08-13T07:10:04.613Z</time>
      </trkpt>
      <trkpt lat="37.807989" lon="-4.882262">
        <ele>188.687761</ele>
        <time>2020-08-13T07:10:06.616Z</time>
      </trkpt>
      <trkpt lat="37.807979" lon="-4.882392">
        <ele>188.791530</ele>
        <time>2020-08-13T07:10:08.613Z</time>
      </trkpt>
      <trkpt lat="37.807973" lon="-4.882521">
        <ele>188.894194</ele>
        <time>2020-08-13T07:10:10.608Z</time>
      </trkpt>
      <trkpt lat="37.807974" lon="-4.882643">
        <ele>188.991124</ele>
        <time>2020-08-13T07:10:12.617Z</time>
      </trkpt>
      <trkpt lat="37.807969" lon="-4.882761">
        <ele>189.085006</ele>
        <time>2020-08-13T07:10:14.598Z</time>
      </trkpt>
      <trkpt lat="37.807962" lon="-4.882942">
        <ele>189.157010</ele>
        <time>2020-08-13T07:10:17.611Z</time>
      </trkpt>
      <trkpt lat="37.807956" lon="-4.883064">
        <ele>189.177767</ele>
        <time>2020-08-13T07:10:19.610Z</time>
      </trkpt>
      <trkpt lat="37.807950" lon="-4.883192">
        <ele>189.199541</ele>
        <time>2020-08-13T07:10:21.611Z</time>
      </trkpt>
      <trkpt lat="37.807958" lon="-4.883328">
        <ele>189.222699</ele>
        <time>2020-08-13T07:10:24.618Z</time>
      </trkpt>
      <trkpt lat="37.807985" lon="-4.883472">
        <ele>189.247831</ele>
        <time>2020-08-13T07:10:27.621Z</time>
      </trkpt>
      <trkpt lat="37.807989" lon="-4.883620">
        <ele>189.272977</ele>
        <time>2020-08-13T07:10:30.616Z</time>
      </trkpt>
      <trkpt lat="37.807996" lon="-4.883757">
        <ele>189.296290</ele>
        <time>2020-08-13T07:10:33.620Z</time>
      </trkpt>
      <trkpt lat="37.807999" lon="-4.883902">
        <ele>189.320920</ele>
        <time>2020-08-13T07:10:36.614Z</time>
      </trkpt>
      <trkpt lat="37.808009" lon="-4.884060">
        <ele>189.347836</ele>
        <time>2020-08-13T07:10:39.616Z</time>
      </trkpt>
      <trkpt lat="37.808020" lon="-4.884212">
        <ele>189.373755</ele>
        <time>2020-08-13T07:10:42.619Z</time>
      </trkpt>
      <trkpt lat="37.808036" lon="-4.884350">
        <ele>189.397440</ele>
        <time>2020-08-13T07:10:45.613Z</time>
      </trkpt>
      <trkpt lat="37.808048" lon="-4.884492">
        <ele>189.421690</ele>
        <time>2020-08-13T07:10:48.611Z</time>
      </trkpt>
      <trkpt lat="37.808062" lon="-4.884631">
        <ele>189.445485</ele>
        <time>2020-08-13T07:10:51.623Z</time>
      </trkpt>
      <trkpt lat="37.808085" lon="-4.884805">
        <ele>189.475442</ele>
        <time>2020-08-13T07:10:54.609Z</time>
      </trkpt>
      <trkpt lat="37.808109" lon="-4.884921">
        <ele>189.495804</ele>
        <time>2020-08-13T07:10:56.611Z</time>
      </trkpt>
      <trkpt lat="37.808118" lon="-4.885053">
        <ele>189.518302</ele>
        <time>2020-08-13T07:10:58.597Z</time>
      </trkpt>
      <trkpt lat="37.808123" lon="-4.885167">
        <ele>189.305350</ele>
        <time>2020-08-13T07:11:00.610Z</time>
      </trkpt>
      <trkpt lat="37.808115" lon="-4.885314">
        <ele>188.904860</ele>
        <time>2020-08-13T07:11:03.609Z</time>
      </trkpt>
      <trkpt lat="37.808122" lon="-4.885444">
        <ele>188.550703</ele>
        <time>2020-08-13T07:11:05.614Z</time>
      </trkpt>
      <trkpt lat="37.808133" lon="-4.885610">
        <ele>188.097934</ele>
        <time>2020-08-13T07:11:08.605Z</time>
      </trkpt>
      <trkpt lat="37.808144" lon="-4.885740">
        <ele>187.742576</ele>
        <time>2020-08-13T07:11:10.610Z</time>
      </trkpt>
      <trkpt lat="37.808159" lon="-4.885859">
        <ele>187.415046</ele>
        <time>2020-08-13T07:11:12.627Z</time>
      </trkpt>
      <trkpt lat="37.808169" lon="-4.885974">
        <ele>187.100591</ele>
        <time>2020-08-13T07:11:14.615Z</time>
      </trkpt>
      <trkpt lat="37.808191" lon="-4.886134">
        <ele>186.659178</ele>
        <time>2020-08-13T07:11:17.607Z</time>
      </trkpt>
      <trkpt lat="37.808221" lon="-4.886292">
        <ele>186.217510</ele>
        <time>2020-08-13T07:11:20.612Z</time>
      </trkpt>
      <trkpt lat="37.808240" lon="-4.886438">
        <ele>185.815339</ele>
        <time>2020-08-13T07:11:23.610Z</time>
      </trkpt>
      <trkpt lat="37.808245" lon="-4.886590">
        <ele>185.401849</ele>
        <time>2020-08-13T07:11:26.611Z</time>
      </trkpt>
      <trkpt lat="37.808257" lon="-4.886743">
        <ele>184.983955</ele>
        <time>2020-08-13T07:11:29.619Z</time>
      </trkpt>
      <trkpt lat="37.808261" lon="-4.886892">
        <ele>184.578743</ele>
        <time>2020-08-13T07:11:32.610Z</time>
      </trkpt>
      <trkpt lat="37.808257" lon="-4.887036">
        <ele>184.187112</ele>
        <time>2020-08-13T07:11:35.615Z</time>
      </trkpt>
      <trkpt lat="37.808239" lon="-4.887166">
        <ele>183.828391</ele>
        <time>2020-08-13T07:11:38.613Z</time>
      </trkpt>
      <trkpt lat="37.808216" lon="-4.887302">
        <ele>183.450372</ele>
        <time>2020-08-13T07:11:41.610Z</time>
      </trkpt>
      <trkpt lat="37.808193" lon="-4.887439">
        <ele>183.615097</ele>
        <time>2020-08-13T07:11:44.617Z</time>
      </trkpt>
      <trkpt lat="37.808178" lon="-4.887577">
        <ele>184.010837</ele>
        <time>2020-08-13T07:11:47.615Z</time>
      </trkpt>
      <trkpt lat="37.808167" lon="-4.887719">
        <ele>184.416183</ele>
        <time>2020-08-13T07:11:50.616Z</time>
      </trkpt>
      <trkpt lat="37.808159" lon="-4.887856">
        <ele>184.806451</ele>
        <time>2020-08-13T07:11:53.607Z</time>
      </trkpt>
      <trkpt lat="37.808130" lon="-4.887992">
        <ele>185.206641</ele>
        <time>2020-08-13T07:11:56.612Z</time>
      </trkpt>
      <trkpt lat="37.808111" lon="-4.888125">
        <ele>185.590612</ele>
        <time>2020-08-13T07:11:59.614Z</time>
      </trkpt>
      <trkpt lat="37.808106" lon="-4.888246">
        <ele>185.934833</ele>
        <time>2020-08-13T07:12:02.609Z</time>
      </trkpt>
      <trkpt lat="37.808068" lon="-4.888373">
        <ele>186.320639</ele>
        <time>2020-08-13T07:12:05.611Z</time>
      </trkpt>
      <trkpt lat="37.808036" lon="-4.888498">
        <ele>186.693931</ele>
        <time>2020-08-13T07:12:08.611Z</time>
      </trkpt>
      <trkpt lat="37.807991" lon="-4.888612">
        <ele>187.055970</ele>
        <time>2020-08-13T07:12:11.609Z</time>
      </trkpt>
      <trkpt lat="37.807940" lon="-4.888734">
        <ele>187.448089</ele>
        <time>2020-08-13T07:12:14.604Z</time>
      </trkpt>
      <trkpt lat="37.807894" lon="-4.888864">
        <ele>187.852759</ele>
        <time>2020-08-13T07:12:17.613Z</time>
      </trkpt>
      <trkpt lat="37.807850" lon="-4.888978">
        <ele>188.213205</ele>
        <time>2020-08-13T07:12:20.608Z</time>
      </trkpt>
      <trkpt lat="37.807812" lon="-4.889085">
        <ele>188.546484</ele>
        <time>2020-08-13T07:12:23.608Z</time>
      </trkpt>
      <trkpt lat="37.807750" lon="-4.889209">
        <ele>188.963378</ele>
        <time>2020-08-13T07:12:27.635Z</time>
      </trkpt>
      <trkpt lat="37.807681" lon="-4.889298">
        <ele>189.317621</ele>
        <time>2020-08-13T07:12:29.608Z</time>
      </trkpt>
      <trkpt lat="37.807631" lon="-4.889428">
        <ele>189.728381</ele>
        <time>2020-08-13T07:12:32.610Z</time>
      </trkpt>
      <trkpt lat="37.807571" lon="-4.889536">
        <ele>189.400026</ele>
        <time>2020-08-13T07:12:36.609Z</time>
      </trkpt>
      <trkpt lat="37.807493" lon="-4.889660">
        <ele>188.792857</ele>
        <time>2020-08-13T07:12:40.626Z</time>
      </trkpt>
      <trkpt lat="37.807429" lon="-4.889770">
        <ele>188.269552</ele>
        <time>2020-08-13T07:12:43.604Z</time>
      </trkpt>
      <trkpt lat="37.807363" lon="-4.889857">
        <ele>187.807523</ele>
        <time>2020-08-13T07:12:46.605Z</time>
      </trkpt>
      <trkpt lat="37.807293" lon="-4.889950">
        <ele>187.315479</ele>
        <time>2020-08-13T07:12:50.611Z</time>
      </trkpt>
      <trkpt lat="37.807222" lon="-4.890032">
        <ele>186.849459</ele>
        <time>2020-08-13T07:12:53.612Z</time>
      </trkpt>
      <trkpt lat="37.807146" lon="-4.890102">
        <ele>186.393731</ele>
        <time>2020-08-13T07:12:56.615Z</time>
      </trkpt>
      <trkpt lat="37.807080" lon="-4.890186">
        <ele>185.939921</ele>
        <time>2020-08-13T07:12:59.621Z</time>
      </trkpt>
      <trkpt lat="37.806999" lon="-4.890273">
        <ele>185.424841</ele>
        <time>2020-08-13T07:13:02.598Z</time>
      </trkpt>
      <trkpt lat="37.806915" lon="-4.890369">
        <ele>184.876103</ele>
        <time>2020-08-13T07:13:05.623Z</time>
      </trkpt>
      <trkpt lat="37.806808" lon="-4.890472">
        <ele>184.224316</ele>
        <time>2020-08-13T07:13:08.619Z</time>
      </trkpt>
      <trkpt lat="37.806713" lon="-4.890581">
        <ele>183.602617</ele>
        <time>2020-08-13T07:13:11.616Z</time>
      </trkpt>
      <trkpt lat="37.806624" lon="-4.890681">
        <ele>183.025596</ele>
        <time>2020-08-13T07:13:14.621Z</time>
      </trkpt>
      <trkpt lat="37.806532" lon="-4.890756">
        <ele>182.495014</ele>
        <time>2020-08-13T07:13:17.629Z</time>
      </trkpt>
      <trkpt lat="37.806443" lon="-4.890814">
        <ele>182.009655</ele>
        <time>2020-08-13T07:13:20.616Z</time>
      </trkpt>
      <trkpt lat="37.803792" lon="-4.892926">
        <ele>165.934032</ele>
        <time>2020-08-13T07:15:19.619Z</time>
      </trkpt>
      <trkpt lat="37.803670" lon="-4.892640">
        <ele>165.852666</ele>
        <time>2020-08-13T07:15:20.602Z</time>
      </trkpt>
      <trkpt lat="37.803545" lon="-4.892680">
        <ele>165.811815</ele>
        <time>2020-08-13T07:15:22.610Z</time>
      </trkpt>
      <trkpt lat="37.803417" lon="-4.892651">
        <ele>165.770615</ele>
        <time>2020-08-13T07:15:24.615Z</time>
      </trkpt>
      <trkpt lat="37.803287" lon="-4.892700">
        <ele>165.727638</ele>
        <time>2020-08-13T07:15:26.610Z</time>
      </trkpt>
      <trkpt lat="37.803160" lon="-4.892750">
        <ele>167.683434</ele>
        <time>2020-08-13T07:15:28.609Z</time>
      </trkpt>
      <trkpt lat="37.803018" lon="-4.892762">
        <ele>169.850975</ele>
        <time>2020-08-13T07:15:30.611Z</time>
      </trkpt>
      <trkpt lat="37.802902" lon="-4.892815">
        <ele>171.729307</ele>
        <time>2020-08-13T07:15:32.599Z</time>
      </trkpt>
      <trkpt lat="37.802784" lon="-4.892861">
        <ele>173.609822</ele>
        <time>2020-08-13T07:15:34.617Z</time>
      </trkpt>
      <trkpt lat="37.802679" lon="-4.892897">
        <ele>175.266661</ele>
        <time>2020-08-13T07:15:36.610Z</time>
      </trkpt>
      <trkpt lat="37.802595" lon="-4.892949">
        <ele>176.690860</ele>
        <time>2020-08-13T07:15:38.606Z</time>
      </trkpt>
      <trkpt lat="37.802482" lon="-4.892982">
        <ele>178.457124</ele>
        <time>2020-08-13T07:15:41.615Z</time>
      </trkpt>
      <trkpt lat="37.802352" lon="-4.893035">
        <ele>180.537275</ele>
        <time>2020-08-13T07:15:44.610Z</time>
      </trkpt>
      <trkpt lat="37.802257" lon="-4.893118">
        <ele>182.295443</ele>
        <time>2020-08-13T07:15:46.606Z</time>
      </trkpt>
      <trkpt lat="37.802146" lon="-4.893146">
        <ele>184.019276</ele>
        <time>2020-08-13T07:15:48.601Z</time>
      </trkpt>
      <trkpt lat="37.802032" lon="-4.893218">
        <ele>185.959735</ele>
        <time>2020-08-13T07:15:50.614Z</time>
      </trkpt>
      <trkpt lat="37.801938" lon="-4.893274">
        <ele>187.542079</ele>
        <time>2020-08-13T07:15:52.607Z</time>
      </trkpt>
      <trkpt lat="37.801844" lon="-4.893301">
        <ele>189.010150</ele>
        <time>2020-08-13T07:15:54.604Z</time>
      </trkpt>
      <trkpt lat="37.801732" lon="-4.893355">
        <ele>190.835550</ele>
        <time>2020-08-13T07:15:56.613Z</time>
      </trkpt>
      <trkpt lat="37.801626" lon="-4.893407">
        <ele>192.567016</ele>
        <time>2020-08-13T07:15:58.609Z</time>
      </trkpt>
      <trkpt lat="37.801521" lon="-4.893449">
        <ele>193.731384</ele>
        <time>2020-08-13T07:16:00.604Z</time>
      </trkpt>
      <trkpt lat="37.801416" lon="-4.893507">
        <ele>194.680072</ele>
        <time>2020-08-13T07:16:02.606Z</time>
      </trkpt>
      <trkpt lat="37.801318" lon="-4.893573">
        <ele>195.599331</ele>
        <time>2020-08-13T07:16:04.607Z</time>
      </trkpt>
      <trkpt lat="37.801194" lon="-4.893656">
        <ele>196.760911</ele>
        <time>2020-08-13T07:16:07.615Z</time>
      </trkpt>
      <trkpt lat="37.801097" lon="-4.893731">
        <ele>197.702183</ele>
        <time>2020-08-13T07:16:09.617Z</time>
      </trkpt>
      <trkpt lat="37.800954" lon="-4.893763">
        <ele>198.904700</ele>
        <time>2020-08-13T07:16:11.615Z</time>
      </trkpt>
      <trkpt lat="37.800861" lon="-4.893821">
        <ele>199.763237</ele>
        <time>2020-08-13T07:16:13.604Z</time>
      </trkpt>
      <trkpt lat="37.800768" lon="-4.893887">
        <ele>200.646161</ele>
        <time>2020-08-13T07:16:15.606Z</time>
      </trkpt>
      <trkpt lat="37.800665" lon="-4.893954">
        <ele>201.605144</ele>
        <time>2020-08-13T07:16:17.611Z</time>
      </trkpt>
      <trkpt lat="37.800538" lon="-4.893995">
        <ele>202.690476</ele>
        <time>2020-08-13T07:16:19.614Z</time>
      </trkpt>
      <trkpt lat="37.800417" lon="-4.894030">
        <ele>203.718285</ele>
        <time>2020-08-13T07:16:21.607Z</time>
      </trkpt>
      <trkpt lat="37.800298" lon="-4.894070">
        <ele>204.737860</ele>
        <time>2020-08-13T07:16:23.617Z</time>
      </trkpt>
      <trkpt lat="37.800206" lon="-4.894145">
        <ele>205.644061</ele>
        <time>2020-08-13T07:16:25.616Z</time>
      </trkpt>
      <trkpt lat="37.800104" lon="-4.894220">
        <ele>206.620907</ele>
        <time>2020-08-13T07:16:27.609Z</time>
      </trkpt>
      <trkpt lat="37.800019" lon="-4.894294">
        <ele>207.475227</ele>
        <time>2020-08-13T07:16:29.601Z</time>
      </trkpt>
      <trkpt lat="37.799934" lon="-4.894352">
        <ele>207.953541</ele>
        <time>2020-08-13T07:16:31.606Z</time>
      </trkpt>
      <trkpt lat="37.799840" lon="-4.894438">
        <ele>207.728695</ele>
        <time>2020-08-13T07:16:33.621Z</time>
      </trkpt>
      <trkpt lat="37.799763" lon="-4.894524">
        <ele>207.529616</ele>
        <time>2020-08-13T07:16:35.606Z</time>
      </trkpt>
      <trkpt lat="37.799672" lon="-4.894590">
        <ele>207.326298</ele>
        <time>2020-08-13T07:16:37.607Z</time>
      </trkpt>
      <trkpt lat="37.799576" lon="-4.894645">
        <ele>207.122021</ele>
        <time>2020-08-13T07:16:39.607Z</time>
      </trkpt>
      <trkpt lat="37.799482" lon="-4.894741">
        <ele>206.887871</ele>
        <time>2020-08-13T07:16:42.594Z</time>
      </trkpt>
      <trkpt lat="37.799362" lon="-4.894837">
        <ele>206.612672</ele>
        <time>2020-08-13T07:16:45.598Z</time>
      </trkpt>
      <trkpt lat="37.799248" lon="-4.894918">
        <ele>206.359236</ele>
        <time>2020-08-13T07:16:48.608Z</time>
      </trkpt>
      <trkpt lat="37.799189" lon="-4.895004">
        <ele>206.184784</ele>
        <time>2020-08-13T07:16:50.606Z</time>
      </trkpt>
      <trkpt lat="37.799103" lon="-4.895068">
        <ele>205.991387</ele>
        <time>2020-08-13T07:16:52.618Z</time>
      </trkpt>
      <trkpt lat="37.799016" lon="-4.895175">
        <ele>205.756217</ele>
        <time>2020-08-13T07:16:55.605Z</time>
      </trkpt>
      <trkpt lat="37.798941" lon="-4.895293">
        <ele>205.524255</ele>
        <time>2020-08-13T07:16:58.610Z</time>
      </trkpt>
      <trkpt lat="37.798859" lon="-4.895398">
        <ele>205.298126</ele>
        <time>2020-08-13T07:17:01.608Z</time>
      </trkpt>
      <trkpt lat="37.798778" lon="-4.895498">
        <ele>205.078770</ele>
        <time>2020-08-13T07:17:04.605Z</time>
      </trkpt>
      <trkpt lat="37.798688" lon="-4.895599">
        <ele>204.845591</ele>
        <time>2020-08-13T07:17:07.613Z</time>
      </trkpt>
      <trkpt lat="37.798605" lon="-4.895724">
        <ele>204.595496</ele>
        <time>2020-08-13T07:17:10.590Z</time>
      </trkpt>
      <trkpt lat="37.798530" lon="-4.895856">
        <ele>204.633933</ele>
        <time>2020-08-13T07:17:13.606Z</time>
      </trkpt>
      <trkpt lat="37.798452" lon="-4.895983">
        <ele>204.778086</ele>
        <time>2020-08-13T07:17:16.618Z</time>
      </trkpt>
      <trkpt lat="37.798396" lon="-4.896077">
        <ele>204.883589</ele>
        <time>2020-08-13T07:17:18.610Z</time>
      </trkpt>
      <trkpt lat="37.798335" lon="-4.896193">
        <ele>205.008464</ele>
        <time>2020-08-13T07:17:20.611Z</time>
      </trkpt>
      <trkpt lat="37.798267" lon="-4.896342">
        <ele>205.162668</ele>
        <time>2020-08-13T07:17:23.608Z</time>
      </trkpt>
      <trkpt lat="37.798190" lon="-4.896495">
        <ele>205.325235</ele>
        <time>2020-08-13T07:17:26.607Z</time>
      </trkpt>
      <trkpt lat="37.798098" lon="-4.896626">
        <ele>205.482304</ele>
        <time>2020-08-13T07:17:29.620Z</time>
      </trkpt>
      <trkpt lat="37.798035" lon="-4.896768">
        <ele>205.628251</ele>
        <time>2020-08-13T07:17:32.612Z</time>
      </trkpt>
      <trkpt lat="37.797952" lon="-4.896910">
        <ele>205.786544</ele>
        <time>2020-08-13T07:17:35.614Z</time>
      </trkpt>
      <trkpt lat="37.797902" lon="-4.897045">
        <ele>205.920162</ele>
        <time>2020-08-13T07:17:38.601Z</time>
      </trkpt>
      <trkpt lat="37.797846" lon="-4.897138">
        <ele>206.024950</ele>
        <time>2020-08-13T07:17:40.619Z</time>
      </trkpt>
      <trkpt lat="37.797785" lon="-4.897262">
        <ele>206.155855</ele>
        <time>2020-08-13T07:17:43.610Z</time>
      </trkpt>
      <trkpt lat="37.797731" lon="-4.897409">
        <ele>206.301136</ele>
        <time>2020-08-13T07:17:46.605Z</time>
      </trkpt>
      <trkpt lat="37.797692" lon="-4.897561">
        <ele>206.444360</ele>
        <time>2020-08-13T07:17:49.617Z</time>
      </trkpt>
      <trkpt lat="37.797657" lon="-4.897706">
        <ele>206.619618</ele>
        <time>2020-08-13T07:17:52.612Z</time>
      </trkpt>
      <trkpt lat="37.797626" lon="-4.897838">
        <ele>207.133597</ele>
        <time>2020-08-13T07:17:55.604Z</time>
      </trkpt>
      <trkpt lat="37.797581" lon="-4.897975">
        <ele>207.687359</ele>
        <time>2020-08-13T07:17:58.604Z</time>
      </trkpt>
      <trkpt lat="37.797549" lon="-4.898102">
        <ele>208.184894</ele>
        <time>2020-08-13T07:18:01.602Z</time>
      </trkpt>
      <trkpt lat="37.797508" lon="-4.898243">
        <ele>208.745669</ele>
        <time>2020-08-13T07:18:04.610Z</time>
      </trkpt>
      <trkpt lat="37.797463" lon="-4.898386">
        <ele>209.320175</ele>
        <time>2020-08-13T07:18:07.597Z</time>
      </trkpt>
      <trkpt lat="37.797419" lon="-4.898523">
        <ele>209.872142</ele>
        <time>2020-08-13T07:18:10.618Z</time>
      </trkpt>
      <trkpt lat="37.797375" lon="-4.898662">
        <ele>210.431031</ele>
        <time>2020-08-13T07:18:13.603Z</time>
      </trkpt>
      <trkpt lat="37.797333" lon="-4.898803">
        <ele>210.993456</ele>
        <time>2020-08-13T07:18:16.612Z</time>
      </trkpt>
      <trkpt lat="37.797294" lon="-4.898946">
        <ele>211.558092</ele>
        <time>2020-08-13T07:18:19.615Z</time>
      </trkpt>
      <trkpt lat="37.797262" lon="-4.899066">
        <ele>212.030803</ele>
        <time>2020-08-13T07:18:22.614Z</time>
      </trkpt>
      <trkpt lat="37.797238" lon="-4.899191">
        <ele>212.510934</ele>
        <time>2020-08-13T07:18:25.617Z</time>
      </trkpt>
      <trkpt lat="37.797213" lon="-4.899324">
        <ele>213.021201</ele>
        <time>2020-08-13T07:18:28.616Z</time>
      </trkpt>
      <trkpt lat="37.797177" lon="-4.899450">
        <ele>213.521288</ele>
        <time>2020-08-13T07:18:31.612Z</time>
      </trkpt>
      <trkpt lat="37.797138" lon="-4.899576">
        <ele>214.026370</ele>
        <time>2020-08-13T07:18:34.605Z</time>
      </trkpt>
      <trkpt lat="37.797099" lon="-4.899690">
        <ele>214.490035</ele>
        <time>2020-08-13T07:18:37.613Z</time>
      </trkpt>
      <trkpt lat="37.797061" lon="-4.899808">
        <ele>214.965636</ele>
        <time>2020-08-13T07:18:40.595Z</time>
      </trkpt>
      <trkpt lat="37.797026" lon="-4.899942">
        <ele>215.204100</ele>
        <time>2020-08-13T07:18:43.613Z</time>
      </trkpt>
      <trkpt lat="37.796991" lon="-4.900064">
        <ele>215.362753</ele>
        <time>2020-08-13T07:18:46.615Z</time>
      </trkpt>
      <trkpt lat="37.796960" lon="-4.900198">
        <ele>215.533426</ele>
        <time>2020-08-13T07:18:49.616Z</time>
      </trkpt>
      <trkpt lat="37.796933" lon="-4.900327">
        <ele>215.696549</ele>
        <time>2020-08-13T07:18:52.612Z</time>
      </trkpt>
      <trkpt lat="37.796899" lon="-4.900455">
        <ele>215.861615</ele>
        <time>2020-08-13T07:18:55.614Z</time>
      </trkpt>
      <trkpt lat="37.796856" lon="-4.900582">
        <ele>216.030506</ele>
        <time>2020-08-13T07:18:58.610Z</time>
      </trkpt>
      <trkpt lat="37.796826" lon="-4.900710">
        <ele>216.193707</ele>
        <time>2020-08-13T07:19:01.608Z</time>
      </trkpt>
      <trkpt lat="37.796774" lon="-4.900875">
        <ele>216.410847</ele>
        <time>2020-08-13T07:19:04.630Z</time>
      </trkpt>
      <trkpt lat="37.796755" lon="-4.900991">
        <ele>216.555656</ele>
        <time>2020-08-13T07:19:06.609Z</time>
      </trkpt>
      <trkpt lat="37.796738" lon="-4.901111">
        <ele>216.704679</ele>
        <time>2020-08-13T07:19:08.605Z</time>
      </trkpt>
      <trkpt lat="37.796706" lon="-4.901224">
        <ele>216.851409</ele>
        <time>2020-08-13T07:19:10.873Z</time>
      </trkpt>
      <trkpt lat="37.796663" lon="-4.901368">
        <ele>217.039579</ele>
        <time>2020-08-13T07:19:13.876Z</time>
      </trkpt>
      <trkpt lat="37.796611" lon="-4.901464">
        <ele>217.181850</ele>
        <time>2020-08-13T07:19:15.877Z</time>
      </trkpt>
      <trkpt lat="37.796561" lon="-4.901574">
        <ele>217.336970</ele>
        <time>2020-08-13T07:19:17.879Z</time>
      </trkpt>
      <trkpt lat="37.796489" lon="-4.901671">
        <ele>217.499648</ele>
        <time>2020-08-13T07:19:19.878Z</time>
      </trkpt>
      <trkpt lat="37.796443" lon="-4.901786">
        <ele>217.657206</ele>
        <time>2020-08-13T07:19:21.874Z</time>
      </trkpt>
      <trkpt lat="37.796380" lon="-4.901877">
        <ele>217.805095</ele>
        <time>2020-08-13T07:19:23.877Z</time>
      </trkpt>
      <trkpt lat="37.796321" lon="-4.901968">
        <ele>218.030665</ele>
        <time>2020-08-13T07:19:25.880Z</time>
      </trkpt>
      <trkpt lat="37.796257" lon="-4.902060">
        <ele>218.299426</ele>
        <time>2020-08-13T07:19:27.875Z</time>
      </trkpt>
      <trkpt lat="37.796174" lon="-4.902141">
        <ele>218.590269</ele>
        <time>2020-08-13T07:19:29.876Z</time>
      </trkpt>
      <trkpt lat="37.796130" lon="-4.902244">
        <ele>218.847006</ele>
        <time>2020-08-13T07:19:31.866Z</time>
      </trkpt>
      <trkpt lat="37.796042" lon="-4.902338">
        <ele>219.166554</ele>
        <time>2020-08-13T07:19:33.874Z</time>
      </trkpt>
      <trkpt lat="37.795964" lon="-4.902420">
        <ele>219.447933</ele>
        <time>2020-08-13T07:19:35.875Z</time>
      </trkpt>
      <trkpt lat="37.795873" lon="-4.902490">
        <ele>219.743436</ele>
        <time>2020-08-13T07:19:37.876Z</time>
      </trkpt>
      <trkpt lat="37.795757" lon="-4.902565">
        <ele>220.104898</ele>
        <time>2020-08-13T07:19:40.874Z</time>
      </trkpt>
      <trkpt lat="37.795590" lon="-4.902670">
        <ele>220.622344</ele>
        <time>2020-08-13T07:23:07.857Z</time>
      </trkpt>
      <trkpt lat="37.795370" lon="-4.902862">
        <ele>221.363908</ele>
        <time>2020-08-13T07:27:16.863Z</time>
      </trkpt>
      <trkpt lat="37.795094" lon="-4.902944">
        <ele>222.150595</ele>
        <time>2020-08-13T07:29:43.853Z</time>
      </trkpt>
      <trkpt lat="37.794992" lon="-4.902949">
        <ele>222.433845</ele>
        <time>2020-08-13T07:30:02.876Z</time>
      </trkpt>
      <trkpt lat="37.794979" lon="-4.903063">
        <ele>222.686405</ele>
        <time>2020-08-13T07:30:09.873Z</time>
      </trkpt>
      <trkpt lat="37.794716" lon="-4.903088">
        <ele>222.361057</ele>
        <time>2020-08-13T07:32:13.881Z</time>
      </trkpt>
      <trkpt lat="37.794618" lon="-4.903110">
        <ele>222.134840</ele>
        <time>2020-08-13T07:32:20.886Z</time>
      </trkpt>
      <trkpt lat="37.794528" lon="-4.903065">
        <ele>221.914895</ele>
        <time>2020-08-13T07:32:26.889Z</time>
      </trkpt>
      <trkpt lat="37.794617" lon="-4.903089">
        <ele>221.708070</ele>
        <time>2020-08-13T07:32:48.882Z</time>
      </trkpt>
      <trkpt lat="37.794729" lon="-4.903012">
        <ele>221.418371</ele>
        <time>2020-08-13T07:33:02.873Z</time>
      </trkpt>
      <trkpt lat="37.794478" lon="-4.903187">
        <ele>220.767032</ele>
        <time>2020-08-13T07:33:07.875Z</time>
      </trkpt>
      <trkpt lat="37.794383" lon="-4.903224">
        <ele>220.541117</ele>
        <time>2020-08-13T07:33:15.889Z</time>
      </trkpt>
      <trkpt lat="37.794126" lon="-4.903135">
        <ele>219.935517</ele>
        <time>2020-08-13T07:43:11.672Z</time>
      </trkpt>
      <trkpt lat="37.794041" lon="-4.903178">
        <ele>219.727460</ele>
        <time>2020-08-13T07:43:21.670Z</time>
      </trkpt>
      <trkpt lat="37.793945" lon="-4.903199">
        <ele>219.506031</ele>
        <time>2020-08-13T07:43:28.652Z</time>
      </trkpt>
      <trkpt lat="37.793863" lon="-4.903152">
        <ele>219.301431</ele>
        <time>2020-08-13T07:43:34.671Z</time>
      </trkpt>
      <trkpt lat="37.793764" lon="-4.903105">
        <ele>219.061106</ele>
        <time>2020-08-13T07:43:40.670Z</time>
      </trkpt>
      <trkpt lat="37.793691" lon="-4.903035">
        <ele>218.852935</ele>
        <time>2020-08-13T07:43:46.663Z</time>
      </trkpt>
      <trkpt lat="37.793600" lon="-4.903052">
        <ele>218.557373</ele>
        <time>2020-08-13T07:44:08.646Z</time>
      </trkpt>
      <trkpt lat="37.793461" lon="-4.903063">
        <ele>217.980515</ele>
        <time>2020-08-13T07:59:19.017Z</time>
      </trkpt>
      <trkpt lat="37.793236" lon="-4.902994">
        <ele>217.021598</ele>
        <time>2020-08-13T08:01:31.981Z</time>
      </trkpt>
      <trkpt lat="37.793169" lon="-4.902908">
        <ele>216.626317</ele>
        <time>2020-08-13T08:01:37.964Z</time>
      </trkpt>
      <trkpt lat="37.792770" lon="-4.902623">
        <ele>214.728577</ele>
        <time>2020-08-13T08:03:53.988Z</time>
      </trkpt>
      <trkpt lat="37.792687" lon="-4.902504">
        <ele>214.209059</ele>
        <time>2020-08-13T08:03:56.987Z</time>
      </trkpt>
      <trkpt lat="37.792589" lon="-4.902416">
        <ele>213.711335</ele>
        <time>2020-08-13T08:03:59.978Z</time>
      </trkpt>
      <trkpt lat="37.792498" lon="-4.902361">
        <ele>213.293632</ele>
        <time>2020-08-13T08:04:01.982Z</time>
      </trkpt>
      <trkpt lat="37.792425" lon="-4.902287">
        <ele>212.906218</ele>
        <time>2020-08-13T08:04:03.979Z</time>
      </trkpt>
      <trkpt lat="37.792337" lon="-4.902205">
        <ele>212.453567</ele>
        <time>2020-08-13T08:04:06.978Z</time>
      </trkpt>
      <trkpt lat="37.792256" lon="-4.902142">
        <ele>212.059764</ele>
        <time>2020-08-13T08:04:09.986Z</time>
      </trkpt>
      <trkpt lat="37.792176" lon="-4.902030">
        <ele>211.565611</ele>
        <time>2020-08-13T08:04:12.977Z</time>
      </trkpt>
      <trkpt lat="37.792075" lon="-4.901947">
        <ele>211.327434</ele>
        <time>2020-08-13T08:04:15.985Z</time>
      </trkpt>
      <trkpt lat="37.791972" lon="-4.901854">
        <ele>211.391320</ele>
        <time>2020-08-13T08:04:18.981Z</time>
      </trkpt>
      <trkpt lat="37.791874" lon="-4.901731">
        <ele>211.461011</ele>
        <time>2020-08-13T08:04:21.988Z</time>
      </trkpt>
      <trkpt lat="37.791769" lon="-4.901628">
        <ele>211.528089</ele>
        <time>2020-08-13T08:04:25.975Z</time>
      </trkpt>
      <trkpt lat="37.791665" lon="-4.901599">
        <ele>211.581859</ele>
        <time>2020-08-13T08:04:27.996Z</time>
      </trkpt>
      <trkpt lat="37.791565" lon="-4.901512">
        <ele>211.643131</ele>
        <time>2020-08-13T08:04:30.980Z</time>
      </trkpt>
      <trkpt lat="37.791521" lon="-4.901412">
        <ele>211.688799</ele>
        <time>2020-08-13T08:04:32.980Z</time>
      </trkpt>
      <trkpt lat="37.791448" lon="-4.901344">
        <ele>211.734566</ele>
        <time>2020-08-13T08:04:34.983Z</time>
      </trkpt>
      <trkpt lat="37.791354" lon="-4.901248">
        <ele>211.795555</ele>
        <time>2020-08-13T08:04:36.975Z</time>
      </trkpt>
      <trkpt lat="37.791273" lon="-4.901120">
        <ele>211.860984</ele>
        <time>2020-08-13T08:04:39.982Z</time>
      </trkpt>
      <trkpt lat="37.791202" lon="-4.901003">
        <ele>211.919843</ele>
        <time>2020-08-13T08:04:41.971Z</time>
      </trkpt>
      <trkpt lat="37.791142" lon="-4.900858">
        <ele>211.985150</ele>
        <time>2020-08-13T08:04:44.979Z</time>
      </trkpt>
      <trkpt lat="37.791071" lon="-4.900765">
        <ele>212.036744</ele>
        <time>2020-08-13T08:04:47.985Z</time>
      </trkpt>
      <trkpt lat="37.790954" lon="-4.900701">
        <ele>212.101101</ele>
        <time>2020-08-13T08:04:49.979Z</time>
      </trkpt>
      <trkpt lat="37.790853" lon="-4.900533">
        <ele>212.185326</ele>
        <time>2020-08-13T08:04:52.990Z</time>
      </trkpt>
      <trkpt lat="37.790785" lon="-4.900442">
        <ele>212.339768</ele>
        <time>2020-08-13T08:04:54.981Z</time>
      </trkpt>
      <trkpt lat="37.790702" lon="-4.900381">
        <ele>212.568781</ele>
        <time>2020-08-13T08:04:56.971Z</time>
      </trkpt>
      <trkpt lat="37.790631" lon="-4.900296">
        <ele>212.801985</ele>
        <time>2020-08-13T08:04:57.979Z</time>
      </trkpt>
      <trkpt lat="37.790561" lon="-4.900214">
        <ele>213.029582</ele>
        <time>2020-08-13T08:05:00.978Z</time>
      </trkpt>
      <trkpt lat="37.790437" lon="-4.900112">
        <ele>213.382459</ele>
        <time>2020-08-13T08:05:02.991Z</time>
      </trkpt>
      <trkpt lat="37.790338" lon="-4.900136">
        <ele>213.622966</ele>
        <time>2020-08-13T08:05:05.985Z</time>
      </trkpt>
      <trkpt lat="37.790218" lon="-4.900183">
        <ele>213.922684</ele>
        <time>2020-08-13T08:05:08.980Z</time>
      </trkpt>
      <trkpt lat="37.790090" lon="-4.900148">
        <ele>214.235137</ele>
        <time>2020-08-13T08:05:11.983Z</time>
      </trkpt>
      <trkpt lat="37.789984" lon="-4.900140">
        <ele>214.488499</ele>
        <time>2020-08-13T08:05:12.980Z</time>
      </trkpt>
      <trkpt lat="37.789890" lon="-4.900220">
        <ele>214.758788</ele>
        <time>2020-08-13T08:05:15.976Z</time>
      </trkpt>
      <trkpt lat="37.789789" lon="-4.900282">
        <ele>215.026630</ele>
        <time>2020-08-13T08:05:18.974Z</time>
      </trkpt>
      <trkpt lat="37.789665" lon="-4.900278">
        <ele>215.322587</ele>
        <time>2020-08-13T08:05:21.977Z</time>
      </trkpt>
      <trkpt lat="37.789565" lon="-4.900251">
        <ele>215.566555</ele>
        <time>2020-08-13T08:05:23.971Z</time>
      </trkpt>
      <trkpt lat="37.789451" lon="-4.900317">
        <ele>215.865673</ele>
        <time>2020-08-13T08:05:26.972Z</time>
      </trkpt>
      <trkpt lat="37.789358" lon="-4.900355">
        <ele>216.098850</ele>
        <time>2020-08-13T08:05:30.983Z</time>
      </trkpt>
      <trkpt lat="37.789270" lon="-4.900422">
        <ele>216.343892</ele>
        <time>2020-08-13T08:05:32.979Z</time>
      </trkpt>
      <trkpt lat="37.789184" lon="-4.900461">
        <ele>216.552046</ele>
        <time>2020-08-13T08:05:34.976Z</time>
      </trkpt>
      <trkpt lat="37.789082" lon="-4.900405">
        <ele>216.776053</ele>
        <time>2020-08-13T08:05:37.980Z</time>
      </trkpt>
      <trkpt lat="37.788988" lon="-4.900407">
        <ele>216.965461</ele>
        <time>2020-08-13T08:05:40.988Z</time>
      </trkpt>
      <trkpt lat="37.788896" lon="-4.900437">
        <ele>217.156868</ele>
        <time>2020-08-13T08:05:43.984Z</time>
      </trkpt>
      <trkpt lat="37.788771" lon="-4.900431">
        <ele>217.408886</ele>
        <time>2020-08-13T08:05:46.971Z</time>
      </trkpt>
      <trkpt lat="37.788659" lon="-4.900407">
        <ele>217.637744</ele>
        <time>2020-08-13T08:05:48.974Z</time>
      </trkpt>
      <trkpt lat="37.788497" lon="-4.900314">
        <ele>217.996142</ele>
        <time>2020-08-13T08:05:49.980Z</time>
      </trkpt>
      <trkpt lat="37.788591" lon="-4.900300">
        <ele>218.186830</ele>
        <time>2020-08-13T08:05:50.973Z</time>
      </trkpt>
      <trkpt lat="37.788500" lon="-4.900234">
        <ele>218.398147</ele>
        <time>2020-08-13T08:05:52.976Z</time>
      </trkpt>
      <trkpt lat="37.788446" lon="-4.900341">
        <ele>218.600284</ele>
        <time>2020-08-13T08:05:54.972Z</time>
      </trkpt>
      <trkpt lat="37.788338" lon="-4.900321">
        <ele>218.820188</ele>
        <time>2020-08-13T08:05:56.984Z</time>
      </trkpt>
      <trkpt lat="37.788238" lon="-4.900436">
        <ele>219.092430</ele>
        <time>2020-08-13T08:05:59.969Z</time>
      </trkpt>
      <trkpt lat="37.788128" lon="-4.900451">
        <ele>219.315329</ele>
        <time>2020-08-13T08:06:02.970Z</time>
      </trkpt>
      <trkpt lat="37.788297" lon="-4.900822">
        <ele>219.997128</ele>
        <time>2020-08-13T08:06:05.973Z</time>
      </trkpt>
      <trkpt lat="37.788218" lon="-4.900878">
        <ele>220.038439</ele>
        <time>2020-08-13T08:06:14.980Z</time>
      </trkpt>
      <trkpt lat="37.788106" lon="-4.900908">
        <ele>219.698850</ele>
        <time>2020-08-13T08:06:22.992Z</time>
      </trkpt>
      <trkpt lat="37.788007" lon="-4.900940">
        <ele>219.395756</ele>
        <time>2020-08-13T08:06:28.986Z</time>
      </trkpt>
      <trkpt lat="37.787933" lon="-4.900877">
        <ele>219.131192</ele>
        <time>2020-08-13T08:06:35.973Z</time>
      </trkpt>
      <trkpt lat="37.787831" lon="-4.900856">
        <ele>218.824650</ele>
        <time>2020-08-13T08:06:49.017Z</time>
      </trkpt>
      <trkpt lat="37.787737" lon="-4.900930">
        <ele>218.496259</ele>
        <time>2020-08-13T08:06:58.967Z</time>
      </trkpt>
      <trkpt lat="37.787751" lon="-4.901051">
        <ele>218.209583</ele>
        <time>2020-08-13T08:07:05.965Z</time>
      </trkpt>
      <trkpt lat="37.787801" lon="-4.901147">
        <ele>217.940059</ele>
        <time>2020-08-13T08:07:18.975Z</time>
      </trkpt>
      <trkpt lat="37.787698" lon="-4.901142">
        <ele>217.634304</ele>
        <time>2020-08-13T08:07:30.972Z</time>
      </trkpt>
      <trkpt lat="37.787790" lon="-4.901191">
        <ele>217.338214</ele>
        <time>2020-08-13T08:07:46.988Z</time>
      </trkpt>
      <trkpt lat="37.787713" lon="-4.901116">
        <ele>217.049977</ele>
        <time>2020-08-13T08:08:09.981Z</time>
      </trkpt>
      <trkpt lat="37.787613" lon="-4.901168">
        <ele>216.729275</ele>
        <time>2020-08-13T08:08:20.982Z</time>
      </trkpt>
      <trkpt lat="37.787418" lon="-4.901450">
        <ele>215.850867</ele>
        <time>2020-08-13T08:09:57.977Z</time>
      </trkpt>
      <trkpt lat="37.787390" lon="-4.901574">
        <ele>215.548548</ele>
        <time>2020-08-13T08:10:01.983Z</time>
      </trkpt>
      <trkpt lat="37.787340" lon="-4.901680">
        <ele>215.259161</ele>
        <time>2020-08-13T08:10:07.982Z</time>
      </trkpt>
      <trkpt lat="37.786981" lon="-4.902103">
        <ele>214.859403</ele>
        <time>2020-08-13T08:13:31.985Z</time>
      </trkpt>
      <trkpt lat="37.786888" lon="-4.902178">
        <ele>214.883445</ele>
        <time>2020-08-13T08:13:33.985Z</time>
      </trkpt>
      <trkpt lat="37.786811" lon="-4.902252">
        <ele>214.904524</ele>
        <time>2020-08-13T08:13:35.982Z</time>
      </trkpt>
      <trkpt lat="37.786744" lon="-4.902334">
        <ele>214.924845</ele>
        <time>2020-08-13T08:13:37.971Z</time>
      </trkpt>
      <trkpt lat="37.786667" lon="-4.902445">
        <ele>214.950292</ele>
        <time>2020-08-13T08:13:40.973Z</time>
      </trkpt>
      <trkpt lat="37.786598" lon="-4.902541">
        <ele>214.972649</ele>
        <time>2020-08-13T08:13:43.980Z</time>
      </trkpt>
      <trkpt lat="37.786539" lon="-4.902633">
        <ele>214.993061</ele>
        <time>2020-08-13T08:13:46.971Z</time>
      </trkpt>
      <trkpt lat="37.786477" lon="-4.902739">
        <ele>215.015782</ele>
        <time>2020-08-13T08:13:50.981Z</time>
      </trkpt>
      <trkpt lat="37.786406" lon="-4.902843">
        <ele>215.039459</ele>
        <time>2020-08-13T08:13:54.977Z</time>
      </trkpt>
      <trkpt lat="37.786328" lon="-4.902935">
        <ele>215.062706</ele>
        <time>2020-08-13T08:13:57.978Z</time>
      </trkpt>
      <trkpt lat="37.786249" lon="-4.903083">
        <ele>215.093476</ele>
        <time>2020-08-13T08:14:00.978Z</time>
      </trkpt>
      <trkpt lat="37.786168" lon="-4.903173">
        <ele>215.116976</ele>
        <time>2020-08-13T08:14:02.990Z</time>
      </trkpt>
      <trkpt lat="37.786087" lon="-4.903251">
        <ele>215.139167</ele>
        <time>2020-08-13T08:14:04.988Z</time>
      </trkpt>
      <trkpt lat="37.785994" lon="-4.903346">
        <ele>215.165223</ele>
        <time>2020-08-13T08:14:06.996Z</time>
      </trkpt>
      <trkpt lat="37.785937" lon="-4.903444">
        <ele>215.185564</ele>
        <time>2020-08-13T08:14:09.010Z</time>
      </trkpt>
      <trkpt lat="37.785873" lon="-4.903533">
        <ele>215.204427</ele>
        <time>2020-08-13T08:14:10.989Z</time>
      </trkpt>
      <trkpt lat="37.785816" lon="-4.903625">
        <ele>215.222752</ele>
        <time>2020-08-13T08:14:12.983Z</time>
      </trkpt>
      <trkpt lat="37.785740" lon="-4.903709">
        <ele>215.242768</ele>
        <time>2020-08-13T08:14:14.983Z</time>
      </trkpt>
      <trkpt lat="37.785668" lon="-4.903802">
        <ele>215.263177</ele>
        <time>2020-08-13T08:14:16.989Z</time>
      </trkpt>
      <trkpt lat="37.785592" lon="-4.903903">
        <ele>215.285039</ele>
        <time>2020-08-13T08:14:18.988Z</time>
      </trkpt>
      <trkpt lat="37.785526" lon="-4.904009">
        <ele>215.306193</ele>
        <time>2020-08-13T08:14:20.986Z</time>
      </trkpt>
      <trkpt lat="37.785465" lon="-4.904108">
        <ele>215.325872</ele>
        <time>2020-08-13T08:14:22.984Z</time>
      </trkpt>
      <trkpt lat="37.785402" lon="-4.904198">
        <ele>215.344719</ele>
        <time>2020-08-13T08:14:24.994Z</time>
      </trkpt>
      <trkpt lat="37.785333" lon="-4.904289">
        <ele>215.364488</ele>
        <time>2020-08-13T08:14:26.981Z</time>
      </trkpt>
      <trkpt lat="37.785274" lon="-4.904389">
        <ele>215.384051</ele>
        <time>2020-08-13T08:14:28.986Z</time>
      </trkpt>
      <trkpt lat="37.785207" lon="-4.904478">
        <ele>215.403320</ele>
        <time>2020-08-13T08:14:30.981Z</time>
      </trkpt>
      <trkpt lat="37.785150" lon="-4.904571">
        <ele>215.421769</ele>
        <time>2020-08-13T08:14:32.984Z</time>
      </trkpt>
      <trkpt lat="37.785097" lon="-4.904670">
        <ele>215.440514</ele>
        <time>2020-08-13T08:14:34.988Z</time>
      </trkpt>
      <trkpt lat="37.785036" lon="-4.904768">
        <ele>215.460070</ele>
        <time>2020-08-13T08:14:36.994Z</time>
      </trkpt>
      <trkpt lat="37.784979" lon="-4.904866">
        <ele>215.479144</ele>
        <time>2020-08-13T08:14:38.979Z</time>
      </trkpt>
      <trkpt lat="37.784919" lon="-4.904961">
        <ele>215.498208</ele>
        <time>2020-08-13T08:14:40.988Z</time>
      </trkpt>
      <trkpt lat="37.784845" lon="-4.905103">
        <ele>215.524873</ele>
        <time>2020-08-13T08:14:43.993Z</time>
      </trkpt>
      <trkpt lat="37.784768" lon="-4.905245">
        <ele>215.593227</ele>
        <time>2020-08-13T08:14:46.984Z</time>
      </trkpt>
      <trkpt lat="37.784723" lon="-4.905347">
        <ele>215.659376</ele>
        <time>2020-08-13T08:14:48.990Z</time>
      </trkpt>
      <trkpt lat="37.784674" lon="-4.905458">
        <ele>215.731372</ele>
        <time>2020-08-13T08:14:50.977Z</time>
      </trkpt>
      <trkpt lat="37.784627" lon="-4.905568">
        <ele>215.802182</ele>
        <time>2020-08-13T08:14:52.979Z</time>
      </trkpt>
      <trkpt lat="37.784573" lon="-4.905723">
        <ele>215.898103</ele>
        <time>2020-08-13T08:14:55.985Z</time>
      </trkpt>
      <trkpt lat="37.784536" lon="-4.905837">
        <ele>215.967889</ele>
        <time>2020-08-13T08:14:57.989Z</time>
      </trkpt>
      <trkpt lat="37.784491" lon="-4.905990">
        <ele>216.060333</ele>
        <time>2020-08-13T08:15:00.979Z</time>
      </trkpt>
      <trkpt lat="37.784444" lon="-4.906137">
        <ele>216.150128</ele>
        <time>2020-08-13T08:15:03.983Z</time>
      </trkpt>
      <trkpt lat="37.784396" lon="-4.906292">
        <ele>216.244397</ele>
        <time>2020-08-13T08:15:06.993Z</time>
      </trkpt>
      <trkpt lat="37.784361" lon="-4.906398">
        <ele>216.309449</ele>
        <time>2020-08-13T08:15:08.989Z</time>
      </trkpt>
      <trkpt lat="37.784338" lon="-4.906509">
        <ele>216.374430</ele>
        <time>2020-08-13T08:15:10.986Z</time>
      </trkpt>
      <trkpt lat="37.784309" lon="-4.906671">
        <ele>216.468489</ele>
        <time>2020-08-13T08:15:13.985Z</time>
      </trkpt>
      <trkpt lat="37.784289" lon="-4.906787">
        <ele>216.535721</ele>
        <time>2020-08-13T08:15:15.981Z</time>
      </trkpt>
      <trkpt lat="37.784267" lon="-4.906899">
        <ele>216.601073</ele>
        <time>2020-08-13T08:15:17.970Z</time>
      </trkpt>
      <trkpt lat="37.784238" lon="-4.907054">
        <ele>216.691270</ele>
        <time>2020-08-13T08:15:20.975Z</time>
      </trkpt>
      <trkpt lat="37.784196" lon="-4.907220">
        <ele>216.789971</ele>
        <time>2020-08-13T08:15:23.983Z</time>
      </trkpt>
      <trkpt lat="37.784164" lon="-4.907381">
        <ele>216.890713</ele>
        <time>2020-08-13T08:15:26.979Z</time>
      </trkpt>
      <trkpt lat="37.784137" lon="-4.907535">
        <ele>216.990199</ele>
        <time>2020-08-13T08:15:29.986Z</time>
      </trkpt>
      <trkpt lat="37.784107" lon="-4.907682">
        <ele>217.085949</ele>
        <time>2020-08-13T08:15:32.977Z</time>
      </trkpt>
      <trkpt lat="37.784072" lon="-4.907837">
        <ele>217.187616</ele>
        <time>2020-08-13T08:15:35.991Z</time>
      </trkpt>
      <trkpt lat="37.784040" lon="-4.907985">
        <ele>217.284386</ele>
        <time>2020-08-13T08:15:38.984Z</time>
      </trkpt>
      <trkpt lat="37.784010" lon="-4.908141">
        <ele>217.385642</ele>
        <time>2020-08-13T08:15:41.990Z</time>
      </trkpt>
      <trkpt lat="37.783976" lon="-4.908295">
        <ele>217.486485</ele>
        <time>2020-08-13T08:15:44.989Z</time>
      </trkpt>
      <trkpt lat="37.783941" lon="-4.908440">
        <ele>217.582104</ele>
        <time>2020-08-13T08:15:47.983Z</time>
      </trkpt>
      <trkpt lat="37.783899" lon="-4.908585">
        <ele>217.679500</ele>
        <time>2020-08-13T08:15:50.968Z</time>
      </trkpt>
      <trkpt lat="37.783856" lon="-4.908715">
        <ele>217.768379</ele>
        <time>2020-08-13T08:15:53.986Z</time>
      </trkpt>
      <trkpt lat="37.783810" lon="-4.908852">
        <ele>217.862257</ele>
        <time>2020-08-13T08:15:56.993Z</time>
      </trkpt>
      <trkpt lat="37.783762" lon="-4.908990">
        <ele>217.957347</ele>
        <time>2020-08-13T08:15:59.973Z</time>
      </trkpt>
      <trkpt lat="37.783709" lon="-4.909130">
        <ele>218.055249</ele>
        <time>2020-08-13T08:16:02.994Z</time>
      </trkpt>
      <trkpt lat="37.783660" lon="-4.909260">
        <ele>218.146084</ele>
        <time>2020-08-13T08:16:05.983Z</time>
      </trkpt>
      <trkpt lat="37.783609" lon="-4.909391">
        <ele>218.238183</ele>
        <time>2020-08-13T08:16:08.982Z</time>
      </trkpt>
      <trkpt lat="37.783550" lon="-4.909516">
        <ele>218.307651</ele>
        <time>2020-08-13T08:16:11.975Z</time>
      </trkpt>
      <trkpt lat="37.783487" lon="-4.909638">
        <ele>218.370178</ele>
        <time>2020-08-13T08:16:14.980Z</time>
      </trkpt>
      <trkpt lat="37.783420" lon="-4.909757">
        <ele>218.432866</ele>
        <time>2020-08-13T08:16:17.983Z</time>
      </trkpt>
      <trkpt lat="37.783353" lon="-4.909870">
        <ele>218.493475</ele>
        <time>2020-08-13T08:16:20.987Z</time>
      </trkpt>
      <trkpt lat="37.783273" lon="-4.909993">
        <ele>218.561821</ele>
        <time>2020-08-13T08:16:24.051Z</time>
      </trkpt>
      <trkpt lat="37.783209" lon="-4.910091">
        <ele>218.616365</ele>
        <time>2020-08-13T08:16:25.992Z</time>
      </trkpt>
      <trkpt lat="37.783148" lon="-4.910189">
        <ele>218.669886</ele>
        <time>2020-08-13T08:16:27.974Z</time>
      </trkpt>
      <trkpt lat="37.783086" lon="-4.910277">
        <ele>218.720467</ele>
        <time>2020-08-13T08:16:29.989Z</time>
      </trkpt>
      <trkpt lat="37.782994" lon="-4.910392">
        <ele>218.790673</ele>
        <time>2020-08-13T08:16:32.979Z</time>
      </trkpt>
      <trkpt lat="37.782912" lon="-4.910490">
        <ele>218.851907</ele>
        <time>2020-08-13T08:16:35.984Z</time>
      </trkpt>
      <trkpt lat="37.782837" lon="-4.910596">
        <ele>218.912949</ele>
        <time>2020-08-13T08:16:38.993Z</time>
      </trkpt>
      <trkpt lat="37.782751" lon="-4.910708">
        <ele>218.979948</ele>
        <time>2020-08-13T08:16:41.988Z</time>
      </trkpt>
      <trkpt lat="37.782664" lon="-4.910810">
        <ele>219.044336</ele>
        <time>2020-08-13T08:16:44.982Z</time>
      </trkpt>
      <trkpt lat="37.782573" lon="-4.910918">
        <ele>219.112069</ele>
        <time>2020-08-13T08:16:47.991Z</time>
      </trkpt>
      <trkpt lat="37.782478" lon="-4.911031">
        <ele>219.182852</ele>
        <time>2020-08-13T08:16:50.992Z</time>
      </trkpt>
      <trkpt lat="37.782418" lon="-4.911117">
        <ele>219.232071</ele>
        <time>2020-08-13T08:16:52.991Z</time>
      </trkpt>
      <trkpt lat="37.782343" lon="-4.911228">
        <ele>219.308712</ele>
        <time>2020-08-13T08:16:55.994Z</time>
      </trkpt>
      <trkpt lat="37.782250" lon="-4.911350">
        <ele>219.398906</ele>
        <time>2020-08-13T08:16:58.988Z</time>
      </trkpt>
      <trkpt lat="37.782155" lon="-4.911461">
        <ele>219.485968</ele>
        <time>2020-08-13T08:17:01.986Z</time>
      </trkpt>
      <trkpt lat="37.782069" lon="-4.911569">
        <ele>219.567548</ele>
        <time>2020-08-13T08:17:04.980Z</time>
      </trkpt>
      <trkpt lat="37.781980" lon="-4.911684">
        <ele>219.653194</ele>
        <time>2020-08-13T08:17:07.983Z</time>
      </trkpt>
      <trkpt lat="37.781894" lon="-4.911802">
        <ele>219.738606</ele>
        <time>2020-08-13T08:17:10.987Z</time>
      </trkpt>
      <trkpt lat="37.781797" lon="-4.911914">
        <ele>219.827020</ele>
        <time>2020-08-13T08:17:14.007Z</time>
      </trkpt>
      <trkpt lat="37.781710" lon="-4.912023">
        <ele>219.909452</ele>
        <time>2020-08-13T08:17:16.993Z</time>
      </trkpt>
      <trkpt lat="37.781620" lon="-4.912133">
        <ele>219.993702</ele>
        <time>2020-08-13T08:17:20.001Z</time>
      </trkpt>
      <trkpt lat="37.781526" lon="-4.912246">
        <ele>220.081000</ele>
        <time>2020-08-13T08:17:22.990Z</time>
      </trkpt>
      <trkpt lat="37.781435" lon="-4.912357">
        <ele>220.166103</ele>
        <time>2020-08-13T08:17:25.996Z</time>
      </trkpt>
      <trkpt lat="37.781345" lon="-4.912460">
        <ele>220.247808</ele>
        <time>2020-08-13T08:17:28.987Z</time>
      </trkpt>
      <trkpt lat="37.781259" lon="-4.912582">
        <ele>220.334797</ele>
        <time>2020-08-13T08:17:31.997Z</time>
      </trkpt>
      <trkpt lat="37.781169" lon="-4.912701">
        <ele>220.422442</ele>
        <time>2020-08-13T08:17:34.992Z</time>
      </trkpt>
      <trkpt lat="37.781081" lon="-4.912817">
        <ele>220.641675</ele>
        <time>2020-08-13T08:17:37.990Z</time>
      </trkpt>
      <trkpt lat="37.780998" lon="-4.912925">
        <ele>220.898922</ele>
        <time>2020-08-13T08:17:40.985Z</time>
      </trkpt>
      <trkpt lat="37.780914" lon="-4.913032">
        <ele>221.156464</ele>
        <time>2020-08-13T08:17:43.991Z</time>
      </trkpt>
      <trkpt lat="37.780830" lon="-4.913137">
        <ele>221.411596</ele>
        <time>2020-08-13T08:17:46.988Z</time>
      </trkpt>
      <trkpt lat="37.780741" lon="-4.913239">
        <ele>221.671055</ele>
        <time>2020-08-13T08:17:49.990Z</time>
      </trkpt>
      <trkpt lat="37.780656" lon="-4.913350">
        <ele>221.934988</ele>
        <time>2020-08-13T08:17:52.990Z</time>
      </trkpt>
      <trkpt lat="37.780573" lon="-4.913461">
        <ele>222.195932</ele>
        <time>2020-08-13T08:17:55.980Z</time>
      </trkpt>
      <trkpt lat="37.780489" lon="-4.913569">
        <ele>222.454690</ele>
        <time>2020-08-13T08:17:58.992Z</time>
      </trkpt>
      <trkpt lat="37.780412" lon="-4.913674">
        <ele>222.699294</ele>
        <time>2020-08-13T08:18:01.998Z</time>
      </trkpt>
      <trkpt lat="37.780332" lon="-4.913777">
        <ele>222.945904</ele>
        <time>2020-08-13T08:18:04.986Z</time>
      </trkpt>
      <trkpt lat="37.780251" lon="-4.913884">
        <ele>223.198922</ele>
        <time>2020-08-13T08:18:07.988Z</time>
      </trkpt>
      <trkpt lat="37.780156" lon="-4.914002">
        <ele>223.486566</ele>
        <time>2020-08-13T08:18:10.988Z</time>
      </trkpt>
      <trkpt lat="37.780085" lon="-4.914088">
        <ele>223.698939</ele>
        <time>2020-08-13T08:18:12.989Z</time>
      </trkpt>
      <trkpt lat="37.780005" lon="-4.914181">
        <ele>223.933675</ele>
        <time>2020-08-13T08:18:15.990Z</time>
      </trkpt>
      <trkpt lat="37.779917" lon="-4.914280">
        <ele>224.188106</ele>
        <time>2020-08-13T08:18:18.983Z</time>
      </trkpt>
      <trkpt lat="37.779835" lon="-4.914378">
        <ele>224.396100</ele>
        <time>2020-08-13T08:18:21.992Z</time>
      </trkpt>
      <trkpt lat="37.779750" lon="-4.914475">
        <ele>224.553337</ele>
        <time>2020-08-13T08:18:24.994Z</time>
      </trkpt>
      <trkpt lat="37.779667" lon="-4.914590">
        <ele>224.722417</ele>
        <time>2020-08-13T08:18:27.995Z</time>
      </trkpt>
      <trkpt lat="37.779587" lon="-4.914699">
        <ele>224.883913</ele>
        <time>2020-08-13T08:18:30.986Z</time>
      </trkpt>
      <trkpt lat="37.779510" lon="-4.914811">
        <ele>225.045076</ele>
        <time>2020-08-13T08:18:33.979Z</time>
      </trkpt>
      <trkpt lat="37.779436" lon="-4.914907">
        <ele>225.190665</ele>
        <time>2020-08-13T08:18:36.994Z</time>
      </trkpt>
      <trkpt lat="37.779366" lon="-4.914987">
        <ele>225.320241</ele>
        <time>2020-08-13T08:18:39.977Z</time>
      </trkpt>
      <trkpt lat="37.779301" lon="-4.915066">
        <ele>225.444050</ele>
        <time>2020-08-13T08:18:42.989Z</time>
      </trkpt>
      <trkpt lat="37.779214" lon="-4.915160">
        <ele>225.601205</ele>
        <time>2020-08-13T08:18:46.979Z</time>
      </trkpt>
      <trkpt lat="37.779144" lon="-4.915242">
        <ele>225.732246</ele>
        <time>2020-08-13T08:18:49.968Z</time>
      </trkpt>
      <trkpt lat="37.779077" lon="-4.915325">
        <ele>225.861052</ele>
        <time>2020-08-13T08:18:52.969Z</time>
      </trkpt>
      <trkpt lat="37.779004" lon="-4.915419">
        <ele>226.004128</ele>
        <time>2020-08-13T08:18:55.966Z</time>
      </trkpt>
      <trkpt lat="37.778934" lon="-4.915509">
        <ele>226.141219</ele>
        <time>2020-08-13T08:18:58.986Z</time>
      </trkpt>
      <trkpt lat="37.778861" lon="-4.915590">
        <ele>226.274595</ele>
        <time>2020-08-13T08:19:01.982Z</time>
      </trkpt>
      <trkpt lat="37.778787" lon="-4.915674">
        <ele>226.411161</ele>
        <time>2020-08-13T08:19:04.989Z</time>
      </trkpt>
      <trkpt lat="37.778695" lon="-4.915768">
        <ele>226.573600</ele>
        <time>2020-08-13T08:19:07.990Z</time>
      </trkpt>
      <trkpt lat="37.778604" lon="-4.915864">
        <ele>226.736355</ele>
        <time>2020-08-13T08:19:10.996Z</time>
      </trkpt>
      <trkpt lat="37.778518" lon="-4.915954">
        <ele>226.894225</ele>
        <time>2020-08-13T08:19:13.996Z</time>
      </trkpt>
      <trkpt lat="37.778442" lon="-4.916028">
        <ele>227.033011</ele>
        <time>2020-08-13T08:19:16.982Z</time>
      </trkpt>
      <trkpt lat="37.778362" lon="-4.916099">
        <ele>227.174429</ele>
        <time>2020-08-13T08:19:19.986Z</time>
      </trkpt>
      <trkpt lat="37.778280" lon="-4.916178">
        <ele>227.323586</ele>
        <time>2020-08-13T08:19:22.972Z</time>
      </trkpt>
      <trkpt lat="37.778199" lon="-4.916258">
        <ele>227.472295</ele>
        <time>2020-08-13T08:19:25.989Z</time>
      </trkpt>
      <trkpt lat="37.778115" lon="-4.916339">
        <ele>227.625140</ele>
        <time>2020-08-13T08:19:28.984Z</time>
      </trkpt>
      <trkpt lat="37.778030" lon="-4.916419">
        <ele>227.778454</ele>
        <time>2020-08-13T08:19:31.981Z</time>
      </trkpt>
      <trkpt lat="37.777935" lon="-4.916507">
        <ele>227.948846</ele>
        <time>2020-08-13T08:19:34.976Z</time>
      </trkpt>
      <trkpt lat="37.777848" lon="-4.916598">
        <ele>228.112206</ele>
        <time>2020-08-13T08:19:37.990Z</time>
      </trkpt>
      <trkpt lat="37.777767" lon="-4.916683">
        <ele>228.264501</ele>
        <time>2020-08-13T08:19:40.981Z</time>
      </trkpt>
      <trkpt lat="37.777688" lon="-4.916764">
        <ele>228.411658</ele>
        <time>2020-08-13T08:19:43.987Z</time>
      </trkpt>
      <trkpt lat="37.777608" lon="-4.916842">
        <ele>228.557822</ele>
        <time>2020-08-13T08:19:46.970Z</time>
      </trkpt>
      <trkpt lat="37.777521" lon="-4.916931">
        <ele>228.719734</ele>
        <time>2020-08-13T08:19:49.990Z</time>
      </trkpt>
      <trkpt lat="37.777425" lon="-4.917021">
        <ele>228.892648</ele>
        <time>2020-08-13T08:19:52.983Z</time>
      </trkpt>
      <trkpt lat="37.777331" lon="-4.917117">
        <ele>229.067473</ele>
        <time>2020-08-13T08:19:55.979Z</time>
      </trkpt>
      <trkpt lat="37.777234" lon="-4.917214">
        <ele>229.246404</ele>
        <time>2020-08-13T08:19:58.982Z</time>
      </trkpt>
      <trkpt lat="37.777164" lon="-4.917286">
        <ele>229.376960</ele>
        <time>2020-08-13T08:20:00.983Z</time>
      </trkpt>
      <trkpt lat="37.777090" lon="-4.917358">
        <ele>229.417679</ele>
        <time>2020-08-13T08:20:02.984Z</time>
      </trkpt>
      <trkpt lat="37.776987" lon="-4.917460">
        <ele>229.436240</ele>
        <time>2020-08-13T08:20:05.978Z</time>
      </trkpt>
      <trkpt lat="37.776887" lon="-4.917555">
        <ele>229.453987</ele>
        <time>2020-08-13T08:20:08.977Z</time>
      </trkpt>
      <trkpt lat="37.776791" lon="-4.917657">
        <ele>229.471777</ele>
        <time>2020-08-13T08:20:11.981Z</time>
      </trkpt>
      <trkpt lat="37.776693" lon="-4.917764">
        <ele>229.490147</ele>
        <time>2020-08-13T08:20:14.974Z</time>
      </trkpt>
      <trkpt lat="37.776592" lon="-4.917860">
        <ele>229.508074</ele>
        <time>2020-08-13T08:20:17.990Z</time>
      </trkpt>
      <trkpt lat="37.776506" lon="-4.917932">
        <ele>229.522708</ele>
        <time>2020-08-13T08:20:19.984Z</time>
      </trkpt>
      <trkpt lat="37.776410" lon="-4.918050">
        <ele>229.541703</ele>
        <time>2020-08-13T08:20:22.991Z</time>
      </trkpt>
      <trkpt lat="37.776308" lon="-4.918146">
        <ele>229.559743</ele>
        <time>2020-08-13T08:20:25.982Z</time>
      </trkpt>
      <trkpt lat="37.776238" lon="-4.918222">
        <ele>229.572833</ele>
        <time>2020-08-13T08:20:27.975Z</time>
      </trkpt>
      <trkpt lat="37.776165" lon="-4.918293">
        <ele>229.585900</ele>
        <time>2020-08-13T08:20:29.982Z</time>
      </trkpt>
      <trkpt lat="37.776060" lon="-4.918387">
        <ele>229.604154</ele>
        <time>2020-08-13T08:20:33.000Z</time>
      </trkpt>
      <trkpt lat="37.775964" lon="-4.918483">
        <ele>229.621519</ele>
        <time>2020-08-13T08:20:35.978Z</time>
      </trkpt>
      <trkpt lat="37.775873" lon="-4.918581">
        <ele>229.638478</ele>
        <time>2020-08-13T08:20:38.988Z</time>
      </trkpt>
      <trkpt lat="37.775779" lon="-4.918681">
        <ele>229.655906</ele>
        <time>2020-08-13T08:20:41.994Z</time>
      </trkpt>
      <trkpt lat="37.775685" lon="-4.918781">
        <ele>229.743489</ele>
        <time>2020-08-13T08:20:44.977Z</time>
      </trkpt>
      <trkpt lat="37.775592" lon="-4.918875">
        <ele>229.871427</ele>
        <time>2020-08-13T08:20:47.988Z</time>
      </trkpt>
      <trkpt lat="37.775497" lon="-4.918957">
        <ele>229.995033</ele>
        <time>2020-08-13T08:20:50.993Z</time>
      </trkpt>
      <trkpt lat="37.775403" lon="-4.919046">
        <ele>230.121222</ele>
        <time>2020-08-13T08:20:53.992Z</time>
      </trkpt>
      <trkpt lat="37.775311" lon="-4.919135">
        <ele>230.245698</ele>
        <time>2020-08-13T08:20:56.986Z</time>
      </trkpt>
      <trkpt lat="37.775228" lon="-4.919222">
        <ele>230.361545</ele>
        <time>2020-08-13T08:20:59.978Z</time>
      </trkpt>
      <trkpt lat="37.775143" lon="-4.919303">
        <ele>230.475919</ele>
        <time>2020-08-13T08:21:02.980Z</time>
      </trkpt>
      <trkpt lat="37.775055" lon="-4.919388">
        <ele>230.594915</ele>
        <time>2020-08-13T08:21:05.979Z</time>
      </trkpt>
      <trkpt lat="37.774970" lon="-4.919474">
        <ele>230.711894</ele>
        <time>2020-08-13T08:21:08.985Z</time>
      </trkpt>
      <trkpt lat="37.774882" lon="-4.919564">
        <ele>230.833515</ele>
        <time>2020-08-13T08:21:11.988Z</time>
      </trkpt>
      <trkpt lat="37.774792" lon="-4.919648">
        <ele>230.953720</ele>
        <time>2020-08-13T08:21:14.979Z</time>
      </trkpt>
      <trkpt lat="37.774702" lon="-4.919731">
        <ele>231.073424</ele>
        <time>2020-08-13T08:21:17.993Z</time>
      </trkpt>
      <trkpt lat="37.774614" lon="-4.919818">
        <ele>231.193459</ele>
        <time>2020-08-13T08:21:20.991Z</time>
      </trkpt>
      <trkpt lat="37.774523" lon="-4.919908">
        <ele>231.317604</ele>
        <time>2020-08-13T08:21:23.981Z</time>
      </trkpt>
      <trkpt lat="37.774435" lon="-4.919991">
        <ele>231.435577</ele>
        <time>2020-08-13T08:21:26.979Z</time>
      </trkpt>
      <trkpt lat="37.774353" lon="-4.920072">
        <ele>231.547393</ele>
        <time>2020-08-13T08:21:29.977Z</time>
      </trkpt>
      <trkpt lat="37.774267" lon="-4.920157">
        <ele>231.689992</ele>
        <time>2020-08-13T08:21:32.984Z</time>
      </trkpt>
      <trkpt lat="37.774181" lon="-4.920245">
        <ele>231.852562</ele>
        <time>2020-08-13T08:21:35.982Z</time>
      </trkpt>
      <trkpt lat="37.774096" lon="-4.920331">
        <ele>232.012529</ele>
        <time>2020-08-13T08:21:38.988Z</time>
      </trkpt>
      <trkpt lat="37.774012" lon="-4.920417">
        <ele>232.171352</ele>
        <time>2020-08-13T08:21:41.968Z</time>
      </trkpt>
      <trkpt lat="37.773923" lon="-4.920499">
        <ele>232.333174</ele>
        <time>2020-08-13T08:21:44.997Z</time>
      </trkpt>
      <trkpt lat="37.773830" lon="-4.920572">
        <ele>232.494035</ele>
        <time>2020-08-13T08:21:47.978Z</time>
      </trkpt>
      <trkpt lat="37.773732" lon="-4.920650">
        <ele>232.664206</ele>
        <time>2020-08-13T08:21:50.973Z</time>
      </trkpt>
      <trkpt lat="37.773624" lon="-4.920720">
        <ele>232.842560</ele>
        <time>2020-08-13T08:21:53.981Z</time>
      </trkpt>
      <trkpt lat="37.773514" lon="-4.920785">
        <ele>233.021001</ele>
        <time>2020-08-13T08:21:56.984Z</time>
      </trkpt>
      <trkpt lat="37.773401" lon="-4.920853">
        <ele>233.204916</ele>
        <time>2020-08-13T08:21:59.981Z</time>
      </trkpt>
      <trkpt lat="37.773290" lon="-4.920917">
        <ele>233.384205</ele>
        <time>2020-08-13T08:22:02.989Z</time>
      </trkpt>
      <trkpt lat="37.773190" lon="-4.920970">
        <ele>233.543558</ele>
        <time>2020-08-13T08:22:05.989Z</time>
      </trkpt>
      <trkpt lat="37.773081" lon="-4.921019">
        <ele>233.713576</ele>
        <time>2020-08-13T08:22:08.993Z</time>
      </trkpt>
      <trkpt lat="37.772957" lon="-4.921060">
        <ele>233.901949</ele>
        <time>2020-08-13T08:22:11.989Z</time>
      </trkpt>
      <trkpt lat="37.772867" lon="-4.921090">
        <ele>234.038743</ele>
        <time>2020-08-13T08:22:14.000Z</time>
      </trkpt>
      <trkpt lat="37.772740" lon="-4.921127">
        <ele>234.230289</ele>
        <time>2020-08-13T08:22:16.978Z</time>
      </trkpt>
      <trkpt lat="37.772611" lon="-4.921160">
        <ele>233.724105</ele>
        <time>2020-08-13T08:22:19.984Z</time>
      </trkpt>
      <trkpt lat="37.772520" lon="-4.921173">
        <ele>233.347769</ele>
        <time>2020-08-13T08:22:21.978Z</time>
      </trkpt>
      <trkpt lat="37.772385" lon="-4.921192">
        <ele>232.789571</ele>
        <time>2020-08-13T08:22:24.989Z</time>
      </trkpt>
      <trkpt lat="37.772289" lon="-4.921207">
        <ele>232.392067</ele>
        <time>2020-08-13T08:22:26.993Z</time>
      </trkpt>
      <trkpt lat="37.772195" lon="-4.921224">
        <ele>232.001853</ele>
        <time>2020-08-13T08:22:28.991Z</time>
      </trkpt>
      <trkpt lat="37.772102" lon="-4.921220">
        <ele>231.619454</ele>
        <time>2020-08-13T08:22:30.978Z</time>
      </trkpt>
      <trkpt lat="37.771968" lon="-4.921204">
        <ele>231.066341</ele>
        <time>2020-08-13T08:22:33.982Z</time>
      </trkpt>
      <trkpt lat="37.771871" lon="-4.921191">
        <ele>230.665495</ele>
        <time>2020-08-13T08:22:35.988Z</time>
      </trkpt>
      <trkpt lat="37.771765" lon="-4.921176">
        <ele>230.227177</ele>
        <time>2020-08-13T08:22:38.018Z</time>
      </trkpt>
      <trkpt lat="37.771670" lon="-4.921154">
        <ele>229.830293</ele>
        <time>2020-08-13T08:22:39.990Z</time>
      </trkpt>
      <trkpt lat="37.771568" lon="-4.921130">
        <ele>229.403942</ele>
        <time>2020-08-13T08:22:41.988Z</time>
      </trkpt>
      <trkpt lat="37.771476" lon="-4.921106">
        <ele>229.017919</ele>
        <time>2020-08-13T08:22:43.979Z</time>
      </trkpt>
      <trkpt lat="37.771381" lon="-4.921086">
        <ele>228.622153</ele>
        <time>2020-08-13T08:22:45.977Z</time>
      </trkpt>
      <trkpt lat="37.771253" lon="-4.921032">
        <ele>228.067667</ele>
        <time>2020-08-13T08:22:48.988Z</time>
      </trkpt>
      <trkpt lat="37.771158" lon="-4.920995">
        <ele>227.659188</ele>
        <time>2020-08-13T08:22:50.988Z</time>
      </trkpt>
      <trkpt lat="37.771055" lon="-4.920946">
        <ele>227.206977</ele>
        <time>2020-08-13T08:22:52.984Z</time>
      </trkpt>
      <trkpt lat="37.770967" lon="-4.920906">
        <ele>226.832288</ele>
        <time>2020-08-13T08:22:54.983Z</time>
      </trkpt>
      <trkpt lat="37.770874" lon="-4.920861">
        <ele>226.578074</ele>
        <time>2020-08-13T08:22:56.985Z</time>
      </trkpt>
      <trkpt lat="37.770755" lon="-4.920788">
        <ele>226.240418</ele>
        <time>2020-08-13T08:22:59.990Z</time>
      </trkpt>
      <trkpt lat="37.770665" lon="-4.920734">
        <ele>225.986105</ele>
        <time>2020-08-13T08:23:01.984Z</time>
      </trkpt>
      <trkpt lat="37.770582" lon="-4.920663">
        <ele>225.730299</ele>
        <time>2020-08-13T08:23:03.983Z</time>
      </trkpt>
      <trkpt lat="37.770502" lon="-4.920597">
        <ele>225.486456</ele>
        <time>2020-08-13T08:23:05.973Z</time>
      </trkpt>
      <trkpt lat="37.770420" lon="-4.920518">
        <ele>225.223304</ele>
        <time>2020-08-13T08:23:07.985Z</time>
      </trkpt>
      <trkpt lat="37.770333" lon="-4.920455">
        <ele>224.967368</ele>
        <time>2020-08-13T08:23:09.810Z</time>
      </trkpt>
      <trkpt lat="37.770250" lon="-4.920388">
        <ele>224.715995</ele>
        <time>2020-08-13T08:23:11.827Z</time>
      </trkpt>
      <trkpt lat="37.770166" lon="-4.920324">
        <ele>224.465642</ele>
        <time>2020-08-13T08:23:13.814Z</time>
      </trkpt>
      <trkpt lat="37.770062" lon="-4.920216">
        <ele>224.122116</ele>
        <time>2020-08-13T08:23:16.825Z</time>
      </trkpt>
      <trkpt lat="37.769988" lon="-4.920147">
        <ele>223.887412</ele>
        <time>2020-08-13T08:23:18.824Z</time>
      </trkpt>
      <trkpt lat="37.769919" lon="-4.920071">
        <ele>223.653832</ele>
        <time>2020-08-13T08:23:20.821Z</time>
      </trkpt>
      <trkpt lat="37.769852" lon="-4.919984">
        <ele>223.408700</ele>
        <time>2020-08-13T08:23:22.810Z</time>
      </trkpt>
      <trkpt lat="37.769788" lon="-4.919904">
        <ele>223.178990</ele>
        <time>2020-08-13T08:23:24.822Z</time>
      </trkpt>
      <trkpt lat="37.769731" lon="-4.919810">
        <ele>222.939892</ele>
        <time>2020-08-13T08:23:26.825Z</time>
      </trkpt>
      <trkpt lat="37.769668" lon="-4.919723">
        <ele>222.701774</ele>
        <time>2020-08-13T08:23:28.815Z</time>
      </trkpt>
      <trkpt lat="37.769590" lon="-4.919584">
        <ele>222.357749</ele>
        <time>2020-08-13T08:23:31.818Z</time>
      </trkpt>
      <trkpt lat="37.769539" lon="-4.919487">
        <ele>222.122179</ele>
        <time>2020-08-13T08:23:33.814Z</time>
      </trkpt>
      <trkpt lat="37.769487" lon="-4.919389">
        <ele>221.883151</ele>
        <time>2020-08-13T08:23:35.814Z</time>
      </trkpt>
      <trkpt lat="37.769430" lon="-4.919288">
        <ele>221.631835</ele>
        <time>2020-08-13T08:23:37.809Z</time>
      </trkpt>
      <trkpt lat="37.769367" lon="-4.919148">
        <ele>221.305596</ele>
        <time>2020-08-13T08:23:40.816Z</time>
      </trkpt>
      <trkpt lat="37.769313" lon="-4.919055">
        <ele>221.071910</ele>
        <time>2020-08-13T08:23:42.820Z</time>
      </trkpt>
      <trkpt lat="37.769255" lon="-4.918963">
        <ele>220.833601</ele>
        <time>2020-08-13T08:23:44.817Z</time>
      </trkpt>
      <trkpt lat="37.769194" lon="-4.918872">
        <ele>220.591974</ele>
        <time>2020-08-13T08:23:46.813Z</time>
      </trkpt>
      <trkpt lat="37.769139" lon="-4.918776">
        <ele>220.351869</ele>
        <time>2020-08-13T08:23:48.816Z</time>
      </trkpt>
      <trkpt lat="37.769052" lon="-4.918646">
        <ele>220.006924</ele>
        <time>2020-08-13T08:23:51.811Z</time>
      </trkpt>
      <trkpt lat="37.768978" lon="-4.918516">
        <ele>219.682501</ele>
        <time>2020-08-13T08:23:54.809Z</time>
      </trkpt>
      <trkpt lat="37.768916" lon="-4.918424">
        <ele>219.437671</ele>
        <time>2020-08-13T08:23:56.811Z</time>
      </trkpt>
      <trkpt lat="37.768859" lon="-4.918328">
        <ele>219.194523</ele>
        <time>2020-08-13T08:23:58.809Z</time>
      </trkpt>
      <trkpt lat="37.768787" lon="-4.918225">
        <ele>218.916074</ele>
        <time>2020-08-13T08:24:00.821Z</time>
      </trkpt>
      <trkpt lat="37.768721" lon="-4.918116">
        <ele>218.638017</ele>
        <time>2020-08-13T08:24:02.822Z</time>
      </trkpt>
      <trkpt lat="37.768645" lon="-4.918021">
        <ele>218.364296</ele>
        <time>2020-08-13T08:24:04.821Z</time>
      </trkpt>
      <trkpt lat="37.768571" lon="-4.917929">
        <ele>218.098489</ele>
        <time>2020-08-13T08:24:06.808Z</time>
      </trkpt>
      <trkpt lat="37.768494" lon="-4.917852">
        <ele>217.847034</ele>
        <time>2020-08-13T08:24:08.817Z</time>
      </trkpt>
      <trkpt lat="37.768423" lon="-4.917771">
        <ele>217.629630</ele>
        <time>2020-08-13T08:24:10.826Z</time>
      </trkpt>
      <trkpt lat="37.768351" lon="-4.917684">
        <ele>217.527736</ele>
        <time>2020-08-13T08:24:12.818Z</time>
      </trkpt>
      <trkpt lat="37.768280" lon="-4.917594">
        <ele>217.424875</ele>
        <time>2020-08-13T08:24:14.817Z</time>
      </trkpt>
      <trkpt lat="37.768195" lon="-4.917514">
        <ele>217.316454</ele>
        <time>2020-08-13T08:24:16.807Z</time>
      </trkpt>
      <trkpt lat="37.768113" lon="-4.917436">
        <ele>217.211461</ele>
        <time>2020-08-13T08:24:18.801Z</time>
      </trkpt>
      <trkpt lat="37.768021" lon="-4.917363">
        <ele>217.100322</ele>
        <time>2020-08-13T08:24:20.816Z</time>
      </trkpt>
      <trkpt lat="37.767935" lon="-4.917285">
        <ele>216.992029</ele>
        <time>2020-08-13T08:24:22.814Z</time>
      </trkpt>
      <trkpt lat="37.767846" lon="-4.917216">
        <ele>216.885205</ele>
        <time>2020-08-13T08:24:24.826Z</time>
      </trkpt>
      <trkpt lat="37.767754" lon="-4.917146">
        <ele>216.775337</ele>
        <time>2020-08-13T08:24:26.816Z</time>
      </trkpt>
      <trkpt lat="37.767666" lon="-4.917085">
        <ele>216.672646</ele>
        <time>2020-08-13T08:24:28.825Z</time>
      </trkpt>
      <trkpt lat="37.767576" lon="-4.917034">
        <ele>216.571724</ele>
        <time>2020-08-13T08:24:30.824Z</time>
      </trkpt>
      <trkpt lat="37.767491" lon="-4.916984">
        <ele>216.475793</ele>
        <time>2020-08-13T08:24:32.816Z</time>
      </trkpt>
      <trkpt lat="37.767371" lon="-4.916923">
        <ele>216.343444</ele>
        <time>2020-08-13T08:24:35.826Z</time>
      </trkpt>
      <trkpt lat="37.767245" lon="-4.916870">
        <ele>216.207558</ele>
        <time>2020-08-13T08:24:38.816Z</time>
      </trkpt>
      <trkpt lat="37.767148" lon="-4.916822">
        <ele>216.100966</ele>
        <time>2020-08-13T08:24:40.818Z</time>
      </trkpt>
      <trkpt lat="37.767058" lon="-4.916790">
        <ele>216.005293</ele>
        <time>2020-08-13T08:24:42.813Z</time>
      </trkpt>
      <trkpt lat="37.766955" lon="-4.916756">
        <ele>215.896356</ele>
        <time>2020-08-13T08:24:44.822Z</time>
      </trkpt>
      <trkpt lat="37.766865" lon="-4.916719">
        <ele>215.816625</ele>
        <time>2020-08-13T08:24:46.815Z</time>
      </trkpt>
      <trkpt lat="37.766760" lon="-4.916695">
        <ele>215.948536</ele>
        <time>2020-08-13T08:24:48.818Z</time>
      </trkpt>
      <trkpt lat="37.766658" lon="-4.916691">
        <ele>216.074696</ele>
        <time>2020-08-13T08:24:50.806Z</time>
      </trkpt>
      <trkpt lat="37.766555" lon="-4.916678">
        <ele>216.202665</ele>
        <time>2020-08-13T08:24:52.821Z</time>
      </trkpt>
      <trkpt lat="37.766460" lon="-4.916672">
        <ele>216.320257</ele>
        <time>2020-08-13T08:24:54.820Z</time>
      </trkpt>
      <trkpt lat="37.766328" lon="-4.916673">
        <ele>216.483449</ele>
        <time>2020-08-13T08:24:57.824Z</time>
      </trkpt>
      <trkpt lat="37.766196" lon="-4.916683">
        <ele>216.646929</ele>
        <time>2020-08-13T08:25:00.830Z</time>
      </trkpt>
      <trkpt lat="37.766104" lon="-4.916678">
        <ele>216.760771</ele>
        <time>2020-08-13T08:25:02.814Z</time>
      </trkpt>
      <trkpt lat="37.765970" lon="-4.916689">
        <ele>216.926781</ele>
        <time>2020-08-13T08:25:05.820Z</time>
      </trkpt>
      <trkpt lat="37.765877" lon="-4.916693">
        <ele>217.041821</ele>
        <time>2020-08-13T08:25:07.828Z</time>
      </trkpt>
      <trkpt lat="37.765780" lon="-4.916711">
        <ele>217.163023</ele>
        <time>2020-08-13T08:25:09.831Z</time>
      </trkpt>
      <trkpt lat="37.765682" lon="-4.916730">
        <ele>217.285592</ele>
        <time>2020-08-13T08:25:11.821Z</time>
      </trkpt>
      <trkpt lat="37.765590" lon="-4.916757">
        <ele>217.402351</ele>
        <time>2020-08-13T08:25:13.822Z</time>
      </trkpt>
      <trkpt lat="37.765499" lon="-4.916792">
        <ele>217.519937</ele>
        <time>2020-08-13T08:25:15.817Z</time>
      </trkpt>
      <trkpt lat="37.765407" lon="-4.916823">
        <ele>217.637640</ele>
        <time>2020-08-13T08:25:17.802Z</time>
      </trkpt>
      <trkpt lat="37.765315" lon="-4.916859">
        <ele>217.756695</ele>
        <time>2020-08-13T08:25:19.828Z</time>
      </trkpt>
      <trkpt lat="37.765225" lon="-4.916894">
        <ele>217.873099</ele>
        <time>2020-08-13T08:25:21.807Z</time>
      </trkpt>
      <trkpt lat="37.765138" lon="-4.916927">
        <ele>217.985386</ele>
        <time>2020-08-13T08:25:23.821Z</time>
      </trkpt>
      <trkpt lat="37.765020" lon="-4.916990">
        <ele>218.157613</ele>
        <time>2020-08-13T08:25:26.810Z</time>
      </trkpt>
      <trkpt lat="37.764907" lon="-4.917049">
        <ele>218.327339</ele>
        <time>2020-08-13T08:25:29.809Z</time>
      </trkpt>
      <trkpt lat="37.764828" lon="-4.917104">
        <ele>218.452537</ele>
        <time>2020-08-13T08:25:31.821Z</time>
      </trkpt>
      <trkpt lat="37.764722" lon="-4.917175">
        <ele>218.619065</ele>
        <time>2020-08-13T08:25:34.811Z</time>
      </trkpt>
      <trkpt lat="37.764635" lon="-4.917236">
        <ele>218.757169</ele>
        <time>2020-08-13T08:25:37.823Z</time>
      </trkpt>
      <trkpt lat="37.764550" lon="-4.917305">
        <ele>218.897392</ele>
        <time>2020-08-13T08:25:40.832Z</time>
      </trkpt>
      <trkpt lat="37.764453" lon="-4.917380">
        <ele>219.055231</ele>
        <time>2020-08-13T08:25:43.821Z</time>
      </trkpt>
      <trkpt lat="37.764351" lon="-4.917465">
        <ele>219.224815</ele>
        <time>2020-08-13T08:25:46.826Z</time>
      </trkpt>
      <trkpt lat="37.764251" lon="-4.917565">
        <ele>219.401798</ele>
        <time>2020-08-13T08:25:49.812Z</time>
      </trkpt>
      <trkpt lat="37.764154" lon="-4.917668">
        <ele>219.577631</ele>
        <time>2020-08-13T08:25:52.812Z</time>
      </trkpt>
      <trkpt lat="37.764052" lon="-4.917774">
        <ele>219.760909</ele>
        <time>2020-08-13T08:25:55.817Z</time>
      </trkpt>
      <trkpt lat="37.763953" lon="-4.917880">
        <ele>219.940988</ele>
        <time>2020-08-13T08:25:58.832Z</time>
      </trkpt>
      <trkpt lat="37.763854" lon="-4.917988">
        <ele>220.122493</ele>
        <time>2020-08-13T08:26:01.813Z</time>
      </trkpt>
      <trkpt lat="37.763753" lon="-4.918093">
        <ele>220.304001</ele>
        <time>2020-08-13T08:26:04.823Z</time>
      </trkpt>
      <trkpt lat="37.763653" lon="-4.918201">
        <ele>220.486560</ele>
        <time>2020-08-13T08:26:07.825Z</time>
      </trkpt>
      <trkpt lat="37.763551" lon="-4.918307">
        <ele>220.635732</ele>
        <time>2020-08-13T08:26:10.812Z</time>
      </trkpt>
      <trkpt lat="37.763479" lon="-4.918375">
        <ele>220.730467</ele>
        <time>2020-08-13T08:26:12.823Z</time>
      </trkpt>
      <trkpt lat="37.763373" lon="-4.918472">
        <ele>220.868402</ele>
        <time>2020-08-13T08:26:15.805Z</time>
      </trkpt>
      <trkpt lat="37.763297" lon="-4.918542">
        <ele>220.967520</ele>
        <time>2020-08-13T08:26:17.828Z</time>
      </trkpt>
      <trkpt lat="37.763187" lon="-4.918644">
        <ele>221.111317</ele>
        <time>2020-08-13T08:26:20.818Z</time>
      </trkpt>
      <trkpt lat="37.763073" lon="-4.918733">
        <ele>221.252557</ele>
        <time>2020-08-13T08:26:23.810Z</time>
      </trkpt>
      <trkpt lat="37.762961" lon="-4.918815">
        <ele>221.388993</ele>
        <time>2020-08-13T08:26:26.818Z</time>
      </trkpt>
      <trkpt lat="37.762856" lon="-4.918884">
        <ele>221.513743</ele>
        <time>2020-08-13T08:26:29.813Z</time>
      </trkpt>
      <trkpt lat="37.762752" lon="-4.918943">
        <ele>221.633914</ele>
        <time>2020-08-13T08:26:32.820Z</time>
      </trkpt>
      <trkpt lat="37.762647" lon="-4.918997">
        <ele>221.753416</ele>
        <time>2020-08-13T08:26:35.815Z</time>
      </trkpt>
      <trkpt lat="37.762533" lon="-4.919045">
        <ele>221.880092</ele>
        <time>2020-08-13T08:26:38.821Z</time>
      </trkpt>
      <trkpt lat="37.762419" lon="-4.919094">
        <ele>222.007033</ele>
        <time>2020-08-13T08:26:41.818Z</time>
      </trkpt>
      <trkpt lat="37.762305" lon="-4.919135">
        <ele>222.131988</ele>
        <time>2020-08-13T08:26:44.819Z</time>
      </trkpt>
      <trkpt lat="37.762190" lon="-4.919176">
        <ele>222.257958</ele>
        <time>2020-08-13T08:26:47.825Z</time>
      </trkpt>
      <trkpt lat="37.762070" lon="-4.919199">
        <ele>222.385919</ele>
        <time>2020-08-13T08:26:50.818Z</time>
      </trkpt>
      <trkpt lat="37.761951" lon="-4.919214">
        <ele>222.472698</ele>
        <time>2020-08-13T08:26:53.824Z</time>
      </trkpt>
      <trkpt lat="37.761827" lon="-4.919218">
        <ele>222.544780</ele>
        <time>2020-08-13T08:26:56.810Z</time>
      </trkpt>
      <trkpt lat="37.761699" lon="-4.919222">
        <ele>222.619186</ele>
        <time>2020-08-13T08:26:59.822Z</time>
      </trkpt>
      <trkpt lat="37.761569" lon="-4.919226">
        <ele>222.694754</ele>
        <time>2020-08-13T08:27:02.811Z</time>
      </trkpt>
      <trkpt lat="37.761440" lon="-4.919218">
        <ele>222.769808</ele>
        <time>2020-08-13T08:27:05.809Z</time>
      </trkpt>
      <trkpt lat="37.761311" lon="-4.919197">
        <ele>222.845391</ele>
        <time>2020-08-13T08:27:08.818Z</time>
      </trkpt>
      <trkpt lat="37.761180" lon="-4.919162">
        <ele>222.923197</ele>
        <time>2020-08-13T08:27:11.819Z</time>
      </trkpt>
      <trkpt lat="37.761087" lon="-4.919121">
        <ele>222.980429</ele>
        <time>2020-08-13T08:27:13.830Z</time>
      </trkpt>
      <trkpt lat="37.760992" lon="-4.919092">
        <ele>223.037221</ele>
        <time>2020-08-13T08:27:15.818Z</time>
      </trkpt>
      <trkpt lat="37.760874" lon="-4.919039">
        <ele>223.109987</ele>
        <time>2020-08-13T08:27:18.804Z</time>
      </trkpt>
      <trkpt lat="37.760751" lon="-4.918986">
        <ele>223.185498</ele>
        <time>2020-08-13T08:27:21.831Z</time>
      </trkpt>
      <trkpt lat="37.760667" lon="-4.918943">
        <ele>223.238158</ele>
        <time>2020-08-13T08:27:23.815Z</time>
      </trkpt>
      <trkpt lat="37.760553" lon="-4.918871">
        <ele>223.312205</ele>
        <time>2020-08-13T08:27:26.819Z</time>
      </trkpt>
      <trkpt lat="37.760471" lon="-4.918824">
        <ele>223.364521</ele>
        <time>2020-08-13T08:27:28.817Z</time>
      </trkpt>
      <trkpt lat="37.760355" lon="-4.918737">
        <ele>223.442889</ele>
        <time>2020-08-13T08:27:31.818Z</time>
      </trkpt>
      <trkpt lat="37.760271" lon="-4.918670">
        <ele>223.352256</ele>
        <time>2020-08-13T08:27:33.832Z</time>
      </trkpt>
      <trkpt lat="37.760193" lon="-4.918604">
        <ele>223.145366</ele>
        <time>2020-08-13T08:27:35.818Z</time>
      </trkpt>
      <trkpt lat="37.760119" lon="-4.918534">
        <ele>222.941649</ele>
        <time>2020-08-13T08:27:37.816Z</time>
      </trkpt>
      <trkpt lat="37.760044" lon="-4.918467">
        <ele>222.739222</ele>
        <time>2020-08-13T08:27:39.829Z</time>
      </trkpt>
      <trkpt lat="37.759973" lon="-4.918390">
        <ele>222.533036</ele>
        <time>2020-08-13T08:27:41.821Z</time>
      </trkpt>
      <trkpt lat="37.759909" lon="-4.918308">
        <ele>222.332202</ele>
        <time>2020-08-13T08:27:43.820Z</time>
      </trkpt>
      <trkpt lat="37.759840" lon="-4.918232">
        <ele>222.130492</ele>
        <time>2020-08-13T08:27:45.822Z</time>
      </trkpt>
      <trkpt lat="37.759776" lon="-4.918146">
        <ele>221.924637</ele>
        <time>2020-08-13T08:27:47.824Z</time>
      </trkpt>
      <trkpt lat="37.759688" lon="-4.918031">
        <ele>221.645685</ele>
        <time>2020-08-13T08:27:50.819Z</time>
      </trkpt>
      <trkpt lat="37.759599" lon="-4.917911">
        <ele>221.358902</ele>
        <time>2020-08-13T08:27:53.813Z</time>
      </trkpt>
      <trkpt lat="37.759515" lon="-4.917777">
        <ele>221.060837</ele>
        <time>2020-08-13T08:27:56.819Z</time>
      </trkpt>
      <trkpt lat="37.759427" lon="-4.917659">
        <ele>220.778103</ele>
        <time>2020-08-13T08:27:59.824Z</time>
      </trkpt>
      <trkpt lat="37.759338" lon="-4.917530">
        <ele>220.479686</ele>
        <time>2020-08-13T08:28:02.822Z</time>
      </trkpt>
      <trkpt lat="37.759263" lon="-4.917449">
        <ele>220.262266</ele>
        <time>2020-08-13T08:28:04.815Z</time>
      </trkpt>
      <trkpt lat="37.759200" lon="-4.917366">
        <ele>220.061720</ele>
        <time>2020-08-13T08:28:06.802Z</time>
      </trkpt>
      <trkpt lat="37.759140" lon="-4.917282">
        <ele>219.864406</ele>
        <time>2020-08-13T08:28:08.812Z</time>
      </trkpt>
      <trkpt lat="37.759067" lon="-4.917199">
        <ele>219.648005</ele>
        <time>2020-08-13T08:28:10.812Z</time>
      </trkpt>
      <trkpt lat="37.758998" lon="-4.917103">
        <ele>219.499193</ele>
        <time>2020-08-13T08:28:12.819Z</time>
      </trkpt>
      <trkpt lat="37.758927" lon="-4.917021">
        <ele>219.486025</ele>
        <time>2020-08-13T08:28:14.823Z</time>
      </trkpt>
      <trkpt lat="37.758850" lon="-4.916936">
        <ele>219.472028</ele>
        <time>2020-08-13T08:28:16.820Z</time>
      </trkpt>
      <trkpt lat="37.758773" lon="-4.916861">
        <ele>219.458717</ele>
        <time>2020-08-13T08:28:18.820Z</time>
      </trkpt>
      <trkpt lat="37.758688" lon="-4.916779">
        <ele>219.444076</ele>
        <time>2020-08-13T08:28:20.820Z</time>
      </trkpt>
      <trkpt lat="37.758607" lon="-4.916696">
        <ele>219.429798</ele>
        <time>2020-08-13T08:28:22.815Z</time>
      </trkpt>
      <trkpt lat="37.758504" lon="-4.916618">
        <ele>219.413356</ele>
        <time>2020-08-13T08:28:24.814Z</time>
      </trkpt>
      <trkpt lat="37.758409" lon="-4.916532">
        <ele>219.397355</ele>
        <time>2020-08-13T08:28:26.811Z</time>
      </trkpt>
      <trkpt lat="37.758307" lon="-4.916456">
        <ele>219.381142</ele>
        <time>2020-08-13T08:28:28.809Z</time>
      </trkpt>
      <trkpt lat="37.758196" lon="-4.916388">
        <ele>219.364249</ele>
        <time>2020-08-13T08:28:30.821Z</time>
      </trkpt>
      <trkpt lat="37.758097" lon="-4.916315">
        <ele>219.348554</ele>
        <time>2020-08-13T08:28:32.817Z</time>
      </trkpt>
      <trkpt lat="37.758001" lon="-4.916244">
        <ele>219.333323</ele>
        <time>2020-08-13T08:28:34.797Z</time>
      </trkpt>
      <trkpt lat="37.757899" lon="-4.916193">
        <ele>219.318301</ele>
        <time>2020-08-13T08:28:36.817Z</time>
      </trkpt>
      <trkpt lat="37.757788" lon="-4.916158">
        <ele>219.302633</ele>
        <time>2020-08-13T08:28:38.819Z</time>
      </trkpt>
      <trkpt lat="37.757672" lon="-4.916115">
        <ele>219.286077</ele>
        <time>2020-08-13T08:28:40.801Z</time>
      </trkpt>
      <trkpt lat="37.757556" lon="-4.916082">
        <ele>219.269793</ele>
        <time>2020-08-13T08:28:42.813Z</time>
      </trkpt>
      <trkpt lat="37.757449" lon="-4.916064">
        <ele>219.271757</ele>
        <time>2020-08-13T08:28:44.817Z</time>
      </trkpt>
      <trkpt lat="37.757328" lon="-4.916049">
        <ele>219.349308</ele>
        <time>2020-08-13T08:28:46.809Z</time>
      </trkpt>
      <trkpt lat="37.757212" lon="-4.916034">
        <ele>219.423685</ele>
        <time>2020-08-13T08:28:48.814Z</time>
      </trkpt>
      <trkpt lat="37.757101" lon="-4.916030">
        <ele>219.494517</ele>
        <time>2020-08-13T08:28:50.817Z</time>
      </trkpt>
      <trkpt lat="37.756985" lon="-4.916010">
        <ele>219.569193</ele>
        <time>2020-08-13T08:28:52.825Z</time>
      </trkpt>
      <trkpt lat="37.756879" lon="-4.916008">
        <ele>219.636814</ele>
        <time>2020-08-13T08:28:54.824Z</time>
      </trkpt>
      <trkpt lat="37.756780" lon="-4.916016">
        <ele>219.700091</ele>
        <time>2020-08-13T08:28:56.817Z</time>
      </trkpt>
      <trkpt lat="37.756687" lon="-4.916030">
        <ele>219.759831</ele>
        <time>2020-08-13T08:28:58.810Z</time>
      </trkpt>
      <trkpt lat="37.756562" lon="-4.916063">
        <ele>219.841282</ele>
        <time>2020-08-13T08:29:01.819Z</time>
      </trkpt>
      <trkpt lat="37.756452" lon="-4.916089">
        <ele>219.912662</ele>
        <time>2020-08-13T08:29:04.825Z</time>
      </trkpt>
      <trkpt lat="37.756330" lon="-4.916123">
        <ele>219.992348</ele>
        <time>2020-08-13T08:29:07.818Z</time>
      </trkpt>
      <trkpt lat="37.756241" lon="-4.916151">
        <ele>220.050847</ele>
        <time>2020-08-13T08:29:09.821Z</time>
      </trkpt>
      <trkpt lat="37.756157" lon="-4.916199">
        <ele>220.109642</ele>
        <time>2020-08-13T08:29:11.828Z</time>
      </trkpt>
      <trkpt lat="37.756067" lon="-4.916219">
        <ele>220.167929</ele>
        <time>2020-08-13T08:29:13.818Z</time>
      </trkpt>
      <trkpt lat="37.755936" lon="-4.916276">
        <ele>220.256295</ele>
        <time>2020-08-13T08:29:16.813Z</time>
      </trkpt>
      <trkpt lat="37.755849" lon="-4.916319">
        <ele>220.315876</ele>
        <time>2020-08-13T08:29:18.817Z</time>
      </trkpt>
      <trkpt lat="37.755759" lon="-4.916361">
        <ele>220.377066</ele>
        <time>2020-08-13T08:29:20.815Z</time>
      </trkpt>
      <trkpt lat="37.755675" lon="-4.916411">
        <ele>220.425879</ele>
        <time>2020-08-13T08:29:22.813Z</time>
      </trkpt>
      <trkpt lat="37.755591" lon="-4.916472">
        <ele>220.466946</ele>
        <time>2020-08-13T08:29:24.822Z</time>
      </trkpt>
      <trkpt lat="37.755482" lon="-4.916559">
        <ele>220.521591</ele>
        <time>2020-08-13T08:29:27.828Z</time>
      </trkpt>
      <trkpt lat="37.755405" lon="-4.916620">
        <ele>220.560112</ele>
        <time>2020-08-13T08:29:29.819Z</time>
      </trkpt>
      <trkpt lat="37.755308" lon="-4.916723">
        <ele>220.613809</ele>
        <time>2020-08-13T08:29:32.823Z</time>
      </trkpt>
      <trkpt lat="37.755240" lon="-4.916801">
        <ele>220.652729</ele>
        <time>2020-08-13T08:29:34.839Z</time>
      </trkpt>
      <trkpt lat="37.755162" lon="-4.916876">
        <ele>220.694271</ele>
        <time>2020-08-13T08:29:36.828Z</time>
      </trkpt>
      <trkpt lat="37.755074" lon="-4.916984">
        <ele>220.746257</ele>
        <time>2020-08-13T08:29:39.826Z</time>
      </trkpt>
      <trkpt lat="37.755013" lon="-4.917069">
        <ele>220.784737</ele>
        <time>2020-08-13T08:29:41.809Z</time>
      </trkpt>
      <trkpt lat="37.754929" lon="-4.917197">
        <ele>220.840499</ele>
        <time>2020-08-13T08:29:44.814Z</time>
      </trkpt>
      <trkpt lat="37.754851" lon="-4.917320">
        <ele>220.893353</ele>
        <time>2020-08-13T08:29:47.816Z</time>
      </trkpt>
      <trkpt lat="37.754790" lon="-4.917404">
        <ele>220.931585</ele>
        <time>2020-08-13T08:29:49.822Z</time>
      </trkpt>
      <trkpt lat="37.754736" lon="-4.917495">
        <ele>220.969725</ele>
        <time>2020-08-13T08:29:51.816Z</time>
      </trkpt>
      <trkpt lat="37.754662" lon="-4.917639">
        <ele>221.027296</ele>
        <time>2020-08-13T08:29:54.818Z</time>
      </trkpt>
      <trkpt lat="37.754592" lon="-4.917780">
        <ele>221.083105</ele>
        <time>2020-08-13T08:29:57.819Z</time>
      </trkpt>
      <trkpt lat="37.754535" lon="-4.917930">
        <ele>221.138893</ele>
        <time>2020-08-13T08:30:00.818Z</time>
      </trkpt>
      <trkpt lat="37.754483" lon="-4.918086">
        <ele>221.325585</ele>
        <time>2020-08-13T08:30:03.817Z</time>
      </trkpt>
      <trkpt lat="37.754444" lon="-4.918198">
        <ele>221.558285</ele>
        <time>2020-08-13T08:30:05.817Z</time>
      </trkpt>
      <trkpt lat="37.754407" lon="-4.918314">
        <ele>221.796124</ele>
        <time>2020-08-13T08:30:07.814Z</time>
      </trkpt>
      <trkpt lat="37.754380" lon="-4.918432">
        <ele>222.029700</ele>
        <time>2020-08-13T08:30:09.809Z</time>
      </trkpt>
      <trkpt lat="37.754347" lon="-4.918593">
        <ele>222.345951</ele>
        <time>2020-08-13T08:30:12.811Z</time>
      </trkpt>
      <trkpt lat="37.754323" lon="-4.918710">
        <ele>222.575785</ele>
        <time>2020-08-13T08:30:14.814Z</time>
      </trkpt>
      <trkpt lat="37.754314" lon="-4.918824">
        <ele>222.793627</ele>
        <time>2020-08-13T08:30:16.819Z</time>
      </trkpt>
      <trkpt lat="37.754294" lon="-4.918993">
        <ele>223.118550</ele>
        <time>2020-08-13T08:30:19.819Z</time>
      </trkpt>
      <trkpt lat="37.754282" lon="-4.919157">
        <ele>223.431718</ele>
        <time>2020-08-13T08:30:22.816Z</time>
      </trkpt>
      <trkpt lat="37.754271" lon="-4.919327">
        <ele>223.756043</ele>
        <time>2020-08-13T08:30:25.813Z</time>
      </trkpt>
      <trkpt lat="37.754267" lon="-4.919442">
        <ele>223.974920</ele>
        <time>2020-08-13T08:30:27.802Z</time>
      </trkpt>
      <trkpt lat="37.754262" lon="-4.919610">
        <ele>224.294589</ele>
        <time>2020-08-13T08:30:30.813Z</time>
      </trkpt>
      <trkpt lat="37.754258" lon="-4.919726">
        <ele>224.515365</ele>
        <time>2020-08-13T08:30:32.811Z</time>
      </trkpt>
      <trkpt lat="37.754251" lon="-4.919840">
        <ele>224.732782</ele>
        <time>2020-08-13T08:30:34.821Z</time>
      </trkpt>
      <trkpt lat="37.754243" lon="-4.919961">
        <ele>224.963659</ele>
        <time>2020-08-13T08:30:36.817Z</time>
      </trkpt>
      <trkpt lat="37.754243" lon="-4.920083">
        <ele>225.195635</ele>
        <time>2020-08-13T08:30:38.830Z</time>
      </trkpt>
      <trkpt lat="37.754238" lon="-4.920201">
        <ele>225.420327</ele>
        <time>2020-08-13T08:30:40.805Z</time>
      </trkpt>
      <trkpt lat="37.754229" lon="-4.920369">
        <ele>225.548273</ele>
        <time>2020-08-13T08:30:43.822Z</time>
      </trkpt>
      <trkpt lat="37.754213" lon="-4.920545">
        <ele>225.623042</ele>
        <time>2020-08-13T08:30:46.819Z</time>
      </trkpt>
      <trkpt lat="37.754197" lon="-4.920712">
        <ele>225.694039</ele>
        <time>2020-08-13T08:30:49.822Z</time>
      </trkpt>
      <trkpt lat="37.754194" lon="-4.920826">
        <ele>225.742179</ele>
        <time>2020-08-13T08:30:51.822Z</time>
      </trkpt>
      <trkpt lat="37.754197" lon="-4.920990">
        <ele>225.811413</ele>
        <time>2020-08-13T08:30:54.819Z</time>
      </trkpt>
      <trkpt lat="37.754194" lon="-4.921122">
        <ele>225.867146</ele>
        <time>2020-08-13T08:30:56.818Z</time>
      </trkpt>
      <trkpt lat="37.754185" lon="-4.921258">
        <ele>225.924744</ele>
        <time>2020-08-13T08:30:58.814Z</time>
      </trkpt>
      <trkpt lat="37.754173" lon="-4.921418">
        <ele>225.992575</ele>
        <time>2020-08-13T08:31:01.823Z</time>
      </trkpt>
      <trkpt lat="37.754147" lon="-4.921539">
        <ele>226.045494</ele>
        <time>2020-08-13T08:31:03.813Z</time>
      </trkpt>
      <trkpt lat="37.754113" lon="-4.921698">
        <ele>226.115010</ele>
        <time>2020-08-13T08:31:06.820Z</time>
      </trkpt>
      <trkpt lat="37.754083" lon="-4.921858">
        <ele>226.184410</ele>
        <time>2020-08-13T08:31:09.818Z</time>
      </trkpt>
      <trkpt lat="37.754052" lon="-4.921972">
        <ele>226.235289</ele>
        <time>2020-08-13T08:31:11.821Z</time>
      </trkpt>
      <trkpt lat="37.754023" lon="-4.922082">
        <ele>226.284227</ele>
        <time>2020-08-13T08:31:13.818Z</time>
      </trkpt>
      <trkpt lat="37.753978" lon="-4.922232">
        <ele>226.351938</ele>
        <time>2020-08-13T08:31:16.819Z</time>
      </trkpt>
      <trkpt lat="37.753932" lon="-4.922385">
        <ele>226.421022</ele>
        <time>2020-08-13T08:31:19.825Z</time>
      </trkpt>
      <trkpt lat="37.753886" lon="-4.922536">
        <ele>226.580141</ele>
        <time>2020-08-13T08:31:22.823Z</time>
      </trkpt>
      <trkpt lat="37.753849" lon="-4.922640">
        <ele>226.750474</ele>
        <time>2020-08-13T08:31:24.822Z</time>
      </trkpt>
      <trkpt lat="37.753807" lon="-4.922742">
        <ele>226.922241</ele>
        <time>2020-08-13T08:31:26.821Z</time>
      </trkpt>
      <trkpt lat="37.753744" lon="-4.922887">
        <ele>227.169355</ele>
        <time>2020-08-13T08:31:29.825Z</time>
      </trkpt>
      <trkpt lat="37.753692" lon="-4.922986">
        <ele>227.346875</ele>
        <time>2020-08-13T08:31:31.823Z</time>
      </trkpt>
      <trkpt lat="37.753622" lon="-4.923129">
        <ele>227.598078</ele>
        <time>2020-08-13T08:31:34.819Z</time>
      </trkpt>
      <trkpt lat="37.753546" lon="-4.923270">
        <ele>227.852955</ele>
        <time>2020-08-13T08:31:37.815Z</time>
      </trkpt>
      <trkpt lat="37.753474" lon="-4.923401">
        <ele>228.091244</ele>
        <time>2020-08-13T08:31:40.822Z</time>
      </trkpt>
      <trkpt lat="37.753399" lon="-4.923521">
        <ele>228.319710</ele>
        <time>2020-08-13T08:31:43.831Z</time>
      </trkpt>
      <trkpt lat="37.753321" lon="-4.923640">
        <ele>228.550580</ele>
        <time>2020-08-13T08:31:46.825Z</time>
      </trkpt>
      <trkpt lat="37.753248" lon="-4.923757">
        <ele>228.773188</ele>
        <time>2020-08-13T08:31:49.827Z</time>
      </trkpt>
      <trkpt lat="37.753170" lon="-4.923862">
        <ele>228.988376</ele>
        <time>2020-08-13T08:31:52.810Z</time>
      </trkpt>
      <trkpt lat="37.753085" lon="-4.923963">
        <ele>229.208692</ele>
        <time>2020-08-13T08:31:55.819Z</time>
      </trkpt>
      <trkpt lat="37.752993" lon="-4.924069">
        <ele>229.443786</ele>
        <time>2020-08-13T08:31:58.817Z</time>
      </trkpt>
      <trkpt lat="37.752892" lon="-4.924170">
        <ele>229.687013</ele>
        <time>2020-08-13T08:32:01.825Z</time>
      </trkpt>
      <trkpt lat="37.752798" lon="-4.924271">
        <ele>229.861156</ele>
        <time>2020-08-13T08:32:04.809Z</time>
      </trkpt>
      <trkpt lat="37.752702" lon="-4.924361">
        <ele>229.893591</ele>
        <time>2020-08-13T08:32:07.819Z</time>
      </trkpt>
      <trkpt lat="37.752597" lon="-4.924447">
        <ele>229.927546</ele>
        <time>2020-08-13T08:32:10.811Z</time>
      </trkpt>
      <trkpt lat="37.752492" lon="-4.924528">
        <ele>229.960930</ele>
        <time>2020-08-13T08:32:13.830Z</time>
      </trkpt>
      <trkpt lat="37.752383" lon="-4.924611">
        <ele>229.995465</ele>
        <time>2020-08-13T08:32:16.826Z</time>
      </trkpt>
      <trkpt lat="37.752278" lon="-4.924688">
        <ele>230.028410</ele>
        <time>2020-08-13T08:32:19.822Z</time>
      </trkpt>
      <trkpt lat="37.752175" lon="-4.924761">
        <ele>230.060459</ele>
        <time>2020-08-13T08:32:22.816Z</time>
      </trkpt>
      <trkpt lat="37.752062" lon="-4.924830">
        <ele>230.094518</ele>
        <time>2020-08-13T08:32:25.820Z</time>
      </trkpt>
      <trkpt lat="37.751948" lon="-4.924898">
        <ele>230.128731</ele>
        <time>2020-08-13T08:32:28.819Z</time>
      </trkpt>
      <trkpt lat="37.751827" lon="-4.924959">
        <ele>230.164088</ele>
        <time>2020-08-13T08:32:31.822Z</time>
      </trkpt>
      <trkpt lat="37.751703" lon="-4.925023">
        <ele>230.200440</ele>
        <time>2020-08-13T08:32:34.811Z</time>
      </trkpt>
      <trkpt lat="37.751589" lon="-4.925091">
        <ele>230.234653</ele>
        <time>2020-08-13T08:32:37.817Z</time>
      </trkpt>
      <trkpt lat="37.751486" lon="-4.925152">
        <ele>230.265524</ele>
        <time>2020-08-13T08:32:40.814Z</time>
      </trkpt>
      <trkpt lat="37.751375" lon="-4.925208">
        <ele>230.297962</ele>
        <time>2020-08-13T08:32:43.819Z</time>
      </trkpt>
      <trkpt lat="37.751263" lon="-4.925271">
        <ele>230.331234</ele>
        <time>2020-08-13T08:32:46.822Z</time>
      </trkpt>
      <trkpt lat="37.751140" lon="-4.925333">
        <ele>229.961057</ele>
        <time>2020-08-13T08:32:49.821Z</time>
      </trkpt>
      <trkpt lat="37.751020" lon="-4.925398">
        <ele>229.476597</ele>
        <time>2020-08-13T08:32:52.824Z</time>
      </trkpt>
      <trkpt lat="37.750932" lon="-4.925435">
        <ele>229.132444</ele>
        <time>2020-08-13T08:32:54.824Z</time>
      </trkpt>
      <trkpt lat="37.750835" lon="-4.925488">
        <ele>228.740307</ele>
        <time>2020-08-13T08:32:56.811Z</time>
      </trkpt>
      <trkpt lat="37.750722" lon="-4.925552">
        <ele>228.280821</ele>
        <time>2020-08-13T08:32:59.816Z</time>
      </trkpt>
      <trkpt lat="37.750602" lon="-4.925624">
        <ele>227.787912</ele>
        <time>2020-08-13T08:33:02.809Z</time>
      </trkpt>
      <trkpt lat="37.750516" lon="-4.925678">
        <ele>227.431585</ele>
        <time>2020-08-13T08:33:04.807Z</time>
      </trkpt>
      <trkpt lat="37.750403" lon="-4.925750">
        <ele>226.962015</ele>
        <time>2020-08-13T08:33:07.823Z</time>
      </trkpt>
      <trkpt lat="37.750288" lon="-4.925821">
        <ele>226.487098</ele>
        <time>2020-08-13T08:33:10.825Z</time>
      </trkpt>
      <trkpt lat="37.750175" lon="-4.925888">
        <ele>226.023943</ele>
        <time>2020-08-13T08:33:13.824Z</time>
      </trkpt>
      <trkpt lat="37.750061" lon="-4.925974">
        <ele>225.531328</ele>
        <time>2020-08-13T08:33:16.813Z</time>
      </trkpt>
      <trkpt lat="37.749963" lon="-4.926048">
        <ele>225.107747</ele>
        <time>2020-08-13T08:33:19.822Z</time>
      </trkpt>
      <trkpt lat="37.749715" lon="-4.926243">
        <ele>224.024015</ele>
        <time>2020-08-13T08:41:54.809Z</time>
      </trkpt>
      <trkpt lat="37.749616" lon="-4.926230">
        <ele>223.656277</ele>
        <time>2020-08-13T08:42:02.817Z</time>
      </trkpt>
      <trkpt lat="37.749205" lon="-4.926459">
        <ele>222.266469</ele>
        <time>2020-08-13T08:43:20.826Z</time>
      </trkpt>
      <trkpt lat="37.749122" lon="-4.926528">
        <ele>221.959103</ele>
        <time>2020-08-13T08:43:22.817Z</time>
      </trkpt>
      <trkpt lat="37.749042" lon="-4.926593">
        <ele>221.664855</ele>
        <time>2020-08-13T08:43:24.824Z</time>
      </trkpt>
      <trkpt lat="37.748942" lon="-4.926629">
        <ele>221.343109</ele>
        <time>2020-08-13T08:43:26.819Z</time>
      </trkpt>
      <trkpt lat="37.748823" lon="-4.926696">
        <ele>220.940017</ele>
        <time>2020-08-13T08:43:29.816Z</time>
      </trkpt>
      <trkpt lat="37.748732" lon="-4.926756">
        <ele>220.622444</ele>
        <time>2020-08-13T08:43:31.823Z</time>
      </trkpt>
      <trkpt lat="37.748651" lon="-4.926839">
        <ele>220.299839</ele>
        <time>2020-08-13T08:43:33.819Z</time>
      </trkpt>
      <trkpt lat="37.748498" lon="-4.926889">
        <ele>219.810825</ele>
        <time>2020-08-13T08:43:35.815Z</time>
      </trkpt>
      <trkpt lat="37.748407" lon="-4.926958">
        <ele>219.482489</ele>
        <time>2020-08-13T08:43:37.817Z</time>
      </trkpt>
      <trkpt lat="37.748302" lon="-4.927006">
        <ele>219.136989</ele>
        <time>2020-08-13T08:43:39.811Z</time>
      </trkpt>
      <trkpt lat="37.748174" lon="-4.927083">
        <ele>218.698363</ele>
        <time>2020-08-13T08:43:42.832Z</time>
      </trkpt>
      <trkpt lat="37.748090" lon="-4.927144">
        <ele>218.398618</ele>
        <time>2020-08-13T08:43:44.813Z</time>
      </trkpt>
      <trkpt lat="37.747997" lon="-4.927199">
        <ele>218.118167</ele>
        <time>2020-08-13T08:43:46.810Z</time>
      </trkpt>
      <trkpt lat="37.747894" lon="-4.927243">
        <ele>218.492341</ele>
        <time>2020-08-13T08:43:48.820Z</time>
      </trkpt>
      <trkpt lat="37.747807" lon="-4.927275">
        <ele>218.804177</ele>
        <time>2020-08-13T08:43:50.821Z</time>
      </trkpt>
      <trkpt lat="37.747713" lon="-4.927317">
        <ele>219.147295</ele>
        <time>2020-08-13T08:43:52.822Z</time>
      </trkpt>
      <trkpt lat="37.747618" lon="-4.927346">
        <ele>219.483648</ele>
        <time>2020-08-13T08:43:54.829Z</time>
      </trkpt>
      <trkpt lat="37.747510" lon="-4.927392">
        <ele>219.875867</ele>
        <time>2020-08-13T08:43:57.802Z</time>
      </trkpt>
      <trkpt lat="37.747418" lon="-4.927422">
        <ele>220.202860</ele>
        <time>2020-08-13T08:43:59.819Z</time>
      </trkpt>
      <trkpt lat="37.747330" lon="-4.927452">
        <ele>220.516542</ele>
        <time>2020-08-13T08:44:01.813Z</time>
      </trkpt>
      <trkpt lat="37.747227" lon="-4.927475">
        <ele>220.876522</ele>
        <time>2020-08-13T08:44:03.829Z</time>
      </trkpt>
      <trkpt lat="37.747124" lon="-4.927496">
        <ele>221.235596</ele>
        <time>2020-08-13T08:44:05.814Z</time>
      </trkpt>
      <trkpt lat="37.747010" lon="-4.927520">
        <ele>221.633350</ele>
        <time>2020-08-13T08:44:07.814Z</time>
      </trkpt>
      <trkpt lat="37.746901" lon="-4.927537">
        <ele>222.011339</ele>
        <time>2020-08-13T08:44:09.827Z</time>
      </trkpt>
      <trkpt lat="37.746793" lon="-4.927552">
        <ele>222.385279</ele>
        <time>2020-08-13T08:44:11.809Z</time>
      </trkpt>
      <trkpt lat="37.746692" lon="-4.927555">
        <ele>222.732988</ele>
        <time>2020-08-13T08:44:13.810Z</time>
      </trkpt>
      <trkpt lat="37.746589" lon="-4.927570">
        <ele>223.089827</ele>
        <time>2020-08-13T08:44:15.811Z</time>
      </trkpt>
      <trkpt lat="37.746478" lon="-4.927577">
        <ele>223.472331</ele>
        <time>2020-08-13T08:44:17.818Z</time>
      </trkpt>
      <trkpt lat="37.746367" lon="-4.927581">
        <ele>223.854517</ele>
        <time>2020-08-13T08:44:19.820Z</time>
      </trkpt>
      <trkpt lat="37.746255" lon="-4.927589">
        <ele>224.240603</ele>
        <time>2020-08-13T08:44:21.812Z</time>
      </trkpt>
      <trkpt lat="37.746147" lon="-4.927593">
        <ele>224.082602</ele>
        <time>2020-08-13T08:44:23.813Z</time>
      </trkpt>
      <trkpt lat="37.746028" lon="-4.927605">
        <ele>223.820511</ele>
        <time>2020-08-13T08:44:25.808Z</time>
      </trkpt>
      <trkpt lat="37.745909" lon="-4.927615">
        <ele>223.558672</ele>
        <time>2020-08-13T08:44:27.819Z</time>
      </trkpt>
      <trkpt lat="37.745785" lon="-4.927625">
        <ele>223.285880</ele>
        <time>2020-08-13T08:44:29.815Z</time>
      </trkpt>
      <trkpt lat="37.745667" lon="-4.927629">
        <ele>223.026720</ele>
        <time>2020-08-13T08:44:31.816Z</time>
      </trkpt>
      <trkpt lat="37.745557" lon="-4.927639">
        <ele>222.784594</ele>
        <time>2020-08-13T08:44:33.829Z</time>
      </trkpt>
      <trkpt lat="37.745440" lon="-4.927663">
        <ele>222.524366</ele>
        <time>2020-08-13T08:44:35.816Z</time>
      </trkpt>
      <trkpt lat="37.745325" lon="-4.927659">
        <ele>222.271790</ele>
        <time>2020-08-13T08:44:37.806Z</time>
      </trkpt>
      <trkpt lat="37.745223" lon="-4.927679">
        <ele>222.045175</ele>
        <time>2020-08-13T08:44:39.839Z</time>
      </trkpt>
      <trkpt lat="37.745112" lon="-4.927673">
        <ele>221.801254</ele>
        <time>2020-08-13T08:44:41.820Z</time>
      </trkpt>
      <trkpt lat="37.745001" lon="-4.927686">
        <ele>221.556513</ele>
        <time>2020-08-13T08:44:43.824Z</time>
      </trkpt>
      <trkpt lat="37.744896" lon="-4.927673">
        <ele>221.324885</ele>
        <time>2020-08-13T08:44:45.808Z</time>
      </trkpt>
      <trkpt lat="37.744788" lon="-4.927680">
        <ele>221.087462</ele>
        <time>2020-08-13T08:44:47.817Z</time>
      </trkpt>
      <trkpt lat="37.744677" lon="-4.927681">
        <ele>220.843758</ele>
        <time>2020-08-13T08:44:49.819Z</time>
      </trkpt>
      <trkpt lat="37.744562" lon="-4.927710">
        <ele>220.586307</ele>
        <time>2020-08-13T08:44:51.813Z</time>
      </trkpt>
      <trkpt lat="37.744436" lon="-4.927739">
        <ele>220.338824</ele>
        <time>2020-08-13T08:44:53.819Z</time>
      </trkpt>
      <trkpt lat="37.744300" lon="-4.927752">
        <ele>220.328071</ele>
        <time>2020-08-13T08:44:55.811Z</time>
      </trkpt>
      <trkpt lat="37.744153" lon="-4.927744">
        <ele>220.316471</ele>
        <time>2020-08-13T08:44:57.810Z</time>
      </trkpt>
      <trkpt lat="37.744012" lon="-4.927774">
        <ele>220.305199</ele>
        <time>2020-08-13T08:44:59.810Z</time>
      </trkpt>
      <trkpt lat="37.743873" lon="-4.927737">
        <ele>220.294000</ele>
        <time>2020-08-13T08:45:01.818Z</time>
      </trkpt>
      <trkpt lat="37.743749" lon="-4.927732">
        <ele>220.284219</ele>
        <time>2020-08-13T08:45:03.815Z</time>
      </trkpt>
      <trkpt lat="37.743599" lon="-4.927753">
        <ele>220.272321</ele>
        <time>2020-08-13T08:45:05.814Z</time>
      </trkpt>
      <trkpt lat="37.743479" lon="-4.927766">
        <ele>220.262826</ele>
        <time>2020-08-13T08:45:07.829Z</time>
      </trkpt>
      <trkpt lat="37.743358" lon="-4.927769">
        <ele>220.253284</ele>
        <time>2020-08-13T08:45:09.818Z</time>
      </trkpt>
      <trkpt lat="37.743225" lon="-4.927749">
        <ele>220.242725</ele>
        <time>2020-08-13T08:45:11.814Z</time>
      </trkpt>
      <trkpt lat="37.743103" lon="-4.927746">
        <ele>220.233105</ele>
        <time>2020-08-13T08:45:13.804Z</time>
      </trkpt>
      <trkpt lat="37.742977" lon="-4.927746">
        <ele>220.223171</ele>
        <time>2020-08-13T08:45:15.820Z</time>
      </trkpt>
      <trkpt lat="37.742848" lon="-4.927750">
        <ele>220.212998</ele>
        <time>2020-08-13T08:45:17.838Z</time>
      </trkpt>
      <trkpt lat="37.742722" lon="-4.927755">
        <ele>220.203059</ele>
        <time>2020-08-13T08:45:19.816Z</time>
      </trkpt>
      <trkpt lat="37.742590" lon="-4.927773">
        <ele>220.074543</ele>
        <time>2020-08-13T08:45:21.820Z</time>
      </trkpt>
      <trkpt lat="37.742470" lon="-4.927781">
        <ele>219.868305</ele>
        <time>2020-08-13T08:45:23.819Z</time>
      </trkpt>
      <trkpt lat="37.742356" lon="-4.927795">
        <ele>219.671730</ele>
        <time>2020-08-13T08:45:25.797Z</time>
      </trkpt>
      <trkpt lat="37.742232" lon="-4.927800">
        <ele>219.458805</ele>
        <time>2020-08-13T08:45:27.814Z</time>
      </trkpt>
      <trkpt lat="37.742105" lon="-4.927808">
        <ele>219.240568</ele>
        <time>2020-08-13T08:45:29.821Z</time>
      </trkpt>
      <trkpt lat="37.741993" lon="-4.927812">
        <ele>219.048269</ele>
        <time>2020-08-13T08:45:31.831Z</time>
      </trkpt>
      <trkpt lat="37.741876" lon="-4.927802">
        <ele>218.847008</ele>
        <time>2020-08-13T08:45:33.817Z</time>
      </trkpt>
      <trkpt lat="37.741758" lon="-4.927790">
        <ele>218.643834</ele>
        <time>2020-08-13T08:45:35.823Z</time>
      </trkpt>
      <trkpt lat="37.741643" lon="-4.927778">
        <ele>218.445793</ele>
        <time>2020-08-13T08:45:37.813Z</time>
      </trkpt>
      <trkpt lat="37.741528" lon="-4.927755">
        <ele>218.245969</ele>
        <time>2020-08-13T08:45:39.809Z</time>
      </trkpt>
      <trkpt lat="37.741415" lon="-4.927729">
        <ele>218.048846</ele>
        <time>2020-08-13T08:45:41.821Z</time>
      </trkpt>
      <trkpt lat="37.741309" lon="-4.927705">
        <ele>217.864029</ele>
        <time>2020-08-13T08:45:43.826Z</time>
      </trkpt>
      <trkpt lat="37.741196" lon="-4.927673">
        <ele>217.665287</ele>
        <time>2020-08-13T08:45:45.809Z</time>
      </trkpt>
      <trkpt lat="37.741078" lon="-4.927634">
        <ele>217.455965</ele>
        <time>2020-08-13T08:45:47.812Z</time>
      </trkpt>
      <trkpt lat="37.740963" lon="-4.927593">
        <ele>217.250900</ele>
        <time>2020-08-13T08:45:49.807Z</time>
      </trkpt>
      <trkpt lat="37.740846" lon="-4.927568">
        <ele>217.081688</ele>
        <time>2020-08-13T08:45:51.816Z</time>
      </trkpt>
      <trkpt lat="37.740737" lon="-4.927516">
        <ele>216.989212</ele>
        <time>2020-08-13T08:45:53.816Z</time>
      </trkpt>
      <trkpt lat="37.740635" lon="-4.927482">
        <ele>216.905479</ele>
        <time>2020-08-13T08:45:55.818Z</time>
      </trkpt>
      <trkpt lat="37.740525" lon="-4.927433">
        <ele>216.812903</ele>
        <time>2020-08-13T08:45:57.817Z</time>
      </trkpt>
      <trkpt lat="37.740411" lon="-4.927382">
        <ele>216.716915</ele>
        <time>2020-08-13T08:45:59.816Z</time>
      </trkpt>
      <trkpt lat="37.740302" lon="-4.927317">
        <ele>216.621253</ele>
        <time>2020-08-13T08:46:01.813Z</time>
      </trkpt>
      <trkpt lat="37.740195" lon="-4.927258">
        <ele>216.528594</ele>
        <time>2020-08-13T08:46:03.815Z</time>
      </trkpt>
      <trkpt lat="37.740090" lon="-4.927190">
        <ele>216.434951</ele>
        <time>2020-08-13T08:46:05.820Z</time>
      </trkpt>
      <trkpt lat="37.739982" lon="-4.927118">
        <ele>216.338037</ele>
        <time>2020-08-13T08:46:07.818Z</time>
      </trkpt>
      <trkpt lat="37.739877" lon="-4.927036">
        <ele>216.240076</ele>
        <time>2020-08-13T08:46:09.821Z</time>
      </trkpt>
      <trkpt lat="37.739770" lon="-4.926958">
        <ele>216.142038</ele>
        <time>2020-08-13T08:46:11.809Z</time>
      </trkpt>
      <trkpt lat="37.739655" lon="-4.926867">
        <ele>216.034352</ele>
        <time>2020-08-13T08:46:13.820Z</time>
      </trkpt>
      <trkpt lat="37.739552" lon="-4.926779">
        <ele>215.935679</ele>
        <time>2020-08-13T08:46:15.833Z</time>
      </trkpt>
      <trkpt lat="37.739452" lon="-4.926696">
        <ele>215.840728</ele>
        <time>2020-08-13T08:46:17.811Z</time>
      </trkpt>
      <trkpt lat="37.739348" lon="-4.926607">
        <ele>215.741046</ele>
        <time>2020-08-13T08:46:19.826Z</time>
      </trkpt>
      <trkpt lat="37.739250" lon="-4.926516">
        <ele>215.668360</ele>
        <time>2020-08-13T08:46:21.810Z</time>
      </trkpt>
      <trkpt lat="37.739143" lon="-4.926419">
        <ele>215.627638</ele>
        <time>2020-08-13T08:46:23.819Z</time>
      </trkpt>
      <trkpt lat="37.739036" lon="-4.926330">
        <ele>215.588024</ele>
        <time>2020-08-13T08:46:25.825Z</time>
      </trkpt>
      <trkpt lat="37.738929" lon="-4.926239">
        <ele>215.548140</ele>
        <time>2020-08-13T08:46:27.813Z</time>
      </trkpt>
      <trkpt lat="37.738826" lon="-4.926147">
        <ele>215.509135</ele>
        <time>2020-08-13T08:46:29.812Z</time>
      </trkpt>
      <trkpt lat="37.738717" lon="-4.926057">
        <ele>215.468870</ele>
        <time>2020-08-13T08:46:31.815Z</time>
      </trkpt>
      <trkpt lat="37.738610" lon="-4.925961">
        <ele>215.428289</ele>
        <time>2020-08-13T08:46:33.817Z</time>
      </trkpt>
      <trkpt lat="37.738501" lon="-4.925870">
        <ele>215.387890</ele>
        <time>2020-08-13T08:46:35.818Z</time>
      </trkpt>
      <trkpt lat="37.738396" lon="-4.925778">
        <ele>215.348378</ele>
        <time>2020-08-13T08:46:37.815Z</time>
      </trkpt>
      <trkpt lat="37.738291" lon="-4.925689">
        <ele>215.309279</ele>
        <time>2020-08-13T08:46:39.812Z</time>
      </trkpt>
      <trkpt lat="37.738193" lon="-4.925599">
        <ele>215.271817</ele>
        <time>2020-08-13T08:46:41.833Z</time>
      </trkpt>
      <trkpt lat="37.738094" lon="-4.925509">
        <ele>215.234103</ele>
        <time>2020-08-13T08:46:43.823Z</time>
      </trkpt>
      <trkpt lat="37.738001" lon="-4.925415">
        <ele>215.197277</ele>
        <time>2020-08-13T08:46:45.820Z</time>
      </trkpt>
      <trkpt lat="37.737905" lon="-4.925326">
        <ele>215.160458</ele>
        <time>2020-08-13T08:46:47.822Z</time>
      </trkpt>
      <trkpt lat="37.737799" lon="-4.925234">
        <ele>215.116347</ele>
        <time>2020-08-13T08:46:49.810Z</time>
      </trkpt>
      <trkpt lat="37.737702" lon="-4.925146">
        <ele>215.054914</ele>
        <time>2020-08-13T08:46:52.862Z</time>
      </trkpt>
      <trkpt lat="37.737602" lon="-4.925047">
        <ele>214.989559</ele>
        <time>2020-08-13T08:46:53.817Z</time>
      </trkpt>
      <trkpt lat="37.737503" lon="-4.924950">
        <ele>214.925111</ele>
        <time>2020-08-13T08:46:55.816Z</time>
      </trkpt>
      <trkpt lat="37.737409" lon="-4.924869">
        <ele>214.866575</ele>
        <time>2020-08-13T08:46:57.820Z</time>
      </trkpt>
      <trkpt lat="37.737308" lon="-4.924788">
        <ele>214.805029</ele>
        <time>2020-08-13T08:46:59.813Z</time>
      </trkpt>
      <trkpt lat="37.737213" lon="-4.924704">
        <ele>214.745376</ele>
        <time>2020-08-13T08:47:01.811Z</time>
      </trkpt>
      <trkpt lat="37.737119" lon="-4.924617">
        <ele>214.685432</ele>
        <time>2020-08-13T08:47:03.820Z</time>
      </trkpt>
      <trkpt lat="37.737017" lon="-4.924544">
        <ele>214.625119</ele>
        <time>2020-08-13T08:47:05.825Z</time>
      </trkpt>
      <trkpt lat="37.736916" lon="-4.924455">
        <ele>214.561770</ele>
        <time>2020-08-13T08:47:07.831Z</time>
      </trkpt>
      <trkpt lat="37.736821" lon="-4.924375">
        <ele>214.503035</ele>
        <time>2020-08-13T08:47:09.813Z</time>
      </trkpt>
      <trkpt lat="37.736727" lon="-4.924292">
        <ele>214.444037</ele>
        <time>2020-08-13T08:47:11.810Z</time>
      </trkpt>
      <trkpt lat="37.736635" lon="-4.924206">
        <ele>214.385162</ele>
        <time>2020-08-13T08:47:13.823Z</time>
      </trkpt>
      <trkpt lat="37.736543" lon="-4.924125">
        <ele>214.327474</ele>
        <time>2020-08-13T08:47:15.819Z</time>
      </trkpt>
      <trkpt lat="37.736452" lon="-4.924046">
        <ele>214.270672</ele>
        <time>2020-08-13T08:47:17.831Z</time>
      </trkpt>
      <trkpt lat="37.736364" lon="-4.923966">
        <ele>214.214899</ele>
        <time>2020-08-13T08:47:19.810Z</time>
      </trkpt>
      <trkpt lat="37.736269" lon="-4.923890">
        <ele>214.023094</ele>
        <time>2020-08-13T08:47:21.816Z</time>
      </trkpt>
      <trkpt lat="37.736182" lon="-4.923816">
        <ele>213.807138</ele>
        <time>2020-08-13T08:47:23.824Z</time>
      </trkpt>
      <trkpt lat="37.736085" lon="-4.923743">
        <ele>213.574646</ele>
        <time>2020-08-13T08:47:25.828Z</time>
      </trkpt>
      <trkpt lat="37.735995" lon="-4.923658">
        <ele>213.343281</ele>
        <time>2020-08-13T08:47:27.835Z</time>
      </trkpt>
      <trkpt lat="37.735889" lon="-4.923572">
        <ele>213.083883</ele>
        <time>2020-08-13T08:47:29.824Z</time>
      </trkpt>
      <trkpt lat="37.735779" lon="-4.923501">
        <ele>212.829513</ele>
        <time>2020-08-13T08:47:31.818Z</time>
      </trkpt>
      <trkpt lat="37.735678" lon="-4.923425">
        <ele>212.587442</ele>
        <time>2020-08-13T08:47:33.815Z</time>
      </trkpt>
      <trkpt lat="37.735572" lon="-4.923374">
        <ele>212.353850</ele>
        <time>2020-08-13T08:47:35.810Z</time>
      </trkpt>
      <trkpt lat="37.735458" lon="-4.923316">
        <ele>212.100758</ele>
        <time>2020-08-13T08:47:37.813Z</time>
      </trkpt>
      <trkpt lat="37.735340" lon="-4.923259">
        <ele>211.840590</ele>
        <time>2020-08-13T08:47:39.803Z</time>
      </trkpt>
      <trkpt lat="37.735234" lon="-4.923210">
        <ele>211.608136</ele>
        <time>2020-08-13T08:47:41.815Z</time>
      </trkpt>
      <trkpt lat="37.735121" lon="-4.923174">
        <ele>211.368123</ele>
        <time>2020-08-13T08:47:43.813Z</time>
      </trkpt>
      <trkpt lat="37.735007" lon="-4.923148">
        <ele>211.129536</ele>
        <time>2020-08-13T08:47:45.823Z</time>
      </trkpt>
      <trkpt lat="37.734889" lon="-4.923122">
        <ele>210.882836</ele>
        <time>2020-08-13T08:47:47.820Z</time>
      </trkpt>
      <trkpt lat="37.734778" lon="-4.923091">
        <ele>210.648706</ele>
        <time>2020-08-13T08:47:49.818Z</time>
      </trkpt>
      <trkpt lat="37.734661" lon="-4.923065">
        <ele>210.459181</ele>
        <time>2020-08-13T08:47:51.826Z</time>
      </trkpt>
      <trkpt lat="37.734540" lon="-4.923051">
        <ele>210.357199</ele>
        <time>2020-08-13T08:47:53.812Z</time>
      </trkpt>
      <trkpt lat="37.734420" lon="-4.923044">
        <ele>210.256374</ele>
        <time>2020-08-13T08:47:55.818Z</time>
      </trkpt>
      <trkpt lat="37.734298" lon="-4.923042">
        <ele>210.153969</ele>
        <time>2020-08-13T08:47:57.795Z</time>
      </trkpt>
      <trkpt lat="37.734167" lon="-4.923056">
        <ele>210.043626</ele>
        <time>2020-08-13T08:47:59.824Z</time>
      </trkpt>
      <trkpt lat="37.734033" lon="-4.923066">
        <ele>209.930962</ele>
        <time>2020-08-13T08:48:01.807Z</time>
      </trkpt>
      <trkpt lat="37.733906" lon="-4.923079">
        <ele>209.824020</ele>
        <time>2020-08-13T08:48:03.811Z</time>
      </trkpt>
      <trkpt lat="37.733779" lon="-4.923101">
        <ele>209.716431</ele>
        <time>2020-08-13T08:48:05.818Z</time>
      </trkpt>
      <trkpt lat="37.733658" lon="-4.923128">
        <ele>209.613305</ele>
        <time>2020-08-13T08:48:07.802Z</time>
      </trkpt>
      <trkpt lat="37.733542" lon="-4.923174">
        <ele>209.511268</ele>
        <time>2020-08-13T08:48:09.812Z</time>
      </trkpt>
      <trkpt lat="37.733430" lon="-4.923211">
        <ele>209.414110</ele>
        <time>2020-08-13T08:48:11.821Z</time>
      </trkpt>
      <trkpt lat="37.733325" lon="-4.923249">
        <ele>209.322443</ele>
        <time>2020-08-13T08:48:13.819Z</time>
      </trkpt>
      <trkpt lat="37.733222" lon="-4.923291">
        <ele>209.231609</ele>
        <time>2020-08-13T08:48:15.818Z</time>
      </trkpt>
      <trkpt lat="37.733115" lon="-4.923337">
        <ele>209.136753</ele>
        <time>2020-08-13T08:48:17.816Z</time>
      </trkpt>
      <trkpt lat="37.733015" lon="-4.923386">
        <ele>209.046739</ele>
        <time>2020-08-13T08:48:19.803Z</time>
      </trkpt>
      <trkpt lat="37.732909" lon="-4.923441">
        <ele>209.037895</ele>
        <time>2020-08-13T08:48:21.838Z</time>
      </trkpt>
      <trkpt lat="37.732809" lon="-4.923505">
        <ele>209.166405</ele>
        <time>2020-08-13T08:48:23.817Z</time>
      </trkpt>
      <trkpt lat="37.732721" lon="-4.923568">
        <ele>209.282356</ele>
        <time>2020-08-13T08:48:25.821Z</time>
      </trkpt>
      <trkpt lat="37.732625" lon="-4.923616">
        <ele>209.400722</ele>
        <time>2020-08-13T08:48:27.817Z</time>
      </trkpt>
      <trkpt lat="37.732551" lon="-4.923683">
        <ele>209.505080</ele>
        <time>2020-08-13T08:48:29.817Z</time>
      </trkpt>
      <trkpt lat="37.732471" lon="-4.923742">
        <ele>209.611270</ele>
        <time>2020-08-13T08:48:31.812Z</time>
      </trkpt>
      <trkpt lat="37.732362" lon="-4.923837">
        <ele>209.763063</ele>
        <time>2020-08-13T08:48:34.814Z</time>
      </trkpt>
      <trkpt lat="37.732288" lon="-4.923910">
        <ele>209.870679</ele>
        <time>2020-08-13T08:48:36.813Z</time>
      </trkpt>
      <trkpt lat="37.732190" lon="-4.924027">
        <ele>210.025220</ele>
        <time>2020-08-13T08:48:39.812Z</time>
      </trkpt>
      <trkpt lat="37.732107" lon="-4.924144">
        <ele>210.167745</ele>
        <time>2020-08-13T08:48:42.816Z</time>
      </trkpt>
      <trkpt lat="37.732007" lon="-4.924213">
        <ele>210.298366</ele>
        <time>2020-08-13T08:48:44.816Z</time>
      </trkpt>
      <trkpt lat="37.731888" lon="-4.924311">
        <ele>210.461199</ele>
        <time>2020-08-13T08:48:46.812Z</time>
      </trkpt>
      <trkpt lat="37.731819" lon="-4.924395">
        <ele>210.571024</ele>
        <time>2020-08-13T08:48:48.817Z</time>
      </trkpt>
      <trkpt lat="37.731792" lon="-4.924529">
        <ele>210.696420</ele>
        <time>2020-08-13T08:48:51.801Z</time>
      </trkpt>
      <trkpt lat="37.731701" lon="-4.924662">
        <ele>210.855897</ele>
        <time>2020-08-13T08:48:54.812Z</time>
      </trkpt>
      <trkpt lat="37.731648" lon="-4.924761">
        <ele>210.964306</ele>
        <time>2020-08-13T08:48:56.820Z</time>
      </trkpt>
      <trkpt lat="37.731599" lon="-4.924905">
        <ele>211.143597</ele>
        <time>2020-08-13T08:48:59.802Z</time>
      </trkpt>
      <trkpt lat="37.731542" lon="-4.925029">
        <ele>211.358876</ele>
        <time>2020-08-13T08:49:02.815Z</time>
      </trkpt>
      <trkpt lat="37.731490" lon="-4.925129">
        <ele>211.538514</ele>
        <time>2020-08-13T08:49:04.817Z</time>
      </trkpt>
      <trkpt lat="37.731502" lon="-4.925258">
        <ele>211.733478</ele>
        <time>2020-08-13T08:49:07.815Z</time>
      </trkpt>
      <trkpt lat="37.731437" lon="-4.925352">
        <ele>211.920897</ele>
        <time>2020-08-13T08:49:09.816Z</time>
      </trkpt>
      <trkpt lat="37.731369" lon="-4.925473">
        <ele>212.143702</ele>
        <time>2020-08-13T08:49:11.820Z</time>
      </trkpt>
      <trkpt lat="37.731302" lon="-4.925608">
        <ele>212.382931</ele>
        <time>2020-08-13T08:49:13.826Z</time>
      </trkpt>
      <trkpt lat="37.731265" lon="-4.925724">
        <ele>212.570675</ele>
        <time>2020-08-13T08:49:15.821Z</time>
      </trkpt>
      <trkpt lat="37.731264" lon="-4.925875">
        <ele>212.797336</ele>
        <time>2020-08-13T08:49:18.821Z</time>
      </trkpt>
      <trkpt lat="37.731262" lon="-4.926024">
        <ele>213.021019</ele>
        <time>2020-08-13T08:49:21.816Z</time>
      </trkpt>
      <trkpt lat="37.731224" lon="-4.926135">
        <ele>213.202570</ele>
        <time>2020-08-13T08:49:23.818Z</time>
      </trkpt>
      <trkpt lat="37.731153" lon="-4.926267">
        <ele>213.442183</ele>
        <time>2020-08-13T08:49:26.810Z</time>
      </trkpt>
      <trkpt lat="37.731124" lon="-4.926382">
        <ele>213.623361</ele>
        <time>2020-08-13T08:49:28.815Z</time>
      </trkpt>
      <trkpt lat="37.731185" lon="-4.926485">
        <ele>213.816507</ele>
        <time>2020-08-13T08:49:30.796Z</time>
      </trkpt>
      <trkpt lat="37.731151" lon="-4.926622">
        <ele>214.032032</ele>
        <time>2020-08-13T08:49:33.809Z</time>
      </trkpt>
      <trkpt lat="37.731139" lon="-4.926759">
        <ele>214.238928</ele>
        <time>2020-08-13T08:49:36.808Z</time>
      </trkpt>
      <trkpt lat="37.731143" lon="-4.926893">
        <ele>214.440208</ele>
        <time>2020-08-13T08:49:39.820Z</time>
      </trkpt>
      <trkpt lat="37.731151" lon="-4.927043">
        <ele>214.482446</ele>
        <time>2020-08-13T08:49:42.819Z</time>
      </trkpt>
      <trkpt lat="37.731160" lon="-4.927187">
        <ele>214.502850</ele>
        <time>2020-08-13T08:49:45.819Z</time>
      </trkpt>
      <trkpt lat="37.731181" lon="-4.927316">
        <ele>214.521453</ele>
        <time>2020-08-13T08:49:48.802Z</time>
      </trkpt>
      <trkpt lat="37.731196" lon="-4.927436">
        <ele>214.538614</ele>
        <time>2020-08-13T08:49:51.817Z</time>
      </trkpt>
      <trkpt lat="37.731224" lon="-4.927572">
        <ele>214.558464</ele>
        <time>2020-08-13T08:49:55.811Z</time>
      </trkpt>
      <trkpt lat="37.731237" lon="-4.927694">
        <ele>214.575853</ele>
        <time>2020-08-13T08:49:58.807Z</time>
      </trkpt>
      <trkpt lat="37.731259" lon="-4.927842">
        <ele>214.597124</ele>
        <time>2020-08-13T08:50:01.816Z</time>
      </trkpt>
      <trkpt lat="37.731281" lon="-4.927973">
        <ele>214.616041</ele>
        <time>2020-08-13T08:50:04.805Z</time>
      </trkpt>
      <trkpt lat="37.731307" lon="-4.928086">
        <ele>214.632664</ele>
        <time>2020-08-13T08:50:07.813Z</time>
      </trkpt>
      <trkpt lat="37.731323" lon="-4.928209">
        <ele>214.650272</ele>
        <time>2020-08-13T08:50:10.806Z</time>
      </trkpt>
      <trkpt lat="37.731334" lon="-4.928333">
        <ele>214.667897</ele>
        <time>2020-08-13T08:50:13.812Z</time>
      </trkpt>
      <trkpt lat="37.731351" lon="-4.928447">
        <ele>214.684283</ele>
        <time>2020-08-13T08:50:16.810Z</time>
      </trkpt>
      <trkpt lat="37.731358" lon="-4.928597">
        <ele>214.705508</ele>
        <time>2020-08-13T08:50:19.817Z</time>
      </trkpt>
      <trkpt lat="37.731366" lon="-4.928738">
        <ele>214.725476</ele>
        <time>2020-08-13T08:50:22.806Z</time>
      </trkpt>
      <trkpt lat="37.731380" lon="-4.928874">
        <ele>214.744848</ele>
        <time>2020-08-13T08:50:25.809Z</time>
      </trkpt>
      <trkpt lat="37.731399" lon="-4.929011">
        <ele>214.764495</ele>
        <time>2020-08-13T08:50:28.817Z</time>
      </trkpt>
      <trkpt lat="37.731420" lon="-4.929148">
        <ele>214.784206</ele>
        <time>2020-08-13T08:50:31.813Z</time>
      </trkpt>
      <trkpt lat="37.731430" lon="-4.929305">
        <ele>214.895992</ele>
        <time>2020-08-13T08:50:34.814Z</time>
      </trkpt>
      <trkpt lat="37.731435" lon="-4.929420">
        <ele>214.978997</ele>
        <time>2020-08-13T08:50:36.825Z</time>
      </trkpt>
      <trkpt lat="37.731445" lon="-4.929584">
        <ele>215.097542</ele>
        <time>2020-08-13T08:50:39.822Z</time>
      </trkpt>
      <trkpt lat="37.731457" lon="-4.929722">
        <ele>215.197597</ele>
        <time>2020-08-13T08:50:42.818Z</time>
      </trkpt>
      <trkpt lat="37.731466" lon="-4.929849">
        <ele>215.289492</ele>
        <time>2020-08-13T08:50:45.815Z</time>
      </trkpt>
      <trkpt lat="37.731473" lon="-4.929993">
        <ele>215.393467</ele>
        <time>2020-08-13T08:50:48.809Z</time>
      </trkpt>
      <trkpt lat="37.731480" lon="-4.930154">
        <ele>215.509674</ele>
        <time>2020-08-13T08:50:51.805Z</time>
      </trkpt>
      <trkpt lat="37.731486" lon="-4.930272">
        <ele>215.594892</ele>
        <time>2020-08-13T08:50:53.816Z</time>
      </trkpt>
      <trkpt lat="37.731481" lon="-4.930391">
        <ele>215.680775</ele>
        <time>2020-08-13T08:50:55.811Z</time>
      </trkpt>
      <trkpt lat="37.731474" lon="-4.930597">
        <ele>215.829375</ele>
        <time>2020-08-13T08:50:59.816Z</time>
      </trkpt>
      <trkpt lat="37.731476" lon="-4.930750">
        <ele>215.939656</ele>
        <time>2020-08-13T08:51:02.814Z</time>
      </trkpt>
      <trkpt lat="37.731500" lon="-4.930905">
        <ele>216.053484</ele>
        <time>2020-08-13T08:51:05.815Z</time>
      </trkpt>
      <trkpt lat="37.731537" lon="-4.931057">
        <ele>216.168101</ele>
        <time>2020-08-13T08:51:08.810Z</time>
      </trkpt>
      <trkpt lat="37.731562" lon="-4.931223">
        <ele>216.289885</ele>
        <time>2020-08-13T08:51:11.819Z</time>
      </trkpt>
      <trkpt lat="37.731571" lon="-4.931364">
        <ele>216.391833</ele>
        <time>2020-08-13T08:51:14.795Z</time>
      </trkpt>
      <trkpt lat="37.731592" lon="-4.931497">
        <ele>216.493605</ele>
        <time>2020-08-13T08:51:17.826Z</time>
      </trkpt>
      <trkpt lat="37.731606" lon="-4.931634">
        <ele>216.599243</ele>
        <time>2020-08-13T08:51:20.812Z</time>
      </trkpt>
      <trkpt lat="37.731621" lon="-4.931781">
        <ele>216.712589</ele>
        <time>2020-08-13T08:51:23.817Z</time>
      </trkpt>
      <trkpt lat="37.731632" lon="-4.931932">
        <ele>216.828550</ele>
        <time>2020-08-13T08:51:26.817Z</time>
      </trkpt>
      <trkpt lat="37.731652" lon="-4.932076">
        <ele>216.940355</ele>
        <time>2020-08-13T08:51:29.811Z</time>
      </trkpt>
      <trkpt lat="37.731673" lon="-4.932226">
        <ele>217.056847</ele>
        <time>2020-08-13T08:51:32.816Z</time>
      </trkpt>
      <trkpt lat="37.731696" lon="-4.932378">
        <ele>217.175192</ele>
        <time>2020-08-13T08:51:35.820Z</time>
      </trkpt>
      <trkpt lat="37.731722" lon="-4.932519">
        <ele>217.285910</ele>
        <time>2020-08-13T08:51:38.805Z</time>
      </trkpt>
      <trkpt lat="37.731756" lon="-4.932656">
        <ele>217.395713</ele>
        <time>2020-08-13T08:51:41.812Z</time>
      </trkpt>
      <trkpt lat="37.731791" lon="-4.932798">
        <ele>217.509455</ele>
        <time>2020-08-13T08:51:44.820Z</time>
      </trkpt>
      <trkpt lat="37.731829" lon="-4.932932">
        <ele>217.618315</ele>
        <time>2020-08-13T08:51:47.819Z</time>
      </trkpt>
      <trkpt lat="37.731858" lon="-4.933071">
        <ele>217.728247</ele>
        <time>2020-08-13T08:51:50.817Z</time>
      </trkpt>
      <trkpt lat="37.731886" lon="-4.933207">
        <ele>217.835715</ele>
        <time>2020-08-13T08:51:53.820Z</time>
      </trkpt>
      <trkpt lat="37.731925" lon="-4.933352">
        <ele>217.952836</ele>
        <time>2020-08-13T08:51:56.803Z</time>
      </trkpt>
      <trkpt lat="37.731969" lon="-4.933498">
        <ele>218.072316</ele>
        <time>2020-08-13T08:51:59.812Z</time>
      </trkpt>
      <trkpt lat="37.732019" lon="-4.933638">
        <ele>218.185065</ele>
        <time>2020-08-13T08:52:02.818Z</time>
      </trkpt>
      <trkpt lat="37.732083" lon="-4.933782">
        <ele>218.289304</ele>
        <time>2020-08-13T08:52:05.809Z</time>
      </trkpt>
      <trkpt lat="37.732140" lon="-4.933922">
        <ele>218.388673</ele>
        <time>2020-08-13T08:52:08.816Z</time>
      </trkpt>
      <trkpt lat="37.732185" lon="-4.934052">
        <ele>218.478225</ele>
        <time>2020-08-13T08:52:11.812Z</time>
      </trkpt>
      <trkpt lat="37.732234" lon="-4.934189">
        <ele>218.573111</ele>
        <time>2020-08-13T08:52:14.809Z</time>
      </trkpt>
      <trkpt lat="37.732289" lon="-4.934319">
        <ele>218.666150</ele>
        <time>2020-08-13T08:52:17.818Z</time>
      </trkpt>
      <trkpt lat="37.732341" lon="-4.934443">
        <ele>218.754721</ele>
        <time>2020-08-13T08:52:20.822Z</time>
      </trkpt>
      <trkpt lat="37.732399" lon="-4.934565">
        <ele>218.844550</ele>
        <time>2020-08-13T08:52:23.820Z</time>
      </trkpt>
      <trkpt lat="37.732453" lon="-4.934690">
        <ele>218.934434</ele>
        <time>2020-08-13T08:52:26.815Z</time>
      </trkpt>
      <trkpt lat="37.732507" lon="-4.934824">
        <ele>219.029341</ele>
        <time>2020-08-13T08:52:29.809Z</time>
      </trkpt>
      <trkpt lat="37.732556" lon="-4.934936">
        <ele>219.110113</ele>
        <time>2020-08-13T08:52:31.807Z</time>
      </trkpt>
      <trkpt lat="37.732600" lon="-4.935045">
        <ele>219.187341</ele>
        <time>2020-08-13T08:52:33.814Z</time>
      </trkpt>
      <trkpt lat="37.732673" lon="-4.935183">
        <ele>219.292112</ele>
        <time>2020-08-13T08:52:36.816Z</time>
      </trkpt>
      <trkpt lat="37.732737" lon="-4.935314">
        <ele>219.389281</ele>
        <time>2020-08-13T08:52:39.803Z</time>
      </trkpt>
      <trkpt lat="37.732799" lon="-4.935454">
        <ele>219.490538</ele>
        <time>2020-08-13T08:52:42.818Z</time>
      </trkpt>
      <trkpt lat="37.732868" lon="-4.935576">
        <ele>219.585188</ele>
        <time>2020-08-13T08:52:45.816Z</time>
      </trkpt>
      <trkpt lat="37.732922" lon="-4.935696">
        <ele>219.784510</ele>
        <time>2020-08-13T08:52:48.821Z</time>
      </trkpt>
      <trkpt lat="37.732974" lon="-4.935814">
        <ele>219.998376</ele>
        <time>2020-08-13T08:52:51.818Z</time>
      </trkpt>
      <trkpt lat="37.733023" lon="-4.935934">
        <ele>220.212192</ele>
        <time>2020-08-13T08:52:54.821Z</time>
      </trkpt>
      <trkpt lat="37.733076" lon="-4.936048">
        <ele>220.421556</ele>
        <time>2020-08-13T08:52:57.816Z</time>
      </trkpt>
      <trkpt lat="37.733131" lon="-4.936174">
        <ele>220.649411</ele>
        <time>2020-08-13T08:53:00.821Z</time>
      </trkpt>
      <trkpt lat="37.733191" lon="-4.936315">
        <ele>220.902909</ele>
        <time>2020-08-13T08:53:03.812Z</time>
      </trkpt>
      <trkpt lat="37.733241" lon="-4.936451">
        <ele>221.140356</ele>
        <time>2020-08-13T08:53:06.813Z</time>
      </trkpt>
      <trkpt lat="37.733288" lon="-4.936592">
        <ele>221.382609</ele>
        <time>2020-08-13T08:53:09.811Z</time>
      </trkpt>
      <trkpt lat="37.733332" lon="-4.936723">
        <ele>221.607941</ele>
        <time>2020-08-13T08:53:12.811Z</time>
      </trkpt>
      <trkpt lat="37.733375" lon="-4.936848">
        <ele>221.823754</ele>
        <time>2020-08-13T08:53:15.814Z</time>
      </trkpt>
      <trkpt lat="37.733417" lon="-4.936996">
        <ele>222.072700</ele>
        <time>2020-08-13T08:53:18.816Z</time>
      </trkpt>
      <trkpt lat="37.733455" lon="-4.937136">
        <ele>222.307042</ele>
        <time>2020-08-13T08:53:21.810Z</time>
      </trkpt>
      <trkpt lat="37.733486" lon="-4.937279">
        <ele>222.541794</ele>
        <time>2020-08-13T08:53:24.826Z</time>
      </trkpt>
      <trkpt lat="37.733512" lon="-4.937416">
        <ele>222.764853</ele>
        <time>2020-08-13T08:53:27.811Z</time>
      </trkpt>
      <trkpt lat="37.733537" lon="-4.937547">
        <ele>222.978208</ele>
        <time>2020-08-13T08:53:30.818Z</time>
      </trkpt>
      <trkpt lat="37.733557" lon="-4.937681">
        <ele>223.194104</ele>
        <time>2020-08-13T08:53:33.814Z</time>
      </trkpt>
      <trkpt lat="37.733572" lon="-4.937820">
        <ele>223.637845</ele>
        <time>2020-08-13T08:53:36.808Z</time>
      </trkpt>
      <trkpt lat="37.733585" lon="-4.937963">
        <ele>224.097875</ele>
        <time>2020-08-13T08:53:39.820Z</time>
      </trkpt>
      <trkpt lat="37.733593" lon="-4.938119">
        <ele>224.597489</ele>
        <time>2020-08-13T08:53:42.809Z</time>
      </trkpt>
      <trkpt lat="37.733594" lon="-4.938282">
        <ele>225.118444</ele>
        <time>2020-08-13T08:53:45.817Z</time>
      </trkpt>
      <trkpt lat="37.733588" lon="-4.938404">
        <ele>225.509103</ele>
        <time>2020-08-13T08:53:47.809Z</time>
      </trkpt>
      <trkpt lat="37.733581" lon="-4.938517">
        <ele>225.871351</ele>
        <time>2020-08-13T08:53:49.807Z</time>
      </trkpt>
      <trkpt lat="37.733560" lon="-4.938639">
        <ele>226.270385</ele>
        <time>2020-08-13T08:53:51.797Z</time>
      </trkpt>
      <trkpt lat="37.733542" lon="-4.938797">
        <ele>226.780557</ele>
        <time>2020-08-13T08:53:54.818Z</time>
      </trkpt>
      <trkpt lat="37.733537" lon="-4.938961">
        <ele>227.305081</ele>
        <time>2020-08-13T08:53:57.814Z</time>
      </trkpt>
      <trkpt lat="37.733527" lon="-4.939107">
        <ele>227.773437</ele>
        <time>2020-08-13T08:54:00.812Z</time>
      </trkpt>
      <trkpt lat="37.733515" lon="-4.939248">
        <ele>228.226667</ele>
        <time>2020-08-13T08:54:04.810Z</time>
      </trkpt>
      <trkpt lat="37.733489" lon="-4.939356">
        <ele>228.587467</ele>
        <time>2020-08-13T08:54:09.807Z</time>
      </trkpt>
      <trkpt lat="37.733472" lon="-4.939482">
        <ele>228.995975</ele>
        <time>2020-08-13T08:54:13.820Z</time>
      </trkpt>
      <trkpt lat="37.733452" lon="-4.939614">
        <ele>229.425512</ele>
        <time>2020-08-13T08:54:17.823Z</time>
      </trkpt>
      <trkpt lat="37.733421" lon="-4.939743">
        <ele>229.856403</ele>
        <time>2020-08-13T08:54:21.819Z</time>
      </trkpt>
      <trkpt lat="37.733382" lon="-4.939871">
        <ele>230.294794</ele>
        <time>2020-08-13T08:54:25.814Z</time>
      </trkpt>
      <trkpt lat="37.733356" lon="-4.939988">
        <ele>230.492193</ele>
        <time>2020-08-13T08:54:29.815Z</time>
      </trkpt>
      <trkpt lat="37.733306" lon="-4.940097">
        <ele>230.538975</ele>
        <time>2020-08-13T08:54:33.813Z</time>
      </trkpt>
      <trkpt lat="37.733264" lon="-4.940211">
        <ele>230.585665</ele>
        <time>2020-08-13T08:54:36.820Z</time>
      </trkpt>
      <trkpt lat="37.733204" lon="-4.940323">
        <ele>230.635888</ele>
        <time>2020-08-13T08:54:39.817Z</time>
      </trkpt>
      <trkpt lat="37.733137" lon="-4.940440">
        <ele>230.689516</ele>
        <time>2020-08-13T08:54:42.816Z</time>
      </trkpt>
      <trkpt lat="37.733086" lon="-4.940541">
        <ele>230.734004</ele>
        <time>2020-08-13T08:54:44.813Z</time>
      </trkpt>
      <trkpt lat="37.733025" lon="-4.940645">
        <ele>230.782075</ele>
        <time>2020-08-13T08:54:46.821Z</time>
      </trkpt>
      <trkpt lat="37.732951" lon="-4.940755">
        <ele>230.835690</ele>
        <time>2020-08-13T08:54:48.813Z</time>
      </trkpt>
      <trkpt lat="37.732874" lon="-4.940860">
        <ele>230.888851</ele>
        <time>2020-08-13T08:54:50.819Z</time>
      </trkpt>
      <trkpt lat="37.732804" lon="-4.940965">
        <ele>230.939836</ele>
        <time>2020-08-13T08:54:52.814Z</time>
      </trkpt>
      <trkpt lat="37.732709" lon="-4.941058">
        <ele>230.996235</ele>
        <time>2020-08-13T08:54:54.815Z</time>
      </trkpt>
      <trkpt lat="37.732630" lon="-4.941149">
        <ele>231.046402</ele>
        <time>2020-08-13T08:54:56.816Z</time>
      </trkpt>
      <trkpt lat="37.732550" lon="-4.941233">
        <ele>231.095217</ele>
        <time>2020-08-13T08:54:58.813Z</time>
      </trkpt>
      <trkpt lat="37.732464" lon="-4.941307">
        <ele>231.144050</ele>
        <time>2020-08-13T08:55:00.817Z</time>
      </trkpt>
      <trkpt lat="37.732380" lon="-4.941391">
        <ele>231.194324</ele>
        <time>2020-08-13T08:55:02.806Z</time>
      </trkpt>
      <trkpt lat="37.732301" lon="-4.941477">
        <ele>231.243260</ele>
        <time>2020-08-13T08:55:04.826Z</time>
      </trkpt>
      <trkpt lat="37.732227" lon="-4.941548">
        <ele>231.286866</ele>
        <time>2020-08-13T08:55:06.809Z</time>
      </trkpt>
      <trkpt lat="37.732113" lon="-4.941649">
        <ele>231.310011</ele>
        <time>2020-08-13T08:55:09.800Z</time>
      </trkpt>
      <trkpt lat="37.732025" lon="-4.941713">
        <ele>231.308356</ele>
        <time>2020-08-13T08:55:11.819Z</time>
      </trkpt>
      <trkpt lat="37.731905" lon="-4.941787">
        <ele>231.306179</ele>
        <time>2020-08-13T08:55:14.816Z</time>
      </trkpt>
      <trkpt lat="37.731810" lon="-4.941821">
        <ele>231.304569</ele>
        <time>2020-08-13T08:55:16.817Z</time>
      </trkpt>
      <trkpt lat="37.731722" lon="-4.941866">
        <ele>231.303021</ele>
        <time>2020-08-13T08:55:18.830Z</time>
      </trkpt>
      <trkpt lat="37.731636" lon="-4.941906">
        <ele>231.301527</ele>
        <time>2020-08-13T08:55:20.816Z</time>
      </trkpt>
      <trkpt lat="37.731522" lon="-4.941958">
        <ele>231.299550</ele>
        <time>2020-08-13T08:55:23.818Z</time>
      </trkpt>
      <trkpt lat="37.731395" lon="-4.941974">
        <ele>231.297469</ele>
        <time>2020-08-13T08:55:26.819Z</time>
      </trkpt>
      <trkpt lat="37.731305" lon="-4.941991">
        <ele>231.295985</ele>
        <time>2020-08-13T08:55:28.823Z</time>
      </trkpt>
      <trkpt lat="37.731184" lon="-4.942042">
        <ele>231.293906</ele>
        <time>2020-08-13T08:55:31.819Z</time>
      </trkpt>
      <trkpt lat="37.731081" lon="-4.942081">
        <ele>231.292152</ele>
        <time>2020-08-13T08:55:34.814Z</time>
      </trkpt>
      <trkpt lat="37.730960" lon="-4.942092">
        <ele>231.290174</ele>
        <time>2020-08-13T08:55:38.795Z</time>
      </trkpt>
      <trkpt lat="37.730843" lon="-4.942117">
        <ele>231.288239</ele>
        <time>2020-08-13T08:55:41.807Z</time>
      </trkpt>
      <trkpt lat="37.730717" lon="-4.942148">
        <ele>231.286146</ele>
        <time>2020-08-13T08:55:44.821Z</time>
      </trkpt>
      <trkpt lat="37.730581" lon="-4.942203">
        <ele>231.283818</ele>
        <time>2020-08-13T08:55:47.804Z</time>
      </trkpt>
      <trkpt lat="37.730490" lon="-4.942239">
        <ele>231.282263</ele>
        <time>2020-08-13T08:55:49.806Z</time>
      </trkpt>
      <trkpt lat="37.730400" lon="-4.942259">
        <ele>231.366318</ele>
        <time>2020-08-13T08:55:51.812Z</time>
      </trkpt>
      <trkpt lat="37.730307" lon="-4.942279">
        <ele>231.464051</ele>
        <time>2020-08-13T08:55:53.810Z</time>
      </trkpt>
      <trkpt lat="37.730207" lon="-4.942283">
        <ele>231.567704</ele>
        <time>2020-08-13T08:55:55.820Z</time>
      </trkpt>
      <trkpt lat="37.730079" lon="-4.942320">
        <ele>231.703735</ele>
        <time>2020-08-13T08:55:58.824Z</time>
      </trkpt>
      <trkpt lat="37.729981" lon="-4.942336">
        <ele>231.806108</ele>
        <time>2020-08-13T08:56:00.818Z</time>
      </trkpt>
      <trkpt lat="37.729875" lon="-4.942354">
        <ele>231.916911</ele>
        <time>2020-08-13T08:56:02.814Z</time>
      </trkpt>
      <trkpt lat="37.729761" lon="-4.942367">
        <ele>232.035496</ele>
        <time>2020-08-13T08:56:04.818Z</time>
      </trkpt>
      <trkpt lat="37.729655" lon="-4.942388">
        <ele>232.146654</ele>
        <time>2020-08-13T08:56:06.813Z</time>
      </trkpt>
      <trkpt lat="37.729540" lon="-4.942408">
        <ele>232.266917</ele>
        <time>2020-08-13T08:56:08.814Z</time>
      </trkpt>
      <trkpt lat="37.729421" lon="-4.942436">
        <ele>232.392319</ele>
        <time>2020-08-13T08:56:10.812Z</time>
      </trkpt>
      <trkpt lat="37.729300" lon="-4.942466">
        <ele>232.520065</ele>
        <time>2020-08-13T08:56:12.799Z</time>
      </trkpt>
      <trkpt lat="37.729174" lon="-4.942487">
        <ele>232.651732</ele>
        <time>2020-08-13T08:56:14.809Z</time>
      </trkpt>
      <trkpt lat="37.729059" lon="-4.942524">
        <ele>232.774670</ele>
        <time>2020-08-13T08:56:16.821Z</time>
      </trkpt>
      <trkpt lat="37.728951" lon="-4.942546">
        <ele>232.888003</ele>
        <time>2020-08-13T08:56:18.822Z</time>
      </trkpt>
      <trkpt lat="37.728829" lon="-4.942573">
        <ele>233.016318</ele>
        <time>2020-08-13T08:56:20.819Z</time>
      </trkpt>
      <trkpt lat="37.728714" lon="-4.942596">
        <ele>233.136941</ele>
        <time>2020-08-13T08:56:22.828Z</time>
      </trkpt>
      <trkpt lat="37.728612" lon="-4.942628">
        <ele>233.039486</ele>
        <time>2020-08-13T08:56:24.819Z</time>
      </trkpt>
      <trkpt lat="37.728518" lon="-4.942660">
        <ele>232.932869</ele>
        <time>2020-08-13T08:56:26.821Z</time>
      </trkpt>
      <trkpt lat="37.728416" lon="-4.942691">
        <ele>232.817974</ele>
        <time>2020-08-13T08:56:28.825Z</time>
      </trkpt>
      <trkpt lat="37.728304" lon="-4.942740">
        <ele>232.688174</ele>
        <time>2020-08-13T08:56:30.804Z</time>
      </trkpt>
      <trkpt lat="37.728188" lon="-4.942765">
        <ele>232.559295</ele>
        <time>2020-08-13T08:56:32.822Z</time>
      </trkpt>
      <trkpt lat="37.728082" lon="-4.942789">
        <ele>232.441355</ele>
        <time>2020-08-13T08:56:34.837Z</time>
      </trkpt>
      <trkpt lat="37.727988" lon="-4.942811">
        <ele>232.336656</ele>
        <time>2020-08-13T08:56:36.806Z</time>
      </trkpt>
      <trkpt lat="37.727895" lon="-4.942823">
        <ele>232.234271</ele>
        <time>2020-08-13T08:56:38.815Z</time>
      </trkpt>
      <trkpt lat="37.727795" lon="-4.942853">
        <ele>232.121708</ele>
        <time>2020-08-13T08:56:40.817Z</time>
      </trkpt>
      <trkpt lat="37.727695" lon="-4.942873">
        <ele>232.010824</ele>
        <time>2020-08-13T08:56:42.812Z</time>
      </trkpt>
      <trkpt lat="37.727599" lon="-4.942890">
        <ele>231.904657</ele>
        <time>2020-08-13T08:56:44.802Z</time>
      </trkpt>
      <trkpt lat="37.727508" lon="-4.942913">
        <ele>231.803020</ele>
        <time>2020-08-13T08:56:46.808Z</time>
      </trkpt>
      <trkpt lat="37.727404" lon="-4.942931">
        <ele>231.688055</ele>
        <time>2020-08-13T08:56:48.823Z</time>
      </trkpt>
      <trkpt lat="37.727308" lon="-4.942954">
        <ele>231.581042</ele>
        <time>2020-08-13T08:56:50.820Z</time>
      </trkpt>
      <trkpt lat="37.727218" lon="-4.942978">
        <ele>231.480304</ele>
        <time>2020-08-13T08:56:52.826Z</time>
      </trkpt>
      <trkpt lat="37.727088" lon="-4.943002">
        <ele>231.336415</ele>
        <time>2020-08-13T08:56:55.821Z</time>
      </trkpt>
      <trkpt lat="37.726962" lon="-4.943041">
        <ele>231.194342</ele>
        <time>2020-08-13T08:56:58.806Z</time>
      </trkpt>
      <trkpt lat="37.726874" lon="-4.943073">
        <ele>231.141312</ele>
        <time>2020-08-13T08:57:00.810Z</time>
      </trkpt>
      <trkpt lat="37.726759" lon="-4.943103">
        <ele>231.087229</ele>
        <time>2020-08-13T08:57:03.815Z</time>
      </trkpt>
      <trkpt lat="37.726669" lon="-4.943126">
        <ele>231.044938</ele>
        <time>2020-08-13T08:57:05.810Z</time>
      </trkpt>
      <trkpt lat="37.726549" lon="-4.943166">
        <ele>230.987779</ele>
        <time>2020-08-13T08:57:08.817Z</time>
      </trkpt>
      <trkpt lat="37.726427" lon="-4.943195">
        <ele>230.930603</ele>
        <time>2020-08-13T08:57:11.817Z</time>
      </trkpt>
      <trkpt lat="37.726294" lon="-4.943219">
        <ele>230.868725</ele>
        <time>2020-08-13T08:57:14.801Z</time>
      </trkpt>
      <trkpt lat="37.726172" lon="-4.943247">
        <ele>230.811615</ele>
        <time>2020-08-13T08:57:17.809Z</time>
      </trkpt>
      <trkpt lat="37.726044" lon="-4.943249">
        <ele>230.752656</ele>
        <time>2020-08-13T08:57:20.815Z</time>
      </trkpt>
      <trkpt lat="37.725917" lon="-4.943278">
        <ele>230.693215</ele>
        <time>2020-08-13T08:57:23.820Z</time>
      </trkpt>
      <trkpt lat="37.725795" lon="-4.943311">
        <ele>230.635753</ele>
        <time>2020-08-13T08:57:26.811Z</time>
      </trkpt>
      <trkpt lat="37.725677" lon="-4.943337">
        <ele>230.580585</ele>
        <time>2020-08-13T08:57:29.831Z</time>
      </trkpt>
      <trkpt lat="37.725557" lon="-4.943361">
        <ele>230.524627</ele>
        <time>2020-08-13T08:57:32.816Z</time>
      </trkpt>
      <trkpt lat="37.725434" lon="-4.943392">
        <ele>230.466861</ele>
        <time>2020-08-13T08:57:35.816Z</time>
      </trkpt>
      <trkpt lat="37.725302" lon="-4.943420">
        <ele>230.405214</ele>
        <time>2020-08-13T08:57:38.807Z</time>
      </trkpt>
      <trkpt lat="37.725174" lon="-4.943452">
        <ele>230.350841</ele>
        <time>2020-08-13T08:57:41.823Z</time>
      </trkpt>
      <trkpt lat="37.725049" lon="-4.943484">
        <ele>230.455044</ele>
        <time>2020-08-13T08:57:44.823Z</time>
      </trkpt>
      <trkpt lat="37.724918" lon="-4.943530">
        <ele>230.566127</ele>
        <time>2020-08-13T08:57:48.268Z</time>
      </trkpt>
      <trkpt lat="37.724825" lon="-4.943565">
        <ele>230.645407</ele>
        <time>2020-08-13T08:57:50.269Z</time>
      </trkpt>
      <trkpt lat="37.724741" lon="-4.943609">
        <ele>230.719696</ele>
        <time>2020-08-13T08:57:52.258Z</time>
      </trkpt>
      <trkpt lat="37.724615" lon="-4.943669">
        <ele>230.829703</ele>
        <time>2020-08-13T08:57:55.264Z</time>
      </trkpt>
      <trkpt lat="37.724499" lon="-4.943718">
        <ele>230.929629</ele>
        <time>2020-08-13T08:57:58.278Z</time>
      </trkpt>
      <trkpt lat="37.724372" lon="-4.943782">
        <ele>231.041333</ele>
        <time>2020-08-13T08:58:01.276Z</time>
      </trkpt>
      <trkpt lat="37.724250" lon="-4.943837">
        <ele>231.147159</ele>
        <time>2020-08-13T08:58:04.258Z</time>
      </trkpt>
      <trkpt lat="37.724118" lon="-4.943896">
        <ele>231.261550</ele>
        <time>2020-08-13T08:58:07.273Z</time>
      </trkpt>
      <trkpt lat="37.724036" lon="-4.943953">
        <ele>231.338006</ele>
        <time>2020-08-13T08:58:09.282Z</time>
      </trkpt>
      <trkpt lat="37.723953" lon="-4.944025">
        <ele>231.420248</ele>
        <time>2020-08-13T08:58:11.274Z</time>
      </trkpt>
      <trkpt lat="37.723856" lon="-4.944075">
        <ele>231.505835</ele>
        <time>2020-08-13T08:58:13.277Z</time>
      </trkpt>
      <trkpt lat="37.723752" lon="-4.944123">
        <ele>231.596292</ele>
        <time>2020-08-13T08:58:15.269Z</time>
      </trkpt>
      <trkpt lat="37.723635" lon="-4.944183">
        <ele>231.699451</ele>
        <time>2020-08-13T08:58:17.271Z</time>
      </trkpt>
      <trkpt lat="37.723530" lon="-4.944251">
        <ele>231.795840</ele>
        <time>2020-08-13T08:58:19.271Z</time>
      </trkpt>
      <trkpt lat="37.723431" lon="-4.944319">
        <ele>231.850133</ele>
        <time>2020-08-13T08:58:21.277Z</time>
      </trkpt>
      <trkpt lat="37.723318" lon="-4.944380">
        <ele>231.897245</ele>
        <time>2020-08-13T08:58:23.274Z</time>
      </trkpt>
      <trkpt lat="37.723211" lon="-4.944444">
        <ele>231.942631</ele>
        <time>2020-08-13T08:58:25.270Z</time>
      </trkpt>
      <trkpt lat="37.723090" lon="-4.944527">
        <ele>231.995414</ele>
        <time>2020-08-13T08:58:27.272Z</time>
      </trkpt>
      <trkpt lat="37.722971" lon="-4.944601">
        <ele>232.046263</ele>
        <time>2020-08-13T08:58:29.280Z</time>
      </trkpt>
      <trkpt lat="37.722849" lon="-4.944680">
        <ele>232.098819</ele>
        <time>2020-08-13T08:58:31.316Z</time>
      </trkpt>
      <trkpt lat="37.722732" lon="-4.944758">
        <ele>232.149535</ele>
        <time>2020-08-13T08:58:33.291Z</time>
      </trkpt>
      <trkpt lat="37.722618" lon="-4.944827">
        <ele>232.197997</ele>
        <time>2020-08-13T08:58:35.270Z</time>
      </trkpt>
      <trkpt lat="37.722508" lon="-4.944897">
        <ele>232.245215</ele>
        <time>2020-08-13T08:58:37.272Z</time>
      </trkpt>
      <trkpt lat="37.722395" lon="-4.944970">
        <ele>232.293871</ele>
        <time>2020-08-13T08:58:39.270Z</time>
      </trkpt>
      <trkpt lat="37.722282" lon="-4.945035">
        <ele>232.341472</ele>
        <time>2020-08-13T08:58:41.270Z</time>
      </trkpt>
      <trkpt lat="37.722176" lon="-4.945100">
        <ele>232.386644</ele>
        <time>2020-08-13T08:58:43.266Z</time>
      </trkpt>
      <trkpt lat="37.722069" lon="-4.945172">
        <ele>232.433119</ele>
        <time>2020-08-13T08:58:45.284Z</time>
      </trkpt>
      <trkpt lat="37.721958" lon="-4.945237">
        <ele>232.480023</ele>
        <time>2020-08-13T08:58:48.280Z</time>
      </trkpt>
      <trkpt lat="37.721865" lon="-4.945247">
        <ele>232.529579</ele>
        <time>2020-08-13T08:58:51.275Z</time>
      </trkpt>
      <trkpt lat="37.721796" lon="-4.945353">
        <ele>232.632051</ele>
        <time>2020-08-13T08:58:56.264Z</time>
      </trkpt>
      <trkpt lat="37.721702" lon="-4.945403">
        <ele>232.728289</ele>
        <time>2020-08-13T08:59:02.265Z</time>
      </trkpt>
      <trkpt lat="37.721600" lon="-4.945457">
        <ele>232.832644</ele>
        <time>2020-08-13T08:59:06.286Z</time>
      </trkpt>
      <trkpt lat="37.721504" lon="-4.945506">
        <ele>232.930342</ele>
        <time>2020-08-13T08:59:09.278Z</time>
      </trkpt>
      <trkpt lat="37.721402" lon="-4.945559">
        <ele>233.034411</ele>
        <time>2020-08-13T08:59:12.284Z</time>
      </trkpt>
      <trkpt lat="37.721299" lon="-4.945608">
        <ele>233.138265</ele>
        <time>2020-08-13T08:59:15.278Z</time>
      </trkpt>
      <trkpt lat="37.721206" lon="-4.945667">
        <ele>233.236458</ele>
        <time>2020-08-13T08:59:18.274Z</time>
      </trkpt>
      <trkpt lat="37.721115" lon="-4.945734">
        <ele>233.335835</ele>
        <time>2020-08-13T08:59:22.276Z</time>
      </trkpt>
      <trkpt lat="37.721005" lon="-4.945805">
        <ele>233.452387</ele>
        <time>2020-08-13T08:59:26.280Z</time>
      </trkpt>
      <trkpt lat="37.720910" lon="-4.945863">
        <ele>233.551944</ele>
        <time>2020-08-13T08:59:29.260Z</time>
      </trkpt>
      <trkpt lat="37.720812" lon="-4.945932">
        <ele>233.657800</ele>
        <time>2020-08-13T08:59:32.267Z</time>
      </trkpt>
      <trkpt lat="37.720698" lon="-4.945998">
        <ele>233.776124</ele>
        <time>2020-08-13T08:59:35.274Z</time>
      </trkpt>
      <trkpt lat="37.720582" lon="-4.946060">
        <ele>233.894973</ele>
        <time>2020-08-13T08:59:38.262Z</time>
      </trkpt>
      <trkpt lat="37.720484" lon="-4.946130">
        <ele>234.001195</ele>
        <time>2020-08-13T08:59:41.279Z</time>
      </trkpt>
      <trkpt lat="37.720400" lon="-4.946179">
        <ele>234.088496</ele>
        <time>2020-08-13T08:59:43.276Z</time>
      </trkpt>
      <trkpt lat="37.720287" lon="-4.946246">
        <ele>234.205637</ele>
        <time>2020-08-13T08:59:46.269Z</time>
      </trkpt>
      <trkpt lat="37.720189" lon="-4.946315">
        <ele>234.284763</ele>
        <time>2020-08-13T08:59:49.270Z</time>
      </trkpt>
      <trkpt lat="37.720078" lon="-4.946386">
        <ele>234.372513</ele>
        <time>2020-08-13T08:59:52.279Z</time>
      </trkpt>
      <trkpt lat="37.719978" lon="-4.946455">
        <ele>234.452875</ele>
        <time>2020-08-13T08:59:54.266Z</time>
      </trkpt>
      <trkpt lat="37.719890" lon="-4.946547">
        <ele>234.533425</ele>
        <time>2020-08-13T08:59:56.285Z</time>
      </trkpt>
      <trkpt lat="37.719816" lon="-4.946621">
        <ele>234.599980</ele>
        <time>2020-08-13T08:59:59.274Z</time>
      </trkpt>
      <trkpt lat="37.719717" lon="-4.946714">
        <ele>234.686982</ele>
        <time>2020-08-13T09:00:02.271Z</time>
      </trkpt>
      <trkpt lat="37.719651" lon="-4.946791">
        <ele>234.750333</ele>
        <time>2020-08-13T09:00:04.277Z</time>
      </trkpt>
      <trkpt lat="37.719567" lon="-4.946869">
        <ele>234.823852</ele>
        <time>2020-08-13T09:00:06.274Z</time>
      </trkpt>
      <trkpt lat="37.719479" lon="-4.946966">
        <ele>234.906208</ele>
        <time>2020-08-13T09:00:08.276Z</time>
      </trkpt>
      <trkpt lat="37.719405" lon="-4.947051">
        <ele>234.976736</ele>
        <time>2020-08-13T09:00:10.280Z</time>
      </trkpt>
      <trkpt lat="37.719317" lon="-4.947153">
        <ele>235.060952</ele>
        <time>2020-08-13T09:00:12.273Z</time>
      </trkpt>
      <trkpt lat="37.719194" lon="-4.947260">
        <ele>235.166272</ele>
        <time>2020-08-13T09:00:14.269Z</time>
      </trkpt>
      <trkpt lat="37.719102" lon="-4.947391">
        <ele>235.264018</ele>
        <time>2020-08-13T09:00:16.274Z</time>
      </trkpt>
      <trkpt lat="37.718974" lon="-4.947461">
        <ele>235.362394</ele>
        <time>2020-08-13T09:00:18.277Z</time>
      </trkpt>
      <trkpt lat="37.718884" lon="-4.947570">
        <ele>235.450311</ele>
        <time>2020-08-13T09:00:20.273Z</time>
      </trkpt>
      <trkpt lat="37.718794" lon="-4.947659">
        <ele>235.441895</ele>
        <time>2020-08-13T09:00:22.272Z</time>
      </trkpt>
      <trkpt lat="37.718682" lon="-4.947721">
        <ele>235.396742</ele>
        <time>2020-08-13T09:00:24.272Z</time>
      </trkpt>
      <trkpt lat="37.718580" lon="-4.947802">
        <ele>235.352257</ele>
        <time>2020-08-13T09:00:26.283Z</time>
      </trkpt>
      <trkpt lat="37.718475" lon="-4.947820">
        <ele>235.313126</ele>
        <time>2020-08-13T09:00:28.274Z</time>
      </trkpt>
      <trkpt lat="37.718355" lon="-4.947850">
        <ele>235.267951</ele>
        <time>2020-08-13T09:00:31.257Z</time>
      </trkpt>
      <trkpt lat="37.718257" lon="-4.947910">
        <ele>235.227739</ele>
        <time>2020-08-13T09:00:34.268Z</time>
      </trkpt>
      <trkpt lat="37.718166" lon="-4.947963">
        <ele>235.190737</ele>
        <time>2020-08-13T09:00:36.279Z</time>
      </trkpt>
      <trkpt lat="37.718067" lon="-4.948001">
        <ele>235.152528</ele>
        <time>2020-08-13T09:00:38.264Z</time>
      </trkpt>
      <trkpt lat="37.717961" lon="-4.948017">
        <ele>235.113104</ele>
        <time>2020-08-13T09:00:40.270Z</time>
      </trkpt>
      <trkpt lat="37.717860" lon="-4.948037">
        <ele>235.075350</ele>
        <time>2020-08-13T09:00:42.277Z</time>
      </trkpt>
      <trkpt lat="37.717756" lon="-4.948069">
        <ele>235.035821</ele>
        <time>2020-08-13T09:00:44.274Z</time>
      </trkpt>
      <trkpt lat="37.717648" lon="-4.948094">
        <ele>234.995273</ele>
        <time>2020-08-13T09:00:46.263Z</time>
      </trkpt>
      <trkpt lat="37.717541" lon="-4.948133">
        <ele>234.954148</ele>
        <time>2020-08-13T09:00:48.271Z</time>
      </trkpt>
      <trkpt lat="37.717427" lon="-4.948165">
        <ele>234.911023</ele>
        <time>2020-08-13T09:00:50.287Z</time>
      </trkpt>
      <trkpt lat="37.717311" lon="-4.948202">
        <ele>234.866841</ele>
        <time>2020-08-13T09:00:52.266Z</time>
      </trkpt>
      <trkpt lat="37.717200" lon="-4.948249">
        <ele>234.823610</ele>
        <time>2020-08-13T09:00:54.278Z</time>
      </trkpt>
      <trkpt lat="37.717104" lon="-4.948298">
        <ele>234.818389</ele>
        <time>2020-08-13T09:00:56.270Z</time>
      </trkpt>
      <trkpt lat="37.717001" lon="-4.948339">
        <ele>234.836085</ele>
        <time>2020-08-13T09:00:58.275Z</time>
      </trkpt>
      <trkpt lat="37.716899" lon="-4.948366">
        <ele>234.853164</ele>
        <time>2020-08-13T09:01:00.276Z</time>
      </trkpt>
      <trkpt lat="37.716795" lon="-4.948376">
        <ele>234.870257</ele>
        <time>2020-08-13T09:01:02.269Z</time>
      </trkpt>
      <trkpt lat="37.716687" lon="-4.948397">
        <ele>234.888164</ele>
        <time>2020-08-13T09:01:04.281Z</time>
      </trkpt>
      <trkpt lat="37.716577" lon="-4.948426">
        <ele>234.906579</ele>
        <time>2020-08-13T09:01:06.277Z</time>
      </trkpt>
      <trkpt lat="37.716482" lon="-4.948451">
        <ele>234.922481</ele>
        <time>2020-08-13T09:01:08.279Z</time>
      </trkpt>
      <trkpt lat="37.716369" lon="-4.948464">
        <ele>234.941077</ele>
        <time>2020-08-13T09:01:10.282Z</time>
      </trkpt>
      <trkpt lat="37.716251" lon="-4.948478">
        <ele>234.960499</ele>
        <time>2020-08-13T09:01:12.268Z</time>
      </trkpt>
      <trkpt lat="37.716134" lon="-4.948507">
        <ele>234.980039</ele>
        <time>2020-08-13T09:01:14.281Z</time>
      </trkpt>
      <trkpt lat="37.716023" lon="-4.948555">
        <ele>234.999264</ele>
        <time>2020-08-13T09:01:16.278Z</time>
      </trkpt>
      <trkpt lat="37.715911" lon="-4.948588">
        <ele>235.018111</ele>
        <time>2020-08-13T09:01:18.281Z</time>
      </trkpt>
      <trkpt lat="37.715798" lon="-4.948635">
        <ele>235.037606</ele>
        <time>2020-08-13T09:01:20.279Z</time>
      </trkpt>
      <trkpt lat="37.715683" lon="-4.948675">
        <ele>235.057153</ele>
        <time>2020-08-13T09:01:22.271Z</time>
      </trkpt>
      <trkpt lat="37.715574" lon="-4.948711">
        <ele>235.075616</ele>
        <time>2020-08-13T09:01:24.273Z</time>
      </trkpt>
      <trkpt lat="37.715458" lon="-4.948733">
        <ele>235.094839</ele>
        <time>2020-08-13T09:01:26.270Z</time>
      </trkpt>
      <trkpt lat="37.715354" lon="-4.948769">
        <ele>234.949965</ele>
        <time>2020-08-13T09:01:28.273Z</time>
      </trkpt>
      <trkpt lat="37.715238" lon="-4.948791">
        <ele>234.640416</ele>
        <time>2020-08-13T09:01:30.273Z</time>
      </trkpt>
      <trkpt lat="37.715123" lon="-4.948825">
        <ele>234.328742</ele>
        <time>2020-08-13T09:01:32.282Z</time>
      </trkpt>
      <trkpt lat="37.714992" lon="-4.948849">
        <ele>233.979422</ele>
        <time>2020-08-13T09:01:34.275Z</time>
      </trkpt>
      <trkpt lat="37.714861" lon="-4.948858">
        <ele>233.633204</ele>
        <time>2020-08-13T09:01:36.257Z</time>
      </trkpt>
      <trkpt lat="37.714705" lon="-4.948856">
        <ele>233.221500</ele>
        <time>2020-08-13T09:01:38.265Z</time>
      </trkpt>
      <trkpt lat="37.714545" lon="-4.948855">
        <ele>232.799257</ele>
        <time>2020-08-13T09:01:40.275Z</time>
      </trkpt>
      <trkpt lat="37.714382" lon="-4.948851">
        <ele>232.369020</ele>
        <time>2020-08-13T09:01:42.272Z</time>
      </trkpt>
      <trkpt lat="37.714223" lon="-4.948855">
        <ele>231.949337</ele>
        <time>2020-08-13T09:01:44.263Z</time>
      </trkpt>
      <trkpt lat="37.714064" lon="-4.948842">
        <ele>231.528861</ele>
        <time>2020-08-13T09:01:46.267Z</time>
      </trkpt>
      <trkpt lat="37.713906" lon="-4.948839">
        <ele>231.111853</ele>
        <time>2020-08-13T09:01:48.272Z</time>
      </trkpt>
      <trkpt lat="37.713751" lon="-4.948853">
        <ele>230.701766</ele>
        <time>2020-08-13T09:01:50.277Z</time>
      </trkpt>
      <trkpt lat="37.713619" lon="-4.948859">
        <ele>230.352376</ele>
        <time>2020-08-13T09:01:52.266Z</time>
      </trkpt>
      <trkpt lat="37.713470" lon="-4.948904">
        <ele>229.844972</ele>
        <time>2020-08-13T09:01:54.259Z</time>
      </trkpt>
      <trkpt lat="37.713303" lon="-4.948901">
        <ele>229.291782</ele>
        <time>2020-08-13T09:01:56.271Z</time>
      </trkpt>
      <trkpt lat="37.713157" lon="-4.948951">
        <ele>228.790771</ele>
        <time>2020-08-13T09:01:58.270Z</time>
      </trkpt>
      <trkpt lat="37.713010" lon="-4.948987">
        <ele>228.294827</ele>
        <time>2020-08-13T09:02:00.266Z</time>
      </trkpt>
      <trkpt lat="37.712854" lon="-4.949080">
        <ele>227.723549</ele>
        <time>2020-08-13T09:02:02.253Z</time>
      </trkpt>
      <trkpt lat="37.712755" lon="-4.949083">
        <ele>227.395549</ele>
        <time>2020-08-13T09:02:03.256Z</time>
      </trkpt>
      <trkpt lat="37.712645" lon="-4.949112">
        <ele>227.023369</ele>
        <time>2020-08-13T09:02:04.270Z</time>
      </trkpt>
      <trkpt lat="37.712546" lon="-4.949169">
        <ele>226.663052</ele>
        <time>2020-08-13T09:02:05.265Z</time>
      </trkpt>
      <trkpt lat="37.712453" lon="-4.949182">
        <ele>226.353141</ele>
        <time>2020-08-13T09:02:06.254Z</time>
      </trkpt>
      <trkpt lat="37.712371" lon="-4.949238">
        <ele>226.044440</ele>
        <time>2020-08-13T09:02:07.277Z</time>
      </trkpt>
      <trkpt lat="37.712283" lon="-4.949286">
        <ele>225.726990</ele>
        <time>2020-08-13T09:02:08.273Z</time>
      </trkpt>
      <trkpt lat="37.712185" lon="-4.949322">
        <ele>225.388968</ele>
        <time>2020-08-13T09:02:09.276Z</time>
      </trkpt>
      <trkpt lat="37.712091" lon="-4.949370">
        <ele>225.053179</ele>
        <time>2020-08-13T09:02:10.265Z</time>
      </trkpt>
      <trkpt lat="37.712004" lon="-4.949427">
        <ele>224.728614</ele>
        <time>2020-08-13T09:02:11.271Z</time>
      </trkpt>
      <trkpt lat="37.711942" lon="-4.949515">
        <ele>224.419844</ele>
        <time>2020-08-13T09:02:12.260Z</time>
      </trkpt>
      <trkpt lat="37.711867" lon="-4.949582">
        <ele>224.374678</ele>
        <time>2020-08-13T09:02:13.262Z</time>
      </trkpt>
      <trkpt lat="37.711725" lon="-4.949690">
        <ele>224.327615</ele>
        <time>2020-08-13T09:02:15.281Z</time>
      </trkpt>
      <trkpt lat="37.711572" lon="-4.949765">
        <ele>224.281011</ele>
        <time>2020-08-13T09:02:17.265Z</time>
      </trkpt>
      <trkpt lat="37.711436" lon="-4.949842">
        <ele>224.238691</ele>
        <time>2020-08-13T09:02:19.275Z</time>
      </trkpt>
      <trkpt lat="37.711383" lon="-4.949943">
        <ele>224.211462</ele>
        <time>2020-08-13T09:02:21.262Z</time>
      </trkpt>
      <trkpt lat="37.711451" lon="-4.950037">
        <ele>224.182845</ele>
        <time>2020-08-13T09:02:24.269Z</time>
      </trkpt>
      <trkpt lat="37.711518" lon="-4.950128">
        <ele>224.154916</ele>
        <time>2020-08-13T09:02:27.274Z</time>
      </trkpt>
      <trkpt lat="37.711566" lon="-4.950229">
        <ele>224.128445</ele>
        <time>2020-08-13T09:02:30.291Z</time>
      </trkpt>
      <trkpt lat="37.711566" lon="-4.950406">
        <ele>224.088679</ele>
        <time>2020-08-13T09:02:33.267Z</time>
      </trkpt>
      <trkpt lat="37.711521" lon="-4.950507">
        <ele>224.062637</ele>
        <time>2020-08-13T09:02:35.251Z</time>
      </trkpt>
      <trkpt lat="37.711473" lon="-4.950627">
        <ele>224.032427</ele>
        <time>2020-08-13T09:02:37.258Z</time>
      </trkpt>
      <trkpt lat="37.711424" lon="-4.950757">
        <ele>224.000075</ele>
        <time>2020-08-13T09:02:39.264Z</time>
      </trkpt>
      <trkpt lat="37.711392" lon="-4.950897">
        <ele>223.967335</ele>
        <time>2020-08-13T09:02:41.268Z</time>
      </trkpt>
      <trkpt lat="37.711374" lon="-4.951038">
        <ele>223.935247</ele>
        <time>2020-08-13T09:02:43.259Z</time>
      </trkpt>
      <trkpt lat="37.711352" lon="-4.951187">
        <ele>223.901194</ele>
        <time>2020-08-13T09:02:45.269Z</time>
      </trkpt>
      <trkpt lat="37.711328" lon="-4.951326">
        <ele>223.953713</ele>
        <time>2020-08-13T09:02:47.262Z</time>
      </trkpt>
      <trkpt lat="37.711295" lon="-4.951457">
        <ele>224.060592</ele>
        <time>2020-08-13T09:02:49.271Z</time>
      </trkpt>
      <trkpt lat="37.711289" lon="-4.951579">
        <ele>224.155619</ele>
        <time>2020-08-13T09:02:51.276Z</time>
      </trkpt>
      <trkpt lat="37.711277" lon="-4.951740">
        <ele>224.281336</ele>
        <time>2020-08-13T09:02:54.271Z</time>
      </trkpt>
      <trkpt lat="37.711305" lon="-4.951885">
        <ele>224.397369</ele>
        <time>2020-08-13T09:02:57.268Z</time>
      </trkpt>
      <trkpt lat="37.711343" lon="-4.952007">
        <ele>224.499300</ele>
        <time>2020-08-13T09:03:00.256Z</time>
      </trkpt>
      <trkpt lat="37.711413" lon="-4.952131">
        <ele>224.617725</ele>
        <time>2020-08-13T09:03:04.281Z</time>
      </trkpt>
      <trkpt lat="37.711483" lon="-4.952232">
        <ele>224.722113</ele>
        <time>2020-08-13T09:03:07.279Z</time>
      </trkpt>
      <trkpt lat="37.711548" lon="-4.952334">
        <ele>224.823935</ele>
        <time>2020-08-13T09:03:10.273Z</time>
      </trkpt>
      <trkpt lat="37.711609" lon="-4.952444">
        <ele>224.928367</ele>
        <time>2020-08-13T09:03:13.274Z</time>
      </trkpt>
      <trkpt lat="37.711672" lon="-4.952543">
        <ele>225.027140</ele>
        <time>2020-08-13T09:03:17.274Z</time>
      </trkpt>
      <trkpt lat="37.711726" lon="-4.952635">
        <ele>225.116197</ele>
        <time>2020-08-13T09:03:23.274Z</time>
      </trkpt>
      <trkpt lat="37.711656" lon="-4.952540">
        <ele>225.217124</ele>
        <time>2020-08-13T09:03:31.254Z</time>
      </trkpt>
      <trkpt lat="37.711591" lon="-4.952415">
        <ele>225.333412</ele>
        <time>2020-08-13T09:03:34.273Z</time>
      </trkpt>
      <trkpt lat="37.711532" lon="-4.952297">
        <ele>225.441933</ele>
        <time>2020-08-13T09:03:36.268Z</time>
      </trkpt>
      <trkpt lat="37.711458" lon="-4.952178">
        <ele>225.559603</ele>
        <time>2020-08-13T09:03:38.278Z</time>
      </trkpt>
      <trkpt lat="37.711394" lon="-4.952041">
        <ele>225.591225</ele>
        <time>2020-08-13T09:03:40.280Z</time>
      </trkpt>
      <trkpt lat="37.711330" lon="-4.951893">
        <ele>225.285159</ele>
        <time>2020-08-13T09:03:42.275Z</time>
      </trkpt>
      <trkpt lat="37.711290" lon="-4.951751">
        <ele>225.011638</ele>
        <time>2020-08-13T09:03:44.277Z</time>
      </trkpt>
      <trkpt lat="37.711291" lon="-4.951598">
        <ele>224.733993</ele>
        <time>2020-08-13T09:03:46.252Z</time>
      </trkpt>
      <trkpt lat="37.711310" lon="-4.951449">
        <ele>224.460127</ele>
        <time>2020-08-13T09:03:48.274Z</time>
      </trkpt>
      <trkpt lat="37.711330" lon="-4.951300">
        <ele>224.185886</ele>
        <time>2020-08-13T09:03:50.266Z</time>
      </trkpt>
      <trkpt lat="37.711360" lon="-4.951175">
        <ele>223.948852</ele>
        <time>2020-08-13T09:03:52.271Z</time>
      </trkpt>
      <trkpt lat="37.711359" lon="-4.951045">
        <ele>223.712942</ele>
        <time>2020-08-13T09:03:54.272Z</time>
      </trkpt>
      <trkpt lat="37.711383" lon="-4.950930">
        <ele>223.497123</ele>
        <time>2020-08-13T09:03:56.261Z</time>
      </trkpt>
      <trkpt lat="37.711410" lon="-4.950813">
        <ele>223.275966</ele>
        <time>2020-08-13T09:03:58.274Z</time>
      </trkpt>
      <trkpt lat="37.711457" lon="-4.950658">
        <ele>222.974749</ele>
        <time>2020-08-13T09:04:01.275Z</time>
      </trkpt>
      <trkpt lat="37.711515" lon="-4.950529">
        <ele>222.705501</ele>
        <time>2020-08-13T09:04:04.274Z</time>
      </trkpt>
      <trkpt lat="37.711559" lon="-4.950395">
        <ele>222.442231</ele>
        <time>2020-08-13T09:04:07.280Z</time>
      </trkpt>
      <trkpt lat="37.711585" lon="-4.950277">
        <ele>222.219958</ele>
        <time>2020-08-13T09:04:10.274Z</time>
      </trkpt>
      <trkpt lat="37.711542" lon="-4.950170">
        <ele>222.002180</ele>
        <time>2020-08-13T09:04:15.264Z</time>
      </trkpt>
      <trkpt lat="37.711457" lon="-4.950223">
        <ele>221.784779</ele>
        <time>2020-08-13T09:04:32.275Z</time>
      </trkpt>
      <trkpt lat="37.711394" lon="-4.950343">
        <ele>221.525266</ele>
        <time>2020-08-13T09:04:35.258Z</time>
      </trkpt>
      <trkpt lat="37.711334" lon="-4.950479">
        <ele>221.321290</ele>
        <time>2020-08-13T09:04:37.270Z</time>
      </trkpt>
      <trkpt lat="37.711272" lon="-4.950595">
        <ele>221.137913</ele>
        <time>2020-08-13T09:04:39.267Z</time>
      </trkpt>
      <trkpt lat="37.711201" lon="-4.950709">
        <ele>220.947862</ele>
        <time>2020-08-13T09:04:41.280Z</time>
      </trkpt>
      <trkpt lat="37.711149" lon="-4.950802">
        <ele>220.798685</ele>
        <time>2020-08-13T09:04:43.277Z</time>
      </trkpt>
      <trkpt lat="37.710898" lon="-4.951129">
        <ele>220.201860</ele>
        <time>2020-08-13T09:14:30.509Z</time>
      </trkpt>
      <trkpt lat="37.710819" lon="-4.951262">
        <ele>219.984002</ele>
        <time>2020-08-13T09:14:33.514Z</time>
      </trkpt>
      <trkpt lat="37.710756" lon="-4.951353">
        <ele>219.825602</ele>
        <time>2020-08-13T09:14:35.508Z</time>
      </trkpt>
      <trkpt lat="37.710679" lon="-4.951477">
        <ele>219.619111</ele>
        <time>2020-08-13T09:14:38.521Z</time>
      </trkpt>
      <trkpt lat="37.710611" lon="-4.951596">
        <ele>219.426821</ele>
        <time>2020-08-13T09:14:41.513Z</time>
      </trkpt>
      <trkpt lat="37.710550" lon="-4.951689">
        <ele>219.268573</ele>
        <time>2020-08-13T09:14:43.513Z</time>
      </trkpt>
      <trkpt lat="37.710472" lon="-4.951825">
        <ele>219.048535</ele>
        <time>2020-08-13T09:14:46.512Z</time>
      </trkpt>
      <trkpt lat="37.710442" lon="-4.951944">
        <ele>218.884932</ele>
        <time>2020-08-13T09:14:48.506Z</time>
      </trkpt>
      <trkpt lat="37.710373" lon="-4.952071">
        <ele>218.683119</ele>
        <time>2020-08-13T09:14:50.510Z</time>
      </trkpt>
      <trkpt lat="37.710295" lon="-4.952203">
        <ele>218.371203</ele>
        <time>2020-08-13T09:14:53.503Z</time>
      </trkpt>
      <trkpt lat="37.710223" lon="-4.952305">
        <ele>217.988571</ele>
        <time>2020-08-13T09:14:55.507Z</time>
      </trkpt>
      <trkpt lat="37.710139" lon="-4.952405">
        <ele>217.580311</ele>
        <time>2020-08-13T09:14:57.507Z</time>
      </trkpt>
      <trkpt lat="37.710086" lon="-4.952509">
        <ele>217.234039</ele>
        <time>2020-08-13T09:14:59.514Z</time>
      </trkpt>
      <trkpt lat="37.710008" lon="-4.952610">
        <ele>216.838965</ele>
        <time>2020-08-13T09:15:01.506Z</time>
      </trkpt>
      <trkpt lat="37.709964" lon="-4.952712">
        <ele>216.513775</ele>
        <time>2020-08-13T09:15:03.506Z</time>
      </trkpt>
      <trkpt lat="37.709874" lon="-4.952805">
        <ele>216.102483</ele>
        <time>2020-08-13T09:15:05.507Z</time>
      </trkpt>
      <trkpt lat="37.709776" lon="-4.952948">
        <ele>215.572918</ele>
        <time>2020-08-13T09:15:07.512Z</time>
      </trkpt>
      <trkpt lat="37.709683" lon="-4.953067">
        <ele>215.104709</ele>
        <time>2020-08-13T09:15:09.504Z</time>
      </trkpt>
      <trkpt lat="37.709650" lon="-4.953178">
        <ele>214.772798</ele>
        <time>2020-08-13T09:15:11.510Z</time>
      </trkpt>
      <trkpt lat="37.709552" lon="-4.953262">
        <ele>214.353860</ele>
        <time>2020-08-13T09:15:13.505Z</time>
      </trkpt>
      <trkpt lat="37.709504" lon="-4.953358">
        <ele>214.035980</ele>
        <time>2020-08-13T09:15:15.501Z</time>
      </trkpt>
      <trkpt lat="37.709409" lon="-4.953492">
        <ele>213.532332</ele>
        <time>2020-08-13T09:15:17.506Z</time>
      </trkpt>
      <trkpt lat="37.709373" lon="-4.953596">
        <ele>213.214581</ele>
        <time>2020-08-13T09:15:19.518Z</time>
      </trkpt>
      <trkpt lat="37.709318" lon="-4.953746">
        <ele>212.751814</ele>
        <time>2020-08-13T09:15:22.510Z</time>
      </trkpt>
      <trkpt lat="37.709208" lon="-4.953867">
        <ele>212.235886</ele>
        <time>2020-08-13T09:15:24.499Z</time>
      </trkpt>
      <trkpt lat="37.709147" lon="-4.953956">
        <ele>212.504333</ele>
        <time>2020-08-13T09:15:25.500Z</time>
      </trkpt>
      <trkpt lat="37.709048" lon="-4.954067">
        <ele>213.030002</ele>
        <time>2020-08-13T09:15:27.508Z</time>
      </trkpt>
      <trkpt lat="37.708996" lon="-4.954240">
        <ele>213.611584</ele>
        <time>2020-08-13T09:15:31.515Z</time>
      </trkpt>
      <trkpt lat="37.708949" lon="-4.954361">
        <ele>214.035195</ele>
        <time>2020-08-13T09:15:34.514Z</time>
      </trkpt>
      <trkpt lat="37.708902" lon="-4.954520">
        <ele>214.568604</ele>
        <time>2020-08-13T09:15:37.499Z</time>
      </trkpt>
      <trkpt lat="37.708853" lon="-4.954677">
        <ele>215.098994</ele>
        <time>2020-08-13T09:15:40.498Z</time>
      </trkpt>
      <trkpt lat="37.708879" lon="-4.954789">
        <ele>215.465802</ele>
        <time>2020-08-13T09:15:42.515Z</time>
      </trkpt>
      <trkpt lat="37.708843" lon="-4.954913">
        <ele>215.880892</ele>
        <time>2020-08-13T09:15:44.505Z</time>
      </trkpt>
      <trkpt lat="37.708795" lon="-4.955088">
        <ele>216.462958</ele>
        <time>2020-08-13T09:15:46.517Z</time>
      </trkpt>
      <trkpt lat="37.708745" lon="-4.955228">
        <ele>216.945673</ele>
        <time>2020-08-13T09:15:48.513Z</time>
      </trkpt>
      <trkpt lat="37.708701" lon="-4.955362">
        <ele>217.401609</ele>
        <time>2020-08-13T09:15:50.508Z</time>
      </trkpt>
      <trkpt lat="37.708666" lon="-4.955504">
        <ele>217.869012</ele>
        <time>2020-08-13T09:15:52.503Z</time>
      </trkpt>
      <trkpt lat="37.708648" lon="-4.955642">
        <ele>218.308544</ele>
        <time>2020-08-13T09:15:54.506Z</time>
      </trkpt>
      <trkpt lat="37.708628" lon="-4.955778">
        <ele>218.743256</ele>
        <time>2020-08-13T09:15:56.511Z</time>
      </trkpt>
      <trkpt lat="37.708579" lon="-4.955918">
        <ele>219.224351</ele>
        <time>2020-08-13T09:15:58.513Z</time>
      </trkpt>
      <trkpt lat="37.708576" lon="-4.956048">
        <ele>219.615306</ele>
        <time>2020-08-13T09:16:00.518Z</time>
      </trkpt>
      <trkpt lat="37.708559" lon="-4.956176">
        <ele>219.999075</ele>
        <time>2020-08-13T09:16:02.510Z</time>
      </trkpt>
      <trkpt lat="37.708561" lon="-4.956312">
        <ele>220.401272</ele>
        <time>2020-08-13T09:16:04.517Z</time>
      </trkpt>
      <trkpt lat="37.708580" lon="-4.956463">
        <ele>220.853363</ele>
        <time>2020-08-13T09:16:06.512Z</time>
      </trkpt>
      <trkpt lat="37.708597" lon="-4.956585">
        <ele>221.219648</ele>
        <time>2020-08-13T09:16:08.504Z</time>
      </trkpt>
      <trkpt lat="37.708608" lon="-4.956715">
        <ele>221.606226</ele>
        <time>2020-08-13T09:16:10.511Z</time>
      </trkpt>
      <trkpt lat="37.708603" lon="-4.956870">
        <ele>222.064913</ele>
        <time>2020-08-13T09:16:12.515Z</time>
      </trkpt>
      <trkpt lat="37.708610" lon="-4.956994">
        <ele>222.432491</ele>
        <time>2020-08-13T09:16:14.514Z</time>
      </trkpt>
      <trkpt lat="37.708632" lon="-4.957131">
        <ele>222.845835</ele>
        <time>2020-08-13T09:16:16.512Z</time>
      </trkpt>
      <trkpt lat="37.708630" lon="-4.957268">
        <ele>223.250988</ele>
        <time>2020-08-13T09:16:18.508Z</time>
      </trkpt>
      <trkpt lat="37.708652" lon="-4.957400">
        <ele>223.649854</ele>
        <time>2020-08-13T09:16:20.520Z</time>
      </trkpt>
      <trkpt lat="37.708668" lon="-4.957531">
        <ele>224.041786</ele>
        <time>2020-08-13T09:16:22.505Z</time>
      </trkpt>
      <trkpt lat="37.708710" lon="-4.957654">
        <ele>224.437904</ele>
        <time>2020-08-13T09:16:24.511Z</time>
      </trkpt>
      <trkpt lat="37.708749" lon="-4.957773">
        <ele>224.818761</ele>
        <time>2020-08-13T09:16:26.503Z</time>
      </trkpt>
      <trkpt lat="37.708766" lon="-4.957900">
        <ele>225.199613</ele>
        <time>2020-08-13T09:16:28.505Z</time>
      </trkpt>
      <trkpt lat="37.708821" lon="-4.958055">
        <ele>225.701906</ele>
        <time>2020-08-13T09:16:30.517Z</time>
      </trkpt>
      <trkpt lat="37.708874" lon="-4.958167">
        <ele>226.048468</ele>
        <time>2020-08-13T09:16:32.524Z</time>
      </trkpt>
      <trkpt lat="37.708920" lon="-4.958302">
        <ele>225.961022</ele>
        <time>2020-08-13T09:16:34.520Z</time>
      </trkpt>
      <trkpt lat="37.708963" lon="-4.958431">
        <ele>225.877744</ele>
        <time>2020-08-13T09:16:36.515Z</time>
      </trkpt>
      <trkpt lat="37.709013" lon="-4.958559">
        <ele>225.792818</ele>
        <time>2020-08-13T09:16:38.517Z</time>
      </trkpt>
      <trkpt lat="37.709066" lon="-4.958661">
        <ele>225.720218</ele>
        <time>2020-08-13T09:16:40.501Z</time>
      </trkpt>
      <trkpt lat="37.709111" lon="-4.958783">
        <ele>225.640138</ele>
        <time>2020-08-13T09:16:42.503Z</time>
      </trkpt>
      <trkpt lat="37.709185" lon="-4.958884">
        <ele>225.558242</ele>
        <time>2020-08-13T09:16:44.514Z</time>
      </trkpt>
      <trkpt lat="37.709240" lon="-4.959014">
        <ele>225.470539</ele>
        <time>2020-08-13T09:16:46.508Z</time>
      </trkpt>
      <trkpt lat="37.709306" lon="-4.959122">
        <ele>225.389351</ele>
        <time>2020-08-13T09:16:48.518Z</time>
      </trkpt>
      <trkpt lat="37.709338" lon="-4.959263">
        <ele>225.302085</ele>
        <time>2020-08-13T09:16:50.507Z</time>
      </trkpt>
      <trkpt lat="37.709386" lon="-4.959403">
        <ele>225.211312</ele>
        <time>2020-08-13T09:16:52.523Z</time>
      </trkpt>
      <trkpt lat="37.709426" lon="-4.959511">
        <ele>225.140369</ele>
        <time>2020-08-13T09:16:54.517Z</time>
      </trkpt>
      <trkpt lat="37.709476" lon="-4.959618">
        <ele>225.066439</ele>
        <time>2020-08-13T09:16:56.511Z</time>
      </trkpt>
      <trkpt lat="37.709516" lon="-4.959743">
        <ele>224.986222</ele>
        <time>2020-08-13T09:16:58.509Z</time>
      </trkpt>
      <trkpt lat="37.709579" lon="-4.959845">
        <ele>224.909237</ele>
        <time>2020-08-13T09:17:00.516Z</time>
      </trkpt>
      <trkpt lat="37.709636" lon="-4.959952">
        <ele>224.832496</ele>
        <time>2020-08-13T09:17:02.517Z</time>
      </trkpt>
      <trkpt lat="37.709686" lon="-4.960054">
        <ele>224.761111</ele>
        <time>2020-08-13T09:17:04.523Z</time>
      </trkpt>
      <trkpt lat="37.709738" lon="-4.960161">
        <ele>224.720341</ele>
        <time>2020-08-13T09:17:06.486Z</time>
      </trkpt>
      <trkpt lat="37.709757" lon="-4.960282">
        <ele>224.801665</ele>
        <time>2020-08-13T09:17:08.506Z</time>
      </trkpt>
      <trkpt lat="37.709814" lon="-4.960388">
        <ele>224.886158</ele>
        <time>2020-08-13T09:17:10.512Z</time>
      </trkpt>
      <trkpt lat="37.709840" lon="-4.960540">
        <ele>224.988677</ele>
        <time>2020-08-13T09:17:13.515Z</time>
      </trkpt>
      <trkpt lat="37.709875" lon="-4.960646">
        <ele>225.064398</ele>
        <time>2020-08-13T09:17:15.517Z</time>
      </trkpt>
      <trkpt lat="37.709934" lon="-4.960753">
        <ele>225.150379</ele>
        <time>2020-08-13T09:17:17.501Z</time>
      </trkpt>
      <trkpt lat="37.709970" lon="-4.960873">
        <ele>225.234983</ele>
        <time>2020-08-13T09:17:19.512Z</time>
      </trkpt>
      <trkpt lat="37.710003" lon="-4.960981">
        <ele>225.311306</ele>
        <time>2020-08-13T09:17:21.501Z</time>
      </trkpt>
      <trkpt lat="37.710059" lon="-4.961098">
        <ele>225.401454</ele>
        <time>2020-08-13T09:17:23.509Z</time>
      </trkpt>
      <trkpt lat="37.710058" lon="-4.961247">
        <ele>225.499683</ele>
        <time>2020-08-13T09:17:25.505Z</time>
      </trkpt>
      <trkpt lat="37.710128" lon="-4.961348">
        <ele>225.588202</ele>
        <time>2020-08-13T09:17:28.502Z</time>
      </trkpt>
      <trkpt lat="37.710200" lon="-4.961458">
        <ele>225.682320</ele>
        <time>2020-08-13T09:17:30.511Z</time>
      </trkpt>
      <trkpt lat="37.710186" lon="-4.961618">
        <ele>225.788440</ele>
        <time>2020-08-13T09:17:32.505Z</time>
      </trkpt>
      <trkpt lat="37.710202" lon="-4.961752">
        <ele>225.877778</ele>
        <time>2020-08-13T09:17:34.511Z</time>
      </trkpt>
      <trkpt lat="37.710237" lon="-4.961901">
        <ele>225.980241</ele>
        <time>2020-08-13T09:17:36.502Z</time>
      </trkpt>
      <trkpt lat="37.710224" lon="-4.962057">
        <ele>226.083650</ele>
        <time>2020-08-13T09:17:38.498Z</time>
      </trkpt>
      <trkpt lat="37.710260" lon="-4.962225">
        <ele>226.198392</ele>
        <time>2020-08-13T09:17:40.512Z</time>
      </trkpt>
      <trkpt lat="37.710284" lon="-4.962374">
        <ele>226.162281</ele>
        <time>2020-08-13T09:17:42.501Z</time>
      </trkpt>
      <trkpt lat="37.710288" lon="-4.962496">
        <ele>226.130014</ele>
        <time>2020-08-13T09:17:44.509Z</time>
      </trkpt>
      <trkpt lat="37.710353" lon="-4.962587">
        <ele>226.097614</ele>
        <time>2020-08-13T09:17:46.509Z</time>
      </trkpt>
      <trkpt lat="37.710398" lon="-4.962748">
        <ele>226.052490</ele>
        <time>2020-08-13T09:17:48.511Z</time>
      </trkpt>
      <trkpt lat="37.710469" lon="-4.962877">
        <ele>226.010962</ele>
        <time>2020-08-13T09:17:50.508Z</time>
      </trkpt>
      <trkpt lat="37.710516" lon="-4.962996">
        <ele>225.975813</ele>
        <time>2020-08-13T09:17:52.509Z</time>
      </trkpt>
      <trkpt lat="37.710491" lon="-4.963131">
        <ele>225.939173</ele>
        <time>2020-08-13T09:17:54.507Z</time>
      </trkpt>
      <trkpt lat="37.710510" lon="-4.963247">
        <ele>225.907869</ele>
        <time>2020-08-13T09:17:56.499Z</time>
      </trkpt>
      <trkpt lat="37.710578" lon="-4.963406">
        <ele>225.860104</ele>
        <time>2020-08-13T09:17:58.496Z</time>
      </trkpt>
      <trkpt lat="37.710878" lon="-4.964530">
        <ele>225.537129</ele>
        <time>2020-08-13T09:18:15.557Z</time>
      </trkpt>
      <trkpt lat="37.710793" lon="-4.964665">
        <ele>225.483495</ele>
        <time>2020-08-13T09:18:16.491Z</time>
      </trkpt>
      <trkpt lat="37.710774" lon="-4.964789">
        <ele>225.444232</ele>
        <time>2020-08-13T09:18:17.498Z</time>
      </trkpt>
      <trkpt lat="37.710878" lon="-4.964832">
        <ele>225.401236</ele>
        <time>2020-08-13T09:18:19.487Z</time>
      </trkpt>
      <trkpt lat="37.710884" lon="-4.965000">
        <ele>225.348959</ele>
        <time>2020-08-13T09:18:21.511Z</time>
      </trkpt>
      <trkpt lat="37.710920" lon="-4.965152">
        <ele>225.299637</ele>
        <time>2020-08-13T09:18:23.493Z</time>
      </trkpt>
      <trkpt lat="37.710938" lon="-4.965294">
        <ele>225.254933</ele>
        <time>2020-08-13T09:18:25.509Z</time>
      </trkpt>
      <trkpt lat="37.710978" lon="-4.965443">
        <ele>225.206022</ele>
        <time>2020-08-13T09:18:27.537Z</time>
      </trkpt>
      <trkpt lat="37.711042" lon="-4.965562">
        <ele>225.161291</ele>
        <time>2020-08-13T09:18:29.507Z</time>
      </trkpt>
      <trkpt lat="37.711071" lon="-4.965698">
        <ele>225.117506</ele>
        <time>2020-08-13T09:18:31.503Z</time>
      </trkpt>
      <trkpt lat="37.711105" lon="-4.965849">
        <ele>225.068703</ele>
        <time>2020-08-13T09:18:33.522Z</time>
      </trkpt>
      <trkpt lat="37.711119" lon="-4.965998">
        <ele>225.022060</ele>
        <time>2020-08-13T09:18:35.514Z</time>
      </trkpt>
      <trkpt lat="37.711162" lon="-4.966150">
        <ele>224.971880</ele>
        <time>2020-08-13T09:18:37.488Z</time>
      </trkpt>
      <trkpt lat="37.711173" lon="-4.966316">
        <ele>224.920098</ele>
        <time>2020-08-13T09:18:39.504Z</time>
      </trkpt>
      <trkpt lat="37.711203" lon="-4.966501">
        <ele>224.789052</ele>
        <time>2020-08-13T09:18:41.508Z</time>
      </trkpt>
      <trkpt lat="37.711176" lon="-4.966682">
        <ele>224.603693</ele>
        <time>2020-08-13T09:18:43.508Z</time>
      </trkpt>
      <trkpt lat="37.711186" lon="-4.966858">
        <ele>224.426120</ele>
        <time>2020-08-13T09:18:45.490Z</time>
      </trkpt>
      <trkpt lat="37.711171" lon="-4.966983">
        <ele>224.298887</ele>
        <time>2020-08-13T09:18:46.507Z</time>
      </trkpt>
      <trkpt lat="37.711269" lon="-4.966957">
        <ele>224.171507</ele>
        <time>2020-08-13T09:18:47.497Z</time>
      </trkpt>
      <trkpt lat="37.711281" lon="-4.967097">
        <ele>224.029794</ele>
        <time>2020-08-13T09:18:48.495Z</time>
      </trkpt>
      <trkpt lat="37.711317" lon="-4.967226">
        <ele>223.892135</ele>
        <time>2020-08-13T09:18:50.504Z</time>
      </trkpt>
      <trkpt lat="37.711296" lon="-4.967353">
        <ele>223.761567</ele>
        <time>2020-08-13T09:18:51.514Z</time>
      </trkpt>
      <trkpt lat="37.711424" lon="-4.967365">
        <ele>223.598294</ele>
        <time>2020-08-13T09:18:53.505Z</time>
      </trkpt>
      <trkpt lat="37.711451" lon="-4.967514">
        <ele>223.444466</ele>
        <time>2020-08-13T09:18:55.508Z</time>
      </trkpt>
      <trkpt lat="37.711394" lon="-4.967660">
        <ele>223.280622</ele>
        <time>2020-08-13T09:18:56.513Z</time>
      </trkpt>
      <trkpt lat="37.711418" lon="-4.967783">
        <ele>223.153132</ele>
        <time>2020-08-13T09:18:58.507Z</time>
      </trkpt>
      <trkpt lat="37.711458" lon="-4.967939">
        <ele>222.988102</ele>
        <time>2020-08-13T09:19:00.506Z</time>
      </trkpt>
      <trkpt lat="37.711502" lon="-4.968107">
        <ele>222.810012</ele>
        <time>2020-08-13T09:19:03.493Z</time>
      </trkpt>
      <trkpt lat="37.711518" lon="-4.968223">
        <ele>222.691516</ele>
        <time>2020-08-13T09:19:05.504Z</time>
      </trkpt>
      <trkpt lat="37.711603" lon="-4.968327">
        <ele>222.560130</ele>
        <time>2020-08-13T09:19:07.509Z</time>
      </trkpt>
      <trkpt lat="37.711699" lon="-4.968387">
        <ele>222.464121</ele>
        <time>2020-08-13T09:19:09.508Z</time>
      </trkpt>
      <trkpt lat="37.711680" lon="-4.968500">
        <ele>222.382190</ele>
        <time>2020-08-13T09:19:10.487Z</time>
      </trkpt>
      <trkpt lat="37.711738" lon="-4.968601">
        <ele>222.293677</ele>
        <time>2020-08-13T09:19:12.490Z</time>
      </trkpt>
      <trkpt lat="37.711753" lon="-4.968773">
        <ele>222.170953</ele>
        <time>2020-08-13T09:19:14.514Z</time>
      </trkpt>
      <trkpt lat="37.711810" lon="-4.968898">
        <ele>222.068629</ele>
        <time>2020-08-13T09:19:16.497Z</time>
      </trkpt>
      <trkpt lat="37.711848" lon="-4.969020">
        <ele>221.975640</ele>
        <time>2020-08-13T09:19:18.505Z</time>
      </trkpt>
      <trkpt lat="37.711879" lon="-4.969139">
        <ele>221.886786</ele>
        <time>2020-08-13T09:19:20.507Z</time>
      </trkpt>
      <trkpt lat="37.711879" lon="-4.969262">
        <ele>221.799553</ele>
        <time>2020-08-13T09:19:21.497Z</time>
      </trkpt>
      <trkpt lat="37.711883" lon="-4.969415">
        <ele>221.690984</ele>
        <time>2020-08-13T09:19:23.498Z</time>
      </trkpt>
      <trkpt lat="37.711918" lon="-4.969540">
        <ele>221.596944</ele>
        <time>2020-08-13T09:19:25.511Z</time>
      </trkpt>
      <trkpt lat="37.711995" lon="-4.969709">
        <ele>221.458630</ele>
        <time>2020-08-13T09:19:27.505Z</time>
      </trkpt>
      <trkpt lat="37.712022" lon="-4.969857">
        <ele>221.350912</ele>
        <time>2020-08-13T09:19:29.508Z</time>
      </trkpt>
      <trkpt lat="37.712043" lon="-4.969990">
        <ele>221.254727</ele>
        <time>2020-08-13T09:19:31.504Z</time>
      </trkpt>
      <trkpt lat="37.712089" lon="-4.970111">
        <ele>221.159518</ele>
        <time>2020-08-13T09:19:33.505Z</time>
      </trkpt>
      <trkpt lat="37.712102" lon="-4.970284">
        <ele>221.036272</ele>
        <time>2020-08-13T09:19:35.507Z</time>
      </trkpt>
      <trkpt lat="37.712153" lon="-4.970440">
        <ele>220.159368</ele>
        <time>2020-08-13T09:19:37.500Z</time>
      </trkpt>
      <trkpt lat="37.712184" lon="-4.970597">
        <ele>218.911405</ele>
        <time>2020-08-13T09:19:39.508Z</time>
      </trkpt>
      <trkpt lat="37.712210" lon="-4.970707">
        <ele>218.026006</ele>
        <time>2020-08-13T09:19:41.517Z</time>
      </trkpt>
      <trkpt lat="37.712268" lon="-4.970798">
        <ele>217.124758</ele>
        <time>2020-08-13T09:19:43.511Z</time>
      </trkpt>
      <trkpt lat="37.712296" lon="-4.970909">
        <ele>216.226237</ele>
        <time>2020-08-13T09:19:45.510Z</time>
      </trkpt>
      <trkpt lat="37.712329" lon="-4.971016">
        <ele>215.340539</ele>
        <time>2020-08-13T09:19:47.511Z</time>
      </trkpt>
      <trkpt lat="37.712339" lon="-4.971144">
        <ele>214.348576</ele>
        <time>2020-08-13T09:19:49.521Z</time>
      </trkpt>
      <trkpt lat="37.712356" lon="-4.971301">
        <ele>213.126473</ele>
        <time>2020-08-13T09:19:52.517Z</time>
      </trkpt>
      <trkpt lat="37.712382" lon="-4.971453">
        <ele>211.927130</ele>
        <time>2020-08-13T09:19:55.504Z</time>
      </trkpt>
      <trkpt lat="37.712427" lon="-4.971599">
        <ele>210.718709</ele>
        <time>2020-08-13T09:19:58.497Z</time>
      </trkpt>
      <trkpt lat="37.712498" lon="-4.971678">
        <ele>209.796596</ele>
        <time>2020-08-13T09:20:00.507Z</time>
      </trkpt>
      <trkpt lat="37.712516" lon="-4.971803">
        <ele>208.816733</ele>
        <time>2020-08-13T09:20:02.503Z</time>
      </trkpt>
      <trkpt lat="37.712539" lon="-4.971923">
        <ele>207.864497</ele>
        <time>2020-08-13T09:20:04.511Z</time>
      </trkpt>
      <trkpt lat="37.712552" lon="-4.972049">
        <ele>206.884534</ele>
        <time>2020-08-13T09:20:06.505Z</time>
      </trkpt>
      <trkpt lat="37.712582" lon="-4.972172">
        <ele>205.891875</ele>
        <time>2020-08-13T09:20:08.509Z</time>
      </trkpt>
      <trkpt lat="37.712618" lon="-4.972301">
        <ele>204.836918</ele>
        <time>2020-08-13T09:20:10.499Z</time>
      </trkpt>
      <trkpt lat="37.712644" lon="-4.972440">
        <ele>203.735369</ele>
        <time>2020-08-13T09:20:12.515Z</time>
      </trkpt>
      <trkpt lat="37.712672" lon="-4.972569">
        <ele>202.986463</ele>
        <time>2020-08-13T09:20:14.521Z</time>
      </trkpt>
      <trkpt lat="37.712709" lon="-4.972696">
        <ele>202.333622</ele>
        <time>2020-08-13T09:20:16.507Z</time>
      </trkpt>
      <trkpt lat="37.712742" lon="-4.972829">
        <ele>201.661245</ele>
        <time>2020-08-13T09:20:18.509Z</time>
      </trkpt>
      <trkpt lat="37.712766" lon="-4.972964">
        <ele>200.993797</ele>
        <time>2020-08-13T09:20:20.514Z</time>
      </trkpt>
      <trkpt lat="37.712792" lon="-4.973096">
        <ele>200.337620</ele>
        <time>2020-08-13T09:20:22.507Z</time>
      </trkpt>
      <trkpt lat="37.712821" lon="-4.973229">
        <ele>199.672137</ele>
        <time>2020-08-13T09:20:24.505Z</time>
      </trkpt>
      <trkpt lat="37.712852" lon="-4.973373">
        <ele>198.952256</ele>
        <time>2020-08-13T09:20:26.518Z</time>
      </trkpt>
      <trkpt lat="37.712883" lon="-4.973516">
        <ele>198.237028</ele>
        <time>2020-08-13T09:20:28.513Z</time>
      </trkpt>
      <trkpt lat="37.712910" lon="-4.973657">
        <ele>197.537237</ele>
        <time>2020-08-13T09:20:30.509Z</time>
      </trkpt>
      <trkpt lat="37.712929" lon="-4.973809">
        <ele>196.794930</ele>
        <time>2020-08-13T09:20:32.517Z</time>
      </trkpt>
      <trkpt lat="37.712963" lon="-4.973960">
        <ele>196.037614</ele>
        <time>2020-08-13T09:20:34.518Z</time>
      </trkpt>
      <trkpt lat="37.712990" lon="-4.974113">
        <ele>195.281441</ele>
        <time>2020-08-13T09:20:36.512Z</time>
      </trkpt>
      <trkpt lat="37.713006" lon="-4.974270">
        <ele>194.517855</ele>
        <time>2020-08-13T09:20:38.522Z</time>
      </trkpt>
      <trkpt lat="37.713020" lon="-4.974425">
        <ele>193.765317</ele>
        <time>2020-08-13T09:20:40.516Z</time>
      </trkpt>
      <trkpt lat="37.713035" lon="-4.974599">
        <ele>192.921017</ele>
        <time>2020-08-13T09:20:42.521Z</time>
      </trkpt>
      <trkpt lat="37.713034" lon="-4.974765">
        <ele>192.727465</ele>
        <time>2020-08-13T09:20:44.514Z</time>
      </trkpt>
      <trkpt lat="37.713037" lon="-4.974938">
        <ele>193.259212</ele>
        <time>2020-08-13T09:20:46.511Z</time>
      </trkpt>
      <trkpt lat="37.713034" lon="-4.975115">
        <ele>193.803247</ele>
        <time>2020-08-13T09:20:48.522Z</time>
      </trkpt>
      <trkpt lat="37.713026" lon="-4.975283">
        <ele>194.320436</ele>
        <time>2020-08-13T09:20:50.501Z</time>
      </trkpt>
      <trkpt lat="37.713022" lon="-4.975460">
        <ele>194.864569</ele>
        <time>2020-08-13T09:20:52.508Z</time>
      </trkpt>
      <trkpt lat="37.713006" lon="-4.975629">
        <ele>195.387602</ele>
        <time>2020-08-13T09:20:54.516Z</time>
      </trkpt>
      <trkpt lat="37.712965" lon="-4.975788">
        <ele>195.901502</ele>
        <time>2020-08-13T09:20:56.500Z</time>
      </trkpt>
      <trkpt lat="37.712935" lon="-4.975952">
        <ele>196.418763</ele>
        <time>2020-08-13T09:20:58.495Z</time>
      </trkpt>
      <trkpt lat="37.712914" lon="-4.976103">
        <ele>196.889894</ele>
        <time>2020-08-13T09:21:00.516Z</time>
      </trkpt>
      <trkpt lat="37.712877" lon="-4.976245">
        <ele>197.349313</ele>
        <time>2020-08-13T09:21:02.513Z</time>
      </trkpt>
      <trkpt lat="37.712820" lon="-4.976389">
        <ele>197.844121</ele>
        <time>2020-08-13T09:21:04.515Z</time>
      </trkpt>
      <trkpt lat="37.712776" lon="-4.976536">
        <ele>198.327098</ele>
        <time>2020-08-13T09:21:06.509Z</time>
      </trkpt>
      <trkpt lat="37.712737" lon="-4.976684">
        <ele>198.806464</ele>
        <time>2020-08-13T09:21:08.514Z</time>
      </trkpt>
      <trkpt lat="37.712693" lon="-4.976837">
        <ele>199.306728</ele>
        <time>2020-08-13T09:21:10.505Z</time>
      </trkpt>
      <trkpt lat="37.712626" lon="-4.976976">
        <ele>199.462335</ele>
        <time>2020-08-13T09:21:12.508Z</time>
      </trkpt>
      <trkpt lat="37.712573" lon="-4.977124">
        <ele>199.438646</ele>
        <time>2020-08-13T09:21:14.525Z</time>
      </trkpt>
      <trkpt lat="37.712517" lon="-4.977265">
        <ele>199.415641</ele>
        <time>2020-08-13T09:21:16.509Z</time>
      </trkpt>
      <trkpt lat="37.712442" lon="-4.977390">
        <ele>199.392764</ele>
        <time>2020-08-13T09:21:18.505Z</time>
      </trkpt>
      <trkpt lat="37.712337" lon="-4.977541">
        <ele>199.363449</ele>
        <time>2020-08-13T09:21:20.506Z</time>
      </trkpt>
      <trkpt lat="37.712254" lon="-4.977684">
        <ele>199.337587</ele>
        <time>2020-08-13T09:21:22.508Z</time>
      </trkpt>
      <trkpt lat="37.712224" lon="-4.977824">
        <ele>199.316437</ele>
        <time>2020-08-13T09:21:24.520Z</time>
      </trkpt>
      <trkpt lat="37.712112" lon="-4.977923">
        <ele>199.291246</ele>
        <time>2020-08-13T09:21:26.504Z</time>
      </trkpt>
      <trkpt lat="37.712051" lon="-4.978046">
        <ele>199.270077</ele>
        <time>2020-08-13T09:21:28.511Z</time>
      </trkpt>
      <trkpt lat="37.711991" lon="-4.978138">
        <ele>199.252691</ele>
        <time>2020-08-13T09:21:30.506Z</time>
      </trkpt>
      <trkpt lat="37.711980" lon="-4.978288">
        <ele>199.230725</ele>
        <time>2020-08-13T09:21:32.511Z</time>
      </trkpt>
      <trkpt lat="37.711877" lon="-4.978375">
        <ele>199.207891</ele>
        <time>2020-08-13T09:21:34.515Z</time>
      </trkpt>
      <trkpt lat="37.711774" lon="-4.978437">
        <ele>199.186863</ele>
        <time>2020-08-13T09:21:36.516Z</time>
      </trkpt>
      <trkpt lat="37.711709" lon="-4.978554">
        <ele>199.166015</ele>
        <time>2020-08-13T09:21:38.514Z</time>
      </trkpt>
      <trkpt lat="37.711608" lon="-4.978660">
        <ele>199.031608</ele>
        <time>2020-08-13T09:21:40.512Z</time>
      </trkpt>
      <trkpt lat="37.711527" lon="-4.978789">
        <ele>198.431511</ele>
        <time>2020-08-13T09:21:42.513Z</time>
      </trkpt>
      <trkpt lat="37.711444" lon="-4.978878">
        <ele>197.930208</ele>
        <time>2020-08-13T09:21:44.511Z</time>
      </trkpt>
      <trkpt lat="37.711366" lon="-4.978961">
        <ele>197.460605</ele>
        <time>2020-08-13T09:21:46.508Z</time>
      </trkpt>
      <trkpt lat="37.711287" lon="-4.979044">
        <ele>196.987470</ele>
        <time>2020-08-13T09:21:48.506Z</time>
      </trkpt>
      <trkpt lat="37.711186" lon="-4.979163">
        <ele>196.351537</ele>
        <time>2020-08-13T09:21:51.498Z</time>
      </trkpt>
      <trkpt lat="37.711158" lon="-4.979294">
        <ele>195.857097</ele>
        <time>2020-08-13T09:21:54.513Z</time>
      </trkpt>
      <trkpt lat="37.711023" lon="-4.979411">
        <ele>195.103197</ele>
        <time>2020-08-13T09:21:57.503Z</time>
      </trkpt>
      <trkpt lat="37.710960" lon="-4.979528">
        <ele>194.587502</ele>
        <time>2020-08-13T09:22:00.512Z</time>
      </trkpt>
      <trkpt lat="37.710882" lon="-4.979619">
        <ele>194.098617</ele>
        <time>2020-08-13T09:22:03.493Z</time>
      </trkpt>
      <trkpt lat="37.710783" lon="-4.979730">
        <ele>193.489111</ele>
        <time>2020-08-13T09:22:06.508Z</time>
      </trkpt>
      <trkpt lat="37.710663" lon="-4.979798">
        <ele>192.883413</ele>
        <time>2020-08-13T09:22:08.509Z</time>
      </trkpt>
      <trkpt lat="37.710600" lon="-4.979882">
        <ele>192.461656</ele>
        <time>2020-08-13T09:22:10.515Z</time>
      </trkpt>
      <trkpt lat="37.710521" lon="-4.979978">
        <ele>191.956925</ele>
        <time>2020-08-13T09:22:12.507Z</time>
      </trkpt>
      <trkpt lat="37.710460" lon="-4.980136">
        <ele>191.316316</ele>
        <time>2020-08-13T09:22:15.508Z</time>
      </trkpt>
      <trkpt lat="37.710365" lon="-4.980240">
        <ele>190.819269</ele>
        <time>2020-08-13T09:22:18.509Z</time>
      </trkpt>
      <trkpt lat="37.710303" lon="-4.980342">
        <ele>190.658078</ele>
        <time>2020-08-13T09:22:20.513Z</time>
      </trkpt>
      <trkpt lat="37.710222" lon="-4.980437">
        <ele>190.483051</ele>
        <time>2020-08-13T09:22:23.503Z</time>
      </trkpt>
      <trkpt lat="37.710216" lon="-4.980554">
        <ele>190.336126</ele>
        <time>2020-08-13T09:22:25.516Z</time>
      </trkpt>
      <trkpt lat="37.710141" lon="-4.980657">
        <ele>190.160703</ele>
        <time>2020-08-13T09:22:28.508Z</time>
      </trkpt>
      <trkpt lat="37.710046" lon="-4.980753">
        <ele>189.968045</ele>
        <time>2020-08-13T09:22:30.525Z</time>
      </trkpt>
      <trkpt lat="37.709964" lon="-4.980857">
        <ele>189.784045</ele>
        <time>2020-08-13T09:22:32.509Z</time>
      </trkpt>
      <trkpt lat="37.709921" lon="-4.980964">
        <ele>189.633651</ele>
        <time>2020-08-13T09:22:34.511Z</time>
      </trkpt>
      <trkpt lat="37.709854" lon="-4.981053">
        <ele>189.479696</ele>
        <time>2020-08-13T09:22:36.506Z</time>
      </trkpt>
      <trkpt lat="37.709752" lon="-4.981165">
        <ele>189.265680</ele>
        <time>2020-08-13T09:22:39.498Z</time>
      </trkpt>
      <trkpt lat="37.709668" lon="-4.981289">
        <ele>189.061107</ele>
        <time>2020-08-13T09:22:42.504Z</time>
      </trkpt>
      <trkpt lat="37.709605" lon="-4.981407">
        <ele>188.882713</ele>
        <time>2020-08-13T09:22:44.504Z</time>
      </trkpt>
      <trkpt lat="37.709521" lon="-4.981466">
        <ele>188.730494</ele>
        <time>2020-08-13T09:22:46.511Z</time>
      </trkpt>
      <trkpt lat="37.709442" lon="-4.981580">
        <ele>188.540579</ele>
        <time>2020-08-13T09:22:49.494Z</time>
      </trkpt>
      <trkpt lat="37.709355" lon="-4.981698">
        <ele>188.338447</ele>
        <time>2020-08-13T09:22:52.514Z</time>
      </trkpt>
      <trkpt lat="37.709289" lon="-4.981803">
        <ele>188.170390</ele>
        <time>2020-08-13T09:22:55.502Z</time>
      </trkpt>
      <trkpt lat="37.709205" lon="-4.981909">
        <ele>188.111444</ele>
        <time>2020-08-13T09:22:58.489Z</time>
      </trkpt>
      <trkpt lat="37.709120" lon="-4.982021">
        <ele>188.734680</ele>
        <time>2020-08-13T09:23:01.506Z</time>
      </trkpt>
      <trkpt lat="37.709052" lon="-4.982126">
        <ele>189.279580</ele>
        <time>2020-08-13T09:23:04.499Z</time>
      </trkpt>
      <trkpt lat="37.708971" lon="-4.982231">
        <ele>189.868495</ele>
        <time>2020-08-13T09:23:07.512Z</time>
      </trkpt>
      <trkpt lat="37.708898" lon="-4.982334">
        <ele>190.423808</ele>
        <time>2020-08-13T09:23:10.512Z</time>
      </trkpt>
      <trkpt lat="37.708816" lon="-4.982426">
        <ele>190.980337</ele>
        <time>2020-08-13T09:23:13.509Z</time>
      </trkpt>
      <trkpt lat="37.708730" lon="-4.982546">
        <ele>191.630537</ele>
        <time>2020-08-13T09:23:16.513Z</time>
      </trkpt>
      <trkpt lat="37.708642" lon="-4.982667">
        <ele>192.290546</ele>
        <time>2020-08-13T09:23:19.500Z</time>
      </trkpt>
      <trkpt lat="37.708550" lon="-4.982781">
        <ele>192.944485</ele>
        <time>2020-08-13T09:23:22.504Z</time>
      </trkpt>
      <trkpt lat="37.708465" lon="-4.982887">
        <ele>193.550566</ele>
        <time>2020-08-13T09:23:25.504Z</time>
      </trkpt>
      <trkpt lat="37.708372" lon="-4.982980">
        <ele>194.152484</ele>
        <time>2020-08-13T09:23:28.496Z</time>
      </trkpt>
      <trkpt lat="37.708279" lon="-4.983068">
        <ele>194.742155</ele>
        <time>2020-08-13T09:23:31.507Z</time>
      </trkpt>
      <trkpt lat="37.708189" lon="-4.983154">
        <ele>195.314830</ele>
        <time>2020-08-13T09:23:34.509Z</time>
      </trkpt>
      <trkpt lat="37.708107" lon="-4.983233">
        <ele>195.838165</ele>
        <time>2020-08-13T09:23:37.503Z</time>
      </trkpt>
      <trkpt lat="37.708027" lon="-4.983299">
        <ele>196.323072</ele>
        <time>2020-08-13T09:23:40.509Z</time>
      </trkpt>
      <trkpt lat="37.707942" lon="-4.983358">
        <ele>196.815293</ele>
        <time>2020-08-13T09:23:43.504Z</time>
      </trkpt>
      <trkpt lat="37.707836" lon="-4.983427">
        <ele>197.298304</ele>
        <time>2020-08-13T09:23:46.495Z</time>
      </trkpt>
      <trkpt lat="37.707748" lon="-4.983491">
        <ele>197.586957</ele>
        <time>2020-08-13T09:23:49.508Z</time>
      </trkpt>
      <trkpt lat="37.707671" lon="-4.983554">
        <ele>197.847739</ele>
        <time>2020-08-13T09:23:52.501Z</time>
      </trkpt>
      <trkpt lat="37.707587" lon="-4.983619">
        <ele>198.127761</ele>
        <time>2020-08-13T09:23:56.504Z</time>
      </trkpt>
      <trkpt lat="37.707512" lon="-4.983684">
        <ele>198.386305</ele>
        <time>2020-08-13T09:23:59.515Z</time>
      </trkpt>
      <trkpt lat="37.707407" lon="-4.983761">
        <ele>198.731437</ele>
        <time>2020-08-13T09:24:03.501Z</time>
      </trkpt>
      <trkpt lat="37.707306" lon="-4.983825">
        <ele>199.052656</ele>
        <time>2020-08-13T09:24:06.507Z</time>
      </trkpt>
      <trkpt lat="37.707199" lon="-4.983885">
        <ele>199.385463</ele>
        <time>2020-08-13T09:24:09.507Z</time>
      </trkpt>
      <trkpt lat="37.707101" lon="-4.983947">
        <ele>199.697042</ele>
        <time>2020-08-13T09:24:12.519Z</time>
      </trkpt>
      <trkpt lat="37.707015" lon="-4.984001">
        <ele>199.970058</ele>
        <time>2020-08-13T09:24:15.510Z</time>
      </trkpt>
      <trkpt lat="37.706914" lon="-4.984060">
        <ele>200.286397</ele>
        <time>2020-08-13T09:24:19.514Z</time>
      </trkpt>
      <trkpt lat="37.706832" lon="-4.984120">
        <ele>200.555779</ele>
        <time>2020-08-13T09:24:23.512Z</time>
      </trkpt>
      <trkpt lat="37.706743" lon="-4.984164">
        <ele>200.827484</ele>
        <time>2020-08-13T09:24:27.507Z</time>
      </trkpt>
      <trkpt lat="37.706655" lon="-4.984213">
        <ele>201.100880</ele>
        <time>2020-08-13T09:24:31.511Z</time>
      </trkpt>
      <trkpt lat="37.706574" lon="-4.984263">
        <ele>201.357169</ele>
        <time>2020-08-13T09:24:35.513Z</time>
      </trkpt>
      <trkpt lat="37.706491" lon="-4.984314">
        <ele>201.619554</ele>
        <time>2020-08-13T09:24:41.503Z</time>
      </trkpt>
      <trkpt lat="37.706120" lon="-4.984695">
        <ele>201.703296</ele>
        <time>2020-08-13T09:27:32.518Z</time>
      </trkpt>
      <trkpt lat="37.706073" lon="-4.984817">
        <ele>201.469480</ele>
        <time>2020-08-13T09:27:36.511Z</time>
      </trkpt>
      <trkpt lat="37.706020" lon="-4.984941">
        <ele>201.226629</ele>
        <time>2020-08-13T09:27:40.513Z</time>
      </trkpt>
      <trkpt lat="37.705940" lon="-4.985003">
        <ele>201.022249</ele>
        <time>2020-08-13T09:27:44.495Z</time>
      </trkpt>
      <trkpt lat="37.706018" lon="-4.985067">
        <ele>200.819714</ele>
        <time>2020-08-13T09:27:52.493Z</time>
      </trkpt>
      <trkpt lat="37.706105" lon="-4.985111">
        <ele>200.615628</ele>
        <time>2020-08-13T09:27:56.499Z</time>
      </trkpt>
      <trkpt lat="37.706201" lon="-4.985159">
        <ele>200.390781</ele>
        <time>2020-08-13T09:28:13.511Z</time>
      </trkpt>
      <trkpt lat="37.706270" lon="-4.985235">
        <ele>200.191450</ele>
        <time>2020-08-13T09:28:26.497Z</time>
      </trkpt>
      <trkpt lat="37.706366" lon="-4.985227">
        <ele>199.981914</ele>
        <time>2020-08-13T09:28:30.489Z</time>
      </trkpt>
      <trkpt lat="37.706274" lon="-4.985167">
        <ele>199.756443</ele>
        <time>2020-08-13T09:28:36.512Z</time>
      </trkpt>
      <trkpt lat="37.706232" lon="-4.984679">
        <ele>198.910612</ele>
        <time>2020-08-13T09:29:57.496Z</time>
      </trkpt>
      <trkpt lat="37.706237" lon="-4.984528">
        <ele>198.650197</ele>
        <time>2020-08-13T09:29:59.500Z</time>
      </trkpt>
      <trkpt lat="37.706225" lon="-4.984384">
        <ele>198.400699</ele>
        <time>2020-08-13T09:30:01.505Z</time>
      </trkpt>
      <trkpt lat="37.706225" lon="-4.984212">
        <ele>198.232318</ele>
        <time>2020-08-13T09:30:03.500Z</time>
      </trkpt>
      <trkpt lat="37.706244" lon="-4.984029">
        <ele>198.087640</ele>
        <time>2020-08-13T09:30:05.497Z</time>
      </trkpt>
      <trkpt lat="37.706265" lon="-4.983823">
        <ele>197.924827</ele>
        <time>2020-08-13T09:30:07.496Z</time>
      </trkpt>
      <trkpt lat="37.706257" lon="-4.983611">
        <ele>197.758458</ele>
        <time>2020-08-13T09:30:09.506Z</time>
      </trkpt>
      <trkpt lat="37.706264" lon="-4.983400">
        <ele>197.592916</ele>
        <time>2020-08-13T09:30:11.508Z</time>
      </trkpt>
      <trkpt lat="37.706262" lon="-4.983182">
        <ele>197.422020</ele>
        <time>2020-08-13T09:30:13.491Z</time>
      </trkpt>
      <trkpt lat="37.706228" lon="-4.982978">
        <ele>197.258601</ele>
        <time>2020-08-13T09:30:15.512Z</time>
      </trkpt>
      <trkpt lat="37.706225" lon="-4.982765">
        <ele>197.091610</ele>
        <time>2020-08-13T09:30:17.503Z</time>
      </trkpt>
      <trkpt lat="37.706196" lon="-4.982590">
        <ele>196.951455</ele>
        <time>2020-08-13T09:30:19.501Z</time>
      </trkpt>
      <trkpt lat="37.706124" lon="-4.982517">
        <ele>196.860004</ele>
        <time>2020-08-13T09:30:21.494Z</time>
      </trkpt>
      <trkpt lat="37.706009" lon="-4.982532">
        <ele>196.745458</ele>
        <time>2020-08-13T09:30:24.490Z</time>
      </trkpt>
      <trkpt lat="37.705911" lon="-4.982618">
        <ele>196.627252</ele>
        <time>2020-08-13T09:30:27.502Z</time>
      </trkpt>
      <trkpt lat="37.705825" lon="-4.982712">
        <ele>196.513126</ele>
        <time>2020-08-13T09:30:30.504Z</time>
      </trkpt>
      <trkpt lat="37.705752" lon="-4.982817">
        <ele>196.399743</ele>
        <time>2020-08-13T09:30:33.504Z</time>
      </trkpt>
      <trkpt lat="37.705673" lon="-4.982894">
        <ele>196.297461</ele>
        <time>2020-08-13T09:30:37.506Z</time>
      </trkpt>
      <trkpt lat="37.705609" lon="-4.982975">
        <ele>196.204604</ele>
        <time>2020-08-13T09:30:40.504Z</time>
      </trkpt>
      <trkpt lat="37.705537" lon="-4.983057">
        <ele>196.105238</ele>
        <time>2020-08-13T09:30:43.504Z</time>
      </trkpt>
      <trkpt lat="37.705464" lon="-4.983168">
        <ele>195.988154</ele>
        <time>2020-08-13T09:30:47.513Z</time>
      </trkpt>
      <trkpt lat="37.705392" lon="-4.983256">
        <ele>195.885467</ele>
        <time>2020-08-13T09:30:51.496Z</time>
      </trkpt>
      <trkpt lat="37.705323" lon="-4.983361">
        <ele>195.774748</ele>
        <time>2020-08-13T09:30:55.495Z</time>
      </trkpt>
      <trkpt lat="37.705250" lon="-4.983465">
        <ele>195.661972</ele>
        <time>2020-08-13T09:30:59.500Z</time>
      </trkpt>
      <trkpt lat="37.705181" lon="-4.983542">
        <ele>195.567602</ele>
        <time>2020-08-13T09:31:02.511Z</time>
      </trkpt>
      <trkpt lat="37.705103" lon="-4.983645">
        <ele>195.451948</ele>
        <time>2020-08-13T09:31:06.496Z</time>
      </trkpt>
      <trkpt lat="37.705039" lon="-4.983754">
        <ele>195.341843</ele>
        <time>2020-08-13T09:31:10.492Z</time>
      </trkpt>
      <trkpt lat="37.705006" lon="-4.983886">
        <ele>195.229551</ele>
        <time>2020-08-13T09:31:13.501Z</time>
      </trkpt>
      <trkpt lat="37.705011" lon="-4.984045">
        <ele>195.100475</ele>
        <time>2020-08-13T09:31:16.515Z</time>
      </trkpt>
      <trkpt lat="37.705066" lon="-4.984195">
        <ele>194.966369</ele>
        <time>2020-08-13T09:31:19.494Z</time>
      </trkpt>
      <trkpt lat="37.705126" lon="-4.984293">
        <ele>194.865853</ele>
        <time>2020-08-13T09:31:21.498Z</time>
      </trkpt>
      <trkpt lat="37.705174" lon="-4.984424">
        <ele>194.748748</ele>
        <time>2020-08-13T09:31:24.499Z</time>
      </trkpt>
      <trkpt lat="37.705207" lon="-4.984550">
        <ele>194.927543</ele>
        <time>2020-08-13T09:31:28.496Z</time>
      </trkpt>
      <trkpt lat="37.705332" lon="-4.984385">
        <ele>195.480699</ele>
        <time>2020-08-13T09:31:29.493Z</time>
      </trkpt>
      <trkpt lat="37.705264" lon="-4.984500">
        <ele>195.828337</ele>
        <time>2020-08-13T09:31:32.493Z</time>
      </trkpt>
      <trkpt lat="37.705198" lon="-4.984590">
        <ele>196.125480</ele>
        <time>2020-08-13T09:31:35.499Z</time>
      </trkpt>
      <trkpt lat="37.705097" lon="-4.984645">
        <ele>196.462062</ele>
        <time>2020-08-13T09:31:39.498Z</time>
      </trkpt>
      <trkpt lat="37.704988" lon="-4.984627">
        <ele>196.798495</ele>
        <time>2020-08-13T09:31:43.497Z</time>
      </trkpt>
      <trkpt lat="37.704871" lon="-4.984647">
        <ele>197.159837</ele>
        <time>2020-08-13T09:31:47.502Z</time>
      </trkpt>
      <trkpt lat="37.704776" lon="-4.984672">
        <ele>197.456823</ele>
        <time>2020-08-13T09:31:52.501Z</time>
      </trkpt>
      <trkpt lat="37.705069" lon="-4.984715">
        <ele>198.359584</ele>
        <time>2020-08-13T09:33:23.495Z</time>
      </trkpt>
      <trkpt lat="37.705174" lon="-4.984766">
        <ele>198.703851</ele>
        <time>2020-08-13T09:33:29.499Z</time>
      </trkpt>
      <trkpt lat="37.704975" lon="-4.984698">
        <ele>199.334761</ele>
        <time>2020-08-13T09:33:37.537Z</time>
      </trkpt>
      <trkpt lat="37.704882" lon="-4.984715">
        <ele>199.622352</ele>
        <time>2020-08-13T09:33:41.496Z</time>
      </trkpt>
      <trkpt lat="37.704787" lon="-4.984685">
        <ele>199.922040</ele>
        <time>2020-08-13T09:33:52.508Z</time>
      </trkpt>
      <trkpt lat="37.704718" lon="-4.984610">
        <ele>200.200565</ele>
        <time>2020-08-13T09:34:14.489Z</time>
      </trkpt>
      <trkpt lat="37.704800" lon="-4.984562">
        <ele>200.409333</ele>
        <time>2020-08-13T09:34:32.509Z</time>
      </trkpt>
      <trkpt lat="37.704848" lon="-4.984662">
        <ele>200.618511</ele>
        <time>2020-08-13T09:34:41.525Z</time>
      </trkpt>
      <trkpt lat="37.704753" lon="-4.984641">
        <ele>200.836511</ele>
        <time>2020-08-13T09:35:40.500Z</time>
      </trkpt>
      <trkpt lat="37.704656" lon="-4.984677">
        <ele>201.065029</ele>
        <time>2020-08-13T09:35:48.502Z</time>
      </trkpt>
      <trkpt lat="37.704565" lon="-4.984688">
        <ele>201.271666</ele>
        <time>2020-08-13T09:35:57.499Z</time>
      </trkpt>
      <trkpt lat="37.704483" lon="-4.984735">
        <ele>201.475189</ele>
        <time>2020-08-13T09:36:15.516Z</time>
      </trkpt>
      <trkpt lat="37.704399" lon="-4.984808">
        <ele>201.705617</ele>
        <time>2020-08-13T09:36:24.502Z</time>
      </trkpt>
      <trkpt lat="37.704314" lon="-4.984877">
        <ele>201.933967</ele>
        <time>2020-08-13T09:36:32.505Z</time>
      </trkpt>
      <trkpt lat="37.704225" lon="-4.984850">
        <ele>202.140858</ele>
        <time>2020-08-13T09:36:43.511Z</time>
      </trkpt>
      <trkpt lat="37.703985" lon="-4.984893">
        <ele>202.688784</ele>
        <time>2020-08-13T09:39:11.506Z</time>
      </trkpt>
      <trkpt lat="37.703895" lon="-4.984946">
        <ele>202.913220</ele>
        <time>2020-08-13T09:39:15.489Z</time>
      </trkpt>
      <trkpt lat="37.703796" lon="-4.984979">
        <ele>203.144653</ele>
        <time>2020-08-13T09:39:19.502Z</time>
      </trkpt>
      <trkpt lat="37.703706" lon="-4.984988">
        <ele>203.348727</ele>
        <time>2020-08-13T09:39:22.496Z</time>
      </trkpt>
      <trkpt lat="37.703604" lon="-4.984986">
        <ele>203.579319</ele>
        <time>2020-08-13T09:39:25.493Z</time>
      </trkpt>
      <trkpt lat="37.703499" lon="-4.984985">
        <ele>203.816670</ele>
        <time>2020-08-13T09:39:28.518Z</time>
      </trkpt>
      <trkpt lat="37.703401" lon="-4.984993">
        <ele>204.038653</ele>
        <time>2020-08-13T09:39:31.493Z</time>
      </trkpt>
      <trkpt lat="37.703310" lon="-4.985023">
        <ele>204.251234</ele>
        <time>2020-08-13T09:39:34.499Z</time>
      </trkpt>
      <trkpt lat="37.703191" lon="-4.985035">
        <ele>204.538177</ele>
        <time>2020-08-13T09:39:38.497Z</time>
      </trkpt>
      <trkpt lat="37.703077" lon="-4.985017">
        <ele>204.816556</ele>
        <time>2020-08-13T09:39:42.495Z</time>
      </trkpt>
      <trkpt lat="37.702978" lon="-4.985040">
        <ele>205.060460</ele>
        <time>2020-08-13T09:39:46.514Z</time>
      </trkpt>
      <trkpt lat="37.702888" lon="-4.985052">
        <ele>205.279748</ele>
        <time>2020-08-13T09:40:12.517Z</time>
      </trkpt>
      <trkpt lat="37.702795" lon="-4.985075">
        <ele>205.509368</ele>
        <time>2020-08-13T09:40:39.484Z</time>
      </trkpt>
      <trkpt lat="37.702698" lon="-4.985091">
        <ele>205.746400</ele>
        <time>2020-08-13T09:40:42.504Z</time>
      </trkpt>
      <trkpt lat="37.702605" lon="-4.985110">
        <ele>205.974672</ele>
        <time>2020-08-13T09:40:45.492Z</time>
      </trkpt>
      <trkpt lat="37.702510" lon="-4.985127">
        <ele>206.207161</ele>
        <time>2020-08-13T09:40:48.507Z</time>
      </trkpt>
      <trkpt lat="37.702415" lon="-4.985145">
        <ele>206.439926</ele>
        <time>2020-08-13T09:40:51.502Z</time>
      </trkpt>
      <trkpt lat="37.702285" lon="-4.985142">
        <ele>206.754980</ele>
        <time>2020-08-13T09:40:55.502Z</time>
      </trkpt>
      <trkpt lat="37.702170" lon="-4.985162">
        <ele>207.036260</ele>
        <time>2020-08-13T09:40:58.506Z</time>
      </trkpt>
      <trkpt lat="37.702051" lon="-4.985190">
        <ele>207.329561</ele>
        <time>2020-08-13T09:41:01.502Z</time>
      </trkpt>
      <trkpt lat="37.701946" lon="-4.985221">
        <ele>207.590834</ele>
        <time>2020-08-13T09:41:04.501Z</time>
      </trkpt>
      <trkpt lat="37.701851" lon="-4.985212">
        <ele>207.821673</ele>
        <time>2020-08-13T09:41:07.500Z</time>
      </trkpt>
      <trkpt lat="37.701744" lon="-4.985197">
        <ele>208.082533</ele>
        <time>2020-08-13T09:41:11.497Z</time>
      </trkpt>
      <trkpt lat="37.701633" lon="-4.985232">
        <ele>208.359739</ele>
        <time>2020-08-13T09:41:15.494Z</time>
      </trkpt>
      <trkpt lat="37.701500" lon="-4.985262">
        <ele>208.630050</ele>
        <time>2020-08-13T09:41:18.495Z</time>
      </trkpt>
      <trkpt lat="37.701381" lon="-4.985277">
        <ele>208.555377</ele>
        <time>2020-08-13T09:41:20.502Z</time>
      </trkpt>
      <trkpt lat="37.701275" lon="-4.985281">
        <ele>208.489161</ele>
        <time>2020-08-13T09:41:22.496Z</time>
      </trkpt>
      <trkpt lat="37.701180" lon="-4.985302">
        <ele>208.428942</ele>
        <time>2020-08-13T09:41:24.496Z</time>
      </trkpt>
      <trkpt lat="37.701067" lon="-4.985345">
        <ele>208.355255</ele>
        <time>2020-08-13T09:41:27.514Z</time>
      </trkpt>
      <trkpt lat="37.700959" lon="-4.985372">
        <ele>208.286513</ele>
        <time>2020-08-13T09:41:30.500Z</time>
      </trkpt>
      <trkpt lat="37.700848" lon="-4.985381">
        <ele>208.217061</ele>
        <time>2020-08-13T09:41:33.500Z</time>
      </trkpt>
      <trkpt lat="37.700738" lon="-4.985415">
        <ele>208.146352</ele>
        <time>2020-08-13T09:41:36.499Z</time>
      </trkpt>
      <trkpt lat="37.700635" lon="-4.985431">
        <ele>208.081554</ele>
        <time>2020-08-13T09:41:39.505Z</time>
      </trkpt>
      <trkpt lat="37.700524" lon="-4.985436">
        <ele>208.012201</ele>
        <time>2020-08-13T09:41:42.505Z</time>
      </trkpt>
      <trkpt lat="37.700415" lon="-4.985445">
        <ele>207.943996</ele>
        <time>2020-08-13T09:41:45.489Z</time>
      </trkpt>
      <trkpt lat="37.700308" lon="-4.985461">
        <ele>207.876718</ele>
        <time>2020-08-13T09:41:48.505Z</time>
      </trkpt>
      <trkpt lat="37.700201" lon="-4.985480">
        <ele>207.809251</ele>
        <time>2020-08-13T09:41:51.497Z</time>
      </trkpt>
      <trkpt lat="37.700098" lon="-4.985495">
        <ele>207.744511</ele>
        <time>2020-08-13T09:41:54.497Z</time>
      </trkpt>
      <trkpt lat="37.700008" lon="-4.985503">
        <ele>207.688176</ele>
        <time>2020-08-13T09:41:57.498Z</time>
      </trkpt>
      <trkpt lat="37.699913" lon="-4.985511">
        <ele>207.628726</ele>
        <time>2020-08-13T09:42:00.508Z</time>
      </trkpt>
      <trkpt lat="37.699811" lon="-4.985531">
        <ele>207.564274</ele>
        <time>2020-08-13T09:42:03.497Z</time>
      </trkpt>
      <trkpt lat="37.699711" lon="-4.985546">
        <ele>207.524296</ele>
        <time>2020-08-13T09:42:06.494Z</time>
      </trkpt>
      <trkpt lat="37.699614" lon="-4.985559">
        <ele>207.544202</ele>
        <time>2020-08-13T09:42:09.505Z</time>
      </trkpt>
      <trkpt lat="37.699505" lon="-4.985582">
        <ele>207.566753</ele>
        <time>2020-08-13T09:42:12.498Z</time>
      </trkpt>
      <trkpt lat="37.699392" lon="-4.985598">
        <ele>207.589957</ele>
        <time>2020-08-13T09:42:15.512Z</time>
      </trkpt>
      <trkpt lat="37.699290" lon="-4.985598">
        <ele>207.610772</ele>
        <time>2020-08-13T09:42:18.513Z</time>
      </trkpt>
      <trkpt lat="37.699184" lon="-4.985611">
        <ele>207.632505</ele>
        <time>2020-08-13T09:42:21.497Z</time>
      </trkpt>
      <trkpt lat="37.699096" lon="-4.985647">
        <ele>207.651381</ele>
        <time>2020-08-13T09:42:24.482Z</time>
      </trkpt>
      <trkpt lat="37.699004" lon="-4.985684">
        <ele>207.671082</ele>
        <time>2020-08-13T09:42:27.502Z</time>
      </trkpt>
      <trkpt lat="37.698903" lon="-4.985705">
        <ele>207.691971</ele>
        <time>2020-08-13T09:42:30.507Z</time>
      </trkpt>
      <trkpt lat="37.698797" lon="-4.985718">
        <ele>207.713703</ele>
        <time>2020-08-13T09:42:33.498Z</time>
      </trkpt>
      <trkpt lat="37.698689" lon="-4.985747">
        <ele>207.736235</ele>
        <time>2020-08-13T09:42:36.498Z</time>
      </trkpt>
      <trkpt lat="37.698582" lon="-4.985784">
        <ele>207.758873</ele>
        <time>2020-08-13T09:42:39.501Z</time>
      </trkpt>
      <trkpt lat="37.698476" lon="-4.985813">
        <ele>207.781005</ele>
        <time>2020-08-13T09:42:42.497Z</time>
      </trkpt>
      <trkpt lat="37.698376" lon="-4.985846">
        <ele>207.802096</ele>
        <time>2020-08-13T09:42:45.498Z</time>
      </trkpt>
      <trkpt lat="37.698270" lon="-4.985884">
        <ele>207.824581</ele>
        <time>2020-08-13T09:42:48.513Z</time>
      </trkpt>
      <trkpt lat="37.698159" lon="-4.985929">
        <ele>207.848369</ele>
        <time>2020-08-13T09:42:51.497Z</time>
      </trkpt>
      <trkpt lat="37.698058" lon="-4.985973">
        <ele>207.870170</ele>
        <time>2020-08-13T09:42:54.502Z</time>
      </trkpt>
      <trkpt lat="37.697954" lon="-4.986004">
        <ele>207.841833</ele>
        <time>2020-08-13T09:42:57.504Z</time>
      </trkpt>
      <trkpt lat="37.697854" lon="-4.986010">
        <ele>207.698967</ele>
        <time>2020-08-13T09:43:00.494Z</time>
      </trkpt>
      <trkpt lat="37.697754" lon="-4.986024">
        <ele>207.555389</ele>
        <time>2020-08-13T09:43:03.497Z</time>
      </trkpt>
      <trkpt lat="37.697651" lon="-4.986049">
        <ele>207.405716</ele>
        <time>2020-08-13T09:43:06.503Z</time>
      </trkpt>
      <trkpt lat="37.697561" lon="-4.986092">
        <ele>207.268410</ele>
        <time>2020-08-13T09:43:09.505Z</time>
      </trkpt>
      <trkpt lat="37.697457" lon="-4.986124">
        <ele>207.115662</ele>
        <time>2020-08-13T09:43:12.496Z</time>
      </trkpt>
      <trkpt lat="37.697349" lon="-4.986155">
        <ele>206.957615</ele>
        <time>2020-08-13T09:43:15.499Z</time>
      </trkpt>
      <trkpt lat="37.697234" lon="-4.986187">
        <ele>206.789574</ele>
        <time>2020-08-13T09:43:18.499Z</time>
      </trkpt>
      <trkpt lat="37.697115" lon="-4.986238">
        <ele>206.610256</ele>
        <time>2020-08-13T09:43:21.481Z</time>
      </trkpt>
      <trkpt lat="37.697002" lon="-4.986281">
        <ele>206.441848</ele>
        <time>2020-08-13T09:43:24.496Z</time>
      </trkpt>
      <trkpt lat="37.696876" lon="-4.986327">
        <ele>206.254688</ele>
        <time>2020-08-13T09:43:27.498Z</time>
      </trkpt>
      <trkpt lat="37.696760" lon="-4.986367">
        <ele>206.083099</ele>
        <time>2020-08-13T09:43:30.499Z</time>
      </trkpt>
      <trkpt lat="37.696641" lon="-4.986390">
        <ele>205.911305</ele>
        <time>2020-08-13T09:43:33.487Z</time>
      </trkpt>
      <trkpt lat="37.696526" lon="-4.986429">
        <ele>205.741389</ele>
        <time>2020-08-13T09:43:36.492Z</time>
      </trkpt>
      <trkpt lat="37.696409" lon="-4.986469">
        <ele>205.568423</ele>
        <time>2020-08-13T09:43:39.501Z</time>
      </trkpt>
      <trkpt lat="37.696297" lon="-4.986500">
        <ele>205.404805</ele>
        <time>2020-08-13T09:43:42.513Z</time>
      </trkpt>
      <trkpt lat="37.696187" lon="-4.986526">
        <ele>205.288138</ele>
        <time>2020-08-13T09:43:45.496Z</time>
      </trkpt>
      <trkpt lat="37.696083" lon="-4.986556">
        <ele>205.224622</ele>
        <time>2020-08-13T09:43:48.498Z</time>
      </trkpt>
      <trkpt lat="37.695980" lon="-4.986591">
        <ele>205.161116</ele>
        <time>2020-08-13T09:43:51.502Z</time>
      </trkpt>
      <trkpt lat="37.695884" lon="-4.986626">
        <ele>205.101625</ele>
        <time>2020-08-13T09:43:54.495Z</time>
      </trkpt>
      <trkpt lat="37.695772" lon="-4.986660">
        <ele>205.033041</ele>
        <time>2020-08-13T09:43:57.502Z</time>
      </trkpt>
      <trkpt lat="37.695665" lon="-4.986697">
        <ele>204.966990</ele>
        <time>2020-08-13T09:44:00.501Z</time>
      </trkpt>
      <trkpt lat="37.695556" lon="-4.986742">
        <ele>204.898714</ele>
        <time>2020-08-13T09:44:03.496Z</time>
      </trkpt>
      <trkpt lat="37.695451" lon="-4.986766">
        <ele>204.835181</ele>
        <time>2020-08-13T09:44:06.506Z</time>
      </trkpt>
      <trkpt lat="37.695346" lon="-4.986790">
        <ele>204.771648</ele>
        <time>2020-08-13T09:44:09.496Z</time>
      </trkpt>
      <trkpt lat="37.695239" lon="-4.986819">
        <ele>204.706490</ele>
        <time>2020-08-13T09:44:12.508Z</time>
      </trkpt>
      <trkpt lat="37.695142" lon="-4.986855">
        <ele>204.646295</ele>
        <time>2020-08-13T09:44:15.511Z</time>
      </trkpt>
      <trkpt lat="37.695040" lon="-4.986885">
        <ele>204.583940</ele>
        <time>2020-08-13T09:44:18.502Z</time>
      </trkpt>
      <trkpt lat="37.694935" lon="-4.986898">
        <ele>204.521122</ele>
        <time>2020-08-13T09:44:21.495Z</time>
      </trkpt>
      <trkpt lat="37.694821" lon="-4.986908">
        <ele>204.453081</ele>
        <time>2020-08-13T09:44:24.499Z</time>
      </trkpt>
      <trkpt lat="37.694714" lon="-4.986919">
        <ele>204.389161</ele>
        <time>2020-08-13T09:44:27.508Z</time>
      </trkpt>
      <trkpt lat="37.694587" lon="-4.986910">
        <ele>204.313424</ele>
        <time>2020-08-13T09:44:30.496Z</time>
      </trkpt>
      <trkpt lat="37.694466" lon="-4.986911">
        <ele>204.315912</ele>
        <time>2020-08-13T09:44:33.497Z</time>
      </trkpt>
      <trkpt lat="37.694352" lon="-4.986932">
        <ele>205.018852</ele>
        <time>2020-08-13T09:44:36.493Z</time>
      </trkpt>
      <trkpt lat="37.694237" lon="-4.986947">
        <ele>205.724272</ele>
        <time>2020-08-13T09:44:39.499Z</time>
      </trkpt>
      <trkpt lat="37.694136" lon="-4.986928">
        <ele>206.347331</ele>
        <time>2020-08-13T09:44:42.493Z</time>
      </trkpt>
      <trkpt lat="37.694043" lon="-4.986919">
        <ele>206.916447</ele>
        <time>2020-08-13T09:44:45.494Z</time>
      </trkpt>
      <trkpt lat="37.693950" lon="-4.986911">
        <ele>207.485215</ele>
        <time>2020-08-13T09:44:48.494Z</time>
      </trkpt>
      <trkpt lat="37.693833" lon="-4.986893">
        <ele>208.204381</ele>
        <time>2020-08-13T09:44:51.494Z</time>
      </trkpt>
      <trkpt lat="37.693724" lon="-4.986867">
        <ele>208.881206</ele>
        <time>2020-08-13T09:44:54.496Z</time>
      </trkpt>
      <trkpt lat="37.693606" lon="-4.986846">
        <ele>209.608307</ele>
        <time>2020-08-13T09:44:57.512Z</time>
      </trkpt>
      <trkpt lat="37.693508" lon="-4.986829">
        <ele>210.211878</ele>
        <time>2020-08-13T09:44:59.508Z</time>
      </trkpt>
      <trkpt lat="37.693420" lon="-4.986798">
        <ele>210.769295</ele>
        <time>2020-08-13T09:45:01.498Z</time>
      </trkpt>
      <trkpt lat="37.693320" lon="-4.986752">
        <ele>211.418627</ele>
        <time>2020-08-13T09:45:04.499Z</time>
      </trkpt>
      <trkpt lat="37.693208" lon="-4.986738">
        <ele>212.105348</ele>
        <time>2020-08-13T09:45:07.501Z</time>
      </trkpt>
      <trkpt lat="37.693097" lon="-4.986754">
        <ele>212.787025</ele>
        <time>2020-08-13T09:45:10.492Z</time>
      </trkpt>
      <trkpt lat="37.692980" lon="-4.986742">
        <ele>213.503267</ele>
        <time>2020-08-13T09:45:13.516Z</time>
      </trkpt>
      <trkpt lat="37.692873" lon="-4.986674">
        <ele>214.234051</ele>
        <time>2020-08-13T09:45:16.494Z</time>
      </trkpt>
      <trkpt lat="37.692761" lon="-4.986638">
        <ele>214.939196</ele>
        <time>2020-08-13T09:45:19.497Z</time>
      </trkpt>
      <trkpt lat="37.692647" lon="-4.986604">
        <ele>215.094294</ele>
        <time>2020-08-13T09:45:22.504Z</time>
      </trkpt>
      <trkpt lat="37.692528" lon="-4.986579">
        <ele>214.875038</ele>
        <time>2020-08-13T09:45:25.493Z</time>
      </trkpt>
      <trkpt lat="37.692414" lon="-4.986545">
        <ele>214.662147</ele>
        <time>2020-08-13T09:45:28.502Z</time>
      </trkpt>
      <trkpt lat="37.692288" lon="-4.986497">
        <ele>214.422958</ele>
        <time>2020-08-13T09:45:31.495Z</time>
      </trkpt>
      <trkpt lat="37.692194" lon="-4.986430">
        <ele>214.226808</ele>
        <time>2020-08-13T09:45:33.498Z</time>
      </trkpt>
      <trkpt lat="37.692097" lon="-4.986373">
        <ele>214.032379</ele>
        <time>2020-08-13T09:45:35.498Z</time>
      </trkpt>
      <trkpt lat="37.692015" lon="-4.986316">
        <ele>213.862282</ele>
        <time>2020-08-13T09:45:37.496Z</time>
      </trkpt>
      <trkpt lat="37.691914" lon="-4.986277">
        <ele>213.670332</ele>
        <time>2020-08-13T09:45:40.500Z</time>
      </trkpt>
      <trkpt lat="37.691845" lon="-4.986164">
        <ele>213.465050</ele>
        <time>2020-08-13T09:45:42.495Z</time>
      </trkpt>
      <trkpt lat="37.691742" lon="-4.986168">
        <ele>213.277755</ele>
        <time>2020-08-13T09:45:45.503Z</time>
      </trkpt>
      <trkpt lat="37.691656" lon="-4.986266">
        <ele>213.067283</ele>
        <time>2020-08-13T09:45:48.501Z</time>
      </trkpt>
      <trkpt lat="37.691558" lon="-4.986303">
        <ele>212.881385</ele>
        <time>2020-08-13T09:45:51.498Z</time>
      </trkpt>
      <trkpt lat="37.691467" lon="-4.986259">
        <ele>212.704296</ele>
        <time>2020-08-13T09:45:54.505Z</time>
      </trkpt>
      <trkpt lat="37.691377" lon="-4.986271">
        <ele>212.539809</ele>
        <time>2020-08-13T09:45:57.496Z</time>
      </trkpt>
      <trkpt lat="37.691291" lon="-4.986342">
        <ele>212.353101</ele>
        <time>2020-08-13T09:46:00.496Z</time>
      </trkpt>
      <trkpt lat="37.691213" lon="-4.986399">
        <ele>212.189336</ele>
        <time>2020-08-13T09:46:03.498Z</time>
      </trkpt>
      <trkpt lat="37.691128" lon="-4.986452">
        <ele>212.017063</ele>
        <time>2020-08-13T09:46:06.501Z</time>
      </trkpt>
      <trkpt lat="37.691026" lon="-4.986455">
        <ele>211.583982</ele>
        <time>2020-08-13T09:46:09.503Z</time>
      </trkpt>
      <trkpt lat="37.690917" lon="-4.986442">
        <ele>210.981064</ele>
        <time>2020-08-13T09:46:12.499Z</time>
      </trkpt>
      <trkpt lat="37.690806" lon="-4.986436">
        <ele>210.369241</ele>
        <time>2020-08-13T09:46:15.495Z</time>
      </trkpt>
      <trkpt lat="37.690709" lon="-4.986445">
        <ele>209.833636</ele>
        <time>2020-08-13T09:46:18.498Z</time>
      </trkpt>
      <trkpt lat="37.690618" lon="-4.986452">
        <ele>209.331582</ele>
        <time>2020-08-13T09:46:21.492Z</time>
      </trkpt>
      <trkpt lat="37.690521" lon="-4.986461">
        <ele>208.795976</ele>
        <time>2020-08-13T09:46:24.498Z</time>
      </trkpt>
      <trkpt lat="37.690430" lon="-4.986461">
        <ele>208.294850</ele>
        <time>2020-08-13T09:46:27.482Z</time>
      </trkpt>
      <trkpt lat="37.690318" lon="-4.986494">
        <ele>207.661536</ele>
        <time>2020-08-13T09:46:31.494Z</time>
      </trkpt>
      <trkpt lat="37.690197" lon="-4.986523">
        <ele>206.983325</ele>
        <time>2020-08-13T09:46:34.494Z</time>
      </trkpt>
      <trkpt lat="37.690085" lon="-4.986575">
        <ele>206.326244</ele>
        <time>2020-08-13T09:46:37.484Z</time>
      </trkpt>
      <trkpt lat="37.689984" lon="-4.986613">
        <ele>205.745921</ele>
        <time>2020-08-13T09:46:40.496Z</time>
      </trkpt>
      <trkpt lat="37.689887" lon="-4.986651">
        <ele>205.186674</ele>
        <time>2020-08-13T09:46:43.501Z</time>
      </trkpt>
      <trkpt lat="37.689800" lon="-4.986688">
        <ele>204.681171</ele>
        <time>2020-08-13T09:46:46.507Z</time>
      </trkpt>
      <trkpt lat="37.689707" lon="-4.986694">
        <ele>204.168364</ele>
        <time>2020-08-13T09:46:49.494Z</time>
      </trkpt>
      <trkpt lat="37.689613" lon="-4.986718">
        <ele>203.640258</ele>
        <time>2020-08-13T09:46:52.496Z</time>
      </trkpt>
      <trkpt lat="37.689501" lon="-4.986743">
        <ele>203.013939</ele>
        <time>2020-08-13T09:46:56.495Z</time>
      </trkpt>
      <trkpt lat="37.689411" lon="-4.986779">
        <ele>202.494083</ele>
        <time>2020-08-13T09:47:00.496Z</time>
      </trkpt>
      <trkpt lat="37.689306" lon="-4.986826">
        <ele>202.136997</ele>
        <time>2020-08-13T09:47:04.492Z</time>
      </trkpt>
      <trkpt lat="37.689197" lon="-4.986828">
        <ele>202.452393</ele>
        <time>2020-08-13T09:47:07.495Z</time>
      </trkpt>
      <trkpt lat="37.689092" lon="-4.986832">
        <ele>202.756321</ele>
        <time>2020-08-13T09:47:10.496Z</time>
      </trkpt>
      <trkpt lat="37.689000" lon="-4.986893">
        <ele>203.056913</ele>
        <time>2020-08-13T09:47:14.495Z</time>
      </trkpt>
      <trkpt lat="37.688901" lon="-4.986953">
        <ele>203.374582</ele>
        <time>2020-08-13T09:47:18.497Z</time>
      </trkpt>
      <trkpt lat="37.688810" lon="-4.986964">
        <ele>203.639068</ele>
        <time>2020-08-13T09:47:21.497Z</time>
      </trkpt>
      <trkpt lat="37.688687" lon="-4.986969">
        <ele>203.995121</ele>
        <time>2020-08-13T09:47:25.497Z</time>
      </trkpt>
      <trkpt lat="37.688596" lon="-4.986994">
        <ele>204.264555</ele>
        <time>2020-08-13T09:47:28.499Z</time>
      </trkpt>
      <trkpt lat="37.688482" lon="-4.987007">
        <ele>204.595724</ele>
        <time>2020-08-13T09:47:32.498Z</time>
      </trkpt>
      <trkpt lat="37.688378" lon="-4.987018">
        <ele>204.897673</ele>
        <time>2020-08-13T09:47:35.495Z</time>
      </trkpt>
      <trkpt lat="37.688277" lon="-4.987049">
        <ele>205.198386</ele>
        <time>2020-08-13T09:47:38.506Z</time>
      </trkpt>
      <trkpt lat="37.688185" lon="-4.987063">
        <ele>205.466487</ele>
        <time>2020-08-13T09:47:41.501Z</time>
      </trkpt>
      <trkpt lat="37.688081" lon="-4.987082">
        <ele>205.770512</ele>
        <time>2020-08-13T09:47:45.497Z</time>
      </trkpt>
      <trkpt lat="37.687981" lon="-4.987093">
        <ele>206.060930</ele>
        <time>2020-08-13T09:47:49.499Z</time>
      </trkpt>
      <trkpt lat="37.687865" lon="-4.987102">
        <ele>206.397177</ele>
        <time>2020-08-13T09:47:53.496Z</time>
      </trkpt>
      <trkpt lat="37.687770" lon="-4.987110">
        <ele>206.672644</ele>
        <time>2020-08-13T09:47:56.498Z</time>
      </trkpt>
      <trkpt lat="37.687661" lon="-4.987106">
        <ele>206.988140</ele>
        <time>2020-08-13T09:47:59.506Z</time>
      </trkpt>
      <trkpt lat="37.687554" lon="-4.987096">
        <ele>207.309769</ele>
        <time>2020-08-13T09:48:02.495Z</time>
      </trkpt>
      <trkpt lat="37.687436" lon="-4.987080">
        <ele>207.736871</ele>
        <time>2020-08-13T09:48:05.506Z</time>
      </trkpt>
      <trkpt lat="37.687326" lon="-4.987066">
        <ele>208.134746</ele>
        <time>2020-08-13T09:48:08.497Z</time>
      </trkpt>
      <trkpt lat="37.687207" lon="-4.987056">
        <ele>208.563954</ele>
        <time>2020-08-13T09:48:11.506Z</time>
      </trkpt>
      <trkpt lat="37.687092" lon="-4.987020">
        <ele>208.990332</ele>
        <time>2020-08-13T09:48:14.502Z</time>
      </trkpt>
      <trkpt lat="37.686991" lon="-4.987005">
        <ele>209.356317</ele>
        <time>2020-08-13T09:48:17.497Z</time>
      </trkpt>
      <trkpt lat="37.686885" lon="-4.986979">
        <ele>209.744914</ele>
        <time>2020-08-13T09:48:20.501Z</time>
      </trkpt>
      <trkpt lat="37.686773" lon="-4.986947">
        <ele>210.158159</ele>
        <time>2020-08-13T09:48:23.512Z</time>
      </trkpt>
      <trkpt lat="37.686673" lon="-4.986920">
        <ele>210.526167</ele>
        <time>2020-08-13T09:48:26.498Z</time>
      </trkpt>
      <trkpt lat="37.686586" lon="-4.986876">
        <ele>210.863413</ele>
        <time>2020-08-13T09:48:29.499Z</time>
      </trkpt>
      <trkpt lat="37.686486" lon="-4.986823">
        <ele>211.253670</ele>
        <time>2020-08-13T09:48:32.498Z</time>
      </trkpt>
      <trkpt lat="37.686383" lon="-4.986780">
        <ele>211.644057</ele>
        <time>2020-08-13T09:48:35.486Z</time>
      </trkpt>
      <trkpt lat="37.686284" lon="-4.986727">
        <ele>212.030998</ele>
        <time>2020-08-13T09:48:38.496Z</time>
      </trkpt>
      <trkpt lat="37.686199" lon="-4.986669">
        <ele>212.378650</ele>
        <time>2020-08-13T09:48:41.497Z</time>
      </trkpt>
      <trkpt lat="37.686116" lon="-4.986606">
        <ele>212.727100</ele>
        <time>2020-08-13T09:48:44.498Z</time>
      </trkpt>
      <trkpt lat="37.686022" lon="-4.986559">
        <ele>213.090912</ele>
        <time>2020-08-13T09:48:47.498Z</time>
      </trkpt>
      <trkpt lat="37.685920" lon="-4.986522">
        <ele>213.472820</ele>
        <time>2020-08-13T09:48:50.494Z</time>
      </trkpt>
      <trkpt lat="37.685807" lon="-4.986468">
        <ele>213.671218</ele>
        <time>2020-08-13T09:48:53.494Z</time>
      </trkpt>
      <trkpt lat="37.685707" lon="-4.986404">
        <ele>213.550559</ele>
        <time>2020-08-13T09:48:56.498Z</time>
      </trkpt>
      <trkpt lat="37.685611" lon="-4.986313">
        <ele>213.421381</ele>
        <time>2020-08-13T09:48:59.495Z</time>
      </trkpt>
      <trkpt lat="37.685522" lon="-4.986243">
        <ele>213.308540</ele>
        <time>2020-08-13T09:49:02.499Z</time>
      </trkpt>
      <trkpt lat="37.685435" lon="-4.986193">
        <ele>213.205662</ele>
        <time>2020-08-13T09:49:05.515Z</time>
      </trkpt>
      <trkpt lat="37.685315" lon="-4.986160">
        <ele>213.073471</ele>
        <time>2020-08-13T09:49:09.504Z</time>
      </trkpt>
      <trkpt lat="37.685217" lon="-4.986140">
        <ele>212.966617</ele>
        <time>2020-08-13T09:49:12.501Z</time>
      </trkpt>
      <trkpt lat="37.685130" lon="-4.986098">
        <ele>212.866368</ele>
        <time>2020-08-13T09:49:15.499Z</time>
      </trkpt>
      <trkpt lat="37.685043" lon="-4.986064">
        <ele>212.768345</ele>
        <time>2020-08-13T09:49:18.493Z</time>
      </trkpt>
      <trkpt lat="37.684949" lon="-4.986009">
        <ele>212.656843</ele>
        <time>2020-08-13T09:49:21.486Z</time>
      </trkpt>
      <trkpt lat="37.684860" lon="-4.985910">
        <ele>212.529212</ele>
        <time>2020-08-13T09:49:25.512Z</time>
      </trkpt>
      <trkpt lat="37.684771" lon="-4.985818">
        <ele>212.405440</ele>
        <time>2020-08-13T09:49:28.497Z</time>
      </trkpt>
      <trkpt lat="37.684673" lon="-4.985730">
        <ele>212.276030</ele>
        <time>2020-08-13T09:49:31.482Z</time>
      </trkpt>
      <trkpt lat="37.684575" lon="-4.985661">
        <ele>212.155273</ele>
        <time>2020-08-13T09:49:33.495Z</time>
      </trkpt>
      <trkpt lat="37.684467" lon="-4.985695">
        <ele>212.035468</ele>
        <time>2020-08-13T09:49:36.487Z</time>
      </trkpt>
      <trkpt lat="37.684381" lon="-4.985569">
        <ele>211.893729</ele>
        <time>2020-08-13T09:49:40.493Z</time>
      </trkpt>
      <trkpt lat="37.684282" lon="-4.985537">
        <ele>211.801863</ele>
        <time>2020-08-13T09:49:43.497Z</time>
      </trkpt>
      <trkpt lat="37.684160" lon="-4.985525">
        <ele>212.078611</ele>
        <time>2020-08-13T09:49:47.498Z</time>
      </trkpt>
      <trkpt lat="37.684041" lon="-4.985539">
        <ele>212.348903</ele>
        <time>2020-08-13T09:49:50.494Z</time>
      </trkpt>
      <trkpt lat="37.683926" lon="-4.985557">
        <ele>212.610973</ele>
        <time>2020-08-13T09:49:53.505Z</time>
      </trkpt>
      <trkpt lat="37.683835" lon="-4.985605">
        <ele>212.833988</ele>
        <time>2020-08-13T09:49:56.497Z</time>
      </trkpt>
      <trkpt lat="37.683733" lon="-4.985666">
        <ele>213.089202</ele>
        <time>2020-08-13T09:49:59.513Z</time>
      </trkpt>
      <trkpt lat="37.683607" lon="-4.985681">
        <ele>213.375423</ele>
        <time>2020-08-13T09:50:02.498Z</time>
      </trkpt>
      <trkpt lat="37.683490" lon="-4.985684">
        <ele>213.640083</ele>
        <time>2020-08-13T09:50:05.499Z</time>
      </trkpt>
      <trkpt lat="37.683370" lon="-4.985678">
        <ele>213.911685</ele>
        <time>2020-08-13T09:50:08.495Z</time>
      </trkpt>
      <trkpt lat="37.683244" lon="-4.985661">
        <ele>214.198264</ele>
        <time>2020-08-13T09:50:11.496Z</time>
      </trkpt>
      <trkpt lat="37.683126" lon="-4.985655">
        <ele>214.465347</ele>
        <time>2020-08-13T09:50:14.507Z</time>
      </trkpt>
      <trkpt lat="37.683016" lon="-4.985651">
        <ele>214.714224</ele>
        <time>2020-08-13T09:50:17.496Z</time>
      </trkpt>
      <trkpt lat="37.682892" lon="-4.985649">
        <ele>214.994683</ele>
        <time>2020-08-13T09:50:20.496Z</time>
      </trkpt>
      <trkpt lat="37.682775" lon="-4.985640">
        <ele>215.259779</ele>
        <time>2020-08-13T09:50:23.497Z</time>
      </trkpt>
      <trkpt lat="37.682686" lon="-4.985698">
        <ele>215.486253</ele>
        <time>2020-08-13T09:50:26.499Z</time>
      </trkpt>
      <trkpt lat="37.682596" lon="-4.985701">
        <ele>215.689866</ele>
        <time>2020-08-13T09:50:29.506Z</time>
      </trkpt>
      <trkpt lat="37.682495" lon="-4.985729">
        <ele>215.903503</ele>
        <time>2020-08-13T09:50:32.504Z</time>
      </trkpt>
      <trkpt lat="37.682394" lon="-4.985793">
        <ele>216.081187</ele>
        <time>2020-08-13T09:50:35.504Z</time>
      </trkpt>
      <trkpt lat="37.682276" lon="-4.985831">
        <ele>216.272684</ele>
        <time>2020-08-13T09:50:38.499Z</time>
      </trkpt>
      <trkpt lat="37.682172" lon="-4.985866">
        <ele>216.441934</ele>
        <time>2020-08-13T09:50:41.504Z</time>
      </trkpt>
      <trkpt lat="37.682092" lon="-4.985921">
        <ele>216.585157</ele>
        <time>2020-08-13T09:50:44.493Z</time>
      </trkpt>
      <trkpt lat="37.682012" lon="-4.985992">
        <ele>216.738896</ele>
        <time>2020-08-13T09:50:47.497Z</time>
      </trkpt>
      <trkpt lat="37.681904" lon="-4.986076">
        <ele>216.938332</ele>
        <time>2020-08-13T09:50:50.507Z</time>
      </trkpt>
      <trkpt lat="37.681822" lon="-4.986138">
        <ele>217.088608</ele>
        <time>2020-08-13T09:50:52.499Z</time>
      </trkpt>
      <trkpt lat="37.681723" lon="-4.986206">
        <ele>217.265809</ele>
        <time>2020-08-13T09:50:55.495Z</time>
      </trkpt>
      <trkpt lat="37.681615" lon="-4.986215">
        <ele>217.436017</ele>
        <time>2020-08-13T09:50:59.498Z</time>
      </trkpt>
      <trkpt lat="37.681535" lon="-4.986270">
        <ele>217.579241</ele>
        <time>2020-08-13T09:51:02.492Z</time>
      </trkpt>
      <trkpt lat="37.681449" lon="-4.986332">
        <ele>217.734948</ele>
        <time>2020-08-13T09:51:05.499Z</time>
      </trkpt>
      <trkpt lat="37.681359" lon="-4.986407">
        <ele>217.904490</ele>
        <time>2020-08-13T09:51:08.496Z</time>
      </trkpt>
      <trkpt lat="37.681258" lon="-4.986461">
        <ele>218.076955</ele>
        <time>2020-08-13T09:51:11.496Z</time>
      </trkpt>
      <trkpt lat="37.681140" lon="-4.986506">
        <ele>218.270787</ele>
        <time>2020-08-13T09:51:14.494Z</time>
      </trkpt>
      <trkpt lat="37.680989" lon="-4.986565">
        <ele>218.519342</ele>
        <time>2020-08-13T09:51:17.494Z</time>
      </trkpt>
      <trkpt lat="37.680859" lon="-4.986613">
        <ele>218.708795</ele>
        <time>2020-08-13T09:51:20.494Z</time>
      </trkpt>
      <trkpt lat="37.680765" lon="-4.986682">
        <ele>218.793139</ele>
        <time>2020-08-13T09:51:23.497Z</time>
      </trkpt>
      <trkpt lat="37.680672" lon="-4.986725">
        <ele>218.869973</ele>
        <time>2020-08-13T09:51:27.499Z</time>
      </trkpt>
      <trkpt lat="37.680583" lon="-4.986748">
        <ele>218.940453</ele>
        <time>2020-08-13T09:51:29.497Z</time>
      </trkpt>
      <trkpt lat="37.680474" lon="-4.986792">
        <ele>219.029233</ele>
        <time>2020-08-13T09:51:32.497Z</time>
      </trkpt>
      <trkpt lat="37.680354" lon="-4.986838">
        <ele>219.126526</ele>
        <time>2020-08-13T09:51:35.500Z</time>
      </trkpt>
      <trkpt lat="37.680244" lon="-4.986886">
        <ele>219.216816</ele>
        <time>2020-08-13T09:51:38.495Z</time>
      </trkpt>
      <trkpt lat="37.680144" lon="-4.986929">
        <ele>219.298771</ele>
        <time>2020-08-13T09:51:41.505Z</time>
      </trkpt>
      <trkpt lat="37.680045" lon="-4.986979">
        <ele>219.381489</ele>
        <time>2020-08-13T09:51:44.497Z</time>
      </trkpt>
      <trkpt lat="37.679952" lon="-4.987039">
        <ele>219.462506</ele>
        <time>2020-08-13T09:51:47.505Z</time>
      </trkpt>
      <trkpt lat="37.679854" lon="-4.987090">
        <ele>219.544736</ele>
        <time>2020-08-13T09:51:50.503Z</time>
      </trkpt>
      <trkpt lat="37.679753" lon="-4.987123">
        <ele>219.625675</ele>
        <time>2020-08-13T09:51:53.495Z</time>
      </trkpt>
      <trkpt lat="37.679644" lon="-4.987159">
        <ele>219.713085</ele>
        <time>2020-08-13T09:51:56.514Z</time>
      </trkpt>
      <trkpt lat="37.679542" lon="-4.987198">
        <ele>219.795766</ele>
        <time>2020-08-13T09:51:59.503Z</time>
      </trkpt>
      <trkpt lat="37.679437" lon="-4.987229">
        <ele>219.879425</ele>
        <time>2020-08-13T09:52:02.501Z</time>
      </trkpt>
      <trkpt lat="37.679329" lon="-4.987246">
        <ele>219.963865</ele>
        <time>2020-08-13T09:52:05.503Z</time>
      </trkpt>
      <trkpt lat="37.679222" lon="-4.987271">
        <ele>220.048289</ele>
        <time>2020-08-13T09:52:08.503Z</time>
      </trkpt>
      <trkpt lat="37.679111" lon="-4.987285">
        <ele>220.235474</ele>
        <time>2020-08-13T09:52:11.493Z</time>
      </trkpt>
      <trkpt lat="37.679007" lon="-4.987294">
        <ele>220.468571</ele>
        <time>2020-08-13T09:52:14.512Z</time>
      </trkpt>
      <trkpt lat="37.678904" lon="-4.987326">
        <ele>220.705747</ele>
        <time>2020-08-13T09:52:17.515Z</time>
      </trkpt>
      <trkpt lat="37.678792" lon="-4.987336">
        <ele>220.956812</ele>
        <time>2020-08-13T09:52:20.491Z</time>
      </trkpt>
      <trkpt lat="37.678678" lon="-4.987330">
        <ele>221.211946</ele>
        <time>2020-08-13T09:52:23.502Z</time>
      </trkpt>
      <trkpt lat="37.678574" lon="-4.987318">
        <ele>221.445465</ele>
        <time>2020-08-13T09:52:26.492Z</time>
      </trkpt>
      <trkpt lat="37.678457" lon="-4.987310">
        <ele>221.707469</ele>
        <time>2020-08-13T09:52:29.495Z</time>
      </trkpt>
      <trkpt lat="37.678346" lon="-4.987291">
        <ele>221.957941</ele>
        <time>2020-08-13T09:52:32.497Z</time>
      </trkpt>
      <trkpt lat="37.678237" lon="-4.987262">
        <ele>222.207018</ele>
        <time>2020-08-13T09:52:35.505Z</time>
      </trkpt>
      <trkpt lat="37.678124" lon="-4.987240">
        <ele>222.462676</ele>
        <time>2020-08-13T09:52:38.499Z</time>
      </trkpt>
      <trkpt lat="37.678010" lon="-4.987208">
        <ele>222.723804</ele>
        <time>2020-08-13T09:52:41.490Z</time>
      </trkpt>
      <trkpt lat="37.677898" lon="-4.987162">
        <ele>222.987144</ele>
        <time>2020-08-13T09:52:44.502Z</time>
      </trkpt>
      <trkpt lat="37.677800" lon="-4.987138">
        <ele>223.210358</ele>
        <time>2020-08-13T09:52:47.515Z</time>
      </trkpt>
      <trkpt lat="37.677702" lon="-4.987105">
        <ele>223.437142</ele>
        <time>2020-08-13T09:52:50.494Z</time>
      </trkpt>
      <trkpt lat="37.677601" lon="-4.987075">
        <ele>223.669142</ele>
        <time>2020-08-13T09:52:53.503Z</time>
      </trkpt>
      <trkpt lat="37.677498" lon="-4.987031">
        <ele>223.912266</ele>
        <time>2020-08-13T09:52:56.502Z</time>
      </trkpt>
      <trkpt lat="37.677391" lon="-4.986977">
        <ele>224.085423</ele>
        <time>2020-08-13T09:52:59.497Z</time>
      </trkpt>
      <trkpt lat="37.677280" lon="-4.986952">
        <ele>224.017907</ele>
        <time>2020-08-13T09:53:02.495Z</time>
      </trkpt>
      <trkpt lat="37.677168" lon="-4.986919">
        <ele>223.949040</ele>
        <time>2020-08-13T09:53:05.503Z</time>
      </trkpt>
      <trkpt lat="37.677057" lon="-4.986890">
        <ele>223.881166</ele>
        <time>2020-08-13T09:53:08.495Z</time>
      </trkpt>
      <trkpt lat="37.676961" lon="-4.986867">
        <ele>223.822656</ele>
        <time>2020-08-13T09:53:11.497Z</time>
      </trkpt>
      <trkpt lat="37.676847" lon="-4.986816">
        <ele>223.750238</ele>
        <time>2020-08-13T09:53:15.516Z</time>
      </trkpt>
      <trkpt lat="37.676753" lon="-4.986800">
        <ele>223.693442</ele>
        <time>2020-08-13T09:53:18.494Z</time>
      </trkpt>
      <trkpt lat="37.676661" lon="-4.986785">
        <ele>223.637894</ele>
        <time>2020-08-13T09:53:21.497Z</time>
      </trkpt>
      <trkpt lat="37.676547" lon="-4.986743">
        <ele>223.566787</ele>
        <time>2020-08-13T09:53:25.495Z</time>
      </trkpt>
      <trkpt lat="37.676450" lon="-4.986700">
        <ele>223.505230</ele>
        <time>2020-08-13T09:53:28.491Z</time>
      </trkpt>
      <trkpt lat="37.676352" lon="-4.986654">
        <ele>223.442628</ele>
        <time>2020-08-13T09:53:32.511Z</time>
      </trkpt>
      <trkpt lat="37.676250" lon="-4.986591">
        <ele>223.374642</ele>
        <time>2020-08-13T09:53:36.499Z</time>
      </trkpt>
      <trkpt lat="37.676140" lon="-4.986577">
        <ele>223.308439</ele>
        <time>2020-08-13T09:53:40.515Z</time>
      </trkpt>
      <trkpt lat="37.676039" lon="-4.986559">
        <ele>223.247360</ele>
        <time>2020-08-13T09:53:43.503Z</time>
      </trkpt>
      <trkpt lat="37.675914" lon="-4.986563">
        <ele>223.172485</ele>
        <time>2020-08-13T09:53:47.499Z</time>
      </trkpt>
      <trkpt lat="37.675818" lon="-4.986533">
        <ele>223.113267</ele>
        <time>2020-08-13T09:53:50.498Z</time>
      </trkpt>
      <trkpt lat="37.675719" lon="-4.986488">
        <ele>223.050264</ele>
        <time>2020-08-13T09:53:53.492Z</time>
      </trkpt>
      <trkpt lat="37.675626" lon="-4.986437">
        <ele>223.014082</ele>
        <time>2020-08-13T09:53:56.483Z</time>
      </trkpt>
      <trkpt lat="37.675520" lon="-4.986413">
        <ele>222.992735</ele>
        <time>2020-08-13T09:54:00.485Z</time>
      </trkpt>
      <trkpt lat="37.675429" lon="-4.986390">
        <ele>222.974338</ele>
        <time>2020-08-13T09:54:03.496Z</time>
      </trkpt>
      <trkpt lat="37.675337" lon="-4.986336">
        <ele>222.954229</ele>
        <time>2020-08-13T09:54:06.496Z</time>
      </trkpt>
      <trkpt lat="37.675226" lon="-4.986280">
        <ele>222.930536</ele>
        <time>2020-08-13T09:54:10.501Z</time>
      </trkpt>
      <trkpt lat="37.675135" lon="-4.986236">
        <ele>222.911221</ele>
        <time>2020-08-13T09:54:13.498Z</time>
      </trkpt>
      <trkpt lat="37.675029" lon="-4.986192">
        <ele>222.889104</ele>
        <time>2020-08-13T09:54:16.494Z</time>
      </trkpt>
      <trkpt lat="37.674902" lon="-4.986143">
        <ele>222.862780</ele>
        <time>2020-08-13T09:54:19.494Z</time>
      </trkpt>
      <trkpt lat="37.674754" lon="-4.986150">
        <ele>222.833422</ele>
        <time>2020-08-13T09:54:21.492Z</time>
      </trkpt>
      <trkpt lat="37.674657" lon="-4.986130">
        <ele>222.813939</ele>
        <time>2020-08-13T09:54:28.491Z</time>
      </trkpt>
      <trkpt lat="37.674554" lon="-4.986133">
        <ele>222.793515</ele>
        <time>2020-08-13T09:54:34.494Z</time>
      </trkpt>
      <trkpt lat="37.674440" lon="-4.986155">
        <ele>222.770655</ele>
        <time>2020-08-13T09:54:38.498Z</time>
      </trkpt>
      <trkpt lat="37.674301" lon="-4.986216">
        <ele>222.741486</ele>
        <time>2020-08-13T09:54:39.497Z</time>
      </trkpt>
      <trkpt lat="37.674161" lon="-4.986228">
        <ele>222.713670</ele>
        <time>2020-08-13T09:54:41.494Z</time>
      </trkpt>
      <trkpt lat="37.674060" lon="-4.986134">
        <ele>222.688802</ele>
        <time>2020-08-13T09:54:43.496Z</time>
      </trkpt>
      <trkpt lat="37.673982" lon="-4.985992">
        <ele>222.659175</ele>
        <time>2020-08-13T09:54:45.496Z</time>
      </trkpt>
      <trkpt lat="37.673878" lon="-4.985889">
        <ele>222.624756</ele>
        <time>2020-08-13T09:54:47.499Z</time>
      </trkpt>
      <trkpt lat="37.673773" lon="-4.985774">
        <ele>222.588562</ele>
        <time>2020-08-13T09:54:49.517Z</time>
      </trkpt>
      <trkpt lat="37.673696" lon="-4.985688">
        <ele>222.561793</ele>
        <time>2020-08-13T09:54:51.502Z</time>
      </trkpt>
      <trkpt lat="37.673599" lon="-4.985609">
        <ele>222.531734</ele>
        <time>2020-08-13T09:54:53.491Z</time>
      </trkpt>
      <trkpt lat="37.673498" lon="-4.985525">
        <ele>222.500239</ele>
        <time>2020-08-13T09:54:55.499Z</time>
      </trkpt>
      <trkpt lat="37.673381" lon="-4.985465">
        <ele>222.467350</ele>
        <time>2020-08-13T09:54:58.495Z</time>
      </trkpt>
      <trkpt lat="37.673255" lon="-4.985387">
        <ele>222.430804</ele>
        <time>2020-08-13T09:55:02.494Z</time>
      </trkpt>
      <trkpt lat="37.673138" lon="-4.985333">
        <ele>222.398360</ele>
        <time>2020-08-13T09:55:05.506Z</time>
      </trkpt>
      <trkpt lat="37.673024" lon="-4.985309">
        <ele>222.368258</ele>
        <time>2020-08-13T09:55:08.493Z</time>
      </trkpt>
      <trkpt lat="37.672935" lon="-4.985368">
        <ele>222.342080</ele>
        <time>2020-08-13T09:55:11.504Z</time>
      </trkpt>
      <trkpt lat="37.672858" lon="-4.985447">
        <ele>222.316244</ele>
        <time>2020-08-13T09:55:14.485Z</time>
      </trkpt>
      <trkpt lat="37.672758" lon="-4.985506">
        <ele>222.287498</ele>
        <time>2020-08-13T09:55:18.501Z</time>
      </trkpt>
      <trkpt lat="37.672669" lon="-4.985557">
        <ele>222.262044</ele>
        <time>2020-08-13T09:55:21.492Z</time>
      </trkpt>
      <trkpt lat="37.672607" lon="-4.985645">
        <ele>222.237756</ele>
        <time>2020-08-13T09:55:23.506Z</time>
      </trkpt>
      <trkpt lat="37.672541" lon="-4.985757">
        <ele>222.208969</ele>
        <time>2020-08-13T09:55:26.494Z</time>
      </trkpt>
      <trkpt lat="37.672497" lon="-4.985873">
        <ele>222.193602</ele>
        <time>2020-08-13T09:55:30.496Z</time>
      </trkpt>
      <trkpt lat="37.672441" lon="-4.985996">
        <ele>222.181755</ele>
        <time>2020-08-13T09:55:35.493Z</time>
      </trkpt>
      <trkpt lat="37.672371" lon="-4.986080">
        <ele>222.171571</ele>
        <time>2020-08-13T09:55:40.499Z</time>
      </trkpt>
      <trkpt lat="37.672283" lon="-4.986115">
        <ele>222.161840</ele>
        <time>2020-08-13T09:55:45.498Z</time>
      </trkpt>
      <trkpt lat="37.672190" lon="-4.986162">
        <ele>222.151274</ele>
        <time>2020-08-13T09:55:51.502Z</time>
      </trkpt>
      <trkpt lat="37.672092" lon="-4.986184">
        <ele>222.140775</ele>
        <time>2020-08-13T09:55:56.510Z</time>
      </trkpt>
      <trkpt lat="37.671997" lon="-4.986230">
        <ele>222.130043</ele>
        <time>2020-08-13T09:56:00.495Z</time>
      </trkpt>
      <trkpt lat="37.671898" lon="-4.986286">
        <ele>222.118602</ele>
        <time>2020-08-13T09:56:04.501Z</time>
      </trkpt>
      <trkpt lat="37.671817" lon="-4.986337">
        <ele>222.109055</ele>
        <time>2020-08-13T09:56:07.493Z</time>
      </trkpt>
      <trkpt lat="37.671714" lon="-4.986384">
        <ele>222.097504</ele>
        <time>2020-08-13T09:56:10.499Z</time>
      </trkpt>
      <trkpt lat="37.671603" lon="-4.986411">
        <ele>222.085580</ele>
        <time>2020-08-13T09:56:13.487Z</time>
      </trkpt>
      <trkpt lat="37.671506" lon="-4.986442">
        <ele>222.075026</ele>
        <time>2020-08-13T09:56:16.498Z</time>
      </trkpt>
      <trkpt lat="37.671411" lon="-4.986493">
        <ele>222.064138</ele>
        <time>2020-08-13T09:56:19.487Z</time>
      </trkpt>
      <trkpt lat="37.671301" lon="-4.986554">
        <ele>222.051466</ele>
        <time>2020-08-13T09:56:22.492Z</time>
      </trkpt>
      <trkpt lat="37.671195" lon="-4.986604">
        <ele>222.039531</ele>
        <time>2020-08-13T09:56:25.500Z</time>
      </trkpt>
      <trkpt lat="37.671093" lon="-4.986648">
        <ele>222.028162</ele>
        <time>2020-08-13T09:56:28.492Z</time>
      </trkpt>
      <trkpt lat="37.670987" lon="-4.986698">
        <ele>222.016227</ele>
        <time>2020-08-13T09:56:31.491Z</time>
      </trkpt>
      <trkpt lat="37.670904" lon="-4.986748">
        <ele>222.034736</ele>
        <time>2020-08-13T09:56:33.495Z</time>
      </trkpt>
      <trkpt lat="37.670820" lon="-4.986807">
        <ele>222.082496</ele>
        <time>2020-08-13T09:56:35.499Z</time>
      </trkpt>
      <trkpt lat="37.670708" lon="-4.986870">
        <ele>222.143420</ele>
        <time>2020-08-13T09:56:38.492Z</time>
      </trkpt>
      <trkpt lat="37.670619" lon="-4.986916">
        <ele>222.191205</ele>
        <time>2020-08-13T09:56:40.497Z</time>
      </trkpt>
      <trkpt lat="37.670522" lon="-4.986933">
        <ele>222.239870</ele>
        <time>2020-08-13T09:56:42.496Z</time>
      </trkpt>
      <trkpt lat="37.670435" lon="-4.986981">
        <ele>222.287046</ele>
        <time>2020-08-13T09:56:44.500Z</time>
      </trkpt>
      <trkpt lat="37.670322" lon="-4.987004">
        <ele>222.343924</ele>
        <time>2020-08-13T09:56:46.505Z</time>
      </trkpt>
      <trkpt lat="37.670194" lon="-4.987065">
        <ele>222.411907</ele>
        <time>2020-08-13T09:56:49.490Z</time>
      </trkpt>
      <trkpt lat="37.670097" lon="-4.987088">
        <ele>222.460952</ele>
        <time>2020-08-13T09:56:51.494Z</time>
      </trkpt>
      <trkpt lat="37.669984" lon="-4.987141">
        <ele>222.520851</ele>
        <time>2020-08-13T09:56:54.478Z</time>
      </trkpt>
      <trkpt lat="37.669865" lon="-4.987206">
        <ele>222.585277</ele>
        <time>2020-08-13T09:56:57.495Z</time>
      </trkpt>
      <trkpt lat="37.669724" lon="-4.987216">
        <ele>222.655455</ele>
        <time>2020-08-13T09:57:00.492Z</time>
      </trkpt>
      <trkpt lat="37.669605" lon="-4.987216">
        <ele>222.714591</ele>
        <time>2020-08-13T09:57:02.504Z</time>
      </trkpt>
      <trkpt lat="37.669535" lon="-4.987291">
        <ele>222.760201</ele>
        <time>2020-08-13T09:57:04.492Z</time>
      </trkpt>
      <trkpt lat="37.669451" lon="-4.987352">
        <ele>222.808349</ele>
        <time>2020-08-13T09:57:06.492Z</time>
      </trkpt>
      <trkpt lat="37.669330" lon="-4.987319">
        <ele>222.869863</ele>
        <time>2020-08-13T09:57:08.496Z</time>
      </trkpt>
      <trkpt lat="37.669237" lon="-4.987374">
        <ele>222.888092</ele>
        <time>2020-08-13T09:57:11.492Z</time>
      </trkpt>
      <trkpt lat="37.669146" lon="-4.987458">
        <ele>222.826441</ele>
        <time>2020-08-13T09:57:15.486Z</time>
      </trkpt>
      <trkpt lat="37.669042" lon="-4.987449">
        <ele>222.769418</ele>
        <time>2020-08-13T09:57:18.492Z</time>
      </trkpt>
      <trkpt lat="37.668930" lon="-4.987527">
        <ele>222.699459</ele>
        <time>2020-08-13T09:57:21.497Z</time>
      </trkpt>
      <trkpt lat="37.668827" lon="-4.987585">
        <ele>222.637772</ele>
        <time>2020-08-13T09:57:24.498Z</time>
      </trkpt>
      <trkpt lat="37.668728" lon="-4.987609">
        <ele>222.582629</ele>
        <time>2020-08-13T09:57:27.500Z</time>
      </trkpt>
      <trkpt lat="37.668635" lon="-4.987653">
        <ele>222.528306</ele>
        <time>2020-08-13T09:57:30.499Z</time>
      </trkpt>
      <trkpt lat="37.668539" lon="-4.987712">
        <ele>222.469908</ele>
        <time>2020-08-13T09:57:33.498Z</time>
      </trkpt>
      <trkpt lat="37.668444" lon="-4.987765">
        <ele>222.413099</ele>
        <time>2020-08-13T09:57:36.501Z</time>
      </trkpt>
      <trkpt lat="37.668354" lon="-4.987832">
        <ele>222.355955</ele>
        <time>2020-08-13T09:57:39.492Z</time>
      </trkpt>
      <trkpt lat="37.668256" lon="-4.987883">
        <ele>222.297977</ele>
        <time>2020-08-13T09:57:42.495Z</time>
      </trkpt>
      <trkpt lat="37.668160" lon="-4.987923">
        <ele>222.242681</ele>
        <time>2020-08-13T09:57:45.496Z</time>
      </trkpt>
      <trkpt lat="37.668043" lon="-4.987968">
        <ele>222.175779</ele>
        <time>2020-08-13T09:57:48.496Z</time>
      </trkpt>
      <trkpt lat="37.667926" lon="-4.988000">
        <ele>222.110295</ele>
        <time>2020-08-13T09:57:51.490Z</time>
      </trkpt>
      <trkpt lat="37.667819" lon="-4.988053">
        <ele>222.047426</ele>
        <time>2020-08-13T09:57:54.493Z</time>
      </trkpt>
      <trkpt lat="37.667698" lon="-4.988108">
        <ele>221.977082</ele>
        <time>2020-08-13T09:57:57.487Z</time>
      </trkpt>
      <trkpt lat="37.667564" lon="-4.988139">
        <ele>221.940742</ele>
        <time>2020-08-13T09:58:00.504Z</time>
      </trkpt>
      <trkpt lat="37.667436" lon="-4.988187">
        <ele>222.015860</ele>
        <time>2020-08-13T09:58:03.494Z</time>
      </trkpt>
      <trkpt lat="37.667315" lon="-4.988253">
        <ele>222.090008</ele>
        <time>2020-08-13T09:58:06.499Z</time>
      </trkpt>
      <trkpt lat="37.667189" lon="-4.988280">
        <ele>222.161907</ele>
        <time>2020-08-13T09:58:09.489Z</time>
      </trkpt>
      <trkpt lat="37.667065" lon="-4.988317">
        <ele>222.233589</ele>
        <time>2020-08-13T09:58:12.501Z</time>
      </trkpt>
      <trkpt lat="37.666945" lon="-4.988367">
        <ele>222.304677</ele>
        <time>2020-08-13T09:58:15.496Z</time>
      </trkpt>
      <trkpt lat="37.666823" lon="-4.988420">
        <ele>222.377258</ele>
        <time>2020-08-13T09:58:18.499Z</time>
      </trkpt>
      <trkpt lat="37.666728" lon="-4.988433">
        <ele>222.431017</ele>
        <time>2020-08-13T09:58:20.504Z</time>
      </trkpt>
      <trkpt lat="37.666613" lon="-4.988478">
        <ele>222.498748</ele>
        <time>2020-08-13T09:58:23.493Z</time>
      </trkpt>
      <trkpt lat="37.666513" lon="-4.988528">
        <ele>222.559254</ele>
        <time>2020-08-13T09:58:25.501Z</time>
      </trkpt>
      <trkpt lat="37.666396" lon="-4.988536">
        <ele>222.625174</ele>
        <time>2020-08-13T09:58:27.497Z</time>
      </trkpt>
      <trkpt lat="37.666302" lon="-4.988527">
        <ele>222.678209</ele>
        <time>2020-08-13T09:58:29.501Z</time>
      </trkpt>
      <trkpt lat="37.666177" lon="-4.988587">
        <ele>222.753439</ele>
        <time>2020-08-13T09:58:32.496Z</time>
      </trkpt>
      <trkpt lat="37.666085" lon="-4.988644">
        <ele>222.811087</ele>
        <time>2020-08-13T09:58:34.495Z</time>
      </trkpt>
      <trkpt lat="37.666000" lon="-4.988720">
        <ele>222.869673</ele>
        <time>2020-08-13T09:58:36.502Z</time>
      </trkpt>
      <trkpt lat="37.665919" lon="-4.988782">
        <ele>222.922955</ele>
        <time>2020-08-13T09:58:38.503Z</time>
      </trkpt>
      <trkpt lat="37.665807" lon="-4.988800">
        <ele>222.996800</ele>
        <time>2020-08-13T09:58:40.491Z</time>
      </trkpt>
      <trkpt lat="37.665711" lon="-4.988846">
        <ele>223.065780</ele>
        <time>2020-08-13T09:58:42.497Z</time>
      </trkpt>
      <trkpt lat="37.665595" lon="-4.988923">
        <ele>223.153816</ele>
        <time>2020-08-13T09:58:45.510Z</time>
      </trkpt>
      <trkpt lat="37.665466" lon="-4.988980">
        <ele>223.245631</ele>
        <time>2020-08-13T09:58:48.502Z</time>
      </trkpt>
      <trkpt lat="37.665368" lon="-4.989030">
        <ele>223.316637</ele>
        <time>2020-08-13T09:58:50.497Z</time>
      </trkpt>
      <trkpt lat="37.665271" lon="-4.989047">
        <ele>223.382429</ele>
        <time>2020-08-13T09:58:52.498Z</time>
      </trkpt>
      <trkpt lat="37.665174" lon="-4.989098">
        <ele>223.453016</ele>
        <time>2020-08-13T09:58:54.494Z</time>
      </trkpt>
      <trkpt lat="37.665079" lon="-4.989148">
        <ele>223.522158</ele>
        <time>2020-08-13T09:58:56.495Z</time>
      </trkpt>
      <trkpt lat="37.664994" lon="-4.989219">
        <ele>223.590618</ele>
        <time>2020-08-13T09:58:58.502Z</time>
      </trkpt>
      <trkpt lat="37.664894" lon="-4.989244">
        <ele>223.659104</ele>
        <time>2020-08-13T09:59:00.497Z</time>
      </trkpt>
      <trkpt lat="37.664785" lon="-4.989305">
        <ele>223.739198</ele>
        <time>2020-08-13T09:59:02.501Z</time>
      </trkpt>
      <trkpt lat="37.664679" lon="-4.989367">
        <ele>223.817675</ele>
        <time>2020-08-13T09:59:04.497Z</time>
      </trkpt>
      <trkpt lat="37.664583" lon="-4.989421">
        <ele>223.888276</ele>
        <time>2020-08-13T09:59:06.501Z</time>
      </trkpt>
      <trkpt lat="37.664458" lon="-4.989449">
        <ele>223.973565</ele>
        <time>2020-08-13T09:59:08.498Z</time>
      </trkpt>
      <trkpt lat="37.664365" lon="-4.989495">
        <ele>224.040664</ele>
        <time>2020-08-13T09:59:10.498Z</time>
      </trkpt>
      <trkpt lat="37.664278" lon="-4.989544">
        <ele>224.104659</ele>
        <time>2020-08-13T09:59:12.497Z</time>
      </trkpt>
      <trkpt lat="37.664192" lon="-4.989596">
        <ele>224.124232</ele>
        <time>2020-08-13T09:59:14.491Z</time>
      </trkpt>
      <trkpt lat="37.664073" lon="-4.989656">
        <ele>224.068701</ele>
        <time>2020-08-13T09:59:17.499Z</time>
      </trkpt>
      <trkpt lat="37.663981" lon="-4.989706">
        <ele>224.025295</ele>
        <time>2020-08-13T09:59:19.496Z</time>
      </trkpt>
      <trkpt lat="37.663898" lon="-4.989772">
        <ele>223.982789</ele>
        <time>2020-08-13T09:59:21.485Z</time>
      </trkpt>
      <trkpt lat="37.663804" lon="-4.989805">
        <ele>223.940505</ele>
        <time>2020-08-13T09:59:23.493Z</time>
      </trkpt>
      <trkpt lat="37.663694" lon="-4.989868">
        <ele>223.888160</ele>
        <time>2020-08-13T09:59:25.496Z</time>
      </trkpt>
      <trkpt lat="37.663615" lon="-4.989933">
        <ele>223.847299</ele>
        <time>2020-08-13T09:59:27.495Z</time>
      </trkpt>
      <trkpt lat="37.663498" lon="-4.990023">
        <ele>223.787929</ele>
        <time>2020-08-13T09:59:30.503Z</time>
      </trkpt>
      <trkpt lat="37.663399" lon="-4.990070">
        <ele>223.742092</ele>
        <time>2020-08-13T09:59:32.491Z</time>
      </trkpt>
      <trkpt lat="37.663318" lon="-4.990139">
        <ele>223.699750</ele>
        <time>2020-08-13T09:59:34.495Z</time>
      </trkpt>
      <trkpt lat="37.663232" lon="-4.990194">
        <ele>223.657973</ele>
        <time>2020-08-13T09:59:36.497Z</time>
      </trkpt>
      <trkpt lat="37.663142" lon="-4.990210">
        <ele>223.618583</ele>
        <time>2020-08-13T09:59:38.493Z</time>
      </trkpt>
      <trkpt lat="37.663027" lon="-4.990305">
        <ele>223.559030</ele>
        <time>2020-08-13T09:59:41.500Z</time>
      </trkpt>
      <trkpt lat="37.662929" lon="-4.990391">
        <ele>223.507314</ele>
        <time>2020-08-13T09:59:43.499Z</time>
      </trkpt>
      <trkpt lat="37.662829" lon="-4.990429">
        <ele>223.462055</ele>
        <time>2020-08-13T09:59:45.485Z</time>
      </trkpt>
      <trkpt lat="37.662711" lon="-4.990492">
        <ele>223.406533</ele>
        <time>2020-08-13T09:59:48.496Z</time>
      </trkpt>
      <trkpt lat="37.662608" lon="-4.990576">
        <ele>223.402874</ele>
        <time>2020-08-13T09:59:51.488Z</time>
      </trkpt>
      <trkpt lat="37.662529" lon="-4.990645">
        <ele>223.596890</ele>
        <time>2020-08-13T09:59:53.497Z</time>
      </trkpt>
      <trkpt lat="37.662441" lon="-4.990692">
        <ele>223.789891</ele>
        <time>2020-08-13T09:59:55.500Z</time>
      </trkpt>
      <trkpt lat="37.662335" lon="-4.990764">
        <ele>224.033011</ele>
        <time>2020-08-13T09:59:58.496Z</time>
      </trkpt>
      <trkpt lat="37.662215" lon="-4.990814">
        <ele>224.288265</ele>
        <time>2020-08-13T10:00:01.515Z</time>
      </trkpt>
      <trkpt lat="37.662147" lon="-4.990910">
        <ele>224.494266</ele>
        <time>2020-08-13T10:00:03.501Z</time>
      </trkpt>
      <trkpt lat="37.662058" lon="-4.990975">
        <ele>224.701937</ele>
        <time>2020-08-13T10:00:05.500Z</time>
      </trkpt>
      <trkpt lat="37.661964" lon="-4.990998">
        <ele>224.895352</ele>
        <time>2020-08-13T10:00:07.496Z</time>
      </trkpt>
      <trkpt lat="37.661829" lon="-4.991058">
        <ele>225.184448</ele>
        <time>2020-08-13T10:00:10.496Z</time>
      </trkpt>
      <trkpt lat="37.661723" lon="-4.991091">
        <ele>225.404981</ele>
        <time>2020-08-13T10:00:12.494Z</time>
      </trkpt>
      <trkpt lat="37.661635" lon="-4.991145">
        <ele>225.602611</ele>
        <time>2020-08-13T10:00:14.497Z</time>
      </trkpt>
      <trkpt lat="37.661543" lon="-4.991231">
        <ele>225.833809</ele>
        <time>2020-08-13T10:00:16.509Z</time>
      </trkpt>
      <trkpt lat="37.661449" lon="-4.991290">
        <ele>226.045843</ele>
        <time>2020-08-13T10:00:18.510Z</time>
      </trkpt>
      <trkpt lat="37.661357" lon="-4.991353">
        <ele>226.257240</ele>
        <time>2020-08-13T10:00:20.497Z</time>
      </trkpt>
      <trkpt lat="37.661271" lon="-4.991405">
        <ele>226.449842</ele>
        <time>2020-08-13T10:00:22.506Z</time>
      </trkpt>
      <trkpt lat="37.661203" lon="-4.991482">
        <ele>226.634318</ele>
        <time>2020-08-13T10:00:24.495Z</time>
      </trkpt>
      <trkpt lat="37.661115" lon="-4.991547">
        <ele>226.840243</ele>
        <time>2020-08-13T10:00:26.499Z</time>
      </trkpt>
      <trkpt lat="37.661022" lon="-4.991594">
        <ele>227.040552</ele>
        <time>2020-08-13T10:00:28.503Z</time>
      </trkpt>
      <trkpt lat="37.660905" lon="-4.991663">
        <ele>227.290117</ele>
        <time>2020-08-13T10:00:31.495Z</time>
      </trkpt>
      <trkpt lat="37.660788" lon="-4.991759">
        <ele>227.559770</ele>
        <time>2020-08-13T10:00:34.497Z</time>
      </trkpt>
      <trkpt lat="37.660685" lon="-4.991840">
        <ele>227.794272</ele>
        <time>2020-08-13T10:00:37.499Z</time>
      </trkpt>
      <trkpt lat="37.660576" lon="-4.991910">
        <ele>228.030607</ele>
        <time>2020-08-13T10:00:40.492Z</time>
      </trkpt>
      <trkpt lat="37.660462" lon="-4.991962">
        <ele>228.264869</ele>
        <time>2020-08-13T10:00:43.508Z</time>
      </trkpt>
      <trkpt lat="37.660359" lon="-4.992029">
        <ele>228.488789</ele>
        <time>2020-08-13T10:00:46.497Z</time>
      </trkpt>
      <trkpt lat="37.660261" lon="-4.992092">
        <ele>228.701319</ele>
        <time>2020-08-13T10:00:49.508Z</time>
      </trkpt>
      <trkpt lat="37.660171" lon="-4.992151">
        <ele>228.897299</ele>
        <time>2020-08-13T10:00:52.498Z</time>
      </trkpt>
      <trkpt lat="37.660077" lon="-4.992220">
        <ele>229.107428</ele>
        <time>2020-08-13T10:00:55.494Z</time>
      </trkpt>
      <trkpt lat="37.659973" lon="-4.992269">
        <ele>229.321963</ele>
        <time>2020-08-13T10:00:58.496Z</time>
      </trkpt>
      <trkpt lat="37.659876" lon="-4.992313">
        <ele>229.521164</ele>
        <time>2020-08-13T10:01:01.500Z</time>
      </trkpt>
      <trkpt lat="37.659788" lon="-4.992365">
        <ele>229.708938</ele>
        <time>2020-08-13T10:01:04.504Z</time>
      </trkpt>
      <trkpt lat="37.659701" lon="-4.992424">
        <ele>229.899790</ele>
        <time>2020-08-13T10:01:07.493Z</time>
      </trkpt>
      <trkpt lat="37.659603" lon="-4.992473">
        <ele>230.103501</ele>
        <time>2020-08-13T10:01:10.484Z</time>
      </trkpt>
      <trkpt lat="37.659516" lon="-4.992502">
        <ele>230.277409</ele>
        <time>2020-08-13T10:01:13.495Z</time>
      </trkpt>
      <trkpt lat="37.659431" lon="-4.992549">
        <ele>230.456745</ele>
        <time>2020-08-13T10:01:16.503Z</time>
      </trkpt>
      <trkpt lat="37.659351" lon="-4.992612">
        <ele>230.942187</ele>
        <time>2020-08-13T10:01:19.486Z</time>
      </trkpt>
      <trkpt lat="37.659256" lon="-4.992694">
        <ele>231.568214</ele>
        <time>2020-08-13T10:01:23.497Z</time>
      </trkpt>
      <trkpt lat="37.659157" lon="-4.992761">
        <ele>232.179292</ele>
        <time>2020-08-13T10:01:27.494Z</time>
      </trkpt>
      <trkpt lat="37.659079" lon="-4.992827">
        <ele>232.690092</ele>
        <time>2020-08-13T10:01:30.505Z</time>
      </trkpt>
      <trkpt lat="37.658998" lon="-4.992893">
        <ele>233.214532</ele>
        <time>2020-08-13T10:01:33.500Z</time>
      </trkpt>
      <trkpt lat="37.658913" lon="-4.992942">
        <ele>233.722885</ele>
        <time>2020-08-13T10:01:36.485Z</time>
      </trkpt>
      <trkpt lat="37.658820" lon="-4.992993">
        <ele>234.274508</ele>
        <time>2020-08-13T10:01:39.514Z</time>
      </trkpt>
      <trkpt lat="37.658734" lon="-4.993046">
        <ele>234.795137</ele>
        <time>2020-08-13T10:01:42.488Z</time>
      </trkpt>
      <trkpt lat="37.658651" lon="-4.993097">
        <ele>235.297320</ele>
        <time>2020-08-13T10:01:45.513Z</time>
      </trkpt>
      <trkpt lat="37.658567" lon="-4.993160">
        <ele>235.828838</ele>
        <time>2020-08-13T10:01:48.497Z</time>
      </trkpt>
      <trkpt lat="37.658468" lon="-4.993240">
        <ele>236.468269</ele>
        <time>2020-08-13T10:01:52.499Z</time>
      </trkpt>
      <trkpt lat="37.658367" lon="-4.993304">
        <ele>237.083060</ele>
        <time>2020-08-13T10:01:56.494Z</time>
      </trkpt>
      <trkpt lat="37.658282" lon="-4.993358">
        <ele>237.600726</ele>
        <time>2020-08-13T10:01:59.495Z</time>
      </trkpt>
      <trkpt lat="37.658197" lon="-4.993410">
        <ele>238.114580</ele>
        <time>2020-08-13T10:02:02.494Z</time>
      </trkpt>
      <trkpt lat="37.658091" lon="-4.993456">
        <ele>238.724393</ele>
        <time>2020-08-13T10:02:06.488Z</time>
      </trkpt>
      <trkpt lat="37.658005" lon="-4.993501">
        <ele>239.230861</ele>
        <time>2020-08-13T10:02:09.498Z</time>
      </trkpt>
      <trkpt lat="37.657917" lon="-4.993561">
        <ele>239.774950</ele>
        <time>2020-08-13T10:02:12.497Z</time>
      </trkpt>
      <trkpt lat="37.657825" lon="-4.993621">
        <ele>240.270380</ele>
        <time>2020-08-13T10:02:16.505Z</time>
      </trkpt>
      <trkpt lat="37.657584" lon="-4.993843">
        <ele>240.521099</ele>
        <time>2020-08-13T10:17:22.513Z</time>
      </trkpt>
      <trkpt lat="37.657493" lon="-4.993876">
        <ele>240.600680</ele>
        <time>2020-08-13T10:17:24.489Z</time>
      </trkpt>
      <trkpt lat="37.657375" lon="-4.993930">
        <ele>240.706174</ele>
        <time>2020-08-13T10:17:27.526Z</time>
      </trkpt>
      <trkpt lat="37.657272" lon="-4.993991">
        <ele>240.801795</ele>
        <time>2020-08-13T10:17:30.509Z</time>
      </trkpt>
      <trkpt lat="37.657173" lon="-4.994013">
        <ele>240.886288</ele>
        <time>2020-08-13T10:17:37.517Z</time>
      </trkpt>
      <trkpt lat="37.657089" lon="-4.994071">
        <ele>240.966756</ele>
        <time>2020-08-13T10:17:41.511Z</time>
      </trkpt>
      <trkpt lat="37.657006" lon="-4.994138">
        <ele>241.049552</ele>
        <time>2020-08-13T10:17:44.520Z</time>
      </trkpt>
      <trkpt lat="37.656921" lon="-4.994185">
        <ele>241.127545</ele>
        <time>2020-08-13T10:17:47.483Z</time>
      </trkpt>
      <trkpt lat="37.656823" lon="-4.994237">
        <ele>241.216892</ele>
        <time>2020-08-13T10:17:50.522Z</time>
      </trkpt>
      <trkpt lat="37.656727" lon="-4.994314">
        <ele>241.312480</ele>
        <time>2020-08-13T10:17:53.533Z</time>
      </trkpt>
      <trkpt lat="37.656628" lon="-4.994391">
        <ele>241.410205</ele>
        <time>2020-08-13T10:17:56.488Z</time>
      </trkpt>
      <trkpt lat="37.656517" lon="-4.994470">
        <ele>241.517299</ele>
        <time>2020-08-13T10:17:59.524Z</time>
      </trkpt>
      <trkpt lat="37.656441" lon="-4.994564">
        <ele>241.606707</ele>
        <time>2020-08-13T10:18:01.510Z</time>
      </trkpt>
      <trkpt lat="37.656340" lon="-4.994608">
        <ele>241.696511</ele>
        <time>2020-08-13T10:18:03.519Z</time>
      </trkpt>
      <trkpt lat="37.656198" lon="-4.994684">
        <ele>241.660510</ele>
        <time>2020-08-13T10:18:06.510Z</time>
      </trkpt>
      <trkpt lat="37.656092" lon="-4.994738">
        <ele>241.473984</ele>
        <time>2020-08-13T10:18:08.520Z</time>
      </trkpt>
      <trkpt lat="37.656025" lon="-4.994814">
        <ele>241.327026</ele>
        <time>2020-08-13T10:18:10.513Z</time>
      </trkpt>
      <trkpt lat="37.655938" lon="-4.994869">
        <ele>241.168257</ele>
        <time>2020-08-13T10:18:12.509Z</time>
      </trkpt>
      <trkpt lat="37.655849" lon="-4.994907">
        <ele>241.014940</ele>
        <time>2020-08-13T10:18:14.523Z</time>
      </trkpt>
      <trkpt lat="37.655765" lon="-4.994976">
        <ele>240.851419</ele>
        <time>2020-08-13T10:18:16.515Z</time>
      </trkpt>
      <trkpt lat="37.655712" lon="-4.995069">
        <ele>240.703369</ele>
        <time>2020-08-13T10:18:18.513Z</time>
      </trkpt>
      <trkpt lat="37.655611" lon="-4.995122">
        <ele>240.524885</ele>
        <time>2020-08-13T10:18:20.514Z</time>
      </trkpt>
      <trkpt lat="37.655503" lon="-4.995172">
        <ele>240.337169</ele>
        <time>2020-08-13T10:18:22.514Z</time>
      </trkpt>
      <trkpt lat="37.655393" lon="-4.995223">
        <ele>240.145944</ele>
        <time>2020-08-13T10:18:24.519Z</time>
      </trkpt>
      <trkpt lat="37.655273" lon="-4.995273">
        <ele>239.939731</ele>
        <time>2020-08-13T10:18:26.512Z</time>
      </trkpt>
      <trkpt lat="37.655191" lon="-4.995344">
        <ele>239.777489</ele>
        <time>2020-08-13T10:18:28.493Z</time>
      </trkpt>
      <trkpt lat="37.655108" lon="-4.995444">
        <ele>239.590299</ele>
        <time>2020-08-13T10:18:30.516Z</time>
      </trkpt>
      <trkpt lat="37.655013" lon="-4.995494">
        <ele>239.422343</ele>
        <time>2020-08-13T10:18:32.550Z</time>
      </trkpt>
      <trkpt lat="37.654907" lon="-4.995553">
        <ele>239.233306</ele>
        <time>2020-08-13T10:18:34.512Z</time>
      </trkpt>
      <trkpt lat="37.654795" lon="-4.995611">
        <ele>239.035763</ele>
        <time>2020-08-13T10:18:36.509Z</time>
      </trkpt>
      <trkpt lat="37.654699" lon="-4.995684">
        <ele>238.852896</ele>
        <time>2020-08-13T10:18:38.516Z</time>
      </trkpt>
      <trkpt lat="37.654623" lon="-4.995780">
        <ele>239.029697</ele>
        <time>2020-08-13T10:18:40.514Z</time>
      </trkpt>
      <trkpt lat="37.654542" lon="-4.995838">
        <ele>239.218500</ele>
        <time>2020-08-13T10:18:42.516Z</time>
      </trkpt>
      <trkpt lat="37.654449" lon="-4.995892">
        <ele>239.426050</ele>
        <time>2020-08-13T10:18:44.519Z</time>
      </trkpt>
      <trkpt lat="37.654320" lon="-4.995954">
        <ele>239.705923</ele>
        <time>2020-08-13T10:18:47.518Z</time>
      </trkpt>
      <trkpt lat="37.654228" lon="-4.996006">
        <ele>239.910300</ele>
        <time>2020-08-13T10:18:49.521Z</time>
      </trkpt>
      <trkpt lat="37.654138" lon="-4.996059">
        <ele>240.111656</ele>
        <time>2020-08-13T10:18:51.521Z</time>
      </trkpt>
      <trkpt lat="37.654013" lon="-4.996124">
        <ele>240.385761</ele>
        <time>2020-08-13T10:18:54.521Z</time>
      </trkpt>
      <trkpt lat="37.653920" lon="-4.996193">
        <ele>240.604467</ele>
        <time>2020-08-13T10:18:57.522Z</time>
      </trkpt>
      <trkpt lat="37.653838" lon="-4.996264">
        <ele>240.806057</ele>
        <time>2020-08-13T10:18:59.517Z</time>
      </trkpt>
      <trkpt lat="37.653756" lon="-4.996317">
        <ele>240.992836</ele>
        <time>2020-08-13T10:19:01.520Z</time>
      </trkpt>
      <trkpt lat="37.653685" lon="-4.996414">
        <ele>241.204913</ele>
        <time>2020-08-13T10:19:03.505Z</time>
      </trkpt>
      <trkpt lat="37.653596" lon="-4.996450">
        <ele>241.394409</ele>
        <time>2020-08-13T10:19:05.497Z</time>
      </trkpt>
      <trkpt lat="37.653492" lon="-4.996507">
        <ele>241.624290</ele>
        <time>2020-08-13T10:19:07.500Z</time>
      </trkpt>
      <trkpt lat="37.653381" lon="-4.996551">
        <ele>241.860192</ele>
        <time>2020-08-13T10:19:09.497Z</time>
      </trkpt>
      <trkpt lat="37.653287" lon="-4.996634">
        <ele>242.092755</ele>
        <time>2020-08-13T10:19:11.507Z</time>
      </trkpt>
      <trkpt lat="37.653176" lon="-4.996717">
        <ele>242.354317</ele>
        <time>2020-08-13T10:19:13.512Z</time>
      </trkpt>
      <trkpt lat="37.653072" lon="-4.996802">
        <ele>242.417429</ele>
        <time>2020-08-13T10:19:15.495Z</time>
      </trkpt>
      <trkpt lat="37.652964" lon="-4.996892">
        <ele>242.281209</ele>
        <time>2020-08-13T10:19:17.488Z</time>
      </trkpt>
      <trkpt lat="37.652843" lon="-4.996957">
        <ele>242.142777</ele>
        <time>2020-08-13T10:19:19.498Z</time>
      </trkpt>
      <trkpt lat="37.652747" lon="-4.997035">
        <ele>242.022602</ele>
        <time>2020-08-13T10:19:21.498Z</time>
      </trkpt>
      <trkpt lat="37.652653" lon="-4.997107">
        <ele>241.906863</ele>
        <time>2020-08-13T10:19:23.514Z</time>
      </trkpt>
      <trkpt lat="37.652531" lon="-4.997145">
        <ele>241.774574</ele>
        <time>2020-08-13T10:19:25.499Z</time>
      </trkpt>
      <trkpt lat="37.652437" lon="-4.997175">
        <ele>241.672500</ele>
        <time>2020-08-13T10:19:27.493Z</time>
      </trkpt>
      <trkpt lat="37.652323" lon="-4.997207">
        <ele>241.549552</ele>
        <time>2020-08-13T10:19:29.501Z</time>
      </trkpt>
      <trkpt lat="37.652229" lon="-4.997263">
        <ele>241.440133</ele>
        <time>2020-08-13T10:19:31.496Z</time>
      </trkpt>
      <trkpt lat="37.652121" lon="-4.997317">
        <ele>241.317845</ele>
        <time>2020-08-13T10:19:33.507Z</time>
      </trkpt>
      <trkpt lat="37.652026" lon="-4.997382">
        <ele>241.204096</ele>
        <time>2020-08-13T10:19:35.500Z</time>
      </trkpt>
      <trkpt lat="37.651958" lon="-4.997480">
        <ele>241.095478</ele>
        <time>2020-08-13T10:19:37.488Z</time>
      </trkpt>
      <trkpt lat="37.651862" lon="-4.997518">
        <ele>240.989562</ele>
        <time>2020-08-13T10:19:39.515Z</time>
      </trkpt>
      <trkpt lat="37.651787" lon="-4.997600">
        <ele>240.885127</ele>
        <time>2020-08-13T10:19:41.500Z</time>
      </trkpt>
      <trkpt lat="37.651687" lon="-4.997716">
        <ele>240.742183</ele>
        <time>2020-08-13T10:19:44.492Z</time>
      </trkpt>
      <trkpt lat="37.651581" lon="-4.997805">
        <ele>240.608178</ele>
        <time>2020-08-13T10:19:47.510Z</time>
      </trkpt>
      <trkpt lat="37.651492" lon="-4.997831">
        <ele>240.573355</ele>
        <time>2020-08-13T10:19:49.512Z</time>
      </trkpt>
      <trkpt lat="37.651411" lon="-4.997901">
        <ele>240.553347</ele>
        <time>2020-08-13T10:19:51.495Z</time>
      </trkpt>
      <trkpt lat="37.651322" lon="-4.997952">
        <ele>240.533423</ele>
        <time>2020-08-13T10:19:53.504Z</time>
      </trkpt>
      <trkpt lat="37.651221" lon="-4.997991">
        <ele>240.511892</ele>
        <time>2020-08-13T10:19:55.503Z</time>
      </trkpt>
      <trkpt lat="37.651103" lon="-4.998068">
        <ele>240.484815</ele>
        <time>2020-08-13T10:19:58.496Z</time>
      </trkpt>
      <trkpt lat="37.651005" lon="-4.998134">
        <ele>240.462173</ele>
        <time>2020-08-13T10:20:00.505Z</time>
      </trkpt>
      <trkpt lat="37.650900" lon="-4.998207">
        <ele>240.437738</ele>
        <time>2020-08-13T10:20:02.499Z</time>
      </trkpt>
      <trkpt lat="37.650812" lon="-4.998257">
        <ele>240.418067</ele>
        <time>2020-08-13T10:20:04.498Z</time>
      </trkpt>
      <trkpt lat="37.650742" lon="-4.998332">
        <ele>240.399353</ele>
        <time>2020-08-13T10:20:06.495Z</time>
      </trkpt>
      <trkpt lat="37.650631" lon="-4.998396">
        <ele>240.374477</ele>
        <time>2020-08-13T10:20:08.495Z</time>
      </trkpt>
      <trkpt lat="37.650549" lon="-4.998472">
        <ele>240.353742</ele>
        <time>2020-08-13T10:20:10.493Z</time>
      </trkpt>
      <trkpt lat="37.650465" lon="-4.998528">
        <ele>240.334379</ele>
        <time>2020-08-13T10:20:12.490Z</time>
      </trkpt>
      <trkpt lat="37.650362" lon="-4.998541">
        <ele>240.313276</ele>
        <time>2020-08-13T10:20:14.497Z</time>
      </trkpt>
      <trkpt lat="37.650247" lon="-4.998590">
        <ele>240.288533</ele>
        <time>2020-08-13T10:20:16.495Z</time>
      </trkpt>
      <trkpt lat="37.650137" lon="-4.998639">
        <ele>240.264754</ele>
        <time>2020-08-13T10:20:18.502Z</time>
      </trkpt>
      <trkpt lat="37.650050" lon="-4.998760">
        <ele>240.238372</ele>
        <time>2020-08-13T10:20:21.509Z</time>
      </trkpt>
      <trkpt lat="37.649957" lon="-4.998814">
        <ele>240.212553</ele>
        <time>2020-08-13T10:20:23.498Z</time>
      </trkpt>
      <trkpt lat="37.649849" lon="-4.998902">
        <ele>240.153104</ele>
        <time>2020-08-13T10:20:25.497Z</time>
      </trkpt>
      <trkpt lat="37.649728" lon="-4.998965">
        <ele>240.092567</ele>
        <time>2020-08-13T10:20:27.501Z</time>
      </trkpt>
      <trkpt lat="37.649643" lon="-4.999040">
        <ele>240.044606</ele>
        <time>2020-08-13T10:20:29.497Z</time>
      </trkpt>
      <trkpt lat="37.649531" lon="-4.999099">
        <ele>239.988475</ele>
        <time>2020-08-13T10:20:31.495Z</time>
      </trkpt>
      <trkpt lat="37.649431" lon="-4.999158">
        <ele>239.937423</ele>
        <time>2020-08-13T10:20:33.486Z</time>
      </trkpt>
      <trkpt lat="37.649348" lon="-4.999243">
        <ele>239.887996</ele>
        <time>2020-08-13T10:20:35.498Z</time>
      </trkpt>
      <trkpt lat="37.649245" lon="-4.999290">
        <ele>239.837340</ele>
        <time>2020-08-13T10:20:37.494Z</time>
      </trkpt>
      <trkpt lat="37.649154" lon="-4.999366">
        <ele>239.786878</ele>
        <time>2020-08-13T10:20:39.516Z</time>
      </trkpt>
      <trkpt lat="37.649067" lon="-4.999434">
        <ele>239.739554</ele>
        <time>2020-08-13T10:20:41.498Z</time>
      </trkpt>
      <trkpt lat="37.648973" lon="-4.999521">
        <ele>239.685650</ele>
        <time>2020-08-13T10:20:43.495Z</time>
      </trkpt>
      <trkpt lat="37.648877" lon="-4.999572">
        <ele>239.637477</ele>
        <time>2020-08-13T10:20:45.504Z</time>
      </trkpt>
      <trkpt lat="37.648804" lon="-4.999659">
        <ele>239.591051</ele>
        <time>2020-08-13T10:20:47.516Z</time>
      </trkpt>
      <trkpt lat="37.648719" lon="-4.999725">
        <ele>239.544899</ele>
        <time>2020-08-13T10:20:49.493Z</time>
      </trkpt>
      <trkpt lat="37.648642" lon="-4.999792">
        <ele>239.501649</ele>
        <time>2020-08-13T10:20:51.499Z</time>
      </trkpt>
      <trkpt lat="37.648539" lon="-4.999844">
        <ele>239.450341</ele>
        <time>2020-08-13T10:20:53.503Z</time>
      </trkpt>
      <trkpt lat="37.648440" lon="-4.999924">
        <ele>239.395978</ele>
        <time>2020-08-13T10:20:55.501Z</time>
      </trkpt>
      <trkpt lat="37.648355" lon="-5.000021">
        <ele>239.370039</ele>
        <time>2020-08-13T10:20:57.496Z</time>
      </trkpt>
      <trkpt lat="37.648255" lon="-5.000072">
        <ele>239.349199</ele>
        <time>2020-08-13T10:20:59.501Z</time>
      </trkpt>
      <trkpt lat="37.648162" lon="-5.000159">
        <ele>239.326834</ele>
        <time>2020-08-13T10:21:01.490Z</time>
      </trkpt>
      <trkpt lat="37.648071" lon="-5.000253">
        <ele>239.304116</ele>
        <time>2020-08-13T10:21:03.496Z</time>
      </trkpt>
      <trkpt lat="37.647974" lon="-5.000321">
        <ele>239.282677</ele>
        <time>2020-08-13T10:21:05.498Z</time>
      </trkpt>
      <trkpt lat="37.647876" lon="-5.000376">
        <ele>239.261954</ele>
        <time>2020-08-13T10:21:07.502Z</time>
      </trkpt>
      <trkpt lat="37.647776" lon="-5.000440">
        <ele>239.240290</ele>
        <time>2020-08-13T10:21:09.501Z</time>
      </trkpt>
      <trkpt lat="37.647648" lon="-5.000485">
        <ele>239.214614</ele>
        <time>2020-08-13T10:21:11.497Z</time>
      </trkpt>
      <trkpt lat="37.647548" lon="-5.000562">
        <ele>239.191982</ele>
        <time>2020-08-13T10:21:13.495Z</time>
      </trkpt>
      <trkpt lat="37.647436" lon="-5.000614">
        <ele>239.168922</ele>
        <time>2020-08-13T10:21:15.498Z</time>
      </trkpt>
      <trkpt lat="37.647324" lon="-5.000682">
        <ele>239.144908</ele>
        <time>2020-08-13T10:21:17.506Z</time>
      </trkpt>
      <trkpt lat="37.647213" lon="-5.000757">
        <ele>239.120581</ele>
        <time>2020-08-13T10:21:19.495Z</time>
      </trkpt>
      <trkpt lat="37.647121" lon="-5.000854">
        <ele>239.097422</ele>
        <time>2020-08-13T10:21:21.513Z</time>
      </trkpt>
      <trkpt lat="37.647017" lon="-5.000927">
        <ele>239.074429</ele>
        <time>2020-08-13T10:21:23.502Z</time>
      </trkpt>
      <trkpt lat="37.646904" lon="-5.001021">
        <ele>239.048281</ele>
        <time>2020-08-13T10:21:25.517Z</time>
      </trkpt>
      <trkpt lat="37.646822" lon="-5.001167">
        <ele>238.966478</ele>
        <time>2020-08-13T10:21:27.480Z</time>
      </trkpt>
      <trkpt lat="37.646695" lon="-5.001197">
        <ele>238.876752</ele>
        <time>2020-08-13T10:21:29.496Z</time>
      </trkpt>
      <trkpt lat="37.646597" lon="-5.001262">
        <ele>238.799880</ele>
        <time>2020-08-13T10:21:31.492Z</time>
      </trkpt>
      <trkpt lat="37.646479" lon="-5.001361">
        <ele>238.701499</ele>
        <time>2020-08-13T10:21:33.494Z</time>
      </trkpt>
      <trkpt lat="37.646365" lon="-5.001447">
        <ele>238.609282</ele>
        <time>2020-08-13T10:21:35.488Z</time>
      </trkpt>
      <trkpt lat="37.646252" lon="-5.001495">
        <ele>238.526487</ele>
        <time>2020-08-13T10:21:37.515Z</time>
      </trkpt>
      <trkpt lat="37.646116" lon="-5.001540">
        <ele>238.428852</ele>
        <time>2020-08-13T10:21:39.511Z</time>
      </trkpt>
      <trkpt lat="37.646021" lon="-5.001665">
        <ele>238.333579</ele>
        <time>2020-08-13T10:21:41.503Z</time>
      </trkpt>
      <trkpt lat="37.645886" lon="-5.001734">
        <ele>238.232439</ele>
        <time>2020-08-13T10:21:43.491Z</time>
      </trkpt>
      <trkpt lat="37.645764" lon="-5.001817">
        <ele>238.136204</ele>
        <time>2020-08-13T10:21:45.494Z</time>
      </trkpt>
      <trkpt lat="37.645660" lon="-5.001863">
        <ele>238.059678</ele>
        <time>2020-08-13T10:21:47.495Z</time>
      </trkpt>
      <trkpt lat="37.645557" lon="-5.001827">
        <ele>237.985459</ele>
        <time>2020-08-13T10:21:49.501Z</time>
      </trkpt>
      <trkpt lat="37.645475" lon="-5.001922">
        <ele>237.908182</ele>
        <time>2020-08-13T10:21:51.496Z</time>
      </trkpt>
      <trkpt lat="37.645362" lon="-5.001983">
        <ele>237.822839</ele>
        <time>2020-08-13T10:21:53.497Z</time>
      </trkpt>
      <trkpt lat="37.645230" lon="-5.002037">
        <ele>237.767886</ele>
        <time>2020-08-13T10:21:55.507Z</time>
      </trkpt>
      <trkpt lat="37.645119" lon="-5.002062">
        <ele>237.738489</ele>
        <time>2020-08-13T10:21:57.502Z</time>
      </trkpt>
      <trkpt lat="37.645004" lon="-5.002116">
        <ele>237.706501</ele>
        <time>2020-08-13T10:21:59.504Z</time>
      </trkpt>
      <trkpt lat="37.644903" lon="-5.002142">
        <ele>237.679626</ele>
        <time>2020-08-13T10:22:01.508Z</time>
      </trkpt>
      <trkpt lat="37.644813" lon="-5.002229">
        <ele>237.650076</ele>
        <time>2020-08-13T10:22:03.502Z</time>
      </trkpt>
      <trkpt lat="37.644811" lon="-5.002347">
        <ele>237.625711</ele>
        <time>2020-08-13T10:22:04.495Z</time>
      </trkpt>
      <trkpt lat="37.644823" lon="-5.002501">
        <ele>237.593765</ele>
        <time>2020-08-13T10:22:05.493Z</time>
      </trkpt>
      <trkpt lat="37.644739" lon="-5.002595">
        <ele>237.564503</ele>
        <time>2020-08-13T10:22:07.498Z</time>
      </trkpt>
      <trkpt lat="37.644626" lon="-5.002596">
        <ele>237.535041</ele>
        <time>2020-08-13T10:22:09.497Z</time>
      </trkpt>
      <trkpt lat="37.644571" lon="-5.002738">
        <ele>237.502406</ele>
        <time>2020-08-13T10:22:11.497Z</time>
      </trkpt>
      <trkpt lat="37.644459" lon="-5.002838">
        <ele>237.466645</ele>
        <time>2020-08-13T10:22:13.500Z</time>
      </trkpt>
      <trkpt lat="37.644347" lon="-5.002851">
        <ele>237.437321</ele>
        <time>2020-08-13T10:22:15.493Z</time>
      </trkpt>
      <trkpt lat="37.644258" lon="-5.002870">
        <ele>237.413787</ele>
        <time>2020-08-13T10:22:17.495Z</time>
      </trkpt>
      <trkpt lat="37.644160" lon="-5.002975">
        <ele>237.380280</ele>
        <time>2020-08-13T10:22:19.498Z</time>
      </trkpt>
      <trkpt lat="37.644052" lon="-5.002947">
        <ele>237.351535</ele>
        <time>2020-08-13T10:22:20.492Z</time>
      </trkpt>
      <trkpt lat="37.643949" lon="-5.002957">
        <ele>237.324601</ele>
        <time>2020-08-13T10:22:23.494Z</time>
      </trkpt>
      <trkpt lat="37.643862" lon="-5.002875">
        <ele>237.150369</ele>
        <time>2020-08-13T10:22:24.498Z</time>
      </trkpt>
      <trkpt lat="37.643742" lon="-5.002881">
        <ele>236.953084</ele>
        <time>2020-08-13T10:22:27.492Z</time>
      </trkpt>
      <trkpt lat="37.643619" lon="-5.002980">
        <ele>236.713478</ele>
        <time>2020-08-13T10:22:29.508Z</time>
      </trkpt>
      <trkpt lat="37.643508" lon="-5.003024">
        <ele>236.522361</ele>
        <time>2020-08-13T10:22:31.498Z</time>
      </trkpt>
      <trkpt lat="37.643432" lon="-5.003140">
        <ele>236.326516</ele>
        <time>2020-08-13T10:22:33.491Z</time>
      </trkpt>
      <trkpt lat="37.643343" lon="-5.003217">
        <ele>236.149293</ele>
        <time>2020-08-13T10:22:35.489Z</time>
      </trkpt>
      <trkpt lat="37.643240" lon="-5.003274">
        <ele>235.964557</ele>
        <time>2020-08-13T10:22:37.495Z</time>
      </trkpt>
      <trkpt lat="37.643149" lon="-5.003336">
        <ele>235.794700</ele>
        <time>2020-08-13T10:22:39.496Z</time>
      </trkpt>
      <trkpt lat="37.643023" lon="-5.003408">
        <ele>235.567510</ele>
        <time>2020-08-13T10:22:41.496Z</time>
      </trkpt>
      <trkpt lat="37.642938" lon="-5.003482">
        <ele>235.397912</ele>
        <time>2020-08-13T10:22:43.490Z</time>
      </trkpt>
      <trkpt lat="37.642795" lon="-5.003544">
        <ele>235.149540</ele>
        <time>2020-08-13T10:22:45.500Z</time>
      </trkpt>
      <trkpt lat="37.642719" lon="-5.003632">
        <ele>234.980157</ele>
        <time>2020-08-13T10:22:47.512Z</time>
      </trkpt>
      <trkpt lat="37.642623" lon="-5.003710">
        <ele>234.792633</ele>
        <time>2020-08-13T10:22:49.505Z</time>
      </trkpt>
      <trkpt lat="37.642542" lon="-5.003764">
        <ele>234.642168</ele>
        <time>2020-08-13T10:22:51.489Z</time>
      </trkpt>
      <trkpt lat="37.642423" lon="-5.003755">
        <ele>234.446330</ele>
        <time>2020-08-13T10:22:53.496Z</time>
      </trkpt>
      <trkpt lat="37.642340" lon="-5.003841">
        <ele>234.334151</ele>
        <time>2020-08-13T10:22:55.499Z</time>
      </trkpt>
      <trkpt lat="37.642210" lon="-5.003939">
        <ele>234.246473</ele>
        <time>2020-08-13T10:22:57.505Z</time>
      </trkpt>
      <trkpt lat="37.642135" lon="-5.004042">
        <ele>234.182307</ele>
        <time>2020-08-13T10:22:59.484Z</time>
      </trkpt>
      <trkpt lat="37.642038" lon="-5.004114">
        <ele>234.117148</ele>
        <time>2020-08-13T10:23:01.501Z</time>
      </trkpt>
      <trkpt lat="37.641939" lon="-5.004100">
        <ele>234.059458</ele>
        <time>2020-08-13T10:23:03.497Z</time>
      </trkpt>
      <trkpt lat="37.641896" lon="-5.004304">
        <ele>233.962652</ele>
        <time>2020-08-13T10:23:05.503Z</time>
      </trkpt>
      <trkpt lat="37.641776" lon="-5.004364">
        <ele>233.887910</ele>
        <time>2020-08-13T10:23:08.495Z</time>
      </trkpt>
      <trkpt lat="37.641698" lon="-5.004496">
        <ele>233.812383</ele>
        <time>2020-08-13T10:23:10.481Z</time>
      </trkpt>
      <trkpt lat="37.641499" lon="-5.004543">
        <ele>233.695141</ele>
        <time>2020-08-13T10:23:12.497Z</time>
      </trkpt>
      <trkpt lat="37.641431" lon="-5.004638">
        <ele>233.636417</ele>
        <time>2020-08-13T10:23:14.500Z</time>
      </trkpt>
      <trkpt lat="37.641289" lon="-5.004704">
        <ele>233.548790</ele>
        <time>2020-08-13T10:23:16.487Z</time>
      </trkpt>
      <trkpt lat="37.641209" lon="-5.004820">
        <ele>233.478249</ele>
        <time>2020-08-13T10:23:18.496Z</time>
      </trkpt>
      <trkpt lat="37.641105" lon="-5.004965">
        <ele>233.388535</ele>
        <time>2020-08-13T10:23:20.497Z</time>
      </trkpt>
      <trkpt lat="37.640964" lon="-5.005034">
        <ele>233.454216</ele>
        <time>2020-08-13T10:23:22.498Z</time>
      </trkpt>
      <trkpt lat="37.640854" lon="-5.004980">
        <ele>233.780866</ele>
        <time>2020-08-13T10:23:24.498Z</time>
      </trkpt>
      <trkpt lat="37.639562" lon="-5.005626">
        <ele>237.626924</ele>
        <time>2020-08-13T10:23:47.557Z</time>
      </trkpt>
      <trkpt lat="37.639501" lon="-5.005757">
        <ele>237.960001</ele>
        <time>2020-08-13T10:23:49.479Z</time>
      </trkpt>
      <trkpt lat="37.639411" lon="-5.005827">
        <ele>238.252556</ele>
        <time>2020-08-13T10:23:51.497Z</time>
      </trkpt>
      <trkpt lat="37.639319" lon="-5.005811">
        <ele>238.520602</ele>
        <time>2020-08-13T10:23:52.486Z</time>
      </trkpt>
      <trkpt lat="37.639212" lon="-5.005904">
        <ele>238.899530</ele>
        <time>2020-08-13T10:23:55.494Z</time>
      </trkpt>
      <trkpt lat="37.639171" lon="-5.006075">
        <ele>239.312260</ele>
        <time>2020-08-13T10:23:57.496Z</time>
      </trkpt>
      <trkpt lat="37.639072" lon="-5.006069">
        <ele>239.601396</ele>
        <time>2020-08-13T10:23:59.498Z</time>
      </trkpt>
      <trkpt lat="37.638957" lon="-5.006198">
        <ele>240.050115</ele>
        <time>2020-08-13T10:24:02.503Z</time>
      </trkpt>
      <trkpt lat="37.638939" lon="-5.006311">
        <ele>240.316381</ele>
        <time>2020-08-13T10:24:03.493Z</time>
      </trkpt>
      <trkpt lat="37.638814" lon="-5.006267">
        <ele>240.694933</ele>
        <time>2020-08-13T10:24:06.485Z</time>
      </trkpt>
      <trkpt lat="37.638695" lon="-5.006152">
        <ele>241.132067</ele>
        <time>2020-08-13T10:24:07.491Z</time>
      </trkpt>
      <trkpt lat="37.638592" lon="-5.006206">
        <ele>241.457405</ele>
        <time>2020-08-13T10:24:09.498Z</time>
      </trkpt>
      <trkpt lat="37.638548" lon="-5.006318">
        <ele>241.746223</ele>
        <time>2020-08-13T10:24:11.499Z</time>
      </trkpt>
      <trkpt lat="37.638478" lon="-5.006467">
        <ele>242.146441</ele>
        <time>2020-08-13T10:24:13.492Z</time>
      </trkpt>
      <trkpt lat="37.638413" lon="-5.006576">
        <ele>242.461651</ele>
        <time>2020-08-13T10:24:15.495Z</time>
      </trkpt>
      <trkpt lat="37.638288" lon="-5.006732">
        <ele>242.974329</ele>
        <time>2020-08-13T10:24:17.497Z</time>
      </trkpt>
      <trkpt lat="37.638253" lon="-5.006847">
        <ele>243.258934</ele>
        <time>2020-08-13T10:24:19.493Z</time>
      </trkpt>
      <trkpt lat="37.638145" lon="-5.006945">
        <ele>243.503167</ele>
        <time>2020-08-13T10:24:23.488Z</time>
      </trkpt>
      <trkpt lat="37.638051" lon="-5.006916">
        <ele>243.354517</ele>
        <time>2020-08-13T10:24:24.502Z</time>
      </trkpt>
      <trkpt lat="37.637896" lon="-5.007060">
        <ele>243.058909</ele>
        <time>2020-08-13T10:24:26.480Z</time>
      </trkpt>
      <trkpt lat="37.637766" lon="-5.006992">
        <ele>242.842748</ele>
        <time>2020-08-13T10:24:28.505Z</time>
      </trkpt>
      <trkpt lat="37.637623" lon="-5.007006">
        <ele>242.622412</ele>
        <time>2020-08-13T10:24:30.491Z</time>
      </trkpt>
      <trkpt lat="37.637560" lon="-5.007140">
        <ele>242.432835</ele>
        <time>2020-08-13T10:24:32.501Z</time>
      </trkpt>
      <trkpt lat="37.637466" lon="-5.007262">
        <ele>242.225763</ele>
        <time>2020-08-13T10:24:34.492Z</time>
      </trkpt>
      <trkpt lat="37.637357" lon="-5.007370">
        <ele>242.012926</ele>
        <time>2020-08-13T10:24:36.480Z</time>
      </trkpt>
      <trkpt lat="37.637252" lon="-5.007371">
        <ele>241.851620</ele>
        <time>2020-08-13T10:24:38.486Z</time>
      </trkpt>
      <trkpt lat="37.637187" lon="-5.007481">
        <ele>241.684655</ele>
        <time>2020-08-13T10:24:40.480Z</time>
      </trkpt>
      <trkpt lat="37.637074" lon="-5.007609">
        <ele>241.451458</ele>
        <time>2020-08-13T10:24:42.489Z</time>
      </trkpt>
      <trkpt lat="37.636945" lon="-5.007700">
        <ele>241.224464</ele>
        <time>2020-08-13T10:24:44.479Z</time>
      </trkpt>
      <trkpt lat="37.636772" lon="-5.007676">
        <ele>240.957101</ele>
        <time>2020-08-13T10:24:46.486Z</time>
      </trkpt>
      <trkpt lat="37.636640" lon="-5.007735">
        <ele>240.820981</ele>
        <time>2020-08-13T10:24:48.497Z</time>
      </trkpt>
      <trkpt lat="37.636496" lon="-5.007872">
        <ele>241.002952</ele>
        <time>2020-08-13T10:24:50.487Z</time>
      </trkpt>
      <trkpt lat="37.636380" lon="-5.007978">
        <ele>241.147469</ele>
        <time>2020-08-13T10:24:52.499Z</time>
      </trkpt>
      <trkpt lat="37.636246" lon="-5.008089">
        <ele>241.309218</ele>
        <time>2020-08-13T10:24:54.492Z</time>
      </trkpt>
      <trkpt lat="37.636177" lon="-5.008190">
        <ele>241.415832</ele>
        <time>2020-08-13T10:24:56.488Z</time>
      </trkpt>
      <trkpt lat="37.636065" lon="-5.008181">
        <ele>241.529103</ele>
        <time>2020-08-13T10:24:58.493Z</time>
      </trkpt>
      <trkpt lat="37.636093" lon="-5.008394">
        <ele>241.701677</ele>
        <time>2020-08-13T10:24:59.496Z</time>
      </trkpt>
      <trkpt lat="37.635998" lon="-5.008476">
        <ele>241.817820</ele>
        <time>2020-08-13T10:25:01.490Z</time>
      </trkpt>
      <trkpt lat="37.635876" lon="-5.008496">
        <ele>241.941988</ele>
        <time>2020-08-13T10:25:03.487Z</time>
      </trkpt>
      <trkpt lat="37.635755" lon="-5.008543">
        <ele>242.069760</ele>
        <time>2020-08-13T10:25:05.493Z</time>
      </trkpt>
      <trkpt lat="37.635605" lon="-5.008613">
        <ele>242.231162</ele>
        <time>2020-08-13T10:25:09.488Z</time>
      </trkpt>
      <trkpt lat="37.635592" lon="-5.008741">
        <ele>242.334308</ele>
        <time>2020-08-13T10:25:10.475Z</time>
      </trkpt>
      <trkpt lat="37.635507" lon="-5.008817">
        <ele>242.439426</ele>
        <time>2020-08-13T10:25:12.493Z</time>
      </trkpt>
      <trkpt lat="37.635417" lon="-5.008864">
        <ele>242.537725</ele>
        <time>2020-08-13T10:25:14.507Z</time>
      </trkpt>
      <trkpt lat="37.635282" lon="-5.008922">
        <ele>242.615330</ele>
        <time>2020-08-13T10:25:16.499Z</time>
      </trkpt>
      <trkpt lat="37.635201" lon="-5.008858">
        <ele>242.628291</ele>
        <time>2020-08-13T10:25:17.492Z</time>
      </trkpt>
      <trkpt lat="37.635094" lon="-5.008909">
        <ele>242.643804</ele>
        <time>2020-08-13T10:25:19.498Z</time>
      </trkpt>
      <trkpt lat="37.634644" lon="-5.008983">
        <ele>242.705359</ele>
        <time>2020-08-13T10:25:26.490Z</time>
      </trkpt>
      <trkpt lat="37.634547" lon="-5.009000">
        <ele>242.718642</ele>
        <time>2020-08-13T10:25:33.483Z</time>
      </trkpt>
      <trkpt lat="37.634467" lon="-5.009090">
        <ele>242.733176</ele>
        <time>2020-08-13T10:25:39.485Z</time>
      </trkpt>
      <trkpt lat="37.634410" lon="-5.009222">
        <ele>242.749326</ele>
        <time>2020-08-13T10:25:43.502Z</time>
      </trkpt>
      <trkpt lat="37.634319" lon="-5.009350">
        <ele>242.767804</ele>
        <time>2020-08-13T10:25:46.497Z</time>
      </trkpt>
      <trkpt lat="37.634246" lon="-5.009421">
        <ele>242.780302</ele>
        <time>2020-08-13T10:25:48.493Z</time>
      </trkpt>
      <trkpt lat="37.634123" lon="-5.009484">
        <ele>242.798307</ele>
        <time>2020-08-13T10:25:51.493Z</time>
      </trkpt>
      <trkpt lat="37.634007" lon="-5.009545">
        <ele>242.815351</ele>
        <time>2020-08-13T10:25:54.498Z</time>
      </trkpt>
      <trkpt lat="37.633889" lon="-5.009585">
        <ele>242.831924</ele>
        <time>2020-08-13T10:25:57.486Z</time>
      </trkpt>
      <trkpt lat="37.633764" lon="-5.009641">
        <ele>242.845084</ele>
        <time>2020-08-13T10:26:00.498Z</time>
      </trkpt>
      <trkpt lat="37.633675" lon="-5.009671">
        <ele>242.791061</ele>
        <time>2020-08-13T10:26:02.493Z</time>
      </trkpt>
      <trkpt lat="37.633582" lon="-5.009699">
        <ele>242.734992</ele>
        <time>2020-08-13T10:26:04.490Z</time>
      </trkpt>
      <trkpt lat="37.633460" lon="-5.009767">
        <ele>242.656784</ele>
        <time>2020-08-13T10:26:07.499Z</time>
      </trkpt>
      <trkpt lat="37.633345" lon="-5.009846">
        <ele>242.580007</ele>
        <time>2020-08-13T10:26:10.496Z</time>
      </trkpt>
      <trkpt lat="37.633244" lon="-5.009904">
        <ele>242.514937</ele>
        <time>2020-08-13T10:26:12.504Z</time>
      </trkpt>
      <trkpt lat="37.633159" lon="-5.009970">
        <ele>242.456417</ele>
        <time>2020-08-13T10:26:14.499Z</time>
      </trkpt>
      <trkpt lat="37.633070" lon="-5.010035">
        <ele>242.396121</ele>
        <time>2020-08-13T10:26:17.512Z</time>
      </trkpt>
      <trkpt lat="37.632954" lon="-5.010069">
        <ele>242.326283</ele>
        <time>2020-08-13T10:26:19.492Z</time>
      </trkpt>
      <trkpt lat="37.632862" lon="-5.010102">
        <ele>242.270195</ele>
        <time>2020-08-13T10:26:21.499Z</time>
      </trkpt>
      <trkpt lat="37.632812" lon="-5.010227">
        <ele>242.205155</ele>
        <time>2020-08-13T10:26:26.498Z</time>
      </trkpt>
      <trkpt lat="37.632726" lon="-5.010318">
        <ele>242.139352</ele>
        <time>2020-08-13T10:26:29.493Z</time>
      </trkpt>
      <trkpt lat="37.632637" lon="-5.010344">
        <ele>242.085779</ele>
        <time>2020-08-13T10:26:31.494Z</time>
      </trkpt>
      <trkpt lat="37.632522" lon="-5.010401">
        <ele>242.013326</ele>
        <time>2020-08-13T10:26:34.495Z</time>
      </trkpt>
      <trkpt lat="37.632449" lon="-5.010553">
        <ele>241.930764</ele>
        <time>2020-08-13T10:26:36.490Z</time>
      </trkpt>
      <trkpt lat="37.632390" lon="-5.010657">
        <ele>241.871348</ele>
        <time>2020-08-13T10:26:38.498Z</time>
      </trkpt>
      <trkpt lat="37.632273" lon="-5.010710">
        <ele>241.798450</ele>
        <time>2020-08-13T10:26:40.495Z</time>
      </trkpt>
      <trkpt lat="37.632170" lon="-5.010820">
        <ele>241.689642</ele>
        <time>2020-08-13T10:26:43.488Z</time>
      </trkpt>
      <trkpt lat="37.632084" lon="-5.010865">
        <ele>241.613386</ele>
        <time>2020-08-13T10:26:45.498Z</time>
      </trkpt>
      <trkpt lat="37.632003" lon="-5.010917">
        <ele>241.538952</ele>
        <time>2020-08-13T10:26:47.496Z</time>
      </trkpt>
      <trkpt lat="37.631924" lon="-5.010987">
        <ele>241.459896</ele>
        <time>2020-08-13T10:26:49.495Z</time>
      </trkpt>
      <trkpt lat="37.631799" lon="-5.011005">
        <ele>241.356838</ele>
        <time>2020-08-13T10:26:51.499Z</time>
      </trkpt>
      <trkpt lat="37.631711" lon="-5.011079">
        <ele>241.270231</ele>
        <time>2020-08-13T10:26:53.497Z</time>
      </trkpt>
      <trkpt lat="37.631572" lon="-5.011133">
        <ele>241.151101</ele>
        <time>2020-08-13T10:26:56.490Z</time>
      </trkpt>
      <trkpt lat="37.631472" lon="-5.011204">
        <ele>241.057125</ele>
        <time>2020-08-13T10:26:58.496Z</time>
      </trkpt>
      <trkpt lat="37.631362" lon="-5.011297">
        <ele>240.948685</ele>
        <time>2020-08-13T10:27:01.508Z</time>
      </trkpt>
      <trkpt lat="37.631260" lon="-5.011337">
        <ele>240.861195</ele>
        <time>2020-08-13T10:27:03.493Z</time>
      </trkpt>
      <trkpt lat="37.631169" lon="-5.011368">
        <ele>240.783987</ele>
        <time>2020-08-13T10:27:05.488Z</time>
      </trkpt>
      <trkpt lat="37.631085" lon="-5.011461">
        <ele>240.692474</ele>
        <time>2020-08-13T10:27:07.482Z</time>
      </trkpt>
      <trkpt lat="37.630994" lon="-5.011519">
        <ele>240.608973</ele>
        <time>2020-08-13T10:27:09.494Z</time>
      </trkpt>
      <trkpt lat="37.630873" lon="-5.011499">
        <ele>240.509010</ele>
        <time>2020-08-13T10:27:11.497Z</time>
      </trkpt>
      <trkpt lat="37.630790" lon="-5.011588">
        <ele>240.419813</ele>
        <time>2020-08-13T10:27:13.498Z</time>
      </trkpt>
      <trkpt lat="37.630713" lon="-5.011702">
        <ele>240.322613</ele>
        <time>2020-08-13T10:27:15.486Z</time>
      </trkpt>
      <trkpt lat="37.630638" lon="-5.011778">
        <ele>240.369456</ele>
        <time>2020-08-13T10:27:17.498Z</time>
      </trkpt>
      <trkpt lat="37.630525" lon="-5.011823">
        <ele>240.430782</ele>
        <time>2020-08-13T10:27:19.483Z</time>
      </trkpt>
      <trkpt lat="37.630436" lon="-5.011897">
        <ele>240.485936</ele>
        <time>2020-08-13T10:27:21.495Z</time>
      </trkpt>
      <trkpt lat="37.630355" lon="-5.011959">
        <ele>240.534961</ele>
        <time>2020-08-13T10:27:23.484Z</time>
      </trkpt>
      <trkpt lat="37.630230" lon="-5.011938">
        <ele>240.600229</ele>
        <time>2020-08-13T10:27:25.491Z</time>
      </trkpt>
      <trkpt lat="37.630133" lon="-5.012066">
        <ele>240.672847</ele>
        <time>2020-08-13T10:27:27.502Z</time>
      </trkpt>
      <trkpt lat="37.630059" lon="-5.012179">
        <ele>240.732950</ele>
        <time>2020-08-13T10:27:29.495Z</time>
      </trkpt>
      <trkpt lat="37.629958" lon="-5.012135">
        <ele>240.788249</ele>
        <time>2020-08-13T10:27:31.492Z</time>
      </trkpt>
      <trkpt lat="37.629878" lon="-5.012217">
        <ele>240.841581</ele>
        <time>2020-08-13T10:27:33.480Z</time>
      </trkpt>
      <trkpt lat="37.629787" lon="-5.012297">
        <ele>240.898972</ele>
        <time>2020-08-13T10:27:35.492Z</time>
      </trkpt>
      <trkpt lat="37.628238" lon="-5.012837">
        <ele>242.410272</ele>
        <time>2020-08-13T10:28:05.491Z</time>
      </trkpt>
      <trkpt lat="37.628160" lon="-5.013072">
        <ele>242.662923</ele>
        <time>2020-08-13T10:28:08.493Z</time>
      </trkpt>
      <trkpt lat="37.628051" lon="-5.013065">
        <ele>242.799565</ele>
        <time>2020-08-13T10:28:10.494Z</time>
      </trkpt>
      <trkpt lat="37.627931" lon="-5.013073">
        <ele>242.950011</ele>
        <time>2020-08-13T10:28:12.484Z</time>
      </trkpt>
      <trkpt lat="37.627860" lon="-5.013146">
        <ele>243.064645</ele>
        <time>2020-08-13T10:28:14.494Z</time>
      </trkpt>
      <trkpt lat="37.627749" lon="-5.013198">
        <ele>243.212871</ele>
        <time>2020-08-13T10:28:16.497Z</time>
      </trkpt>
      <trkpt lat="37.627749" lon="-5.013324">
        <ele>243.337808</ele>
        <time>2020-08-13T10:28:17.490Z</time>
      </trkpt>
      <trkpt lat="37.627693" lon="-5.013466">
        <ele>243.495099</ele>
        <time>2020-08-13T10:28:19.493Z</time>
      </trkpt>
      <trkpt lat="37.627604" lon="-5.013549">
        <ele>243.447312</ele>
        <time>2020-08-13T10:28:22.486Z</time>
      </trkpt>
      <trkpt lat="37.627487" lon="-5.013538">
        <ele>243.383703</ele>
        <time>2020-08-13T10:28:24.496Z</time>
      </trkpt>
      <trkpt lat="37.627408" lon="-5.013616">
        <ele>243.329331</ele>
        <time>2020-08-13T10:28:26.491Z</time>
      </trkpt>
      <trkpt lat="37.627320" lon="-5.013725">
        <ele>243.262495</ele>
        <time>2020-08-13T10:28:28.494Z</time>
      </trkpt>
      <trkpt lat="37.627211" lon="-5.013807">
        <ele>243.193704</ele>
        <time>2020-08-13T10:28:31.496Z</time>
      </trkpt>
      <trkpt lat="37.627100" lon="-5.013830">
        <ele>243.132718</ele>
        <time>2020-08-13T10:28:33.488Z</time>
      </trkpt>
      <trkpt lat="37.627004" lon="-5.013890">
        <ele>243.074642</ele>
        <time>2020-08-13T10:28:35.498Z</time>
      </trkpt>
      <trkpt lat="37.626909" lon="-5.013996">
        <ele>243.005906</ele>
        <time>2020-08-13T10:28:37.494Z</time>
      </trkpt>
      <trkpt lat="37.626802" lon="-5.014107">
        <ele>242.930825</ele>
        <time>2020-08-13T10:28:40.493Z</time>
      </trkpt>
      <trkpt lat="37.626726" lon="-5.014230">
        <ele>242.863836</ele>
        <time>2020-08-13T10:28:42.493Z</time>
      </trkpt>
      <trkpt lat="37.626661" lon="-5.014346">
        <ele>242.802820</ele>
        <time>2020-08-13T10:28:44.497Z</time>
      </trkpt>
      <trkpt lat="37.626549" lon="-5.014295">
        <ele>242.738268</ele>
        <time>2020-08-13T10:28:46.497Z</time>
      </trkpt>
      <trkpt lat="37.626540" lon="-5.014437">
        <ele>242.677098</ele>
        <time>2020-08-13T10:28:47.495Z</time>
      </trkpt>
      <trkpt lat="37.626432" lon="-5.014475">
        <ele>242.616313</ele>
        <time>2020-08-13T10:28:49.493Z</time>
      </trkpt>
      <trkpt lat="37.626309" lon="-5.014512">
        <ele>242.547759</ele>
        <time>2020-08-13T10:28:51.496Z</time>
      </trkpt>
      <trkpt lat="37.626229" lon="-5.014568">
        <ele>242.600924</ele>
        <time>2020-08-13T10:28:53.493Z</time>
      </trkpt>
      <trkpt lat="37.626139" lon="-5.014645">
        <ele>242.742035</ele>
        <time>2020-08-13T10:28:55.498Z</time>
      </trkpt>
      <trkpt lat="37.626037" lon="-5.014651">
        <ele>242.874573</ele>
        <time>2020-08-13T10:29:02.482Z</time>
      </trkpt>
      <trkpt lat="37.625942" lon="-5.014744">
        <ele>243.030603</ele>
        <time>2020-08-13T10:29:08.481Z</time>
      </trkpt>
      <trkpt lat="37.625844" lon="-5.014828">
        <ele>243.184347</ele>
        <time>2020-08-13T10:29:11.493Z</time>
      </trkpt>
      <trkpt lat="37.625731" lon="-5.014909">
        <ele>243.353008</ele>
        <time>2020-08-13T10:29:14.487Z</time>
      </trkpt>
      <trkpt lat="37.625600" lon="-5.014985">
        <ele>243.540134</ele>
        <time>2020-08-13T10:29:17.507Z</time>
      </trkpt>
      <trkpt lat="37.625513" lon="-5.015058">
        <ele>243.675721</ele>
        <time>2020-08-13T10:29:19.494Z</time>
      </trkpt>
      <trkpt lat="37.625400" lon="-5.015140">
        <ele>243.844892</ele>
        <time>2020-08-13T10:29:22.498Z</time>
      </trkpt>
      <trkpt lat="37.625312" lon="-5.015171">
        <ele>243.963477</ele>
        <time>2020-08-13T10:29:24.492Z</time>
      </trkpt>
      <trkpt lat="37.625210" lon="-5.015246">
        <ele>244.116685</ele>
        <time>2020-08-13T10:29:27.514Z</time>
      </trkpt>
      <trkpt lat="37.625092" lon="-5.015262">
        <ele>244.270728</ele>
        <time>2020-08-13T10:29:30.487Z</time>
      </trkpt>
      <trkpt lat="37.624989" lon="-5.015309">
        <ele>244.412883</ele>
        <time>2020-08-13T10:29:33.494Z</time>
      </trkpt>
      <trkpt lat="37.624873" lon="-5.015374">
        <ele>244.577611</ele>
        <time>2020-08-13T10:29:36.494Z</time>
      </trkpt>
      <trkpt lat="37.624775" lon="-5.015457">
        <ele>244.730781</ele>
        <time>2020-08-13T10:29:39.503Z</time>
      </trkpt>
      <trkpt lat="37.624719" lon="-5.015545">
        <ele>244.846831</ele>
        <time>2020-08-13T10:29:41.487Z</time>
      </trkpt>
      <trkpt lat="37.624621" lon="-5.015653">
        <ele>244.969271</ele>
        <time>2020-08-13T10:29:44.499Z</time>
      </trkpt>
      <trkpt lat="37.624495" lon="-5.015705">
        <ele>245.089021</ele>
        <time>2020-08-13T10:29:47.495Z</time>
      </trkpt>
      <trkpt lat="37.624376" lon="-5.015731">
        <ele>245.198119</ele>
        <time>2020-08-13T10:29:50.493Z</time>
      </trkpt>
      <trkpt lat="37.624272" lon="-5.015750">
        <ele>245.293047</ele>
        <time>2020-08-13T10:29:53.498Z</time>
      </trkpt>
      <trkpt lat="37.624153" lon="-5.015791">
        <ele>245.404478</ele>
        <time>2020-08-13T10:29:56.500Z</time>
      </trkpt>
      <trkpt lat="37.624040" lon="-5.015854">
        <ele>245.516067</ele>
        <time>2020-08-13T10:29:59.492Z</time>
      </trkpt>
      <trkpt lat="37.623928" lon="-5.015942">
        <ele>245.635235</ele>
        <time>2020-08-13T10:30:02.489Z</time>
      </trkpt>
      <trkpt lat="37.623812" lon="-5.015987">
        <ele>245.744860</ele>
        <time>2020-08-13T10:30:04.493Z</time>
      </trkpt>
      <trkpt lat="37.623736" lon="-5.016091">
        <ele>245.846106</ele>
        <time>2020-08-13T10:30:07.482Z</time>
      </trkpt>
      <trkpt lat="37.623634" lon="-5.016135">
        <ele>245.943478</ele>
        <time>2020-08-13T10:30:09.484Z</time>
      </trkpt>
      <trkpt lat="37.623505" lon="-5.016156">
        <ele>246.060977</ele>
        <time>2020-08-13T10:30:12.493Z</time>
      </trkpt>
      <trkpt lat="37.623410" lon="-5.016262">
        <ele>246.175507</ele>
        <time>2020-08-13T10:30:14.499Z</time>
      </trkpt>
      <trkpt lat="37.623313" lon="-5.016362">
        <ele>246.288634</ele>
        <time>2020-08-13T10:30:17.493Z</time>
      </trkpt>
      <trkpt lat="37.623223" lon="-5.016426">
        <ele>246.381945</ele>
        <time>2020-08-13T10:30:19.493Z</time>
      </trkpt>
      <trkpt lat="37.623149" lon="-5.016507">
        <ele>246.470419</ele>
        <time>2020-08-13T10:30:21.495Z</time>
      </trkpt>
      <trkpt lat="37.623093" lon="-5.016612">
        <ele>246.347874</ele>
        <time>2020-08-13T10:30:23.486Z</time>
      </trkpt>
      <trkpt lat="37.622963" lon="-5.016667">
        <ele>246.110730</ele>
        <time>2020-08-13T10:30:25.494Z</time>
      </trkpt>
      <trkpt lat="37.622864" lon="-5.016742">
        <ele>245.911033</ele>
        <time>2020-08-13T10:30:27.494Z</time>
      </trkpt>
      <trkpt lat="37.622791" lon="-5.016819">
        <ele>245.746502</ele>
        <time>2020-08-13T10:30:29.495Z</time>
      </trkpt>
      <trkpt lat="37.622704" lon="-5.016860">
        <ele>245.585881</ele>
        <time>2020-08-13T10:30:31.497Z</time>
      </trkpt>
      <trkpt lat="37.622631" lon="-5.016967">
        <ele>245.392411</ele>
        <time>2020-08-13T10:30:33.496Z</time>
      </trkpt>
      <trkpt lat="37.622546" lon="-5.017028">
        <ele>245.223300</ele>
        <time>2020-08-13T10:30:36.496Z</time>
      </trkpt>
      <trkpt lat="37.622446" lon="-5.017058">
        <ele>245.045518</ele>
        <time>2020-08-13T10:30:38.505Z</time>
      </trkpt>
      <trkpt lat="37.622350" lon="-5.017118">
        <ele>244.860240</ele>
        <time>2020-08-13T10:30:40.497Z</time>
      </trkpt>
      <trkpt lat="37.622242" lon="-5.017223">
        <ele>244.624470</ele>
        <time>2020-08-13T10:30:43.497Z</time>
      </trkpt>
      <trkpt lat="37.622136" lon="-5.017235">
        <ele>244.440391</ele>
        <time>2020-08-13T10:30:45.500Z</time>
      </trkpt>
      <trkpt lat="37.622006" lon="-5.017297">
        <ele>244.200027</ele>
        <time>2020-08-13T10:30:48.496Z</time>
      </trkpt>
      <trkpt lat="37.621940" lon="-5.017375">
        <ele>244.043660</ele>
        <time>2020-08-13T10:30:50.497Z</time>
      </trkpt>
      <trkpt lat="37.621836" lon="-5.017390">
        <ele>243.862606</ele>
        <time>2020-08-13T10:30:52.492Z</time>
      </trkpt>
      <trkpt lat="37.621755" lon="-5.017454">
        <ele>243.697330</ele>
        <time>2020-08-13T10:30:54.492Z</time>
      </trkpt>
      <trkpt lat="37.621684" lon="-5.017529">
        <ele>243.537209</ele>
        <time>2020-08-13T10:30:56.493Z</time>
      </trkpt>
      <trkpt lat="37.621593" lon="-5.017587">
        <ele>243.355832</ele>
        <time>2020-08-13T10:30:58.492Z</time>
      </trkpt>
      <trkpt lat="37.621522" lon="-5.017662">
        <ele>243.144921</ele>
        <time>2020-08-13T10:31:00.502Z</time>
      </trkpt>
      <trkpt lat="37.621421" lon="-5.017695">
        <ele>242.907232</ele>
        <time>2020-08-13T10:31:02.493Z</time>
      </trkpt>
      <trkpt lat="37.621297" lon="-5.017735">
        <ele>242.615647</ele>
        <time>2020-08-13T10:31:05.480Z</time>
      </trkpt>
      <trkpt lat="37.621176" lon="-5.017792">
        <ele>242.321408</ele>
        <time>2020-08-13T10:31:08.487Z</time>
      </trkpt>
      <trkpt lat="37.621080" lon="-5.017846">
        <ele>242.081965</ele>
        <time>2020-08-13T10:31:10.492Z</time>
      </trkpt>
      <trkpt lat="37.620976" lon="-5.017912">
        <ele>241.816772</ele>
        <time>2020-08-13T10:31:12.492Z</time>
      </trkpt>
      <trkpt lat="37.620870" lon="-5.017960">
        <ele>241.560208</ele>
        <time>2020-08-13T10:31:14.491Z</time>
      </trkpt>
      <trkpt lat="37.620788" lon="-5.018062">
        <ele>241.297944</ele>
        <time>2020-08-13T10:31:16.487Z</time>
      </trkpt>
      <trkpt lat="37.620709" lon="-5.018141">
        <ele>241.068339</ele>
        <time>2020-08-13T10:31:18.507Z</time>
      </trkpt>
      <trkpt lat="37.620605" lon="-5.018231">
        <ele>240.781076</ele>
        <time>2020-08-13T10:31:20.484Z</time>
      </trkpt>
      <trkpt lat="37.620519" lon="-5.018306">
        <ele>240.542942</ele>
        <time>2020-08-13T10:31:22.493Z</time>
      </trkpt>
      <trkpt lat="37.620423" lon="-5.018389">
        <ele>240.277855</ele>
        <time>2020-08-13T10:31:24.494Z</time>
      </trkpt>
      <trkpt lat="37.620334" lon="-5.018463">
        <ele>240.035063</ele>
        <time>2020-08-13T10:31:26.496Z</time>
      </trkpt>
      <trkpt lat="37.620228" lon="-5.018528">
        <ele>239.766584</ele>
        <time>2020-08-13T10:31:28.478Z</time>
      </trkpt>
      <trkpt lat="37.620148" lon="-5.018597">
        <ele>239.545847</ele>
        <time>2020-08-13T10:31:30.490Z</time>
      </trkpt>
      <trkpt lat="37.620057" lon="-5.018657">
        <ele>239.311951</ele>
        <time>2020-08-13T10:31:32.497Z</time>
      </trkpt>
      <trkpt lat="37.619960" lon="-5.018715">
        <ele>239.480569</ele>
        <time>2020-08-13T10:31:34.492Z</time>
      </trkpt>
      <trkpt lat="37.619833" lon="-5.018804">
        <ele>239.795888</ele>
        <time>2020-08-13T10:31:37.492Z</time>
      </trkpt>
      <trkpt lat="37.619733" lon="-5.018861">
        <ele>240.034070</ele>
        <time>2020-08-13T10:31:39.492Z</time>
      </trkpt>
      <trkpt lat="37.619637" lon="-5.018913">
        <ele>240.260840</ele>
        <time>2020-08-13T10:31:41.493Z</time>
      </trkpt>
      <trkpt lat="37.619529" lon="-5.018970">
        <ele>240.514950</ele>
        <time>2020-08-13T10:31:43.493Z</time>
      </trkpt>
      <trkpt lat="37.619437" lon="-5.019038">
        <ele>240.746375</ele>
        <time>2020-08-13T10:31:45.492Z</time>
      </trkpt>
      <trkpt lat="37.619322" lon="-5.019077">
        <ele>241.004869</ele>
        <time>2020-08-13T10:31:47.496Z</time>
      </trkpt>
      <trkpt lat="37.619238" lon="-5.019142">
        <ele>241.218745</ele>
        <time>2020-08-13T10:31:49.497Z</time>
      </trkpt>
      <trkpt lat="37.619135" lon="-5.019199">
        <ele>241.462877</ele>
        <time>2020-08-13T10:31:51.490Z</time>
      </trkpt>
      <trkpt lat="37.619038" lon="-5.019243">
        <ele>241.686626</ele>
        <time>2020-08-13T10:31:53.501Z</time>
      </trkpt>
      <trkpt lat="37.618929" lon="-5.019309">
        <ele>241.949053</ele>
        <time>2020-08-13T10:31:55.493Z</time>
      </trkpt>
      <trkpt lat="37.618809" lon="-5.019360">
        <ele>242.223916</ele>
        <time>2020-08-13T10:31:57.488Z</time>
      </trkpt>
      <trkpt lat="37.618715" lon="-5.019439">
        <ele>242.469052</ele>
        <time>2020-08-13T10:31:59.489Z</time>
      </trkpt>
      <trkpt lat="37.618621" lon="-5.019508">
        <ele>242.705094</ele>
        <time>2020-08-13T10:32:01.488Z</time>
      </trkpt>
      <trkpt lat="37.618530" lon="-5.019578">
        <ele>242.936420</ele>
        <time>2020-08-13T10:32:03.493Z</time>
      </trkpt>
      <trkpt lat="37.618431" lon="-5.019643">
        <ele>243.178657</ele>
        <time>2020-08-13T10:32:05.487Z</time>
      </trkpt>
      <trkpt lat="37.618325" lon="-5.019698">
        <ele>243.255040</ele>
        <time>2020-08-13T10:32:07.494Z</time>
      </trkpt>
      <trkpt lat="37.618188" lon="-5.019718">
        <ele>243.342821</ele>
        <time>2020-08-13T10:32:09.492Z</time>
      </trkpt>
      <trkpt lat="37.618101" lon="-5.019773">
        <ele>243.404751</ele>
        <time>2020-08-13T10:32:11.499Z</time>
      </trkpt>
      <trkpt lat="37.617979" lon="-5.019803">
        <ele>243.483864</ele>
        <time>2020-08-13T10:32:13.500Z</time>
      </trkpt>
      <trkpt lat="37.617916" lon="-5.019912">
        <ele>243.551893</ele>
        <time>2020-08-13T10:32:15.498Z</time>
      </trkpt>
      <trkpt lat="37.617814" lon="-5.019961">
        <ele>243.621358</ele>
        <time>2020-08-13T10:32:17.496Z</time>
      </trkpt>
      <trkpt lat="37.617718" lon="-5.020043">
        <ele>243.695133</ele>
        <time>2020-08-13T10:32:19.483Z</time>
      </trkpt>
      <trkpt lat="37.617610" lon="-5.020066">
        <ele>243.764847</ele>
        <time>2020-08-13T10:32:21.494Z</time>
      </trkpt>
      <trkpt lat="37.617511" lon="-5.020142">
        <ele>243.838596</ele>
        <time>2020-08-13T10:32:23.489Z</time>
      </trkpt>
      <trkpt lat="37.617396" lon="-5.020208">
        <ele>243.919002</ele>
        <time>2020-08-13T10:32:25.508Z</time>
      </trkpt>
      <trkpt lat="37.617319" lon="-5.020285">
        <ele>243.981525</ele>
        <time>2020-08-13T10:32:27.498Z</time>
      </trkpt>
      <trkpt lat="37.617235" lon="-5.020347">
        <ele>244.043458</ele>
        <time>2020-08-13T10:32:29.494Z</time>
      </trkpt>
      <trkpt lat="37.617119" lon="-5.020414">
        <ele>244.124653</ele>
        <time>2020-08-13T10:32:31.498Z</time>
      </trkpt>
      <trkpt lat="37.617033" lon="-5.020487">
        <ele>244.190614</ele>
        <time>2020-08-13T10:32:33.498Z</time>
      </trkpt>
      <trkpt lat="37.616946" lon="-5.020570">
        <ele>244.260023</ele>
        <time>2020-08-13T10:32:35.496Z</time>
      </trkpt>
      <trkpt lat="37.616839" lon="-5.020632">
        <ele>244.324101</ele>
        <time>2020-08-13T10:32:37.512Z</time>
      </trkpt>
      <trkpt lat="37.616743" lon="-5.020699">
        <ele>244.279088</ele>
        <time>2020-08-13T10:32:39.495Z</time>
      </trkpt>
      <trkpt lat="37.616645" lon="-5.020752">
        <ele>244.235339</ele>
        <time>2020-08-13T10:32:41.494Z</time>
      </trkpt>
      <trkpt lat="37.616550" lon="-5.020816">
        <ele>244.191152</ele>
        <time>2020-08-13T10:32:43.493Z</time>
      </trkpt>
      <trkpt lat="37.616453" lon="-5.020880">
        <ele>244.146239</ele>
        <time>2020-08-13T10:32:45.499Z</time>
      </trkpt>
      <trkpt lat="37.616362" lon="-5.020921">
        <ele>244.106590</ele>
        <time>2020-08-13T10:32:47.502Z</time>
      </trkpt>
      <trkpt lat="37.616285" lon="-5.021009">
        <ele>244.063969</ele>
        <time>2020-08-13T10:32:49.479Z</time>
      </trkpt>
      <trkpt lat="37.616186" lon="-5.021054">
        <ele>244.020791</ele>
        <time>2020-08-13T10:32:51.503Z</time>
      </trkpt>
      <trkpt lat="37.616082" lon="-5.021123">
        <ele>243.972580</ele>
        <time>2020-08-13T10:32:53.505Z</time>
      </trkpt>
      <trkpt lat="37.615983" lon="-5.021192">
        <ele>243.926175</ele>
        <time>2020-08-13T10:32:55.496Z</time>
      </trkpt>
      <trkpt lat="37.615876" lon="-5.021243">
        <ele>243.879242</ele>
        <time>2020-08-13T10:32:57.496Z</time>
      </trkpt>
      <trkpt lat="37.615780" lon="-5.021300">
        <ele>243.835708</ele>
        <time>2020-08-13T10:32:59.492Z</time>
      </trkpt>
      <trkpt lat="37.615692" lon="-5.021333">
        <ele>243.798038</ele>
        <time>2020-08-13T10:33:01.494Z</time>
      </trkpt>
      <trkpt lat="37.615576" lon="-5.021380">
        <ele>243.748045</ele>
        <time>2020-08-13T10:33:03.496Z</time>
      </trkpt>
      <trkpt lat="37.615492" lon="-5.021437">
        <ele>243.708912</ele>
        <time>2020-08-13T10:33:05.489Z</time>
      </trkpt>
      <trkpt lat="37.615380" lon="-5.021543">
        <ele>243.651471</ele>
        <time>2020-08-13T10:33:08.491Z</time>
      </trkpt>
      <trkpt lat="37.615292" lon="-5.021626">
        <ele>243.606394</ele>
        <time>2020-08-13T10:33:10.485Z</time>
      </trkpt>
      <trkpt lat="37.615202" lon="-5.021685">
        <ele>243.571519</ele>
        <time>2020-08-13T10:33:12.485Z</time>
      </trkpt>
      <trkpt lat="37.615117" lon="-5.021742">
        <ele>243.542461</ele>
        <time>2020-08-13T10:33:14.497Z</time>
      </trkpt>
      <trkpt lat="37.614984" lon="-5.021691">
        <ele>243.500497</ele>
        <time>2020-08-13T10:33:16.491Z</time>
      </trkpt>
      <trkpt lat="37.614891" lon="-5.021748">
        <ele>243.469286</ele>
        <time>2020-08-13T10:33:18.498Z</time>
      </trkpt>
      <trkpt lat="37.614751" lon="-5.021773">
        <ele>243.426599</ele>
        <time>2020-08-13T10:33:20.493Z</time>
      </trkpt>
      <trkpt lat="37.614779" lon="-5.022000">
        <ele>243.371658</ele>
        <time>2020-08-13T10:33:22.496Z</time>
      </trkpt>
      <trkpt lat="37.614781" lon="-5.022164">
        <ele>243.332434</ele>
        <time>2020-08-13T10:33:24.489Z</time>
      </trkpt>
      <trkpt lat="37.614661" lon="-5.022216">
        <ele>243.294130</ele>
        <time>2020-08-13T10:33:27.503Z</time>
      </trkpt>
      <trkpt lat="37.614554" lon="-5.022235">
        <ele>243.261509</ele>
        <time>2020-08-13T10:33:29.487Z</time>
      </trkpt>
      <trkpt lat="37.614470" lon="-5.022289">
        <ele>243.233050</ele>
        <time>2020-08-13T10:33:31.488Z</time>
      </trkpt>
      <trkpt lat="37.614356" lon="-5.022307">
        <ele>243.198365</ele>
        <time>2020-08-13T10:33:33.493Z</time>
      </trkpt>
      <trkpt lat="37.614236" lon="-5.022342">
        <ele>243.161183</ele>
        <time>2020-08-13T10:33:36.492Z</time>
      </trkpt>
      <trkpt lat="37.614209" lon="-5.022463">
        <ele>243.131120</ele>
        <time>2020-08-13T10:33:38.498Z</time>
      </trkpt>
      <trkpt lat="37.614111" lon="-5.022490">
        <ele>243.100837</ele>
        <time>2020-08-13T10:33:40.488Z</time>
      </trkpt>
      <trkpt lat="37.614016" lon="-5.022511">
        <ele>243.071720</ele>
        <time>2020-08-13T10:33:42.483Z</time>
      </trkpt>
      <trkpt lat="37.613915" lon="-5.022606">
        <ele>243.077670</ele>
        <time>2020-08-13T10:33:45.496Z</time>
      </trkpt>
      <trkpt lat="37.613799" lon="-5.022712">
        <ele>243.174543</ele>
        <time>2020-08-13T10:33:48.488Z</time>
      </trkpt>
      <trkpt lat="37.613724" lon="-5.022789">
        <ele>243.239940</ele>
        <time>2020-08-13T10:33:50.489Z</time>
      </trkpt>
      <trkpt lat="37.613630" lon="-5.022848">
        <ele>243.310956</ele>
        <time>2020-08-13T10:33:52.497Z</time>
      </trkpt>
      <trkpt lat="37.613543" lon="-5.022946">
        <ele>243.389833</ele>
        <time>2020-08-13T10:33:54.501Z</time>
      </trkpt>
      <trkpt lat="37.613442" lon="-5.022986">
        <ele>243.461442</ele>
        <time>2020-08-13T10:33:57.500Z</time>
      </trkpt>
      <trkpt lat="37.613352" lon="-5.023159">
        <ele>243.572353</ele>
        <time>2020-08-13T10:34:00.487Z</time>
      </trkpt>
      <trkpt lat="37.613251" lon="-5.023227">
        <ele>243.649787</ele>
        <time>2020-08-13T10:34:03.494Z</time>
      </trkpt>
      <trkpt lat="37.613176" lon="-5.023320">
        <ele>243.720906</ele>
        <time>2020-08-13T10:34:05.490Z</time>
      </trkpt>
      <trkpt lat="37.612907" lon="-5.023155">
        <ele>243.923224</ele>
        <time>2020-08-13T10:34:06.500Z</time>
      </trkpt>
      <trkpt lat="37.612894" lon="-5.023293">
        <ele>243.997696</ele>
        <time>2020-08-13T10:34:07.478Z</time>
      </trkpt>
      <trkpt lat="37.612725" lon="-5.023300">
        <ele>244.112083</ele>
        <time>2020-08-13T10:34:10.494Z</time>
      </trkpt>
      <trkpt lat="37.611708" lon="-5.023726">
        <ele>244.014572</ele>
        <time>2020-08-13T10:34:36.564Z</time>
      </trkpt>
      <trkpt lat="37.611617" lon="-5.023828">
        <ele>243.978730</ele>
        <time>2020-08-13T10:34:38.492Z</time>
      </trkpt>
      <trkpt lat="37.611544" lon="-5.023917">
        <ele>243.948839</ele>
        <time>2020-08-13T10:34:40.488Z</time>
      </trkpt>
      <trkpt lat="37.611461" lon="-5.024010">
        <ele>243.916153</ele>
        <time>2020-08-13T10:34:42.487Z</time>
      </trkpt>
      <trkpt lat="37.611476" lon="-5.024130">
        <ele>243.887809</ele>
        <time>2020-08-13T10:34:43.494Z</time>
      </trkpt>
      <trkpt lat="37.611368" lon="-5.024213">
        <ele>243.850569</ele>
        <time>2020-08-13T10:34:45.484Z</time>
      </trkpt>
      <trkpt lat="37.611283" lon="-5.024304">
        <ele>243.817743</ele>
        <time>2020-08-13T10:34:47.487Z</time>
      </trkpt>
      <trkpt lat="37.611191" lon="-5.024389">
        <ele>243.784165</ele>
        <time>2020-08-13T10:34:50.485Z</time>
      </trkpt>
      <trkpt lat="37.611074" lon="-5.024467">
        <ele>243.745195</ele>
        <time>2020-08-13T10:34:53.490Z</time>
      </trkpt>
      <trkpt lat="37.610965" lon="-5.024504">
        <ele>243.789913</ele>
        <time>2020-08-13T10:34:55.477Z</time>
      </trkpt>
      <trkpt lat="37.610946" lon="-5.024632">
        <ele>243.865668</ele>
        <time>2020-08-13T10:34:57.492Z</time>
      </trkpt>
      <trkpt lat="37.610806" lon="-5.024641">
        <ele>243.968607</ele>
        <time>2020-08-13T10:34:59.511Z</time>
      </trkpt>
      <trkpt lat="37.610694" lon="-5.024643">
        <ele>244.050860</ele>
        <time>2020-08-13T10:35:01.485Z</time>
      </trkpt>
      <trkpt lat="37.610743" lon="-5.024968">
        <ele>244.243312</ele>
        <time>2020-08-13T10:35:03.493Z</time>
      </trkpt>
      <trkpt lat="37.610599" lon="-5.024931">
        <ele>244.351223</ele>
        <time>2020-08-13T10:35:04.505Z</time>
      </trkpt>
      <trkpt lat="37.610476" lon="-5.024975">
        <ele>244.445102</ele>
        <time>2020-08-13T10:35:07.498Z</time>
      </trkpt>
      <trkpt lat="37.610329" lon="-5.025032">
        <ele>244.558026</ele>
        <time>2020-08-13T10:35:10.499Z</time>
      </trkpt>
      <trkpt lat="37.610183" lon="-5.025045">
        <ele>244.665505</ele>
        <time>2020-08-13T10:35:13.502Z</time>
      </trkpt>
      <trkpt lat="37.610048" lon="-5.025112">
        <ele>244.772026</ele>
        <time>2020-08-13T10:35:15.482Z</time>
      </trkpt>
      <trkpt lat="37.609966" lon="-5.025237">
        <ele>244.866436</ele>
        <time>2020-08-13T10:35:17.491Z</time>
      </trkpt>
      <trkpt lat="37.609874" lon="-5.025137">
        <ele>244.955588</ele>
        <time>2020-08-13T10:35:18.497Z</time>
      </trkpt>
      <trkpt lat="37.609787" lon="-5.025228">
        <ele>245.038557</ele>
        <time>2020-08-13T10:35:20.496Z</time>
      </trkpt>
      <trkpt lat="37.609681" lon="-5.025292">
        <ele>245.026561</ele>
        <time>2020-08-13T10:35:22.494Z</time>
      </trkpt>
      <trkpt lat="37.609558" lon="-5.025418">
        <ele>244.979048</ele>
        <time>2020-08-13T10:35:25.510Z</time>
      </trkpt>
      <trkpt lat="37.609493" lon="-5.025505">
        <ele>244.950633</ele>
        <time>2020-08-13T10:35:26.486Z</time>
      </trkpt>
      <trkpt lat="37.609380" lon="-5.025574">
        <ele>244.912981</ele>
        <time>2020-08-13T10:35:28.501Z</time>
      </trkpt>
      <trkpt lat="37.609260" lon="-5.025624">
        <ele>244.875078</ele>
        <time>2020-08-13T10:35:30.499Z</time>
      </trkpt>
      <trkpt lat="37.609154" lon="-5.025669">
        <ele>244.841534</ele>
        <time>2020-08-13T10:35:32.494Z</time>
      </trkpt>
      <trkpt lat="37.609051" lon="-5.025703">
        <ele>244.809600</ele>
        <time>2020-08-13T10:35:34.500Z</time>
      </trkpt>
      <trkpt lat="37.608946" lon="-5.025741">
        <ele>244.776837</ele>
        <time>2020-08-13T10:35:36.495Z</time>
      </trkpt>
      <trkpt lat="37.608825" lon="-5.025886">
        <ele>244.726794</ele>
        <time>2020-08-13T10:35:38.493Z</time>
      </trkpt>
      <trkpt lat="37.608699" lon="-5.025882">
        <ele>244.688989</ele>
        <time>2020-08-13T10:35:39.500Z</time>
      </trkpt>
      <trkpt lat="37.608593" lon="-5.025915">
        <ele>244.656242</ele>
        <time>2020-08-13T10:35:41.493Z</time>
      </trkpt>
      <trkpt lat="37.608304" lon="-5.026140">
        <ele>244.554396</ele>
        <time>2020-08-13T10:35:46.495Z</time>
      </trkpt>
      <trkpt lat="37.608192" lon="-5.026237">
        <ele>244.501480</ele>
        <time>2020-08-13T10:35:48.492Z</time>
      </trkpt>
      <trkpt lat="37.608044" lon="-5.026232">
        <ele>244.174247</ele>
        <time>2020-08-13T10:35:50.497Z</time>
      </trkpt>
      <trkpt lat="37.607903" lon="-5.026234">
        <ele>243.862583</ele>
        <time>2020-08-13T10:35:51.495Z</time>
      </trkpt>
      <trkpt lat="37.607766" lon="-5.026246">
        <ele>243.559052</ele>
        <time>2020-08-13T10:35:53.499Z</time>
      </trkpt>
      <trkpt lat="37.607784" lon="-5.026378">
        <ele>243.324525</ele>
        <time>2020-08-13T10:35:54.486Z</time>
      </trkpt>
      <trkpt lat="37.607753" lon="-5.026507">
        <ele>243.088487</ele>
        <time>2020-08-13T10:35:56.495Z</time>
      </trkpt>
      <trkpt lat="37.607784" lon="-5.026630">
        <ele>242.862481</ele>
        <time>2020-08-13T10:35:57.491Z</time>
      </trkpt>
      <trkpt lat="37.607682" lon="-5.026666">
        <ele>242.628390</ele>
        <time>2020-08-13T10:36:00.499Z</time>
      </trkpt>
      <trkpt lat="37.607550" lon="-5.026692">
        <ele>242.333107</ele>
        <time>2020-08-13T10:36:03.504Z</time>
      </trkpt>
      <trkpt lat="37.607454" lon="-5.026703">
        <ele>242.120052</ele>
        <time>2020-08-13T10:36:05.489Z</time>
      </trkpt>
      <trkpt lat="37.607371" lon="-5.026775">
        <ele>241.897458</ele>
        <time>2020-08-13T10:36:07.485Z</time>
      </trkpt>
      <trkpt lat="37.607265" lon="-5.026826">
        <ele>241.646731</ele>
        <time>2020-08-13T10:36:09.494Z</time>
      </trkpt>
      <trkpt lat="37.607179" lon="-5.026976">
        <ele>241.322518</ele>
        <time>2020-08-13T10:36:12.498Z</time>
      </trkpt>
      <trkpt lat="37.607059" lon="-5.026987">
        <ele>241.056590</ele>
        <time>2020-08-13T10:36:14.489Z</time>
      </trkpt>
      <trkpt lat="37.606935" lon="-5.027070">
        <ele>240.746371</ele>
        <time>2020-08-13T10:36:17.493Z</time>
      </trkpt>
      <trkpt lat="37.606802" lon="-5.027074">
        <ele>240.594846</ele>
        <time>2020-08-13T10:36:20.494Z</time>
      </trkpt>
      <trkpt lat="37.606711" lon="-5.027014">
        <ele>240.736250</ele>
        <time>2020-08-13T10:36:21.493Z</time>
      </trkpt>
      <trkpt lat="37.606570" lon="-5.027067">
        <ele>240.938879</ele>
        <time>2020-08-13T10:36:23.495Z</time>
      </trkpt>
      <trkpt lat="37.606429" lon="-5.027095">
        <ele>241.135469</ele>
        <time>2020-08-13T10:36:25.491Z</time>
      </trkpt>
      <trkpt lat="37.606279" lon="-5.027042">
        <ele>241.350008</ele>
        <time>2020-08-13T10:36:26.490Z</time>
      </trkpt>
      <trkpt lat="37.606213" lon="-5.027260">
        <ele>241.604654</ele>
        <time>2020-08-13T10:36:29.497Z</time>
      </trkpt>
      <trkpt lat="37.605979" lon="-5.027134">
        <ele>241.955045</ele>
        <time>2020-08-13T10:36:31.493Z</time>
      </trkpt>
      <trkpt lat="37.605872" lon="-5.027074">
        <ele>242.116306</ele>
        <time>2020-08-13T10:36:32.495Z</time>
      </trkpt>
      <trkpt lat="37.605963" lon="-5.027238">
        <ele>242.334781</ele>
        <time>2020-08-13T10:36:34.479Z</time>
      </trkpt>
      <trkpt lat="37.605913" lon="-5.027370">
        <ele>242.494429</ele>
        <time>2020-08-13T10:36:36.494Z</time>
      </trkpt>
      <trkpt lat="37.605707" lon="-5.027280">
        <ele>242.794670</ele>
        <time>2020-08-13T10:36:38.486Z</time>
      </trkpt>
      <trkpt lat="37.605624" lon="-5.027224">
        <ele>242.924293</ele>
        <time>2020-08-13T10:36:39.493Z</time>
      </trkpt>
      <trkpt lat="37.605636" lon="-5.027383">
        <ele>243.009549</ele>
        <time>2020-08-13T10:36:40.485Z</time>
      </trkpt>
      <trkpt lat="37.605529" lon="-5.027220">
        <ele>242.987119</ele>
        <time>2020-08-13T10:36:41.487Z</time>
      </trkpt>
      <trkpt lat="37.605419" lon="-5.027178">
        <ele>242.971748</ele>
        <time>2020-08-13T10:36:43.491Z</time>
      </trkpt>
      <trkpt lat="37.605322" lon="-5.027102">
        <ele>242.956478</ele>
        <time>2020-08-13T10:36:45.489Z</time>
      </trkpt>
      <trkpt lat="37.604636" lon="-5.027332">
        <ele>242.861543</ele>
        <time>2020-08-13T10:36:59.498Z</time>
      </trkpt>
      <trkpt lat="37.604530" lon="-5.027290">
        <ele>242.846683</ele>
        <time>2020-08-13T10:37:01.490Z</time>
      </trkpt>
      <trkpt lat="37.604476" lon="-5.027551">
        <ele>242.818099</ele>
        <time>2020-08-13T10:37:04.492Z</time>
      </trkpt>
      <trkpt lat="37.604385" lon="-5.027510">
        <ele>242.805175</ele>
        <time>2020-08-13T10:37:05.491Z</time>
      </trkpt>
      <trkpt lat="37.604262" lon="-5.027478">
        <ele>242.788378</ele>
        <time>2020-08-13T10:37:07.494Z</time>
      </trkpt>
      <trkpt lat="37.604132" lon="-5.027495">
        <ele>242.754740</ele>
        <time>2020-08-13T10:37:09.487Z</time>
      </trkpt>
      <trkpt lat="37.604019" lon="-5.027546">
        <ele>242.695181</ele>
        <time>2020-08-13T10:37:11.485Z</time>
      </trkpt>
      <trkpt lat="37.603910" lon="-5.027564">
        <ele>242.640622</ele>
        <time>2020-08-13T10:37:13.484Z</time>
      </trkpt>
      <trkpt lat="37.603813" lon="-5.027553">
        <ele>242.592287</ele>
        <time>2020-08-13T10:37:15.488Z</time>
      </trkpt>
      <trkpt lat="37.603650" lon="-5.027526">
        <ele>242.510696</ele>
        <time>2020-08-13T10:37:17.497Z</time>
      </trkpt>
      <trkpt lat="37.603534" lon="-5.027544">
        <ele>242.452691</ele>
        <time>2020-08-13T10:37:19.489Z</time>
      </trkpt>
      <trkpt lat="37.603426" lon="-5.027604">
        <ele>242.394128</ele>
        <time>2020-08-13T10:37:21.496Z</time>
      </trkpt>
      <trkpt lat="37.603310" lon="-5.027622">
        <ele>242.336124</ele>
        <time>2020-08-13T10:37:23.495Z</time>
      </trkpt>
      <trkpt lat="37.603172" lon="-5.027636">
        <ele>242.267413</ele>
        <time>2020-08-13T10:37:25.497Z</time>
      </trkpt>
      <trkpt lat="37.603077" lon="-5.027746">
        <ele>242.203431</ele>
        <time>2020-08-13T10:37:27.497Z</time>
      </trkpt>
      <trkpt lat="37.602966" lon="-5.027838">
        <ele>242.137526</ele>
        <time>2020-08-13T10:37:29.491Z</time>
      </trkpt>
      <trkpt lat="37.602841" lon="-5.027779">
        <ele>242.071292</ele>
        <time>2020-08-13T10:37:31.497Z</time>
      </trkpt>
      <trkpt lat="37.602734" lon="-5.027838">
        <ele>242.013341</ele>
        <time>2020-08-13T10:37:33.497Z</time>
      </trkpt>
      <trkpt lat="37.602627" lon="-5.027883">
        <ele>241.957367</ele>
        <time>2020-08-13T10:37:35.483Z</time>
      </trkpt>
      <trkpt lat="37.602477" lon="-5.027878">
        <ele>241.885521</ele>
        <time>2020-08-13T10:37:37.492Z</time>
      </trkpt>
      <trkpt lat="37.602376" lon="-5.027936">
        <ele>241.942568</ele>
        <time>2020-08-13T10:37:39.492Z</time>
      </trkpt>
      <trkpt lat="37.602206" lon="-5.027932">
        <ele>242.029983</ele>
        <time>2020-08-13T10:37:42.474Z</time>
      </trkpt>
      <trkpt lat="37.602080" lon="-5.027916">
        <ele>242.095088</ele>
        <time>2020-08-13T10:37:44.482Z</time>
      </trkpt>
      <trkpt lat="37.601974" lon="-5.027968">
        <ele>242.153556</ele>
        <time>2020-08-13T10:37:46.488Z</time>
      </trkpt>
      <trkpt lat="37.601869" lon="-5.028000">
        <ele>242.209089</ele>
        <time>2020-08-13T10:37:48.497Z</time>
      </trkpt>
      <trkpt lat="37.601781" lon="-5.028031">
        <ele>242.256060</ele>
        <time>2020-08-13T10:37:50.502Z</time>
      </trkpt>
      <trkpt lat="37.601682" lon="-5.028044">
        <ele>242.307232</ele>
        <time>2020-08-13T10:37:52.498Z</time>
      </trkpt>
      <trkpt lat="37.601585" lon="-5.028058">
        <ele>242.357426</ele>
        <time>2020-08-13T10:37:54.491Z</time>
      </trkpt>
      <trkpt lat="37.601490" lon="-5.028085">
        <ele>242.407490</ele>
        <time>2020-08-13T10:37:56.486Z</time>
      </trkpt>
      <trkpt lat="37.601374" lon="-5.028115">
        <ele>242.468367</ele>
        <time>2020-08-13T10:37:58.503Z</time>
      </trkpt>
      <trkpt lat="37.601244" lon="-5.028108">
        <ele>242.535262</ele>
        <time>2020-08-13T10:38:01.498Z</time>
      </trkpt>
      <trkpt lat="37.601133" lon="-5.028180">
        <ele>242.599424</ele>
        <time>2020-08-13T10:38:04.499Z</time>
      </trkpt>
      <trkpt lat="37.601022" lon="-5.028228">
        <ele>242.659747</ele>
        <time>2020-08-13T10:38:06.504Z</time>
      </trkpt>
      <trkpt lat="37.600400" lon="-5.028041">
        <ele>243.070773</ele>
        <time>2020-08-13T10:38:14.488Z</time>
      </trkpt>
      <trkpt lat="37.600284" lon="-5.028031">
        <ele>243.157944</ele>
        <time>2020-08-13T10:38:16.485Z</time>
      </trkpt>
      <trkpt lat="37.600181" lon="-5.028114">
        <ele>243.249563</ele>
        <time>2020-08-13T10:38:18.494Z</time>
      </trkpt>
      <trkpt lat="37.600031" lon="-5.028171">
        <ele>243.367009</ele>
        <time>2020-08-13T10:38:20.492Z</time>
      </trkpt>
      <trkpt lat="37.599638" lon="-5.028352">
        <ele>243.680656</ele>
        <time>2020-08-13T10:38:21.492Z</time>
      </trkpt>
      <trkpt lat="37.597587" lon="-5.029113">
        <ele>241.142793</ele>
        <time>2020-08-13T10:39:03.492Z</time>
      </trkpt>
      <trkpt lat="37.597345" lon="-5.028866">
        <ele>240.458179</ele>
        <time>2020-08-13T10:39:07.056Z</time>
      </trkpt>
      <trkpt lat="37.597165" lon="-5.028824">
        <ele>239.334161</ele>
        <time>2020-08-13T10:39:09.053Z</time>
      </trkpt>
      <trkpt lat="37.597080" lon="-5.028886">
        <ele>238.731324</ele>
        <time>2020-08-13T10:39:11.035Z</time>
      </trkpt>
      <trkpt lat="37.596984" lon="-5.028956">
        <ele>238.050530</ele>
        <time>2020-08-13T10:39:13.057Z</time>
      </trkpt>
      <trkpt lat="37.596874" lon="-5.028988">
        <ele>237.357365</ele>
        <time>2020-08-13T10:39:15.055Z</time>
      </trkpt>
      <trkpt lat="37.596779" lon="-5.029001">
        <ele>236.770600</ele>
        <time>2020-08-13T10:39:17.050Z</time>
      </trkpt>
      <trkpt lat="37.596688" lon="-5.028997">
        <ele>236.211476</ele>
        <time>2020-08-13T10:39:18.056Z</time>
      </trkpt>
      <trkpt lat="37.596573" lon="-5.029001">
        <ele>235.505052</ele>
        <time>2020-08-13T10:39:20.059Z</time>
      </trkpt>
      <trkpt lat="37.596449" lon="-5.029064">
        <ele>234.684252</ele>
        <time>2020-08-13T10:39:23.053Z</time>
      </trkpt>
      <trkpt lat="37.596316" lon="-5.029035">
        <ele>233.855469</ele>
        <time>2020-08-13T10:39:25.048Z</time>
      </trkpt>
      <trkpt lat="37.596114" lon="-5.028955">
        <ele>232.555455</ele>
        <time>2020-08-13T10:39:27.053Z</time>
      </trkpt>
      <trkpt lat="37.595996" lon="-5.028892">
        <ele>231.768712</ele>
        <time>2020-08-13T10:39:29.053Z</time>
      </trkpt>
      <trkpt lat="37.595951" lon="-5.029240">
        <ele>230.053184</ele>
        <time>2020-08-13T10:39:32.062Z</time>
      </trkpt>
      <trkpt lat="37.595826" lon="-5.029286">
        <ele>229.284602</ele>
        <time>2020-08-13T10:39:35.053Z</time>
      </trkpt>
      <trkpt lat="37.595704" lon="-5.029298">
        <ele>228.626567</ele>
        <time>2020-08-13T10:39:37.058Z</time>
      </trkpt>
      <trkpt lat="37.595591" lon="-5.029331">
        <ele>228.002864</ele>
        <time>2020-08-13T10:39:39.047Z</time>
      </trkpt>
      <trkpt lat="37.595500" lon="-5.029401">
        <ele>227.429791</ele>
        <time>2020-08-13T10:39:41.050Z</time>
      </trkpt>
      <trkpt lat="37.595392" lon="-5.029431">
        <ele>226.835129</ele>
        <time>2020-08-13T10:39:43.055Z</time>
      </trkpt>
      <trkpt lat="37.595272" lon="-5.029431">
        <ele>226.189839</ele>
        <time>2020-08-13T10:39:45.065Z</time>
      </trkpt>
      <trkpt lat="37.595165" lon="-5.029466">
        <ele>225.595444</ele>
        <time>2020-08-13T10:39:47.052Z</time>
      </trkpt>
      <trkpt lat="37.595037" lon="-5.029462">
        <ele>224.906923</ele>
        <time>2020-08-13T10:39:49.052Z</time>
      </trkpt>
      <trkpt lat="37.594885" lon="-5.029412">
        <ele>224.062249</ele>
        <time>2020-08-13T10:39:52.061Z</time>
      </trkpt>
      <trkpt lat="37.594761" lon="-5.029456">
        <ele>223.369595</ele>
        <time>2020-08-13T10:39:54.040Z</time>
      </trkpt>
      <trkpt lat="37.594673" lon="-5.029491">
        <ele>222.873441</ele>
        <time>2020-08-13T10:39:56.066Z</time>
      </trkpt>
      <trkpt lat="37.594560" lon="-5.029466">
        <ele>222.256527</ele>
        <time>2020-08-13T10:39:58.051Z</time>
      </trkpt>
      <trkpt lat="37.594444" lon="-5.029544">
        <ele>221.549736</ele>
        <time>2020-08-13T10:40:00.059Z</time>
      </trkpt>
      <trkpt lat="37.594347" lon="-5.029547">
        <ele>221.027969</ele>
        <time>2020-08-13T10:40:02.036Z</time>
      </trkpt>
      <trkpt lat="37.594231" lon="-5.029547">
        <ele>220.404189</ele>
        <time>2020-08-13T10:40:04.058Z</time>
      </trkpt>
      <trkpt lat="37.594102" lon="-5.029540">
        <ele>219.790730</ele>
        <time>2020-08-13T10:40:06.063Z</time>
      </trkpt>
      <trkpt lat="37.593987" lon="-5.029527">
        <ele>219.585743</ele>
        <time>2020-08-13T10:40:08.051Z</time>
      </trkpt>
      <trkpt lat="37.593867" lon="-5.029520">
        <ele>219.372468</ele>
        <time>2020-08-13T10:40:10.053Z</time>
      </trkpt>
      <trkpt lat="37.593765" lon="-5.029515">
        <ele>219.191241</ele>
        <time>2020-08-13T10:40:12.055Z</time>
      </trkpt>
      <trkpt lat="37.593632" lon="-5.029541">
        <ele>218.952298</ele>
        <time>2020-08-13T10:40:14.043Z</time>
      </trkpt>
      <trkpt lat="37.593496" lon="-5.029544">
        <ele>218.710807</ele>
        <time>2020-08-13T10:40:16.058Z</time>
      </trkpt>
      <trkpt lat="37.593387" lon="-5.029552">
        <ele>218.516962</ele>
        <time>2020-08-13T10:40:18.032Z</time>
      </trkpt>
      <trkpt lat="37.593239" lon="-5.029554">
        <ele>218.254189</ele>
        <time>2020-08-13T10:40:20.045Z</time>
      </trkpt>
      <trkpt lat="37.593111" lon="-5.029552">
        <ele>218.026921</ele>
        <time>2020-08-13T10:40:22.067Z</time>
      </trkpt>
      <trkpt lat="37.592985" lon="-5.029573">
        <ele>217.801279</ele>
        <time>2020-08-13T10:40:24.056Z</time>
      </trkpt>
      <trkpt lat="37.592881" lon="-5.029573">
        <ele>217.616638</ele>
        <time>2020-08-13T10:40:25.044Z</time>
      </trkpt>
      <trkpt lat="37.592712" lon="-5.029592">
        <ele>217.315408</ele>
        <time>2020-08-13T10:40:27.065Z</time>
      </trkpt>
      <trkpt lat="37.592575" lon="-5.029668">
        <ele>217.049718</ele>
        <time>2020-08-13T10:40:29.042Z</time>
      </trkpt>
      <trkpt lat="37.592481" lon="-5.029693">
        <ele>216.879166</ele>
        <time>2020-08-13T10:40:30.052Z</time>
      </trkpt>
      <trkpt lat="37.592484" lon="-5.029882">
        <ele>216.636658</ele>
        <time>2020-08-13T10:40:31.043Z</time>
      </trkpt>
      <trkpt lat="37.592304" lon="-5.029984">
        <ele>216.627477</ele>
        <time>2020-08-13T10:40:33.049Z</time>
      </trkpt>
      <trkpt lat="37.592218" lon="-5.030034">
        <ele>216.623071</ele>
        <time>2020-08-13T10:40:34.059Z</time>
      </trkpt>
      <trkpt lat="37.591973" lon="-5.029882">
        <ele>216.610368</ele>
        <time>2020-08-13T10:40:36.058Z</time>
      </trkpt>
      <trkpt lat="37.591657" lon="-5.030014">
        <ele>216.594880</ele>
        <time>2020-08-13T10:40:40.092Z</time>
      </trkpt>
      <trkpt lat="37.591200" lon="-5.030537">
        <ele>216.566174</ele>
        <time>2020-08-13T10:40:49.065Z</time>
      </trkpt>
      <trkpt lat="37.590944" lon="-5.031364">
        <ele>216.614851</ele>
        <time>2020-08-13T10:41:02.052Z</time>
      </trkpt>
      <trkpt lat="37.590827" lon="-5.031565">
        <ele>216.642793</ele>
        <time>2020-08-13T10:41:04.063Z</time>
      </trkpt>
      <trkpt lat="37.590751" lon="-5.031736">
        <ele>216.664760</ele>
        <time>2020-08-13T10:41:06.052Z</time>
      </trkpt>
      <trkpt lat="37.590647" lon="-5.031871">
        <ele>216.685855</ele>
        <time>2020-08-13T10:41:08.051Z</time>
      </trkpt>
      <trkpt lat="37.590552" lon="-5.031988">
        <ele>216.704623</ele>
        <time>2020-08-13T10:41:10.057Z</time>
      </trkpt>
      <trkpt lat="37.590545" lon="-5.032106">
        <ele>216.717881</ele>
        <time>2020-08-13T10:41:11.043Z</time>
      </trkpt>
      <trkpt lat="37.590524" lon="-5.032255">
        <ele>216.734836</ele>
        <time>2020-08-13T10:41:13.053Z</time>
      </trkpt>
      <trkpt lat="37.590455" lon="-5.032399">
        <ele>216.753690</ele>
        <time>2020-08-13T10:41:15.056Z</time>
      </trkpt>
      <trkpt lat="37.590373" lon="-5.032515">
        <ele>216.771107</ele>
        <time>2020-08-13T10:41:17.049Z</time>
      </trkpt>
      <trkpt lat="37.590293" lon="-5.032660">
        <ele>216.790902</ele>
        <time>2020-08-13T10:41:19.043Z</time>
      </trkpt>
      <trkpt lat="37.590213" lon="-5.032768">
        <ele>216.807466</ele>
        <time>2020-08-13T10:41:21.053Z</time>
      </trkpt>
      <trkpt lat="37.590146" lon="-5.032846">
        <ele>216.701755</ele>
        <time>2020-08-13T10:41:22.044Z</time>
      </trkpt>
      <trkpt lat="37.590041" lon="-5.032974">
        <ele>216.525663</ele>
        <time>2020-08-13T10:41:24.043Z</time>
      </trkpt>
      <trkpt lat="37.589953" lon="-5.033113">
        <ele>216.355609</ele>
        <time>2020-08-13T10:41:28.042Z</time>
      </trkpt>
      <trkpt lat="37.589941" lon="-5.033315">
        <ele>216.161995</ele>
        <time>2020-08-13T10:41:29.041Z</time>
      </trkpt>
      <trkpt lat="37.589858" lon="-5.033369">
        <ele>216.049358</ele>
        <time>2020-08-13T10:41:31.048Z</time>
      </trkpt>
      <trkpt lat="37.588759" lon="-5.035436">
        <ele>213.704732</ele>
        <time>2020-08-13T10:42:02.049Z</time>
      </trkpt>
      <trkpt lat="37.588755" lon="-5.035603">
        <ele>213.550739</ele>
        <time>2020-08-13T10:42:04.046Z</time>
      </trkpt>
      <trkpt lat="37.588694" lon="-5.035806">
        <ele>213.350633</ele>
        <time>2020-08-13T10:42:06.049Z</time>
      </trkpt>
      <trkpt lat="37.588627" lon="-5.035980">
        <ele>213.172326</ele>
        <time>2020-08-13T10:42:08.050Z</time>
      </trkpt>
      <trkpt lat="37.588502" lon="-5.035991">
        <ele>213.026578</ele>
        <time>2020-08-13T10:42:10.051Z</time>
      </trkpt>
      <trkpt lat="37.588423" lon="-5.036118">
        <ele>212.877764</ele>
        <time>2020-08-13T10:42:12.062Z</time>
      </trkpt>
      <trkpt lat="37.588335" lon="-5.036228">
        <ele>212.733693</ele>
        <time>2020-08-13T10:42:14.064Z</time>
      </trkpt>
      <trkpt lat="37.588262" lon="-5.036111">
        <ele>212.596438</ele>
        <time>2020-08-13T10:42:15.043Z</time>
      </trkpt>
      <trkpt lat="37.588253" lon="-5.036295">
        <ele>212.598760</ele>
        <time>2020-08-13T10:42:16.056Z</time>
      </trkpt>
      <trkpt lat="37.588223" lon="-5.036465">
        <ele>212.669157</ele>
        <time>2020-08-13T10:42:18.043Z</time>
      </trkpt>
      <trkpt lat="37.588129" lon="-5.036571">
        <ele>212.733458</ele>
        <time>2020-08-13T10:42:20.053Z</time>
      </trkpt>
      <trkpt lat="37.588067" lon="-5.036711">
        <ele>212.798284</ele>
        <time>2020-08-13T10:42:22.063Z</time>
      </trkpt>
      <trkpt lat="37.588040" lon="-5.036895">
        <ele>212.873921</ele>
        <time>2020-08-13T10:42:24.054Z</time>
      </trkpt>
      <trkpt lat="37.587999" lon="-5.037060">
        <ele>212.943816</ele>
        <time>2020-08-13T10:42:27.060Z</time>
      </trkpt>
      <trkpt lat="37.588108" lon="-5.037217">
        <ele>213.028186</ele>
        <time>2020-08-13T10:42:28.045Z</time>
      </trkpt>
      <trkpt lat="37.588079" lon="-5.037395">
        <ele>213.101639</ele>
        <time>2020-08-13T10:42:30.040Z</time>
      </trkpt>
      <trkpt lat="37.588141" lon="-5.037506">
        <ele>213.156531</ele>
        <time>2020-08-13T10:42:31.046Z</time>
      </trkpt>
      <trkpt lat="37.588074" lon="-5.037662">
        <ele>213.228252</ele>
        <time>2020-08-13T10:42:33.049Z</time>
      </trkpt>
      <trkpt lat="37.588026" lon="-5.037814">
        <ele>213.294389</ele>
        <time>2020-08-13T10:42:35.054Z</time>
      </trkpt>
      <trkpt lat="37.587983" lon="-5.037954">
        <ele>213.355079</ele>
        <time>2020-08-13T10:42:37.050Z</time>
      </trkpt>
      <trkpt lat="37.587951" lon="-5.038114">
        <ele>213.421779</ele>
        <time>2020-08-13T10:42:39.049Z</time>
      </trkpt>
      <trkpt lat="37.587963" lon="-5.038291">
        <ele>213.422481</ele>
        <time>2020-08-13T10:42:41.060Z</time>
      </trkpt>
      <trkpt lat="37.587893" lon="-5.038445">
        <ele>213.323425</ele>
        <time>2020-08-13T10:42:43.049Z</time>
      </trkpt>
      <trkpt lat="37.587874" lon="-5.038566">
        <ele>213.254602</ele>
        <time>2020-08-13T10:42:44.050Z</time>
      </trkpt>
      <trkpt lat="37.587820" lon="-5.038748">
        <ele>213.146172</ele>
        <time>2020-08-13T10:42:46.051Z</time>
      </trkpt>
      <trkpt lat="37.587732" lon="-5.038847">
        <ele>213.063165</ele>
        <time>2020-08-13T10:42:47.052Z</time>
      </trkpt>
      <trkpt lat="37.587743" lon="-5.039027">
        <ele>212.962437</ele>
        <time>2020-08-13T10:42:48.041Z</time>
      </trkpt>
      <trkpt lat="37.587655" lon="-5.039138">
        <ele>212.874832</ele>
        <time>2020-08-13T10:42:49.058Z</time>
      </trkpt>
      <trkpt lat="37.587703" lon="-5.039315">
        <ele>212.770453</ele>
        <time>2020-08-13T10:42:51.055Z</time>
      </trkpt>
      <trkpt lat="37.587717" lon="-5.039518">
        <ele>212.656763</ele>
        <time>2020-08-13T10:42:53.046Z</time>
      </trkpt>
      <trkpt lat="37.587718" lon="-5.039664">
        <ele>212.575300</ele>
        <time>2020-08-13T10:42:55.042Z</time>
      </trkpt>
      <trkpt lat="37.587732" lon="-5.039841">
        <ele>212.476054</ele>
        <time>2020-08-13T10:42:57.044Z</time>
      </trkpt>
      <trkpt lat="37.587675" lon="-5.040050">
        <ele>212.352731</ele>
        <time>2020-08-13T10:42:59.055Z</time>
      </trkpt>
      <trkpt lat="37.587629" lon="-5.040211">
        <ele>212.257241</ele>
        <time>2020-08-13T10:43:01.046Z</time>
      </trkpt>
      <trkpt lat="37.587624" lon="-5.040356">
        <ele>212.201423</ele>
        <time>2020-08-13T10:43:03.040Z</time>
      </trkpt>
      <trkpt lat="37.587582" lon="-5.040507">
        <ele>212.218968</ele>
        <time>2020-08-13T10:43:05.042Z</time>
      </trkpt>
      <trkpt lat="37.587573" lon="-5.040647">
        <ele>212.234367</ele>
        <time>2020-08-13T10:43:07.056Z</time>
      </trkpt>
      <trkpt lat="37.587505" lon="-5.040753">
        <ele>212.249319</ele>
        <time>2020-08-13T10:43:09.056Z</time>
      </trkpt>
      <trkpt lat="37.587461" lon="-5.040905">
        <ele>212.267060</ele>
        <time>2020-08-13T10:43:11.052Z</time>
      </trkpt>
      <trkpt lat="37.587417" lon="-5.041068">
        <ele>212.285939</ele>
        <time>2020-08-13T10:43:13.037Z</time>
      </trkpt>
      <trkpt lat="37.587350" lon="-5.041191">
        <ele>212.302303</ele>
        <time>2020-08-13T10:43:15.050Z</time>
      </trkpt>
      <trkpt lat="37.587293" lon="-5.041324">
        <ele>212.318880</ele>
        <time>2020-08-13T10:43:17.041Z</time>
      </trkpt>
      <trkpt lat="37.586314" lon="-5.042524">
        <ele>212.186792</ele>
        <time>2020-08-13T10:43:39.060Z</time>
      </trkpt>
      <trkpt lat="37.586180" lon="-5.042603">
        <ele>212.100593</ele>
        <time>2020-08-13T10:43:41.041Z</time>
      </trkpt>
      <trkpt lat="37.586072" lon="-5.042758">
        <ele>212.005270</ele>
        <time>2020-08-13T10:43:43.052Z</time>
      </trkpt>
      <trkpt lat="37.585935" lon="-5.042873">
        <ele>211.909374</ele>
        <time>2020-08-13T10:43:45.059Z</time>
      </trkpt>
      <trkpt lat="37.585800" lon="-5.042938">
        <ele>211.825161</ele>
        <time>2020-08-13T10:43:47.055Z</time>
      </trkpt>
      <trkpt lat="37.585731" lon="-5.043086">
        <ele>211.745856</ele>
        <time>2020-08-13T10:43:49.048Z</time>
      </trkpt>
      <trkpt lat="37.584774" lon="-5.046003">
        <ele>208.292767</ele>
        <time>2020-08-13T10:44:25.040Z</time>
      </trkpt>
      <trkpt lat="37.584802" lon="-5.046147">
        <ele>207.933118</ele>
        <time>2020-08-13T10:44:26.053Z</time>
      </trkpt>
      <trkpt lat="37.584905" lon="-5.046336">
        <ele>207.376735</ele>
        <time>2020-08-13T10:44:29.045Z</time>
      </trkpt>
      <trkpt lat="37.584941" lon="-5.046448">
        <ele>207.083571</ele>
        <time>2020-08-13T10:44:31.054Z</time>
      </trkpt>
      <trkpt lat="37.584941" lon="-5.046597">
        <ele>206.722156</ele>
        <time>2020-08-13T10:44:33.050Z</time>
      </trkpt>
      <trkpt lat="37.584886" lon="-5.046745">
        <ele>206.325653</ele>
        <time>2020-08-13T10:44:35.043Z</time>
      </trkpt>
      <trkpt lat="37.584838" lon="-5.046850">
        <ele>206.031625</ele>
        <time>2020-08-13T10:44:36.052Z</time>
      </trkpt>
      <trkpt lat="37.584757" lon="-5.046988">
        <ele>205.615072</ele>
        <time>2020-08-13T10:44:38.066Z</time>
      </trkpt>
      <trkpt lat="37.584687" lon="-5.047097">
        <ele>205.274762</ele>
        <time>2020-08-13T10:44:40.032Z</time>
      </trkpt>
      <trkpt lat="37.584610" lon="-5.047212">
        <ele>204.909578</ele>
        <time>2020-08-13T10:44:42.051Z</time>
      </trkpt>
      <trkpt lat="37.584529" lon="-5.047321">
        <ele>204.547123</ele>
        <time>2020-08-13T10:44:44.052Z</time>
      </trkpt>
      <trkpt lat="37.584437" lon="-5.047432">
        <ele>204.157519</ele>
        <time>2020-08-13T10:44:46.043Z</time>
      </trkpt>
      <trkpt lat="37.584317" lon="-5.047542">
        <ele>203.703530</ele>
        <time>2020-08-13T10:44:48.045Z</time>
      </trkpt>
      <trkpt lat="37.584208" lon="-5.047642">
        <ele>203.291037</ele>
        <time>2020-08-13T10:44:50.048Z</time>
      </trkpt>
      <trkpt lat="37.584105" lon="-5.047698">
        <ele>202.974222</ele>
        <time>2020-08-13T10:44:52.049Z</time>
      </trkpt>
      <trkpt lat="37.583998" lon="-5.047770">
        <ele>202.662835</ele>
        <time>2020-08-13T10:44:54.049Z</time>
      </trkpt>
      <trkpt lat="37.583900" lon="-5.047846">
        <ele>202.367460</ele>
        <time>2020-08-13T10:44:56.061Z</time>
      </trkpt>
      <trkpt lat="37.583805" lon="-5.047931">
        <ele>202.068412</ele>
        <time>2020-08-13T10:44:58.048Z</time>
      </trkpt>
      <trkpt lat="37.583691" lon="-5.048010">
        <ele>201.734437</ele>
        <time>2020-08-13T10:45:00.041Z</time>
      </trkpt>
      <trkpt lat="37.583582" lon="-5.048092">
        <ele>201.408573</ele>
        <time>2020-08-13T10:45:02.048Z</time>
      </trkpt>
      <trkpt lat="37.583460" lon="-5.048174">
        <ele>201.053624</ele>
        <time>2020-08-13T10:45:04.045Z</time>
      </trkpt>
      <trkpt lat="37.583323" lon="-5.048229">
        <ele>200.684450</ele>
        <time>2020-08-13T10:45:06.047Z</time>
      </trkpt>
      <trkpt lat="37.583225" lon="-5.048322">
        <ele>200.369578</ele>
        <time>2020-08-13T10:45:08.058Z</time>
      </trkpt>
      <trkpt lat="37.583137" lon="-5.048345">
        <ele>200.138809</ele>
        <time>2020-08-13T10:45:09.050Z</time>
      </trkpt>
      <trkpt lat="37.582983" lon="-5.048473">
        <ele>199.665279</ele>
        <time>2020-08-13T10:45:11.048Z</time>
      </trkpt>
      <trkpt lat="37.583055" lon="-5.048744">
        <ele>199.083636</ele>
        <time>2020-08-13T10:45:12.036Z</time>
      </trkpt>
      <trkpt lat="37.582918" lon="-5.048783">
        <ele>198.722996</ele>
        <time>2020-08-13T10:45:14.056Z</time>
      </trkpt>
      <trkpt lat="37.582764" lon="-5.048785">
        <ele>198.264862</ele>
        <time>2020-08-13T10:45:16.053Z</time>
      </trkpt>
      <trkpt lat="37.582677" lon="-5.048926">
        <ele>197.763859</ele>
        <time>2020-08-13T10:45:18.052Z</time>
      </trkpt>
      <trkpt lat="37.582536" lon="-5.049000">
        <ele>197.223604</ele>
        <time>2020-08-13T10:45:20.050Z</time>
      </trkpt>
      <trkpt lat="37.582427" lon="-5.048992">
        <ele>196.837331</ele>
        <time>2020-08-13T10:45:21.036Z</time>
      </trkpt>
      <trkpt lat="37.582290" lon="-5.049069">
        <ele>196.306749</ele>
        <time>2020-08-13T10:45:23.042Z</time>
      </trkpt>
      <trkpt lat="37.582172" lon="-5.049169">
        <ele>195.803879</ele>
        <time>2020-08-13T10:45:25.057Z</time>
      </trkpt>
      <trkpt lat="37.582041" lon="-5.049273">
        <ele>195.256333</ele>
        <time>2020-08-13T10:45:27.069Z</time>
      </trkpt>
      <trkpt lat="37.581921" lon="-5.049393">
        <ele>194.714649</ele>
        <time>2020-08-13T10:45:29.034Z</time>
      </trkpt>
      <trkpt lat="37.581796" lon="-5.049504">
        <ele>194.173898</ele>
        <time>2020-08-13T10:45:31.033Z</time>
      </trkpt>
      <trkpt lat="37.581703" lon="-5.049640">
        <ele>193.670272</ele>
        <time>2020-08-13T10:45:33.040Z</time>
      </trkpt>
      <trkpt lat="37.581591" lon="-5.049754">
        <ele>193.161197</ele>
        <time>2020-08-13T10:45:35.057Z</time>
      </trkpt>
      <trkpt lat="37.581509" lon="-5.049891">
        <ele>192.679853</ele>
        <time>2020-08-13T10:45:37.048Z</time>
      </trkpt>
      <trkpt lat="37.581442" lon="-5.050042">
        <ele>192.194660</ele>
        <time>2020-08-13T10:45:39.057Z</time>
      </trkpt>
      <trkpt lat="37.581415" lon="-5.050181">
        <ele>192.407068</ele>
        <time>2020-08-13T10:45:41.056Z</time>
      </trkpt>
      <trkpt lat="37.581348" lon="-5.050316">
        <ele>192.774291</ele>
        <time>2020-08-13T10:45:43.035Z</time>
      </trkpt>
      <trkpt lat="37.581280" lon="-5.050441">
        <ele>193.123829</ele>
        <time>2020-08-13T10:45:45.054Z</time>
      </trkpt>
      <trkpt lat="37.581230" lon="-5.050586">
        <ele>193.488387</ele>
        <time>2020-08-13T10:45:47.056Z</time>
      </trkpt>
      <trkpt lat="37.581204" lon="-5.050743">
        <ele>193.858154</ele>
        <time>2020-08-13T10:45:49.053Z</time>
      </trkpt>
      <trkpt lat="37.581137" lon="-5.050896">
        <ele>194.261150</ele>
        <time>2020-08-13T10:45:51.045Z</time>
      </trkpt>
      <trkpt lat="37.581100" lon="-5.051036">
        <ele>194.601382</ele>
        <time>2020-08-13T10:45:53.055Z</time>
      </trkpt>
      <trkpt lat="37.581067" lon="-5.051194">
        <ele>194.978076</ele>
        <time>2020-08-13T10:45:55.061Z</time>
      </trkpt>
      <trkpt lat="37.580978" lon="-5.051366">
        <ele>195.451647</ele>
        <time>2020-08-13T10:45:57.054Z</time>
      </trkpt>
      <trkpt lat="37.580944" lon="-5.051536">
        <ele>195.855856</ele>
        <time>2020-08-13T10:45:59.044Z</time>
      </trkpt>
      <trkpt lat="37.580925" lon="-5.051722">
        <ele>196.288211</ele>
        <time>2020-08-13T10:46:01.056Z</time>
      </trkpt>
      <trkpt lat="37.580894" lon="-5.051880">
        <ele>196.663464</ele>
        <time>2020-08-13T10:46:03.043Z</time>
      </trkpt>
      <trkpt lat="37.580859" lon="-5.052040">
        <ele>197.046126</ele>
        <time>2020-08-13T10:46:05.053Z</time>
      </trkpt>
      <trkpt lat="37.580871" lon="-5.052234">
        <ele>197.358605</ele>
        <time>2020-08-13T10:46:07.051Z</time>
      </trkpt>
      <trkpt lat="37.580840" lon="-5.052407">
        <ele>197.346418</ele>
        <time>2020-08-13T10:46:09.049Z</time>
      </trkpt>
      <trkpt lat="37.580843" lon="-5.052592">
        <ele>197.333704</ele>
        <time>2020-08-13T10:46:11.053Z</time>
      </trkpt>
      <trkpt lat="37.580718" lon="-5.053605">
        <ele>197.263262</ele>
        <time>2020-08-13T10:46:22.057Z</time>
      </trkpt>
      <trkpt lat="37.580663" lon="-5.053757">
        <ele>197.251781</ele>
        <time>2020-08-13T10:46:24.052Z</time>
      </trkpt>
      <trkpt lat="37.580707" lon="-5.053949">
        <ele>197.238048</ele>
        <time>2020-08-13T10:46:26.045Z</time>
      </trkpt>
      <trkpt lat="37.580723" lon="-5.054100">
        <ele>197.227580</ele>
        <time>2020-08-13T10:46:28.054Z</time>
      </trkpt>
      <trkpt lat="37.580712" lon="-5.054269">
        <ele>197.215929</ele>
        <time>2020-08-13T10:46:30.068Z</time>
      </trkpt>
      <trkpt lat="37.580685" lon="-5.054448">
        <ele>197.278710</ele>
        <time>2020-08-13T10:46:32.047Z</time>
      </trkpt>
      <trkpt lat="37.580669" lon="-5.054645">
        <ele>197.586195</ele>
        <time>2020-08-13T10:46:34.034Z</time>
      </trkpt>
      <trkpt lat="37.580629" lon="-5.054818">
        <ele>197.866011</ele>
        <time>2020-08-13T10:46:36.044Z</time>
      </trkpt>
      <trkpt lat="37.580683" lon="-5.055027">
        <ele>198.207337</ele>
        <time>2020-08-13T10:46:38.046Z</time>
      </trkpt>
      <trkpt lat="37.580705" lon="-5.055137">
        <ele>198.383489</ele>
        <time>2020-08-13T10:46:40.045Z</time>
      </trkpt>
      <trkpt lat="37.580741" lon="-5.055241">
        <ele>198.559702</ele>
        <time>2020-08-13T10:46:41.046Z</time>
      </trkpt>
      <trkpt lat="37.580658" lon="-5.055467">
        <ele>198.946461</ele>
        <time>2020-08-13T10:46:43.035Z</time>
      </trkpt>
      <trkpt lat="37.580597" lon="-5.055628">
        <ele>199.223547</ele>
        <time>2020-08-13T10:46:45.038Z</time>
      </trkpt>
      <trkpt lat="37.580527" lon="-5.055802">
        <ele>199.526535</ele>
        <time>2020-08-13T10:46:47.056Z</time>
      </trkpt>
      <trkpt lat="37.580482" lon="-5.055993">
        <ele>199.835929</ele>
        <time>2020-08-13T10:46:49.032Z</time>
      </trkpt>
      <trkpt lat="37.580428" lon="-5.056174">
        <ele>200.136224</ele>
        <time>2020-08-13T10:46:51.055Z</time>
      </trkpt>
      <trkpt lat="37.580380" lon="-5.056356">
        <ele>200.434054</ele>
        <time>2020-08-13T10:46:53.051Z</time>
      </trkpt>
      <trkpt lat="37.580318" lon="-5.056526">
        <ele>200.724625</ele>
        <time>2020-08-13T10:46:55.044Z</time>
      </trkpt>
      <trkpt lat="37.580269" lon="-5.056633">
        <ele>200.857476</ele>
        <time>2020-08-13T10:46:58.045Z</time>
      </trkpt>
      <trkpt lat="37.580424" lon="-5.056757">
        <ele>201.102873</ele>
        <time>2020-08-13T10:46:59.053Z</time>
      </trkpt>
      <trkpt lat="37.580402" lon="-5.056925">
        <ele>201.283311</ele>
        <time>2020-08-13T10:47:01.040Z</time>
      </trkpt>
      <trkpt lat="37.580349" lon="-5.057095">
        <ele>201.476893</ele>
        <time>2020-08-13T10:47:03.042Z</time>
      </trkpt>
      <trkpt lat="37.580359" lon="-5.057213">
        <ele>201.602646</ele>
        <time>2020-08-13T10:47:05.057Z</time>
      </trkpt>
      <trkpt lat="37.580333" lon="-5.057364">
        <ele>201.766389</ele>
        <time>2020-08-13T10:47:07.048Z</time>
      </trkpt>
      <trkpt lat="37.580227" lon="-5.057537">
        <ele>201.998113</ele>
        <time>2020-08-13T10:47:09.057Z</time>
      </trkpt>
      <trkpt lat="37.580144" lon="-5.057665">
        <ele>202.173368</ele>
        <time>2020-08-13T10:47:10.051Z</time>
      </trkpt>
      <trkpt lat="37.580111" lon="-5.057777">
        <ele>202.299988</ele>
        <time>2020-08-13T10:47:12.052Z</time>
      </trkpt>
      <trkpt lat="37.580051" lon="-5.057918">
        <ele>202.469579</ele>
        <time>2020-08-13T10:47:14.074Z</time>
      </trkpt>
      <trkpt lat="37.579958" lon="-5.058052">
        <ele>202.658328</ele>
        <time>2020-08-13T10:47:16.048Z</time>
      </trkpt>
      <trkpt lat="37.579887" lon="-5.058205">
        <ele>202.846208</ele>
        <time>2020-08-13T10:47:18.057Z</time>
      </trkpt>
      <trkpt lat="37.579827" lon="-5.058353">
        <ele>203.022369</ele>
        <time>2020-08-13T10:47:20.056Z</time>
      </trkpt>
      <trkpt lat="37.579772" lon="-5.058516">
        <ele>202.816294</ele>
        <time>2020-08-13T10:47:22.051Z</time>
      </trkpt>
      <trkpt lat="37.579708" lon="-5.058686">
        <ele>201.961413</ele>
        <time>2020-08-13T10:47:24.051Z</time>
      </trkpt>
      <trkpt lat="37.579633" lon="-5.058766">
        <ele>201.398539</ele>
        <time>2020-08-13T10:47:25.047Z</time>
      </trkpt>
      <trkpt lat="37.579524" lon="-5.058889">
        <ele>200.560423</ele>
        <time>2020-08-13T10:47:27.049Z</time>
      </trkpt>
      <trkpt lat="37.579422" lon="-5.058956">
        <ele>199.901340</ele>
        <time>2020-08-13T10:47:28.049Z</time>
      </trkpt>
      <trkpt lat="37.579337" lon="-5.059013">
        <ele>199.349636</ele>
        <time>2020-08-13T10:47:29.057Z</time>
      </trkpt>
      <trkpt lat="37.579269" lon="-5.059117">
        <ele>198.737216</ele>
        <time>2020-08-13T10:47:30.050Z</time>
      </trkpt>
      <trkpt lat="37.579240" lon="-5.059294">
        <ele>197.916230</ele>
        <time>2020-08-13T10:47:32.051Z</time>
      </trkpt>
      <trkpt lat="37.579181" lon="-5.059428">
        <ele>197.219936</ele>
        <time>2020-08-13T10:47:34.053Z</time>
      </trkpt>
      <trkpt lat="37.579058" lon="-5.059509">
        <ele>196.424725</ele>
        <time>2020-08-13T10:47:36.057Z</time>
      </trkpt>
      <trkpt lat="37.578958" lon="-5.059587">
        <ele>195.750907</ele>
        <time>2020-08-13T10:47:38.037Z</time>
      </trkpt>
      <trkpt lat="37.578838" lon="-5.059631">
        <ele>195.034676</ele>
        <time>2020-08-13T10:47:40.059Z</time>
      </trkpt>
      <trkpt lat="37.578721" lon="-5.059697">
        <ele>194.300127</ele>
        <time>2020-08-13T10:47:42.053Z</time>
      </trkpt>
      <trkpt lat="37.578629" lon="-5.059784">
        <ele>193.641179</ele>
        <time>2020-08-13T10:47:44.058Z</time>
      </trkpt>
      <trkpt lat="37.578514" lon="-5.059860">
        <ele>192.897123</ele>
        <time>2020-08-13T10:47:46.050Z</time>
      </trkpt>
      <trkpt lat="37.578424" lon="-5.059942">
        <ele>192.534309</ele>
        <time>2020-08-13T10:47:48.048Z</time>
      </trkpt>
      <trkpt lat="37.578313" lon="-5.060003">
        <ele>192.175753</ele>
        <time>2020-08-13T10:47:50.043Z</time>
      </trkpt>
      <trkpt lat="37.578198" lon="-5.060068">
        <ele>191.802567</ele>
        <time>2020-08-13T10:47:52.058Z</time>
      </trkpt>
      <trkpt lat="37.578077" lon="-5.060133">
        <ele>191.413096</ele>
        <time>2020-08-13T10:47:54.052Z</time>
      </trkpt>
      <trkpt lat="37.577961" lon="-5.060185">
        <ele>191.048520</ele>
        <time>2020-08-13T10:47:56.050Z</time>
      </trkpt>
      <trkpt lat="37.577853" lon="-5.060230">
        <ele>190.711685</ele>
        <time>2020-08-13T10:47:58.050Z</time>
      </trkpt>
      <trkpt lat="37.577732" lon="-5.060295">
        <ele>190.322214</ele>
        <time>2020-08-13T10:48:00.057Z</time>
      </trkpt>
      <trkpt lat="37.577594" lon="-5.060318">
        <ele>189.909971</ele>
        <time>2020-08-13T10:48:02.083Z</time>
      </trkpt>
      <trkpt lat="37.577467" lon="-5.060352">
        <ele>189.525482</ele>
        <time>2020-08-13T10:48:04.057Z</time>
      </trkpt>
      <trkpt lat="37.577328" lon="-5.060388">
        <ele>189.105245</ele>
        <time>2020-08-13T10:48:06.048Z</time>
      </trkpt>
      <trkpt lat="37.577174" lon="-5.060411">
        <ele>188.645983</ele>
        <time>2020-08-13T10:48:08.053Z</time>
      </trkpt>
      <trkpt lat="37.577057" lon="-5.060435">
        <ele>188.294933</ele>
        <time>2020-08-13T10:48:10.044Z</time>
      </trkpt>
      <trkpt lat="37.576956" lon="-5.060470">
        <ele>187.984741</ele>
        <time>2020-08-13T10:48:12.060Z</time>
      </trkpt>
      <trkpt lat="37.576829" lon="-5.060488">
        <ele>187.606259</ele>
        <time>2020-08-13T10:48:14.060Z</time>
      </trkpt>
      <trkpt lat="37.576713" lon="-5.060506">
        <ele>187.152147</ele>
        <time>2020-08-13T10:48:16.050Z</time>
      </trkpt>
      <trkpt lat="37.576613" lon="-5.060528">
        <ele>186.716132</ele>
        <time>2020-08-13T10:48:18.046Z</time>
      </trkpt>
      <trkpt lat="37.576506" lon="-5.060540">
        <ele>186.254718</ele>
        <time>2020-08-13T10:48:20.051Z</time>
      </trkpt>
      <trkpt lat="37.576372" lon="-5.060566">
        <ele>185.672376</ele>
        <time>2020-08-13T10:48:22.051Z</time>
      </trkpt>
      <trkpt lat="37.576282" lon="-5.060588">
        <ele>185.278607</ele>
        <time>2020-08-13T10:48:24.048Z</time>
      </trkpt>
      <trkpt lat="37.576184" lon="-5.060650">
        <ele>184.807713</ele>
        <time>2020-08-13T10:48:26.053Z</time>
      </trkpt>
      <trkpt lat="37.576076" lon="-5.060676">
        <ele>184.335447</ele>
        <time>2020-08-13T10:48:28.041Z</time>
      </trkpt>
      <trkpt lat="37.575990" lon="-5.060609">
        <ele>183.901305</ele>
        <time>2020-08-13T10:48:29.050Z</time>
      </trkpt>
      <trkpt lat="37.575894" lon="-5.060628">
        <ele>183.483910</ele>
        <time>2020-08-13T10:48:31.047Z</time>
      </trkpt>
      <trkpt lat="37.575865" lon="-5.060747">
        <ele>183.060085</ele>
        <time>2020-08-13T10:48:32.045Z</time>
      </trkpt>
      <trkpt lat="37.575809" lon="-5.060856">
        <ele>182.617876</ele>
        <time>2020-08-13T10:48:33.057Z</time>
      </trkpt>
      <trkpt lat="37.575644" lon="-5.060916">
        <ele>181.880298</ele>
        <time>2020-08-13T10:48:35.053Z</time>
      </trkpt>
      <trkpt lat="37.575498" lon="-5.060953">
        <ele>181.240653</ele>
        <time>2020-08-13T10:48:37.041Z</time>
      </trkpt>
      <trkpt lat="37.575344" lon="-5.060996">
        <ele>180.563166</ele>
        <time>2020-08-13T10:48:39.036Z</time>
      </trkpt>
      <trkpt lat="37.575222" lon="-5.061114">
        <ele>179.902880</ele>
        <time>2020-08-13T10:48:41.048Z</time>
      </trkpt>
      <trkpt lat="37.575091" lon="-5.061167">
        <ele>179.225598</ele>
        <time>2020-08-13T10:48:43.049Z</time>
      </trkpt>
      <trkpt lat="37.574966" lon="-5.061251">
        <ele>178.503582</ele>
        <time>2020-08-13T10:48:45.051Z</time>
      </trkpt>
      <trkpt lat="37.574829" lon="-5.061328">
        <ele>177.738975</ele>
        <time>2020-08-13T10:48:47.055Z</time>
      </trkpt>
      <trkpt lat="37.574716" lon="-5.061434">
        <ele>177.021117</ele>
        <time>2020-08-13T10:48:49.058Z</time>
      </trkpt>
      <trkpt lat="37.574615" lon="-5.061546">
        <ele>176.335601</ele>
        <time>2020-08-13T10:48:51.055Z</time>
      </trkpt>
      <trkpt lat="37.574507" lon="-5.061659">
        <ele>175.620318</ele>
        <time>2020-08-13T10:48:53.047Z</time>
      </trkpt>
      <trkpt lat="37.574393" lon="-5.061736">
        <ele>174.961092</ele>
        <time>2020-08-13T10:48:55.058Z</time>
      </trkpt>
      <trkpt lat="37.574296" lon="-5.061827">
        <ele>174.344855</ele>
        <time>2020-08-13T10:48:57.049Z</time>
      </trkpt>
      <trkpt lat="37.574208" lon="-5.061925">
        <ele>173.746462</ele>
        <time>2020-08-13T10:48:59.043Z</time>
      </trkpt>
      <trkpt lat="37.574127" lon="-5.062055">
        <ele>173.078296</ele>
        <time>2020-08-13T10:49:01.048Z</time>
      </trkpt>
      <trkpt lat="37.574032" lon="-5.062184">
        <ele>172.366778</ele>
        <time>2020-08-13T10:49:03.040Z</time>
      </trkpt>
      <trkpt lat="37.573978" lon="-5.062311">
        <ele>171.784437</ele>
        <time>2020-08-13T10:49:05.038Z</time>
      </trkpt>
      <trkpt lat="37.573932" lon="-5.062444">
        <ele>171.198094</ele>
        <time>2020-08-13T10:49:07.041Z</time>
      </trkpt>
      <trkpt lat="37.573858" lon="-5.062562">
        <ele>170.607311</ele>
        <time>2020-08-13T10:49:09.054Z</time>
      </trkpt>
      <trkpt lat="37.573792" lon="-5.062682">
        <ele>170.729068</ele>
        <time>2020-08-13T10:49:11.057Z</time>
      </trkpt>
      <trkpt lat="37.573754" lon="-5.062790">
        <ele>170.827568</ele>
        <time>2020-08-13T10:49:13.058Z</time>
      </trkpt>
      <trkpt lat="37.573714" lon="-5.062900">
        <ele>170.928454</ele>
        <time>2020-08-13T10:49:15.049Z</time>
      </trkpt>
      <trkpt lat="37.573664" lon="-5.062997">
        <ele>171.024909</ele>
        <time>2020-08-13T10:49:17.056Z</time>
      </trkpt>
      <trkpt lat="37.573602" lon="-5.063131">
        <ele>171.154251</ele>
        <time>2020-08-13T10:49:19.050Z</time>
      </trkpt>
      <trkpt lat="37.573558" lon="-5.063260">
        <ele>171.271320</ele>
        <time>2020-08-13T10:49:22.038Z</time>
      </trkpt>
      <trkpt lat="37.573515" lon="-5.063371">
        <ele>171.374310</ele>
        <time>2020-08-13T10:49:24.050Z</time>
      </trkpt>
      <trkpt lat="37.573479" lon="-5.063479">
        <ele>171.471976</ele>
        <time>2020-08-13T10:49:26.047Z</time>
      </trkpt>
      <trkpt lat="37.573418" lon="-5.063634">
        <ele>171.616235</ele>
        <time>2020-08-13T10:49:29.056Z</time>
      </trkpt>
      <trkpt lat="37.573351" lon="-5.063766">
        <ele>171.746900</ele>
        <time>2020-08-13T10:49:32.057Z</time>
      </trkpt>
      <trkpt lat="37.573296" lon="-5.063906">
        <ele>171.877154</ele>
        <time>2020-08-13T10:49:35.049Z</time>
      </trkpt>
      <trkpt lat="37.573255" lon="-5.064060">
        <ele>172.012577</ele>
        <time>2020-08-13T10:49:38.058Z</time>
      </trkpt>
      <trkpt lat="37.573220" lon="-5.064199">
        <ele>172.134154</ele>
        <time>2020-08-13T10:49:41.059Z</time>
      </trkpt>
      <trkpt lat="37.573163" lon="-5.064344">
        <ele>172.269076</ele>
        <time>2020-08-13T10:49:44.047Z</time>
      </trkpt>
      <trkpt lat="37.573099" lon="-5.064464">
        <ele>172.389647</ele>
        <time>2020-08-13T10:49:47.049Z</time>
      </trkpt>
      <trkpt lat="37.573051" lon="-5.064600">
        <ele>172.603771</ele>
        <time>2020-08-13T10:49:51.051Z</time>
      </trkpt>
      <trkpt lat="37.572995" lon="-5.064693">
        <ele>173.197912</ele>
        <time>2020-08-13T10:49:54.063Z</time>
      </trkpt>
      <trkpt lat="37.572922" lon="-5.064780">
        <ele>173.842425</ele>
        <time>2020-08-13T10:49:57.056Z</time>
      </trkpt>
      <trkpt lat="37.572849" lon="-5.064900">
        <ele>174.611950</ele>
        <time>2020-08-13T10:50:00.064Z</time>
      </trkpt>
      <trkpt lat="37.572788" lon="-5.064985">
        <ele>175.195262</ele>
        <time>2020-08-13T10:50:02.062Z</time>
      </trkpt>
      <trkpt lat="37.572724" lon="-5.065072">
        <ele>175.799087</ele>
        <time>2020-08-13T10:50:04.061Z</time>
      </trkpt>
      <trkpt lat="37.572631" lon="-5.065183">
        <ele>176.620754</ele>
        <time>2020-08-13T10:50:07.056Z</time>
      </trkpt>
      <trkpt lat="37.572540" lon="-5.065296">
        <ele>177.440249</ele>
        <time>2020-08-13T10:50:10.051Z</time>
      </trkpt>
      <trkpt lat="37.572456" lon="-5.065361">
        <ele>178.072709</ele>
        <time>2020-08-13T10:50:12.056Z</time>
      </trkpt>
      <trkpt lat="37.572359" lon="-5.065441">
        <ele>178.816499</ele>
        <time>2020-08-13T10:50:14.061Z</time>
      </trkpt>
      <trkpt lat="37.572280" lon="-5.065532">
        <ele>179.503081</ele>
        <time>2020-08-13T10:50:16.049Z</time>
      </trkpt>
      <trkpt lat="37.572177" lon="-5.065600">
        <ele>180.249203</ele>
        <time>2020-08-13T10:50:18.056Z</time>
      </trkpt>
      <trkpt lat="37.572106" lon="-5.065690">
        <ele>180.895174</ele>
        <time>2020-08-13T10:50:20.039Z</time>
      </trkpt>
      <trkpt lat="37.572020" lon="-5.065775">
        <ele>181.596350</ele>
        <time>2020-08-13T10:50:22.037Z</time>
      </trkpt>
      <trkpt lat="37.571923" lon="-5.065818">
        <ele>182.256238</ele>
        <time>2020-08-13T10:50:24.051Z</time>
      </trkpt>
      <trkpt lat="37.571852" lon="-5.065889">
        <ele>182.837717</ele>
        <time>2020-08-13T10:50:26.053Z</time>
      </trkpt>
      <trkpt lat="37.571736" lon="-5.065927">
        <ele>183.606929</ele>
        <time>2020-08-13T10:50:28.048Z</time>
      </trkpt>
      <trkpt lat="37.571659" lon="-5.066039">
        <ele>183.972668</ele>
        <time>2020-08-13T10:50:30.064Z</time>
      </trkpt>
      <trkpt lat="37.571551" lon="-5.066078">
        <ele>183.820466</ele>
        <time>2020-08-13T10:50:32.046Z</time>
      </trkpt>
      <trkpt lat="37.571441" lon="-5.066165">
        <ele>183.644567</ele>
        <time>2020-08-13T10:50:35.044Z</time>
      </trkpt>
      <trkpt lat="37.571359" lon="-5.066219">
        <ele>183.519244</ele>
        <time>2020-08-13T10:50:37.063Z</time>
      </trkpt>
      <trkpt lat="37.571148" lon="-5.066306">
        <ele>183.218486</ele>
        <time>2020-08-13T10:50:42.049Z</time>
      </trkpt>
      <trkpt lat="37.571021" lon="-5.066362">
        <ele>183.036210</ele>
        <time>2020-08-13T10:50:46.055Z</time>
      </trkpt>
      <trkpt lat="37.570900" lon="-5.066427">
        <ele>182.858029</ele>
        <time>2020-08-13T10:50:49.054Z</time>
      </trkpt>
      <trkpt lat="37.570813" lon="-5.066629">
        <ele>182.611148</ele>
        <time>2020-08-13T10:50:51.049Z</time>
      </trkpt>
      <trkpt lat="37.570726" lon="-5.066560">
        <ele>182.471919</ele>
        <time>2020-08-13T10:50:52.053Z</time>
      </trkpt>
      <trkpt lat="37.570620" lon="-5.066621">
        <ele>182.314068</ele>
        <time>2020-08-13T10:50:54.049Z</time>
      </trkpt>
      <trkpt lat="37.570520" lon="-5.066702">
        <ele>182.153061</ele>
        <time>2020-08-13T10:50:57.049Z</time>
      </trkpt>
      <trkpt lat="37.570423" lon="-5.066804">
        <ele>181.981975</ele>
        <time>2020-08-13T10:50:59.057Z</time>
      </trkpt>
      <trkpt lat="37.570297" lon="-5.066893">
        <ele>181.786327</ele>
        <time>2020-08-13T10:51:02.051Z</time>
      </trkpt>
      <trkpt lat="37.570173" lon="-5.066971">
        <ele>181.602939</ele>
        <time>2020-08-13T10:51:05.047Z</time>
      </trkpt>
      <trkpt lat="37.570034" lon="-5.067019">
        <ele>181.582724</ele>
        <time>2020-08-13T10:51:08.057Z</time>
      </trkpt>
      <trkpt lat="37.569921" lon="-5.067057">
        <ele>181.566319</ele>
        <time>2020-08-13T10:51:11.042Z</time>
      </trkpt>
      <trkpt lat="37.569807" lon="-5.067104">
        <ele>181.549495</ele>
        <time>2020-08-13T10:51:14.056Z</time>
      </trkpt>
      <trkpt lat="37.569683" lon="-5.067185">
        <ele>181.529907</ele>
        <time>2020-08-13T10:51:17.054Z</time>
      </trkpt>
      <trkpt lat="37.569585" lon="-5.067271">
        <ele>181.513161</ele>
        <time>2020-08-13T10:51:20.053Z</time>
      </trkpt>
      <trkpt lat="37.569480" lon="-5.067329">
        <ele>181.497082</ele>
        <time>2020-08-13T10:51:23.047Z</time>
      </trkpt>
      <trkpt lat="37.569387" lon="-5.067394">
        <ele>181.482168</ele>
        <time>2020-08-13T10:51:26.050Z</time>
      </trkpt>
      <trkpt lat="37.569521" lon="-5.067397">
        <ele>181.463368</ele>
        <time>2020-08-13T10:51:34.052Z</time>
      </trkpt>
      <trkpt lat="37.569435" lon="-5.067306">
        <ele>181.447623</ele>
        <time>2020-08-13T10:51:39.044Z</time>
      </trkpt>
      <trkpt lat="37.569326" lon="-5.067374">
        <ele>181.430565</ele>
        <time>2020-08-13T10:52:42.038Z</time>
      </trkpt>
      <trkpt lat="37.569208" lon="-5.067494">
        <ele>181.409305</ele>
        <time>2020-08-13T10:52:45.048Z</time>
      </trkpt>
      <trkpt lat="37.569113" lon="-5.067587">
        <ele>181.392437</ele>
        <time>2020-08-13T10:52:47.052Z</time>
      </trkpt>
      <trkpt lat="37.569033" lon="-5.067642">
        <ele>181.379657</ele>
        <time>2020-08-13T10:52:49.043Z</time>
      </trkpt>
      <trkpt lat="37.568942" lon="-5.067712">
        <ele>181.364706</ele>
        <time>2020-08-13T10:52:51.048Z</time>
      </trkpt>
      <trkpt lat="37.568842" lon="-5.067753">
        <ele>181.351693</ele>
        <time>2020-08-13T10:52:53.054Z</time>
      </trkpt>
      <trkpt lat="37.568786" lon="-5.067879">
        <ele>181.359400</ele>
        <time>2020-08-13T10:52:55.046Z</time>
      </trkpt>
      <trkpt lat="37.568710" lon="-5.068020">
        <ele>181.368497</ele>
        <time>2020-08-13T10:52:57.032Z</time>
      </trkpt>
      <trkpt lat="37.568640" lon="-5.068147">
        <ele>181.376750</ele>
        <time>2020-08-13T10:52:59.054Z</time>
      </trkpt>
      <trkpt lat="37.568548" lon="-5.068253">
        <ele>181.385136</ele>
        <time>2020-08-13T10:53:01.046Z</time>
      </trkpt>
      <trkpt lat="37.568443" lon="-5.068361">
        <ele>181.394255</ele>
        <time>2020-08-13T10:53:03.045Z</time>
      </trkpt>
      <trkpt lat="37.568381" lon="-5.068484">
        <ele>181.402032</ele>
        <time>2020-08-13T10:53:05.044Z</time>
      </trkpt>
      <trkpt lat="37.568292" lon="-5.068623">
        <ele>181.411565</ele>
        <time>2020-08-13T10:53:07.042Z</time>
      </trkpt>
      <trkpt lat="37.568191" lon="-5.068736">
        <ele>181.420651</ele>
        <time>2020-08-13T10:53:09.058Z</time>
      </trkpt>
      <trkpt lat="37.568103" lon="-5.068865">
        <ele>181.429731</ele>
        <time>2020-08-13T10:53:11.056Z</time>
      </trkpt>
      <trkpt lat="37.568022" lon="-5.069024">
        <ele>181.439815</ele>
        <time>2020-08-13T10:53:13.052Z</time>
      </trkpt>
      <trkpt lat="37.567949" lon="-5.069184">
        <ele>181.449665</ele>
        <time>2020-08-13T10:53:15.043Z</time>
      </trkpt>
      <trkpt lat="37.567858" lon="-5.069282">
        <ele>181.457718</ele>
        <time>2020-08-13T10:53:17.047Z</time>
      </trkpt>
      <trkpt lat="37.567805" lon="-5.069453">
        <ele>181.467514</ele>
        <time>2020-08-13T10:53:19.052Z</time>
      </trkpt>
      <trkpt lat="37.567734" lon="-5.069582">
        <ele>180.983901</ele>
        <time>2020-08-13T10:53:21.058Z</time>
      </trkpt>
      <trkpt lat="37.567660" lon="-5.069650">
        <ele>180.170023</ele>
        <time>2020-08-13T10:53:22.047Z</time>
      </trkpt>
      <trkpt lat="37.567567" lon="-5.069794">
        <ele>178.861124</ele>
        <time>2020-08-13T10:53:24.044Z</time>
      </trkpt>
      <trkpt lat="37.567467" lon="-5.069909">
        <ele>177.658197</ele>
        <time>2020-08-13T10:53:26.051Z</time>
      </trkpt>
      <trkpt lat="37.567387" lon="-5.070043">
        <ele>176.476067</ele>
        <time>2020-08-13T10:53:28.043Z</time>
      </trkpt>
      <trkpt lat="37.567301" lon="-5.070167">
        <ele>175.315016</ele>
        <time>2020-08-13T10:53:30.037Z</time>
      </trkpt>
      <trkpt lat="37.567214" lon="-5.070289">
        <ele>174.158605</ele>
        <time>2020-08-13T10:53:32.050Z</time>
      </trkpt>
      <trkpt lat="37.567094" lon="-5.070389">
        <ele>172.880070</ele>
        <time>2020-08-13T10:53:34.054Z</time>
      </trkpt>
      <trkpt lat="37.566982" lon="-5.070511">
        <ele>171.564590</ele>
        <time>2020-08-13T10:53:36.051Z</time>
      </trkpt>
      <trkpt lat="37.566882" lon="-5.070562">
        <ele>170.605684</ele>
        <time>2020-08-13T10:53:37.052Z</time>
      </trkpt>
      <trkpt lat="37.566779" lon="-5.070697">
        <ele>169.285283</ele>
        <time>2020-08-13T10:53:39.034Z</time>
      </trkpt>
      <trkpt lat="37.566593" lon="-5.070770">
        <ele>167.553551</ele>
        <time>2020-08-13T10:53:41.051Z</time>
      </trkpt>
      <trkpt lat="37.566438" lon="-5.070867">
        <ele>166.015363</ele>
        <time>2020-08-13T10:53:43.050Z</time>
      </trkpt>
      <trkpt lat="37.566260" lon="-5.070931">
        <ele>166.766098</ele>
        <time>2020-08-13T10:53:45.062Z</time>
      </trkpt>
      <trkpt lat="37.566113" lon="-5.070998">
        <ele>168.370509</ele>
        <time>2020-08-13T10:53:47.051Z</time>
      </trkpt>
      <trkpt lat="37.565949" lon="-5.071045">
        <ele>170.096860</ele>
        <time>2020-08-13T10:53:49.054Z</time>
      </trkpt>
      <trkpt lat="37.565780" lon="-5.071123">
        <ele>171.944093</ele>
        <time>2020-08-13T10:53:51.055Z</time>
      </trkpt>
      <trkpt lat="37.565642" lon="-5.071158">
        <ele>173.389006</ele>
        <time>2020-08-13T10:53:53.054Z</time>
      </trkpt>
      <trkpt lat="37.565550" lon="-5.071173">
        <ele>174.341241</ele>
        <time>2020-08-13T10:53:54.045Z</time>
      </trkpt>
      <trkpt lat="37.565398" lon="-5.071169">
        <ele>175.901862</ele>
        <time>2020-08-13T10:53:56.050Z</time>
      </trkpt>
      <trkpt lat="37.565254" lon="-5.071188">
        <ele>177.388086</ele>
        <time>2020-08-13T10:53:58.047Z</time>
      </trkpt>
      <trkpt lat="37.565124" lon="-5.071255">
        <ele>178.829597</ele>
        <time>2020-08-13T10:54:00.057Z</time>
      </trkpt>
      <trkpt lat="37.564964" lon="-5.071243">
        <ele>180.474898</ele>
        <time>2020-08-13T10:54:02.052Z</time>
      </trkpt>
      <trkpt lat="37.564837" lon="-5.071269">
        <ele>181.795608</ele>
        <time>2020-08-13T10:54:04.060Z</time>
      </trkpt>
      <trkpt lat="37.564694" lon="-5.071331">
        <ele>183.347773</ele>
        <time>2020-08-13T10:54:06.057Z</time>
      </trkpt>
      <trkpt lat="37.564548" lon="-5.071362">
        <ele>183.908667</ele>
        <time>2020-08-13T10:54:08.028Z</time>
      </trkpt>
      <trkpt lat="37.564408" lon="-5.071372">
        <ele>183.851821</ele>
        <time>2020-08-13T10:54:10.050Z</time>
      </trkpt>
      <trkpt lat="37.564287" lon="-5.071421">
        <ele>183.800303</ele>
        <time>2020-08-13T10:54:12.040Z</time>
      </trkpt>
      <trkpt lat="37.564127" lon="-5.071405">
        <ele>183.735237</ele>
        <time>2020-08-13T10:54:14.063Z</time>
      </trkpt>
      <trkpt lat="37.563984" lon="-5.071457">
        <ele>183.674905</ele>
        <time>2020-08-13T10:54:16.048Z</time>
      </trkpt>
      <trkpt lat="37.563866" lon="-5.071515">
        <ele>183.623566</ele>
        <time>2020-08-13T10:54:18.065Z</time>
      </trkpt>
      <trkpt lat="37.563742" lon="-5.071539">
        <ele>183.572710</ele>
        <time>2020-08-13T10:54:20.053Z</time>
      </trkpt>
      <trkpt lat="37.563617" lon="-5.071561">
        <ele>183.521545</ele>
        <time>2020-08-13T10:54:22.045Z</time>
      </trkpt>
      <trkpt lat="37.563490" lon="-5.071614">
        <ele>183.467316</ele>
        <time>2020-08-13T10:54:24.050Z</time>
      </trkpt>
      <trkpt lat="37.563355" lon="-5.071648">
        <ele>183.411508</ele>
        <time>2020-08-13T10:54:26.049Z</time>
      </trkpt>
      <trkpt lat="37.563210" lon="-5.071691">
        <ele>183.351124</ele>
        <time>2020-08-13T10:54:28.066Z</time>
      </trkpt>
      <trkpt lat="37.563078" lon="-5.071669">
        <ele>183.297147</ele>
        <time>2020-08-13T10:54:30.047Z</time>
      </trkpt>
      <trkpt lat="37.562931" lon="-5.071683">
        <ele>183.237384</ele>
        <time>2020-08-13T10:54:32.055Z</time>
      </trkpt>
      <trkpt lat="37.562821" lon="-5.071683">
        <ele>183.092968</ele>
        <time>2020-08-13T10:54:34.070Z</time>
      </trkpt>
      <trkpt lat="37.562677" lon="-5.071741">
        <ele>182.767428</ele>
        <time>2020-08-13T10:54:36.051Z</time>
      </trkpt>
      <trkpt lat="37.562561" lon="-5.071737">
        <ele>182.517518</ele>
        <time>2020-08-13T10:54:38.058Z</time>
      </trkpt>
      <trkpt lat="37.562434" lon="-5.071721">
        <ele>182.242652</ele>
        <time>2020-08-13T10:54:40.048Z</time>
      </trkpt>
      <trkpt lat="37.562299" lon="-5.071745">
        <ele>181.949044</ele>
        <time>2020-08-13T10:54:42.058Z</time>
      </trkpt>
      <trkpt lat="37.562148" lon="-5.071787">
        <ele>181.616042</ele>
        <time>2020-08-13T10:54:44.054Z</time>
      </trkpt>
      <trkpt lat="37.562014" lon="-5.071780">
        <ele>181.327213</ele>
        <time>2020-08-13T10:54:46.038Z</time>
      </trkpt>
      <trkpt lat="37.561894" lon="-5.071791">
        <ele>181.068101</ele>
        <time>2020-08-13T10:54:48.055Z</time>
      </trkpt>
      <trkpt lat="37.561770" lon="-5.071794">
        <ele>180.801007</ele>
        <time>2020-08-13T10:54:50.054Z</time>
      </trkpt>
      <trkpt lat="37.561647" lon="-5.071789">
        <ele>180.535978</ele>
        <time>2020-08-13T10:54:52.056Z</time>
      </trkpt>
      <trkpt lat="37.561527" lon="-5.071811">
        <ele>180.274832</ele>
        <time>2020-08-13T10:54:54.060Z</time>
      </trkpt>
      <trkpt lat="37.561402" lon="-5.071806">
        <ele>180.005498</ele>
        <time>2020-08-13T10:54:56.042Z</time>
      </trkpt>
      <trkpt lat="37.561278" lon="-5.071828">
        <ele>179.735825</ele>
        <time>2020-08-13T10:54:58.048Z</time>
      </trkpt>
      <trkpt lat="37.561186" lon="-5.071791">
        <ele>179.527870</ele>
        <time>2020-08-13T10:54:59.059Z</time>
      </trkpt>
      <trkpt lat="37.561081" lon="-5.071844">
        <ele>179.125686</ele>
        <time>2020-08-13T10:55:01.051Z</time>
      </trkpt>
      <trkpt lat="37.560970" lon="-5.071923">
        <ele>178.101677</ele>
        <time>2020-08-13T10:55:03.050Z</time>
      </trkpt>
      <trkpt lat="37.560844" lon="-5.072004">
        <ele>176.965419</ele>
        <time>2020-08-13T10:55:05.038Z</time>
      </trkpt>
      <trkpt lat="37.560709" lon="-5.072017">
        <ele>175.877567</ele>
        <time>2020-08-13T10:55:07.035Z</time>
      </trkpt>
      <trkpt lat="37.560588" lon="-5.072051">
        <ele>174.881531</ele>
        <time>2020-08-13T10:55:09.039Z</time>
      </trkpt>
      <trkpt lat="37.560477" lon="-5.072073">
        <ele>173.978729</ele>
        <time>2020-08-13T10:55:11.051Z</time>
      </trkpt>
      <trkpt lat="37.560350" lon="-5.072125">
        <ele>172.905906</ele>
        <time>2020-08-13T10:55:13.049Z</time>
      </trkpt>
      <trkpt lat="37.560231" lon="-5.072158">
        <ele>171.926936</ele>
        <time>2020-08-13T10:55:15.058Z</time>
      </trkpt>
      <trkpt lat="37.560091" lon="-5.072233">
        <ele>170.704836</ele>
        <time>2020-08-13T10:55:17.056Z</time>
      </trkpt>
      <trkpt lat="37.559986" lon="-5.072433">
        <ele>169.176939</ele>
        <time>2020-08-13T10:55:19.059Z</time>
      </trkpt>
      <trkpt lat="37.559901" lon="-5.072513">
        <ele>168.324844</ele>
        <time>2020-08-13T10:55:21.054Z</time>
      </trkpt>
      <trkpt lat="37.559774" lon="-5.072563">
        <ele>167.255884</ele>
        <time>2020-08-13T10:55:23.050Z</time>
      </trkpt>
      <trkpt lat="37.559679" lon="-5.072689">
        <ele>166.148320</ele>
        <time>2020-08-13T10:55:25.040Z</time>
      </trkpt>
      <trkpt lat="37.559596" lon="-5.072774">
        <ele>165.289341</ele>
        <time>2020-08-13T10:55:27.054Z</time>
      </trkpt>
      <trkpt lat="37.559470" lon="-5.072789">
        <ele>164.908071</ele>
        <time>2020-08-13T10:55:30.055Z</time>
      </trkpt>
      <trkpt lat="37.559477" lon="-5.072912">
        <ele>164.930171</ele>
        <time>2020-08-13T10:55:33.059Z</time>
      </trkpt>
      <trkpt lat="37.559454" lon="-5.073039">
        <ele>164.953517</ele>
        <time>2020-08-13T10:55:36.046Z</time>
      </trkpt>
      <trkpt lat="37.559369" lon="-5.073131">
        <ele>164.978836</ele>
        <time>2020-08-13T10:55:41.063Z</time>
      </trkpt>
      <trkpt lat="37.559254" lon="-5.073205">
        <ele>165.008022</ele>
        <time>2020-08-13T10:55:45.053Z</time>
      </trkpt>
      <trkpt lat="37.559160" lon="-5.073268">
        <ele>165.032085</ele>
        <time>2020-08-13T10:55:48.045Z</time>
      </trkpt>
      <trkpt lat="37.559083" lon="-5.073336">
        <ele>165.053334</ele>
        <time>2020-08-13T10:55:51.049Z</time>
      </trkpt>
      <trkpt lat="37.558997" lon="-5.073406">
        <ele>165.076472</ele>
        <time>2020-08-13T10:55:54.045Z</time>
      </trkpt>
      <trkpt lat="37.558921" lon="-5.073487">
        <ele>165.098965</ele>
        <time>2020-08-13T10:55:57.053Z</time>
      </trkpt>
      <trkpt lat="37.558865" lon="-5.073589">
        <ele>165.121200</ele>
        <time>2020-08-13T10:56:00.042Z</time>
      </trkpt>
      <trkpt lat="37.558814" lon="-5.073690">
        <ele>165.142661</ele>
        <time>2020-08-13T10:56:03.044Z</time>
      </trkpt>
      <trkpt lat="37.558761" lon="-5.073790">
        <ele>165.164218</ele>
        <time>2020-08-13T10:56:06.037Z</time>
      </trkpt>
      <trkpt lat="37.558663" lon="-5.073839">
        <ele>165.188050</ele>
        <time>2020-08-13T10:56:08.056Z</time>
      </trkpt>
      <trkpt lat="37.558566" lon="-5.073924">
        <ele>165.214751</ele>
        <time>2020-08-13T10:56:10.049Z</time>
      </trkpt>
      <trkpt lat="37.558472" lon="-5.074070">
        <ele>165.248458</ele>
        <time>2020-08-13T10:56:13.045Z</time>
      </trkpt>
      <trkpt lat="37.558395" lon="-5.074207">
        <ele>165.278555</ele>
        <time>2020-08-13T10:56:15.052Z</time>
      </trkpt>
      <trkpt lat="37.558333" lon="-5.074359">
        <ele>164.689965</ele>
        <time>2020-08-13T10:56:17.065Z</time>
      </trkpt>
      <trkpt lat="37.558254" lon="-5.074532">
        <ele>162.862999</ele>
        <time>2020-08-13T10:56:19.033Z</time>
      </trkpt>
      <trkpt lat="37.558192" lon="-5.074717">
        <ele>161.025026</ele>
        <time>2020-08-13T10:56:21.056Z</time>
      </trkpt>
      <trkpt lat="37.558155" lon="-5.074905">
        <ele>159.252441</ele>
        <time>2020-08-13T10:56:23.049Z</time>
      </trkpt>
      <trkpt lat="37.558096" lon="-5.075077">
        <ele>157.537462</ele>
        <time>2020-08-13T10:56:25.040Z</time>
      </trkpt>
      <trkpt lat="37.558042" lon="-5.075239">
        <ele>155.929300</ele>
        <time>2020-08-13T10:56:27.053Z</time>
      </trkpt>
      <trkpt lat="37.557993" lon="-5.075396">
        <ele>154.385279</ele>
        <time>2020-08-13T10:56:29.048Z</time>
      </trkpt>
      <trkpt lat="37.557953" lon="-5.075543">
        <ele>152.963060</ele>
        <time>2020-08-13T10:56:31.044Z</time>
      </trkpt>
      <trkpt lat="37.557933" lon="-5.075706">
        <ele>151.453706</ele>
        <time>2020-08-13T10:56:33.054Z</time>
      </trkpt>
      <trkpt lat="37.557941" lon="-5.075860">
        <ele>150.041448</ele>
        <time>2020-08-13T10:56:35.053Z</time>
      </trkpt>
      <trkpt lat="37.557950" lon="-5.076029">
        <ele>148.491463</ele>
        <time>2020-08-13T10:56:37.061Z</time>
      </trkpt>
      <trkpt lat="37.557997" lon="-5.076199">
        <ele>146.843922</ele>
        <time>2020-08-13T10:56:39.056Z</time>
      </trkpt>
      <trkpt lat="37.558025" lon="-5.076351">
        <ele>145.415930</ele>
        <time>2020-08-13T10:56:41.060Z</time>
      </trkpt>
      <trkpt lat="37.558061" lon="-5.076499">
        <ele>144.871698</ele>
        <time>2020-08-13T10:56:43.052Z</time>
      </trkpt>
      <trkpt lat="37.558076" lon="-5.076621">
        <ele>145.582270</ele>
        <time>2020-08-13T10:56:45.052Z</time>
      </trkpt>
      <trkpt lat="37.558066" lon="-5.076771">
        <ele>146.448648</ele>
        <time>2020-08-13T10:56:47.070Z</time>
      </trkpt>
      <trkpt lat="37.558046" lon="-5.076903">
        <ele>147.222132</ele>
        <time>2020-08-13T10:56:49.053Z</time>
      </trkpt>
      <trkpt lat="37.558049" lon="-5.077031">
        <ele>147.959164</ele>
        <time>2020-08-13T10:56:52.046Z</time>
      </trkpt>
      <trkpt lat="37.558056" lon="-5.077145">
        <ele>148.617261</ele>
        <time>2020-08-13T10:56:55.053Z</time>
      </trkpt>
      <trkpt lat="37.558065" lon="-5.077261">
        <ele>149.288094</ele>
        <time>2020-08-13T10:56:58.058Z</time>
      </trkpt>
      <trkpt lat="37.558084" lon="-5.077389">
        <ele>150.037607</ele>
        <time>2020-08-13T10:57:03.044Z</time>
      </trkpt>
      <trkpt lat="37.558083" lon="-5.077519">
        <ele>150.785862</ele>
        <time>2020-08-13T10:57:06.052Z</time>
      </trkpt>
      <trkpt lat="37.558085" lon="-5.077647">
        <ele>151.522715</ele>
        <time>2020-08-13T10:57:08.055Z</time>
      </trkpt>
      <trkpt lat="37.558105" lon="-5.077822">
        <ele>152.540347</ele>
        <time>2020-08-13T10:57:11.051Z</time>
      </trkpt>
      <trkpt lat="37.558137" lon="-5.077964">
        <ele>153.390015</ele>
        <time>2020-08-13T10:57:13.049Z</time>
      </trkpt>
      <trkpt lat="37.558130" lon="-5.078115">
        <ele>154.260586</ele>
        <time>2020-08-13T10:57:15.060Z</time>
      </trkpt>
      <trkpt lat="37.558137" lon="-5.078271">
        <ele>155.159887</ele>
        <time>2020-08-13T10:57:17.052Z</time>
      </trkpt>
      <trkpt lat="37.558145" lon="-5.078450">
        <ele>156.191763</ele>
        <time>2020-08-13T10:57:19.058Z</time>
      </trkpt>
      <trkpt lat="37.558155" lon="-5.078633">
        <ele>157.247526</ele>
        <time>2020-08-13T10:57:21.055Z</time>
      </trkpt>
      <trkpt lat="37.558143" lon="-5.078824">
        <ele>157.163844</ele>
        <time>2020-08-13T10:57:23.048Z</time>
      </trkpt>
      <trkpt lat="37.558173" lon="-5.079009">
        <ele>156.546518</ele>
        <time>2020-08-13T10:57:25.052Z</time>
      </trkpt>
      <trkpt lat="37.558151" lon="-5.079216">
        <ele>155.863739</ele>
        <time>2020-08-13T10:57:27.045Z</time>
      </trkpt>
      <trkpt lat="37.558127" lon="-5.079402">
        <ele>155.247665</ele>
        <time>2020-08-13T10:57:29.053Z</time>
      </trkpt>
      <trkpt lat="37.558122" lon="-5.079588">
        <ele>154.639244</ele>
        <time>2020-08-13T10:57:31.048Z</time>
      </trkpt>
      <trkpt lat="37.558093" lon="-5.079785">
        <ele>153.984201</ele>
        <time>2020-08-13T10:57:33.053Z</time>
      </trkpt>
      <trkpt lat="37.558058" lon="-5.079973">
        <ele>153.352869</ele>
        <time>2020-08-13T10:57:35.051Z</time>
      </trkpt>
      <trkpt lat="37.558051" lon="-5.080150">
        <ele>152.773500</ele>
        <time>2020-08-13T10:57:37.055Z</time>
      </trkpt>
      <trkpt lat="37.558028" lon="-5.080323">
        <ele>152.200029</ele>
        <time>2020-08-13T10:57:39.041Z</time>
      </trkpt>
      <trkpt lat="37.558010" lon="-5.080492">
        <ele>151.642569</ele>
        <time>2020-08-13T10:57:41.051Z</time>
      </trkpt>
      <trkpt lat="37.558014" lon="-5.080662">
        <ele>151.086559</ele>
        <time>2020-08-13T10:57:43.037Z</time>
      </trkpt>
      <trkpt lat="37.558006" lon="-5.080822">
        <ele>150.562447</ele>
        <time>2020-08-13T10:57:45.044Z</time>
      </trkpt>
      <trkpt lat="37.558000" lon="-5.080992">
        <ele>150.103437</ele>
        <time>2020-08-13T10:57:47.049Z</time>
      </trkpt>
      <trkpt lat="37.557990" lon="-5.081155">
        <ele>149.874921</ele>
        <time>2020-08-13T10:57:49.052Z</time>
      </trkpt>
      <trkpt lat="37.557946" lon="-5.081313">
        <ele>149.640846</ele>
        <time>2020-08-13T10:57:51.047Z</time>
      </trkpt>
      <trkpt lat="37.557916" lon="-5.081452">
        <ele>149.439486</ele>
        <time>2020-08-13T10:57:53.048Z</time>
      </trkpt>
      <trkpt lat="37.557887" lon="-5.081585">
        <ele>149.246680</ele>
        <time>2020-08-13T10:57:55.051Z</time>
      </trkpt>
      <trkpt lat="37.557858" lon="-5.081733">
        <ele>149.033586</ele>
        <time>2020-08-13T10:57:57.047Z</time>
      </trkpt>
      <trkpt lat="37.557834" lon="-5.081877">
        <ele>148.827909</ele>
        <time>2020-08-13T10:57:59.041Z</time>
      </trkpt>
      <trkpt lat="37.557776" lon="-5.081979">
        <ele>148.652453</ele>
        <time>2020-08-13T10:58:01.038Z</time>
      </trkpt>
      <trkpt lat="37.557679" lon="-5.081958">
        <ele>148.478922</ele>
        <time>2020-08-13T10:58:03.040Z</time>
      </trkpt>
      <trkpt lat="37.557608" lon="-5.081871">
        <ele>148.304395</ele>
        <time>2020-08-13T10:58:05.040Z</time>
      </trkpt>
      <trkpt lat="37.557540" lon="-5.081766">
        <ele>148.114881</ele>
        <time>2020-08-13T10:58:07.045Z</time>
      </trkpt>
      <trkpt lat="37.557470" lon="-5.081656">
        <ele>147.917716</ele>
        <time>2020-08-13T10:58:09.041Z</time>
      </trkpt>
      <trkpt lat="37.557364" lon="-5.081559">
        <ele>147.686818</ele>
        <time>2020-08-13T10:58:11.043Z</time>
      </trkpt>
      <trkpt lat="37.557262" lon="-5.081514">
        <ele>147.496289</ele>
        <time>2020-08-13T10:58:14.051Z</time>
      </trkpt>
      <trkpt lat="37.557150" lon="-5.081473">
        <ele>147.290663</ele>
        <time>2020-08-13T10:58:16.048Z</time>
      </trkpt>
      <trkpt lat="37.557055" lon="-5.081427">
        <ele>147.111242</ele>
        <time>2020-08-13T10:58:18.053Z</time>
      </trkpt>
      <trkpt lat="37.556926" lon="-5.081394">
        <ele>147.489449</ele>
        <time>2020-08-13T10:58:20.051Z</time>
      </trkpt>
      <trkpt lat="37.556817" lon="-5.081388">
        <ele>148.231941</ele>
        <time>2020-08-13T10:58:22.042Z</time>
      </trkpt>
      <trkpt lat="37.556721" lon="-5.081399">
        <ele>148.887946</ele>
        <time>2020-08-13T10:58:24.053Z</time>
      </trkpt>
      <trkpt lat="37.556594" lon="-5.081356">
        <ele>149.782821</ele>
        <time>2020-08-13T10:58:26.054Z</time>
      </trkpt>
      <trkpt lat="37.556459" lon="-5.081315">
        <ele>150.727799</ele>
        <time>2020-08-13T10:58:28.044Z</time>
      </trkpt>
      <trkpt lat="37.556336" lon="-5.081322">
        <ele>151.565712</ele>
        <time>2020-08-13T10:58:30.057Z</time>
      </trkpt>
      <trkpt lat="37.556226" lon="-5.081352">
        <ele>152.331600</ele>
        <time>2020-08-13T10:58:32.043Z</time>
      </trkpt>
      <trkpt lat="37.556115" lon="-5.081361">
        <ele>153.088555</ele>
        <time>2020-08-13T10:58:34.048Z</time>
      </trkpt>
      <trkpt lat="37.555981" lon="-5.081354">
        <ele>154.001257</ele>
        <time>2020-08-13T10:58:37.042Z</time>
      </trkpt>
      <trkpt lat="37.555855" lon="-5.081377">
        <ele>154.867666</ele>
        <time>2020-08-13T10:58:40.050Z</time>
      </trkpt>
      <trkpt lat="37.555743" lon="-5.081402">
        <ele>155.641710</ele>
        <time>2020-08-13T10:58:42.055Z</time>
      </trkpt>
      <trkpt lat="37.555634" lon="-5.081398">
        <ele>156.383809</ele>
        <time>2020-08-13T10:58:44.057Z</time>
      </trkpt>
      <trkpt lat="37.555536" lon="-5.081422">
        <ele>157.063189</ele>
        <time>2020-08-13T10:58:47.050Z</time>
      </trkpt>
      <trkpt lat="37.555382" lon="-5.081376">
        <ele>158.140200</ele>
        <time>2020-08-13T10:58:49.044Z</time>
      </trkpt>
      <trkpt lat="37.555276" lon="-5.081352">
        <ele>158.873098</ele>
        <time>2020-08-13T10:58:51.041Z</time>
      </trkpt>
      <trkpt lat="37.555174" lon="-5.081358">
        <ele>159.590957</ele>
        <time>2020-08-13T10:58:53.049Z</time>
      </trkpt>
      <trkpt lat="37.555062" lon="-5.081345">
        <ele>160.410811</ele>
        <time>2020-08-13T10:58:55.051Z</time>
      </trkpt>
      <trkpt lat="37.554929" lon="-5.081349">
        <ele>161.380568</ele>
        <time>2020-08-13T10:58:58.053Z</time>
      </trkpt>
      <trkpt lat="37.554826" lon="-5.081346">
        <ele>162.131569</ele>
        <time>2020-08-13T10:59:00.052Z</time>
      </trkpt>
      <trkpt lat="37.554710" lon="-5.081357">
        <ele>162.979518</ele>
        <time>2020-08-13T10:59:03.043Z</time>
      </trkpt>
      <trkpt lat="37.554618" lon="-5.081354">
        <ele>163.650360</ele>
        <time>2020-08-13T10:59:05.051Z</time>
      </trkpt>
      <trkpt lat="37.554520" lon="-5.081342">
        <ele>164.368073</ele>
        <time>2020-08-13T10:59:07.052Z</time>
      </trkpt>
      <trkpt lat="37.554429" lon="-5.081335">
        <ele>165.032634</ele>
        <time>2020-08-13T10:59:09.056Z</time>
      </trkpt>
      <trkpt lat="37.554321" lon="-5.081351">
        <ele>165.825293</ele>
        <time>2020-08-13T10:59:11.054Z</time>
      </trkpt>
      <trkpt lat="37.554231" lon="-5.081402">
        <ele>166.544492</ele>
        <time>2020-08-13T10:59:14.053Z</time>
      </trkpt>
      <trkpt lat="37.554138" lon="-5.081391">
        <ele>167.225374</ele>
        <time>2020-08-13T10:59:16.053Z</time>
      </trkpt>
      <trkpt lat="37.554024" lon="-5.081403">
        <ele>168.059246</ele>
        <time>2020-08-13T10:59:19.051Z</time>
      </trkpt>
      <trkpt lat="37.553933" lon="-5.081379">
        <ele>168.736920</ele>
        <time>2020-08-13T10:59:21.043Z</time>
      </trkpt>
      <trkpt lat="37.553842" lon="-5.081379">
        <ele>169.400249</ele>
        <time>2020-08-13T10:59:23.062Z</time>
      </trkpt>
      <trkpt lat="37.553750" lon="-5.081407">
        <ele>170.090112</ele>
        <time>2020-08-13T10:59:25.046Z</time>
      </trkpt>
      <trkpt lat="37.553600" lon="-5.081411">
        <ele>171.183756</ele>
        <time>2020-08-13T10:59:28.056Z</time>
      </trkpt>
      <trkpt lat="37.553463" lon="-5.081419">
        <ele>172.183464</ele>
        <time>2020-08-13T10:59:31.058Z</time>
      </trkpt>
      <trkpt lat="37.553350" lon="-5.081439">
        <ele>172.151031</ele>
        <time>2020-08-13T10:59:33.054Z</time>
      </trkpt>
      <trkpt lat="37.553245" lon="-5.081498">
        <ele>171.890362</ele>
        <time>2020-08-13T10:59:35.063Z</time>
      </trkpt>
      <trkpt lat="37.553143" lon="-5.081521">
        <ele>171.655387</ele>
        <time>2020-08-13T10:59:37.059Z</time>
      </trkpt>
      <trkpt lat="37.553048" lon="-5.081556">
        <ele>171.430952</ele>
        <time>2020-08-13T10:59:39.051Z</time>
      </trkpt>
      <trkpt lat="37.552938" lon="-5.081579">
        <ele>171.178098</ele>
        <time>2020-08-13T10:59:41.045Z</time>
      </trkpt>
      <trkpt lat="37.552822" lon="-5.081608">
        <ele>170.909924</ele>
        <time>2020-08-13T10:59:43.055Z</time>
      </trkpt>
      <trkpt lat="37.552731" lon="-5.081669">
        <ele>170.676230</ele>
        <time>2020-08-13T10:59:45.035Z</time>
      </trkpt>
      <trkpt lat="37.552632" lon="-5.081725">
        <ele>170.430184</ele>
        <time>2020-08-13T10:59:47.037Z</time>
      </trkpt>
      <trkpt lat="37.552529" lon="-5.081747">
        <ele>170.193283</ele>
        <time>2020-08-13T10:59:49.058Z</time>
      </trkpt>
      <trkpt lat="37.552421" lon="-5.081765">
        <ele>169.946240</ele>
        <time>2020-08-13T10:59:51.049Z</time>
      </trkpt>
      <trkpt lat="37.552319" lon="-5.081781">
        <ele>169.713150</ele>
        <time>2020-08-13T10:59:53.045Z</time>
      </trkpt>
      <trkpt lat="37.552220" lon="-5.081821">
        <ele>169.477408</ele>
        <time>2020-08-13T10:59:55.055Z</time>
      </trkpt>
      <trkpt lat="37.552124" lon="-5.081879">
        <ele>169.236022</ele>
        <time>2020-08-13T10:59:57.054Z</time>
      </trkpt>
      <trkpt lat="37.552031" lon="-5.081960">
        <ele>168.979730</ele>
        <time>2020-08-13T11:00:00.058Z</time>
      </trkpt>
      <trkpt lat="37.551938" lon="-5.082030">
        <ele>168.734136</ele>
        <time>2020-08-13T11:00:03.037Z</time>
      </trkpt>
      <trkpt lat="37.551799" lon="-5.082035">
        <ele>168.418794</ele>
        <time>2020-08-13T11:00:06.055Z</time>
      </trkpt>
      <trkpt lat="37.551678" lon="-5.082052">
        <ele>167.565762</ele>
        <time>2020-08-13T11:00:09.051Z</time>
      </trkpt>
      <trkpt lat="37.551570" lon="-5.082094">
        <ele>166.210561</ele>
        <time>2020-08-13T11:00:13.049Z</time>
      </trkpt>
      <trkpt lat="37.551463" lon="-5.082136">
        <ele>164.866813</ele>
        <time>2020-08-13T11:00:16.062Z</time>
      </trkpt>
      <trkpt lat="37.551398" lon="-5.082246">
        <ele>163.562563</ele>
        <time>2020-08-13T11:00:20.042Z</time>
      </trkpt>
      <trkpt lat="37.551393" lon="-5.082378">
        <ele>162.306249</ele>
        <time>2020-08-13T11:00:24.058Z</time>
      </trkpt>
      <trkpt lat="37.551372" lon="-5.082492">
        <ele>161.193616</ele>
        <time>2020-08-13T11:00:26.044Z</time>
      </trkpt>
      <trkpt lat="37.551345" lon="-5.082618">
        <ele>159.952790</ele>
        <time>2020-08-13T11:00:28.048Z</time>
      </trkpt>
      <trkpt lat="37.551260" lon="-5.082656">
        <ele>158.871413</ele>
        <time>2020-08-13T11:00:41.037Z</time>
      </trkpt>
      <trkpt lat="37.550882" lon="-5.082603">
        <ele>154.310830</ele>
        <time>2020-08-13T11:03:14.069Z</time>
      </trkpt>
      <trkpt lat="37.550751" lon="-5.082559">
        <ele>152.685245</ele>
        <time>2020-08-13T11:03:17.030Z</time>
      </trkpt>
      <trkpt lat="37.550614" lon="-5.082545">
        <ele>151.037071</ele>
        <time>2020-08-13T11:03:20.037Z</time>
      </trkpt>
      <trkpt lat="37.550516" lon="-5.082531">
        <ele>149.854423</ele>
        <time>2020-08-13T11:03:22.032Z</time>
      </trkpt>
      <trkpt lat="37.550400" lon="-5.082477">
        <ele>148.371736</ele>
        <time>2020-08-13T11:03:25.028Z</time>
      </trkpt>
      <trkpt lat="37.550240" lon="-5.082432">
        <ele>146.647341</ele>
        <time>2020-08-13T11:03:29.042Z</time>
      </trkpt>
      <trkpt lat="37.550130" lon="-5.082390">
        <ele>146.365391</ele>
        <time>2020-08-13T11:03:32.030Z</time>
      </trkpt>
      <trkpt lat="37.550026" lon="-5.082326">
        <ele>146.081506</ele>
        <time>2020-08-13T11:03:35.046Z</time>
      </trkpt>
      <trkpt lat="37.549898" lon="-5.082323">
        <ele>145.767436</ele>
        <time>2020-08-13T11:03:38.035Z</time>
      </trkpt>
      <trkpt lat="37.549765" lon="-5.082318">
        <ele>145.441009</ele>
        <time>2020-08-13T11:03:41.036Z</time>
      </trkpt>
      <trkpt lat="37.549637" lon="-5.082293">
        <ele>145.123250</ele>
        <time>2020-08-13T11:03:43.871Z</time>
      </trkpt>
      <trkpt lat="37.549532" lon="-5.082272">
        <ele>144.862441</ele>
        <time>2020-08-13T11:03:46.846Z</time>
      </trkpt>
      <trkpt lat="37.549437" lon="-5.082238">
        <ele>144.620181</ele>
        <time>2020-08-13T11:03:49.838Z</time>
      </trkpt>
      <trkpt lat="37.549387" lon="-5.082140">
        <ele>144.393513</ele>
        <time>2020-08-13T11:03:53.855Z</time>
      </trkpt>
      <trkpt lat="37.549747" lon="-5.082158">
        <ele>143.509649</ele>
        <time>2020-08-13T11:08:56.860Z</time>
      </trkpt>
      <trkpt lat="37.549868" lon="-5.082142">
        <ele>143.211179</ele>
        <time>2020-08-13T11:08:59.842Z</time>
      </trkpt>
      <trkpt lat="37.549980" lon="-5.082082">
        <ele>142.912660</ele>
        <time>2020-08-13T11:09:02.839Z</time>
      </trkpt>
      <trkpt lat="37.550043" lon="-5.081997">
        <ele>142.686343</ele>
        <time>2020-08-13T11:09:04.840Z</time>
      </trkpt>
      <trkpt lat="37.550145" lon="-5.081899">
        <ele>142.371784</ele>
        <time>2020-08-13T11:09:07.836Z</time>
      </trkpt>
      <trkpt lat="37.550269" lon="-5.081934">
        <ele>142.337499</ele>
        <time>2020-08-13T11:09:10.853Z</time>
      </trkpt>
      <trkpt lat="37.550351" lon="-5.081996">
        <ele>142.377718</ele>
        <time>2020-08-13T11:09:12.846Z</time>
      </trkpt>
      <trkpt lat="37.550436" lon="-5.082036">
        <ele>142.415883</ele>
        <time>2020-08-13T11:09:14.856Z</time>
      </trkpt>
      <trkpt lat="37.550526" lon="-5.082048">
        <ele>142.453955</ele>
        <time>2020-08-13T11:09:16.830Z</time>
      </trkpt>
      <trkpt lat="37.550626" lon="-5.082023">
        <ele>142.496842</ele>
        <time>2020-08-13T11:09:19.839Z</time>
      </trkpt>
      <trkpt lat="37.550734" lon="-5.081991">
        <ele>142.543512</ele>
        <time>2020-08-13T11:09:22.839Z</time>
      </trkpt>
      <trkpt lat="37.550826" lon="-5.081963">
        <ele>142.583325</ele>
        <time>2020-08-13T11:09:25.833Z</time>
      </trkpt>
      <trkpt lat="37.550931" lon="-5.081942">
        <ele>142.628049</ele>
        <time>2020-08-13T11:09:28.837Z</time>
      </trkpt>
      <trkpt lat="37.551033" lon="-5.081943">
        <ele>142.670960</ele>
        <time>2020-08-13T11:09:31.837Z</time>
      </trkpt>
      <trkpt lat="37.551136" lon="-5.081939">
        <ele>142.714310</ele>
        <time>2020-08-13T11:09:34.841Z</time>
      </trkpt>
      <trkpt lat="37.551238" lon="-5.081992">
        <ele>142.760718</ele>
        <time>2020-08-13T11:09:37.838Z</time>
      </trkpt>
      <trkpt lat="37.551292" lon="-5.082120">
        <ele>142.809076</ele>
        <time>2020-08-13T11:09:40.848Z</time>
      </trkpt>
      <trkpt lat="37.551286" lon="-5.082250">
        <ele>142.852507</ele>
        <time>2020-08-13T11:09:43.858Z</time>
      </trkpt>
      <trkpt lat="37.551264" lon="-5.082369">
        <ele>142.893261</ele>
        <time>2020-08-13T11:09:46.832Z</time>
      </trkpt>
      <trkpt lat="37.551257" lon="-5.082500">
        <ele>142.937051</ele>
        <time>2020-08-13T11:09:50.837Z</time>
      </trkpt>
      <trkpt lat="37.551087" lon="-5.082530">
        <ele>143.009263</ele>
        <time>2020-08-13T11:09:53.835Z</time>
      </trkpt>
      <trkpt lat="37.551000" lon="-5.082574">
        <ele>143.048695</ele>
        <time>2020-08-13T11:10:00.840Z</time>
      </trkpt>
      <trkpt lat="37.550923" lon="-5.082512">
        <ele>143.075987</ele>
        <time>2020-08-13T11:10:07.831Z</time>
      </trkpt>
      <trkpt lat="37.550624" lon="-5.082489">
        <ele>143.160210</ele>
        <time>2020-08-13T11:11:00.834Z</time>
      </trkpt>
      <trkpt lat="37.550465" lon="-5.082432">
        <ele>143.206685</ele>
        <time>2020-08-13T11:11:03.841Z</time>
      </trkpt>
      <trkpt lat="37.550352" lon="-5.082445">
        <ele>143.238588</ele>
        <time>2020-08-13T11:11:09.832Z</time>
      </trkpt>
      <trkpt lat="37.550277" lon="-5.082381">
        <ele>143.264048</ele>
        <time>2020-08-13T11:11:11.827Z</time>
      </trkpt>
      <trkpt lat="37.550180" lon="-5.082274">
        <ele>143.300279</ele>
        <time>2020-08-13T11:11:14.832Z</time>
      </trkpt>
      <trkpt lat="37.550144" lon="-5.082167">
        <ele>143.326189</ele>
        <time>2020-08-13T11:11:16.856Z</time>
      </trkpt>
      <trkpt lat="37.550136" lon="-5.082045">
        <ele>143.353477</ele>
        <time>2020-08-13T11:11:18.834Z</time>
      </trkpt>
      <trkpt lat="37.550131" lon="-5.081898">
        <ele>143.386275</ele>
        <time>2020-08-13T11:11:21.834Z</time>
      </trkpt>
      <trkpt lat="37.550070" lon="-5.081803">
        <ele>143.413525</ele>
        <time>2020-08-13T11:11:24.838Z</time>
      </trkpt>
      <trkpt lat="37.549953" lon="-5.081747">
        <ele>143.448710</ele>
        <time>2020-08-13T11:11:27.848Z</time>
      </trkpt>
      <trkpt lat="37.549847" lon="-5.081690">
        <ele>143.481108</ele>
        <time>2020-08-13T11:11:30.839Z</time>
      </trkpt>
      <trkpt lat="37.549756" lon="-5.081593">
        <ele>143.514607</ele>
        <time>2020-08-13T11:11:33.846Z</time>
      </trkpt>
      <trkpt lat="37.549673" lon="-5.081520">
        <ele>143.543056</ele>
        <time>2020-08-13T11:11:36.840Z</time>
      </trkpt>
      <trkpt lat="37.549582" lon="-5.081454">
        <ele>143.469557</ele>
        <time>2020-08-13T11:11:39.849Z</time>
      </trkpt>
      <trkpt lat="37.549488" lon="-5.081358">
        <ele>143.240579</ele>
        <time>2020-08-13T11:11:42.854Z</time>
      </trkpt>
      <trkpt lat="37.549408" lon="-5.081294">
        <ele>143.061231</ele>
        <time>2020-08-13T11:11:44.841Z</time>
      </trkpt>
      <trkpt lat="37.549326" lon="-5.081236">
        <ele>142.883248</ele>
        <time>2020-08-13T11:11:46.860Z</time>
      </trkpt>
      <trkpt lat="37.549243" lon="-5.081173">
        <ele>142.699857</ele>
        <time>2020-08-13T11:11:48.860Z</time>
      </trkpt>
      <trkpt lat="37.549136" lon="-5.081032">
        <ele>142.406902</ele>
        <time>2020-08-13T11:11:50.836Z</time>
      </trkpt>
      <trkpt lat="37.549052" lon="-5.080925">
        <ele>142.180888</ele>
        <time>2020-08-13T11:11:52.842Z</time>
      </trkpt>
      <trkpt lat="37.548964" lon="-5.080832">
        <ele>141.963540</ele>
        <time>2020-08-13T11:11:54.876Z</time>
      </trkpt>
      <trkpt lat="37.548849" lon="-5.080743">
        <ele>141.708110</ele>
        <time>2020-08-13T11:11:57.858Z</time>
      </trkpt>
      <trkpt lat="37.548754" lon="-5.080703">
        <ele>141.518503</ele>
        <time>2020-08-13T11:11:59.849Z</time>
      </trkpt>
      <trkpt lat="37.548624" lon="-5.080695">
        <ele>141.272100</ele>
        <time>2020-08-13T11:12:02.860Z</time>
      </trkpt>
      <trkpt lat="37.548514" lon="-5.080677">
        <ele>141.062107</ele>
        <time>2020-08-13T11:12:04.858Z</time>
      </trkpt>
      <trkpt lat="37.548413" lon="-5.080657">
        <ele>140.868555</ele>
        <time>2020-08-13T11:12:06.853Z</time>
      </trkpt>
      <trkpt lat="37.548299" lon="-5.080642">
        <ele>140.651564</ele>
        <time>2020-08-13T11:12:09.858Z</time>
      </trkpt>
      <trkpt lat="37.548175" lon="-5.080592">
        <ele>140.405107</ele>
        <time>2020-08-13T11:12:11.857Z</time>
      </trkpt>
      <trkpt lat="37.548039" lon="-5.080553">
        <ele>140.139028</ele>
        <time>2020-08-13T11:12:13.838Z</time>
      </trkpt>
      <trkpt lat="37.547944" lon="-5.080495">
        <ele>139.908038</ele>
        <time>2020-08-13T11:12:15.854Z</time>
      </trkpt>
      <trkpt lat="37.547818" lon="-5.080472">
        <ele>139.629406</ele>
        <time>2020-08-13T11:12:18.843Z</time>
      </trkpt>
      <trkpt lat="37.547736" lon="-5.080425">
        <ele>139.432282</ele>
        <time>2020-08-13T11:12:20.862Z</time>
      </trkpt>
      <trkpt lat="37.547617" lon="-5.080385">
        <ele>139.162753</ele>
        <time>2020-08-13T11:12:23.864Z</time>
      </trkpt>
      <trkpt lat="37.547540" lon="-5.080322">
        <ele>138.961882</ele>
        <time>2020-08-13T11:12:25.862Z</time>
      </trkpt>
      <trkpt lat="37.547464" lon="-5.080259">
        <ele>138.762844</ele>
        <time>2020-08-13T11:12:27.852Z</time>
      </trkpt>
      <trkpt lat="37.547379" lon="-5.080201">
        <ele>138.551337</ele>
        <time>2020-08-13T11:12:29.851Z</time>
      </trkpt>
      <trkpt lat="37.547267" lon="-5.080106">
        <ele>138.255944</ele>
        <time>2020-08-13T11:12:32.859Z</time>
      </trkpt>
      <trkpt lat="37.547170" lon="-5.080010">
        <ele>137.986100</ele>
        <time>2020-08-13T11:12:35.856Z</time>
      </trkpt>
      <trkpt lat="37.547074" lon="-5.079886">
        <ele>137.685368</ele>
        <time>2020-08-13T11:12:38.857Z</time>
      </trkpt>
      <trkpt lat="37.547011" lon="-5.079790">
        <ele>137.469129</ele>
        <time>2020-08-13T11:12:40.863Z</time>
      </trkpt>
      <trkpt lat="37.546929" lon="-5.079693">
        <ele>137.223086</ele>
        <time>2020-08-13T11:12:42.840Z</time>
      </trkpt>
      <trkpt lat="37.546847" lon="-5.079594">
        <ele>136.974657</ele>
        <time>2020-08-13T11:12:45.858Z</time>
      </trkpt>
      <trkpt lat="37.546778" lon="-5.079477">
        <ele>136.721632</ele>
        <time>2020-08-13T11:12:48.858Z</time>
      </trkpt>
      <trkpt lat="37.546716" lon="-5.079354">
        <ele>136.468719</ele>
        <time>2020-08-13T11:12:50.858Z</time>
      </trkpt>
      <trkpt lat="37.546659" lon="-5.079252">
        <ele>136.252182</ele>
        <time>2020-08-13T11:12:52.860Z</time>
      </trkpt>
      <trkpt lat="37.546522" lon="-5.079165">
        <ele>136.255261</ele>
        <time>2020-08-13T11:12:55.848Z</time>
      </trkpt>
      <trkpt lat="37.546405" lon="-5.079085">
        <ele>136.291601</ele>
        <time>2020-08-13T11:12:58.859Z</time>
      </trkpt>
      <trkpt lat="37.546376" lon="-5.078949">
        <ele>136.322090</ele>
        <time>2020-08-13T11:13:00.848Z</time>
      </trkpt>
      <trkpt lat="37.546318" lon="-5.078828">
        <ele>136.352701</ele>
        <time>2020-08-13T11:13:02.855Z</time>
      </trkpt>
      <trkpt lat="37.546232" lon="-5.078731">
        <ele>136.384203</ele>
        <time>2020-08-13T11:13:05.900Z</time>
      </trkpt>
      <trkpt lat="37.546133" lon="-5.078661">
        <ele>136.415193</ele>
        <time>2020-08-13T11:13:07.851Z</time>
      </trkpt>
      <trkpt lat="37.546126" lon="-5.078520">
        <ele>136.445778</ele>
        <time>2020-08-13T11:13:10.843Z</time>
      </trkpt>
      <trkpt lat="37.546014" lon="-5.078493">
        <ele>136.476914</ele>
        <time>2020-08-13T11:13:11.845Z</time>
      </trkpt>
      <trkpt lat="37.546005" lon="-5.078329">
        <ele>136.512503</ele>
        <time>2020-08-13T11:13:13.849Z</time>
      </trkpt>
      <trkpt lat="37.546045" lon="-5.078169">
        <ele>136.548823</ele>
        <time>2020-08-13T11:13:15.858Z</time>
      </trkpt>
      <trkpt lat="37.545953" lon="-5.078146">
        <ele>136.574433</ele>
        <time>2020-08-13T11:13:18.852Z</time>
      </trkpt>
      <trkpt lat="37.545985" lon="-5.078031">
        <ele>136.600818</ele>
        <time>2020-08-13T11:13:21.850Z</time>
      </trkpt>
      <trkpt lat="37.545869" lon="-5.077947">
        <ele>136.637341</ele>
        <time>2020-08-13T11:13:24.836Z</time>
      </trkpt>
      <trkpt lat="37.545660" lon="-5.078025">
        <ele>136.696855</ele>
        <time>2020-08-13T11:13:26.832Z</time>
      </trkpt>
      <trkpt lat="37.545706" lon="-5.077906">
        <ele>136.857393</ele>
        <time>2020-08-13T11:13:31.859Z</time>
      </trkpt>
      <trkpt lat="37.545553" lon="-5.077873">
        <ele>137.234236</ele>
        <time>2020-08-13T11:13:35.861Z</time>
      </trkpt>
      <trkpt lat="37.545391" lon="-5.077978">
        <ele>137.676431</ele>
        <time>2020-08-13T11:13:38.846Z</time>
      </trkpt>
      <trkpt lat="37.545301" lon="-5.078013">
        <ele>137.905082</ele>
        <time>2020-08-13T11:13:42.857Z</time>
      </trkpt>
      <trkpt lat="37.545207" lon="-5.077994">
        <ele>138.136205</ele>
        <time>2020-08-13T11:13:46.847Z</time>
      </trkpt>
      <trkpt lat="37.545101" lon="-5.078016">
        <ele>138.397011</ele>
        <time>2020-08-13T11:13:48.841Z</time>
      </trkpt>
      <trkpt lat="37.545007" lon="-5.078016">
        <ele>138.625222</ele>
        <time>2020-08-13T11:13:49.834Z</time>
      </trkpt>
      <trkpt lat="37.544859" lon="-5.077987">
        <ele>138.988844</ele>
        <time>2020-08-13T11:13:51.847Z</time>
      </trkpt>
      <trkpt lat="37.544748" lon="-5.078050">
        <ele>139.284357</ele>
        <time>2020-08-13T11:13:53.853Z</time>
      </trkpt>
      <trkpt lat="37.544645" lon="-5.078022">
        <ele>139.540161</ele>
        <time>2020-08-13T11:13:58.827Z</time>
      </trkpt>
      <trkpt lat="37.544521" lon="-5.078060">
        <ele>139.849965</ele>
        <time>2020-08-13T11:14:03.838Z</time>
      </trkpt>
      <trkpt lat="37.544430" lon="-5.078061">
        <ele>140.070901</ele>
        <time>2020-08-13T11:14:06.829Z</time>
      </trkpt>
      <trkpt lat="37.544357" lon="-5.078150">
        <ele>140.317397</ele>
        <time>2020-08-13T11:14:10.838Z</time>
      </trkpt>
      <trkpt lat="37.544339" lon="-5.078267">
        <ele>140.546816</ele>
        <time>2020-08-13T11:14:13.841Z</time>
      </trkpt>
      <trkpt lat="37.544310" lon="-5.078393">
        <ele>140.799371</ele>
        <time>2020-08-13T11:14:17.837Z</time>
      </trkpt>
      <trkpt lat="37.544203" lon="-5.078416">
        <ele>141.062889</ele>
        <time>2020-08-13T11:14:21.827Z</time>
      </trkpt>
      <trkpt lat="37.544102" lon="-5.078403">
        <ele>141.260070</ele>
        <time>2020-08-13T11:14:24.828Z</time>
      </trkpt>
      <trkpt lat="37.543997" lon="-5.078364">
        <ele>141.469791</ele>
        <time>2020-08-13T11:14:28.838Z</time>
      </trkpt>
      <trkpt lat="37.543920" lon="-5.078453">
        <ele>141.669905</ele>
        <time>2020-08-13T11:14:33.846Z</time>
      </trkpt>
      <trkpt lat="37.543831" lon="-5.078534">
        <ele>141.880190</ele>
        <time>2020-08-13T11:14:38.845Z</time>
      </trkpt>
      <trkpt lat="37.543759" lon="-5.078615">
        <ele>142.065047</ele>
        <time>2020-08-13T11:14:41.841Z</time>
      </trkpt>
      <trkpt lat="37.543708" lon="-5.078726">
        <ele>142.259940</ele>
        <time>2020-08-13T11:14:44.858Z</time>
      </trkpt>
      <trkpt lat="37.543771" lon="-5.078828">
        <ele>142.456361</ele>
        <time>2020-08-13T11:14:47.860Z</time>
      </trkpt>
      <trkpt lat="37.543836" lon="-5.078933">
        <ele>142.658732</ele>
        <time>2020-08-13T11:14:50.842Z</time>
      </trkpt>
      <trkpt lat="37.543909" lon="-5.079005">
        <ele>142.836289</ele>
        <time>2020-08-13T11:14:53.851Z</time>
      </trkpt>
      <trkpt lat="37.543888" lon="-5.079120">
        <ele>143.015566</ele>
        <time>2020-08-13T11:14:58.840Z</time>
      </trkpt>
      <trkpt lat="37.543817" lon="-5.079194">
        <ele>143.192040</ele>
        <time>2020-08-13T11:15:01.847Z</time>
      </trkpt>
      <trkpt lat="37.543754" lon="-5.079305">
        <ele>143.399417</ele>
        <time>2020-08-13T11:15:06.855Z</time>
      </trkpt>
      <trkpt lat="37.543706" lon="-5.079418">
        <ele>143.594165</ele>
        <time>2020-08-13T11:15:10.843Z</time>
      </trkpt>
      <trkpt lat="37.543667" lon="-5.079540">
        <ele>143.793999</ele>
        <time>2020-08-13T11:15:13.839Z</time>
      </trkpt>
      <trkpt lat="37.543648" lon="-5.079653">
        <ele>143.969482</ele>
        <time>2020-08-13T11:15:16.836Z</time>
      </trkpt>
      <trkpt lat="37.543686" lon="-5.079793">
        <ele>144.194282</ele>
        <time>2020-08-13T11:15:20.839Z</time>
      </trkpt>
      <trkpt lat="37.543661" lon="-5.080094">
        <ele>144.685291</ele>
        <time>2020-08-13T11:15:32.854Z</time>
      </trkpt>
      <trkpt lat="37.543573" lon="-5.080165">
        <ele>144.932684</ele>
        <time>2020-08-13T11:15:37.853Z</time>
      </trkpt>
      <trkpt lat="37.543530" lon="-5.080267">
        <ele>145.149598</ele>
        <time>2020-08-13T11:15:42.841Z</time>
      </trkpt>
      <trkpt lat="37.543511" lon="-5.080403">
        <ele>145.408898</ele>
        <time>2020-08-13T11:15:46.846Z</time>
      </trkpt>
      <trkpt lat="37.543334" lon="-5.080834">
        <ele>146.320298</ele>
        <time>2020-08-13T11:16:04.841Z</time>
      </trkpt>
      <trkpt lat="37.543266" lon="-5.080915">
        <ele>146.541804</ele>
        <time>2020-08-13T11:16:07.845Z</time>
      </trkpt>
      <trkpt lat="37.543168" lon="-5.081024">
        <ele>146.851241</ele>
        <time>2020-08-13T11:16:10.857Z</time>
      </trkpt>
      <trkpt lat="37.543097" lon="-5.081102">
        <ele>147.074225</ele>
        <time>2020-08-13T11:16:12.861Z</time>
      </trkpt>
      <trkpt lat="37.543012" lon="-5.081209">
        <ele>147.358630</ele>
        <time>2020-08-13T11:16:15.856Z</time>
      </trkpt>
      <trkpt lat="37.543011" lon="-5.081352">
        <ele>147.627153</ele>
        <time>2020-08-13T11:16:19.845Z</time>
      </trkpt>
      <trkpt lat="37.542960" lon="-5.081685">
        <ele>148.263989</ele>
        <time>2020-08-13T11:16:27.847Z</time>
      </trkpt>
      <trkpt lat="37.542720" lon="-5.081792">
        <ele>148.813870</ele>
        <time>2020-08-13T11:16:40.844Z</time>
      </trkpt>
      <trkpt lat="37.542593" lon="-5.081778">
        <ele>148.929129</ele>
        <time>2020-08-13T11:16:43.835Z</time>
      </trkpt>
      <trkpt lat="37.542482" lon="-5.081817">
        <ele>149.033306</ele>
        <time>2020-08-13T11:16:46.858Z</time>
      </trkpt>
      <trkpt lat="37.542383" lon="-5.081840">
        <ele>149.124319</ele>
        <time>2020-08-13T11:16:49.858Z</time>
      </trkpt>
      <trkpt lat="37.542009" lon="-5.082634">
        <ele>149.786374</ele>
        <time>2020-08-13T11:17:06.840Z</time>
      </trkpt>
      <trkpt lat="37.541608" lon="-5.082607">
        <ele>150.149436</ele>
        <time>2020-08-13T11:17:08.844Z</time>
      </trkpt>
      <trkpt lat="37.541795" lon="-5.082540">
        <ele>150.325194</ele>
        <time>2020-08-13T11:17:09.836Z</time>
      </trkpt>
      <trkpt lat="37.541723" lon="-5.082625">
        <ele>150.442475</ele>
        <time>2020-08-13T11:17:13.841Z</time>
      </trkpt>
      <trkpt lat="37.541626" lon="-5.082675">
        <ele>150.916511</ele>
        <time>2020-08-13T11:17:17.847Z</time>
      </trkpt>
      <trkpt lat="37.541546" lon="-5.082730">
        <ele>151.328686</ele>
        <time>2020-08-13T11:17:20.832Z</time>
      </trkpt>
      <trkpt lat="37.541445" lon="-5.082705">
        <ele>151.794298</ele>
        <time>2020-08-13T11:17:23.832Z</time>
      </trkpt>
      <trkpt lat="37.541343" lon="-5.082604">
        <ele>152.380943</ele>
        <time>2020-08-13T11:17:26.829Z</time>
      </trkpt>
      <trkpt lat="37.541258" lon="-5.082534">
        <ele>152.840176</ele>
        <time>2020-08-13T11:17:29.851Z</time>
      </trkpt>
      <trkpt lat="37.541166" lon="-5.082477">
        <ele>153.303866</ele>
        <time>2020-08-13T11:17:32.835Z</time>
      </trkpt>
      <trkpt lat="37.541067" lon="-5.082424">
        <ele>153.790393</ele>
        <time>2020-08-13T11:17:35.832Z</time>
      </trkpt>
      <trkpt lat="37.540965" lon="-5.082362">
        <ele>154.302608</ele>
        <time>2020-08-13T11:17:38.834Z</time>
      </trkpt>
      <trkpt lat="37.540870" lon="-5.082335">
        <ele>154.743138</ele>
        <time>2020-08-13T11:17:41.826Z</time>
      </trkpt>
      <trkpt lat="37.540751" lon="-5.082329">
        <ele>155.281890</ele>
        <time>2020-08-13T11:17:45.844Z</time>
      </trkpt>
      <trkpt lat="37.540660" lon="-5.082367">
        <ele>155.715526</ele>
        <time>2020-08-13T11:17:47.835Z</time>
      </trkpt>
      <trkpt lat="37.540417" lon="-5.082265">
        <ele>156.874076</ele>
        <time>2020-08-13T11:17:58.838Z</time>
      </trkpt>
      <trkpt lat="37.540358" lon="-5.082161">
        <ele>157.332766</ele>
        <time>2020-08-13T11:18:04.838Z</time>
      </trkpt>
      <trkpt lat="37.540357" lon="-5.082048">
        <ele>157.738118</ele>
        <time>2020-08-13T11:18:12.839Z</time>
      </trkpt>
      <trkpt lat="37.540265" lon="-5.081975">
        <ele>158.229821</ele>
        <time>2020-08-13T11:18:32.846Z</time>
      </trkpt>
      <trkpt lat="37.539625" lon="-5.081273">
        <ele>159.912013</ele>
        <time>2020-08-13T11:18:55.892Z</time>
      </trkpt>
      <trkpt lat="37.539741" lon="-5.080959">
        <ele>160.394559</ele>
        <time>2020-08-13T11:18:57.840Z</time>
      </trkpt>
      <trkpt lat="37.539665" lon="-5.080876">
        <ele>160.571177</ele>
        <time>2020-08-13T11:19:00.834Z</time>
      </trkpt>
      <trkpt lat="37.539565" lon="-5.080853">
        <ele>160.749753</ele>
        <time>2020-08-13T11:19:03.839Z</time>
      </trkpt>
      <trkpt lat="37.539437" lon="-5.080857">
        <ele>160.974689</ele>
        <time>2020-08-13T11:19:06.843Z</time>
      </trkpt>
      <trkpt lat="37.539328" lon="-5.080828">
        <ele>161.170392</ele>
        <time>2020-08-13T11:19:09.845Z</time>
      </trkpt>
      <trkpt lat="37.539239" lon="-5.080806">
        <ele>161.329721</ele>
        <time>2020-08-13T11:19:12.841Z</time>
      </trkpt>
      <trkpt lat="37.539132" lon="-5.080779">
        <ele>161.521422</ele>
        <time>2020-08-13T11:19:15.848Z</time>
      </trkpt>
      <trkpt lat="37.539038" lon="-5.080683">
        <ele>161.643137</ele>
        <time>2020-08-13T11:19:19.864Z</time>
      </trkpt>
      <trkpt lat="37.538925" lon="-5.080620">
        <ele>161.208243</ele>
        <time>2020-08-13T11:19:22.847Z</time>
      </trkpt>
      <trkpt lat="37.538809" lon="-5.080558">
        <ele>160.764767</ele>
        <time>2020-08-13T11:19:25.832Z</time>
      </trkpt>
      <trkpt lat="37.538732" lon="-5.080496">
        <ele>160.443194</ele>
        <time>2020-08-13T11:19:27.832Z</time>
      </trkpt>
      <trkpt lat="37.538626" lon="-5.080425">
        <ele>160.020713</ele>
        <time>2020-08-13T11:19:30.870Z</time>
      </trkpt>
      <trkpt lat="37.538525" lon="-5.080381">
        <ele>159.644579</ele>
        <time>2020-08-13T11:19:33.831Z</time>
      </trkpt>
      <trkpt lat="37.538441" lon="-5.080309">
        <ele>159.287070</ele>
        <time>2020-08-13T11:19:36.871Z</time>
      </trkpt>
      <trkpt lat="37.538363" lon="-5.080210">
        <ele>158.897534</ele>
        <time>2020-08-13T11:19:39.847Z</time>
      </trkpt>
      <trkpt lat="37.538261" lon="-5.080187">
        <ele>158.532800</ele>
        <time>2020-08-13T11:19:43.851Z</time>
      </trkpt>
      <trkpt lat="37.538167" lon="-5.080261">
        <ele>158.142746</ele>
        <time>2020-08-13T11:19:46.853Z</time>
      </trkpt>
      <trkpt lat="37.538067" lon="-5.080292">
        <ele>157.780268</ele>
        <time>2020-08-13T11:19:50.836Z</time>
      </trkpt>
      <trkpt lat="37.537976" lon="-5.080324">
        <ele>157.447728</ele>
        <time>2020-08-13T11:19:57.855Z</time>
      </trkpt>
      <trkpt lat="37.537944" lon="-5.080193">
        <ele>157.065127</ele>
        <time>2020-08-13T11:20:01.828Z</time>
      </trkpt>
      <trkpt lat="37.537959" lon="-5.080046">
        <ele>156.651441</ele>
        <time>2020-08-13T11:20:04.829Z</time>
      </trkpt>
      <trkpt lat="37.537987" lon="-5.079927">
        <ele>156.304976</ele>
        <time>2020-08-13T11:20:07.843Z</time>
      </trkpt>
      <trkpt lat="37.537969" lon="-5.079803">
        <ele>155.953118</ele>
        <time>2020-08-13T11:20:10.836Z</time>
      </trkpt>
      <trkpt lat="37.537889" lon="-5.079720">
        <ele>155.588470</ele>
        <time>2020-08-13T11:20:14.832Z</time>
      </trkpt>
      <trkpt lat="37.537807" lon="-5.079668">
        <ele>155.320323</ele>
        <time>2020-08-13T11:20:17.842Z</time>
      </trkpt>
      <trkpt lat="37.537698" lon="-5.079644">
        <ele>155.130627</ele>
        <time>2020-08-13T11:20:20.835Z</time>
      </trkpt>
      <trkpt lat="37.537587" lon="-5.079580">
        <ele>154.921384</ele>
        <time>2020-08-13T11:20:24.861Z</time>
      </trkpt>
      <trkpt lat="37.537476" lon="-5.079556">
        <ele>154.728309</ele>
        <time>2020-08-13T11:20:27.844Z</time>
      </trkpt>
      <trkpt lat="37.537356" lon="-5.079573">
        <ele>154.521288</ele>
        <time>2020-08-13T11:20:30.835Z</time>
      </trkpt>
      <trkpt lat="37.537249" lon="-5.079574">
        <ele>154.337843</ele>
        <time>2020-08-13T11:20:33.836Z</time>
      </trkpt>
      <trkpt lat="37.537142" lon="-5.079497">
        <ele>154.126637</ele>
        <time>2020-08-13T11:20:36.831Z</time>
      </trkpt>
      <trkpt lat="37.537088" lon="-5.079399">
        <ele>153.964404</ele>
        <time>2020-08-13T11:20:37.836Z</time>
      </trkpt>
      <trkpt lat="37.536985" lon="-5.079325">
        <ele>153.761176</ele>
        <time>2020-08-13T11:20:41.837Z</time>
      </trkpt>
      <trkpt lat="37.536907" lon="-5.079244">
        <ele>153.587950</ele>
        <time>2020-08-13T11:20:45.838Z</time>
      </trkpt>
      <trkpt lat="37.536802" lon="-5.079263">
        <ele>153.406095</ele>
        <time>2020-08-13T11:20:48.834Z</time>
      </trkpt>
      <trkpt lat="37.536705" lon="-5.079246">
        <ele>153.238201</ele>
        <time>2020-08-13T11:20:52.834Z</time>
      </trkpt>
      <trkpt lat="37.536612" lon="-5.079196">
        <ele>153.064877</ele>
        <time>2020-08-13T11:20:56.840Z</time>
      </trkpt>
      <trkpt lat="37.536531" lon="-5.079138">
        <ele>152.905188</ele>
        <time>2020-08-13T11:20:59.841Z</time>
      </trkpt>
      <trkpt lat="37.536417" lon="-5.079077">
        <ele>152.692881</ele>
        <time>2020-08-13T11:21:02.835Z</time>
      </trkpt>
      <trkpt lat="37.536328" lon="-5.079045">
        <ele>152.534219</ele>
        <time>2020-08-13T11:21:04.842Z</time>
      </trkpt>
      <trkpt lat="37.536241" lon="-5.079017">
        <ele>152.380287</ele>
        <time>2020-08-13T11:21:06.851Z</time>
      </trkpt>
      <trkpt lat="37.536113" lon="-5.078982">
        <ele>152.076520</ele>
        <time>2020-08-13T11:21:09.841Z</time>
      </trkpt>
      <trkpt lat="37.535956" lon="-5.078973">
        <ele>151.646766</ele>
        <time>2020-08-13T11:21:13.854Z</time>
      </trkpt>
      <trkpt lat="37.535870" lon="-5.078904">
        <ele>151.368042</ele>
        <time>2020-08-13T11:21:16.850Z</time>
      </trkpt>
      <trkpt lat="37.535799" lon="-5.078828">
        <ele>151.113384</ele>
        <time>2020-08-13T11:21:18.860Z</time>
      </trkpt>
      <trkpt lat="37.535711" lon="-5.078733">
        <ele>150.796623</ele>
        <time>2020-08-13T11:21:20.847Z</time>
      </trkpt>
      <trkpt lat="37.535594" lon="-5.078684">
        <ele>150.459509</ele>
        <time>2020-08-13T11:21:23.862Z</time>
      </trkpt>
      <trkpt lat="37.535514" lon="-5.078583">
        <ele>150.149965</ele>
        <time>2020-08-13T11:21:26.847Z</time>
      </trkpt>
      <trkpt lat="37.535477" lon="-5.078461">
        <ele>149.866737</ele>
        <time>2020-08-13T11:21:29.839Z</time>
      </trkpt>
      <trkpt lat="37.535395" lon="-5.078367">
        <ele>149.563714</ele>
        <time>2020-08-13T11:21:31.847Z</time>
      </trkpt>
      <trkpt lat="37.535347" lon="-5.078261">
        <ele>149.299031</ele>
        <time>2020-08-13T11:21:33.830Z</time>
      </trkpt>
      <trkpt lat="37.535262" lon="-5.078138">
        <ele>148.945255</ele>
        <time>2020-08-13T11:21:36.833Z</time>
      </trkpt>
      <trkpt lat="37.535176" lon="-5.078018">
        <ele>148.594529</ele>
        <time>2020-08-13T11:21:39.838Z</time>
      </trkpt>
      <trkpt lat="37.535112" lon="-5.077929">
        <ele>148.334009</ele>
        <time>2020-08-13T11:21:41.827Z</time>
      </trkpt>
      <trkpt lat="37.535010" lon="-5.077849">
        <ele>148.005550</ele>
        <time>2020-08-13T11:21:43.835Z</time>
      </trkpt>
      <trkpt lat="37.534915" lon="-5.077887">
        <ele>147.733020</ele>
        <time>2020-08-13T11:21:49.837Z</time>
      </trkpt>
      <trkpt lat="37.534860" lon="-5.077995">
        <ele>147.454701</ele>
        <time>2020-08-13T11:21:52.841Z</time>
      </trkpt>
      <trkpt lat="37.534756" lon="-5.078100">
        <ele>147.370567</ele>
        <time>2020-08-13T11:21:55.835Z</time>
      </trkpt>
      <trkpt lat="37.534704" lon="-5.078211">
        <ele>147.370567</ele>
        <time>2020-08-13T11:21:58.836Z</time>
      </trkpt>
      <trkpt lat="37.534659" lon="-5.078328">
        <ele>147.370567</ele>
        <time>2020-08-13T11:22:01.842Z</time>
      </trkpt>
      <trkpt lat="37.534608" lon="-5.078450">
        <ele>147.370567</ele>
        <time>2020-08-13T11:22:04.844Z</time>
      </trkpt>
      <trkpt lat="37.534568" lon="-5.078587">
        <ele>147.370567</ele>
        <time>2020-08-13T11:22:07.838Z</time>
      </trkpt>
      <trkpt lat="37.534519" lon="-5.078687">
        <ele>147.370567</ele>
        <time>2020-08-13T11:22:10.842Z</time>
      </trkpt>
      <trkpt lat="37.534449" lon="-5.078783">
        <ele>147.370567</ele>
        <time>2020-08-13T11:22:13.851Z</time>
      </trkpt>
      <trkpt lat="37.534400" lon="-5.078895">
        <ele>147.370567</ele>
        <time>2020-08-13T11:22:16.831Z</time>
      </trkpt>
      <trkpt lat="37.534379" lon="-5.079027">
        <ele>147.370567</ele>
        <time>2020-08-13T11:22:19.834Z</time>
      </trkpt>
      <trkpt lat="37.534386" lon="-5.079147">
        <ele>147.370567</ele>
        <time>2020-08-13T11:22:22.837Z</time>
      </trkpt>
      <trkpt lat="37.534406" lon="-5.079277">
        <ele>147.370567</ele>
        <time>2020-08-13T11:22:27.835Z</time>
      </trkpt>
      <trkpt lat="37.534405" lon="-5.079396">
        <ele>147.370567</ele>
        <time>2020-08-13T11:22:32.837Z</time>
      </trkpt>
      <trkpt lat="37.534317" lon="-5.079472">
        <ele>147.370567</ele>
        <time>2020-08-13T11:22:38.838Z</time>
      </trkpt>
      <trkpt lat="37.534272" lon="-5.079587">
        <ele>147.370567</ele>
        <time>2020-08-13T11:22:47.843Z</time>
      </trkpt>
      <trkpt lat="37.534231" lon="-5.079689">
        <ele>147.370567</ele>
        <time>2020-08-13T11:22:52.836Z</time>
      </trkpt>
      <trkpt lat="37.534300" lon="-5.079548">
        <ele>147.370567</ele>
        <time>2020-08-13T11:33:42.867Z</time>
      </trkpt>
      <trkpt lat="37.534405" lon="-5.079432">
        <ele>147.370567</ele>
        <time>2020-08-13T12:14:28.838Z</time>
      </trkpt>
      <trkpt lat="37.534351" lon="-5.079490">
        <ele>147.370567</ele>
        <time>2020-08-13T12:42:51.654Z</time>
      </trkpt>
      <trkpt lat="37.534497" lon="-5.079244">
        <ele>151.040005</ele>
        <time>2020-08-14T05:26:47.293Z</time>
      </trkpt>
      <trkpt lat="37.534400" lon="-5.079410">
        <ele>151.040005</ele>
        <time>2020-08-14T05:27:44.277Z</time>
      </trkpt>
      <trkpt lat="37.534329" lon="-5.079488">
        <ele>151.040005</ele>
        <time>2020-08-14T05:28:43.305Z</time>
      </trkpt>
      <trkpt lat="37.534262" lon="-5.079548">
        <ele>151.040005</ele>
        <time>2020-08-14T05:34:44.428Z</time>
      </trkpt>
      <trkpt lat="37.534261" lon="-5.079548">
        <ele>155.497067</ele>
        <time>2020-08-14T05:40:35.420Z</time>
      </trkpt>
      <trkpt lat="37.534145" lon="-5.079713">
        <ele>155.497067</ele>
        <time>2020-08-14T05:41:59.227Z</time>
      </trkpt>
      <trkpt lat="37.534039" lon="-5.079707">
        <ele>155.497067</ele>
        <time>2020-08-14T05:42:03.243Z</time>
      </trkpt>
      <trkpt lat="37.533944" lon="-5.079744">
        <ele>155.497067</ele>
        <time>2020-08-14T05:42:06.235Z</time>
      </trkpt>
      <trkpt lat="37.533895" lon="-5.079840">
        <ele>155.497067</ele>
        <time>2020-08-14T05:42:09.233Z</time>
      </trkpt>
      <trkpt lat="37.533844" lon="-5.079969">
        <ele>155.497067</ele>
        <time>2020-08-14T05:42:12.250Z</time>
      </trkpt>
      <trkpt lat="37.533806" lon="-5.080072">
        <ele>155.497067</ele>
        <time>2020-08-14T05:42:14.246Z</time>
      </trkpt>
      <trkpt lat="37.533764" lon="-5.080200">
        <ele>155.497067</ele>
        <time>2020-08-14T05:42:16.247Z</time>
      </trkpt>
      <trkpt lat="37.533724" lon="-5.080306">
        <ele>155.497067</ele>
        <time>2020-08-14T05:42:18.259Z</time>
      </trkpt>
      <trkpt lat="37.533684" lon="-5.080409">
        <ele>155.465534</ele>
        <time>2020-08-14T05:42:20.245Z</time>
      </trkpt>
      <trkpt lat="37.533624" lon="-5.080556">
        <ele>155.406376</ele>
        <time>2020-08-14T05:42:23.254Z</time>
      </trkpt>
      <trkpt lat="37.533573" lon="-5.080678">
        <ele>155.357029</ele>
        <time>2020-08-14T05:42:26.250Z</time>
      </trkpt>
      <trkpt lat="37.533518" lon="-5.080801">
        <ele>155.306502</ele>
        <time>2020-08-14T05:42:29.246Z</time>
      </trkpt>
      <trkpt lat="37.533473" lon="-5.080906">
        <ele>155.263796</ele>
        <time>2020-08-14T05:42:32.256Z</time>
      </trkpt>
      <trkpt lat="37.533428" lon="-5.081010">
        <ele>155.221403</ele>
        <time>2020-08-14T05:42:35.247Z</time>
      </trkpt>
      <trkpt lat="37.533387" lon="-5.081127">
        <ele>155.175633</ele>
        <time>2020-08-14T05:42:38.242Z</time>
      </trkpt>
      <trkpt lat="37.533383" lon="-5.081247">
        <ele>155.132657</ele>
        <time>2020-08-14T05:42:41.240Z</time>
      </trkpt>
      <trkpt lat="37.533347" lon="-5.081395">
        <ele>155.077264</ele>
        <time>2020-08-14T05:42:45.244Z</time>
      </trkpt>
      <trkpt lat="37.533298" lon="-5.081518">
        <ele>155.028011</ele>
        <time>2020-08-14T05:42:48.251Z</time>
      </trkpt>
      <trkpt lat="37.533310" lon="-5.081658">
        <ele>154.977625</ele>
        <time>2020-08-14T05:42:51.232Z</time>
      </trkpt>
      <trkpt lat="37.533416" lon="-5.081730">
        <ele>154.923298</ele>
        <time>2020-08-14T05:42:54.229Z</time>
      </trkpt>
      <trkpt lat="37.533519" lon="-5.081799">
        <ele>154.870671</ele>
        <time>2020-08-14T05:42:57.233Z</time>
      </trkpt>
      <trkpt lat="37.533615" lon="-5.081873">
        <ele>154.819902</ele>
        <time>2020-08-14T05:43:00.252Z</time>
      </trkpt>
      <trkpt lat="37.533683" lon="-5.081977">
        <ele>154.771671</ele>
        <time>2020-08-14T05:43:03.231Z</time>
      </trkpt>
      <trkpt lat="37.533713" lon="-5.082099">
        <ele>154.725967</ele>
        <time>2020-08-14T05:43:08.236Z</time>
      </trkpt>
      <trkpt lat="37.533685" lon="-5.082213">
        <ele>154.680250</ele>
        <time>2020-08-14T05:43:11.242Z</time>
      </trkpt>
      <trkpt lat="37.533627" lon="-5.082350">
        <ele>154.549076</ele>
        <time>2020-08-14T05:43:14.250Z</time>
      </trkpt>
      <trkpt lat="37.533595" lon="-5.082497">
        <ele>154.420321</ele>
        <time>2020-08-14T05:43:17.248Z</time>
      </trkpt>
      <trkpt lat="37.533574" lon="-5.082633">
        <ele>154.303293</ele>
        <time>2020-08-14T05:43:20.245Z</time>
      </trkpt>
      <trkpt lat="37.533574" lon="-5.082777">
        <ele>154.181665</ele>
        <time>2020-08-14T05:43:24.243Z</time>
      </trkpt>
      <trkpt lat="37.533590" lon="-5.082891">
        <ele>154.083880</ele>
        <time>2020-08-14T05:43:27.243Z</time>
      </trkpt>
      <trkpt lat="37.533626" lon="-5.083002">
        <ele>153.982587</ele>
        <time>2020-08-14T05:43:31.246Z</time>
      </trkpt>
      <trkpt lat="37.533666" lon="-5.083131">
        <ele>153.865595</ele>
        <time>2020-08-14T05:43:35.245Z</time>
      </trkpt>
      <trkpt lat="37.533622" lon="-5.083298">
        <ele>153.716959</ele>
        <time>2020-08-14T05:43:38.243Z</time>
      </trkpt>
      <trkpt lat="37.533601" lon="-5.083451">
        <ele>153.585808</ele>
        <time>2020-08-14T05:43:41.241Z</time>
      </trkpt>
      <trkpt lat="37.533594" lon="-5.083567">
        <ele>153.487547</ele>
        <time>2020-08-14T05:43:45.243Z</time>
      </trkpt>
      <trkpt lat="37.533628" lon="-5.083689">
        <ele>153.378322</ele>
        <time>2020-08-14T05:43:50.243Z</time>
      </trkpt>
      <trkpt lat="37.533606" lon="-5.083811">
        <ele>153.272646</ele>
        <time>2020-08-14T05:43:54.243Z</time>
      </trkpt>
      <trkpt lat="37.533540" lon="-5.083917">
        <ele>153.158814</ele>
        <time>2020-08-14T05:44:00.234Z</time>
      </trkpt>
      <trkpt lat="37.533425" lon="-5.083919">
        <ele>153.036313</ele>
        <time>2020-08-14T05:44:04.234Z</time>
      </trkpt>
      <trkpt lat="37.533318" lon="-5.083930">
        <ele>152.921967</ele>
        <time>2020-08-14T05:44:08.244Z</time>
      </trkpt>
      <trkpt lat="37.533245" lon="-5.084009">
        <ele>152.819507</ele>
        <time>2020-08-14T05:44:12.237Z</time>
      </trkpt>
      <trkpt lat="37.533259" lon="-5.084135">
        <ele>152.979046</ele>
        <time>2020-08-14T05:44:15.236Z</time>
      </trkpt>
      <trkpt lat="37.533322" lon="-5.084242">
        <ele>153.387713</ele>
        <time>2020-08-14T05:44:18.251Z</time>
      </trkpt>
      <trkpt lat="37.533400" lon="-5.084302">
        <ele>153.741023</ele>
        <time>2020-08-14T05:44:21.232Z</time>
      </trkpt>
      <trkpt lat="37.533485" lon="-5.084349">
        <ele>154.099923</ele>
        <time>2020-08-14T05:44:25.257Z</time>
      </trkpt>
      <trkpt lat="37.533571" lon="-5.084429">
        <ele>154.513173</ele>
        <time>2020-08-14T05:44:29.249Z</time>
      </trkpt>
      <trkpt lat="37.533664" lon="-5.084484">
        <ele>154.910383</ele>
        <time>2020-08-14T05:44:33.232Z</time>
      </trkpt>
      <trkpt lat="37.533749" lon="-5.084525">
        <ele>155.262299</ele>
        <time>2020-08-14T05:44:37.245Z</time>
      </trkpt>
      <trkpt lat="37.533842" lon="-5.084569">
        <ele>155.646402</ele>
        <time>2020-08-14T05:44:41.245Z</time>
      </trkpt>
      <trkpt lat="37.533930" lon="-5.084643">
        <ele>156.055414</ele>
        <time>2020-08-14T05:44:47.245Z</time>
      </trkpt>
      <trkpt lat="37.534003" lon="-5.084744">
        <ele>156.474470</ele>
        <time>2020-08-14T05:44:52.245Z</time>
      </trkpt>
      <trkpt lat="37.534079" lon="-5.084807">
        <ele>156.826167</ele>
        <time>2020-08-14T05:44:56.234Z</time>
      </trkpt>
      <trkpt lat="37.534177" lon="-5.084846">
        <ele>157.223551</ele>
        <time>2020-08-14T05:45:00.262Z</time>
      </trkpt>
      <trkpt lat="37.534280" lon="-5.084847">
        <ele>157.621858</ele>
        <time>2020-08-14T05:45:04.244Z</time>
      </trkpt>
      <trkpt lat="37.534374" lon="-5.084925">
        <ele>158.056985</ele>
        <time>2020-08-14T05:45:10.243Z</time>
      </trkpt>
      <trkpt lat="37.534459" lon="-5.085010">
        <ele>158.476479</ele>
        <time>2020-08-14T05:45:15.235Z</time>
      </trkpt>
      <trkpt lat="37.534542" lon="-5.085070">
        <ele>158.846430</ele>
        <time>2020-08-14T05:45:19.256Z</time>
      </trkpt>
      <trkpt lat="37.534634" lon="-5.085083">
        <ele>159.204416</ele>
        <time>2020-08-14T05:45:24.250Z</time>
      </trkpt>
      <trkpt lat="37.534715" lon="-5.085144">
        <ele>159.569241</ele>
        <time>2020-08-14T05:45:28.233Z</time>
      </trkpt>
      <trkpt lat="37.534802" lon="-5.085182">
        <ele>159.818603</ele>
        <time>2020-08-14T05:45:32.251Z</time>
      </trkpt>
      <trkpt lat="37.534900" lon="-5.085247">
        <ele>160.018766</ele>
        <time>2020-08-14T05:45:36.246Z</time>
      </trkpt>
      <trkpt lat="37.534982" lon="-5.085305">
        <ele>160.188722</ele>
        <time>2020-08-14T05:45:39.250Z</time>
      </trkpt>
      <trkpt lat="37.535074" lon="-5.085355">
        <ele>160.369816</ele>
        <time>2020-08-14T05:45:42.263Z</time>
      </trkpt>
      <trkpt lat="37.535173" lon="-5.085448">
        <ele>160.592974</ele>
        <time>2020-08-14T05:45:46.255Z</time>
      </trkpt>
      <trkpt lat="37.535281" lon="-5.085496">
        <ele>160.799975</ele>
        <time>2020-08-14T05:45:49.259Z</time>
      </trkpt>
      <trkpt lat="37.535410" lon="-5.085552">
        <ele>161.046597</ele>
        <time>2020-08-14T05:45:52.253Z</time>
      </trkpt>
      <trkpt lat="37.535521" lon="-5.085625">
        <ele>161.272898</ele>
        <time>2020-08-14T05:45:55.252Z</time>
      </trkpt>
      <trkpt lat="37.535637" lon="-5.085689">
        <ele>161.501781</ele>
        <time>2020-08-14T05:45:58.252Z</time>
      </trkpt>
      <trkpt lat="37.535733" lon="-5.085720">
        <ele>161.680918</ele>
        <time>2020-08-14T05:46:03.246Z</time>
      </trkpt>
      <trkpt lat="37.535822" lon="-5.085765">
        <ele>161.854252</ele>
        <time>2020-08-14T05:46:11.239Z</time>
      </trkpt>
      <trkpt lat="37.535838" lon="-5.085882">
        <ele>162.024442</ele>
        <time>2020-08-14T05:46:20.249Z</time>
      </trkpt>
      <trkpt lat="37.535773" lon="-5.085966">
        <ele>162.192682</ele>
        <time>2020-08-14T05:46:23.246Z</time>
      </trkpt>
      <trkpt lat="37.535695" lon="-5.086040">
        <ele>162.369128</ele>
        <time>2020-08-14T05:46:26.252Z</time>
      </trkpt>
      <trkpt lat="37.535636" lon="-5.086136">
        <ele>162.543231</ele>
        <time>2020-08-14T05:46:30.248Z</time>
      </trkpt>
      <trkpt lat="37.535595" lon="-5.086263">
        <ele>162.739788</ele>
        <time>2020-08-14T05:46:37.278Z</time>
      </trkpt>
      <trkpt lat="37.535590" lon="-5.086398">
        <ele>162.933516</ele>
        <time>2020-08-14T05:46:41.245Z</time>
      </trkpt>
      <trkpt lat="37.535670" lon="-5.086633">
        <ele>163.942088</ele>
        <time>2020-08-14T05:46:45.260Z</time>
      </trkpt>
      <trkpt lat="37.535733" lon="-5.086741">
        <ele>164.515380</ele>
        <time>2020-08-14T05:46:48.259Z</time>
      </trkpt>
      <trkpt lat="37.535787" lon="-5.086834">
        <ele>165.008251</ele>
        <time>2020-08-14T05:46:51.253Z</time>
      </trkpt>
      <trkpt lat="37.535875" lon="-5.086907">
        <ele>165.576231</ele>
        <time>2020-08-14T05:46:54.277Z</time>
      </trkpt>
      <trkpt lat="37.535962" lon="-5.087017">
        <ele>166.240543</ele>
        <time>2020-08-14T05:46:57.258Z</time>
      </trkpt>
      <trkpt lat="37.536065" lon="-5.087146">
        <ele>167.023311</ele>
        <time>2020-08-14T05:47:00.260Z</time>
      </trkpt>
      <trkpt lat="37.536126" lon="-5.087248">
        <ele>167.569584</ele>
        <time>2020-08-14T05:47:02.247Z</time>
      </trkpt>
      <trkpt lat="37.536201" lon="-5.087379">
        <ele>168.260464</ele>
        <time>2020-08-14T05:47:05.258Z</time>
      </trkpt>
      <trkpt lat="37.536261" lon="-5.087534">
        <ele>168.997981</ele>
        <time>2020-08-14T05:47:08.245Z</time>
      </trkpt>
      <trkpt lat="37.536319" lon="-5.087622">
        <ele>169.487266</ele>
        <time>2020-08-14T05:47:10.252Z</time>
      </trkpt>
      <trkpt lat="37.536354" lon="-5.087768">
        <ele>170.139450</ele>
        <time>2020-08-14T05:47:13.248Z</time>
      </trkpt>
      <trkpt lat="37.536375" lon="-5.087932">
        <ele>170.849779</ele>
        <time>2020-08-14T05:47:16.249Z</time>
      </trkpt>
      <trkpt lat="37.536454" lon="-5.087995">
        <ele>171.353796</ele>
        <time>2020-08-14T05:47:19.240Z</time>
      </trkpt>
      <trkpt lat="37.536541" lon="-5.088072">
        <ele>171.926929</ele>
        <time>2020-08-14T05:47:22.260Z</time>
      </trkpt>
      <trkpt lat="37.536610" lon="-5.088183">
        <ele>172.530004</ele>
        <time>2020-08-14T05:47:24.254Z</time>
      </trkpt>
      <trkpt lat="37.536642" lon="-5.088317">
        <ele>172.512178</ele>
        <time>2020-08-14T05:47:26.250Z</time>
      </trkpt>
      <trkpt lat="37.536676" lon="-5.088440">
        <ele>172.311955</ele>
        <time>2020-08-14T05:47:28.235Z</time>
      </trkpt>
      <trkpt lat="37.536754" lon="-5.088535">
        <ele>172.101755</ele>
        <time>2020-08-14T05:47:31.255Z</time>
      </trkpt>
      <trkpt lat="37.536819" lon="-5.088657">
        <ele>171.875830</ele>
        <time>2020-08-14T05:47:34.255Z</time>
      </trkpt>
      <trkpt lat="37.536848" lon="-5.088786">
        <ele>171.669728</ele>
        <time>2020-08-14T05:47:38.243Z</time>
      </trkpt>
      <trkpt lat="37.536756" lon="-5.088891">
        <ele>171.429202</ele>
        <time>2020-08-14T05:47:41.261Z</time>
      </trkpt>
      <trkpt lat="37.536662" lon="-5.088940">
        <ele>171.232036</ele>
        <time>2020-08-14T05:47:43.239Z</time>
      </trkpt>
      <trkpt lat="37.536577" lon="-5.088979">
        <ele>171.056702</ele>
        <time>2020-08-14T05:47:44.255Z</time>
      </trkpt>
      <trkpt lat="37.536472" lon="-5.089050">
        <ele>170.825753</ele>
        <time>2020-08-14T05:47:47.249Z</time>
      </trkpt>
      <trkpt lat="37.536400" lon="-5.089118">
        <ele>170.651384</ele>
        <time>2020-08-14T05:47:49.255Z</time>
      </trkpt>
      <trkpt lat="37.536377" lon="-5.089232">
        <ele>170.470570</ele>
        <time>2020-08-14T05:47:52.229Z</time>
      </trkpt>
      <trkpt lat="37.536492" lon="-5.089255">
        <ele>170.244864</ele>
        <time>2020-08-14T05:47:56.225Z</time>
      </trkpt>
      <trkpt lat="37.536597" lon="-5.089282">
        <ele>170.037139</ele>
        <time>2020-08-14T05:47:58.231Z</time>
      </trkpt>
      <trkpt lat="37.536683" lon="-5.089340">
        <ele>169.848092</ele>
        <time>2020-08-14T05:48:00.254Z</time>
      </trkpt>
      <trkpt lat="37.536787" lon="-5.089359">
        <ele>169.644390</ele>
        <time>2020-08-14T05:48:02.257Z</time>
      </trkpt>
      <trkpt lat="37.536896" lon="-5.089394">
        <ele>169.426358</ele>
        <time>2020-08-14T05:48:04.267Z</time>
      </trkpt>
      <trkpt lat="37.537000" lon="-5.089437">
        <ele>169.214202</ele>
        <time>2020-08-14T05:48:06.254Z</time>
      </trkpt>
      <trkpt lat="37.537116" lon="-5.089474">
        <ele>169.207275</ele>
        <time>2020-08-14T05:48:08.265Z</time>
      </trkpt>
      <trkpt lat="37.537227" lon="-5.089517">
        <ele>169.227693</ele>
        <time>2020-08-14T05:48:10.253Z</time>
      </trkpt>
      <trkpt lat="37.537341" lon="-5.089599">
        <ele>169.250771</ele>
        <time>2020-08-14T05:48:12.256Z</time>
      </trkpt>
      <trkpt lat="37.537432" lon="-5.089624">
        <ele>169.267148</ele>
        <time>2020-08-14T05:48:15.268Z</time>
      </trkpt>
      <trkpt lat="37.537541" lon="-5.089783">
        <ele>169.296454</ele>
        <time>2020-08-14T05:48:18.249Z</time>
      </trkpt>
      <trkpt lat="37.537630" lon="-5.090032">
        <ele>169.334538</ele>
        <time>2020-08-14T05:48:19.264Z</time>
      </trkpt>
      <trkpt lat="37.537650" lon="-5.090228">
        <ele>169.362093</ele>
        <time>2020-08-14T05:48:21.234Z</time>
      </trkpt>
      <trkpt lat="37.537682" lon="-5.090391">
        <ele>169.385507</ele>
        <time>2020-08-14T05:48:23.242Z</time>
      </trkpt>
      <trkpt lat="37.537666" lon="-5.090588">
        <ele>169.413119</ele>
        <time>2020-08-14T05:48:25.235Z</time>
      </trkpt>
      <trkpt lat="37.537736" lon="-5.090717">
        <ele>169.434914</ele>
        <time>2020-08-14T05:48:28.262Z</time>
      </trkpt>
      <trkpt lat="37.537767" lon="-5.090856">
        <ele>169.455048</ele>
        <time>2020-08-14T05:48:30.271Z</time>
      </trkpt>
      <trkpt lat="37.537773" lon="-5.090981">
        <ele>169.472509</ele>
        <time>2020-08-14T05:48:32.246Z</time>
      </trkpt>
      <trkpt lat="37.537764" lon="-5.091102">
        <ele>169.489455</ele>
        <time>2020-08-14T05:48:34.248Z</time>
      </trkpt>
      <trkpt lat="37.537742" lon="-5.091259">
        <ele>169.625212</ele>
        <time>2020-08-14T05:48:37.266Z</time>
      </trkpt>
      <trkpt lat="37.537770" lon="-5.091383">
        <ele>169.941268</ele>
        <time>2020-08-14T05:48:40.256Z</time>
      </trkpt>
      <trkpt lat="37.537758" lon="-5.091521">
        <ele>170.281587</ele>
        <time>2020-08-14T05:48:43.278Z</time>
      </trkpt>
      <trkpt lat="37.537722" lon="-5.091662">
        <ele>170.644708</ele>
        <time>2020-08-14T05:48:46.232Z</time>
      </trkpt>
      <trkpt lat="37.537715" lon="-5.091810">
        <ele>171.008158</ele>
        <time>2020-08-14T05:48:49.242Z</time>
      </trkpt>
      <trkpt lat="37.537787" lon="-5.091898">
        <ele>171.318126</ele>
        <time>2020-08-14T05:48:52.247Z</time>
      </trkpt>
      <trkpt lat="37.537876" lon="-5.091937">
        <ele>171.609403</ele>
        <time>2020-08-14T05:48:54.245Z</time>
      </trkpt>
      <trkpt lat="37.537960" lon="-5.092007">
        <ele>171.920660</ele>
        <time>2020-08-14T05:48:57.225Z</time>
      </trkpt>
      <trkpt lat="37.538018" lon="-5.092118">
        <ele>172.246528</ele>
        <time>2020-08-14T05:49:00.243Z</time>
      </trkpt>
      <trkpt lat="37.538016" lon="-5.092255">
        <ele>172.582423</ele>
        <time>2020-08-14T05:49:03.236Z</time>
      </trkpt>
      <trkpt lat="37.537988" lon="-5.092370">
        <ele>172.877322</ele>
        <time>2020-08-14T05:49:06.256Z</time>
      </trkpt>
      <trkpt lat="37.537949" lon="-5.092478">
        <ele>173.168231</ele>
        <time>2020-08-14T05:49:22.254Z</time>
      </trkpt>
      <trkpt lat="37.537921" lon="-5.092592">
        <ele>173.460788</ele>
        <time>2020-08-14T05:49:31.251Z</time>
      </trkpt>
      <trkpt lat="37.537858" lon="-5.092691">
        <ele>173.771961</ele>
        <time>2020-08-14T05:49:38.246Z</time>
      </trkpt>
      <trkpt lat="37.537788" lon="-5.092770">
        <ele>174.062364</ele>
        <time>2020-08-14T05:49:43.309Z</time>
      </trkpt>
      <trkpt lat="37.537742" lon="-5.092880">
        <ele>174.367217</ele>
        <time>2020-08-14T05:49:48.251Z</time>
      </trkpt>
      <trkpt lat="37.537703" lon="-5.093016">
        <ele>174.721737</ele>
        <time>2020-08-14T05:49:53.254Z</time>
      </trkpt>
      <trkpt lat="37.537643" lon="-5.093135">
        <ele>175.062518</ele>
        <time>2020-08-14T05:49:56.249Z</time>
      </trkpt>
      <trkpt lat="37.537600" lon="-5.093248">
        <ele>174.666969</ele>
        <time>2020-08-14T05:49:59.251Z</time>
      </trkpt>
      <trkpt lat="37.537581" lon="-5.093383">
        <ele>174.234269</ele>
        <time>2020-08-14T05:50:03.251Z</time>
      </trkpt>
      <trkpt lat="37.537558" lon="-5.093503">
        <ele>173.844660</ele>
        <time>2020-08-14T05:50:06.245Z</time>
      </trkpt>
      <trkpt lat="37.537527" lon="-5.093650">
        <ele>173.364623</ele>
        <time>2020-08-14T05:50:10.246Z</time>
      </trkpt>
      <trkpt lat="37.537489" lon="-5.093782">
        <ele>172.921446</ele>
        <time>2020-08-14T05:50:13.249Z</time>
      </trkpt>
      <trkpt lat="37.537413" lon="-5.093921">
        <ele>172.388609</ele>
        <time>2020-08-14T05:50:15.246Z</time>
      </trkpt>
      <trkpt lat="37.537373" lon="-5.094041">
        <ele>171.977805</ele>
        <time>2020-08-14T05:50:18.252Z</time>
      </trkpt>
      <trkpt lat="37.537320" lon="-5.094146">
        <ele>171.584999</ele>
        <time>2020-08-14T05:50:22.264Z</time>
      </trkpt>
      <trkpt lat="37.537246" lon="-5.094324">
        <ele>170.950732</ele>
        <time>2020-08-14T05:50:25.266Z</time>
      </trkpt>
      <trkpt lat="37.537184" lon="-5.094412">
        <ele>170.579230</ele>
        <time>2020-08-14T05:50:27.256Z</time>
      </trkpt>
      <trkpt lat="37.537137" lon="-5.094534">
        <ele>170.151180</ele>
        <time>2020-08-14T05:50:30.264Z</time>
      </trkpt>
      <trkpt lat="37.537080" lon="-5.094635">
        <ele>169.759951</ele>
        <time>2020-08-14T05:50:32.248Z</time>
      </trkpt>
      <trkpt lat="37.537036" lon="-5.094734">
        <ele>169.401790</ele>
        <time>2020-08-14T05:50:34.253Z</time>
      </trkpt>
      <trkpt lat="37.536982" lon="-5.094830">
        <ele>169.030340</ele>
        <time>2020-08-14T05:50:36.249Z</time>
      </trkpt>
      <trkpt lat="37.536920" lon="-5.094946">
        <ele>168.588861</ele>
        <time>2020-08-14T05:50:39.256Z</time>
      </trkpt>
      <trkpt lat="37.536848" lon="-5.095050">
        <ele>168.153160</ele>
        <time>2020-08-14T05:50:42.251Z</time>
      </trkpt>
      <trkpt lat="37.536792" lon="-5.095149">
        <ele>167.813206</ele>
        <time>2020-08-14T05:50:45.252Z</time>
      </trkpt>
      <trkpt lat="37.536725" lon="-5.095232">
        <ele>167.558539</ele>
        <time>2020-08-14T05:50:48.250Z</time>
      </trkpt>
      <trkpt lat="37.536639" lon="-5.095321">
        <ele>167.256877</ele>
        <time>2020-08-14T05:50:52.255Z</time>
      </trkpt>
      <trkpt lat="37.536587" lon="-5.095430">
        <ele>166.983362</ele>
        <time>2020-08-14T05:50:58.253Z</time>
      </trkpt>
      <trkpt lat="37.536522" lon="-5.095542">
        <ele>166.684935</ele>
        <time>2020-08-14T05:51:03.247Z</time>
      </trkpt>
      <trkpt lat="37.536455" lon="-5.095654">
        <ele>166.383273</ele>
        <time>2020-08-14T05:51:06.271Z</time>
      </trkpt>
      <trkpt lat="37.536372" lon="-5.095774">
        <ele>166.040889</ele>
        <time>2020-08-14T05:51:09.253Z</time>
      </trkpt>
      <trkpt lat="37.536293" lon="-5.095882">
        <ele>165.724956</ele>
        <time>2020-08-14T05:51:12.266Z</time>
      </trkpt>
      <trkpt lat="37.536220" lon="-5.095998">
        <ele>165.406534</ele>
        <time>2020-08-14T05:51:15.253Z</time>
      </trkpt>
      <trkpt lat="37.536149" lon="-5.096104">
        <ele>165.108185</ele>
        <time>2020-08-14T05:51:18.259Z</time>
      </trkpt>
      <trkpt lat="37.536061" lon="-5.096226">
        <ele>164.753570</ele>
        <time>2020-08-14T05:51:21.265Z</time>
      </trkpt>
      <trkpt lat="37.536004" lon="-5.096336">
        <ele>164.471027</ele>
        <time>2020-08-14T05:51:24.262Z</time>
      </trkpt>
      <trkpt lat="37.535948" lon="-5.096436">
        <ele>164.207795</ele>
        <time>2020-08-14T05:51:28.262Z</time>
      </trkpt>
      <trkpt lat="37.535885" lon="-5.096529">
        <ele>163.944794</ele>
        <time>2020-08-14T05:51:32.274Z</time>
      </trkpt>
      <trkpt lat="37.535837" lon="-5.096627">
        <ele>163.697119</ele>
        <time>2020-08-14T05:51:36.302Z</time>
      </trkpt>
      <trkpt lat="37.535786" lon="-5.096732">
        <ele>163.432362</ele>
        <time>2020-08-14T05:51:41.262Z</time>
      </trkpt>
      <trkpt lat="37.535717" lon="-5.096824">
        <ele>163.160079</ele>
        <time>2020-08-14T05:51:46.269Z</time>
      </trkpt>
      <trkpt lat="37.535391" lon="-5.097073">
        <ele>163.700369</ele>
        <time>2020-08-14T05:51:58.275Z</time>
      </trkpt>
      <trkpt lat="37.535293" lon="-5.097195">
        <ele>163.977624</ele>
        <time>2020-08-14T05:52:01.279Z</time>
      </trkpt>
      <trkpt lat="37.535234" lon="-5.097327">
        <ele>164.219543</ele>
        <time>2020-08-14T05:52:03.262Z</time>
      </trkpt>
      <trkpt lat="37.535134" lon="-5.097531">
        <ele>164.602448</ele>
        <time>2020-08-14T05:52:04.273Z</time>
      </trkpt>
      <trkpt lat="37.535071" lon="-5.097746">
        <ele>164.968395</ele>
        <time>2020-08-14T05:52:05.241Z</time>
      </trkpt>
      <trkpt lat="37.535018" lon="-5.097857">
        <ele>165.175261</ele>
        <time>2020-08-14T05:52:08.253Z</time>
      </trkpt>
      <trkpt lat="37.534966" lon="-5.097960">
        <ele>165.370206</ele>
        <time>2020-08-14T05:52:11.252Z</time>
      </trkpt>
      <trkpt lat="37.534937" lon="-5.098068">
        <ele>165.552253</ele>
        <time>2020-08-14T05:52:15.267Z</time>
      </trkpt>
      <trkpt lat="37.534892" lon="-5.098170">
        <ele>165.738610</ele>
        <time>2020-08-14T05:52:18.259Z</time>
      </trkpt>
      <trkpt lat="37.534843" lon="-5.098303">
        <ele>165.972752</ele>
        <time>2020-08-14T05:52:23.290Z</time>
      </trkpt>
      <trkpt lat="37.534785" lon="-5.098432">
        <ele>166.209512</ele>
        <time>2020-08-14T05:52:26.282Z</time>
      </trkpt>
      <trkpt lat="37.534739" lon="-5.098541">
        <ele>166.406648</ele>
        <time>2020-08-14T05:52:28.284Z</time>
      </trkpt>
      <trkpt lat="37.534684" lon="-5.098655">
        <ele>166.619696</ele>
        <time>2020-08-14T05:52:30.271Z</time>
      </trkpt>
      <trkpt lat="37.534657" lon="-5.098774">
        <ele>166.566350</ele>
        <time>2020-08-14T05:52:32.256Z</time>
      </trkpt>
      <trkpt lat="37.534622" lon="-5.098910">
        <ele>166.449945</ele>
        <time>2020-08-14T05:52:36.276Z</time>
      </trkpt>
      <trkpt lat="37.534554" lon="-5.099127">
        <ele>166.259987</ele>
        <time>2020-08-14T05:52:40.259Z</time>
      </trkpt>
      <trkpt lat="37.534490" lon="-5.099248">
        <ele>166.141576</ele>
        <time>2020-08-14T05:52:43.246Z</time>
      </trkpt>
      <trkpt lat="37.534467" lon="-5.099405">
        <ele>166.011596</ele>
        <time>2020-08-14T05:52:46.256Z</time>
      </trkpt>
      <trkpt lat="37.534439" lon="-5.099533">
        <ele>165.903497</ele>
        <time>2020-08-14T05:52:49.260Z</time>
      </trkpt>
      <trkpt lat="37.534401" lon="-5.099686">
        <ele>165.772969</ele>
        <time>2020-08-14T05:52:51.278Z</time>
      </trkpt>
      <trkpt lat="37.534361" lon="-5.099832">
        <ele>165.647214</ele>
        <time>2020-08-14T05:52:53.276Z</time>
      </trkpt>
      <trkpt lat="37.534334" lon="-5.099980">
        <ele>165.523576</ele>
        <time>2020-08-14T05:52:55.274Z</time>
      </trkpt>
      <trkpt lat="37.534277" lon="-5.100136">
        <ele>165.383739</ele>
        <time>2020-08-14T05:52:57.275Z</time>
      </trkpt>
      <trkpt lat="37.534251" lon="-5.100291">
        <ele>165.254758</ele>
        <time>2020-08-14T05:53:00.275Z</time>
      </trkpt>
      <trkpt lat="37.534222" lon="-5.100436">
        <ele>165.133013</ele>
        <time>2020-08-14T05:53:03.284Z</time>
      </trkpt>
      <trkpt lat="37.534177" lon="-5.100553">
        <ele>165.027148</ele>
        <time>2020-08-14T05:53:05.283Z</time>
      </trkpt>
      <trkpt lat="37.534169" lon="-5.100682">
        <ele>164.921806</ele>
        <time>2020-08-14T05:53:08.279Z</time>
      </trkpt>
      <trkpt lat="37.534145" lon="-5.100801">
        <ele>164.821841</ele>
        <time>2020-08-14T05:53:11.283Z</time>
      </trkpt>
      <trkpt lat="37.534106" lon="-5.100905">
        <ele>165.215513</ele>
        <time>2020-08-14T05:53:14.285Z</time>
      </trkpt>
      <trkpt lat="37.534088" lon="-5.101032">
        <ele>165.780957</ele>
        <time>2020-08-14T05:53:17.283Z</time>
      </trkpt>
      <trkpt lat="37.534067" lon="-5.101143">
        <ele>166.281109</ele>
        <time>2020-08-14T05:53:21.279Z</time>
      </trkpt>
      <trkpt lat="37.534019" lon="-5.101274">
        <ele>166.913593</ele>
        <time>2020-08-14T05:53:25.285Z</time>
      </trkpt>
      <trkpt lat="37.533966" lon="-5.101395">
        <ele>167.519444</ele>
        <time>2020-08-14T05:53:28.280Z</time>
      </trkpt>
      <trkpt lat="37.533929" lon="-5.101509">
        <ele>168.059321</ele>
        <time>2020-08-14T05:53:31.274Z</time>
      </trkpt>
      <trkpt lat="37.533940" lon="-5.101644">
        <ele>168.654125</ele>
        <time>2020-08-14T05:53:35.275Z</time>
      </trkpt>
      <trkpt lat="37.533927" lon="-5.101768">
        <ele>169.202330</ele>
        <time>2020-08-14T05:53:39.288Z</time>
      </trkpt>
      <trkpt lat="37.533899" lon="-5.101888">
        <ele>169.750570</ele>
        <time>2020-08-14T05:53:42.262Z</time>
      </trkpt>
      <trkpt lat="37.533836" lon="-5.102015">
        <ele>170.407134</ele>
        <time>2020-08-14T05:53:44.243Z</time>
      </trkpt>
      <trkpt lat="37.533808" lon="-5.102125">
        <ele>170.913479</ele>
        <time>2020-08-14T05:53:47.259Z</time>
      </trkpt>
      <trkpt lat="37.533772" lon="-5.102270">
        <ele>171.579417</ele>
        <time>2020-08-14T05:53:50.261Z</time>
      </trkpt>
      <trkpt lat="37.533774" lon="-5.102436">
        <ele>172.307059</ele>
        <time>2020-08-14T05:53:53.268Z</time>
      </trkpt>
      <trkpt lat="37.533746" lon="-5.102587">
        <ele>172.986727</ele>
        <time>2020-08-14T05:53:56.258Z</time>
      </trkpt>
      <trkpt lat="37.533715" lon="-5.102709">
        <ele>173.548219</ele>
        <time>2020-08-14T05:53:59.270Z</time>
      </trkpt>
      <trkpt lat="37.533681" lon="-5.102850">
        <ele>174.194146</ele>
        <time>2020-08-14T05:54:02.260Z</time>
      </trkpt>
      <trkpt lat="37.533652" lon="-5.102990">
        <ele>174.699874</ele>
        <time>2020-08-14T05:54:04.266Z</time>
      </trkpt>
      <trkpt lat="37.533624" lon="-5.103141">
        <ele>174.323876</ele>
        <time>2020-08-14T05:54:07.259Z</time>
      </trkpt>
      <trkpt lat="37.533582" lon="-5.103258">
        <ele>174.012481</ele>
        <time>2020-08-14T05:54:10.263Z</time>
      </trkpt>
      <trkpt lat="37.533542" lon="-5.103375">
        <ele>173.703556</ele>
        <time>2020-08-14T05:54:12.253Z</time>
      </trkpt>
      <trkpt lat="37.533503" lon="-5.103498">
        <ele>173.382369</ele>
        <time>2020-08-14T05:54:15.254Z</time>
      </trkpt>
      <trkpt lat="37.533465" lon="-5.103623">
        <ele>173.057781</ele>
        <time>2020-08-14T05:54:18.247Z</time>
      </trkpt>
      <trkpt lat="37.533439" lon="-5.103749">
        <ele>172.742101</ele>
        <time>2020-08-14T05:54:22.270Z</time>
      </trkpt>
      <trkpt lat="37.533424" lon="-5.103891">
        <ele>172.394760</ele>
        <time>2020-08-14T05:54:25.249Z</time>
      </trkpt>
      <trkpt lat="37.533408" lon="-5.104018">
        <ele>172.082968</ele>
        <time>2020-08-14T05:54:28.256Z</time>
      </trkpt>
      <trkpt lat="37.533406" lon="-5.104159">
        <ele>171.741038</ele>
        <time>2020-08-14T05:54:33.269Z</time>
      </trkpt>
      <trkpt lat="37.533390" lon="-5.104315">
        <ele>171.359642</ele>
        <time>2020-08-14T05:54:36.265Z</time>
      </trkpt>
      <trkpt lat="37.533381" lon="-5.104436">
        <ele>171.064972</ele>
        <time>2020-08-14T05:54:38.255Z</time>
      </trkpt>
      <trkpt lat="37.533368" lon="-5.104553">
        <ele>170.778516</ele>
        <time>2020-08-14T05:54:40.270Z</time>
      </trkpt>
      <trkpt lat="37.533339" lon="-5.104662">
        <ele>170.499751</ele>
        <time>2020-08-14T05:54:42.251Z</time>
      </trkpt>
      <trkpt lat="37.533325" lon="-5.104809">
        <ele>170.140767</ele>
        <time>2020-08-14T05:54:46.272Z</time>
      </trkpt>
      <trkpt lat="37.533288" lon="-5.104932">
        <ele>169.821798</ele>
        <time>2020-08-14T05:54:49.270Z</time>
      </trkpt>
      <trkpt lat="37.533255" lon="-5.105062">
        <ele>169.490837</ele>
        <time>2020-08-14T05:54:52.265Z</time>
      </trkpt>
      <trkpt lat="37.533235" lon="-5.105209">
        <ele>169.361263</ele>
        <time>2020-08-14T05:54:55.261Z</time>
      </trkpt>
      <trkpt lat="37.533208" lon="-5.105362">
        <ele>169.735366</ele>
        <time>2020-08-14T05:54:59.275Z</time>
      </trkpt>
      <trkpt lat="37.533187" lon="-5.105518">
        <ele>170.113023</ele>
        <time>2020-08-14T05:55:02.273Z</time>
      </trkpt>
      <trkpt lat="37.533163" lon="-5.105650">
        <ele>170.436246</ele>
        <time>2020-08-14T05:55:05.254Z</time>
      </trkpt>
      <trkpt lat="37.533147" lon="-5.105795">
        <ele>170.785657</ele>
        <time>2020-08-14T05:55:08.274Z</time>
      </trkpt>
      <trkpt lat="37.533123" lon="-5.105918">
        <ele>171.087982</ele>
        <time>2020-08-14T05:55:11.250Z</time>
      </trkpt>
      <trkpt lat="37.533120" lon="-5.106035">
        <ele>171.367376</ele>
        <time>2020-08-14T05:55:14.261Z</time>
      </trkpt>
      <trkpt lat="37.533108" lon="-5.106154">
        <ele>171.653684</ele>
        <time>2020-08-14T05:55:22.261Z</time>
      </trkpt>
      <trkpt lat="37.533064" lon="-5.106537">
        <ele>172.577347</ele>
        <time>2020-08-14T05:55:26.266Z</time>
      </trkpt>
      <trkpt lat="37.533053" lon="-5.106668">
        <ele>172.891757</ele>
        <time>2020-08-14T05:55:28.246Z</time>
      </trkpt>
      <trkpt lat="37.533040" lon="-5.106820">
        <ele>173.256645</ele>
        <time>2020-08-14T05:55:31.262Z</time>
      </trkpt>
      <trkpt lat="37.533020" lon="-5.106981">
        <ele>173.645596</ele>
        <time>2020-08-14T05:55:34.270Z</time>
      </trkpt>
      <trkpt lat="37.533004" lon="-5.107118">
        <ele>173.976106</ele>
        <time>2020-08-14T05:55:37.266Z</time>
      </trkpt>
      <trkpt lat="37.532972" lon="-5.107261">
        <ele>174.330739</ele>
        <time>2020-08-14T05:55:40.281Z</time>
      </trkpt>
      <trkpt lat="37.532951" lon="-5.107402">
        <ele>174.685982</ele>
        <time>2020-08-14T05:55:43.283Z</time>
      </trkpt>
      <trkpt lat="37.532959" lon="-5.107527">
        <ele>175.268913</ele>
        <time>2020-08-14T05:55:46.250Z</time>
      </trkpt>
      <trkpt lat="37.532957" lon="-5.107652">
        <ele>175.850073</ele>
        <time>2020-08-14T05:55:51.251Z</time>
      </trkpt>
      <trkpt lat="37.532951" lon="-5.107773">
        <ele>176.413620</ele>
        <time>2020-08-14T05:55:55.279Z</time>
      </trkpt>
      <trkpt lat="37.532939" lon="-5.107886">
        <ele>176.943571</ele>
        <time>2020-08-14T05:55:58.264Z</time>
      </trkpt>
      <trkpt lat="37.532932" lon="-5.108023">
        <ele>177.581713</ele>
        <time>2020-08-14T05:56:02.273Z</time>
      </trkpt>
      <trkpt lat="37.532926" lon="-5.108156">
        <ele>178.200942</ele>
        <time>2020-08-14T05:56:06.272Z</time>
      </trkpt>
      <trkpt lat="37.532921" lon="-5.108291">
        <ele>178.829151</ele>
        <time>2020-08-14T05:56:10.276Z</time>
      </trkpt>
      <trkpt lat="37.532921" lon="-5.108419">
        <ele>179.424138</ele>
        <time>2020-08-14T05:56:15.272Z</time>
      </trkpt>
      <trkpt lat="37.532917" lon="-5.108539">
        <ele>179.982431</ele>
        <time>2020-08-14T05:56:18.276Z</time>
      </trkpt>
      <trkpt lat="37.532910" lon="-5.108700">
        <ele>180.731937</ele>
        <time>2020-08-14T05:56:21.260Z</time>
      </trkpt>
      <trkpt lat="37.532921" lon="-5.108841">
        <ele>181.390517</ele>
        <time>2020-08-14T05:56:24.259Z</time>
      </trkpt>
      <trkpt lat="37.532951" lon="-5.108989">
        <ele>182.100590</ele>
        <time>2020-08-14T05:56:27.266Z</time>
      </trkpt>
      <trkpt lat="37.532975" lon="-5.109126">
        <ele>182.752765</ele>
        <time>2020-08-14T05:56:30.248Z</time>
      </trkpt>
      <trkpt lat="37.532996" lon="-5.109246">
        <ele>183.323986</ele>
        <time>2020-08-14T05:56:32.273Z</time>
      </trkpt>
      <trkpt lat="37.533029" lon="-5.109418">
        <ele>184.146566</ele>
        <time>2020-08-14T05:56:34.285Z</time>
      </trkpt>
      <trkpt lat="37.533040" lon="-5.109532">
        <ele>184.680384</ele>
        <time>2020-08-14T05:56:37.264Z</time>
      </trkpt>
      <trkpt lat="37.533050" lon="-5.109657">
        <ele>185.234482</ele>
        <time>2020-08-14T05:56:44.249Z</time>
      </trkpt>
      <trkpt lat="37.533098" lon="-5.109774">
        <ele>185.550066</ele>
        <time>2020-08-14T05:56:48.251Z</time>
      </trkpt>
      <trkpt lat="37.533113" lon="-5.109895">
        <ele>185.843463</ele>
        <time>2020-08-14T05:56:51.254Z</time>
      </trkpt>
      <trkpt lat="37.533155" lon="-5.110007">
        <ele>186.140267</ele>
        <time>2020-08-14T05:56:54.249Z</time>
      </trkpt>
      <trkpt lat="37.533215" lon="-5.110124">
        <ele>186.474065</ele>
        <time>2020-08-14T05:56:57.253Z</time>
      </trkpt>
      <trkpt lat="37.533267" lon="-5.110242">
        <ele>186.797471</ele>
        <time>2020-08-14T05:56:59.254Z</time>
      </trkpt>
      <trkpt lat="37.533307" lon="-5.110356">
        <ele>187.096118</ele>
        <time>2020-08-14T05:57:01.253Z</time>
      </trkpt>
      <trkpt lat="37.533345" lon="-5.110529">
        <ele>187.526174</ele>
        <time>2020-08-14T05:57:04.236Z</time>
      </trkpt>
      <trkpt lat="37.533398" lon="-5.110660">
        <ele>187.878492</ele>
        <time>2020-08-14T05:57:06.257Z</time>
      </trkpt>
      <trkpt lat="37.533425" lon="-5.110770">
        <ele>188.154350</ele>
        <time>2020-08-14T05:57:08.261Z</time>
      </trkpt>
      <trkpt lat="37.533486" lon="-5.110920">
        <ele>188.558197</ele>
        <time>2020-08-14T05:57:11.254Z</time>
      </trkpt>
      <trkpt lat="37.533537" lon="-5.111049">
        <ele>188.903515</ele>
        <time>2020-08-14T05:57:14.248Z</time>
      </trkpt>
      <trkpt lat="37.533589" lon="-5.111171">
        <ele>189.235329</ele>
        <time>2020-08-14T05:57:17.261Z</time>
      </trkpt>
      <trkpt lat="37.533646" lon="-5.111271">
        <ele>189.530362</ele>
        <time>2020-08-14T05:57:20.266Z</time>
      </trkpt>
      <trkpt lat="37.533698" lon="-5.111373">
        <ele>189.820860</ele>
        <time>2020-08-14T05:57:23.248Z</time>
      </trkpt>
      <trkpt lat="37.533777" lon="-5.111483">
        <ele>190.176392</ele>
        <time>2020-08-14T05:57:27.255Z</time>
      </trkpt>
      <trkpt lat="37.533853" lon="-5.111579">
        <ele>190.501365</ele>
        <time>2020-08-14T05:57:32.274Z</time>
      </trkpt>
      <trkpt lat="37.533920" lon="-5.111669">
        <ele>190.763012</ele>
        <time>2020-08-14T05:57:35.282Z</time>
      </trkpt>
      <trkpt lat="37.534000" lon="-5.111804">
        <ele>191.081096</ele>
        <time>2020-08-14T05:57:38.273Z</time>
      </trkpt>
      <trkpt lat="37.534048" lon="-5.111910">
        <ele>191.311482</ele>
        <time>2020-08-14T05:57:40.245Z</time>
      </trkpt>
      <trkpt lat="37.534095" lon="-5.112012">
        <ele>191.534138</ele>
        <time>2020-08-14T05:57:42.279Z</time>
      </trkpt>
      <trkpt lat="37.534162" lon="-5.112122">
        <ele>191.795926</ele>
        <time>2020-08-14T05:57:45.286Z</time>
      </trkpt>
      <trkpt lat="37.534233" lon="-5.112253">
        <ele>192.095406</ele>
        <time>2020-08-14T05:57:48.266Z</time>
      </trkpt>
      <trkpt lat="37.534270" lon="-5.112357">
        <ele>192.310545</ele>
        <time>2020-08-14T05:57:50.243Z</time>
      </trkpt>
      <trkpt lat="37.534333" lon="-5.112494">
        <ele>192.609449</ele>
        <time>2020-08-14T05:57:55.245Z</time>
      </trkpt>
      <trkpt lat="37.534385" lon="-5.112592">
        <ele>192.832001</ele>
        <time>2020-08-14T05:57:58.255Z</time>
      </trkpt>
      <trkpt lat="37.534507" lon="-5.112804">
        <ele>193.326387</ele>
        <time>2020-08-14T05:58:04.263Z</time>
      </trkpt>
      <trkpt lat="37.534549" lon="-5.112929">
        <ele>193.582615</ele>
        <time>2020-08-14T05:58:07.243Z</time>
      </trkpt>
      <trkpt lat="37.534618" lon="-5.113002">
        <ele>193.796982</ele>
        <time>2020-08-14T05:58:11.262Z</time>
      </trkpt>
      <trkpt lat="37.534676" lon="-5.113098">
        <ele>194.024767</ele>
        <time>2020-08-14T05:58:15.263Z</time>
      </trkpt>
      <trkpt lat="37.534767" lon="-5.113227">
        <ele>194.350635</ele>
        <time>2020-08-14T05:58:16.237Z</time>
      </trkpt>
      <trkpt lat="37.534820" lon="-5.113343">
        <ele>194.603312</ele>
        <time>2020-08-14T05:58:19.260Z</time>
      </trkpt>
      <trkpt lat="37.534904" lon="-5.113438">
        <ele>194.871864</ele>
        <time>2020-08-14T05:58:24.265Z</time>
      </trkpt>
      <trkpt lat="37.534952" lon="-5.113557">
        <ele>195.111674</ele>
        <time>2020-08-14T05:58:27.249Z</time>
      </trkpt>
      <trkpt lat="37.535025" lon="-5.113683">
        <ele>195.388826</ele>
        <time>2020-08-14T05:58:30.252Z</time>
      </trkpt>
      <trkpt lat="37.535078" lon="-5.113805">
        <ele>195.635894</ele>
        <time>2020-08-14T05:58:33.258Z</time>
      </trkpt>
      <trkpt lat="37.535143" lon="-5.113916">
        <ele>195.880967</ele>
        <time>2020-08-14T05:58:37.243Z</time>
      </trkpt>
      <trkpt lat="37.535198" lon="-5.114015">
        <ele>196.095657</ele>
        <time>2020-08-14T05:58:41.282Z</time>
      </trkpt>
      <trkpt lat="37.535273" lon="-5.114123">
        <ele>196.350631</ele>
        <time>2020-08-14T05:58:44.271Z</time>
      </trkpt>
      <trkpt lat="37.535348" lon="-5.114226">
        <ele>196.598992</ele>
        <time>2020-08-14T05:58:47.272Z</time>
      </trkpt>
      <trkpt lat="37.535313" lon="-5.114118">
        <ele>196.806209</ele>
        <time>2020-08-14T05:58:52.259Z</time>
      </trkpt>
      <trkpt lat="37.535269" lon="-5.114005">
        <ele>197.029796</ele>
        <time>2020-08-14T05:58:56.265Z</time>
      </trkpt>
      <trkpt lat="37.535581" lon="-5.114735">
        <ele>198.502660</ele>
        <time>2020-08-14T05:59:00.254Z</time>
      </trkpt>
      <trkpt lat="37.535627" lon="-5.114849">
        <ele>198.729837</ele>
        <time>2020-08-14T05:59:03.243Z</time>
      </trkpt>
      <trkpt lat="37.535693" lon="-5.114949">
        <ele>198.950453</ele>
        <time>2020-08-14T05:59:08.271Z</time>
      </trkpt>
      <trkpt lat="37.535777" lon="-5.115137">
        <ele>199.066453</ele>
        <time>2020-08-14T05:59:11.271Z</time>
      </trkpt>
      <trkpt lat="37.535846" lon="-5.115243">
        <ele>199.140175</ele>
        <time>2020-08-14T05:59:14.265Z</time>
      </trkpt>
      <trkpt lat="37.535903" lon="-5.115360">
        <ele>199.213991</ele>
        <time>2020-08-14T05:59:17.273Z</time>
      </trkpt>
      <trkpt lat="37.536018" lon="-5.115587">
        <ele>199.358795</ele>
        <time>2020-08-14T05:59:24.273Z</time>
      </trkpt>
      <trkpt lat="37.536066" lon="-5.115683">
        <ele>199.419803</ele>
        <time>2020-08-14T05:59:27.260Z</time>
      </trkpt>
      <trkpt lat="37.536112" lon="-5.115802">
        <ele>199.490969</ele>
        <time>2020-08-14T05:59:33.284Z</time>
      </trkpt>
      <trkpt lat="37.536184" lon="-5.115966">
        <ele>199.591738</ele>
        <time>2020-08-14T05:59:35.281Z</time>
      </trkpt>
      <trkpt lat="37.536218" lon="-5.116077">
        <ele>199.655704</ele>
        <time>2020-08-14T05:59:38.261Z</time>
      </trkpt>
      <trkpt lat="37.536263" lon="-5.116189">
        <ele>199.723198</ele>
        <time>2020-08-14T05:59:42.275Z</time>
      </trkpt>
      <trkpt lat="37.536382" lon="-5.116360">
        <ele>199.845500</ele>
        <time>2020-08-14T05:59:46.279Z</time>
      </trkpt>
      <trkpt lat="37.536440" lon="-5.116466">
        <ele>199.914730</ele>
        <time>2020-08-14T05:59:48.267Z</time>
      </trkpt>
      <trkpt lat="37.536496" lon="-5.116576">
        <ele>199.984998</ele>
        <time>2020-08-14T05:59:51.261Z</time>
      </trkpt>
      <trkpt lat="37.536550" lon="-5.116708">
        <ele>200.064842</ele>
        <time>2020-08-14T05:59:54.275Z</time>
      </trkpt>
      <trkpt lat="37.536601" lon="-5.116804">
        <ele>200.126959</ele>
        <time>2020-08-14T05:59:57.285Z</time>
      </trkpt>
      <trkpt lat="37.536729" lon="-5.117115">
        <ele>200.205235</ele>
        <time>2020-08-14T06:00:03.268Z</time>
      </trkpt>
      <trkpt lat="37.536808" lon="-5.117238">
        <ele>200.227916</ele>
        <time>2020-08-14T06:00:06.247Z</time>
      </trkpt>
      <trkpt lat="37.536891" lon="-5.117374">
        <ele>200.252507</ele>
        <time>2020-08-14T06:00:09.262Z</time>
      </trkpt>
      <trkpt lat="37.536944" lon="-5.117514">
        <ele>200.274736</ele>
        <time>2020-08-14T06:00:12.248Z</time>
      </trkpt>
      <trkpt lat="37.536981" lon="-5.117624">
        <ele>200.291858</ele>
        <time>2020-08-14T06:00:14.261Z</time>
      </trkpt>
      <trkpt lat="37.537028" lon="-5.117772">
        <ele>200.314702</ele>
        <time>2020-08-14T06:00:17.247Z</time>
      </trkpt>
      <trkpt lat="37.537077" lon="-5.117918">
        <ele>200.337419</ele>
        <time>2020-08-14T06:00:20.250Z</time>
      </trkpt>
      <trkpt lat="37.537125" lon="-5.118057">
        <ele>200.359143</ele>
        <time>2020-08-14T06:00:23.243Z</time>
      </trkpt>
      <trkpt lat="37.537200" lon="-5.118145">
        <ele>200.377655</ele>
        <time>2020-08-14T06:00:25.235Z</time>
      </trkpt>
      <trkpt lat="37.537239" lon="-5.118277">
        <ele>200.397840</ele>
        <time>2020-08-14T06:00:27.265Z</time>
      </trkpt>
      <trkpt lat="37.537270" lon="-5.118441">
        <ele>200.421998</ele>
        <time>2020-08-14T06:00:30.245Z</time>
      </trkpt>
      <trkpt lat="37.537296" lon="-5.118551">
        <ele>200.438445</ele>
        <time>2020-08-14T06:00:32.259Z</time>
      </trkpt>
      <trkpt lat="37.537316" lon="-5.118662">
        <ele>200.454756</ele>
        <time>2020-08-14T06:00:34.262Z</time>
      </trkpt>
      <trkpt lat="37.537359" lon="-5.118766">
        <ele>200.471562</ele>
        <time>2020-08-14T06:00:36.249Z</time>
      </trkpt>
      <trkpt lat="37.537378" lon="-5.118923">
        <ele>200.518038</ele>
        <time>2020-08-14T06:00:39.255Z</time>
      </trkpt>
      <trkpt lat="37.537396" lon="-5.119086">
        <ele>200.679020</ele>
        <time>2020-08-14T06:00:42.252Z</time>
      </trkpt>
      <trkpt lat="37.537432" lon="-5.119226">
        <ele>200.822986</ele>
        <time>2020-08-14T06:00:45.255Z</time>
      </trkpt>
      <trkpt lat="37.537438" lon="-5.119360">
        <ele>200.954272</ele>
        <time>2020-08-14T06:00:48.255Z</time>
      </trkpt>
      <trkpt lat="37.537462" lon="-5.119494">
        <ele>201.088650</ele>
        <time>2020-08-14T06:00:51.258Z</time>
      </trkpt>
      <trkpt lat="37.537493" lon="-5.119603">
        <ele>201.201922</ele>
        <time>2020-08-14T06:00:53.248Z</time>
      </trkpt>
      <trkpt lat="37.537503" lon="-5.119749">
        <ele>201.345268</ele>
        <time>2020-08-14T06:00:56.266Z</time>
      </trkpt>
      <trkpt lat="37.537498" lon="-5.119903">
        <ele>201.496034</ele>
        <time>2020-08-14T06:00:59.257Z</time>
      </trkpt>
      <trkpt lat="37.537506" lon="-5.120059">
        <ele>201.648949</ele>
        <time>2020-08-14T06:01:02.276Z</time>
      </trkpt>
      <trkpt lat="37.537513" lon="-5.120173">
        <ele>201.760796</ele>
        <time>2020-08-14T06:01:04.234Z</time>
      </trkpt>
      <trkpt lat="37.537517" lon="-5.120333">
        <ele>201.917382</ele>
        <time>2020-08-14T06:01:07.258Z</time>
      </trkpt>
      <trkpt lat="37.537516" lon="-5.120484">
        <ele>202.065093</ele>
        <time>2020-08-14T06:01:10.272Z</time>
      </trkpt>
      <trkpt lat="37.537512" lon="-5.120625">
        <ele>202.203104</ele>
        <time>2020-08-14T06:01:13.265Z</time>
      </trkpt>
      <trkpt lat="37.537511" lon="-5.120761">
        <ele>202.336143</ele>
        <time>2020-08-14T06:01:16.258Z</time>
      </trkpt>
      <trkpt lat="37.537533" lon="-5.120888">
        <ele>202.463301</ele>
        <time>2020-08-14T06:01:19.261Z</time>
      </trkpt>
      <trkpt lat="37.537539" lon="-5.121021">
        <ele>202.593610</ele>
        <time>2020-08-14T06:01:22.253Z</time>
      </trkpt>
      <trkpt lat="37.537531" lon="-5.121134">
        <ele>202.704584</ele>
        <time>2020-08-14T06:01:24.255Z</time>
      </trkpt>
      <trkpt lat="37.537521" lon="-5.121277">
        <ele>202.939267</ele>
        <time>2020-08-14T06:01:27.248Z</time>
      </trkpt>
      <trkpt lat="37.537521" lon="-5.121412">
        <ele>203.162866</ele>
        <time>2020-08-14T06:01:30.251Z</time>
      </trkpt>
      <trkpt lat="37.537528" lon="-5.121547">
        <ele>203.386943</ele>
        <time>2020-08-14T06:01:33.252Z</time>
      </trkpt>
      <trkpt lat="37.537531" lon="-5.121667">
        <ele>203.585797</ele>
        <time>2020-08-14T06:01:36.255Z</time>
      </trkpt>
      <trkpt lat="37.537529" lon="-5.121806">
        <ele>203.816059</ele>
        <time>2020-08-14T06:01:39.258Z</time>
      </trkpt>
      <trkpt lat="37.537531" lon="-5.121953">
        <ele>204.059570</ele>
        <time>2020-08-14T06:01:42.246Z</time>
      </trkpt>
      <trkpt lat="37.537543" lon="-5.122088">
        <ele>204.284570</ele>
        <time>2020-08-14T06:01:45.283Z</time>
      </trkpt>
      <trkpt lat="37.537545" lon="-5.122254">
        <ele>204.559546</ele>
        <time>2020-08-14T06:01:48.273Z</time>
      </trkpt>
      <trkpt lat="37.537543" lon="-5.122398">
        <ele>204.798088</ele>
        <time>2020-08-14T06:01:51.258Z</time>
      </trkpt>
      <trkpt lat="37.537548" lon="-5.122546">
        <ele>205.043442</ele>
        <time>2020-08-14T06:01:54.253Z</time>
      </trkpt>
      <trkpt lat="37.537541" lon="-5.122696">
        <ele>205.292315</ele>
        <time>2020-08-14T06:01:57.254Z</time>
      </trkpt>
      <trkpt lat="37.537539" lon="-5.122842">
        <ele>205.534170</ele>
        <time>2020-08-14T06:02:00.258Z</time>
      </trkpt>
      <trkpt lat="37.537527" lon="-5.122982">
        <ele>205.767401</ele>
        <time>2020-08-14T06:02:03.250Z</time>
      </trkpt>
      <trkpt lat="37.537501" lon="-5.123120">
        <ele>206.002333</ele>
        <time>2020-08-14T06:02:06.269Z</time>
      </trkpt>
      <trkpt lat="37.537492" lon="-5.123252">
        <ele>206.221770</ele>
        <time>2020-08-14T06:02:09.249Z</time>
      </trkpt>
      <trkpt lat="37.537494" lon="-5.123382">
        <ele>206.437129</ele>
        <time>2020-08-14T06:02:12.248Z</time>
      </trkpt>
      <trkpt lat="37.537492" lon="-5.123506">
        <ele>206.786680</ele>
        <time>2020-08-14T06:02:15.257Z</time>
      </trkpt>
      <trkpt lat="37.537500" lon="-5.123620">
        <ele>207.130953</ele>
        <time>2020-08-14T06:02:18.253Z</time>
      </trkpt>
      <trkpt lat="37.537519" lon="-5.123738">
        <ele>207.493162</ele>
        <time>2020-08-14T06:02:21.271Z</time>
      </trkpt>
      <trkpt lat="37.537534" lon="-5.123857">
        <ele>207.855630</ele>
        <time>2020-08-14T06:02:24.239Z</time>
      </trkpt>
      <trkpt lat="37.537532" lon="-5.123986">
        <ele>208.243759</ele>
        <time>2020-08-14T06:02:27.252Z</time>
      </trkpt>
      <trkpt lat="37.537536" lon="-5.124116">
        <ele>208.635117</ele>
        <time>2020-08-14T06:02:30.250Z</time>
      </trkpt>
      <trkpt lat="37.537543" lon="-5.124260">
        <ele>209.069108</ele>
        <time>2020-08-14T06:02:33.267Z</time>
      </trkpt>
      <trkpt lat="37.537530" lon="-5.124420">
        <ele>209.552936</ele>
        <time>2020-08-14T06:02:36.262Z</time>
      </trkpt>
      <trkpt lat="37.537522" lon="-5.124572">
        <ele>210.011186</ele>
        <time>2020-08-14T06:02:39.259Z</time>
      </trkpt>
      <trkpt lat="37.537534" lon="-5.124715">
        <ele>210.443757</ele>
        <time>2020-08-14T06:02:42.265Z</time>
      </trkpt>
      <trkpt lat="37.537529" lon="-5.124860">
        <ele>210.880356</ele>
        <time>2020-08-14T06:02:45.268Z</time>
      </trkpt>
      <trkpt lat="37.537500" lon="-5.125009">
        <ele>211.341878</ele>
        <time>2020-08-14T06:02:48.277Z</time>
      </trkpt>
      <trkpt lat="37.537489" lon="-5.125123">
        <ele>211.687341</ele>
        <time>2020-08-14T06:02:51.257Z</time>
      </trkpt>
      <trkpt lat="37.537479" lon="-5.125244">
        <ele>212.053302</ele>
        <time>2020-08-14T06:02:55.288Z</time>
      </trkpt>
      <trkpt lat="37.537455" lon="-5.125389">
        <ele>212.498890</ele>
        <time>2020-08-14T06:02:57.263Z</time>
      </trkpt>
      <trkpt lat="37.537436" lon="-5.125525">
        <ele>212.914303</ele>
        <time>2020-08-14T06:03:00.251Z</time>
      </trkpt>
      <trkpt lat="37.537411" lon="-5.125650">
        <ele>213.304839</ele>
        <time>2020-08-14T06:03:03.250Z</time>
      </trkpt>
      <trkpt lat="37.537389" lon="-5.125784">
        <ele>213.804924</ele>
        <time>2020-08-14T06:03:06.282Z</time>
      </trkpt>
      <trkpt lat="37.537342" lon="-5.125949">
        <ele>214.445637</ele>
        <time>2020-08-14T06:03:09.256Z</time>
      </trkpt>
      <trkpt lat="37.537305" lon="-5.126079">
        <ele>214.950395</ele>
        <time>2020-08-14T06:03:12.286Z</time>
      </trkpt>
      <trkpt lat="37.537266" lon="-5.126192">
        <ele>215.400770</ele>
        <time>2020-08-14T06:03:15.259Z</time>
      </trkpt>
      <trkpt lat="37.537230" lon="-5.126326">
        <ele>215.917813</ele>
        <time>2020-08-14T06:03:17.275Z</time>
      </trkpt>
      <trkpt lat="37.537183" lon="-5.126462">
        <ele>216.459973</ele>
        <time>2020-08-14T06:03:20.253Z</time>
      </trkpt>
      <trkpt lat="37.537141" lon="-5.126606">
        <ele>217.020688</ele>
        <time>2020-08-14T06:03:23.269Z</time>
      </trkpt>
      <trkpt lat="37.537106" lon="-5.126714">
        <ele>217.447061</ele>
        <time>2020-08-14T06:03:26.267Z</time>
      </trkpt>
      <trkpt lat="37.537065" lon="-5.126819">
        <ele>217.874783</ele>
        <time>2020-08-14T06:03:28.266Z</time>
      </trkpt>
      <trkpt lat="37.537016" lon="-5.126937">
        <ele>218.361564</ele>
        <time>2020-08-14T06:03:31.274Z</time>
      </trkpt>
      <trkpt lat="37.536953" lon="-5.127084">
        <ele>218.972216</ele>
        <time>2020-08-14T06:03:34.247Z</time>
      </trkpt>
      <trkpt lat="37.536914" lon="-5.127191">
        <ele>219.402577</ele>
        <time>2020-08-14T06:03:36.273Z</time>
      </trkpt>
      <trkpt lat="37.536849" lon="-5.127318">
        <ele>219.954978</ele>
        <time>2020-08-14T06:03:39.246Z</time>
      </trkpt>
      <trkpt lat="37.536791" lon="-5.127445">
        <ele>220.490571</ele>
        <time>2020-08-14T06:03:42.264Z</time>
      </trkpt>
      <trkpt lat="37.536742" lon="-5.127565">
        <ele>220.983840</ele>
        <time>2020-08-14T06:03:45.266Z</time>
      </trkpt>
      <trkpt lat="37.536688" lon="-5.127695">
        <ele>221.520162</ele>
        <time>2020-08-14T06:03:48.276Z</time>
      </trkpt>
      <trkpt lat="37.536631" lon="-5.127823">
        <ele>221.633429</ele>
        <time>2020-08-14T06:03:50.273Z</time>
      </trkpt>
      <trkpt lat="37.536567" lon="-5.127971">
        <ele>221.703956</ele>
        <time>2020-08-14T06:03:53.261Z</time>
      </trkpt>
      <trkpt lat="37.536509" lon="-5.128097">
        <ele>221.764908</ele>
        <time>2020-08-14T06:03:56.284Z</time>
      </trkpt>
      <trkpt lat="37.536455" lon="-5.128241">
        <ele>221.831550</ele>
        <time>2020-08-14T06:03:59.255Z</time>
      </trkpt>
      <trkpt lat="37.536406" lon="-5.128369">
        <ele>221.891014</ele>
        <time>2020-08-14T06:04:01.263Z</time>
      </trkpt>
      <trkpt lat="37.536348" lon="-5.128521">
        <ele>221.961586</ele>
        <time>2020-08-14T06:04:04.246Z</time>
      </trkpt>
      <trkpt lat="37.536307" lon="-5.128624">
        <ele>222.009802</ele>
        <time>2020-08-14T06:04:06.266Z</time>
      </trkpt>
      <trkpt lat="37.536267" lon="-5.128735">
        <ele>222.060811</ele>
        <time>2020-08-14T06:04:09.292Z</time>
      </trkpt>
      <trkpt lat="37.536218" lon="-5.128863">
        <ele>222.120276</ele>
        <time>2020-08-14T06:04:11.274Z</time>
      </trkpt>
      <trkpt lat="37.536157" lon="-5.128962">
        <ele>222.172728</ele>
        <time>2020-08-14T06:04:13.265Z</time>
      </trkpt>
      <trkpt lat="37.536110" lon="-5.129066">
        <ele>222.222809</ele>
        <time>2020-08-14T06:04:15.266Z</time>
      </trkpt>
      <trkpt lat="37.536061" lon="-5.129176">
        <ele>222.275593</ele>
        <time>2020-08-14T06:04:17.270Z</time>
      </trkpt>
      <trkpt lat="37.536002" lon="-5.129328">
        <ele>222.346395</ele>
        <time>2020-08-14T06:04:20.261Z</time>
      </trkpt>
      <trkpt lat="37.535953" lon="-5.129434">
        <ele>222.397727</ele>
        <time>2020-08-14T06:04:22.272Z</time>
      </trkpt>
      <trkpt lat="37.535905" lon="-5.129567">
        <ele>222.458862</ele>
        <time>2020-08-14T06:04:25.273Z</time>
      </trkpt>
      <trkpt lat="37.535854" lon="-5.129687">
        <ele>222.515823</ele>
        <time>2020-08-14T06:04:27.266Z</time>
      </trkpt>
      <trkpt lat="37.535805" lon="-5.129790">
        <ele>222.529685</ele>
        <time>2020-08-14T06:04:29.271Z</time>
      </trkpt>
      <trkpt lat="37.535768" lon="-5.129899">
        <ele>222.532283</ele>
        <time>2020-08-14T06:04:31.248Z</time>
      </trkpt>
      <trkpt lat="37.535726" lon="-5.130060">
        <ele>222.535997</ele>
        <time>2020-08-14T06:04:34.275Z</time>
      </trkpt>
      <trkpt lat="37.535657" lon="-5.130205">
        <ele>222.539702</ele>
        <time>2020-08-14T06:04:37.250Z</time>
      </trkpt>
      <trkpt lat="37.535612" lon="-5.130316">
        <ele>222.542434</ele>
        <time>2020-08-14T06:04:40.261Z</time>
      </trkpt>
      <trkpt lat="37.535554" lon="-5.130462">
        <ele>222.546012</ele>
        <time>2020-08-14T06:04:43.279Z</time>
      </trkpt>
      <trkpt lat="37.535484" lon="-5.130605">
        <ele>222.549694</ele>
        <time>2020-08-14T06:04:45.246Z</time>
      </trkpt>
      <trkpt lat="37.535433" lon="-5.130749">
        <ele>222.553150</ele>
        <time>2020-08-14T06:04:48.263Z</time>
      </trkpt>
      <trkpt lat="37.535393" lon="-5.130851">
        <ele>222.555644</ele>
        <time>2020-08-14T06:04:52.269Z</time>
      </trkpt>
      <trkpt lat="37.535350" lon="-5.130961">
        <ele>222.558331</ele>
        <time>2020-08-14T06:04:54.238Z</time>
      </trkpt>
      <trkpt lat="37.535262" lon="-5.131161">
        <ele>222.563343</ele>
        <time>2020-08-14T06:04:56.265Z</time>
      </trkpt>
      <trkpt lat="37.535216" lon="-5.131266">
        <ele>222.565971</ele>
        <time>2020-08-14T06:04:58.265Z</time>
      </trkpt>
      <trkpt lat="37.535165" lon="-5.131376">
        <ele>222.568764</ele>
        <time>2020-08-14T06:05:00.251Z</time>
      </trkpt>
      <trkpt lat="37.535102" lon="-5.131519">
        <ele>222.572348</ele>
        <time>2020-08-14T06:05:03.236Z</time>
      </trkpt>
      <trkpt lat="37.535051" lon="-5.131637">
        <ele>222.575293</ele>
        <time>2020-08-14T06:05:05.269Z</time>
      </trkpt>
      <trkpt lat="37.535017" lon="-5.131741">
        <ele>222.588582</ele>
        <time>2020-08-14T06:05:07.242Z</time>
      </trkpt>
      <trkpt lat="37.534967" lon="-5.131850">
        <ele>222.669408</ele>
        <time>2020-08-14T06:05:09.232Z</time>
      </trkpt>
      <trkpt lat="37.534920" lon="-5.131960">
        <ele>222.749611</ele>
        <time>2020-08-14T06:05:11.228Z</time>
      </trkpt>
      <trkpt lat="37.534891" lon="-5.132073">
        <ele>222.825846</ele>
        <time>2020-08-14T06:05:13.244Z</time>
      </trkpt>
      <trkpt lat="37.534847" lon="-5.132178">
        <ele>222.902074</ele>
        <time>2020-08-14T06:05:15.232Z</time>
      </trkpt>
      <trkpt lat="37.534810" lon="-5.132284">
        <ele>222.976412</ele>
        <time>2020-08-14T06:05:17.226Z</time>
      </trkpt>
      <trkpt lat="37.534754" lon="-5.132427">
        <ele>223.078782</ele>
        <time>2020-08-14T06:05:21.271Z</time>
      </trkpt>
      <trkpt lat="37.534693" lon="-5.132555">
        <ele>223.174636</ele>
        <time>2020-08-14T06:05:23.258Z</time>
      </trkpt>
      <trkpt lat="37.534632" lon="-5.132674">
        <ele>223.265588</ele>
        <time>2020-08-14T06:05:25.261Z</time>
      </trkpt>
      <trkpt lat="37.534570" lon="-5.132768">
        <ele>223.344067</ele>
        <time>2020-08-14T06:05:27.257Z</time>
      </trkpt>
      <trkpt lat="37.534530" lon="-5.132872">
        <ele>223.418260</ele>
        <time>2020-08-14T06:05:31.268Z</time>
      </trkpt>
      <trkpt lat="37.534476" lon="-5.133040">
        <ele>223.534616</ele>
        <time>2020-08-14T06:05:33.261Z</time>
      </trkpt>
      <trkpt lat="37.534410" lon="-5.133175">
        <ele>223.636413</ele>
        <time>2020-08-14T06:05:35.233Z</time>
      </trkpt>
      <trkpt lat="37.534368" lon="-5.133284">
        <ele>223.714200</ele>
        <time>2020-08-14T06:05:37.238Z</time>
      </trkpt>
      <trkpt lat="37.534328" lon="-5.133388">
        <ele>223.788392</ele>
        <time>2020-08-14T06:05:39.268Z</time>
      </trkpt>
      <trkpt lat="37.534282" lon="-5.133494">
        <ele>223.865953</ele>
        <time>2020-08-14T06:05:41.252Z</time>
      </trkpt>
      <trkpt lat="37.534241" lon="-5.133599">
        <ele>223.941077</ele>
        <time>2020-08-14T06:05:43.233Z</time>
      </trkpt>
      <trkpt lat="37.534205" lon="-5.133717">
        <ele>224.022230</ele>
        <time>2020-08-14T06:05:45.253Z</time>
      </trkpt>
      <trkpt lat="37.534168" lon="-5.133828">
        <ele>224.098036</ele>
        <time>2020-08-14T06:05:47.256Z</time>
      </trkpt>
      <trkpt lat="37.534126" lon="-5.133942">
        <ele>224.176918</ele>
        <time>2020-08-14T06:05:49.251Z</time>
      </trkpt>
      <trkpt lat="37.534079" lon="-5.134046">
        <ele>224.252035</ele>
        <time>2020-08-14T06:05:51.253Z</time>
      </trkpt>
      <trkpt lat="37.534015" lon="-5.134185">
        <ele>224.352898</ele>
        <time>2020-08-14T06:05:54.241Z</time>
      </trkpt>
      <trkpt lat="37.533951" lon="-5.134323">
        <ele>224.453220</ele>
        <time>2020-08-14T06:05:57.240Z</time>
      </trkpt>
      <trkpt lat="37.533905" lon="-5.134438">
        <ele>224.534046</ele>
        <time>2020-08-14T06:06:01.246Z</time>
      </trkpt>
      <trkpt lat="37.533845" lon="-5.134578">
        <ele>224.633910</ele>
        <time>2020-08-14T06:06:03.240Z</time>
      </trkpt>
      <trkpt lat="37.533778" lon="-5.134724">
        <ele>224.739765</ele>
        <time>2020-08-14T06:06:05.238Z</time>
      </trkpt>
      <trkpt lat="37.533727" lon="-5.134820">
        <ele>224.812277</ele>
        <time>2020-08-14T06:06:07.240Z</time>
      </trkpt>
      <trkpt lat="37.533677" lon="-5.134946">
        <ele>224.900693</ele>
        <time>2020-08-14T06:06:09.251Z</time>
      </trkpt>
      <trkpt lat="37.533631" lon="-5.135083">
        <ele>224.994054</ele>
        <time>2020-08-14T06:06:11.251Z</time>
      </trkpt>
      <trkpt lat="37.533585" lon="-5.135216">
        <ele>225.085108</ele>
        <time>2020-08-14T06:06:13.240Z</time>
      </trkpt>
      <trkpt lat="37.533539" lon="-5.135357">
        <ele>225.180785</ele>
        <time>2020-08-14T06:06:15.237Z</time>
      </trkpt>
      <trkpt lat="37.533494" lon="-5.135498">
        <ele>225.276164</ele>
        <time>2020-08-14T06:06:17.233Z</time>
      </trkpt>
      <trkpt lat="37.533441" lon="-5.135638">
        <ele>225.373517</ele>
        <time>2020-08-14T06:06:19.255Z</time>
      </trkpt>
      <trkpt lat="37.533386" lon="-5.135775">
        <ele>225.442633</ele>
        <time>2020-08-14T06:06:21.239Z</time>
      </trkpt>
      <trkpt lat="37.533319" lon="-5.135923">
        <ele>225.330076</ele>
        <time>2020-08-14T06:06:23.241Z</time>
      </trkpt>
      <trkpt lat="37.533260" lon="-5.136058">
        <ele>225.228268</ele>
        <time>2020-08-14T06:06:25.248Z</time>
      </trkpt>
      <trkpt lat="37.533225" lon="-5.136181">
        <ele>225.141958</ele>
        <time>2020-08-14T06:06:27.232Z</time>
      </trkpt>
      <trkpt lat="37.533179" lon="-5.136308">
        <ele>225.049742</ele>
        <time>2020-08-14T06:06:29.258Z</time>
      </trkpt>
      <trkpt lat="37.533119" lon="-5.136435">
        <ele>224.952104</ele>
        <time>2020-08-14T06:06:31.230Z</time>
      </trkpt>
      <trkpt lat="37.533094" lon="-5.136574">
        <ele>224.857966</ele>
        <time>2020-08-14T06:06:33.228Z</time>
      </trkpt>
      <trkpt lat="37.533057" lon="-5.136711">
        <ele>224.762377</ele>
        <time>2020-08-14T06:06:35.253Z</time>
      </trkpt>
      <trkpt lat="37.533026" lon="-5.136832">
        <ele>224.678392</ele>
        <time>2020-08-14T06:06:37.244Z</time>
      </trkpt>
      <trkpt lat="37.532983" lon="-5.136948">
        <ele>224.593819</ele>
        <time>2020-08-14T06:06:39.244Z</time>
      </trkpt>
      <trkpt lat="37.532918" lon="-5.137063">
        <ele>224.500545</ele>
        <time>2020-08-14T06:06:41.236Z</time>
      </trkpt>
      <trkpt lat="37.532853" lon="-5.137161">
        <ele>224.416163</ele>
        <time>2020-08-14T06:06:43.238Z</time>
      </trkpt>
      <trkpt lat="37.532805" lon="-5.137271">
        <ele>224.333237</ele>
        <time>2020-08-14T06:06:45.242Z</time>
      </trkpt>
      <trkpt lat="37.532748" lon="-5.137392">
        <ele>224.240282</ele>
        <time>2020-08-14T06:06:47.228Z</time>
      </trkpt>
      <trkpt lat="37.532694" lon="-5.137505">
        <ele>224.153144</ele>
        <time>2020-08-14T06:06:49.228Z</time>
      </trkpt>
      <trkpt lat="37.532653" lon="-5.137609">
        <ele>224.076434</ele>
        <time>2020-08-14T06:06:51.255Z</time>
      </trkpt>
      <trkpt lat="37.532614" lon="-5.137727">
        <ele>223.991999</ele>
        <time>2020-08-14T06:06:53.249Z</time>
      </trkpt>
      <trkpt lat="37.532563" lon="-5.137831">
        <ele>223.928332</ele>
        <time>2020-08-14T06:06:55.255Z</time>
      </trkpt>
      <trkpt lat="37.532501" lon="-5.137931">
        <ele>223.874789</ele>
        <time>2020-08-14T06:06:57.255Z</time>
      </trkpt>
      <trkpt lat="37.532451" lon="-5.138047">
        <ele>223.819097</ele>
        <time>2020-08-14T06:06:59.240Z</time>
      </trkpt>
      <trkpt lat="37.532403" lon="-5.138160">
        <ele>223.765024</ele>
        <time>2020-08-14T06:07:01.248Z</time>
      </trkpt>
      <trkpt lat="37.532360" lon="-5.138269">
        <ele>223.713670</ele>
        <time>2020-08-14T06:07:03.262Z</time>
      </trkpt>
      <trkpt lat="37.532335" lon="-5.138379">
        <ele>223.665402</ele>
        <time>2020-08-14T06:07:05.242Z</time>
      </trkpt>
      <trkpt lat="37.532278" lon="-5.138501">
        <ele>223.605673</ele>
        <time>2020-08-14T06:07:07.243Z</time>
      </trkpt>
      <trkpt lat="37.532233" lon="-5.138632">
        <ele>223.545453</ele>
        <time>2020-08-14T06:07:09.244Z</time>
      </trkpt>
      <trkpt lat="37.532190" lon="-5.138752">
        <ele>223.489906</ele>
        <time>2020-08-14T06:07:11.243Z</time>
      </trkpt>
      <trkpt lat="37.532134" lon="-5.138865">
        <ele>223.433698</ele>
        <time>2020-08-14T06:07:13.261Z</time>
      </trkpt>
      <trkpt lat="37.532073" lon="-5.138971">
        <ele>223.378453</ele>
        <time>2020-08-14T06:07:15.248Z</time>
      </trkpt>
      <trkpt lat="37.532025" lon="-5.139081">
        <ele>223.325492</ele>
        <time>2020-08-14T06:07:17.232Z</time>
      </trkpt>
      <trkpt lat="37.531987" lon="-5.139209">
        <ele>223.267839</ele>
        <time>2020-08-14T06:07:19.245Z</time>
      </trkpt>
      <trkpt lat="37.531947" lon="-5.139326">
        <ele>223.214095</ele>
        <time>2020-08-14T06:07:21.263Z</time>
      </trkpt>
      <trkpt lat="37.531884" lon="-5.139439">
        <ele>223.155828</ele>
        <time>2020-08-14T06:07:23.239Z</time>
      </trkpt>
      <trkpt lat="37.531839" lon="-5.139586">
        <ele>223.089360</ele>
        <time>2020-08-14T06:07:26.270Z</time>
      </trkpt>
      <trkpt lat="37.531792" lon="-5.139704">
        <ele>223.033660</ele>
        <time>2020-08-14T06:07:28.247Z</time>
      </trkpt>
      <trkpt lat="37.531754" lon="-5.139810">
        <ele>223.024636</ele>
        <time>2020-08-14T06:07:30.235Z</time>
      </trkpt>
      <trkpt lat="37.531706" lon="-5.139924">
        <ele>223.096812</ele>
        <time>2020-08-14T06:07:32.261Z</time>
      </trkpt>
      <trkpt lat="37.531632" lon="-5.140051">
        <ele>223.184937</ele>
        <time>2020-08-14T06:07:34.234Z</time>
      </trkpt>
      <trkpt lat="37.531576" lon="-5.140167">
        <ele>223.260877</ele>
        <time>2020-08-14T06:07:36.244Z</time>
      </trkpt>
      <trkpt lat="37.531519" lon="-5.140290">
        <ele>223.340540</ele>
        <time>2020-08-14T06:07:38.248Z</time>
      </trkpt>
      <trkpt lat="37.531519" lon="-5.140290">
        <ele>223.340540</ele>
        <time>2020-08-14T06:07:38.482Z</time>
      </trkpt>
      <trkpt lat="37.531267" lon="-5.140895">
        <ele>223.722676</ele>
        <time>2020-08-14T06:07:49.237Z</time>
      </trkpt>
      <trkpt lat="37.531212" lon="-5.141003">
        <ele>223.794449</ele>
        <time>2020-08-14T06:07:51.236Z</time>
      </trkpt>
      <trkpt lat="37.531165" lon="-5.141101">
        <ele>223.858491</ele>
        <time>2020-08-14T06:07:53.230Z</time>
      </trkpt>
      <trkpt lat="37.531118" lon="-5.141198">
        <ele>223.922056</ele>
        <time>2020-08-14T06:07:55.249Z</time>
      </trkpt>
      <trkpt lat="37.531058" lon="-5.141308">
        <ele>223.996712</ele>
        <time>2020-08-14T06:07:57.239Z</time>
      </trkpt>
      <trkpt lat="37.531010" lon="-5.141432">
        <ele>224.073872</ele>
        <time>2020-08-14T06:07:59.243Z</time>
      </trkpt>
      <trkpt lat="37.530967" lon="-5.141537">
        <ele>224.139954</ele>
        <time>2020-08-14T06:08:01.237Z</time>
      </trkpt>
      <trkpt lat="37.530918" lon="-5.141636">
        <ele>224.205211</ele>
        <time>2020-08-14T06:08:03.240Z</time>
      </trkpt>
      <trkpt lat="37.530844" lon="-5.141779">
        <ele>224.284650</ele>
        <time>2020-08-14T06:08:06.229Z</time>
      </trkpt>
      <trkpt lat="37.530793" lon="-5.141936">
        <ele>224.329768</ele>
        <time>2020-08-14T06:08:09.235Z</time>
      </trkpt>
      <trkpt lat="37.530751" lon="-5.142047">
        <ele>224.362474</ele>
        <time>2020-08-14T06:08:11.238Z</time>
      </trkpt>
      <trkpt lat="37.530713" lon="-5.142155">
        <ele>224.393894</ele>
        <time>2020-08-14T06:08:13.246Z</time>
      </trkpt>
      <trkpt lat="37.530655" lon="-5.142260">
        <ele>224.427923</ele>
        <time>2020-08-14T06:08:15.260Z</time>
      </trkpt>
      <trkpt lat="37.530582" lon="-5.142401">
        <ele>224.472703</ele>
        <time>2020-08-14T06:08:18.243Z</time>
      </trkpt>
      <trkpt lat="37.530543" lon="-5.142519">
        <ele>224.506699</ele>
        <time>2020-08-14T06:08:20.237Z</time>
      </trkpt>
      <trkpt lat="37.530467" lon="-5.142653">
        <ele>224.550510</ele>
        <time>2020-08-14T06:08:23.238Z</time>
      </trkpt>
      <trkpt lat="37.530420" lon="-5.142788">
        <ele>224.589718</ele>
        <time>2020-08-14T06:08:25.245Z</time>
      </trkpt>
      <trkpt lat="37.530372" lon="-5.142906">
        <ele>224.624985</ele>
        <time>2020-08-14T06:08:27.246Z</time>
      </trkpt>
      <trkpt lat="37.530351" lon="-5.143021">
        <ele>224.656368</ele>
        <time>2020-08-14T06:08:29.237Z</time>
      </trkpt>
      <trkpt lat="37.530285" lon="-5.143127">
        <ele>224.692207</ele>
        <time>2020-08-14T06:08:31.244Z</time>
      </trkpt>
      <trkpt lat="37.530221" lon="-5.143255">
        <ele>224.732447</ele>
        <time>2020-08-14T06:08:33.239Z</time>
      </trkpt>
      <trkpt lat="37.530168" lon="-5.143370">
        <ele>224.767819</ele>
        <time>2020-08-14T06:08:35.243Z</time>
      </trkpt>
      <trkpt lat="37.530153" lon="-5.143504">
        <ele>224.803807</ele>
        <time>2020-08-14T06:08:37.233Z</time>
      </trkpt>
      <trkpt lat="37.530108" lon="-5.143659">
        <ele>224.847702</ele>
        <time>2020-08-14T06:08:40.260Z</time>
      </trkpt>
      <trkpt lat="37.530066" lon="-5.143773">
        <ele>224.984585</ele>
        <time>2020-08-14T06:08:42.248Z</time>
      </trkpt>
      <trkpt lat="37.530036" lon="-5.143891">
        <ele>225.450227</ele>
        <time>2020-08-14T06:08:44.252Z</time>
      </trkpt>
      <trkpt lat="37.529979" lon="-5.143992">
        <ele>225.916052</ele>
        <time>2020-08-14T06:08:46.258Z</time>
      </trkpt>
      <trkpt lat="37.529920" lon="-5.144096">
        <ele>226.396559</ele>
        <time>2020-08-14T06:08:48.258Z</time>
      </trkpt>
      <trkpt lat="37.529856" lon="-5.144221">
        <ele>226.955667</ele>
        <time>2020-08-14T06:08:50.238Z</time>
      </trkpt>
      <trkpt lat="37.529804" lon="-5.144325">
        <ele>227.417664</ele>
        <time>2020-08-14T06:08:52.242Z</time>
      </trkpt>
      <trkpt lat="37.529778" lon="-5.144368">
        <ele>227.620856</ele>
        <time>2020-08-14T06:08:53.970Z</time>
      </trkpt>
      <trkpt lat="37.529556" lon="-5.144868">
        <ele>229.774167</ele>
        <time>2020-08-14T06:09:18.256Z</time>
      </trkpt>
      <trkpt lat="37.529459" lon="-5.144964">
        <ele>230.358457</ele>
        <time>2020-08-14T06:10:02.251Z</time>
      </trkpt>
      <trkpt lat="37.529412" lon="-5.145111">
        <ele>230.954053</ele>
        <time>2020-08-14T06:10:05.249Z</time>
      </trkpt>
      <trkpt lat="37.529347" lon="-5.145260">
        <ele>231.593083</ele>
        <time>2020-08-14T06:10:08.269Z</time>
      </trkpt>
      <trkpt lat="37.529262" lon="-5.145397">
        <ele>232.246731</ele>
        <time>2020-08-14T06:10:10.258Z</time>
      </trkpt>
      <trkpt lat="37.529205" lon="-5.145501">
        <ele>232.721790</ele>
        <time>2020-08-14T06:10:12.244Z</time>
      </trkpt>
      <trkpt lat="37.529149" lon="-5.145601">
        <ele>233.181813</ele>
        <time>2020-08-14T06:10:14.242Z</time>
      </trkpt>
      <trkpt lat="37.529115" lon="-5.145709">
        <ele>233.451969</ele>
        <time>2020-08-14T06:10:16.251Z</time>
      </trkpt>
      <trkpt lat="37.529057" lon="-5.145873">
        <ele>233.621738</ele>
        <time>2020-08-14T06:10:19.253Z</time>
      </trkpt>
      <trkpt lat="37.529010" lon="-5.146024">
        <ele>233.775100</ele>
        <time>2020-08-14T06:10:22.251Z</time>
      </trkpt>
      <trkpt lat="37.528963" lon="-5.146142">
        <ele>233.899941</ele>
        <time>2020-08-14T06:10:24.259Z</time>
      </trkpt>
      <trkpt lat="37.528921" lon="-5.146245">
        <ele>234.009439</ele>
        <time>2020-08-14T06:10:26.248Z</time>
      </trkpt>
      <trkpt lat="37.528897" lon="-5.146360">
        <ele>234.121865</ele>
        <time>2020-08-14T06:10:28.245Z</time>
      </trkpt>
      <trkpt lat="37.528866" lon="-5.146470">
        <ele>234.232233</ele>
        <time>2020-08-14T06:10:30.248Z</time>
      </trkpt>
      <trkpt lat="37.528760" lon="-5.146615">
        <ele>234.418679</ele>
        <time>2020-08-14T06:10:33.243Z</time>
      </trkpt>
      <trkpt lat="37.528693" lon="-5.146732">
        <ele>234.555118</ele>
        <time>2020-08-14T06:10:35.235Z</time>
      </trkpt>
      <trkpt lat="37.528620" lon="-5.146870">
        <ele>234.711949</ele>
        <time>2020-08-14T06:10:38.263Z</time>
      </trkpt>
      <trkpt lat="37.528582" lon="-5.146983">
        <ele>234.827991</ele>
        <time>2020-08-14T06:10:40.250Z</time>
      </trkpt>
      <trkpt lat="37.528538" lon="-5.147125">
        <ele>234.972127</ele>
        <time>2020-08-14T06:10:42.250Z</time>
      </trkpt>
      <trkpt lat="37.528490" lon="-5.147237">
        <ele>235.092488</ele>
        <time>2020-08-14T06:10:44.252Z</time>
      </trkpt>
      <trkpt lat="37.528468" lon="-5.147356">
        <ele>235.208012</ele>
        <time>2020-08-14T06:10:46.268Z</time>
      </trkpt>
      <trkpt lat="37.528402" lon="-5.147487">
        <ele>235.354744</ele>
        <time>2020-08-14T06:10:48.256Z</time>
      </trkpt>
      <trkpt lat="37.528345" lon="-5.147600">
        <ele>235.481358</ele>
        <time>2020-08-14T06:10:50.258Z</time>
      </trkpt>
      <trkpt lat="37.528303" lon="-5.147725">
        <ele>235.630800</ele>
        <time>2020-08-14T06:10:52.252Z</time>
      </trkpt>
      <trkpt lat="37.528256" lon="-5.147835">
        <ele>235.784807</ele>
        <time>2020-08-14T06:10:54.245Z</time>
      </trkpt>
      <trkpt lat="37.528205" lon="-5.147988">
        <ele>235.989370</ele>
        <time>2020-08-14T06:10:57.249Z</time>
      </trkpt>
      <trkpt lat="37.528150" lon="-5.148092">
        <ele>236.143444</ele>
        <time>2020-08-14T06:10:59.267Z</time>
      </trkpt>
      <trkpt lat="37.528093" lon="-5.148183">
        <ele>236.286373</ele>
        <time>2020-08-14T06:11:01.249Z</time>
      </trkpt>
      <trkpt lat="37.528048" lon="-5.148296">
        <ele>236.442227</ele>
        <time>2020-08-14T06:11:03.247Z</time>
      </trkpt>
      <trkpt lat="37.527992" lon="-5.148394">
        <ele>236.591108</ele>
        <time>2020-08-14T06:11:05.253Z</time>
      </trkpt>
      <trkpt lat="37.527934" lon="-5.148546">
        <ele>236.799017</ele>
        <time>2020-08-14T06:11:08.250Z</time>
      </trkpt>
      <trkpt lat="37.527879" lon="-5.148658">
        <ele>236.961387</ele>
        <time>2020-08-14T06:11:10.248Z</time>
      </trkpt>
      <trkpt lat="37.527826" lon="-5.148804">
        <ele>237.159299</ele>
        <time>2020-08-14T06:11:13.251Z</time>
      </trkpt>
      <trkpt lat="37.527747" lon="-5.148936">
        <ele>237.363128</ele>
        <time>2020-08-14T06:11:15.255Z</time>
      </trkpt>
      <trkpt lat="37.527698" lon="-5.149044">
        <ele>237.516490</ele>
        <time>2020-08-14T06:11:17.270Z</time>
      </trkpt>
      <trkpt lat="37.527648" lon="-5.149171">
        <ele>237.691255</ele>
        <time>2020-08-14T06:11:19.253Z</time>
      </trkpt>
      <trkpt lat="37.527597" lon="-5.149286">
        <ele>237.853658</ele>
        <time>2020-08-14T06:11:21.248Z</time>
      </trkpt>
      <trkpt lat="37.527552" lon="-5.149384">
        <ele>237.993236</ele>
        <time>2020-08-14T06:11:23.246Z</time>
      </trkpt>
      <trkpt lat="37.527505" lon="-5.149495">
        <ele>238.148331</ele>
        <time>2020-08-14T06:11:25.253Z</time>
      </trkpt>
      <trkpt lat="37.527441" lon="-5.149634">
        <ele>238.336133</ele>
        <time>2020-08-14T06:11:28.266Z</time>
      </trkpt>
      <trkpt lat="37.527405" lon="-5.149748">
        <ele>238.342202</ele>
        <time>2020-08-14T06:11:30.251Z</time>
      </trkpt>
      <trkpt lat="37.527363" lon="-5.149852">
        <ele>238.347974</ele>
        <time>2020-08-14T06:11:32.259Z</time>
      </trkpt>
      <trkpt lat="37.527309" lon="-5.149965">
        <ele>238.354500</ele>
        <time>2020-08-14T06:11:34.248Z</time>
      </trkpt>
      <trkpt lat="37.527260" lon="-5.150108">
        <ele>238.362205</ele>
        <time>2020-08-14T06:11:37.253Z</time>
      </trkpt>
      <trkpt lat="37.527249" lon="-5.150225">
        <ele>238.368032</ele>
        <time>2020-08-14T06:11:39.252Z</time>
      </trkpt>
      <trkpt lat="37.527174" lon="-5.150350">
        <ele>238.375785</ele>
        <time>2020-08-14T06:11:42.251Z</time>
      </trkpt>
      <trkpt lat="37.527126" lon="-5.150446">
        <ele>238.381398</ele>
        <time>2020-08-14T06:11:44.251Z</time>
      </trkpt>
      <trkpt lat="37.527066" lon="-5.150545">
        <ele>238.387560</ele>
        <time>2020-08-14T06:11:46.246Z</time>
      </trkpt>
      <trkpt lat="37.527036" lon="-5.150658">
        <ele>238.393454</ele>
        <time>2020-08-14T06:11:48.249Z</time>
      </trkpt>
      <trkpt lat="37.526993" lon="-5.150781">
        <ele>238.400103</ele>
        <time>2020-08-14T06:11:51.248Z</time>
      </trkpt>
      <trkpt lat="37.526934" lon="-5.150924">
        <ele>238.408076</ele>
        <time>2020-08-14T06:11:54.249Z</time>
      </trkpt>
      <trkpt lat="37.526889" lon="-5.151027">
        <ele>238.413892</ele>
        <time>2020-08-14T06:11:56.244Z</time>
      </trkpt>
      <trkpt lat="37.526857" lon="-5.151146">
        <ele>238.420107</ele>
        <time>2020-08-14T06:11:58.243Z</time>
      </trkpt>
      <trkpt lat="37.526798" lon="-5.151273">
        <ele>238.427387</ele>
        <time>2020-08-14T06:12:01.251Z</time>
      </trkpt>
      <trkpt lat="37.526744" lon="-5.151397">
        <ele>238.434384</ele>
        <time>2020-08-14T06:12:04.261Z</time>
      </trkpt>
      <trkpt lat="37.526698" lon="-5.151508">
        <ele>238.440578</ele>
        <time>2020-08-14T06:12:06.255Z</time>
      </trkpt>
      <trkpt lat="37.526648" lon="-5.151651">
        <ele>238.451096</ele>
        <time>2020-08-14T06:12:09.251Z</time>
      </trkpt>
      <trkpt lat="37.526604" lon="-5.151797">
        <ele>238.508768</ele>
        <time>2020-08-14T06:12:13.274Z</time>
      </trkpt>
      <trkpt lat="37.526537" lon="-5.151976">
        <ele>238.581856</ele>
        <time>2020-08-14T06:12:16.260Z</time>
      </trkpt>
      <trkpt lat="37.526454" lon="-5.152101">
        <ele>238.642054</ele>
        <time>2020-08-14T06:12:18.268Z</time>
      </trkpt>
      <trkpt lat="37.526376" lon="-5.152241">
        <ele>238.705231</ele>
        <time>2020-08-14T06:12:20.268Z</time>
      </trkpt>
      <trkpt lat="37.526326" lon="-5.152360">
        <ele>238.754958</ele>
        <time>2020-08-14T06:12:22.260Z</time>
      </trkpt>
      <trkpt lat="37.526271" lon="-5.152492">
        <ele>238.810017</ele>
        <time>2020-08-14T06:12:24.265Z</time>
      </trkpt>
      <trkpt lat="37.526229" lon="-5.152609">
        <ele>238.857439</ele>
        <time>2020-08-14T06:12:26.271Z</time>
      </trkpt>
      <trkpt lat="37.526186" lon="-5.152725">
        <ele>238.904720</ele>
        <time>2020-08-14T06:12:28.269Z</time>
      </trkpt>
      <trkpt lat="37.526118" lon="-5.152868">
        <ele>238.966288</ele>
        <time>2020-08-14T06:12:31.269Z</time>
      </trkpt>
      <trkpt lat="37.526056" lon="-5.152976">
        <ele>239.015519</ele>
        <time>2020-08-14T06:12:33.266Z</time>
      </trkpt>
      <trkpt lat="37.525986" lon="-5.153097">
        <ele>239.070823</ele>
        <time>2020-08-14T06:12:36.247Z</time>
      </trkpt>
      <trkpt lat="37.525940" lon="-5.153204">
        <ele>239.115765</ele>
        <time>2020-08-14T06:12:38.251Z</time>
      </trkpt>
      <trkpt lat="37.525902" lon="-5.153342">
        <ele>239.169706</ele>
        <time>2020-08-14T06:12:41.246Z</time>
      </trkpt>
      <trkpt lat="37.525848" lon="-5.153440">
        <ele>239.213770</ele>
        <time>2020-08-14T06:12:43.255Z</time>
      </trkpt>
      <trkpt lat="37.525778" lon="-5.153589">
        <ele>239.277718</ele>
        <time>2020-08-14T06:12:46.240Z</time>
      </trkpt>
      <trkpt lat="37.525721" lon="-5.153686">
        <ele>239.298889</ele>
        <time>2020-08-14T06:12:48.249Z</time>
      </trkpt>
      <trkpt lat="37.525668" lon="-5.153798">
        <ele>239.316561</ele>
        <time>2020-08-14T06:12:50.250Z</time>
      </trkpt>
      <trkpt lat="37.525633" lon="-5.153940">
        <ele>239.336710</ele>
        <time>2020-08-14T06:12:53.245Z</time>
      </trkpt>
      <trkpt lat="37.525577" lon="-5.154079">
        <ele>239.357835</ele>
        <time>2020-08-14T06:12:56.248Z</time>
      </trkpt>
      <trkpt lat="37.525503" lon="-5.154227">
        <ele>239.381542</ele>
        <time>2020-08-14T06:12:59.251Z</time>
      </trkpt>
      <trkpt lat="37.525459" lon="-5.154326">
        <ele>239.396919</ele>
        <time>2020-08-14T06:13:01.253Z</time>
      </trkpt>
      <trkpt lat="37.525422" lon="-5.154474">
        <ele>239.417946</ele>
        <time>2020-08-14T06:13:04.245Z</time>
      </trkpt>
      <trkpt lat="37.525362" lon="-5.154620">
        <ele>239.440227</ele>
        <time>2020-08-14T06:13:07.247Z</time>
      </trkpt>
      <trkpt lat="37.525304" lon="-5.154735">
        <ele>239.458694</ele>
        <time>2020-08-14T06:13:10.236Z</time>
      </trkpt>
      <trkpt lat="37.525232" lon="-5.154861">
        <ele>239.479737</ele>
        <time>2020-08-14T06:13:13.245Z</time>
      </trkpt>
      <trkpt lat="37.525187" lon="-5.154963">
        <ele>239.495552</ele>
        <time>2020-08-14T06:13:15.245Z</time>
      </trkpt>
      <trkpt lat="37.525140" lon="-5.155064">
        <ele>239.511420</ele>
        <time>2020-08-14T06:13:17.243Z</time>
      </trkpt>
      <trkpt lat="37.525097" lon="-5.155165">
        <ele>239.526953</ele>
        <time>2020-08-14T06:13:19.246Z</time>
      </trkpt>
      <trkpt lat="37.525033" lon="-5.155310">
        <ele>239.549438</ele>
        <time>2020-08-14T06:13:22.246Z</time>
      </trkpt>
      <trkpt lat="37.524983" lon="-5.155455">
        <ele>239.570862</ele>
        <time>2020-08-14T06:13:25.267Z</time>
      </trkpt>
      <trkpt lat="37.524936" lon="-5.155552">
        <ele>239.586265</ele>
        <time>2020-08-14T06:13:27.252Z</time>
      </trkpt>
      <trkpt lat="37.524887" lon="-5.155653">
        <ele>239.526456</ele>
        <time>2020-08-14T06:13:29.252Z</time>
      </trkpt>
      <trkpt lat="37.524839" lon="-5.155754">
        <ele>239.417455</ele>
        <time>2020-08-14T06:13:31.249Z</time>
      </trkpt>
      <trkpt lat="37.524785" lon="-5.155877">
        <ele>239.287307</ele>
        <time>2020-08-14T06:13:33.262Z</time>
      </trkpt>
      <trkpt lat="37.524734" lon="-5.155982">
        <ele>239.173324</ele>
        <time>2020-08-14T06:13:35.246Z</time>
      </trkpt>
      <trkpt lat="37.524692" lon="-5.156137">
        <ele>239.021691</ele>
        <time>2020-08-14T06:13:38.256Z</time>
      </trkpt>
      <trkpt lat="37.524655" lon="-5.156241">
        <ele>238.916171</ele>
        <time>2020-08-14T06:13:40.253Z</time>
      </trkpt>
      <trkpt lat="37.524611" lon="-5.156391">
        <ele>238.768117</ele>
        <time>2020-08-14T06:13:43.242Z</time>
      </trkpt>
      <trkpt lat="37.524565" lon="-5.156489">
        <ele>238.662696</ele>
        <time>2020-08-14T06:13:45.250Z</time>
      </trkpt>
      <trkpt lat="37.524513" lon="-5.156594">
        <ele>238.548099</ele>
        <time>2020-08-14T06:13:47.253Z</time>
      </trkpt>
      <trkpt lat="37.524455" lon="-5.156712">
        <ele>238.419584</ele>
        <time>2020-08-14T06:13:49.245Z</time>
      </trkpt>
      <trkpt lat="37.524398" lon="-5.156863">
        <ele>238.264771</ele>
        <time>2020-08-14T06:13:52.245Z</time>
      </trkpt>
      <trkpt lat="37.524343" lon="-5.156980">
        <ele>238.138862</ele>
        <time>2020-08-14T06:13:54.241Z</time>
      </trkpt>
      <trkpt lat="37.524276" lon="-5.157117">
        <ele>237.989862</ele>
        <time>2020-08-14T06:13:57.252Z</time>
      </trkpt>
      <trkpt lat="37.524216" lon="-5.157256">
        <ele>237.843359</ele>
        <time>2020-08-14T06:14:00.242Z</time>
      </trkpt>
      <trkpt lat="37.524163" lon="-5.157400">
        <ele>237.696397</ele>
        <time>2020-08-14T06:14:03.258Z</time>
      </trkpt>
      <trkpt lat="37.524121" lon="-5.157506">
        <ele>237.586703</ele>
        <time>2020-08-14T06:14:05.249Z</time>
      </trkpt>
      <trkpt lat="37.524073" lon="-5.157622">
        <ele>237.513567</ele>
        <time>2020-08-14T06:14:07.248Z</time>
      </trkpt>
      <trkpt lat="37.524020" lon="-5.157721">
        <ele>237.595436</ele>
        <time>2020-08-14T06:14:09.254Z</time>
      </trkpt>
      <trkpt lat="37.523970" lon="-5.157831">
        <ele>237.682337</ele>
        <time>2020-08-14T06:14:11.248Z</time>
      </trkpt>
      <trkpt lat="37.523910" lon="-5.157978">
        <ele>237.795654</ele>
        <time>2020-08-14T06:14:14.251Z</time>
      </trkpt>
      <trkpt lat="37.523870" lon="-5.158129">
        <ele>237.904773</ele>
        <time>2020-08-14T06:14:17.265Z</time>
      </trkpt>
      <trkpt lat="37.523862" lon="-5.158254">
        <ele>237.990729</ele>
        <time>2020-08-14T06:14:20.250Z</time>
      </trkpt>
      <trkpt lat="37.523813" lon="-5.158395">
        <ele>238.096244</ele>
        <time>2020-08-14T06:14:23.248Z</time>
      </trkpt>
      <trkpt lat="37.523732" lon="-5.158507">
        <ele>238.200136</ele>
        <time>2020-08-14T06:14:26.263Z</time>
      </trkpt>
      <trkpt lat="37.523671" lon="-5.158637">
        <ele>238.303668</ele>
        <time>2020-08-14T06:14:29.243Z</time>
      </trkpt>
      <trkpt lat="37.523620" lon="-5.158781">
        <ele>238.411763</ele>
        <time>2020-08-14T06:14:32.267Z</time>
      </trkpt>
      <trkpt lat="37.523565" lon="-5.158928">
        <ele>238.523170</ele>
        <time>2020-08-14T06:14:35.244Z</time>
      </trkpt>
      <trkpt lat="37.523512" lon="-5.159042">
        <ele>238.613744</ele>
        <time>2020-08-14T06:14:37.252Z</time>
      </trkpt>
      <trkpt lat="37.523427" lon="-5.159162">
        <ele>238.724023</ele>
        <time>2020-08-14T06:14:40.260Z</time>
      </trkpt>
      <trkpt lat="37.523371" lon="-5.159263">
        <ele>238.808491</ele>
        <time>2020-08-14T06:14:42.245Z</time>
      </trkpt>
      <trkpt lat="37.523316" lon="-5.159380">
        <ele>238.901714</ele>
        <time>2020-08-14T06:14:44.251Z</time>
      </trkpt>
      <trkpt lat="37.523239" lon="-5.159529">
        <ele>239.023609</ele>
        <time>2020-08-14T06:14:47.262Z</time>
      </trkpt>
      <trkpt lat="37.523204" lon="-5.159656">
        <ele>239.076735</ele>
        <time>2020-08-14T06:14:49.249Z</time>
      </trkpt>
      <trkpt lat="37.523156" lon="-5.159804">
        <ele>239.123585</ele>
        <time>2020-08-14T06:14:52.269Z</time>
      </trkpt>
      <trkpt lat="37.523098" lon="-5.159947">
        <ele>239.170646</ele>
        <time>2020-08-14T06:14:55.249Z</time>
      </trkpt>
      <trkpt lat="37.523044" lon="-5.160109">
        <ele>239.222134</ele>
        <time>2020-08-14T06:14:58.255Z</time>
      </trkpt>
      <trkpt lat="37.522983" lon="-5.160209">
        <ele>239.259098</ele>
        <time>2020-08-14T06:15:00.253Z</time>
      </trkpt>
      <trkpt lat="37.522941" lon="-5.160322">
        <ele>239.295663</ele>
        <time>2020-08-14T06:15:02.253Z</time>
      </trkpt>
      <trkpt lat="37.522882" lon="-5.160468">
        <ele>239.343675</ele>
        <time>2020-08-14T06:15:05.258Z</time>
      </trkpt>
      <trkpt lat="37.522818" lon="-5.160614">
        <ele>239.392553</ele>
        <time>2020-08-14T06:15:08.262Z</time>
      </trkpt>
      <trkpt lat="37.522776" lon="-5.160745">
        <ele>239.433954</ele>
        <time>2020-08-14T06:15:11.258Z</time>
      </trkpt>
      <trkpt lat="37.522704" lon="-5.160864">
        <ele>239.477809</ele>
        <time>2020-08-14T06:15:14.266Z</time>
      </trkpt>
      <trkpt lat="37.522651" lon="-5.160992">
        <ele>239.520117</ele>
        <time>2020-08-14T06:15:17.260Z</time>
      </trkpt>
      <trkpt lat="37.522593" lon="-5.161123">
        <ele>239.564076</ele>
        <time>2020-08-14T06:15:20.258Z</time>
      </trkpt>
      <trkpt lat="37.522530" lon="-5.161265">
        <ele>239.611750</ele>
        <time>2020-08-14T06:15:23.250Z</time>
      </trkpt>
      <trkpt lat="37.522495" lon="-5.161374">
        <ele>239.646206</ele>
        <time>2020-08-14T06:15:26.271Z</time>
      </trkpt>
      <trkpt lat="37.522443" lon="-5.161504">
        <ele>239.688867</ele>
        <time>2020-08-14T06:15:29.273Z</time>
      </trkpt>
      <trkpt lat="37.522379" lon="-5.161631">
        <ele>239.668038</ele>
        <time>2020-08-14T06:15:32.287Z</time>
      </trkpt>
      <trkpt lat="37.522338" lon="-5.161741">
        <ele>239.592913</ele>
        <time>2020-08-14T06:15:34.251Z</time>
      </trkpt>
      <trkpt lat="37.522281" lon="-5.161873">
        <ele>239.500014</ele>
        <time>2020-08-14T06:15:37.271Z</time>
      </trkpt>
      <trkpt lat="37.522207" lon="-5.162353">
        <ele>239.197769</ele>
        <time>2020-08-14T06:15:46.323Z</time>
      </trkpt>
      <trkpt lat="37.522175" lon="-5.162467">
        <ele>239.123022</ele>
        <time>2020-08-14T06:15:48.272Z</time>
      </trkpt>
      <trkpt lat="37.522131" lon="-5.162609">
        <ele>239.028790</ele>
        <time>2020-08-14T06:15:50.262Z</time>
      </trkpt>
      <trkpt lat="37.522098" lon="-5.162749">
        <ele>238.938514</ele>
        <time>2020-08-14T06:15:52.265Z</time>
      </trkpt>
      <trkpt lat="37.522070" lon="-5.162897">
        <ele>238.844467</ele>
        <time>2020-08-14T06:15:55.287Z</time>
      </trkpt>
      <trkpt lat="37.522054" lon="-5.163034">
        <ele>238.758873</ele>
        <time>2020-08-14T06:15:58.272Z</time>
      </trkpt>
      <trkpt lat="37.522023" lon="-5.163160">
        <ele>238.677330</ele>
        <time>2020-08-14T06:16:01.285Z</time>
      </trkpt>
      <trkpt lat="37.521993" lon="-5.163290">
        <ele>238.593644</ele>
        <time>2020-08-14T06:16:04.276Z</time>
      </trkpt>
      <trkpt lat="37.521971" lon="-5.163448">
        <ele>238.494489</ele>
        <time>2020-08-14T06:16:07.276Z</time>
      </trkpt>
      <trkpt lat="37.521956" lon="-5.163610">
        <ele>238.393675</ele>
        <time>2020-08-14T06:16:10.263Z</time>
      </trkpt>
      <trkpt lat="37.521945" lon="-5.163793">
        <ele>238.264902</ele>
        <time>2020-08-14T06:16:13.248Z</time>
      </trkpt>
      <trkpt lat="37.521936" lon="-5.163942">
        <ele>238.125463</ele>
        <time>2020-08-14T06:16:16.282Z</time>
      </trkpt>
      <trkpt lat="37.521914" lon="-5.164092">
        <ele>237.983120</ele>
        <time>2020-08-14T06:16:19.245Z</time>
      </trkpt>
      <trkpt lat="37.521885" lon="-5.164200">
        <ele>237.876722</ele>
        <time>2020-08-14T06:16:23.275Z</time>
      </trkpt>
      <trkpt lat="37.521871" lon="-5.164392">
        <ele>237.696805</ele>
        <time>2020-08-14T06:16:25.280Z</time>
      </trkpt>
      <trkpt lat="37.521851" lon="-5.164553">
        <ele>237.544739</ele>
        <time>2020-08-14T06:16:27.248Z</time>
      </trkpt>
      <trkpt lat="37.521831" lon="-5.164704">
        <ele>237.401884</ele>
        <time>2020-08-14T06:16:30.268Z</time>
      </trkpt>
      <trkpt lat="37.521839" lon="-5.164876">
        <ele>237.241110</ele>
        <time>2020-08-14T06:16:33.248Z</time>
      </trkpt>
      <trkpt lat="37.521827" lon="-5.165279">
        <ele>236.864792</ele>
        <time>2020-08-14T06:16:40.246Z</time>
      </trkpt>
      <trkpt lat="37.521826" lon="-5.165396">
        <ele>236.755609</ele>
        <time>2020-08-14T06:16:42.263Z</time>
      </trkpt>
      <trkpt lat="37.521826" lon="-5.165538">
        <ele>236.623104</ele>
        <time>2020-08-14T06:16:45.257Z</time>
      </trkpt>
      <trkpt lat="37.521809" lon="-5.165869">
        <ele>236.313590</ele>
        <time>2020-08-14T06:16:52.249Z</time>
      </trkpt>
      <trkpt lat="37.521802" lon="-5.166022">
        <ele>236.162830</ele>
        <time>2020-08-14T06:16:55.247Z</time>
      </trkpt>
      <trkpt lat="37.521804" lon="-5.166142">
        <ele>236.014000</ele>
        <time>2020-08-14T06:16:58.275Z</time>
      </trkpt>
      <trkpt lat="37.521812" lon="-5.166257">
        <ele>235.870856</ele>
        <time>2020-08-14T06:17:00.262Z</time>
      </trkpt>
      <trkpt lat="37.521866" lon="-5.166385">
        <ele>235.691084</ele>
        <time>2020-08-14T06:17:02.292Z</time>
      </trkpt>
      <trkpt lat="37.521868" lon="-5.166514">
        <ele>235.531097</ele>
        <time>2020-08-14T06:17:04.252Z</time>
      </trkpt>
      <trkpt lat="37.521875" lon="-5.166678">
        <ele>235.327448</ele>
        <time>2020-08-14T06:17:07.260Z</time>
      </trkpt>
      <trkpt lat="37.521874" lon="-5.166844">
        <ele>235.121608</ele>
        <time>2020-08-14T06:17:10.254Z</time>
      </trkpt>
      <trkpt lat="37.521878" lon="-5.166986">
        <ele>234.945421</ele>
        <time>2020-08-14T06:17:13.257Z</time>
      </trkpt>
      <trkpt lat="37.521867" lon="-5.167131">
        <ele>234.764805</ele>
        <time>2020-08-14T06:17:16.243Z</time>
      </trkpt>
      <trkpt lat="37.521878" lon="-5.167243">
        <ele>234.624868</ele>
        <time>2020-08-14T06:17:18.248Z</time>
      </trkpt>
      <trkpt lat="37.521914" lon="-5.167392">
        <ele>234.431730</ele>
        <time>2020-08-14T06:17:21.253Z</time>
      </trkpt>
      <trkpt lat="37.521925" lon="-5.167524">
        <ele>234.267153</ele>
        <time>2020-08-14T06:17:24.268Z</time>
      </trkpt>
      <trkpt lat="37.521917" lon="-5.167658">
        <ele>234.100527</ele>
        <time>2020-08-14T06:17:26.253Z</time>
      </trkpt>
      <trkpt lat="37.521943" lon="-5.167771">
        <ele>233.954634</ele>
        <time>2020-08-14T06:17:28.268Z</time>
      </trkpt>
      <trkpt lat="37.521941" lon="-5.167896">
        <ele>233.799607</ele>
        <time>2020-08-14T06:17:30.248Z</time>
      </trkpt>
      <trkpt lat="37.521951" lon="-5.168023">
        <ele>233.641357</ele>
        <time>2020-08-14T06:17:32.234Z</time>
      </trkpt>
      <trkpt lat="37.521951" lon="-5.168142">
        <ele>233.493801</ele>
        <time>2020-08-14T06:17:34.256Z</time>
      </trkpt>
      <trkpt lat="37.521962" lon="-5.168294">
        <ele>233.442662</ele>
        <time>2020-08-14T06:17:37.233Z</time>
      </trkpt>
      <trkpt lat="37.521974" lon="-5.168425">
        <ele>233.570137</ele>
        <time>2020-08-14T06:17:39.263Z</time>
      </trkpt>
      <trkpt lat="37.521978" lon="-5.168542">
        <ele>233.683342</ele>
        <time>2020-08-14T06:17:41.251Z</time>
      </trkpt>
      <trkpt lat="37.521991" lon="-5.168671">
        <ele>233.809044</ele>
        <time>2020-08-14T06:17:43.247Z</time>
      </trkpt>
      <trkpt lat="37.521991" lon="-5.168806">
        <ele>233.939544</ele>
        <time>2020-08-14T06:17:45.258Z</time>
      </trkpt>
      <trkpt lat="37.521983" lon="-5.168938">
        <ele>234.067515</ele>
        <time>2020-08-14T06:17:47.258Z</time>
      </trkpt>
      <trkpt lat="37.521980" lon="-5.169070">
        <ele>234.195168</ele>
        <time>2020-08-14T06:17:50.251Z</time>
      </trkpt>
      <trkpt lat="37.521974" lon="-5.169201">
        <ele>234.322012</ele>
        <time>2020-08-14T06:17:52.255Z</time>
      </trkpt>
      <trkpt lat="37.521959" lon="-5.169357">
        <ele>234.473916</ele>
        <time>2020-08-14T06:17:54.264Z</time>
      </trkpt>
      <trkpt lat="37.521967" lon="-5.169222">
        <ele>234.604779</ele>
        <time>2020-08-14T06:17:57.244Z</time>
      </trkpt>
      <trkpt lat="37.522094" lon="-5.171812">
        <ele>235.483001</ele>
        <time>2020-08-14T06:18:31.251Z</time>
      </trkpt>
      <trkpt lat="37.522100" lon="-5.171937">
        <ele>235.475814</ele>
        <time>2020-08-14T06:18:33.244Z</time>
      </trkpt>
      <trkpt lat="37.522100" lon="-5.172078">
        <ele>235.467721</ele>
        <time>2020-08-14T06:18:35.255Z</time>
      </trkpt>
      <trkpt lat="37.522099" lon="-5.172211">
        <ele>235.460088</ele>
        <time>2020-08-14T06:18:37.281Z</time>
      </trkpt>
      <trkpt lat="37.522108" lon="-5.172325">
        <ele>235.453513</ele>
        <time>2020-08-14T06:18:40.267Z</time>
      </trkpt>
      <trkpt lat="37.522117" lon="-5.172452">
        <ele>235.446195</ele>
        <time>2020-08-14T06:18:43.272Z</time>
      </trkpt>
      <trkpt lat="37.522130" lon="-5.172658">
        <ele>235.422850</ele>
        <time>2020-08-14T06:18:45.268Z</time>
      </trkpt>
      <trkpt lat="37.522115" lon="-5.172779">
        <ele>235.407646</ele>
        <time>2020-08-14T06:18:47.259Z</time>
      </trkpt>
      <trkpt lat="37.522102" lon="-5.172922">
        <ele>235.389778</ele>
        <time>2020-08-14T06:18:49.264Z</time>
      </trkpt>
      <trkpt lat="37.522112" lon="-5.173054">
        <ele>235.373317</ele>
        <time>2020-08-14T06:18:52.259Z</time>
      </trkpt>
      <trkpt lat="37.522124" lon="-5.173252">
        <ele>235.348665</ele>
        <time>2020-08-14T06:18:54.275Z</time>
      </trkpt>
      <trkpt lat="37.522150" lon="-5.173375">
        <ele>235.332863</ele>
        <time>2020-08-14T06:18:56.273Z</time>
      </trkpt>
      <trkpt lat="37.522146" lon="-5.173501">
        <ele>235.317209</ele>
        <time>2020-08-14T06:18:57.240Z</time>
      </trkpt>
      <trkpt lat="37.522173" lon="-5.173654">
        <ele>235.297751</ele>
        <time>2020-08-14T06:18:59.253Z</time>
      </trkpt>
      <trkpt lat="37.522177" lon="-5.173791">
        <ele>235.280732</ele>
        <time>2020-08-14T06:19:02.261Z</time>
      </trkpt>
      <trkpt lat="37.522193" lon="-5.173960">
        <ele>235.259604</ele>
        <time>2020-08-14T06:19:06.274Z</time>
      </trkpt>
      <trkpt lat="37.522198" lon="-5.174212">
        <ele>235.228311</ele>
        <time>2020-08-14T06:19:08.262Z</time>
      </trkpt>
      <trkpt lat="37.522222" lon="-5.174364">
        <ele>235.209071</ele>
        <time>2020-08-14T06:19:10.253Z</time>
      </trkpt>
      <trkpt lat="37.522233" lon="-5.174526">
        <ele>235.188887</ele>
        <time>2020-08-14T06:19:13.263Z</time>
      </trkpt>
      <trkpt lat="37.522242" lon="-5.174695">
        <ele>235.167860</ele>
        <time>2020-08-14T06:19:17.267Z</time>
      </trkpt>
      <trkpt lat="37.522236" lon="-5.174918">
        <ele>234.985158</ele>
        <time>2020-08-14T06:19:18.273Z</time>
      </trkpt>
      <trkpt lat="37.522227" lon="-5.175060">
        <ele>234.845770</ele>
        <time>2020-08-14T06:19:21.242Z</time>
      </trkpt>
      <trkpt lat="37.522253" lon="-5.175210">
        <ele>234.695532</ele>
        <time>2020-08-14T06:19:24.265Z</time>
      </trkpt>
      <trkpt lat="37.522269" lon="-5.175325">
        <ele>234.581288</ele>
        <time>2020-08-14T06:19:28.276Z</time>
      </trkpt>
      <trkpt lat="37.522291" lon="-5.175555">
        <ele>234.354605</ele>
        <time>2020-08-14T06:19:30.270Z</time>
      </trkpt>
      <trkpt lat="37.522275" lon="-5.175712">
        <ele>234.199720</ele>
        <time>2020-08-14T06:19:32.267Z</time>
      </trkpt>
      <trkpt lat="37.522281" lon="-5.175835">
        <ele>234.079139</ele>
        <time>2020-08-14T06:19:34.247Z</time>
      </trkpt>
      <trkpt lat="37.522282" lon="-5.175954">
        <ele>233.962692</ele>
        <time>2020-08-14T06:19:36.247Z</time>
      </trkpt>
      <trkpt lat="37.522288" lon="-5.176110">
        <ele>233.809869</ele>
        <time>2020-08-14T06:19:40.267Z</time>
      </trkpt>
      <trkpt lat="37.522292" lon="-5.176279">
        <ele>233.644431</ele>
        <time>2020-08-14T06:19:42.263Z</time>
      </trkpt>
      <trkpt lat="37.522295" lon="-5.176435">
        <ele>233.491742</ele>
        <time>2020-08-14T06:19:45.260Z</time>
      </trkpt>
      <trkpt lat="37.522303" lon="-5.176557">
        <ele>233.371960</ele>
        <time>2020-08-14T06:19:47.269Z</time>
      </trkpt>
      <trkpt lat="37.522301" lon="-5.176672">
        <ele>233.259407</ele>
        <time>2020-08-14T06:19:49.255Z</time>
      </trkpt>
      <trkpt lat="37.522315" lon="-5.176800">
        <ele>233.132975</ele>
        <time>2020-08-14T06:19:51.249Z</time>
      </trkpt>
      <trkpt lat="37.522319" lon="-5.176921">
        <ele>233.014476</ele>
        <time>2020-08-14T06:19:53.249Z</time>
      </trkpt>
      <trkpt lat="37.522311" lon="-5.177062">
        <ele>232.880840</ele>
        <time>2020-08-14T06:19:55.264Z</time>
      </trkpt>
      <trkpt lat="37.522328" lon="-5.177226">
        <ele>232.730234</ele>
        <time>2020-08-14T06:20:00.271Z</time>
      </trkpt>
      <trkpt lat="37.522355" lon="-5.177450">
        <ele>232.523921</ele>
        <time>2020-08-14T06:20:01.265Z</time>
      </trkpt>
      <trkpt lat="37.522383" lon="-5.177606">
        <ele>232.378277</ele>
        <time>2020-08-14T06:20:04.249Z</time>
      </trkpt>
      <trkpt lat="37.522378" lon="-5.177747">
        <ele>232.249756</ele>
        <time>2020-08-14T06:20:06.236Z</time>
      </trkpt>
      <trkpt lat="37.522374" lon="-5.177862">
        <ele>232.144938</ele>
        <time>2020-08-14T06:20:08.257Z</time>
      </trkpt>
      <trkpt lat="37.522381" lon="-5.177986">
        <ele>232.031740</ele>
        <time>2020-08-14T06:20:11.253Z</time>
      </trkpt>
      <trkpt lat="37.522365" lon="-5.178106">
        <ele>231.920937</ele>
        <time>2020-08-14T06:20:13.263Z</time>
      </trkpt>
      <trkpt lat="37.522371" lon="-5.178222">
        <ele>231.815084</ele>
        <time>2020-08-14T06:20:15.255Z</time>
      </trkpt>
      <trkpt lat="37.522396" lon="-5.178365">
        <ele>231.681745</ele>
        <time>2020-08-14T06:20:17.253Z</time>
      </trkpt>
      <trkpt lat="37.522413" lon="-5.178487">
        <ele>231.568952</ele>
        <time>2020-08-14T06:20:19.252Z</time>
      </trkpt>
      <trkpt lat="37.522410" lon="-5.178642">
        <ele>231.427769</ele>
        <time>2020-08-14T06:20:22.255Z</time>
      </trkpt>
      <trkpt lat="37.522430" lon="-5.178825">
        <ele>231.259557</ele>
        <time>2020-08-14T06:20:25.263Z</time>
      </trkpt>
      <trkpt lat="37.522413" lon="-5.178968">
        <ele>231.127889</ele>
        <time>2020-08-14T06:20:27.269Z</time>
      </trkpt>
      <trkpt lat="37.522440" lon="-5.179092">
        <ele>231.010798</ele>
        <time>2020-08-14T06:20:31.265Z</time>
      </trkpt>
      <trkpt lat="37.522435" lon="-5.179268">
        <ele>230.928417</ele>
        <time>2020-08-14T06:20:33.258Z</time>
      </trkpt>
      <trkpt lat="37.522435" lon="-5.179407">
        <ele>231.152137</ele>
        <time>2020-08-14T06:20:35.246Z</time>
      </trkpt>
      <trkpt lat="37.522439" lon="-5.179558">
        <ele>231.395307</ele>
        <time>2020-08-14T06:20:37.270Z</time>
      </trkpt>
      <trkpt lat="37.522443" lon="-5.179710">
        <ele>231.640085</ele>
        <time>2020-08-14T06:20:40.299Z</time>
      </trkpt>
      <trkpt lat="37.522450" lon="-5.179873">
        <ele>231.902817</ele>
        <time>2020-08-14T06:20:43.278Z</time>
      </trkpt>
      <trkpt lat="37.522450" lon="-5.180012">
        <ele>232.126537</ele>
        <time>2020-08-14T06:20:46.284Z</time>
      </trkpt>
      <trkpt lat="37.522444" lon="-5.180135">
        <ele>232.324879</ele>
        <time>2020-08-14T06:20:49.275Z</time>
      </trkpt>
      <trkpt lat="37.522444" lon="-5.180256">
        <ele>232.519628</ele>
        <time>2020-08-14T06:20:51.289Z</time>
      </trkpt>
      <trkpt lat="37.522444" lon="-5.180388">
        <ele>232.732081</ele>
        <time>2020-08-14T06:20:53.269Z</time>
      </trkpt>
      <trkpt lat="37.522443" lon="-5.180528">
        <ele>232.957420</ele>
        <time>2020-08-14T06:20:55.282Z</time>
      </trkpt>
      <trkpt lat="37.522447" lon="-5.180655">
        <ele>233.161987</ele>
        <time>2020-08-14T06:20:57.278Z</time>
      </trkpt>
      <trkpt lat="37.522462" lon="-5.180826">
        <ele>233.438889</ele>
        <time>2020-08-14T06:20:59.293Z</time>
      </trkpt>
      <trkpt lat="37.522477" lon="-5.180993">
        <ele>233.709392</ele>
        <time>2020-08-14T06:21:01.284Z</time>
      </trkpt>
      <trkpt lat="37.522504" lon="-5.181148">
        <ele>233.964810</ele>
        <time>2020-08-14T06:21:03.277Z</time>
      </trkpt>
      <trkpt lat="37.522516" lon="-5.181301">
        <ele>234.212264</ele>
        <time>2020-08-14T06:21:05.293Z</time>
      </trkpt>
      <trkpt lat="37.522485" lon="-5.182208">
        <ele>234.134603</ele>
        <time>2020-08-14T06:21:23.306Z</time>
      </trkpt>
      <trkpt lat="37.522496" lon="-5.182333">
        <ele>234.064925</ele>
        <time>2020-08-14T06:21:25.255Z</time>
      </trkpt>
      <trkpt lat="37.522519" lon="-5.182450">
        <ele>233.998142</ele>
        <time>2020-08-14T06:21:27.249Z</time>
      </trkpt>
      <trkpt lat="37.522542" lon="-5.182582">
        <ele>233.923267</ele>
        <time>2020-08-14T06:21:31.265Z</time>
      </trkpt>
      <trkpt lat="37.522555" lon="-5.182740">
        <ele>233.835261</ele>
        <time>2020-08-14T06:21:34.274Z</time>
      </trkpt>
      <trkpt lat="37.522567" lon="-5.182880">
        <ele>233.757245</ele>
        <time>2020-08-14T06:21:35.267Z</time>
      </trkpt>
      <trkpt lat="37.522577" lon="-5.183004">
        <ele>233.688192</ele>
        <time>2020-08-14T06:21:37.248Z</time>
      </trkpt>
      <trkpt lat="37.522585" lon="-5.183132">
        <ele>233.617057</ele>
        <time>2020-08-14T06:21:40.260Z</time>
      </trkpt>
      <trkpt lat="37.522612" lon="-5.183469">
        <ele>233.429400</ele>
        <time>2020-08-14T06:21:46.245Z</time>
      </trkpt>
      <trkpt lat="37.522595" lon="-5.183584">
        <ele>233.364590</ele>
        <time>2020-08-14T06:21:48.239Z</time>
      </trkpt>
      <trkpt lat="37.522590" lon="-5.183700">
        <ele>233.300228</ele>
        <time>2020-08-14T06:21:50.247Z</time>
      </trkpt>
      <trkpt lat="37.522643" lon="-5.183955">
        <ele>233.323525</ele>
        <time>2020-08-14T06:21:55.273Z</time>
      </trkpt>
      <trkpt lat="37.522649" lon="-5.184072">
        <ele>233.351753</ele>
        <time>2020-08-14T06:21:57.245Z</time>
      </trkpt>
      <trkpt lat="37.522664" lon="-5.184187">
        <ele>233.379813</ele>
        <time>2020-08-14T06:21:59.249Z</time>
      </trkpt>
      <trkpt lat="37.522654" lon="-5.184519">
        <ele>233.459805</ele>
        <time>2020-08-14T06:22:06.273Z</time>
      </trkpt>
      <trkpt lat="37.522648" lon="-5.184648">
        <ele>233.490917</ele>
        <time>2020-08-14T06:22:09.263Z</time>
      </trkpt>
      <trkpt lat="37.522648" lon="-5.184767">
        <ele>233.519568</ele>
        <time>2020-08-14T06:22:12.265Z</time>
      </trkpt>
      <trkpt lat="37.522656" lon="-5.184902">
        <ele>233.552162</ele>
        <time>2020-08-14T06:22:14.264Z</time>
      </trkpt>
      <trkpt lat="37.522644" lon="-5.185047">
        <ele>233.587263</ele>
        <time>2020-08-14T06:22:16.284Z</time>
      </trkpt>
      <trkpt lat="37.522644" lon="-5.185201">
        <ele>233.624341</ele>
        <time>2020-08-14T06:22:19.256Z</time>
      </trkpt>
      <trkpt lat="37.522647" lon="-5.185331">
        <ele>233.655654</ele>
        <time>2020-08-14T06:22:21.247Z</time>
      </trkpt>
      <trkpt lat="37.522641" lon="-5.185461">
        <ele>233.687006</ele>
        <time>2020-08-14T06:22:24.269Z</time>
      </trkpt>
      <trkpt lat="37.522650" lon="-5.185586">
        <ele>233.717226</ele>
        <time>2020-08-14T06:22:26.273Z</time>
      </trkpt>
      <trkpt lat="37.522667" lon="-5.185755">
        <ele>233.758241</ele>
        <time>2020-08-14T06:22:28.262Z</time>
      </trkpt>
      <trkpt lat="37.522690" lon="-5.185881">
        <ele>233.789371</ele>
        <time>2020-08-14T06:22:30.248Z</time>
      </trkpt>
      <trkpt lat="37.522687" lon="-5.186004">
        <ele>233.820604</ele>
        <time>2020-08-14T06:22:32.271Z</time>
      </trkpt>
      <trkpt lat="37.522688" lon="-5.186122">
        <ele>233.909200</ele>
        <time>2020-08-14T06:22:36.268Z</time>
      </trkpt>
      <trkpt lat="37.522698" lon="-5.186246">
        <ele>234.002776</ele>
        <time>2020-08-14T06:22:44.268Z</time>
      </trkpt>
      <trkpt lat="37.522711" lon="-5.186800">
        <ele>234.418885</ele>
        <time>2020-08-14T06:22:45.248Z</time>
      </trkpt>
      <trkpt lat="37.522699" lon="-5.186925">
        <ele>234.513416</ele>
        <time>2020-08-14T06:22:47.263Z</time>
      </trkpt>
      <trkpt lat="37.522715" lon="-5.187068">
        <ele>234.621839</ele>
        <time>2020-08-14T06:22:50.253Z</time>
      </trkpt>
      <trkpt lat="37.522720" lon="-5.187234">
        <ele>234.746557</ele>
        <time>2020-08-14T06:22:53.274Z</time>
      </trkpt>
      <trkpt lat="37.522737" lon="-5.187431">
        <ele>234.895332</ele>
        <time>2020-08-14T06:22:56.271Z</time>
      </trkpt>
      <trkpt lat="37.522740" lon="-5.187560">
        <ele>234.992223</ele>
        <time>2020-08-14T06:22:58.249Z</time>
      </trkpt>
      <trkpt lat="37.522763" lon="-5.187670">
        <ele>235.077629</ele>
        <time>2020-08-14T06:23:00.247Z</time>
      </trkpt>
      <trkpt lat="37.522770" lon="-5.187790">
        <ele>235.167965</ele>
        <time>2020-08-14T06:23:05.263Z</time>
      </trkpt>
      <trkpt lat="37.522800" lon="-5.187906">
        <ele>235.259567</ele>
        <time>2020-08-14T06:23:13.273Z</time>
      </trkpt>
      <trkpt lat="37.522779" lon="-5.188038">
        <ele>235.360643</ele>
        <time>2020-08-14T06:23:19.252Z</time>
      </trkpt>
      <trkpt lat="37.522750" lon="-5.188162">
        <ele>235.457702</ele>
        <time>2020-08-14T06:23:23.273Z</time>
      </trkpt>
      <trkpt lat="37.522778" lon="-5.188313">
        <ele>235.468076</ele>
        <time>2020-08-14T06:23:26.279Z</time>
      </trkpt>
      <trkpt lat="37.522842" lon="-5.189258">
        <ele>234.762439</ele>
        <time>2020-08-14T06:23:28.268Z</time>
      </trkpt>
      <trkpt lat="37.522852" lon="-5.189426">
        <ele>234.637096</ele>
        <time>2020-08-14T06:23:31.261Z</time>
      </trkpt>
      <trkpt lat="37.522852" lon="-5.189541">
        <ele>234.551536</ele>
        <time>2020-08-14T06:23:33.262Z</time>
      </trkpt>
      <trkpt lat="37.522848" lon="-5.189656">
        <ele>234.465894</ele>
        <time>2020-08-14T06:23:35.247Z</time>
      </trkpt>
      <trkpt lat="37.522884" lon="-5.189789">
        <ele>234.361339</ele>
        <time>2020-08-14T06:23:38.253Z</time>
      </trkpt>
      <trkpt lat="37.522884" lon="-5.189931">
        <ele>234.255691</ele>
        <time>2020-08-14T06:23:41.256Z</time>
      </trkpt>
      <trkpt lat="37.522892" lon="-5.190072">
        <ele>234.150519</ele>
        <time>2020-08-14T06:23:44.253Z</time>
      </trkpt>
      <trkpt lat="37.522894" lon="-5.190220">
        <ele>234.040392</ele>
        <time>2020-08-14T06:23:47.251Z</time>
      </trkpt>
      <trkpt lat="37.522894" lon="-5.190380">
        <ele>233.921352</ele>
        <time>2020-08-14T06:23:50.253Z</time>
      </trkpt>
      <trkpt lat="37.522893" lon="-5.190520">
        <ele>233.841294</ele>
        <time>2020-08-14T06:23:53.251Z</time>
      </trkpt>
      <trkpt lat="37.522897" lon="-5.190673">
        <ele>233.894721</ele>
        <time>2020-08-14T06:23:56.238Z</time>
      </trkpt>
      <trkpt lat="37.522905" lon="-5.190837">
        <ele>233.952067</ele>
        <time>2020-08-14T06:23:59.245Z</time>
      </trkpt>
      <trkpt lat="37.522929" lon="-5.190993">
        <ele>234.007528</ele>
        <time>2020-08-14T06:24:02.270Z</time>
      </trkpt>
      <trkpt lat="37.522936" lon="-5.191136">
        <ele>234.057531</ele>
        <time>2020-08-14T06:24:05.257Z</time>
      </trkpt>
      <trkpt lat="37.522947" lon="-5.191272">
        <ele>234.105242</ele>
        <time>2020-08-14T06:24:08.260Z</time>
      </trkpt>
      <trkpt lat="37.522954" lon="-5.191414">
        <ele>234.154897</ele>
        <time>2020-08-14T06:24:11.262Z</time>
      </trkpt>
      <trkpt lat="37.522959" lon="-5.191566">
        <ele>234.207992</ele>
        <time>2020-08-14T06:24:14.257Z</time>
      </trkpt>
      <trkpt lat="37.522968" lon="-5.191724">
        <ele>234.263278</ele>
        <time>2020-08-14T06:24:17.259Z</time>
      </trkpt>
      <trkpt lat="37.522961" lon="-5.191856">
        <ele>234.309450</ele>
        <time>2020-08-14T06:24:19.260Z</time>
      </trkpt>
      <trkpt lat="37.522984" lon="-5.191979">
        <ele>234.353555</ele>
        <time>2020-08-14T06:24:21.263Z</time>
      </trkpt>
      <trkpt lat="37.522986" lon="-5.192098">
        <ele>234.395097</ele>
        <time>2020-08-14T06:24:23.248Z</time>
      </trkpt>
      <trkpt lat="37.523005" lon="-5.192247">
        <ele>234.447767</ele>
        <time>2020-08-14T06:24:27.282Z</time>
      </trkpt>
      <trkpt lat="37.523016" lon="-5.192397">
        <ele>234.500342</ele>
        <time>2020-08-14T06:24:29.271Z</time>
      </trkpt>
      <trkpt lat="37.523036" lon="-5.192523">
        <ele>234.545189</ele>
        <time>2020-08-14T06:24:31.283Z</time>
      </trkpt>
      <trkpt lat="37.523064" lon="-5.192658">
        <ele>234.593890</ele>
        <time>2020-08-14T06:24:34.273Z</time>
      </trkpt>
      <trkpt lat="37.523089" lon="-5.192796">
        <ele>234.632403</ele>
        <time>2020-08-14T06:24:37.274Z</time>
      </trkpt>
      <trkpt lat="37.523106" lon="-5.192940">
        <ele>234.652811</ele>
        <time>2020-08-14T06:24:40.291Z</time>
      </trkpt>
      <trkpt lat="37.523133" lon="-5.193102">
        <ele>234.676015</ele>
        <time>2020-08-14T06:24:43.277Z</time>
      </trkpt>
      <trkpt lat="37.523161" lon="-5.193241">
        <ele>234.696118</ele>
        <time>2020-08-14T06:24:46.278Z</time>
      </trkpt>
      <trkpt lat="37.523211" lon="-5.193373">
        <ele>234.716624</ele>
        <time>2020-08-14T06:24:49.270Z</time>
      </trkpt>
      <trkpt lat="37.523297" lon="-5.193578">
        <ele>234.749132</ele>
        <time>2020-08-14T06:24:54.253Z</time>
      </trkpt>
      <trkpt lat="37.523368" lon="-5.193687">
        <ele>234.768904</ele>
        <time>2020-08-14T06:24:57.250Z</time>
      </trkpt>
      <trkpt lat="37.523427" lon="-5.193817">
        <ele>234.789899</ele>
        <time>2020-08-14T06:25:00.248Z</time>
      </trkpt>
      <trkpt lat="37.523466" lon="-5.193919">
        <ele>234.805772</ele>
        <time>2020-08-14T06:25:02.248Z</time>
      </trkpt>
      <trkpt lat="37.523531" lon="-5.194008">
        <ele>234.822731</ele>
        <time>2020-08-14T06:25:05.252Z</time>
      </trkpt>
      <trkpt lat="37.523586" lon="-5.194126">
        <ele>234.841917</ele>
        <time>2020-08-14T06:25:08.266Z</time>
      </trkpt>
      <trkpt lat="37.523647" lon="-5.194220">
        <ele>234.858942</ele>
        <time>2020-08-14T06:25:11.267Z</time>
      </trkpt>
      <trkpt lat="37.523721" lon="-5.194295">
        <ele>234.875722</ele>
        <time>2020-08-14T06:25:14.263Z</time>
      </trkpt>
      <trkpt lat="37.523819" lon="-5.194351">
        <ele>234.894739</ele>
        <time>2020-08-14T06:25:18.276Z</time>
      </trkpt>
      <trkpt lat="37.523918" lon="-5.194426">
        <ele>234.915152</ele>
        <time>2020-08-14T06:25:22.250Z</time>
      </trkpt>
      <trkpt lat="37.523995" lon="-5.194502">
        <ele>234.932434</ele>
        <time>2020-08-14T06:25:26.269Z</time>
      </trkpt>
      <trkpt lat="37.524030" lon="-5.194619">
        <ele>234.941315</ele>
        <time>2020-08-14T06:25:32.260Z</time>
      </trkpt>
      <trkpt lat="37.523930" lon="-5.195035">
        <ele>234.926676</ele>
        <time>2020-08-14T06:25:41.255Z</time>
      </trkpt>
      <trkpt lat="37.523861" lon="-5.195194">
        <ele>234.920572</ele>
        <time>2020-08-14T06:25:44.233Z</time>
      </trkpt>
      <trkpt lat="37.523819" lon="-5.195344">
        <ele>234.915215</ele>
        <time>2020-08-14T06:25:46.275Z</time>
      </trkpt>
      <trkpt lat="37.523740" lon="-5.195468">
        <ele>234.909859</ele>
        <time>2020-08-14T06:25:48.259Z</time>
      </trkpt>
      <trkpt lat="37.523666" lon="-5.195619">
        <ele>234.903881</ele>
        <time>2020-08-14T06:25:50.247Z</time>
      </trkpt>
      <trkpt lat="37.523622" lon="-5.195801">
        <ele>234.897474</ele>
        <time>2020-08-14T06:25:52.260Z</time>
      </trkpt>
      <trkpt lat="37.523595" lon="-5.195991">
        <ele>234.890973</ele>
        <time>2020-08-14T06:25:54.241Z</time>
      </trkpt>
      <trkpt lat="37.523577" lon="-5.196191">
        <ele>234.884195</ele>
        <time>2020-08-14T06:25:56.249Z</time>
      </trkpt>
      <trkpt lat="37.523565" lon="-5.196331">
        <ele>234.879453</ele>
        <time>2020-08-14T06:25:58.254Z</time>
      </trkpt>
      <trkpt lat="37.523565" lon="-5.196499">
        <ele>234.873795</ele>
        <time>2020-08-14T06:26:00.247Z</time>
      </trkpt>
      <trkpt lat="37.523577" lon="-5.196691">
        <ele>234.867309</ele>
        <time>2020-08-14T06:26:02.243Z</time>
      </trkpt>
      <trkpt lat="37.523568" lon="-5.196845">
        <ele>234.711417</ele>
        <time>2020-08-14T06:26:04.250Z</time>
      </trkpt>
      <trkpt lat="37.523572" lon="-5.196997">
        <ele>234.535078</ele>
        <time>2020-08-14T06:26:06.257Z</time>
      </trkpt>
      <trkpt lat="37.523575" lon="-5.197154">
        <ele>234.352985</ele>
        <time>2020-08-14T06:26:08.256Z</time>
      </trkpt>
      <trkpt lat="37.523589" lon="-5.197320">
        <ele>234.159424</ele>
        <time>2020-08-14T06:26:10.247Z</time>
      </trkpt>
      <trkpt lat="37.523588" lon="-5.197485">
        <ele>233.968103</ele>
        <time>2020-08-14T06:26:13.262Z</time>
      </trkpt>
      <trkpt lat="37.523505" lon="-5.197423">
        <ele>233.827063</ele>
        <time>2020-08-14T06:26:21.247Z</time>
      </trkpt>
      <trkpt lat="37.523539" lon="-5.197292">
        <ele>233.667244</ele>
        <time>2020-08-14T06:26:24.240Z</time>
      </trkpt>
      <trkpt lat="37.523552" lon="-5.197165">
        <ele>233.518767</ele>
        <time>2020-08-14T06:26:28.268Z</time>
      </trkpt>
      <trkpt lat="37.523552" lon="-5.197293">
        <ele>233.370352</ele>
        <time>2020-08-14T06:26:36.228Z</time>
      </trkpt>
      <trkpt lat="37.523573" lon="-5.197429">
        <ele>233.209701</ele>
        <time>2020-08-14T06:26:38.245Z</time>
      </trkpt>
      <trkpt lat="37.523586" lon="-5.197546">
        <ele>233.072715</ele>
        <time>2020-08-14T06:26:40.238Z</time>
      </trkpt>
      <trkpt lat="37.523608" lon="-5.197709">
        <ele>232.881001</ele>
        <time>2020-08-14T06:26:43.242Z</time>
      </trkpt>
      <trkpt lat="37.523612" lon="-5.197823">
        <ele>232.748690</ele>
        <time>2020-08-14T06:26:45.259Z</time>
      </trkpt>
      <trkpt lat="37.523597" lon="-5.197992">
        <ele>232.551513</ele>
        <time>2020-08-14T06:26:48.245Z</time>
      </trkpt>
      <trkpt lat="37.523585" lon="-5.198158">
        <ele>232.358240</ele>
        <time>2020-08-14T06:26:51.257Z</time>
      </trkpt>
      <trkpt lat="37.523594" lon="-5.198307">
        <ele>232.270938</ele>
        <time>2020-08-14T06:26:53.235Z</time>
      </trkpt>
      <trkpt lat="37.523624" lon="-5.198443">
        <ele>232.377401</ele>
        <time>2020-08-14T06:26:56.255Z</time>
      </trkpt>
      <trkpt lat="37.523652" lon="-5.198610">
        <ele>232.506135</ele>
        <time>2020-08-14T06:26:59.254Z</time>
      </trkpt>
      <trkpt lat="37.523640" lon="-5.198736">
        <ele>232.601846</ele>
        <time>2020-08-14T06:27:01.257Z</time>
      </trkpt>
      <trkpt lat="37.523637" lon="-5.198917">
        <ele>232.738385</ele>
        <time>2020-08-14T06:27:04.251Z</time>
      </trkpt>
      <trkpt lat="37.523643" lon="-5.199038">
        <ele>232.829821</ele>
        <time>2020-08-14T06:27:06.261Z</time>
      </trkpt>
      <trkpt lat="37.523637" lon="-5.199188">
        <ele>232.943094</ele>
        <time>2020-08-14T06:27:08.251Z</time>
      </trkpt>
      <trkpt lat="37.523664" lon="-5.199317">
        <ele>233.043716</ele>
        <time>2020-08-14T06:27:10.248Z</time>
      </trkpt>
      <trkpt lat="37.523666" lon="-5.199444">
        <ele>233.139517</ele>
        <time>2020-08-14T06:27:12.271Z</time>
      </trkpt>
      <trkpt lat="37.523687" lon="-5.199583">
        <ele>233.246235</ele>
        <time>2020-08-14T06:27:14.266Z</time>
      </trkpt>
      <trkpt lat="37.523697" lon="-5.199712">
        <ele>233.343990</ele>
        <time>2020-08-14T06:27:16.260Z</time>
      </trkpt>
      <trkpt lat="37.523703" lon="-5.199842">
        <ele>233.442200</ele>
        <time>2020-08-14T06:27:18.253Z</time>
      </trkpt>
      <trkpt lat="37.523703" lon="-5.200003">
        <ele>233.563626</ele>
        <time>2020-08-14T06:27:20.266Z</time>
      </trkpt>
      <trkpt lat="37.523736" lon="-5.200146">
        <ele>233.675948</ele>
        <time>2020-08-14T06:27:22.252Z</time>
      </trkpt>
      <trkpt lat="37.523750" lon="-5.200289">
        <ele>233.784616</ele>
        <time>2020-08-14T06:27:24.263Z</time>
      </trkpt>
      <trkpt lat="37.523780" lon="-5.200413">
        <ele>233.882390</ele>
        <time>2020-08-14T06:27:26.262Z</time>
      </trkpt>
      <trkpt lat="37.523783" lon="-5.200562">
        <ele>233.968747</ele>
        <time>2020-08-14T06:27:28.263Z</time>
      </trkpt>
      <trkpt lat="37.523815" lon="-5.200706">
        <ele>234.019456</ele>
        <time>2020-08-14T06:27:30.252Z</time>
      </trkpt>
      <trkpt lat="37.523824" lon="-5.200825">
        <ele>234.059991</ele>
        <time>2020-08-14T06:27:32.256Z</time>
      </trkpt>
      <trkpt lat="37.523832" lon="-5.200980">
        <ele>234.112661</ele>
        <time>2020-08-14T06:27:34.260Z</time>
      </trkpt>
      <trkpt lat="37.523859" lon="-5.201115">
        <ele>234.159871</ele>
        <time>2020-08-14T06:27:36.235Z</time>
      </trkpt>
      <trkpt lat="37.523903" lon="-5.201230">
        <ele>234.203167</ele>
        <time>2020-08-14T06:27:38.244Z</time>
      </trkpt>
      <trkpt lat="37.523935" lon="-5.201356">
        <ele>234.248030</ele>
        <time>2020-08-14T06:27:40.259Z</time>
      </trkpt>
      <trkpt lat="37.523934" lon="-5.201496">
        <ele>234.295504</ele>
        <time>2020-08-14T06:27:42.228Z</time>
      </trkpt>
      <trkpt lat="37.523945" lon="-5.201627">
        <ele>234.340173</ele>
        <time>2020-08-14T06:27:44.244Z</time>
      </trkpt>
      <trkpt lat="37.523946" lon="-5.201800">
        <ele>234.398837</ele>
        <time>2020-08-14T06:27:46.256Z</time>
      </trkpt>
      <trkpt lat="37.523962" lon="-5.201932">
        <ele>234.444116</ele>
        <time>2020-08-14T06:27:48.249Z</time>
      </trkpt>
      <trkpt lat="37.523952" lon="-5.202086">
        <ele>234.496511</ele>
        <time>2020-08-14T06:27:50.249Z</time>
      </trkpt>
      <trkpt lat="37.523984" lon="-5.202211">
        <ele>234.541050</ele>
        <time>2020-08-14T06:27:52.254Z</time>
      </trkpt>
      <trkpt lat="37.523971" lon="-5.202393">
        <ele>234.603014</ele>
        <time>2020-08-14T06:27:54.263Z</time>
      </trkpt>
      <trkpt lat="37.523986" lon="-5.202522">
        <ele>234.647225</ele>
        <time>2020-08-14T06:27:56.262Z</time>
      </trkpt>
      <trkpt lat="37.523961" lon="-5.202705">
        <ele>234.710192</ele>
        <time>2020-08-14T06:27:58.261Z</time>
      </trkpt>
      <trkpt lat="37.524001" lon="-5.202819">
        <ele>234.736776</ele>
        <time>2020-08-14T06:28:00.260Z</time>
      </trkpt>
      <trkpt lat="37.523997" lon="-5.202963">
        <ele>234.764339</ele>
        <time>2020-08-14T06:28:02.258Z</time>
      </trkpt>
      <trkpt lat="37.523984" lon="-5.203113">
        <ele>234.793204</ele>
        <time>2020-08-14T06:28:04.250Z</time>
      </trkpt>
      <trkpt lat="37.523989" lon="-5.203257">
        <ele>234.820777</ele>
        <time>2020-08-14T06:28:06.250Z</time>
      </trkpt>
      <trkpt lat="37.524010" lon="-5.203376">
        <ele>234.844098</ele>
        <time>2020-08-14T06:28:08.267Z</time>
      </trkpt>
      <trkpt lat="37.524025" lon="-5.203506">
        <ele>234.869228</ele>
        <time>2020-08-14T06:28:10.252Z</time>
      </trkpt>
      <trkpt lat="37.524032" lon="-5.203623">
        <ele>234.891673</ele>
        <time>2020-08-14T06:28:12.255Z</time>
      </trkpt>
      <trkpt lat="37.524055" lon="-5.203754">
        <ele>234.917339</ele>
        <time>2020-08-14T06:28:14.254Z</time>
      </trkpt>
      <trkpt lat="37.524059" lon="-5.203904">
        <ele>234.946049</ele>
        <time>2020-08-14T06:28:16.258Z</time>
      </trkpt>
      <trkpt lat="37.524078" lon="-5.204033">
        <ele>234.971148</ele>
        <time>2020-08-14T06:28:18.255Z</time>
      </trkpt>
      <trkpt lat="37.524085" lon="-5.204182">
        <ele>234.999701</ele>
        <time>2020-08-14T06:28:20.242Z</time>
      </trkpt>
      <trkpt lat="37.524083" lon="-5.204317">
        <ele>235.025530</ele>
        <time>2020-08-14T06:28:22.253Z</time>
      </trkpt>
      <trkpt lat="37.524079" lon="-5.204467">
        <ele>235.054241</ele>
        <time>2020-08-14T06:28:24.261Z</time>
      </trkpt>
      <trkpt lat="37.524094" lon="-5.204608">
        <ele>235.081455</ele>
        <time>2020-08-14T06:28:26.265Z</time>
      </trkpt>
      <trkpt lat="37.524101" lon="-5.204738">
        <ele>235.106380</ele>
        <time>2020-08-14T06:28:28.272Z</time>
      </trkpt>
      <trkpt lat="37.524118" lon="-5.204882">
        <ele>235.134230</ele>
        <time>2020-08-14T06:28:30.249Z</time>
      </trkpt>
      <trkpt lat="37.524141" lon="-5.205016">
        <ele>235.059444</ele>
        <time>2020-08-14T06:28:32.254Z</time>
      </trkpt>
      <trkpt lat="37.524139" lon="-5.205163">
        <ele>234.807765</ele>
        <time>2020-08-14T06:28:34.268Z</time>
      </trkpt>
      <trkpt lat="37.524141" lon="-5.205304">
        <ele>234.566355</ele>
        <time>2020-08-14T06:28:36.253Z</time>
      </trkpt>
      <trkpt lat="37.524135" lon="-5.205453">
        <ele>234.310960</ele>
        <time>2020-08-14T06:28:38.242Z</time>
      </trkpt>
      <trkpt lat="37.524106" lon="-5.205613">
        <ele>234.030001</ele>
        <time>2020-08-14T06:28:41.261Z</time>
      </trkpt>
      <trkpt lat="37.524093" lon="-5.205744">
        <ele>233.804000</ele>
        <time>2020-08-14T06:28:48.264Z</time>
      </trkpt>
      <trkpt lat="37.524061" lon="-5.205859">
        <ele>233.595371</ele>
        <time>2020-08-14T06:28:52.262Z</time>
      </trkpt>
      <trkpt lat="37.524044" lon="-5.205974">
        <ele>233.395117</ele>
        <time>2020-08-14T06:28:56.251Z</time>
      </trkpt>
      <trkpt lat="37.524054" lon="-5.206088">
        <ele>233.198775</ele>
        <time>2020-08-14T06:28:59.233Z</time>
      </trkpt>
      <trkpt lat="37.524062" lon="-5.206221">
        <ele>232.970444</ele>
        <time>2020-08-14T06:29:02.256Z</time>
      </trkpt>
      <trkpt lat="37.524068" lon="-5.206357">
        <ele>232.737272</ele>
        <time>2020-08-14T06:29:05.246Z</time>
      </trkpt>
      <trkpt lat="37.524075" lon="-5.206493">
        <ele>232.503970</ele>
        <time>2020-08-14T06:29:08.249Z</time>
      </trkpt>
      <trkpt lat="37.524085" lon="-5.206626">
        <ele>232.275272</ele>
        <time>2020-08-14T06:29:11.257Z</time>
      </trkpt>
      <trkpt lat="37.524092" lon="-5.206759">
        <ele>232.047094</ele>
        <time>2020-08-14T06:29:14.254Z</time>
      </trkpt>
      <trkpt lat="37.524104" lon="-5.206901">
        <ele>231.802635</ele>
        <time>2020-08-14T06:29:17.264Z</time>
      </trkpt>
      <trkpt lat="37.524124" lon="-5.207035">
        <ele>231.569220</ele>
        <time>2020-08-14T06:29:20.270Z</time>
      </trkpt>
      <trkpt lat="37.524137" lon="-5.207173">
        <ele>231.331323</ele>
        <time>2020-08-14T06:29:23.248Z</time>
      </trkpt>
      <trkpt lat="37.524158" lon="-5.207313">
        <ele>231.244016</ele>
        <time>2020-08-14T06:29:26.255Z</time>
      </trkpt>
      <trkpt lat="37.524184" lon="-5.207465">
        <ele>231.208620</ele>
        <time>2020-08-14T06:29:29.254Z</time>
      </trkpt>
      <trkpt lat="37.524204" lon="-5.207623">
        <ele>231.172199</ele>
        <time>2020-08-14T06:29:32.245Z</time>
      </trkpt>
      <trkpt lat="37.524229" lon="-5.207770">
        <ele>231.137976</ele>
        <time>2020-08-14T06:29:35.238Z</time>
      </trkpt>
      <trkpt lat="37.524242" lon="-5.207936">
        <ele>231.100005</ele>
        <time>2020-08-14T06:29:38.251Z</time>
      </trkpt>
      <trkpt lat="37.524240" lon="-5.208066">
        <ele>231.070408</ele>
        <time>2020-08-14T06:29:40.263Z</time>
      </trkpt>
      <trkpt lat="37.524251" lon="-5.208183">
        <ele>231.043588</ele>
        <time>2020-08-14T06:29:42.264Z</time>
      </trkpt>
      <trkpt lat="37.524262" lon="-5.208341">
        <ele>231.007484</ele>
        <time>2020-08-14T06:29:45.252Z</time>
      </trkpt>
      <trkpt lat="37.524273" lon="-5.208473">
        <ele>230.977271</ele>
        <time>2020-08-14T06:29:47.265Z</time>
      </trkpt>
      <trkpt lat="37.524283" lon="-5.208594">
        <ele>230.949578</ele>
        <time>2020-08-14T06:29:49.251Z</time>
      </trkpt>
      <trkpt lat="37.524321" lon="-5.208705">
        <ele>230.922058</ele>
        <time>2020-08-14T06:29:51.253Z</time>
      </trkpt>
      <trkpt lat="37.524319" lon="-5.208864">
        <ele>230.885860</ele>
        <time>2020-08-14T06:29:54.253Z</time>
      </trkpt>
      <trkpt lat="37.524339" lon="-5.209023">
        <ele>230.849214</ele>
        <time>2020-08-14T06:29:57.250Z</time>
      </trkpt>
      <trkpt lat="37.524333" lon="-5.209204">
        <ele>230.807976</ele>
        <time>2020-08-14T06:30:00.250Z</time>
      </trkpt>
      <trkpt lat="37.524352" lon="-5.209328">
        <ele>230.779228</ele>
        <time>2020-08-14T06:30:02.265Z</time>
      </trkpt>
      <trkpt lat="37.524360" lon="-5.209449">
        <ele>230.753812</ele>
        <time>2020-08-14T06:30:04.252Z</time>
      </trkpt>
      <trkpt lat="37.524381" lon="-5.209608">
        <ele>231.120578</ele>
        <time>2020-08-14T06:30:07.259Z</time>
      </trkpt>
      <trkpt lat="37.524393" lon="-5.209737">
        <ele>231.416112</ele>
        <time>2020-08-14T06:30:09.242Z</time>
      </trkpt>
      <trkpt lat="37.524424" lon="-5.209883">
        <ele>231.760015</ele>
        <time>2020-08-14T06:30:13.282Z</time>
      </trkpt>
      <trkpt lat="37.524418" lon="-5.210835">
        <ele>233.926233</ele>
        <time>2020-08-14T06:30:43.312Z</time>
      </trkpt>
      <trkpt lat="37.524299" lon="-5.211074">
        <ele>234.568333</ele>
        <time>2020-08-14T06:30:46.265Z</time>
      </trkpt>
      <trkpt lat="37.524221" lon="-5.211191">
        <ele>234.916112</ele>
        <time>2020-08-14T06:30:49.268Z</time>
      </trkpt>
      <trkpt lat="37.524185" lon="-5.211311">
        <ele>235.208038</ele>
        <time>2020-08-14T06:30:51.265Z</time>
      </trkpt>
      <trkpt lat="37.524178" lon="-5.211439">
        <ele>235.499977</ele>
        <time>2020-08-14T06:30:53.264Z</time>
      </trkpt>
      <trkpt lat="37.524181" lon="-5.211558">
        <ele>235.770884</ele>
        <time>2020-08-14T06:30:55.270Z</time>
      </trkpt>
      <trkpt lat="37.524208" lon="-5.211702">
        <ele>235.705056</ele>
        <time>2020-08-14T06:30:59.266Z</time>
      </trkpt>
      <trkpt lat="37.524228" lon="-5.211826">
        <ele>235.400220</ele>
        <time>2020-08-14T06:31:02.270Z</time>
      </trkpt>
      <trkpt lat="37.524218" lon="-5.212019">
        <ele>234.934284</ele>
        <time>2020-08-14T06:31:03.268Z</time>
      </trkpt>
      <trkpt lat="37.524648" lon="-5.213029">
        <ele>232.172750</ele>
        <time>2020-08-14T06:31:04.262Z</time>
      </trkpt>
      <trkpt lat="37.524674" lon="-5.213172">
        <ele>231.819322</ele>
        <time>2020-08-14T06:31:06.246Z</time>
      </trkpt>
      <trkpt lat="37.524670" lon="-5.213292">
        <ele>231.529984</ele>
        <time>2020-08-14T06:31:08.242Z</time>
      </trkpt>
      <trkpt lat="37.524677" lon="-5.213410">
        <ele>231.244925</ele>
        <time>2020-08-14T06:31:10.276Z</time>
      </trkpt>
      <trkpt lat="37.524691" lon="-5.213535">
        <ele>230.940809</ele>
        <time>2020-08-14T06:31:12.257Z</time>
      </trkpt>
      <trkpt lat="37.524721" lon="-5.213673">
        <ele>230.596100</ele>
        <time>2020-08-14T06:31:14.262Z</time>
      </trkpt>
      <trkpt lat="37.524730" lon="-5.213798">
        <ele>230.326857</ele>
        <time>2020-08-14T06:31:16.266Z</time>
      </trkpt>
      <trkpt lat="37.524739" lon="-5.213921">
        <ele>230.092911</ele>
        <time>2020-08-14T06:31:18.256Z</time>
      </trkpt>
      <trkpt lat="37.524741" lon="-5.214043">
        <ele>229.861800</ele>
        <time>2020-08-14T06:31:20.269Z</time>
      </trkpt>
      <trkpt lat="37.524766" lon="-5.214169">
        <ele>229.615807</ele>
        <time>2020-08-14T06:31:24.270Z</time>
      </trkpt>
      <trkpt lat="37.524794" lon="-5.214427">
        <ele>229.122614</ele>
        <time>2020-08-14T06:31:26.277Z</time>
      </trkpt>
      <trkpt lat="37.524787" lon="-5.214572">
        <ele>228.847483</ele>
        <time>2020-08-14T06:31:29.245Z</time>
      </trkpt>
      <trkpt lat="37.524802" lon="-5.214701">
        <ele>228.600551</ele>
        <time>2020-08-14T06:31:31.247Z</time>
      </trkpt>
      <trkpt lat="37.524801" lon="-5.214821">
        <ele>228.373265</ele>
        <time>2020-08-14T06:31:35.270Z</time>
      </trkpt>
      <trkpt lat="37.524810" lon="-5.215012">
        <ele>228.010883</ele>
        <time>2020-08-14T06:31:37.278Z</time>
      </trkpt>
      <trkpt lat="37.524798" lon="-5.215164">
        <ele>227.721579</ele>
        <time>2020-08-14T06:31:39.252Z</time>
      </trkpt>
      <trkpt lat="37.524834" lon="-5.215329">
        <ele>227.397468</ele>
        <time>2020-08-14T06:31:42.260Z</time>
      </trkpt>
      <trkpt lat="37.524862" lon="-5.215444">
        <ele>227.169631</ele>
        <time>2020-08-14T06:31:45.273Z</time>
      </trkpt>
      <trkpt lat="37.524870" lon="-5.215558">
        <ele>226.952877</ele>
        <time>2020-08-14T06:31:47.276Z</time>
      </trkpt>
      <trkpt lat="37.524878" lon="-5.215675">
        <ele>226.730463</ele>
        <time>2020-08-14T06:31:49.261Z</time>
      </trkpt>
      <trkpt lat="37.524890" lon="-5.215830">
        <ele>226.435506</ele>
        <time>2020-08-14T06:31:52.262Z</time>
      </trkpt>
      <trkpt lat="37.524900" lon="-5.215959">
        <ele>226.190022</ele>
        <time>2020-08-14T06:31:54.268Z</time>
      </trkpt>
      <trkpt lat="37.524902" lon="-5.216105">
        <ele>226.009085</ele>
        <time>2020-08-14T06:31:56.250Z</time>
      </trkpt>
      <trkpt lat="37.524903" lon="-5.216248">
        <ele>225.846191</ele>
        <time>2020-08-14T06:31:58.265Z</time>
      </trkpt>
      <trkpt lat="37.524915" lon="-5.216363">
        <ele>225.714068</ele>
        <time>2020-08-14T06:32:00.255Z</time>
      </trkpt>
      <trkpt lat="37.524917" lon="-5.216480">
        <ele>225.580765</ele>
        <time>2020-08-14T06:32:04.279Z</time>
      </trkpt>
      <trkpt lat="37.524945" lon="-5.216703">
        <ele>225.323588</ele>
        <time>2020-08-14T06:32:07.270Z</time>
      </trkpt>
      <trkpt lat="37.524952" lon="-5.216833">
        <ele>225.175167</ele>
        <time>2020-08-14T06:32:09.252Z</time>
      </trkpt>
      <trkpt lat="37.524963" lon="-5.216991">
        <ele>224.994501</ele>
        <time>2020-08-14T06:32:12.264Z</time>
      </trkpt>
      <trkpt lat="37.524970" lon="-5.217110">
        <ele>224.858579</ele>
        <time>2020-08-14T06:32:15.281Z</time>
      </trkpt>
      <trkpt lat="37.524984" lon="-5.217304">
        <ele>224.636686</ele>
        <time>2020-08-14T06:32:17.253Z</time>
      </trkpt>
      <trkpt lat="37.524997" lon="-5.217423">
        <ele>224.499856</ele>
        <time>2020-08-14T06:32:19.237Z</time>
      </trkpt>
      <trkpt lat="37.525008" lon="-5.217550">
        <ele>224.354333</ele>
        <time>2020-08-14T06:32:21.261Z</time>
      </trkpt>
      <trkpt lat="37.525022" lon="-5.217694">
        <ele>224.189079</ele>
        <time>2020-08-14T06:32:24.264Z</time>
      </trkpt>
      <trkpt lat="37.525058" lon="-5.217912">
        <ele>223.935435</ele>
        <time>2020-08-14T06:32:26.271Z</time>
      </trkpt>
      <trkpt lat="37.525077" lon="-5.218120">
        <ele>223.696941</ele>
        <time>2020-08-14T06:32:29.243Z</time>
      </trkpt>
      <trkpt lat="37.525120" lon="-5.218275">
        <ele>223.561356</ele>
        <time>2020-08-14T06:32:33.263Z</time>
      </trkpt>
      <trkpt lat="37.525127" lon="-5.218418">
        <ele>223.537730</ele>
        <time>2020-08-14T06:32:35.265Z</time>
      </trkpt>
      <trkpt lat="37.525142" lon="-5.218545">
        <ele>223.516556</ele>
        <time>2020-08-14T06:32:37.260Z</time>
      </trkpt>
      <trkpt lat="37.525162" lon="-5.218721">
        <ele>223.487237</ele>
        <time>2020-08-14T06:32:40.265Z</time>
      </trkpt>
      <trkpt lat="37.525168" lon="-5.218888">
        <ele>223.459671</ele>
        <time>2020-08-14T06:32:43.268Z</time>
      </trkpt>
      <trkpt lat="37.525184" lon="-5.219070">
        <ele>223.429475</ele>
        <time>2020-08-14T06:32:46.262Z</time>
      </trkpt>
      <trkpt lat="37.525199" lon="-5.219204">
        <ele>223.407159</ele>
        <time>2020-08-14T06:32:48.269Z</time>
      </trkpt>
      <trkpt lat="37.525208" lon="-5.219321">
        <ele>223.387775</ele>
        <time>2020-08-14T06:32:50.250Z</time>
      </trkpt>
      <trkpt lat="37.525213" lon="-5.219440">
        <ele>223.368125</ele>
        <time>2020-08-14T06:32:52.255Z</time>
      </trkpt>
      <trkpt lat="37.525226" lon="-5.219570">
        <ele>223.346518</ele>
        <time>2020-08-14T06:32:54.251Z</time>
      </trkpt>
      <trkpt lat="37.525204" lon="-5.219739">
        <ele>223.318277</ele>
        <time>2020-08-14T06:32:57.269Z</time>
      </trkpt>
      <trkpt lat="37.525209" lon="-5.219863">
        <ele>223.297802</ele>
        <time>2020-08-14T06:32:59.259Z</time>
      </trkpt>
      <trkpt lat="37.525203" lon="-5.220020">
        <ele>223.271883</ele>
        <time>2020-08-14T06:33:01.245Z</time>
      </trkpt>
      <trkpt lat="37.525215" lon="-5.220173">
        <ele>223.246530</ele>
        <time>2020-08-14T06:33:03.258Z</time>
      </trkpt>
      <trkpt lat="37.525229" lon="-5.220295">
        <ele>223.226203</ele>
        <time>2020-08-14T06:33:05.248Z</time>
      </trkpt>
      <trkpt lat="37.525248" lon="-5.220430">
        <ele>223.203593</ele>
        <time>2020-08-14T06:33:07.249Z</time>
      </trkpt>
      <trkpt lat="37.525264" lon="-5.220561">
        <ele>223.168898</ele>
        <time>2020-08-14T06:33:09.253Z</time>
      </trkpt>
      <trkpt lat="37.525276" lon="-5.220688">
        <ele>223.128940</ele>
        <time>2020-08-14T06:33:11.258Z</time>
      </trkpt>
      <trkpt lat="37.525296" lon="-5.220810">
        <ele>223.090018</ele>
        <time>2020-08-14T06:33:13.266Z</time>
      </trkpt>
      <trkpt lat="37.525323" lon="-5.220963">
        <ele>223.041048</ele>
        <time>2020-08-14T06:33:16.255Z</time>
      </trkpt>
      <trkpt lat="37.525340" lon="-5.221104">
        <ele>222.996489</ele>
        <time>2020-08-14T06:33:18.263Z</time>
      </trkpt>
      <trkpt lat="37.525373" lon="-5.221284">
        <ele>222.938770</ele>
        <time>2020-08-14T06:33:20.268Z</time>
      </trkpt>
      <trkpt lat="37.525370" lon="-5.221442">
        <ele>222.889392</ele>
        <time>2020-08-14T06:33:23.259Z</time>
      </trkpt>
      <trkpt lat="37.525387" lon="-5.221565">
        <ele>222.850385</ele>
        <time>2020-08-14T06:33:25.275Z</time>
      </trkpt>
      <trkpt lat="37.525389" lon="-5.221703">
        <ele>222.807263</ele>
        <time>2020-08-14T06:33:27.255Z</time>
      </trkpt>
      <trkpt lat="37.525394" lon="-5.221837">
        <ele>222.765351</ele>
        <time>2020-08-14T06:33:30.272Z</time>
      </trkpt>
      <trkpt lat="37.525402" lon="-5.221962">
        <ele>222.726171</ele>
        <time>2020-08-14T06:33:32.265Z</time>
      </trkpt>
      <trkpt lat="37.525411" lon="-5.222112">
        <ele>222.679174</ele>
        <time>2020-08-14T06:33:34.271Z</time>
      </trkpt>
      <trkpt lat="37.525441" lon="-5.222227">
        <ele>222.641351</ele>
        <time>2020-08-14T06:33:36.258Z</time>
      </trkpt>
      <trkpt lat="37.525463" lon="-5.222360">
        <ele>222.598904</ele>
        <time>2020-08-14T06:33:38.269Z</time>
      </trkpt>
      <trkpt lat="37.525483" lon="-5.222476">
        <ele>222.561816</ele>
        <time>2020-08-14T06:33:40.259Z</time>
      </trkpt>
      <trkpt lat="37.525500" lon="-5.222589">
        <ele>222.525883</ele>
        <time>2020-08-14T06:33:43.282Z</time>
      </trkpt>
      <trkpt lat="37.525512" lon="-5.222748">
        <ele>222.475587</ele>
        <time>2020-08-14T06:33:45.277Z</time>
      </trkpt>
      <trkpt lat="37.525510" lon="-5.222922">
        <ele>222.419356</ele>
        <time>2020-08-14T06:33:47.271Z</time>
      </trkpt>
      <trkpt lat="37.525507" lon="-5.223047">
        <ele>222.378947</ele>
        <time>2020-08-14T06:33:49.263Z</time>
      </trkpt>
      <trkpt lat="37.525514" lon="-5.223162">
        <ele>222.341677</ele>
        <time>2020-08-14T06:33:51.271Z</time>
      </trkpt>
      <trkpt lat="37.525541" lon="-5.223282">
        <ele>222.301372</ele>
        <time>2020-08-14T06:33:54.252Z</time>
      </trkpt>
      <trkpt lat="37.525580" lon="-5.223415">
        <ele>222.255552</ele>
        <time>2020-08-14T06:33:56.262Z</time>
      </trkpt>
      <trkpt lat="37.525587" lon="-5.223560">
        <ele>222.208612</ele>
        <time>2020-08-14T06:33:59.253Z</time>
      </trkpt>
      <trkpt lat="37.525583" lon="-5.223714">
        <ele>222.158823</ele>
        <time>2020-08-14T06:34:02.284Z</time>
      </trkpt>
      <trkpt lat="37.525593" lon="-5.223831">
        <ele>222.120798</ele>
        <time>2020-08-14T06:34:04.275Z</time>
      </trkpt>
      <trkpt lat="37.525596" lon="-5.223968">
        <ele>222.076512</ele>
        <time>2020-08-14T06:34:07.272Z</time>
      </trkpt>
      <trkpt lat="37.525626" lon="-5.224076">
        <ele>222.039536</ele>
        <time>2020-08-14T06:34:10.257Z</time>
      </trkpt>
      <trkpt lat="37.525640" lon="-5.224241">
        <ele>221.985915</ele>
        <time>2020-08-14T06:34:12.243Z</time>
      </trkpt>
      <trkpt lat="37.525629" lon="-5.224367">
        <ele>221.944955</ele>
        <time>2020-08-14T06:34:14.270Z</time>
      </trkpt>
      <trkpt lat="37.525626" lon="-5.224492">
        <ele>221.904545</ele>
        <time>2020-08-14T06:34:17.268Z</time>
      </trkpt>
      <trkpt lat="37.525644" lon="-5.224631">
        <ele>221.859036</ele>
        <time>2020-08-14T06:34:18.268Z</time>
      </trkpt>
      <trkpt lat="37.525656" lon="-5.224808">
        <ele>221.801633</ele>
        <time>2020-08-14T06:34:21.264Z</time>
      </trkpt>
      <trkpt lat="37.525673" lon="-5.224955">
        <ele>221.752894</ele>
        <time>2020-08-14T06:34:24.270Z</time>
      </trkpt>
      <trkpt lat="37.525683" lon="-5.225116">
        <ele>221.664843</ele>
        <time>2020-08-14T06:34:26.267Z</time>
      </trkpt>
      <trkpt lat="37.525685" lon="-5.225280">
        <ele>221.575415</ele>
        <time>2020-08-14T06:34:28.252Z</time>
      </trkpt>
      <trkpt lat="37.525687" lon="-5.225394">
        <ele>221.513243</ele>
        <time>2020-08-14T06:34:30.272Z</time>
      </trkpt>
      <trkpt lat="37.525692" lon="-5.225541">
        <ele>221.433020</ele>
        <time>2020-08-14T06:34:32.270Z</time>
      </trkpt>
      <trkpt lat="37.525721" lon="-5.225716">
        <ele>221.335544</ele>
        <time>2020-08-14T06:34:34.261Z</time>
      </trkpt>
      <trkpt lat="37.525739" lon="-5.225865">
        <ele>221.253367</ele>
        <time>2020-08-14T06:34:37.249Z</time>
      </trkpt>
      <trkpt lat="37.525744" lon="-5.226003">
        <ele>221.178046</ele>
        <time>2020-08-14T06:34:39.267Z</time>
      </trkpt>
      <trkpt lat="37.525760" lon="-5.226194">
        <ele>221.073328</ele>
        <time>2020-08-14T06:34:42.284Z</time>
      </trkpt>
      <trkpt lat="37.525773" lon="-5.226332">
        <ele>220.997557</ele>
        <time>2020-08-14T06:34:44.247Z</time>
      </trkpt>
      <trkpt lat="37.525785" lon="-5.226479">
        <ele>220.916984</ele>
        <time>2020-08-14T06:34:47.276Z</time>
      </trkpt>
      <trkpt lat="37.525798" lon="-5.226633">
        <ele>220.832544</ele>
        <time>2020-08-14T06:34:49.253Z</time>
      </trkpt>
      <trkpt lat="37.525808" lon="-5.226756">
        <ele>220.765129</ele>
        <time>2020-08-14T06:34:51.272Z</time>
      </trkpt>
      <trkpt lat="37.525843" lon="-5.226916">
        <ele>220.674635</ele>
        <time>2020-08-14T06:34:54.262Z</time>
      </trkpt>
      <trkpt lat="37.525843" lon="-5.227091">
        <ele>220.579219</ele>
        <time>2020-08-14T06:34:57.248Z</time>
      </trkpt>
      <trkpt lat="37.525863" lon="-5.227223">
        <ele>220.497188</ele>
        <time>2020-08-14T06:35:00.270Z</time>
      </trkpt>
      <trkpt lat="37.525882" lon="-5.227400">
        <ele>220.329953</ele>
        <time>2020-08-14T06:35:03.276Z</time>
      </trkpt>
      <trkpt lat="37.525894" lon="-5.227596">
        <ele>220.145894</ele>
        <time>2020-08-14T06:35:05.274Z</time>
      </trkpt>
      <trkpt lat="37.525909" lon="-5.227726">
        <ele>220.022895</ele>
        <time>2020-08-14T06:35:07.252Z</time>
      </trkpt>
      <trkpt lat="37.525924" lon="-5.227858">
        <ele>219.898042</ele>
        <time>2020-08-14T06:35:09.279Z</time>
      </trkpt>
      <trkpt lat="37.525927" lon="-5.227992">
        <ele>219.772529</ele>
        <time>2020-08-14T06:35:11.250Z</time>
      </trkpt>
      <trkpt lat="37.525937" lon="-5.228125">
        <ele>219.647443</ele>
        <time>2020-08-14T06:35:13.260Z</time>
      </trkpt>
      <trkpt lat="37.525939" lon="-5.228248">
        <ele>219.532255</ele>
        <time>2020-08-14T06:35:15.277Z</time>
      </trkpt>
      <trkpt lat="37.525948" lon="-5.228380">
        <ele>219.408209</ele>
        <time>2020-08-14T06:35:17.270Z</time>
      </trkpt>
      <trkpt lat="37.525959" lon="-5.228496">
        <ele>219.298825</ele>
        <time>2020-08-14T06:35:19.251Z</time>
      </trkpt>
      <trkpt lat="37.525979" lon="-5.228640">
        <ele>219.161948</ele>
        <time>2020-08-14T06:35:22.273Z</time>
      </trkpt>
      <trkpt lat="37.525994" lon="-5.228805">
        <ele>219.006448</ele>
        <time>2020-08-14T06:35:24.285Z</time>
      </trkpt>
      <trkpt lat="37.526002" lon="-5.228958">
        <ele>218.862884</ele>
        <time>2020-08-14T06:35:26.273Z</time>
      </trkpt>
      <trkpt lat="37.526026" lon="-5.229093">
        <ele>218.733348</ele>
        <time>2020-08-14T06:35:28.265Z</time>
      </trkpt>
      <trkpt lat="37.526042" lon="-5.229234">
        <ele>218.599987</ele>
        <time>2020-08-14T06:35:30.270Z</time>
      </trkpt>
      <trkpt lat="37.526058" lon="-5.229374">
        <ele>218.467552</ele>
        <time>2020-08-14T06:35:32.270Z</time>
      </trkpt>
      <trkpt lat="37.526052" lon="-5.229545">
        <ele>218.394849</ele>
        <time>2020-08-14T06:35:35.249Z</time>
      </trkpt>
      <trkpt lat="37.526045" lon="-5.229696">
        <ele>218.395065</ele>
        <time>2020-08-14T06:35:37.282Z</time>
      </trkpt>
      <trkpt lat="37.526072" lon="-5.229895">
        <ele>218.395353</ele>
        <time>2020-08-14T06:35:40.284Z</time>
      </trkpt>
      <trkpt lat="37.526097" lon="-5.230035">
        <ele>218.395557</ele>
        <time>2020-08-14T06:35:42.271Z</time>
      </trkpt>
      <trkpt lat="37.526105" lon="-5.230175">
        <ele>218.395757</ele>
        <time>2020-08-14T06:35:44.272Z</time>
      </trkpt>
      <trkpt lat="37.526123" lon="-5.230309">
        <ele>218.395951</ele>
        <time>2020-08-14T06:35:46.258Z</time>
      </trkpt>
      <trkpt lat="37.526158" lon="-5.230447">
        <ele>218.396158</ele>
        <time>2020-08-14T06:35:48.263Z</time>
      </trkpt>
      <trkpt lat="37.526166" lon="-5.230582">
        <ele>218.396351</ele>
        <time>2020-08-14T06:35:50.254Z</time>
      </trkpt>
      <trkpt lat="37.526178" lon="-5.230705">
        <ele>218.396527</ele>
        <time>2020-08-14T06:35:52.256Z</time>
      </trkpt>
      <trkpt lat="37.526195" lon="-5.230827">
        <ele>218.396704</ele>
        <time>2020-08-14T06:35:54.261Z</time>
      </trkpt>
      <trkpt lat="37.526220" lon="-5.230978">
        <ele>218.396924</ele>
        <time>2020-08-14T06:35:56.266Z</time>
      </trkpt>
      <trkpt lat="37.526222" lon="-5.231102">
        <ele>218.397101</ele>
        <time>2020-08-14T06:35:58.247Z</time>
      </trkpt>
      <trkpt lat="37.526243" lon="-5.231226">
        <ele>218.397282</ele>
        <time>2020-08-14T06:36:00.262Z</time>
      </trkpt>
      <trkpt lat="37.526261" lon="-5.231362">
        <ele>218.397478</ele>
        <time>2020-08-14T06:36:03.277Z</time>
      </trkpt>
      <trkpt lat="37.526275" lon="-5.231485">
        <ele>218.397655</ele>
        <time>2020-08-14T06:36:05.271Z</time>
      </trkpt>
      <trkpt lat="37.526291" lon="-5.231597">
        <ele>218.397818</ele>
        <time>2020-08-14T06:36:07.288Z</time>
      </trkpt>
      <trkpt lat="37.526300" lon="-5.231727">
        <ele>218.401032</ele>
        <time>2020-08-14T06:36:09.274Z</time>
      </trkpt>
      <trkpt lat="37.526309" lon="-5.231868">
        <ele>218.412524</ele>
        <time>2020-08-14T06:36:11.252Z</time>
      </trkpt>
      <trkpt lat="37.526325" lon="-5.232003">
        <ele>218.423613</ele>
        <time>2020-08-14T06:36:13.272Z</time>
      </trkpt>
      <trkpt lat="37.526347" lon="-5.232121">
        <ele>218.433461</ele>
        <time>2020-08-14T06:36:15.254Z</time>
      </trkpt>
      <trkpt lat="37.526379" lon="-5.232278">
        <ele>218.446630</ele>
        <time>2020-08-14T06:36:18.265Z</time>
      </trkpt>
      <trkpt lat="37.526418" lon="-5.232421">
        <ele>218.458916</ele>
        <time>2020-08-14T06:36:21.271Z</time>
      </trkpt>
      <trkpt lat="37.526452" lon="-5.232554">
        <ele>218.470268</ele>
        <time>2020-08-14T06:36:24.273Z</time>
      </trkpt>
      <trkpt lat="37.526468" lon="-5.232717">
        <ele>218.483612</ele>
        <time>2020-08-14T06:36:27.274Z</time>
      </trkpt>
      <trkpt lat="37.526469" lon="-5.232857">
        <ele>218.494986</ele>
        <time>2020-08-14T06:36:29.273Z</time>
      </trkpt>
      <trkpt lat="37.526473" lon="-5.233000">
        <ele>218.506611</ele>
        <time>2020-08-14T06:36:31.269Z</time>
      </trkpt>
      <trkpt lat="37.526485" lon="-5.233128">
        <ele>218.517082</ele>
        <time>2020-08-14T06:36:33.275Z</time>
      </trkpt>
      <trkpt lat="37.526491" lon="-5.233247">
        <ele>218.526769</ele>
        <time>2020-08-14T06:36:35.260Z</time>
      </trkpt>
      <trkpt lat="37.526458" lon="-5.233418">
        <ele>218.541067</ele>
        <time>2020-08-14T06:36:38.253Z</time>
      </trkpt>
      <trkpt lat="37.526440" lon="-5.233538">
        <ele>218.550988</ele>
        <time>2020-08-14T06:36:40.259Z</time>
      </trkpt>
      <trkpt lat="37.526432" lon="-5.233655">
        <ele>218.560529</ele>
        <time>2020-08-14T06:36:42.276Z</time>
      </trkpt>
      <trkpt lat="37.526431" lon="-5.233790">
        <ele>218.571497</ele>
        <time>2020-08-14T06:36:46.271Z</time>
      </trkpt>
      <trkpt lat="37.526411" lon="-5.233978">
        <ele>218.553359</ele>
        <time>2020-08-14T06:36:48.278Z</time>
      </trkpt>
      <trkpt lat="37.526427" lon="-5.234094">
        <ele>218.494747</ele>
        <time>2020-08-14T06:36:50.245Z</time>
      </trkpt>
      <trkpt lat="37.526437" lon="-5.234254">
        <ele>218.414853</ele>
        <time>2020-08-14T06:36:53.259Z</time>
      </trkpt>
      <trkpt lat="37.526462" lon="-5.234413">
        <ele>218.334162</ele>
        <time>2020-08-14T06:36:57.268Z</time>
      </trkpt>
      <trkpt lat="37.526504" lon="-5.234622">
        <ele>218.226834</ele>
        <time>2020-08-14T06:37:00.266Z</time>
      </trkpt>
      <trkpt lat="37.526512" lon="-5.234757">
        <ele>218.159444</ele>
        <time>2020-08-14T06:37:03.269Z</time>
      </trkpt>
      <trkpt lat="37.526524" lon="-5.234913">
        <ele>218.081423</ele>
        <time>2020-08-14T06:37:06.264Z</time>
      </trkpt>
      <trkpt lat="37.526537" lon="-5.235082">
        <ele>217.996900</ele>
        <time>2020-08-14T06:37:09.257Z</time>
      </trkpt>
      <trkpt lat="37.526539" lon="-5.235202">
        <ele>217.937151</ele>
        <time>2020-08-14T06:37:11.271Z</time>
      </trkpt>
      <trkpt lat="37.526532" lon="-5.235358">
        <ele>217.859370</ele>
        <time>2020-08-14T06:37:14.246Z</time>
      </trkpt>
      <trkpt lat="37.526549" lon="-5.235511">
        <ele>217.782463</ele>
        <time>2020-08-14T06:37:17.256Z</time>
      </trkpt>
      <trkpt lat="37.526547" lon="-5.235638">
        <ele>217.719230</ele>
        <time>2020-08-14T06:37:19.259Z</time>
      </trkpt>
      <trkpt lat="37.526567" lon="-5.235798">
        <ele>217.638599</ele>
        <time>2020-08-14T06:37:22.250Z</time>
      </trkpt>
      <trkpt lat="37.526594" lon="-5.235957">
        <ele>217.557655</ele>
        <time>2020-08-14T06:37:25.267Z</time>
      </trkpt>
      <trkpt lat="37.526606" lon="-5.236110">
        <ele>217.481120</ele>
        <time>2020-08-14T06:37:28.247Z</time>
      </trkpt>
      <trkpt lat="37.526621" lon="-5.236268">
        <ele>217.495908</ele>
        <time>2020-08-14T06:37:31.248Z</time>
      </trkpt>
      <trkpt lat="37.526626" lon="-5.236441">
        <ele>217.567601</ele>
        <time>2020-08-14T06:37:34.245Z</time>
      </trkpt>
      <trkpt lat="37.526644" lon="-5.236569">
        <ele>217.621437</ele>
        <time>2020-08-14T06:37:37.254Z</time>
      </trkpt>
      <trkpt lat="37.526648" lon="-5.236701">
        <ele>217.676143</ele>
        <time>2020-08-14T06:37:40.255Z</time>
      </trkpt>
      <trkpt lat="37.526666" lon="-5.236818">
        <ele>217.725500</ele>
        <time>2020-08-14T06:37:42.253Z</time>
      </trkpt>
      <trkpt lat="37.526636" lon="-5.236946">
        <ele>217.780776</ele>
        <time>2020-08-14T06:37:44.272Z</time>
      </trkpt>
      <trkpt lat="37.526630" lon="-5.237073">
        <ele>217.833465</ele>
        <time>2020-08-14T06:37:47.263Z</time>
      </trkpt>
      <trkpt lat="37.526647" lon="-5.237208">
        <ele>217.890073</ele>
        <time>2020-08-14T06:37:50.282Z</time>
      </trkpt>
      <trkpt lat="37.526704" lon="-5.237353">
        <ele>217.957095</ele>
        <time>2020-08-14T06:37:53.273Z</time>
      </trkpt>
      <trkpt lat="37.526759" lon="-5.237490">
        <ele>218.020687</ele>
        <time>2020-08-14T06:37:55.289Z</time>
      </trkpt>
      <trkpt lat="37.527033" lon="-5.238107">
        <ele>218.313540</ele>
        <time>2020-08-14T06:38:07.305Z</time>
      </trkpt>
      <trkpt lat="37.527149" lon="-5.238263">
        <ele>218.336827</ele>
        <time>2020-08-14T06:38:09.265Z</time>
      </trkpt>
      <trkpt lat="37.527249" lon="-5.238313">
        <ele>218.012749</ele>
        <time>2020-08-14T06:38:14.253Z</time>
      </trkpt>
      <trkpt lat="37.527309" lon="-5.238409">
        <ele>217.720725</ele>
        <time>2020-08-14T06:38:19.256Z</time>
      </trkpt>
      <trkpt lat="37.527363" lon="-5.238519">
        <ele>217.411641</ele>
        <time>2020-08-14T06:38:22.267Z</time>
      </trkpt>
      <trkpt lat="37.527418" lon="-5.238651">
        <ele>217.055394</ele>
        <time>2020-08-14T06:38:25.272Z</time>
      </trkpt>
      <trkpt lat="37.527464" lon="-5.238781">
        <ele>216.715290</ele>
        <time>2020-08-14T06:38:27.263Z</time>
      </trkpt>
      <trkpt lat="37.527528" lon="-5.238903">
        <ele>216.365815</ele>
        <time>2020-08-14T06:38:30.232Z</time>
      </trkpt>
      <trkpt lat="37.527581" lon="-5.239025">
        <ele>216.033471</ele>
        <time>2020-08-14T06:38:34.270Z</time>
      </trkpt>
      <trkpt lat="37.527642" lon="-5.239113">
        <ele>215.754233</ele>
        <time>2020-08-14T06:38:37.263Z</time>
      </trkpt>
      <trkpt lat="37.527679" lon="-5.239233">
        <ele>215.446628</ele>
        <time>2020-08-14T06:38:38.260Z</time>
      </trkpt>
      <trkpt lat="37.527730" lon="-5.239373">
        <ele>215.078547</ele>
        <time>2020-08-14T06:38:41.261Z</time>
      </trkpt>
      <trkpt lat="37.527750" lon="-5.239489">
        <ele>214.794932</ele>
        <time>2020-08-14T06:38:45.261Z</time>
      </trkpt>
      <trkpt lat="37.527791" lon="-5.239599">
        <ele>214.504547</ele>
        <time>2020-08-14T06:38:49.276Z</time>
      </trkpt>
      <trkpt lat="37.527825" lon="-5.239749">
        <ele>214.131824</ele>
        <time>2020-08-14T06:38:50.233Z</time>
      </trkpt>
      <trkpt lat="37.527853" lon="-5.239897">
        <ele>213.768308</ele>
        <time>2020-08-14T06:38:53.239Z</time>
      </trkpt>
      <trkpt lat="37.527864" lon="-5.240026">
        <ele>213.458331</ele>
        <time>2020-08-14T06:38:56.241Z</time>
      </trkpt>
      <trkpt lat="37.527886" lon="-5.240161">
        <ele>213.129057</ele>
        <time>2020-08-14T06:38:59.248Z</time>
      </trkpt>
      <trkpt lat="37.527891" lon="-5.240291">
        <ele>212.972755</ele>
        <time>2020-08-14T06:39:02.250Z</time>
      </trkpt>
      <trkpt lat="37.527892" lon="-5.240428">
        <ele>212.970346</ele>
        <time>2020-08-14T06:39:08.282Z</time>
      </trkpt>
      <trkpt lat="37.527873" lon="-5.240560">
        <ele>212.967988</ele>
        <time>2020-08-14T06:39:11.279Z</time>
      </trkpt>
      <trkpt lat="37.527842" lon="-5.240734">
        <ele>212.964853</ele>
        <time>2020-08-14T06:39:14.272Z</time>
      </trkpt>
      <trkpt lat="37.527799" lon="-5.240869">
        <ele>212.962296</ele>
        <time>2020-08-14T06:39:16.253Z</time>
      </trkpt>
      <trkpt lat="37.527739" lon="-5.241000">
        <ele>212.959637</ele>
        <time>2020-08-14T06:39:18.270Z</time>
      </trkpt>
      <trkpt lat="37.527696" lon="-5.241124">
        <ele>212.957258</ele>
        <time>2020-08-14T06:39:20.273Z</time>
      </trkpt>
      <trkpt lat="37.527634" lon="-5.241371">
        <ele>212.952703</ele>
        <time>2020-08-14T06:39:22.247Z</time>
      </trkpt>
      <trkpt lat="37.527592" lon="-5.241545">
        <ele>212.949506</ele>
        <time>2020-08-14T06:39:24.265Z</time>
      </trkpt>
      <trkpt lat="37.527566" lon="-5.241707">
        <ele>212.946601</ele>
        <time>2020-08-14T06:39:26.263Z</time>
      </trkpt>
      <trkpt lat="37.527546" lon="-5.241864">
        <ele>212.943805</ele>
        <time>2020-08-14T06:39:28.261Z</time>
      </trkpt>
      <trkpt lat="37.527514" lon="-5.242030">
        <ele>212.940802</ele>
        <time>2020-08-14T06:39:30.269Z</time>
      </trkpt>
      <trkpt lat="37.527475" lon="-5.242181">
        <ele>212.938011</ele>
        <time>2020-08-14T06:39:32.251Z</time>
      </trkpt>
      <trkpt lat="37.527449" lon="-5.242338">
        <ele>212.935191</ele>
        <time>2020-08-14T06:39:34.274Z</time>
      </trkpt>
      <trkpt lat="37.527450" lon="-5.242478">
        <ele>212.825081</ele>
        <time>2020-08-14T06:39:36.269Z</time>
      </trkpt>
      <trkpt lat="37.527421" lon="-5.242632">
        <ele>212.592386</ele>
        <time>2020-08-14T06:39:38.249Z</time>
      </trkpt>
      <trkpt lat="37.527389" lon="-5.242797">
        <ele>212.342666</ele>
        <time>2020-08-14T06:39:40.253Z</time>
      </trkpt>
      <trkpt lat="37.527370" lon="-5.242933">
        <ele>212.139649</ele>
        <time>2020-08-14T06:39:42.254Z</time>
      </trkpt>
      <trkpt lat="37.527342" lon="-5.243088">
        <ele>211.905942</ele>
        <time>2020-08-14T06:39:44.271Z</time>
      </trkpt>
      <trkpt lat="37.527315" lon="-5.243226">
        <ele>211.696980</ele>
        <time>2020-08-14T06:39:46.252Z</time>
      </trkpt>
      <trkpt lat="37.527278" lon="-5.243399">
        <ele>211.433561</ele>
        <time>2020-08-14T06:39:48.251Z</time>
      </trkpt>
      <trkpt lat="37.527259" lon="-5.243577">
        <ele>211.169517</ele>
        <time>2020-08-14T06:39:50.246Z</time>
      </trkpt>
      <trkpt lat="37.527231" lon="-5.243742">
        <ele>210.921453</ele>
        <time>2020-08-14T06:39:52.256Z</time>
      </trkpt>
      <trkpt lat="37.527237" lon="-5.243902">
        <ele>210.685969</ele>
        <time>2020-08-14T06:39:54.272Z</time>
      </trkpt>
      <trkpt lat="37.527244" lon="-5.244031">
        <ele>210.495878</ele>
        <time>2020-08-14T06:39:56.252Z</time>
      </trkpt>
      <trkpt lat="37.527236" lon="-5.244187">
        <ele>210.266057</ele>
        <time>2020-08-14T06:39:58.234Z</time>
      </trkpt>
      <trkpt lat="37.527273" lon="-5.244328">
        <ele>210.047715</ele>
        <time>2020-08-14T06:40:00.247Z</time>
      </trkpt>
      <trkpt lat="37.527306" lon="-5.244496">
        <ele>209.793269</ele>
        <time>2020-08-14T06:40:02.260Z</time>
      </trkpt>
      <trkpt lat="37.527319" lon="-5.244646">
        <ele>209.598732</ele>
        <time>2020-08-14T06:40:04.255Z</time>
      </trkpt>
      <trkpt lat="37.527312" lon="-5.244782">
        <ele>209.591116</ele>
        <time>2020-08-14T06:40:06.254Z</time>
      </trkpt>
      <trkpt lat="37.527358" lon="-5.244930">
        <ele>209.582233</ele>
        <time>2020-08-14T06:40:08.270Z</time>
      </trkpt>
      <trkpt lat="37.527334" lon="-5.245079">
        <ele>209.573736</ele>
        <time>2020-08-14T06:40:10.256Z</time>
      </trkpt>
      <trkpt lat="37.527299" lon="-5.245230">
        <ele>209.564945</ele>
        <time>2020-08-14T06:40:12.242Z</time>
      </trkpt>
      <trkpt lat="37.527277" lon="-5.245375">
        <ele>209.556695</ele>
        <time>2020-08-14T06:40:14.239Z</time>
      </trkpt>
      <trkpt lat="37.527245" lon="-5.245492">
        <ele>209.549778</ele>
        <time>2020-08-14T06:40:16.256Z</time>
      </trkpt>
      <trkpt lat="37.527201" lon="-5.245619">
        <ele>209.542033</ele>
        <time>2020-08-14T06:40:18.257Z</time>
      </trkpt>
      <trkpt lat="37.527131" lon="-5.245746">
        <ele>209.533390</ele>
        <time>2020-08-14T06:40:20.267Z</time>
      </trkpt>
      <trkpt lat="37.527063" lon="-5.245865">
        <ele>209.525194</ele>
        <time>2020-08-14T06:40:22.244Z</time>
      </trkpt>
      <trkpt lat="37.527023" lon="-5.246005">
        <ele>209.516878</ele>
        <time>2020-08-14T06:40:24.260Z</time>
      </trkpt>
      <trkpt lat="37.526949" lon="-5.246132">
        <ele>209.508071</ele>
        <time>2020-08-14T06:40:26.262Z</time>
      </trkpt>
      <trkpt lat="37.526903" lon="-5.246270">
        <ele>209.499705</ele>
        <time>2020-08-14T06:40:28.253Z</time>
      </trkpt>
      <trkpt lat="37.526834" lon="-5.246392">
        <ele>209.491332</ele>
        <time>2020-08-14T06:40:30.260Z</time>
      </trkpt>
      <trkpt lat="37.526773" lon="-5.246545">
        <ele>209.481762</ele>
        <time>2020-08-14T06:40:32.259Z</time>
      </trkpt>
      <trkpt lat="37.526684" lon="-5.246690">
        <ele>209.521555</ele>
        <time>2020-08-14T06:40:34.267Z</time>
      </trkpt>
      <trkpt lat="37.526616" lon="-5.246822">
        <ele>209.796106</ele>
        <time>2020-08-14T06:40:36.251Z</time>
      </trkpt>
      <trkpt lat="37.526557" lon="-5.246972">
        <ele>210.088156</ele>
        <time>2020-08-14T06:40:38.258Z</time>
      </trkpt>
      <trkpt lat="37.526480" lon="-5.247116">
        <ele>210.391087</ele>
        <time>2020-08-14T06:40:40.269Z</time>
      </trkpt>
      <trkpt lat="37.526426" lon="-5.247260">
        <ele>210.668924</ele>
        <time>2020-08-14T06:40:42.265Z</time>
      </trkpt>
      <trkpt lat="37.526367" lon="-5.247394">
        <ele>210.936259</ele>
        <time>2020-08-14T06:40:44.252Z</time>
      </trkpt>
      <trkpt lat="37.526293" lon="-5.247516">
        <ele>211.204163</ele>
        <time>2020-08-14T06:40:46.270Z</time>
      </trkpt>
      <trkpt lat="37.526248" lon="-5.247662">
        <ele>211.477381</ele>
        <time>2020-08-14T06:40:48.256Z</time>
      </trkpt>
      <trkpt lat="37.526192" lon="-5.247788">
        <ele>211.729316</ele>
        <time>2020-08-14T06:40:50.259Z</time>
      </trkpt>
      <trkpt lat="37.526104" lon="-5.247904">
        <ele>212.009314</ele>
        <time>2020-08-14T06:40:52.262Z</time>
      </trkpt>
      <trkpt lat="37.526041" lon="-5.248015">
        <ele>212.247400</ele>
        <time>2020-08-14T06:40:54.254Z</time>
      </trkpt>
      <trkpt lat="37.525987" lon="-5.248123">
        <ele>212.470094</ele>
        <time>2020-08-14T06:40:56.248Z</time>
      </trkpt>
      <trkpt lat="37.525939" lon="-5.248235">
        <ele>212.692152</ele>
        <time>2020-08-14T06:40:58.265Z</time>
      </trkpt>
      <trkpt lat="37.525907" lon="-5.248365">
        <ele>212.929578</ele>
        <time>2020-08-14T06:41:00.251Z</time>
      </trkpt>
      <trkpt lat="37.525834" lon="-5.248477">
        <ele>213.182446</ele>
        <time>2020-08-14T06:41:02.246Z</time>
      </trkpt>
      <trkpt lat="37.525764" lon="-5.248602">
        <ele>213.476125</ele>
        <time>2020-08-14T06:41:04.270Z</time>
      </trkpt>
      <trkpt lat="37.525725" lon="-5.248722">
        <ele>213.998970</ele>
        <time>2020-08-14T06:41:06.262Z</time>
      </trkpt>
      <trkpt lat="37.525705" lon="-5.248844">
        <ele>214.501229</ele>
        <time>2020-08-14T06:41:08.263Z</time>
      </trkpt>
      <trkpt lat="37.525672" lon="-5.248966">
        <ele>215.020912</ele>
        <time>2020-08-14T06:41:10.250Z</time>
      </trkpt>
      <trkpt lat="37.525628" lon="-5.249089">
        <ele>215.564917</ele>
        <time>2020-08-14T06:41:12.260Z</time>
      </trkpt>
      <trkpt lat="37.525561" lon="-5.249218">
        <ele>216.186603</ele>
        <time>2020-08-14T06:41:14.251Z</time>
      </trkpt>
      <trkpt lat="37.525520" lon="-5.249337">
        <ele>216.709688</ele>
        <time>2020-08-14T06:41:16.255Z</time>
      </trkpt>
      <trkpt lat="37.525495" lon="-5.249466">
        <ele>217.245075</ele>
        <time>2020-08-14T06:41:18.256Z</time>
      </trkpt>
      <trkpt lat="37.525489" lon="-5.249587">
        <ele>217.733859</ele>
        <time>2020-08-14T06:41:20.259Z</time>
      </trkpt>
      <trkpt lat="37.525469" lon="-5.249717">
        <ele>218.267745</ele>
        <time>2020-08-14T06:41:22.252Z</time>
      </trkpt>
      <trkpt lat="37.525422" lon="-5.249845">
        <ele>218.836425</ele>
        <time>2020-08-14T06:41:24.244Z</time>
      </trkpt>
      <trkpt lat="37.525411" lon="-5.249959">
        <ele>219.299425</ele>
        <time>2020-08-14T06:41:26.266Z</time>
      </trkpt>
      <trkpt lat="37.525373" lon="-5.250076">
        <ele>219.809152</ele>
        <time>2020-08-14T06:41:28.249Z</time>
      </trkpt>
      <trkpt lat="37.525312" lon="-5.250208">
        <ele>220.425087</ele>
        <time>2020-08-14T06:41:30.251Z</time>
      </trkpt>
      <trkpt lat="37.525236" lon="-5.250327">
        <ele>221.041077</ele>
        <time>2020-08-14T06:41:32.251Z</time>
      </trkpt>
      <trkpt lat="37.525200" lon="-5.250433">
        <ele>221.505971</ele>
        <time>2020-08-14T06:41:34.252Z</time>
      </trkpt>
      <trkpt lat="37.525166" lon="-5.250550">
        <ele>222.008346</ele>
        <time>2020-08-14T06:41:36.253Z</time>
      </trkpt>
      <trkpt lat="37.525150" lon="-5.250673">
        <ele>222.510869</ele>
        <time>2020-08-14T06:41:38.254Z</time>
      </trkpt>
      <trkpt lat="37.525097" lon="-5.250803">
        <ele>222.457104</ele>
        <time>2020-08-14T06:41:40.252Z</time>
      </trkpt>
      <trkpt lat="37.525073" lon="-5.250963">
        <ele>222.313668</ele>
        <time>2020-08-14T06:41:43.258Z</time>
      </trkpt>
      <trkpt lat="37.525086" lon="-5.251085">
        <ele>222.205238</ele>
        <time>2020-08-14T06:41:45.246Z</time>
      </trkpt>
      <trkpt lat="37.525037" lon="-5.251231">
        <ele>222.065593</ele>
        <time>2020-08-14T06:41:47.254Z</time>
      </trkpt>
      <trkpt lat="37.525010" lon="-5.251351">
        <ele>221.955718</ele>
        <time>2020-08-14T06:41:49.254Z</time>
      </trkpt>
      <trkpt lat="37.525051" lon="-5.251493">
        <ele>221.822606</ele>
        <time>2020-08-14T06:41:51.228Z</time>
      </trkpt>
      <trkpt lat="37.525022" lon="-5.251621">
        <ele>221.705346</ele>
        <time>2020-08-14T06:41:53.255Z</time>
      </trkpt>
      <trkpt lat="37.524997" lon="-5.251752">
        <ele>221.586660</ele>
        <time>2020-08-14T06:41:55.241Z</time>
      </trkpt>
      <trkpt lat="37.524967" lon="-5.251863">
        <ele>221.483364</ele>
        <time>2020-08-14T06:41:57.243Z</time>
      </trkpt>
      <trkpt lat="37.524970" lon="-5.251989">
        <ele>221.372326</ele>
        <time>2020-08-14T06:41:59.235Z</time>
      </trkpt>
      <trkpt lat="37.524972" lon="-5.252144">
        <ele>221.235776</ele>
        <time>2020-08-14T06:42:01.265Z</time>
      </trkpt>
      <trkpt lat="37.524985" lon="-5.252299">
        <ele>221.098482</ele>
        <time>2020-08-14T06:42:03.258Z</time>
      </trkpt>
      <trkpt lat="37.524979" lon="-5.252457">
        <ele>220.959147</ele>
        <time>2020-08-14T06:42:05.252Z</time>
      </trkpt>
      <trkpt lat="37.524966" lon="-5.252603">
        <ele>220.829734</ele>
        <time>2020-08-14T06:42:07.257Z</time>
      </trkpt>
      <trkpt lat="37.524976" lon="-5.252757">
        <ele>220.693629</ele>
        <time>2020-08-14T06:42:09.264Z</time>
      </trkpt>
      <trkpt lat="37.524979" lon="-5.252908">
        <ele>220.559458</ele>
        <time>2020-08-14T06:42:11.255Z</time>
      </trkpt>
      <trkpt lat="37.525005" lon="-5.253056">
        <ele>220.415355</ele>
        <time>2020-08-14T06:42:13.267Z</time>
      </trkpt>
      <trkpt lat="37.524989" lon="-5.253200">
        <ele>220.277128</ele>
        <time>2020-08-14T06:42:15.256Z</time>
      </trkpt>
      <trkpt lat="37.524986" lon="-5.253337">
        <ele>220.146843</ele>
        <time>2020-08-14T06:42:17.256Z</time>
      </trkpt>
      <trkpt lat="37.524995" lon="-5.253481">
        <ele>220.009529</ele>
        <time>2020-08-14T06:42:19.247Z</time>
      </trkpt>
      <trkpt lat="37.525024" lon="-5.253622">
        <ele>219.871057</ele>
        <time>2020-08-14T06:42:21.247Z</time>
      </trkpt>
      <trkpt lat="37.524927" lon="-5.253705">
        <ele>219.730545</ele>
        <time>2020-08-14T06:42:24.231Z</time>
      </trkpt>
      <trkpt lat="37.524813" lon="-5.253666">
        <ele>219.588960</ele>
        <time>2020-08-14T06:42:26.255Z</time>
      </trkpt>
      <trkpt lat="37.524670" lon="-5.253641">
        <ele>219.415915</ele>
        <time>2020-08-14T06:42:28.244Z</time>
      </trkpt>
      <trkpt lat="37.524563" lon="-5.253644">
        <ele>219.287629</ele>
        <time>2020-08-14T06:42:30.236Z</time>
      </trkpt>
      <trkpt lat="37.524453" lon="-5.253640">
        <ele>219.155725</ele>
        <time>2020-08-14T06:42:32.241Z</time>
      </trkpt>
      <trkpt lat="37.524329" lon="-5.253627">
        <ele>219.006581</ele>
        <time>2020-08-14T06:42:34.260Z</time>
      </trkpt>
      <trkpt lat="37.524222" lon="-5.253660">
        <ele>218.874546</ele>
        <time>2020-08-14T06:42:36.264Z</time>
      </trkpt>
      <trkpt lat="37.524083" lon="-5.253638">
        <ele>218.706628</ele>
        <time>2020-08-14T06:42:38.257Z</time>
      </trkpt>
      <trkpt lat="37.523953" lon="-5.253646">
        <ele>218.550619</ele>
        <time>2020-08-14T06:42:40.250Z</time>
      </trkpt>
      <trkpt lat="37.523810" lon="-5.253667">
        <ele>218.385104</ele>
        <time>2020-08-14T06:42:42.278Z</time>
      </trkpt>
      <trkpt lat="37.523647" lon="-5.253676">
        <ele>218.223366</ele>
        <time>2020-08-14T06:42:44.256Z</time>
      </trkpt>
      <trkpt lat="37.523483" lon="-5.253673">
        <ele>218.060775</ele>
        <time>2020-08-14T06:42:46.255Z</time>
      </trkpt>
      <trkpt lat="37.523390" lon="-5.253671">
        <ele>217.968570</ele>
        <time>2020-08-14T06:42:47.252Z</time>
      </trkpt>
      <trkpt lat="37.523298" lon="-5.253687">
        <ele>217.876507</ele>
        <time>2020-08-14T06:42:48.252Z</time>
      </trkpt>
      <trkpt lat="37.523205" lon="-5.253677">
        <ele>217.783981</ele>
        <time>2020-08-14T06:42:49.254Z</time>
      </trkpt>
      <trkpt lat="37.523112" lon="-5.253691">
        <ele>217.691135</ele>
        <time>2020-08-14T06:42:50.251Z</time>
      </trkpt>
      <trkpt lat="37.523008" lon="-5.253704">
        <ele>217.587534</ele>
        <time>2020-08-14T06:42:51.256Z</time>
      </trkpt>
      <trkpt lat="37.522904" lon="-5.253704">
        <ele>217.484438</ele>
        <time>2020-08-14T06:42:52.260Z</time>
      </trkpt>
      <trkpt lat="37.522803" lon="-5.253701">
        <ele>217.384288</ele>
        <time>2020-08-14T06:42:53.254Z</time>
      </trkpt>
      <trkpt lat="37.522621" lon="-5.253729">
        <ele>217.202533</ele>
        <time>2020-08-14T06:42:55.251Z</time>
      </trkpt>
      <trkpt lat="37.522522" lon="-5.253741">
        <ele>217.103941</ele>
        <time>2020-08-14T06:42:56.254Z</time>
      </trkpt>
      <trkpt lat="37.522391" lon="-5.253741">
        <ele>216.974080</ele>
        <time>2020-08-14T06:42:57.258Z</time>
      </trkpt>
      <trkpt lat="37.522249" lon="-5.253746">
        <ele>216.833260</ele>
        <time>2020-08-14T06:42:58.252Z</time>
      </trkpt>
      <trkpt lat="37.522139" lon="-5.253765">
        <ele>216.723198</ele>
        <time>2020-08-14T06:42:59.255Z</time>
      </trkpt>
      <trkpt lat="37.522026" lon="-5.253777">
        <ele>216.562757</ele>
        <time>2020-08-14T06:43:00.251Z</time>
      </trkpt>
      <trkpt lat="37.521914" lon="-5.253789">
        <ele>216.237399</ele>
        <time>2020-08-14T06:43:01.245Z</time>
      </trkpt>
      <trkpt lat="37.521418" lon="-5.253917">
        <ele>214.771939</ele>
        <time>2020-08-14T06:43:05.249Z</time>
      </trkpt>
      <trkpt lat="37.521288" lon="-5.253921">
        <ele>214.395536</ele>
        <time>2020-08-14T06:43:06.248Z</time>
      </trkpt>
      <trkpt lat="37.521187" lon="-5.253885">
        <ele>214.091729</ele>
        <time>2020-08-14T06:43:07.259Z</time>
      </trkpt>
      <trkpt lat="37.520995" lon="-5.253903">
        <ele>213.534442</ele>
        <time>2020-08-14T06:43:09.252Z</time>
      </trkpt>
      <trkpt lat="37.520877" lon="-5.253919">
        <ele>213.190915</ele>
        <time>2020-08-14T06:43:10.245Z</time>
      </trkpt>
      <trkpt lat="37.520766" lon="-5.253921">
        <ele>212.869588</ele>
        <time>2020-08-14T06:43:11.249Z</time>
      </trkpt>
      <trkpt lat="37.520664" lon="-5.253923">
        <ele>212.574308</ele>
        <time>2020-08-14T06:43:12.258Z</time>
      </trkpt>
      <trkpt lat="37.520562" lon="-5.253956">
        <ele>212.269499</ele>
        <time>2020-08-14T06:43:13.252Z</time>
      </trkpt>
      <trkpt lat="37.520403" lon="-5.254012">
        <ele>211.791647</ele>
        <time>2020-08-14T06:43:15.256Z</time>
      </trkpt>
      <trkpt lat="37.520250" lon="-5.254073">
        <ele>211.352298</ele>
        <time>2020-08-14T06:43:17.258Z</time>
      </trkpt>
      <trkpt lat="37.520090" lon="-5.254104">
        <ele>210.998763</ele>
        <time>2020-08-14T06:43:19.251Z</time>
      </trkpt>
      <trkpt lat="37.519942" lon="-5.254170">
        <ele>210.655915</ele>
        <time>2020-08-14T06:43:21.246Z</time>
      </trkpt>
      <trkpt lat="37.519811" lon="-5.254253">
        <ele>210.335724</ele>
        <time>2020-08-14T06:43:23.253Z</time>
      </trkpt>
      <trkpt lat="37.519682" lon="-5.254347">
        <ele>210.010325</ele>
        <time>2020-08-14T06:43:25.260Z</time>
      </trkpt>
      <trkpt lat="37.519592" lon="-5.254435">
        <ele>209.761588</ele>
        <time>2020-08-14T06:43:27.258Z</time>
      </trkpt>
      <trkpt lat="37.519526" lon="-5.254527">
        <ele>209.546710</ele>
        <time>2020-08-14T06:43:29.258Z</time>
      </trkpt>
      <trkpt lat="37.519459" lon="-5.254607">
        <ele>209.345180</ele>
        <time>2020-08-14T06:43:31.252Z</time>
      </trkpt>
      <trkpt lat="37.519375" lon="-5.254706">
        <ele>209.094057</ele>
        <time>2020-08-14T06:43:35.247Z</time>
      </trkpt>
      <trkpt lat="37.519273" lon="-5.254757">
        <ele>208.854416</ele>
        <time>2020-08-14T06:43:38.241Z</time>
      </trkpt>
      <trkpt lat="37.519196" lon="-5.254833">
        <ele>208.640850</ele>
        <time>2020-08-14T06:43:41.254Z</time>
      </trkpt>
      <trkpt lat="37.519095" lon="-5.254905">
        <ele>208.387453</ele>
        <time>2020-08-14T06:43:44.240Z</time>
      </trkpt>
      <trkpt lat="37.518994" lon="-5.254980">
        <ele>208.131458</ele>
        <time>2020-08-14T06:43:47.267Z</time>
      </trkpt>
      <trkpt lat="37.518904" lon="-5.255071">
        <ele>207.879502</ele>
        <time>2020-08-14T06:43:50.263Z</time>
      </trkpt>
      <trkpt lat="37.518806" lon="-5.255175">
        <ele>207.599749</ele>
        <time>2020-08-14T06:43:53.261Z</time>
      </trkpt>
      <trkpt lat="37.518717" lon="-5.255267">
        <ele>207.706019</ele>
        <time>2020-08-14T06:43:56.254Z</time>
      </trkpt>
      <trkpt lat="37.518626" lon="-5.255324">
        <ele>208.002863</ele>
        <time>2020-08-14T06:43:59.234Z</time>
      </trkpt>
      <trkpt lat="37.518523" lon="-5.255334">
        <ele>208.304653</ele>
        <time>2020-08-14T06:44:02.248Z</time>
      </trkpt>
      <trkpt lat="37.518419" lon="-5.255323">
        <ele>208.609542</ele>
        <time>2020-08-14T06:44:05.252Z</time>
      </trkpt>
      <trkpt lat="37.518321" lon="-5.255332">
        <ele>208.896593</ele>
        <time>2020-08-14T06:44:11.256Z</time>
      </trkpt>
      <trkpt lat="37.518232" lon="-5.255397">
        <ele>209.197066</ele>
        <time>2020-08-14T06:44:20.259Z</time>
      </trkpt>
      <trkpt lat="37.518204" lon="-5.255554">
        <ele>209.569934</ele>
        <time>2020-08-14T06:44:24.248Z</time>
      </trkpt>
      <trkpt lat="37.518209" lon="-5.255712">
        <ele>209.936327</ele>
        <time>2020-08-14T06:44:27.233Z</time>
      </trkpt>
      <trkpt lat="37.518205" lon="-5.255862">
        <ele>210.284089</ele>
        <time>2020-08-14T06:44:30.259Z</time>
      </trkpt>
      <trkpt lat="37.518187" lon="-5.256010">
        <ele>210.631028</ele>
        <time>2020-08-14T06:44:33.264Z</time>
      </trkpt>
      <trkpt lat="37.518210" lon="-5.256131">
        <ele>210.919337</ele>
        <time>2020-08-14T06:44:35.265Z</time>
      </trkpt>
      <trkpt lat="37.518184" lon="-5.256251">
        <ele>211.207577</ele>
        <time>2020-08-14T06:44:37.245Z</time>
      </trkpt>
      <trkpt lat="37.518157" lon="-5.256426">
        <ele>211.620670</ele>
        <time>2020-08-14T06:44:40.254Z</time>
      </trkpt>
      <trkpt lat="37.518155" lon="-5.256559">
        <ele>211.928900</ele>
        <time>2020-08-14T06:44:42.255Z</time>
      </trkpt>
      <trkpt lat="37.518128" lon="-5.256700">
        <ele>212.264998</ele>
        <time>2020-08-14T06:44:44.273Z</time>
      </trkpt>
      <trkpt lat="37.518129" lon="-5.256824">
        <ele>212.552334</ele>
        <time>2020-08-14T06:44:46.272Z</time>
      </trkpt>
      <trkpt lat="37.518107" lon="-5.256944">
        <ele>212.672279</ele>
        <time>2020-08-14T06:44:48.248Z</time>
      </trkpt>
      <trkpt lat="37.518073" lon="-5.257104">
        <ele>212.280409</ele>
        <time>2020-08-14T06:44:51.249Z</time>
      </trkpt>
      <trkpt lat="37.518058" lon="-5.257217">
        <ele>212.009361</ele>
        <time>2020-08-14T06:44:53.265Z</time>
      </trkpt>
      <trkpt lat="37.518049" lon="-5.257392">
        <ele>211.594484</ele>
        <time>2020-08-14T06:44:56.263Z</time>
      </trkpt>
      <trkpt lat="37.518046" lon="-5.257526">
        <ele>211.277346</ele>
        <time>2020-08-14T06:44:58.250Z</time>
      </trkpt>
      <trkpt lat="37.518025" lon="-5.257650">
        <ele>210.977380</ele>
        <time>2020-08-14T06:45:00.256Z</time>
      </trkpt>
      <trkpt lat="37.518000" lon="-5.257773">
        <ele>210.676989</ele>
        <time>2020-08-14T06:45:02.260Z</time>
      </trkpt>
      <trkpt lat="37.517999" lon="-5.257890">
        <ele>210.400179</ele>
        <time>2020-08-14T06:45:04.255Z</time>
      </trkpt>
      <trkpt lat="37.518016" lon="-5.258029">
        <ele>210.067453</ele>
        <time>2020-08-14T06:45:06.258Z</time>
      </trkpt>
      <trkpt lat="37.518017" lon="-5.258164">
        <ele>209.748061</ele>
        <time>2020-08-14T06:45:08.267Z</time>
      </trkpt>
      <trkpt lat="37.517990" lon="-5.258302">
        <ele>209.411801</ele>
        <time>2020-08-14T06:45:10.264Z</time>
      </trkpt>
      <trkpt lat="37.517946" lon="-5.258439">
        <ele>209.062129</ele>
        <time>2020-08-14T06:45:12.259Z</time>
      </trkpt>
      <trkpt lat="37.517916" lon="-5.258571">
        <ele>208.737282</ele>
        <time>2020-08-14T06:45:14.266Z</time>
      </trkpt>
      <trkpt lat="37.517889" lon="-5.258731">
        <ele>208.350288</ele>
        <time>2020-08-14T06:45:16.248Z</time>
      </trkpt>
      <trkpt lat="37.517861" lon="-5.258881">
        <ele>207.985728</ele>
        <time>2020-08-14T06:45:18.248Z</time>
      </trkpt>
      <trkpt lat="37.517860" lon="-5.259042">
        <ele>207.604829</ele>
        <time>2020-08-14T06:45:20.265Z</time>
      </trkpt>
      <trkpt lat="37.517830" lon="-5.259203">
        <ele>207.371869</ele>
        <time>2020-08-14T06:45:22.263Z</time>
      </trkpt>
      <trkpt lat="37.517822" lon="-5.259363">
        <ele>207.330864</ele>
        <time>2020-08-14T06:45:24.259Z</time>
      </trkpt>
      <trkpt lat="37.517811" lon="-5.259507">
        <ele>207.293861</ele>
        <time>2020-08-14T06:45:26.257Z</time>
      </trkpt>
      <trkpt lat="37.517806" lon="-5.259657">
        <ele>207.255461</ele>
        <time>2020-08-14T06:45:28.264Z</time>
      </trkpt>
      <trkpt lat="37.517765" lon="-5.259811">
        <ele>207.213912</ele>
        <time>2020-08-14T06:45:30.263Z</time>
      </trkpt>
      <trkpt lat="37.517724" lon="-5.259956">
        <ele>207.174538</ele>
        <time>2020-08-14T06:45:32.242Z</time>
      </trkpt>
      <trkpt lat="37.517678" lon="-5.260102">
        <ele>207.134356</ele>
        <time>2020-08-14T06:45:34.262Z</time>
      </trkpt>
      <trkpt lat="37.517651" lon="-5.260239">
        <ele>207.098249</ele>
        <time>2020-08-14T06:45:36.276Z</time>
      </trkpt>
      <trkpt lat="37.517614" lon="-5.260374">
        <ele>207.061716</ele>
        <time>2020-08-14T06:45:38.266Z</time>
      </trkpt>
      <trkpt lat="37.517575" lon="-5.260514">
        <ele>207.023763</ele>
        <time>2020-08-14T06:45:40.273Z</time>
      </trkpt>
      <trkpt lat="37.517552" lon="-5.260662">
        <ele>206.985188</ele>
        <time>2020-08-14T06:45:42.265Z</time>
      </trkpt>
      <trkpt lat="37.517525" lon="-5.260810">
        <ele>206.946345</ele>
        <time>2020-08-14T06:45:44.265Z</time>
      </trkpt>
      <trkpt lat="37.517498" lon="-5.260957">
        <ele>206.907750</ele>
        <time>2020-08-14T06:45:46.277Z</time>
      </trkpt>
      <trkpt lat="37.517476" lon="-5.261112">
        <ele>206.867475</ele>
        <time>2020-08-14T06:45:48.270Z</time>
      </trkpt>
      <trkpt lat="37.517426" lon="-5.261236">
        <ele>206.831895</ele>
        <time>2020-08-14T06:45:50.248Z</time>
      </trkpt>
      <trkpt lat="37.517400" lon="-5.261367">
        <ele>206.729802</ele>
        <time>2020-08-14T06:45:52.256Z</time>
      </trkpt>
      <trkpt lat="37.517379" lon="-5.261514">
        <ele>206.502988</ele>
        <time>2020-08-14T06:45:54.261Z</time>
      </trkpt>
      <trkpt lat="37.517346" lon="-5.261657">
        <ele>206.276835</ele>
        <time>2020-08-14T06:45:56.269Z</time>
      </trkpt>
      <trkpt lat="37.517308" lon="-5.261789">
        <ele>206.063596</ele>
        <time>2020-08-14T06:45:58.285Z</time>
      </trkpt>
      <trkpt lat="37.517272" lon="-5.261945">
        <ele>205.816884</ele>
        <time>2020-08-14T06:46:00.261Z</time>
      </trkpt>
      <trkpt lat="37.517228" lon="-5.262077">
        <ele>205.599457</ele>
        <time>2020-08-14T06:46:02.275Z</time>
      </trkpt>
      <trkpt lat="37.517194" lon="-5.262206">
        <ele>205.393036</ele>
        <time>2020-08-14T06:46:04.263Z</time>
      </trkpt>
      <trkpt lat="37.517151" lon="-5.262336">
        <ele>205.179150</ele>
        <time>2020-08-14T06:46:06.263Z</time>
      </trkpt>
      <trkpt lat="37.517113" lon="-5.262468">
        <ele>204.965910</ele>
        <time>2020-08-14T06:46:08.277Z</time>
      </trkpt>
      <trkpt lat="37.517068" lon="-5.262608">
        <ele>204.736523</ele>
        <time>2020-08-14T06:46:10.240Z</time>
      </trkpt>
      <trkpt lat="37.517025" lon="-5.262743">
        <ele>204.515610</ele>
        <time>2020-08-14T06:46:12.250Z</time>
      </trkpt>
      <trkpt lat="37.516984" lon="-5.262874">
        <ele>204.301756</ele>
        <time>2020-08-14T06:46:14.265Z</time>
      </trkpt>
      <trkpt lat="37.516945" lon="-5.263016">
        <ele>204.073563</ele>
        <time>2020-08-14T06:46:16.258Z</time>
      </trkpt>
      <trkpt lat="37.516921" lon="-5.263184">
        <ele>203.814346</ele>
        <time>2020-08-14T06:46:18.253Z</time>
      </trkpt>
      <trkpt lat="37.516887" lon="-5.263333">
        <ele>203.578907</ele>
        <time>2020-08-14T06:46:20.231Z</time>
      </trkpt>
      <trkpt lat="37.516816" lon="-5.263480">
        <ele>203.276781</ele>
        <time>2020-08-14T06:46:22.264Z</time>
      </trkpt>
      <trkpt lat="37.516756" lon="-5.263621">
        <ele>202.835597</ele>
        <time>2020-08-14T06:46:24.255Z</time>
      </trkpt>
      <trkpt lat="37.516715" lon="-5.263762">
        <ele>202.421525</ele>
        <time>2020-08-14T06:46:26.261Z</time>
      </trkpt>
      <trkpt lat="37.516655" lon="-5.263893">
        <ele>202.004433</ele>
        <time>2020-08-14T06:46:28.248Z</time>
      </trkpt>
      <trkpt lat="37.516609" lon="-5.264037">
        <ele>201.576401</ele>
        <time>2020-08-14T06:46:30.251Z</time>
      </trkpt>
      <trkpt lat="37.516581" lon="-5.264187">
        <ele>201.151516</ele>
        <time>2020-08-14T06:46:32.269Z</time>
      </trkpt>
      <trkpt lat="37.516524" lon="-5.264335">
        <ele>200.697883</ele>
        <time>2020-08-14T06:46:34.271Z</time>
      </trkpt>
      <trkpt lat="37.516506" lon="-5.264493">
        <ele>200.257768</ele>
        <time>2020-08-14T06:46:36.255Z</time>
      </trkpt>
      <trkpt lat="37.516444" lon="-5.264635">
        <ele>199.810840</ele>
        <time>2020-08-14T06:46:38.262Z</time>
      </trkpt>
      <trkpt lat="37.516389" lon="-5.264795">
        <ele>199.330033</ele>
        <time>2020-08-14T06:46:40.253Z</time>
      </trkpt>
      <trkpt lat="37.516338" lon="-5.264934">
        <ele>198.907758</ele>
        <time>2020-08-14T06:46:42.261Z</time>
      </trkpt>
      <trkpt lat="37.516296" lon="-5.265095">
        <ele>198.440448</ele>
        <time>2020-08-14T06:46:44.257Z</time>
      </trkpt>
      <trkpt lat="37.516262" lon="-5.265256">
        <ele>197.981067</ele>
        <time>2020-08-14T06:46:46.252Z</time>
      </trkpt>
      <trkpt lat="37.516216" lon="-5.265408">
        <ele>197.532496</ele>
        <time>2020-08-14T06:46:48.252Z</time>
      </trkpt>
      <trkpt lat="37.516164" lon="-5.265556">
        <ele>197.121602</ele>
        <time>2020-08-14T06:46:50.262Z</time>
      </trkpt>
      <trkpt lat="37.516127" lon="-5.265717">
        <ele>197.225448</ele>
        <time>2020-08-14T06:46:52.258Z</time>
      </trkpt>
      <trkpt lat="37.516074" lon="-5.265850">
        <ele>197.317660</ele>
        <time>2020-08-14T06:46:54.255Z</time>
      </trkpt>
      <trkpt lat="37.516024" lon="-5.266010">
        <ele>197.424201</ele>
        <time>2020-08-14T06:46:56.264Z</time>
      </trkpt>
      <trkpt lat="37.515984" lon="-5.266168">
        <ele>197.526952</ele>
        <time>2020-08-14T06:46:58.259Z</time>
      </trkpt>
      <trkpt lat="37.515932" lon="-5.266316">
        <ele>197.627235</ele>
        <time>2020-08-14T06:47:00.254Z</time>
      </trkpt>
      <trkpt lat="37.515896" lon="-5.266462">
        <ele>197.721957</ele>
        <time>2020-08-14T06:47:02.272Z</time>
      </trkpt>
      <trkpt lat="37.515858" lon="-5.266610">
        <ele>197.818332</ele>
        <time>2020-08-14T06:47:04.254Z</time>
      </trkpt>
      <trkpt lat="37.515814" lon="-5.266758">
        <ele>197.916252</ele>
        <time>2020-08-14T06:47:06.259Z</time>
      </trkpt>
      <trkpt lat="37.515774" lon="-5.266900">
        <ele>198.009608</ele>
        <time>2020-08-14T06:47:08.255Z</time>
      </trkpt>
      <trkpt lat="37.515722" lon="-5.267036">
        <ele>198.103143</ele>
        <time>2020-08-14T06:47:10.254Z</time>
      </trkpt>
      <trkpt lat="37.515669" lon="-5.267183">
        <ele>198.203182</ele>
        <time>2020-08-14T06:47:12.262Z</time>
      </trkpt>
      <trkpt lat="37.515619" lon="-5.267343">
        <ele>198.309723</ele>
        <time>2020-08-14T06:47:14.251Z</time>
      </trkpt>
      <trkpt lat="37.515573" lon="-5.267498">
        <ele>198.412252</ele>
        <time>2020-08-14T06:47:16.275Z</time>
      </trkpt>
      <trkpt lat="37.515525" lon="-5.267652">
        <ele>198.514763</ele>
        <time>2020-08-14T06:47:18.255Z</time>
      </trkpt>
      <trkpt lat="37.515486" lon="-5.267800">
        <ele>198.560409</ele>
        <time>2020-08-14T06:47:20.269Z</time>
      </trkpt>
      <trkpt lat="37.515444" lon="-5.267951">
        <ele>198.604266</ele>
        <time>2020-08-14T06:47:22.260Z</time>
      </trkpt>
      <trkpt lat="37.515393" lon="-5.268087">
        <ele>198.645498</ele>
        <time>2020-08-14T06:47:24.257Z</time>
      </trkpt>
      <trkpt lat="37.515360" lon="-5.268247">
        <ele>198.690809</ele>
        <time>2020-08-14T06:47:26.274Z</time>
      </trkpt>
      <trkpt lat="37.515299" lon="-5.268380">
        <ele>198.732918</ele>
        <time>2020-08-14T06:47:28.248Z</time>
      </trkpt>
      <trkpt lat="37.515241" lon="-5.268531">
        <ele>198.778902</ele>
        <time>2020-08-14T06:47:30.252Z</time>
      </trkpt>
      <trkpt lat="37.515194" lon="-5.268685">
        <ele>198.824127</ele>
        <time>2020-08-14T06:47:32.265Z</time>
      </trkpt>
      <trkpt lat="37.515138" lon="-5.268834">
        <ele>198.869318</ele>
        <time>2020-08-14T06:47:34.267Z</time>
      </trkpt>
      <trkpt lat="37.515103" lon="-5.268969">
        <ele>198.908246</ele>
        <time>2020-08-14T06:47:36.255Z</time>
      </trkpt>
      <trkpt lat="37.515038" lon="-5.269113">
        <ele>198.953657</ele>
        <time>2020-08-14T06:47:38.256Z</time>
      </trkpt>
      <trkpt lat="37.514992" lon="-5.269269">
        <ele>198.999273</ele>
        <time>2020-08-14T06:47:40.252Z</time>
      </trkpt>
      <trkpt lat="37.514939" lon="-5.269435">
        <ele>199.048319</ele>
        <time>2020-08-14T06:47:42.264Z</time>
      </trkpt>
      <trkpt lat="37.514922" lon="-5.269605">
        <ele>199.095282</ele>
        <time>2020-08-14T06:47:44.274Z</time>
      </trkpt>
      <trkpt lat="37.514896" lon="-5.269761">
        <ele>199.138973</ele>
        <time>2020-08-14T06:47:46.251Z</time>
      </trkpt>
      <trkpt lat="37.514849" lon="-5.269917">
        <ele>198.993106</ele>
        <time>2020-08-14T06:47:48.272Z</time>
      </trkpt>
      <trkpt lat="37.514825" lon="-5.270072">
        <ele>198.844544</ele>
        <time>2020-08-14T06:47:50.269Z</time>
      </trkpt>
      <trkpt lat="37.514769" lon="-5.270227">
        <ele>198.684320</ele>
        <time>2020-08-14T06:47:52.261Z</time>
      </trkpt>
      <trkpt lat="37.514748" lon="-5.270393">
        <ele>198.526189</ele>
        <time>2020-08-14T06:47:54.276Z</time>
      </trkpt>
      <trkpt lat="37.514723" lon="-5.270542">
        <ele>198.382921</ele>
        <time>2020-08-14T06:47:56.253Z</time>
      </trkpt>
      <trkpt lat="37.514697" lon="-5.270708">
        <ele>198.223748</ele>
        <time>2020-08-14T06:47:58.259Z</time>
      </trkpt>
      <trkpt lat="37.514689" lon="-5.270862">
        <ele>198.078568</ele>
        <time>2020-08-14T06:48:00.265Z</time>
      </trkpt>
      <trkpt lat="37.514694" lon="-5.271027">
        <ele>197.923237</ele>
        <time>2020-08-14T06:48:02.273Z</time>
      </trkpt>
      <trkpt lat="37.514677" lon="-5.271173">
        <ele>197.784422</ele>
        <time>2020-08-14T06:48:04.270Z</time>
      </trkpt>
      <trkpt lat="37.514681" lon="-5.271330">
        <ele>197.636654</ele>
        <time>2020-08-14T06:48:06.262Z</time>
      </trkpt>
      <trkpt lat="37.514683" lon="-5.271475">
        <ele>197.500230</ele>
        <time>2020-08-14T06:48:08.282Z</time>
      </trkpt>
      <trkpt lat="37.514678" lon="-5.271641">
        <ele>197.343959</ele>
        <time>2020-08-14T06:48:10.263Z</time>
      </trkpt>
      <trkpt lat="37.514675" lon="-5.271791">
        <ele>197.202808</ele>
        <time>2020-08-14T06:48:12.249Z</time>
      </trkpt>
      <trkpt lat="37.514688" lon="-5.271946">
        <ele>197.056184</ele>
        <time>2020-08-14T06:48:14.242Z</time>
      </trkpt>
      <trkpt lat="37.514710" lon="-5.272103">
        <ele>196.916383</ele>
        <time>2020-08-14T06:48:16.253Z</time>
      </trkpt>
      <trkpt lat="37.514746" lon="-5.272278">
        <ele>196.763258</ele>
        <time>2020-08-14T06:48:18.264Z</time>
      </trkpt>
      <trkpt lat="37.514763" lon="-5.272459">
        <ele>196.608885</ele>
        <time>2020-08-14T06:48:20.259Z</time>
      </trkpt>
      <trkpt lat="37.514775" lon="-5.272647">
        <ele>196.449139</ele>
        <time>2020-08-14T06:48:22.252Z</time>
      </trkpt>
      <trkpt lat="37.514787" lon="-5.272836">
        <ele>196.288549</ele>
        <time>2020-08-14T06:48:24.255Z</time>
      </trkpt>
      <trkpt lat="37.514790" lon="-5.273025">
        <ele>196.128439</ele>
        <time>2020-08-14T06:48:26.245Z</time>
      </trkpt>
      <trkpt lat="37.514819" lon="-5.273212">
        <ele>195.967057</ele>
        <time>2020-08-14T06:48:28.252Z</time>
      </trkpt>
      <trkpt lat="37.514834" lon="-5.273372">
        <ele>195.830598</ele>
        <time>2020-08-14T06:48:30.263Z</time>
      </trkpt>
      <trkpt lat="37.514849" lon="-5.273532">
        <ele>195.694139</ele>
        <time>2020-08-14T06:48:32.254Z</time>
      </trkpt>
      <trkpt lat="37.514867" lon="-5.273700">
        <ele>195.550555</ele>
        <time>2020-08-14T06:48:34.272Z</time>
      </trkpt>
      <trkpt lat="37.514881" lon="-5.273862">
        <ele>195.412534</ele>
        <time>2020-08-14T06:48:36.258Z</time>
      </trkpt>
      <trkpt lat="37.514873" lon="-5.274032">
        <ele>195.268295</ele>
        <time>2020-08-14T06:48:38.240Z</time>
      </trkpt>
      <trkpt lat="37.514893" lon="-5.274227">
        <ele>195.101760</ele>
        <time>2020-08-14T06:48:40.259Z</time>
      </trkpt>
      <trkpt lat="37.514895" lon="-5.274420">
        <ele>194.946644</ele>
        <time>2020-08-14T06:48:42.256Z</time>
      </trkpt>
      <trkpt lat="37.514897" lon="-5.274606">
        <ele>194.797908</ele>
        <time>2020-08-14T06:48:44.250Z</time>
      </trkpt>
      <trkpt lat="37.514908" lon="-5.274782">
        <ele>194.656745</ele>
        <time>2020-08-14T06:48:46.269Z</time>
      </trkpt>
      <trkpt lat="37.514912" lon="-5.274967">
        <ele>194.508767</ele>
        <time>2020-08-14T06:48:48.248Z</time>
      </trkpt>
      <trkpt lat="37.514911" lon="-5.275154">
        <ele>194.359242</ele>
        <time>2020-08-14T06:48:50.265Z</time>
      </trkpt>
      <trkpt lat="37.514927" lon="-5.275331">
        <ele>194.216799</ele>
        <time>2020-08-14T06:48:52.268Z</time>
      </trkpt>
      <trkpt lat="37.514928" lon="-5.275488">
        <ele>194.091261</ele>
        <time>2020-08-14T06:48:54.261Z</time>
      </trkpt>
      <trkpt lat="37.514944" lon="-5.275662">
        <ele>193.951202</ele>
        <time>2020-08-14T06:48:56.266Z</time>
      </trkpt>
      <trkpt lat="37.514956" lon="-5.275832">
        <ele>193.814736</ele>
        <time>2020-08-14T06:48:58.266Z</time>
      </trkpt>
      <trkpt lat="37.514961" lon="-5.276027">
        <ele>193.658736</ele>
        <time>2020-08-14T06:49:00.261Z</time>
      </trkpt>
      <trkpt lat="37.514964" lon="-5.276196">
        <ele>193.523572</ele>
        <time>2020-08-14T06:49:02.273Z</time>
      </trkpt>
      <trkpt lat="37.514979" lon="-5.276379">
        <ele>193.376470</ele>
        <time>2020-08-14T06:49:04.265Z</time>
      </trkpt>
      <trkpt lat="37.514981" lon="-5.276554">
        <ele>193.238212</ele>
        <time>2020-08-14T06:49:06.268Z</time>
      </trkpt>
      <trkpt lat="37.514993" lon="-5.276727">
        <ele>193.105492</ele>
        <time>2020-08-14T06:49:08.270Z</time>
      </trkpt>
      <trkpt lat="37.514994" lon="-5.276906">
        <ele>192.968689</ele>
        <time>2020-08-14T06:49:10.252Z</time>
      </trkpt>
      <trkpt lat="37.514975" lon="-5.277084">
        <ele>192.831426</ele>
        <time>2020-08-14T06:49:12.265Z</time>
      </trkpt>
      <trkpt lat="37.514960" lon="-5.277246">
        <ele>192.706778</ele>
        <time>2020-08-14T06:49:14.270Z</time>
      </trkpt>
      <trkpt lat="37.514950" lon="-5.277418">
        <ele>192.574975</ele>
        <time>2020-08-14T06:49:16.261Z</time>
      </trkpt>
      <trkpt lat="37.514957" lon="-5.277582">
        <ele>192.449457</ele>
        <time>2020-08-14T06:49:18.252Z</time>
      </trkpt>
      <trkpt lat="37.514939" lon="-5.277759">
        <ele>192.313078</ele>
        <time>2020-08-14T06:49:20.273Z</time>
      </trkpt>
      <trkpt lat="37.514928" lon="-5.277929">
        <ele>192.182724</ele>
        <time>2020-08-14T06:49:22.261Z</time>
      </trkpt>
      <trkpt lat="37.514906" lon="-5.278104">
        <ele>192.047311</ele>
        <time>2020-08-14T06:49:24.264Z</time>
      </trkpt>
      <trkpt lat="37.514867" lon="-5.278264">
        <ele>191.919388</ele>
        <time>2020-08-14T06:49:26.274Z</time>
      </trkpt>
      <trkpt lat="37.514838" lon="-5.278432">
        <ele>191.787989</ele>
        <time>2020-08-14T06:49:28.237Z</time>
      </trkpt>
      <trkpt lat="37.514799" lon="-5.278593">
        <ele>191.659335</ele>
        <time>2020-08-14T06:49:30.264Z</time>
      </trkpt>
      <trkpt lat="37.514748" lon="-5.278762">
        <ele>191.521191</ele>
        <time>2020-08-14T06:49:32.268Z</time>
      </trkpt>
      <trkpt lat="37.514713" lon="-5.278930">
        <ele>191.388734</ele>
        <time>2020-08-14T06:49:34.246Z</time>
      </trkpt>
      <trkpt lat="37.514665" lon="-5.279102">
        <ele>191.249691</ele>
        <time>2020-08-14T06:49:36.250Z</time>
      </trkpt>
      <trkpt lat="37.514597" lon="-5.279258">
        <ele>191.113951</ele>
        <time>2020-08-14T06:49:38.277Z</time>
      </trkpt>
      <trkpt lat="37.514540" lon="-5.279419">
        <ele>190.979503</ele>
        <time>2020-08-14T06:49:40.252Z</time>
      </trkpt>
      <trkpt lat="37.514482" lon="-5.279559">
        <ele>190.859058</ele>
        <time>2020-08-14T06:49:42.261Z</time>
      </trkpt>
      <trkpt lat="37.514417" lon="-5.279703">
        <ele>190.732712</ele>
        <time>2020-08-14T06:49:44.269Z</time>
      </trkpt>
      <trkpt lat="37.514338" lon="-5.279849">
        <ele>190.597939</ele>
        <time>2020-08-14T06:49:46.260Z</time>
      </trkpt>
      <trkpt lat="37.514253" lon="-5.279982">
        <ele>190.467692</ele>
        <time>2020-08-14T06:49:48.252Z</time>
      </trkpt>
      <trkpt lat="37.514165" lon="-5.280112">
        <ele>190.337365</ele>
        <time>2020-08-14T06:49:50.255Z</time>
      </trkpt>
      <trkpt lat="37.514102" lon="-5.280257">
        <ele>190.211290</ele>
        <time>2020-08-14T06:49:52.268Z</time>
      </trkpt>
      <trkpt lat="37.514023" lon="-5.280405">
        <ele>190.075254</ele>
        <time>2020-08-14T06:49:54.248Z</time>
      </trkpt>
      <trkpt lat="37.513969" lon="-5.280553">
        <ele>189.951025</ele>
        <time>2020-08-14T06:49:56.257Z</time>
      </trkpt>
      <trkpt lat="37.513902" lon="-5.280682">
        <ele>189.833440</ele>
        <time>2020-08-14T06:49:58.247Z</time>
      </trkpt>
      <trkpt lat="37.513821" lon="-5.280801">
        <ele>189.765224</ele>
        <time>2020-08-14T06:50:00.255Z</time>
      </trkpt>
      <trkpt lat="37.513736" lon="-5.280922">
        <ele>189.706196</ele>
        <time>2020-08-14T06:50:02.265Z</time>
      </trkpt>
      <trkpt lat="37.513658" lon="-5.281032">
        <ele>189.652311</ele>
        <time>2020-08-14T06:50:04.252Z</time>
      </trkpt>
      <trkpt lat="37.513581" lon="-5.281145">
        <ele>189.597907</ele>
        <time>2020-08-14T06:50:06.260Z</time>
      </trkpt>
      <trkpt lat="37.513508" lon="-5.281245">
        <ele>189.548274</ele>
        <time>2020-08-14T06:50:08.255Z</time>
      </trkpt>
      <trkpt lat="37.513425" lon="-5.281328">
        <ele>189.499497</ele>
        <time>2020-08-14T06:50:10.256Z</time>
      </trkpt>
      <trkpt lat="37.513359" lon="-5.281415">
        <ele>189.455532</ele>
        <time>2020-08-14T06:50:12.265Z</time>
      </trkpt>
      <trkpt lat="37.513281" lon="-5.281502">
        <ele>189.407582</ele>
        <time>2020-08-14T06:50:14.264Z</time>
      </trkpt>
      <trkpt lat="37.513191" lon="-5.281581">
        <ele>189.357090</ele>
        <time>2020-08-14T06:50:16.269Z</time>
      </trkpt>
      <trkpt lat="37.513103" lon="-5.281676">
        <ele>189.303749</ele>
        <time>2020-08-14T06:50:18.273Z</time>
      </trkpt>
      <trkpt lat="37.513001" lon="-5.281757">
        <ele>189.248246</ele>
        <time>2020-08-14T06:50:20.259Z</time>
      </trkpt>
      <trkpt lat="37.512945" lon="-5.281855">
        <ele>189.204136</ele>
        <time>2020-08-14T06:50:22.245Z</time>
      </trkpt>
      <trkpt lat="37.512861" lon="-5.281939">
        <ele>189.154772</ele>
        <time>2020-08-14T06:50:24.252Z</time>
      </trkpt>
      <trkpt lat="37.512780" lon="-5.282026">
        <ele>189.105778</ele>
        <time>2020-08-14T06:50:26.255Z</time>
      </trkpt>
      <trkpt lat="37.512689" lon="-5.282091">
        <ele>189.057623</ele>
        <time>2020-08-14T06:50:28.261Z</time>
      </trkpt>
      <trkpt lat="37.512612" lon="-5.282166">
        <ele>189.012822</ele>
        <time>2020-08-14T06:50:30.258Z</time>
      </trkpt>
      <trkpt lat="37.512535" lon="-5.282242">
        <ele>188.969527</ele>
        <time>2020-08-14T06:50:32.247Z</time>
      </trkpt>
      <trkpt lat="37.512452" lon="-5.282321">
        <ele>188.926658</ele>
        <time>2020-08-14T06:50:34.259Z</time>
      </trkpt>
      <trkpt lat="37.512341" lon="-5.282360">
        <ele>188.879161</ele>
        <time>2020-08-14T06:50:36.258Z</time>
      </trkpt>
      <trkpt lat="37.512222" lon="-5.282422">
        <ele>188.826086</ele>
        <time>2020-08-14T06:50:38.283Z</time>
      </trkpt>
      <trkpt lat="37.512128" lon="-5.282489">
        <ele>188.781575</ele>
        <time>2020-08-14T06:50:40.274Z</time>
      </trkpt>
      <trkpt lat="37.512015" lon="-5.282552">
        <ele>188.730646</ele>
        <time>2020-08-14T06:50:42.272Z</time>
      </trkpt>
      <trkpt lat="37.511914" lon="-5.282588">
        <ele>188.687382</ele>
        <time>2020-08-14T06:50:44.272Z</time>
      </trkpt>
      <trkpt lat="37.511821" lon="-5.282631">
        <ele>188.646551</ele>
        <time>2020-08-14T06:50:46.273Z</time>
      </trkpt>
      <trkpt lat="37.511712" lon="-5.282667">
        <ele>188.600105</ele>
        <time>2020-08-14T06:50:48.266Z</time>
      </trkpt>
      <trkpt lat="37.511597" lon="-5.282706">
        <ele>188.551017</ele>
        <time>2020-08-14T06:50:50.259Z</time>
      </trkpt>
      <trkpt lat="37.511482" lon="-5.282745">
        <ele>188.501929</ele>
        <time>2020-08-14T06:50:52.267Z</time>
      </trkpt>
      <trkpt lat="37.511356" lon="-5.282807">
        <ele>188.446177</ele>
        <time>2020-08-14T06:50:55.272Z</time>
      </trkpt>
      <trkpt lat="37.511256" lon="-5.282841">
        <ele>188.403484</ele>
        <time>2020-08-14T06:50:57.267Z</time>
      </trkpt>
      <trkpt lat="37.511132" lon="-5.282900">
        <ele>188.348852</ele>
        <time>2020-08-14T06:51:00.268Z</time>
      </trkpt>
      <trkpt lat="37.511043" lon="-5.282954">
        <ele>188.308139</ele>
        <time>2020-08-14T06:51:02.259Z</time>
      </trkpt>
      <trkpt lat="37.510952" lon="-5.282986">
        <ele>188.269197</ele>
        <time>2020-08-14T06:51:04.270Z</time>
      </trkpt>
      <trkpt lat="37.510822" lon="-5.283025">
        <ele>188.195082</ele>
        <time>2020-08-14T06:51:07.266Z</time>
      </trkpt>
      <trkpt lat="37.510698" lon="-5.283034">
        <ele>188.110046</ele>
        <time>2020-08-14T06:51:10.253Z</time>
      </trkpt>
      <trkpt lat="37.510607" lon="-5.283054">
        <ele>188.046804</ele>
        <time>2020-08-14T06:51:12.270Z</time>
      </trkpt>
      <trkpt lat="37.510697" lon="-5.283031">
        <ele>187.983933</ele>
        <time>2020-08-14T06:51:54.248Z</time>
      </trkpt>
      <trkpt lat="37.510638" lon="-5.283137">
        <ele>187.913608</ele>
        <time>2020-08-14T06:52:02.243Z</time>
      </trkpt>
      <trkpt lat="37.510535" lon="-5.283142">
        <ele>187.843038</ele>
        <time>2020-08-14T06:52:05.238Z</time>
      </trkpt>
      <trkpt lat="37.510442" lon="-5.283150">
        <ele>187.779219</ele>
        <time>2020-08-14T06:52:08.249Z</time>
      </trkpt>
      <trkpt lat="37.510317" lon="-5.283161">
        <ele>187.693431</ele>
        <time>2020-08-14T06:52:11.260Z</time>
      </trkpt>
      <trkpt lat="37.510228" lon="-5.283183">
        <ele>187.631337</ele>
        <time>2020-08-14T06:52:13.246Z</time>
      </trkpt>
      <trkpt lat="37.510140" lon="-5.283208">
        <ele>187.569578</ele>
        <time>2020-08-14T06:52:15.248Z</time>
      </trkpt>
      <trkpt lat="37.510039" lon="-5.283243">
        <ele>187.497865</ele>
        <time>2020-08-14T06:52:17.258Z</time>
      </trkpt>
      <trkpt lat="37.509909" lon="-5.283247">
        <ele>187.408835</ele>
        <time>2020-08-14T06:52:20.248Z</time>
      </trkpt>
      <trkpt lat="37.509821" lon="-5.283277">
        <ele>187.346423</ele>
        <time>2020-08-14T06:52:22.260Z</time>
      </trkpt>
      <trkpt lat="37.509702" lon="-5.283301">
        <ele>187.263915</ele>
        <time>2020-08-14T06:52:25.281Z</time>
      </trkpt>
      <trkpt lat="37.509579" lon="-5.283372">
        <ele>187.171296</ele>
        <time>2020-08-14T06:52:28.261Z</time>
      </trkpt>
      <trkpt lat="37.509488" lon="-5.283413">
        <ele>187.105134</ele>
        <time>2020-08-14T06:52:30.260Z</time>
      </trkpt>
      <trkpt lat="37.509380" lon="-5.283440">
        <ele>187.029753</ele>
        <time>2020-08-14T06:52:32.257Z</time>
      </trkpt>
      <trkpt lat="37.509269" lon="-5.283505">
        <ele>187.125571</ele>
        <time>2020-08-14T06:52:34.253Z</time>
      </trkpt>
      <trkpt lat="37.509114" lon="-5.283529">
        <ele>187.311699</ele>
        <time>2020-08-14T06:52:36.272Z</time>
      </trkpt>
      <trkpt lat="37.508987" lon="-5.283578">
        <ele>187.469996</ele>
        <time>2020-08-14T06:52:38.252Z</time>
      </trkpt>
      <trkpt lat="37.508857" lon="-5.283594">
        <ele>187.625675</ele>
        <time>2020-08-14T06:52:40.262Z</time>
      </trkpt>
      <trkpt lat="37.508714" lon="-5.283611">
        <ele>187.796868</ele>
        <time>2020-08-14T06:52:43.249Z</time>
      </trkpt>
      <trkpt lat="37.508597" lon="-5.283633">
        <ele>187.937859</ele>
        <time>2020-08-14T06:52:45.282Z</time>
      </trkpt>
      <trkpt lat="37.508486" lon="-5.283653">
        <ele>188.071500</ele>
        <time>2020-08-14T06:52:47.271Z</time>
      </trkpt>
      <trkpt lat="37.508371" lon="-5.283669">
        <ele>188.209397</ele>
        <time>2020-08-14T06:52:49.277Z</time>
      </trkpt>
      <trkpt lat="37.508271" lon="-5.283705">
        <ele>188.333348</ele>
        <time>2020-08-14T06:52:51.249Z</time>
      </trkpt>
      <trkpt lat="37.508165" lon="-5.283727">
        <ele>188.461386</ele>
        <time>2020-08-14T06:52:53.279Z</time>
      </trkpt>
      <trkpt lat="37.508067" lon="-5.283724">
        <ele>188.578223</ele>
        <time>2020-08-14T06:52:55.279Z</time>
      </trkpt>
      <trkpt lat="37.507972" lon="-5.283758">
        <ele>188.695925</ele>
        <time>2020-08-14T06:52:57.263Z</time>
      </trkpt>
      <trkpt lat="37.507879" lon="-5.283773">
        <ele>188.807672</ele>
        <time>2020-08-14T06:52:59.254Z</time>
      </trkpt>
      <trkpt lat="37.507783" lon="-5.283842">
        <ele>188.939382</ele>
        <time>2020-08-14T06:53:02.263Z</time>
      </trkpt>
      <trkpt lat="37.507672" lon="-5.283864">
        <ele>189.073305</ele>
        <time>2020-08-14T06:53:05.264Z</time>
      </trkpt>
      <trkpt lat="37.507585" lon="-5.283894">
        <ele>189.159786</ele>
        <time>2020-08-14T06:53:07.256Z</time>
      </trkpt>
      <trkpt lat="37.507480" lon="-5.283932">
        <ele>189.182985</ele>
        <time>2020-08-14T06:53:10.247Z</time>
      </trkpt>
      <trkpt lat="37.507393" lon="-5.283964">
        <ele>189.202232</ele>
        <time>2020-08-14T06:53:12.285Z</time>
      </trkpt>
      <trkpt lat="37.507288" lon="-5.284014">
        <ele>189.226069</ele>
        <time>2020-08-14T06:53:15.249Z</time>
      </trkpt>
      <trkpt lat="37.507179" lon="-5.284067">
        <ele>189.250879</ele>
        <time>2020-08-14T06:53:18.263Z</time>
      </trkpt>
      <trkpt lat="37.507056" lon="-5.284096">
        <ele>189.277454</ele>
        <time>2020-08-14T06:53:21.261Z</time>
      </trkpt>
      <trkpt lat="37.506936" lon="-5.284140">
        <ele>189.303994</ele>
        <time>2020-08-14T06:53:24.269Z</time>
      </trkpt>
      <trkpt lat="37.506811" lon="-5.284176">
        <ele>189.331225</ele>
        <time>2020-08-14T06:53:27.249Z</time>
      </trkpt>
      <trkpt lat="37.506680" lon="-5.284202">
        <ele>189.359388</ele>
        <time>2020-08-14T06:53:30.285Z</time>
      </trkpt>
      <trkpt lat="37.506572" lon="-5.284199">
        <ele>189.382329</ele>
        <time>2020-08-14T06:53:32.265Z</time>
      </trkpt>
      <trkpt lat="37.506481" lon="-5.284230">
        <ele>189.402348</ele>
        <time>2020-08-14T06:53:34.246Z</time>
      </trkpt>
      <trkpt lat="37.506382" lon="-5.284252">
        <ele>189.423697</ele>
        <time>2020-08-14T06:53:36.260Z</time>
      </trkpt>
      <trkpt lat="37.506269" lon="-5.284296">
        <ele>189.448814</ele>
        <time>2020-08-14T06:53:39.248Z</time>
      </trkpt>
      <trkpt lat="37.506191" lon="-5.284357">
        <ele>189.468307</ele>
        <time>2020-08-14T06:53:41.269Z</time>
      </trkpt>
      <trkpt lat="37.506075" lon="-5.284394">
        <ele>189.493719</ele>
        <time>2020-08-14T06:53:44.268Z</time>
      </trkpt>
      <trkpt lat="37.505985" lon="-5.284447">
        <ele>189.514815</ele>
        <time>2020-08-14T06:53:46.260Z</time>
      </trkpt>
      <trkpt lat="37.505876" lon="-5.284489">
        <ele>189.532602</ele>
        <time>2020-08-14T06:53:48.270Z</time>
      </trkpt>
      <trkpt lat="37.505779" lon="-5.284533">
        <ele>189.477051</ele>
        <time>2020-08-14T06:53:50.246Z</time>
      </trkpt>
      <trkpt lat="37.505683" lon="-5.284587">
        <ele>189.420403</ele>
        <time>2020-08-14T06:53:52.263Z</time>
      </trkpt>
      <trkpt lat="37.505594" lon="-5.284644">
        <ele>189.366609</ele>
        <time>2020-08-14T06:53:54.258Z</time>
      </trkpt>
      <trkpt lat="37.505504" lon="-5.284720">
        <ele>189.308234</ele>
        <time>2020-08-14T06:53:56.273Z</time>
      </trkpt>
      <trkpt lat="37.505425" lon="-5.284804">
        <ele>189.252542</ele>
        <time>2020-08-14T06:53:58.263Z</time>
      </trkpt>
      <trkpt lat="37.505323" lon="-5.284867">
        <ele>189.191334</ele>
        <time>2020-08-14T06:54:00.263Z</time>
      </trkpt>
      <trkpt lat="37.505229" lon="-5.284954">
        <ele>189.128493</ele>
        <time>2020-08-14T06:54:02.268Z</time>
      </trkpt>
      <trkpt lat="37.505119" lon="-5.285039">
        <ele>189.058967</ele>
        <time>2020-08-14T06:54:04.259Z</time>
      </trkpt>
      <trkpt lat="37.504985" lon="-5.285132">
        <ele>188.976538</ele>
        <time>2020-08-14T06:54:06.266Z</time>
      </trkpt>
      <trkpt lat="37.504889" lon="-5.285250">
        <ele>188.904284</ele>
        <time>2020-08-14T06:54:08.269Z</time>
      </trkpt>
      <trkpt lat="37.504791" lon="-5.285349">
        <ele>188.836609</ele>
        <time>2020-08-14T06:54:10.260Z</time>
      </trkpt>
      <trkpt lat="37.504691" lon="-5.285451">
        <ele>188.767291</ele>
        <time>2020-08-14T06:54:12.263Z</time>
      </trkpt>
      <trkpt lat="37.504578" lon="-5.285525">
        <ele>188.698672</ele>
        <time>2020-08-14T06:54:14.256Z</time>
      </trkpt>
      <trkpt lat="37.504476" lon="-5.285612">
        <ele>188.632307</ele>
        <time>2020-08-14T06:54:16.248Z</time>
      </trkpt>
      <trkpt lat="37.504361" lon="-5.285672">
        <ele>188.560704</ele>
        <time>2020-08-14T06:54:18.268Z</time>
      </trkpt>
      <trkpt lat="37.504276" lon="-5.285767">
        <ele>188.398026</ele>
        <time>2020-08-14T06:54:20.253Z</time>
      </trkpt>
      <trkpt lat="37.504182" lon="-5.285841">
        <ele>188.239321</ele>
        <time>2020-08-14T06:54:22.264Z</time>
      </trkpt>
      <trkpt lat="37.504089" lon="-5.285929">
        <ele>188.072794</ele>
        <time>2020-08-14T06:54:24.250Z</time>
      </trkpt>
      <trkpt lat="37.504013" lon="-5.285991">
        <ele>187.943156</ele>
        <time>2020-08-14T06:54:26.271Z</time>
      </trkpt>
      <trkpt lat="37.503900" lon="-5.286068">
        <ele>187.759206</ele>
        <time>2020-08-14T06:54:28.268Z</time>
      </trkpt>
      <trkpt lat="37.503816" lon="-5.286114">
        <ele>187.628055</ele>
        <time>2020-08-14T06:54:30.270Z</time>
      </trkpt>
      <trkpt lat="37.503708" lon="-5.286185">
        <ele>187.453625</ele>
        <time>2020-08-14T06:54:33.249Z</time>
      </trkpt>
      <trkpt lat="37.503644" lon="-5.286268">
        <ele>187.322131</ele>
        <time>2020-08-14T06:54:35.276Z</time>
      </trkpt>
      <trkpt lat="37.503528" lon="-5.286353">
        <ele>187.129987</ele>
        <time>2020-08-14T06:54:38.271Z</time>
      </trkpt>
      <trkpt lat="37.503439" lon="-5.286460">
        <ele>186.953862</ele>
        <time>2020-08-14T06:54:41.282Z</time>
      </trkpt>
      <trkpt lat="37.503357" lon="-5.286543">
        <ele>186.803263</ele>
        <time>2020-08-14T06:54:43.250Z</time>
      </trkpt>
      <trkpt lat="37.503286" lon="-5.286615">
        <ele>186.672771</ele>
        <time>2020-08-14T06:54:45.263Z</time>
      </trkpt>
      <trkpt lat="37.503221" lon="-5.286703">
        <ele>186.536173</ele>
        <time>2020-08-14T06:54:47.287Z</time>
      </trkpt>
      <trkpt lat="37.503149" lon="-5.286780">
        <ele>186.400958</ele>
        <time>2020-08-14T06:54:49.262Z</time>
      </trkpt>
      <trkpt lat="37.503069" lon="-5.286895">
        <ele>186.227196</ele>
        <time>2020-08-14T06:54:52.264Z</time>
      </trkpt>
      <trkpt lat="37.502969" lon="-5.286982">
        <ele>186.053196</ele>
        <time>2020-08-14T06:54:55.266Z</time>
      </trkpt>
      <trkpt lat="37.502871" lon="-5.287074">
        <ele>186.170820</ele>
        <time>2020-08-14T06:54:58.247Z</time>
      </trkpt>
      <trkpt lat="37.502768" lon="-5.287176">
        <ele>186.464500</ele>
        <time>2020-08-14T06:55:01.258Z</time>
      </trkpt>
      <trkpt lat="37.502701" lon="-5.287270">
        <ele>186.689271</ele>
        <time>2020-08-14T06:55:03.260Z</time>
      </trkpt>
      <trkpt lat="37.502629" lon="-5.287339">
        <ele>186.892059</ele>
        <time>2020-08-14T06:55:05.264Z</time>
      </trkpt>
      <trkpt lat="37.502560" lon="-5.287442">
        <ele>187.131848</ele>
        <time>2020-08-14T06:55:07.255Z</time>
      </trkpt>
      <trkpt lat="37.502453" lon="-5.287516">
        <ele>187.405489</ele>
        <time>2020-08-14T06:55:09.266Z</time>
      </trkpt>
      <trkpt lat="37.502375" lon="-5.287588">
        <ele>187.622251</ele>
        <time>2020-08-14T06:55:11.265Z</time>
      </trkpt>
      <trkpt lat="37.502268" lon="-5.287715">
        <ele>187.951772</ele>
        <time>2020-08-14T06:55:14.249Z</time>
      </trkpt>
      <trkpt lat="37.502183" lon="-5.287813">
        <ele>188.210047</ele>
        <time>2020-08-14T06:55:16.250Z</time>
      </trkpt>
      <trkpt lat="37.502098" lon="-5.287882">
        <ele>188.436726</ele>
        <time>2020-08-14T06:55:18.253Z</time>
      </trkpt>
      <trkpt lat="37.502034" lon="-5.287995">
        <ele>188.683688</ele>
        <time>2020-08-14T06:55:20.264Z</time>
      </trkpt>
      <trkpt lat="37.501958" lon="-5.288057">
        <ele>188.886661</ele>
        <time>2020-08-14T06:55:22.263Z</time>
      </trkpt>
      <trkpt lat="37.501877" lon="-5.288143">
        <ele>189.124110</ele>
        <time>2020-08-14T06:55:24.256Z</time>
      </trkpt>
      <trkpt lat="37.501798" lon="-5.288246">
        <ele>189.378942</ele>
        <time>2020-08-14T06:55:26.240Z</time>
      </trkpt>
      <trkpt lat="37.501705" lon="-5.288285">
        <ele>189.598694</ele>
        <time>2020-08-14T06:55:28.267Z</time>
      </trkpt>
      <trkpt lat="37.501596" lon="-5.288333">
        <ele>189.857568</ele>
        <time>2020-08-14T06:55:30.247Z</time>
      </trkpt>
      <trkpt lat="37.501513" lon="-5.288395">
        <ele>190.002582</ele>
        <time>2020-08-14T06:55:32.267Z</time>
      </trkpt>
      <trkpt lat="37.501402" lon="-5.288487">
        <ele>189.865996</ele>
        <time>2020-08-14T06:55:35.271Z</time>
      </trkpt>
      <trkpt lat="37.501309" lon="-5.288578">
        <ele>189.744949</ele>
        <time>2020-08-14T06:55:37.252Z</time>
      </trkpt>
      <trkpt lat="37.501233" lon="-5.288662">
        <ele>189.641025</ele>
        <time>2020-08-14T06:55:39.246Z</time>
      </trkpt>
      <trkpt lat="37.501150" lon="-5.288719">
        <ele>189.543845</ele>
        <time>2020-08-14T06:55:41.265Z</time>
      </trkpt>
      <trkpt lat="37.501082" lon="-5.288801">
        <ele>189.447090</ele>
        <time>2020-08-14T06:55:43.251Z</time>
      </trkpt>
      <trkpt lat="37.501009" lon="-5.288900">
        <ele>189.336844</ele>
        <time>2020-08-14T06:55:45.259Z</time>
      </trkpt>
      <trkpt lat="37.500933" lon="-5.288965">
        <ele>189.242416</ele>
        <time>2020-08-14T06:55:47.272Z</time>
      </trkpt>
      <trkpt lat="37.500853" lon="-5.289060">
        <ele>189.129412</ele>
        <time>2020-08-14T06:55:49.246Z</time>
      </trkpt>
      <trkpt lat="37.500774" lon="-5.289135">
        <ele>189.027727</ele>
        <time>2020-08-14T06:55:51.270Z</time>
      </trkpt>
      <trkpt lat="37.500684" lon="-5.289206">
        <ele>188.918565</ele>
        <time>2020-08-14T06:55:53.268Z</time>
      </trkpt>
      <trkpt lat="37.500588" lon="-5.289291">
        <ele>188.797945</ele>
        <time>2020-08-14T06:55:55.272Z</time>
      </trkpt>
      <trkpt lat="37.500521" lon="-5.289375">
        <ele>188.700786</ele>
        <time>2020-08-14T06:55:57.247Z</time>
      </trkpt>
      <trkpt lat="37.500419" lon="-5.289450">
        <ele>188.579376</ele>
        <time>2020-08-14T06:55:59.249Z</time>
      </trkpt>
      <trkpt lat="37.500326" lon="-5.289509">
        <ele>188.472330</ele>
        <time>2020-08-14T06:56:01.263Z</time>
      </trkpt>
      <trkpt lat="37.500231" lon="-5.289599">
        <ele>188.350144</ele>
        <time>2020-08-14T06:56:03.254Z</time>
      </trkpt>
      <trkpt lat="37.500150" lon="-5.289674">
        <ele>188.246809</ele>
        <time>2020-08-14T06:56:05.263Z</time>
      </trkpt>
      <trkpt lat="37.500059" lon="-5.289738">
        <ele>188.047709</ele>
        <time>2020-08-14T06:56:07.251Z</time>
      </trkpt>
      <trkpt lat="37.499973" lon="-5.289809">
        <ele>187.672442</ele>
        <time>2020-08-14T06:56:09.273Z</time>
      </trkpt>
      <trkpt lat="37.499893" lon="-5.289864">
        <ele>187.339806</ele>
        <time>2020-08-14T06:56:11.262Z</time>
      </trkpt>
      <trkpt lat="37.499826" lon="-5.289970">
        <ele>186.947318</ele>
        <time>2020-08-14T06:56:13.260Z</time>
      </trkpt>
      <trkpt lat="37.499733" lon="-5.290038">
        <ele>186.554859</ele>
        <time>2020-08-14T06:56:15.273Z</time>
      </trkpt>
      <trkpt lat="37.499652" lon="-5.290119">
        <ele>186.177436</ele>
        <time>2020-08-14T06:56:17.255Z</time>
      </trkpt>
      <trkpt lat="37.499587" lon="-5.290210">
        <ele>185.822829</ele>
        <time>2020-08-14T06:56:19.262Z</time>
      </trkpt>
      <trkpt lat="37.499503" lon="-5.290263">
        <ele>185.479934</ele>
        <time>2020-08-14T06:56:21.269Z</time>
      </trkpt>
      <trkpt lat="37.499420" lon="-5.290320">
        <ele>185.134910</ele>
        <time>2020-08-14T06:56:23.245Z</time>
      </trkpt>
      <trkpt lat="37.499322" lon="-5.290412">
        <ele>184.688867</ele>
        <time>2020-08-14T06:56:26.264Z</time>
      </trkpt>
      <trkpt lat="37.499231" lon="-5.290479">
        <ele>184.304173</ele>
        <time>2020-08-14T06:56:28.268Z</time>
      </trkpt>
      <trkpt lat="37.499132" lon="-5.290536">
        <ele>183.906879</ele>
        <time>2020-08-14T06:56:30.263Z</time>
      </trkpt>
      <trkpt lat="37.499043" lon="-5.290598">
        <ele>183.535687</ele>
        <time>2020-08-14T06:56:32.273Z</time>
      </trkpt>
      <trkpt lat="37.498964" lon="-5.290679">
        <ele>183.163955</ele>
        <time>2020-08-14T06:56:34.264Z</time>
      </trkpt>
      <trkpt lat="37.498884" lon="-5.290733">
        <ele>182.832695</ele>
        <time>2020-08-14T06:56:36.250Z</time>
      </trkpt>
      <trkpt lat="37.498781" lon="-5.290792">
        <ele>182.419711</ele>
        <time>2020-08-14T06:56:38.268Z</time>
      </trkpt>
      <trkpt lat="37.498690" lon="-5.290854">
        <ele>182.042114</ele>
        <time>2020-08-14T06:56:40.249Z</time>
      </trkpt>
      <trkpt lat="37.498596" lon="-5.290892">
        <ele>181.681771</ele>
        <time>2020-08-14T06:56:42.250Z</time>
      </trkpt>
      <trkpt lat="37.498507" lon="-5.290958">
        <ele>181.468564</ele>
        <time>2020-08-14T06:56:44.272Z</time>
      </trkpt>
      <trkpt lat="37.498413" lon="-5.291002">
        <ele>181.298814</ele>
        <time>2020-08-14T06:56:46.256Z</time>
      </trkpt>
      <trkpt lat="37.498342" lon="-5.291077">
        <ele>181.141990</ele>
        <time>2020-08-14T06:56:48.254Z</time>
      </trkpt>
      <trkpt lat="37.498255" lon="-5.291138">
        <ele>180.973454</ele>
        <time>2020-08-14T06:56:50.277Z</time>
      </trkpt>
      <trkpt lat="37.498145" lon="-5.291186">
        <ele>180.776393</ele>
        <time>2020-08-14T06:56:52.269Z</time>
      </trkpt>
      <trkpt lat="37.498024" lon="-5.291200">
        <ele>180.570691</ele>
        <time>2020-08-14T06:56:54.264Z</time>
      </trkpt>
      <trkpt lat="37.497904" lon="-5.291219">
        <ele>180.365948</ele>
        <time>2020-08-14T06:56:56.248Z</time>
      </trkpt>
      <trkpt lat="37.497783" lon="-5.291269">
        <ele>180.150381</ele>
        <time>2020-08-14T06:56:58.261Z</time>
      </trkpt>
      <trkpt lat="37.497674" lon="-5.291347">
        <ele>179.938191</ele>
        <time>2020-08-14T06:57:01.261Z</time>
      </trkpt>
      <trkpt lat="37.497594" lon="-5.291414">
        <ele>179.775589</ele>
        <time>2020-08-14T06:57:03.259Z</time>
      </trkpt>
      <trkpt lat="37.497460" lon="-5.291450">
        <ele>179.543645</ele>
        <time>2020-08-14T06:57:06.266Z</time>
      </trkpt>
      <trkpt lat="37.497336" lon="-5.291537">
        <ele>179.303396</ele>
        <time>2020-08-14T06:57:09.261Z</time>
      </trkpt>
      <trkpt lat="37.497251" lon="-5.291578">
        <ele>179.149323</ele>
        <time>2020-08-14T06:57:11.273Z</time>
      </trkpt>
      <trkpt lat="37.497159" lon="-5.291632">
        <ele>178.977517</ele>
        <time>2020-08-14T06:57:13.249Z</time>
      </trkpt>
      <trkpt lat="37.497067" lon="-5.291661">
        <ele>178.816975</ele>
        <time>2020-08-14T06:57:15.272Z</time>
      </trkpt>
      <trkpt lat="37.496980" lon="-5.291698">
        <ele>178.661535</ele>
        <time>2020-08-14T06:57:17.260Z</time>
      </trkpt>
      <trkpt lat="37.496879" lon="-5.291741">
        <ele>178.567813</ele>
        <time>2020-08-14T06:57:19.266Z</time>
      </trkpt>
      <trkpt lat="37.496773" lon="-5.291825">
        <ele>178.574246</ele>
        <time>2020-08-14T06:57:22.259Z</time>
      </trkpt>
      <trkpt lat="37.496674" lon="-5.291843">
        <ele>178.579386</ele>
        <time>2020-08-14T06:57:24.251Z</time>
      </trkpt>
      <trkpt lat="37.496557" lon="-5.291845">
        <ele>178.585398</ele>
        <time>2020-08-14T06:57:26.263Z</time>
      </trkpt>
      <trkpt lat="37.496456" lon="-5.291861">
        <ele>178.590629</ele>
        <time>2020-08-14T06:57:28.274Z</time>
      </trkpt>
      <trkpt lat="37.496333" lon="-5.291931">
        <ele>178.597563</ele>
        <time>2020-08-14T06:57:31.265Z</time>
      </trkpt>
      <trkpt lat="37.496235" lon="-5.291951">
        <ele>178.602664</ele>
        <time>2020-08-14T06:57:33.256Z</time>
      </trkpt>
      <trkpt lat="37.496114" lon="-5.291991">
        <ele>178.609092</ele>
        <time>2020-08-14T06:57:36.266Z</time>
      </trkpt>
      <trkpt lat="37.496041" lon="-5.292059">
        <ele>178.613756</ele>
        <time>2020-08-14T06:57:38.259Z</time>
      </trkpt>
      <trkpt lat="37.495937" lon="-5.292102">
        <ele>178.619380</ele>
        <time>2020-08-14T06:57:40.268Z</time>
      </trkpt>
      <trkpt lat="37.495844" lon="-5.292164">
        <ele>178.624786</ele>
        <time>2020-08-14T06:57:42.272Z</time>
      </trkpt>
      <trkpt lat="37.495732" lon="-5.292192">
        <ele>178.630653</ele>
        <time>2020-08-14T06:57:44.266Z</time>
      </trkpt>
      <trkpt lat="37.495634" lon="-5.292220">
        <ele>178.635816</ele>
        <time>2020-08-14T06:57:46.258Z</time>
      </trkpt>
      <trkpt lat="37.495535" lon="-5.292299">
        <ele>178.641837</ele>
        <time>2020-08-14T06:57:49.262Z</time>
      </trkpt>
      <trkpt lat="37.495432" lon="-5.292349">
        <ele>178.647508</ele>
        <time>2020-08-14T06:57:51.260Z</time>
      </trkpt>
      <trkpt lat="37.495337" lon="-5.292402">
        <ele>178.652846</ele>
        <time>2020-08-14T06:57:53.267Z</time>
      </trkpt>
      <trkpt lat="37.495218" lon="-5.292422">
        <ele>178.654574</ele>
        <time>2020-08-14T06:57:55.272Z</time>
      </trkpt>
      <trkpt lat="37.495124" lon="-5.292463">
        <ele>178.642728</ele>
        <time>2020-08-14T06:57:57.266Z</time>
      </trkpt>
      <trkpt lat="37.495028" lon="-5.292522">
        <ele>178.630009</ele>
        <time>2020-08-14T06:57:59.267Z</time>
      </trkpt>
      <trkpt lat="37.494936" lon="-5.292588">
        <ele>178.617403</ele>
        <time>2020-08-14T06:58:01.268Z</time>
      </trkpt>
      <trkpt lat="37.494826" lon="-5.292616">
        <ele>178.604039</ele>
        <time>2020-08-14T06:58:03.259Z</time>
      </trkpt>
      <trkpt lat="37.494697" lon="-5.292697">
        <ele>178.586876</ele>
        <time>2020-08-14T06:58:06.249Z</time>
      </trkpt>
      <trkpt lat="37.494593" lon="-5.292706">
        <ele>178.574462</ele>
        <time>2020-08-14T06:58:08.270Z</time>
      </trkpt>
      <trkpt lat="37.494473" lon="-5.292736">
        <ele>178.559893</ele>
        <time>2020-08-14T06:58:10.278Z</time>
      </trkpt>
      <trkpt lat="37.494364" lon="-5.292754">
        <ele>178.546802</ele>
        <time>2020-08-14T06:58:12.268Z</time>
      </trkpt>
      <trkpt lat="37.494251" lon="-5.292794">
        <ele>178.532825</ele>
        <time>2020-08-14T06:58:14.273Z</time>
      </trkpt>
      <trkpt lat="37.494162" lon="-5.292844">
        <ele>178.521221</ele>
        <time>2020-08-14T06:58:16.270Z</time>
      </trkpt>
      <trkpt lat="37.494084" lon="-5.292925">
        <ele>178.509185</ele>
        <time>2020-08-14T06:58:18.278Z</time>
      </trkpt>
      <trkpt lat="37.493973" lon="-5.292968">
        <ele>178.495356</ele>
        <time>2020-08-14T06:58:20.272Z</time>
      </trkpt>
      <trkpt lat="37.493856" lon="-5.293014">
        <ele>178.480761</ele>
        <time>2020-08-14T06:58:22.272Z</time>
      </trkpt>
      <trkpt lat="37.493756" lon="-5.293072">
        <ele>178.467652</ele>
        <time>2020-08-14T06:58:24.270Z</time>
      </trkpt>
      <trkpt lat="37.493652" lon="-5.293106">
        <ele>178.454857</ele>
        <time>2020-08-14T06:58:26.252Z</time>
      </trkpt>
      <trkpt lat="37.493560" lon="-5.293174">
        <ele>178.448457</ele>
        <time>2020-08-14T06:58:28.256Z</time>
      </trkpt>
      <trkpt lat="37.493454" lon="-5.293213">
        <ele>178.497783</ele>
        <time>2020-08-14T06:58:30.268Z</time>
      </trkpt>
      <trkpt lat="37.493352" lon="-5.293266">
        <ele>178.547065</ele>
        <time>2020-08-14T06:58:32.265Z</time>
      </trkpt>
      <trkpt lat="37.493259" lon="-5.293297">
        <ele>178.590036</ele>
        <time>2020-08-14T06:58:34.264Z</time>
      </trkpt>
      <trkpt lat="37.493156" lon="-5.293348">
        <ele>178.639468</ele>
        <time>2020-08-14T06:58:36.271Z</time>
      </trkpt>
      <trkpt lat="37.493059" lon="-5.293392">
        <ele>178.685518</ele>
        <time>2020-08-14T06:58:38.265Z</time>
      </trkpt>
      <trkpt lat="37.492961" lon="-5.293441">
        <ele>178.732613</ele>
        <time>2020-08-14T06:58:40.251Z</time>
      </trkpt>
      <trkpt lat="37.492871" lon="-5.293507">
        <ele>178.779125</ele>
        <time>2020-08-14T06:58:42.263Z</time>
      </trkpt>
      <trkpt lat="37.492780" lon="-5.293559">
        <ele>178.823757</ele>
        <time>2020-08-14T06:58:44.261Z</time>
      </trkpt>
      <trkpt lat="37.492659" lon="-5.293579">
        <ele>178.878269</ele>
        <time>2020-08-14T06:58:46.261Z</time>
      </trkpt>
      <trkpt lat="37.492579" lon="-5.293660">
        <ele>178.924107</ele>
        <time>2020-08-14T06:58:48.268Z</time>
      </trkpt>
      <trkpt lat="37.492462" lon="-5.293741">
        <ele>178.983736</ele>
        <time>2020-08-14T06:58:51.267Z</time>
      </trkpt>
      <trkpt lat="37.492354" lon="-5.293770">
        <ele>179.033061</ele>
        <time>2020-08-14T06:58:53.278Z</time>
      </trkpt>
      <trkpt lat="37.492245" lon="-5.293806">
        <ele>179.083395</ele>
        <time>2020-08-14T06:58:55.271Z</time>
      </trkpt>
      <trkpt lat="37.492143" lon="-5.293849">
        <ele>179.131438</ele>
        <time>2020-08-14T06:58:57.240Z</time>
      </trkpt>
      <trkpt lat="37.492043" lon="-5.293899">
        <ele>179.179494</ele>
        <time>2020-08-14T06:58:59.256Z</time>
      </trkpt>
      <trkpt lat="37.491951" lon="-5.293952">
        <ele>179.224679</ele>
        <time>2020-08-14T06:59:01.263Z</time>
      </trkpt>
      <trkpt lat="37.491863" lon="-5.294000">
        <ele>179.288746</ele>
        <time>2020-08-14T06:59:03.260Z</time>
      </trkpt>
      <trkpt lat="37.491745" lon="-5.294020">
        <ele>179.396775</ele>
        <time>2020-08-14T06:59:05.266Z</time>
      </trkpt>
      <trkpt lat="37.491644" lon="-5.294058">
        <ele>179.492411</ele>
        <time>2020-08-14T06:59:07.250Z</time>
      </trkpt>
      <trkpt lat="37.491542" lon="-5.294097">
        <ele>179.589124</ele>
        <time>2020-08-14T06:59:09.252Z</time>
      </trkpt>
      <trkpt lat="37.491449" lon="-5.294153">
        <ele>179.682642</ele>
        <time>2020-08-14T06:59:11.257Z</time>
      </trkpt>
      <trkpt lat="37.491357" lon="-5.294194">
        <ele>179.771181</ele>
        <time>2020-08-14T06:59:13.244Z</time>
      </trkpt>
      <trkpt lat="37.491260" lon="-5.294260">
        <ele>179.871199</ele>
        <time>2020-08-14T06:59:15.269Z</time>
      </trkpt>
      <trkpt lat="37.491157" lon="-5.294301">
        <ele>179.969205</ele>
        <time>2020-08-14T06:59:17.273Z</time>
      </trkpt>
      <trkpt lat="37.491032" lon="-5.294336">
        <ele>180.085386</ele>
        <time>2020-08-14T06:59:19.271Z</time>
      </trkpt>
      <trkpt lat="37.490926" lon="-5.294370">
        <ele>180.184629</ele>
        <time>2020-08-14T06:59:21.269Z</time>
      </trkpt>
      <trkpt lat="37.490826" lon="-5.294404">
        <ele>180.278606</ele>
        <time>2020-08-14T06:59:23.268Z</time>
      </trkpt>
      <trkpt lat="37.490722" lon="-5.294428">
        <ele>180.374537</ele>
        <time>2020-08-14T06:59:25.266Z</time>
      </trkpt>
      <trkpt lat="37.490654" lon="-5.294506">
        <ele>180.457964</ele>
        <time>2020-08-14T06:59:27.264Z</time>
      </trkpt>
      <trkpt lat="37.490561" lon="-5.294538">
        <ele>180.545434</ele>
        <time>2020-08-14T06:59:29.258Z</time>
      </trkpt>
      <trkpt lat="37.490461" lon="-5.294588">
        <ele>180.643046</ele>
        <time>2020-08-14T06:59:31.268Z</time>
      </trkpt>
      <trkpt lat="37.490315" lon="-5.294671">
        <ele>180.788370</ele>
        <time>2020-08-14T06:59:34.269Z</time>
      </trkpt>
      <trkpt lat="37.490230" lon="-5.294722">
        <ele>180.873787</ele>
        <time>2020-08-14T06:59:36.255Z</time>
      </trkpt>
      <trkpt lat="37.490119" lon="-5.294735">
        <ele>180.973037</ele>
        <time>2020-08-14T06:59:38.268Z</time>
      </trkpt>
      <trkpt lat="37.489966" lon="-5.294811">
        <ele>181.119306</ele>
        <time>2020-08-14T06:59:42.300Z</time>
      </trkpt>
      <trkpt lat="37.489840" lon="-5.294863">
        <ele>181.237227</ele>
        <time>2020-08-14T06:59:44.283Z</time>
      </trkpt>
      <trkpt lat="37.489699" lon="-5.294922">
        <ele>181.369366</ele>
        <time>2020-08-14T06:59:47.268Z</time>
      </trkpt>
      <trkpt lat="37.489580" lon="-5.294980">
        <ele>181.482845</ele>
        <time>2020-08-14T06:59:49.269Z</time>
      </trkpt>
      <trkpt lat="37.489471" lon="-5.295050">
        <ele>181.591651</ele>
        <time>2020-08-14T06:59:51.269Z</time>
      </trkpt>
      <trkpt lat="37.489359" lon="-5.295076">
        <ele>181.692941</ele>
        <time>2020-08-14T06:59:53.262Z</time>
      </trkpt>
      <trkpt lat="37.489263" lon="-5.295117">
        <ele>181.783094</ele>
        <time>2020-08-14T06:59:55.258Z</time>
      </trkpt>
      <trkpt lat="37.489171" lon="-5.295159">
        <ele>181.870123</ele>
        <time>2020-08-14T06:59:57.248Z</time>
      </trkpt>
      <trkpt lat="37.489068" lon="-5.295208">
        <ele>181.968042</ele>
        <time>2020-08-14T06:59:59.249Z</time>
      </trkpt>
      <trkpt lat="37.488977" lon="-5.295249">
        <ele>182.053995</ele>
        <time>2020-08-14T07:00:01.259Z</time>
      </trkpt>
      <trkpt lat="37.488866" lon="-5.295285">
        <ele>182.155936</ele>
        <time>2020-08-14T07:00:03.262Z</time>
      </trkpt>
      <trkpt lat="37.488769" lon="-5.295337">
        <ele>182.249690</ele>
        <time>2020-08-14T07:00:05.245Z</time>
      </trkpt>
      <trkpt lat="37.488685" lon="-5.295397">
        <ele>182.335566</ele>
        <time>2020-08-14T07:00:07.248Z</time>
      </trkpt>
      <trkpt lat="37.488582" lon="-5.295484">
        <ele>182.445847</ele>
        <time>2020-08-14T07:00:10.264Z</time>
      </trkpt>
      <trkpt lat="37.488488" lon="-5.295522">
        <ele>182.475909</ele>
        <time>2020-08-14T07:00:12.258Z</time>
      </trkpt>
      <trkpt lat="37.488387" lon="-5.295567">
        <ele>182.471217</ele>
        <time>2020-08-14T07:00:14.266Z</time>
      </trkpt>
      <trkpt lat="37.488276" lon="-5.295592">
        <ele>182.466279</ele>
        <time>2020-08-14T07:00:16.255Z</time>
      </trkpt>
      <trkpt lat="37.488172" lon="-5.295631">
        <ele>182.461526</ele>
        <time>2020-08-14T07:00:18.259Z</time>
      </trkpt>
      <trkpt lat="37.488068" lon="-5.295686">
        <ele>182.456586</ele>
        <time>2020-08-14T07:00:20.255Z</time>
      </trkpt>
      <trkpt lat="37.487963" lon="-5.295743">
        <ele>182.451579</ele>
        <time>2020-08-14T07:00:22.275Z</time>
      </trkpt>
      <trkpt lat="37.487876" lon="-5.295775">
        <ele>182.447610</ele>
        <time>2020-08-14T07:00:24.261Z</time>
      </trkpt>
      <trkpt lat="37.487785" lon="-5.295815">
        <ele>182.443389</ele>
        <time>2020-08-14T07:00:26.265Z</time>
      </trkpt>
      <trkpt lat="37.487688" lon="-5.295857">
        <ele>182.438897</ele>
        <time>2020-08-14T07:00:28.263Z</time>
      </trkpt>
      <trkpt lat="37.487594" lon="-5.295908">
        <ele>182.434414</ele>
        <time>2020-08-14T07:00:30.261Z</time>
      </trkpt>
      <trkpt lat="37.487487" lon="-5.295942">
        <ele>182.429581</ele>
        <time>2020-08-14T07:00:32.267Z</time>
      </trkpt>
      <trkpt lat="37.487381" lon="-5.295971">
        <ele>182.424830</ele>
        <time>2020-08-14T07:00:34.261Z</time>
      </trkpt>
      <trkpt lat="37.487300" lon="-5.296039">
        <ele>182.420568</ele>
        <time>2020-08-14T07:00:36.265Z</time>
      </trkpt>
      <trkpt lat="37.487206" lon="-5.296079">
        <ele>182.416222</ele>
        <time>2020-08-14T07:00:38.258Z</time>
      </trkpt>
      <trkpt lat="37.487100" lon="-5.296147">
        <ele>182.411013</ele>
        <time>2020-08-14T07:00:41.253Z</time>
      </trkpt>
      <trkpt lat="37.486971" lon="-5.296199">
        <ele>182.405081</ele>
        <time>2020-08-14T07:00:44.257Z</time>
      </trkpt>
      <trkpt lat="37.486851" lon="-5.296252">
        <ele>182.393550</ele>
        <time>2020-08-14T07:00:47.250Z</time>
      </trkpt>
      <trkpt lat="37.486745" lon="-5.296261">
        <ele>182.304861</ele>
        <time>2020-08-14T07:00:49.246Z</time>
      </trkpt>
      <trkpt lat="37.486658" lon="-5.296306">
        <ele>182.226356</ele>
        <time>2020-08-14T07:00:51.262Z</time>
      </trkpt>
      <trkpt lat="37.486552" lon="-5.296369">
        <ele>182.128521</ele>
        <time>2020-08-14T07:00:54.264Z</time>
      </trkpt>
      <trkpt lat="37.486447" lon="-5.296438">
        <ele>182.029667</ele>
        <time>2020-08-14T07:00:57.256Z</time>
      </trkpt>
      <trkpt lat="37.486332" lon="-5.296514">
        <ele>181.921267</ele>
        <time>2020-08-14T07:01:00.251Z</time>
      </trkpt>
      <trkpt lat="37.486223" lon="-5.296576">
        <ele>181.821436</ele>
        <time>2020-08-14T07:01:03.266Z</time>
      </trkpt>
      <trkpt lat="37.486105" lon="-5.296613">
        <ele>181.719928</ele>
        <time>2020-08-14T07:01:06.255Z</time>
      </trkpt>
      <trkpt lat="37.485985" lon="-5.296658">
        <ele>181.615412</ele>
        <time>2020-08-14T07:01:09.279Z</time>
      </trkpt>
      <trkpt lat="37.485879" lon="-5.296723">
        <ele>181.517005</ele>
        <time>2020-08-14T07:01:12.253Z</time>
      </trkpt>
      <trkpt lat="37.485755" lon="-5.296791">
        <ele>181.404115</ele>
        <time>2020-08-14T07:01:15.257Z</time>
      </trkpt>
      <trkpt lat="37.485603" lon="-5.296867">
        <ele>181.267605</ele>
        <time>2020-08-14T07:01:19.251Z</time>
      </trkpt>
      <trkpt lat="37.485396" lon="-5.296934">
        <ele>181.089195</ele>
        <time>2020-08-14T07:01:22.247Z</time>
      </trkpt>
      <trkpt lat="37.485305" lon="-5.296953">
        <ele>181.012194</ele>
        <time>2020-08-14T07:01:24.247Z</time>
      </trkpt>
      <trkpt lat="37.485207" lon="-5.297006">
        <ele>180.923170</ele>
        <time>2020-08-14T07:01:26.269Z</time>
      </trkpt>
      <trkpt lat="37.485107" lon="-5.297044">
        <ele>180.990026</ele>
        <time>2020-08-14T07:01:28.266Z</time>
      </trkpt>
      <trkpt lat="37.485011" lon="-5.297102">
        <ele>181.120646</ele>
        <time>2020-08-14T07:01:31.272Z</time>
      </trkpt>
      <trkpt lat="37.484916" lon="-5.297138">
        <ele>181.242358</ele>
        <time>2020-08-14T07:01:33.276Z</time>
      </trkpt>
      <trkpt lat="37.484757" lon="-5.297170">
        <ele>181.439909</ele>
        <time>2020-08-14T07:01:35.262Z</time>
      </trkpt>
      <trkpt lat="37.484661" lon="-5.297220">
        <ele>181.567356</ele>
        <time>2020-08-14T07:01:37.236Z</time>
      </trkpt>
      <trkpt lat="37.484548" lon="-5.297280">
        <ele>181.717801</ele>
        <time>2020-08-14T07:01:40.266Z</time>
      </trkpt>
      <trkpt lat="37.484445" lon="-5.297332">
        <ele>181.853936</ele>
        <time>2020-08-14T07:01:42.286Z</time>
      </trkpt>
      <trkpt lat="37.484350" lon="-5.297370">
        <ele>181.976223</ele>
        <time>2020-08-14T07:01:44.268Z</time>
      </trkpt>
      <trkpt lat="37.484239" lon="-5.297428">
        <ele>182.123653</ele>
        <time>2020-08-14T07:01:48.248Z</time>
      </trkpt>
      <trkpt lat="37.483999" lon="-5.297513">
        <ele>182.429520</ele>
        <time>2020-08-14T07:03:54.235Z</time>
      </trkpt>
      <trkpt lat="37.483906" lon="-5.297566">
        <ele>182.554748</ele>
        <time>2020-08-14T07:03:56.247Z</time>
      </trkpt>
      <trkpt lat="37.483776" lon="-5.297664">
        <ele>182.740606</ele>
        <time>2020-08-14T07:03:58.241Z</time>
      </trkpt>
      <trkpt lat="37.483672" lon="-5.297694">
        <ele>182.871505</ele>
        <time>2020-08-14T07:04:00.258Z</time>
      </trkpt>
      <trkpt lat="37.483601" lon="-5.297818">
        <ele>183.020377</ele>
        <time>2020-08-14T07:04:03.246Z</time>
      </trkpt>
      <trkpt lat="37.483521" lon="-5.297880">
        <ele>183.055373</ele>
        <time>2020-08-14T07:04:05.251Z</time>
      </trkpt>
      <trkpt lat="37.483448" lon="-5.297978">
        <ele>182.841703</ele>
        <time>2020-08-14T07:04:08.251Z</time>
      </trkpt>
      <trkpt lat="37.483345" lon="-5.298037">
        <ele>182.615051</ele>
        <time>2020-08-14T07:04:11.244Z</time>
      </trkpt>
      <trkpt lat="37.483239" lon="-5.298111">
        <ele>182.372298</ele>
        <time>2020-08-14T07:04:14.231Z</time>
      </trkpt>
      <trkpt lat="37.483153" lon="-5.298195">
        <ele>182.154327</ele>
        <time>2020-08-14T07:04:17.239Z</time>
      </trkpt>
      <trkpt lat="37.483083" lon="-5.298282">
        <ele>181.957373</ele>
        <time>2020-08-14T07:04:20.250Z</time>
      </trkpt>
      <trkpt lat="37.483007" lon="-5.298378">
        <ele>181.741807</ele>
        <time>2020-08-14T07:04:23.253Z</time>
      </trkpt>
      <trkpt lat="37.482921" lon="-5.298485">
        <ele>181.499706</ele>
        <time>2020-08-14T07:04:26.259Z</time>
      </trkpt>
      <trkpt lat="37.482832" lon="-5.298579">
        <ele>181.267077</ele>
        <time>2020-08-14T07:04:29.258Z</time>
      </trkpt>
      <trkpt lat="37.482737" lon="-5.298684">
        <ele>181.013939</ele>
        <time>2020-08-14T07:04:32.232Z</time>
      </trkpt>
      <trkpt lat="37.482668" lon="-5.298757">
        <ele>180.833459</ele>
        <time>2020-08-14T07:04:35.255Z</time>
      </trkpt>
      <trkpt lat="37.482578" lon="-5.298846">
        <ele>180.604281</ele>
        <time>2020-08-14T07:04:38.265Z</time>
      </trkpt>
      <trkpt lat="37.482491" lon="-5.298945">
        <ele>180.369456</ele>
        <time>2020-08-14T07:04:40.259Z</time>
      </trkpt>
      <trkpt lat="37.482401" lon="-5.299041">
        <ele>180.133246</ele>
        <time>2020-08-14T07:04:43.251Z</time>
      </trkpt>
      <trkpt lat="37.482288" lon="-5.299113">
        <ele>179.879586</ele>
        <time>2020-08-14T07:04:45.255Z</time>
      </trkpt>
      <trkpt lat="37.482190" lon="-5.299209">
        <ele>179.630927</ele>
        <time>2020-08-14T07:04:48.247Z</time>
      </trkpt>
      <trkpt lat="37.482102" lon="-5.299296">
        <ele>179.559258</ele>
        <time>2020-08-14T07:04:51.253Z</time>
      </trkpt>
      <trkpt lat="37.482025" lon="-5.299396">
        <ele>179.692698</ele>
        <time>2020-08-14T07:04:54.250Z</time>
      </trkpt>
      <trkpt lat="37.481941" lon="-5.299482">
        <ele>179.823309</ele>
        <time>2020-08-14T07:04:57.255Z</time>
      </trkpt>
      <trkpt lat="37.481854" lon="-5.299575">
        <ele>179.960988</ele>
        <time>2020-08-14T07:05:00.247Z</time>
      </trkpt>
      <trkpt lat="37.481772" lon="-5.299664">
        <ele>180.091592</ele>
        <time>2020-08-14T07:05:03.261Z</time>
      </trkpt>
      <trkpt lat="37.481674" lon="-5.299750">
        <ele>180.235711</ele>
        <time>2020-08-14T07:05:06.259Z</time>
      </trkpt>
      <trkpt lat="37.481579" lon="-5.299839">
        <ele>180.378569</ele>
        <time>2020-08-14T07:05:09.252Z</time>
      </trkpt>
      <trkpt lat="37.481486" lon="-5.299931">
        <ele>180.521254</ele>
        <time>2020-08-14T07:05:12.259Z</time>
      </trkpt>
      <trkpt lat="37.481395" lon="-5.300030">
        <ele>180.666337</ele>
        <time>2020-08-14T07:05:15.255Z</time>
      </trkpt>
      <trkpt lat="37.481310" lon="-5.300134">
        <ele>180.809313</ele>
        <time>2020-08-14T07:05:18.257Z</time>
      </trkpt>
      <trkpt lat="37.481229" lon="-5.300220">
        <ele>180.937135</ele>
        <time>2020-08-14T07:05:21.245Z</time>
      </trkpt>
      <trkpt lat="37.481148" lon="-5.300329">
        <ele>181.080145</ele>
        <time>2020-08-14T07:05:24.253Z</time>
      </trkpt>
      <trkpt lat="37.481057" lon="-5.300433">
        <ele>181.228402</ele>
        <time>2020-08-14T07:05:27.243Z</time>
      </trkpt>
      <trkpt lat="37.480962" lon="-5.300534">
        <ele>181.378401</ele>
        <time>2020-08-14T07:05:30.258Z</time>
      </trkpt>
      <trkpt lat="37.480861" lon="-5.300640">
        <ele>181.537025</ele>
        <time>2020-08-14T07:05:33.240Z</time>
      </trkpt>
      <trkpt lat="37.480769" lon="-5.300737">
        <ele>181.696795</ele>
        <time>2020-08-14T07:05:36.248Z</time>
      </trkpt>
      <trkpt lat="37.480675" lon="-5.300846">
        <ele>182.102502</ele>
        <time>2020-08-14T07:05:39.248Z</time>
      </trkpt>
      <trkpt lat="37.480584" lon="-5.300958">
        <ele>182.506496</ele>
        <time>2020-08-14T07:05:42.243Z</time>
      </trkpt>
      <trkpt lat="37.480463" lon="-5.301073">
        <ele>182.987839</ele>
        <time>2020-08-14T07:05:45.246Z</time>
      </trkpt>
      <trkpt lat="37.480381" lon="-5.301141">
        <ele>183.299604</ele>
        <time>2020-08-14T07:05:48.257Z</time>
      </trkpt>
      <trkpt lat="37.480282" lon="-5.301252">
        <ele>183.720469</ele>
        <time>2020-08-14T07:05:52.266Z</time>
      </trkpt>
      <trkpt lat="37.480195" lon="-5.301353">
        <ele>184.096165</ele>
        <time>2020-08-14T07:05:55.274Z</time>
      </trkpt>
      <trkpt lat="37.480088" lon="-5.301472">
        <ele>184.549419</ele>
        <time>2020-08-14T07:05:57.266Z</time>
      </trkpt>
      <trkpt lat="37.479976" lon="-5.301593">
        <ele>185.017964</ele>
        <time>2020-08-14T07:05:59.254Z</time>
      </trkpt>
      <trkpt lat="37.479904" lon="-5.301669">
        <ele>185.316262</ele>
        <time>2020-08-14T07:06:01.261Z</time>
      </trkpt>
      <trkpt lat="37.479827" lon="-5.301730">
        <ele>185.605126</ele>
        <time>2020-08-14T07:06:03.263Z</time>
      </trkpt>
      <trkpt lat="37.479725" lon="-5.301767">
        <ele>185.942233</ele>
        <time>2020-08-14T07:06:05.249Z</time>
      </trkpt>
      <trkpt lat="37.479618" lon="-5.301863">
        <ele>186.359400</ele>
        <time>2020-08-14T07:06:08.234Z</time>
      </trkpt>
      <trkpt lat="37.479556" lon="-5.301948">
        <ele>186.650381</ele>
        <time>2020-08-14T07:06:10.243Z</time>
      </trkpt>
      <trkpt lat="37.479486" lon="-5.302044">
        <ele>186.978968</ele>
        <time>2020-08-14T07:06:14.257Z</time>
      </trkpt>
      <trkpt lat="37.479318" lon="-5.302191">
        <ele>187.453671</ele>
        <time>2020-08-14T07:06:17.240Z</time>
      </trkpt>
      <trkpt lat="37.479202" lon="-5.302274">
        <ele>187.573023</ele>
        <time>2020-08-14T07:06:20.242Z</time>
      </trkpt>
      <trkpt lat="37.479135" lon="-5.302352">
        <ele>187.654636</ele>
        <time>2020-08-14T07:06:22.246Z</time>
      </trkpt>
      <trkpt lat="37.479045" lon="-5.302411">
        <ele>187.745405</ele>
        <time>2020-08-14T07:06:24.247Z</time>
      </trkpt>
      <trkpt lat="37.478993" lon="-5.302507">
        <ele>187.827932</ele>
        <time>2020-08-14T07:06:27.259Z</time>
      </trkpt>
      <trkpt lat="37.478881" lon="-5.302663">
        <ele>187.977299</ele>
        <time>2020-08-14T07:06:30.248Z</time>
      </trkpt>
      <trkpt lat="37.478818" lon="-5.302759">
        <ele>188.065749</ele>
        <time>2020-08-14T07:06:32.243Z</time>
      </trkpt>
      <trkpt lat="37.478752" lon="-5.302848">
        <ele>188.152238</ele>
        <time>2020-08-14T07:06:34.236Z</time>
      </trkpt>
      <trkpt lat="37.478665" lon="-5.302947">
        <ele>188.257120</ele>
        <time>2020-08-14T07:06:36.249Z</time>
      </trkpt>
      <trkpt lat="37.478569" lon="-5.303051">
        <ele>188.370391</ele>
        <time>2020-08-14T07:06:38.245Z</time>
      </trkpt>
      <trkpt lat="37.478473" lon="-5.303141">
        <ele>188.477448</ele>
        <time>2020-08-14T07:06:40.248Z</time>
      </trkpt>
      <trkpt lat="37.478401" lon="-5.303226">
        <ele>188.565722</ele>
        <time>2020-08-14T07:06:42.248Z</time>
      </trkpt>
      <trkpt lat="37.478292" lon="-5.303326">
        <ele>188.686355</ele>
        <time>2020-08-14T07:06:44.263Z</time>
      </trkpt>
      <trkpt lat="37.478207" lon="-5.303428">
        <ele>188.791374</ele>
        <time>2020-08-14T07:06:46.243Z</time>
      </trkpt>
      <trkpt lat="37.478115" lon="-5.303527">
        <ele>188.899618</ele>
        <time>2020-08-14T07:06:48.245Z</time>
      </trkpt>
      <trkpt lat="37.478053" lon="-5.303631">
        <ele>188.991976</ele>
        <time>2020-08-14T07:06:50.246Z</time>
      </trkpt>
      <trkpt lat="37.477969" lon="-5.303754">
        <ele>188.829730</ele>
        <time>2020-08-14T07:06:52.253Z</time>
      </trkpt>
      <trkpt lat="37.477863" lon="-5.303844">
        <ele>188.662880</ele>
        <time>2020-08-14T07:06:54.255Z</time>
      </trkpt>
      <trkpt lat="37.477742" lon="-5.303943">
        <ele>188.474555</ele>
        <time>2020-08-14T07:06:56.259Z</time>
      </trkpt>
      <trkpt lat="37.477628" lon="-5.304024">
        <ele>188.303715</ele>
        <time>2020-08-14T07:06:58.248Z</time>
      </trkpt>
      <trkpt lat="37.477522" lon="-5.304108">
        <ele>188.140257</ele>
        <time>2020-08-14T07:07:00.256Z</time>
      </trkpt>
      <trkpt lat="37.477443" lon="-5.304214">
        <ele>187.989615</ele>
        <time>2020-08-14T07:07:02.248Z</time>
      </trkpt>
      <trkpt lat="37.477326" lon="-5.304307">
        <ele>187.809038</ele>
        <time>2020-08-14T07:07:04.248Z</time>
      </trkpt>
      <trkpt lat="37.477219" lon="-5.304398">
        <ele>187.640526</ele>
        <time>2020-08-14T07:07:06.232Z</time>
      </trkpt>
      <trkpt lat="37.477143" lon="-5.304481">
        <ele>187.509242</ele>
        <time>2020-08-14T07:07:08.245Z</time>
      </trkpt>
      <trkpt lat="37.477053" lon="-5.304575">
        <ele>187.356648</ele>
        <time>2020-08-14T07:07:10.258Z</time>
      </trkpt>
      <trkpt lat="37.476942" lon="-5.304657">
        <ele>187.188686</ele>
        <time>2020-08-14T07:07:12.248Z</time>
      </trkpt>
      <trkpt lat="37.476839" lon="-5.304729">
        <ele>187.034928</ele>
        <time>2020-08-14T07:07:14.247Z</time>
      </trkpt>
      <trkpt lat="37.476776" lon="-5.304823">
        <ele>186.907469</ele>
        <time>2020-08-14T07:07:16.255Z</time>
      </trkpt>
      <trkpt lat="37.476671" lon="-5.304912">
        <ele>186.742280</ele>
        <time>2020-08-14T07:07:18.245Z</time>
      </trkpt>
      <trkpt lat="37.476613" lon="-5.305007">
        <ele>186.654745</ele>
        <time>2020-08-14T07:07:20.258Z</time>
      </trkpt>
      <trkpt lat="37.476541" lon="-5.305097">
        <ele>186.693505</ele>
        <time>2020-08-14T07:07:22.260Z</time>
      </trkpt>
      <trkpt lat="37.476460" lon="-5.305186">
        <ele>186.734577</ele>
        <time>2020-08-14T07:07:24.275Z</time>
      </trkpt>
      <trkpt lat="37.476397" lon="-5.305293">
        <ele>186.774986</ele>
        <time>2020-08-14T07:07:26.242Z</time>
      </trkpt>
      <trkpt lat="37.476326" lon="-5.305400">
        <ele>186.817289</ele>
        <time>2020-08-14T07:07:30.252Z</time>
      </trkpt>
      <trkpt lat="37.476213" lon="-5.305541">
        <ele>186.878066</ele>
        <time>2020-08-14T07:07:32.264Z</time>
      </trkpt>
      <trkpt lat="37.476098" lon="-5.305666">
        <ele>186.936109</ele>
        <time>2020-08-14T07:07:34.248Z</time>
      </trkpt>
      <trkpt lat="37.476002" lon="-5.305756">
        <ele>186.981839</ele>
        <time>2020-08-14T07:07:36.241Z</time>
      </trkpt>
      <trkpt lat="37.475942" lon="-5.305901">
        <ele>187.031437</ele>
        <time>2020-08-14T07:07:39.244Z</time>
      </trkpt>
      <trkpt lat="37.475850" lon="-5.306022">
        <ele>187.082261</ele>
        <time>2020-08-14T07:07:42.249Z</time>
      </trkpt>
      <trkpt lat="37.475808" lon="-5.306161">
        <ele>187.127372</ele>
        <time>2020-08-14T07:07:47.244Z</time>
      </trkpt>
      <trkpt lat="37.475749" lon="-5.306319">
        <ele>187.180334</ele>
        <time>2020-08-14T07:07:49.277Z</time>
      </trkpt>
      <trkpt lat="37.475670" lon="-5.306441">
        <ele>187.228091</ele>
        <time>2020-08-14T07:07:50.270Z</time>
      </trkpt>
      <trkpt lat="37.475554" lon="-5.306571">
        <ele>187.287421</ele>
        <time>2020-08-14T07:07:53.246Z</time>
      </trkpt>
      <trkpt lat="37.475490" lon="-5.306668">
        <ele>187.325681</ele>
        <time>2020-08-14T07:07:55.260Z</time>
      </trkpt>
      <trkpt lat="37.475426" lon="-5.306775">
        <ele>187.486772</ele>
        <time>2020-08-14T07:07:57.252Z</time>
      </trkpt>
      <trkpt lat="37.475365" lon="-5.306889">
        <ele>187.683184</ele>
        <time>2020-08-14T07:07:59.253Z</time>
      </trkpt>
      <trkpt lat="37.475285" lon="-5.306988">
        <ele>187.885019</ele>
        <time>2020-08-14T07:08:01.250Z</time>
      </trkpt>
      <trkpt lat="37.475230" lon="-5.307093">
        <ele>188.064742</ele>
        <time>2020-08-14T07:08:03.261Z</time>
      </trkpt>
      <trkpt lat="37.475195" lon="-5.307221">
        <ele>188.258144</ele>
        <time>2020-08-14T07:08:05.238Z</time>
      </trkpt>
      <trkpt lat="37.475156" lon="-5.307328">
        <ele>188.426347</ele>
        <time>2020-08-14T07:08:09.253Z</time>
      </trkpt>
      <trkpt lat="37.474989" lon="-5.307682">
        <ele>189.014649</ele>
        <time>2020-08-14T07:08:13.249Z</time>
      </trkpt>
      <trkpt lat="37.474958" lon="-5.307813">
        <ele>189.209930</ele>
        <time>2020-08-14T07:08:15.253Z</time>
      </trkpt>
      <trkpt lat="37.474923" lon="-5.307933">
        <ele>189.392565</ele>
        <time>2020-08-14T07:08:17.262Z</time>
      </trkpt>
      <trkpt lat="37.474875" lon="-5.308205">
        <ele>189.790619</ele>
        <time>2020-08-14T07:08:21.309Z</time>
      </trkpt>
      <trkpt lat="37.474822" lon="-5.308365">
        <ele>190.038296</ele>
        <time>2020-08-14T07:08:22.247Z</time>
      </trkpt>
      <trkpt lat="37.474803" lon="-5.308490">
        <ele>190.220110</ele>
        <time>2020-08-14T07:08:26.236Z</time>
      </trkpt>
      <trkpt lat="37.474751" lon="-5.308615">
        <ele>190.421723</ele>
        <time>2020-08-14T07:08:28.244Z</time>
      </trkpt>
      <trkpt lat="37.474741" lon="-5.308734">
        <ele>190.598298</ele>
        <time>2020-08-14T07:08:30.246Z</time>
      </trkpt>
      <trkpt lat="37.474729" lon="-5.308892">
        <ele>190.885222</ele>
        <time>2020-08-14T07:08:34.256Z</time>
      </trkpt>
      <trkpt lat="37.474727" lon="-5.309092">
        <ele>191.246794</ele>
        <time>2020-08-14T07:08:36.243Z</time>
      </trkpt>
      <trkpt lat="37.474709" lon="-5.309252">
        <ele>191.538921</ele>
        <time>2020-08-14T07:08:38.245Z</time>
      </trkpt>
      <trkpt lat="37.474648" lon="-5.309379">
        <ele>191.807273</ele>
        <time>2020-08-14T07:08:40.243Z</time>
      </trkpt>
      <trkpt lat="37.474605" lon="-5.309495">
        <ele>192.038716</ele>
        <time>2020-08-14T07:08:42.245Z</time>
      </trkpt>
      <trkpt lat="37.474571" lon="-5.309607">
        <ele>192.255487</ele>
        <time>2020-08-14T07:08:44.247Z</time>
      </trkpt>
      <trkpt lat="37.474528" lon="-5.309721">
        <ele>192.483659</ele>
        <time>2020-08-14T07:08:46.248Z</time>
      </trkpt>
      <trkpt lat="37.474503" lon="-5.309845">
        <ele>192.714937</ele>
        <time>2020-08-14T07:08:48.246Z</time>
      </trkpt>
      <trkpt lat="37.474460" lon="-5.309955">
        <ele>192.936600</ele>
        <time>2020-08-14T07:08:50.249Z</time>
      </trkpt>
      <trkpt lat="37.474440" lon="-5.310072">
        <ele>193.152954</ele>
        <time>2020-08-14T07:08:52.259Z</time>
      </trkpt>
      <trkpt lat="37.474437" lon="-5.310186">
        <ele>193.359148</ele>
        <time>2020-08-14T07:08:54.252Z</time>
      </trkpt>
      <trkpt lat="37.474419" lon="-5.310328">
        <ele>193.619099</ele>
        <time>2020-08-14T07:08:56.258Z</time>
      </trkpt>
      <trkpt lat="37.474400" lon="-5.310466">
        <ele>193.872291</ele>
        <time>2020-08-14T07:08:58.248Z</time>
      </trkpt>
      <trkpt lat="37.474369" lon="-5.310578">
        <ele>194.086716</ele>
        <time>2020-08-14T07:09:00.241Z</time>
      </trkpt>
      <trkpt lat="37.474323" lon="-5.310726">
        <ele>194.374046</ele>
        <time>2020-08-14T07:09:03.256Z</time>
      </trkpt>
      <trkpt lat="37.474267" lon="-5.310881">
        <ele>194.663638</ele>
        <time>2020-08-14T07:09:06.255Z</time>
      </trkpt>
      <trkpt lat="37.474226" lon="-5.310998">
        <ele>194.581436</ele>
        <time>2020-08-14T07:09:08.258Z</time>
      </trkpt>
      <trkpt lat="37.474177" lon="-5.311145">
        <ele>194.478962</ele>
        <time>2020-08-14T07:09:11.250Z</time>
      </trkpt>
      <trkpt lat="37.474150" lon="-5.311267">
        <ele>194.397560</ele>
        <time>2020-08-14T07:09:13.245Z</time>
      </trkpt>
      <trkpt lat="37.474142" lon="-5.311386">
        <ele>194.320803</ele>
        <time>2020-08-14T07:09:15.248Z</time>
      </trkpt>
      <trkpt lat="37.474087" lon="-5.311481">
        <ele>194.245225</ele>
        <time>2020-08-14T07:09:17.250Z</time>
      </trkpt>
      <trkpt lat="37.474056" lon="-5.311592">
        <ele>194.169596</ele>
        <time>2020-08-14T07:09:19.247Z</time>
      </trkpt>
      <trkpt lat="37.474053" lon="-5.311709">
        <ele>194.094359</ele>
        <time>2020-08-14T07:09:21.263Z</time>
      </trkpt>
      <trkpt lat="37.474020" lon="-5.311817">
        <ele>194.019979</ele>
        <time>2020-08-14T07:09:23.274Z</time>
      </trkpt>
      <trkpt lat="37.473999" lon="-5.311934">
        <ele>193.942883</ele>
        <time>2020-08-14T07:09:25.251Z</time>
      </trkpt>
      <trkpt lat="37.473958" lon="-5.312041">
        <ele>193.866516</ele>
        <time>2020-08-14T07:09:27.247Z</time>
      </trkpt>
      <trkpt lat="37.473941" lon="-5.312165">
        <ele>193.785639</ele>
        <time>2020-08-14T07:09:29.246Z</time>
      </trkpt>
      <trkpt lat="37.473896" lon="-5.312335">
        <ele>193.670461</ele>
        <time>2020-08-14T07:09:32.244Z</time>
      </trkpt>
      <trkpt lat="37.473863" lon="-5.312440">
        <ele>193.597877</ele>
        <time>2020-08-14T07:09:34.255Z</time>
      </trkpt>
      <trkpt lat="37.473819" lon="-5.312551">
        <ele>193.518131</ele>
        <time>2020-08-14T07:09:36.252Z</time>
      </trkpt>
      <trkpt lat="37.473800" lon="-5.312673">
        <ele>193.438225</ele>
        <time>2020-08-14T07:09:38.261Z</time>
      </trkpt>
      <trkpt lat="37.473767" lon="-5.312838">
        <ele>193.328861</ele>
        <time>2020-08-14T07:09:41.260Z</time>
      </trkpt>
      <trkpt lat="37.473737" lon="-5.312954">
        <ele>193.250447</ele>
        <time>2020-08-14T07:09:43.244Z</time>
      </trkpt>
      <trkpt lat="37.473712" lon="-5.313134">
        <ele>193.234211</ele>
        <time>2020-08-14T07:09:46.256Z</time>
      </trkpt>
      <trkpt lat="37.473698" lon="-5.313252">
        <ele>193.255999</ele>
        <time>2020-08-14T07:09:48.273Z</time>
      </trkpt>
      <trkpt lat="37.473642" lon="-5.313355">
        <ele>193.278800</ele>
        <time>2020-08-14T07:09:50.244Z</time>
      </trkpt>
      <trkpt lat="37.473607" lon="-5.313488">
        <ele>193.304389</ele>
        <time>2020-08-14T07:09:52.255Z</time>
      </trkpt>
      <trkpt lat="37.473586" lon="-5.313613">
        <ele>193.327723</ele>
        <time>2020-08-14T07:09:54.273Z</time>
      </trkpt>
      <trkpt lat="37.473565" lon="-5.313729">
        <ele>193.349451</ele>
        <time>2020-08-14T07:09:56.282Z</time>
      </trkpt>
      <trkpt lat="37.473540" lon="-5.313871">
        <ele>193.376013</ele>
        <time>2020-08-14T07:09:58.261Z</time>
      </trkpt>
      <trkpt lat="37.473521" lon="-5.314006">
        <ele>193.401052</ele>
        <time>2020-08-14T07:10:00.272Z</time>
      </trkpt>
      <trkpt lat="37.473495" lon="-5.314121">
        <ele>193.422889</ele>
        <time>2020-08-14T07:10:02.252Z</time>
      </trkpt>
      <trkpt lat="37.473460" lon="-5.314239">
        <ele>193.445894</ele>
        <time>2020-08-14T07:10:04.261Z</time>
      </trkpt>
      <trkpt lat="37.473426" lon="-5.314348">
        <ele>193.467282</ele>
        <time>2020-08-14T07:10:06.254Z</time>
      </trkpt>
      <trkpt lat="37.473386" lon="-5.314464">
        <ele>193.490379</ele>
        <time>2020-08-14T07:10:08.241Z</time>
      </trkpt>
      <trkpt lat="37.473377" lon="-5.314594">
        <ele>193.514210</ele>
        <time>2020-08-14T07:10:10.268Z</time>
      </trkpt>
      <trkpt lat="37.473347" lon="-5.314712">
        <ele>193.536839</ele>
        <time>2020-08-14T07:10:12.246Z</time>
      </trkpt>
      <trkpt lat="37.473317" lon="-5.314821">
        <ele>193.557907</ele>
        <time>2020-08-14T07:10:14.274Z</time>
      </trkpt>
      <trkpt lat="37.473290" lon="-5.314945">
        <ele>193.581389</ele>
        <time>2020-08-14T07:10:16.277Z</time>
      </trkpt>
      <trkpt lat="37.473270" lon="-5.315055">
        <ele>193.601998</ele>
        <time>2020-08-14T07:10:18.242Z</time>
      </trkpt>
      <trkpt lat="37.473232" lon="-5.315225">
        <ele>193.587706</ele>
        <time>2020-08-14T07:10:21.245Z</time>
      </trkpt>
      <trkpt lat="37.473207" lon="-5.315374">
        <ele>193.464184</ele>
        <time>2020-08-14T07:10:24.283Z</time>
      </trkpt>
      <trkpt lat="37.473214" lon="-5.315508">
        <ele>193.355264</ele>
        <time>2020-08-14T07:10:26.239Z</time>
      </trkpt>
      <trkpt lat="37.473169" lon="-5.315658">
        <ele>193.225200</ele>
        <time>2020-08-14T07:10:29.256Z</time>
      </trkpt>
      <trkpt lat="37.473137" lon="-5.315785">
        <ele>193.117126</ele>
        <time>2020-08-14T07:10:31.243Z</time>
      </trkpt>
      <trkpt lat="37.473110" lon="-5.315895">
        <ele>193.023737</ele>
        <time>2020-08-14T07:10:33.252Z</time>
      </trkpt>
      <trkpt lat="37.473083" lon="-5.316018">
        <ele>192.920229</ele>
        <time>2020-08-14T07:10:35.256Z</time>
      </trkpt>
      <trkpt lat="37.473055" lon="-5.316148">
        <ele>192.810974</ele>
        <time>2020-08-14T07:10:37.249Z</time>
      </trkpt>
      <trkpt lat="37.473036" lon="-5.316265">
        <ele>192.714111</ele>
        <time>2020-08-14T07:10:39.245Z</time>
      </trkpt>
      <trkpt lat="37.473006" lon="-5.316395">
        <ele>192.604304</ele>
        <time>2020-08-14T07:10:41.253Z</time>
      </trkpt>
      <trkpt lat="37.472987" lon="-5.316520">
        <ele>192.501076</ele>
        <time>2020-08-14T07:10:43.264Z</time>
      </trkpt>
      <trkpt lat="37.472988" lon="-5.316646">
        <ele>192.398874</ele>
        <time>2020-08-14T07:10:45.242Z</time>
      </trkpt>
      <trkpt lat="37.472972" lon="-5.316787">
        <ele>192.283349</ele>
        <time>2020-08-14T07:10:47.260Z</time>
      </trkpt>
      <trkpt lat="37.472943" lon="-5.316925">
        <ele>192.167562</ele>
        <time>2020-08-14T07:10:49.257Z</time>
      </trkpt>
      <trkpt lat="37.472939" lon="-5.317046">
        <ele>192.069336</ele>
        <time>2020-08-14T07:10:51.265Z</time>
      </trkpt>
      <trkpt lat="37.472894" lon="-5.317170">
        <ele>191.958746</ele>
        <time>2020-08-14T07:10:53.255Z</time>
      </trkpt>
      <trkpt lat="37.472873" lon="-5.317292">
        <ele>191.857493</ele>
        <time>2020-08-14T07:10:55.275Z</time>
      </trkpt>
      <trkpt lat="37.472855" lon="-5.317456">
        <ele>191.941856</ele>
        <time>2020-08-14T07:10:58.245Z</time>
      </trkpt>
      <trkpt lat="37.472836" lon="-5.317591">
        <ele>192.208699</ele>
        <time>2020-08-14T07:11:00.260Z</time>
      </trkpt>
      <trkpt lat="37.472802" lon="-5.317731">
        <ele>192.493647</ele>
        <time>2020-08-14T07:11:02.245Z</time>
      </trkpt>
      <trkpt lat="37.472749" lon="-5.317835">
        <ele>192.734194</ele>
        <time>2020-08-14T07:11:04.253Z</time>
      </trkpt>
      <trkpt lat="37.472701" lon="-5.318001">
        <ele>193.078048</ele>
        <time>2020-08-14T07:11:07.245Z</time>
      </trkpt>
      <trkpt lat="37.472627" lon="-5.318457">
        <ele>193.983906</ele>
        <time>2020-08-14T07:11:14.248Z</time>
      </trkpt>
      <trkpt lat="37.472606" lon="-5.318568">
        <ele>194.205994</ele>
        <time>2020-08-14T07:11:16.244Z</time>
      </trkpt>
      <trkpt lat="37.472566" lon="-5.318683">
        <ele>194.450365</ele>
        <time>2020-08-14T07:11:18.256Z</time>
      </trkpt>
      <trkpt lat="37.472544" lon="-5.318825">
        <ele>194.731951</ele>
        <time>2020-08-14T07:11:21.242Z</time>
      </trkpt>
      <trkpt lat="37.472527" lon="-5.318957">
        <ele>194.992219</ele>
        <time>2020-08-14T07:11:25.259Z</time>
      </trkpt>
      <trkpt lat="37.472481" lon="-5.319197">
        <ele>195.472750</ele>
        <time>2020-08-14T07:11:27.253Z</time>
      </trkpt>
      <trkpt lat="37.472445" lon="-5.319303">
        <ele>195.697150</ele>
        <time>2020-08-14T07:11:29.243Z</time>
      </trkpt>
      <trkpt lat="37.472423" lon="-5.319427">
        <ele>195.944444</ele>
        <time>2020-08-14T07:11:31.249Z</time>
      </trkpt>
      <trkpt lat="37.472394" lon="-5.319538">
        <ele>196.171884</ele>
        <time>2020-08-14T07:11:37.271Z</time>
      </trkpt>
      <trkpt lat="37.472349" lon="-5.319845">
        <ele>196.990572</ele>
        <time>2020-08-14T07:11:38.251Z</time>
      </trkpt>
      <trkpt lat="37.472322" lon="-5.319955">
        <ele>197.296061</ele>
        <time>2020-08-14T07:11:40.254Z</time>
      </trkpt>
      <trkpt lat="37.472305" lon="-5.320086">
        <ele>197.648244</ele>
        <time>2020-08-14T07:11:42.242Z</time>
      </trkpt>
      <trkpt lat="37.472292" lon="-5.320216">
        <ele>197.995885</ele>
        <time>2020-08-14T07:11:46.263Z</time>
      </trkpt>
      <trkpt lat="37.472292" lon="-5.320337">
        <ele>198.316920</ele>
        <time>2020-08-14T07:11:50.266Z</time>
      </trkpt>
      <trkpt lat="37.472204" lon="-5.320797">
        <ele>199.572341</ele>
        <time>2020-08-14T07:11:55.247Z</time>
      </trkpt>
      <trkpt lat="37.472199" lon="-5.320951">
        <ele>199.981273</ele>
        <time>2020-08-14T07:11:58.252Z</time>
      </trkpt>
      <trkpt lat="37.472189" lon="-5.321074">
        <ele>200.309323</ele>
        <time>2020-08-14T07:12:01.275Z</time>
      </trkpt>
      <trkpt lat="37.472165" lon="-5.321204">
        <ele>200.663446</ele>
        <time>2020-08-14T07:12:04.273Z</time>
      </trkpt>
      <trkpt lat="37.472125" lon="-5.321377">
        <ele>201.141530</ele>
        <time>2020-08-14T07:12:06.246Z</time>
      </trkpt>
      <trkpt lat="37.472140" lon="-5.321540">
        <ele>201.576897</ele>
        <time>2020-08-14T07:12:09.245Z</time>
      </trkpt>
      <trkpt lat="37.472131" lon="-5.321669">
        <ele>201.920479</ele>
        <time>2020-08-14T07:12:12.270Z</time>
      </trkpt>
      <trkpt lat="37.472121" lon="-5.321798">
        <ele>202.265708</ele>
        <time>2020-08-14T07:12:14.260Z</time>
      </trkpt>
      <trkpt lat="37.472092" lon="-5.321957">
        <ele>202.709474</ele>
        <time>2020-08-14T07:12:16.267Z</time>
      </trkpt>
      <trkpt lat="37.472076" lon="-5.322102">
        <ele>203.107680</ele>
        <time>2020-08-14T07:12:18.252Z</time>
      </trkpt>
      <trkpt lat="37.472061" lon="-5.322274">
        <ele>203.578351</ele>
        <time>2020-08-14T07:12:21.262Z</time>
      </trkpt>
      <trkpt lat="37.472045" lon="-5.322415">
        <ele>203.965783</ele>
        <time>2020-08-14T07:12:24.298Z</time>
      </trkpt>
      <trkpt lat="37.472017" lon="-5.322545">
        <ele>204.332184</ele>
        <time>2020-08-14T07:12:27.263Z</time>
      </trkpt>
      <trkpt lat="37.472013" lon="-5.322720">
        <ele>204.808396</ele>
        <time>2020-08-14T07:12:29.262Z</time>
      </trkpt>
      <trkpt lat="37.472000" lon="-5.322840">
        <ele>205.137833</ele>
        <time>2020-08-14T07:12:31.250Z</time>
      </trkpt>
      <trkpt lat="37.472013" lon="-5.322953">
        <ele>205.448415</ele>
        <time>2020-08-14T07:12:33.262Z</time>
      </trkpt>
      <trkpt lat="37.471989" lon="-5.323093">
        <ele>205.838009</ele>
        <time>2020-08-14T07:12:36.271Z</time>
      </trkpt>
      <trkpt lat="37.471977" lon="-5.323208">
        <ele>206.153511</ele>
        <time>2020-08-14T07:12:38.270Z</time>
      </trkpt>
      <trkpt lat="37.471940" lon="-5.323386">
        <ele>206.654018</ele>
        <time>2020-08-14T07:12:40.269Z</time>
      </trkpt>
      <trkpt lat="37.471915" lon="-5.323511">
        <ele>207.004659</ele>
        <time>2020-08-14T07:12:42.254Z</time>
      </trkpt>
      <trkpt lat="37.471882" lon="-5.323637">
        <ele>207.365569</ele>
        <time>2020-08-14T07:12:44.259Z</time>
      </trkpt>
      <trkpt lat="37.471851" lon="-5.323784">
        <ele>207.779298</ele>
        <time>2020-08-14T07:12:46.239Z</time>
      </trkpt>
      <trkpt lat="37.471853" lon="-5.323905">
        <ele>208.108500</ele>
        <time>2020-08-14T07:12:48.255Z</time>
      </trkpt>
      <trkpt lat="37.471834" lon="-5.324020">
        <ele>208.358412</ele>
        <time>2020-08-14T07:12:50.249Z</time>
      </trkpt>
      <trkpt lat="37.471789" lon="-5.324166">
        <ele>208.216912</ele>
        <time>2020-08-14T07:12:52.248Z</time>
      </trkpt>
      <trkpt lat="37.471723" lon="-5.324292">
        <ele>208.080521</ele>
        <time>2020-08-14T07:12:54.247Z</time>
      </trkpt>
      <trkpt lat="37.471681" lon="-5.324426">
        <ele>207.950362</ele>
        <time>2020-08-14T07:12:56.247Z</time>
      </trkpt>
      <trkpt lat="37.471661" lon="-5.324545">
        <ele>207.840468</ele>
        <time>2020-08-14T07:12:59.256Z</time>
      </trkpt>
      <trkpt lat="37.471637" lon="-5.324655">
        <ele>207.737403</ele>
        <time>2020-08-14T07:13:01.278Z</time>
      </trkpt>
      <trkpt lat="37.471600" lon="-5.324875">
        <ele>207.534233</ele>
        <time>2020-08-14T07:13:03.262Z</time>
      </trkpt>
      <trkpt lat="37.471591" lon="-5.325057">
        <ele>207.369488</ele>
        <time>2020-08-14T07:13:06.249Z</time>
      </trkpt>
      <trkpt lat="37.471578" lon="-5.325197">
        <ele>207.242144</ele>
        <time>2020-08-14T07:13:09.234Z</time>
      </trkpt>
      <trkpt lat="37.471560" lon="-5.325354">
        <ele>207.098831</ele>
        <time>2020-08-14T07:13:12.276Z</time>
      </trkpt>
      <trkpt lat="37.471535" lon="-5.325511">
        <ele>206.954164</ele>
        <time>2020-08-14T07:13:14.274Z</time>
      </trkpt>
      <trkpt lat="37.471520" lon="-5.325652">
        <ele>206.825640</ele>
        <time>2020-08-14T07:13:16.244Z</time>
      </trkpt>
      <trkpt lat="37.471519" lon="-5.325768">
        <ele>206.720835</ele>
        <time>2020-08-14T07:13:18.249Z</time>
      </trkpt>
      <trkpt lat="37.471512" lon="-5.325917">
        <ele>206.585986</ele>
        <time>2020-08-14T07:13:21.268Z</time>
      </trkpt>
      <trkpt lat="37.471492" lon="-5.326040">
        <ele>206.472555</ele>
        <time>2020-08-14T07:13:24.260Z</time>
      </trkpt>
      <trkpt lat="37.471465" lon="-5.326169">
        <ele>206.352026</ele>
        <time>2020-08-14T07:13:26.273Z</time>
      </trkpt>
      <trkpt lat="37.471445" lon="-5.326319">
        <ele>206.299447</ele>
        <time>2020-08-14T07:13:28.250Z</time>
      </trkpt>
      <trkpt lat="37.471450" lon="-5.326440">
        <ele>206.271653</ele>
        <time>2020-08-14T07:13:31.249Z</time>
      </trkpt>
      <trkpt lat="37.471418" lon="-5.326561">
        <ele>206.242395</ele>
        <time>2020-08-14T07:13:35.271Z</time>
      </trkpt>
      <trkpt lat="37.471404" lon="-5.326815">
        <ele>206.183989</ele>
        <time>2020-08-14T07:13:39.253Z</time>
      </trkpt>
      <trkpt lat="37.471399" lon="-5.326943">
        <ele>206.154590</ele>
        <time>2020-08-14T07:13:42.265Z</time>
      </trkpt>
      <trkpt lat="37.471417" lon="-5.327056">
        <ele>206.128152</ele>
        <time>2020-08-14T07:13:45.254Z</time>
      </trkpt>
      <trkpt lat="37.471378" lon="-5.327205">
        <ele>206.092161</ele>
        <time>2020-08-14T07:13:48.267Z</time>
      </trkpt>
      <trkpt lat="37.471374" lon="-5.327337">
        <ele>206.061858</ele>
        <time>2020-08-14T07:13:51.261Z</time>
      </trkpt>
      <trkpt lat="37.471366" lon="-5.327459">
        <ele>206.033777</ele>
        <time>2020-08-14T07:13:54.245Z</time>
      </trkpt>
      <trkpt lat="37.471358" lon="-5.327601">
        <ele>206.001121</ele>
        <time>2020-08-14T07:13:58.245Z</time>
      </trkpt>
      <trkpt lat="37.471346" lon="-5.327719">
        <ele>205.973831</ele>
        <time>2020-08-14T07:14:02.270Z</time>
      </trkpt>
      <trkpt lat="37.471327" lon="-5.327843">
        <ele>205.944860</ele>
        <time>2020-08-14T07:14:07.265Z</time>
      </trkpt>
      <trkpt lat="37.471302" lon="-5.327960">
        <ele>205.917065</ele>
        <time>2020-08-14T07:14:09.264Z</time>
      </trkpt>
      <trkpt lat="37.471280" lon="-5.328105">
        <ele>205.883200</ele>
        <time>2020-08-14T07:14:12.284Z</time>
      </trkpt>
      <trkpt lat="37.471258" lon="-5.328262">
        <ele>205.846628</ele>
        <time>2020-08-14T07:14:15.264Z</time>
      </trkpt>
      <trkpt lat="37.471216" lon="-5.328417">
        <ele>205.809056</ele>
        <time>2020-08-14T07:14:18.239Z</time>
      </trkpt>
      <trkpt lat="37.471190" lon="-5.328544">
        <ele>206.018699</ele>
        <time>2020-08-14T07:14:21.247Z</time>
      </trkpt>
      <trkpt lat="37.471191" lon="-5.328668">
        <ele>206.221607</ele>
        <time>2020-08-14T07:14:24.238Z</time>
      </trkpt>
      <trkpt lat="37.471183" lon="-5.328781">
        <ele>206.407240</ele>
        <time>2020-08-14T07:14:28.262Z</time>
      </trkpt>
      <trkpt lat="37.471152" lon="-5.328892">
        <ele>206.599784</ele>
        <time>2020-08-14T07:14:30.236Z</time>
      </trkpt>
      <trkpt lat="37.471122" lon="-5.329033">
        <ele>206.838645</ele>
        <time>2020-08-14T07:14:34.260Z</time>
      </trkpt>
      <trkpt lat="37.471083" lon="-5.329154">
        <ele>207.052339</ele>
        <time>2020-08-14T07:14:38.236Z</time>
      </trkpt>
      <trkpt lat="37.471067" lon="-5.329385">
        <ele>207.431755</ele>
        <time>2020-08-14T07:14:43.250Z</time>
      </trkpt>
      <trkpt lat="37.471056" lon="-5.329509">
        <ele>207.635917</ele>
        <time>2020-08-14T07:14:47.288Z</time>
      </trkpt>
      <trkpt lat="37.471055" lon="-5.329629">
        <ele>207.832281</ele>
        <time>2020-08-14T07:14:50.244Z</time>
      </trkpt>
      <trkpt lat="37.471015" lon="-5.329757">
        <ele>208.057376</ele>
        <time>2020-08-14T07:14:53.244Z</time>
      </trkpt>
      <trkpt lat="37.470994" lon="-5.329890">
        <ele>208.279265</ele>
        <time>2020-08-14T07:14:56.263Z</time>
      </trkpt>
      <trkpt lat="37.470966" lon="-5.330039">
        <ele>208.529812</ele>
        <time>2020-08-14T07:14:59.255Z</time>
      </trkpt>
      <trkpt lat="37.470949" lon="-5.330171">
        <ele>208.748626</ele>
        <time>2020-08-14T07:15:02.247Z</time>
      </trkpt>
      <trkpt lat="37.470937" lon="-5.330288">
        <ele>208.941663</ele>
        <time>2020-08-14T07:15:05.265Z</time>
      </trkpt>
      <trkpt lat="37.470911" lon="-5.330401">
        <ele>209.134176</ele>
        <time>2020-08-14T07:15:08.266Z</time>
      </trkpt>
      <trkpt lat="37.470888" lon="-5.330528">
        <ele>209.347325</ele>
        <time>2020-08-14T07:15:11.276Z</time>
      </trkpt>
      <trkpt lat="37.470866" lon="-5.330664">
        <ele>209.576051</ele>
        <time>2020-08-14T07:15:14.260Z</time>
      </trkpt>
      <trkpt lat="37.470844" lon="-5.330792">
        <ele>209.796346</ele>
        <time>2020-08-14T07:15:17.267Z</time>
      </trkpt>
      <trkpt lat="37.470793" lon="-5.330914">
        <ele>210.028284</ele>
        <time>2020-08-14T07:15:21.251Z</time>
      </trkpt>
      <trkpt lat="37.470746" lon="-5.331031">
        <ele>210.248859</ele>
        <time>2020-08-14T07:15:25.242Z</time>
      </trkpt>
      <trkpt lat="37.470734" lon="-5.331155">
        <ele>210.458981</ele>
        <time>2020-08-14T07:15:29.255Z</time>
      </trkpt>
      <trkpt lat="37.470699" lon="-5.331300">
        <ele>210.713912</ele>
        <time>2020-08-14T07:15:33.252Z</time>
      </trkpt>
      <trkpt lat="37.470673" lon="-5.331419">
        <ele>210.921524</ele>
        <time>2020-08-14T07:15:36.249Z</time>
      </trkpt>
      <trkpt lat="37.470649" lon="-5.331541">
        <ele>211.132947</ele>
        <time>2020-08-14T07:15:39.260Z</time>
      </trkpt>
      <trkpt lat="37.470615" lon="-5.331689">
        <ele>211.392113</ele>
        <time>2020-08-14T07:15:43.245Z</time>
      </trkpt>
      <trkpt lat="37.470593" lon="-5.331819">
        <ele>211.615699</ele>
        <time>2020-08-14T07:15:46.258Z</time>
      </trkpt>
      <trkpt lat="37.470577" lon="-5.331938">
        <ele>211.818717</ele>
        <time>2020-08-14T07:15:49.262Z</time>
      </trkpt>
      <trkpt lat="37.470564" lon="-5.332060">
        <ele>212.025772</ele>
        <time>2020-08-14T07:15:52.246Z</time>
      </trkpt>
      <trkpt lat="37.470538" lon="-5.332178">
        <ele>212.231764</ele>
        <time>2020-08-14T07:15:55.263Z</time>
      </trkpt>
      <trkpt lat="37.470524" lon="-5.332304">
        <ele>212.445772</ele>
        <time>2020-08-14T07:15:58.259Z</time>
      </trkpt>
      <trkpt lat="37.470509" lon="-5.332424">
        <ele>212.650109</ele>
        <time>2020-08-14T07:16:01.246Z</time>
      </trkpt>
      <trkpt lat="37.470484" lon="-5.332569">
        <ele>212.899699</ele>
        <time>2020-08-14T07:16:05.258Z</time>
      </trkpt>
      <trkpt lat="37.470457" lon="-5.332690">
        <ele>213.111122</ele>
        <time>2020-08-14T07:16:08.248Z</time>
      </trkpt>
      <trkpt lat="37.470451" lon="-5.332808">
        <ele>213.310014</ele>
        <time>2020-08-14T07:16:11.247Z</time>
      </trkpt>
      <trkpt lat="37.470444" lon="-5.332922">
        <ele>213.482780</ele>
        <time>2020-08-14T07:16:14.243Z</time>
      </trkpt>
      <trkpt lat="37.470424" lon="-5.333050">
        <ele>213.677499</ele>
        <time>2020-08-14T07:16:17.241Z</time>
      </trkpt>
      <trkpt lat="37.470431" lon="-5.333166">
        <ele>213.851139</ele>
        <time>2020-08-14T07:16:20.229Z</time>
      </trkpt>
      <trkpt lat="37.470444" lon="-5.333281">
        <ele>214.024519</ele>
        <time>2020-08-14T07:16:23.245Z</time>
      </trkpt>
      <trkpt lat="37.470416" lon="-5.333426">
        <ele>214.247259</ele>
        <time>2020-08-14T07:16:27.232Z</time>
      </trkpt>
      <trkpt lat="37.470391" lon="-5.333570">
        <ele>214.467274</ele>
        <time>2020-08-14T07:16:31.245Z</time>
      </trkpt>
      <trkpt lat="37.470363" lon="-5.333713">
        <ele>214.687114</ele>
        <time>2020-08-14T07:16:35.262Z</time>
      </trkpt>
      <trkpt lat="37.470337" lon="-5.333839">
        <ele>214.881433</ele>
        <time>2020-08-14T07:16:39.250Z</time>
      </trkpt>
      <trkpt lat="37.470321" lon="-5.333977">
        <ele>215.089597</ele>
        <time>2020-08-14T07:16:43.262Z</time>
      </trkpt>
      <trkpt lat="37.470294" lon="-5.334087">
        <ele>215.261455</ele>
        <time>2020-08-14T07:16:46.245Z</time>
      </trkpt>
      <trkpt lat="37.470274" lon="-5.334216">
        <ele>215.457639</ele>
        <time>2020-08-14T07:16:49.243Z</time>
      </trkpt>
      <trkpt lat="37.470250" lon="-5.334353">
        <ele>215.667047</ele>
        <time>2020-08-14T07:16:52.269Z</time>
      </trkpt>
      <trkpt lat="37.470233" lon="-5.334478">
        <ele>215.856340</ele>
        <time>2020-08-14T07:16:55.272Z</time>
      </trkpt>
      <trkpt lat="37.470220" lon="-5.334607">
        <ele>216.050431</ele>
        <time>2020-08-14T07:16:58.264Z</time>
      </trkpt>
      <trkpt lat="37.470200" lon="-5.334732">
        <ele>216.240759</ele>
        <time>2020-08-14T07:17:01.266Z</time>
      </trkpt>
      <trkpt lat="37.470187" lon="-5.334852">
        <ele>216.421531</ele>
        <time>2020-08-14T07:17:04.268Z</time>
      </trkpt>
      <trkpt lat="37.470177" lon="-5.334969">
        <ele>216.597175</ele>
        <time>2020-08-14T07:17:07.254Z</time>
      </trkpt>
      <trkpt lat="37.470165" lon="-5.335110">
        <ele>217.033984</ele>
        <time>2020-08-14T07:17:11.245Z</time>
      </trkpt>
      <trkpt lat="37.470139" lon="-5.335240">
        <ele>217.695751</ele>
        <time>2020-08-14T07:17:14.269Z</time>
      </trkpt>
      <trkpt lat="37.470129" lon="-5.335366">
        <ele>218.320815</ele>
        <time>2020-08-14T07:17:17.251Z</time>
      </trkpt>
      <trkpt lat="37.470118" lon="-5.335478">
        <ele>218.877887</ele>
        <time>2020-08-14T07:17:20.280Z</time>
      </trkpt>
      <trkpt lat="37.470109" lon="-5.335626">
        <ele>219.610587</ele>
        <time>2020-08-14T07:17:24.260Z</time>
      </trkpt>
      <trkpt lat="37.470086" lon="-5.335745">
        <ele>220.215163</ele>
        <time>2020-08-14T07:17:27.256Z</time>
      </trkpt>
      <trkpt lat="37.470058" lon="-5.335882">
        <ele>220.913486</ele>
        <time>2020-08-14T07:17:31.255Z</time>
      </trkpt>
      <trkpt lat="37.470044" lon="-5.336004">
        <ele>221.521966</ele>
        <time>2020-08-14T07:17:34.243Z</time>
      </trkpt>
      <trkpt lat="37.470036" lon="-5.336151">
        <ele>222.249293</ele>
        <time>2020-08-14T07:17:38.267Z</time>
      </trkpt>
      <trkpt lat="37.470013" lon="-5.336263">
        <ele>222.820355</ele>
        <time>2020-08-14T07:17:41.246Z</time>
      </trkpt>
      <trkpt lat="37.470003" lon="-5.336376">
        <ele>223.381604</ele>
        <time>2020-08-14T07:17:44.269Z</time>
      </trkpt>
      <trkpt lat="37.469972" lon="-5.336497">
        <ele>224.009234</ele>
        <time>2020-08-14T07:17:48.276Z</time>
      </trkpt>
      <trkpt lat="37.469938" lon="-5.336609">
        <ele>224.601151</ele>
        <time>2020-08-14T07:17:51.284Z</time>
      </trkpt>
      <trkpt lat="37.469945" lon="-5.336730">
        <ele>225.200018</ele>
        <time>2020-08-14T07:17:54.266Z</time>
      </trkpt>
      <trkpt lat="37.469938" lon="-5.336846">
        <ele>225.774272</ele>
        <time>2020-08-14T07:17:58.275Z</time>
      </trkpt>
      <trkpt lat="37.469927" lon="-5.336981">
        <ele>226.444164</ele>
        <time>2020-08-14T07:18:02.264Z</time>
      </trkpt>
      <trkpt lat="37.469922" lon="-5.337106">
        <ele>227.061975</ele>
        <time>2020-08-14T07:18:05.273Z</time>
      </trkpt>
      <trkpt lat="37.469918" lon="-5.337222">
        <ele>227.635117</ele>
        <time>2020-08-14T07:18:08.279Z</time>
      </trkpt>
      <trkpt lat="37.469932" lon="-5.337358">
        <ele>228.092618</ele>
        <time>2020-08-14T07:18:12.275Z</time>
      </trkpt>
      <trkpt lat="37.469919" lon="-5.337498">
        <ele>228.419785</ele>
        <time>2020-08-14T07:18:16.279Z</time>
      </trkpt>
      <trkpt lat="37.469896" lon="-5.337612">
        <ele>228.692804</ele>
        <time>2020-08-14T07:18:19.272Z</time>
      </trkpt>
      <trkpt lat="37.469860" lon="-5.337744">
        <ele>229.016770</ele>
        <time>2020-08-14T07:18:23.273Z</time>
      </trkpt>
      <trkpt lat="37.469831" lon="-5.337881">
        <ele>229.345873</ele>
        <time>2020-08-14T07:18:27.285Z</time>
      </trkpt>
      <trkpt lat="37.469802" lon="-5.338011">
        <ele>229.659306</ele>
        <time>2020-08-14T07:18:30.256Z</time>
      </trkpt>
      <trkpt lat="37.469776" lon="-5.338148">
        <ele>229.986259</ele>
        <time>2020-08-14T07:18:34.281Z</time>
      </trkpt>
      <trkpt lat="37.469768" lon="-5.338287">
        <ele>230.309736</ele>
        <time>2020-08-14T07:18:38.269Z</time>
      </trkpt>
      <trkpt lat="37.469762" lon="-5.338422">
        <ele>230.623573</ele>
        <time>2020-08-14T07:18:42.282Z</time>
      </trkpt>
      <trkpt lat="37.469741" lon="-5.338555">
        <ele>230.938327</ele>
        <time>2020-08-14T07:18:46.264Z</time>
      </trkpt>
      <trkpt lat="37.469735" lon="-5.338673">
        <ele>231.212776</ele>
        <time>2020-08-14T07:18:50.266Z</time>
      </trkpt>
      <trkpt lat="37.469715" lon="-5.338800">
        <ele>231.513300</ele>
        <time>2020-08-14T07:18:55.274Z</time>
      </trkpt>
      <trkpt lat="37.469702" lon="-5.338925">
        <ele>231.805916</ele>
        <time>2020-08-14T07:18:59.280Z</time>
      </trkpt>
      <trkpt lat="37.469697" lon="-5.339045">
        <ele>232.084829</ele>
        <time>2020-08-14T07:19:03.271Z</time>
      </trkpt>
      <trkpt lat="37.469691" lon="-5.339167">
        <ele>232.368545</ele>
        <time>2020-08-14T07:19:07.268Z</time>
      </trkpt>
      <trkpt lat="37.469681" lon="-5.339296">
        <ele>232.669389</ele>
        <time>2020-08-14T07:19:12.250Z</time>
      </trkpt>
      <trkpt lat="37.469655" lon="-5.339423">
        <ele>232.973816</ele>
        <time>2020-08-14T07:19:16.271Z</time>
      </trkpt>
      <trkpt lat="37.469635" lon="-5.339549">
        <ele>232.962118</ele>
        <time>2020-08-14T07:19:20.276Z</time>
      </trkpt>
      <trkpt lat="37.469624" lon="-5.339668">
        <ele>232.485005</ele>
        <time>2020-08-14T07:19:23.278Z</time>
      </trkpt>
      <trkpt lat="37.469627" lon="-5.339787">
        <ele>232.010857</ele>
        <time>2020-08-14T07:19:27.246Z</time>
      </trkpt>
      <trkpt lat="37.469614" lon="-5.339916">
        <ele>231.492998</ele>
        <time>2020-08-14T07:19:32.275Z</time>
      </trkpt>
      <trkpt lat="37.469576" lon="-5.340049">
        <ele>230.930059</ele>
        <time>2020-08-14T07:19:37.267Z</time>
      </trkpt>
      <trkpt lat="37.469546" lon="-5.340191">
        <ele>230.344861</ele>
        <time>2020-08-14T07:19:41.270Z</time>
      </trkpt>
      <trkpt lat="37.469519" lon="-5.340325">
        <ele>229.794286</ele>
        <time>2020-08-14T07:19:45.246Z</time>
      </trkpt>
      <trkpt lat="37.468559" lon="-5.340898">
        <ele>224.464108</ele>
        <time>2020-08-14T07:20:29.251Z</time>
      </trkpt>
      <trkpt lat="37.468494" lon="-5.340990">
        <ele>224.093032</ele>
        <time>2020-08-14T07:20:34.263Z</time>
      </trkpt>
      <trkpt lat="37.468432" lon="-5.341083">
        <ele>223.972061</ele>
        <time>2020-08-14T07:20:41.275Z</time>
      </trkpt>
      <trkpt lat="37.468279" lon="-5.341224">
        <ele>223.734178</ele>
        <time>2020-08-14T07:20:43.269Z</time>
      </trkpt>
      <trkpt lat="37.468205" lon="-5.341290">
        <ele>223.620401</ele>
        <time>2020-08-14T07:20:47.262Z</time>
      </trkpt>
      <trkpt lat="37.468145" lon="-5.341183">
        <ele>223.489912</ele>
        <time>2020-08-14T07:20:54.232Z</time>
      </trkpt>
      <trkpt lat="37.468125" lon="-5.341044">
        <ele>223.349208</ele>
        <time>2020-08-14T07:20:58.274Z</time>
      </trkpt>
      <trkpt lat="37.468089" lon="-5.340902">
        <ele>223.200733</ele>
        <time>2020-08-14T07:21:02.259Z</time>
      </trkpt>
      <trkpt lat="37.468049" lon="-5.340797">
        <ele>223.084728</ele>
        <time>2020-08-14T07:21:05.257Z</time>
      </trkpt>
      <trkpt lat="37.467947" lon="-5.340788">
        <ele>222.956412</ele>
        <time>2020-08-14T07:21:08.251Z</time>
      </trkpt>
      <trkpt lat="37.467838" lon="-5.340821">
        <ele>222.815732</ele>
        <time>2020-08-14T07:21:11.240Z</time>
      </trkpt>
      <trkpt lat="37.467720" lon="-5.340851">
        <ele>222.664666</ele>
        <time>2020-08-14T07:21:14.249Z</time>
      </trkpt>
      <trkpt lat="37.467607" lon="-5.340883">
        <ele>222.519322</ele>
        <time>2020-08-14T07:21:17.233Z</time>
      </trkpt>
      <trkpt lat="37.467501" lon="-5.340892">
        <ele>222.385999</ele>
        <time>2020-08-14T07:21:20.260Z</time>
      </trkpt>
      <trkpt lat="37.467391" lon="-5.340885">
        <ele>222.247781</ele>
        <time>2020-08-14T07:21:23.249Z</time>
      </trkpt>
      <trkpt lat="37.467261" lon="-5.340920">
        <ele>222.080958</ele>
        <time>2020-08-14T07:21:26.246Z</time>
      </trkpt>
      <trkpt lat="37.467169" lon="-5.340938">
        <ele>221.964121</ele>
        <time>2020-08-14T07:21:28.251Z</time>
      </trkpt>
      <trkpt lat="37.467068" lon="-5.340936">
        <ele>221.972880</ele>
        <time>2020-08-14T07:21:30.258Z</time>
      </trkpt>
      <trkpt lat="37.466964" lon="-5.340940">
        <ele>222.303704</ele>
        <time>2020-08-14T07:21:33.239Z</time>
      </trkpt>
      <trkpt lat="37.466858" lon="-5.340940">
        <ele>222.640732</ele>
        <time>2020-08-14T07:21:36.263Z</time>
      </trkpt>
      <trkpt lat="37.466751" lon="-5.340937">
        <ele>222.981023</ele>
        <time>2020-08-14T07:21:41.233Z</time>
      </trkpt>
      <trkpt lat="37.466643" lon="-5.340921">
        <ele>223.326776</ele>
        <time>2020-08-14T07:21:44.247Z</time>
      </trkpt>
      <trkpt lat="37.466534" lon="-5.340894">
        <ele>223.679977</ele>
        <time>2020-08-14T07:21:47.272Z</time>
      </trkpt>
      <trkpt lat="37.466430" lon="-5.340902">
        <ele>224.011262</ele>
        <time>2020-08-14T07:21:49.261Z</time>
      </trkpt>
      <trkpt lat="37.466455" lon="-5.341066">
        <ele>224.432698</ele>
        <time>2020-08-14T07:21:51.269Z</time>
      </trkpt>
      <trkpt lat="37.466343" lon="-5.340999">
        <ele>224.826905</ele>
        <time>2020-08-14T07:21:53.246Z</time>
      </trkpt>
      <trkpt lat="37.466216" lon="-5.340950">
        <ele>225.249213</ele>
        <time>2020-08-14T07:21:56.235Z</time>
      </trkpt>
      <trkpt lat="37.466100" lon="-5.340995">
        <ele>225.635124</ele>
        <time>2020-08-14T07:21:59.245Z</time>
      </trkpt>
      <trkpt lat="37.466030" lon="-5.341080">
        <ele>225.944234</ele>
        <time>2020-08-14T07:22:02.243Z</time>
      </trkpt>
      <trkpt lat="37.465980" lon="-5.341180">
        <ele>226.242495</ele>
        <time>2020-08-14T07:22:05.263Z</time>
      </trkpt>
      <trkpt lat="37.465934" lon="-5.341298">
        <ele>226.574261</ele>
        <time>2020-08-14T07:22:07.252Z</time>
      </trkpt>
      <trkpt lat="37.465899" lon="-5.341507">
        <ele>227.113311</ele>
        <time>2020-08-14T07:22:08.253Z</time>
      </trkpt>
      <trkpt lat="37.465839" lon="-5.341684">
        <ele>227.593736</ele>
        <time>2020-08-14T07:22:10.243Z</time>
      </trkpt>
      <trkpt lat="37.465813" lon="-5.341794">
        <ele>227.543735</ele>
        <time>2020-08-14T07:22:12.257Z</time>
      </trkpt>
      <trkpt lat="37.465789" lon="-5.341908">
        <ele>227.492354</ele>
        <time>2020-08-14T07:22:15.262Z</time>
      </trkpt>
      <trkpt lat="37.465687" lon="-5.341951">
        <ele>227.433319</ele>
        <time>2020-08-14T07:22:18.246Z</time>
      </trkpt>
      <trkpt lat="37.465576" lon="-5.341954">
        <ele>227.372381</ele>
        <time>2020-08-14T07:22:21.236Z</time>
      </trkpt>
      <trkpt lat="37.465450" lon="-5.341966">
        <ele>227.303026</ele>
        <time>2020-08-14T07:22:24.254Z</time>
      </trkpt>
      <trkpt lat="37.465381" lon="-5.342040">
        <ele>227.253292</ele>
        <time>2020-08-14T07:22:26.239Z</time>
      </trkpt>
      <trkpt lat="37.465265" lon="-5.342078">
        <ele>227.187506</ele>
        <time>2020-08-14T07:22:29.230Z</time>
      </trkpt>
      <trkpt lat="37.465020" lon="-5.341964">
        <ele>227.044156</ele>
        <time>2020-08-14T07:22:32.237Z</time>
      </trkpt>
      <trkpt lat="37.464892" lon="-5.342027">
        <ele>226.968730</ele>
        <time>2020-08-14T07:22:35.236Z</time>
      </trkpt>
      <trkpt lat="37.464780" lon="-5.342036">
        <ele>226.907132</ele>
        <time>2020-08-14T07:22:41.243Z</time>
      </trkpt>
      <trkpt lat="37.464674" lon="-5.342061">
        <ele>226.847942</ele>
        <time>2020-08-14T07:22:46.254Z</time>
      </trkpt>
      <trkpt lat="37.464563" lon="-5.342101">
        <ele>226.784574</ele>
        <time>2020-08-14T07:22:50.236Z</time>
      </trkpt>
      <trkpt lat="37.464472" lon="-5.342115">
        <ele>226.734257</ele>
        <time>2020-08-14T07:22:53.247Z</time>
      </trkpt>
      <trkpt lat="37.464353" lon="-5.342140">
        <ele>226.668040</ele>
        <time>2020-08-14T07:22:56.255Z</time>
      </trkpt>
      <trkpt lat="37.464219" lon="-5.342153">
        <ele>226.577202</ele>
        <time>2020-08-14T07:23:00.245Z</time>
      </trkpt>
      <trkpt lat="37.464100" lon="-5.342105">
        <ele>226.418736</ele>
        <time>2020-08-14T07:23:03.245Z</time>
      </trkpt>
      <trkpt lat="37.464001" lon="-5.342125">
        <ele>226.291577</ele>
        <time>2020-08-14T07:23:06.254Z</time>
      </trkpt>
      <trkpt lat="37.463920" lon="-5.342222">
        <ele>226.149848</ele>
        <time>2020-08-14T07:23:09.250Z</time>
      </trkpt>
      <trkpt lat="37.463859" lon="-5.342358">
        <ele>225.992599</ele>
        <time>2020-08-14T07:23:12.266Z</time>
      </trkpt>
      <trkpt lat="37.463824" lon="-5.342462">
        <ele>225.878887</ele>
        <time>2020-08-14T07:23:14.251Z</time>
      </trkpt>
      <trkpt lat="37.463749" lon="-5.342587">
        <ele>225.721151</ele>
        <time>2020-08-14T07:23:17.252Z</time>
      </trkpt>
      <trkpt lat="37.463443" lon="-5.342780">
        <ele>225.287157</ele>
        <time>2020-08-14T07:34:10.245Z</time>
      </trkpt>
      <trkpt lat="37.463338" lon="-5.342846">
        <ele>225.138339</ele>
        <time>2020-08-14T07:34:12.240Z</time>
      </trkpt>
      <trkpt lat="37.463218" lon="-5.342940">
        <ele>224.959133</ele>
        <time>2020-08-14T07:34:15.237Z</time>
      </trkpt>
      <trkpt lat="37.463140" lon="-5.343019">
        <ele>224.832208</ele>
        <time>2020-08-14T07:34:17.245Z</time>
      </trkpt>
      <trkpt lat="37.463085" lon="-5.343124">
        <ele>224.705568</ele>
        <time>2020-08-14T07:34:19.246Z</time>
      </trkpt>
      <trkpt lat="37.462981" lon="-5.343158">
        <ele>224.569304</ele>
        <time>2020-08-14T07:34:21.240Z</time>
      </trkpt>
      <trkpt lat="37.462873" lon="-5.343187">
        <ele>224.429259</ele>
        <time>2020-08-14T07:34:23.245Z</time>
      </trkpt>
      <trkpt lat="37.462766" lon="-5.343258">
        <ele>224.297327</ele>
        <time>2020-08-14T07:34:26.246Z</time>
      </trkpt>
      <trkpt lat="37.462683" lon="-5.343351">
        <ele>224.216479</ele>
        <time>2020-08-14T07:34:29.247Z</time>
      </trkpt>
      <trkpt lat="37.462570" lon="-5.343439">
        <ele>224.119788</ele>
        <time>2020-08-14T07:34:32.248Z</time>
      </trkpt>
      <trkpt lat="37.462460" lon="-5.343517">
        <ele>224.027914</ele>
        <time>2020-08-14T07:34:35.248Z</time>
      </trkpt>
      <trkpt lat="37.462375" lon="-5.343583">
        <ele>223.955240</ele>
        <time>2020-08-14T07:34:37.239Z</time>
      </trkpt>
      <trkpt lat="37.462278" lon="-5.343626">
        <ele>223.880396</ele>
        <time>2020-08-14T07:34:39.242Z</time>
      </trkpt>
      <trkpt lat="37.462202" lon="-5.343689">
        <ele>223.814179</ele>
        <time>2020-08-14T07:34:41.252Z</time>
      </trkpt>
      <trkpt lat="37.462175" lon="-5.343816">
        <ele>223.738220</ele>
        <time>2020-08-14T07:34:43.243Z</time>
      </trkpt>
      <trkpt lat="37.462077" lon="-5.343914">
        <ele>223.647152</ele>
        <time>2020-08-14T07:34:46.246Z</time>
      </trkpt>
      <trkpt lat="37.462013" lon="-5.344007">
        <ele>223.576041</ele>
        <time>2020-08-14T07:34:48.248Z</time>
      </trkpt>
      <trkpt lat="37.461930" lon="-5.344060">
        <ele>223.508313</ele>
        <time>2020-08-14T07:34:50.263Z</time>
      </trkpt>
      <trkpt lat="37.461826" lon="-5.344117">
        <ele>223.425764</ele>
        <time>2020-08-14T07:34:52.245Z</time>
      </trkpt>
      <trkpt lat="37.461729" lon="-5.344162">
        <ele>223.350528</ele>
        <time>2020-08-14T07:34:54.250Z</time>
      </trkpt>
      <trkpt lat="37.461637" lon="-5.344220">
        <ele>223.275649</ele>
        <time>2020-08-14T07:34:56.265Z</time>
      </trkpt>
      <trkpt lat="37.461504" lon="-5.344301">
        <ele>223.168127</ele>
        <time>2020-08-14T07:34:59.246Z</time>
      </trkpt>
      <trkpt lat="37.461377" lon="-5.344359">
        <ele>223.069804</ele>
        <time>2020-08-14T07:35:02.248Z</time>
      </trkpt>
      <trkpt lat="37.461278" lon="-5.344400">
        <ele>222.993312</ele>
        <time>2020-08-14T07:35:04.257Z</time>
      </trkpt>
      <trkpt lat="37.461178" lon="-5.344444">
        <ele>222.914075</ele>
        <time>2020-08-14T07:35:06.246Z</time>
      </trkpt>
      <trkpt lat="37.461083" lon="-5.344476">
        <ele>222.840513</ele>
        <time>2020-08-14T07:35:08.234Z</time>
      </trkpt>
      <trkpt lat="37.460981" lon="-5.344520">
        <ele>222.759862</ele>
        <time>2020-08-14T07:35:10.246Z</time>
      </trkpt>
      <trkpt lat="37.460887" lon="-5.344559">
        <ele>222.685830</ele>
        <time>2020-08-14T07:35:12.241Z</time>
      </trkpt>
      <trkpt lat="37.460781" lon="-5.344551">
        <ele>222.606393</ele>
        <time>2020-08-14T07:35:15.231Z</time>
      </trkpt>
      <trkpt lat="37.460690" lon="-5.344517">
        <ele>222.535389</ele>
        <time>2020-08-14T07:35:17.240Z</time>
      </trkpt>
      <trkpt lat="37.460597" lon="-5.344436">
        <ele>222.450813</ele>
        <time>2020-08-14T07:35:20.232Z</time>
      </trkpt>
      <trkpt lat="37.460477" lon="-5.344358">
        <ele>222.349801</ele>
        <time>2020-08-14T07:35:23.243Z</time>
      </trkpt>
      <trkpt lat="37.460394" lon="-5.344304">
        <ele>222.279922</ele>
        <time>2020-08-14T07:35:25.244Z</time>
      </trkpt>
      <trkpt lat="37.460273" lon="-5.344315">
        <ele>222.189171</ele>
        <time>2020-08-14T07:35:27.242Z</time>
      </trkpt>
      <trkpt lat="37.460154" lon="-5.344326">
        <ele>222.099913</ele>
        <time>2020-08-14T07:35:29.239Z</time>
      </trkpt>
      <trkpt lat="37.460026" lon="-5.344354">
        <ele>222.002729</ele>
        <time>2020-08-14T07:35:31.243Z</time>
      </trkpt>
      <trkpt lat="37.459914" lon="-5.344345">
        <ele>221.918776</ele>
        <time>2020-08-14T07:35:33.260Z</time>
      </trkpt>
      <trkpt lat="37.459758" lon="-5.344371">
        <ele>221.801062</ele>
        <time>2020-08-14T07:35:36.255Z</time>
      </trkpt>
      <trkpt lat="37.459642" lon="-5.344393">
        <ele>221.713309</ele>
        <time>2020-08-14T07:35:38.244Z</time>
      </trkpt>
      <trkpt lat="37.459500" lon="-5.344396">
        <ele>221.716587</ele>
        <time>2020-08-14T07:35:40.244Z</time>
      </trkpt>
      <trkpt lat="37.459362" lon="-5.344392">
        <ele>221.788644</ele>
        <time>2020-08-14T07:35:42.249Z</time>
      </trkpt>
      <trkpt lat="37.459260" lon="-5.344385">
        <ele>221.841969</ele>
        <time>2020-08-14T07:35:44.247Z</time>
      </trkpt>
      <trkpt lat="37.459131" lon="-5.344394">
        <ele>221.909412</ele>
        <time>2020-08-14T07:35:46.244Z</time>
      </trkpt>
      <trkpt lat="37.459004" lon="-5.344412">
        <ele>221.976126</ele>
        <time>2020-08-14T07:35:48.248Z</time>
      </trkpt>
      <trkpt lat="37.458879" lon="-5.344414">
        <ele>222.041383</ele>
        <time>2020-08-14T07:35:50.247Z</time>
      </trkpt>
      <trkpt lat="37.458742" lon="-5.344431">
        <ele>222.113246</ele>
        <time>2020-08-14T07:35:52.261Z</time>
      </trkpt>
      <trkpt lat="37.458604" lon="-5.344453">
        <ele>222.185858</ele>
        <time>2020-08-14T07:35:54.247Z</time>
      </trkpt>
      <trkpt lat="37.458446" lon="-5.344472">
        <ele>222.268712</ele>
        <time>2020-08-14T07:35:56.245Z</time>
      </trkpt>
      <trkpt lat="37.458311" lon="-5.344496">
        <ele>222.339882</ele>
        <time>2020-08-14T07:35:58.248Z</time>
      </trkpt>
      <trkpt lat="37.458214" lon="-5.344505">
        <ele>222.390655</ele>
        <time>2020-08-14T07:35:59.241Z</time>
      </trkpt>
      <trkpt lat="37.458054" lon="-5.344534">
        <ele>222.475037</ele>
        <time>2020-08-14T07:36:01.242Z</time>
      </trkpt>
      <trkpt lat="37.457914" lon="-5.344568">
        <ele>222.549465</ele>
        <time>2020-08-14T07:36:03.251Z</time>
      </trkpt>
      <trkpt lat="37.457757" lon="-5.344584">
        <ele>222.390359</ele>
        <time>2020-08-14T07:36:05.246Z</time>
      </trkpt>
      <trkpt lat="37.457589" lon="-5.344594">
        <ele>221.478499</ele>
        <time>2020-08-14T07:36:07.245Z</time>
      </trkpt>
      <trkpt lat="37.457425" lon="-5.344586">
        <ele>220.588676</ele>
        <time>2020-08-14T07:36:09.253Z</time>
      </trkpt>
      <trkpt lat="37.457339" lon="-5.344631">
        <ele>220.083789</ele>
        <time>2020-08-14T07:36:10.248Z</time>
      </trkpt>
      <trkpt lat="37.457235" lon="-5.344645">
        <ele>219.516723</ele>
        <time>2020-08-14T07:36:11.260Z</time>
      </trkpt>
      <trkpt lat="37.457064" lon="-5.344678">
        <ele>218.578799</ele>
        <time>2020-08-14T07:36:13.241Z</time>
      </trkpt>
      <trkpt lat="37.456974" lon="-5.344684">
        <ele>218.090165</ele>
        <time>2020-08-14T07:36:14.248Z</time>
      </trkpt>
      <trkpt lat="37.456820" lon="-5.344718">
        <ele>217.242499</ele>
        <time>2020-08-14T07:36:16.261Z</time>
      </trkpt>
      <trkpt lat="37.456727" lon="-5.344734">
        <ele>216.733602</ele>
        <time>2020-08-14T07:36:17.247Z</time>
      </trkpt>
      <trkpt lat="37.456565" lon="-5.344801">
        <ele>215.809165</ele>
        <time>2020-08-14T07:36:19.266Z</time>
      </trkpt>
      <trkpt lat="37.456475" lon="-5.344810">
        <ele>215.319678</ele>
        <time>2020-08-14T07:36:20.238Z</time>
      </trkpt>
      <trkpt lat="37.456300" lon="-5.344860">
        <ele>214.346786</ele>
        <time>2020-08-14T07:36:22.250Z</time>
      </trkpt>
      <trkpt lat="37.456202" lon="-5.344846">
        <ele>213.812055</ele>
        <time>2020-08-14T07:36:23.253Z</time>
      </trkpt>
      <trkpt lat="37.456026" lon="-5.344861">
        <ele>212.856346</ele>
        <time>2020-08-14T07:36:25.252Z</time>
      </trkpt>
      <trkpt lat="37.455865" lon="-5.344944">
        <ele>212.119236</ele>
        <time>2020-08-14T07:36:27.243Z</time>
      </trkpt>
      <trkpt lat="37.455716" lon="-5.344997">
        <ele>211.463202</ele>
        <time>2020-08-14T07:36:29.239Z</time>
      </trkpt>
      <trkpt lat="37.455554" lon="-5.345023">
        <ele>210.771222</ele>
        <time>2020-08-14T07:36:31.247Z</time>
      </trkpt>
      <trkpt lat="37.455458" lon="-5.345040">
        <ele>210.360448</ele>
        <time>2020-08-14T07:36:32.245Z</time>
      </trkpt>
      <trkpt lat="37.455364" lon="-5.345064">
        <ele>209.954050</ele>
        <time>2020-08-14T07:36:33.259Z</time>
      </trkpt>
      <trkpt lat="37.455272" lon="-5.345079">
        <ele>209.560973</ele>
        <time>2020-08-14T07:36:34.259Z</time>
      </trkpt>
      <trkpt lat="37.455116" lon="-5.345098">
        <ele>208.896883</ele>
        <time>2020-08-14T07:36:36.243Z</time>
      </trkpt>
      <trkpt lat="37.454958" lon="-5.345124">
        <ele>208.221712</ele>
        <time>2020-08-14T07:36:38.243Z</time>
      </trkpt>
      <trkpt lat="37.454866" lon="-5.345134">
        <ele>207.830438</ele>
        <time>2020-08-14T07:36:39.243Z</time>
      </trkpt>
      <trkpt lat="37.454777" lon="-5.345149">
        <ele>207.449964</ele>
        <time>2020-08-14T07:36:40.262Z</time>
      </trkpt>
      <trkpt lat="37.454615" lon="-5.345171">
        <ele>206.759555</ele>
        <time>2020-08-14T07:36:42.250Z</time>
      </trkpt>
      <trkpt lat="37.454524" lon="-5.345175">
        <ele>206.373732</ele>
        <time>2020-08-14T07:36:43.249Z</time>
      </trkpt>
      <trkpt lat="37.454362" lon="-5.345186">
        <ele>205.686304</ele>
        <time>2020-08-14T07:36:45.249Z</time>
      </trkpt>
      <trkpt lat="37.454195" lon="-5.345230">
        <ele>204.995240</ele>
        <time>2020-08-14T07:36:47.247Z</time>
      </trkpt>
      <trkpt lat="37.454043" lon="-5.345269">
        <ele>204.414349</ele>
        <time>2020-08-14T07:36:49.247Z</time>
      </trkpt>
      <trkpt lat="37.453887" lon="-5.345294">
        <ele>203.825458</ele>
        <time>2020-08-14T07:36:51.249Z</time>
      </trkpt>
      <trkpt lat="37.453733" lon="-5.345323">
        <ele>203.242357</ele>
        <time>2020-08-14T07:36:53.269Z</time>
      </trkpt>
      <trkpt lat="37.453594" lon="-5.345337">
        <ele>202.720174</ele>
        <time>2020-08-14T07:36:55.274Z</time>
      </trkpt>
      <trkpt lat="37.453447" lon="-5.345348">
        <ele>202.168724</ele>
        <time>2020-08-14T07:36:57.246Z</time>
      </trkpt>
      <trkpt lat="37.453349" lon="-5.345358">
        <ele>201.800535</ele>
        <time>2020-08-14T07:36:58.269Z</time>
      </trkpt>
      <trkpt lat="37.453181" lon="-5.345352">
        <ele>201.171162</ele>
        <time>2020-08-14T07:37:00.262Z</time>
      </trkpt>
      <trkpt lat="37.453021" lon="-5.345349">
        <ele>200.571934</ele>
        <time>2020-08-14T07:37:02.243Z</time>
      </trkpt>
      <trkpt lat="37.452877" lon="-5.345371">
        <ele>200.028737</ele>
        <time>2020-08-14T07:37:04.259Z</time>
      </trkpt>
      <trkpt lat="37.452788" lon="-5.345390">
        <ele>199.690701</ele>
        <time>2020-08-14T07:37:05.258Z</time>
      </trkpt>
      <trkpt lat="37.452646" lon="-5.345416">
        <ele>199.153357</ele>
        <time>2020-08-14T07:37:07.249Z</time>
      </trkpt>
      <trkpt lat="37.452490" lon="-5.345459">
        <ele>198.555352</ele>
        <time>2020-08-14T07:37:09.247Z</time>
      </trkpt>
      <trkpt lat="37.452352" lon="-5.345484">
        <ele>198.223881</ele>
        <time>2020-08-14T07:37:11.246Z</time>
      </trkpt>
      <trkpt lat="37.452188" lon="-5.345503">
        <ele>197.857924</ele>
        <time>2020-08-14T07:37:13.257Z</time>
      </trkpt>
      <trkpt lat="37.452025" lon="-5.345530">
        <ele>197.492609</ele>
        <time>2020-08-14T07:37:15.260Z</time>
      </trkpt>
      <trkpt lat="37.451871" lon="-5.345576">
        <ele>197.140922</ele>
        <time>2020-08-14T07:37:17.260Z</time>
      </trkpt>
      <trkpt lat="37.451719" lon="-5.345598">
        <ele>196.800946</ele>
        <time>2020-08-14T07:37:19.258Z</time>
      </trkpt>
      <trkpt lat="37.451576" lon="-5.345623">
        <ele>196.480145</ele>
        <time>2020-08-14T07:37:21.247Z</time>
      </trkpt>
      <trkpt lat="37.451431" lon="-5.345651">
        <ele>196.154182</ele>
        <time>2020-08-14T07:37:23.248Z</time>
      </trkpt>
      <trkpt lat="37.451281" lon="-5.345676">
        <ele>195.817967</ele>
        <time>2020-08-14T07:37:25.269Z</time>
      </trkpt>
      <trkpt lat="37.451144" lon="-5.345696">
        <ele>195.511507</ele>
        <time>2020-08-14T07:37:27.259Z</time>
      </trkpt>
      <trkpt lat="37.450983" lon="-5.345701">
        <ele>195.153646</ele>
        <time>2020-08-14T07:37:29.251Z</time>
      </trkpt>
      <trkpt lat="37.450837" lon="-5.345713">
        <ele>194.828534</ele>
        <time>2020-08-14T07:37:31.249Z</time>
      </trkpt>
      <trkpt lat="37.450687" lon="-5.345720">
        <ele>194.520172</ele>
        <time>2020-08-14T07:37:33.255Z</time>
      </trkpt>
      <trkpt lat="37.450524" lon="-5.345751">
        <ele>195.044239</ele>
        <time>2020-08-14T07:37:35.249Z</time>
      </trkpt>
      <trkpt lat="37.450366" lon="-5.345770">
        <ele>195.548822</ele>
        <time>2020-08-14T07:37:37.256Z</time>
      </trkpt>
      <trkpt lat="37.450210" lon="-5.345786">
        <ele>196.046403</ele>
        <time>2020-08-14T07:37:39.261Z</time>
      </trkpt>
      <trkpt lat="37.450072" lon="-5.345802">
        <ele>196.486975</ele>
        <time>2020-08-14T07:37:41.259Z</time>
      </trkpt>
      <trkpt lat="37.449950" lon="-5.345852">
        <ele>196.894838</ele>
        <time>2020-08-14T07:37:43.263Z</time>
      </trkpt>
      <trkpt lat="37.449790" lon="-5.345879">
        <ele>197.408039</ele>
        <time>2020-08-14T07:37:45.243Z</time>
      </trkpt>
      <trkpt lat="37.449632" lon="-5.345898">
        <ele>197.912622</ele>
        <time>2020-08-14T07:37:47.251Z</time>
      </trkpt>
      <trkpt lat="37.449493" lon="-5.345913">
        <ele>198.356136</ele>
        <time>2020-08-14T07:37:49.248Z</time>
      </trkpt>
      <trkpt lat="37.449353" lon="-5.345921">
        <ele>198.801668</ele>
        <time>2020-08-14T07:37:51.253Z</time>
      </trkpt>
      <trkpt lat="37.449206" lon="-5.345934">
        <ele>199.270147</ele>
        <time>2020-08-14T07:37:53.253Z</time>
      </trkpt>
      <trkpt lat="37.449052" lon="-5.345947">
        <ele>199.760828</ele>
        <time>2020-08-14T07:37:55.255Z</time>
      </trkpt>
      <trkpt lat="37.448893" lon="-5.345974">
        <ele>200.255617</ele>
        <time>2020-08-14T07:37:57.248Z</time>
      </trkpt>
      <trkpt lat="37.448743" lon="-5.345992">
        <ele>200.580574</ele>
        <time>2020-08-14T07:37:59.249Z</time>
      </trkpt>
      <trkpt lat="37.448602" lon="-5.346025">
        <ele>200.889860</ele>
        <time>2020-08-14T07:38:01.258Z</time>
      </trkpt>
      <trkpt lat="37.448451" lon="-5.346041">
        <ele>201.216659</ele>
        <time>2020-08-14T07:38:03.243Z</time>
      </trkpt>
      <trkpt lat="37.448309" lon="-5.346051">
        <ele>201.523376</ele>
        <time>2020-08-14T07:38:05.251Z</time>
      </trkpt>
      <trkpt lat="37.448148" lon="-5.346080">
        <ele>201.874122</ele>
        <time>2020-08-14T07:38:07.248Z</time>
      </trkpt>
      <trkpt lat="37.447985" lon="-5.346092">
        <ele>202.226250</ele>
        <time>2020-08-14T07:38:09.249Z</time>
      </trkpt>
      <trkpt lat="37.447837" lon="-5.346104">
        <ele>202.546089</ele>
        <time>2020-08-14T07:38:11.251Z</time>
      </trkpt>
      <trkpt lat="37.447696" lon="-5.346129">
        <ele>202.853169</ele>
        <time>2020-08-14T07:38:13.249Z</time>
      </trkpt>
      <trkpt lat="37.447556" lon="-5.346182">
        <ele>203.168436</ele>
        <time>2020-08-14T07:38:15.251Z</time>
      </trkpt>
      <trkpt lat="37.447414" lon="-5.346221">
        <ele>203.481870</ele>
        <time>2020-08-14T07:38:17.273Z</time>
      </trkpt>
      <trkpt lat="37.447281" lon="-5.346236">
        <ele>203.769847</ele>
        <time>2020-08-14T07:38:19.254Z</time>
      </trkpt>
      <trkpt lat="37.447151" lon="-5.346246">
        <ele>204.050729</ele>
        <time>2020-08-14T07:38:21.232Z</time>
      </trkpt>
      <trkpt lat="37.447017" lon="-5.346258">
        <ele>204.046501</ele>
        <time>2020-08-14T07:38:23.244Z</time>
      </trkpt>
      <trkpt lat="37.446901" lon="-5.346284">
        <ele>203.986827</ele>
        <time>2020-08-14T07:38:25.250Z</time>
      </trkpt>
      <trkpt lat="37.446776" lon="-5.346282">
        <ele>203.923514</ele>
        <time>2020-08-14T07:38:27.258Z</time>
      </trkpt>
      <trkpt lat="37.446679" lon="-5.346306">
        <ele>203.873448</ele>
        <time>2020-08-14T07:38:29.259Z</time>
      </trkpt>
      <trkpt lat="37.446568" lon="-5.346316">
        <ele>203.817086</ele>
        <time>2020-08-14T07:38:31.261Z</time>
      </trkpt>
      <trkpt lat="37.446445" lon="-5.346327">
        <ele>203.754634</ele>
        <time>2020-08-14T07:38:33.250Z</time>
      </trkpt>
      <trkpt lat="37.446342" lon="-5.346343">
        <ele>203.702072</ele>
        <time>2020-08-14T07:38:35.251Z</time>
      </trkpt>
      <trkpt lat="37.446217" lon="-5.346378">
        <ele>203.637218</ele>
        <time>2020-08-14T07:38:38.248Z</time>
      </trkpt>
      <trkpt lat="37.446118" lon="-5.346420">
        <ele>203.584310</ele>
        <time>2020-08-14T07:38:40.262Z</time>
      </trkpt>
      <trkpt lat="37.446004" lon="-5.346440">
        <ele>203.526016</ele>
        <time>2020-08-14T07:38:42.255Z</time>
      </trkpt>
      <trkpt lat="37.445918" lon="-5.346475">
        <ele>203.480242</ele>
        <time>2020-08-14T07:38:44.256Z</time>
      </trkpt>
      <trkpt lat="37.445781" lon="-5.346513">
        <ele>203.409194</ele>
        <time>2020-08-14T07:38:47.265Z</time>
      </trkpt>
      <trkpt lat="37.445675" lon="-5.346516">
        <ele>203.355495</ele>
        <time>2020-08-14T07:38:49.243Z</time>
      </trkpt>
      <trkpt lat="37.445577" lon="-5.346515">
        <ele>203.305859</ele>
        <time>2020-08-14T07:38:51.256Z</time>
      </trkpt>
      <trkpt lat="37.445446" lon="-5.346583">
        <ele>203.234098</ele>
        <time>2020-08-14T07:38:54.258Z</time>
      </trkpt>
      <trkpt lat="37.445330" lon="-5.346647">
        <ele>203.144942</ele>
        <time>2020-08-14T07:38:57.255Z</time>
      </trkpt>
      <trkpt lat="37.445242" lon="-5.346715">
        <ele>203.031781</ele>
        <time>2020-08-14T07:38:59.249Z</time>
      </trkpt>
      <trkpt lat="37.445139" lon="-5.346792">
        <ele>202.900496</ele>
        <time>2020-08-14T07:39:01.276Z</time>
      </trkpt>
      <trkpt lat="37.445048" lon="-5.346859">
        <ele>202.784960</ele>
        <time>2020-08-14T07:39:03.252Z</time>
      </trkpt>
      <trkpt lat="37.444965" lon="-5.346909">
        <ele>202.684115</ele>
        <time>2020-08-14T07:39:05.268Z</time>
      </trkpt>
      <trkpt lat="37.444869" lon="-5.346928">
        <ele>202.577600</ele>
        <time>2020-08-14T07:39:07.268Z</time>
      </trkpt>
      <trkpt lat="37.444764" lon="-5.347026">
        <ele>202.434356</ele>
        <time>2020-08-14T07:39:10.253Z</time>
      </trkpt>
      <trkpt lat="37.444677" lon="-5.347093">
        <ele>202.322584</ele>
        <time>2020-08-14T07:39:12.271Z</time>
      </trkpt>
      <trkpt lat="37.444581" lon="-5.347140">
        <ele>202.209690</ele>
        <time>2020-08-14T07:39:14.247Z</time>
      </trkpt>
      <trkpt lat="37.444488" lon="-5.347219">
        <ele>202.086737</ele>
        <time>2020-08-14T07:39:16.253Z</time>
      </trkpt>
      <trkpt lat="37.444412" lon="-5.347329">
        <ele>201.959841</ele>
        <time>2020-08-14T07:39:18.256Z</time>
      </trkpt>
      <trkpt lat="37.444332" lon="-5.347384">
        <ele>201.859941</ele>
        <time>2020-08-14T07:39:20.244Z</time>
      </trkpt>
      <trkpt lat="37.444237" lon="-5.347458">
        <ele>201.737509</ele>
        <time>2020-08-14T07:39:22.256Z</time>
      </trkpt>
      <trkpt lat="37.444149" lon="-5.347575">
        <ele>201.597257</ele>
        <time>2020-08-14T07:39:24.268Z</time>
      </trkpt>
      <trkpt lat="37.444062" lon="-5.347679">
        <ele>201.465786</ele>
        <time>2020-08-14T07:39:26.268Z</time>
      </trkpt>
      <trkpt lat="37.443978" lon="-5.347753">
        <ele>201.353429</ele>
        <time>2020-08-14T07:39:28.259Z</time>
      </trkpt>
      <trkpt lat="37.443912" lon="-5.347857">
        <ele>201.237565</ele>
        <time>2020-08-14T07:39:30.268Z</time>
      </trkpt>
      <trkpt lat="37.443796" lon="-5.347945">
        <ele>200.374861</ele>
        <time>2020-08-14T07:39:32.275Z</time>
      </trkpt>
      <trkpt lat="37.443703" lon="-5.348048">
        <ele>199.498081</ele>
        <time>2020-08-14T07:39:34.270Z</time>
      </trkpt>
      <trkpt lat="37.443632" lon="-5.348170">
        <ele>198.647806</ele>
        <time>2020-08-14T07:39:36.276Z</time>
      </trkpt>
      <trkpt lat="37.443558" lon="-5.348278">
        <ele>197.845914</ele>
        <time>2020-08-14T07:39:38.261Z</time>
      </trkpt>
      <trkpt lat="37.443488" lon="-5.348380">
        <ele>197.088057</ele>
        <time>2020-08-14T07:39:40.267Z</time>
      </trkpt>
      <trkpt lat="37.443413" lon="-5.348462">
        <ele>196.384913</ele>
        <time>2020-08-14T07:39:41.262Z</time>
      </trkpt>
      <trkpt lat="37.443310" lon="-5.348604">
        <ele>195.303756</ele>
        <time>2020-08-14T07:39:43.263Z</time>
      </trkpt>
      <trkpt lat="37.443199" lon="-5.348733">
        <ele>194.234458</ele>
        <time>2020-08-14T07:39:45.284Z</time>
      </trkpt>
      <trkpt lat="37.443149" lon="-5.348871">
        <ele>193.381785</ele>
        <time>2020-08-14T07:39:47.243Z</time>
      </trkpt>
      <trkpt lat="37.443087" lon="-5.348982">
        <ele>192.618902</ele>
        <time>2020-08-14T07:39:49.264Z</time>
      </trkpt>
      <trkpt lat="37.443024" lon="-5.349115">
        <ele>191.748344</ele>
        <time>2020-08-14T07:39:51.261Z</time>
      </trkpt>
      <trkpt lat="37.442965" lon="-5.349304">
        <ele>190.606777</ele>
        <time>2020-08-14T07:39:53.265Z</time>
      </trkpt>
      <trkpt lat="37.442891" lon="-5.349459">
        <ele>189.590109</ele>
        <time>2020-08-14T07:39:55.266Z</time>
      </trkpt>
      <trkpt lat="37.442833" lon="-5.349608">
        <ele>188.657309</ele>
        <time>2020-08-14T07:39:57.264Z</time>
      </trkpt>
      <trkpt lat="37.442768" lon="-5.349792">
        <ele>188.306471</ele>
        <time>2020-08-14T07:39:59.269Z</time>
      </trkpt>
      <trkpt lat="37.442706" lon="-5.349962">
        <ele>188.110192</ele>
        <time>2020-08-14T07:40:01.266Z</time>
      </trkpt>
      <trkpt lat="37.442646" lon="-5.350134">
        <ele>187.913082</ele>
        <time>2020-08-14T07:40:03.275Z</time>
      </trkpt>
      <trkpt lat="37.442595" lon="-5.350324">
        <ele>187.702652</ele>
        <time>2020-08-14T07:40:05.268Z</time>
      </trkpt>
      <trkpt lat="37.442541" lon="-5.350478">
        <ele>187.526021</ele>
        <time>2020-08-14T07:40:07.275Z</time>
      </trkpt>
      <trkpt lat="37.442481" lon="-5.350653">
        <ele>187.326025</ele>
        <time>2020-08-14T07:40:09.254Z</time>
      </trkpt>
      <trkpt lat="37.442393" lon="-5.350818">
        <ele>187.117477</ele>
        <time>2020-08-14T07:40:11.253Z</time>
      </trkpt>
      <trkpt lat="37.442341" lon="-5.350992">
        <ele>186.922413</ele>
        <time>2020-08-14T07:40:13.274Z</time>
      </trkpt>
      <trkpt lat="37.442310" lon="-5.351148">
        <ele>186.753690</ele>
        <time>2020-08-14T07:40:15.245Z</time>
      </trkpt>
      <trkpt lat="37.442257" lon="-5.351310">
        <ele>186.569857</ele>
        <time>2020-08-14T07:40:17.266Z</time>
      </trkpt>
      <trkpt lat="37.442213" lon="-5.351464">
        <ele>186.398138</ele>
        <time>2020-08-14T07:40:19.265Z</time>
      </trkpt>
      <trkpt lat="37.442137" lon="-5.351603">
        <ele>186.221064</ele>
        <time>2020-08-14T07:40:21.259Z</time>
      </trkpt>
      <trkpt lat="37.442086" lon="-5.351766">
        <ele>186.233717</ele>
        <time>2020-08-14T07:40:23.247Z</time>
      </trkpt>
      <trkpt lat="37.442049" lon="-5.351941">
        <ele>186.564591</ele>
        <time>2020-08-14T07:40:25.263Z</time>
      </trkpt>
      <trkpt lat="37.441997" lon="-5.352098">
        <ele>186.875394</ele>
        <time>2020-08-14T07:40:27.252Z</time>
      </trkpt>
      <trkpt lat="37.441957" lon="-5.352270">
        <ele>187.202848</ele>
        <time>2020-08-14T07:40:29.263Z</time>
      </trkpt>
      <trkpt lat="37.441907" lon="-5.352447">
        <ele>187.546092</ele>
        <time>2020-08-14T07:40:31.263Z</time>
      </trkpt>
      <trkpt lat="37.441868" lon="-5.352605">
        <ele>187.848393</ele>
        <time>2020-08-14T07:40:33.248Z</time>
      </trkpt>
      <trkpt lat="37.441816" lon="-5.352780">
        <ele>188.189783</ele>
        <time>2020-08-14T07:40:35.261Z</time>
      </trkpt>
      <trkpt lat="37.441795" lon="-5.352963">
        <ele>188.527606</ele>
        <time>2020-08-14T07:40:37.268Z</time>
      </trkpt>
      <trkpt lat="37.441754" lon="-5.353123">
        <ele>188.834781</ele>
        <time>2020-08-14T07:40:39.263Z</time>
      </trkpt>
      <trkpt lat="37.441737" lon="-5.353300">
        <ele>189.160526</ele>
        <time>2020-08-14T07:40:41.259Z</time>
      </trkpt>
      <trkpt lat="37.441727" lon="-5.353456">
        <ele>189.446472</ele>
        <time>2020-08-14T07:40:43.274Z</time>
      </trkpt>
      <trkpt lat="37.441702" lon="-5.353644">
        <ele>189.794741</ele>
        <time>2020-08-14T07:40:45.267Z</time>
      </trkpt>
      <trkpt lat="37.441669" lon="-5.353817">
        <ele>190.119814</ele>
        <time>2020-08-14T07:40:47.256Z</time>
      </trkpt>
      <trkpt lat="37.441628" lon="-5.353997">
        <ele>190.096874</ele>
        <time>2020-08-14T07:40:49.271Z</time>
      </trkpt>
      <trkpt lat="37.441609" lon="-5.354165">
        <ele>189.878231</ele>
        <time>2020-08-14T07:40:51.262Z</time>
      </trkpt>
      <trkpt lat="37.441564" lon="-5.354336">
        <ele>189.646122</ele>
        <time>2020-08-14T07:40:53.257Z</time>
      </trkpt>
      <trkpt lat="37.441540" lon="-5.354476">
        <ele>189.461583</ele>
        <time>2020-08-14T07:40:55.274Z</time>
      </trkpt>
      <trkpt lat="37.441525" lon="-5.354643">
        <ele>189.245041</ele>
        <time>2020-08-14T07:40:57.249Z</time>
      </trkpt>
      <trkpt lat="37.441528" lon="-5.354792">
        <ele>189.053002</ele>
        <time>2020-08-14T07:40:59.265Z</time>
      </trkpt>
      <trkpt lat="37.441486" lon="-5.354924">
        <ele>188.869779</ele>
        <time>2020-08-14T07:41:01.260Z</time>
      </trkpt>
      <trkpt lat="37.441441" lon="-5.355062">
        <ele>188.677562</ele>
        <time>2020-08-14T07:41:03.260Z</time>
      </trkpt>
      <trkpt lat="37.441405" lon="-5.355191">
        <ele>188.501385</ele>
        <time>2020-08-14T07:41:05.262Z</time>
      </trkpt>
      <trkpt lat="37.441367" lon="-5.355309">
        <ele>188.337319</ele>
        <time>2020-08-14T07:41:07.261Z</time>
      </trkpt>
      <trkpt lat="37.441318" lon="-5.355412">
        <ele>188.182611</ele>
        <time>2020-08-14T07:41:09.253Z</time>
      </trkpt>
      <trkpt lat="37.441273" lon="-5.355532">
        <ele>188.011620</ele>
        <time>2020-08-14T07:41:11.254Z</time>
      </trkpt>
      <trkpt lat="37.441226" lon="-5.355667">
        <ele>187.821693</ele>
        <time>2020-08-14T07:41:13.263Z</time>
      </trkpt>
      <trkpt lat="37.441167" lon="-5.355778">
        <ele>187.649586</ele>
        <time>2020-08-14T07:41:15.265Z</time>
      </trkpt>
      <trkpt lat="37.441101" lon="-5.355889">
        <ele>187.470910</ele>
        <time>2020-08-14T07:41:17.255Z</time>
      </trkpt>
      <trkpt lat="37.441052" lon="-5.356029">
        <ele>187.394288</ele>
        <time>2020-08-14T07:41:19.272Z</time>
      </trkpt>
      <trkpt lat="37.440997" lon="-5.356128">
        <ele>187.577969</ele>
        <time>2020-08-14T07:41:21.271Z</time>
      </trkpt>
      <trkpt lat="37.440938" lon="-5.356255">
        <ele>187.801651</ele>
        <time>2020-08-14T07:41:23.252Z</time>
      </trkpt>
      <trkpt lat="37.440883" lon="-5.356375">
        <ele>188.012285</ele>
        <time>2020-08-14T07:41:25.257Z</time>
      </trkpt>
      <trkpt lat="37.440807" lon="-5.356509">
        <ele>188.262622</ele>
        <time>2020-08-14T07:41:27.259Z</time>
      </trkpt>
      <trkpt lat="37.440732" lon="-5.356620">
        <ele>188.484193</ele>
        <time>2020-08-14T07:41:29.258Z</time>
      </trkpt>
      <trkpt lat="37.440654" lon="-5.356745">
        <ele>188.725877</ele>
        <time>2020-08-14T07:41:31.254Z</time>
      </trkpt>
      <trkpt lat="37.440584" lon="-5.356844">
        <ele>188.927401</ele>
        <time>2020-08-14T07:41:33.263Z</time>
      </trkpt>
      <trkpt lat="37.440493" lon="-5.356945">
        <ele>189.159631</ele>
        <time>2020-08-14T07:41:35.268Z</time>
      </trkpt>
      <trkpt lat="37.440412" lon="-5.357034">
        <ele>189.365438</ele>
        <time>2020-08-14T07:41:37.258Z</time>
      </trkpt>
      <trkpt lat="37.440356" lon="-5.357133">
        <ele>189.550224</ele>
        <time>2020-08-14T07:41:39.257Z</time>
      </trkpt>
      <trkpt lat="37.440266" lon="-5.357228">
        <ele>189.775056</ele>
        <time>2020-08-14T07:41:41.265Z</time>
      </trkpt>
      <trkpt lat="37.440158" lon="-5.357332">
        <ele>190.035351</ele>
        <time>2020-08-14T07:41:43.254Z</time>
      </trkpt>
      <trkpt lat="37.440064" lon="-5.357460">
        <ele>190.300406</ele>
        <time>2020-08-14T07:41:45.262Z</time>
      </trkpt>
      <trkpt lat="37.439971" lon="-5.357556">
        <ele>190.530631</ele>
        <time>2020-08-14T07:41:47.256Z</time>
      </trkpt>
      <trkpt lat="37.439869" lon="-5.357664">
        <ele>190.773499</ele>
        <time>2020-08-14T07:41:49.262Z</time>
      </trkpt>
      <trkpt lat="37.439750" lon="-5.357745">
        <ele>190.787576</ele>
        <time>2020-08-14T07:41:51.250Z</time>
      </trkpt>
      <trkpt lat="37.439656" lon="-5.357827">
        <ele>190.799475</ele>
        <time>2020-08-14T07:41:53.262Z</time>
      </trkpt>
      <trkpt lat="37.439537" lon="-5.357910">
        <ele>190.813631</ele>
        <time>2020-08-14T07:41:55.260Z</time>
      </trkpt>
      <trkpt lat="37.439441" lon="-5.357976">
        <ele>190.825013</ele>
        <time>2020-08-14T07:41:57.253Z</time>
      </trkpt>
      <trkpt lat="37.439318" lon="-5.358041">
        <ele>190.838895</ele>
        <time>2020-08-14T07:41:59.264Z</time>
      </trkpt>
      <trkpt lat="37.439215" lon="-5.358154">
        <ele>190.853110</ele>
        <time>2020-08-14T07:42:01.256Z</time>
      </trkpt>
      <trkpt lat="37.439106" lon="-5.358237">
        <ele>190.866366</ele>
        <time>2020-08-14T07:42:03.263Z</time>
      </trkpt>
      <trkpt lat="37.438982" lon="-5.358299">
        <ele>190.880250</ele>
        <time>2020-08-14T07:42:05.257Z</time>
      </trkpt>
      <trkpt lat="37.438868" lon="-5.358367">
        <ele>190.893377</ele>
        <time>2020-08-14T07:42:07.246Z</time>
      </trkpt>
      <trkpt lat="37.438748" lon="-5.358419">
        <ele>190.906583</ele>
        <time>2020-08-14T07:42:09.266Z</time>
      </trkpt>
      <trkpt lat="37.438619" lon="-5.358473">
        <ele>190.920730</ele>
        <time>2020-08-14T07:42:11.254Z</time>
      </trkpt>
      <trkpt lat="37.438499" lon="-5.358547">
        <ele>190.934635</ele>
        <time>2020-08-14T07:42:13.271Z</time>
      </trkpt>
      <trkpt lat="37.438369" lon="-5.358610">
        <ele>190.949130</ele>
        <time>2020-08-14T07:42:15.260Z</time>
      </trkpt>
      <trkpt lat="37.438242" lon="-5.358684">
        <ele>190.754310</ele>
        <time>2020-08-14T07:42:17.249Z</time>
      </trkpt>
      <trkpt lat="37.438111" lon="-5.358735">
        <ele>189.965336</ele>
        <time>2020-08-14T07:42:19.253Z</time>
      </trkpt>
      <trkpt lat="37.438013" lon="-5.358830">
        <ele>189.253741</ele>
        <time>2020-08-14T07:42:21.256Z</time>
      </trkpt>
      <trkpt lat="37.437905" lon="-5.358918">
        <ele>188.513584</ele>
        <time>2020-08-14T07:42:23.238Z</time>
      </trkpt>
      <trkpt lat="37.437789" lon="-5.358987">
        <ele>187.775411</ele>
        <time>2020-08-14T07:42:25.274Z</time>
      </trkpt>
      <trkpt lat="37.437684" lon="-5.359041">
        <ele>187.122803</ele>
        <time>2020-08-14T07:42:27.273Z</time>
      </trkpt>
      <trkpt lat="37.437599" lon="-5.359116">
        <ele>186.525617</ele>
        <time>2020-08-14T07:42:29.254Z</time>
      </trkpt>
      <trkpt lat="37.437493" lon="-5.359164">
        <ele>185.877459</ele>
        <time>2020-08-14T07:42:31.268Z</time>
      </trkpt>
      <trkpt lat="37.437385" lon="-5.359225">
        <ele>185.196387</ele>
        <time>2020-08-14T07:42:33.244Z</time>
      </trkpt>
      <trkpt lat="37.437267" lon="-5.359281">
        <ele>184.470802</ele>
        <time>2020-08-14T07:42:35.251Z</time>
      </trkpt>
      <trkpt lat="37.437148" lon="-5.359337">
        <ele>183.739829</ele>
        <time>2020-08-14T07:42:37.263Z</time>
      </trkpt>
      <trkpt lat="37.437034" lon="-5.359400">
        <ele>183.023493</ele>
        <time>2020-08-14T07:42:39.269Z</time>
      </trkpt>
      <trkpt lat="37.436917" lon="-5.359484">
        <ele>182.248559</ele>
        <time>2020-08-14T07:42:41.247Z</time>
      </trkpt>
      <trkpt lat="37.436803" lon="-5.359546">
        <ele>181.534046</ele>
        <time>2020-08-14T07:42:43.265Z</time>
      </trkpt>
      <trkpt lat="37.436691" lon="-5.359599">
        <ele>180.845600</ele>
        <time>2020-08-14T07:42:45.253Z</time>
      </trkpt>
      <trkpt lat="37.436571" lon="-5.359656">
        <ele>180.380649</ele>
        <time>2020-08-14T07:42:47.259Z</time>
      </trkpt>
      <trkpt lat="37.436469" lon="-5.359723">
        <ele>180.078106</ele>
        <time>2020-08-14T07:42:49.256Z</time>
      </trkpt>
      <trkpt lat="37.436338" lon="-5.359770">
        <ele>179.719884</ele>
        <time>2020-08-14T07:42:51.230Z</time>
      </trkpt>
      <trkpt lat="37.436225" lon="-5.359827">
        <ele>179.399755</ele>
        <time>2020-08-14T07:42:53.254Z</time>
      </trkpt>
      <trkpt lat="37.436082" lon="-5.359861">
        <ele>179.017038</ele>
        <time>2020-08-14T07:42:55.264Z</time>
      </trkpt>
      <trkpt lat="37.435951" lon="-5.359889">
        <ele>178.667596</ele>
        <time>2020-08-14T07:42:57.254Z</time>
      </trkpt>
      <trkpt lat="37.435831" lon="-5.359941">
        <ele>178.333850</ele>
        <time>2020-08-14T07:42:59.270Z</time>
      </trkpt>
      <trkpt lat="37.435712" lon="-5.359996">
        <ele>178.000484</ele>
        <time>2020-08-14T07:43:01.238Z</time>
      </trkpt>
      <trkpt lat="37.435563" lon="-5.360020">
        <ele>177.605438</ele>
        <time>2020-08-14T07:43:03.245Z</time>
      </trkpt>
      <trkpt lat="37.435444" lon="-5.360053">
        <ele>177.284984</ele>
        <time>2020-08-14T07:43:05.268Z</time>
      </trkpt>
      <trkpt lat="37.435307" lon="-5.360091">
        <ele>176.916054</ele>
        <time>2020-08-14T07:43:07.254Z</time>
      </trkpt>
      <trkpt lat="37.435157" lon="-5.360118">
        <ele>176.517562</ele>
        <time>2020-08-14T07:43:09.258Z</time>
      </trkpt>
      <trkpt lat="37.435034" lon="-5.360206">
        <ele>176.145531</ele>
        <time>2020-08-14T07:43:11.260Z</time>
      </trkpt>
      <trkpt lat="37.434883" lon="-5.360253">
        <ele>175.854440</ele>
        <time>2020-08-14T07:43:13.256Z</time>
      </trkpt>
      <trkpt lat="37.434747" lon="-5.360306">
        <ele>175.787257</ele>
        <time>2020-08-14T07:43:15.256Z</time>
      </trkpt>
      <trkpt lat="37.434616" lon="-5.360331">
        <ele>175.724730</ele>
        <time>2020-08-14T07:43:17.250Z</time>
      </trkpt>
      <trkpt lat="37.434478" lon="-5.360347">
        <ele>175.659331</ele>
        <time>2020-08-14T07:43:19.250Z</time>
      </trkpt>
      <trkpt lat="37.434332" lon="-5.360396">
        <ele>175.588027</ele>
        <time>2020-08-14T07:43:21.261Z</time>
      </trkpt>
      <trkpt lat="37.434206" lon="-5.360437">
        <ele>175.526613</ele>
        <time>2020-08-14T07:43:23.238Z</time>
      </trkpt>
      <trkpt lat="37.434114" lon="-5.360460">
        <ele>175.482350</ele>
        <time>2020-08-14T07:43:24.255Z</time>
      </trkpt>
      <trkpt lat="37.433962" lon="-5.360472">
        <ele>175.410478</ele>
        <time>2020-08-14T07:43:26.282Z</time>
      </trkpt>
      <trkpt lat="37.433846" lon="-5.360524">
        <ele>175.352371</ele>
        <time>2020-08-14T07:43:28.253Z</time>
      </trkpt>
      <trkpt lat="37.433710" lon="-5.360609">
        <ele>175.280722</ele>
        <time>2020-08-14T07:43:30.282Z</time>
      </trkpt>
      <trkpt lat="37.433582" lon="-5.360659">
        <ele>175.217478</ele>
        <time>2020-08-14T07:43:32.239Z</time>
      </trkpt>
      <trkpt lat="37.433443" lon="-5.360695">
        <ele>175.150509</ele>
        <time>2020-08-14T07:43:34.245Z</time>
      </trkpt>
      <trkpt lat="37.433334" lon="-5.360753">
        <ele>175.094667</ele>
        <time>2020-08-14T07:43:36.261Z</time>
      </trkpt>
      <trkpt lat="37.433205" lon="-5.360776">
        <ele>175.033183</ele>
        <time>2020-08-14T07:43:38.232Z</time>
      </trkpt>
      <trkpt lat="37.433060" lon="-5.360823">
        <ele>174.569515</ele>
        <time>2020-08-14T07:43:40.258Z</time>
      </trkpt>
      <trkpt lat="37.432924" lon="-5.360836">
        <ele>174.138050</ele>
        <time>2020-08-14T07:43:42.251Z</time>
      </trkpt>
      <trkpt lat="37.432797" lon="-5.360910">
        <ele>173.695374</ele>
        <time>2020-08-14T07:43:44.258Z</time>
      </trkpt>
      <trkpt lat="37.432673" lon="-5.360968">
        <ele>173.276924</ele>
        <time>2020-08-14T07:43:46.270Z</time>
      </trkpt>
      <trkpt lat="37.432547" lon="-5.360999">
        <ele>172.870796</ele>
        <time>2020-08-14T07:43:48.271Z</time>
      </trkpt>
      <trkpt lat="37.432440" lon="-5.361064">
        <ele>172.494984</ele>
        <time>2020-08-14T07:43:50.259Z</time>
      </trkpt>
      <trkpt lat="37.432310" lon="-5.361114">
        <ele>172.064985</ele>
        <time>2020-08-14T07:43:52.262Z</time>
      </trkpt>
      <trkpt lat="37.432202" lon="-5.361131">
        <ele>171.720675</ele>
        <time>2020-08-14T07:43:54.252Z</time>
      </trkpt>
      <trkpt lat="37.432090" lon="-5.361143">
        <ele>171.365090</ele>
        <time>2020-08-14T07:43:56.243Z</time>
      </trkpt>
      <trkpt lat="37.431975" lon="-5.361183">
        <ele>170.987674</ele>
        <time>2020-08-14T07:43:58.277Z</time>
      </trkpt>
      <trkpt lat="37.431870" lon="-5.361215">
        <ele>170.645925</ele>
        <time>2020-08-14T07:44:00.273Z</time>
      </trkpt>
      <trkpt lat="37.431772" lon="-5.361255">
        <ele>170.320031</ele>
        <time>2020-08-14T07:44:02.261Z</time>
      </trkpt>
      <trkpt lat="37.431641" lon="-5.361282">
        <ele>169.900107</ele>
        <time>2020-08-14T07:44:04.270Z</time>
      </trkpt>
      <trkpt lat="37.431536" lon="-5.361345">
        <ele>169.532172</ele>
        <time>2020-08-14T07:44:06.264Z</time>
      </trkpt>
      <trkpt lat="37.431414" lon="-5.361374">
        <ele>169.651926</ele>
        <time>2020-08-14T07:44:08.256Z</time>
      </trkpt>
      <trkpt lat="37.431306" lon="-5.361395">
        <ele>170.182801</ele>
        <time>2020-08-14T07:44:10.261Z</time>
      </trkpt>
      <trkpt lat="37.431203" lon="-5.361429">
        <ele>170.700074</ele>
        <time>2020-08-14T07:44:12.257Z</time>
      </trkpt>
      <trkpt lat="37.431101" lon="-5.361465">
        <ele>171.214677</ele>
        <time>2020-08-14T07:44:14.271Z</time>
      </trkpt>
      <trkpt lat="37.430990" lon="-5.361489">
        <ele>171.761799</ele>
        <time>2020-08-14T07:44:16.252Z</time>
      </trkpt>
      <trkpt lat="37.430871" lon="-5.361505">
        <ele>172.343181</ele>
        <time>2020-08-14T07:44:18.273Z</time>
      </trkpt>
      <trkpt lat="37.430747" lon="-5.361530">
        <ele>172.953237</ele>
        <time>2020-08-14T07:44:20.241Z</time>
      </trkpt>
      <trkpt lat="37.430640" lon="-5.361566">
        <ele>173.491269</ele>
        <time>2020-08-14T07:44:22.249Z</time>
      </trkpt>
      <trkpt lat="37.430543" lon="-5.361601">
        <ele>173.981451</ele>
        <time>2020-08-14T07:44:24.265Z</time>
      </trkpt>
      <trkpt lat="37.430461" lon="-5.361667">
        <ele>174.454217</ele>
        <time>2020-08-14T07:44:26.268Z</time>
      </trkpt>
      <trkpt lat="37.430341" lon="-5.361683">
        <ele>175.040429</ele>
        <time>2020-08-14T07:44:28.272Z</time>
      </trkpt>
      <trkpt lat="37.430235" lon="-5.361714">
        <ele>175.569075</ele>
        <time>2020-08-14T07:44:30.261Z</time>
      </trkpt>
      <trkpt lat="37.430121" lon="-5.361767">
        <ele>176.159417</ele>
        <time>2020-08-14T07:44:32.265Z</time>
      </trkpt>
      <trkpt lat="37.430016" lon="-5.361775">
        <ele>176.670434</ele>
        <time>2020-08-14T07:44:34.256Z</time>
      </trkpt>
      <trkpt lat="37.429902" lon="-5.361771">
        <ele>177.224455</ele>
        <time>2020-08-14T07:44:36.274Z</time>
      </trkpt>
      <trkpt lat="37.429789" lon="-5.361802">
        <ele>177.786278</ele>
        <time>2020-08-14T07:44:38.263Z</time>
      </trkpt>
      <trkpt lat="37.429696" lon="-5.361852">
        <ele>178.142383</ele>
        <time>2020-08-14T07:44:40.278Z</time>
      </trkpt>
      <trkpt lat="37.429571" lon="-5.361859">
        <ele>178.335938</ele>
        <time>2020-08-14T07:44:42.269Z</time>
      </trkpt>
      <trkpt lat="37.429465" lon="-5.361878">
        <ele>178.501563</ele>
        <time>2020-08-14T07:44:44.269Z</time>
      </trkpt>
      <trkpt lat="37.429367" lon="-5.361898">
        <ele>178.655137</ele>
        <time>2020-08-14T07:44:46.272Z</time>
      </trkpt>
      <trkpt lat="37.429258" lon="-5.361930">
        <ele>178.828272</ele>
        <time>2020-08-14T07:44:48.264Z</time>
      </trkpt>
      <trkpt lat="37.429141" lon="-5.361949">
        <ele>179.010759</ele>
        <time>2020-08-14T07:44:50.244Z</time>
      </trkpt>
      <trkpt lat="37.429051" lon="-5.362007">
        <ele>179.167152</ele>
        <time>2020-08-14T07:44:52.248Z</time>
      </trkpt>
      <trkpt lat="37.428936" lon="-5.362025">
        <ele>179.346415</ele>
        <time>2020-08-14T07:44:54.268Z</time>
      </trkpt>
      <trkpt lat="37.428857" lon="-5.362104">
        <ele>179.502466</ele>
        <time>2020-08-14T07:44:56.267Z</time>
      </trkpt>
      <trkpt lat="37.428748" lon="-5.362133">
        <ele>179.674801</ele>
        <time>2020-08-14T07:44:58.254Z</time>
      </trkpt>
      <trkpt lat="37.428646" lon="-5.362158">
        <ele>179.835547</ele>
        <time>2020-08-14T07:45:00.254Z</time>
      </trkpt>
      <trkpt lat="37.428510" lon="-5.362199">
        <ele>180.051871</ele>
        <time>2020-08-14T07:45:03.271Z</time>
      </trkpt>
      <trkpt lat="37.428434" lon="-5.362268">
        <ele>180.196805</ele>
        <time>2020-08-14T07:45:05.273Z</time>
      </trkpt>
      <trkpt lat="37.428326" lon="-5.362272">
        <ele>180.363943</ele>
        <time>2020-08-14T07:45:07.268Z</time>
      </trkpt>
      <trkpt lat="37.428227" lon="-5.362289">
        <ele>180.518504</ele>
        <time>2020-08-14T07:45:09.260Z</time>
      </trkpt>
      <trkpt lat="37.428138" lon="-5.362318">
        <ele>180.660714</ele>
        <time>2020-08-14T07:45:11.274Z</time>
      </trkpt>
      <trkpt lat="37.428025" lon="-5.362341">
        <ele>180.837783</ele>
        <time>2020-08-14T07:45:13.272Z</time>
      </trkpt>
      <trkpt lat="37.427915" lon="-5.362365">
        <ele>181.193268</ele>
        <time>2020-08-14T07:45:15.272Z</time>
      </trkpt>
      <trkpt lat="37.427794" lon="-5.362402">
        <ele>181.622347</ele>
        <time>2020-08-14T07:45:17.251Z</time>
      </trkpt>
      <trkpt lat="37.427686" lon="-5.362421">
        <ele>181.998125</ele>
        <time>2020-08-14T07:45:19.275Z</time>
      </trkpt>
      <trkpt lat="37.427579" lon="-5.362449">
        <ele>182.374720</ele>
        <time>2020-08-14T07:45:21.267Z</time>
      </trkpt>
      <trkpt lat="37.427489" lon="-5.362524">
        <ele>182.746618</ele>
        <time>2020-08-14T07:45:23.258Z</time>
      </trkpt>
      <trkpt lat="37.427361" lon="-5.362546">
        <ele>183.191790</ele>
        <time>2020-08-14T07:45:25.272Z</time>
      </trkpt>
      <trkpt lat="37.427238" lon="-5.362580">
        <ele>183.625735</ele>
        <time>2020-08-14T07:45:27.254Z</time>
      </trkpt>
      <trkpt lat="37.427127" lon="-5.362618">
        <ele>184.022121</ele>
        <time>2020-08-14T07:45:29.244Z</time>
      </trkpt>
      <trkpt lat="37.427041" lon="-5.362663">
        <ele>184.343040</ele>
        <time>2020-08-14T07:45:31.269Z</time>
      </trkpt>
      <trkpt lat="37.426904" lon="-5.362680">
        <ele>184.817424</ele>
        <time>2020-08-14T07:45:33.270Z</time>
      </trkpt>
      <trkpt lat="37.426785" lon="-5.362700">
        <ele>185.231129</ele>
        <time>2020-08-14T07:45:35.256Z</time>
      </trkpt>
      <trkpt lat="37.426672" lon="-5.362720">
        <ele>185.624351</ele>
        <time>2020-08-14T07:45:37.267Z</time>
      </trkpt>
      <trkpt lat="37.426557" lon="-5.362737">
        <ele>186.023358</ele>
        <time>2020-08-14T07:45:39.262Z</time>
      </trkpt>
      <trkpt lat="37.426448" lon="-5.362780">
        <ele>186.416968</ele>
        <time>2020-08-14T07:45:41.263Z</time>
      </trkpt>
      <trkpt lat="37.426322" lon="-5.362806">
        <ele>186.856951</ele>
        <time>2020-08-14T07:45:43.263Z</time>
      </trkpt>
      <trkpt lat="37.426204" lon="-5.362840">
        <ele>186.958609</ele>
        <time>2020-08-14T07:45:45.249Z</time>
      </trkpt>
      <trkpt lat="37.426094" lon="-5.362891">
        <ele>186.768305</ele>
        <time>2020-08-14T07:45:47.251Z</time>
      </trkpt>
      <trkpt lat="37.425985" lon="-5.362923">
        <ele>186.586599</ele>
        <time>2020-08-14T07:45:49.255Z</time>
      </trkpt>
      <trkpt lat="37.425872" lon="-5.362971">
        <ele>186.392988</ele>
        <time>2020-08-14T07:45:51.262Z</time>
      </trkpt>
      <trkpt lat="37.425765" lon="-5.363003">
        <ele>186.214443</ele>
        <time>2020-08-14T07:45:53.251Z</time>
      </trkpt>
      <trkpt lat="37.425666" lon="-5.363077">
        <ele>186.027534</ele>
        <time>2020-08-14T07:45:55.273Z</time>
      </trkpt>
      <trkpt lat="37.425555" lon="-5.363129">
        <ele>185.835260</ele>
        <time>2020-08-14T07:45:57.263Z</time>
      </trkpt>
      <trkpt lat="37.425447" lon="-5.363169">
        <ele>185.652497</ele>
        <time>2020-08-14T07:45:59.254Z</time>
      </trkpt>
      <trkpt lat="37.425323" lon="-5.363179">
        <ele>185.450772</ele>
        <time>2020-08-14T07:46:01.265Z</time>
      </trkpt>
      <trkpt lat="37.425211" lon="-5.363204">
        <ele>185.266107</ele>
        <time>2020-08-14T07:46:03.249Z</time>
      </trkpt>
      <trkpt lat="37.425095" lon="-5.363219">
        <ele>185.076792</ele>
        <time>2020-08-14T07:46:05.250Z</time>
      </trkpt>
      <trkpt lat="37.424988" lon="-5.363258">
        <ele>184.895948</ele>
        <time>2020-08-14T07:46:07.267Z</time>
      </trkpt>
      <trkpt lat="37.424876" lon="-5.363286">
        <ele>184.710569</ele>
        <time>2020-08-14T07:46:09.266Z</time>
      </trkpt>
      <trkpt lat="37.424757" lon="-5.363320">
        <ele>184.512463</ele>
        <time>2020-08-14T07:46:11.258Z</time>
      </trkpt>
      <trkpt lat="37.424630" lon="-5.363348">
        <ele>184.303144</ele>
        <time>2020-08-14T07:46:13.268Z</time>
      </trkpt>
      <trkpt lat="37.424523" lon="-5.363389">
        <ele>184.206560</ele>
        <time>2020-08-14T07:46:15.241Z</time>
      </trkpt>
      <trkpt lat="37.424415" lon="-5.363411">
        <ele>184.867610</ele>
        <time>2020-08-14T07:46:17.263Z</time>
      </trkpt>
      <trkpt lat="37.424321" lon="-5.363442">
        <ele>185.454741</ele>
        <time>2020-08-14T07:46:19.270Z</time>
      </trkpt>
      <trkpt lat="37.424194" lon="-5.363458">
        <ele>186.225942</ele>
        <time>2020-08-14T07:46:21.265Z</time>
      </trkpt>
      <trkpt lat="37.424086" lon="-5.363489">
        <ele>186.895248</ele>
        <time>2020-08-14T07:46:23.243Z</time>
      </trkpt>
      <trkpt lat="37.423947" lon="-5.363523">
        <ele>187.750824</ele>
        <time>2020-08-14T07:46:26.254Z</time>
      </trkpt>
      <trkpt lat="37.423863" lon="-5.363569">
        <ele>188.304296</ele>
        <time>2020-08-14T07:46:28.269Z</time>
      </trkpt>
      <trkpt lat="37.423761" lon="-5.363620">
        <ele>188.967419</ele>
        <time>2020-08-14T07:46:30.254Z</time>
      </trkpt>
      <trkpt lat="37.423661" lon="-5.363683">
        <ele>189.643054</ele>
        <time>2020-08-14T07:46:32.270Z</time>
      </trkpt>
      <trkpt lat="37.423561" lon="-5.363731">
        <ele>190.289694</ele>
        <time>2020-08-14T07:46:34.248Z</time>
      </trkpt>
      <trkpt lat="37.423443" lon="-5.363775">
        <ele>191.033288</ele>
        <time>2020-08-14T07:46:36.273Z</time>
      </trkpt>
      <trkpt lat="37.423344" lon="-5.363812">
        <ele>191.657267</ele>
        <time>2020-08-14T07:46:38.264Z</time>
      </trkpt>
      <trkpt lat="37.423235" lon="-5.363844">
        <ele>192.333539</ele>
        <time>2020-08-14T07:46:40.264Z</time>
      </trkpt>
      <trkpt lat="37.423139" lon="-5.363906">
        <ele>192.985445</ele>
        <time>2020-08-14T07:46:42.264Z</time>
      </trkpt>
      <trkpt lat="37.423049" lon="-5.363967">
        <ele>193.603026</ele>
        <time>2020-08-14T07:46:44.258Z</time>
      </trkpt>
      <trkpt lat="37.422949" lon="-5.364010">
        <ele>194.241514</ele>
        <time>2020-08-14T07:46:46.261Z</time>
      </trkpt>
      <trkpt lat="37.422846" lon="-5.364055">
        <ele>194.900266</ele>
        <time>2020-08-14T07:46:48.263Z</time>
      </trkpt>
      <trkpt lat="37.422764" lon="-5.364111">
        <ele>194.747781</ele>
        <time>2020-08-14T07:46:50.245Z</time>
      </trkpt>
      <trkpt lat="37.422667" lon="-5.364157">
        <ele>194.391458</ele>
        <time>2020-08-14T07:46:52.273Z</time>
      </trkpt>
      <trkpt lat="37.422568" lon="-5.364200">
        <ele>194.031446</ele>
        <time>2020-08-14T07:46:54.250Z</time>
      </trkpt>
      <trkpt lat="37.422490" lon="-5.364262">
        <ele>193.714347</ele>
        <time>2020-08-14T07:46:56.264Z</time>
      </trkpt>
      <trkpt lat="37.422412" lon="-5.364339">
        <ele>193.373622</ele>
        <time>2020-08-14T07:46:58.261Z</time>
      </trkpt>
      <trkpt lat="37.422309" lon="-5.364402">
        <ele>192.979974</ele>
        <time>2020-08-14T07:47:00.251Z</time>
      </trkpt>
      <trkpt lat="37.422187" lon="-5.364482">
        <ele>192.507109</ele>
        <time>2020-08-14T07:47:03.232Z</time>
      </trkpt>
      <trkpt lat="37.422092" lon="-5.364535">
        <ele>192.149906</ele>
        <time>2020-08-14T07:47:05.244Z</time>
      </trkpt>
      <trkpt lat="37.421981" lon="-5.364639">
        <ele>191.674272</ele>
        <time>2020-08-14T07:47:08.265Z</time>
      </trkpt>
      <trkpt lat="37.421886" lon="-5.364703">
        <ele>191.303884</ele>
        <time>2020-08-14T07:47:10.248Z</time>
      </trkpt>
      <trkpt lat="37.421802" lon="-5.364762">
        <ele>190.973228</ele>
        <time>2020-08-14T07:47:12.270Z</time>
      </trkpt>
      <trkpt lat="37.421712" lon="-5.364810">
        <ele>190.637225</ele>
        <time>2020-08-14T07:47:14.242Z</time>
      </trkpt>
      <trkpt lat="37.421623" lon="-5.364858">
        <ele>190.304384</ele>
        <time>2020-08-14T07:47:16.259Z</time>
      </trkpt>
      <trkpt lat="37.421519" lon="-5.364936">
        <ele>189.888245</ele>
        <time>2020-08-14T07:47:19.237Z</time>
      </trkpt>
      <trkpt lat="37.421424" lon="-5.365003">
        <ele>189.513924</ele>
        <time>2020-08-14T07:47:21.268Z</time>
      </trkpt>
      <trkpt lat="37.421332" lon="-5.365072">
        <ele>189.145801</ele>
        <time>2020-08-14T07:47:23.281Z</time>
      </trkpt>
      <trkpt lat="37.421221" lon="-5.365165">
        <ele>188.519353</ele>
        <time>2020-08-14T07:47:26.270Z</time>
      </trkpt>
      <trkpt lat="37.421169" lon="-5.365261">
        <ele>187.812231</ele>
        <time>2020-08-14T07:47:28.243Z</time>
      </trkpt>
      <trkpt lat="37.421084" lon="-5.365327">
        <ele>187.047065</ele>
        <time>2020-08-14T07:47:30.250Z</time>
      </trkpt>
      <trkpt lat="37.421011" lon="-5.365421">
        <ele>186.247025</ele>
        <time>2020-08-14T07:47:32.254Z</time>
      </trkpt>
      <trkpt lat="37.420927" lon="-5.365474">
        <ele>185.527113</ele>
        <time>2020-08-14T07:47:34.257Z</time>
      </trkpt>
      <trkpt lat="37.420837" lon="-5.365541">
        <ele>184.726003</ele>
        <time>2020-08-14T07:47:36.254Z</time>
      </trkpt>
      <trkpt lat="37.420715" lon="-5.365637">
        <ele>183.623684</ele>
        <time>2020-08-14T07:47:39.263Z</time>
      </trkpt>
      <trkpt lat="37.420623" lon="-5.365703">
        <ele>182.812375</ele>
        <time>2020-08-14T07:47:41.277Z</time>
      </trkpt>
      <trkpt lat="37.420545" lon="-5.365782">
        <ele>182.045369</ele>
        <time>2020-08-14T07:47:43.246Z</time>
      </trkpt>
      <trkpt lat="37.420480" lon="-5.365863">
        <ele>181.344649</ele>
        <time>2020-08-14T07:47:45.261Z</time>
      </trkpt>
      <trkpt lat="37.420369" lon="-5.365972">
        <ele>180.266074</ele>
        <time>2020-08-14T07:47:48.258Z</time>
      </trkpt>
      <trkpt lat="37.420285" lon="-5.366069">
        <ele>179.392758</ele>
        <time>2020-08-14T07:47:50.249Z</time>
      </trkpt>
      <trkpt lat="37.420222" lon="-5.366155">
        <ele>178.680789</ele>
        <time>2020-08-14T07:47:52.276Z</time>
      </trkpt>
      <trkpt lat="37.420153" lon="-5.366229">
        <ele>177.986311</ele>
        <time>2020-08-14T07:47:54.248Z</time>
      </trkpt>
      <trkpt lat="37.420084" lon="-5.366315">
        <ele>177.242403</ele>
        <time>2020-08-14T07:47:56.272Z</time>
      </trkpt>
      <trkpt lat="37.420003" lon="-5.366371">
        <ele>176.534361</ele>
        <time>2020-08-14T07:47:58.275Z</time>
      </trkpt>
      <trkpt lat="37.419947" lon="-5.366472">
        <ele>175.784780</ele>
        <time>2020-08-14T07:48:00.251Z</time>
      </trkpt>
      <trkpt lat="37.419881" lon="-5.366571">
        <ele>174.958420</ele>
        <time>2020-08-14T07:48:02.239Z</time>
      </trkpt>
      <trkpt lat="37.419761" lon="-5.366664">
        <ele>172.912287</ele>
        <time>2020-08-14T07:48:05.272Z</time>
      </trkpt>
      <trkpt lat="37.419682" lon="-5.366745">
        <ele>171.432904</ele>
        <time>2020-08-14T07:48:07.266Z</time>
      </trkpt>
      <trkpt lat="37.419605" lon="-5.366856">
        <ele>169.733235</ele>
        <time>2020-08-14T07:48:10.270Z</time>
      </trkpt>
      <trkpt lat="37.419548" lon="-5.366986">
        <ele>168.020695</ele>
        <time>2020-08-14T07:48:13.273Z</time>
      </trkpt>
      <trkpt lat="37.419469" lon="-5.367108">
        <ele>166.205330</ele>
        <time>2020-08-14T07:48:16.274Z</time>
      </trkpt>
      <trkpt lat="37.419377" lon="-5.367191">
        <ele>164.561876</ele>
        <time>2020-08-14T07:48:18.236Z</time>
      </trkpt>
      <trkpt lat="37.419304" lon="-5.367264">
        <ele>163.208205</ele>
        <time>2020-08-14T07:48:20.254Z</time>
      </trkpt>
      <trkpt lat="37.419229" lon="-5.367352">
        <ele>161.719569</ele>
        <time>2020-08-14T07:48:22.256Z</time>
      </trkpt>
      <trkpt lat="37.419145" lon="-5.367463">
        <ele>159.951369</ele>
        <time>2020-08-14T07:48:25.264Z</time>
      </trkpt>
      <trkpt lat="37.419070" lon="-5.367557">
        <ele>158.414722</ele>
        <time>2020-08-14T07:48:27.241Z</time>
      </trkpt>
      <trkpt lat="37.418961" lon="-5.367683">
        <ele>156.266060</ele>
        <time>2020-08-14T07:48:30.246Z</time>
      </trkpt>
      <trkpt lat="37.418877" lon="-5.367795">
        <ele>154.489490</ele>
        <time>2020-08-14T07:48:32.267Z</time>
      </trkpt>
      <trkpt lat="37.418852" lon="-5.367913">
        <ele>153.081041</ele>
        <time>2020-08-14T07:48:34.258Z</time>
      </trkpt>
      <trkpt lat="37.418855" lon="-5.368028">
        <ele>151.754063</ele>
        <time>2020-08-14T07:48:38.251Z</time>
      </trkpt>
      <trkpt lat="37.418762" lon="-5.368105">
        <ele>150.137807</ele>
        <time>2020-08-14T07:48:48.246Z</time>
      </trkpt>
      <trkpt lat="37.418672" lon="-5.368214">
        <ele>148.847314</ele>
        <time>2020-08-14T07:48:52.247Z</time>
      </trkpt>
      <trkpt lat="37.418603" lon="-5.368300">
        <ele>148.665485</ele>
        <time>2020-08-14T07:48:55.270Z</time>
      </trkpt>
      <trkpt lat="37.418510" lon="-5.368396">
        <ele>148.440263</ele>
        <time>2020-08-14T07:49:00.254Z</time>
      </trkpt>
      <trkpt lat="37.418438" lon="-5.368478">
        <ele>148.258443</ele>
        <time>2020-08-14T07:49:03.267Z</time>
      </trkpt>
      <trkpt lat="37.418171" lon="-5.368805">
        <ele>147.560868</ele>
        <time>2020-08-14T07:49:07.230Z</time>
      </trkpt>
      <trkpt lat="37.418101" lon="-5.368906">
        <ele>147.361481</ele>
        <time>2020-08-14T07:49:09.269Z</time>
      </trkpt>
      <trkpt lat="37.417984" lon="-5.368988">
        <ele>147.110704</ele>
        <time>2020-08-14T07:49:11.264Z</time>
      </trkpt>
      <trkpt lat="37.417896" lon="-5.369076">
        <ele>146.900241</ele>
        <time>2020-08-14T07:49:13.255Z</time>
      </trkpt>
      <trkpt lat="37.417828" lon="-5.369157">
        <ele>146.724930</ele>
        <time>2020-08-14T07:49:15.274Z</time>
      </trkpt>
      <trkpt lat="37.417762" lon="-5.369263">
        <ele>146.524587</ele>
        <time>2020-08-14T07:49:17.254Z</time>
      </trkpt>
      <trkpt lat="37.417722" lon="-5.369382">
        <ele>146.332383</ele>
        <time>2020-08-14T07:49:19.265Z</time>
      </trkpt>
      <trkpt lat="37.417623" lon="-5.369479">
        <ele>146.097451</ele>
        <time>2020-08-14T07:49:21.261Z</time>
      </trkpt>
      <trkpt lat="37.417533" lon="-5.369583">
        <ele>145.868672</ele>
        <time>2020-08-14T07:49:23.268Z</time>
      </trkpt>
      <trkpt lat="37.417460" lon="-5.369662">
        <ele>145.688397</ele>
        <time>2020-08-14T07:49:25.248Z</time>
      </trkpt>
      <trkpt lat="37.417384" lon="-5.369762">
        <ele>145.471485</ele>
        <time>2020-08-14T07:49:27.263Z</time>
      </trkpt>
      <trkpt lat="37.417303" lon="-5.369879">
        <ele>145.206037</ele>
        <time>2020-08-14T07:49:29.269Z</time>
      </trkpt>
      <trkpt lat="37.417220" lon="-5.369988">
        <ele>144.947782</ele>
        <time>2020-08-14T07:49:31.256Z</time>
      </trkpt>
      <trkpt lat="37.417147" lon="-5.370075">
        <ele>144.731335</ele>
        <time>2020-08-14T07:49:33.245Z</time>
      </trkpt>
      <trkpt lat="37.417059" lon="-5.370170">
        <ele>144.481723</ele>
        <time>2020-08-14T07:49:35.262Z</time>
      </trkpt>
      <trkpt lat="37.416982" lon="-5.370269">
        <ele>144.244741</ele>
        <time>2020-08-14T07:49:37.248Z</time>
      </trkpt>
      <trkpt lat="37.416897" lon="-5.370397">
        <ele>143.959391</ele>
        <time>2020-08-14T07:49:39.278Z</time>
      </trkpt>
      <trkpt lat="37.416839" lon="-5.370493">
        <ele>143.753101</ele>
        <time>2020-08-14T07:49:41.280Z</time>
      </trkpt>
      <trkpt lat="37.416771" lon="-5.370580">
        <ele>143.544341</ele>
        <time>2020-08-14T07:49:43.264Z</time>
      </trkpt>
      <trkpt lat="37.416702" lon="-5.370678">
        <ele>143.320358</ele>
        <time>2020-08-14T07:49:46.270Z</time>
      </trkpt>
      <trkpt lat="37.416487" lon="-5.370947">
        <ele>142.667672</ele>
        <time>2020-08-14T07:49:51.249Z</time>
      </trkpt>
      <trkpt lat="37.416422" lon="-5.371044">
        <ele>142.450617</ele>
        <time>2020-08-14T07:49:53.259Z</time>
      </trkpt>
      <trkpt lat="37.416340" lon="-5.371140">
        <ele>142.209503</ele>
        <time>2020-08-14T07:49:55.258Z</time>
      </trkpt>
      <trkpt lat="37.416245" lon="-5.371252">
        <ele>141.929253</ele>
        <time>2020-08-14T07:49:58.289Z</time>
      </trkpt>
      <trkpt lat="37.416198" lon="-5.371353">
        <ele>141.729050</ele>
        <time>2020-08-14T07:50:01.278Z</time>
      </trkpt>
      <trkpt lat="37.416093" lon="-5.371451">
        <ele>141.377872</ele>
        <time>2020-08-14T07:50:02.253Z</time>
      </trkpt>
      <trkpt lat="37.416018" lon="-5.371534">
        <ele>141.099194</ele>
        <time>2020-08-14T07:50:04.271Z</time>
      </trkpt>
      <trkpt lat="37.415941" lon="-5.371628">
        <ele>140.799867</ele>
        <time>2020-08-14T07:50:06.264Z</time>
      </trkpt>
      <trkpt lat="37.415855" lon="-5.371722">
        <ele>140.482026</ele>
        <time>2020-08-14T07:50:08.266Z</time>
      </trkpt>
      <trkpt lat="37.415784" lon="-5.371809">
        <ele>140.205522</ele>
        <time>2020-08-14T07:50:10.261Z</time>
      </trkpt>
      <trkpt lat="37.415700" lon="-5.371922">
        <ele>139.862448</ele>
        <time>2020-08-14T07:50:14.265Z</time>
      </trkpt>
      <trkpt lat="37.415625" lon="-5.372023">
        <ele>139.555959</ele>
        <time>2020-08-14T07:50:17.264Z</time>
      </trkpt>
      <trkpt lat="37.415300" lon="-5.372393">
        <ele>138.333104</ele>
        <time>2020-08-14T07:50:23.314Z</time>
      </trkpt>
      <trkpt lat="37.415237" lon="-5.372487">
        <ele>138.060467</ele>
        <time>2020-08-14T07:50:25.248Z</time>
      </trkpt>
      <trkpt lat="37.415173" lon="-5.372586">
        <ele>137.777515</ele>
        <time>2020-08-14T07:50:27.243Z</time>
      </trkpt>
      <trkpt lat="37.415086" lon="-5.372690">
        <ele>137.442702</ele>
        <time>2020-08-14T07:50:31.265Z</time>
      </trkpt>
      <trkpt lat="37.414996" lon="-5.372810">
        <ele>137.076851</ele>
        <time>2020-08-14T07:50:34.269Z</time>
      </trkpt>
      <trkpt lat="37.414918" lon="-5.372908">
        <ele>136.769315</ele>
        <time>2020-08-14T07:50:36.250Z</time>
      </trkpt>
      <trkpt lat="37.414843" lon="-5.373004">
        <ele>136.882536</ele>
        <time>2020-08-14T07:50:38.274Z</time>
      </trkpt>
      <trkpt lat="37.414772" lon="-5.373092">
        <ele>137.199156</ele>
        <time>2020-08-14T07:50:40.265Z</time>
      </trkpt>
      <trkpt lat="37.414698" lon="-5.373161">
        <ele>137.491793</ele>
        <time>2020-08-14T07:50:42.246Z</time>
      </trkpt>
      <trkpt lat="37.414625" lon="-5.373240">
        <ele>137.797704</ele>
        <time>2020-08-14T07:50:44.259Z</time>
      </trkpt>
      <trkpt lat="37.414554" lon="-5.373322">
        <ele>138.103890</ele>
        <time>2020-08-14T07:50:46.247Z</time>
      </trkpt>
      <trkpt lat="37.414494" lon="-5.373427">
        <ele>138.430385</ele>
        <time>2020-08-14T07:50:50.283Z</time>
      </trkpt>
      <trkpt lat="37.414393" lon="-5.373570">
        <ele>138.913404</ele>
        <time>2020-08-14T07:50:53.268Z</time>
      </trkpt>
      <trkpt lat="37.414309" lon="-5.373655">
        <ele>139.255883</ele>
        <time>2020-08-14T07:50:54.258Z</time>
      </trkpt>
      <trkpt lat="37.414220" lon="-5.373776">
        <ele>139.672149</ele>
        <time>2020-08-14T07:50:57.261Z</time>
      </trkpt>
      <trkpt lat="37.414135" lon="-5.373834">
        <ele>139.979395</ele>
        <time>2020-08-14T07:50:59.260Z</time>
      </trkpt>
      <trkpt lat="37.414043" lon="-5.373945">
        <ele>140.384339</ele>
        <time>2020-08-14T07:51:02.288Z</time>
      </trkpt>
      <trkpt lat="37.413971" lon="-5.374037">
        <ele>140.710347</ele>
        <time>2020-08-14T07:51:05.260Z</time>
      </trkpt>
      <trkpt lat="37.413905" lon="-5.374147">
        <ele>141.058319</ele>
        <time>2020-08-14T07:51:08.267Z</time>
      </trkpt>
      <trkpt lat="37.413821" lon="-5.374275">
        <ele>141.477421</ele>
        <time>2020-08-14T07:51:11.270Z</time>
      </trkpt>
      <trkpt lat="37.413726" lon="-5.374370">
        <ele>141.862969</ele>
        <time>2020-08-14T07:51:13.243Z</time>
      </trkpt>
      <trkpt lat="37.413634" lon="-5.374448">
        <ele>142.215450</ele>
        <time>2020-08-14T07:51:15.249Z</time>
      </trkpt>
      <trkpt lat="37.413518" lon="-5.374548">
        <ele>142.375618</ele>
        <time>2020-08-14T07:51:18.271Z</time>
      </trkpt>
      <trkpt lat="37.413428" lon="-5.374623">
        <ele>142.371144</ele>
        <time>2020-08-14T07:51:23.261Z</time>
      </trkpt>
      <trkpt lat="37.413268" lon="-5.374770">
        <ele>142.362935</ele>
        <time>2020-08-14T07:51:26.268Z</time>
      </trkpt>
      <trkpt lat="37.413200" lon="-5.374882">
        <ele>142.358294</ele>
        <time>2020-08-14T07:51:29.244Z</time>
      </trkpt>
      <trkpt lat="37.413126" lon="-5.374988">
        <ele>142.353648</ele>
        <time>2020-08-14T07:51:32.259Z</time>
      </trkpt>
      <trkpt lat="37.413026" lon="-5.375130">
        <ele>142.347400</ele>
        <time>2020-08-14T07:51:37.272Z</time>
      </trkpt>
      <trkpt lat="37.412942" lon="-5.375244">
        <ele>142.342281</ele>
        <time>2020-08-14T07:51:39.270Z</time>
      </trkpt>
      <trkpt lat="37.412857" lon="-5.375349">
        <ele>142.337345</ele>
        <time>2020-08-14T07:51:41.273Z</time>
      </trkpt>
      <trkpt lat="37.412765" lon="-5.375455">
        <ele>142.332176</ele>
        <time>2020-08-14T07:51:43.273Z</time>
      </trkpt>
      <trkpt lat="37.412674" lon="-5.375550">
        <ele>142.327277</ele>
        <time>2020-08-14T07:51:45.267Z</time>
      </trkpt>
      <trkpt lat="37.412594" lon="-5.375634">
        <ele>142.322959</ele>
        <time>2020-08-14T07:51:47.274Z</time>
      </trkpt>
      <trkpt lat="37.412498" lon="-5.375745">
        <ele>142.317556</ele>
        <time>2020-08-14T07:51:49.264Z</time>
      </trkpt>
      <trkpt lat="37.412406" lon="-5.375856">
        <ele>142.312275</ele>
        <time>2020-08-14T07:51:51.278Z</time>
      </trkpt>
      <trkpt lat="37.412333" lon="-5.375944">
        <ele>142.308086</ele>
        <time>2020-08-14T07:51:53.273Z</time>
      </trkpt>
      <trkpt lat="37.412263" lon="-5.376033">
        <ele>142.304589</ele>
        <time>2020-08-14T07:51:55.279Z</time>
      </trkpt>
      <trkpt lat="37.412193" lon="-5.376120">
        <ele>142.303722</ele>
        <time>2020-08-14T07:51:57.289Z</time>
      </trkpt>
      <trkpt lat="37.412095" lon="-5.376228">
        <ele>142.302575</ele>
        <time>2020-08-14T07:52:00.276Z</time>
      </trkpt>
      <trkpt lat="37.412017" lon="-5.376322">
        <ele>142.301624</ele>
        <time>2020-08-14T07:52:04.247Z</time>
      </trkpt>
      <trkpt lat="37.411940" lon="-5.376413">
        <ele>142.300693</ele>
        <time>2020-08-14T07:52:06.265Z</time>
      </trkpt>
      <trkpt lat="37.411872" lon="-5.376510">
        <ele>142.299788</ele>
        <time>2020-08-14T07:52:10.283Z</time>
      </trkpt>
      <trkpt lat="37.411800" lon="-5.376606">
        <ele>142.298864</ele>
        <time>2020-08-14T07:52:12.273Z</time>
      </trkpt>
      <trkpt lat="37.411683" lon="-5.376755">
        <ele>142.297398</ele>
        <time>2020-08-14T07:52:14.270Z</time>
      </trkpt>
      <trkpt lat="37.411618" lon="-5.376851">
        <ele>142.296516</ele>
        <time>2020-08-14T07:52:16.260Z</time>
      </trkpt>
      <trkpt lat="37.411538" lon="-5.376915">
        <ele>142.295681</ele>
        <time>2020-08-14T07:52:18.271Z</time>
      </trkpt>
      <trkpt lat="37.411461" lon="-5.377010">
        <ele>142.294731</ele>
        <time>2020-08-14T07:52:21.270Z</time>
      </trkpt>
      <trkpt lat="37.411358" lon="-5.377143">
        <ele>142.293431</ele>
        <time>2020-08-14T07:52:23.273Z</time>
      </trkpt>
      <trkpt lat="37.411254" lon="-5.377281">
        <ele>142.292100</ele>
        <time>2020-08-14T07:52:25.274Z</time>
      </trkpt>
      <trkpt lat="37.411172" lon="-5.377392">
        <ele>142.291039</ele>
        <time>2020-08-14T07:52:27.275Z</time>
      </trkpt>
      <trkpt lat="37.411060" lon="-5.377482">
        <ele>142.289869</ele>
        <time>2020-08-14T07:52:31.266Z</time>
      </trkpt>
      <trkpt lat="37.410993" lon="-5.377571">
        <ele>142.289011</ele>
        <time>2020-08-14T07:52:33.256Z</time>
      </trkpt>
      <trkpt lat="37.410933" lon="-5.377667">
        <ele>142.103856</ele>
        <time>2020-08-14T07:52:35.241Z</time>
      </trkpt>
      <trkpt lat="37.410855" lon="-5.377757">
        <ele>141.875979</ele>
        <time>2020-08-14T07:52:37.278Z</time>
      </trkpt>
      <trkpt lat="37.410792" lon="-5.377838">
        <ele>141.682038</ele>
        <time>2020-08-14T07:52:39.260Z</time>
      </trkpt>
      <trkpt lat="37.410704" lon="-5.377923">
        <ele>141.443150</ele>
        <time>2020-08-14T07:52:41.252Z</time>
      </trkpt>
      <trkpt lat="37.410631" lon="-5.378015">
        <ele>141.220684</ele>
        <time>2020-08-14T07:52:45.281Z</time>
      </trkpt>
      <trkpt lat="37.410492" lon="-5.378206">
        <ele>140.777522</ele>
        <time>2020-08-14T07:52:47.256Z</time>
      </trkpt>
      <trkpt lat="37.410404" lon="-5.378323">
        <ele>140.501867</ele>
        <time>2020-08-14T07:52:49.252Z</time>
      </trkpt>
      <trkpt lat="37.410303" lon="-5.378441">
        <ele>140.205099</ele>
        <time>2020-08-14T07:52:51.257Z</time>
      </trkpt>
      <trkpt lat="37.410215" lon="-5.378542">
        <ele>139.948628</ele>
        <time>2020-08-14T07:52:53.265Z</time>
      </trkpt>
      <trkpt lat="37.410136" lon="-5.378633">
        <ele>139.718006</ele>
        <time>2020-08-14T07:52:55.268Z</time>
      </trkpt>
      <trkpt lat="37.410050" lon="-5.378727">
        <ele>139.472713</ele>
        <time>2020-08-14T07:52:57.265Z</time>
      </trkpt>
      <trkpt lat="37.409970" lon="-5.378805">
        <ele>139.254782</ele>
        <time>2020-08-14T07:52:59.283Z</time>
      </trkpt>
      <trkpt lat="37.409893" lon="-5.378894">
        <ele>139.029647</ele>
        <time>2020-08-14T07:53:01.270Z</time>
      </trkpt>
      <trkpt lat="37.409818" lon="-5.378997">
        <ele>138.790602</ele>
        <time>2020-08-14T07:53:03.275Z</time>
      </trkpt>
      <trkpt lat="37.409729" lon="-5.379103">
        <ele>138.526730</ele>
        <time>2020-08-14T07:53:06.268Z</time>
      </trkpt>
      <trkpt lat="37.409633" lon="-5.379207">
        <ele>138.255596</ele>
        <time>2020-08-14T07:53:09.271Z</time>
      </trkpt>
      <trkpt lat="37.409571" lon="-5.379307">
        <ele>138.040785</ele>
        <time>2020-08-14T07:53:14.248Z</time>
      </trkpt>
      <trkpt lat="37.409501" lon="-5.379404">
        <ele>137.818864</ele>
        <time>2020-08-14T07:53:16.283Z</time>
      </trkpt>
      <trkpt lat="37.409434" lon="-5.379483">
        <ele>137.623169</ele>
        <time>2020-08-14T07:53:18.260Z</time>
      </trkpt>
      <trkpt lat="37.409350" lon="-5.379587">
        <ele>137.372008</ele>
        <time>2020-08-14T07:53:21.285Z</time>
      </trkpt>
      <trkpt lat="37.409282" lon="-5.379678">
        <ele>137.160443</ele>
        <time>2020-08-14T07:53:23.273Z</time>
      </trkpt>
      <trkpt lat="37.409210" lon="-5.379771">
        <ele>136.940533</ele>
        <time>2020-08-14T07:53:25.266Z</time>
      </trkpt>
      <trkpt lat="37.409140" lon="-5.379858">
        <ele>136.730837</ele>
        <time>2020-08-14T07:53:27.268Z</time>
      </trkpt>
      <trkpt lat="37.409041" lon="-5.380002">
        <ele>136.408343</ele>
        <time>2020-08-14T07:53:30.264Z</time>
      </trkpt>
      <trkpt lat="37.408964" lon="-5.380099">
        <ele>136.176124</ele>
        <time>2020-08-14T07:53:32.252Z</time>
      </trkpt>
      <trkpt lat="37.408904" lon="-5.380184">
        <ele>135.983567</ele>
        <time>2020-08-14T07:53:34.262Z</time>
      </trkpt>
      <trkpt lat="37.408834" lon="-5.380318">
        <ele>135.711984</ele>
        <time>2020-08-14T07:53:37.240Z</time>
      </trkpt>
      <trkpt lat="37.408766" lon="-5.380406">
        <ele>135.504089</ele>
        <time>2020-08-14T07:53:39.265Z</time>
      </trkpt>
      <trkpt lat="37.408688" lon="-5.380485">
        <ele>135.290674</ele>
        <time>2020-08-14T07:53:41.250Z</time>
      </trkpt>
      <trkpt lat="37.408619" lon="-5.380568">
        <ele>135.087225</ele>
        <time>2020-08-14T07:53:43.241Z</time>
      </trkpt>
      <trkpt lat="37.408531" lon="-5.380645">
        <ele>134.858761</ele>
        <time>2020-08-14T07:53:45.252Z</time>
      </trkpt>
      <trkpt lat="37.408466" lon="-5.380728">
        <ele>134.661390</ele>
        <time>2020-08-14T07:53:47.244Z</time>
      </trkpt>
      <trkpt lat="37.408382" lon="-5.380818">
        <ele>134.628858</ele>
        <time>2020-08-14T07:53:49.261Z</time>
      </trkpt>
      <trkpt lat="37.408286" lon="-5.380915">
        <ele>134.710829</ele>
        <time>2020-08-14T07:53:51.258Z</time>
      </trkpt>
      <trkpt lat="37.408217" lon="-5.381001">
        <ele>134.775486</ele>
        <time>2020-08-14T07:53:53.287Z</time>
      </trkpt>
      <trkpt lat="37.408128" lon="-5.381097">
        <ele>134.853531</ele>
        <time>2020-08-14T07:53:55.271Z</time>
      </trkpt>
      <trkpt lat="37.408045" lon="-5.381195">
        <ele>134.929307</ele>
        <time>2020-08-14T07:53:57.257Z</time>
      </trkpt>
      <trkpt lat="37.407972" lon="-5.381283">
        <ele>134.996610</ele>
        <time>2020-08-14T07:53:59.264Z</time>
      </trkpt>
      <trkpt lat="37.407892" lon="-5.381359">
        <ele>135.063349</ele>
        <time>2020-08-14T07:54:01.256Z</time>
      </trkpt>
      <trkpt lat="37.407826" lon="-5.381461">
        <ele>135.132938</ele>
        <time>2020-08-14T07:54:03.242Z</time>
      </trkpt>
      <trkpt lat="37.407752" lon="-5.381547">
        <ele>135.200002</ele>
        <time>2020-08-14T07:54:05.261Z</time>
      </trkpt>
      <trkpt lat="37.407670" lon="-5.381619">
        <ele>135.266577</ele>
        <time>2020-08-14T07:54:07.260Z</time>
      </trkpt>
      <trkpt lat="37.407583" lon="-5.381700">
        <ele>135.338633</ele>
        <time>2020-08-14T07:54:10.273Z</time>
      </trkpt>
      <trkpt lat="37.407489" lon="-5.381793">
        <ele>135.418246</ele>
        <time>2020-08-14T07:54:12.275Z</time>
      </trkpt>
      <trkpt lat="37.407387" lon="-5.381898">
        <ele>135.505986</ele>
        <time>2020-08-14T07:54:14.246Z</time>
      </trkpt>
      <trkpt lat="37.407311" lon="-5.381981">
        <ele>135.572984</ele>
        <time>2020-08-14T07:54:15.257Z</time>
      </trkpt>
      <trkpt lat="37.407217" lon="-5.382074">
        <ele>135.652597</ele>
        <time>2020-08-14T07:54:17.247Z</time>
      </trkpt>
      <trkpt lat="37.407134" lon="-5.382152">
        <ele>135.721569</ele>
        <time>2020-08-14T07:54:19.251Z</time>
      </trkpt>
      <trkpt lat="37.406908" lon="-5.382305">
        <ele>136.203043</ele>
        <time>2020-08-14T07:54:24.275Z</time>
      </trkpt>
      <trkpt lat="37.406799" lon="-5.382386">
        <ele>136.516819</ele>
        <time>2020-08-14T07:54:26.281Z</time>
      </trkpt>
      <trkpt lat="37.406707" lon="-5.382436">
        <ele>136.765233</ele>
        <time>2020-08-14T07:54:28.248Z</time>
      </trkpt>
      <trkpt lat="37.406590" lon="-5.382512">
        <ele>137.091610</ele>
        <time>2020-08-14T07:54:30.256Z</time>
      </trkpt>
      <trkpt lat="37.406493" lon="-5.382600">
        <ele>137.388008</ele>
        <time>2020-08-14T07:54:32.270Z</time>
      </trkpt>
      <trkpt lat="37.406406" lon="-5.382653">
        <ele>137.627606</ele>
        <time>2020-08-14T07:54:34.272Z</time>
      </trkpt>
      <trkpt lat="37.406320" lon="-5.382714">
        <ele>137.872311</ele>
        <time>2020-08-14T07:54:36.272Z</time>
      </trkpt>
      <trkpt lat="37.406236" lon="-5.382797">
        <ele>138.137030</ele>
        <time>2020-08-14T07:54:38.264Z</time>
      </trkpt>
      <trkpt lat="37.406151" lon="-5.382845">
        <ele>138.367974</ele>
        <time>2020-08-14T07:54:40.253Z</time>
      </trkpt>
      <trkpt lat="37.406061" lon="-5.382886">
        <ele>138.605243</ele>
        <time>2020-08-14T07:54:43.274Z</time>
      </trkpt>
      <trkpt lat="37.405966" lon="-5.382929">
        <ele>138.855508</ele>
        <time>2020-08-14T07:54:45.264Z</time>
      </trkpt>
      <trkpt lat="37.405832" lon="-5.383023">
        <ele>139.235786</ele>
        <time>2020-08-14T07:54:47.271Z</time>
      </trkpt>
      <trkpt lat="37.405710" lon="-5.383080">
        <ele>139.558381</ele>
        <time>2020-08-14T07:54:50.262Z</time>
      </trkpt>
      <trkpt lat="37.405617" lon="-5.383100">
        <ele>139.792268</ele>
        <time>2020-08-14T07:54:52.267Z</time>
      </trkpt>
      <trkpt lat="37.405531" lon="-5.383149">
        <ele>140.026281</ele>
        <time>2020-08-14T07:54:55.268Z</time>
      </trkpt>
      <trkpt lat="37.405423" lon="-5.383215">
        <ele>140.621684</ele>
        <time>2020-08-14T07:54:58.260Z</time>
      </trkpt>
      <trkpt lat="37.405340" lon="-5.383271">
        <ele>141.657111</ele>
        <time>2020-08-14T07:54:59.273Z</time>
      </trkpt>
      <trkpt lat="37.405252" lon="-5.383315">
        <ele>142.698231</ele>
        <time>2020-08-14T07:55:00.268Z</time>
      </trkpt>
      <trkpt lat="37.405120" lon="-5.383351">
        <ele>144.183291</ele>
        <time>2020-08-14T07:55:03.266Z</time>
      </trkpt>
      <trkpt lat="37.405012" lon="-5.383385">
        <ele>145.407362</ele>
        <time>2020-08-14T07:55:06.271Z</time>
      </trkpt>
      <trkpt lat="37.404923" lon="-5.383407">
        <ele>146.404638</ele>
        <time>2020-08-14T07:55:08.281Z</time>
      </trkpt>
      <trkpt lat="37.404725" lon="-5.383478">
        <ele>148.668325</ele>
        <time>2020-08-14T07:55:11.272Z</time>
      </trkpt>
      <trkpt lat="37.404631" lon="-5.383509">
        <ele>149.736769</ele>
        <time>2020-08-14T07:55:13.247Z</time>
      </trkpt>
      <trkpt lat="37.404529" lon="-5.383544">
        <ele>150.899216</ele>
        <time>2020-08-14T07:55:15.250Z</time>
      </trkpt>
      <trkpt lat="37.404441" lon="-5.383579">
        <ele>151.913953</ele>
        <time>2020-08-14T07:55:18.269Z</time>
      </trkpt>
      <trkpt lat="37.404340" lon="-5.383614">
        <ele>153.065795</ele>
        <time>2020-08-14T07:55:20.276Z</time>
      </trkpt>
      <trkpt lat="37.404240" lon="-5.383643">
        <ele>154.194132</ele>
        <time>2020-08-14T07:55:22.265Z</time>
      </trkpt>
      <trkpt lat="37.404138" lon="-5.383661">
        <ele>155.326628</ele>
        <time>2020-08-14T07:55:24.271Z</time>
      </trkpt>
      <trkpt lat="37.404042" lon="-5.383678">
        <ele>156.392578</ele>
        <time>2020-08-14T07:55:26.269Z</time>
      </trkpt>
      <trkpt lat="37.403931" lon="-5.383726">
        <ele>157.683067</ele>
        <time>2020-08-14T07:55:28.260Z</time>
      </trkpt>
      <trkpt lat="37.403848" lon="-5.383786">
        <ele>158.735453</ele>
        <time>2020-08-14T07:55:30.260Z</time>
      </trkpt>
      <trkpt lat="37.403754" lon="-5.383832">
        <ele>159.844367</ele>
        <time>2020-08-14T07:55:32.266Z</time>
      </trkpt>
      <trkpt lat="37.403663" lon="-5.383870">
        <ele>160.147218</ele>
        <time>2020-08-14T07:55:34.261Z</time>
      </trkpt>
      <trkpt lat="37.403404" lon="-5.383971">
        <ele>160.596257</ele>
        <time>2020-08-14T07:55:38.319Z</time>
      </trkpt>
      <trkpt lat="37.403293" lon="-5.384055">
        <ele>160.810743</ele>
        <time>2020-08-14T07:55:42.244Z</time>
      </trkpt>
      <trkpt lat="37.403193" lon="-5.384102">
        <ele>160.987519</ele>
        <time>2020-08-14T07:55:44.249Z</time>
      </trkpt>
      <trkpt lat="37.403068" lon="-5.384098">
        <ele>161.194598</ele>
        <time>2020-08-14T07:55:46.253Z</time>
      </trkpt>
      <trkpt lat="37.402940" lon="-5.384163">
        <ele>161.423177</ele>
        <time>2020-08-14T07:55:50.269Z</time>
      </trkpt>
      <trkpt lat="37.402800" lon="-5.384242">
        <ele>161.677259</ele>
        <time>2020-08-14T07:55:52.277Z</time>
      </trkpt>
      <trkpt lat="37.402698" lon="-5.384277">
        <ele>161.852345</ele>
        <time>2020-08-14T07:55:54.257Z</time>
      </trkpt>
      <trkpt lat="37.402577" lon="-5.384310">
        <ele>162.057382</ele>
        <time>2020-08-14T07:55:56.264Z</time>
      </trkpt>
      <trkpt lat="37.402465" lon="-5.384344">
        <ele>162.248182</ele>
        <time>2020-08-14T07:55:58.283Z</time>
      </trkpt>
      <trkpt lat="37.402375" lon="-5.384397">
        <ele>162.412734</ele>
        <time>2020-08-14T07:56:00.282Z</time>
      </trkpt>
      <trkpt lat="37.402273" lon="-5.384422">
        <ele>162.584828</ele>
        <time>2020-08-14T07:56:02.262Z</time>
      </trkpt>
      <trkpt lat="37.402179" lon="-5.384456">
        <ele>162.746800</ele>
        <time>2020-08-14T07:56:04.267Z</time>
      </trkpt>
      <trkpt lat="37.402088" lon="-5.384515">
        <ele>162.916320</ele>
        <time>2020-08-14T07:56:06.290Z</time>
      </trkpt>
      <trkpt lat="37.401897" lon="-5.384592">
        <ele>161.596823</ele>
        <time>2020-08-14T07:56:10.286Z</time>
      </trkpt>
      <trkpt lat="37.401807" lon="-5.384613">
        <ele>160.769427</ele>
        <time>2020-08-14T07:56:12.277Z</time>
      </trkpt>
      <trkpt lat="37.401698" lon="-5.384633">
        <ele>159.773730</ele>
        <time>2020-08-14T07:56:13.245Z</time>
      </trkpt>
      <trkpt lat="37.401604" lon="-5.384686">
        <ele>158.842696</ele>
        <time>2020-08-14T07:56:15.230Z</time>
      </trkpt>
      <trkpt lat="37.401491" lon="-5.384707">
        <ele>157.810182</ele>
        <time>2020-08-14T07:56:17.248Z</time>
      </trkpt>
      <trkpt lat="37.401286" lon="-5.384752">
        <ele>155.929160</ele>
        <time>2020-08-14T07:56:21.258Z</time>
      </trkpt>
      <trkpt lat="37.401188" lon="-5.384811">
        <ele>154.947207</ele>
        <time>2020-08-14T07:56:23.249Z</time>
      </trkpt>
      <trkpt lat="37.401099" lon="-5.384857">
        <ele>154.077535</ele>
        <time>2020-08-14T07:56:25.280Z</time>
      </trkpt>
      <trkpt lat="37.400814" lon="-5.384953">
        <ele>151.410692</ele>
        <time>2020-08-14T07:56:30.268Z</time>
      </trkpt>
      <trkpt lat="37.400701" lon="-5.384997">
        <ele>150.341499</ele>
        <time>2020-08-14T07:56:33.250Z</time>
      </trkpt>
      <trkpt lat="37.400610" lon="-5.385038">
        <ele>149.467819</ele>
        <time>2020-08-14T07:56:35.249Z</time>
      </trkpt>
      <trkpt lat="37.400513" lon="-5.385086">
        <ele>148.525690</ele>
        <time>2020-08-14T07:56:37.273Z</time>
      </trkpt>
      <trkpt lat="37.400397" lon="-5.385122">
        <ele>147.445732</ele>
        <time>2020-08-14T07:56:39.262Z</time>
      </trkpt>
      <trkpt lat="37.400300" lon="-5.385162">
        <ele>146.658984</ele>
        <time>2020-08-14T07:56:41.267Z</time>
      </trkpt>
      <trkpt lat="37.400194" lon="-5.385190">
        <ele>146.310148</ele>
        <time>2020-08-14T07:56:43.253Z</time>
      </trkpt>
      <trkpt lat="37.400105" lon="-5.385229">
        <ele>146.006628</ele>
        <time>2020-08-14T07:56:45.245Z</time>
      </trkpt>
      <trkpt lat="37.400005" lon="-5.385266">
        <ele>145.670927</ele>
        <time>2020-08-14T07:56:47.253Z</time>
      </trkpt>
      <trkpt lat="37.399918" lon="-5.385324">
        <ele>145.353850</ele>
        <time>2020-08-14T07:56:49.267Z</time>
      </trkpt>
      <trkpt lat="37.399824" lon="-5.385369">
        <ele>145.029943</ele>
        <time>2020-08-14T07:56:51.253Z</time>
      </trkpt>
      <trkpt lat="37.399737" lon="-5.385418">
        <ele>144.722968</ele>
        <time>2020-08-14T07:56:53.250Z</time>
      </trkpt>
      <trkpt lat="37.399635" lon="-5.385458">
        <ele>144.378877</ele>
        <time>2020-08-14T07:56:55.265Z</time>
      </trkpt>
      <trkpt lat="37.399547" lon="-5.385492">
        <ele>144.082400</ele>
        <time>2020-08-14T07:56:57.276Z</time>
      </trkpt>
      <trkpt lat="37.399437" lon="-5.385528">
        <ele>143.716338</ele>
        <time>2020-08-14T07:56:59.268Z</time>
      </trkpt>
      <trkpt lat="37.399339" lon="-5.385566">
        <ele>143.386068</ele>
        <time>2020-08-14T07:57:01.269Z</time>
      </trkpt>
      <trkpt lat="37.399249" lon="-5.385609">
        <ele>143.076022</ele>
        <time>2020-08-14T07:57:03.251Z</time>
      </trkpt>
      <trkpt lat="37.399117" lon="-5.385650">
        <ele>142.638130</ele>
        <time>2020-08-14T07:57:06.281Z</time>
      </trkpt>
      <trkpt lat="37.399005" lon="-5.385704">
        <ele>142.251849</ele>
        <time>2020-08-14T07:57:09.290Z</time>
      </trkpt>
      <trkpt lat="37.398886" lon="-5.385789">
        <ele>141.811172</ele>
        <time>2020-08-14T07:57:11.266Z</time>
      </trkpt>
      <trkpt lat="37.398794" lon="-5.385818">
        <ele>141.505713</ele>
        <time>2020-08-14T07:57:13.250Z</time>
      </trkpt>
      <trkpt lat="37.398683" lon="-5.385847">
        <ele>141.140589</ele>
        <time>2020-08-14T07:57:15.278Z</time>
      </trkpt>
      <trkpt lat="37.398575" lon="-5.385899">
        <ele>141.025284</ele>
        <time>2020-08-14T07:57:20.262Z</time>
      </trkpt>
      <trkpt lat="37.398443" lon="-5.385956">
        <ele>141.243629</ele>
        <time>2020-08-14T07:57:23.242Z</time>
      </trkpt>
      <trkpt lat="37.398327" lon="-5.385987">
        <ele>141.429171</ele>
        <time>2020-08-14T07:57:25.275Z</time>
      </trkpt>
      <trkpt lat="37.398151" lon="-5.386036">
        <ele>141.711200</ele>
        <time>2020-08-14T07:57:27.271Z</time>
      </trkpt>
      <trkpt lat="37.398010" lon="-5.386067">
        <ele>141.935153</ele>
        <time>2020-08-14T07:57:30.262Z</time>
      </trkpt>
      <trkpt lat="37.397916" lon="-5.386100">
        <ele>142.087840</ele>
        <time>2020-08-14T07:57:32.252Z</time>
      </trkpt>
      <trkpt lat="37.397809" lon="-5.386125">
        <ele>142.258115</ele>
        <time>2020-08-14T07:57:34.263Z</time>
      </trkpt>
      <trkpt lat="37.397706" lon="-5.386163">
        <ele>142.426051</ele>
        <time>2020-08-14T07:57:37.263Z</time>
      </trkpt>
      <trkpt lat="37.397597" lon="-5.386193">
        <ele>142.600625</ele>
        <time>2020-08-14T07:57:39.275Z</time>
      </trkpt>
      <trkpt lat="37.397500" lon="-5.386244">
        <ele>142.765101</ele>
        <time>2020-08-14T07:57:41.259Z</time>
      </trkpt>
      <trkpt lat="37.397394" lon="-5.386339">
        <ele>142.968695</ele>
        <time>2020-08-14T07:57:43.263Z</time>
      </trkpt>
      <trkpt lat="37.397248" lon="-5.386377">
        <ele>143.201963</ele>
        <time>2020-08-14T07:57:45.267Z</time>
      </trkpt>
      <trkpt lat="37.397147" lon="-5.386381">
        <ele>143.360068</ele>
        <time>2020-08-14T07:57:48.269Z</time>
      </trkpt>
      <trkpt lat="37.397045" lon="-5.386408">
        <ele>143.523151</ele>
        <time>2020-08-14T07:57:52.266Z</time>
      </trkpt>
      <trkpt lat="37.396960" lon="-5.386453">
        <ele>143.667428</ele>
        <time>2020-08-14T07:57:53.271Z</time>
      </trkpt>
      <trkpt lat="37.396862" lon="-5.386497">
        <ele>143.724881</ele>
        <time>2020-08-14T07:57:55.272Z</time>
      </trkpt>
      <trkpt lat="37.396755" lon="-5.386529">
        <ele>143.654620</ele>
        <time>2020-08-14T07:57:57.247Z</time>
      </trkpt>
      <trkpt lat="37.396617" lon="-5.386589">
        <ele>143.561348</ele>
        <time>2020-08-14T07:57:59.272Z</time>
      </trkpt>
      <trkpt lat="37.396514" lon="-5.386628">
        <ele>143.492633</ele>
        <time>2020-08-14T07:58:01.255Z</time>
      </trkpt>
      <trkpt lat="37.396401" lon="-5.386671">
        <ele>143.417216</ele>
        <time>2020-08-14T07:58:03.263Z</time>
      </trkpt>
      <trkpt lat="37.396297" lon="-5.386706">
        <ele>143.348441</ele>
        <time>2020-08-14T07:58:05.272Z</time>
      </trkpt>
      <trkpt lat="37.396161" lon="-5.386779">
        <ele>143.253987</ele>
        <time>2020-08-14T07:58:08.263Z</time>
      </trkpt>
      <trkpt lat="37.396079" lon="-5.386725">
        <ele>143.194865</ele>
        <time>2020-08-14T07:58:11.255Z</time>
      </trkpt>
      <trkpt lat="37.395947" lon="-5.386780">
        <ele>143.106036</ele>
        <time>2020-08-14T07:58:14.247Z</time>
      </trkpt>
      <trkpt lat="37.395856" lon="-5.386828">
        <ele>143.043003</ele>
        <time>2020-08-14T07:58:15.277Z</time>
      </trkpt>
      <trkpt lat="37.395724" lon="-5.386878">
        <ele>142.954938</ele>
        <time>2020-08-14T07:58:17.242Z</time>
      </trkpt>
      <trkpt lat="37.395588" lon="-5.386925">
        <ele>142.864839</ele>
        <time>2020-08-14T07:58:20.261Z</time>
      </trkpt>
      <trkpt lat="37.395446" lon="-5.386961">
        <ele>142.772300</ele>
        <time>2020-08-14T07:58:24.278Z</time>
      </trkpt>
      <trkpt lat="37.395327" lon="-5.386988">
        <ele>142.695051</ele>
        <time>2020-08-14T07:58:26.281Z</time>
      </trkpt>
      <trkpt lat="37.395210" lon="-5.387043">
        <ele>142.615263</ele>
        <time>2020-08-14T07:58:28.251Z</time>
      </trkpt>
      <trkpt lat="37.395168" lon="-5.387170">
        <ele>143.365159</ele>
        <time>2020-08-14T07:58:30.258Z</time>
      </trkpt>
      <trkpt lat="37.395061" lon="-5.387159">
        <ele>144.219564</ele>
        <time>2020-08-14T07:58:33.264Z</time>
      </trkpt>
      <trkpt lat="37.394975" lon="-5.387201">
        <ele>144.953715</ele>
        <time>2020-08-14T07:58:39.263Z</time>
      </trkpt>
      <trkpt lat="37.394680" lon="-5.387294">
        <ele>147.374018</ele>
        <time>2020-08-14T07:58:41.272Z</time>
      </trkpt>
      <trkpt lat="37.394591" lon="-5.387340">
        <ele>148.139724</ele>
        <time>2020-08-14T07:58:43.253Z</time>
      </trkpt>
      <trkpt lat="37.394509" lon="-5.387394">
        <ele>148.876250</ele>
        <time>2020-08-14T07:58:45.252Z</time>
      </trkpt>
      <trkpt lat="37.394418" lon="-5.387429">
        <ele>149.633539</ele>
        <time>2020-08-14T07:58:49.281Z</time>
      </trkpt>
      <trkpt lat="37.394243" lon="-5.387515">
        <ele>151.128680</ele>
        <time>2020-08-14T07:58:52.276Z</time>
      </trkpt>
      <trkpt lat="37.394118" lon="-5.387554">
        <ele>152.153611</ele>
        <time>2020-08-14T07:58:54.260Z</time>
      </trkpt>
      <trkpt lat="37.393997" lon="-5.387585">
        <ele>153.136346</ele>
        <time>2020-08-14T07:58:57.260Z</time>
      </trkpt>
      <trkpt lat="37.393866" lon="-5.387622">
        <ele>154.204848</ele>
        <time>2020-08-14T07:59:01.270Z</time>
      </trkpt>
      <trkpt lat="37.393754" lon="-5.387698">
        <ele>155.217493</ele>
        <time>2020-08-14T07:59:03.285Z</time>
      </trkpt>
      <trkpt lat="37.393639" lon="-5.387714">
        <ele>156.138305</ele>
        <time>2020-08-14T07:59:06.254Z</time>
      </trkpt>
      <trkpt lat="37.393521" lon="-5.387741">
        <ele>156.672716</ele>
        <time>2020-08-14T07:59:08.255Z</time>
      </trkpt>
      <trkpt lat="37.393375" lon="-5.387797">
        <ele>154.916957</ele>
        <time>2020-08-14T07:59:11.270Z</time>
      </trkpt>
      <trkpt lat="37.393275" lon="-5.387836">
        <ele>153.712655</ele>
        <time>2020-08-14T07:59:13.270Z</time>
      </trkpt>
      <trkpt lat="37.393155" lon="-5.387870">
        <ele>152.297696</ele>
        <time>2020-08-14T07:59:16.261Z</time>
      </trkpt>
      <trkpt lat="37.393032" lon="-5.387896">
        <ele>150.862953</ele>
        <time>2020-08-14T07:59:19.267Z</time>
      </trkpt>
      <trkpt lat="37.392936" lon="-5.387941">
        <ele>149.684523</ele>
        <time>2020-08-14T07:59:21.263Z</time>
      </trkpt>
      <trkpt lat="37.392846" lon="-5.388042">
        <ele>148.297459</ele>
        <time>2020-08-14T07:59:23.281Z</time>
      </trkpt>
      <trkpt lat="37.392699" lon="-5.388048">
        <ele>146.605559</ele>
        <time>2020-08-14T07:59:26.267Z</time>
      </trkpt>
      <trkpt lat="37.392595" lon="-5.388093">
        <ele>145.340479</ele>
        <time>2020-08-14T07:59:28.260Z</time>
      </trkpt>
      <trkpt lat="37.392500" lon="-5.388120">
        <ele>144.220135</ele>
        <time>2020-08-14T07:59:30.254Z</time>
      </trkpt>
      <trkpt lat="37.392435" lon="-5.388205">
        <ele>143.141898</ele>
        <time>2020-08-14T07:59:32.263Z</time>
      </trkpt>
      <trkpt lat="37.392330" lon="-5.388217">
        <ele>141.929065</ele>
        <time>2020-08-14T07:59:34.267Z</time>
      </trkpt>
      <trkpt lat="37.392236" lon="-5.388243">
        <ele>140.821936</ele>
        <time>2020-08-14T07:59:36.258Z</time>
      </trkpt>
      <trkpt lat="37.392126" lon="-5.388259">
        <ele>139.548132</ele>
        <time>2020-08-14T07:59:39.273Z</time>
      </trkpt>
      <trkpt lat="37.392039" lon="-5.388287">
        <ele>138.515130</ele>
        <time>2020-08-14T07:59:41.269Z</time>
      </trkpt>
      <trkpt lat="37.391919" lon="-5.388347">
        <ele>137.029781</ele>
        <time>2020-08-14T07:59:43.263Z</time>
      </trkpt>
      <trkpt lat="37.391819" lon="-5.388390">
        <ele>136.629774</ele>
        <time>2020-08-14T07:59:45.247Z</time>
      </trkpt>
      <trkpt lat="37.391709" lon="-5.388456">
        <ele>137.974933</ele>
        <time>2020-08-14T07:59:48.250Z</time>
      </trkpt>
      <trkpt lat="37.391621" lon="-5.388484">
        <ele>138.976892</ele>
        <time>2020-08-14T07:59:51.254Z</time>
      </trkpt>
      <trkpt lat="37.391509" lon="-5.388509">
        <ele>140.232512</ele>
        <time>2020-08-14T07:59:54.267Z</time>
      </trkpt>
      <trkpt lat="37.391414" lon="-5.388545">
        <ele>141.327681</ele>
        <time>2020-08-14T07:59:56.268Z</time>
      </trkpt>
      <trkpt lat="37.391319" lon="-5.388590">
        <ele>142.448158</ele>
        <time>2020-08-14T07:59:58.272Z</time>
      </trkpt>
      <trkpt lat="37.391226" lon="-5.388633">
        <ele>143.541829</ele>
        <time>2020-08-14T08:00:00.264Z</time>
      </trkpt>
      <trkpt lat="37.391130" lon="-5.388686">
        <ele>144.699001</ele>
        <time>2020-08-14T08:00:04.277Z</time>
      </trkpt>
      <trkpt lat="37.391046" lon="-5.388732">
        <ele>145.710210</ele>
        <time>2020-08-14T08:00:06.268Z</time>
      </trkpt>
      <trkpt lat="37.390944" lon="-5.388794">
        <ele>146.960578</ele>
        <time>2020-08-14T08:00:08.269Z</time>
      </trkpt>
      <trkpt lat="37.390843" lon="-5.388863">
        <ele>148.229127</ele>
        <time>2020-08-14T08:00:11.273Z</time>
      </trkpt>
      <trkpt lat="37.390739" lon="-5.388935">
        <ele>149.539354</ele>
        <time>2020-08-14T08:00:13.275Z</time>
      </trkpt>
      <trkpt lat="37.390647" lon="-5.388996">
        <ele>150.687208</ele>
        <time>2020-08-14T08:00:15.252Z</time>
      </trkpt>
      <trkpt lat="37.390544" lon="-5.389061">
        <ele>151.959099</ele>
        <time>2020-08-14T08:00:18.261Z</time>
      </trkpt>
      <trkpt lat="37.390437" lon="-5.389129">
        <ele>153.282260</ele>
        <time>2020-08-14T08:00:22.271Z</time>
      </trkpt>
      <trkpt lat="37.390293" lon="-5.389221">
        <ele>155.064888</ele>
        <time>2020-08-14T08:00:25.273Z</time>
      </trkpt>
      <trkpt lat="37.390213" lon="-5.389284">
        <ele>156.063538</ele>
        <time>2020-08-14T08:00:27.260Z</time>
      </trkpt>
      <trkpt lat="37.390149" lon="-5.389373">
        <ele>155.021601</ele>
        <time>2020-08-14T08:00:29.245Z</time>
      </trkpt>
      <trkpt lat="37.390049" lon="-5.389433">
        <ele>153.811342</ele>
        <time>2020-08-14T08:00:32.269Z</time>
      </trkpt>
      <trkpt lat="37.389964" lon="-5.389482">
        <ele>152.789972</ele>
        <time>2020-08-14T08:00:35.275Z</time>
      </trkpt>
      <trkpt lat="37.389834" lon="-5.389558">
        <ele>151.224027</ele>
        <time>2020-08-14T08:00:37.271Z</time>
      </trkpt>
      <trkpt lat="37.389737" lon="-5.389604">
        <ele>150.091602</ele>
        <time>2020-08-14T08:00:39.254Z</time>
      </trkpt>
      <trkpt lat="37.389631" lon="-5.389693">
        <ele>148.699554</ele>
        <time>2020-08-14T08:00:42.271Z</time>
      </trkpt>
      <trkpt lat="37.389502" lon="-5.389761">
        <ele>147.171653</ele>
        <time>2020-08-14T08:00:45.238Z</time>
      </trkpt>
      <trkpt lat="37.389430" lon="-5.389832">
        <ele>146.172398</ele>
        <time>2020-08-14T08:00:47.266Z</time>
      </trkpt>
      <trkpt lat="37.389351" lon="-5.389896">
        <ele>145.146013</ele>
        <time>2020-08-14T08:00:50.271Z</time>
      </trkpt>
      <trkpt lat="37.389256" lon="-5.389963">
        <ele>143.956331</ele>
        <time>2020-08-14T08:00:53.279Z</time>
      </trkpt>
      <trkpt lat="37.389157" lon="-5.390048">
        <ele>142.647094</ele>
        <time>2020-08-14T08:00:56.251Z</time>
      </trkpt>
      <trkpt lat="37.389057" lon="-5.390120">
        <ele>141.388493</ele>
        <time>2020-08-14T08:00:58.275Z</time>
      </trkpt>
      <trkpt lat="37.388972" lon="-5.390226">
        <ele>140.081260</ele>
        <time>2020-08-14T08:01:00.273Z</time>
      </trkpt>
      <trkpt lat="37.388835" lon="-5.390282">
        <ele>138.507616</ele>
        <time>2020-08-14T08:01:02.251Z</time>
      </trkpt>
      <trkpt lat="37.388726" lon="-5.390335">
        <ele>137.231044</ele>
        <time>2020-08-14T08:01:04.274Z</time>
      </trkpt>
      <trkpt lat="37.388646" lon="-5.390388">
        <ele>136.418008</ele>
        <time>2020-08-14T08:01:07.262Z</time>
      </trkpt>
      <trkpt lat="37.388539" lon="-5.390458">
        <ele>136.299631</ele>
        <time>2020-08-14T08:01:10.277Z</time>
      </trkpt>
      <trkpt lat="37.388428" lon="-5.390522">
        <ele>136.179780</ele>
        <time>2020-08-14T08:01:12.259Z</time>
      </trkpt>
      <trkpt lat="37.388349" lon="-5.390607">
        <ele>136.077756</ele>
        <time>2020-08-14T08:01:14.251Z</time>
      </trkpt>
      <trkpt lat="37.388241" lon="-5.390667">
        <ele>135.961870</ele>
        <time>2020-08-14T08:01:16.268Z</time>
      </trkpt>
      <trkpt lat="37.388100" lon="-5.390741">
        <ele>135.811908</ele>
        <time>2020-08-14T08:01:22.304Z</time>
      </trkpt>
      <trkpt lat="37.387977" lon="-5.390832">
        <ele>135.671851</ele>
        <time>2020-08-14T08:01:24.266Z</time>
      </trkpt>
      <trkpt lat="37.387869" lon="-5.390932">
        <ele>135.540235</ele>
        <time>2020-08-14T08:01:26.262Z</time>
      </trkpt>
      <trkpt lat="37.387772" lon="-5.391021">
        <ele>135.422400</ele>
        <time>2020-08-14T08:01:28.268Z</time>
      </trkpt>
      <trkpt lat="37.387666" lon="-5.391159">
        <ele>135.272694</ele>
        <time>2020-08-14T08:01:30.270Z</time>
      </trkpt>
      <trkpt lat="37.387543" lon="-5.391215">
        <ele>135.144295</ele>
        <time>2020-08-14T08:01:32.245Z</time>
      </trkpt>
      <trkpt lat="37.387438" lon="-5.391282">
        <ele>135.028733</ele>
        <time>2020-08-14T08:01:34.265Z</time>
      </trkpt>
      <trkpt lat="37.387361" lon="-5.391353">
        <ele>134.935032</ele>
        <time>2020-08-14T08:01:36.267Z</time>
      </trkpt>
      <trkpt lat="37.387269" lon="-5.391412">
        <ele>134.833674</ele>
        <time>2020-08-14T08:01:38.248Z</time>
      </trkpt>
      <trkpt lat="37.387180" lon="-5.391467">
        <ele>134.736345</ele>
        <time>2020-08-14T08:01:41.266Z</time>
      </trkpt>
      <trkpt lat="37.387003" lon="-5.391679">
        <ele>135.007342</ele>
        <time>2020-08-14T08:01:44.270Z</time>
      </trkpt>
      <trkpt lat="37.386919" lon="-5.391723">
        <ele>135.181540</ele>
        <time>2020-08-14T08:01:45.269Z</time>
      </trkpt>
      <trkpt lat="37.386826" lon="-5.391715">
        <ele>135.360012</ele>
        <time>2020-08-14T08:01:48.229Z</time>
      </trkpt>
      <trkpt lat="37.386734" lon="-5.391780">
        <ele>135.562010</ele>
        <time>2020-08-14T08:01:50.251Z</time>
      </trkpt>
      <trkpt lat="37.386636" lon="-5.391840">
        <ele>135.770662</ele>
        <time>2020-08-14T08:01:52.256Z</time>
      </trkpt>
      <trkpt lat="37.386524" lon="-5.391906">
        <ele>136.007437</ele>
        <time>2020-08-14T08:01:54.265Z</time>
      </trkpt>
      <trkpt lat="37.386440" lon="-5.391971">
        <ele>136.196229</ele>
        <time>2020-08-14T08:01:56.263Z</time>
      </trkpt>
      <trkpt lat="37.386333" lon="-5.392050">
        <ele>136.433739</ele>
        <time>2020-08-14T08:01:58.245Z</time>
      </trkpt>
      <trkpt lat="37.386217" lon="-5.392145">
        <ele>136.698711</ele>
        <time>2020-08-14T08:02:01.258Z</time>
      </trkpt>
      <trkpt lat="37.386122" lon="-5.392200">
        <ele>136.898919</ele>
        <time>2020-08-14T08:02:03.274Z</time>
      </trkpt>
      <trkpt lat="37.386028" lon="-5.392267">
        <ele>137.105747</ele>
        <time>2020-08-14T08:02:05.254Z</time>
      </trkpt>
      <trkpt lat="37.385934" lon="-5.392330">
        <ele>137.309646</ele>
        <time>2020-08-14T08:02:07.266Z</time>
      </trkpt>
      <trkpt lat="37.385845" lon="-5.392374">
        <ele>137.492720</ele>
        <time>2020-08-14T08:02:09.248Z</time>
      </trkpt>
      <trkpt lat="37.385742" lon="-5.392440">
        <ele>137.714010</ele>
        <time>2020-08-14T08:02:11.277Z</time>
      </trkpt>
      <trkpt lat="37.385650" lon="-5.392502">
        <ele>137.913815</ele>
        <time>2020-08-14T08:02:13.261Z</time>
      </trkpt>
      <trkpt lat="37.385572" lon="-5.392562">
        <ele>138.088838</ele>
        <time>2020-08-14T08:02:16.254Z</time>
      </trkpt>
      <trkpt lat="37.385445" lon="-5.392668">
        <ele>138.154017</ele>
        <time>2020-08-14T08:02:19.278Z</time>
      </trkpt>
      <trkpt lat="37.385324" lon="-5.392771">
        <ele>138.196626</ele>
        <time>2020-08-14T08:02:21.251Z</time>
      </trkpt>
      <trkpt lat="37.385245" lon="-5.392830">
        <ele>138.223421</ele>
        <time>2020-08-14T08:02:23.246Z</time>
      </trkpt>
      <trkpt lat="37.385161" lon="-5.392901">
        <ele>138.252935</ele>
        <time>2020-08-14T08:02:25.266Z</time>
      </trkpt>
      <trkpt lat="37.385049" lon="-5.393023">
        <ele>138.296141</ele>
        <time>2020-08-14T08:02:31.254Z</time>
      </trkpt>
      <trkpt lat="37.384936" lon="-5.393067">
        <ele>138.330643</ele>
        <time>2020-08-14T08:02:33.234Z</time>
      </trkpt>
      <trkpt lat="37.384816" lon="-5.393111">
        <ele>138.367101</ele>
        <time>2020-08-14T08:02:35.246Z</time>
      </trkpt>
      <trkpt lat="37.384683" lon="-5.393204">
        <ele>138.411480</ele>
        <time>2020-08-14T08:02:37.268Z</time>
      </trkpt>
      <trkpt lat="37.384594" lon="-5.393260">
        <ele>138.440504</ele>
        <time>2020-08-14T08:02:38.252Z</time>
      </trkpt>
      <trkpt lat="37.384505" lon="-5.393354">
        <ele>138.474394</ele>
        <time>2020-08-14T08:02:41.267Z</time>
      </trkpt>
      <trkpt lat="37.384430" lon="-5.393426">
        <ele>138.501909</ele>
        <time>2020-08-14T08:02:43.263Z</time>
      </trkpt>
      <trkpt lat="37.384346" lon="-5.393504">
        <ele>138.532358</ele>
        <time>2020-08-14T08:02:45.262Z</time>
      </trkpt>
      <trkpt lat="37.384218" lon="-5.393593">
        <ele>138.575013</ele>
        <time>2020-08-14T08:02:47.259Z</time>
      </trkpt>
      <trkpt lat="37.384118" lon="-5.393666">
        <ele>138.608733</ele>
        <time>2020-08-14T08:02:49.254Z</time>
      </trkpt>
      <trkpt lat="37.384031" lon="-5.393739">
        <ele>138.637787</ele>
        <time>2020-08-14T08:02:51.256Z</time>
      </trkpt>
      <trkpt lat="37.383975" lon="-5.393833">
        <ele>138.634790</ele>
        <time>2020-08-14T08:02:54.270Z</time>
      </trkpt>
      <trkpt lat="37.383889" lon="-5.393913">
        <ele>138.631357</ele>
        <time>2020-08-14T08:02:57.273Z</time>
      </trkpt>
      <trkpt lat="37.383765" lon="-5.394010">
        <ele>138.626671</ele>
        <time>2020-08-14T08:02:59.255Z</time>
      </trkpt>
      <trkpt lat="37.383664" lon="-5.394100">
        <ele>138.622698</ele>
        <time>2020-08-14T08:03:01.248Z</time>
      </trkpt>
      <trkpt lat="37.383561" lon="-5.394177">
        <ele>138.618852</ele>
        <time>2020-08-14T08:03:03.243Z</time>
      </trkpt>
      <trkpt lat="37.383473" lon="-5.394257">
        <ele>138.615367</ele>
        <time>2020-08-14T08:03:05.248Z</time>
      </trkpt>
      <trkpt lat="37.383360" lon="-5.394347">
        <ele>138.611075</ele>
        <time>2020-08-14T08:03:10.271Z</time>
      </trkpt>
      <trkpt lat="37.383266" lon="-5.394398">
        <ele>138.607789</ele>
        <time>2020-08-14T08:03:11.285Z</time>
      </trkpt>
      <trkpt lat="37.383167" lon="-5.394435">
        <ele>138.604474</ele>
        <time>2020-08-14T08:03:12.259Z</time>
      </trkpt>
      <trkpt lat="37.383094" lon="-5.394526">
        <ele>138.601175</ele>
        <time>2020-08-14T08:03:14.228Z</time>
      </trkpt>
      <trkpt lat="37.382989" lon="-5.394620">
        <ele>138.597039</ele>
        <time>2020-08-14T08:03:17.250Z</time>
      </trkpt>
      <trkpt lat="37.382899" lon="-5.394712">
        <ele>138.593317</ele>
        <time>2020-08-14T08:03:19.271Z</time>
      </trkpt>
      <trkpt lat="37.382788" lon="-5.394812">
        <ele>138.588935</ele>
        <time>2020-08-14T08:03:21.268Z</time>
      </trkpt>
      <trkpt lat="37.382696" lon="-5.394866">
        <ele>138.585676</ele>
        <time>2020-08-14T08:03:23.236Z</time>
      </trkpt>
      <trkpt lat="37.382590" lon="-5.394947">
        <ele>138.581695</ele>
        <time>2020-08-14T08:03:26.296Z</time>
      </trkpt>
      <trkpt lat="37.382521" lon="-5.395026">
        <ele>138.470500</ele>
        <time>2020-08-14T08:03:29.259Z</time>
      </trkpt>
      <trkpt lat="37.382416" lon="-5.395138">
        <ele>138.145559</ele>
        <time>2020-08-14T08:03:32.303Z</time>
      </trkpt>
      <trkpt lat="37.382307" lon="-5.395264">
        <ele>137.796156</ele>
        <time>2020-08-14T08:03:34.252Z</time>
      </trkpt>
      <trkpt lat="37.382224" lon="-5.395353">
        <ele>137.538731</ele>
        <time>2020-08-14T08:03:37.258Z</time>
      </trkpt>
      <trkpt lat="37.382115" lon="-5.395411">
        <ele>137.259350</ele>
        <time>2020-08-14T08:03:40.266Z</time>
      </trkpt>
      <trkpt lat="37.382015" lon="-5.395497">
        <ele>136.973415</ele>
        <time>2020-08-14T08:03:42.276Z</time>
      </trkpt>
      <trkpt lat="37.381881" lon="-5.395594">
        <ele>136.608472</ele>
        <time>2020-08-14T08:03:45.267Z</time>
      </trkpt>
      <trkpt lat="37.381802" lon="-5.395671">
        <ele>136.372576</ele>
        <time>2020-08-14T08:03:47.248Z</time>
      </trkpt>
      <trkpt lat="37.381731" lon="-5.395744">
        <ele>136.156134</ele>
        <time>2020-08-14T08:03:50.263Z</time>
      </trkpt>
      <trkpt lat="37.381640" lon="-5.395830">
        <ele>135.887473</ele>
        <time>2020-08-14T08:03:53.249Z</time>
      </trkpt>
      <trkpt lat="37.381551" lon="-5.395924">
        <ele>135.613174</ele>
        <time>2020-08-14T08:03:55.289Z</time>
      </trkpt>
      <trkpt lat="37.381466" lon="-5.395970">
        <ele>135.394741</ele>
        <time>2020-08-14T08:04:00.265Z</time>
      </trkpt>
      <trkpt lat="37.381360" lon="-5.396037">
        <ele>135.114709</ele>
        <time>2020-08-14T08:04:03.249Z</time>
      </trkpt>
      <trkpt lat="37.381262" lon="-5.396154">
        <ele>134.795808</ele>
        <time>2020-08-14T08:04:05.244Z</time>
      </trkpt>
      <trkpt lat="37.381169" lon="-5.396198">
        <ele>134.561253</ele>
        <time>2020-08-14T08:04:08.276Z</time>
      </trkpt>
      <trkpt lat="37.381042" lon="-5.396267">
        <ele>134.600904</ele>
        <time>2020-08-14T08:04:11.268Z</time>
      </trkpt>
      <trkpt lat="37.380975" lon="-5.396362">
        <ele>135.241324</ele>
        <time>2020-08-14T08:04:16.263Z</time>
      </trkpt>
      <trkpt lat="37.380934" lon="-5.396499">
        <ele>135.979419</ele>
        <time>2020-08-14T08:04:20.275Z</time>
      </trkpt>
      <trkpt lat="37.380975" lon="-5.396603">
        <ele>136.564755</ele>
        <time>2020-08-14T08:04:24.272Z</time>
      </trkpt>
      <trkpt lat="37.381039" lon="-5.396720">
        <ele>137.280907</ele>
        <time>2020-08-14T08:04:28.282Z</time>
      </trkpt>
      <trkpt lat="37.381085" lon="-5.396838">
        <ele>137.943580</ele>
        <time>2020-08-14T08:04:31.271Z</time>
      </trkpt>
      <trkpt lat="37.381109" lon="-5.396972">
        <ele>138.636133</ele>
        <time>2020-08-14T08:04:34.271Z</time>
      </trkpt>
      <trkpt lat="37.381168" lon="-5.397060">
        <ele>139.216644</ele>
        <time>2020-08-14T08:04:37.266Z</time>
      </trkpt>
      <trkpt lat="37.381216" lon="-5.397176">
        <ele>139.876043</ele>
        <time>2020-08-14T08:04:41.276Z</time>
      </trkpt>
      <trkpt lat="37.381264" lon="-5.397301">
        <ele>140.576001</ele>
        <time>2020-08-14T08:04:45.274Z</time>
      </trkpt>
      <trkpt lat="37.381303" lon="-5.397447">
        <ele>141.352585</ele>
        <time>2020-08-14T08:04:48.272Z</time>
      </trkpt>
      <trkpt lat="37.381319" lon="-5.397561">
        <ele>141.936248</ele>
        <time>2020-08-14T08:04:50.274Z</time>
      </trkpt>
      <trkpt lat="37.381355" lon="-5.397673">
        <ele>142.545379</ele>
        <time>2020-08-14T08:04:52.246Z</time>
      </trkpt>
      <trkpt lat="37.381387" lon="-5.397821">
        <ele>143.318697</ele>
        <time>2020-08-14T08:04:55.262Z</time>
      </trkpt>
      <trkpt lat="37.381438" lon="-5.397951">
        <ele>144.049659</ele>
        <time>2020-08-14T08:04:59.279Z</time>
      </trkpt>
      <trkpt lat="37.381486" lon="-5.398055">
        <ele>144.656039</ele>
        <time>2020-08-14T08:05:02.272Z</time>
      </trkpt>
      <trkpt lat="37.381510" lon="-5.398210">
        <ele>145.452215</ele>
        <time>2020-08-14T08:05:04.257Z</time>
      </trkpt>
      <trkpt lat="37.381548" lon="-5.398326">
        <ele>145.864743</ele>
        <time>2020-08-14T08:05:06.245Z</time>
      </trkpt>
      <trkpt lat="37.381588" lon="-5.398432">
        <ele>146.071681</ele>
        <time>2020-08-14T08:05:08.263Z</time>
      </trkpt>
      <trkpt lat="37.381623" lon="-5.398542">
        <ele>146.280638</ele>
        <time>2020-08-14T08:05:10.255Z</time>
      </trkpt>
      <trkpt lat="37.381652" lon="-5.398654">
        <ele>146.488371</ele>
        <time>2020-08-14T08:05:13.261Z</time>
      </trkpt>
      <trkpt lat="37.381713" lon="-5.398952">
        <ele>147.031047</ele>
        <time>2020-08-14T08:05:16.276Z</time>
      </trkpt>
      <trkpt lat="37.381732" lon="-5.399097">
        <ele>147.290206</ele>
        <time>2020-08-14T08:05:19.247Z</time>
      </trkpt>
      <trkpt lat="37.381800" lon="-5.399178">
        <ele>147.498001</ele>
        <time>2020-08-14T08:05:21.264Z</time>
      </trkpt>
      <trkpt lat="37.381814" lon="-5.399310">
        <ele>147.732845</ele>
        <time>2020-08-14T08:05:25.292Z</time>
      </trkpt>
      <trkpt lat="37.381801" lon="-5.399496">
        <ele>148.062119</ele>
        <time>2020-08-14T08:05:28.248Z</time>
      </trkpt>
      <trkpt lat="37.381755" lon="-5.399612">
        <ele>148.290742</ele>
        <time>2020-08-14T08:05:29.271Z</time>
      </trkpt>
      <trkpt lat="37.381663" lon="-5.399657">
        <ele>148.509799</ele>
        <time>2020-08-14T08:05:31.240Z</time>
      </trkpt>
      <trkpt lat="37.381568" lon="-5.399710">
        <ele>148.740422</ele>
        <time>2020-08-14T08:05:34.257Z</time>
      </trkpt>
      <trkpt lat="37.381476" lon="-5.399767">
        <ele>148.968001</ele>
        <time>2020-08-14T08:05:38.265Z</time>
      </trkpt>
      <trkpt lat="37.381329" lon="-5.399840">
        <ele>149.318721</ele>
        <time>2020-08-14T08:05:39.263Z</time>
      </trkpt>
      <trkpt lat="37.381241" lon="-5.399896">
        <ele>149.537570</ele>
        <time>2020-08-14T08:05:42.257Z</time>
      </trkpt>
      <trkpt lat="37.381155" lon="-5.399941">
        <ele>149.751492</ele>
        <time>2020-08-14T08:05:44.235Z</time>
      </trkpt>
      <trkpt lat="37.381073" lon="-5.400006">
        <ele>150.218832</ele>
        <time>2020-08-14T08:05:47.271Z</time>
      </trkpt>
      <trkpt lat="37.380971" lon="-5.400076">
        <ele>150.779097</ele>
        <time>2020-08-14T08:05:50.272Z</time>
      </trkpt>
      <trkpt lat="37.380871" lon="-5.400167">
        <ele>151.374200</ele>
        <time>2020-08-14T08:05:52.248Z</time>
      </trkpt>
      <trkpt lat="37.380833" lon="-5.400309">
        <ele>151.948363</ele>
        <time>2020-08-14T08:05:55.237Z</time>
      </trkpt>
      <trkpt lat="37.380834" lon="-5.400433">
        <ele>152.423548</ele>
        <time>2020-08-14T08:05:58.272Z</time>
      </trkpt>
      <trkpt lat="37.380857" lon="-5.400555">
        <ele>152.904022</ele>
        <time>2020-08-14T08:06:01.271Z</time>
      </trkpt>
      <trkpt lat="37.380887" lon="-5.400705">
        <ele>153.496739</ele>
        <time>2020-08-14T08:06:04.280Z</time>
      </trkpt>
      <trkpt lat="37.380924" lon="-5.400878">
        <ele>154.183255</ele>
        <time>2020-08-14T08:06:07.262Z</time>
      </trkpt>
      <trkpt lat="37.380928" lon="-5.400995">
        <ele>154.632006</ele>
        <time>2020-08-14T08:06:09.246Z</time>
      </trkpt>
      <trkpt lat="37.380960" lon="-5.401133">
        <ele>155.182869</ele>
        <time>2020-08-14T08:06:12.247Z</time>
      </trkpt>
      <trkpt lat="37.380981" lon="-5.401289">
        <ele>155.789167</ele>
        <time>2020-08-14T08:06:15.265Z</time>
      </trkpt>
      <trkpt lat="37.381010" lon="-5.401439">
        <ele>156.380725</ele>
        <time>2020-08-14T08:06:18.245Z</time>
      </trkpt>
      <trkpt lat="37.381030" lon="-5.401597">
        <ele>156.993803</ele>
        <time>2020-08-14T08:06:21.242Z</time>
      </trkpt>
      <trkpt lat="37.381064" lon="-5.401754">
        <ele>157.617358</ele>
        <time>2020-08-14T08:06:24.241Z</time>
      </trkpt>
      <trkpt lat="37.381094" lon="-5.401862">
        <ele>158.055764</ele>
        <time>2020-08-14T08:06:26.268Z</time>
      </trkpt>
      <trkpt lat="37.381130" lon="-5.402017">
        <ele>158.104029</ele>
        <time>2020-08-14T08:06:29.241Z</time>
      </trkpt>
      <trkpt lat="37.381165" lon="-5.402171">
        <ele>157.384969</ele>
        <time>2020-08-14T08:06:32.255Z</time>
      </trkpt>
      <trkpt lat="37.381211" lon="-5.402306">
        <ele>156.725556</ele>
        <time>2020-08-14T08:06:35.254Z</time>
      </trkpt>
      <trkpt lat="37.381242" lon="-5.402459">
        <ele>156.016731</ele>
        <time>2020-08-14T08:06:38.241Z</time>
      </trkpt>
      <trkpt lat="37.381273" lon="-5.402619">
        <ele>155.277415</ele>
        <time>2020-08-14T08:06:41.262Z</time>
      </trkpt>
      <trkpt lat="37.381297" lon="-5.402796">
        <ele>154.471341</ele>
        <time>2020-08-14T08:06:44.240Z</time>
      </trkpt>
      <trkpt lat="37.381290" lon="-5.402917">
        <ele>153.926710</ele>
        <time>2020-08-14T08:06:46.260Z</time>
      </trkpt>
      <trkpt lat="37.381305" lon="-5.403049">
        <ele>153.328106</ele>
        <time>2020-08-14T08:06:48.246Z</time>
      </trkpt>
      <trkpt lat="37.381346" lon="-5.403198">
        <ele>152.620245</ele>
        <time>2020-08-14T08:06:51.249Z</time>
      </trkpt>
      <trkpt lat="37.381363" lon="-5.403313">
        <ele>152.095129</ele>
        <time>2020-08-14T08:06:53.267Z</time>
      </trkpt>
      <trkpt lat="37.381386" lon="-5.403468">
        <ele>151.387275</ele>
        <time>2020-08-14T08:06:56.246Z</time>
      </trkpt>
      <trkpt lat="37.381402" lon="-5.403593">
        <ele>150.818892</ele>
        <time>2020-08-14T08:06:58.251Z</time>
      </trkpt>
      <trkpt lat="37.381418" lon="-5.403713">
        <ele>150.272658</ele>
        <time>2020-08-14T08:07:00.251Z</time>
      </trkpt>
      <trkpt lat="37.381425" lon="-5.403879">
        <ele>149.526403</ele>
        <time>2020-08-14T08:07:03.262Z</time>
      </trkpt>
      <trkpt lat="37.381470" lon="-5.404028">
        <ele>148.810829</ele>
        <time>2020-08-14T08:07:06.246Z</time>
      </trkpt>
      <trkpt lat="37.381498" lon="-5.404187">
        <ele>147.971050</ele>
        <time>2020-08-14T08:07:09.272Z</time>
      </trkpt>
      <trkpt lat="37.381516" lon="-5.404348">
        <ele>146.776164</ele>
        <time>2020-08-14T08:07:12.265Z</time>
      </trkpt>
      <trkpt lat="37.381538" lon="-5.404506">
        <ele>145.597288</ele>
        <time>2020-08-14T08:07:15.263Z</time>
      </trkpt>
      <trkpt lat="37.381552" lon="-5.404663">
        <ele>144.436212</ele>
        <time>2020-08-14T08:07:18.269Z</time>
      </trkpt>
      <trkpt lat="37.381496" lon="-5.404800">
        <ele>143.303956</ele>
        <time>2020-08-14T08:07:21.235Z</time>
      </trkpt>
      <trkpt lat="37.381379" lon="-5.404870">
        <ele>142.105774</ele>
        <time>2020-08-14T08:07:24.237Z</time>
      </trkpt>
      <trkpt lat="37.381258" lon="-5.404907">
        <ele>140.954097</ele>
        <time>2020-08-14T08:07:27.256Z</time>
      </trkpt>
      <trkpt lat="37.381136" lon="-5.404944">
        <ele>139.793430</ele>
        <time>2020-08-14T08:07:30.246Z</time>
      </trkpt>
      <trkpt lat="37.381017" lon="-5.404987">
        <ele>138.648342</ele>
        <time>2020-08-14T08:07:33.264Z</time>
      </trkpt>
      <trkpt lat="37.380909" lon="-5.405049">
        <ele>137.550442</ele>
        <time>2020-08-14T08:07:36.252Z</time>
      </trkpt>
      <trkpt lat="37.380814" lon="-5.405129">
        <ele>136.493231</ele>
        <time>2020-08-14T08:07:39.255Z</time>
      </trkpt>
      <trkpt lat="37.380716" lon="-5.405209">
        <ele>135.412849</ele>
        <time>2020-08-14T08:07:42.253Z</time>
      </trkpt>
      <trkpt lat="37.380651" lon="-5.405335">
        <ele>134.308800</ele>
        <time>2020-08-14T08:07:45.267Z</time>
      </trkpt>
      <trkpt lat="37.380656" lon="-5.405465">
        <ele>133.352267</ele>
        <time>2020-08-14T08:07:49.253Z</time>
      </trkpt>
      <trkpt lat="37.380715" lon="-5.405601">
        <ele>132.213499</ele>
        <time>2020-08-14T08:07:53.267Z</time>
      </trkpt>
      <trkpt lat="37.380748" lon="-5.405709">
        <ele>131.725535</ele>
        <time>2020-08-14T08:07:56.268Z</time>
      </trkpt>
      <trkpt lat="37.380777" lon="-5.405837">
        <ele>132.155518</ele>
        <time>2020-08-14T08:07:59.298Z</time>
      </trkpt>
      <trkpt lat="37.380838" lon="-5.405967">
        <ele>132.643237</ele>
        <time>2020-08-14T08:08:02.258Z</time>
      </trkpt>
      <trkpt lat="37.380940" lon="-5.406000">
        <ele>133.071398</ele>
        <time>2020-08-14T08:08:05.257Z</time>
      </trkpt>
      <trkpt lat="37.381027" lon="-5.406057">
        <ele>133.470155</ele>
        <time>2020-08-14T08:08:08.242Z</time>
      </trkpt>
      <trkpt lat="37.381137" lon="-5.406107">
        <ele>133.945632</ele>
        <time>2020-08-14T08:08:12.263Z</time>
      </trkpt>
      <trkpt lat="37.381232" lon="-5.406165">
        <ele>134.374901</ele>
        <time>2020-08-14T08:08:15.271Z</time>
      </trkpt>
      <trkpt lat="37.381326" lon="-5.406218">
        <ele>134.793656</ele>
        <time>2020-08-14T08:08:17.256Z</time>
      </trkpt>
      <trkpt lat="37.381428" lon="-5.406277">
        <ele>135.250038</ele>
        <time>2020-08-14T08:08:20.248Z</time>
      </trkpt>
      <trkpt lat="37.381521" lon="-5.406324">
        <ele>135.657473</ele>
        <time>2020-08-14T08:08:23.262Z</time>
      </trkpt>
      <trkpt lat="37.381630" lon="-5.406387">
        <ele>136.145109</ele>
        <time>2020-08-14T08:08:28.253Z</time>
      </trkpt>
      <trkpt lat="37.381728" lon="-5.406472">
        <ele>136.628983</ele>
        <time>2020-08-14T08:08:29.262Z</time>
      </trkpt>
      <trkpt lat="37.381816" lon="-5.406583">
        <ele>137.135512</ele>
        <time>2020-08-14T08:08:32.250Z</time>
      </trkpt>
      <trkpt lat="37.381882" lon="-5.406665">
        <ele>137.512561</ele>
        <time>2020-08-14T08:08:36.281Z</time>
      </trkpt>
      <trkpt lat="37.381975" lon="-5.406842">
        <ele>138.198048</ele>
        <time>2020-08-14T08:08:39.269Z</time>
      </trkpt>
      <trkpt lat="37.381995" lon="-5.406993">
        <ele>138.692575</ele>
        <time>2020-08-14T08:08:41.233Z</time>
      </trkpt>
      <trkpt lat="37.382035" lon="-5.407103">
        <ele>138.797074</ele>
        <time>2020-08-14T08:08:44.242Z</time>
      </trkpt>
      <trkpt lat="37.382060" lon="-5.407227">
        <ele>138.452775</ele>
        <time>2020-08-14T08:08:47.270Z</time>
      </trkpt>
      <trkpt lat="37.382087" lon="-5.407336">
        <ele>138.145497</ele>
        <time>2020-08-14T08:08:49.268Z</time>
      </trkpt>
      <trkpt lat="37.382111" lon="-5.407472">
        <ele>137.770559</ele>
        <time>2020-08-14T08:08:51.262Z</time>
      </trkpt>
      <trkpt lat="37.382155" lon="-5.407628">
        <ele>137.325047</ele>
        <time>2020-08-14T08:08:54.262Z</time>
      </trkpt>
      <trkpt lat="37.382196" lon="-5.407785">
        <ele>136.880275</ele>
        <time>2020-08-14T08:08:57.272Z</time>
      </trkpt>
      <trkpt lat="37.382249" lon="-5.407922">
        <ele>136.470187</ele>
        <time>2020-08-14T08:09:00.274Z</time>
      </trkpt>
      <trkpt lat="37.382318" lon="-5.408017">
        <ele>136.123796</ele>
        <time>2020-08-14T08:09:03.268Z</time>
      </trkpt>
      <trkpt lat="37.382386" lon="-5.408109">
        <ele>135.785636</ele>
        <time>2020-08-14T08:09:05.275Z</time>
      </trkpt>
      <trkpt lat="37.382462" lon="-5.408233">
        <ele>135.364172</ele>
        <time>2020-08-14T08:09:07.270Z</time>
      </trkpt>
      <trkpt lat="37.382519" lon="-5.408337">
        <ele>135.024152</ele>
        <time>2020-08-14T08:09:09.246Z</time>
      </trkpt>
      <trkpt lat="37.382592" lon="-5.408469">
        <ele>134.591326</ele>
        <time>2020-08-14T08:09:12.270Z</time>
      </trkpt>
      <trkpt lat="37.382665" lon="-5.408573">
        <ele>134.217863</ele>
        <time>2020-08-14T08:09:15.274Z</time>
      </trkpt>
      <trkpt lat="37.382740" lon="-5.408680">
        <ele>133.833864</ele>
        <time>2020-08-14T08:09:17.280Z</time>
      </trkpt>
      <trkpt lat="37.382830" lon="-5.408818">
        <ele>133.353386</ele>
        <time>2020-08-14T08:09:20.264Z</time>
      </trkpt>
      <trkpt lat="37.382887" lon="-5.408922">
        <ele>133.013367</ele>
        <time>2020-08-14T08:09:22.247Z</time>
      </trkpt>
      <trkpt lat="37.382972" lon="-5.409045">
        <ele>132.653439</ele>
        <time>2020-08-14T08:09:25.269Z</time>
      </trkpt>
      <trkpt lat="37.383026" lon="-5.409146">
        <ele>132.424884</ele>
        <time>2020-08-14T08:09:30.279Z</time>
      </trkpt>
      <trkpt lat="37.383078" lon="-5.409240">
        <ele>132.209845</ele>
        <time>2020-08-14T08:09:31.278Z</time>
      </trkpt>
      <trkpt lat="37.383135" lon="-5.409386">
        <ele>131.904435</ele>
        <time>2020-08-14T08:09:32.255Z</time>
      </trkpt>
      <trkpt lat="37.383199" lon="-5.409548">
        <ele>131.564766</ele>
        <time>2020-08-14T08:09:35.266Z</time>
      </trkpt>
      <trkpt lat="37.383268" lon="-5.409623">
        <ele>131.349343</ele>
        <time>2020-08-14T08:09:38.268Z</time>
      </trkpt>
      <trkpt lat="37.383492" lon="-5.409714">
        <ele>130.793182</ele>
        <time>2020-08-14T08:09:46.265Z</time>
      </trkpt>
      <trkpt lat="37.383635" lon="-5.409884">
        <ele>130.328390</ele>
        <time>2020-08-14T08:09:48.258Z</time>
      </trkpt>
      <trkpt lat="37.383653" lon="-5.410216">
        <ele>129.703625</ele>
        <time>2020-08-14T08:09:49.251Z</time>
      </trkpt>
      <trkpt lat="37.383737" lon="-5.410336">
        <ele>129.403374</ele>
        <time>2020-08-14T08:09:52.247Z</time>
      </trkpt>
      <trkpt lat="37.383800" lon="-5.410436">
        <ele>129.163777</ele>
        <time>2020-08-14T08:09:55.274Z</time>
      </trkpt>
      <trkpt lat="37.383871" lon="-5.410577">
        <ele>128.850376</ele>
        <time>2020-08-14T08:09:57.274Z</time>
      </trkpt>
      <trkpt lat="37.383941" lon="-5.410707">
        <ele>128.575559</ele>
        <time>2020-08-14T08:09:59.274Z</time>
      </trkpt>
      <trkpt lat="37.383995" lon="-5.410815">
        <ele>128.496927</ele>
        <time>2020-08-14T08:10:01.253Z</time>
      </trkpt>
      <trkpt lat="37.384052" lon="-5.410969">
        <ele>128.392239</ele>
        <time>2020-08-14T08:10:04.275Z</time>
      </trkpt>
      <trkpt lat="37.384099" lon="-5.411067">
        <ele>128.321703</ele>
        <time>2020-08-14T08:10:07.270Z</time>
      </trkpt>
      <trkpt lat="37.384158" lon="-5.411179">
        <ele>128.238897</ele>
        <time>2020-08-14T08:10:09.268Z</time>
      </trkpt>
      <trkpt lat="37.384194" lon="-5.411325">
        <ele>128.144697</ele>
        <time>2020-08-14T08:10:12.260Z</time>
      </trkpt>
      <trkpt lat="37.384278" lon="-5.411454">
        <ele>128.041923</ele>
        <time>2020-08-14T08:10:15.260Z</time>
      </trkpt>
      <trkpt lat="37.384358" lon="-5.411625">
        <ele>127.919642</ele>
        <time>2020-08-14T08:10:18.274Z</time>
      </trkpt>
      <trkpt lat="37.384434" lon="-5.411691">
        <ele>127.848032</ele>
        <time>2020-08-14T08:10:20.270Z</time>
      </trkpt>
      <trkpt lat="37.384531" lon="-5.411792">
        <ele>127.750398</ele>
        <time>2020-08-14T08:10:23.270Z</time>
      </trkpt>
      <trkpt lat="37.384614" lon="-5.411873">
        <ele>127.668945</ele>
        <time>2020-08-14T08:10:26.264Z</time>
      </trkpt>
      <trkpt lat="37.384753" lon="-5.412023">
        <ele>127.526946</ele>
        <time>2020-08-14T08:10:28.274Z</time>
      </trkpt>
      <trkpt lat="37.384840" lon="-5.412124">
        <ele>127.435154</ele>
        <time>2020-08-14T08:10:30.265Z</time>
      </trkpt>
      <trkpt lat="37.384914" lon="-5.412213">
        <ele>127.355774</ele>
        <time>2020-08-14T08:10:33.272Z</time>
      </trkpt>
      <trkpt lat="37.384984" lon="-5.412323">
        <ele>127.268932</ele>
        <time>2020-08-14T08:10:38.247Z</time>
      </trkpt>
      <trkpt lat="37.385093" lon="-5.412390">
        <ele>127.129101</ele>
        <time>2020-08-14T08:10:41.250Z</time>
      </trkpt>
      <trkpt lat="37.385185" lon="-5.412481">
        <ele>126.772095</ele>
        <time>2020-08-14T08:10:45.269Z</time>
      </trkpt>
      <trkpt lat="37.385319" lon="-5.412614">
        <ele>126.251424</ele>
        <time>2020-08-14T08:10:48.271Z</time>
      </trkpt>
      <trkpt lat="37.385370" lon="-5.412707">
        <ele>125.977490</ele>
        <time>2020-08-14T08:10:50.251Z</time>
      </trkpt>
      <trkpt lat="37.385465" lon="-5.412773">
        <ele>125.646418</ele>
        <time>2020-08-14T08:10:53.262Z</time>
      </trkpt>
      <trkpt lat="37.385562" lon="-5.412824">
        <ele>125.325686</ele>
        <time>2020-08-14T08:10:58.284Z</time>
      </trkpt>
      <trkpt lat="37.385715" lon="-5.412906">
        <ele>124.818323</ele>
        <time>2020-08-14T08:10:59.260Z</time>
      </trkpt>
      <trkpt lat="37.385819" lon="-5.412915">
        <ele>124.500272</ele>
        <time>2020-08-14T08:11:01.255Z</time>
      </trkpt>
      <trkpt lat="37.385911" lon="-5.413025">
        <ele>124.113109</ele>
        <time>2020-08-14T08:11:04.262Z</time>
      </trkpt>
      <trkpt lat="37.386030" lon="-5.413123">
        <ele>123.679222</ele>
        <time>2020-08-14T08:11:07.257Z</time>
      </trkpt>
      <trkpt lat="37.386128" lon="-5.413227">
        <ele>123.288120</ele>
        <time>2020-08-14T08:11:10.251Z</time>
      </trkpt>
      <trkpt lat="37.386234" lon="-5.413318">
        <ele>122.896642</ele>
        <time>2020-08-14T08:11:13.258Z</time>
      </trkpt>
      <trkpt lat="37.386309" lon="-5.413383">
        <ele>122.618813</ele>
        <time>2020-08-14T08:11:15.262Z</time>
      </trkpt>
      <trkpt lat="37.386411" lon="-5.413407">
        <ele>122.302221</ele>
        <time>2020-08-14T08:11:17.249Z</time>
      </trkpt>
      <trkpt lat="37.386489" lon="-5.413467">
        <ele>122.023315</ele>
        <time>2020-08-14T08:11:19.260Z</time>
      </trkpt>
      <trkpt lat="37.386565" lon="-5.413546">
        <ele>121.722580</ele>
        <time>2020-08-14T08:11:21.252Z</time>
      </trkpt>
      <trkpt lat="37.386673" lon="-5.413610">
        <ele>122.130589</ele>
        <time>2020-08-14T08:11:24.260Z</time>
      </trkpt>
      <trkpt lat="37.386738" lon="-5.413689">
        <ele>122.472953</ele>
        <time>2020-08-14T08:11:26.262Z</time>
      </trkpt>
      <trkpt lat="37.386819" lon="-5.413772">
        <ele>122.868705</ele>
        <time>2020-08-14T08:11:28.255Z</time>
      </trkpt>
      <trkpt lat="37.386930" lon="-5.413842">
        <ele>123.339110</ele>
        <time>2020-08-14T08:11:31.260Z</time>
      </trkpt>
      <trkpt lat="37.387029" lon="-5.413954">
        <ele>123.843472</ele>
        <time>2020-08-14T08:11:34.247Z</time>
      </trkpt>
      <trkpt lat="37.387113" lon="-5.414079">
        <ele>124.336319</ele>
        <time>2020-08-14T08:11:37.259Z</time>
      </trkpt>
      <trkpt lat="37.387167" lon="-5.414200">
        <ele>124.754108</ele>
        <time>2020-08-14T08:11:39.246Z</time>
      </trkpt>
      <trkpt lat="37.387226" lon="-5.414356">
        <ele>125.274225</ele>
        <time>2020-08-14T08:11:42.299Z</time>
      </trkpt>
      <trkpt lat="37.387255" lon="-5.414480">
        <ele>125.663354</ele>
        <time>2020-08-14T08:11:44.263Z</time>
      </trkpt>
      <trkpt lat="37.387300" lon="-5.414615">
        <ele>126.104078</ele>
        <time>2020-08-14T08:11:47.252Z</time>
      </trkpt>
      <trkpt lat="37.387339" lon="-5.414766">
        <ele>126.582067</ele>
        <time>2020-08-14T08:11:50.263Z</time>
      </trkpt>
      <trkpt lat="37.387371" lon="-5.414887">
        <ele>126.965977</ele>
        <time>2020-08-14T08:11:52.254Z</time>
      </trkpt>
      <trkpt lat="37.387405" lon="-5.415005">
        <ele>127.343844</ele>
        <time>2020-08-14T08:11:54.262Z</time>
      </trkpt>
      <trkpt lat="37.387461" lon="-5.415102">
        <ele>127.704800</ele>
        <time>2020-08-14T08:11:56.247Z</time>
      </trkpt>
      <trkpt lat="37.387538" lon="-5.415239">
        <ele>128.209984</ele>
        <time>2020-08-14T08:11:59.254Z</time>
      </trkpt>
      <trkpt lat="37.387606" lon="-5.415318">
        <ele>128.485559</ele>
        <time>2020-08-14T08:12:01.258Z</time>
      </trkpt>
      <trkpt lat="37.387670" lon="-5.415410">
        <ele>128.210901</ele>
        <time>2020-08-14T08:12:04.253Z</time>
      </trkpt>
      <trkpt lat="37.387782" lon="-5.415543">
        <ele>127.775591</ele>
        <time>2020-08-14T08:12:06.266Z</time>
      </trkpt>
      <trkpt lat="37.387885" lon="-5.415672">
        <ele>127.364807</ele>
        <time>2020-08-14T08:12:09.254Z</time>
      </trkpt>
      <trkpt lat="37.387952" lon="-5.415751">
        <ele>127.105265</ele>
        <time>2020-08-14T08:12:11.269Z</time>
      </trkpt>
      <trkpt lat="37.388036" lon="-5.415852">
        <ele>126.776850</ele>
        <time>2020-08-14T08:12:15.273Z</time>
      </trkpt>
      <trkpt lat="37.388114" lon="-5.415948">
        <ele>126.468436</ele>
        <time>2020-08-14T08:12:18.268Z</time>
      </trkpt>
      <trkpt lat="37.388233" lon="-5.416076">
        <ele>126.025907</ele>
        <time>2020-08-14T08:12:20.275Z</time>
      </trkpt>
      <trkpt lat="37.388347" lon="-5.416170">
        <ele>125.640627</ele>
        <time>2020-08-14T08:12:22.271Z</time>
      </trkpt>
      <trkpt lat="37.388453" lon="-5.416228">
        <ele>125.313873</ele>
        <time>2020-08-14T08:12:25.286Z</time>
      </trkpt>
      <trkpt lat="37.388541" lon="-5.416291">
        <ele>125.027669</ele>
        <time>2020-08-14T08:12:27.268Z</time>
      </trkpt>
      <trkpt lat="37.388631" lon="-5.416365">
        <ele>124.723759</ele>
        <time>2020-08-14T08:12:29.275Z</time>
      </trkpt>
      <trkpt lat="37.388727" lon="-5.416439">
        <ele>124.405515</ele>
        <time>2020-08-14T08:12:31.265Z</time>
      </trkpt>
      <trkpt lat="37.388777" lon="-5.416577">
        <ele>124.064841</ele>
        <time>2020-08-14T08:12:37.260Z</time>
      </trkpt>
      <trkpt lat="37.388844" lon="-5.416664">
        <ele>123.792698</ele>
        <time>2020-08-14T08:12:39.249Z</time>
      </trkpt>
      <trkpt lat="37.388922" lon="-5.416748">
        <ele>123.502491</ele>
        <time>2020-08-14T08:12:42.245Z</time>
      </trkpt>
      <trkpt lat="37.388994" lon="-5.416827">
        <ele>123.476312</ele>
        <time>2020-08-14T08:12:45.284Z</time>
      </trkpt>
      <trkpt lat="37.389100" lon="-5.416900">
        <ele>123.550294</ele>
        <time>2020-08-14T08:12:47.270Z</time>
      </trkpt>
      <trkpt lat="37.389153" lon="-5.416994">
        <ele>123.606367</ele>
        <time>2020-08-14T08:12:49.264Z</time>
      </trkpt>
      <trkpt lat="37.389214" lon="-5.417078">
        <ele>123.661727</ele>
        <time>2020-08-14T08:12:51.261Z</time>
      </trkpt>
      <trkpt lat="37.389310" lon="-5.417162">
        <ele>123.733314</ele>
        <time>2020-08-14T08:12:55.280Z</time>
      </trkpt>
      <trkpt lat="37.389384" lon="-5.417234">
        <ele>123.790583</ele>
        <time>2020-08-14T08:12:57.268Z</time>
      </trkpt>
      <trkpt lat="37.389500" lon="-5.417331">
        <ele>123.875853</ele>
        <time>2020-08-14T08:13:00.268Z</time>
      </trkpt>
      <trkpt lat="37.389653" lon="-5.417483">
        <ele>123.995199</ele>
        <time>2020-08-14T08:13:04.238Z</time>
      </trkpt>
      <trkpt lat="37.389734" lon="-5.417536">
        <ele>124.051095</ele>
        <time>2020-08-14T08:13:06.253Z</time>
      </trkpt>
      <trkpt lat="37.389800" lon="-5.417645">
        <ele>124.117763</ele>
        <time>2020-08-14T08:13:09.256Z</time>
      </trkpt>
      <trkpt lat="37.389883" lon="-5.417796">
        <ele>124.207085</ele>
        <time>2020-08-14T08:13:12.268Z</time>
      </trkpt>
      <trkpt lat="37.389937" lon="-5.417915">
        <ele>124.273751</ele>
        <time>2020-08-14T08:13:14.273Z</time>
      </trkpt>
      <trkpt lat="37.389974" lon="-5.418053">
        <ele>124.344603</ele>
        <time>2020-08-14T08:13:17.268Z</time>
      </trkpt>
      <trkpt lat="37.390007" lon="-5.418178">
        <ele>124.408680</ele>
        <time>2020-08-14T08:13:20.266Z</time>
      </trkpt>
      <trkpt lat="37.390044" lon="-5.418316">
        <ele>124.479532</ele>
        <time>2020-08-14T08:13:24.274Z</time>
      </trkpt>
      <trkpt lat="37.390096" lon="-5.418448">
        <ele>124.615794</ele>
        <time>2020-08-14T08:13:27.274Z</time>
      </trkpt>
      <trkpt lat="37.390140" lon="-5.418600">
        <ele>124.992839</ele>
        <time>2020-08-14T08:13:29.272Z</time>
      </trkpt>
      <trkpt lat="37.390175" lon="-5.418758">
        <ele>125.375132</ele>
        <time>2020-08-14T08:13:32.276Z</time>
      </trkpt>
      <trkpt lat="37.390216" lon="-5.419113">
        <ele>126.211221</ele>
        <time>2020-08-14T08:13:46.269Z</time>
      </trkpt>
      <trkpt lat="37.390267" lon="-5.419210">
        <ele>126.482316</ele>
        <time>2020-08-14T08:13:50.258Z</time>
      </trkpt>
      <trkpt lat="37.390281" lon="-5.419343">
        <ele>126.795005</ele>
        <time>2020-08-14T08:13:54.255Z</time>
      </trkpt>
      <trkpt lat="37.390305" lon="-5.419468">
        <ele>127.094726</ele>
        <time>2020-08-14T08:13:58.248Z</time>
      </trkpt>
      <trkpt lat="37.390709" lon="-5.419535">
        <ele>128.290086</ele>
        <time>2020-08-14T08:14:11.258Z</time>
      </trkpt>
      <trkpt lat="37.390806" lon="-5.419512">
        <ele>128.579636</ele>
        <time>2020-08-14T08:14:14.235Z</time>
      </trkpt>
      <trkpt lat="37.390914" lon="-5.419482">
        <ele>128.904073</ele>
        <time>2020-08-14T08:14:17.253Z</time>
      </trkpt>
      <trkpt lat="37.391005" lon="-5.419443">
        <ele>129.186069</ele>
        <time>2020-08-14T08:14:21.265Z</time>
      </trkpt>
      <trkpt lat="37.391120" lon="-5.419390">
        <ele>129.545320</ele>
        <time>2020-08-14T08:14:25.264Z</time>
      </trkpt>
      <trkpt lat="37.391196" lon="-5.419316">
        <ele>129.799986</ele>
        <time>2020-08-14T08:14:28.258Z</time>
      </trkpt>
      <trkpt lat="37.391259" lon="-5.419196">
        <ele>129.591790</ele>
        <time>2020-08-14T08:14:32.260Z</time>
      </trkpt>
      <trkpt lat="37.391302" lon="-5.419076">
        <ele>129.401240</ele>
        <time>2020-08-14T08:14:35.266Z</time>
      </trkpt>
      <trkpt lat="37.391382" lon="-5.418977">
        <ele>129.196842</ele>
        <time>2020-08-14T08:14:38.251Z</time>
      </trkpt>
      <trkpt lat="37.391477" lon="-5.418902">
        <ele>128.992533</ele>
        <time>2020-08-14T08:14:41.247Z</time>
      </trkpt>
      <trkpt lat="37.391546" lon="-5.418823">
        <ele>128.822593</ele>
        <time>2020-08-14T08:14:44.260Z</time>
      </trkpt>
      <trkpt lat="37.391603" lon="-5.418727">
        <ele>128.649117</ele>
        <time>2020-08-14T08:14:47.266Z</time>
      </trkpt>
      <trkpt lat="37.391684" lon="-5.418679">
        <ele>128.486007</ele>
        <time>2020-08-14T08:14:50.255Z</time>
      </trkpt>
      <trkpt lat="37.391775" lon="-5.418766">
        <ele>128.277811</ele>
        <time>2020-08-14T08:14:54.238Z</time>
      </trkpt>
      <trkpt lat="37.391880" lon="-5.418740">
        <ele>128.082846</ele>
        <time>2020-08-14T08:14:58.244Z</time>
      </trkpt>
      <trkpt lat="37.391927" lon="-5.418608">
        <ele>127.873467</ele>
        <time>2020-08-14T08:15:01.245Z</time>
      </trkpt>
      <trkpt lat="37.391965" lon="-5.418495">
        <ele>127.695853</ele>
        <time>2020-08-14T08:15:03.259Z</time>
      </trkpt>
      <trkpt lat="37.392002" lon="-5.418390">
        <ele>127.529589</ele>
        <time>2020-08-14T08:15:05.265Z</time>
      </trkpt>
      <trkpt lat="37.392064" lon="-5.418268">
        <ele>127.319960</ele>
        <time>2020-08-14T08:15:08.253Z</time>
      </trkpt>
      <trkpt lat="37.392137" lon="-5.418167">
        <ele>127.122320</ele>
        <time>2020-08-14T08:15:11.255Z</time>
      </trkpt>
      <trkpt lat="37.392220" lon="-5.418074">
        <ele>126.919865</ele>
        <time>2020-08-14T08:15:14.249Z</time>
      </trkpt>
      <trkpt lat="37.392320" lon="-5.418035">
        <ele>126.729131</ele>
        <time>2020-08-14T08:15:17.244Z</time>
      </trkpt>
      <trkpt lat="37.392413" lon="-5.418057">
        <ele>126.556729</ele>
        <time>2020-08-14T08:15:20.249Z</time>
      </trkpt>
      <trkpt lat="37.392501" lon="-5.418130">
        <ele>126.647144</ele>
        <time>2020-08-14T08:15:25.233Z</time>
      </trkpt>
      <trkpt lat="37.392580" lon="-5.418188">
        <ele>126.759352</ele>
        <time>2020-08-14T08:15:31.255Z</time>
      </trkpt>
      <trkpt lat="37.392773" lon="-5.418613">
        <ele>127.236520</ele>
        <time>2020-08-14T08:15:43.259Z</time>
      </trkpt>
      <trkpt lat="37.392771" lon="-5.418733">
        <ele>127.353516</ele>
        <time>2020-08-14T08:15:46.251Z</time>
      </trkpt>
      <trkpt lat="37.392761" lon="-5.418874">
        <ele>127.491503</ele>
        <time>2020-08-14T08:15:50.252Z</time>
      </trkpt>
      <trkpt lat="37.392772" lon="-5.418999">
        <ele>127.614092</ele>
        <time>2020-08-14T08:15:55.273Z</time>
      </trkpt>
      <trkpt lat="37.392806" lon="-5.419137">
        <ele>127.754928</ele>
        <time>2020-08-14T08:15:58.265Z</time>
      </trkpt>
      <trkpt lat="37.392840" lon="-5.419278">
        <ele>127.898559</ele>
        <time>2020-08-14T08:16:02.260Z</time>
      </trkpt>
      <trkpt lat="37.392885" lon="-5.419385">
        <ele>128.016569</ele>
        <time>2020-08-14T08:16:06.261Z</time>
      </trkpt>
      <trkpt lat="37.392921" lon="-5.419496">
        <ele>128.133434</ele>
        <time>2020-08-14T08:16:09.270Z</time>
      </trkpt>
      <trkpt lat="37.392974" lon="-5.419654">
        <ele>128.300609</ele>
        <time>2020-08-14T08:16:11.253Z</time>
      </trkpt>
      <trkpt lat="37.393001" lon="-5.419791">
        <ele>128.438197</ele>
        <time>2020-08-14T08:16:14.247Z</time>
      </trkpt>
      <trkpt lat="37.393063" lon="-5.419881">
        <ele>128.554311</ele>
        <time>2020-08-14T08:16:17.274Z</time>
      </trkpt>
      <trkpt lat="37.393104" lon="-5.419983">
        <ele>128.665736</ele>
        <time>2020-08-14T08:16:19.281Z</time>
      </trkpt>
      <trkpt lat="37.393148" lon="-5.420121">
        <ele>128.779466</ele>
        <time>2020-08-14T08:16:22.274Z</time>
      </trkpt>
      <trkpt lat="37.393194" lon="-5.420264">
        <ele>128.863225</ele>
        <time>2020-08-14T08:16:25.270Z</time>
      </trkpt>
      <trkpt lat="37.393226" lon="-5.420386">
        <ele>128.932976</ele>
        <time>2020-08-14T08:16:28.275Z</time>
      </trkpt>
      <trkpt lat="37.393252" lon="-5.420497">
        <ele>128.995803</ele>
        <time>2020-08-14T08:16:30.277Z</time>
      </trkpt>
      <trkpt lat="37.393285" lon="-5.420648">
        <ele>129.080827</ele>
        <time>2020-08-14T08:16:33.288Z</time>
      </trkpt>
      <trkpt lat="37.393323" lon="-5.420759">
        <ele>129.146446</ele>
        <time>2020-08-14T08:16:36.272Z</time>
      </trkpt>
      <trkpt lat="37.393364" lon="-5.420873">
        <ele>129.214383</ele>
        <time>2020-08-14T08:16:38.284Z</time>
      </trkpt>
      <trkpt lat="37.393435" lon="-5.420999">
        <ele>129.298248</ele>
        <time>2020-08-14T08:16:41.266Z</time>
      </trkpt>
      <trkpt lat="37.393478" lon="-5.421142">
        <ele>129.381259</ele>
        <time>2020-08-14T08:16:44.263Z</time>
      </trkpt>
      <trkpt lat="37.393521" lon="-5.421257">
        <ele>129.450262</ele>
        <time>2020-08-14T08:16:48.283Z</time>
      </trkpt>
      <trkpt lat="37.393598" lon="-5.421433">
        <ele>129.559343</ele>
        <time>2020-08-14T08:16:51.283Z</time>
      </trkpt>
      <trkpt lat="37.393628" lon="-5.421572">
        <ele>129.637541</ele>
        <time>2020-08-14T08:16:53.255Z</time>
      </trkpt>
      <trkpt lat="37.393677" lon="-5.421697">
        <ele>129.713215</ele>
        <time>2020-08-14T08:16:56.250Z</time>
      </trkpt>
      <trkpt lat="37.393727" lon="-5.421813">
        <ele>129.784864</ele>
        <time>2020-08-14T08:17:00.269Z</time>
      </trkpt>
      <trkpt lat="37.393820" lon="-5.422015">
        <ele>129.911613</ele>
        <time>2020-08-14T08:17:03.289Z</time>
      </trkpt>
      <trkpt lat="37.393839" lon="-5.422164">
        <ele>129.932547</ele>
        <time>2020-08-14T08:17:06.249Z</time>
      </trkpt>
      <trkpt lat="37.393871" lon="-5.422302">
        <ele>129.814070</ele>
        <time>2020-08-14T08:17:09.265Z</time>
      </trkpt>
      <trkpt lat="37.393927" lon="-5.422415">
        <ele>129.704310</ele>
        <time>2020-08-14T08:17:12.286Z</time>
      </trkpt>
      <trkpt lat="37.393961" lon="-5.422534">
        <ele>129.600088</ele>
        <time>2020-08-14T08:17:14.279Z</time>
      </trkpt>
      <trkpt lat="37.394002" lon="-5.422673">
        <ele>129.477892</ele>
        <time>2020-08-14T08:17:16.265Z</time>
      </trkpt>
      <trkpt lat="37.394062" lon="-5.422781">
        <ele>129.369282</ele>
        <time>2020-08-14T08:17:18.251Z</time>
      </trkpt>
      <trkpt lat="37.394106" lon="-5.422895">
        <ele>129.264830</ele>
        <time>2020-08-14T08:17:20.268Z</time>
      </trkpt>
      <trkpt lat="37.394162" lon="-5.423008">
        <ele>129.155070</ele>
        <time>2020-08-14T08:17:23.262Z</time>
      </trkpt>
      <trkpt lat="37.394199" lon="-5.423175">
        <ele>129.012188</ele>
        <time>2020-08-14T08:17:26.273Z</time>
      </trkpt>
      <trkpt lat="37.394237" lon="-5.423299">
        <ele>128.902656</ele>
        <time>2020-08-14T08:17:28.253Z</time>
      </trkpt>
      <trkpt lat="37.394292" lon="-5.423453">
        <ele>128.763505</ele>
        <time>2020-08-14T08:17:31.274Z</time>
      </trkpt>
      <trkpt lat="37.394340" lon="-5.423552">
        <ele>128.667922</ele>
        <time>2020-08-14T08:17:34.275Z</time>
      </trkpt>
      <trkpt lat="37.394379" lon="-5.423672">
        <ele>128.561071</ele>
        <time>2020-08-14T08:17:36.267Z</time>
      </trkpt>
      <trkpt lat="37.394401" lon="-5.423795">
        <ele>128.457165</ele>
        <time>2020-08-14T08:17:38.262Z</time>
      </trkpt>
      <trkpt lat="37.394449" lon="-5.423962">
        <ele>128.310804</ele>
        <time>2020-08-14T08:17:40.251Z</time>
      </trkpt>
      <trkpt lat="37.394501" lon="-5.424068">
        <ele>128.208134</ele>
        <time>2020-08-14T08:17:42.260Z</time>
      </trkpt>
      <trkpt lat="37.394540" lon="-5.424181">
        <ele>128.106599</ele>
        <time>2020-08-14T08:17:45.259Z</time>
      </trkpt>
      <trkpt lat="37.394606" lon="-5.424327">
        <ele>128.130801</ele>
        <time>2020-08-14T08:17:47.273Z</time>
      </trkpt>
      <trkpt lat="37.394673" lon="-5.424499">
        <ele>128.162614</ele>
        <time>2020-08-14T08:17:49.272Z</time>
      </trkpt>
      <trkpt lat="37.394720" lon="-5.424645">
        <ele>128.188775</ele>
        <time>2020-08-14T08:17:51.276Z</time>
      </trkpt>
      <trkpt lat="37.394722" lon="-5.424500">
        <ele>128.212859</ele>
        <time>2020-08-14T08:17:54.259Z</time>
      </trkpt>
      <trkpt lat="37.395054" lon="-5.425661">
        <ele>128.417778</ele>
        <time>2020-08-14T08:18:12.306Z</time>
      </trkpt>
      <trkpt lat="37.395059" lon="-5.425792">
        <ele>128.439559</ele>
        <time>2020-08-14T08:18:16.262Z</time>
      </trkpt>
      <trkpt lat="37.395087" lon="-5.425923">
        <ele>128.462088</ele>
        <time>2020-08-14T08:18:19.278Z</time>
      </trkpt>
      <trkpt lat="37.395130" lon="-5.426059">
        <ele>128.490311</ele>
        <time>2020-08-14T08:18:22.270Z</time>
      </trkpt>
      <trkpt lat="37.395171" lon="-5.426167">
        <ele>128.521479</ele>
        <time>2020-08-14T08:18:25.274Z</time>
      </trkpt>
      <trkpt lat="37.395223" lon="-5.426285">
        <ele>128.556615</ele>
        <time>2020-08-14T08:18:28.276Z</time>
      </trkpt>
      <trkpt lat="37.395274" lon="-5.426426">
        <ele>128.596955</ele>
        <time>2020-08-14T08:18:30.263Z</time>
      </trkpt>
      <trkpt lat="37.395335" lon="-5.426565">
        <ele>128.638304</ele>
        <time>2020-08-14T08:18:32.280Z</time>
      </trkpt>
      <trkpt lat="37.395380" lon="-5.426697">
        <ele>128.675705</ele>
        <time>2020-08-14T08:18:34.272Z</time>
      </trkpt>
      <trkpt lat="37.395662" lon="-5.427607">
        <ele>128.930044</ele>
        <time>2020-08-14T08:18:50.258Z</time>
      </trkpt>
      <trkpt lat="37.395743" lon="-5.427668">
        <ele>128.960981</ele>
        <time>2020-08-14T08:18:52.253Z</time>
      </trkpt>
      <trkpt lat="37.395772" lon="-5.427777">
        <ele>128.990912</ele>
        <time>2020-08-14T08:18:54.254Z</time>
      </trkpt>
      <trkpt lat="37.395831" lon="-5.427874">
        <ele>129.022722</ele>
        <time>2020-08-14T08:18:57.274Z</time>
      </trkpt>
      <trkpt lat="37.395872" lon="-5.427985">
        <ele>129.054596</ele>
        <time>2020-08-14T08:18:59.276Z</time>
      </trkpt>
      <trkpt lat="37.395898" lon="-5.428122">
        <ele>129.069738</ele>
        <time>2020-08-14T08:19:01.251Z</time>
      </trkpt>
      <trkpt lat="37.395914" lon="-5.428248">
        <ele>129.070824</ele>
        <time>2020-08-14T08:19:03.241Z</time>
      </trkpt>
      <trkpt lat="37.395966" lon="-5.428380">
        <ele>129.072078</ele>
        <time>2020-08-14T08:19:06.266Z</time>
      </trkpt>
      <trkpt lat="37.396024" lon="-5.428518">
        <ele>129.073406</ele>
        <time>2020-08-14T08:19:09.281Z</time>
      </trkpt>
      <trkpt lat="37.396111" lon="-5.428724">
        <ele>129.075392</ele>
        <time>2020-08-14T08:19:11.274Z</time>
      </trkpt>
      <trkpt lat="37.396135" lon="-5.428837">
        <ele>129.076387</ele>
        <time>2020-08-14T08:19:14.245Z</time>
      </trkpt>
      <trkpt lat="37.396176" lon="-5.428990">
        <ele>129.077761</ele>
        <time>2020-08-14T08:19:17.244Z</time>
      </trkpt>
      <trkpt lat="37.396225" lon="-5.429091">
        <ele>129.078768</ele>
        <time>2020-08-14T08:19:21.267Z</time>
      </trkpt>
      <trkpt lat="37.396332" lon="-5.429379">
        <ele>129.081474</ele>
        <time>2020-08-14T08:19:25.264Z</time>
      </trkpt>
      <trkpt lat="37.396355" lon="-5.429553">
        <ele>129.082975</ele>
        <time>2020-08-14T08:19:28.256Z</time>
      </trkpt>
      <trkpt lat="37.396413" lon="-5.429663">
        <ele>129.084098</ele>
        <time>2020-08-14T08:19:31.274Z</time>
      </trkpt>
      <trkpt lat="37.396495" lon="-5.429833">
        <ele>129.085791</ele>
        <time>2020-08-14T08:19:34.260Z</time>
      </trkpt>
      <trkpt lat="37.396535" lon="-5.429963">
        <ele>129.086977</ele>
        <time>2020-08-14T08:19:36.263Z</time>
      </trkpt>
      <trkpt lat="37.396556" lon="-5.430081">
        <ele>129.088006</ele>
        <time>2020-08-14T08:19:38.236Z</time>
      </trkpt>
      <trkpt lat="37.396587" lon="-5.430221">
        <ele>129.053336</ele>
        <time>2020-08-14T08:19:41.265Z</time>
      </trkpt>
      <trkpt lat="37.396615" lon="-5.430330">
        <ele>129.018082</ele>
        <time>2020-08-14T08:19:43.283Z</time>
      </trkpt>
      <trkpt lat="37.396651" lon="-5.430453">
        <ele>128.977742</ele>
        <time>2020-08-14T08:19:46.274Z</time>
      </trkpt>
      <trkpt lat="37.396717" lon="-5.430634">
        <ele>128.916454</ele>
        <time>2020-08-14T08:19:51.264Z</time>
      </trkpt>
      <trkpt lat="37.396759" lon="-5.430761">
        <ele>128.874119</ele>
        <time>2020-08-14T08:19:52.271Z</time>
      </trkpt>
      <trkpt lat="37.396794" lon="-5.430928">
        <ele>128.820968</ele>
        <time>2020-08-14T08:19:55.255Z</time>
      </trkpt>
      <trkpt lat="37.396845" lon="-5.431044">
        <ele>128.780168</ele>
        <time>2020-08-14T08:19:58.267Z</time>
      </trkpt>
      <trkpt lat="37.396904" lon="-5.431198">
        <ele>128.727552</ele>
        <time>2020-08-14T08:20:02.272Z</time>
      </trkpt>
      <trkpt lat="37.396958" lon="-5.431331">
        <ele>128.681587</ele>
        <time>2020-08-14T08:20:04.267Z</time>
      </trkpt>
      <trkpt lat="37.396991" lon="-5.431477">
        <ele>128.634874</ele>
        <time>2020-08-14T08:20:07.260Z</time>
      </trkpt>
      <trkpt lat="37.397045" lon="-5.431583">
        <ele>128.596122</ele>
        <time>2020-08-14T08:20:11.271Z</time>
      </trkpt>
      <trkpt lat="37.397099" lon="-5.431691">
        <ele>128.556851</ele>
        <time>2020-08-14T08:20:17.246Z</time>
      </trkpt>
      <trkpt lat="37.397249" lon="-5.432160">
        <ele>128.401264</ele>
        <time>2020-08-14T08:20:21.247Z</time>
      </trkpt>
      <trkpt lat="37.397282" lon="-5.432325">
        <ele>128.278665</ele>
        <time>2020-08-14T08:20:24.281Z</time>
      </trkpt>
      <trkpt lat="37.397294" lon="-5.432452">
        <ele>128.174474</ele>
        <time>2020-08-14T08:20:28.274Z</time>
      </trkpt>
      <trkpt lat="37.397298" lon="-5.432591">
        <ele>128.061162</ele>
        <time>2020-08-14T08:20:30.274Z</time>
      </trkpt>
      <trkpt lat="37.397320" lon="-5.432756">
        <ele>127.924863</ele>
        <time>2020-08-14T08:20:31.250Z</time>
      </trkpt>
      <trkpt lat="37.397301" lon="-5.432897">
        <ele>127.808355</ele>
        <time>2020-08-14T08:20:34.241Z</time>
      </trkpt>
      <trkpt lat="37.397288" lon="-5.433026">
        <ele>127.702422</ele>
        <time>2020-08-14T08:20:36.272Z</time>
      </trkpt>
      <trkpt lat="37.397270" lon="-5.433140">
        <ele>127.607734</ele>
        <time>2020-08-14T08:20:38.268Z</time>
      </trkpt>
      <trkpt lat="37.397251" lon="-5.433257">
        <ele>127.510448</ele>
        <time>2020-08-14T08:20:40.254Z</time>
      </trkpt>
      <trkpt lat="37.397227" lon="-5.433409">
        <ele>127.384197</ele>
        <time>2020-08-14T08:20:42.264Z</time>
      </trkpt>
      <trkpt lat="37.397211" lon="-5.433546">
        <ele>127.271389</ele>
        <time>2020-08-14T08:20:44.281Z</time>
      </trkpt>
      <trkpt lat="37.397200" lon="-5.433671">
        <ele>127.168934</ele>
        <time>2020-08-14T08:20:46.239Z</time>
      </trkpt>
      <trkpt lat="37.397184" lon="-5.433798">
        <ele>127.064179</ele>
        <time>2020-08-14T08:20:48.266Z</time>
      </trkpt>
      <trkpt lat="37.397169" lon="-5.433914">
        <ele>126.968435</ele>
        <time>2020-08-14T08:20:51.256Z</time>
      </trkpt>
      <trkpt lat="37.397174" lon="-5.434033">
        <ele>126.871354</ele>
        <time>2020-08-14T08:20:54.274Z</time>
      </trkpt>
      <trkpt lat="37.397164" lon="-5.434191">
        <ele>126.742230</ele>
        <time>2020-08-14T08:20:57.243Z</time>
      </trkpt>
      <trkpt lat="37.397148" lon="-5.434341">
        <ele>126.618934</ele>
        <time>2020-08-14T08:21:00.269Z</time>
      </trkpt>
      <trkpt lat="37.397160" lon="-5.434454">
        <ele>126.566622</ele>
        <time>2020-08-14T08:21:03.257Z</time>
      </trkpt>
      <trkpt lat="37.397176" lon="-5.434572">
        <ele>126.656872</ele>
        <time>2020-08-14T08:21:06.255Z</time>
      </trkpt>
      <trkpt lat="37.397168" lon="-5.434685">
        <ele>126.742403</ele>
        <time>2020-08-14T08:21:10.248Z</time>
      </trkpt>
      <trkpt lat="37.397184" lon="-5.434885">
        <ele>126.893950</ele>
        <time>2020-08-14T08:21:13.274Z</time>
      </trkpt>
      <trkpt lat="37.397141" lon="-5.435023">
        <ele>127.005708</ele>
        <time>2020-08-14T08:21:15.250Z</time>
      </trkpt>
      <trkpt lat="37.397135" lon="-5.435166">
        <ele>127.113670</ele>
        <time>2020-08-14T08:21:18.250Z</time>
      </trkpt>
      <trkpt lat="37.397132" lon="-5.435316">
        <ele>127.226795</ele>
        <time>2020-08-14T08:21:21.251Z</time>
      </trkpt>
      <trkpt lat="37.397116" lon="-5.435453">
        <ele>127.331192</ele>
        <time>2020-08-14T08:21:24.272Z</time>
      </trkpt>
      <trkpt lat="37.397098" lon="-5.435596">
        <ele>127.440349</ele>
        <time>2020-08-14T08:21:26.269Z</time>
      </trkpt>
      <trkpt lat="37.397078" lon="-5.435746">
        <ele>127.555019</ele>
        <time>2020-08-14T08:21:29.256Z</time>
      </trkpt>
      <trkpt lat="37.397072" lon="-5.435873">
        <ele>127.650937</ele>
        <time>2020-08-14T08:21:32.247Z</time>
      </trkpt>
      <trkpt lat="37.397109" lon="-5.436054">
        <ele>127.791842</ele>
        <time>2020-08-14T08:21:38.272Z</time>
      </trkpt>
      <trkpt lat="37.397090" lon="-5.436229">
        <ele>127.925006</ele>
        <time>2020-08-14T08:21:39.249Z</time>
      </trkpt>
      <trkpt lat="37.397068" lon="-5.436342">
        <ele>128.012720</ele>
        <time>2020-08-14T08:21:41.261Z</time>
      </trkpt>
      <trkpt lat="37.397076" lon="-5.436460">
        <ele>128.102007</ele>
        <time>2020-08-14T08:21:44.263Z</time>
      </trkpt>
      <trkpt lat="37.397058" lon="-5.436578">
        <ele>128.192595</ele>
        <time>2020-08-14T08:21:47.284Z</time>
      </trkpt>
      <trkpt lat="37.397041" lon="-5.436723">
        <ele>128.302457</ele>
        <time>2020-08-14T08:21:49.263Z</time>
      </trkpt>
      <trkpt lat="37.397037" lon="-5.436845">
        <ele>128.393311</ele>
        <time>2020-08-14T08:21:51.275Z</time>
      </trkpt>
      <trkpt lat="37.397036" lon="-5.437003">
        <ele>128.510877</ele>
        <time>2020-08-14T08:21:54.275Z</time>
      </trkpt>
      <trkpt lat="37.397019" lon="-5.437150">
        <ele>128.621408</ele>
        <time>2020-08-14T08:21:57.281Z</time>
      </trkpt>
      <trkpt lat="37.397033" lon="-5.437282">
        <ele>128.720497</ele>
        <time>2020-08-14T08:22:00.270Z</time>
      </trkpt>
      <trkpt lat="37.397031" lon="-5.437433">
        <ele>128.832867</ele>
        <time>2020-08-14T08:22:05.310Z</time>
      </trkpt>
      <trkpt lat="37.397009" lon="-5.437605">
        <ele>128.962495</ele>
        <time>2020-08-14T08:22:07.252Z</time>
      </trkpt>
      <trkpt lat="37.396982" lon="-5.437731">
        <ele>129.059599</ele>
        <time>2020-08-14T08:22:09.267Z</time>
      </trkpt>
      <trkpt lat="37.396947" lon="-5.437878">
        <ele>129.173784</ele>
        <time>2020-08-14T08:22:11.275Z</time>
      </trkpt>
      <trkpt lat="37.396892" lon="-5.437971">
        <ele>129.260051</ele>
        <time>2020-08-14T08:22:13.276Z</time>
      </trkpt>
      <trkpt lat="37.396883" lon="-5.438133">
        <ele>129.380884</ele>
        <time>2020-08-14T08:22:16.251Z</time>
      </trkpt>
      <trkpt lat="37.396890" lon="-5.438271">
        <ele>129.483775</ele>
        <time>2020-08-14T08:22:21.259Z</time>
      </trkpt>
      <trkpt lat="37.396903" lon="-5.438450">
        <ele>129.617519</ele>
        <time>2020-08-14T08:22:24.280Z</time>
      </trkpt>
      <trkpt lat="37.396895" lon="-5.438565">
        <ele>129.703415</ele>
        <time>2020-08-14T08:22:26.269Z</time>
      </trkpt>
      <trkpt lat="37.396864" lon="-5.438692">
        <ele>129.802272</ele>
        <time>2020-08-14T08:22:28.264Z</time>
      </trkpt>
      <trkpt lat="37.396875" lon="-5.438809">
        <ele>129.889936</ele>
        <time>2020-08-14T08:22:30.266Z</time>
      </trkpt>
      <trkpt lat="37.396839" lon="-5.438926">
        <ele>129.816104</ele>
        <time>2020-08-14T08:22:32.249Z</time>
      </trkpt>
      <trkpt lat="37.396825" lon="-5.439048">
        <ele>129.564562</ele>
        <time>2020-08-14T08:22:36.281Z</time>
      </trkpt>
      <trkpt lat="37.396843" lon="-5.439206">
        <ele>129.238842</ele>
        <time>2020-08-14T08:22:40.281Z</time>
      </trkpt>
      <trkpt lat="37.396859" lon="-5.439330">
        <ele>128.982487</ele>
        <time>2020-08-14T08:22:42.269Z</time>
      </trkpt>
      <trkpt lat="37.396855" lon="-5.439464">
        <ele>128.708847</ele>
        <time>2020-08-14T08:22:45.271Z</time>
      </trkpt>
      <trkpt lat="37.396810" lon="-5.439586">
        <ele>128.434364</ele>
        <time>2020-08-14T08:22:47.248Z</time>
      </trkpt>
      <trkpt lat="37.396773" lon="-5.439694">
        <ele>128.194356</ele>
        <time>2020-08-14T08:22:49.252Z</time>
      </trkpt>
      <trkpt lat="37.396791" lon="-5.439819">
        <ele>127.935119</ele>
        <time>2020-08-14T08:22:52.262Z</time>
      </trkpt>
      <trkpt lat="37.396806" lon="-5.439937">
        <ele>127.691260</ele>
        <time>2020-08-14T08:22:59.241Z</time>
      </trkpt>
      <trkpt lat="37.396450" lon="-5.440030">
        <ele>126.757341</ele>
        <time>2020-08-14T08:23:07.261Z</time>
      </trkpt>
      <trkpt lat="37.396365" lon="-5.439971">
        <ele>126.508011</ele>
        <time>2020-08-14T08:23:09.239Z</time>
      </trkpt>
      <trkpt lat="37.396260" lon="-5.439959">
        <ele>126.237196</ele>
        <time>2020-08-14T08:23:12.263Z</time>
      </trkpt>
      <trkpt lat="37.396126" lon="-5.439941">
        <ele>125.891045</ele>
        <time>2020-08-14T08:23:17.243Z</time>
      </trkpt>
      <trkpt lat="37.396007" lon="-5.439911">
        <ele>125.579308</ele>
        <time>2020-08-14T08:23:18.252Z</time>
      </trkpt>
      <trkpt lat="37.395913" lon="-5.439906">
        <ele>125.337641</ele>
        <time>2020-08-14T08:23:20.260Z</time>
      </trkpt>
      <trkpt lat="37.395790" lon="-5.439940">
        <ele>125.567810</ele>
        <time>2020-08-14T08:23:23.265Z</time>
      </trkpt>
      <trkpt lat="37.395681" lon="-5.439935">
        <ele>125.797207</ele>
        <time>2020-08-14T08:23:26.268Z</time>
      </trkpt>
      <trkpt lat="37.395547" lon="-5.439964">
        <ele>126.083165</ele>
        <time>2020-08-14T08:23:28.263Z</time>
      </trkpt>
      <trkpt lat="37.395388" lon="-5.440029">
        <ele>126.434762</ele>
        <time>2020-08-14T08:23:30.278Z</time>
      </trkpt>
      <trkpt lat="37.395296" lon="-5.440098">
        <ele>126.659996</ele>
        <time>2020-08-14T08:23:33.246Z</time>
      </trkpt>
      <trkpt lat="37.395204" lon="-5.440147">
        <ele>126.870096</ele>
        <time>2020-08-14T08:23:36.263Z</time>
      </trkpt>
      <trkpt lat="37.395084" lon="-5.440242">
        <ele>127.168243</ele>
        <time>2020-08-14T08:23:41.242Z</time>
      </trkpt>
      <trkpt lat="37.394982" lon="-5.440311">
        <ele>127.411783</ele>
        <time>2020-08-14T08:23:42.239Z</time>
      </trkpt>
      <trkpt lat="37.394882" lon="-5.440353">
        <ele>127.633498</ele>
        <time>2020-08-14T08:23:45.252Z</time>
      </trkpt>
      <trkpt lat="37.394803" lon="-5.440414">
        <ele>127.828419</ele>
        <time>2020-08-14T08:23:48.252Z</time>
      </trkpt>
      <trkpt lat="37.394706" lon="-5.440452">
        <ele>128.042078</ele>
        <time>2020-08-14T08:23:51.264Z</time>
      </trkpt>
      <trkpt lat="37.394485" lon="-5.440581">
        <ele>128.554423</ele>
        <time>2020-08-14T08:23:56.271Z</time>
      </trkpt>
      <trkpt lat="37.394364" lon="-5.440643">
        <ele>128.829183</ele>
        <time>2020-08-14T08:23:59.247Z</time>
      </trkpt>
      <trkpt lat="37.394255" lon="-5.440682">
        <ele>129.067509</ele>
        <time>2020-08-14T08:24:01.256Z</time>
      </trkpt>
      <trkpt lat="37.394189" lon="-5.440782">
        <ele>129.436446</ele>
        <time>2020-08-14T08:24:03.256Z</time>
      </trkpt>
      <trkpt lat="37.394073" lon="-5.440828">
        <ele>129.903901</ele>
        <time>2020-08-14T08:24:08.242Z</time>
      </trkpt>
      <trkpt lat="37.393986" lon="-5.440909">
        <ele>130.319827</ele>
        <time>2020-08-14T08:24:10.234Z</time>
      </trkpt>
      <trkpt lat="37.393870" lon="-5.440974">
        <ele>130.807864</ele>
        <time>2020-08-14T08:24:13.247Z</time>
      </trkpt>
      <trkpt lat="37.393787" lon="-5.441032">
        <ele>131.172745</ele>
        <time>2020-08-14T08:24:17.275Z</time>
      </trkpt>
      <trkpt lat="37.393677" lon="-5.441086">
        <ele>131.626553</ele>
        <time>2020-08-14T08:24:20.232Z</time>
      </trkpt>
      <trkpt lat="37.393566" lon="-5.441121">
        <ele>132.066370</ele>
        <time>2020-08-14T08:24:21.249Z</time>
      </trkpt>
      <trkpt lat="37.393477" lon="-5.441161">
        <ele>132.429599</ele>
        <time>2020-08-14T08:24:24.264Z</time>
      </trkpt>
      <trkpt lat="37.393358" lon="-5.441219">
        <ele>132.920075</ele>
        <time>2020-08-14T08:24:28.256Z</time>
      </trkpt>
      <trkpt lat="37.393236" lon="-5.441295">
        <ele>133.443276</ele>
        <time>2020-08-14T08:24:31.248Z</time>
      </trkpt>
      <trkpt lat="37.393141" lon="-5.441349">
        <ele>133.843920</ele>
        <time>2020-08-14T08:24:34.247Z</time>
      </trkpt>
      <trkpt lat="37.393048" lon="-5.441406">
        <ele>134.241496</ele>
        <time>2020-08-14T08:24:38.275Z</time>
      </trkpt>
      <trkpt lat="37.392943" lon="-5.441463">
        <ele>134.681004</ele>
        <time>2020-08-14T08:24:41.263Z</time>
      </trkpt>
      <trkpt lat="37.392848" lon="-5.441520">
        <ele>135.085506</ele>
        <time>2020-08-14T08:24:44.268Z</time>
      </trkpt>
      <trkpt lat="37.392764" lon="-5.441569">
        <ele>135.441351</ele>
        <time>2020-08-14T08:24:46.250Z</time>
      </trkpt>
      <trkpt lat="37.392684" lon="-5.441632">
        <ele>135.804059</ele>
        <time>2020-08-14T08:24:49.253Z</time>
      </trkpt>
      <trkpt lat="37.392586" lon="-5.441692">
        <ele>136.890875</ele>
        <time>2020-08-14T08:24:52.246Z</time>
      </trkpt>
      <trkpt lat="37.392476" lon="-5.441729">
        <ele>138.731475</ele>
        <time>2020-08-14T08:24:55.252Z</time>
      </trkpt>
      <trkpt lat="37.392380" lon="-5.441764">
        <ele>140.347150</ele>
        <time>2020-08-14T08:24:58.264Z</time>
      </trkpt>
      <trkpt lat="37.392292" lon="-5.441825">
        <ele>141.971176</ele>
        <time>2020-08-14T08:25:01.252Z</time>
      </trkpt>
      <trkpt lat="37.392188" lon="-5.441890">
        <ele>143.848242</ele>
        <time>2020-08-14T08:25:04.249Z</time>
      </trkpt>
      <trkpt lat="37.392058" lon="-5.441956">
        <ele>146.114267</ele>
        <time>2020-08-14T08:25:07.262Z</time>
      </trkpt>
      <trkpt lat="37.391975" lon="-5.442025">
        <ele>147.722244</ele>
        <time>2020-08-14T08:25:10.254Z</time>
      </trkpt>
      <trkpt lat="37.391862" lon="-5.442087">
        <ele>149.714955</ele>
        <time>2020-08-14T08:25:13.237Z</time>
      </trkpt>
      <trkpt lat="37.391753" lon="-5.442130">
        <ele>151.561508</ele>
        <time>2020-08-14T08:25:16.260Z</time>
      </trkpt>
      <trkpt lat="37.391656" lon="-5.442157">
        <ele>153.167443</ele>
        <time>2020-08-14T08:25:19.250Z</time>
      </trkpt>
      <trkpt lat="37.391548" lon="-5.442170">
        <ele>154.921276</ele>
        <time>2020-08-14T08:25:22.246Z</time>
      </trkpt>
      <trkpt lat="37.391448" lon="-5.442163">
        <ele>156.540318</ele>
        <time>2020-08-14T08:25:25.255Z</time>
      </trkpt>
      <trkpt lat="37.391351" lon="-5.442113">
        <ele>158.234769</ele>
        <time>2020-08-14T08:25:29.247Z</time>
      </trkpt>
      <trkpt lat="37.391373" lon="-5.442254">
        <ele>160.080299</ele>
        <time>2020-08-14T08:25:35.234Z</time>
      </trkpt>
      <trkpt lat="37.391464" lon="-5.442329">
        <ele>161.838674</ele>
        <time>2020-08-14T08:25:38.258Z</time>
      </trkpt>
      <trkpt lat="37.391565" lon="-5.442396">
        <ele>163.684271</ele>
        <time>2020-08-14T08:25:41.253Z</time>
      </trkpt>
      <trkpt lat="37.391669" lon="-5.442470">
        <ele>165.007305</ele>
        <time>2020-08-14T08:25:44.248Z</time>
      </trkpt>
      <trkpt lat="37.391756" lon="-5.442515">
        <ele>164.766600</ele>
        <time>2020-08-14T08:25:47.256Z</time>
      </trkpt>
      <trkpt lat="37.391831" lon="-5.442586">
        <ele>164.526443</ele>
        <time>2020-08-14T08:25:50.259Z</time>
      </trkpt>
      <trkpt lat="37.391912" lon="-5.442663">
        <ele>164.266681</ele>
        <time>2020-08-14T08:25:53.269Z</time>
      </trkpt>
      <trkpt lat="37.392014" lon="-5.442711">
        <ele>163.988010</ele>
        <time>2020-08-14T08:25:56.239Z</time>
      </trkpt>
      <trkpt lat="37.392121" lon="-5.442779">
        <ele>163.681266</ele>
        <time>2020-08-14T08:25:59.264Z</time>
      </trkpt>
      <trkpt lat="37.392232" lon="-5.442843">
        <ele>163.368824</ele>
        <time>2020-08-14T08:26:02.242Z</time>
      </trkpt>
      <trkpt lat="37.392331" lon="-5.442934">
        <ele>163.055110</ele>
        <time>2020-08-14T08:26:05.268Z</time>
      </trkpt>
      <trkpt lat="37.392452" lon="-5.442997">
        <ele>162.720016</ele>
        <time>2020-08-14T08:26:08.253Z</time>
      </trkpt>
      <trkpt lat="37.392540" lon="-5.443041">
        <ele>162.477701</ele>
        <time>2020-08-14T08:26:10.242Z</time>
      </trkpt>
      <trkpt lat="37.392646" lon="-5.443145">
        <ele>162.133764</ele>
        <time>2020-08-14T08:26:13.261Z</time>
      </trkpt>
      <trkpt lat="37.392742" lon="-5.443181">
        <ele>161.877422</ele>
        <time>2020-08-14T08:26:15.254Z</time>
      </trkpt>
      <trkpt lat="37.392815" lon="-5.443250">
        <ele>161.643800</ele>
        <time>2020-08-14T08:26:17.253Z</time>
      </trkpt>
      <trkpt lat="37.392915" lon="-5.443366">
        <ele>161.295790</ele>
        <time>2020-08-14T08:26:20.245Z</time>
      </trkpt>
      <trkpt lat="37.393018" lon="-5.443466">
        <ele>160.962904</ele>
        <time>2020-08-14T08:26:23.256Z</time>
      </trkpt>
      <trkpt lat="37.393069" lon="-5.443576">
        <ele>160.703962</ele>
        <time>2020-08-14T08:26:25.280Z</time>
      </trkpt>
      <trkpt lat="37.393143" lon="-5.443709">
        <ele>159.875884</ele>
        <time>2020-08-14T08:26:28.246Z</time>
      </trkpt>
      <trkpt lat="37.393192" lon="-5.443813">
        <ele>158.553912</ele>
        <time>2020-08-14T08:26:30.252Z</time>
      </trkpt>
      <trkpt lat="37.393257" lon="-5.443917">
        <ele>157.107179</ele>
        <time>2020-08-14T08:26:32.244Z</time>
      </trkpt>
      <trkpt lat="37.393304" lon="-5.444016">
        <ele>155.846260</ele>
        <time>2020-08-14T08:26:34.250Z</time>
      </trkpt>
      <trkpt lat="37.393355" lon="-5.444126">
        <ele>154.453793</ele>
        <time>2020-08-14T08:26:36.264Z</time>
      </trkpt>
      <trkpt lat="37.393392" lon="-5.444243">
        <ele>153.076987</ele>
        <time>2020-08-14T08:26:38.262Z</time>
      </trkpt>
      <trkpt lat="37.393429" lon="-5.444380">
        <ele>151.494951</ele>
        <time>2020-08-14T08:26:40.299Z</time>
      </trkpt>
      <trkpt lat="37.393478" lon="-5.444497">
        <ele>150.048912</ele>
        <time>2020-08-14T08:26:42.270Z</time>
      </trkpt>
      <trkpt lat="37.393520" lon="-5.444620">
        <ele>148.585175</ele>
        <time>2020-08-14T08:26:44.249Z</time>
      </trkpt>
      <trkpt lat="37.393544" lon="-5.444752">
        <ele>147.104676</ele>
        <time>2020-08-14T08:26:46.270Z</time>
      </trkpt>
      <trkpt lat="37.393577" lon="-5.444882">
        <ele>145.612566</ele>
        <time>2020-08-14T08:26:48.271Z</time>
      </trkpt>
      <trkpt lat="37.393623" lon="-5.445013">
        <ele>144.046655</ele>
        <time>2020-08-14T08:26:50.262Z</time>
      </trkpt>
      <trkpt lat="37.393676" lon="-5.445114">
        <ele>142.723270</ele>
        <time>2020-08-14T08:26:52.245Z</time>
      </trkpt>
      <trkpt lat="37.393720" lon="-5.445249">
        <ele>141.127911</ele>
        <time>2020-08-14T08:26:54.251Z</time>
      </trkpt>
      <trkpt lat="37.393759" lon="-5.445381">
        <ele>139.588162</ele>
        <time>2020-08-14T08:26:56.260Z</time>
      </trkpt>
      <trkpt lat="37.393820" lon="-5.445495">
        <ele>138.085446</ele>
        <time>2020-08-14T08:26:58.255Z</time>
      </trkpt>
      <trkpt lat="37.393882" lon="-5.445599">
        <ele>136.663876</ele>
        <time>2020-08-14T08:27:00.255Z</time>
      </trkpt>
      <trkpt lat="37.393940" lon="-5.445720">
        <ele>135.738685</ele>
        <time>2020-08-14T08:27:02.264Z</time>
      </trkpt>
      <trkpt lat="37.393997" lon="-5.445829">
        <ele>135.745773</ele>
        <time>2020-08-14T08:27:04.267Z</time>
      </trkpt>
      <trkpt lat="37.394056" lon="-5.445948">
        <ele>135.753393</ele>
        <time>2020-08-14T08:27:06.253Z</time>
      </trkpt>
      <trkpt lat="37.394115" lon="-5.446053">
        <ele>135.760379</ele>
        <time>2020-08-14T08:27:08.271Z</time>
      </trkpt>
      <trkpt lat="37.394157" lon="-5.446166">
        <ele>135.767156</ele>
        <time>2020-08-14T08:27:10.264Z</time>
      </trkpt>
      <trkpt lat="37.394199" lon="-5.446281">
        <ele>135.774031</ele>
        <time>2020-08-14T08:27:12.272Z</time>
      </trkpt>
      <trkpt lat="37.394266" lon="-5.446394">
        <ele>135.781690</ele>
        <time>2020-08-14T08:27:14.247Z</time>
      </trkpt>
      <trkpt lat="37.394310" lon="-5.446506">
        <ele>135.788477</ele>
        <time>2020-08-14T08:27:16.246Z</time>
      </trkpt>
      <trkpt lat="37.394364" lon="-5.446605">
        <ele>135.795000</ele>
        <time>2020-08-14T08:27:18.240Z</time>
      </trkpt>
      <trkpt lat="37.394424" lon="-5.446756">
        <ele>135.804172</ele>
        <time>2020-08-14T08:27:21.240Z</time>
      </trkpt>
      <trkpt lat="37.394471" lon="-5.446863">
        <ele>135.810813</ele>
        <time>2020-08-14T08:27:23.248Z</time>
      </trkpt>
      <trkpt lat="37.394543" lon="-5.447000">
        <ele>135.819736</ele>
        <time>2020-08-14T08:27:26.265Z</time>
      </trkpt>
      <trkpt lat="37.394590" lon="-5.447109">
        <ele>135.826473</ele>
        <time>2020-08-14T08:27:28.240Z</time>
      </trkpt>
      <trkpt lat="37.394659" lon="-5.447212">
        <ele>135.833791</ele>
        <time>2020-08-14T08:27:30.246Z</time>
      </trkpt>
      <trkpt lat="37.394709" lon="-5.447315">
        <ele>135.840348</ele>
        <time>2020-08-14T08:27:32.255Z</time>
      </trkpt>
      <trkpt lat="37.394755" lon="-5.447417">
        <ele>135.846719</ele>
        <time>2020-08-14T08:27:34.243Z</time>
      </trkpt>
      <trkpt lat="37.394798" lon="-5.447529">
        <ele>135.853476</ele>
        <time>2020-08-14T08:27:36.247Z</time>
      </trkpt>
      <trkpt lat="37.394840" lon="-5.447633">
        <ele>135.849674</ele>
        <time>2020-08-14T08:27:38.244Z</time>
      </trkpt>
      <trkpt lat="37.394879" lon="-5.447738">
        <ele>135.803405</ele>
        <time>2020-08-14T08:27:40.250Z</time>
      </trkpt>
      <trkpt lat="37.394936" lon="-5.447883">
        <ele>135.738827</ele>
        <time>2020-08-14T08:27:43.254Z</time>
      </trkpt>
      <trkpt lat="37.395020" lon="-5.448017">
        <ele>135.670691</ele>
        <time>2020-08-14T08:27:46.265Z</time>
      </trkpt>
      <trkpt lat="37.395058" lon="-5.448130">
        <ele>135.621710</ele>
        <time>2020-08-14T08:27:48.253Z</time>
      </trkpt>
      <trkpt lat="37.395131" lon="-5.448263">
        <ele>135.557182</ele>
        <time>2020-08-14T08:27:51.248Z</time>
      </trkpt>
      <trkpt lat="37.395170" lon="-5.448371">
        <ele>135.509826</ele>
        <time>2020-08-14T08:27:53.256Z</time>
      </trkpt>
      <trkpt lat="37.395235" lon="-5.448504">
        <ele>135.447495</ele>
        <time>2020-08-14T08:27:56.262Z</time>
      </trkpt>
      <trkpt lat="37.395314" lon="-5.448577">
        <ele>135.398254</ele>
        <time>2020-08-14T08:27:58.242Z</time>
      </trkpt>
      <trkpt lat="37.395356" lon="-5.448684">
        <ele>135.350613</ele>
        <time>2020-08-14T08:28:00.243Z</time>
      </trkpt>
      <trkpt lat="37.395405" lon="-5.448781">
        <ele>135.304729</ele>
        <time>2020-08-14T08:28:03.281Z</time>
      </trkpt>
      <trkpt lat="37.395490" lon="-5.448887">
        <ele>135.244610</ele>
        <time>2020-08-14T08:28:06.284Z</time>
      </trkpt>
      <trkpt lat="37.395549" lon="-5.448977">
        <ele>135.198033</ele>
        <time>2020-08-14T08:28:08.268Z</time>
      </trkpt>
      <trkpt lat="37.395605" lon="-5.449084">
        <ele>135.146886</ele>
        <time>2020-08-14T08:28:10.269Z</time>
      </trkpt>
      <trkpt lat="37.395657" lon="-5.449192">
        <ele>135.096476</ele>
        <time>2020-08-14T08:28:12.270Z</time>
      </trkpt>
      <trkpt lat="37.395715" lon="-5.449303">
        <ele>135.043443</ele>
        <time>2020-08-14T08:28:14.252Z</time>
      </trkpt>
      <trkpt lat="37.395770" lon="-5.449398">
        <ele>134.996521</ele>
        <time>2020-08-14T08:28:16.277Z</time>
      </trkpt>
      <trkpt lat="37.395823" lon="-5.449491">
        <ele>134.953210</ele>
        <time>2020-08-14T08:28:18.271Z</time>
      </trkpt>
      <trkpt lat="37.395898" lon="-5.449614">
        <ele>134.927681</ele>
        <time>2020-08-14T08:28:21.275Z</time>
      </trkpt>
      <trkpt lat="37.395958" lon="-5.449719">
        <ele>134.906386</ele>
        <time>2020-08-14T08:28:23.282Z</time>
      </trkpt>
      <trkpt lat="37.396021" lon="-5.449821">
        <ele>134.885113</ele>
        <time>2020-08-14T08:28:25.272Z</time>
      </trkpt>
      <trkpt lat="37.396079" lon="-5.449919">
        <ele>134.864992</ele>
        <time>2020-08-14T08:28:27.264Z</time>
      </trkpt>
      <trkpt lat="37.396142" lon="-5.450003">
        <ele>134.845973</ele>
        <time>2020-08-14T08:28:29.250Z</time>
      </trkpt>
      <trkpt lat="37.396193" lon="-5.450120">
        <ele>134.824000</ele>
        <time>2020-08-14T08:28:31.269Z</time>
      </trkpt>
      <trkpt lat="37.396307" lon="-5.450270">
        <ele>134.789822</ele>
        <time>2020-08-14T08:28:35.260Z</time>
      </trkpt>
      <trkpt lat="37.396371" lon="-5.450360">
        <ele>134.769934</ele>
        <time>2020-08-14T08:28:36.272Z</time>
      </trkpt>
      <trkpt lat="37.396447" lon="-5.450467">
        <ele>134.746303</ele>
        <time>2020-08-14T08:28:39.270Z</time>
      </trkpt>
      <trkpt lat="37.396503" lon="-5.450559">
        <ele>134.727220</ele>
        <time>2020-08-14T08:28:41.267Z</time>
      </trkpt>
      <trkpt lat="37.396545" lon="-5.450660">
        <ele>134.708450</ele>
        <time>2020-08-14T08:28:43.280Z</time>
      </trkpt>
      <trkpt lat="37.396627" lon="-5.450763">
        <ele>134.684442</ele>
        <time>2020-08-14T08:28:47.242Z</time>
      </trkpt>
      <trkpt lat="37.396709" lon="-5.450883">
        <ele>134.658381</ele>
        <time>2020-08-14T08:28:49.249Z</time>
      </trkpt>
      <trkpt lat="37.396756" lon="-5.450993">
        <ele>134.637817</ele>
        <time>2020-08-14T08:28:51.258Z</time>
      </trkpt>
      <trkpt lat="37.396838" lon="-5.451115">
        <ele>134.611506</ele>
        <time>2020-08-14T08:28:54.270Z</time>
      </trkpt>
      <trkpt lat="37.396933" lon="-5.451275">
        <ele>134.584044</ele>
        <time>2020-08-14T08:28:56.276Z</time>
      </trkpt>
      <trkpt lat="37.397043" lon="-5.451403">
        <ele>134.601155</ele>
        <time>2020-08-14T08:28:59.246Z</time>
      </trkpt>
      <trkpt lat="37.397087" lon="-5.451506">
        <ele>134.611767</ele>
        <time>2020-08-14T08:29:01.243Z</time>
      </trkpt>
      <trkpt lat="37.397156" lon="-5.451593">
        <ele>134.622922</ele>
        <time>2020-08-14T08:29:03.259Z</time>
      </trkpt>
      <trkpt lat="37.397220" lon="-5.451678">
        <ele>134.633549</ele>
        <time>2020-08-14T08:29:05.257Z</time>
      </trkpt>
      <trkpt lat="37.397293" lon="-5.451791">
        <ele>134.646765</ele>
        <time>2020-08-14T08:29:09.272Z</time>
      </trkpt>
      <trkpt lat="37.397371" lon="-5.451938">
        <ele>134.662806</ele>
        <time>2020-08-14T08:29:12.275Z</time>
      </trkpt>
      <trkpt lat="37.397448" lon="-5.452085">
        <ele>134.678784</ele>
        <time>2020-08-14T08:29:14.268Z</time>
      </trkpt>
      <trkpt lat="37.397521" lon="-5.452218">
        <ele>134.693453</ele>
        <time>2020-08-14T08:29:16.275Z</time>
      </trkpt>
      <trkpt lat="37.397583" lon="-5.452344">
        <ele>134.706902</ele>
        <time>2020-08-14T08:29:18.279Z</time>
      </trkpt>
      <trkpt lat="37.397640" lon="-5.452466">
        <ele>134.719745</ele>
        <time>2020-08-14T08:29:20.281Z</time>
      </trkpt>
      <trkpt lat="37.397706" lon="-5.452576">
        <ele>134.732254</ele>
        <time>2020-08-14T08:29:22.282Z</time>
      </trkpt>
      <trkpt lat="37.397773" lon="-5.452681">
        <ele>134.744475</ele>
        <time>2020-08-14T08:29:24.279Z</time>
      </trkpt>
      <trkpt lat="37.397847" lon="-5.452809">
        <ele>134.758840</ele>
        <time>2020-08-14T08:29:26.272Z</time>
      </trkpt>
      <trkpt lat="37.397925" lon="-5.452926">
        <ele>134.772699</ele>
        <time>2020-08-14T08:29:28.286Z</time>
      </trkpt>
      <trkpt lat="37.397992" lon="-5.453037">
        <ele>134.785349</ele>
        <time>2020-08-14T08:29:30.268Z</time>
      </trkpt>
      <trkpt lat="37.398045" lon="-5.453139">
        <ele>134.615259</ele>
        <time>2020-08-14T08:29:32.279Z</time>
      </trkpt>
      <trkpt lat="37.398102" lon="-5.453244">
        <ele>134.390540</ele>
        <time>2020-08-14T08:29:34.275Z</time>
      </trkpt>
      <trkpt lat="37.398163" lon="-5.453335">
        <ele>134.180146</ele>
        <time>2020-08-14T08:29:36.283Z</time>
      </trkpt>
      <trkpt lat="37.398231" lon="-5.453474">
        <ele>133.891694</ele>
        <time>2020-08-14T08:29:39.274Z</time>
      </trkpt>
      <trkpt lat="37.398304" lon="-5.453601">
        <ele>133.614700</ele>
        <time>2020-08-14T08:29:42.283Z</time>
      </trkpt>
      <trkpt lat="37.398417" lon="-5.453659">
        <ele>133.343266</ele>
        <time>2020-08-14T08:29:47.268Z</time>
      </trkpt>
      <trkpt lat="37.398511" lon="-5.453770">
        <ele>133.056586</ele>
        <time>2020-08-14T08:29:50.270Z</time>
      </trkpt>
      <trkpt lat="37.398578" lon="-5.453874">
        <ele>132.819984</ele>
        <time>2020-08-14T08:29:52.274Z</time>
      </trkpt>
      <trkpt lat="37.398658" lon="-5.453949">
        <ele>132.598114</ele>
        <time>2020-08-14T08:29:54.266Z</time>
      </trkpt>
      <trkpt lat="37.398725" lon="-5.454043">
        <ele>132.374960</ele>
        <time>2020-08-14T08:29:56.287Z</time>
      </trkpt>
      <trkpt lat="37.398800" lon="-5.454222">
        <ele>132.017368</ele>
        <time>2020-08-14T08:29:59.271Z</time>
      </trkpt>
      <trkpt lat="37.398891" lon="-5.454344">
        <ele>131.721662</ele>
        <time>2020-08-14T08:30:01.255Z</time>
      </trkpt>
      <trkpt lat="37.398970" lon="-5.454424">
        <ele>131.496141</ele>
        <time>2020-08-14T08:30:03.246Z</time>
      </trkpt>
      <trkpt lat="37.399041" lon="-5.454524">
        <ele>131.259154</ele>
        <time>2020-08-14T08:30:05.275Z</time>
      </trkpt>
      <trkpt lat="37.399108" lon="-5.454612">
        <ele>131.043775</ele>
        <time>2020-08-14T08:30:07.274Z</time>
      </trkpt>
      <trkpt lat="37.399159" lon="-5.454712">
        <ele>130.833796</ele>
        <time>2020-08-14T08:30:09.243Z</time>
      </trkpt>
      <trkpt lat="37.399218" lon="-5.454810">
        <ele>130.864469</ele>
        <time>2020-08-14T08:30:12.274Z</time>
      </trkpt>
      <trkpt lat="37.399282" lon="-5.454926">
        <ele>130.978084</ele>
        <time>2020-08-14T08:30:14.259Z</time>
      </trkpt>
      <trkpt lat="37.399334" lon="-5.455066">
        <ele>131.102411</ele>
        <time>2020-08-14T08:30:16.270Z</time>
      </trkpt>
      <trkpt lat="37.399397" lon="-5.455160">
        <ele>131.201346</ele>
        <time>2020-08-14T08:30:18.246Z</time>
      </trkpt>
      <trkpt lat="37.399451" lon="-5.455255">
        <ele>131.295318</ele>
        <time>2020-08-14T08:30:20.275Z</time>
      </trkpt>
      <trkpt lat="37.399501" lon="-5.455357">
        <ele>131.391737</ele>
        <time>2020-08-14T08:30:23.269Z</time>
      </trkpt>
      <trkpt lat="37.399555" lon="-5.455454">
        <ele>131.487022</ele>
        <time>2020-08-14T08:30:25.272Z</time>
      </trkpt>
      <trkpt lat="37.399609" lon="-5.455583">
        <ele>131.604323</ele>
        <time>2020-08-14T08:30:27.282Z</time>
      </trkpt>
      <trkpt lat="37.399677" lon="-5.455683">
        <ele>131.710215</ele>
        <time>2020-08-14T08:30:29.244Z</time>
      </trkpt>
      <trkpt lat="37.399749" lon="-5.455753">
        <ele>131.802340</ele>
        <time>2020-08-14T08:30:32.245Z</time>
      </trkpt>
      <trkpt lat="37.399806" lon="-5.455854">
        <ele>131.902005</ele>
        <time>2020-08-14T08:30:35.282Z</time>
      </trkpt>
      <trkpt lat="37.399849" lon="-5.455953">
        <ele>131.992773</ele>
        <time>2020-08-14T08:30:37.272Z</time>
      </trkpt>
      <trkpt lat="37.399922" lon="-5.456048">
        <ele>132.099098</ele>
        <time>2020-08-14T08:30:40.248Z</time>
      </trkpt>
      <trkpt lat="37.399969" lon="-5.456151">
        <ele>132.194653</ele>
        <time>2020-08-14T08:30:43.283Z</time>
      </trkpt>
      <trkpt lat="37.400036" lon="-5.456278">
        <ele>132.317295</ele>
        <time>2020-08-14T08:30:47.267Z</time>
      </trkpt>
      <trkpt lat="37.400114" lon="-5.456388">
        <ele>132.435908</ele>
        <time>2020-08-14T08:30:50.256Z</time>
      </trkpt>
      <trkpt lat="37.400171" lon="-5.456514">
        <ele>132.552552</ele>
        <time>2020-08-14T08:30:53.246Z</time>
      </trkpt>
      <trkpt lat="37.400250" lon="-5.456672">
        <ele>132.517007</ele>
        <time>2020-08-14T08:30:57.284Z</time>
      </trkpt>
      <trkpt lat="37.400308" lon="-5.456795">
        <ele>132.405830</ele>
        <time>2020-08-14T08:30:59.265Z</time>
      </trkpt>
      <trkpt lat="37.400384" lon="-5.456930">
        <ele>132.277224</ele>
        <time>2020-08-14T08:31:02.267Z</time>
      </trkpt>
      <trkpt lat="37.400438" lon="-5.457028">
        <ele>132.184523</ele>
        <time>2020-08-14T08:31:04.280Z</time>
      </trkpt>
      <trkpt lat="37.400497" lon="-5.457141">
        <ele>132.079421</ele>
        <time>2020-08-14T08:31:06.264Z</time>
      </trkpt>
      <trkpt lat="37.400559" lon="-5.457235">
        <ele>131.984458</ele>
        <time>2020-08-14T08:31:08.259Z</time>
      </trkpt>
      <trkpt lat="37.400607" lon="-5.457360">
        <ele>131.876546</ele>
        <time>2020-08-14T08:31:11.253Z</time>
      </trkpt>
      <trkpt lat="37.400673" lon="-5.457492">
        <ele>131.755318</ele>
        <time>2020-08-14T08:31:13.261Z</time>
      </trkpt>
      <trkpt lat="37.400725" lon="-5.457603">
        <ele>131.655158</ele>
        <time>2020-08-14T08:31:15.264Z</time>
      </trkpt>
      <trkpt lat="37.400771" lon="-5.457705">
        <ele>131.563994</ele>
        <time>2020-08-14T08:31:17.255Z</time>
      </trkpt>
      <trkpt lat="37.400841" lon="-5.457852">
        <ele>131.430783</ele>
        <time>2020-08-14T08:31:20.276Z</time>
      </trkpt>
      <trkpt lat="37.400897" lon="-5.457958">
        <ele>131.331838</ele>
        <time>2020-08-14T08:31:22.262Z</time>
      </trkpt>
      <trkpt lat="37.400961" lon="-5.458103">
        <ele>131.202909</ele>
        <time>2020-08-14T08:31:25.256Z</time>
      </trkpt>
      <trkpt lat="37.401039" lon="-5.458227">
        <ele>131.079974</ele>
        <time>2020-08-14T08:31:28.247Z</time>
      </trkpt>
      <trkpt lat="37.401098" lon="-5.458327">
        <ele>130.983157</ele>
        <time>2020-08-14T08:31:31.276Z</time>
      </trkpt>
      <trkpt lat="37.401151" lon="-5.458425">
        <ele>130.891010</ele>
        <time>2020-08-14T08:31:33.269Z</time>
      </trkpt>
      <trkpt lat="37.401229" lon="-5.458592">
        <ele>130.862832</ele>
        <time>2020-08-14T08:31:36.239Z</time>
      </trkpt>
      <trkpt lat="37.401290" lon="-5.458731">
        <ele>130.879247</ele>
        <time>2020-08-14T08:31:39.251Z</time>
      </trkpt>
      <trkpt lat="37.401351" lon="-5.458822">
        <ele>130.891555</ele>
        <time>2020-08-14T08:31:42.260Z</time>
      </trkpt>
      <trkpt lat="37.401430" lon="-5.458949">
        <ele>130.908229</ele>
        <time>2020-08-14T08:31:45.264Z</time>
      </trkpt>
      <trkpt lat="37.401524" lon="-5.459101">
        <ele>130.928141</ele>
        <time>2020-08-14T08:31:47.277Z</time>
      </trkpt>
      <trkpt lat="37.401586" lon="-5.459229">
        <ele>130.943638</ele>
        <time>2020-08-14T08:31:50.254Z</time>
      </trkpt>
      <trkpt lat="37.401637" lon="-5.459324">
        <ele>130.955490</ele>
        <time>2020-08-14T08:31:52.248Z</time>
      </trkpt>
      <trkpt lat="37.401689" lon="-5.459425">
        <ele>130.967932</ele>
        <time>2020-08-14T08:31:54.272Z</time>
      </trkpt>
      <trkpt lat="37.401769" lon="-5.459537">
        <ele>130.983501</ele>
        <time>2020-08-14T08:31:56.262Z</time>
      </trkpt>
      <trkpt lat="37.401817" lon="-5.459634">
        <ele>130.995314</ele>
        <time>2020-08-14T08:31:59.274Z</time>
      </trkpt>
      <trkpt lat="37.401869" lon="-5.459730">
        <ele>131.007325</ele>
        <time>2020-08-14T08:32:01.250Z</time>
      </trkpt>
      <trkpt lat="37.401933" lon="-5.459858">
        <ele>131.022959</ele>
        <time>2020-08-14T08:32:04.236Z</time>
      </trkpt>
      <trkpt lat="37.401997" lon="-5.459950">
        <ele>131.035600</ele>
        <time>2020-08-14T08:32:07.282Z</time>
      </trkpt>
      <trkpt lat="37.402090" lon="-5.460132">
        <ele>131.057969</ele>
        <time>2020-08-14T08:32:11.272Z</time>
      </trkpt>
      <trkpt lat="37.402155" lon="-5.460253">
        <ele>131.073068</ele>
        <time>2020-08-14T08:32:14.257Z</time>
      </trkpt>
      <trkpt lat="37.402228" lon="-5.460382">
        <ele>131.231622</ele>
        <time>2020-08-14T08:32:18.283Z</time>
      </trkpt>
      <trkpt lat="37.402316" lon="-5.460529">
        <ele>131.641058</ele>
        <time>2020-08-14T08:32:21.275Z</time>
      </trkpt>
      <trkpt lat="37.402381" lon="-5.460628">
        <ele>131.926753</ele>
        <time>2020-08-14T08:32:24.256Z</time>
      </trkpt>
      <trkpt lat="37.402442" lon="-5.460748">
        <ele>132.243651</ele>
        <time>2020-08-14T08:32:27.262Z</time>
      </trkpt>
      <trkpt lat="37.402479" lon="-5.460870">
        <ele>132.534131</ele>
        <time>2020-08-14T08:32:30.264Z</time>
      </trkpt>
      <trkpt lat="37.402535" lon="-5.460964">
        <ele>132.795489</ele>
        <time>2020-08-14T08:32:33.270Z</time>
      </trkpt>
      <trkpt lat="37.402601" lon="-5.461044">
        <ele>133.052044</ele>
        <time>2020-08-14T08:32:36.243Z</time>
      </trkpt>
      <trkpt lat="37.402662" lon="-5.461137">
        <ele>133.320315</ele>
        <time>2020-08-14T08:32:39.259Z</time>
      </trkpt>
      <trkpt lat="37.402717" lon="-5.461227">
        <ele>133.572893</ele>
        <time>2020-08-14T08:32:42.238Z</time>
      </trkpt>
      <trkpt lat="37.402781" lon="-5.461327">
        <ele>133.858539</ele>
        <time>2020-08-14T08:32:46.251Z</time>
      </trkpt>
      <trkpt lat="37.402863" lon="-5.461433">
        <ele>134.187651</ele>
        <time>2020-08-14T08:32:51.241Z</time>
      </trkpt>
      <trkpt lat="37.402930" lon="-5.461545">
        <ele>134.499521</ele>
        <time>2020-08-14T08:32:55.259Z</time>
      </trkpt>
      <trkpt lat="37.402982" lon="-5.461671">
        <ele>134.815357</ele>
        <time>2020-08-14T08:32:59.256Z</time>
      </trkpt>
      <trkpt lat="37.403043" lon="-5.461773">
        <ele>135.099351</ele>
        <time>2020-08-14T08:33:03.250Z</time>
      </trkpt>
      <trkpt lat="37.403113" lon="-5.461886">
        <ele>135.418095</ele>
        <time>2020-08-14T08:33:07.241Z</time>
      </trkpt>
      <trkpt lat="37.403182" lon="-5.462001">
        <ele>135.738664</ele>
        <time>2020-08-14T08:33:11.256Z</time>
      </trkpt>
      <trkpt lat="37.403243" lon="-5.462115">
        <ele>136.044403</ele>
        <time>2020-08-14T08:33:16.244Z</time>
      </trkpt>
      <trkpt lat="37.403303" lon="-5.462208">
        <ele>136.138556</ele>
        <time>2020-08-14T08:33:20.256Z</time>
      </trkpt>
      <trkpt lat="37.403364" lon="-5.462318">
        <ele>136.169060</ele>
        <time>2020-08-14T08:33:24.260Z</time>
      </trkpt>
      <trkpt lat="37.403434" lon="-5.462419">
        <ele>136.199539</ele>
        <time>2020-08-14T08:33:29.248Z</time>
      </trkpt>
      <trkpt lat="37.403503" lon="-5.462518">
        <ele>136.229486</ele>
        <time>2020-08-14T08:33:34.254Z</time>
      </trkpt>
      <trkpt lat="37.403565" lon="-5.462621">
        <ele>136.258872</ele>
        <time>2020-08-14T08:33:39.236Z</time>
      </trkpt>
      <trkpt lat="37.403618" lon="-5.462740">
        <ele>136.289894</ele>
        <time>2020-08-14T08:33:44.255Z</time>
      </trkpt>
      <trkpt lat="37.403662" lon="-5.462855">
        <ele>136.318918</ele>
        <time>2020-08-14T08:33:48.249Z</time>
      </trkpt>
      <trkpt lat="37.403720" lon="-5.462981">
        <ele>136.352031</ele>
        <time>2020-08-14T08:33:52.252Z</time>
      </trkpt>
      <trkpt lat="37.403773" lon="-5.463106">
        <ele>136.384250</ele>
        <time>2020-08-14T08:33:55.264Z</time>
      </trkpt>
      <trkpt lat="37.403810" lon="-5.463224">
        <ele>136.413096</ele>
        <time>2020-08-14T08:33:57.250Z</time>
      </trkpt>
      <trkpt lat="37.403860" lon="-5.463357">
        <ele>136.446554</ele>
        <time>2020-08-14T08:33:59.262Z</time>
      </trkpt>
      <trkpt lat="37.403907" lon="-5.463512">
        <ele>136.484280</ele>
        <time>2020-08-14T08:34:01.263Z</time>
      </trkpt>
      <trkpt lat="37.403940" lon="-5.463685">
        <ele>136.524736</ele>
        <time>2020-08-14T08:34:03.251Z</time>
      </trkpt>
      <trkpt lat="37.403979" lon="-5.463870">
        <ele>136.568258</ele>
        <time>2020-08-14T08:34:05.252Z</time>
      </trkpt>
      <trkpt lat="37.404017" lon="-5.464046">
        <ele>136.609730</ele>
        <time>2020-08-14T08:34:07.262Z</time>
      </trkpt>
      <trkpt lat="37.404042" lon="-5.464241">
        <ele>136.530519</ele>
        <time>2020-08-14T08:34:09.245Z</time>
      </trkpt>
      <trkpt lat="37.404074" lon="-5.464411">
        <ele>136.333839</ele>
        <time>2020-08-14T08:34:11.264Z</time>
      </trkpt>
      <trkpt lat="37.404127" lon="-5.464549">
        <ele>136.161279</ele>
        <time>2020-08-14T08:34:13.248Z</time>
      </trkpt>
      <trkpt lat="37.404137" lon="-5.464721">
        <ele>135.967129</ele>
        <time>2020-08-14T08:34:15.259Z</time>
      </trkpt>
      <trkpt lat="37.404160" lon="-5.464874">
        <ele>135.791830</ele>
        <time>2020-08-14T08:34:17.254Z</time>
      </trkpt>
      <trkpt lat="37.404177" lon="-5.465034">
        <ele>135.610103</ele>
        <time>2020-08-14T08:34:19.272Z</time>
      </trkpt>
      <trkpt lat="37.404218" lon="-5.465178">
        <ele>135.437895</ele>
        <time>2020-08-14T08:34:21.263Z</time>
      </trkpt>
      <trkpt lat="37.404252" lon="-5.465333">
        <ele>135.256871</ele>
        <time>2020-08-14T08:34:23.248Z</time>
      </trkpt>
      <trkpt lat="37.404293" lon="-5.465464">
        <ele>135.098362</ele>
        <time>2020-08-14T08:34:25.271Z</time>
      </trkpt>
      <trkpt lat="37.404326" lon="-5.465600">
        <ele>134.938275</ele>
        <time>2020-08-14T08:34:27.250Z</time>
      </trkpt>
      <trkpt lat="37.404349" lon="-5.465752">
        <ele>134.764082</ele>
        <time>2020-08-14T08:34:29.252Z</time>
      </trkpt>
      <trkpt lat="37.404376" lon="-5.465884">
        <ele>134.610634</ele>
        <time>2020-08-14T08:34:31.262Z</time>
      </trkpt>
      <trkpt lat="37.404401" lon="-5.466007">
        <ele>134.467705</ele>
        <time>2020-08-14T08:34:33.242Z</time>
      </trkpt>
      <trkpt lat="37.404415" lon="-5.466134">
        <ele>134.323363</ele>
        <time>2020-08-14T08:34:35.265Z</time>
      </trkpt>
      <trkpt lat="37.404446" lon="-5.466251">
        <ele>134.184515</ele>
        <time>2020-08-14T08:34:37.272Z</time>
      </trkpt>
      <trkpt lat="37.404470" lon="-5.466371">
        <ele>134.076492</ele>
        <time>2020-08-14T08:34:39.248Z</time>
      </trkpt>
      <trkpt lat="37.404479" lon="-5.466508">
        <ele>134.044063</ele>
        <time>2020-08-14T08:34:41.246Z</time>
      </trkpt>
      <trkpt lat="37.404471" lon="-5.466645">
        <ele>134.011657</ele>
        <time>2020-08-14T08:34:43.248Z</time>
      </trkpt>
      <trkpt lat="37.404512" lon="-5.466791">
        <ele>133.975126</ele>
        <time>2020-08-14T08:34:46.253Z</time>
      </trkpt>
      <trkpt lat="37.404571" lon="-5.466935">
        <ele>133.936903</ele>
        <time>2020-08-14T08:34:49.250Z</time>
      </trkpt>
      <trkpt lat="37.404585" lon="-5.467066">
        <ele>133.905721</ele>
        <time>2020-08-14T08:34:51.249Z</time>
      </trkpt>
      <trkpt lat="37.404613" lon="-5.467226">
        <ele>133.867071</ele>
        <time>2020-08-14T08:34:54.260Z</time>
      </trkpt>
      <trkpt lat="37.404637" lon="-5.467345">
        <ele>133.838108</ele>
        <time>2020-08-14T08:34:56.271Z</time>
      </trkpt>
      <trkpt lat="37.404647" lon="-5.467482">
        <ele>133.805652</ele>
        <time>2020-08-14T08:34:58.244Z</time>
      </trkpt>
      <trkpt lat="37.404673" lon="-5.467595">
        <ele>133.777899</ele>
        <time>2020-08-14T08:35:00.244Z</time>
      </trkpt>
      <trkpt lat="37.404675" lon="-5.467722">
        <ele>133.747934</ele>
        <time>2020-08-14T08:35:02.265Z</time>
      </trkpt>
      <trkpt lat="37.404674" lon="-5.467858">
        <ele>133.715849</ele>
        <time>2020-08-14T08:35:04.245Z</time>
      </trkpt>
      <trkpt lat="37.404707" lon="-5.468020">
        <ele>133.676396</ele>
        <time>2020-08-14T08:35:07.252Z</time>
      </trkpt>
      <trkpt lat="37.404758" lon="-5.468176">
        <ele>133.636600</ele>
        <time>2020-08-14T08:35:10.259Z</time>
      </trkpt>
      <trkpt lat="37.404791" lon="-5.468342">
        <ele>133.596232</ele>
        <time>2020-08-14T08:35:13.250Z</time>
      </trkpt>
      <trkpt lat="37.404828" lon="-5.468446">
        <ele>133.569350</ele>
        <time>2020-08-14T08:35:15.260Z</time>
      </trkpt>
      <trkpt lat="37.404871" lon="-5.468612">
        <ele>133.487051</ele>
        <time>2020-08-14T08:35:18.229Z</time>
      </trkpt>
      <trkpt lat="37.404900" lon="-5.468727">
        <ele>133.406529</ele>
        <time>2020-08-14T08:35:20.252Z</time>
      </trkpt>
      <trkpt lat="37.404904" lon="-5.468844">
        <ele>133.328375</ele>
        <time>2020-08-14T08:35:22.239Z</time>
      </trkpt>
      <trkpt lat="37.404919" lon="-5.468970">
        <ele>133.243348</ele>
        <time>2020-08-14T08:35:24.232Z</time>
      </trkpt>
      <trkpt lat="37.404934" lon="-5.469082">
        <ele>133.167548</ele>
        <time>2020-08-14T08:35:26.249Z</time>
      </trkpt>
      <trkpt lat="37.404939" lon="-5.469254">
        <ele>133.052684</ele>
        <time>2020-08-14T08:35:29.250Z</time>
      </trkpt>
      <trkpt lat="37.404987" lon="-5.469394">
        <ele>132.950922</ele>
        <time>2020-08-14T08:35:32.270Z</time>
      </trkpt>
      <trkpt lat="37.405010" lon="-5.469532">
        <ele>132.856820</ele>
        <time>2020-08-14T08:35:35.254Z</time>
      </trkpt>
      <trkpt lat="37.405024" lon="-5.469680">
        <ele>132.757352</ele>
        <time>2020-08-14T08:35:38.265Z</time>
      </trkpt>
      <trkpt lat="37.405046" lon="-5.469846">
        <ele>132.645039</ele>
        <time>2020-08-14T08:35:41.258Z</time>
      </trkpt>
      <trkpt lat="37.405053" lon="-5.469972">
        <ele>132.560745</ele>
        <time>2020-08-14T08:35:43.252Z</time>
      </trkpt>
      <trkpt lat="37.405098" lon="-5.470108">
        <ele>132.462425</ele>
        <time>2020-08-14T08:35:46.260Z</time>
      </trkpt>
      <trkpt lat="37.405110" lon="-5.470270">
        <ele>132.353843</ele>
        <time>2020-08-14T08:35:49.264Z</time>
      </trkpt>
      <trkpt lat="37.405148" lon="-5.470421">
        <ele>132.248135</ele>
        <time>2020-08-14T08:35:52.263Z</time>
      </trkpt>
      <trkpt lat="37.405145" lon="-5.470563">
        <ele>132.153335</ele>
        <time>2020-08-14T08:35:54.261Z</time>
      </trkpt>
      <trkpt lat="37.405189" lon="-5.470713">
        <ele>132.046624</ele>
        <time>2020-08-14T08:35:57.256Z</time>
      </trkpt>
      <trkpt lat="37.405217" lon="-5.470823">
        <ele>132.120771</ele>
        <time>2020-08-14T08:35:59.251Z</time>
      </trkpt>
      <trkpt lat="37.405237" lon="-5.470975">
        <ele>132.240058</ele>
        <time>2020-08-14T08:36:02.267Z</time>
      </trkpt>
      <trkpt lat="37.405263" lon="-5.471131">
        <ele>132.363469</ele>
        <time>2020-08-14T08:36:05.260Z</time>
      </trkpt>
      <trkpt lat="37.405293" lon="-5.471273">
        <ele>132.477232</ele>
        <time>2020-08-14T08:36:08.263Z</time>
      </trkpt>
      <trkpt lat="37.405321" lon="-5.471413">
        <ele>132.589008</ele>
        <time>2020-08-14T08:36:11.256Z</time>
      </trkpt>
      <trkpt lat="37.405367" lon="-5.471545">
        <ele>132.700609</ele>
        <time>2020-08-14T08:36:14.253Z</time>
      </trkpt>
      <trkpt lat="37.405397" lon="-5.471666">
        <ele>132.798748</ele>
        <time>2020-08-14T08:36:17.266Z</time>
      </trkpt>
      <trkpt lat="37.405420" lon="-5.471806">
        <ele>132.909435</ele>
        <time>2020-08-14T08:36:20.260Z</time>
      </trkpt>
      <trkpt lat="37.405446" lon="-5.471955">
        <ele>133.027546</ele>
        <time>2020-08-14T08:36:23.258Z</time>
      </trkpt>
      <trkpt lat="37.405484" lon="-5.472103">
        <ele>133.147970</ele>
        <time>2020-08-14T08:36:26.260Z</time>
      </trkpt>
      <trkpt lat="37.405529" lon="-5.472242">
        <ele>133.264182</ele>
        <time>2020-08-14T08:36:29.264Z</time>
      </trkpt>
      <trkpt lat="37.405573" lon="-5.472399">
        <ele>133.393080</ele>
        <time>2020-08-14T08:36:32.244Z</time>
      </trkpt>
      <trkpt lat="37.405600" lon="-5.472509">
        <ele>133.482219</ele>
        <time>2020-08-14T08:36:34.267Z</time>
      </trkpt>
      <trkpt lat="37.405629" lon="-5.472617">
        <ele>133.570484</ele>
        <time>2020-08-14T08:36:36.256Z</time>
      </trkpt>
      <trkpt lat="37.405671" lon="-5.472720">
        <ele>133.660123</ele>
        <time>2020-08-14T08:36:38.252Z</time>
      </trkpt>
      <trkpt lat="37.405692" lon="-5.472835">
        <ele>133.751482</ele>
        <time>2020-08-14T08:36:40.238Z</time>
      </trkpt>
      <trkpt lat="37.405708" lon="-5.472983">
        <ele>133.663802</ele>
        <time>2020-08-14T08:36:42.252Z</time>
      </trkpt>
      <trkpt lat="37.405738" lon="-5.473112">
        <ele>133.483844</ele>
        <time>2020-08-14T08:36:44.249Z</time>
      </trkpt>
      <trkpt lat="37.405776" lon="-5.473231">
        <ele>133.312133</ele>
        <time>2020-08-14T08:36:46.233Z</time>
      </trkpt>
      <trkpt lat="37.405818" lon="-5.473352">
        <ele>133.135345</ele>
        <time>2020-08-14T08:36:48.243Z</time>
      </trkpt>
      <trkpt lat="37.405879" lon="-5.473493">
        <ele>132.920390</ele>
        <time>2020-08-14T08:36:51.260Z</time>
      </trkpt>
      <trkpt lat="37.405915" lon="-5.473611">
        <ele>132.751158</ele>
        <time>2020-08-14T08:36:53.268Z</time>
      </trkpt>
      <trkpt lat="37.405960" lon="-5.473733">
        <ele>132.571072</ele>
        <time>2020-08-14T08:36:56.247Z</time>
      </trkpt>
      <trkpt lat="37.406003" lon="-5.473874">
        <ele>132.368865</ele>
        <time>2020-08-14T08:36:59.251Z</time>
      </trkpt>
      <trkpt lat="37.406051" lon="-5.474013">
        <ele>132.165945</ele>
        <time>2020-08-14T08:37:03.265Z</time>
      </trkpt>
      <trkpt lat="37.406116" lon="-5.474118">
        <ele>131.987722</ele>
        <time>2020-08-14T08:37:06.274Z</time>
      </trkpt>
      <trkpt lat="37.406190" lon="-5.474223">
        <ele>131.799794</ele>
        <time>2020-08-14T08:37:09.241Z</time>
      </trkpt>
      <trkpt lat="37.406273" lon="-5.474347">
        <ele>131.582701</ele>
        <time>2020-08-14T08:37:12.263Z</time>
      </trkpt>
      <trkpt lat="37.406339" lon="-5.474472">
        <ele>131.381752</ele>
        <time>2020-08-14T08:37:15.256Z</time>
      </trkpt>
      <trkpt lat="37.406378" lon="-5.474577">
        <ele>131.226568</ele>
        <time>2020-08-14T08:37:17.250Z</time>
      </trkpt>
      <trkpt lat="37.406434" lon="-5.474677">
        <ele>131.062762</ele>
        <time>2020-08-14T08:37:19.256Z</time>
      </trkpt>
      <trkpt lat="37.406496" lon="-5.474762">
        <ele>130.908264</ele>
        <time>2020-08-14T08:37:21.251Z</time>
      </trkpt>
      <trkpt lat="37.406558" lon="-5.474856">
        <ele>130.766367</ele>
        <time>2020-08-14T08:37:23.247Z</time>
      </trkpt>
      <trkpt lat="37.406641" lon="-5.474952">
        <ele>130.826571</ele>
        <time>2020-08-14T08:37:25.269Z</time>
      </trkpt>
      <trkpt lat="37.406715" lon="-5.475075">
        <ele>130.892037</ele>
        <time>2020-08-14T08:37:27.273Z</time>
      </trkpt>
      <trkpt lat="37.406778" lon="-5.475216">
        <ele>130.960676</ele>
        <time>2020-08-14T08:37:29.253Z</time>
      </trkpt>
      <trkpt lat="37.406846" lon="-5.475362">
        <ele>131.032485</ele>
        <time>2020-08-14T08:37:31.255Z</time>
      </trkpt>
      <trkpt lat="37.406926" lon="-5.475509">
        <ele>131.108089</ele>
        <time>2020-08-14T08:37:33.249Z</time>
      </trkpt>
      <trkpt lat="37.407005" lon="-5.475656">
        <ele>131.183392</ele>
        <time>2020-08-14T08:37:35.258Z</time>
      </trkpt>
      <trkpt lat="37.407097" lon="-5.475786">
        <ele>131.257264</ele>
        <time>2020-08-14T08:37:37.266Z</time>
      </trkpt>
      <trkpt lat="37.407166" lon="-5.475931">
        <ele>131.328980</ele>
        <time>2020-08-14T08:37:39.247Z</time>
      </trkpt>
      <trkpt lat="37.407256" lon="-5.476066">
        <ele>131.403757</ele>
        <time>2020-08-14T08:37:41.241Z</time>
      </trkpt>
      <trkpt lat="37.407316" lon="-5.476194">
        <ele>131.466817</ele>
        <time>2020-08-14T08:37:43.260Z</time>
      </trkpt>
      <trkpt lat="37.407393" lon="-5.476325">
        <ele>131.535960</ele>
        <time>2020-08-14T08:37:45.250Z</time>
      </trkpt>
      <trkpt lat="37.407460" lon="-5.476439">
        <ele>131.596128</ele>
        <time>2020-08-14T08:37:47.284Z</time>
      </trkpt>
      <trkpt lat="37.407542" lon="-5.476546">
        <ele>131.659210</ele>
        <time>2020-08-14T08:37:49.260Z</time>
      </trkpt>
      <trkpt lat="37.407628" lon="-5.476649">
        <ele>131.722452</ele>
        <time>2020-08-14T08:37:51.246Z</time>
      </trkpt>
      <trkpt lat="37.407667" lon="-5.476770">
        <ele>131.765894</ele>
        <time>2020-08-14T08:37:53.248Z</time>
      </trkpt>
      <trkpt lat="37.407730" lon="-5.476879">
        <ele>131.810740</ele>
        <time>2020-08-14T08:37:55.256Z</time>
      </trkpt>
      <trkpt lat="37.407803" lon="-5.476981">
        <ele>131.856415</ele>
        <time>2020-08-14T08:37:57.243Z</time>
      </trkpt>
      <trkpt lat="37.407866" lon="-5.477081">
        <ele>131.898876</ele>
        <time>2020-08-14T08:37:59.245Z</time>
      </trkpt>
      <trkpt lat="37.407930" lon="-5.477177">
        <ele>131.940571</ele>
        <time>2020-08-14T08:38:01.268Z</time>
      </trkpt>
      <trkpt lat="37.407994" lon="-5.477272">
        <ele>131.982011</ele>
        <time>2020-08-14T08:38:03.261Z</time>
      </trkpt>
      <trkpt lat="37.408055" lon="-5.477370">
        <ele>132.023431</ele>
        <time>2020-08-14T08:38:05.244Z</time>
      </trkpt>
      <trkpt lat="37.408129" lon="-5.477453">
        <ele>132.064940</ele>
        <time>2020-08-14T08:38:07.272Z</time>
      </trkpt>
      <trkpt lat="37.408181" lon="-5.477567">
        <ele>132.108674</ele>
        <time>2020-08-14T08:38:09.268Z</time>
      </trkpt>
      <trkpt lat="37.408259" lon="-5.477635">
        <ele>132.148410</ele>
        <time>2020-08-14T08:38:11.242Z</time>
      </trkpt>
      <trkpt lat="37.408330" lon="-5.477714">
        <ele>132.188095</ele>
        <time>2020-08-14T08:38:13.250Z</time>
      </trkpt>
      <trkpt lat="37.408397" lon="-5.477843">
        <ele>132.239371</ele>
        <time>2020-08-14T08:38:16.258Z</time>
      </trkpt>
      <trkpt lat="37.408454" lon="-5.477984">
        <ele>132.292003</ele>
        <time>2020-08-14T08:38:19.257Z</time>
      </trkpt>
      <trkpt lat="37.408547" lon="-5.478109">
        <ele>132.348981</ele>
        <time>2020-08-14T08:38:22.260Z</time>
      </trkpt>
      <trkpt lat="37.408642" lon="-5.478244">
        <ele>132.408981</ele>
        <time>2020-08-14T08:38:25.264Z</time>
      </trkpt>
      <trkpt lat="37.408679" lon="-5.478355">
        <ele>132.449028</ele>
        <time>2020-08-14T08:38:27.258Z</time>
      </trkpt>
      <trkpt lat="37.408729" lon="-5.478460">
        <ele>132.478542</ele>
        <time>2020-08-14T08:38:29.248Z</time>
      </trkpt>
      <trkpt lat="37.408780" lon="-5.478585">
        <ele>132.489347</ele>
        <time>2020-08-14T08:38:31.264Z</time>
      </trkpt>
      <trkpt lat="37.408846" lon="-5.478729">
        <ele>132.502130</ele>
        <time>2020-08-14T08:38:34.257Z</time>
      </trkpt>
      <trkpt lat="37.408936" lon="-5.478847">
        <ele>132.514708</ele>
        <time>2020-08-14T08:38:37.261Z</time>
      </trkpt>
      <trkpt lat="37.409001" lon="-5.478929">
        <ele>132.523615</ele>
        <time>2020-08-14T08:38:39.271Z</time>
      </trkpt>
      <trkpt lat="37.409065" lon="-5.479035">
        <ele>132.533853</ele>
        <time>2020-08-14T08:38:41.266Z</time>
      </trkpt>
      <trkpt lat="37.409131" lon="-5.479113">
        <ele>132.542615</ele>
        <time>2020-08-14T08:38:43.272Z</time>
      </trkpt>
      <trkpt lat="37.409207" lon="-5.479192">
        <ele>132.552156</ele>
        <time>2020-08-14T08:38:45.262Z</time>
      </trkpt>
      <trkpt lat="37.409269" lon="-5.479279">
        <ele>132.561142</ele>
        <time>2020-08-14T08:38:47.251Z</time>
      </trkpt>
      <trkpt lat="37.409340" lon="-5.479362">
        <ele>132.570521</ele>
        <time>2020-08-14T08:38:49.260Z</time>
      </trkpt>
      <trkpt lat="37.409437" lon="-5.479479">
        <ele>132.583525</ele>
        <time>2020-08-14T08:38:52.247Z</time>
      </trkpt>
      <trkpt lat="37.409514" lon="-5.479602">
        <ele>132.595566</ele>
        <time>2020-08-14T08:38:55.257Z</time>
      </trkpt>
      <trkpt lat="37.409604" lon="-5.479712">
        <ele>132.607708</ele>
        <time>2020-08-14T08:38:58.253Z</time>
      </trkpt>
      <trkpt lat="37.409705" lon="-5.479824">
        <ele>132.620736</ele>
        <time>2020-08-14T08:39:01.241Z</time>
      </trkpt>
      <trkpt lat="37.409780" lon="-5.479888">
        <ele>132.629507</ele>
        <time>2020-08-14T08:39:03.253Z</time>
      </trkpt>
      <trkpt lat="37.409866" lon="-5.480003">
        <ele>132.641651</ele>
        <time>2020-08-14T08:39:06.267Z</time>
      </trkpt>
      <trkpt lat="37.409943" lon="-5.480067">
        <ele>132.646866</ele>
        <time>2020-08-14T08:39:08.251Z</time>
      </trkpt>
      <trkpt lat="37.410039" lon="-5.480176">
        <ele>132.623756</ele>
        <time>2020-08-14T08:39:11.255Z</time>
      </trkpt>
      <trkpt lat="37.410131" lon="-5.480270">
        <ele>132.602576</ele>
        <time>2020-08-14T08:39:14.262Z</time>
      </trkpt>
      <trkpt lat="37.410220" lon="-5.480350">
        <ele>132.583027</ele>
        <time>2020-08-14T08:39:17.256Z</time>
      </trkpt>
      <trkpt lat="37.410314" lon="-5.480447">
        <ele>132.561300</ele>
        <time>2020-08-14T08:39:20.251Z</time>
      </trkpt>
      <trkpt lat="37.410364" lon="-5.480548">
        <ele>132.544402</ele>
        <time>2020-08-14T08:39:22.260Z</time>
      </trkpt>
      <trkpt lat="37.410444" lon="-5.480633">
        <ele>132.525689</ele>
        <time>2020-08-14T08:39:24.258Z</time>
      </trkpt>
      <trkpt lat="37.410561" lon="-5.480654">
        <ele>132.504562</ele>
        <time>2020-08-14T08:39:27.251Z</time>
      </trkpt>
      <trkpt lat="37.410688" lon="-5.480725">
        <ele>132.479722</ele>
        <time>2020-08-14T08:39:29.275Z</time>
      </trkpt>
      <trkpt lat="37.410763" lon="-5.480836">
        <ele>132.459030</ele>
        <time>2020-08-14T08:39:33.266Z</time>
      </trkpt>
      <trkpt lat="37.410811" lon="-5.480944">
        <ele>132.441457</ele>
        <time>2020-08-14T08:39:35.270Z</time>
      </trkpt>
      <trkpt lat="37.410901" lon="-5.481000">
        <ele>132.423511</ele>
        <time>2020-08-14T08:39:37.249Z</time>
      </trkpt>
      <trkpt lat="37.410971" lon="-5.481074">
        <ele>132.407172</ele>
        <time>2020-08-14T08:39:39.266Z</time>
      </trkpt>
      <trkpt lat="37.411040" lon="-5.481161">
        <ele>132.389715</ele>
        <time>2020-08-14T08:39:41.266Z</time>
      </trkpt>
      <trkpt lat="37.411134" lon="-5.481264">
        <ele>132.367438</ele>
        <time>2020-08-14T08:39:44.251Z</time>
      </trkpt>
      <trkpt lat="37.411227" lon="-5.481348">
        <ele>132.346978</ele>
        <time>2020-08-14T08:39:47.261Z</time>
      </trkpt>
      <trkpt lat="37.411313" lon="-5.481421">
        <ele>132.328436</ele>
        <time>2020-08-14T08:39:50.251Z</time>
      </trkpt>
      <trkpt lat="37.411407" lon="-5.481486">
        <ele>132.312308</ele>
        <time>2020-08-14T08:39:53.240Z</time>
      </trkpt>
      <trkpt lat="37.411497" lon="-5.481566">
        <ele>132.295856</ele>
        <time>2020-08-14T08:39:56.252Z</time>
      </trkpt>
      <trkpt lat="37.411587" lon="-5.481652">
        <ele>132.278983</ele>
        <time>2020-08-14T08:39:59.241Z</time>
      </trkpt>
      <trkpt lat="37.411689" lon="-5.481717">
        <ele>132.261911</ele>
        <time>2020-08-14T08:40:02.249Z</time>
      </trkpt>
      <trkpt lat="37.411787" lon="-5.481782">
        <ele>132.245370</ele>
        <time>2020-08-14T08:40:05.254Z</time>
      </trkpt>
      <trkpt lat="37.411879" lon="-5.481854">
        <ele>132.229194</ele>
        <time>2020-08-14T08:40:08.255Z</time>
      </trkpt>
      <trkpt lat="37.411976" lon="-5.481906">
        <ele>132.213450</ele>
        <time>2020-08-14T08:40:11.264Z</time>
      </trkpt>
      <trkpt lat="37.412082" lon="-5.481970">
        <ele>132.195895</ele>
        <time>2020-08-14T08:40:14.250Z</time>
      </trkpt>
      <trkpt lat="37.412192" lon="-5.482051">
        <ele>132.176865</ele>
        <time>2020-08-14T08:40:17.255Z</time>
      </trkpt>
      <trkpt lat="37.412274" lon="-5.482157">
        <ele>132.159315</ele>
        <time>2020-08-14T08:40:20.260Z</time>
      </trkpt>
      <trkpt lat="37.412342" lon="-5.482292">
        <ele>132.140354</ele>
        <time>2020-08-14T08:40:23.233Z</time>
      </trkpt>
      <trkpt lat="37.412414" lon="-5.482420">
        <ele>132.121750</ele>
        <time>2020-08-14T08:40:26.254Z</time>
      </trkpt>
      <trkpt lat="37.412480" lon="-5.482557">
        <ele>132.102745</ele>
        <time>2020-08-14T08:40:29.242Z</time>
      </trkpt>
      <trkpt lat="37.412546" lon="-5.482689">
        <ele>132.084244</ele>
        <time>2020-08-14T08:40:32.243Z</time>
      </trkpt>
      <trkpt lat="37.412639" lon="-5.482799">
        <ele>132.065189</ele>
        <time>2020-08-14T08:40:35.247Z</time>
      </trkpt>
      <trkpt lat="37.412742" lon="-5.482888">
        <ele>132.091908</ele>
        <time>2020-08-14T08:40:38.263Z</time>
      </trkpt>
      <trkpt lat="37.412834" lon="-5.482987">
        <ele>132.138808</ele>
        <time>2020-08-14T08:40:41.247Z</time>
      </trkpt>
      <trkpt lat="37.412932" lon="-5.483088">
        <ele>132.187886</ele>
        <time>2020-08-14T08:40:44.244Z</time>
      </trkpt>
      <trkpt lat="37.413004" lon="-5.483168">
        <ele>132.225099</ele>
        <time>2020-08-14T08:40:46.276Z</time>
      </trkpt>
      <trkpt lat="37.413080" lon="-5.483244">
        <ele>132.262710</ele>
        <time>2020-08-14T08:40:48.259Z</time>
      </trkpt>
      <trkpt lat="37.413167" lon="-5.483354">
        <ele>132.310491</ele>
        <time>2020-08-14T08:40:51.256Z</time>
      </trkpt>
      <trkpt lat="37.413238" lon="-5.483471">
        <ele>132.355810</ele>
        <time>2020-08-14T08:40:54.256Z</time>
      </trkpt>
      <trkpt lat="37.413327" lon="-5.483585">
        <ele>132.405011</ele>
        <time>2020-08-14T08:40:57.244Z</time>
      </trkpt>
      <trkpt lat="37.413420" lon="-5.483692">
        <ele>132.453832</ele>
        <time>2020-08-14T08:41:00.258Z</time>
      </trkpt>
      <trkpt lat="37.413519" lon="-5.483803">
        <ele>132.505204</ele>
        <time>2020-08-14T08:41:03.259Z</time>
      </trkpt>
      <trkpt lat="37.413615" lon="-5.483915">
        <ele>132.555922</ele>
        <time>2020-08-14T08:41:06.274Z</time>
      </trkpt>
      <trkpt lat="37.413706" lon="-5.484038">
        <ele>132.607661</ele>
        <time>2020-08-14T08:41:09.263Z</time>
      </trkpt>
      <trkpt lat="37.413789" lon="-5.484149">
        <ele>132.654584</ele>
        <time>2020-08-14T08:41:12.268Z</time>
      </trkpt>
      <trkpt lat="37.413877" lon="-5.484269">
        <ele>132.704854</ele>
        <time>2020-08-14T08:41:15.265Z</time>
      </trkpt>
      <trkpt lat="37.413970" lon="-5.484413">
        <ele>132.757519</ele>
        <time>2020-08-14T08:41:18.261Z</time>
      </trkpt>
      <trkpt lat="37.414051" lon="-5.484547">
        <ele>132.769606</ele>
        <time>2020-08-14T08:41:21.269Z</time>
      </trkpt>
      <trkpt lat="37.414129" lon="-5.484668">
        <ele>132.780792</ele>
        <time>2020-08-14T08:41:24.259Z</time>
      </trkpt>
      <trkpt lat="37.414204" lon="-5.484789">
        <ele>132.791810</ele>
        <time>2020-08-14T08:41:27.255Z</time>
      </trkpt>
      <trkpt lat="37.414256" lon="-5.484882">
        <ele>132.799974</ele>
        <time>2020-08-14T08:41:29.268Z</time>
      </trkpt>
      <trkpt lat="37.414328" lon="-5.484964">
        <ele>132.808748</ele>
        <time>2020-08-14T08:41:31.264Z</time>
      </trkpt>
      <trkpt lat="37.414419" lon="-5.485078">
        <ele>132.820350</ele>
        <time>2020-08-14T08:41:34.241Z</time>
      </trkpt>
      <trkpt lat="37.414483" lon="-5.485184">
        <ele>132.829907</ele>
        <time>2020-08-14T08:41:37.253Z</time>
      </trkpt>
      <trkpt lat="37.414575" lon="-5.485293">
        <ele>132.841324</ele>
        <time>2020-08-14T08:41:40.250Z</time>
      </trkpt>
      <trkpt lat="37.414645" lon="-5.485430">
        <ele>132.853017</ele>
        <time>2020-08-14T08:41:43.246Z</time>
      </trkpt>
      <trkpt lat="37.414727" lon="-5.485551">
        <ele>132.864435</ele>
        <time>2020-08-14T08:41:46.246Z</time>
      </trkpt>
      <trkpt lat="37.414806" lon="-5.485666">
        <ele>132.875349</ele>
        <time>2020-08-14T08:41:49.262Z</time>
      </trkpt>
      <trkpt lat="37.414890" lon="-5.485770">
        <ele>132.885996</ele>
        <time>2020-08-14T08:41:52.243Z</time>
      </trkpt>
      <trkpt lat="37.414974" lon="-5.485873">
        <ele>132.896593</ele>
        <time>2020-08-14T08:41:55.267Z</time>
      </trkpt>
      <trkpt lat="37.415050" lon="-5.485971">
        <ele>132.906424</ele>
        <time>2020-08-14T08:41:58.241Z</time>
      </trkpt>
      <trkpt lat="37.415107" lon="-5.486088">
        <ele>132.916277</ele>
        <time>2020-08-14T08:42:01.262Z</time>
      </trkpt>
      <trkpt lat="37.415146" lon="-5.486216">
        <ele>132.739558</ele>
        <time>2020-08-14T08:42:04.255Z</time>
      </trkpt>
      <trkpt lat="37.415188" lon="-5.486354">
        <ele>132.482848</ele>
        <time>2020-08-14T08:42:07.250Z</time>
      </trkpt>
      <trkpt lat="37.415240" lon="-5.486491">
        <ele>132.219093</ele>
        <time>2020-08-14T08:42:10.242Z</time>
      </trkpt>
      <trkpt lat="37.415304" lon="-5.486606">
        <ele>131.975175</ele>
        <time>2020-08-14T08:42:13.246Z</time>
      </trkpt>
      <trkpt lat="37.415379" lon="-5.486720">
        <ele>131.718039</ele>
        <time>2020-08-14T08:42:16.259Z</time>
      </trkpt>
      <trkpt lat="37.415449" lon="-5.486835">
        <ele>131.466362</ele>
        <time>2020-08-14T08:42:19.252Z</time>
      </trkpt>
      <trkpt lat="37.415507" lon="-5.486940">
        <ele>131.244198</ele>
        <time>2020-08-14T08:42:22.252Z</time>
      </trkpt>
      <trkpt lat="37.415577" lon="-5.487038">
        <ele>131.015253</ele>
        <time>2020-08-14T08:42:25.264Z</time>
      </trkpt>
      <trkpt lat="37.415652" lon="-5.487142">
        <ele>130.771244</ele>
        <time>2020-08-14T08:42:28.258Z</time>
      </trkpt>
      <trkpt lat="37.415726" lon="-5.487239">
        <ele>130.537615</ele>
        <time>2020-08-14T08:42:31.262Z</time>
      </trkpt>
      <trkpt lat="37.415781" lon="-5.487347">
        <ele>130.314763</ele>
        <time>2020-08-14T08:42:34.239Z</time>
      </trkpt>
      <trkpt lat="37.415836" lon="-5.487449">
        <ele>130.100611</ele>
        <time>2020-08-14T08:42:37.252Z</time>
      </trkpt>
      <trkpt lat="37.415904" lon="-5.487554">
        <ele>129.865275</ele>
        <time>2020-08-14T08:42:40.245Z</time>
      </trkpt>
      <trkpt lat="37.415973" lon="-5.487674">
        <ele>129.607940</ele>
        <time>2020-08-14T08:42:43.256Z</time>
      </trkpt>
      <trkpt lat="37.416031" lon="-5.487799">
        <ele>129.356473</ele>
        <time>2020-08-14T08:42:46.248Z</time>
      </trkpt>
      <trkpt lat="37.416081" lon="-5.487924">
        <ele>129.113361</ele>
        <time>2020-08-14T08:42:49.261Z</time>
      </trkpt>
      <trkpt lat="37.416130" lon="-5.488048">
        <ele>129.033864</ele>
        <time>2020-08-14T08:42:52.234Z</time>
      </trkpt>
      <trkpt lat="37.416183" lon="-5.488172">
        <ele>129.140297</ele>
        <time>2020-08-14T08:42:55.274Z</time>
      </trkpt>
      <trkpt lat="37.416231" lon="-5.488306">
        <ele>129.251403</ele>
        <time>2020-08-14T08:42:58.265Z</time>
      </trkpt>
      <trkpt lat="37.416299" lon="-5.488413">
        <ele>129.354980</ele>
        <time>2020-08-14T08:43:01.259Z</time>
      </trkpt>
      <trkpt lat="37.416373" lon="-5.488532">
        <ele>129.469213</ele>
        <time>2020-08-14T08:43:04.253Z</time>
      </trkpt>
      <trkpt lat="37.416435" lon="-5.488652">
        <ele>129.577415</ele>
        <time>2020-08-14T08:43:07.240Z</time>
      </trkpt>
      <trkpt lat="37.416483" lon="-5.488775">
        <ele>129.680998</ele>
        <time>2020-08-14T08:43:10.254Z</time>
      </trkpt>
      <trkpt lat="37.416533" lon="-5.488896">
        <ele>129.784091</ele>
        <time>2020-08-14T08:43:13.256Z</time>
      </trkpt>
      <trkpt lat="37.416586" lon="-5.489020">
        <ele>129.890524</ele>
        <time>2020-08-14T08:43:16.261Z</time>
      </trkpt>
      <trkpt lat="37.416642" lon="-5.489137">
        <ele>129.993772</ele>
        <time>2020-08-14T08:43:19.247Z</time>
      </trkpt>
      <trkpt lat="37.416702" lon="-5.489255">
        <ele>130.099672</ele>
        <time>2020-08-14T08:43:22.255Z</time>
      </trkpt>
      <trkpt lat="37.416760" lon="-5.489379">
        <ele>130.208440</ele>
        <time>2020-08-14T08:43:25.254Z</time>
      </trkpt>
      <trkpt lat="37.416814" lon="-5.489503">
        <ele>130.315326</ele>
        <time>2020-08-14T08:43:28.262Z</time>
      </trkpt>
      <trkpt lat="37.416866" lon="-5.489622">
        <ele>130.417984</ele>
        <time>2020-08-14T08:43:31.245Z</time>
      </trkpt>
      <trkpt lat="37.416916" lon="-5.489736">
        <ele>130.516414</ele>
        <time>2020-08-14T08:43:34.268Z</time>
      </trkpt>
      <trkpt lat="37.416951" lon="-5.489844">
        <ele>130.604577</ele>
        <time>2020-08-14T08:43:37.257Z</time>
      </trkpt>
      <trkpt lat="37.416987" lon="-5.489967">
        <ele>130.697881</ele>
        <time>2020-08-14T08:43:40.254Z</time>
      </trkpt>
      <trkpt lat="37.417028" lon="-5.490092">
        <ele>130.715392</ele>
        <time>2020-08-14T08:43:43.257Z</time>
      </trkpt>
      <trkpt lat="37.417067" lon="-5.490213">
        <ele>130.732300</ele>
        <time>2020-08-14T08:43:46.254Z</time>
      </trkpt>
      <trkpt lat="37.417109" lon="-5.490353">
        <ele>130.751678</ele>
        <time>2020-08-14T08:43:49.253Z</time>
      </trkpt>
      <trkpt lat="37.417151" lon="-5.490457">
        <ele>130.766784</ele>
        <time>2020-08-14T08:43:52.261Z</time>
      </trkpt>
      <trkpt lat="37.417193" lon="-5.490587">
        <ele>130.784956</ele>
        <time>2020-08-14T08:43:55.260Z</time>
      </trkpt>
      <trkpt lat="37.417237" lon="-5.490733">
        <ele>130.805176</ele>
        <time>2020-08-14T08:43:58.252Z</time>
      </trkpt>
      <trkpt lat="37.417277" lon="-5.490870">
        <ele>130.824075</ele>
        <time>2020-08-14T08:44:01.262Z</time>
      </trkpt>
      <trkpt lat="37.417307" lon="-5.491003">
        <ele>130.841977</ele>
        <time>2020-08-14T08:44:04.262Z</time>
      </trkpt>
      <trkpt lat="37.417345" lon="-5.491133">
        <ele>130.859913</ele>
        <time>2020-08-14T08:44:07.260Z</time>
      </trkpt>
      <trkpt lat="37.417382" lon="-5.491255">
        <ele>130.876822</ele>
        <time>2020-08-14T08:44:10.250Z</time>
      </trkpt>
      <trkpt lat="37.417423" lon="-5.491386">
        <ele>130.895054</ele>
        <time>2020-08-14T08:44:13.268Z</time>
      </trkpt>
      <trkpt lat="37.417465" lon="-5.491536">
        <ele>130.915647</ele>
        <time>2020-08-14T08:44:16.256Z</time>
      </trkpt>
      <trkpt lat="37.417510" lon="-5.491665">
        <ele>130.933890</ele>
        <time>2020-08-14T08:44:19.265Z</time>
      </trkpt>
      <trkpt lat="37.417551" lon="-5.491787">
        <ele>130.951043</ele>
        <time>2020-08-14T08:44:22.243Z</time>
      </trkpt>
      <trkpt lat="37.417594" lon="-5.491917">
        <ele>130.969277</ele>
        <time>2020-08-14T08:44:25.270Z</time>
      </trkpt>
      <trkpt lat="37.417638" lon="-5.492042">
        <ele>130.986980</ele>
        <time>2020-08-14T08:44:28.250Z</time>
      </trkpt>
      <trkpt lat="37.417682" lon="-5.492161">
        <ele>131.005089</ele>
        <time>2020-08-14T08:44:31.245Z</time>
      </trkpt>
      <trkpt lat="37.417721" lon="-5.492285">
        <ele>131.023724</ele>
        <time>2020-08-14T08:44:34.262Z</time>
      </trkpt>
      <trkpt lat="37.417752" lon="-5.492433">
        <ele>131.045111</ele>
        <time>2020-08-14T08:44:37.271Z</time>
      </trkpt>
      <trkpt lat="37.417799" lon="-5.492556">
        <ele>131.064183</ele>
        <time>2020-08-14T08:44:40.265Z</time>
      </trkpt>
      <trkpt lat="37.417847" lon="-5.492668">
        <ele>131.081966</ele>
        <time>2020-08-14T08:44:43.283Z</time>
      </trkpt>
      <trkpt lat="37.417898" lon="-5.492792">
        <ele>131.101477</ele>
        <time>2020-08-14T08:44:46.277Z</time>
      </trkpt>
      <trkpt lat="37.417954" lon="-5.492892">
        <ele>131.118574</ele>
        <time>2020-08-14T08:44:50.288Z</time>
      </trkpt>
      <trkpt lat="37.418033" lon="-5.493146">
        <ele>131.156689</ele>
        <time>2020-08-14T08:44:55.271Z</time>
      </trkpt>
      <trkpt lat="37.418074" lon="-5.493283">
        <ele>131.177145</ele>
        <time>2020-08-14T08:44:58.243Z</time>
      </trkpt>
      <trkpt lat="37.418119" lon="-5.493392">
        <ele>131.194310</ele>
        <time>2020-08-14T08:45:01.251Z</time>
      </trkpt>
      <trkpt lat="37.418164" lon="-5.493527">
        <ele>131.214768</ele>
        <time>2020-08-14T08:45:04.250Z</time>
      </trkpt>
      <trkpt lat="37.418219" lon="-5.493633">
        <ele>131.232459</ele>
        <time>2020-08-14T08:45:07.273Z</time>
      </trkpt>
      <trkpt lat="37.418276" lon="-5.493757">
        <ele>131.252478</ele>
        <time>2020-08-14T08:45:10.269Z</time>
      </trkpt>
      <trkpt lat="37.418314" lon="-5.493885">
        <ele>131.271572</ele>
        <time>2020-08-14T08:45:13.263Z</time>
      </trkpt>
      <trkpt lat="37.418350" lon="-5.494004">
        <ele>131.289365</ele>
        <time>2020-08-14T08:45:16.249Z</time>
      </trkpt>
      <trkpt lat="37.418394" lon="-5.494123">
        <ele>131.307205</ele>
        <time>2020-08-14T08:45:19.249Z</time>
      </trkpt>
      <trkpt lat="37.418434" lon="-5.494255">
        <ele>131.319675</ele>
        <time>2020-08-14T08:45:22.256Z</time>
      </trkpt>
      <trkpt lat="37.418477" lon="-5.494381">
        <ele>131.331778</ele>
        <time>2020-08-14T08:45:25.271Z</time>
      </trkpt>
      <trkpt lat="37.418514" lon="-5.494506">
        <ele>131.343552</ele>
        <time>2020-08-14T08:45:28.251Z</time>
      </trkpt>
      <trkpt lat="37.418571" lon="-5.494645">
        <ele>131.357359</ele>
        <time>2020-08-14T08:45:31.252Z</time>
      </trkpt>
      <trkpt lat="37.418616" lon="-5.494793">
        <ele>131.371346</ele>
        <time>2020-08-14T08:45:34.234Z</time>
      </trkpt>
      <trkpt lat="37.418667" lon="-5.494937">
        <ele>131.385261</ele>
        <time>2020-08-14T08:45:37.245Z</time>
      </trkpt>
      <trkpt lat="37.418716" lon="-5.495082">
        <ele>131.399169</ele>
        <time>2020-08-14T08:45:40.248Z</time>
      </trkpt>
      <trkpt lat="37.418769" lon="-5.495222">
        <ele>131.412857</ele>
        <time>2020-08-14T08:45:43.256Z</time>
      </trkpt>
      <trkpt lat="37.418818" lon="-5.495347">
        <ele>131.425160</ele>
        <time>2020-08-14T08:45:46.254Z</time>
      </trkpt>
      <trkpt lat="37.418866" lon="-5.495452">
        <ele>131.435853</ele>
        <time>2020-08-14T08:45:49.258Z</time>
      </trkpt>
      <trkpt lat="37.418909" lon="-5.495561">
        <ele>131.446594</ele>
        <time>2020-08-14T08:45:52.250Z</time>
      </trkpt>
      <trkpt lat="37.418950" lon="-5.495686">
        <ele>131.458530</ele>
        <time>2020-08-14T08:45:55.260Z</time>
      </trkpt>
      <trkpt lat="37.418978" lon="-5.495804">
        <ele>131.469400</ele>
        <time>2020-08-14T08:45:58.253Z</time>
      </trkpt>
      <trkpt lat="37.419001" lon="-5.495940">
        <ele>131.481672</ele>
        <time>2020-08-14T08:46:01.258Z</time>
      </trkpt>
      <trkpt lat="37.419015" lon="-5.496085">
        <ele>131.494564</ele>
        <time>2020-08-14T08:46:04.278Z</time>
      </trkpt>
      <trkpt lat="37.419026" lon="-5.496235">
        <ele>131.498413</ele>
        <time>2020-08-14T08:46:07.257Z</time>
      </trkpt>
      <trkpt lat="37.419029" lon="-5.496370">
        <ele>131.441441</ele>
        <time>2020-08-14T08:46:09.268Z</time>
      </trkpt>
      <trkpt lat="37.419057" lon="-5.496519">
        <ele>131.376849</ele>
        <time>2020-08-14T08:46:12.249Z</time>
      </trkpt>
      <trkpt lat="37.419091" lon="-5.496669">
        <ele>131.311045</ele>
        <time>2020-08-14T08:46:15.249Z</time>
      </trkpt>
      <trkpt lat="37.419114" lon="-5.496828">
        <ele>131.242867</ele>
        <time>2020-08-14T08:46:18.243Z</time>
      </trkpt>
      <trkpt lat="37.419136" lon="-5.496994">
        <ele>131.171871</ele>
        <time>2020-08-14T08:46:21.256Z</time>
      </trkpt>
      <trkpt lat="37.419134" lon="-5.497109">
        <ele>131.123347</ele>
        <time>2020-08-14T08:46:23.243Z</time>
      </trkpt>
      <trkpt lat="37.419151" lon="-5.497223">
        <ele>131.074415</ele>
        <time>2020-08-14T08:46:25.255Z</time>
      </trkpt>
      <trkpt lat="37.419155" lon="-5.497355">
        <ele>131.018690</ele>
        <time>2020-08-14T08:46:27.241Z</time>
      </trkpt>
      <trkpt lat="37.419209" lon="-5.497470">
        <ele>130.962332</ele>
        <time>2020-08-14T08:46:29.255Z</time>
      </trkpt>
      <trkpt lat="37.419238" lon="-5.497590">
        <ele>130.909419</ele>
        <time>2020-08-14T08:46:31.248Z</time>
      </trkpt>
      <trkpt lat="37.419262" lon="-5.497718">
        <ele>130.853937</ele>
        <time>2020-08-14T08:46:33.246Z</time>
      </trkpt>
      <trkpt lat="37.419275" lon="-5.497830">
        <ele>130.806188</ele>
        <time>2020-08-14T08:46:35.247Z</time>
      </trkpt>
      <trkpt lat="37.419309" lon="-5.497938">
        <ele>130.757179</ele>
        <time>2020-08-14T08:46:37.283Z</time>
      </trkpt>
      <trkpt lat="37.419313" lon="-5.498072">
        <ele>130.700611</ele>
        <time>2020-08-14T08:46:39.252Z</time>
      </trkpt>
      <trkpt lat="37.419328" lon="-5.498201">
        <ele>130.645613</ele>
        <time>2020-08-14T08:46:41.248Z</time>
      </trkpt>
      <trkpt lat="37.419342" lon="-5.498323">
        <ele>130.593612</ele>
        <time>2020-08-14T08:46:43.270Z</time>
      </trkpt>
      <trkpt lat="37.419382" lon="-5.498439">
        <ele>130.560106</ele>
        <time>2020-08-14T08:46:45.249Z</time>
      </trkpt>
      <trkpt lat="37.419416" lon="-5.498605">
        <ele>130.623206</ele>
        <time>2020-08-14T08:46:48.249Z</time>
      </trkpt>
      <trkpt lat="37.419450" lon="-5.498714">
        <ele>130.666310</ele>
        <time>2020-08-14T08:46:50.260Z</time>
      </trkpt>
      <trkpt lat="37.419503" lon="-5.498814">
        <ele>130.710561</ele>
        <time>2020-08-14T08:46:52.255Z</time>
      </trkpt>
      <trkpt lat="37.419520" lon="-5.498937">
        <ele>130.756515</ele>
        <time>2020-08-14T08:46:54.265Z</time>
      </trkpt>
      <trkpt lat="37.419560" lon="-5.499044">
        <ele>130.800044</ele>
        <time>2020-08-14T08:46:56.237Z</time>
      </trkpt>
      <trkpt lat="37.419600" lon="-5.499179">
        <ele>130.853079</ele>
        <time>2020-08-14T08:46:59.253Z</time>
      </trkpt>
      <trkpt lat="37.419661" lon="-5.499267">
        <ele>130.896072</ele>
        <time>2020-08-14T08:47:01.259Z</time>
      </trkpt>
      <trkpt lat="37.419669" lon="-5.499402">
        <ele>130.945900</ele>
        <time>2020-08-14T08:47:03.268Z</time>
      </trkpt>
      <trkpt lat="37.419776" lon="-5.499371">
        <ele>130.996785</ele>
        <time>2020-08-14T08:47:18.276Z</time>
      </trkpt>
      <trkpt lat="37.419923" lon="-5.499426">
        <ele>131.067857</ele>
        <time>2020-08-14T08:47:21.306Z</time>
      </trkpt>
      <trkpt lat="37.419874" lon="-5.500466">
        <ele>131.864804</ele>
        <time>2020-08-14T08:47:22.268Z</time>
      </trkpt>
      <trkpt lat="37.419927" lon="-5.500600">
        <ele>132.260533</ele>
        <time>2020-08-14T08:47:25.247Z</time>
      </trkpt>
      <trkpt lat="37.419976" lon="-5.500734">
        <ele>132.650508</ele>
        <time>2020-08-14T08:47:28.249Z</time>
      </trkpt>
      <trkpt lat="37.420086" lon="-5.500708">
        <ele>133.023040</ele>
        <time>2020-08-14T08:47:43.270Z</time>
      </trkpt>
      <trkpt lat="37.420194" lon="-5.500749">
        <ele>133.398504</ele>
        <time>2020-08-14T08:47:47.279Z</time>
      </trkpt>
      <trkpt lat="37.420283" lon="-5.500833">
        <ele>133.768727</ele>
        <time>2020-08-14T08:47:51.275Z</time>
      </trkpt>
      <trkpt lat="37.420344" lon="-5.500929">
        <ele>134.093731</ele>
        <time>2020-08-14T08:47:54.266Z</time>
      </trkpt>
      <trkpt lat="37.420411" lon="-5.501044">
        <ele>134.470761</ele>
        <time>2020-08-14T08:47:57.263Z</time>
      </trkpt>
      <trkpt lat="37.420491" lon="-5.501159">
        <ele>134.874894</ele>
        <time>2020-08-14T08:48:00.244Z</time>
      </trkpt>
      <trkpt lat="37.420552" lon="-5.501266">
        <ele>135.223077</ele>
        <time>2020-08-14T08:48:03.266Z</time>
      </trkpt>
      <trkpt lat="37.420595" lon="-5.501406">
        <ele>135.619878</ele>
        <time>2020-08-14T08:48:06.259Z</time>
      </trkpt>
      <trkpt lat="37.420662" lon="-5.501515">
        <ele>135.984239</ele>
        <time>2020-08-14T08:48:10.281Z</time>
      </trkpt>
      <trkpt lat="37.420745" lon="-5.501617">
        <ele>136.370280</ele>
        <time>2020-08-14T08:48:13.274Z</time>
      </trkpt>
      <trkpt lat="37.420826" lon="-5.501733">
        <ele>136.778594</ele>
        <time>2020-08-14T08:48:16.280Z</time>
      </trkpt>
      <trkpt lat="37.420879" lon="-5.501853">
        <ele>137.141566</ele>
        <time>2020-08-14T08:48:20.277Z</time>
      </trkpt>
      <trkpt lat="37.420887" lon="-5.501966">
        <ele>137.288130</ele>
        <time>2020-08-14T08:48:23.282Z</time>
      </trkpt>
      <trkpt lat="37.420904" lon="-5.502077">
        <ele>136.934297</ele>
        <time>2020-08-14T08:48:27.264Z</time>
      </trkpt>
      <trkpt lat="37.420540" lon="-5.503866">
        <ele>131.153826</ele>
        <time>2020-08-14T08:48:29.262Z</time>
      </trkpt>
      <trkpt lat="37.420596" lon="-5.503988">
        <ele>130.712769</ele>
        <time>2020-08-14T08:48:33.248Z</time>
      </trkpt>
      <trkpt lat="37.420657" lon="-5.504115">
        <ele>130.284573</ele>
        <time>2020-08-14T08:48:37.250Z</time>
      </trkpt>
      <trkpt lat="37.420694" lon="-5.504275">
        <ele>130.315224</ele>
        <time>2020-08-14T08:48:40.255Z</time>
      </trkpt>
      <trkpt lat="37.420722" lon="-5.504383">
        <ele>130.336120</ele>
        <time>2020-08-14T08:48:42.244Z</time>
      </trkpt>
      <trkpt lat="37.420773" lon="-5.504528">
        <ele>130.365288</ele>
        <time>2020-08-14T08:48:45.241Z</time>
      </trkpt>
      <trkpt lat="37.420812" lon="-5.504658">
        <ele>130.390848</ele>
        <time>2020-08-14T08:48:48.262Z</time>
      </trkpt>
      <trkpt lat="37.420865" lon="-5.504787">
        <ele>130.417562</ele>
        <time>2020-08-14T08:48:51.262Z</time>
      </trkpt>
      <trkpt lat="37.420915" lon="-5.504914">
        <ele>130.443633</ele>
        <time>2020-08-14T08:48:54.263Z</time>
      </trkpt>
      <trkpt lat="37.420941" lon="-5.505040">
        <ele>130.467578</ele>
        <time>2020-08-14T08:48:58.270Z</time>
      </trkpt>
      <trkpt lat="37.421016" lon="-5.505249">
        <ele>130.509761</ele>
        <time>2020-08-14T08:49:02.257Z</time>
      </trkpt>
      <trkpt lat="37.421084" lon="-5.505371">
        <ele>130.537175</ele>
        <time>2020-08-14T08:49:05.264Z</time>
      </trkpt>
      <trkpt lat="37.421101" lon="-5.505491">
        <ele>130.559595</ele>
        <time>2020-08-14T08:49:09.271Z</time>
      </trkpt>
      <trkpt lat="37.421110" lon="-5.505623">
        <ele>130.583963</ele>
        <time>2020-08-14T08:49:12.270Z</time>
      </trkpt>
      <trkpt lat="37.421165" lon="-5.505748">
        <ele>130.610246</ele>
        <time>2020-08-14T08:49:17.269Z</time>
      </trkpt>
      <trkpt lat="37.421178" lon="-5.506039">
        <ele>130.663854</ele>
        <time>2020-08-14T08:49:19.265Z</time>
      </trkpt>
      <trkpt lat="37.421197" lon="-5.506199">
        <ele>130.693610</ele>
        <time>2020-08-14T08:49:26.234Z</time>
      </trkpt>
      <trkpt lat="37.421190" lon="-5.506319">
        <ele>130.500169</ele>
        <time>2020-08-14T08:49:28.252Z</time>
      </trkpt>
      <trkpt lat="37.421213" lon="-5.506464">
        <ele>130.174908</ele>
        <time>2020-08-14T08:49:31.286Z</time>
      </trkpt>
      <trkpt lat="37.421254" lon="-5.506590">
        <ele>129.875378</ele>
        <time>2020-08-14T08:49:33.266Z</time>
      </trkpt>
      <trkpt lat="37.421245" lon="-5.506709">
        <ele>129.612425</ele>
        <time>2020-08-14T08:49:35.264Z</time>
      </trkpt>
      <trkpt lat="37.421239" lon="-5.506861">
        <ele>129.277652</ele>
        <time>2020-08-14T08:49:38.261Z</time>
      </trkpt>
      <trkpt lat="37.421265" lon="-5.506997">
        <ele>128.969942</ele>
        <time>2020-08-14T08:49:42.273Z</time>
      </trkpt>
      <trkpt lat="37.421273" lon="-5.507132">
        <ele>128.672152</ele>
        <time>2020-08-14T08:49:45.249Z</time>
      </trkpt>
      <trkpt lat="37.421288" lon="-5.507244">
        <ele>128.422303</ele>
        <time>2020-08-14T08:49:48.248Z</time>
      </trkpt>
      <trkpt lat="37.421287" lon="-5.507382">
        <ele>128.118726</ele>
        <time>2020-08-14T08:49:52.259Z</time>
      </trkpt>
      <trkpt lat="37.421350" lon="-5.507549">
        <ele>127.712033</ele>
        <time>2020-08-14T08:49:55.273Z</time>
      </trkpt>
      <trkpt lat="37.421318" lon="-5.507670">
        <ele>127.431495</ele>
        <time>2020-08-14T08:49:59.283Z</time>
      </trkpt>
      <trkpt lat="37.421287" lon="-5.507806">
        <ele>127.120253</ele>
        <time>2020-08-14T08:50:03.249Z</time>
      </trkpt>
      <trkpt lat="37.421297" lon="-5.507932">
        <ele>126.841705</ele>
        <time>2020-08-14T08:50:08.251Z</time>
      </trkpt>
      <trkpt lat="37.421304" lon="-5.508054">
        <ele>126.572638</ele>
        <time>2020-08-14T08:50:11.273Z</time>
      </trkpt>
      <trkpt lat="37.421303" lon="-5.508201">
        <ele>126.249265</ele>
        <time>2020-08-14T08:50:15.256Z</time>
      </trkpt>
      <trkpt lat="37.421304" lon="-5.508332">
        <ele>125.961086</ele>
        <time>2020-08-14T08:50:19.264Z</time>
      </trkpt>
      <trkpt lat="37.421315" lon="-5.508469">
        <ele>125.763173</ele>
        <time>2020-08-14T08:50:23.282Z</time>
      </trkpt>
      <trkpt lat="37.421344" lon="-5.508582">
        <ele>125.966355</ele>
        <time>2020-08-14T08:50:27.282Z</time>
      </trkpt>
      <trkpt lat="37.421337" lon="-5.508715">
        <ele>126.194412</ele>
        <time>2020-08-14T08:50:31.252Z</time>
      </trkpt>
      <trkpt lat="37.421353" lon="-5.508854">
        <ele>126.434720</ele>
        <time>2020-08-14T08:50:35.259Z</time>
      </trkpt>
      <trkpt lat="37.421363" lon="-5.508986">
        <ele>126.661592</ele>
        <time>2020-08-14T08:50:38.272Z</time>
      </trkpt>
      <trkpt lat="37.421374" lon="-5.509139">
        <ele>126.924439</ele>
        <time>2020-08-14T08:50:41.244Z</time>
      </trkpt>
      <trkpt lat="37.421408" lon="-5.509248">
        <ele>127.124802</ele>
        <time>2020-08-14T08:50:44.253Z</time>
      </trkpt>
      <trkpt lat="37.421398" lon="-5.509370">
        <ele>127.334647</ele>
        <time>2020-08-14T08:50:48.280Z</time>
      </trkpt>
      <trkpt lat="37.421434" lon="-5.509512">
        <ele>127.589682</ele>
        <time>2020-08-14T08:50:51.276Z</time>
      </trkpt>
      <trkpt lat="37.421431" lon="-5.509656">
        <ele>127.836144</ele>
        <time>2020-08-14T08:50:53.257Z</time>
      </trkpt>
      <trkpt lat="37.421455" lon="-5.509781">
        <ele>128.056175</ele>
        <time>2020-08-14T08:50:56.244Z</time>
      </trkpt>
      <trkpt lat="37.421489" lon="-5.509892">
        <ele>128.259727</ele>
        <time>2020-08-14T08:51:01.241Z</time>
      </trkpt>
      <trkpt lat="37.421524" lon="-5.510130">
        <ele>128.673856</ele>
        <time>2020-08-14T08:51:04.270Z</time>
      </trkpt>
      <trkpt lat="37.421573" lon="-5.510227">
        <ele>128.870547</ele>
        <time>2020-08-14T08:51:07.244Z</time>
      </trkpt>
      <trkpt lat="37.421588" lon="-5.510362">
        <ele>129.103775</ele>
        <time>2020-08-14T08:51:11.274Z</time>
      </trkpt>
      <trkpt lat="37.421594" lon="-5.510523">
        <ele>129.379541</ele>
        <time>2020-08-14T08:51:14.283Z</time>
      </trkpt>
      <trkpt lat="37.421574" lon="-5.510660">
        <ele>129.573714</ele>
        <time>2020-08-14T08:51:16.252Z</time>
      </trkpt>
      <trkpt lat="37.421604" lon="-5.510785">
        <ele>129.413639</ele>
        <time>2020-08-14T08:51:19.255Z</time>
      </trkpt>
      <trkpt lat="37.421602" lon="-5.510931">
        <ele>129.234640</ele>
        <time>2020-08-14T08:51:22.257Z</time>
      </trkpt>
      <trkpt lat="37.421617" lon="-5.511061">
        <ele>129.073607</ele>
        <time>2020-08-14T08:51:25.276Z</time>
      </trkpt>
      <trkpt lat="37.421661" lon="-5.511229">
        <ele>128.856757</ele>
        <time>2020-08-14T08:51:28.240Z</time>
      </trkpt>
      <trkpt lat="37.421683" lon="-5.511353">
        <ele>128.701006</ele>
        <time>2020-08-14T08:51:31.261Z</time>
      </trkpt>
      <trkpt lat="37.421705" lon="-5.511490">
        <ele>128.529667</ele>
        <time>2020-08-14T08:51:35.270Z</time>
      </trkpt>
      <trkpt lat="37.421764" lon="-5.511612">
        <ele>128.354569</ele>
        <time>2020-08-14T08:51:38.263Z</time>
      </trkpt>
      <trkpt lat="37.421812" lon="-5.511753">
        <ele>128.166516</ele>
        <time>2020-08-14T08:51:41.249Z</time>
      </trkpt>
      <trkpt lat="37.421831" lon="-5.511905">
        <ele>127.977895</ele>
        <time>2020-08-14T08:51:44.266Z</time>
      </trkpt>
      <trkpt lat="37.421843" lon="-5.512043">
        <ele>127.807718</ele>
        <time>2020-08-14T08:51:47.239Z</time>
      </trkpt>
      <trkpt lat="37.421887" lon="-5.512143">
        <ele>127.667578</ele>
        <time>2020-08-14T08:51:50.244Z</time>
      </trkpt>
      <trkpt lat="37.421920" lon="-5.512249">
        <ele>127.528013</ele>
        <time>2020-08-14T08:51:54.267Z</time>
      </trkpt>
      <trkpt lat="37.421940" lon="-5.512368">
        <ele>127.378907</ele>
        <time>2020-08-14T08:51:56.266Z</time>
      </trkpt>
      <trkpt lat="37.421993" lon="-5.512505">
        <ele>127.192103</ele>
        <time>2020-08-14T08:51:59.238Z</time>
      </trkpt>
      <trkpt lat="37.422064" lon="-5.512605">
        <ele>127.027674</ele>
        <time>2020-08-14T08:52:03.249Z</time>
      </trkpt>
      <trkpt lat="37.422093" lon="-5.512721">
        <ele>126.878599</ele>
        <time>2020-08-14T08:52:07.282Z</time>
      </trkpt>
      <trkpt lat="37.422129" lon="-5.512869">
        <ele>126.651939</ele>
        <time>2020-08-14T08:52:09.266Z</time>
      </trkpt>
      <trkpt lat="37.422159" lon="-5.512989">
        <ele>126.452910</ele>
        <time>2020-08-14T08:52:12.257Z</time>
      </trkpt>
      <trkpt lat="37.422141" lon="-5.513134">
        <ele>126.220729</ele>
        <time>2020-08-14T08:52:15.241Z</time>
      </trkpt>
      <trkpt lat="37.422173" lon="-5.513242">
        <ele>126.038364</ele>
        <time>2020-08-14T08:52:19.273Z</time>
      </trkpt>
      <trkpt lat="37.422213" lon="-5.513367">
        <ele>125.825159</ele>
        <time>2020-08-14T08:52:22.275Z</time>
      </trkpt>
      <trkpt lat="37.422253" lon="-5.513502">
        <ele>125.597204</ele>
        <time>2020-08-14T08:52:24.251Z</time>
      </trkpt>
      <trkpt lat="37.422308" lon="-5.513598">
        <ele>125.409934</ele>
        <time>2020-08-14T08:52:27.273Z</time>
      </trkpt>
      <trkpt lat="37.422365" lon="-5.513743">
        <ele>125.153974</ele>
        <time>2020-08-14T08:52:31.269Z</time>
      </trkpt>
      <trkpt lat="37.422399" lon="-5.513865">
        <ele>124.949427</ele>
        <time>2020-08-14T08:52:34.265Z</time>
      </trkpt>
      <trkpt lat="37.422439" lon="-5.514000">
        <ele>124.721472</ele>
        <time>2020-08-14T08:52:37.262Z</time>
      </trkpt>
      <trkpt lat="37.422458" lon="-5.514114">
        <ele>124.537192</ele>
        <time>2020-08-14T08:52:39.267Z</time>
      </trkpt>
      <trkpt lat="37.422503" lon="-5.514263">
        <ele>124.284999</ele>
        <time>2020-08-14T08:52:42.248Z</time>
      </trkpt>
      <trkpt lat="37.422527" lon="-5.514429">
        <ele>124.018065</ele>
        <time>2020-08-14T08:52:45.257Z</time>
      </trkpt>
      <trkpt lat="37.422555" lon="-5.514545">
        <ele>123.826260</ele>
        <time>2020-08-14T08:52:47.252Z</time>
      </trkpt>
      <trkpt lat="37.422582" lon="-5.514657">
        <ele>123.641089</ele>
        <time>2020-08-14T08:52:49.260Z</time>
      </trkpt>
      <trkpt lat="37.422607" lon="-5.514777">
        <ele>123.444821</ele>
        <time>2020-08-14T08:52:51.242Z</time>
      </trkpt>
      <trkpt lat="37.422642" lon="-5.514883">
        <ele>123.263210</ele>
        <time>2020-08-14T08:52:53.246Z</time>
      </trkpt>
      <trkpt lat="37.422674" lon="-5.515010">
        <ele>123.518886</ele>
        <time>2020-08-14T08:52:55.254Z</time>
      </trkpt>
      <trkpt lat="37.422716" lon="-5.515135">
        <ele>123.859065</ele>
        <time>2020-08-14T08:52:57.244Z</time>
      </trkpt>
      <trkpt lat="37.422765" lon="-5.515246">
        <ele>124.177360</ele>
        <time>2020-08-14T08:52:59.245Z</time>
      </trkpt>
      <trkpt lat="37.422807" lon="-5.515378">
        <ele>124.533763</ele>
        <time>2020-08-14T08:53:01.262Z</time>
      </trkpt>
      <trkpt lat="37.422873" lon="-5.515514">
        <ele>124.933228</ele>
        <time>2020-08-14T08:53:04.246Z</time>
      </trkpt>
      <trkpt lat="37.422898" lon="-5.515689">
        <ele>125.378878</ele>
        <time>2020-08-14T08:53:07.232Z</time>
      </trkpt>
      <trkpt lat="37.422927" lon="-5.515803">
        <ele>125.678901</ele>
        <time>2020-08-14T08:53:09.252Z</time>
      </trkpt>
      <trkpt lat="37.422958" lon="-5.515916">
        <ele>125.978540</ele>
        <time>2020-08-14T08:53:11.254Z</time>
      </trkpt>
      <trkpt lat="37.422975" lon="-5.516078">
        <ele>126.388096</ele>
        <time>2020-08-14T08:53:14.251Z</time>
      </trkpt>
      <trkpt lat="37.422980" lon="-5.516194">
        <ele>126.679260</ele>
        <time>2020-08-14T08:53:16.265Z</time>
      </trkpt>
      <trkpt lat="37.422996" lon="-5.516329">
        <ele>127.021363</ele>
        <time>2020-08-14T08:53:18.228Z</time>
      </trkpt>
      <trkpt lat="37.422991" lon="-5.516447">
        <ele>127.317532</ele>
        <time>2020-08-14T08:53:20.267Z</time>
      </trkpt>
      <trkpt lat="37.422996" lon="-5.516565">
        <ele>127.613701</ele>
        <time>2020-08-14T08:53:22.275Z</time>
      </trkpt>
      <trkpt lat="37.423007" lon="-5.516696">
        <ele>127.943862</ele>
        <time>2020-08-14T08:53:24.245Z</time>
      </trkpt>
      <trkpt lat="37.423070" lon="-5.516820">
        <ele>128.312804</ele>
        <time>2020-08-14T08:53:27.251Z</time>
      </trkpt>
      <trkpt lat="37.423171" lon="-5.516960">
        <ele>128.786853</ele>
        <time>2020-08-14T08:53:31.270Z</time>
      </trkpt>
      <trkpt lat="37.423258" lon="-5.517076">
        <ele>129.021272</ele>
        <time>2020-08-14T08:53:33.249Z</time>
      </trkpt>
      <trkpt lat="37.423324" lon="-5.517189">
        <ele>129.163156</ele>
        <time>2020-08-14T08:53:35.260Z</time>
      </trkpt>
      <trkpt lat="37.423373" lon="-5.517295">
        <ele>129.287217</ele>
        <time>2020-08-14T08:53:37.262Z</time>
      </trkpt>
      <trkpt lat="37.423435" lon="-5.517437">
        <ele>129.451128</ele>
        <time>2020-08-14T08:53:40.295Z</time>
      </trkpt>
      <trkpt lat="37.423582" lon="-5.517876">
        <ele>129.933038</ele>
        <time>2020-08-14T08:53:57.320Z</time>
      </trkpt>
      <trkpt lat="37.423582" lon="-5.518011">
        <ele>130.069591</ele>
        <time>2020-08-14T08:54:01.247Z</time>
      </trkpt>
      <trkpt lat="37.423567" lon="-5.518166">
        <ele>130.227535</ele>
        <time>2020-08-14T08:54:05.272Z</time>
      </trkpt>
      <trkpt lat="37.423562" lon="-5.518302">
        <ele>130.365247</ele>
        <time>2020-08-14T08:54:07.270Z</time>
      </trkpt>
      <trkpt lat="37.423544" lon="-5.518429">
        <ele>130.495738</ele>
        <time>2020-08-14T08:54:09.268Z</time>
      </trkpt>
      <trkpt lat="37.423468" lon="-5.518352">
        <ele>130.619981</ele>
        <time>2020-08-14T08:54:11.262Z</time>
      </trkpt>
      <trkpt lat="37.423489" lon="-5.518475">
        <ele>130.747239</ele>
        <time>2020-08-14T08:54:14.254Z</time>
      </trkpt>
      <trkpt lat="37.423498" lon="-5.518615">
        <ele>130.889314</ele>
        <time>2020-08-14T08:54:18.261Z</time>
      </trkpt>
      <trkpt lat="37.423481" lon="-5.518751">
        <ele>131.028572</ele>
        <time>2020-08-14T08:54:22.253Z</time>
      </trkpt>
      <trkpt lat="37.423494" lon="-5.518872">
        <ele>131.152080</ele>
        <time>2020-08-14T08:54:26.250Z</time>
      </trkpt>
      <trkpt lat="37.423511" lon="-5.519010">
        <ele>131.143618</ele>
        <time>2020-08-14T08:54:30.261Z</time>
      </trkpt>
      <trkpt lat="37.423528" lon="-5.519159">
        <ele>131.051153</ele>
        <time>2020-08-14T08:54:34.244Z</time>
      </trkpt>
      <trkpt lat="37.423533" lon="-5.519306">
        <ele>130.960773</ele>
        <time>2020-08-14T08:54:38.242Z</time>
      </trkpt>
      <trkpt lat="37.423523" lon="-5.519428">
        <ele>130.885435</ele>
        <time>2020-08-14T08:54:41.232Z</time>
      </trkpt>
      <trkpt lat="37.423519" lon="-5.519553">
        <ele>130.808590</ele>
        <time>2020-08-14T08:54:44.234Z</time>
      </trkpt>
      <trkpt lat="37.423502" lon="-5.519686">
        <ele>130.725842</ele>
        <time>2020-08-14T08:54:47.262Z</time>
      </trkpt>
      <trkpt lat="37.423480" lon="-5.519819">
        <ele>130.642391</ele>
        <time>2020-08-14T08:54:50.240Z</time>
      </trkpt>
      <trkpt lat="37.423438" lon="-5.519966">
        <ele>130.546429</ele>
        <time>2020-08-14T08:54:53.245Z</time>
      </trkpt>
      <trkpt lat="37.423389" lon="-5.520067">
        <ele>130.473728</ele>
        <time>2020-08-14T08:54:55.268Z</time>
      </trkpt>
      <trkpt lat="37.423265" lon="-5.520205">
        <ele>130.345726</ele>
        <time>2020-08-14T08:54:58.264Z</time>
      </trkpt>
      <trkpt lat="37.423352" lon="-5.520292">
        <ele>130.259795</ele>
        <time>2020-08-14T08:55:01.239Z</time>
      </trkpt>
      <trkpt lat="37.423335" lon="-5.520456">
        <ele>130.158201</ele>
        <time>2020-08-14T08:55:04.247Z</time>
      </trkpt>
      <trkpt lat="37.423357" lon="-5.520580">
        <ele>130.080155</ele>
        <time>2020-08-14T08:55:07.265Z</time>
      </trkpt>
      <trkpt lat="37.423364" lon="-5.520734">
        <ele>129.985403</ele>
        <time>2020-08-14T08:55:10.257Z</time>
      </trkpt>
      <trkpt lat="37.423384" lon="-5.520883">
        <ele>129.892580</ele>
        <time>2020-08-14T08:55:13.252Z</time>
      </trkpt>
      <trkpt lat="37.423366" lon="-5.521029">
        <ele>129.779657</ele>
        <time>2020-08-14T08:55:16.277Z</time>
      </trkpt>
      <trkpt lat="37.423234" lon="-5.521216">
        <ele>129.150659</ele>
        <time>2020-08-14T08:55:19.270Z</time>
      </trkpt>
      <trkpt lat="37.423303" lon="-5.521304">
        <ele>128.839759</ele>
        <time>2020-08-14T08:55:22.264Z</time>
      </trkpt>
      <trkpt lat="37.423322" lon="-5.521426">
        <ele>128.527200</ele>
        <time>2020-08-14T08:55:24.250Z</time>
      </trkpt>
      <trkpt lat="37.423319" lon="-5.521580">
        <ele>128.139916</ele>
        <time>2020-08-14T08:55:27.266Z</time>
      </trkpt>
      <trkpt lat="37.423349" lon="-5.521748">
        <ele>127.707006</ele>
        <time>2020-08-14T08:55:30.257Z</time>
      </trkpt>
      <trkpt lat="37.423308" lon="-5.521907">
        <ele>127.286725</ele>
        <time>2020-08-14T08:55:34.265Z</time>
      </trkpt>
      <trkpt lat="37.423265" lon="-5.522064">
        <ele>126.869201</ele>
        <time>2020-08-14T08:55:37.261Z</time>
      </trkpt>
      <trkpt lat="37.423322" lon="-5.522196">
        <ele>126.491459</ele>
        <time>2020-08-14T08:55:39.272Z</time>
      </trkpt>
      <trkpt lat="37.423412" lon="-5.522269">
        <ele>126.152554</ele>
        <time>2020-08-14T08:55:41.265Z</time>
      </trkpt>
      <trkpt lat="37.423366" lon="-5.522387">
        <ele>125.822080</ele>
        <time>2020-08-14T08:55:43.251Z</time>
      </trkpt>
      <trkpt lat="37.423338" lon="-5.522517">
        <ele>125.483444</ele>
        <time>2020-08-14T08:55:46.244Z</time>
      </trkpt>
      <trkpt lat="37.423267" lon="-5.522663">
        <ele>125.053040</ele>
        <time>2020-08-14T08:55:48.279Z</time>
      </trkpt>
      <trkpt lat="37.423360" lon="-5.522640">
        <ele>124.753008</ele>
        <time>2020-08-14T08:55:49.264Z</time>
      </trkpt>
      <trkpt lat="37.423345" lon="-5.522768">
        <ele>124.427722</ele>
        <time>2020-08-14T08:55:51.261Z</time>
      </trkpt>
      <trkpt lat="37.423250" lon="-5.522934">
        <ele>124.233659</ele>
        <time>2020-08-14T08:55:53.265Z</time>
      </trkpt>
      <trkpt lat="37.423237" lon="-5.523098">
        <ele>124.477207</ele>
        <time>2020-08-14T08:55:56.251Z</time>
      </trkpt>
      <trkpt lat="37.423281" lon="-5.523222">
        <ele>124.677901</ele>
        <time>2020-08-14T08:56:01.242Z</time>
      </trkpt>
      <trkpt lat="37.423256" lon="-5.523342">
        <ele>124.861225</ele>
        <time>2020-08-14T08:56:06.258Z</time>
      </trkpt>
      <trkpt lat="37.423221" lon="-5.523471">
        <ele>125.062667</ele>
        <time>2020-08-14T08:56:11.264Z</time>
      </trkpt>
      <trkpt lat="37.423203" lon="-5.523599">
        <ele>125.254755</ele>
        <time>2020-08-14T08:56:14.256Z</time>
      </trkpt>
      <trkpt lat="37.423223" lon="-5.523711">
        <ele>125.424391</ele>
        <time>2020-08-14T08:56:17.265Z</time>
      </trkpt>
      <trkpt lat="37.423241" lon="-5.523821">
        <ele>125.590353</ele>
        <time>2020-08-14T08:56:20.257Z</time>
      </trkpt>
      <trkpt lat="37.423278" lon="-5.523957">
        <ele>125.802786</ele>
        <time>2020-08-14T08:56:24.248Z</time>
      </trkpt>
      <trkpt lat="37.423285" lon="-5.524094">
        <ele>126.005650</ele>
        <time>2020-08-14T08:56:29.276Z</time>
      </trkpt>
      <trkpt lat="37.423284" lon="-5.524239">
        <ele>126.219925</ele>
        <time>2020-08-14T08:56:33.255Z</time>
      </trkpt>
      <trkpt lat="37.423286" lon="-5.524363">
        <ele>126.403198</ele>
        <time>2020-08-14T08:56:36.253Z</time>
      </trkpt>
      <trkpt lat="37.423282" lon="-5.524483">
        <ele>126.580679</ele>
        <time>2020-08-14T08:56:39.258Z</time>
      </trkpt>
      <trkpt lat="37.423291" lon="-5.524634">
        <ele>126.804439</ele>
        <time>2020-08-14T08:56:43.252Z</time>
      </trkpt>
      <trkpt lat="37.423299" lon="-5.524758">
        <ele>126.988278</ele>
        <time>2020-08-14T08:56:46.247Z</time>
      </trkpt>
      <trkpt lat="37.423292" lon="-5.524907">
        <ele>127.208841</ele>
        <time>2020-08-14T08:56:50.259Z</time>
      </trkpt>
      <trkpt lat="37.423271" lon="-5.525052">
        <ele>127.426642</ele>
        <time>2020-08-14T08:56:53.254Z</time>
      </trkpt>
      <trkpt lat="37.423272" lon="-5.525201">
        <ele>127.633169</ele>
        <time>2020-08-14T08:56:57.242Z</time>
      </trkpt>
      <trkpt lat="37.423235" lon="-5.525325">
        <ele>127.814462</ele>
        <time>2020-08-14T08:57:00.253Z</time>
      </trkpt>
      <trkpt lat="37.423194" lon="-5.525442">
        <ele>127.989486</ele>
        <time>2020-08-14T08:57:03.249Z</time>
      </trkpt>
      <trkpt lat="37.423234" lon="-5.525582">
        <ele>128.193116</ele>
        <time>2020-08-14T08:57:07.249Z</time>
      </trkpt>
      <trkpt lat="37.423253" lon="-5.525694">
        <ele>128.349860</ele>
        <time>2020-08-14T08:57:10.247Z</time>
      </trkpt>
      <trkpt lat="37.423261" lon="-5.525810">
        <ele>128.509218</ele>
        <time>2020-08-14T08:57:13.291Z</time>
      </trkpt>
      <trkpt lat="37.423273" lon="-5.525931">
        <ele>128.676108</ele>
        <time>2020-08-14T08:57:16.244Z</time>
      </trkpt>
      <trkpt lat="37.423280" lon="-5.526055">
        <ele>128.846245</ele>
        <time>2020-08-14T08:57:19.254Z</time>
      </trkpt>
      <trkpt lat="37.423282" lon="-5.526185">
        <ele>129.024199</ele>
        <time>2020-08-14T08:57:22.252Z</time>
      </trkpt>
      <trkpt lat="37.423288" lon="-5.526301">
        <ele>129.183296</ele>
        <time>2020-08-14T08:57:25.254Z</time>
      </trkpt>
      <trkpt lat="37.423286" lon="-5.526447">
        <ele>129.383144</ele>
        <time>2020-08-14T08:57:28.247Z</time>
      </trkpt>
      <trkpt lat="37.423284" lon="-5.526590">
        <ele>129.578887</ele>
        <time>2020-08-14T08:57:31.254Z</time>
      </trkpt>
      <trkpt lat="37.423277" lon="-5.526740">
        <ele>129.784535</ele>
        <time>2020-08-14T08:57:34.252Z</time>
      </trkpt>
      <trkpt lat="37.423280" lon="-5.526891">
        <ele>129.991261</ele>
        <time>2020-08-14T08:57:37.253Z</time>
      </trkpt>
      <trkpt lat="37.423278" lon="-5.527045">
        <ele>130.202057</ele>
        <time>2020-08-14T08:57:40.267Z</time>
      </trkpt>
      <trkpt lat="37.423285" lon="-5.527206">
        <ele>130.422735</ele>
        <time>2020-08-14T08:57:43.250Z</time>
      </trkpt>
      <trkpt lat="37.423296" lon="-5.527357">
        <ele>130.419634</ele>
        <time>2020-08-14T08:57:46.262Z</time>
      </trkpt>
      <trkpt lat="37.423324" lon="-5.527506">
        <ele>129.987548</ele>
        <time>2020-08-14T08:57:49.251Z</time>
      </trkpt>
      <trkpt lat="37.423367" lon="-5.527639">
        <ele>129.582314</ele>
        <time>2020-08-14T08:57:52.250Z</time>
      </trkpt>
      <trkpt lat="37.423390" lon="-5.527771">
        <ele>129.200953</ele>
        <time>2020-08-14T08:57:55.257Z</time>
      </trkpt>
      <trkpt lat="37.423415" lon="-5.527889">
        <ele>128.856314</ele>
        <time>2020-08-14T08:57:58.250Z</time>
      </trkpt>
      <trkpt lat="37.423439" lon="-5.528005">
        <ele>128.518039</ele>
        <time>2020-08-14T08:58:01.266Z</time>
      </trkpt>
      <trkpt lat="37.423471" lon="-5.528113">
        <ele>128.192744</ele>
        <time>2020-08-14T08:58:05.262Z</time>
      </trkpt>
      <trkpt lat="37.423495" lon="-5.528236">
        <ele>127.835319</ele>
        <time>2020-08-14T08:58:09.247Z</time>
      </trkpt>
      <trkpt lat="37.423528" lon="-5.528368">
        <ele>127.444797</ele>
        <time>2020-08-14T08:58:13.248Z</time>
      </trkpt>
      <trkpt lat="37.423514" lon="-5.528493">
        <ele>127.088560</ele>
        <time>2020-08-14T08:58:15.267Z</time>
      </trkpt>
      <trkpt lat="37.423505" lon="-5.528622">
        <ele>126.723124</ele>
        <time>2020-08-14T08:58:16.247Z</time>
      </trkpt>
      <trkpt lat="37.423506" lon="-5.528768">
        <ele>126.311100</ele>
        <time>2020-08-14T08:58:19.245Z</time>
      </trkpt>
      <trkpt lat="37.423521" lon="-5.528900">
        <ele>125.934806</ele>
        <time>2020-08-14T08:58:24.273Z</time>
      </trkpt>
      <trkpt lat="37.423563" lon="-5.529041">
        <ele>125.509840</ele>
        <time>2020-08-14T08:58:27.284Z</time>
      </trkpt>
      <trkpt lat="37.423520" lon="-5.529191">
        <ele>125.059812</ele>
        <time>2020-08-14T08:58:29.251Z</time>
      </trkpt>
      <trkpt lat="37.423507" lon="-5.529328">
        <ele>124.670452</ele>
        <time>2020-08-14T08:58:32.259Z</time>
      </trkpt>
      <trkpt lat="37.423518" lon="-5.529482">
        <ele>124.234114</ele>
        <time>2020-08-14T08:58:35.259Z</time>
      </trkpt>
      <trkpt lat="37.423533" lon="-5.529650">
        <ele>124.126736</ele>
        <time>2020-08-14T08:58:38.276Z</time>
      </trkpt>
      <trkpt lat="37.423574" lon="-5.529775">
        <ele>124.086581</ele>
        <time>2020-08-14T08:58:41.283Z</time>
      </trkpt>
      <trkpt lat="37.423596" lon="-5.529899">
        <ele>124.048856</ele>
        <time>2020-08-14T08:58:43.240Z</time>
      </trkpt>
      <trkpt lat="37.423628" lon="-5.530023">
        <ele>124.010143</ele>
        <time>2020-08-14T08:58:46.252Z</time>
      </trkpt>
      <trkpt lat="37.423658" lon="-5.530159">
        <ele>123.968234</ele>
        <time>2020-08-14T08:58:49.254Z</time>
      </trkpt>
      <trkpt lat="37.423705" lon="-5.530278">
        <ele>123.928772</ele>
        <time>2020-08-14T08:58:52.263Z</time>
      </trkpt>
      <trkpt lat="37.423754" lon="-5.530410">
        <ele>123.885509</ele>
        <time>2020-08-14T08:58:55.258Z</time>
      </trkpt>
      <trkpt lat="37.423791" lon="-5.530513">
        <ele>123.851944</ele>
        <time>2020-08-14T08:58:58.245Z</time>
      </trkpt>
      <trkpt lat="37.423797" lon="-5.530627">
        <ele>123.818021</ele>
        <time>2020-08-14T08:59:02.270Z</time>
      </trkpt>
      <trkpt lat="37.423769" lon="-5.530765">
        <ele>123.775731</ele>
        <time>2020-08-14T08:59:06.282Z</time>
      </trkpt>
      <trkpt lat="37.423764" lon="-5.530879">
        <ele>123.741831</ele>
        <time>2020-08-14T08:59:11.298Z</time>
      </trkpt>
      <trkpt lat="37.423810" lon="-5.531014">
        <ele>123.698213</ele>
        <time>2020-08-14T08:59:15.281Z</time>
      </trkpt>
      <trkpt lat="37.423847" lon="-5.531131">
        <ele>123.660821</ele>
        <time>2020-08-14T08:59:18.271Z</time>
      </trkpt>
      <trkpt lat="37.423861" lon="-5.531529">
        <ele>123.542533</ele>
        <time>2020-08-14T08:59:22.268Z</time>
      </trkpt>
      <trkpt lat="37.423898" lon="-5.531652">
        <ele>123.503481</ele>
        <time>2020-08-14T08:59:25.270Z</time>
      </trkpt>
      <trkpt lat="37.423916" lon="-5.531789">
        <ele>123.495973</ele>
        <time>2020-08-14T08:59:29.268Z</time>
      </trkpt>
      <trkpt lat="37.423939" lon="-5.531906">
        <ele>123.494186</ele>
        <time>2020-08-14T08:59:32.267Z</time>
      </trkpt>
      <trkpt lat="37.423956" lon="-5.532018">
        <ele>123.492495</ele>
        <time>2020-08-14T08:59:34.251Z</time>
      </trkpt>
      <trkpt lat="37.424002" lon="-5.532139">
        <ele>123.490506</ele>
        <time>2020-08-14T08:59:38.259Z</time>
      </trkpt>
      <trkpt lat="37.424026" lon="-5.532261">
        <ele>123.488642</ele>
        <time>2020-08-14T08:59:41.259Z</time>
      </trkpt>
      <trkpt lat="37.424045" lon="-5.532386">
        <ele>123.486755</ele>
        <time>2020-08-14T08:59:44.262Z</time>
      </trkpt>
      <trkpt lat="37.424057" lon="-5.532509">
        <ele>123.484918</ele>
        <time>2020-08-14T08:59:47.250Z</time>
      </trkpt>
      <trkpt lat="37.424071" lon="-5.532635">
        <ele>123.483031</ele>
        <time>2020-08-14T08:59:52.288Z</time>
      </trkpt>
      <trkpt lat="37.424086" lon="-5.532798">
        <ele>123.480598</ele>
        <time>2020-08-14T08:59:54.253Z</time>
      </trkpt>
      <trkpt lat="37.424104" lon="-5.532943">
        <ele>123.478422</ele>
        <time>2020-08-14T08:59:57.257Z</time>
      </trkpt>
      <trkpt lat="37.424129" lon="-5.533075">
        <ele>123.476410</ele>
        <time>2020-08-14T09:00:01.268Z</time>
      </trkpt>
      <trkpt lat="37.424143" lon="-5.533209">
        <ele>123.474406</ele>
        <time>2020-08-14T09:00:04.257Z</time>
      </trkpt>
      <trkpt lat="37.424173" lon="-5.533363">
        <ele>123.472055</ele>
        <time>2020-08-14T09:00:07.254Z</time>
      </trkpt>
      <trkpt lat="37.424196" lon="-5.533473">
        <ele>123.470368</ele>
        <time>2020-08-14T09:00:10.260Z</time>
      </trkpt>
      <trkpt lat="37.424219" lon="-5.533595">
        <ele>123.468509</ele>
        <time>2020-08-14T09:00:14.274Z</time>
      </trkpt>
      <trkpt lat="37.424211" lon="-5.533764">
        <ele>123.465999</ele>
        <time>2020-08-14T09:00:16.250Z</time>
      </trkpt>
      <trkpt lat="37.424247" lon="-5.533916">
        <ele>123.435833</ele>
        <time>2020-08-14T09:00:19.265Z</time>
      </trkpt>
      <trkpt lat="37.424300" lon="-5.534064">
        <ele>123.303853</ele>
        <time>2020-08-14T09:00:23.278Z</time>
      </trkpt>
      <trkpt lat="37.424344" lon="-5.534214">
        <ele>123.173862</ele>
        <time>2020-08-14T09:00:26.274Z</time>
      </trkpt>
      <trkpt lat="37.424373" lon="-5.534343">
        <ele>123.064874</ele>
        <time>2020-08-14T09:00:28.254Z</time>
      </trkpt>
      <trkpt lat="37.424446" lon="-5.534450">
        <ele>122.950201</ele>
        <time>2020-08-14T09:00:31.261Z</time>
      </trkpt>
      <trkpt lat="37.424497" lon="-5.534587">
        <ele>122.827202</ele>
        <time>2020-08-14T09:00:34.254Z</time>
      </trkpt>
      <trkpt lat="37.424541" lon="-5.534722">
        <ele>122.708574</ele>
        <time>2020-08-14T09:00:37.246Z</time>
      </trkpt>
      <trkpt lat="37.424596" lon="-5.534838">
        <ele>122.598747</ele>
        <time>2020-08-14T09:00:40.251Z</time>
      </trkpt>
      <trkpt lat="37.424625" lon="-5.534968">
        <ele>122.488977</ele>
        <time>2020-08-14T09:00:43.257Z</time>
      </trkpt>
      <trkpt lat="37.424651" lon="-5.535089">
        <ele>122.387076</ele>
        <time>2020-08-14T09:00:46.254Z</time>
      </trkpt>
      <trkpt lat="37.424691" lon="-5.535216">
        <ele>122.276012</ele>
        <time>2020-08-14T09:00:49.247Z</time>
      </trkpt>
      <trkpt lat="37.424738" lon="-5.535336">
        <ele>122.167243</ele>
        <time>2020-08-14T09:00:52.256Z</time>
      </trkpt>
      <trkpt lat="37.424775" lon="-5.535468">
        <ele>122.053449</ele>
        <time>2020-08-14T09:00:55.274Z</time>
      </trkpt>
      <trkpt lat="37.424803" lon="-5.535602">
        <ele>121.940810</ele>
        <time>2020-08-14T09:00:58.249Z</time>
      </trkpt>
      <trkpt lat="37.424824" lon="-5.535734">
        <ele>121.831373</ele>
        <time>2020-08-14T09:01:01.260Z</time>
      </trkpt>
      <trkpt lat="37.424843" lon="-5.535877">
        <ele>121.713509</ele>
        <time>2020-08-14T09:01:04.266Z</time>
      </trkpt>
      <trkpt lat="37.424853" lon="-5.536016">
        <ele>121.622676</ele>
        <time>2020-08-14T09:01:07.265Z</time>
      </trkpt>
      <trkpt lat="37.424883" lon="-5.536150">
        <ele>121.621020</ele>
        <time>2020-08-14T09:01:11.244Z</time>
      </trkpt>
      <trkpt lat="37.424913" lon="-5.536285">
        <ele>121.619352</ele>
        <time>2020-08-14T09:01:15.250Z</time>
      </trkpt>
      <trkpt lat="37.424949" lon="-5.536418">
        <ele>121.617681</ele>
        <time>2020-08-14T09:01:20.274Z</time>
      </trkpt>
      <trkpt lat="37.424990" lon="-5.536596">
        <ele>121.615477</ele>
        <time>2020-08-14T09:01:24.260Z</time>
      </trkpt>
      <trkpt lat="37.425045" lon="-5.536733">
        <ele>121.613651</ele>
        <time>2020-08-14T09:01:28.257Z</time>
      </trkpt>
      <trkpt lat="37.425084" lon="-5.536871">
        <ele>121.611909</ele>
        <time>2020-08-14T09:01:33.235Z</time>
      </trkpt>
      <trkpt lat="37.425102" lon="-5.536991">
        <ele>121.610457</ele>
        <time>2020-08-14T09:01:35.241Z</time>
      </trkpt>
      <trkpt lat="37.425103" lon="-5.537106">
        <ele>121.609089</ele>
        <time>2020-08-14T09:01:37.259Z</time>
      </trkpt>
      <trkpt lat="37.425157" lon="-5.537247">
        <ele>121.607227</ele>
        <time>2020-08-14T09:01:41.257Z</time>
      </trkpt>
      <trkpt lat="37.425190" lon="-5.537375">
        <ele>121.605627</ele>
        <time>2020-08-14T09:01:46.269Z</time>
      </trkpt>
      <trkpt lat="37.425224" lon="-5.537484">
        <ele>121.604234</ele>
        <time>2020-08-14T09:01:57.247Z</time>
      </trkpt>
      <trkpt lat="37.425293" lon="-5.537587">
        <ele>121.602632</ele>
        <time>2020-08-14T09:02:02.233Z</time>
      </trkpt>
      <trkpt lat="37.425341" lon="-5.537714">
        <ele>121.600959</ele>
        <time>2020-08-14T09:02:07.242Z</time>
      </trkpt>
      <trkpt lat="37.425380" lon="-5.537832">
        <ele>121.599439</ele>
        <time>2020-08-14T09:02:11.253Z</time>
      </trkpt>
      <trkpt lat="37.425421" lon="-5.537945">
        <ele>121.597961</ele>
        <time>2020-08-14T09:02:15.262Z</time>
      </trkpt>
      <trkpt lat="37.425458" lon="-5.538049">
        <ele>121.596606</ele>
        <time>2020-08-14T09:02:18.244Z</time>
      </trkpt>
      <trkpt lat="37.425501" lon="-5.538156">
        <ele>121.594213</ele>
        <time>2020-08-14T09:02:21.245Z</time>
      </trkpt>
      <trkpt lat="37.425543" lon="-5.538263">
        <ele>121.591261</ele>
        <time>2020-08-14T09:02:24.244Z</time>
      </trkpt>
      <trkpt lat="37.425590" lon="-5.538364">
        <ele>121.588367</ele>
        <time>2020-08-14T09:02:27.261Z</time>
      </trkpt>
      <trkpt lat="37.425655" lon="-5.538492">
        <ele>121.584609</ele>
        <time>2020-08-14T09:02:31.246Z</time>
      </trkpt>
      <trkpt lat="37.425700" lon="-5.538596">
        <ele>121.581680</ele>
        <time>2020-08-14T09:02:34.244Z</time>
      </trkpt>
      <trkpt lat="37.425742" lon="-5.538698">
        <ele>121.578839</ele>
        <time>2020-08-14T09:02:37.252Z</time>
      </trkpt>
      <trkpt lat="37.425794" lon="-5.538822">
        <ele>121.575371</ele>
        <time>2020-08-14T09:02:41.248Z</time>
      </trkpt>
      <trkpt lat="37.425840" lon="-5.538951">
        <ele>121.571874</ele>
        <time>2020-08-14T09:02:45.246Z</time>
      </trkpt>
      <trkpt lat="37.425899" lon="-5.539067">
        <ele>121.568468</ele>
        <time>2020-08-14T09:02:49.260Z</time>
      </trkpt>
      <trkpt lat="37.425962" lon="-5.539176">
        <ele>121.565134</ele>
        <time>2020-08-14T09:02:52.258Z</time>
      </trkpt>
      <trkpt lat="37.426039" lon="-5.539270">
        <ele>121.561795</ele>
        <time>2020-08-14T09:02:55.261Z</time>
      </trkpt>
      <trkpt lat="37.426112" lon="-5.539389">
        <ele>121.558076</ele>
        <time>2020-08-14T09:02:58.260Z</time>
      </trkpt>
      <trkpt lat="37.426188" lon="-5.539513">
        <ele>121.554202</ele>
        <time>2020-08-14T09:03:01.277Z</time>
      </trkpt>
      <trkpt lat="37.426250" lon="-5.539623">
        <ele>121.550867</ele>
        <time>2020-08-14T09:03:04.262Z</time>
      </trkpt>
      <trkpt lat="37.426309" lon="-5.539714">
        <ele>121.547962</ele>
        <time>2020-08-14T09:03:07.267Z</time>
      </trkpt>
      <trkpt lat="37.426380" lon="-5.539819">
        <ele>121.544551</ele>
        <time>2020-08-14T09:03:10.272Z</time>
      </trkpt>
      <trkpt lat="37.426453" lon="-5.539942">
        <ele>121.540754</ele>
        <time>2020-08-14T09:03:13.270Z</time>
      </trkpt>
      <trkpt lat="37.426527" lon="-5.540091">
        <ele>121.627567</ele>
        <time>2020-08-14T09:03:16.276Z</time>
      </trkpt>
      <trkpt lat="37.426578" lon="-5.540208">
        <ele>121.706528</ele>
        <time>2020-08-14T09:03:18.268Z</time>
      </trkpt>
      <trkpt lat="37.426624" lon="-5.540313">
        <ele>121.777473</ele>
        <time>2020-08-14T09:03:20.267Z</time>
      </trkpt>
      <trkpt lat="37.426691" lon="-5.540444">
        <ele>121.869657</ele>
        <time>2020-08-14T09:03:23.262Z</time>
      </trkpt>
      <trkpt lat="37.426772" lon="-5.540555">
        <ele>121.958842</ele>
        <time>2020-08-14T09:03:26.250Z</time>
      </trkpt>
      <trkpt lat="37.426843" lon="-5.540686">
        <ele>122.052673</ele>
        <time>2020-08-14T09:03:29.245Z</time>
      </trkpt>
      <trkpt lat="37.426895" lon="-5.540782">
        <ele>122.121421</ele>
        <time>2020-08-14T09:03:32.268Z</time>
      </trkpt>
      <trkpt lat="37.426962" lon="-5.540883">
        <ele>122.199279</ele>
        <time>2020-08-14T09:03:35.245Z</time>
      </trkpt>
      <trkpt lat="37.427019" lon="-5.540997">
        <ele>122.278978</ele>
        <time>2020-08-14T09:03:38.248Z</time>
      </trkpt>
      <trkpt lat="37.427082" lon="-5.541105">
        <ele>122.358257</ele>
        <time>2020-08-14T09:03:41.257Z</time>
      </trkpt>
      <trkpt lat="37.427141" lon="-5.541221">
        <ele>122.439754</ele>
        <time>2020-08-14T09:03:44.246Z</time>
      </trkpt>
      <trkpt lat="37.427197" lon="-5.541371">
        <ele>122.537813</ele>
        <time>2020-08-14T09:03:47.246Z</time>
      </trkpt>
      <trkpt lat="37.427257" lon="-5.541520">
        <ele>122.636648</ele>
        <time>2020-08-14T09:03:50.253Z</time>
      </trkpt>
      <trkpt lat="37.427337" lon="-5.541659">
        <ele>122.738208</ele>
        <time>2020-08-14T09:03:53.264Z</time>
      </trkpt>
      <trkpt lat="37.427408" lon="-5.541756">
        <ele>122.816253</ele>
        <time>2020-08-14T09:03:55.268Z</time>
      </trkpt>
      <trkpt lat="37.427456" lon="-5.541862">
        <ele>122.921479</ele>
        <time>2020-08-14T09:03:57.249Z</time>
      </trkpt>
      <trkpt lat="37.427515" lon="-5.541956">
        <ele>123.270636</ele>
        <time>2020-08-14T09:03:59.252Z</time>
      </trkpt>
      <trkpt lat="37.427587" lon="-5.542109">
        <ele>123.788899</ele>
        <time>2020-08-14T09:04:02.255Z</time>
      </trkpt>
      <trkpt lat="37.427630" lon="-5.542220">
        <ele>124.148800</ele>
        <time>2020-08-14T09:04:04.263Z</time>
      </trkpt>
      <trkpt lat="37.427672" lon="-5.542321">
        <ele>124.481036</ele>
        <time>2020-08-14T09:04:06.260Z</time>
      </trkpt>
      <trkpt lat="37.427714" lon="-5.542456">
        <ele>124.903553</ele>
        <time>2020-08-14T09:04:09.247Z</time>
      </trkpt>
      <trkpt lat="37.427776" lon="-5.542543">
        <ele>125.244197</ele>
        <time>2020-08-14T09:04:13.281Z</time>
      </trkpt>
      <trkpt lat="37.427885" lon="-5.542704">
        <ele>125.860727</ele>
        <time>2020-08-14T09:04:15.279Z</time>
      </trkpt>
      <trkpt lat="37.427947" lon="-5.542795">
        <ele>126.210133</ele>
        <time>2020-08-14T09:04:16.260Z</time>
      </trkpt>
      <trkpt lat="37.428037" lon="-5.542925">
        <ele>126.712714</ele>
        <time>2020-08-14T09:04:18.271Z</time>
      </trkpt>
      <trkpt lat="37.428120" lon="-5.543054">
        <ele>127.196533</ele>
        <time>2020-08-14T09:04:20.271Z</time>
      </trkpt>
      <trkpt lat="37.428199" lon="-5.543171">
        <ele>127.644066</ele>
        <time>2020-08-14T09:04:22.264Z</time>
      </trkpt>
      <trkpt lat="37.428438" lon="-5.543630">
        <ele>129.243521</ele>
        <time>2020-08-14T09:04:36.290Z</time>
      </trkpt>
      <trkpt lat="37.428987" lon="-5.543731">
        <ele>127.117662</ele>
        <time>2020-08-14T09:04:47.272Z</time>
      </trkpt>
      <trkpt lat="37.429003" lon="-5.543880">
        <ele>126.542302</ele>
        <time>2020-08-14T09:04:49.267Z</time>
      </trkpt>
      <trkpt lat="37.429040" lon="-5.543983">
        <ele>126.109705</ele>
        <time>2020-08-14T09:04:51.265Z</time>
      </trkpt>
      <trkpt lat="37.429058" lon="-5.544105">
        <ele>125.634865</ele>
        <time>2020-08-14T09:04:54.272Z</time>
      </trkpt>
      <trkpt lat="37.429100" lon="-5.544211">
        <ele>125.181552</ele>
        <time>2020-08-14T09:04:57.283Z</time>
      </trkpt>
      <trkpt lat="37.429157" lon="-5.544335">
        <ele>124.633283</ele>
        <time>2020-08-14T09:05:00.280Z</time>
      </trkpt>
      <trkpt lat="37.429219" lon="-5.544436">
        <ele>124.144779</ele>
        <time>2020-08-14T09:05:03.283Z</time>
      </trkpt>
      <trkpt lat="37.429323" lon="-5.544508">
        <ele>123.572880</ele>
        <time>2020-08-14T09:05:07.266Z</time>
      </trkpt>
      <trkpt lat="37.429436" lon="-5.544535">
        <ele>123.018640</ele>
        <time>2020-08-14T09:05:11.272Z</time>
      </trkpt>
      <trkpt lat="37.429537" lon="-5.544571">
        <ele>122.512820</ele>
        <time>2020-08-14T09:05:14.277Z</time>
      </trkpt>
      <trkpt lat="37.429635" lon="-5.544612">
        <ele>122.015197</ele>
        <time>2020-08-14T09:05:17.266Z</time>
      </trkpt>
      <trkpt lat="37.429728" lon="-5.544652">
        <ele>121.541629</ele>
        <time>2020-08-14T09:05:20.255Z</time>
      </trkpt>
      <trkpt lat="37.429832" lon="-5.544706">
        <ele>120.999544</ele>
        <time>2020-08-14T09:05:23.282Z</time>
      </trkpt>
      <trkpt lat="37.429939" lon="-5.544768">
        <ele>120.998516</ele>
        <time>2020-08-14T09:05:27.274Z</time>
      </trkpt>
      <trkpt lat="37.430035" lon="-5.544843">
        <ele>121.263572</ele>
        <time>2020-08-14T09:05:31.256Z</time>
      </trkpt>
      <trkpt lat="37.430115" lon="-5.544919">
        <ele>121.498685</ele>
        <time>2020-08-14T09:05:34.280Z</time>
      </trkpt>
      <trkpt lat="37.430216" lon="-5.545010">
        <ele>121.790054</ele>
        <time>2020-08-14T09:05:37.256Z</time>
      </trkpt>
      <trkpt lat="37.430305" lon="-5.545082">
        <ele>122.038238</ele>
        <time>2020-08-14T09:05:40.257Z</time>
      </trkpt>
      <trkpt lat="37.430401" lon="-5.545164">
        <ele>122.310395</ele>
        <time>2020-08-14T09:05:44.270Z</time>
      </trkpt>
      <trkpt lat="37.430484" lon="-5.545235">
        <ele>122.545806</ele>
        <time>2020-08-14T09:05:47.272Z</time>
      </trkpt>
      <trkpt lat="37.430569" lon="-5.545318">
        <ele>122.798160</ele>
        <time>2020-08-14T09:05:49.255Z</time>
      </trkpt>
      <trkpt lat="37.430648" lon="-5.545406">
        <ele>123.045614</ele>
        <time>2020-08-14T09:05:52.264Z</time>
      </trkpt>
      <trkpt lat="37.430732" lon="-5.545488">
        <ele>123.294972</ele>
        <time>2020-08-14T09:05:56.275Z</time>
      </trkpt>
      <trkpt lat="37.430795" lon="-5.545571">
        <ele>123.508886</ele>
        <time>2020-08-14T09:05:59.274Z</time>
      </trkpt>
      <trkpt lat="37.430853" lon="-5.545661">
        <ele>123.724832</ele>
        <time>2020-08-14T09:06:01.265Z</time>
      </trkpt>
      <trkpt lat="37.430948" lon="-5.545750">
        <ele>124.002631</ele>
        <time>2020-08-14T09:06:04.265Z</time>
      </trkpt>
      <trkpt lat="37.431029" lon="-5.545852">
        <ele>124.271383</ele>
        <time>2020-08-14T09:06:07.267Z</time>
      </trkpt>
      <trkpt lat="37.431113" lon="-5.545914">
        <ele>124.499818</ele>
        <time>2020-08-14T09:06:11.253Z</time>
      </trkpt>
      <trkpt lat="37.431217" lon="-5.546009">
        <ele>124.801253</ele>
        <time>2020-08-14T09:06:13.255Z</time>
      </trkpt>
      <trkpt lat="37.431285" lon="-5.546092">
        <ele>125.023434</ele>
        <time>2020-08-14T09:06:16.248Z</time>
      </trkpt>
      <trkpt lat="37.431367" lon="-5.546189">
        <ele>124.962975</ele>
        <time>2020-08-14T09:06:20.259Z</time>
      </trkpt>
      <trkpt lat="37.431430" lon="-5.546313">
        <ele>124.887576</ele>
        <time>2020-08-14T09:06:24.266Z</time>
      </trkpt>
      <trkpt lat="37.431477" lon="-5.546421">
        <ele>124.824496</ele>
        <time>2020-08-14T09:06:27.256Z</time>
      </trkpt>
      <trkpt lat="37.431514" lon="-5.546530">
        <ele>124.763780</ele>
        <time>2020-08-14T09:06:30.261Z</time>
      </trkpt>
      <trkpt lat="37.431548" lon="-5.546640">
        <ele>124.703320</ele>
        <time>2020-08-14T09:06:33.266Z</time>
      </trkpt>
      <trkpt lat="37.431577" lon="-5.546757">
        <ele>124.640542</ele>
        <time>2020-08-14T09:06:36.269Z</time>
      </trkpt>
      <trkpt lat="37.431613" lon="-5.546874">
        <ele>124.576274</ele>
        <time>2020-08-14T09:06:39.265Z</time>
      </trkpt>
      <trkpt lat="37.431644" lon="-5.547007">
        <ele>124.505278</ele>
        <time>2020-08-14T09:06:42.245Z</time>
      </trkpt>
      <trkpt lat="37.431668" lon="-5.547124">
        <ele>124.443384</ele>
        <time>2020-08-14T09:06:45.261Z</time>
      </trkpt>
      <trkpt lat="37.431689" lon="-5.547251">
        <ele>124.376940</ele>
        <time>2020-08-14T09:06:48.256Z</time>
      </trkpt>
      <trkpt lat="37.431704" lon="-5.547362">
        <ele>124.319269</ele>
        <time>2020-08-14T09:06:51.264Z</time>
      </trkpt>
      <trkpt lat="37.431722" lon="-5.547492">
        <ele>124.251679</ele>
        <time>2020-08-14T09:06:55.281Z</time>
      </trkpt>
      <trkpt lat="37.431754" lon="-5.547619">
        <ele>124.183434</ele>
        <time>2020-08-14T09:07:01.260Z</time>
      </trkpt>
      <trkpt lat="37.431788" lon="-5.547744">
        <ele>124.115758</ele>
        <time>2020-08-14T09:07:05.244Z</time>
      </trkpt>
      <trkpt lat="37.431825" lon="-5.547854">
        <ele>124.054570</ele>
        <time>2020-08-14T09:07:10.268Z</time>
      </trkpt>
      <trkpt lat="37.431856" lon="-5.547967">
        <ele>123.993336</ele>
        <time>2020-08-14T09:07:15.264Z</time>
      </trkpt>
      <trkpt lat="37.431900" lon="-5.548095">
        <ele>123.921896</ele>
        <time>2020-08-14T09:07:19.285Z</time>
      </trkpt>
      <trkpt lat="37.431934" lon="-5.548234">
        <ele>123.803872</ele>
        <time>2020-08-14T09:07:22.278Z</time>
      </trkpt>
      <trkpt lat="37.431940" lon="-5.548492">
        <ele>123.444892</ele>
        <time>2020-08-14T09:07:24.267Z</time>
      </trkpt>
      <trkpt lat="37.431938" lon="-5.548629">
        <ele>123.254321</ele>
        <time>2020-08-14T09:07:27.261Z</time>
      </trkpt>
      <trkpt lat="37.431962" lon="-5.548765">
        <ele>123.060558</ele>
        <time>2020-08-14T09:07:30.243Z</time>
      </trkpt>
      <trkpt lat="37.431969" lon="-5.548897">
        <ele>122.876564</ele>
        <time>2020-08-14T09:07:33.260Z</time>
      </trkpt>
      <trkpt lat="37.431992" lon="-5.549024">
        <ele>122.695397</ele>
        <time>2020-08-14T09:07:36.249Z</time>
      </trkpt>
      <trkpt lat="37.432014" lon="-5.549138">
        <ele>122.532231</ele>
        <time>2020-08-14T09:07:39.251Z</time>
      </trkpt>
      <trkpt lat="37.432038" lon="-5.549254">
        <ele>122.365513</ele>
        <time>2020-08-14T09:07:42.254Z</time>
      </trkpt>
      <trkpt lat="37.432043" lon="-5.549383">
        <ele>122.185886</ele>
        <time>2020-08-14T09:07:45.253Z</time>
      </trkpt>
      <trkpt lat="37.432096" lon="-5.549520">
        <ele>121.973938</ele>
        <time>2020-08-14T09:07:48.257Z</time>
      </trkpt>
      <trkpt lat="37.432145" lon="-5.549646">
        <ele>121.778811</ele>
        <time>2020-08-14T09:07:51.256Z</time>
      </trkpt>
      <trkpt lat="37.432195" lon="-5.549755">
        <ele>121.603738</ele>
        <time>2020-08-14T09:07:55.273Z</time>
      </trkpt>
      <trkpt lat="37.432241" lon="-5.549885">
        <ele>121.405796</ele>
        <time>2020-08-14T09:07:59.265Z</time>
      </trkpt>
      <trkpt lat="37.432278" lon="-5.550014">
        <ele>121.215039</ele>
        <time>2020-08-14T09:08:02.300Z</time>
      </trkpt>
      <trkpt lat="37.432334" lon="-5.550178">
        <ele>120.966755</ele>
        <time>2020-08-14T09:08:05.274Z</time>
      </trkpt>
      <trkpt lat="37.432352" lon="-5.550323">
        <ele>120.762641</ele>
        <time>2020-08-14T09:08:08.270Z</time>
      </trkpt>
      <trkpt lat="37.432390" lon="-5.550439">
        <ele>120.783161</ele>
        <time>2020-08-14T09:08:12.261Z</time>
      </trkpt>
      <trkpt lat="37.432461" lon="-5.550561">
        <ele>120.878099</ele>
        <time>2020-08-14T09:08:16.263Z</time>
      </trkpt>
      <trkpt lat="37.432473" lon="-5.550707">
        <ele>120.970228</ele>
        <time>2020-08-14T09:08:18.285Z</time>
      </trkpt>
      <trkpt lat="37.432495" lon="-5.550856">
        <ele>121.065352</ele>
        <time>2020-08-14T09:08:21.272Z</time>
      </trkpt>
      <trkpt lat="37.432552" lon="-5.550964">
        <ele>121.146747</ele>
        <time>2020-08-14T09:08:24.278Z</time>
      </trkpt>
      <trkpt lat="37.432606" lon="-5.551079">
        <ele>121.230604</ele>
        <time>2020-08-14T09:08:27.278Z</time>
      </trkpt>
      <trkpt lat="37.432604" lon="-5.550942">
        <ele>121.316608</ele>
        <time>2020-08-14T09:08:32.255Z</time>
      </trkpt>
      <trkpt lat="37.432627" lon="-5.550790">
        <ele>121.413729</ele>
        <time>2020-08-14T09:08:35.281Z</time>
      </trkpt>
      <trkpt lat="37.432728" lon="-5.550697">
        <ele>121.512627</ele>
        <time>2020-08-14T09:08:37.273Z</time>
      </trkpt>
      <trkpt lat="37.432927" lon="-5.550987">
        <ele>121.753197</ele>
        <time>2020-08-14T09:08:39.268Z</time>
      </trkpt>
      <trkpt lat="37.432939" lon="-5.551162">
        <ele>121.863446</ele>
        <time>2020-08-14T09:08:41.264Z</time>
      </trkpt>
      <trkpt lat="37.432960" lon="-5.551293">
        <ele>121.947328</ele>
        <time>2020-08-14T09:08:43.275Z</time>
      </trkpt>
      <trkpt lat="37.432945" lon="-5.551646">
        <ele>122.127762</ele>
        <time>2020-08-14T09:08:45.273Z</time>
      </trkpt>
      <trkpt lat="37.432891" lon="-5.551911">
        <ele>122.014625</ele>
        <time>2020-08-14T09:08:47.284Z</time>
      </trkpt>
      <trkpt lat="37.432915" lon="-5.552069">
        <ele>121.948102</ele>
        <time>2020-08-14T09:08:50.257Z</time>
      </trkpt>
      <trkpt lat="37.432962" lon="-5.552180">
        <ele>121.896082</ele>
        <time>2020-08-14T09:08:54.271Z</time>
      </trkpt>
      <trkpt lat="37.433048" lon="-5.552428">
        <ele>121.784173</ele>
        <time>2020-08-14T09:08:58.257Z</time>
      </trkpt>
      <trkpt lat="37.433092" lon="-5.552576">
        <ele>121.718821</ele>
        <time>2020-08-14T09:09:01.262Z</time>
      </trkpt>
      <trkpt lat="37.433142" lon="-5.552706">
        <ele>121.659088</ele>
        <time>2020-08-14T09:09:05.295Z</time>
      </trkpt>
      <trkpt lat="37.433195" lon="-5.552837">
        <ele>121.598289</ele>
        <time>2020-08-14T09:09:07.279Z</time>
      </trkpt>
      <trkpt lat="37.433162" lon="-5.552707">
        <ele>121.541850</ele>
        <time>2020-08-14T09:09:10.261Z</time>
      </trkpt>
      <trkpt lat="37.433172" lon="-5.552567">
        <ele>121.483721</ele>
        <time>2020-08-14T09:09:13.268Z</time>
      </trkpt>
      <trkpt lat="37.433328" lon="-5.553182">
        <ele>121.216739</ele>
        <time>2020-08-14T09:09:15.247Z</time>
      </trkpt>
      <trkpt lat="37.433393" lon="-5.553274">
        <ele>121.184930</ele>
        <time>2020-08-14T09:09:18.254Z</time>
      </trkpt>
      <trkpt lat="37.433443" lon="-5.553389">
        <ele>121.155560</ele>
        <time>2020-08-14T09:09:22.274Z</time>
      </trkpt>
      <trkpt lat="37.433473" lon="-5.553495">
        <ele>121.130351</ele>
        <time>2020-08-14T09:09:26.267Z</time>
      </trkpt>
      <trkpt lat="37.433525" lon="-5.553645">
        <ele>121.093686</ele>
        <time>2020-08-14T09:09:31.262Z</time>
      </trkpt>
      <trkpt lat="37.433622" lon="-5.553816">
        <ele>121.046609</ele>
        <time>2020-08-14T09:09:32.243Z</time>
      </trkpt>
      <trkpt lat="37.433655" lon="-5.553925">
        <ele>121.020477</ele>
        <time>2020-08-14T09:09:35.252Z</time>
      </trkpt>
      <trkpt lat="37.433698" lon="-5.554034">
        <ele>120.993212</ele>
        <time>2020-08-14T09:09:40.242Z</time>
      </trkpt>
      <trkpt lat="37.433760" lon="-5.554147">
        <ele>120.962443</ele>
        <time>2020-08-14T09:09:44.254Z</time>
      </trkpt>
      <trkpt lat="37.433810" lon="-5.554279">
        <ele>120.929681</ele>
        <time>2020-08-14T09:09:48.273Z</time>
      </trkpt>
      <trkpt lat="37.433846" lon="-5.554404">
        <ele>120.899894</ele>
        <time>2020-08-14T09:09:52.279Z</time>
      </trkpt>
      <trkpt lat="37.433883" lon="-5.554527">
        <ele>120.870430</ele>
        <time>2020-08-14T09:09:56.284Z</time>
      </trkpt>
      <trkpt lat="37.433914" lon="-5.554648">
        <ele>120.841948</ele>
        <time>2020-08-14T09:10:00.281Z</time>
      </trkpt>
      <trkpt lat="37.433951" lon="-5.554788">
        <ele>120.808895</ele>
        <time>2020-08-14T09:10:04.273Z</time>
      </trkpt>
      <trkpt lat="37.433973" lon="-5.554916">
        <ele>120.779557</ele>
        <time>2020-08-14T09:10:07.264Z</time>
      </trkpt>
      <trkpt lat="37.434027" lon="-5.555025">
        <ele>120.750777</ele>
        <time>2020-08-14T09:10:10.254Z</time>
      </trkpt>
      <trkpt lat="37.434064" lon="-5.555167">
        <ele>120.717298</ele>
        <time>2020-08-14T09:10:14.262Z</time>
      </trkpt>
      <trkpt lat="37.434119" lon="-5.555273">
        <ele>120.641102</ele>
        <time>2020-08-14T09:10:19.250Z</time>
      </trkpt>
      <trkpt lat="37.434133" lon="-5.555428">
        <ele>120.456540</ele>
        <time>2020-08-14T09:10:21.258Z</time>
      </trkpt>
      <trkpt lat="37.434154" lon="-5.555545">
        <ele>120.314625</ele>
        <time>2020-08-14T09:10:24.252Z</time>
      </trkpt>
      <trkpt lat="37.434176" lon="-5.555674">
        <ele>120.158525</ele>
        <time>2020-08-14T09:10:29.271Z</time>
      </trkpt>
      <trkpt lat="37.434237" lon="-5.555895">
        <ele>119.881714</ele>
        <time>2020-08-14T09:10:33.265Z</time>
      </trkpt>
      <trkpt lat="37.434259" lon="-5.556017">
        <ele>119.733701</ele>
        <time>2020-08-14T09:10:36.262Z</time>
      </trkpt>
      <trkpt lat="37.434317" lon="-5.556142">
        <ele>119.562417</ele>
        <time>2020-08-14T09:10:40.278Z</time>
      </trkpt>
      <trkpt lat="37.434343" lon="-5.556266">
        <ele>119.410684</ele>
        <time>2020-08-14T09:10:43.258Z</time>
      </trkpt>
      <trkpt lat="37.434372" lon="-5.556410">
        <ele>119.234925</ele>
        <time>2020-08-14T09:10:47.274Z</time>
      </trkpt>
      <trkpt lat="37.434431" lon="-5.556543">
        <ele>119.054683</ele>
        <time>2020-08-14T09:10:50.267Z</time>
      </trkpt>
      <trkpt lat="37.434450" lon="-5.556674">
        <ele>118.897133</ele>
        <time>2020-08-14T09:10:53.260Z</time>
      </trkpt>
      <trkpt lat="37.434474" lon="-5.556799">
        <ele>118.744985</ele>
        <time>2020-08-14T09:10:57.283Z</time>
      </trkpt>
      <trkpt lat="37.434509" lon="-5.556948">
        <ele>118.561153</ele>
        <time>2020-08-14T09:11:00.267Z</time>
      </trkpt>
      <trkpt lat="37.434552" lon="-5.557064">
        <ele>118.409696</ele>
        <time>2020-08-14T09:11:04.279Z</time>
      </trkpt>
      <trkpt lat="37.434624" lon="-5.557198">
        <ele>118.218277</ele>
        <time>2020-08-14T09:11:07.256Z</time>
      </trkpt>
      <trkpt lat="37.434637" lon="-5.557327">
        <ele>118.064434</ele>
        <time>2020-08-14T09:11:10.253Z</time>
      </trkpt>
      <trkpt lat="37.434666" lon="-5.557443">
        <ele>118.089815</ele>
        <time>2020-08-14T09:11:13.258Z</time>
      </trkpt>
      <trkpt lat="37.434712" lon="-5.557573">
        <ele>118.207400</ele>
        <time>2020-08-14T09:11:17.276Z</time>
      </trkpt>
      <trkpt lat="37.434747" lon="-5.557696">
        <ele>118.315349</ele>
        <time>2020-08-14T09:11:19.272Z</time>
      </trkpt>
      <trkpt lat="37.434778" lon="-5.557838">
        <ele>118.437020</ele>
        <time>2020-08-14T09:11:22.261Z</time>
      </trkpt>
      <trkpt lat="37.434818" lon="-5.557960">
        <ele>118.546069</ele>
        <time>2020-08-14T09:11:25.264Z</time>
      </trkpt>
      <trkpt lat="37.434848" lon="-5.558069">
        <ele>118.641380</ele>
        <time>2020-08-14T09:11:28.266Z</time>
      </trkpt>
      <trkpt lat="37.434886" lon="-5.558181">
        <ele>118.742005</ele>
        <time>2020-08-14T09:11:31.276Z</time>
      </trkpt>
      <trkpt lat="37.434915" lon="-5.558289">
        <ele>118.836197</ele>
        <time>2020-08-14T09:11:33.248Z</time>
      </trkpt>
      <trkpt lat="37.434945" lon="-5.558428">
        <ele>118.955203</ele>
        <time>2020-08-14T09:11:36.254Z</time>
      </trkpt>
      <trkpt lat="37.435017" lon="-5.558559">
        <ele>119.086830</ele>
        <time>2020-08-14T09:11:40.258Z</time>
      </trkpt>
      <trkpt lat="37.435088" lon="-5.558755">
        <ele>119.264817</ele>
        <time>2020-08-14T09:11:44.255Z</time>
      </trkpt>
      <trkpt lat="37.435135" lon="-5.558893">
        <ele>119.388875</ele>
        <time>2020-08-14T09:11:47.258Z</time>
      </trkpt>
      <trkpt lat="37.435182" lon="-5.559010">
        <ele>119.497204</ele>
        <time>2020-08-14T09:11:50.242Z</time>
      </trkpt>
      <trkpt lat="37.435225" lon="-5.559111">
        <ele>119.591885</ele>
        <time>2020-08-14T09:11:53.275Z</time>
      </trkpt>
      <trkpt lat="37.435283" lon="-5.559242">
        <ele>119.715802</ele>
        <time>2020-08-14T09:11:55.268Z</time>
      </trkpt>
      <trkpt lat="37.435352" lon="-5.559356">
        <ele>119.834229</ele>
        <time>2020-08-14T09:11:57.248Z</time>
      </trkpt>
      <trkpt lat="37.435414" lon="-5.559444">
        <ele>119.869858</ele>
        <time>2020-08-14T09:11:59.249Z</time>
      </trkpt>
      <trkpt lat="37.435445" lon="-5.559566">
        <ele>119.811842</ele>
        <time>2020-08-14T09:12:01.256Z</time>
      </trkpt>
      <trkpt lat="37.435519" lon="-5.559717">
        <ele>119.731475</ele>
        <time>2020-08-14T09:12:04.256Z</time>
      </trkpt>
      <trkpt lat="37.435577" lon="-5.559847">
        <ele>119.663939</ele>
        <time>2020-08-14T09:12:06.272Z</time>
      </trkpt>
      <trkpt lat="37.435609" lon="-5.559953">
        <ele>119.612577</ele>
        <time>2020-08-14T09:12:08.253Z</time>
      </trkpt>
      <trkpt lat="37.435666" lon="-5.560107">
        <ele>119.535623</ele>
        <time>2020-08-14T09:12:11.263Z</time>
      </trkpt>
      <trkpt lat="37.435736" lon="-5.560211">
        <ele>119.473874</ele>
        <time>2020-08-14T09:12:13.261Z</time>
      </trkpt>
      <trkpt lat="37.435773" lon="-5.560330">
        <ele>119.415992</ele>
        <time>2020-08-14T09:12:15.259Z</time>
      </trkpt>
      <trkpt lat="37.435838" lon="-5.560420">
        <ele>119.360891</ele>
        <time>2020-08-14T09:12:17.262Z</time>
      </trkpt>
      <trkpt lat="37.435892" lon="-5.560560">
        <ele>119.290398</ele>
        <time>2020-08-14T09:12:20.262Z</time>
      </trkpt>
      <trkpt lat="37.435949" lon="-5.560703">
        <ele>119.217929</ele>
        <time>2020-08-14T09:12:23.263Z</time>
      </trkpt>
      <trkpt lat="37.436020" lon="-5.560839">
        <ele>119.144212</ele>
        <time>2020-08-14T09:12:26.253Z</time>
      </trkpt>
      <trkpt lat="37.436083" lon="-5.560977">
        <ele>119.072116</ele>
        <time>2020-08-14T09:12:29.263Z</time>
      </trkpt>
      <trkpt lat="37.436151" lon="-5.561114">
        <ele>118.998942</ele>
        <time>2020-08-14T09:12:32.262Z</time>
      </trkpt>
      <trkpt lat="37.436207" lon="-5.561250">
        <ele>118.929556</ele>
        <time>2020-08-14T09:12:35.253Z</time>
      </trkpt>
      <trkpt lat="37.436266" lon="-5.561388">
        <ele>118.860101</ele>
        <time>2020-08-14T09:12:38.259Z</time>
      </trkpt>
      <trkpt lat="37.436329" lon="-5.561529">
        <ele>118.802508</ele>
        <time>2020-08-14T09:12:41.267Z</time>
      </trkpt>
      <trkpt lat="37.436394" lon="-5.561660">
        <ele>118.747520</ele>
        <time>2020-08-14T09:12:44.258Z</time>
      </trkpt>
      <trkpt lat="37.436469" lon="-5.561782">
        <ele>118.692597</ele>
        <time>2020-08-14T09:12:47.262Z</time>
      </trkpt>
      <trkpt lat="37.436540" lon="-5.561915">
        <ele>118.635547</ele>
        <time>2020-08-14T09:12:50.265Z</time>
      </trkpt>
      <trkpt lat="37.436593" lon="-5.562011">
        <ele>118.593926</ele>
        <time>2020-08-14T09:12:52.249Z</time>
      </trkpt>
      <trkpt lat="37.436674" lon="-5.562119">
        <ele>118.541042</ele>
        <time>2020-08-14T09:12:55.260Z</time>
      </trkpt>
      <trkpt lat="37.436726" lon="-5.562236">
        <ele>118.493313</ele>
        <time>2020-08-14T09:12:58.247Z</time>
      </trkpt>
      <trkpt lat="37.436793" lon="-5.562350">
        <ele>118.442826</ele>
        <time>2020-08-14T09:13:01.266Z</time>
      </trkpt>
      <trkpt lat="37.436845" lon="-5.562475">
        <ele>118.392593</ele>
        <time>2020-08-14T09:13:04.259Z</time>
      </trkpt>
      <trkpt lat="37.436908" lon="-5.562607">
        <ele>118.337770</ele>
        <time>2020-08-14T09:13:07.252Z</time>
      </trkpt>
      <trkpt lat="37.436969" lon="-5.562742">
        <ele>118.282478</ele>
        <time>2020-08-14T09:13:10.261Z</time>
      </trkpt>
      <trkpt lat="37.437046" lon="-5.562880">
        <ele>118.222438</ele>
        <time>2020-08-14T09:13:13.251Z</time>
      </trkpt>
      <trkpt lat="37.437094" lon="-5.562979">
        <ele>118.181147</ele>
        <time>2020-08-14T09:13:15.259Z</time>
      </trkpt>
      <trkpt lat="37.437157" lon="-5.563108">
        <ele>118.127236</ele>
        <time>2020-08-14T09:13:18.251Z</time>
      </trkpt>
      <trkpt lat="37.437202" lon="-5.563239">
        <ele>118.076428</ele>
        <time>2020-08-14T09:13:21.254Z</time>
      </trkpt>
      <trkpt lat="37.437245" lon="-5.563360">
        <ele>118.098703</ele>
        <time>2020-08-14T09:13:24.256Z</time>
      </trkpt>
      <trkpt lat="37.437304" lon="-5.563481">
        <ele>118.164678</ele>
        <time>2020-08-14T09:13:27.246Z</time>
      </trkpt>
      <trkpt lat="37.437373" lon="-5.563581">
        <ele>118.226234</ele>
        <time>2020-08-14T09:13:30.251Z</time>
      </trkpt>
      <trkpt lat="37.437445" lon="-5.563702">
        <ele>118.296489</ele>
        <time>2020-08-14T09:13:34.242Z</time>
      </trkpt>
      <trkpt lat="37.437503" lon="-5.563797">
        <ele>118.352169</ele>
        <time>2020-08-14T09:13:37.258Z</time>
      </trkpt>
      <trkpt lat="37.437557" lon="-5.563903">
        <ele>118.410686</ele>
        <time>2020-08-14T09:13:40.259Z</time>
      </trkpt>
      <trkpt lat="37.437619" lon="-5.564020">
        <ele>118.476042</ele>
        <time>2020-08-14T09:13:44.269Z</time>
      </trkpt>
      <trkpt lat="37.437676" lon="-5.564114">
        <ele>118.530998</ele>
        <time>2020-08-14T09:13:47.282Z</time>
      </trkpt>
      <trkpt lat="37.437796" lon="-5.564364">
        <ele>118.666731</ele>
        <time>2020-08-14T09:13:53.321Z</time>
      </trkpt>
      <trkpt lat="37.437876" lon="-5.564482">
        <ele>118.738824</ele>
        <time>2020-08-14T09:13:56.275Z</time>
      </trkpt>
      <trkpt lat="37.437947" lon="-5.564581">
        <ele>118.800808</ele>
        <time>2020-08-14T09:13:59.268Z</time>
      </trkpt>
      <trkpt lat="37.438024" lon="-5.564676">
        <ele>118.863883</ele>
        <time>2020-08-14T09:14:02.269Z</time>
      </trkpt>
      <trkpt lat="37.438097" lon="-5.564776">
        <ele>118.926999</ele>
        <time>2020-08-14T09:14:05.270Z</time>
      </trkpt>
      <trkpt lat="37.438168" lon="-5.564885">
        <ele>118.992505</ele>
        <time>2020-08-14T09:14:08.276Z</time>
      </trkpt>
      <trkpt lat="37.438219" lon="-5.565024">
        <ele>119.063650</ele>
        <time>2020-08-14T09:14:12.253Z</time>
      </trkpt>
      <trkpt lat="37.438293" lon="-5.565144">
        <ele>119.072065</ele>
        <time>2020-08-14T09:14:15.266Z</time>
      </trkpt>
      <trkpt lat="37.438346" lon="-5.565258">
        <ele>118.962811</ele>
        <time>2020-08-14T09:14:18.249Z</time>
      </trkpt>
      <trkpt lat="37.438403" lon="-5.565370">
        <ele>118.852790</ele>
        <time>2020-08-14T09:14:21.248Z</time>
      </trkpt>
      <trkpt lat="37.438462" lon="-5.565496">
        <ele>118.731813</ele>
        <time>2020-08-14T09:14:25.280Z</time>
      </trkpt>
      <trkpt lat="37.438532" lon="-5.565622">
        <ele>118.604633</ele>
        <time>2020-08-14T09:14:28.272Z</time>
      </trkpt>
      <trkpt lat="37.438605" lon="-5.565727">
        <ele>118.489211</ele>
        <time>2020-08-14T09:14:31.268Z</time>
      </trkpt>
      <trkpt lat="37.438668" lon="-5.565825">
        <ele>118.384929</ele>
        <time>2020-08-14T09:14:34.265Z</time>
      </trkpt>
      <trkpt lat="37.438732" lon="-5.565913">
        <ele>118.286235</ele>
        <time>2020-08-14T09:14:37.252Z</time>
      </trkpt>
      <trkpt lat="37.438797" lon="-5.566002">
        <ele>118.186228</ele>
        <time>2020-08-14T09:14:41.275Z</time>
      </trkpt>
      <trkpt lat="37.438876" lon="-5.566113">
        <ele>118.062948</ele>
        <time>2020-08-14T09:14:44.271Z</time>
      </trkpt>
      <trkpt lat="37.438941" lon="-5.566208">
        <ele>117.959234</ele>
        <time>2020-08-14T09:14:47.255Z</time>
      </trkpt>
      <trkpt lat="37.439005" lon="-5.566307">
        <ele>117.853653</ele>
        <time>2020-08-14T09:14:51.260Z</time>
      </trkpt>
      <trkpt lat="37.439073" lon="-5.566391">
        <ele>117.754443</ele>
        <time>2020-08-14T09:14:55.275Z</time>
      </trkpt>
      <trkpt lat="37.439237" lon="-5.566633">
        <ele>117.491317</ele>
        <time>2020-08-14T09:15:02.278Z</time>
      </trkpt>
      <trkpt lat="37.439309" lon="-5.566733">
        <ele>117.379676</ele>
        <time>2020-08-14T09:15:06.273Z</time>
      </trkpt>
      <trkpt lat="37.439380" lon="-5.566823">
        <ele>117.274752</ele>
        <time>2020-08-14T09:15:09.246Z</time>
      </trkpt>
      <trkpt lat="37.439438" lon="-5.566923">
        <ele>117.278221</ele>
        <time>2020-08-14T09:15:12.263Z</time>
      </trkpt>
      <trkpt lat="37.439507" lon="-5.567007">
        <ele>117.338387</ele>
        <time>2020-08-14T09:15:15.264Z</time>
      </trkpt>
      <trkpt lat="37.439570" lon="-5.567091">
        <ele>117.395907</ele>
        <time>2020-08-14T09:15:18.254Z</time>
      </trkpt>
      <trkpt lat="37.439638" lon="-5.567218">
        <ele>117.472159</ele>
        <time>2020-08-14T09:15:22.253Z</time>
      </trkpt>
      <trkpt lat="37.439693" lon="-5.567322">
        <ele>117.534362</ele>
        <time>2020-08-14T09:15:25.271Z</time>
      </trkpt>
      <trkpt lat="37.439740" lon="-5.567423">
        <ele>117.592638</ele>
        <time>2020-08-14T09:15:28.248Z</time>
      </trkpt>
      <trkpt lat="37.439796" lon="-5.567532">
        <ele>117.657267</ele>
        <time>2020-08-14T09:15:32.274Z</time>
      </trkpt>
      <trkpt lat="37.439865" lon="-5.567615">
        <ele>117.717087</ele>
        <time>2020-08-14T09:15:34.267Z</time>
      </trkpt>
      <trkpt lat="37.439949" lon="-5.567726">
        <ele>117.793420</ele>
        <time>2020-08-14T09:15:37.269Z</time>
      </trkpt>
      <trkpt lat="37.440038" lon="-5.567858">
        <ele>117.879624</ele>
        <time>2020-08-14T09:15:40.280Z</time>
      </trkpt>
      <trkpt lat="37.440126" lon="-5.567946">
        <ele>117.950072</ele>
        <time>2020-08-14T09:15:43.276Z</time>
      </trkpt>
      <trkpt lat="37.440210" lon="-5.568035">
        <ele>118.018892</ele>
        <time>2020-08-14T09:15:46.278Z</time>
      </trkpt>
      <trkpt lat="37.440301" lon="-5.568138">
        <ele>118.095599</ele>
        <time>2020-08-14T09:15:49.282Z</time>
      </trkpt>
      <trkpt lat="37.440394" lon="-5.568258">
        <ele>118.179073</ele>
        <time>2020-08-14T09:15:52.269Z</time>
      </trkpt>
      <trkpt lat="37.440443" lon="-5.568378">
        <ele>118.246245</ele>
        <time>2020-08-14T09:15:54.253Z</time>
      </trkpt>
      <trkpt lat="37.440523" lon="-5.568473">
        <ele>118.315180</ele>
        <time>2020-08-14T09:15:57.251Z</time>
      </trkpt>
      <trkpt lat="37.440577" lon="-5.568596">
        <ele>118.371970</ele>
        <time>2020-08-14T09:16:00.256Z</time>
      </trkpt>
      <trkpt lat="37.440622" lon="-5.568696">
        <ele>118.389609</ele>
        <time>2020-08-14T09:16:02.249Z</time>
      </trkpt>
      <trkpt lat="37.440673" lon="-5.568832">
        <ele>118.412690</ele>
        <time>2020-08-14T09:16:05.240Z</time>
      </trkpt>
      <trkpt lat="37.440722" lon="-5.568958">
        <ele>118.434220</ele>
        <time>2020-08-14T09:16:08.258Z</time>
      </trkpt>
      <trkpt lat="37.440756" lon="-5.569099">
        <ele>118.456833</ele>
        <time>2020-08-14T09:16:11.243Z</time>
      </trkpt>
      <trkpt lat="37.440790" lon="-5.569235">
        <ele>118.478713</ele>
        <time>2020-08-14T09:16:14.266Z</time>
      </trkpt>
      <trkpt lat="37.440829" lon="-5.569369">
        <ele>118.500614</ele>
        <time>2020-08-14T09:16:17.235Z</time>
      </trkpt>
      <trkpt lat="37.440873" lon="-5.569512">
        <ele>118.524148</ele>
        <time>2020-08-14T09:16:20.257Z</time>
      </trkpt>
      <trkpt lat="37.440941" lon="-5.569636">
        <ele>118.547274</ele>
        <time>2020-08-14T09:16:23.255Z</time>
      </trkpt>
      <trkpt lat="37.441006" lon="-5.569745">
        <ele>118.568193</ele>
        <time>2020-08-14T09:16:26.249Z</time>
      </trkpt>
      <trkpt lat="37.441067" lon="-5.569858">
        <ele>118.589162</ele>
        <time>2020-08-14T09:16:29.253Z</time>
      </trkpt>
      <trkpt lat="37.441117" lon="-5.569977">
        <ele>118.609822</ele>
        <time>2020-08-14T09:16:32.258Z</time>
      </trkpt>
      <trkpt lat="37.441160" lon="-5.570101">
        <ele>118.630586</ele>
        <time>2020-08-14T09:16:35.255Z</time>
      </trkpt>
      <trkpt lat="37.441209" lon="-5.570215">
        <ele>118.650479</ele>
        <time>2020-08-14T09:16:38.246Z</time>
      </trkpt>
      <trkpt lat="37.441270" lon="-5.570330">
        <ele>118.671702</ele>
        <time>2020-08-14T09:16:41.263Z</time>
      </trkpt>
      <trkpt lat="37.441329" lon="-5.570436">
        <ele>118.691567</ele>
        <time>2020-08-14T09:16:44.250Z</time>
      </trkpt>
      <trkpt lat="37.441389" lon="-5.570554">
        <ele>118.713070</ele>
        <time>2020-08-14T09:16:47.276Z</time>
      </trkpt>
      <trkpt lat="37.441458" lon="-5.570678">
        <ele>118.722777</ele>
        <time>2020-08-14T09:16:50.247Z</time>
      </trkpt>
      <trkpt lat="37.441525" lon="-5.570801">
        <ele>118.731952</ele>
        <time>2020-08-14T09:16:53.258Z</time>
      </trkpt>
      <trkpt lat="37.441599" lon="-5.570917">
        <ele>118.741104</ele>
        <time>2020-08-14T09:16:56.233Z</time>
      </trkpt>
      <trkpt lat="37.441686" lon="-5.571024">
        <ele>118.750523</ele>
        <time>2020-08-14T09:16:59.250Z</time>
      </trkpt>
      <trkpt lat="37.441770" lon="-5.571137">
        <ele>118.760044</ele>
        <time>2020-08-14T09:17:02.247Z</time>
      </trkpt>
      <trkpt lat="37.441851" lon="-5.571259">
        <ele>118.769825</ele>
        <time>2020-08-14T09:17:05.256Z</time>
      </trkpt>
      <trkpt lat="37.441939" lon="-5.571401">
        <ele>118.780904</ele>
        <time>2020-08-14T09:17:08.250Z</time>
      </trkpt>
      <trkpt lat="37.441982" lon="-5.571510">
        <ele>118.788390</ele>
        <time>2020-08-14T09:17:10.264Z</time>
      </trkpt>
      <trkpt lat="37.442052" lon="-5.571587">
        <ele>118.795589</ele>
        <time>2020-08-14T09:17:13.245Z</time>
      </trkpt>
      <trkpt lat="37.442126" lon="-5.571657">
        <ele>118.802758</ele>
        <time>2020-08-14T09:17:15.252Z</time>
      </trkpt>
      <trkpt lat="37.442159" lon="-5.571771">
        <ele>118.810221</ele>
        <time>2020-08-14T09:17:17.251Z</time>
      </trkpt>
      <trkpt lat="37.442203" lon="-5.571873">
        <ele>118.817361</ele>
        <time>2020-08-14T09:17:19.246Z</time>
      </trkpt>
      <trkpt lat="37.442279" lon="-5.571974">
        <ele>118.825919</ele>
        <time>2020-08-14T09:17:22.246Z</time>
      </trkpt>
      <trkpt lat="37.442368" lon="-5.572068">
        <ele>118.834916</ele>
        <time>2020-08-14T09:17:25.255Z</time>
      </trkpt>
      <trkpt lat="37.442456" lon="-5.572170">
        <ele>118.844181</ele>
        <time>2020-08-14T09:17:28.249Z</time>
      </trkpt>
      <trkpt lat="37.442516" lon="-5.572260">
        <ele>118.851408</ele>
        <time>2020-08-14T09:17:30.250Z</time>
      </trkpt>
      <trkpt lat="37.442580" lon="-5.572397">
        <ele>118.904041</ele>
        <time>2020-08-14T09:17:33.248Z</time>
      </trkpt>
      <trkpt lat="37.442643" lon="-5.572527">
        <ele>118.962804</ele>
        <time>2020-08-14T09:17:36.252Z</time>
      </trkpt>
      <trkpt lat="37.442717" lon="-5.572630">
        <ele>119.016400</ele>
        <time>2020-08-14T09:17:39.251Z</time>
      </trkpt>
      <trkpt lat="37.442796" lon="-5.572716">
        <ele>119.067143</ele>
        <time>2020-08-14T09:17:42.266Z</time>
      </trkpt>
      <trkpt lat="37.442866" lon="-5.572807">
        <ele>119.116030</ele>
        <time>2020-08-14T09:17:45.245Z</time>
      </trkpt>
      <trkpt lat="37.442935" lon="-5.572916">
        <ele>119.169817</ele>
        <time>2020-08-14T09:17:48.248Z</time>
      </trkpt>
      <trkpt lat="37.443004" lon="-5.573034">
        <ele>119.226360</ele>
        <time>2020-08-14T09:17:51.249Z</time>
      </trkpt>
      <trkpt lat="37.443085" lon="-5.573152">
        <ele>119.286545</ele>
        <time>2020-08-14T09:17:54.255Z</time>
      </trkpt>
      <trkpt lat="37.443171" lon="-5.573256">
        <ele>119.344483</ele>
        <time>2020-08-14T09:17:57.256Z</time>
      </trkpt>
      <trkpt lat="37.443257" lon="-5.573379">
        <ele>119.407719</ele>
        <time>2020-08-14T09:18:00.260Z</time>
      </trkpt>
      <trkpt lat="37.443343" lon="-5.573499">
        <ele>119.470090</ele>
        <time>2020-08-14T09:18:03.253Z</time>
      </trkpt>
      <trkpt lat="37.443423" lon="-5.573619">
        <ele>119.530547</ele>
        <time>2020-08-14T09:18:06.258Z</time>
      </trkpt>
      <trkpt lat="37.443490" lon="-5.573739">
        <ele>119.587149</ele>
        <time>2020-08-14T09:18:09.246Z</time>
      </trkpt>
      <trkpt lat="37.443560" lon="-5.573864">
        <ele>119.646167</ele>
        <time>2020-08-14T09:18:12.250Z</time>
      </trkpt>
      <trkpt lat="37.443643" lon="-5.573981">
        <ele>119.706704</ele>
        <time>2020-08-14T09:18:15.264Z</time>
      </trkpt>
      <trkpt lat="37.443703" lon="-5.574099">
        <ele>119.746277</ele>
        <time>2020-08-14T09:18:19.260Z</time>
      </trkpt>
      <trkpt lat="37.443762" lon="-5.574201">
        <ele>119.773996</ele>
        <time>2020-08-14T09:18:22.260Z</time>
      </trkpt>
      <trkpt lat="37.443824" lon="-5.574318">
        <ele>119.804892</ele>
        <time>2020-08-14T09:18:25.255Z</time>
      </trkpt>
      <trkpt lat="37.443899" lon="-5.574423">
        <ele>119.835915</ele>
        <time>2020-08-14T09:18:28.252Z</time>
      </trkpt>
      <trkpt lat="37.443971" lon="-5.574530">
        <ele>119.866722</ele>
        <time>2020-08-14T09:18:31.266Z</time>
      </trkpt>
      <trkpt lat="37.444038" lon="-5.574637">
        <ele>119.896653</ele>
        <time>2020-08-14T09:18:34.252Z</time>
      </trkpt>
      <trkpt lat="37.444114" lon="-5.574733">
        <ele>119.926430</ele>
        <time>2020-08-14T09:18:37.251Z</time>
      </trkpt>
      <trkpt lat="37.444190" lon="-5.574838">
        <ele>119.957638</ele>
        <time>2020-08-14T09:18:40.243Z</time>
      </trkpt>
      <trkpt lat="37.444255" lon="-5.574947">
        <ele>119.987580</ele>
        <time>2020-08-14T09:18:43.258Z</time>
      </trkpt>
      <trkpt lat="37.444318" lon="-5.575058">
        <ele>120.017550</ele>
        <time>2020-08-14T09:18:46.250Z</time>
      </trkpt>
      <trkpt lat="37.444384" lon="-5.575172">
        <ele>120.048539</ele>
        <time>2020-08-14T09:18:49.242Z</time>
      </trkpt>
      <trkpt lat="37.444445" lon="-5.575284">
        <ele>120.078371</ele>
        <time>2020-08-14T09:18:52.263Z</time>
      </trkpt>
      <trkpt lat="37.444500" lon="-5.575403">
        <ele>120.108615</ele>
        <time>2020-08-14T09:18:55.261Z</time>
      </trkpt>
      <trkpt lat="37.444551" lon="-5.575524">
        <ele>120.138704</ele>
        <time>2020-08-14T09:18:58.261Z</time>
      </trkpt>
      <trkpt lat="37.444607" lon="-5.575630">
        <ele>120.166670</ele>
        <time>2020-08-14T09:19:01.260Z</time>
      </trkpt>
      <trkpt lat="37.444667" lon="-5.575734">
        <ele>120.194906</ele>
        <time>2020-08-14T09:19:04.260Z</time>
      </trkpt>
      <trkpt lat="37.444734" lon="-5.575830">
        <ele>120.222980</ele>
        <time>2020-08-14T09:19:07.263Z</time>
      </trkpt>
      <trkpt lat="37.444806" lon="-5.575926">
        <ele>120.241982</ele>
        <time>2020-08-14T09:19:10.258Z</time>
      </trkpt>
      <trkpt lat="37.444871" lon="-5.576030">
        <ele>120.260390</ele>
        <time>2020-08-14T09:19:13.265Z</time>
      </trkpt>
      <trkpt lat="37.444928" lon="-5.576130">
        <ele>120.277510</ele>
        <time>2020-08-14T09:19:16.262Z</time>
      </trkpt>
      <trkpt lat="37.445006" lon="-5.576239">
        <ele>120.297918</ele>
        <time>2020-08-14T09:19:20.246Z</time>
      </trkpt>
      <trkpt lat="37.445080" lon="-5.576346">
        <ele>120.317653</ele>
        <time>2020-08-14T09:19:24.254Z</time>
      </trkpt>
      <trkpt lat="37.445138" lon="-5.576441">
        <ele>120.334320</ele>
        <time>2020-08-14T09:19:28.260Z</time>
      </trkpt>
      <trkpt lat="37.445224" lon="-5.576546">
        <ele>120.355300</ele>
        <time>2020-08-14T09:19:32.259Z</time>
      </trkpt>
      <trkpt lat="37.445300" lon="-5.576623">
        <ele>120.372386</ele>
        <time>2020-08-14T09:19:35.249Z</time>
      </trkpt>
      <trkpt lat="37.445370" lon="-5.576700">
        <ele>120.388665</ele>
        <time>2020-08-14T09:19:38.249Z</time>
      </trkpt>
      <trkpt lat="37.445435" lon="-5.576788">
        <ele>120.405381</ele>
        <time>2020-08-14T09:19:41.253Z</time>
      </trkpt>
      <trkpt lat="37.445503" lon="-5.576896">
        <ele>120.424551</ele>
        <time>2020-08-14T09:19:45.265Z</time>
      </trkpt>
      <trkpt lat="37.445574" lon="-5.576996">
        <ele>120.443208</ele>
        <time>2020-08-14T09:19:49.256Z</time>
      </trkpt>
      <trkpt lat="37.445643" lon="-5.577121">
        <ele>120.464381</ele>
        <time>2020-08-14T09:19:53.249Z</time>
      </trkpt>
      <trkpt lat="37.445707" lon="-5.577228">
        <ele>120.483012</ele>
        <time>2020-08-14T09:19:56.249Z</time>
      </trkpt>
      <trkpt lat="37.445798" lon="-5.577344">
        <ele>120.505692</ele>
        <time>2020-08-14T09:19:59.256Z</time>
      </trkpt>
      <trkpt lat="37.445869" lon="-5.577441">
        <ele>120.524040</ele>
        <time>2020-08-14T09:20:02.250Z</time>
      </trkpt>
      <trkpt lat="37.445928" lon="-5.577542">
        <ele>120.537595</ele>
        <time>2020-08-14T09:20:05.258Z</time>
      </trkpt>
      <trkpt lat="37.445996" lon="-5.577650">
        <ele>120.512909</ele>
        <time>2020-08-14T09:20:08.261Z</time>
      </trkpt>
      <trkpt lat="37.446065" lon="-5.577755">
        <ele>120.488499</ele>
        <time>2020-08-14T09:20:11.260Z</time>
      </trkpt>
      <trkpt lat="37.446141" lon="-5.577845">
        <ele>120.464969</ele>
        <time>2020-08-14T09:20:14.266Z</time>
      </trkpt>
      <trkpt lat="37.446202" lon="-5.577941">
        <ele>120.442948</ele>
        <time>2020-08-14T09:20:17.250Z</time>
      </trkpt>
      <trkpt lat="37.446262" lon="-5.578040">
        <ele>120.420643</ele>
        <time>2020-08-14T09:20:20.253Z</time>
      </trkpt>
      <trkpt lat="37.446326" lon="-5.578144">
        <ele>120.397079</ele>
        <time>2020-08-14T09:20:23.264Z</time>
      </trkpt>
      <trkpt lat="37.446383" lon="-5.578247">
        <ele>120.374594</ele>
        <time>2020-08-14T09:20:26.250Z</time>
      </trkpt>
      <trkpt lat="37.446454" lon="-5.578345">
        <ele>120.350834</ele>
        <time>2020-08-14T09:20:29.247Z</time>
      </trkpt>
      <trkpt lat="37.446517" lon="-5.578448">
        <ele>120.327549</ele>
        <time>2020-08-14T09:20:34.248Z</time>
      </trkpt>
      <trkpt lat="37.446585" lon="-5.578552">
        <ele>120.303421</ele>
        <time>2020-08-14T09:20:36.249Z</time>
      </trkpt>
      <trkpt lat="37.446678" lon="-5.578688">
        <ele>120.271276</ele>
        <time>2020-08-14T09:20:39.271Z</time>
      </trkpt>
      <trkpt lat="37.446775" lon="-5.578796">
        <ele>120.242073</ele>
        <time>2020-08-14T09:20:42.245Z</time>
      </trkpt>
      <trkpt lat="37.446830" lon="-5.578899">
        <ele>120.219843</ele>
        <time>2020-08-14T09:20:45.251Z</time>
      </trkpt>
      <trkpt lat="37.446919" lon="-5.579020">
        <ele>120.190304</ele>
        <time>2020-08-14T09:20:48.249Z</time>
      </trkpt>
      <trkpt lat="37.446973" lon="-5.579143">
        <ele>120.165133</ele>
        <time>2020-08-14T09:20:51.256Z</time>
      </trkpt>
      <trkpt lat="37.447032" lon="-5.579247">
        <ele>120.142242</ele>
        <time>2020-08-14T09:20:54.244Z</time>
      </trkpt>
      <trkpt lat="37.447105" lon="-5.579336">
        <ele>120.117500</ele>
        <time>2020-08-14T09:20:57.245Z</time>
      </trkpt>
      <trkpt lat="37.447165" lon="-5.579442">
        <ele>120.091299</ele>
        <time>2020-08-14T09:21:00.265Z</time>
      </trkpt>
      <trkpt lat="37.447236" lon="-5.579538">
        <ele>120.064893</ele>
        <time>2020-08-14T09:21:03.252Z</time>
      </trkpt>
      <trkpt lat="37.447309" lon="-5.579630">
        <ele>120.038715</ele>
        <time>2020-08-14T09:21:06.256Z</time>
      </trkpt>
      <trkpt lat="37.447364" lon="-5.579735">
        <ele>120.013397</ele>
        <time>2020-08-14T09:21:09.263Z</time>
      </trkpt>
      <trkpt lat="37.447414" lon="-5.579850">
        <ele>119.987008</ele>
        <time>2020-08-14T09:21:12.261Z</time>
      </trkpt>
      <trkpt lat="37.447462" lon="-5.579955">
        <ele>119.962623</ele>
        <time>2020-08-14T09:21:15.253Z</time>
      </trkpt>
      <trkpt lat="37.447510" lon="-5.580056">
        <ele>119.938932</ele>
        <time>2020-08-14T09:21:18.253Z</time>
      </trkpt>
      <trkpt lat="37.447546" lon="-5.580166">
        <ele>119.914986</ele>
        <time>2020-08-14T09:21:21.244Z</time>
      </trkpt>
      <trkpt lat="37.447583" lon="-5.580294">
        <ele>119.887570</ele>
        <time>2020-08-14T09:21:24.245Z</time>
      </trkpt>
      <trkpt lat="37.447630" lon="-5.580414">
        <ele>119.860640</ele>
        <time>2020-08-14T09:21:27.267Z</time>
      </trkpt>
      <trkpt lat="37.447686" lon="-5.580517">
        <ele>119.835515</ele>
        <time>2020-08-14T09:21:30.248Z</time>
      </trkpt>
      <trkpt lat="37.447741" lon="-5.580629">
        <ele>119.809010</ele>
        <time>2020-08-14T09:21:33.249Z</time>
      </trkpt>
      <trkpt lat="37.447817" lon="-5.580757">
        <ele>119.776841</ele>
        <time>2020-08-14T09:21:36.241Z</time>
      </trkpt>
      <trkpt lat="37.447876" lon="-5.580870">
        <ele>119.749621</ele>
        <time>2020-08-14T09:21:38.251Z</time>
      </trkpt>
      <trkpt lat="37.447970" lon="-5.580963">
        <ele>119.719320</ele>
        <time>2020-08-14T09:21:40.245Z</time>
      </trkpt>
      <trkpt lat="37.448061" lon="-5.581056">
        <ele>119.689613</ele>
        <time>2020-08-14T09:21:42.244Z</time>
      </trkpt>
      <trkpt lat="37.448150" lon="-5.581143">
        <ele>119.667926</ele>
        <time>2020-08-14T09:21:44.243Z</time>
      </trkpt>
      <trkpt lat="37.448244" lon="-5.581221">
        <ele>119.650900</ele>
        <time>2020-08-14T09:21:46.253Z</time>
      </trkpt>
      <trkpt lat="37.448353" lon="-5.581293">
        <ele>119.632284</ele>
        <time>2020-08-14T09:21:50.273Z</time>
      </trkpt>
      <trkpt lat="37.448457" lon="-5.581362">
        <ele>119.614505</ele>
        <time>2020-08-14T09:21:52.264Z</time>
      </trkpt>
      <trkpt lat="37.448545" lon="-5.581426">
        <ele>119.599135</ele>
        <time>2020-08-14T09:21:54.280Z</time>
      </trkpt>
      <trkpt lat="37.448635" lon="-5.581502">
        <ele>119.582746</ele>
        <time>2020-08-14T09:21:56.265Z</time>
      </trkpt>
      <trkpt lat="37.448709" lon="-5.581603">
        <ele>119.566242</ele>
        <time>2020-08-14T09:22:00.258Z</time>
      </trkpt>
      <trkpt lat="37.448788" lon="-5.581665">
        <ele>119.552163</ele>
        <time>2020-08-14T09:22:04.261Z</time>
      </trkpt>
      <trkpt lat="37.448869" lon="-5.581754">
        <ele>119.535905</ele>
        <time>2020-08-14T09:22:10.244Z</time>
      </trkpt>
      <trkpt lat="37.448945" lon="-5.581846">
        <ele>119.519962</ele>
        <time>2020-08-14T09:22:13.272Z</time>
      </trkpt>
      <trkpt lat="37.449027" lon="-5.581939">
        <ele>119.503272</ele>
        <time>2020-08-14T09:22:15.251Z</time>
      </trkpt>
      <trkpt lat="37.449104" lon="-5.582036">
        <ele>119.486800</ele>
        <time>2020-08-14T09:22:19.263Z</time>
      </trkpt>
      <trkpt lat="37.449142" lon="-5.582140">
        <ele>119.473053</ele>
        <time>2020-08-14T09:22:25.237Z</time>
      </trkpt>
      <trkpt lat="37.449165" lon="-5.582277">
        <ele>119.456238</ele>
        <time>2020-08-14T09:22:30.278Z</time>
      </trkpt>
      <trkpt lat="37.449150" lon="-5.582140">
        <ele>119.439631</ele>
        <time>2020-08-14T09:22:36.277Z</time>
      </trkpt>
      <trkpt lat="37.449208" lon="-5.582248">
        <ele>119.423974</ele>
        <time>2020-08-14T09:22:38.276Z</time>
      </trkpt>
      <trkpt lat="37.449259" lon="-5.582352">
        <ele>119.409295</ele>
        <time>2020-08-14T09:22:41.267Z</time>
      </trkpt>
      <trkpt lat="37.449302" lon="-5.582458">
        <ele>119.318580</ele>
        <time>2020-08-14T09:22:47.278Z</time>
      </trkpt>
      <trkpt lat="37.450346" lon="-5.584256">
        <ele>117.200056</ele>
        <time>2020-08-14T09:23:45.318Z</time>
      </trkpt>
      <trkpt lat="37.450418" lon="-5.584362">
        <ele>117.070041</ele>
        <time>2020-08-14T09:23:49.275Z</time>
      </trkpt>
      <trkpt lat="37.450470" lon="-5.584497">
        <ele>116.930196</ele>
        <time>2020-08-14T09:23:53.278Z</time>
      </trkpt>
      <trkpt lat="37.450510" lon="-5.584599">
        <ele>116.824168</ele>
        <time>2020-08-14T09:23:56.266Z</time>
      </trkpt>
      <trkpt lat="37.450573" lon="-5.584724">
        <ele>116.686177</ele>
        <time>2020-08-14T09:24:00.279Z</time>
      </trkpt>
      <trkpt lat="37.450637" lon="-5.584835">
        <ele>116.558322</ele>
        <time>2020-08-14T09:24:04.264Z</time>
      </trkpt>
      <trkpt lat="37.450771" lon="-5.584842">
        <ele>116.400877</ele>
        <time>2020-08-14T09:24:08.261Z</time>
      </trkpt>
      <trkpt lat="37.450846" lon="-5.584908">
        <ele>116.293472</ele>
        <time>2020-08-14T09:24:12.237Z</time>
      </trkpt>
      <trkpt lat="37.450920" lon="-5.584998">
        <ele>116.172714</ele>
        <time>2020-08-14T09:24:19.289Z</time>
      </trkpt>
      <trkpt lat="37.450966" lon="-5.585117">
        <ele>116.049361</ele>
        <time>2020-08-14T09:24:23.287Z</time>
      </trkpt>
      <trkpt lat="37.451017" lon="-5.585212">
        <ele>115.942480</ele>
        <time>2020-08-14T09:24:26.277Z</time>
      </trkpt>
      <trkpt lat="37.451081" lon="-5.585319">
        <ele>115.817623</ele>
        <time>2020-08-14T09:24:30.277Z</time>
      </trkpt>
      <trkpt lat="37.451165" lon="-5.585419">
        <ele>115.681939</ele>
        <time>2020-08-14T09:24:34.265Z</time>
      </trkpt>
      <trkpt lat="37.451257" lon="-5.585525">
        <ele>115.535569</ele>
        <time>2020-08-14T09:24:37.273Z</time>
      </trkpt>
      <trkpt lat="37.451329" lon="-5.585622">
        <ele>115.411808</ele>
        <time>2020-08-14T09:24:40.272Z</time>
      </trkpt>
      <trkpt lat="37.451403" lon="-5.585730">
        <ele>115.278850</ele>
        <time>2020-08-14T09:24:43.260Z</time>
      </trkpt>
      <trkpt lat="37.451476" lon="-5.585824">
        <ele>115.156298</ele>
        <time>2020-08-14T09:24:47.242Z</time>
      </trkpt>
      <trkpt lat="37.451550" lon="-5.585931">
        <ele>115.427110</ele>
        <time>2020-08-14T09:24:51.267Z</time>
      </trkpt>
      <trkpt lat="37.451627" lon="-5.586027">
        <ele>115.746848</ele>
        <time>2020-08-14T09:24:55.257Z</time>
      </trkpt>
      <trkpt lat="37.451687" lon="-5.586133">
        <ele>116.051865</ele>
        <time>2020-08-14T09:24:59.242Z</time>
      </trkpt>
      <trkpt lat="37.451769" lon="-5.586228">
        <ele>116.380663</ele>
        <time>2020-08-14T09:25:03.256Z</time>
      </trkpt>
      <trkpt lat="37.451836" lon="-5.586333">
        <ele>116.696289</ele>
        <time>2020-08-14T09:25:07.272Z</time>
      </trkpt>
      <trkpt lat="37.451903" lon="-5.586421">
        <ele>116.981962</ele>
        <time>2020-08-14T09:25:10.242Z</time>
      </trkpt>
      <trkpt lat="37.451982" lon="-5.586526">
        <ele>117.320901</ele>
        <time>2020-08-14T09:25:14.255Z</time>
      </trkpt>
      <trkpt lat="37.452068" lon="-5.586626">
        <ele>117.666319</ele>
        <time>2020-08-14T09:25:18.258Z</time>
      </trkpt>
      <trkpt lat="37.452138" lon="-5.586702">
        <ele>117.939056</ele>
        <time>2020-08-14T09:25:21.244Z</time>
      </trkpt>
      <trkpt lat="37.452226" lon="-5.586814">
        <ele>118.308257</ele>
        <time>2020-08-14T09:25:25.264Z</time>
      </trkpt>
      <trkpt lat="37.452306" lon="-5.586909">
        <ele>118.632734</ele>
        <time>2020-08-14T09:25:29.242Z</time>
      </trkpt>
      <trkpt lat="37.452371" lon="-5.586989">
        <ele>118.900935</ele>
        <time>2020-08-14T09:25:33.256Z</time>
      </trkpt>
      <trkpt lat="37.452430" lon="-5.587081">
        <ele>119.178029</ele>
        <time>2020-08-14T09:25:37.260Z</time>
      </trkpt>
      <trkpt lat="37.452505" lon="-5.587168">
        <ele>119.478932</ele>
        <time>2020-08-14T09:25:41.245Z</time>
      </trkpt>
      <trkpt lat="37.452570" lon="-5.587268">
        <ele>119.781740</ele>
        <time>2020-08-14T09:25:45.251Z</time>
      </trkpt>
      <trkpt lat="37.452626" lon="-5.587370">
        <ele>120.072299</ele>
        <time>2020-08-14T09:25:49.262Z</time>
      </trkpt>
      <trkpt lat="37.452679" lon="-5.587495">
        <ele>120.404317</ele>
        <time>2020-08-14T09:25:53.254Z</time>
      </trkpt>
      <trkpt lat="37.452724" lon="-5.587616">
        <ele>120.189496</ele>
        <time>2020-08-14T09:25:57.261Z</time>
      </trkpt>
      <trkpt lat="37.452799" lon="-5.587712">
        <ele>119.888772</ele>
        <time>2020-08-14T09:26:01.251Z</time>
      </trkpt>
      <trkpt lat="37.452862" lon="-5.587835">
        <ele>119.561951</ele>
        <time>2020-08-14T09:26:05.261Z</time>
      </trkpt>
      <trkpt lat="37.452943" lon="-5.587931">
        <ele>119.249160</ele>
        <time>2020-08-14T09:26:09.261Z</time>
      </trkpt>
      <trkpt lat="37.453024" lon="-5.588012">
        <ele>118.958293</ele>
        <time>2020-08-14T09:26:13.257Z</time>
      </trkpt>
      <trkpt lat="37.453112" lon="-5.588055">
        <ele>118.692827</ele>
        <time>2020-08-14T09:26:17.253Z</time>
      </trkpt>
      <trkpt lat="37.453274" lon="-5.588267">
        <ele>118.035841</ele>
        <time>2020-08-14T09:28:17.281Z</time>
      </trkpt>
      <trkpt lat="37.453354" lon="-5.588364">
        <ele>117.723549</ele>
        <time>2020-08-14T09:28:21.267Z</time>
      </trkpt>
      <trkpt lat="37.453427" lon="-5.588456">
        <ele>117.433128</ele>
        <time>2020-08-14T09:28:25.276Z</time>
      </trkpt>
      <trkpt lat="37.453490" lon="-5.588558">
        <ele>117.144585</ele>
        <time>2020-08-14T09:28:29.273Z</time>
      </trkpt>
      <trkpt lat="37.453553" lon="-5.588664">
        <ele>116.848943</ele>
        <time>2020-08-14T09:28:33.275Z</time>
      </trkpt>
      <trkpt lat="37.453603" lon="-5.588767">
        <ele>116.579389</ele>
        <time>2020-08-14T09:28:37.263Z</time>
      </trkpt>
      <trkpt lat="37.453666" lon="-5.588862">
        <ele>116.303015</ele>
        <time>2020-08-14T09:28:42.295Z</time>
      </trkpt>
      <trkpt lat="37.453737" lon="-5.588963">
        <ele>116.001810</ele>
        <time>2020-08-14T09:28:47.270Z</time>
      </trkpt>
      <trkpt lat="37.453801" lon="-5.589058">
        <ele>115.723624</ele>
        <time>2020-08-14T09:28:52.275Z</time>
      </trkpt>
      <trkpt lat="37.453858" lon="-5.589147">
        <ele>115.468313</ele>
        <time>2020-08-14T09:28:57.267Z</time>
      </trkpt>
      <trkpt lat="37.453930" lon="-5.589259">
        <ele>115.442134</ele>
        <time>2020-08-14T09:29:02.262Z</time>
      </trkpt>
      <trkpt lat="37.454001" lon="-5.589334">
        <ele>115.499978</ele>
        <time>2020-08-14T09:29:05.269Z</time>
      </trkpt>
      <trkpt lat="37.454079" lon="-5.589436">
        <ele>115.570165</ele>
        <time>2020-08-14T09:29:09.264Z</time>
      </trkpt>
      <trkpt lat="37.454128" lon="-5.589540">
        <ele>115.630098</ele>
        <time>2020-08-14T09:29:13.260Z</time>
      </trkpt>
      <trkpt lat="37.454180" lon="-5.589642">
        <ele>115.690172</ele>
        <time>2020-08-14T09:29:16.274Z</time>
      </trkpt>
      <trkpt lat="37.454249" lon="-5.589749">
        <ele>115.758489</ele>
        <time>2020-08-14T09:29:20.252Z</time>
      </trkpt>
      <trkpt lat="37.454305" lon="-5.589865">
        <ele>115.825770</ele>
        <time>2020-08-14T09:29:24.260Z</time>
      </trkpt>
      <trkpt lat="37.454378" lon="-5.589970">
        <ele>115.894939</ele>
        <time>2020-08-14T09:29:29.264Z</time>
      </trkpt>
      <trkpt lat="37.454433" lon="-5.590063">
        <ele>115.952411</ele>
        <time>2020-08-14T09:29:32.251Z</time>
      </trkpt>
      <trkpt lat="37.454486" lon="-5.590163">
        <ele>116.011997</ele>
        <time>2020-08-14T09:29:35.261Z</time>
      </trkpt>
      <trkpt lat="37.454533" lon="-5.590277">
        <ele>116.075657</ele>
        <time>2020-08-14T09:29:38.255Z</time>
      </trkpt>
      <trkpt lat="37.454591" lon="-5.590373">
        <ele>116.135442</ele>
        <time>2020-08-14T09:29:41.253Z</time>
      </trkpt>
      <trkpt lat="37.454644" lon="-5.590464">
        <ele>116.191375</ele>
        <time>2020-08-14T09:29:45.288Z</time>
      </trkpt>
      <trkpt lat="37.454716" lon="-5.590584">
        <ele>116.265918</ele>
        <time>2020-08-14T09:29:48.276Z</time>
      </trkpt>
      <trkpt lat="37.454787" lon="-5.590702">
        <ele>116.339294</ele>
        <time>2020-08-14T09:29:51.275Z</time>
      </trkpt>
      <trkpt lat="37.454859" lon="-5.590837">
        <ele>116.419892</ele>
        <time>2020-08-14T09:29:54.296Z</time>
      </trkpt>
      <trkpt lat="37.454921" lon="-5.590958">
        <ele>116.491262</ele>
        <time>2020-08-14T09:29:57.266Z</time>
      </trkpt>
      <trkpt lat="37.454990" lon="-5.591096">
        <ele>116.365600</ele>
        <time>2020-08-14T09:30:00.261Z</time>
      </trkpt>
      <trkpt lat="37.455063" lon="-5.591239">
        <ele>116.163746</ele>
        <time>2020-08-14T09:30:03.282Z</time>
      </trkpt>
      <trkpt lat="37.455116" lon="-5.591338">
        <ele>116.021976</ele>
        <time>2020-08-14T09:30:05.262Z</time>
      </trkpt>
      <trkpt lat="37.455166" lon="-5.591464">
        <ele>115.854731</ele>
        <time>2020-08-14T09:30:07.245Z</time>
      </trkpt>
      <trkpt lat="37.455216" lon="-5.591588">
        <ele>115.689607</ele>
        <time>2020-08-14T09:30:09.244Z</time>
      </trkpt>
      <trkpt lat="37.455278" lon="-5.591717">
        <ele>115.510567</ele>
        <time>2020-08-14T09:30:11.252Z</time>
      </trkpt>
      <trkpt lat="37.455340" lon="-5.591845">
        <ele>115.332541</ele>
        <time>2020-08-14T09:30:13.254Z</time>
      </trkpt>
      <trkpt lat="37.455388" lon="-5.591983">
        <ele>115.153662</ele>
        <time>2020-08-14T09:30:15.244Z</time>
      </trkpt>
      <trkpt lat="37.455454" lon="-5.592096">
        <ele>114.987100</ele>
        <time>2020-08-14T09:30:17.240Z</time>
      </trkpt>
      <trkpt lat="37.455516" lon="-5.592226">
        <ele>114.807044</ele>
        <time>2020-08-14T09:30:19.244Z</time>
      </trkpt>
      <trkpt lat="37.455563" lon="-5.592355">
        <ele>114.638527</ele>
        <time>2020-08-14T09:30:21.242Z</time>
      </trkpt>
      <trkpt lat="37.455608" lon="-5.592503">
        <ele>114.450365</ele>
        <time>2020-08-14T09:30:23.262Z</time>
      </trkpt>
      <trkpt lat="37.455649" lon="-5.592635">
        <ele>114.282078</ele>
        <time>2020-08-14T09:30:25.256Z</time>
      </trkpt>
      <trkpt lat="37.455689" lon="-5.592767">
        <ele>114.114330</ele>
        <time>2020-08-14T09:30:27.238Z</time>
      </trkpt>
      <trkpt lat="37.455721" lon="-5.592882">
        <ele>113.969651</ele>
        <time>2020-08-14T09:30:29.249Z</time>
      </trkpt>
      <trkpt lat="37.455753" lon="-5.592998">
        <ele>113.823851</ele>
        <time>2020-08-14T09:30:31.256Z</time>
      </trkpt>
      <trkpt lat="37.455794" lon="-5.593126">
        <ele>114.037848</ele>
        <time>2020-08-14T09:30:34.247Z</time>
      </trkpt>
      <trkpt lat="37.455899" lon="-5.593389">
        <ele>114.507494</ele>
        <time>2020-08-14T09:30:39.288Z</time>
      </trkpt>
      <trkpt lat="37.455947" lon="-5.593494">
        <ele>114.700793</ele>
        <time>2020-08-14T09:30:41.262Z</time>
      </trkpt>
      <trkpt lat="37.455988" lon="-5.593651">
        <ele>114.964464</ele>
        <time>2020-08-14T09:30:44.248Z</time>
      </trkpt>
      <trkpt lat="37.456035" lon="-5.593803">
        <ele>115.224699</ele>
        <time>2020-08-14T09:30:47.246Z</time>
      </trkpt>
      <trkpt lat="37.456078" lon="-5.593950">
        <ele>115.474626</ele>
        <time>2020-08-14T09:30:50.251Z</time>
      </trkpt>
      <trkpt lat="37.456138" lon="-5.594057">
        <ele>115.683619</ele>
        <time>2020-08-14T09:30:53.249Z</time>
      </trkpt>
      <trkpt lat="37.456169" lon="-5.594188">
        <ele>115.901694</ele>
        <time>2020-08-14T09:30:56.250Z</time>
      </trkpt>
      <trkpt lat="37.456188" lon="-5.594321">
        <ele>116.117279</ele>
        <time>2020-08-14T09:30:59.262Z</time>
      </trkpt>
      <trkpt lat="37.456198" lon="-5.594450">
        <ele>116.324054</ele>
        <time>2020-08-14T09:31:02.242Z</time>
      </trkpt>
      <trkpt lat="37.456221" lon="-5.594581">
        <ele>116.538091</ele>
        <time>2020-08-14T09:31:05.255Z</time>
      </trkpt>
      <trkpt lat="37.456246" lon="-5.594707">
        <ele>116.745285</ele>
        <time>2020-08-14T09:31:08.245Z</time>
      </trkpt>
      <trkpt lat="37.456260" lon="-5.594834">
        <ele>116.949834</ele>
        <time>2020-08-14T09:31:11.259Z</time>
      </trkpt>
      <trkpt lat="37.456277" lon="-5.594956">
        <ele>117.147439</ele>
        <time>2020-08-14T09:31:14.250Z</time>
      </trkpt>
      <trkpt lat="37.456298" lon="-5.595082">
        <ele>117.352831</ele>
        <time>2020-08-14T09:31:17.243Z</time>
      </trkpt>
      <trkpt lat="37.456313" lon="-5.595208">
        <ele>117.591403</ele>
        <time>2020-08-14T09:31:20.254Z</time>
      </trkpt>
      <trkpt lat="37.456324" lon="-5.595345">
        <ele>117.875617</ele>
        <time>2020-08-14T09:31:23.249Z</time>
      </trkpt>
      <trkpt lat="37.456330" lon="-5.595479">
        <ele>118.152635</ele>
        <time>2020-08-14T09:31:26.268Z</time>
      </trkpt>
      <trkpt lat="37.456339" lon="-5.595602">
        <ele>118.407587</ele>
        <time>2020-08-14T09:31:29.256Z</time>
      </trkpt>
      <trkpt lat="37.456341" lon="-5.595730">
        <ele>118.671833</ele>
        <time>2020-08-14T09:31:32.257Z</time>
      </trkpt>
      <trkpt lat="37.456364" lon="-5.595880">
        <ele>118.987159</ele>
        <time>2020-08-14T09:31:36.261Z</time>
      </trkpt>
      <trkpt lat="37.456377" lon="-5.596005">
        <ele>119.247367</ele>
        <time>2020-08-14T09:31:39.266Z</time>
      </trkpt>
      <trkpt lat="37.456385" lon="-5.596143">
        <ele>119.532960</ele>
        <time>2020-08-14T09:31:42.259Z</time>
      </trkpt>
      <trkpt lat="37.456399" lon="-5.596276">
        <ele>119.809878</ele>
        <time>2020-08-14T09:31:45.260Z</time>
      </trkpt>
      <trkpt lat="37.456414" lon="-5.596404">
        <ele>120.076937</ele>
        <time>2020-08-14T09:31:48.261Z</time>
      </trkpt>
      <trkpt lat="37.456432" lon="-5.596522">
        <ele>120.324947</ele>
        <time>2020-08-14T09:31:51.246Z</time>
      </trkpt>
      <trkpt lat="37.456457" lon="-5.596643">
        <ele>120.583014</ele>
        <time>2020-08-14T09:31:54.260Z</time>
      </trkpt>
      <trkpt lat="37.456474" lon="-5.596774">
        <ele>120.856990</ele>
        <time>2020-08-14T09:31:57.265Z</time>
      </trkpt>
      <trkpt lat="37.456495" lon="-5.596900">
        <ele>121.122727</ele>
        <time>2020-08-14T09:32:00.259Z</time>
      </trkpt>
      <trkpt lat="37.456505" lon="-5.597036">
        <ele>121.404635</ele>
        <time>2020-08-14T09:32:03.254Z</time>
      </trkpt>
      <trkpt lat="37.456511" lon="-5.597160">
        <ele>121.661049</ele>
        <time>2020-08-14T09:32:06.260Z</time>
      </trkpt>
      <trkpt lat="37.456527" lon="-5.597299">
        <ele>121.950948</ele>
        <time>2020-08-14T09:32:09.253Z</time>
      </trkpt>
      <trkpt lat="37.456538" lon="-5.597435">
        <ele>122.096620</ele>
        <time>2020-08-14T09:32:12.261Z</time>
      </trkpt>
      <trkpt lat="37.456557" lon="-5.597554">
        <ele>122.063422</ele>
        <time>2020-08-14T09:32:15.252Z</time>
      </trkpt>
      <trkpt lat="37.456575" lon="-5.597679">
        <ele>122.028677</ele>
        <time>2020-08-14T09:32:18.261Z</time>
      </trkpt>
      <trkpt lat="37.456590" lon="-5.597800">
        <ele>121.995182</ele>
        <time>2020-08-14T09:32:21.247Z</time>
      </trkpt>
      <trkpt lat="37.456596" lon="-5.597918">
        <ele>121.962843</ele>
        <time>2020-08-14T09:32:24.262Z</time>
      </trkpt>
      <trkpt lat="37.456600" lon="-5.598051">
        <ele>121.926442</ele>
        <time>2020-08-14T09:32:27.244Z</time>
      </trkpt>
      <trkpt lat="37.456625" lon="-5.598190">
        <ele>121.887462</ele>
        <time>2020-08-14T09:32:30.257Z</time>
      </trkpt>
      <trkpt lat="37.456642" lon="-5.598330">
        <ele>121.848727</ele>
        <time>2020-08-14T09:32:33.261Z</time>
      </trkpt>
      <trkpt lat="37.456664" lon="-5.598465">
        <ele>121.811034</ele>
        <time>2020-08-14T09:32:36.256Z</time>
      </trkpt>
      <trkpt lat="37.456681" lon="-5.598587">
        <ele>121.777157</ele>
        <time>2020-08-14T09:32:39.270Z</time>
      </trkpt>
      <trkpt lat="37.456697" lon="-5.598736">
        <ele>121.736035</ele>
        <time>2020-08-14T09:32:43.261Z</time>
      </trkpt>
      <trkpt lat="37.456708" lon="-5.598852">
        <ele>121.704083</ele>
        <time>2020-08-14T09:32:46.262Z</time>
      </trkpt>
      <trkpt lat="37.456717" lon="-5.598970">
        <ele>121.671662</ele>
        <time>2020-08-14T09:32:49.252Z</time>
      </trkpt>
      <trkpt lat="37.456734" lon="-5.599095">
        <ele>121.636977</ele>
        <time>2020-08-14T09:32:52.251Z</time>
      </trkpt>
      <trkpt lat="37.456754" lon="-5.599237">
        <ele>121.597533</ele>
        <time>2020-08-14T09:32:56.243Z</time>
      </trkpt>
      <trkpt lat="37.456759" lon="-5.599351">
        <ele>121.566307</ele>
        <time>2020-08-14T09:32:59.246Z</time>
      </trkpt>
      <trkpt lat="37.456778" lon="-5.599488">
        <ele>121.528270</ele>
        <time>2020-08-14T09:33:03.257Z</time>
      </trkpt>
      <trkpt lat="37.456794" lon="-5.599611">
        <ele>121.494181</ele>
        <time>2020-08-14T09:33:06.266Z</time>
      </trkpt>
      <trkpt lat="37.456806" lon="-5.599724">
        <ele>121.542938</ele>
        <time>2020-08-14T09:33:09.256Z</time>
      </trkpt>
      <trkpt lat="37.456807" lon="-5.599852">
        <ele>121.601560</ele>
        <time>2020-08-14T09:33:12.257Z</time>
      </trkpt>
      <trkpt lat="37.456811" lon="-5.600000">
        <ele>121.669378</ele>
        <time>2020-08-14T09:33:16.240Z</time>
      </trkpt>
      <trkpt lat="37.456815" lon="-5.600132">
        <ele>121.729874</ele>
        <time>2020-08-14T09:33:20.256Z</time>
      </trkpt>
      <trkpt lat="37.456816" lon="-5.600247">
        <ele>121.782543</ele>
        <time>2020-08-14T09:33:23.240Z</time>
      </trkpt>
      <trkpt lat="37.456825" lon="-5.600386">
        <ele>121.846411</ele>
        <time>2020-08-14T09:33:27.243Z</time>
      </trkpt>
      <trkpt lat="37.456848" lon="-5.600528">
        <ele>121.912782</ele>
        <time>2020-08-14T09:33:31.260Z</time>
      </trkpt>
      <trkpt lat="37.456870" lon="-5.600675">
        <ele>121.981289</ele>
        <time>2020-08-14T09:33:35.254Z</time>
      </trkpt>
      <trkpt lat="37.456898" lon="-5.600807">
        <ele>122.043862</ele>
        <time>2020-08-14T09:33:39.249Z</time>
      </trkpt>
      <trkpt lat="37.456922" lon="-5.600948">
        <ele>122.109903</ele>
        <time>2020-08-14T09:33:43.256Z</time>
      </trkpt>
      <trkpt lat="37.456939" lon="-5.601065">
        <ele>122.164375</ele>
        <time>2020-08-14T09:33:46.260Z</time>
      </trkpt>
      <trkpt lat="37.456955" lon="-5.601186">
        <ele>122.220552</ele>
        <time>2020-08-14T09:33:49.256Z</time>
      </trkpt>
      <trkpt lat="37.457002" lon="-5.601326">
        <ele>122.290165</ele>
        <time>2020-08-14T09:33:53.251Z</time>
      </trkpt>
      <trkpt lat="37.457027" lon="-5.601435">
        <ele>122.342125</ele>
        <time>2020-08-14T09:33:56.280Z</time>
      </trkpt>
      <trkpt lat="37.457057" lon="-5.601546">
        <ele>122.395825</ele>
        <time>2020-08-14T09:33:59.259Z</time>
      </trkpt>
      <trkpt lat="37.457079" lon="-5.601664">
        <ele>122.451335</ele>
        <time>2020-08-14T09:34:02.258Z</time>
      </trkpt>
      <trkpt lat="37.457103" lon="-5.601786">
        <ele>122.508896</ele>
        <time>2020-08-14T09:34:05.262Z</time>
      </trkpt>
      <trkpt lat="37.457126" lon="-5.601912">
        <ele>122.722883</ele>
        <time>2020-08-14T09:34:08.261Z</time>
      </trkpt>
      <trkpt lat="37.457158" lon="-5.602025">
        <ele>123.004334</ele>
        <time>2020-08-14T09:34:11.258Z</time>
      </trkpt>
      <trkpt lat="37.457187" lon="-5.602144">
        <ele>123.296357</ele>
        <time>2020-08-14T09:34:14.260Z</time>
      </trkpt>
      <trkpt lat="37.457216" lon="-5.602254">
        <ele>123.568266</ele>
        <time>2020-08-14T09:34:17.260Z</time>
      </trkpt>
      <trkpt lat="37.457226" lon="-5.602367">
        <ele>123.834996</ele>
        <time>2020-08-14T09:34:20.262Z</time>
      </trkpt>
      <trkpt lat="37.457223" lon="-5.602487">
        <ele>124.116644</ele>
        <time>2020-08-14T09:34:23.271Z</time>
      </trkpt>
      <trkpt lat="37.457217" lon="-5.602622">
        <ele>124.433838</ele>
        <time>2020-08-14T09:34:26.273Z</time>
      </trkpt>
      <trkpt lat="37.457213" lon="-5.602756">
        <ele>124.748412</ele>
        <time>2020-08-14T09:34:29.252Z</time>
      </trkpt>
      <trkpt lat="37.457214" lon="-5.602881">
        <ele>125.041665</ele>
        <time>2020-08-14T09:34:32.265Z</time>
      </trkpt>
      <trkpt lat="37.457212" lon="-5.603002">
        <ele>125.325582</ele>
        <time>2020-08-14T09:34:35.252Z</time>
      </trkpt>
      <trkpt lat="37.457203" lon="-5.603137">
        <ele>125.643394</ele>
        <time>2020-08-14T09:34:39.260Z</time>
      </trkpt>
      <trkpt lat="37.457197" lon="-5.603263">
        <ele>125.939510</ele>
        <time>2020-08-14T09:34:43.248Z</time>
      </trkpt>
      <trkpt lat="37.457206" lon="-5.603379">
        <ele>126.212932</ele>
        <time>2020-08-14T09:34:47.256Z</time>
      </trkpt>
      <trkpt lat="37.457219" lon="-5.603523">
        <ele>126.552921</ele>
        <time>2020-08-14T09:34:52.265Z</time>
      </trkpt>
      <trkpt lat="37.457224" lon="-5.603659">
        <ele>126.872306</ele>
        <time>2020-08-14T09:34:56.262Z</time>
      </trkpt>
      <trkpt lat="37.457217" lon="-5.603807">
        <ele>127.220116</ele>
        <time>2020-08-14T09:35:00.259Z</time>
      </trkpt>
      <trkpt lat="37.457220" lon="-5.603947">
        <ele>127.548663</ele>
        <time>2020-08-14T09:35:05.253Z</time>
      </trkpt>
      <trkpt lat="37.457214" lon="-5.604084">
        <ele>127.847953</ele>
        <time>2020-08-14T09:35:09.262Z</time>
      </trkpt>
      <trkpt lat="37.457221" lon="-5.604222">
        <ele>127.873520</ele>
        <time>2020-08-14T09:35:13.246Z</time>
      </trkpt>
      <trkpt lat="37.457218" lon="-5.604338">
        <ele>127.894980</ele>
        <time>2020-08-14T09:35:17.253Z</time>
      </trkpt>
      <trkpt lat="37.457223" lon="-5.604479">
        <ele>127.921077</ele>
        <time>2020-08-14T09:35:21.243Z</time>
      </trkpt>
      <trkpt lat="37.457241" lon="-5.604607">
        <ele>127.945112</ele>
        <time>2020-08-14T09:35:26.249Z</time>
      </trkpt>
      <trkpt lat="37.457252" lon="-5.604735">
        <ele>127.968917</ele>
        <time>2020-08-14T09:35:30.249Z</time>
      </trkpt>
      <trkpt lat="37.457269" lon="-5.604855">
        <ele>127.991456</ele>
        <time>2020-08-14T09:35:33.261Z</time>
      </trkpt>
      <trkpt lat="37.457286" lon="-5.605009">
        <ele>128.020204</ele>
        <time>2020-08-14T09:35:36.253Z</time>
      </trkpt>
      <trkpt lat="37.457304" lon="-5.605175">
        <ele>128.051182</ele>
        <time>2020-08-14T09:35:39.266Z</time>
      </trkpt>
      <trkpt lat="37.457339" lon="-5.605330">
        <ele>128.080978</ele>
        <time>2020-08-14T09:35:42.258Z</time>
      </trkpt>
      <trkpt lat="37.457361" lon="-5.605468">
        <ele>128.107003</ele>
        <time>2020-08-14T09:35:44.247Z</time>
      </trkpt>
      <trkpt lat="37.457372" lon="-5.605599">
        <ele>128.131360</ele>
        <time>2020-08-14T09:35:46.249Z</time>
      </trkpt>
      <trkpt lat="37.457377" lon="-5.605729">
        <ele>128.155425</ele>
        <time>2020-08-14T09:35:48.252Z</time>
      </trkpt>
      <trkpt lat="37.457385" lon="-5.605862">
        <ele>128.180087</ele>
        <time>2020-08-14T09:35:50.256Z</time>
      </trkpt>
      <trkpt lat="37.457404" lon="-5.605985">
        <ele>128.203256</ele>
        <time>2020-08-14T09:35:52.248Z</time>
      </trkpt>
      <trkpt lat="37.457438" lon="-5.606090">
        <ele>128.224223</ele>
        <time>2020-08-14T09:35:54.262Z</time>
      </trkpt>
      <trkpt lat="37.457458" lon="-5.606254">
        <ele>128.254902</ele>
        <time>2020-08-14T09:35:57.266Z</time>
      </trkpt>
      <trkpt lat="37.457495" lon="-5.606394">
        <ele>128.233037</ele>
        <time>2020-08-14T09:36:00.263Z</time>
      </trkpt>
      <trkpt lat="37.457538" lon="-5.606507">
        <ele>128.190060</ele>
        <time>2020-08-14T09:36:03.264Z</time>
      </trkpt>
      <trkpt lat="37.457569" lon="-5.606628">
        <ele>128.146454</ele>
        <time>2020-08-14T09:36:06.265Z</time>
      </trkpt>
      <trkpt lat="37.457605" lon="-5.606771">
        <ele>128.095003</ele>
        <time>2020-08-14T09:36:09.258Z</time>
      </trkpt>
      <trkpt lat="37.457641" lon="-5.606901">
        <ele>128.047783</ele>
        <time>2020-08-14T09:36:12.262Z</time>
      </trkpt>
      <trkpt lat="37.457669" lon="-5.607040">
        <ele>127.998601</ele>
        <time>2020-08-14T09:36:15.264Z</time>
      </trkpt>
      <trkpt lat="37.457687" lon="-5.607177">
        <ele>127.950976</ele>
        <time>2020-08-14T09:36:18.266Z</time>
      </trkpt>
      <trkpt lat="37.457697" lon="-5.607308">
        <ele>127.905841</ele>
        <time>2020-08-14T09:36:21.265Z</time>
      </trkpt>
      <trkpt lat="37.457708" lon="-5.607448">
        <ele>127.857592</ele>
        <time>2020-08-14T09:36:25.274Z</time>
      </trkpt>
      <trkpt lat="37.457726" lon="-5.607588">
        <ele>127.808952</ele>
        <time>2020-08-14T09:36:28.273Z</time>
      </trkpt>
      <trkpt lat="37.457741" lon="-5.607740">
        <ele>127.756420</ele>
        <time>2020-08-14T09:36:31.271Z</time>
      </trkpt>
      <trkpt lat="37.457750" lon="-5.607869">
        <ele>127.712008</ele>
        <time>2020-08-14T09:36:34.268Z</time>
      </trkpt>
      <trkpt lat="37.457766" lon="-5.607998">
        <ele>127.667229</ele>
        <time>2020-08-14T09:36:37.271Z</time>
      </trkpt>
      <trkpt lat="37.457788" lon="-5.608117">
        <ele>127.625325</ele>
        <time>2020-08-14T09:36:40.272Z</time>
      </trkpt>
      <trkpt lat="37.457810" lon="-5.608244">
        <ele>127.580744</ele>
        <time>2020-08-14T09:36:43.258Z</time>
      </trkpt>
      <trkpt lat="37.457805" lon="-5.608378">
        <ele>127.534737</ele>
        <time>2020-08-14T09:36:46.256Z</time>
      </trkpt>
      <trkpt lat="37.457835" lon="-5.608502">
        <ele>127.490278</ele>
        <time>2020-08-14T09:36:49.253Z</time>
      </trkpt>
      <trkpt lat="37.457854" lon="-5.608644">
        <ele>127.506880</ele>
        <time>2020-08-14T09:36:53.267Z</time>
      </trkpt>
      <trkpt lat="37.457872" lon="-5.608793">
        <ele>127.527795</ele>
        <time>2020-08-14T09:36:58.256Z</time>
      </trkpt>
      <trkpt lat="37.457892" lon="-5.608934">
        <ele>127.547672</ele>
        <time>2020-08-14T09:37:01.268Z</time>
      </trkpt>
      <trkpt lat="37.457903" lon="-5.609072">
        <ele>127.566919</ele>
        <time>2020-08-14T09:37:03.263Z</time>
      </trkpt>
      <trkpt lat="37.457912" lon="-5.609197">
        <ele>127.584336</ele>
        <time>2020-08-14T09:37:06.284Z</time>
      </trkpt>
      <trkpt lat="37.457949" lon="-5.609338">
        <ele>127.604944</ele>
        <time>2020-08-14T09:37:10.260Z</time>
      </trkpt>
      <trkpt lat="37.457961" lon="-5.609473">
        <ele>127.623796</ele>
        <time>2020-08-14T09:37:13.265Z</time>
      </trkpt>
      <trkpt lat="37.457998" lon="-5.609587">
        <ele>127.640887</ele>
        <time>2020-08-14T09:37:16.243Z</time>
      </trkpt>
      <trkpt lat="37.458035" lon="-5.609698">
        <ele>127.657593</ele>
        <time>2020-08-14T09:37:19.254Z</time>
      </trkpt>
      <trkpt lat="37.458052" lon="-5.609839">
        <ele>127.677385</ele>
        <time>2020-08-14T09:37:23.258Z</time>
      </trkpt>
      <trkpt lat="37.458034" lon="-5.609968">
        <ele>127.695560</ele>
        <time>2020-08-14T09:37:27.247Z</time>
      </trkpt>
      <trkpt lat="37.457994" lon="-5.610088">
        <ele>127.713622</ele>
        <time>2020-08-14T09:37:32.262Z</time>
      </trkpt>
      <trkpt lat="37.458026" lon="-5.610211">
        <ele>127.731584</ele>
        <time>2020-08-14T09:37:37.261Z</time>
      </trkpt>
      <trkpt lat="37.458111" lon="-5.610324">
        <ele>127.753187</ele>
        <time>2020-08-14T09:37:41.245Z</time>
      </trkpt>
      <trkpt lat="37.458175" lon="-5.610429">
        <ele>127.771558</ele>
        <time>2020-08-14T09:37:44.258Z</time>
      </trkpt>
      <trkpt lat="37.458230" lon="-5.610545">
        <ele>127.790308</ele>
        <time>2020-08-14T09:37:47.260Z</time>
      </trkpt>
      <trkpt lat="37.458291" lon="-5.610664">
        <ele>127.798969</ele>
        <time>2020-08-14T09:37:50.251Z</time>
      </trkpt>
      <trkpt lat="37.458358" lon="-5.610788">
        <ele>127.789896</ele>
        <time>2020-08-14T09:37:53.267Z</time>
      </trkpt>
      <trkpt lat="37.458401" lon="-5.610888">
        <ele>127.783017</ele>
        <time>2020-08-14T09:37:55.255Z</time>
      </trkpt>
      <trkpt lat="37.458456" lon="-5.611039">
        <ele>127.772967</ele>
        <time>2020-08-14T09:37:58.254Z</time>
      </trkpt>
      <trkpt lat="37.458515" lon="-5.611163">
        <ele>127.764222</ele>
        <time>2020-08-14T09:38:01.258Z</time>
      </trkpt>
      <trkpt lat="37.458563" lon="-5.611324">
        <ele>127.753820</ele>
        <time>2020-08-14T09:38:04.265Z</time>
      </trkpt>
      <trkpt lat="37.458614" lon="-5.611468">
        <ele>127.744282</ele>
        <time>2020-08-14T09:38:07.256Z</time>
      </trkpt>
      <trkpt lat="37.458649" lon="-5.611573">
        <ele>127.737393</ele>
        <time>2020-08-14T09:38:09.250Z</time>
      </trkpt>
      <trkpt lat="37.458685" lon="-5.611681">
        <ele>127.730308</ele>
        <time>2020-08-14T09:38:11.261Z</time>
      </trkpt>
      <trkpt lat="37.458743" lon="-5.611824">
        <ele>127.720594</ele>
        <time>2020-08-14T09:38:14.262Z</time>
      </trkpt>
      <trkpt lat="37.458779" lon="-5.611930">
        <ele>127.713620</ele>
        <time>2020-08-14T09:38:16.254Z</time>
      </trkpt>
      <trkpt lat="37.458804" lon="-5.612043">
        <ele>127.706524</ele>
        <time>2020-08-14T09:38:18.264Z</time>
      </trkpt>
      <trkpt lat="37.458849" lon="-5.612200">
        <ele>127.696428</ele>
        <time>2020-08-14T09:38:21.253Z</time>
      </trkpt>
      <trkpt lat="37.458906" lon="-5.612332">
        <ele>127.687338</ele>
        <time>2020-08-14T09:38:24.246Z</time>
      </trkpt>
      <trkpt lat="37.458937" lon="-5.612450">
        <ele>127.679820</ele>
        <time>2020-08-14T09:38:26.262Z</time>
      </trkpt>
      <trkpt lat="37.458974" lon="-5.612561">
        <ele>127.672538</ele>
        <time>2020-08-14T09:38:28.264Z</time>
      </trkpt>
      <trkpt lat="37.459011" lon="-5.612672">
        <ele>127.665255</ele>
        <time>2020-08-14T09:38:30.250Z</time>
      </trkpt>
      <trkpt lat="37.459040" lon="-5.612788">
        <ele>127.506167</ele>
        <time>2020-08-14T09:38:32.250Z</time>
      </trkpt>
      <trkpt lat="37.459066" lon="-5.612934">
        <ele>127.310237</ele>
        <time>2020-08-14T09:38:35.251Z</time>
      </trkpt>
      <trkpt lat="37.459116" lon="-5.613058">
        <ele>127.128119</ele>
        <time>2020-08-14T09:38:37.267Z</time>
      </trkpt>
      <trkpt lat="37.459164" lon="-5.613157">
        <ele>126.976215</ele>
        <time>2020-08-14T09:38:39.250Z</time>
      </trkpt>
      <trkpt lat="37.459188" lon="-5.613272">
        <ele>126.820513</ele>
        <time>2020-08-14T09:38:41.256Z</time>
      </trkpt>
      <trkpt lat="37.459225" lon="-5.613395">
        <ele>126.648275</ele>
        <time>2020-08-14T09:38:43.263Z</time>
      </trkpt>
      <trkpt lat="37.459295" lon="-5.613512">
        <ele>126.456428</ele>
        <time>2020-08-14T09:38:46.250Z</time>
      </trkpt>
      <trkpt lat="37.459324" lon="-5.613624">
        <ele>126.302166</ele>
        <time>2020-08-14T09:38:48.270Z</time>
      </trkpt>
      <trkpt lat="37.459369" lon="-5.613722">
        <ele>126.153918</ele>
        <time>2020-08-14T09:38:50.259Z</time>
      </trkpt>
      <trkpt lat="37.459397" lon="-5.613839">
        <ele>125.993903</ele>
        <time>2020-08-14T09:38:52.256Z</time>
      </trkpt>
      <trkpt lat="37.459449" lon="-5.613932">
        <ele>125.844947</ele>
        <time>2020-08-14T09:38:54.244Z</time>
      </trkpt>
      <trkpt lat="37.459535" lon="-5.614048">
        <ele>125.637107</ele>
        <time>2020-08-14T09:38:57.264Z</time>
      </trkpt>
      <trkpt lat="37.459575" lon="-5.614207">
        <ele>125.418702</ele>
        <time>2020-08-14T09:39:00.252Z</time>
      </trkpt>
      <trkpt lat="37.459620" lon="-5.614347">
        <ele>125.220922</ele>
        <time>2020-08-14T09:39:03.271Z</time>
      </trkpt>
      <trkpt lat="37.459723" lon="-5.614810">
        <ele>124.661973</ele>
        <time>2020-08-14T09:40:44.249Z</time>
      </trkpt>
      <trkpt lat="37.459778" lon="-5.614929">
        <ele>124.600875</ele>
        <time>2020-08-14T09:40:47.236Z</time>
      </trkpt>
      <trkpt lat="37.459839" lon="-5.615033">
        <ele>124.543500</ele>
        <time>2020-08-14T09:40:50.256Z</time>
      </trkpt>
      <trkpt lat="37.459884" lon="-5.615158">
        <ele>124.482601</ele>
        <time>2020-08-14T09:40:53.259Z</time>
      </trkpt>
      <trkpt lat="37.459928" lon="-5.615285">
        <ele>124.421118</ele>
        <time>2020-08-14T09:40:56.226Z</time>
      </trkpt>
      <trkpt lat="37.459968" lon="-5.615419">
        <ele>124.357597</ele>
        <time>2020-08-14T09:40:59.258Z</time>
      </trkpt>
      <trkpt lat="37.460034" lon="-5.615526">
        <ele>124.297473</ele>
        <time>2020-08-14T09:41:02.260Z</time>
      </trkpt>
      <trkpt lat="37.460090" lon="-5.615647">
        <ele>124.235327</ele>
        <time>2020-08-14T09:41:05.253Z</time>
      </trkpt>
      <trkpt lat="37.460136" lon="-5.615788">
        <ele>124.167689</ele>
        <time>2020-08-14T09:41:08.255Z</time>
      </trkpt>
      <trkpt lat="37.460187" lon="-5.615928">
        <ele>124.099342</ele>
        <time>2020-08-14T09:41:11.262Z</time>
      </trkpt>
      <trkpt lat="37.460232" lon="-5.616079">
        <ele>124.027778</ele>
        <time>2020-08-14T09:41:14.238Z</time>
      </trkpt>
      <trkpt lat="37.460275" lon="-5.616221">
        <ele>123.960345</ele>
        <time>2020-08-14T09:41:17.260Z</time>
      </trkpt>
      <trkpt lat="37.460315" lon="-5.616367">
        <ele>123.891815</ele>
        <time>2020-08-14T09:41:20.249Z</time>
      </trkpt>
      <trkpt lat="37.460363" lon="-5.616510">
        <ele>123.822928</ele>
        <time>2020-08-14T09:41:23.248Z</time>
      </trkpt>
      <trkpt lat="37.460414" lon="-5.616655">
        <ele>123.752559</ele>
        <time>2020-08-14T09:41:26.235Z</time>
      </trkpt>
      <trkpt lat="37.460461" lon="-5.616804">
        <ele>123.673594</ele>
        <time>2020-08-14T09:41:29.235Z</time>
      </trkpt>
      <trkpt lat="37.460509" lon="-5.616944">
        <ele>123.559449</ele>
        <time>2020-08-14T09:41:32.238Z</time>
      </trkpt>
      <trkpt lat="37.460550" lon="-5.617087">
        <ele>123.445648</ele>
        <time>2020-08-14T09:41:35.246Z</time>
      </trkpt>
      <trkpt lat="37.460591" lon="-5.617220">
        <ele>123.338857</ele>
        <time>2020-08-14T09:41:38.234Z</time>
      </trkpt>
      <trkpt lat="37.460633" lon="-5.617351">
        <ele>123.233110</ele>
        <time>2020-08-14T09:41:41.236Z</time>
      </trkpt>
      <trkpt lat="37.460678" lon="-5.617479">
        <ele>123.128329</ele>
        <time>2020-08-14T09:41:44.232Z</time>
      </trkpt>
      <trkpt lat="37.460729" lon="-5.617602">
        <ele>123.024462</ele>
        <time>2020-08-14T09:41:47.230Z</time>
      </trkpt>
      <trkpt lat="37.460783" lon="-5.617741">
        <ele>122.908632</ele>
        <time>2020-08-14T09:41:50.242Z</time>
      </trkpt>
      <trkpt lat="37.460833" lon="-5.617886">
        <ele>122.790304</ele>
        <time>2020-08-14T09:41:53.253Z</time>
      </trkpt>
      <trkpt lat="37.460888" lon="-5.618032">
        <ele>122.669345</ele>
        <time>2020-08-14T09:41:56.243Z</time>
      </trkpt>
      <trkpt lat="37.460940" lon="-5.618170">
        <ele>122.555008</ele>
        <time>2020-08-14T09:41:59.232Z</time>
      </trkpt>
      <trkpt lat="37.460996" lon="-5.618323">
        <ele>122.428903</ele>
        <time>2020-08-14T09:42:02.253Z</time>
      </trkpt>
      <trkpt lat="37.461031" lon="-5.618432">
        <ele>122.340896</ele>
        <time>2020-08-14T09:42:04.257Z</time>
      </trkpt>
      <trkpt lat="37.461094" lon="-5.618560">
        <ele>122.228169</ele>
        <time>2020-08-14T09:42:07.220Z</time>
      </trkpt>
      <trkpt lat="37.461156" lon="-5.618681">
        <ele>122.120373</ele>
        <time>2020-08-14T09:42:10.254Z</time>
      </trkpt>
      <trkpt lat="37.461206" lon="-5.618812">
        <ele>122.011577</ele>
        <time>2020-08-14T09:42:13.243Z</time>
      </trkpt>
      <trkpt lat="37.461251" lon="-5.618946">
        <ele>122.086558</ele>
        <time>2020-08-14T09:42:16.248Z</time>
      </trkpt>
      <trkpt lat="37.461295" lon="-5.619079">
        <ele>122.189399</ele>
        <time>2020-08-14T09:42:19.264Z</time>
      </trkpt>
      <trkpt lat="37.461338" lon="-5.619206">
        <ele>122.287944</ele>
        <time>2020-08-14T09:42:22.254Z</time>
      </trkpt>
      <trkpt lat="37.461377" lon="-5.619335">
        <ele>122.386467</ele>
        <time>2020-08-14T09:42:25.257Z</time>
      </trkpt>
      <trkpt lat="37.461418" lon="-5.619467">
        <ele>122.487635</ele>
        <time>2020-08-14T09:42:28.256Z</time>
      </trkpt>
      <trkpt lat="37.461458" lon="-5.619590">
        <ele>122.582506</ele>
        <time>2020-08-14T09:42:31.234Z</time>
      </trkpt>
      <trkpt lat="37.461495" lon="-5.619717">
        <ele>122.679062</ele>
        <time>2020-08-14T09:42:34.240Z</time>
      </trkpt>
      <trkpt lat="37.461538" lon="-5.619844">
        <ele>122.777607</ele>
        <time>2020-08-14T09:42:37.251Z</time>
      </trkpt>
      <trkpt lat="37.461586" lon="-5.619981">
        <ele>122.884489</ele>
        <time>2020-08-14T09:42:40.236Z</time>
      </trkpt>
      <trkpt lat="37.461635" lon="-5.620132">
        <ele>123.000920</ele>
        <time>2020-08-14T09:42:43.251Z</time>
      </trkpt>
      <trkpt lat="37.461686" lon="-5.620267">
        <ele>123.107629</ele>
        <time>2020-08-14T09:42:46.243Z</time>
      </trkpt>
      <trkpt lat="37.461734" lon="-5.620414">
        <ele>123.221078</ele>
        <time>2020-08-14T09:42:49.263Z</time>
      </trkpt>
      <trkpt lat="37.461784" lon="-5.620561">
        <ele>123.335222</ele>
        <time>2020-08-14T09:42:52.237Z</time>
      </trkpt>
      <trkpt lat="37.461801" lon="-5.620689">
        <ele>123.427849</ele>
        <time>2020-08-14T09:42:54.254Z</time>
      </trkpt>
      <trkpt lat="37.461827" lon="-5.620799">
        <ele>123.509765</ele>
        <time>2020-08-14T09:42:56.233Z</time>
      </trkpt>
      <trkpt lat="37.461869" lon="-5.620946">
        <ele>123.636128</ele>
        <time>2020-08-14T09:42:59.247Z</time>
      </trkpt>
      <trkpt lat="37.461923" lon="-5.621084">
        <ele>123.972950</ele>
        <time>2020-08-14T09:43:02.230Z</time>
      </trkpt>
      <trkpt lat="37.461981" lon="-5.621213">
        <ele>124.297513</ele>
        <time>2020-08-14T09:43:05.216Z</time>
      </trkpt>
      <trkpt lat="37.462039" lon="-5.621337">
        <ele>124.612597</ele>
        <time>2020-08-14T09:43:08.263Z</time>
      </trkpt>
      <trkpt lat="37.462089" lon="-5.621473">
        <ele>124.940711</ele>
        <time>2020-08-14T09:43:11.246Z</time>
      </trkpt>
      <trkpt lat="37.462133" lon="-5.621608">
        <ele>125.260194</ele>
        <time>2020-08-14T09:43:14.254Z</time>
      </trkpt>
      <trkpt lat="37.462175" lon="-5.621748">
        <ele>125.587839</ele>
        <time>2020-08-14T09:43:17.225Z</time>
      </trkpt>
      <trkpt lat="37.462225" lon="-5.621872">
        <ele>125.892315</ele>
        <time>2020-08-14T09:43:20.255Z</time>
      </trkpt>
      <trkpt lat="37.462273" lon="-5.621999">
        <ele>126.200249</ele>
        <time>2020-08-14T09:43:23.224Z</time>
      </trkpt>
      <trkpt lat="37.462316" lon="-5.622128">
        <ele>126.506543</ele>
        <time>2020-08-14T09:43:26.251Z</time>
      </trkpt>
      <trkpt lat="37.462356" lon="-5.622262">
        <ele>126.819950</ele>
        <time>2020-08-14T09:43:29.239Z</time>
      </trkpt>
      <trkpt lat="37.462396" lon="-5.622383">
        <ele>127.106895</ele>
        <time>2020-08-14T09:43:32.244Z</time>
      </trkpt>
      <trkpt lat="37.462445" lon="-5.622506">
        <ele>127.408173</ele>
        <time>2020-08-14T09:43:35.258Z</time>
      </trkpt>
      <trkpt lat="37.462490" lon="-5.622634">
        <ele>127.714641</ele>
        <time>2020-08-14T09:43:38.246Z</time>
      </trkpt>
      <trkpt lat="37.462532" lon="-5.622765">
        <ele>128.023932</ele>
        <time>2020-08-14T09:43:41.246Z</time>
      </trkpt>
      <trkpt lat="37.462576" lon="-5.622882">
        <ele>128.307358</ele>
        <time>2020-08-14T09:43:44.229Z</time>
      </trkpt>
      <trkpt lat="37.462616" lon="-5.623003">
        <ele>128.610657</ele>
        <time>2020-08-14T09:43:47.246Z</time>
      </trkpt>
      <trkpt lat="37.462661" lon="-5.623115">
        <ele>129.115277</ele>
        <time>2020-08-14T09:43:50.233Z</time>
      </trkpt>
      <trkpt lat="37.462701" lon="-5.623228">
        <ele>129.612647</ele>
        <time>2020-08-14T09:43:53.241Z</time>
      </trkpt>
      <trkpt lat="37.462737" lon="-5.623345">
        <ele>130.117073</ele>
        <time>2020-08-14T09:43:56.244Z</time>
      </trkpt>
      <trkpt lat="37.462769" lon="-5.623466">
        <ele>130.629765</ele>
        <time>2020-08-14T09:43:59.241Z</time>
      </trkpt>
      <trkpt lat="37.462810" lon="-5.623586">
        <ele>131.154941</ele>
        <time>2020-08-14T09:44:02.238Z</time>
      </trkpt>
      <trkpt lat="37.462853" lon="-5.623690">
        <ele>131.626325</ele>
        <time>2020-08-14T09:44:05.242Z</time>
      </trkpt>
      <trkpt lat="37.462894" lon="-5.623803">
        <ele>132.125778</ele>
        <time>2020-08-14T09:44:08.244Z</time>
      </trkpt>
      <trkpt lat="37.462938" lon="-5.623929">
        <ele>132.679131</ele>
        <time>2020-08-14T09:44:11.254Z</time>
      </trkpt>
      <trkpt lat="37.462979" lon="-5.624052">
        <ele>133.215404</ele>
        <time>2020-08-14T09:44:14.225Z</time>
      </trkpt>
      <trkpt lat="37.463017" lon="-5.624176">
        <ele>133.749727</ele>
        <time>2020-08-14T09:44:17.243Z</time>
      </trkpt>
      <trkpt lat="37.463055" lon="-5.624294">
        <ele>134.261623</ele>
        <time>2020-08-14T09:44:20.227Z</time>
      </trkpt>
      <trkpt lat="37.463089" lon="-5.624413">
        <ele>134.770033</ele>
        <time>2020-08-14T09:44:23.248Z</time>
      </trkpt>
      <trkpt lat="37.463123" lon="-5.624534">
        <ele>135.286014</ele>
        <time>2020-08-14T09:44:26.255Z</time>
      </trkpt>
      <trkpt lat="37.463173" lon="-5.624641">
        <ele>135.785140</ele>
        <time>2020-08-14T09:44:29.249Z</time>
      </trkpt>
      <trkpt lat="37.463214" lon="-5.624756">
        <ele>136.291914</ele>
        <time>2020-08-14T09:44:32.263Z</time>
      </trkpt>
      <trkpt lat="37.463250" lon="-5.624872">
        <ele>136.792592</ele>
        <time>2020-08-14T09:44:35.228Z</time>
      </trkpt>
      <trkpt lat="37.463289" lon="-5.624979">
        <ele>137.265896</ele>
        <time>2020-08-14T09:44:38.269Z</time>
      </trkpt>
      <trkpt lat="37.463326" lon="-5.625096">
        <ele>137.721098</ele>
        <time>2020-08-14T09:44:41.246Z</time>
      </trkpt>
      <trkpt lat="37.463367" lon="-5.625199">
        <ele>137.916551</ele>
        <time>2020-08-14T09:44:44.252Z</time>
      </trkpt>
      <trkpt lat="37.463403" lon="-5.625305">
        <ele>138.112121</ele>
        <time>2020-08-14T09:44:47.247Z</time>
      </trkpt>
      <trkpt lat="37.463438" lon="-5.625416">
        <ele>138.314717</ele>
        <time>2020-08-14T09:44:50.219Z</time>
      </trkpt>
      <trkpt lat="37.463473" lon="-5.625535">
        <ele>138.529983</ele>
        <time>2020-08-14T09:44:53.260Z</time>
      </trkpt>
      <trkpt lat="37.463513" lon="-5.625639">
        <ele>138.726012</ele>
        <time>2020-08-14T09:44:56.230Z</time>
      </trkpt>
      <trkpt lat="37.463552" lon="-5.625744">
        <ele>138.922653</ele>
        <time>2020-08-14T09:44:59.225Z</time>
      </trkpt>
      <trkpt lat="37.463601" lon="-5.625876">
        <ele>139.169834</ele>
        <time>2020-08-14T09:45:03.251Z</time>
      </trkpt>
      <trkpt lat="37.463631" lon="-5.625999">
        <ele>139.388100</ele>
        <time>2020-08-14T09:45:06.256Z</time>
      </trkpt>
      <trkpt lat="37.463665" lon="-5.626114">
        <ele>139.596260</ele>
        <time>2020-08-14T09:45:09.243Z</time>
      </trkpt>
      <trkpt lat="37.463705" lon="-5.626225">
        <ele>139.803039</ele>
        <time>2020-08-14T09:45:12.248Z</time>
      </trkpt>
      <trkpt lat="37.463754" lon="-5.626366">
        <ele>140.064128</ele>
        <time>2020-08-14T09:45:16.256Z</time>
      </trkpt>
      <trkpt lat="37.463799" lon="-5.626488">
        <ele>140.292322</ele>
        <time>2020-08-14T09:45:19.256Z</time>
      </trkpt>
      <trkpt lat="37.463827" lon="-5.626606">
        <ele>140.501231</ele>
        <time>2020-08-14T09:45:22.270Z</time>
      </trkpt>
      <trkpt lat="37.463857" lon="-5.626738">
        <ele>140.734132</ele>
        <time>2020-08-14T09:45:26.244Z</time>
      </trkpt>
      <trkpt lat="37.463900" lon="-5.626868">
        <ele>140.973024</ele>
        <time>2020-08-14T09:45:30.262Z</time>
      </trkpt>
      <trkpt lat="37.463944" lon="-5.626997">
        <ele>141.211186</ele>
        <time>2020-08-14T09:45:34.241Z</time>
      </trkpt>
      <trkpt lat="37.463987" lon="-5.627128">
        <ele>141.451644</ele>
        <time>2020-08-14T09:45:38.234Z</time>
      </trkpt>
      <trkpt lat="37.464020" lon="-5.627236">
        <ele>141.911774</ele>
        <time>2020-08-14T09:45:41.260Z</time>
      </trkpt>
      <trkpt lat="37.464061" lon="-5.627358">
        <ele>142.629024</ele>
        <time>2020-08-14T09:45:45.242Z</time>
      </trkpt>
      <trkpt lat="37.464105" lon="-5.627474">
        <ele>143.325052</ele>
        <time>2020-08-14T09:45:49.252Z</time>
      </trkpt>
      <trkpt lat="37.464149" lon="-5.627596">
        <ele>144.050523</ele>
        <time>2020-08-14T09:45:53.226Z</time>
      </trkpt>
      <trkpt lat="37.464187" lon="-5.627713">
        <ele>144.734917</ele>
        <time>2020-08-14T09:45:57.253Z</time>
      </trkpt>
      <trkpt lat="37.464229" lon="-5.627839">
        <ele>145.474769</ele>
        <time>2020-08-14T09:46:01.263Z</time>
      </trkpt>
      <trkpt lat="37.464275" lon="-5.627970">
        <ele>146.250281</ele>
        <time>2020-08-14T09:46:05.251Z</time>
      </trkpt>
      <trkpt lat="37.464313" lon="-5.628073">
        <ele>146.865197</ele>
        <time>2020-08-14T09:46:08.227Z</time>
      </trkpt>
      <trkpt lat="37.464355" lon="-5.628199">
        <ele>147.605048</ele>
        <time>2020-08-14T09:46:12.242Z</time>
      </trkpt>
      <trkpt lat="37.464394" lon="-5.628327">
        <ele>148.347317</ele>
        <time>2020-08-14T09:46:16.235Z</time>
      </trkpt>
      <trkpt lat="37.464439" lon="-5.628463">
        <ele>149.145008</ele>
        <time>2020-08-14T09:46:21.227Z</time>
      </trkpt>
      <trkpt lat="37.464470" lon="-5.628596">
        <ele>149.895447</ele>
        <time>2020-08-14T09:46:25.219Z</time>
      </trkpt>
      <trkpt lat="37.464501" lon="-5.628737">
        <ele>150.687535</ele>
        <time>2020-08-14T09:46:29.228Z</time>
      </trkpt>
      <trkpt lat="37.464532" lon="-5.628874">
        <ele>151.458775</ele>
        <time>2020-08-14T09:46:33.245Z</time>
      </trkpt>
      <trkpt lat="37.464552" lon="-5.629021">
        <ele>152.266210</ele>
        <time>2020-08-14T09:46:37.249Z</time>
      </trkpt>
      <trkpt lat="37.464564" lon="-5.629169">
        <ele>153.071621</ele>
        <time>2020-08-14T09:46:41.258Z</time>
      </trkpt>
      <trkpt lat="37.464578" lon="-5.629315">
        <ele>153.851333</ele>
        <time>2020-08-14T09:46:45.256Z</time>
      </trkpt>
      <trkpt lat="37.464582" lon="-5.629463">
        <ele>154.470419</ele>
        <time>2020-08-14T09:46:49.263Z</time>
      </trkpt>
      <trkpt lat="37.464584" lon="-5.629607">
        <ele>155.072517</ele>
        <time>2020-08-14T09:46:53.251Z</time>
      </trkpt>
      <trkpt lat="37.464574" lon="-5.629722">
        <ele>155.556161</ele>
        <time>2020-08-14T09:46:56.260Z</time>
      </trkpt>
      <trkpt lat="37.464574" lon="-5.629856">
        <ele>156.116361</ele>
        <time>2020-08-14T09:47:00.244Z</time>
      </trkpt>
      <trkpt lat="37.464573" lon="-5.630000">
        <ele>156.718389</ele>
        <time>2020-08-14T09:47:04.240Z</time>
      </trkpt>
      <trkpt lat="37.464575" lon="-5.630136">
        <ele>157.287047</ele>
        <time>2020-08-14T09:47:08.255Z</time>
      </trkpt>
      <trkpt lat="37.464572" lon="-5.630283">
        <ele>157.901798</ele>
        <time>2020-08-14T09:47:12.247Z</time>
      </trkpt>
      <trkpt lat="37.464567" lon="-5.630425">
        <ele>158.496026</ele>
        <time>2020-08-14T09:47:16.248Z</time>
      </trkpt>
      <trkpt lat="37.464566" lon="-5.630565">
        <ele>159.081332</ele>
        <time>2020-08-14T09:47:20.253Z</time>
      </trkpt>
      <trkpt lat="37.464570" lon="-5.630709">
        <ele>159.683706</ele>
        <time>2020-08-14T09:47:24.248Z</time>
      </trkpt>
      <trkpt lat="37.464574" lon="-5.630854">
        <ele>160.290258</ele>
        <time>2020-08-14T09:47:28.236Z</time>
      </trkpt>
      <trkpt lat="37.464572" lon="-5.630969">
        <ele>160.771142</ele>
        <time>2020-08-14T09:47:32.271Z</time>
      </trkpt>
      <trkpt lat="37.464565" lon="-5.631092">
        <ele>161.286675</ele>
        <time>2020-08-14T09:47:36.256Z</time>
      </trkpt>
      <trkpt lat="37.464563" lon="-5.631227">
        <ele>161.851153</ele>
        <time>2020-08-14T09:47:40.236Z</time>
      </trkpt>
      <trkpt lat="37.464558" lon="-5.631367">
        <ele>162.437029</ele>
        <time>2020-08-14T09:47:44.242Z</time>
      </trkpt>
      <trkpt lat="37.464552" lon="-5.631514">
        <ele>163.052388</ele>
        <time>2020-08-14T09:47:48.267Z</time>
      </trkpt>
      <trkpt lat="37.464552" lon="-5.631661">
        <ele>163.959278</ele>
        <time>2020-08-14T09:47:52.256Z</time>
      </trkpt>
      <trkpt lat="37.464560" lon="-5.631784">
        <ele>164.854312</ele>
        <time>2020-08-14T09:47:55.239Z</time>
      </trkpt>
      <trkpt lat="37.464568" lon="-5.631904">
        <ele>165.727663</ele>
        <time>2020-08-14T09:47:58.237Z</time>
      </trkpt>
      <trkpt lat="37.464574" lon="-5.632036">
        <ele>166.686547</ele>
        <time>2020-08-14T09:48:02.222Z</time>
      </trkpt>
      <trkpt lat="37.464575" lon="-5.632156">
        <ele>167.556881</ele>
        <time>2020-08-14T09:48:06.241Z</time>
      </trkpt>
      <trkpt lat="37.464569" lon="-5.632290">
        <ele>168.530246</ele>
        <time>2020-08-14T09:48:11.224Z</time>
      </trkpt>
      <trkpt lat="37.464568" lon="-5.632410">
        <ele>169.400581</ele>
        <time>2020-08-14T09:48:15.247Z</time>
      </trkpt>
      <trkpt lat="37.464574" lon="-5.632545">
        <ele>170.381187</ele>
        <time>2020-08-14T09:48:19.255Z</time>
      </trkpt>
      <trkpt lat="37.464578" lon="-5.632669">
        <ele>171.281225</ele>
        <time>2020-08-14T09:48:23.254Z</time>
      </trkpt>
      <trkpt lat="37.464577" lon="-5.632784">
        <ele>172.115300</ele>
        <time>2020-08-14T09:48:26.246Z</time>
      </trkpt>
      <trkpt lat="37.464571" lon="-5.632908">
        <ele>173.016265</ele>
        <time>2020-08-14T09:48:30.251Z</time>
      </trkpt>
      <trkpt lat="37.464565" lon="-5.633058">
        <ele>174.105504</ele>
        <time>2020-08-14T09:48:34.231Z</time>
      </trkpt>
      <trkpt lat="37.464568" lon="-5.633190">
        <ele>175.063211</ele>
        <time>2020-08-14T09:48:38.250Z</time>
      </trkpt>
      <trkpt lat="37.464573" lon="-5.633324">
        <ele>176.036104</ele>
        <time>2020-08-14T09:48:42.240Z</time>
      </trkpt>
      <trkpt lat="37.464552" lon="-5.633438">
        <ele>176.884851</ele>
        <time>2020-08-14T09:48:45.244Z</time>
      </trkpt>
      <trkpt lat="37.464562" lon="-5.633560">
        <ele>177.774347</ele>
        <time>2020-08-14T09:48:50.251Z</time>
      </trkpt>
      <trkpt lat="37.464570" lon="-5.633683">
        <ele>178.669381</ele>
        <time>2020-08-14T09:48:55.251Z</time>
      </trkpt>
      <trkpt lat="37.464516" lon="-5.633775">
        <ele>179.499218</ele>
        <time>2020-08-14T09:49:10.263Z</time>
      </trkpt>
      <trkpt lat="37.464503" lon="-5.633891">
        <ele>180.157666</ele>
        <time>2020-08-14T09:49:19.232Z</time>
      </trkpt>
      <trkpt lat="37.464490" lon="-5.634010">
        <ele>180.770783</ele>
        <time>2020-08-14T09:49:27.263Z</time>
      </trkpt>
      <trkpt lat="37.464470" lon="-5.634365">
        <ele>182.587305</ele>
        <time>2020-08-14T09:50:37.242Z</time>
      </trkpt>
      <trkpt lat="37.464469" lon="-5.634481">
        <ele>183.179419</ele>
        <time>2020-08-14T09:50:43.242Z</time>
      </trkpt>
      <trkpt lat="37.464455" lon="-5.634600">
        <ele>183.793445</ele>
        <time>2020-08-14T09:50:51.240Z</time>
      </trkpt>
      <trkpt lat="37.464438" lon="-5.634711">
        <ele>184.370454</ele>
        <time>2020-08-14T09:50:58.229Z</time>
      </trkpt>
      <trkpt lat="37.464443" lon="-5.634827">
        <ele>184.963405</ele>
        <time>2020-08-14T09:51:04.241Z</time>
      </trkpt>
      <trkpt lat="37.464442" lon="-5.634940">
        <ele>185.540207</ele>
        <time>2020-08-14T09:51:11.260Z</time>
      </trkpt>
      <trkpt lat="37.464449" lon="-5.635054">
        <ele>186.123816</ele>
        <time>2020-08-14T09:51:17.246Z</time>
      </trkpt>
      <trkpt lat="37.464457" lon="-5.635169">
        <ele>186.713041</ele>
        <time>2020-08-14T09:51:25.228Z</time>
      </trkpt>
      <trkpt lat="37.464469" lon="-5.635300">
        <ele>187.386119</ele>
        <time>2020-08-14T09:51:32.227Z</time>
      </trkpt>
      <trkpt lat="37.464510" lon="-5.635408">
        <ele>187.997171</ele>
        <time>2020-08-14T09:51:41.229Z</time>
      </trkpt>
      <trkpt lat="37.464489" lon="-5.635528">
        <ele>188.624376</ele>
        <time>2020-08-14T09:51:47.252Z</time>
      </trkpt>
      <trkpt lat="37.464544" lon="-5.635633">
        <ele>189.266493</ele>
        <time>2020-08-14T09:51:54.251Z</time>
      </trkpt>
      <trkpt lat="37.464525" lon="-5.635756">
        <ele>189.906078</ele>
        <time>2020-08-14T09:52:05.227Z</time>
      </trkpt>
      <trkpt lat="37.464556" lon="-5.635870">
        <ele>190.521148</ele>
        <time>2020-08-14T09:52:13.234Z</time>
      </trkpt>
      <trkpt lat="37.464682" lon="-5.636184">
        <ele>192.624852</ele>
        <time>2020-08-14T09:52:51.252Z</time>
      </trkpt>
      <trkpt lat="37.464719" lon="-5.636292">
        <ele>193.401734</ele>
        <time>2020-08-14T09:52:55.252Z</time>
      </trkpt>
      <trkpt lat="37.464792" lon="-5.636366">
        <ele>194.181352</ele>
        <time>2020-08-14T09:53:01.244Z</time>
      </trkpt>
      <trkpt lat="37.464877" lon="-5.636447">
        <ele>195.068143</ele>
        <time>2020-08-14T09:53:06.243Z</time>
      </trkpt>
      <trkpt lat="37.464940" lon="-5.636533">
        <ele>195.841054</ele>
        <time>2020-08-14T09:53:11.252Z</time>
      </trkpt>
      <trkpt lat="37.465458" lon="-5.637270">
        <ele>202.342519</ele>
        <time>2020-08-14T09:54:30.246Z</time>
      </trkpt>
      <trkpt lat="37.465554" lon="-5.637262">
        <ele>203.143056</ele>
        <time>2020-08-14T09:54:54.262Z</time>
      </trkpt>
      <trkpt lat="37.465628" lon="-5.637343">
        <ele>203.958716</ele>
        <time>2020-08-14T09:55:02.242Z</time>
      </trkpt>
      <trkpt lat="37.465693" lon="-5.637430">
        <ele>204.747800</ele>
        <time>2020-08-14T09:55:09.215Z</time>
      </trkpt>
      <trkpt lat="37.465904" lon="-5.637655">
        <ele>207.442164</ele>
        <time>2020-08-14T09:56:00.240Z</time>
      </trkpt>
      <trkpt lat="37.465984" lon="-5.637721">
        <ele>208.624093</ele>
        <time>2020-08-14T09:56:04.228Z</time>
      </trkpt>
      <trkpt lat="37.466035" lon="-5.637816">
        <ele>209.749233</ele>
        <time>2020-08-14T09:56:15.233Z</time>
      </trkpt>
      <trkpt lat="37.466115" lon="-5.637903">
        <ele>211.055442</ele>
        <time>2020-08-14T09:56:23.221Z</time>
      </trkpt>
      <trkpt lat="37.466176" lon="-5.638000">
        <ele>212.269524</ele>
        <time>2020-08-14T09:56:41.263Z</time>
      </trkpt>
      <trkpt lat="37.466273" lon="-5.638028">
        <ele>213.499509</ele>
        <time>2020-08-14T09:56:50.243Z</time>
      </trkpt>
      <trkpt lat="37.466365" lon="-5.638045">
        <ele>214.648794</ele>
        <time>2020-08-14T09:57:03.235Z</time>
      </trkpt>
      <trkpt lat="37.466549" lon="-5.638156">
        <ele>217.170292</ele>
        <time>2020-08-14T09:57:38.251Z</time>
      </trkpt>
      <trkpt lat="37.466635" lon="-5.638200">
        <ele>218.317552</ele>
        <time>2020-08-14T09:57:51.244Z</time>
      </trkpt>
      <trkpt lat="37.466728" lon="-5.638251">
        <ele>219.571197</ele>
        <time>2020-08-14T09:58:01.257Z</time>
      </trkpt>
      <trkpt lat="37.466821" lon="-5.638291">
        <ele>220.785812</ele>
        <time>2020-08-14T09:58:07.249Z</time>
      </trkpt>
      <trkpt lat="37.466903" lon="-5.638348">
        <ele>221.943355</ele>
        <time>2020-08-14T09:58:12.238Z</time>
      </trkpt>
      <trkpt lat="37.466990" lon="-5.638389">
        <ele>223.091437</ele>
        <time>2020-08-14T09:58:17.249Z</time>
      </trkpt>
      <trkpt lat="37.467074" lon="-5.638465">
        <ele>224.369648</ele>
        <time>2020-08-14T09:58:22.258Z</time>
      </trkpt>
      <trkpt lat="37.467161" lon="-5.638551">
        <ele>225.736432</ele>
        <time>2020-08-14T09:58:27.262Z</time>
      </trkpt>
      <trkpt lat="37.467246" lon="-5.638644">
        <ele>227.127882</ele>
        <time>2020-08-14T09:58:32.243Z</time>
      </trkpt>
      <trkpt lat="37.467318" lon="-5.638738">
        <ele>228.409414</ele>
        <time>2020-08-14T09:58:37.255Z</time>
      </trkpt>
      <trkpt lat="37.467399" lon="-5.638815">
        <ele>229.342756</ele>
        <time>2020-08-14T09:58:42.268Z</time>
      </trkpt>
      <trkpt lat="37.467509" lon="-5.638911">
        <ele>230.553238</ele>
        <time>2020-08-14T09:59:22.252Z</time>
      </trkpt>
      <trkpt lat="37.467605" lon="-5.638962">
        <ele>231.495709</ele>
        <time>2020-08-14T09:59:28.265Z</time>
      </trkpt>
      <trkpt lat="37.467709" lon="-5.639004">
        <ele>232.483654</ele>
        <time>2020-08-14T09:59:33.275Z</time>
      </trkpt>
      <trkpt lat="37.467806" lon="-5.639044">
        <ele>233.406933</ele>
        <time>2020-08-14T09:59:37.246Z</time>
      </trkpt>
      <trkpt lat="37.467901" lon="-5.639103">
        <ele>234.365048</ele>
        <time>2020-08-14T09:59:42.249Z</time>
      </trkpt>
      <trkpt lat="37.467993" lon="-5.639152">
        <ele>235.268598</ele>
        <time>2020-08-14T09:59:46.278Z</time>
      </trkpt>
      <trkpt lat="37.468091" lon="-5.639205">
        <ele>236.233338</ele>
        <time>2020-08-14T09:59:52.245Z</time>
      </trkpt>
      <trkpt lat="37.468182" lon="-5.639252">
        <ele>237.123017</ele>
        <time>2020-08-14T09:59:57.245Z</time>
      </trkpt>
      <trkpt lat="37.468287" lon="-5.639286">
        <ele>238.103729</ele>
        <time>2020-08-14T10:00:03.246Z</time>
      </trkpt>
      <trkpt lat="37.468367" lon="-5.639344">
        <ele>238.938679</ele>
        <time>2020-08-14T10:00:09.248Z</time>
      </trkpt>
      <trkpt lat="37.468454" lon="-5.639407">
        <ele>239.846418</ele>
        <time>2020-08-14T10:00:14.276Z</time>
      </trkpt>
      <trkpt lat="37.468532" lon="-5.639476">
        <ele>240.708565</ele>
        <time>2020-08-14T10:00:19.255Z</time>
      </trkpt>
      <trkpt lat="37.468610" lon="-5.639548">
        <ele>241.583265</ele>
        <time>2020-08-14T10:00:24.255Z</time>
      </trkpt>
      <trkpt lat="37.468688" lon="-5.639613">
        <ele>242.429235</ele>
        <time>2020-08-14T10:00:30.252Z</time>
      </trkpt>
      <trkpt lat="37.468770" lon="-5.639681">
        <ele>243.317270</ele>
        <time>2020-08-14T10:00:36.253Z</time>
      </trkpt>
      <trkpt lat="37.468864" lon="-5.639740">
        <ele>244.267277</ele>
        <time>2020-08-14T10:00:41.246Z</time>
      </trkpt>
      <trkpt lat="37.468961" lon="-5.639778">
        <ele>244.737751</ele>
        <time>2020-08-14T10:00:45.251Z</time>
      </trkpt>
      <trkpt lat="37.469056" lon="-5.639841">
        <ele>244.737751</ele>
        <time>2020-08-14T10:00:49.275Z</time>
      </trkpt>
      <trkpt lat="37.469137" lon="-5.639896">
        <ele>244.737751</ele>
        <time>2020-08-14T10:00:54.249Z</time>
      </trkpt>
      <trkpt lat="37.469215" lon="-5.639953">
        <ele>244.737751</ele>
        <time>2020-08-14T10:00:59.240Z</time>
      </trkpt>
      <trkpt lat="37.469314" lon="-5.640004">
        <ele>244.737751</ele>
        <time>2020-08-14T10:01:05.267Z</time>
      </trkpt>
      <trkpt lat="37.469403" lon="-5.640053">
        <ele>244.737751</ele>
        <time>2020-08-14T10:01:14.268Z</time>
      </trkpt>
      <trkpt lat="37.469496" lon="-5.640112">
        <ele>244.737751</ele>
        <time>2020-08-14T10:01:19.256Z</time>
      </trkpt>
      <trkpt lat="37.469595" lon="-5.640150">
        <ele>244.737751</ele>
        <time>2020-08-14T10:01:25.265Z</time>
      </trkpt>
      <trkpt lat="37.469679" lon="-5.640221">
        <ele>244.737751</ele>
        <time>2020-08-14T10:01:30.253Z</time>
      </trkpt>
      <trkpt lat="37.469764" lon="-5.640293">
        <ele>244.737751</ele>
        <time>2020-08-14T10:01:35.249Z</time>
      </trkpt>
      <trkpt lat="37.469843" lon="-5.640357">
        <ele>244.737751</ele>
        <time>2020-08-14T10:01:40.240Z</time>
      </trkpt>
      <trkpt lat="37.469938" lon="-5.640437">
        <ele>244.737751</ele>
        <time>2020-08-14T10:01:45.244Z</time>
      </trkpt>
      <trkpt lat="37.470002" lon="-5.640531">
        <ele>244.737751</ele>
        <time>2020-08-14T10:01:48.274Z</time>
      </trkpt>
      <trkpt lat="37.470057" lon="-5.640658">
        <ele>244.737751</ele>
        <time>2020-08-14T10:01:50.270Z</time>
      </trkpt>
      <trkpt lat="37.470161" lon="-5.640755">
        <ele>244.737751</ele>
        <time>2020-08-14T10:01:52.259Z</time>
      </trkpt>
      <trkpt lat="37.470242" lon="-5.640862">
        <ele>244.737751</ele>
        <time>2020-08-14T10:01:55.255Z</time>
      </trkpt>
      <trkpt lat="37.470278" lon="-5.640970">
        <ele>244.737751</ele>
        <time>2020-08-14T10:01:58.224Z</time>
      </trkpt>
      <trkpt lat="37.470285" lon="-5.641090">
        <ele>244.737751</ele>
        <time>2020-08-14T10:02:01.236Z</time>
      </trkpt>
      <trkpt lat="37.470289" lon="-5.641206">
        <ele>244.737751</ele>
        <time>2020-08-14T10:02:05.241Z</time>
      </trkpt>
      <trkpt lat="37.470299" lon="-5.641337">
        <ele>244.737751</ele>
        <time>2020-08-14T10:02:09.263Z</time>
      </trkpt>
      <trkpt lat="37.470304" lon="-5.641468">
        <ele>244.737751</ele>
        <time>2020-08-14T10:02:13.254Z</time>
      </trkpt>
      <trkpt lat="37.470300" lon="-5.641610">
        <ele>244.737751</ele>
        <time>2020-08-14T10:02:17.240Z</time>
      </trkpt>
      <trkpt lat="37.470229" lon="-5.641714">
        <ele>244.737751</ele>
        <time>2020-08-14T10:02:22.234Z</time>
      </trkpt>
      <trkpt lat="37.470169" lon="-5.641812">
        <ele>244.737751</ele>
        <time>2020-08-14T10:02:28.229Z</time>
      </trkpt>
      <trkpt lat="37.470100" lon="-5.641902">
        <ele>244.737751</ele>
        <time>2020-08-14T10:02:33.228Z</time>
      </trkpt>
      <trkpt lat="37.470041" lon="-5.641966">
        <ele>244.737751</ele>
        <time>2020-08-14T10:03:28.074Z</time>
      </trkpt>
      <trkpt lat="37.471038" lon="-5.642149">
        <ele>161.575134</ele>
        <time>2020-08-15T05:32:35.610Z</time>
      </trkpt>
      <trkpt lat="37.471054" lon="-5.642294">
        <ele>161.575134</ele>
        <time>2020-08-15T05:32:50.615Z</time>
      </trkpt>
      <trkpt lat="37.471080" lon="-5.642413">
        <ele>161.575134</ele>
        <time>2020-08-15T05:32:53.611Z</time>
      </trkpt>
      <trkpt lat="37.471083" lon="-5.642535">
        <ele>161.575134</ele>
        <time>2020-08-15T05:33:00.624Z</time>
      </trkpt>
      <trkpt lat="37.471102" lon="-5.642649">
        <ele>161.575134</ele>
        <time>2020-08-15T05:33:09.618Z</time>
      </trkpt>
      <trkpt lat="37.470850" lon="-5.643110">
        <ele>161.575134</ele>
        <time>2020-08-15T05:33:23.634Z</time>
      </trkpt>
      <trkpt lat="37.470689" lon="-5.642996">
        <ele>161.877766</ele>
        <time>2020-08-15T05:33:27.653Z</time>
      </trkpt>
      <trkpt lat="37.470433" lon="-5.643482">
        <ele>162.930413</ele>
        <time>2020-08-15T05:34:48.606Z</time>
      </trkpt>
      <trkpt lat="37.470425" lon="-5.643612">
        <ele>163.165721</ele>
        <time>2020-08-15T05:34:51.611Z</time>
      </trkpt>
      <trkpt lat="37.470524" lon="-5.643637">
        <ele>163.395305</ele>
        <time>2020-08-15T05:46:24.611Z</time>
      </trkpt>
      <trkpt lat="37.470598" lon="-5.643551">
        <ele>163.624213</ele>
        <time>2020-08-15T05:46:27.611Z</time>
      </trkpt>
      <trkpt lat="37.470658" lon="-5.643454">
        <ele>163.846149</ele>
        <time>2020-08-15T05:46:30.623Z</time>
      </trkpt>
      <trkpt lat="37.470751" lon="-5.643371">
        <ele>164.105288</ele>
        <time>2020-08-15T05:46:34.620Z</time>
      </trkpt>
      <trkpt lat="37.470826" lon="-5.643272">
        <ele>164.352273</ele>
        <time>2020-08-15T05:46:37.620Z</time>
      </trkpt>
      <trkpt lat="37.470895" lon="-5.643191">
        <ele>164.566708</ele>
        <time>2020-08-15T05:46:40.608Z</time>
      </trkpt>
      <trkpt lat="37.470963" lon="-5.643095">
        <ele>164.798917</ele>
        <time>2020-08-15T05:46:44.608Z</time>
      </trkpt>
      <trkpt lat="37.471037" lon="-5.643005">
        <ele>165.032779</ele>
        <time>2020-08-15T05:46:48.629Z</time>
      </trkpt>
      <trkpt lat="37.471091" lon="-5.642897">
        <ele>165.263132</ele>
        <time>2020-08-15T05:46:51.624Z</time>
      </trkpt>
      <trkpt lat="37.471142" lon="-5.642749">
        <ele>165.554307</ele>
        <time>2020-08-15T05:46:54.614Z</time>
      </trkpt>
      <trkpt lat="37.471093" lon="-5.642870">
        <ele>166.039840</ele>
        <time>2020-08-15T05:47:09.622Z</time>
      </trkpt>
      <trkpt lat="37.471034" lon="-5.642960">
        <ele>166.626886</ele>
        <time>2020-08-15T05:47:12.600Z</time>
      </trkpt>
      <trkpt lat="37.470945" lon="-5.642989">
        <ele>167.209386</ele>
        <time>2020-08-15T05:47:17.622Z</time>
      </trkpt>
      <trkpt lat="37.470716" lon="-5.642985">
        <ele>168.660581</ele>
        <time>2020-08-15T05:47:19.623Z</time>
      </trkpt>
      <trkpt lat="37.470625" lon="-5.642933">
        <ele>169.293731</ele>
        <time>2020-08-15T05:47:21.600Z</time>
      </trkpt>
      <trkpt lat="37.470533" lon="-5.642873">
        <ele>169.950151</ele>
        <time>2020-08-15T05:47:25.628Z</time>
      </trkpt>
      <trkpt lat="37.470459" lon="-5.642782">
        <ele>170.605365</ele>
        <time>2020-08-15T05:47:29.611Z</time>
      </trkpt>
      <trkpt lat="37.470444" lon="-5.642669">
        <ele>171.181543</ele>
        <time>2020-08-15T05:47:31.614Z</time>
      </trkpt>
      <trkpt lat="37.470430" lon="-5.642551">
        <ele>171.781566</ele>
        <time>2020-08-15T05:47:33.610Z</time>
      </trkpt>
      <trkpt lat="37.470343" lon="-5.642519">
        <ele>172.355850</ele>
        <time>2020-08-15T05:47:39.639Z</time>
      </trkpt>
      <trkpt lat="37.470051" lon="-5.642256">
        <ele>174.630237</ele>
        <time>2020-08-15T05:47:41.625Z</time>
      </trkpt>
      <trkpt lat="37.469956" lon="-5.642233">
        <ele>175.243215</ele>
        <time>2020-08-15T05:47:42.600Z</time>
      </trkpt>
      <trkpt lat="37.469824" lon="-5.642228">
        <ele>176.080010</ele>
        <time>2020-08-15T05:47:44.611Z</time>
      </trkpt>
      <trkpt lat="37.469694" lon="-5.642174">
        <ele>176.947364</ele>
        <time>2020-08-15T05:47:46.619Z</time>
      </trkpt>
      <trkpt lat="37.469598" lon="-5.642249">
        <ele>174.349086</ele>
        <time>2020-08-15T05:47:48.617Z</time>
      </trkpt>
      <trkpt lat="37.469505" lon="-5.642179">
        <ele>171.251189</ele>
        <time>2020-08-15T05:47:52.613Z</time>
      </trkpt>
      <trkpt lat="37.469201" lon="-5.642002">
        <ele>161.674497</ele>
        <time>2020-08-15T05:47:55.607Z</time>
      </trkpt>
      <trkpt lat="37.469067" lon="-5.641944">
        <ele>157.622746</ele>
        <time>2020-08-15T05:47:57.594Z</time>
      </trkpt>
      <trkpt lat="37.468956" lon="-5.641939">
        <ele>154.446499</ele>
        <time>2020-08-15T05:47:59.624Z</time>
      </trkpt>
      <trkpt lat="37.468806" lon="-5.641835">
        <ele>149.550437</ele>
        <time>2020-08-15T05:48:01.618Z</time>
      </trkpt>
      <trkpt lat="37.468665" lon="-5.641790">
        <ele>145.390975</ele>
        <time>2020-08-15T05:48:03.609Z</time>
      </trkpt>
      <trkpt lat="37.468546" lon="-5.641717">
        <ele>141.606065</ele>
        <time>2020-08-15T05:48:05.621Z</time>
      </trkpt>
      <trkpt lat="37.468421" lon="-5.641605">
        <ele>137.219777</ele>
        <time>2020-08-15T05:48:07.612Z</time>
      </trkpt>
      <trkpt lat="37.468293" lon="-5.641608">
        <ele>133.558782</ele>
        <time>2020-08-15T05:48:09.611Z</time>
      </trkpt>
      <trkpt lat="37.468149" lon="-5.641567">
        <ele>129.337039</ele>
        <time>2020-08-15T05:48:11.621Z</time>
      </trkpt>
      <trkpt lat="37.468032" lon="-5.641572">
        <ele>125.989316</ele>
        <time>2020-08-15T05:48:13.616Z</time>
      </trkpt>
      <trkpt lat="37.467883" lon="-5.641503">
        <ele>126.299739</ele>
        <time>2020-08-15T05:48:15.623Z</time>
      </trkpt>
      <trkpt lat="37.467742" lon="-5.641493">
        <ele>126.950186</ele>
        <time>2020-08-15T05:48:17.615Z</time>
      </trkpt>
      <trkpt lat="37.467603" lon="-5.641408">
        <ele>127.661816</ele>
        <time>2020-08-15T05:48:19.610Z</time>
      </trkpt>
      <trkpt lat="37.467472" lon="-5.641329">
        <ele>128.330730</ele>
        <time>2020-08-15T05:48:21.627Z</time>
      </trkpt>
      <trkpt lat="37.467302" lon="-5.641265">
        <ele>129.147924</ele>
        <time>2020-08-15T05:48:23.606Z</time>
      </trkpt>
      <trkpt lat="37.467133" lon="-5.641217">
        <ele>129.945839</ele>
        <time>2020-08-15T05:48:25.610Z</time>
      </trkpt>
      <trkpt lat="37.467040" lon="-5.641174">
        <ele>130.402112</ele>
        <time>2020-08-15T05:48:26.624Z</time>
      </trkpt>
      <trkpt lat="37.466875" lon="-5.641075">
        <ele>131.243845</ele>
        <time>2020-08-15T05:48:28.613Z</time>
      </trkpt>
      <trkpt lat="37.466787" lon="-5.641043">
        <ele>131.665700</ele>
        <time>2020-08-15T05:48:29.629Z</time>
      </trkpt>
      <trkpt lat="37.466699" lon="-5.640981">
        <ele>132.130079</ele>
        <time>2020-08-15T05:48:30.617Z</time>
      </trkpt>
      <trkpt lat="37.466619" lon="-5.640923">
        <ele>132.555193</ele>
        <time>2020-08-15T05:48:31.600Z</time>
      </trkpt>
      <trkpt lat="37.466461" lon="-5.640872">
        <ele>133.306414</ele>
        <time>2020-08-15T05:48:33.627Z</time>
      </trkpt>
      <trkpt lat="37.466389" lon="-5.640770">
        <ele>133.805422</ele>
        <time>2020-08-15T05:48:34.612Z</time>
      </trkpt>
      <trkpt lat="37.466283" lon="-5.640745">
        <ele>134.227765</ele>
        <time>2020-08-15T05:48:35.606Z</time>
      </trkpt>
      <trkpt lat="37.466183" lon="-5.640658">
        <ele>134.681038</ele>
        <time>2020-08-15T05:48:36.617Z</time>
      </trkpt>
      <trkpt lat="37.466089" lon="-5.640607">
        <ele>135.062773</ele>
        <time>2020-08-15T05:48:37.622Z</time>
      </trkpt>
      <trkpt lat="37.465982" lon="-5.640613">
        <ele>135.462265</ele>
        <time>2020-08-15T05:48:38.618Z</time>
      </trkpt>
      <trkpt lat="37.465880" lon="-5.640624">
        <ele>135.844104</ele>
        <time>2020-08-15T05:48:39.610Z</time>
      </trkpt>
      <trkpt lat="37.465680" lon="-5.640644">
        <ele>136.592425</ele>
        <time>2020-08-15T05:48:41.623Z</time>
      </trkpt>
      <trkpt lat="37.465581" lon="-5.640648">
        <ele>136.961873</ele>
        <time>2020-08-15T05:48:42.630Z</time>
      </trkpt>
      <trkpt lat="37.465470" lon="-5.640667">
        <ele>137.379692</ele>
        <time>2020-08-15T05:48:43.621Z</time>
      </trkpt>
      <trkpt lat="37.465362" lon="-5.640714">
        <ele>137.805873</ele>
        <time>2020-08-15T05:48:44.618Z</time>
      </trkpt>
      <trkpt lat="37.465244" lon="-5.640706">
        <ele>138.246635</ele>
        <time>2020-08-15T05:48:45.599Z</time>
      </trkpt>
      <trkpt lat="37.465134" lon="-5.640683">
        <ele>138.662533</ele>
        <time>2020-08-15T05:48:46.623Z</time>
      </trkpt>
      <trkpt lat="37.465016" lon="-5.640717">
        <ele>139.114022</ele>
        <time>2020-08-15T05:48:47.613Z</time>
      </trkpt>
      <trkpt lat="37.464912" lon="-5.640603">
        <ele>139.628197</ele>
        <time>2020-08-15T05:48:48.619Z</time>
      </trkpt>
      <trkpt lat="37.464819" lon="-5.640538">
        <ele>140.024877</ele>
        <time>2020-08-15T05:48:49.601Z</time>
      </trkpt>
      <trkpt lat="37.464712" lon="-5.640425">
        <ele>140.545639</ele>
        <time>2020-08-15T05:48:50.596Z</time>
      </trkpt>
      <trkpt lat="37.464621" lon="-5.640340">
        <ele>140.593115</ele>
        <time>2020-08-15T05:48:51.612Z</time>
      </trkpt>
      <trkpt lat="37.464547" lon="-5.640246">
        <ele>140.563005</ele>
        <time>2020-08-15T05:48:52.610Z</time>
      </trkpt>
      <trkpt lat="37.464426" lon="-5.640090">
        <ele>140.513399</ele>
        <time>2020-08-15T05:48:54.617Z</time>
      </trkpt>
      <trkpt lat="37.464302" lon="-5.639999">
        <ele>140.472281</ele>
        <time>2020-08-15T05:48:55.607Z</time>
      </trkpt>
      <trkpt lat="37.464199" lon="-5.639953">
        <ele>140.440969</ele>
        <time>2020-08-15T05:48:56.622Z</time>
      </trkpt>
      <trkpt lat="37.464103" lon="-5.639902">
        <ele>140.411117</ele>
        <time>2020-08-15T05:48:57.627Z</time>
      </trkpt>
      <trkpt lat="37.464015" lon="-5.639865">
        <ele>140.384535</ele>
        <time>2020-08-15T05:48:58.610Z</time>
      </trkpt>
      <trkpt lat="37.463925" lon="-5.639821">
        <ele>140.356874</ele>
        <time>2020-08-15T05:48:59.626Z</time>
      </trkpt>
      <trkpt lat="37.463830" lon="-5.639781">
        <ele>140.328174</ele>
        <time>2020-08-15T05:49:00.609Z</time>
      </trkpt>
      <trkpt lat="37.463745" lon="-5.639723">
        <ele>140.300476</ele>
        <time>2020-08-15T05:49:01.612Z</time>
      </trkpt>
      <trkpt lat="37.463663" lon="-5.639670">
        <ele>140.274069</ele>
        <time>2020-08-15T05:49:02.610Z</time>
      </trkpt>
      <trkpt lat="37.463521" lon="-5.639555">
        <ele>140.225700</ele>
        <time>2020-08-15T05:49:04.612Z</time>
      </trkpt>
      <trkpt lat="37.463392" lon="-5.639459">
        <ele>140.182771</ele>
        <time>2020-08-15T05:49:06.613Z</time>
      </trkpt>
      <trkpt lat="37.463287" lon="-5.639333">
        <ele>140.141222</ele>
        <time>2020-08-15T05:49:08.613Z</time>
      </trkpt>
      <trkpt lat="37.463170" lon="-5.639236">
        <ele>140.205278</ele>
        <time>2020-08-15T05:49:10.628Z</time>
      </trkpt>
      <trkpt lat="37.463087" lon="-5.639160">
        <ele>141.072731</ele>
        <time>2020-08-15T05:49:12.605Z</time>
      </trkpt>
      <trkpt lat="37.462970" lon="-5.639063">
        <ele>142.256829</ele>
        <time>2020-08-15T05:49:14.612Z</time>
      </trkpt>
      <trkpt lat="37.462877" lon="-5.638959">
        <ele>143.308125</ele>
        <time>2020-08-15T05:49:16.614Z</time>
      </trkpt>
      <trkpt lat="37.462750" lon="-5.638892">
        <ele>144.472142</ele>
        <time>2020-08-15T05:49:18.609Z</time>
      </trkpt>
      <trkpt lat="37.462652" lon="-5.638811">
        <ele>145.463039</ele>
        <time>2020-08-15T05:49:20.626Z</time>
      </trkpt>
      <trkpt lat="37.462533" lon="-5.638680">
        <ele>146.799044</ele>
        <time>2020-08-15T05:49:22.616Z</time>
      </trkpt>
      <trkpt lat="37.462386" lon="-5.638582">
        <ele>148.205083</ele>
        <time>2020-08-15T05:49:24.609Z</time>
      </trkpt>
      <trkpt lat="37.462236" lon="-5.638489">
        <ele>149.618456</ele>
        <time>2020-08-15T05:49:26.629Z</time>
      </trkpt>
      <trkpt lat="37.462153" lon="-5.638439">
        <ele>150.396247</ele>
        <time>2020-08-15T05:49:27.612Z</time>
      </trkpt>
      <trkpt lat="37.462049" lon="-5.638418">
        <ele>151.286703</ele>
        <time>2020-08-15T05:49:28.619Z</time>
      </trkpt>
      <trkpt lat="37.461943" lon="-5.638449">
        <ele>152.206676</ele>
        <time>2020-08-15T05:49:29.624Z</time>
      </trkpt>
      <trkpt lat="37.461821" lon="-5.638455">
        <ele>153.238872</ele>
        <time>2020-08-15T05:49:30.613Z</time>
      </trkpt>
      <trkpt lat="37.461724" lon="-5.638487">
        <ele>154.086577</ele>
        <time>2020-08-15T05:49:31.611Z</time>
      </trkpt>
      <trkpt lat="37.461615" lon="-5.638479">
        <ele>155.009646</ele>
        <time>2020-08-15T05:49:32.613Z</time>
      </trkpt>
      <trkpt lat="37.461518" lon="-5.638441">
        <ele>155.985903</ele>
        <time>2020-08-15T05:49:33.639Z</time>
      </trkpt>
      <trkpt lat="37.461429" lon="-5.638387">
        <ele>156.996892</ele>
        <time>2020-08-15T05:49:34.632Z</time>
      </trkpt>
      <trkpt lat="37.461362" lon="-5.638262">
        <ele>158.222183</ele>
        <time>2020-08-15T05:49:35.623Z</time>
      </trkpt>
      <trkpt lat="37.461271" lon="-5.638160">
        <ele>159.468766</ele>
        <time>2020-08-15T05:49:36.600Z</time>
      </trkpt>
      <trkpt lat="37.461171" lon="-5.638044">
        <ele>160.859965</ele>
        <time>2020-08-15T05:49:37.618Z</time>
      </trkpt>
      <trkpt lat="37.461071" lon="-5.637959">
        <ele>162.094562</ele>
        <time>2020-08-15T05:49:38.611Z</time>
      </trkpt>
      <trkpt lat="37.460969" lon="-5.637844">
        <ele>163.495458</ele>
        <time>2020-08-15T05:49:39.622Z</time>
      </trkpt>
      <trkpt lat="37.460868" lon="-5.637768">
        <ele>164.699476</ele>
        <time>2020-08-15T05:49:40.623Z</time>
      </trkpt>
      <trkpt lat="37.460730" lon="-5.637783">
        <ele>166.117063</ele>
        <time>2020-08-15T05:49:41.622Z</time>
      </trkpt>
      <trkpt lat="37.460596" lon="-5.637755">
        <ele>167.507203</ele>
        <time>2020-08-15T05:49:42.608Z</time>
      </trkpt>
      <trkpt lat="37.460467" lon="-5.637812">
        <ele>168.906284</ele>
        <time>2020-08-15T05:49:43.608Z</time>
      </trkpt>
      <trkpt lat="37.460339" lon="-5.637801">
        <ele>170.219326</ele>
        <time>2020-08-15T05:49:44.597Z</time>
      </trkpt>
      <trkpt lat="37.460195" lon="-5.637816">
        <ele>171.698102</ele>
        <time>2020-08-15T05:49:45.610Z</time>
      </trkpt>
      <trkpt lat="37.460063" lon="-5.637860">
        <ele>173.095525</ele>
        <time>2020-08-15T05:49:46.619Z</time>
      </trkpt>
      <trkpt lat="37.459953" lon="-5.637831">
        <ele>173.615243</ele>
        <time>2020-08-15T05:49:47.616Z</time>
      </trkpt>
      <trkpt lat="37.459835" lon="-5.637804">
        <ele>173.374789</ele>
        <time>2020-08-15T05:49:48.618Z</time>
      </trkpt>
      <trkpt lat="37.459708" lon="-5.637772">
        <ele>173.115118</ele>
        <time>2020-08-15T05:49:49.629Z</time>
      </trkpt>
      <trkpt lat="37.459581" lon="-5.637705">
        <ele>172.839064</ele>
        <time>2020-08-15T05:49:50.623Z</time>
      </trkpt>
      <trkpt lat="37.459431" lon="-5.637682">
        <ele>172.536103</ele>
        <time>2020-08-15T05:49:51.617Z</time>
      </trkpt>
      <trkpt lat="37.459293" lon="-5.637621">
        <ele>172.242883</ele>
        <time>2020-08-15T05:49:52.615Z</time>
      </trkpt>
      <trkpt lat="37.459164" lon="-5.637629">
        <ele>171.983932</ele>
        <time>2020-08-15T05:49:53.622Z</time>
      </trkpt>
      <trkpt lat="37.459055" lon="-5.637588">
        <ele>171.755859</ele>
        <time>2020-08-15T05:49:54.612Z</time>
      </trkpt>
      <trkpt lat="37.458932" lon="-5.637572">
        <ele>171.507940</ele>
        <time>2020-08-15T05:49:55.618Z</time>
      </trkpt>
      <trkpt lat="37.458827" lon="-5.637642">
        <ele>171.269760</ele>
        <time>2020-08-15T05:49:56.606Z</time>
      </trkpt>
      <trkpt lat="37.458746" lon="-5.637740">
        <ele>171.044594</ele>
        <time>2020-08-15T05:49:57.599Z</time>
      </trkpt>
      <trkpt lat="37.458648" lon="-5.637813">
        <ele>170.816331</ele>
        <time>2020-08-15T05:49:58.608Z</time>
      </trkpt>
      <trkpt lat="37.458564" lon="-5.637945">
        <ele>170.547078</ele>
        <time>2020-08-15T05:49:59.597Z</time>
      </trkpt>
      <trkpt lat="37.458456" lon="-5.638082">
        <ele>170.239788</ele>
        <time>2020-08-15T05:50:01.612Z</time>
      </trkpt>
      <trkpt lat="37.458335" lon="-5.638091">
        <ele>170.252187</ele>
        <time>2020-08-15T05:50:03.611Z</time>
      </trkpt>
      <trkpt lat="37.458192" lon="-5.637956">
        <ele>170.685740</ele>
        <time>2020-08-15T05:50:05.610Z</time>
      </trkpt>
      <trkpt lat="37.458161" lon="-5.637835">
        <ele>170.930610</ele>
        <time>2020-08-15T05:50:06.612Z</time>
      </trkpt>
      <trkpt lat="37.458101" lon="-5.637714">
        <ele>171.205375</ele>
        <time>2020-08-15T05:50:07.601Z</time>
      </trkpt>
      <trkpt lat="37.458030" lon="-5.637591">
        <ele>171.498271</ele>
        <time>2020-08-15T05:50:08.610Z</time>
      </trkpt>
      <trkpt lat="37.457960" lon="-5.637466">
        <ele>171.792885</ele>
        <time>2020-08-15T05:50:09.607Z</time>
      </trkpt>
      <trkpt lat="37.457858" lon="-5.637362">
        <ele>172.111255</ele>
        <time>2020-08-15T05:50:10.617Z</time>
      </trkpt>
      <trkpt lat="37.457770" lon="-5.637234">
        <ele>172.437375</ele>
        <time>2020-08-15T05:50:11.615Z</time>
      </trkpt>
      <trkpt lat="37.457695" lon="-5.637113">
        <ele>172.733037</ele>
        <time>2020-08-15T05:50:12.628Z</time>
      </trkpt>
      <trkpt lat="37.457604" lon="-5.636994">
        <ele>173.051267</ele>
        <time>2020-08-15T05:50:13.620Z</time>
      </trkpt>
      <trkpt lat="37.457516" lon="-5.636868">
        <ele>173.374486</ele>
        <time>2020-08-15T05:50:14.618Z</time>
      </trkpt>
      <trkpt lat="37.457412" lon="-5.636770">
        <ele>173.689588</ele>
        <time>2020-08-15T05:50:15.615Z</time>
      </trkpt>
      <trkpt lat="37.457317" lon="-5.636643">
        <ele>174.025668</ele>
        <time>2020-08-15T05:50:16.622Z</time>
      </trkpt>
      <trkpt lat="37.457208" lon="-5.636530">
        <ele>174.368156</ele>
        <time>2020-08-15T05:50:17.616Z</time>
      </trkpt>
      <trkpt lat="37.457098" lon="-5.636417">
        <ele>173.727634</ele>
        <time>2020-08-15T05:50:18.612Z</time>
      </trkpt>
      <trkpt lat="37.456983" lon="-5.636332">
        <ele>172.703106</ele>
        <time>2020-08-15T05:50:19.612Z</time>
      </trkpt>
      <trkpt lat="37.456874" lon="-5.636251">
        <ele>171.730688</ele>
        <time>2020-08-15T05:50:20.615Z</time>
      </trkpt>
      <trkpt lat="37.456782" lon="-5.636209">
        <ele>170.978774</ele>
        <time>2020-08-15T05:50:21.612Z</time>
      </trkpt>
      <trkpt lat="37.456684" lon="-5.636142">
        <ele>170.121997</ele>
        <time>2020-08-15T05:50:23.617Z</time>
      </trkpt>
      <trkpt lat="37.456725" lon="-5.636253">
        <ele>169.375229</ele>
        <time>2020-08-15T05:50:37.625Z</time>
      </trkpt>
      <trkpt lat="37.456740" lon="-5.636372">
        <ele>168.640279</ele>
        <time>2020-08-15T05:50:53.632Z</time>
      </trkpt>
      <trkpt lat="37.456682" lon="-5.636469">
        <ele>167.899544</ele>
        <time>2020-08-15T05:50:57.632Z</time>
      </trkpt>
      <trkpt lat="37.456596" lon="-5.636546">
        <ele>167.088818</ele>
        <time>2020-08-15T05:51:01.617Z</time>
      </trkpt>
      <trkpt lat="37.456518" lon="-5.636610">
        <ele>166.373546</ele>
        <time>2020-08-15T05:51:04.623Z</time>
      </trkpt>
      <trkpt lat="37.456429" lon="-5.636697">
        <ele>165.507928</ele>
        <time>2020-08-15T05:51:07.626Z</time>
      </trkpt>
      <trkpt lat="37.456325" lon="-5.636793">
        <ele>164.517221</ele>
        <time>2020-08-15T05:51:10.632Z</time>
      </trkpt>
      <trkpt lat="37.456227" lon="-5.636892">
        <ele>163.551970</ele>
        <time>2020-08-15T05:51:13.631Z</time>
      </trkpt>
      <trkpt lat="37.456138" lon="-5.636986">
        <ele>162.659538</ele>
        <time>2020-08-15T05:51:16.641Z</time>
      </trkpt>
      <trkpt lat="37.456044" lon="-5.637082">
        <ele>161.729700</ele>
        <time>2020-08-15T05:51:19.625Z</time>
      </trkpt>
      <trkpt lat="37.455927" lon="-5.637167">
        <ele>160.691885</ele>
        <time>2020-08-15T05:51:22.628Z</time>
      </trkpt>
      <trkpt lat="37.455839" lon="-5.637265">
        <ele>160.520911</ele>
        <time>2020-08-15T05:51:25.621Z</time>
      </trkpt>
      <trkpt lat="37.455753" lon="-5.637359">
        <ele>160.385000</ele>
        <time>2020-08-15T05:51:28.628Z</time>
      </trkpt>
      <trkpt lat="37.455661" lon="-5.637446">
        <ele>160.247683</ele>
        <time>2020-08-15T05:51:31.627Z</time>
      </trkpt>
      <trkpt lat="37.455577" lon="-5.637520">
        <ele>160.125329</ele>
        <time>2020-08-15T05:51:34.632Z</time>
      </trkpt>
      <trkpt lat="37.455494" lon="-5.637629">
        <ele>159.982208</ele>
        <time>2020-08-15T05:51:38.613Z</time>
      </trkpt>
      <trkpt lat="37.455424" lon="-5.637714">
        <ele>159.866152</ele>
        <time>2020-08-15T05:51:41.608Z</time>
      </trkpt>
      <trkpt lat="37.455354" lon="-5.637796">
        <ele>159.752051</ele>
        <time>2020-08-15T05:51:44.631Z</time>
      </trkpt>
      <trkpt lat="37.455286" lon="-5.637881">
        <ele>159.637702</ele>
        <time>2020-08-15T05:51:47.633Z</time>
      </trkpt>
      <trkpt lat="37.455207" lon="-5.637998">
        <ele>159.492155</ele>
        <time>2020-08-15T05:51:51.636Z</time>
      </trkpt>
      <trkpt lat="37.455124" lon="-5.638093">
        <ele>159.358292</ele>
        <time>2020-08-15T05:51:54.610Z</time>
      </trkpt>
      <trkpt lat="37.455033" lon="-5.638193">
        <ele>159.214146</ele>
        <time>2020-08-15T05:51:57.628Z</time>
      </trkpt>
      <trkpt lat="37.454943" lon="-5.638280">
        <ele>159.078730</ele>
        <time>2020-08-15T05:52:00.630Z</time>
      </trkpt>
      <trkpt lat="37.454856" lon="-5.638373">
        <ele>158.942530</ele>
        <time>2020-08-15T05:52:03.629Z</time>
      </trkpt>
      <trkpt lat="37.454774" lon="-5.638470">
        <ele>158.808257</ele>
        <time>2020-08-15T05:52:06.615Z</time>
      </trkpt>
      <trkpt lat="37.454674" lon="-5.638564">
        <ele>158.659320</ele>
        <time>2020-08-15T05:52:09.629Z</time>
      </trkpt>
      <trkpt lat="37.454583" lon="-5.638658">
        <ele>158.518846</ele>
        <time>2020-08-15T05:52:12.627Z</time>
      </trkpt>
      <trkpt lat="37.454489" lon="-5.638748">
        <ele>158.436103</ele>
        <time>2020-08-15T05:52:15.628Z</time>
      </trkpt>
      <trkpt lat="37.454404" lon="-5.638838">
        <ele>158.362639</ele>
        <time>2020-08-15T05:52:18.635Z</time>
      </trkpt>
      <trkpt lat="37.454309" lon="-5.638922">
        <ele>158.285847</ele>
        <time>2020-08-15T05:52:21.618Z</time>
      </trkpt>
      <trkpt lat="37.454230" lon="-5.639002">
        <ele>158.218784</ele>
        <time>2020-08-15T05:52:24.621Z</time>
      </trkpt>
      <trkpt lat="37.454158" lon="-5.639087">
        <ele>158.153498</ele>
        <time>2020-08-15T05:52:27.639Z</time>
      </trkpt>
      <trkpt lat="37.454094" lon="-5.639174">
        <ele>158.091201</ele>
        <time>2020-08-15T05:52:30.636Z</time>
      </trkpt>
      <trkpt lat="37.454034" lon="-5.639263">
        <ele>158.029875</ele>
        <time>2020-08-15T05:52:33.632Z</time>
      </trkpt>
      <trkpt lat="37.453960" lon="-5.639349">
        <ele>157.963263</ele>
        <time>2020-08-15T05:52:36.632Z</time>
      </trkpt>
      <trkpt lat="37.453876" lon="-5.639421">
        <ele>157.896041</ele>
        <time>2020-08-15T05:52:39.630Z</time>
      </trkpt>
      <trkpt lat="37.453781" lon="-5.639496">
        <ele>157.821864</ele>
        <time>2020-08-15T05:52:42.635Z</time>
      </trkpt>
      <trkpt lat="37.453692" lon="-5.639573">
        <ele>157.750430</ele>
        <time>2020-08-15T05:52:45.624Z</time>
      </trkpt>
      <trkpt lat="37.453622" lon="-5.639661">
        <ele>157.684999</ele>
        <time>2020-08-15T05:52:48.622Z</time>
      </trkpt>
      <trkpt lat="37.453545" lon="-5.639744">
        <ele>157.617949</ele>
        <time>2020-08-15T05:52:51.616Z</time>
      </trkpt>
      <trkpt lat="37.453470" lon="-5.639817">
        <ele>157.555241</ele>
        <time>2020-08-15T05:52:54.611Z</time>
      </trkpt>
      <trkpt lat="37.453392" lon="-5.639898">
        <ele>157.488360</ele>
        <time>2020-08-15T05:52:57.611Z</time>
      </trkpt>
      <trkpt lat="37.453319" lon="-5.639984">
        <ele>157.422231</ele>
        <time>2020-08-15T05:53:00.619Z</time>
      </trkpt>
      <trkpt lat="37.453259" lon="-5.640068">
        <ele>157.362882</ele>
        <time>2020-08-15T05:53:03.606Z</time>
      </trkpt>
      <trkpt lat="37.453188" lon="-5.640157">
        <ele>157.275016</ele>
        <time>2020-08-15T05:53:06.622Z</time>
      </trkpt>
      <trkpt lat="37.453122" lon="-5.640241">
        <ele>157.151570</ele>
        <time>2020-08-15T05:53:09.628Z</time>
      </trkpt>
      <trkpt lat="37.453053" lon="-5.640330">
        <ele>157.021632</ele>
        <time>2020-08-15T05:53:12.632Z</time>
      </trkpt>
      <trkpt lat="37.452988" lon="-5.640425">
        <ele>156.890635</ele>
        <time>2020-08-15T05:53:15.626Z</time>
      </trkpt>
      <trkpt lat="37.452922" lon="-5.640526">
        <ele>156.753997</ele>
        <time>2020-08-15T05:53:18.621Z</time>
      </trkpt>
      <trkpt lat="37.452842" lon="-5.640632">
        <ele>156.601230</ele>
        <time>2020-08-15T05:53:21.622Z</time>
      </trkpt>
      <trkpt lat="37.452762" lon="-5.640738">
        <ele>156.448462</ele>
        <time>2020-08-15T05:53:24.622Z</time>
      </trkpt>
      <trkpt lat="37.452674" lon="-5.640850">
        <ele>156.283867</ele>
        <time>2020-08-15T05:53:27.643Z</time>
      </trkpt>
      <trkpt lat="37.452595" lon="-5.640974">
        <ele>156.117797</ele>
        <time>2020-08-15T05:53:30.620Z</time>
      </trkpt>
      <trkpt lat="37.452528" lon="-5.641107">
        <ele>155.953268</ele>
        <time>2020-08-15T05:53:33.637Z</time>
      </trkpt>
      <trkpt lat="37.452467" lon="-5.641248">
        <ele>155.785543</ele>
        <time>2020-08-15T05:53:36.624Z</time>
      </trkpt>
      <trkpt lat="37.452430" lon="-5.641355">
        <ele>155.663638</ele>
        <time>2020-08-15T05:53:38.636Z</time>
      </trkpt>
      <trkpt lat="37.452382" lon="-5.641456">
        <ele>155.540683</ele>
        <time>2020-08-15T05:53:40.630Z</time>
      </trkpt>
      <trkpt lat="37.452330" lon="-5.641604">
        <ele>155.371632</ele>
        <time>2020-08-15T05:53:43.633Z</time>
      </trkpt>
      <trkpt lat="37.452265" lon="-5.641726">
        <ele>155.218163</ele>
        <time>2020-08-15T05:53:46.631Z</time>
      </trkpt>
      <trkpt lat="37.452218" lon="-5.641864">
        <ele>155.061315</ele>
        <time>2020-08-15T05:53:49.632Z</time>
      </trkpt>
      <trkpt lat="37.452158" lon="-5.642010">
        <ele>154.852169</ele>
        <time>2020-08-15T05:53:52.624Z</time>
      </trkpt>
      <trkpt lat="37.452128" lon="-5.642164">
        <ele>154.587077</ele>
        <time>2020-08-15T05:53:55.631Z</time>
      </trkpt>
      <trkpt lat="37.452121" lon="-5.642329">
        <ele>154.310840</ele>
        <time>2020-08-15T05:53:58.615Z</time>
      </trkpt>
      <trkpt lat="37.452120" lon="-5.642456">
        <ele>154.098514</ele>
        <time>2020-08-15T05:54:00.627Z</time>
      </trkpt>
      <trkpt lat="37.452070" lon="-5.642571">
        <ele>153.879314</ele>
        <time>2020-08-15T05:54:02.622Z</time>
      </trkpt>
      <trkpt lat="37.452007" lon="-5.642712">
        <ele>153.608822</ele>
        <time>2020-08-15T05:54:05.614Z</time>
      </trkpt>
      <trkpt lat="37.451970" lon="-5.642818">
        <ele>153.415240</ele>
        <time>2020-08-15T05:54:08.625Z</time>
      </trkpt>
      <trkpt lat="37.451938" lon="-5.642938">
        <ele>153.203610</ele>
        <time>2020-08-15T05:54:11.614Z</time>
      </trkpt>
      <trkpt lat="37.451885" lon="-5.643074">
        <ele>152.950330</ele>
        <time>2020-08-15T05:54:14.625Z</time>
      </trkpt>
      <trkpt lat="37.451845" lon="-5.643212">
        <ele>152.704727</ele>
        <time>2020-08-15T05:54:17.631Z</time>
      </trkpt>
      <trkpt lat="37.451810" lon="-5.643347">
        <ele>152.467306</ele>
        <time>2020-08-15T05:54:20.639Z</time>
      </trkpt>
      <trkpt lat="37.451774" lon="-5.643481">
        <ele>152.230806</ele>
        <time>2020-08-15T05:54:23.627Z</time>
      </trkpt>
      <trkpt lat="37.451724" lon="-5.643613">
        <ele>151.986297</ele>
        <time>2020-08-15T05:54:26.641Z</time>
      </trkpt>
      <trkpt lat="37.451679" lon="-5.643735">
        <ele>151.761399</ele>
        <time>2020-08-15T05:54:29.632Z</time>
      </trkpt>
      <trkpt lat="37.451634" lon="-5.643854">
        <ele>151.541039</ele>
        <time>2020-08-15T05:54:32.639Z</time>
      </trkpt>
      <trkpt lat="37.451601" lon="-5.643983">
        <ele>151.314458</ele>
        <time>2020-08-15T05:54:35.644Z</time>
      </trkpt>
      <trkpt lat="37.451554" lon="-5.644110">
        <ele>151.199975</ele>
        <time>2020-08-15T05:54:38.615Z</time>
      </trkpt>
      <trkpt lat="37.451499" lon="-5.644228">
        <ele>151.297454</ele>
        <time>2020-08-15T05:54:41.630Z</time>
      </trkpt>
      <trkpt lat="37.451437" lon="-5.644324">
        <ele>151.385615</ele>
        <time>2020-08-15T05:54:44.616Z</time>
      </trkpt>
      <trkpt lat="37.451343" lon="-5.644432">
        <ele>151.499784</ele>
        <time>2020-08-15T05:54:47.633Z</time>
      </trkpt>
      <trkpt lat="37.451277" lon="-5.644552">
        <ele>151.603782</ele>
        <time>2020-08-15T05:54:50.635Z</time>
      </trkpt>
      <trkpt lat="37.451233" lon="-5.644674">
        <ele>151.699242</ele>
        <time>2020-08-15T05:54:53.639Z</time>
      </trkpt>
      <trkpt lat="37.451179" lon="-5.644802">
        <ele>151.802503</ele>
        <time>2020-08-15T05:54:56.625Z</time>
      </trkpt>
      <trkpt lat="37.451104" lon="-5.644916">
        <ele>151.907978</ele>
        <time>2020-08-15T05:54:59.632Z</time>
      </trkpt>
      <trkpt lat="37.451021" lon="-5.645011">
        <ele>152.008613</ele>
        <time>2020-08-15T05:55:02.643Z</time>
      </trkpt>
      <trkpt lat="37.450953" lon="-5.645136">
        <ele>152.116563</ele>
        <time>2020-08-15T05:55:05.638Z</time>
      </trkpt>
      <trkpt lat="37.450875" lon="-5.645254">
        <ele>152.225950</ele>
        <time>2020-08-15T05:55:08.603Z</time>
      </trkpt>
      <trkpt lat="37.450784" lon="-5.645355">
        <ele>152.334786</ele>
        <time>2020-08-15T05:55:11.631Z</time>
      </trkpt>
      <trkpt lat="37.450707" lon="-5.645469">
        <ele>152.441416</ele>
        <time>2020-08-15T05:55:14.624Z</time>
      </trkpt>
      <trkpt lat="37.450624" lon="-5.645571">
        <ele>152.545471</ele>
        <time>2020-08-15T05:55:17.626Z</time>
      </trkpt>
      <trkpt lat="37.450537" lon="-5.645666">
        <ele>152.648791</ele>
        <time>2020-08-15T05:55:20.624Z</time>
      </trkpt>
      <trkpt lat="37.450448" lon="-5.645767">
        <ele>152.756288</ele>
        <time>2020-08-15T05:55:23.629Z</time>
      </trkpt>
      <trkpt lat="37.450363" lon="-5.645860">
        <ele>153.011225</ele>
        <time>2020-08-15T05:55:26.636Z</time>
      </trkpt>
      <trkpt lat="37.450274" lon="-5.645955">
        <ele>153.319580</ele>
        <time>2020-08-15T05:55:29.627Z</time>
      </trkpt>
      <trkpt lat="37.450190" lon="-5.646053">
        <ele>153.622217</ele>
        <time>2020-08-15T05:55:32.633Z</time>
      </trkpt>
      <trkpt lat="37.450107" lon="-5.646150">
        <ele>153.921488</ele>
        <time>2020-08-15T05:55:35.613Z</time>
      </trkpt>
      <trkpt lat="37.450026" lon="-5.646221">
        <ele>154.182328</ele>
        <time>2020-08-15T05:55:38.619Z</time>
      </trkpt>
      <trkpt lat="37.449921" lon="-5.646287">
        <ele>154.492506</ele>
        <time>2020-08-15T05:55:41.632Z</time>
      </trkpt>
      <trkpt lat="37.449825" lon="-5.646372">
        <ele>154.802675</ele>
        <time>2020-08-15T05:55:44.622Z</time>
      </trkpt>
      <trkpt lat="37.449743" lon="-5.646465">
        <ele>155.094333</ele>
        <time>2020-08-15T05:55:47.620Z</time>
      </trkpt>
      <trkpt lat="37.449661" lon="-5.646557">
        <ele>155.384592</ele>
        <time>2020-08-15T05:55:50.633Z</time>
      </trkpt>
      <trkpt lat="37.449593" lon="-5.646648">
        <ele>155.646835</ele>
        <time>2020-08-15T05:55:53.627Z</time>
      </trkpt>
      <trkpt lat="37.449530" lon="-5.646751">
        <ele>155.919685</ele>
        <time>2020-08-15T05:55:56.635Z</time>
      </trkpt>
      <trkpt lat="37.449464" lon="-5.646851">
        <ele>156.192575</ele>
        <time>2020-08-15T05:55:59.630Z</time>
      </trkpt>
      <trkpt lat="37.449383" lon="-5.646944">
        <ele>156.482275</ele>
        <time>2020-08-15T05:56:02.628Z</time>
      </trkpt>
      <trkpt lat="37.449310" lon="-5.647046">
        <ele>156.770453</ele>
        <time>2020-08-15T05:56:05.618Z</time>
      </trkpt>
      <trkpt lat="37.449243" lon="-5.647141">
        <ele>157.037108</ele>
        <time>2020-08-15T05:56:08.637Z</time>
      </trkpt>
      <trkpt lat="37.449172" lon="-5.647227">
        <ele>157.297471</ele>
        <time>2020-08-15T05:56:11.634Z</time>
      </trkpt>
      <trkpt lat="37.449087" lon="-5.647318">
        <ele>157.541876</ele>
        <time>2020-08-15T05:56:14.640Z</time>
      </trkpt>
      <trkpt lat="37.448999" lon="-5.647411">
        <ele>157.589563</ele>
        <time>2020-08-15T05:56:17.627Z</time>
      </trkpt>
      <trkpt lat="37.448912" lon="-5.647494">
        <ele>157.634871</ele>
        <time>2020-08-15T05:56:20.623Z</time>
      </trkpt>
      <trkpt lat="37.448816" lon="-5.647582">
        <ele>157.684161</ele>
        <time>2020-08-15T05:56:23.612Z</time>
      </trkpt>
      <trkpt lat="37.448731" lon="-5.647680">
        <ele>157.731998</ele>
        <time>2020-08-15T05:56:26.631Z</time>
      </trkpt>
      <trkpt lat="37.448643" lon="-5.647779">
        <ele>157.780981</ele>
        <time>2020-08-15T05:56:29.629Z</time>
      </trkpt>
      <trkpt lat="37.448578" lon="-5.647883">
        <ele>157.824604</ele>
        <time>2020-08-15T05:56:32.629Z</time>
      </trkpt>
      <trkpt lat="37.448506" lon="-5.647958">
        <ele>157.863392</ele>
        <time>2020-08-15T05:56:35.627Z</time>
      </trkpt>
      <trkpt lat="37.448426" lon="-5.648033">
        <ele>157.904792</ele>
        <time>2020-08-15T05:56:38.635Z</time>
      </trkpt>
      <trkpt lat="37.448343" lon="-5.648130">
        <ele>157.951796</ele>
        <time>2020-08-15T05:56:41.628Z</time>
      </trkpt>
      <trkpt lat="37.448258" lon="-5.648233">
        <ele>158.000761</ele>
        <time>2020-08-15T05:56:44.648Z</time>
      </trkpt>
      <trkpt lat="37.448172" lon="-5.648322">
        <ele>158.046968</ele>
        <time>2020-08-15T05:56:47.628Z</time>
      </trkpt>
      <trkpt lat="37.448093" lon="-5.648406">
        <ele>158.089887</ele>
        <time>2020-08-15T05:56:50.632Z</time>
      </trkpt>
      <trkpt lat="37.448011" lon="-5.648503">
        <ele>158.136587</ele>
        <time>2020-08-15T05:56:53.628Z</time>
      </trkpt>
      <trkpt lat="37.447940" lon="-5.648601">
        <ele>158.180314</ele>
        <time>2020-08-15T05:56:56.624Z</time>
      </trkpt>
      <trkpt lat="37.447868" lon="-5.648693">
        <ele>158.222892</ele>
        <time>2020-08-15T05:56:59.628Z</time>
      </trkpt>
      <trkpt lat="37.447790" lon="-5.648779">
        <ele>158.265926</ele>
        <time>2020-08-15T05:57:02.630Z</time>
      </trkpt>
      <trkpt lat="37.447715" lon="-5.648871">
        <ele>158.330306</ele>
        <time>2020-08-15T05:57:05.650Z</time>
      </trkpt>
      <trkpt lat="37.447634" lon="-5.648952">
        <ele>158.402966</ele>
        <time>2020-08-15T05:57:08.631Z</time>
      </trkpt>
      <trkpt lat="37.447551" lon="-5.649044">
        <ele>158.480640</ele>
        <time>2020-08-15T05:57:11.629Z</time>
      </trkpt>
      <trkpt lat="37.447456" lon="-5.649120">
        <ele>158.559705</ele>
        <time>2020-08-15T05:57:14.635Z</time>
      </trkpt>
      <trkpt lat="37.447367" lon="-5.649194">
        <ele>158.634626</ele>
        <time>2020-08-15T05:57:17.616Z</time>
      </trkpt>
      <trkpt lat="37.447297" lon="-5.649295">
        <ele>158.709405</ele>
        <time>2020-08-15T05:57:20.635Z</time>
      </trkpt>
      <trkpt lat="37.447230" lon="-5.649390">
        <ele>158.780280</ele>
        <time>2020-08-15T05:57:23.636Z</time>
      </trkpt>
      <trkpt lat="37.447160" lon="-5.649479">
        <ele>158.850157</ele>
        <time>2020-08-15T05:57:26.635Z</time>
      </trkpt>
      <trkpt lat="37.447089" lon="-5.649567">
        <ele>158.920137</ele>
        <time>2020-08-15T05:57:29.632Z</time>
      </trkpt>
      <trkpt lat="37.447022" lon="-5.649650">
        <ele>158.986158</ele>
        <time>2020-08-15T05:57:32.638Z</time>
      </trkpt>
      <trkpt lat="37.446948" lon="-5.649737">
        <ele>159.057274</ele>
        <time>2020-08-15T05:57:35.613Z</time>
      </trkpt>
      <trkpt lat="37.446871" lon="-5.649828">
        <ele>159.131453</ele>
        <time>2020-08-15T05:57:38.615Z</time>
      </trkpt>
      <trkpt lat="37.446791" lon="-5.649917">
        <ele>159.206440</ele>
        <time>2020-08-15T05:57:41.604Z</time>
      </trkpt>
      <trkpt lat="37.446709" lon="-5.650017">
        <ele>159.286626</ele>
        <time>2020-08-15T05:57:44.630Z</time>
      </trkpt>
      <trkpt lat="37.446633" lon="-5.650118">
        <ele>159.364243</ele>
        <time>2020-08-15T05:57:47.626Z</time>
      </trkpt>
      <trkpt lat="37.446557" lon="-5.650217">
        <ele>159.441054</ele>
        <time>2020-08-15T05:57:50.633Z</time>
      </trkpt>
      <trkpt lat="37.446471" lon="-5.650322">
        <ele>159.525199</ele>
        <time>2020-08-15T05:57:53.625Z</time>
      </trkpt>
      <trkpt lat="37.446381" lon="-5.650419">
        <ele>159.544697</ele>
        <time>2020-08-15T05:57:56.618Z</time>
      </trkpt>
      <trkpt lat="37.446294" lon="-5.650520">
        <ele>159.547104</ele>
        <time>2020-08-15T05:57:59.632Z</time>
      </trkpt>
      <trkpt lat="37.446218" lon="-5.650615">
        <ele>159.549282</ele>
        <time>2020-08-15T05:58:02.650Z</time>
      </trkpt>
      <trkpt lat="37.446142" lon="-5.650705">
        <ele>159.551405</ele>
        <time>2020-08-15T05:58:05.630Z</time>
      </trkpt>
      <trkpt lat="37.446064" lon="-5.650800">
        <ele>159.553612</ele>
        <time>2020-08-15T05:58:08.639Z</time>
      </trkpt>
      <trkpt lat="37.445973" lon="-5.650891">
        <ele>159.555976</ele>
        <time>2020-08-15T05:58:11.618Z</time>
      </trkpt>
      <trkpt lat="37.445888" lon="-5.650973">
        <ele>159.558155</ele>
        <time>2020-08-15T05:58:14.615Z</time>
      </trkpt>
      <trkpt lat="37.445803" lon="-5.651057">
        <ele>159.560353</ele>
        <time>2020-08-15T05:58:18.637Z</time>
      </trkpt>
      <trkpt lat="37.445721" lon="-5.651141">
        <ele>159.562503</ele>
        <time>2020-08-15T05:58:22.625Z</time>
      </trkpt>
      <trkpt lat="37.445643" lon="-5.651249">
        <ele>159.564862</ele>
        <time>2020-08-15T05:58:26.635Z</time>
      </trkpt>
      <trkpt lat="37.445566" lon="-5.651347">
        <ele>159.567089</ele>
        <time>2020-08-15T05:58:30.632Z</time>
      </trkpt>
      <trkpt lat="37.445505" lon="-5.651438">
        <ele>159.569013</ele>
        <time>2020-08-15T05:58:34.624Z</time>
      </trkpt>
      <trkpt lat="37.445435" lon="-5.651515">
        <ele>159.570904</ele>
        <time>2020-08-15T05:58:37.631Z</time>
      </trkpt>
      <trkpt lat="37.445364" lon="-5.651592">
        <ele>159.572810</ele>
        <time>2020-08-15T05:58:40.635Z</time>
      </trkpt>
      <trkpt lat="37.445293" lon="-5.651678">
        <ele>159.574814</ele>
        <time>2020-08-15T05:58:43.630Z</time>
      </trkpt>
      <trkpt lat="37.445203" lon="-5.651764">
        <ele>159.577113</ele>
        <time>2020-08-15T05:58:47.611Z</time>
      </trkpt>
      <trkpt lat="37.445111" lon="-5.651854">
        <ele>159.575490</ele>
        <time>2020-08-15T05:58:51.625Z</time>
      </trkpt>
      <trkpt lat="37.445038" lon="-5.651946">
        <ele>159.485665</ele>
        <time>2020-08-15T05:58:54.629Z</time>
      </trkpt>
      <trkpt lat="37.444958" lon="-5.652033">
        <ele>159.393729</ele>
        <time>2020-08-15T05:58:57.629Z</time>
      </trkpt>
      <trkpt lat="37.444876" lon="-5.652121">
        <ele>159.300023</ele>
        <time>2020-08-15T05:59:00.629Z</time>
      </trkpt>
      <trkpt lat="37.444795" lon="-5.652198">
        <ele>159.211752</ele>
        <time>2020-08-15T05:59:03.630Z</time>
      </trkpt>
      <trkpt lat="37.444711" lon="-5.652270">
        <ele>159.123372</ele>
        <time>2020-08-15T05:59:06.620Z</time>
      </trkpt>
      <trkpt lat="37.444644" lon="-5.652360">
        <ele>159.038168</ele>
        <time>2020-08-15T05:59:09.597Z</time>
      </trkpt>
      <trkpt lat="37.444578" lon="-5.652449">
        <ele>158.954064</ele>
        <time>2020-08-15T05:59:12.610Z</time>
      </trkpt>
      <trkpt lat="37.444509" lon="-5.652539">
        <ele>158.867662</ele>
        <time>2020-08-15T05:59:15.633Z</time>
      </trkpt>
      <trkpt lat="37.444436" lon="-5.652627">
        <ele>158.779768</ele>
        <time>2020-08-15T05:59:18.629Z</time>
      </trkpt>
      <trkpt lat="37.444358" lon="-5.652718">
        <ele>158.687287</ele>
        <time>2020-08-15T05:59:21.625Z</time>
      </trkpt>
      <trkpt lat="37.444277" lon="-5.652808">
        <ele>158.593333</ele>
        <time>2020-08-15T05:59:24.635Z</time>
      </trkpt>
      <trkpt lat="37.444201" lon="-5.652900">
        <ele>158.501644</ele>
        <time>2020-08-15T05:59:27.635Z</time>
      </trkpt>
      <trkpt lat="37.444136" lon="-5.652979">
        <ele>158.423074</ele>
        <time>2020-08-15T05:59:30.624Z</time>
      </trkpt>
      <trkpt lat="37.444063" lon="-5.653048">
        <ele>158.343684</ele>
        <time>2020-08-15T05:59:33.639Z</time>
      </trkpt>
      <trkpt lat="37.443984" lon="-5.653120">
        <ele>158.258864</ele>
        <time>2020-08-15T05:59:36.632Z</time>
      </trkpt>
      <trkpt lat="37.443898" lon="-5.653205">
        <ele>158.163776</ele>
        <time>2020-08-15T05:59:39.649Z</time>
      </trkpt>
      <trkpt lat="37.443808" lon="-5.653304">
        <ele>158.059838</ele>
        <time>2020-08-15T05:59:42.634Z</time>
      </trkpt>
      <trkpt lat="37.443719" lon="-5.653409">
        <ele>157.993505</ele>
        <time>2020-08-15T05:59:45.641Z</time>
      </trkpt>
      <trkpt lat="37.443621" lon="-5.653504">
        <ele>157.955898</ele>
        <time>2020-08-15T05:59:48.628Z</time>
      </trkpt>
      <trkpt lat="37.443544" lon="-5.653582">
        <ele>157.925849</ele>
        <time>2020-08-15T05:59:53.645Z</time>
      </trkpt>
      <trkpt lat="37.443406" lon="-5.653771">
        <ele>157.863853</ele>
        <time>2020-08-15T05:59:55.626Z</time>
      </trkpt>
      <trkpt lat="37.443293" lon="-5.653854">
        <ele>157.824073</ele>
        <time>2020-08-15T05:59:58.620Z</time>
      </trkpt>
      <trkpt lat="37.443262" lon="-5.653975">
        <ele>157.793375</ele>
        <time>2020-08-15T06:00:00.616Z</time>
      </trkpt>
      <trkpt lat="37.443194" lon="-5.654100">
        <ele>157.756790</ele>
        <time>2020-08-15T06:00:03.634Z</time>
      </trkpt>
      <trkpt lat="37.443179" lon="-5.654231">
        <ele>157.724833</ele>
        <time>2020-08-15T06:00:05.641Z</time>
      </trkpt>
      <trkpt lat="37.443093" lon="-5.654307">
        <ele>157.692885</ele>
        <time>2020-08-15T06:00:08.620Z</time>
      </trkpt>
      <trkpt lat="37.443003" lon="-5.654396">
        <ele>157.658089</ele>
        <time>2020-08-15T06:00:11.634Z</time>
      </trkpt>
      <trkpt lat="37.442899" lon="-5.654485">
        <ele>157.619853</ele>
        <time>2020-08-15T06:00:14.646Z</time>
      </trkpt>
      <trkpt lat="37.442791" lon="-5.654573">
        <ele>157.580736</ele>
        <time>2020-08-15T06:00:17.639Z</time>
      </trkpt>
      <trkpt lat="37.442687" lon="-5.654666">
        <ele>157.541949</ele>
        <time>2020-08-15T06:00:20.630Z</time>
      </trkpt>
      <trkpt lat="37.442620" lon="-5.654742">
        <ele>157.514529</ele>
        <time>2020-08-15T06:00:22.628Z</time>
      </trkpt>
      <trkpt lat="37.442509" lon="-5.654847">
        <ele>157.472314</ele>
        <time>2020-08-15T06:00:25.617Z</time>
      </trkpt>
      <trkpt lat="37.442446" lon="-5.654935">
        <ele>157.460520</ele>
        <time>2020-08-15T06:00:27.622Z</time>
      </trkpt>
      <trkpt lat="37.442380" lon="-5.655022">
        <ele>157.451663</ele>
        <time>2020-08-15T06:00:29.612Z</time>
      </trkpt>
      <trkpt lat="37.442277" lon="-5.655139">
        <ele>157.438803</ele>
        <time>2020-08-15T06:00:32.625Z</time>
      </trkpt>
      <trkpt lat="37.442208" lon="-5.655220">
        <ele>157.430058</ele>
        <time>2020-08-15T06:00:34.635Z</time>
      </trkpt>
      <trkpt lat="37.442123" lon="-5.655277">
        <ele>157.421130</ele>
        <time>2020-08-15T06:00:36.632Z</time>
      </trkpt>
      <trkpt lat="37.442054" lon="-5.655384">
        <ele>157.410983</ele>
        <time>2020-08-15T06:00:38.599Z</time>
      </trkpt>
      <trkpt lat="37.441983" lon="-5.655465">
        <ele>157.402101</ele>
        <time>2020-08-15T06:00:40.630Z</time>
      </trkpt>
      <trkpt lat="37.441910" lon="-5.655538">
        <ele>157.393459</ele>
        <time>2020-08-15T06:00:42.628Z</time>
      </trkpt>
      <trkpt lat="37.441813" lon="-5.655606">
        <ele>157.383167</ele>
        <time>2020-08-15T06:00:44.622Z</time>
      </trkpt>
      <trkpt lat="37.441737" lon="-5.655698">
        <ele>157.373394</ele>
        <time>2020-08-15T06:00:46.624Z</time>
      </trkpt>
      <trkpt lat="37.441638" lon="-5.655785">
        <ele>157.362202</ele>
        <time>2020-08-15T06:00:48.625Z</time>
      </trkpt>
      <trkpt lat="37.441562" lon="-5.655896">
        <ele>157.351412</ele>
        <time>2020-08-15T06:00:50.599Z</time>
      </trkpt>
      <trkpt lat="37.441486" lon="-5.655975">
        <ele>157.342276</ele>
        <time>2020-08-15T06:00:52.634Z</time>
      </trkpt>
      <trkpt lat="37.441406" lon="-5.656071">
        <ele>157.332032</ele>
        <time>2020-08-15T06:00:54.613Z</time>
      </trkpt>
      <trkpt lat="37.441329" lon="-5.656160">
        <ele>157.322342</ele>
        <time>2020-08-15T06:00:56.634Z</time>
      </trkpt>
      <trkpt lat="37.441255" lon="-5.656270">
        <ele>157.311729</ele>
        <time>2020-08-15T06:00:58.648Z</time>
      </trkpt>
      <trkpt lat="37.441168" lon="-5.656371">
        <ele>157.299493</ele>
        <time>2020-08-15T06:01:00.617Z</time>
      </trkpt>
      <trkpt lat="37.441079" lon="-5.656462">
        <ele>157.253262</ele>
        <time>2020-08-15T06:01:02.631Z</time>
      </trkpt>
      <trkpt lat="37.441006" lon="-5.656576">
        <ele>157.206368</ele>
        <time>2020-08-15T06:01:04.633Z</time>
      </trkpt>
      <trkpt lat="37.440906" lon="-5.656646">
        <ele>157.160230</ele>
        <time>2020-08-15T06:01:06.620Z</time>
      </trkpt>
      <trkpt lat="37.440833" lon="-5.656750">
        <ele>157.115782</ele>
        <time>2020-08-15T06:01:08.637Z</time>
      </trkpt>
      <trkpt lat="37.440775" lon="-5.656876">
        <ele>157.069147</ele>
        <time>2020-08-15T06:01:10.622Z</time>
      </trkpt>
      <trkpt lat="37.440688" lon="-5.656967">
        <ele>157.023540</ele>
        <time>2020-08-15T06:01:12.614Z</time>
      </trkpt>
      <trkpt lat="37.440605" lon="-5.657066">
        <ele>156.977439</ele>
        <time>2020-08-15T06:01:14.638Z</time>
      </trkpt>
      <trkpt lat="37.440543" lon="-5.657153">
        <ele>156.940007</ele>
        <time>2020-08-15T06:01:16.628Z</time>
      </trkpt>
      <trkpt lat="37.440442" lon="-5.657278">
        <ele>156.882901</ele>
        <time>2020-08-15T06:01:20.640Z</time>
      </trkpt>
      <trkpt lat="37.440369" lon="-5.657358">
        <ele>156.843877</ele>
        <time>2020-08-15T06:01:22.635Z</time>
      </trkpt>
      <trkpt lat="37.440266" lon="-5.657467">
        <ele>156.789623</ele>
        <time>2020-08-15T06:01:24.625Z</time>
      </trkpt>
      <trkpt lat="37.440196" lon="-5.657544">
        <ele>156.752142</ele>
        <time>2020-08-15T06:01:26.639Z</time>
      </trkpt>
      <trkpt lat="37.440128" lon="-5.657645">
        <ele>156.709741</ele>
        <time>2020-08-15T06:01:28.622Z</time>
      </trkpt>
      <trkpt lat="37.440046" lon="-5.657736">
        <ele>156.665666</ele>
        <time>2020-08-15T06:01:32.634Z</time>
      </trkpt>
      <trkpt lat="37.439951" lon="-5.657847">
        <ele>156.613406</ele>
        <time>2020-08-15T06:01:33.625Z</time>
      </trkpt>
      <trkpt lat="37.439881" lon="-5.657931">
        <ele>156.577699</ele>
        <time>2020-08-15T06:01:35.607Z</time>
      </trkpt>
      <trkpt lat="37.439803" lon="-5.658005">
        <ele>156.633122</ele>
        <time>2020-08-15T06:01:37.612Z</time>
      </trkpt>
      <trkpt lat="37.439713" lon="-5.658087">
        <ele>156.696165</ele>
        <time>2020-08-15T06:01:39.638Z</time>
      </trkpt>
      <trkpt lat="37.439637" lon="-5.658160">
        <ele>156.750411</ele>
        <time>2020-08-15T06:01:41.622Z</time>
      </trkpt>
      <trkpt lat="37.439547" lon="-5.658243">
        <ele>156.813719</ele>
        <time>2020-08-15T06:01:44.629Z</time>
      </trkpt>
      <trkpt lat="37.439453" lon="-5.658350">
        <ele>156.885629</ele>
        <time>2020-08-15T06:01:47.632Z</time>
      </trkpt>
      <trkpt lat="37.439366" lon="-5.658439">
        <ele>156.949241</ele>
        <time>2020-08-15T06:01:49.631Z</time>
      </trkpt>
      <trkpt lat="37.439262" lon="-5.658510">
        <ele>157.016379</ele>
        <time>2020-08-15T06:01:51.633Z</time>
      </trkpt>
      <trkpt lat="37.439179" lon="-5.658588">
        <ele>157.075154</ele>
        <time>2020-08-15T06:01:53.627Z</time>
      </trkpt>
      <trkpt lat="37.439078" lon="-5.658706">
        <ele>157.153341</ele>
        <time>2020-08-15T06:01:56.630Z</time>
      </trkpt>
      <trkpt lat="37.438963" lon="-5.658806">
        <ele>157.232654</ele>
        <time>2020-08-15T06:01:58.632Z</time>
      </trkpt>
      <trkpt lat="37.438861" lon="-5.658902">
        <ele>157.304922</ele>
        <time>2020-08-15T06:02:00.627Z</time>
      </trkpt>
      <trkpt lat="37.438780" lon="-5.658979">
        <ele>157.362518</ele>
        <time>2020-08-15T06:02:02.645Z</time>
      </trkpt>
      <trkpt lat="37.438690" lon="-5.659072">
        <ele>157.428590</ele>
        <time>2020-08-15T06:02:04.615Z</time>
      </trkpt>
      <trkpt lat="37.438616" lon="-5.659175">
        <ele>157.491185</ele>
        <time>2020-08-15T06:02:06.622Z</time>
      </trkpt>
      <trkpt lat="37.438537" lon="-5.659237">
        <ele>157.544014</ele>
        <time>2020-08-15T06:02:09.626Z</time>
      </trkpt>
      <trkpt lat="37.438425" lon="-5.659328">
        <ele>157.607115</ele>
        <time>2020-08-15T06:02:11.627Z</time>
      </trkpt>
      <trkpt lat="37.438284" lon="-5.659425">
        <ele>157.648723</ele>
        <time>2020-08-15T06:02:13.612Z</time>
      </trkpt>
      <trkpt lat="37.438192" lon="-5.659509">
        <ele>157.678151</ele>
        <time>2020-08-15T06:02:15.618Z</time>
      </trkpt>
      <trkpt lat="37.438093" lon="-5.659585">
        <ele>157.708177</ele>
        <time>2020-08-15T06:02:17.624Z</time>
      </trkpt>
      <trkpt lat="37.437985" lon="-5.659667">
        <ele>157.740836</ele>
        <time>2020-08-15T06:02:19.612Z</time>
      </trkpt>
      <trkpt lat="37.437886" lon="-5.659754">
        <ele>157.772099</ele>
        <time>2020-08-15T06:02:21.636Z</time>
      </trkpt>
      <trkpt lat="37.437785" lon="-5.659837">
        <ele>157.803331</ele>
        <time>2020-08-15T06:02:23.628Z</time>
      </trkpt>
      <trkpt lat="37.437673" lon="-5.659901">
        <ele>157.835182</ele>
        <time>2020-08-15T06:02:25.626Z</time>
      </trkpt>
      <trkpt lat="37.437559" lon="-5.659990">
        <ele>157.869918</ele>
        <time>2020-08-15T06:02:27.620Z</time>
      </trkpt>
      <trkpt lat="37.437473" lon="-5.660071">
        <ele>157.897729</ele>
        <time>2020-08-15T06:02:29.626Z</time>
      </trkpt>
      <trkpt lat="37.437361" lon="-5.660136">
        <ele>157.929665</ele>
        <time>2020-08-15T06:02:31.621Z</time>
      </trkpt>
      <trkpt lat="37.437281" lon="-5.660206">
        <ele>157.954893</ele>
        <time>2020-08-15T06:02:33.627Z</time>
      </trkpt>
      <trkpt lat="37.437167" lon="-5.660319">
        <ele>157.992464</ele>
        <time>2020-08-15T06:02:36.649Z</time>
      </trkpt>
      <trkpt lat="37.437079" lon="-5.660421">
        <ele>158.023436</ele>
        <time>2020-08-15T06:02:38.634Z</time>
      </trkpt>
      <trkpt lat="37.436980" lon="-5.660513">
        <ele>158.055299</ele>
        <time>2020-08-15T06:02:40.622Z</time>
      </trkpt>
      <trkpt lat="37.436892" lon="-5.660579">
        <ele>157.875082</ele>
        <time>2020-08-15T06:02:42.628Z</time>
      </trkpt>
      <trkpt lat="37.436760" lon="-5.660742">
        <ele>157.413614</ele>
        <time>2020-08-15T06:02:47.632Z</time>
      </trkpt>
      <trkpt lat="37.436706" lon="-5.660906">
        <ele>157.061712</ele>
        <time>2020-08-15T06:02:49.646Z</time>
      </trkpt>
      <trkpt lat="37.436614" lon="-5.660974">
        <ele>156.795428</ele>
        <time>2020-08-15T06:02:51.609Z</time>
      </trkpt>
      <trkpt lat="37.436475" lon="-5.661062">
        <ele>156.407077</ele>
        <time>2020-08-15T06:02:54.599Z</time>
      </trkpt>
      <trkpt lat="37.436396" lon="-5.661134">
        <ele>156.163653</ele>
        <time>2020-08-15T06:02:57.623Z</time>
      </trkpt>
      <trkpt lat="37.436294" lon="-5.661258">
        <ele>155.809764</ele>
        <time>2020-08-15T06:03:01.639Z</time>
      </trkpt>
      <trkpt lat="37.436206" lon="-5.661323">
        <ele>155.555101</ele>
        <time>2020-08-15T06:03:02.634Z</time>
      </trkpt>
      <trkpt lat="37.436109" lon="-5.661402">
        <ele>155.266746</ele>
        <time>2020-08-15T06:03:03.638Z</time>
      </trkpt>
      <trkpt lat="37.436019" lon="-5.661439">
        <ele>155.030417</ele>
        <time>2020-08-15T06:03:05.605Z</time>
      </trkpt>
      <trkpt lat="37.435922" lon="-5.661450">
        <ele>154.787302</ele>
        <time>2020-08-15T06:03:06.628Z</time>
      </trkpt>
      <trkpt lat="37.435887" lon="-5.661571">
        <ele>154.532050</ele>
        <time>2020-08-15T06:03:09.638Z</time>
      </trkpt>
      <trkpt lat="37.435850" lon="-5.661676">
        <ele>154.304355</ele>
        <time>2020-08-15T06:03:11.621Z</time>
      </trkpt>
      <trkpt lat="37.435681" lon="-5.661797">
        <ele>153.819081</ele>
        <time>2020-08-15T06:03:14.632Z</time>
      </trkpt>
      <trkpt lat="37.435537" lon="-5.661885">
        <ele>153.477089</ele>
        <time>2020-08-15T06:03:15.596Z</time>
      </trkpt>
      <trkpt lat="37.435436" lon="-5.661942">
        <ele>153.304731</ele>
        <time>2020-08-15T06:03:17.619Z</time>
      </trkpt>
      <trkpt lat="37.435362" lon="-5.662047">
        <ele>153.131127</ele>
        <time>2020-08-15T06:03:19.610Z</time>
      </trkpt>
      <trkpt lat="37.435276" lon="-5.662126">
        <ele>152.965357</ele>
        <time>2020-08-15T06:03:21.624Z</time>
      </trkpt>
      <trkpt lat="37.435194" lon="-5.662193">
        <ele>152.813137</ele>
        <time>2020-08-15T06:03:23.624Z</time>
      </trkpt>
      <trkpt lat="37.435100" lon="-5.662275">
        <ele>152.635062</ele>
        <time>2020-08-15T06:03:25.610Z</time>
      </trkpt>
      <trkpt lat="37.435007" lon="-5.662351">
        <ele>152.462414</ele>
        <time>2020-08-15T06:03:27.639Z</time>
      </trkpt>
      <trkpt lat="37.434915" lon="-5.662427">
        <ele>152.291069</ele>
        <time>2020-08-15T06:03:29.632Z</time>
      </trkpt>
      <trkpt lat="37.434836" lon="-5.662521">
        <ele>152.121816</ele>
        <time>2020-08-15T06:03:31.629Z</time>
      </trkpt>
      <trkpt lat="37.434735" lon="-5.662592">
        <ele>151.941684</ele>
        <time>2020-08-15T06:03:33.632Z</time>
      </trkpt>
      <trkpt lat="37.434657" lon="-5.662672">
        <ele>151.785028</ele>
        <time>2020-08-15T06:03:35.610Z</time>
      </trkpt>
      <trkpt lat="37.434566" lon="-5.662725">
        <ele>151.628892</ele>
        <time>2020-08-15T06:03:38.612Z</time>
      </trkpt>
      <trkpt lat="37.434447" lon="-5.662806">
        <ele>151.418237</ele>
        <time>2020-08-15T06:03:42.637Z</time>
      </trkpt>
      <trkpt lat="37.434363" lon="-5.662882">
        <ele>151.257165</ele>
        <time>2020-08-15T06:03:43.629Z</time>
      </trkpt>
      <trkpt lat="37.434237" lon="-5.662976">
        <ele>151.029100</ele>
        <time>2020-08-15T06:03:44.607Z</time>
      </trkpt>
      <trkpt lat="37.434157" lon="-5.663046">
        <ele>150.877396</ele>
        <time>2020-08-15T06:03:46.594Z</time>
      </trkpt>
      <trkpt lat="37.434066" lon="-5.663142">
        <ele>150.802729</ele>
        <time>2020-08-15T06:03:48.629Z</time>
      </trkpt>
      <trkpt lat="37.433975" lon="-5.663200">
        <ele>150.865506</ele>
        <time>2020-08-15T06:03:50.618Z</time>
      </trkpt>
      <trkpt lat="37.433894" lon="-5.663289">
        <ele>150.931671</ele>
        <time>2020-08-15T06:03:52.632Z</time>
      </trkpt>
      <trkpt lat="37.433798" lon="-5.663353">
        <ele>150.998529</ele>
        <time>2020-08-15T06:03:54.638Z</time>
      </trkpt>
      <trkpt lat="37.433704" lon="-5.663437">
        <ele>151.069474</ele>
        <time>2020-08-15T06:03:56.647Z</time>
      </trkpt>
      <trkpt lat="37.433618" lon="-5.663508">
        <ele>151.132769</ele>
        <time>2020-08-15T06:03:58.627Z</time>
      </trkpt>
      <trkpt lat="37.433548" lon="-5.663601">
        <ele>151.195399</ele>
        <time>2020-08-15T06:04:00.633Z</time>
      </trkpt>
      <trkpt lat="37.433459" lon="-5.663673">
        <ele>151.260509</ele>
        <time>2020-08-15T06:04:02.630Z</time>
      </trkpt>
      <trkpt lat="37.433377" lon="-5.663738">
        <ele>151.320148</ele>
        <time>2020-08-15T06:04:04.604Z</time>
      </trkpt>
      <trkpt lat="37.433304" lon="-5.663814">
        <ele>151.378446</ele>
        <time>2020-08-15T06:04:06.616Z</time>
      </trkpt>
      <trkpt lat="37.433210" lon="-5.663876">
        <ele>151.443760</ele>
        <time>2020-08-15T06:04:08.625Z</time>
      </trkpt>
      <trkpt lat="37.433141" lon="-5.663955">
        <ele>151.501159</ele>
        <time>2020-08-15T06:04:10.634Z</time>
      </trkpt>
      <trkpt lat="37.433050" lon="-5.664028">
        <ele>151.567570</ele>
        <time>2020-08-15T06:04:12.628Z</time>
      </trkpt>
      <trkpt lat="37.432970" lon="-5.664087">
        <ele>151.624633</ele>
        <time>2020-08-15T06:04:14.614Z</time>
      </trkpt>
      <trkpt lat="37.432890" lon="-5.664157">
        <ele>151.684594</ele>
        <time>2020-08-15T06:04:16.604Z</time>
      </trkpt>
      <trkpt lat="37.432814" lon="-5.664236">
        <ele>151.745250</ele>
        <time>2020-08-15T06:04:18.609Z</time>
      </trkpt>
      <trkpt lat="37.432736" lon="-5.664301">
        <ele>151.802820</ele>
        <time>2020-08-15T06:04:20.625Z</time>
      </trkpt>
      <trkpt lat="37.432658" lon="-5.664375">
        <ele>151.862929</ele>
        <time>2020-08-15T06:04:22.626Z</time>
      </trkpt>
      <trkpt lat="37.432586" lon="-5.664447">
        <ele>151.826231</ele>
        <time>2020-08-15T06:04:24.628Z</time>
      </trkpt>
      <trkpt lat="37.432512" lon="-5.664525">
        <ele>151.750192</ele>
        <time>2020-08-15T06:04:26.646Z</time>
      </trkpt>
      <trkpt lat="37.432436" lon="-5.664592">
        <ele>151.677091</ele>
        <time>2020-08-15T06:04:28.631Z</time>
      </trkpt>
      <trkpt lat="37.432333" lon="-5.664688">
        <ele>151.576121</ele>
        <time>2020-08-15T06:04:31.627Z</time>
      </trkpt>
      <trkpt lat="37.432220" lon="-5.664783">
        <ele>151.469062</ele>
        <time>2020-08-15T06:04:34.605Z</time>
      </trkpt>
      <trkpt lat="37.432106" lon="-5.664874">
        <ele>151.362709</ele>
        <time>2020-08-15T06:04:37.618Z</time>
      </trkpt>
      <trkpt lat="37.432005" lon="-5.664967">
        <ele>151.264119</ele>
        <time>2020-08-15T06:04:40.606Z</time>
      </trkpt>
      <trkpt lat="37.431912" lon="-5.665051">
        <ele>151.173939</ele>
        <time>2020-08-15T06:04:43.619Z</time>
      </trkpt>
      <trkpt lat="37.431830" lon="-5.665104">
        <ele>151.101312</ele>
        <time>2020-08-15T06:04:45.620Z</time>
      </trkpt>
      <trkpt lat="37.431721" lon="-5.665195">
        <ele>150.998264</ele>
        <time>2020-08-15T06:04:48.609Z</time>
      </trkpt>
      <trkpt lat="37.431653" lon="-5.665291">
        <ele>150.917771</ele>
        <time>2020-08-15T06:04:50.617Z</time>
      </trkpt>
      <trkpt lat="37.431580" lon="-5.665362">
        <ele>150.845092</ele>
        <time>2020-08-15T06:04:53.594Z</time>
      </trkpt>
      <trkpt lat="37.431471" lon="-5.665450">
        <ele>150.743069</ele>
        <time>2020-08-15T06:04:55.610Z</time>
      </trkpt>
      <trkpt lat="37.431341" lon="-5.665553">
        <ele>150.622046</ele>
        <time>2020-08-15T06:04:57.628Z</time>
      </trkpt>
      <trkpt lat="37.431230" lon="-5.665638">
        <ele>150.519680</ele>
        <time>2020-08-15T06:05:00.618Z</time>
      </trkpt>
      <trkpt lat="37.431134" lon="-5.665695">
        <ele>150.448709</ele>
        <time>2020-08-15T06:05:02.634Z</time>
      </trkpt>
      <trkpt lat="37.431031" lon="-5.665791">
        <ele>150.398286</ele>
        <time>2020-08-15T06:05:05.627Z</time>
      </trkpt>
      <trkpt lat="37.430938" lon="-5.665880">
        <ele>150.352323</ele>
        <time>2020-08-15T06:05:07.639Z</time>
      </trkpt>
      <trkpt lat="37.430842" lon="-5.665990">
        <ele>150.301251</ele>
        <time>2020-08-15T06:05:10.632Z</time>
      </trkpt>
      <trkpt lat="37.430736" lon="-5.666100">
        <ele>150.247203</ele>
        <time>2020-08-15T06:05:13.618Z</time>
      </trkpt>
      <trkpt lat="37.430653" lon="-5.666173">
        <ele>150.207366</ele>
        <time>2020-08-15T06:05:15.607Z</time>
      </trkpt>
      <trkpt lat="37.430568" lon="-5.666253">
        <ele>150.165610</ele>
        <time>2020-08-15T06:05:17.640Z</time>
      </trkpt>
      <trkpt lat="37.430477" lon="-5.666330">
        <ele>150.122470</ele>
        <time>2020-08-15T06:05:19.631Z</time>
      </trkpt>
      <trkpt lat="37.430381" lon="-5.666406">
        <ele>150.077850</ele>
        <time>2020-08-15T06:05:21.613Z</time>
      </trkpt>
      <trkpt lat="37.430284" lon="-5.666491">
        <ele>150.031350</ele>
        <time>2020-08-15T06:05:23.628Z</time>
      </trkpt>
      <trkpt lat="37.430197" lon="-5.666559">
        <ele>149.991058</ele>
        <time>2020-08-15T06:05:25.610Z</time>
      </trkpt>
      <trkpt lat="37.430090" lon="-5.666629">
        <ele>149.943611</ele>
        <time>2020-08-15T06:05:27.604Z</time>
      </trkpt>
      <trkpt lat="37.429989" lon="-5.666695">
        <ele>149.898836</ele>
        <time>2020-08-15T06:05:29.625Z</time>
      </trkpt>
      <trkpt lat="37.429918" lon="-5.666765">
        <ele>149.863354</ele>
        <time>2020-08-15T06:05:31.625Z</time>
      </trkpt>
      <trkpt lat="37.429838" lon="-5.666865">
        <ele>149.819000</ele>
        <time>2020-08-15T06:05:33.610Z</time>
      </trkpt>
      <trkpt lat="37.429749" lon="-5.666966">
        <ele>149.771856</ele>
        <time>2020-08-15T06:05:35.607Z</time>
      </trkpt>
      <trkpt lat="37.429661" lon="-5.667031">
        <ele>149.707008</ele>
        <time>2020-08-15T06:05:37.634Z</time>
      </trkpt>
      <trkpt lat="37.429575" lon="-5.667118">
        <ele>149.614571</ele>
        <time>2020-08-15T06:05:39.612Z</time>
      </trkpt>
      <trkpt lat="37.429494" lon="-5.667196">
        <ele>149.529126</ele>
        <time>2020-08-15T06:05:41.610Z</time>
      </trkpt>
      <trkpt lat="37.429392" lon="-5.667271">
        <ele>149.430151</ele>
        <time>2020-08-15T06:05:43.627Z</time>
      </trkpt>
      <trkpt lat="37.429303" lon="-5.667344">
        <ele>149.341148</ele>
        <time>2020-08-15T06:05:45.613Z</time>
      </trkpt>
      <trkpt lat="37.429215" lon="-5.667437">
        <ele>149.244881</ele>
        <time>2020-08-15T06:05:47.626Z</time>
      </trkpt>
      <trkpt lat="37.429146" lon="-5.667539">
        <ele>149.155719</ele>
        <time>2020-08-15T06:05:49.610Z</time>
      </trkpt>
      <trkpt lat="37.429044" lon="-5.667621">
        <ele>149.054316</ele>
        <time>2020-08-15T06:05:51.607Z</time>
      </trkpt>
      <trkpt lat="37.428943" lon="-5.667690">
        <ele>148.958030</ele>
        <time>2020-08-15T06:05:53.605Z</time>
      </trkpt>
      <trkpt lat="37.428852" lon="-5.667791">
        <ele>148.856385</ele>
        <time>2020-08-15T06:05:55.621Z</time>
      </trkpt>
      <trkpt lat="37.428776" lon="-5.667876">
        <ele>148.771210</ele>
        <time>2020-08-15T06:05:57.608Z</time>
      </trkpt>
      <trkpt lat="37.428679" lon="-5.667946">
        <ele>148.677527</ele>
        <time>2020-08-15T06:05:59.609Z</time>
      </trkpt>
      <trkpt lat="37.428581" lon="-5.668016">
        <ele>148.583117</ele>
        <time>2020-08-15T06:06:01.627Z</time>
      </trkpt>
      <trkpt lat="37.428483" lon="-5.668099">
        <ele>148.484152</ele>
        <time>2020-08-15T06:06:03.609Z</time>
      </trkpt>
      <trkpt lat="37.428403" lon="-5.668164">
        <ele>148.404373</ele>
        <time>2020-08-15T06:06:05.615Z</time>
      </trkpt>
      <trkpt lat="37.428330" lon="-5.668244">
        <ele>148.323281</ele>
        <time>2020-08-15T06:06:08.596Z</time>
      </trkpt>
      <trkpt lat="37.428258" lon="-5.668324">
        <ele>148.248281</ele>
        <time>2020-08-15T06:06:10.637Z</time>
      </trkpt>
      <trkpt lat="37.428114" lon="-5.668412">
        <ele>148.318757</ele>
        <time>2020-08-15T06:06:13.648Z</time>
      </trkpt>
      <trkpt lat="37.428037" lon="-5.668484">
        <ele>148.360986</ele>
        <time>2020-08-15T06:06:15.617Z</time>
      </trkpt>
      <trkpt lat="37.427950" lon="-5.668532">
        <ele>148.402808</ele>
        <time>2020-08-15T06:06:17.629Z</time>
      </trkpt>
      <trkpt lat="37.427861" lon="-5.668598">
        <ele>148.448286</ele>
        <time>2020-08-15T06:06:20.632Z</time>
      </trkpt>
      <trkpt lat="37.427765" lon="-5.668673">
        <ele>148.498030</ele>
        <time>2020-08-15T06:06:23.637Z</time>
      </trkpt>
      <trkpt lat="37.427663" lon="-5.668759">
        <ele>148.552078</ele>
        <time>2020-08-15T06:06:26.635Z</time>
      </trkpt>
      <trkpt lat="37.427569" lon="-5.668823">
        <ele>148.599130</ele>
        <time>2020-08-15T06:06:31.614Z</time>
      </trkpt>
      <trkpt lat="37.427490" lon="-5.668913">
        <ele>148.646037</ele>
        <time>2020-08-15T06:06:36.640Z</time>
      </trkpt>
      <trkpt lat="37.427414" lon="-5.668975">
        <ele>148.685909</ele>
        <time>2020-08-15T06:06:39.642Z</time>
      </trkpt>
      <trkpt lat="37.427324" lon="-5.669044">
        <ele>148.732303</ele>
        <time>2020-08-15T06:06:42.622Z</time>
      </trkpt>
      <trkpt lat="37.427246" lon="-5.669104">
        <ele>148.772548</ele>
        <time>2020-08-15T06:06:44.631Z</time>
      </trkpt>
      <trkpt lat="37.427147" lon="-5.669205">
        <ele>148.828649</ele>
        <time>2020-08-15T06:06:47.602Z</time>
      </trkpt>
      <trkpt lat="37.427049" lon="-5.669295">
        <ele>148.882056</ele>
        <time>2020-08-15T06:06:50.632Z</time>
      </trkpt>
      <trkpt lat="37.426959" lon="-5.669375">
        <ele>148.930562</ele>
        <time>2020-08-15T06:06:52.628Z</time>
      </trkpt>
      <trkpt lat="37.426855" lon="-5.669473">
        <ele>148.987756</ele>
        <time>2020-08-15T06:06:55.642Z</time>
      </trkpt>
      <trkpt lat="37.426751" lon="-5.669579">
        <ele>149.016179</ele>
        <time>2020-08-15T06:06:58.635Z</time>
      </trkpt>
      <trkpt lat="37.426666" lon="-5.669648">
        <ele>148.897338</ele>
        <time>2020-08-15T06:07:00.631Z</time>
      </trkpt>
      <trkpt lat="37.426583" lon="-5.669718">
        <ele>148.779950</ele>
        <time>2020-08-15T06:07:02.621Z</time>
      </trkpt>
      <trkpt lat="37.426504" lon="-5.669787">
        <ele>148.666971</ele>
        <time>2020-08-15T06:07:04.635Z</time>
      </trkpt>
      <trkpt lat="37.426422" lon="-5.669864">
        <ele>148.546770</ele>
        <time>2020-08-15T06:07:06.613Z</time>
      </trkpt>
      <trkpt lat="37.426334" lon="-5.669941">
        <ele>148.420846</ele>
        <time>2020-08-15T06:07:08.628Z</time>
      </trkpt>
      <trkpt lat="37.426255" lon="-5.670023">
        <ele>148.300539</ele>
        <time>2020-08-15T06:07:10.615Z</time>
      </trkpt>
      <trkpt lat="37.426161" lon="-5.670114">
        <ele>148.161208</ele>
        <time>2020-08-15T06:07:12.626Z</time>
      </trkpt>
      <trkpt lat="37.426066" lon="-5.670220">
        <ele>148.012052</ele>
        <time>2020-08-15T06:07:14.633Z</time>
      </trkpt>
      <trkpt lat="37.425973" lon="-5.670301">
        <ele>147.879172</ele>
        <time>2020-08-15T06:07:16.604Z</time>
      </trkpt>
      <trkpt lat="37.425883" lon="-5.670393">
        <ele>147.742951</ele>
        <time>2020-08-15T06:07:18.602Z</time>
      </trkpt>
      <trkpt lat="37.425800" lon="-5.670467">
        <ele>147.623444</ele>
        <time>2020-08-15T06:07:20.628Z</time>
      </trkpt>
      <trkpt lat="37.425697" lon="-5.670551">
        <ele>147.479241</ele>
        <time>2020-08-15T06:07:22.601Z</time>
      </trkpt>
      <trkpt lat="37.425569" lon="-5.670656">
        <ele>147.299725</ele>
        <time>2020-08-15T06:07:24.632Z</time>
      </trkpt>
      <trkpt lat="37.425471" lon="-5.670728">
        <ele>147.166396</ele>
        <time>2020-08-15T06:07:26.628Z</time>
      </trkpt>
      <trkpt lat="37.425393" lon="-5.670801">
        <ele>147.052194</ele>
        <time>2020-08-15T06:07:28.608Z</time>
      </trkpt>
      <trkpt lat="37.425285" lon="-5.670876">
        <ele>146.911279</ele>
        <time>2020-08-15T06:07:30.641Z</time>
      </trkpt>
      <trkpt lat="37.425184" lon="-5.670942">
        <ele>146.808274</ele>
        <time>2020-08-15T06:07:32.624Z</time>
      </trkpt>
      <trkpt lat="37.425099" lon="-5.671033">
        <ele>146.707281</ele>
        <time>2020-08-15T06:07:34.613Z</time>
      </trkpt>
      <trkpt lat="37.425011" lon="-5.671096">
        <ele>146.615647</ele>
        <time>2020-08-15T06:07:36.612Z</time>
      </trkpt>
      <trkpt lat="37.424934" lon="-5.671166">
        <ele>146.529679</ele>
        <time>2020-08-15T06:07:38.604Z</time>
      </trkpt>
      <trkpt lat="37.424838" lon="-5.671236">
        <ele>146.429260</ele>
        <time>2020-08-15T06:07:40.625Z</time>
      </trkpt>
      <trkpt lat="37.424749" lon="-5.671312">
        <ele>146.331918</ele>
        <time>2020-08-15T06:07:42.624Z</time>
      </trkpt>
      <trkpt lat="37.424656" lon="-5.671400">
        <ele>146.226613</ele>
        <time>2020-08-15T06:07:44.630Z</time>
      </trkpt>
      <trkpt lat="37.424574" lon="-5.671476">
        <ele>146.134446</ele>
        <time>2020-08-15T06:07:46.609Z</time>
      </trkpt>
      <trkpt lat="37.424486" lon="-5.671561">
        <ele>146.034051</ele>
        <time>2020-08-15T06:07:48.628Z</time>
      </trkpt>
      <trkpt lat="37.424411" lon="-5.671626">
        <ele>145.951633</ele>
        <time>2020-08-15T06:07:50.626Z</time>
      </trkpt>
      <trkpt lat="37.424284" lon="-5.671722">
        <ele>145.817547</ele>
        <time>2020-08-15T06:07:53.624Z</time>
      </trkpt>
      <trkpt lat="37.424197" lon="-5.671794">
        <ele>145.723307</ele>
        <time>2020-08-15T06:07:55.633Z</time>
      </trkpt>
      <trkpt lat="37.424109" lon="-5.671849">
        <ele>145.634375</ele>
        <time>2020-08-15T06:07:57.633Z</time>
      </trkpt>
      <trkpt lat="37.424007" lon="-5.671964">
        <ele>145.510441</ele>
        <time>2020-08-15T06:08:00.625Z</time>
      </trkpt>
      <trkpt lat="37.423926" lon="-5.672028">
        <ele>145.423879</ele>
        <time>2020-08-15T06:08:02.623Z</time>
      </trkpt>
      <trkpt lat="37.423850" lon="-5.672101">
        <ele>145.337351</ele>
        <time>2020-08-15T06:08:04.620Z</time>
      </trkpt>
      <trkpt lat="37.423749" lon="-5.672164">
        <ele>145.356669</ele>
        <time>2020-08-15T06:08:06.620Z</time>
      </trkpt>
      <trkpt lat="37.423671" lon="-5.672255">
        <ele>145.451042</ele>
        <time>2020-08-15T06:08:08.626Z</time>
      </trkpt>
      <trkpt lat="37.423580" lon="-5.672322">
        <ele>145.544599</ele>
        <time>2020-08-15T06:08:10.624Z</time>
      </trkpt>
      <trkpt lat="37.423499" lon="-5.672380">
        <ele>145.627298</ele>
        <time>2020-08-15T06:08:12.628Z</time>
      </trkpt>
      <trkpt lat="37.423422" lon="-5.672456">
        <ele>145.714130</ele>
        <time>2020-08-15T06:08:14.611Z</time>
      </trkpt>
      <trkpt lat="37.423339" lon="-5.672514">
        <ele>145.798377</ele>
        <time>2020-08-15T06:08:16.629Z</time>
      </trkpt>
      <trkpt lat="37.423236" lon="-5.672626">
        <ele>145.919160</ele>
        <time>2020-08-15T06:08:19.629Z</time>
      </trkpt>
      <trkpt lat="37.423163" lon="-5.672700">
        <ele>146.002334</ele>
        <time>2020-08-15T06:08:21.632Z</time>
      </trkpt>
      <trkpt lat="37.423089" lon="-5.672770">
        <ele>146.084479</ele>
        <time>2020-08-15T06:08:23.627Z</time>
      </trkpt>
      <trkpt lat="37.423008" lon="-5.672841">
        <ele>146.172071</ele>
        <time>2020-08-15T06:08:25.619Z</time>
      </trkpt>
      <trkpt lat="37.422937" lon="-5.672915">
        <ele>146.253871</ele>
        <time>2020-08-15T06:08:27.625Z</time>
      </trkpt>
      <trkpt lat="37.422820" lon="-5.673024">
        <ele>146.383042</ele>
        <time>2020-08-15T06:08:30.603Z</time>
      </trkpt>
      <trkpt lat="37.422725" lon="-5.673082">
        <ele>146.476744</ele>
        <time>2020-08-15T06:08:32.628Z</time>
      </trkpt>
      <trkpt lat="37.422627" lon="-5.673146">
        <ele>146.574723</ele>
        <time>2020-08-15T06:08:34.643Z</time>
      </trkpt>
      <trkpt lat="37.422532" lon="-5.673223">
        <ele>146.674995</ele>
        <time>2020-08-15T06:08:36.647Z</time>
      </trkpt>
      <trkpt lat="37.422446" lon="-5.673342">
        <ele>146.788401</ele>
        <time>2020-08-15T06:08:39.607Z</time>
      </trkpt>
      <trkpt lat="37.422370" lon="-5.673416">
        <ele>146.873667</ele>
        <time>2020-08-15T06:08:41.632Z</time>
      </trkpt>
      <trkpt lat="37.422293" lon="-5.673479">
        <ele>146.960477</ele>
        <time>2020-08-15T06:08:43.626Z</time>
      </trkpt>
      <trkpt lat="37.422189" lon="-5.673597">
        <ele>147.095327</ele>
        <time>2020-08-15T06:08:46.632Z</time>
      </trkpt>
      <trkpt lat="37.422112" lon="-5.673658">
        <ele>147.182956</ele>
        <time>2020-08-15T06:08:48.629Z</time>
      </trkpt>
      <trkpt lat="37.421998" lon="-5.673740">
        <ele>147.309422</ele>
        <time>2020-08-15T06:08:51.633Z</time>
      </trkpt>
      <trkpt lat="37.421903" lon="-5.673829">
        <ele>147.423481</ele>
        <time>2020-08-15T06:08:54.627Z</time>
      </trkpt>
      <trkpt lat="37.421802" lon="-5.673914">
        <ele>147.540500</ele>
        <time>2020-08-15T06:08:57.630Z</time>
      </trkpt>
      <trkpt lat="37.421690" lon="-5.674006">
        <ele>147.669311</ele>
        <time>2020-08-15T06:09:00.639Z</time>
      </trkpt>
      <trkpt lat="37.421584" lon="-5.674086">
        <ele>147.788353</ele>
        <time>2020-08-15T06:09:03.644Z</time>
      </trkpt>
      <trkpt lat="37.421481" lon="-5.674171">
        <ele>147.906979</ele>
        <time>2020-08-15T06:09:06.633Z</time>
      </trkpt>
      <trkpt lat="37.421383" lon="-5.674265">
        <ele>148.025648</ele>
        <time>2020-08-15T06:09:09.638Z</time>
      </trkpt>
      <trkpt lat="37.421285" lon="-5.674363">
        <ele>148.146196</ele>
        <time>2020-08-15T06:09:12.647Z</time>
      </trkpt>
      <trkpt lat="37.421189" lon="-5.674448">
        <ele>148.259242</ele>
        <time>2020-08-15T06:09:15.632Z</time>
      </trkpt>
      <trkpt lat="37.421092" lon="-5.674533">
        <ele>148.373078</ele>
        <time>2020-08-15T06:09:18.591Z</time>
      </trkpt>
      <trkpt lat="37.420951" lon="-5.674603">
        <ele>148.519073</ele>
        <time>2020-08-15T06:09:21.616Z</time>
      </trkpt>
      <trkpt lat="37.420880" lon="-5.674713">
        <ele>148.626508</ele>
        <time>2020-08-15T06:09:24.604Z</time>
      </trkpt>
      <trkpt lat="37.420783" lon="-5.674768">
        <ele>148.678490</ele>
        <time>2020-08-15T06:09:26.627Z</time>
      </trkpt>
      <trkpt lat="37.420694" lon="-5.674879">
        <ele>148.739701</ele>
        <time>2020-08-15T06:09:29.615Z</time>
      </trkpt>
      <trkpt lat="37.420611" lon="-5.674929">
        <ele>148.784661</ele>
        <time>2020-08-15T06:09:31.623Z</time>
      </trkpt>
      <trkpt lat="37.420522" lon="-5.674963">
        <ele>148.830107</ele>
        <time>2020-08-15T06:09:33.627Z</time>
      </trkpt>
      <trkpt lat="37.420441" lon="-5.675021">
        <ele>148.875639</ele>
        <time>2020-08-15T06:09:35.615Z</time>
      </trkpt>
      <trkpt lat="37.420336" lon="-5.675116">
        <ele>148.938818</ele>
        <time>2020-08-15T06:09:38.628Z</time>
      </trkpt>
      <trkpt lat="37.420234" lon="-5.675221">
        <ele>149.003196</ele>
        <time>2020-08-15T06:09:41.604Z</time>
      </trkpt>
      <trkpt lat="37.420123" lon="-5.675297">
        <ele>149.064935</ele>
        <time>2020-08-15T06:09:44.630Z</time>
      </trkpt>
      <trkpt lat="37.420018" lon="-5.675393">
        <ele>149.128341</ele>
        <time>2020-08-15T06:09:47.633Z</time>
      </trkpt>
      <trkpt lat="37.419919" lon="-5.675485">
        <ele>149.188465</ele>
        <time>2020-08-15T06:09:50.627Z</time>
      </trkpt>
      <trkpt lat="37.419822" lon="-5.675571">
        <ele>149.246434</ele>
        <time>2020-08-15T06:09:53.604Z</time>
      </trkpt>
      <trkpt lat="37.419731" lon="-5.675660">
        <ele>149.302738</ele>
        <time>2020-08-15T06:09:56.623Z</time>
      </trkpt>
      <trkpt lat="37.419636" lon="-5.675742">
        <ele>149.359018</ele>
        <time>2020-08-15T06:09:59.614Z</time>
      </trkpt>
      <trkpt lat="37.419546" lon="-5.675840">
        <ele>149.417160</ele>
        <time>2020-08-15T06:10:02.638Z</time>
      </trkpt>
      <trkpt lat="37.419466" lon="-5.675950">
        <ele>149.475043</ele>
        <time>2020-08-15T06:10:05.615Z</time>
      </trkpt>
      <trkpt lat="37.419362" lon="-5.676048">
        <ele>149.475496</ele>
        <time>2020-08-15T06:10:08.628Z</time>
      </trkpt>
      <trkpt lat="37.419265" lon="-5.676122">
        <ele>149.428668</ele>
        <time>2020-08-15T06:10:11.629Z</time>
      </trkpt>
      <trkpt lat="37.419163" lon="-5.676203">
        <ele>149.378876</ele>
        <time>2020-08-15T06:10:14.641Z</time>
      </trkpt>
      <trkpt lat="37.419090" lon="-5.676275">
        <ele>149.340588</ele>
        <time>2020-08-15T06:10:16.623Z</time>
      </trkpt>
      <trkpt lat="37.419017" lon="-5.676343">
        <ele>149.303095</ele>
        <time>2020-08-15T06:10:18.617Z</time>
      </trkpt>
      <trkpt lat="37.418933" lon="-5.676410">
        <ele>149.262039</ele>
        <time>2020-08-15T06:10:20.613Z</time>
      </trkpt>
      <trkpt lat="37.418860" lon="-5.676488">
        <ele>149.222508</ele>
        <time>2020-08-15T06:10:22.626Z</time>
      </trkpt>
      <trkpt lat="37.418766" lon="-5.676564">
        <ele>149.176383</ele>
        <time>2020-08-15T06:10:24.662Z</time>
      </trkpt>
      <trkpt lat="37.418672" lon="-5.676632">
        <ele>149.131621</ele>
        <time>2020-08-15T06:10:26.637Z</time>
      </trkpt>
      <trkpt lat="37.418575" lon="-5.676724">
        <ele>149.081479</ele>
        <time>2020-08-15T06:10:28.647Z</time>
      </trkpt>
      <trkpt lat="37.418475" lon="-5.676802">
        <ele>149.032909</ele>
        <time>2020-08-15T06:10:30.629Z</time>
      </trkpt>
      <trkpt lat="37.418366" lon="-5.676882">
        <ele>148.980816</ele>
        <time>2020-08-15T06:10:32.628Z</time>
      </trkpt>
      <trkpt lat="37.418267" lon="-5.676974">
        <ele>148.930012</ele>
        <time>2020-08-15T06:10:34.637Z</time>
      </trkpt>
      <trkpt lat="37.418149" lon="-5.677053">
        <ele>148.874831</ele>
        <time>2020-08-15T06:10:36.629Z</time>
      </trkpt>
      <trkpt lat="37.418054" lon="-5.677143">
        <ele>148.825743</ele>
        <time>2020-08-15T06:10:38.621Z</time>
      </trkpt>
      <trkpt lat="37.417939" lon="-5.677233">
        <ele>148.769835</ele>
        <time>2020-08-15T06:10:40.609Z</time>
      </trkpt>
      <trkpt lat="37.417841" lon="-5.677335">
        <ele>148.670978</ele>
        <time>2020-08-15T06:10:42.613Z</time>
      </trkpt>
      <trkpt lat="37.417731" lon="-5.677440">
        <ele>148.554441</ele>
        <time>2020-08-15T06:10:44.611Z</time>
      </trkpt>
      <trkpt lat="37.417666" lon="-5.677532">
        <ele>148.471878</ele>
        <time>2020-08-15T06:10:46.628Z</time>
      </trkpt>
      <trkpt lat="37.417560" lon="-5.677626">
        <ele>148.362421</ele>
        <time>2020-08-15T06:10:48.640Z</time>
      </trkpt>
      <trkpt lat="37.417445" lon="-5.677716">
        <ele>148.248107</ele>
        <time>2020-08-15T06:10:50.626Z</time>
      </trkpt>
      <trkpt lat="37.417319" lon="-5.677806">
        <ele>148.125808</ele>
        <time>2020-08-15T06:10:52.634Z</time>
      </trkpt>
      <trkpt lat="37.417216" lon="-5.677924">
        <ele>148.008243</ele>
        <time>2020-08-15T06:10:54.628Z</time>
      </trkpt>
      <trkpt lat="37.417124" lon="-5.677997">
        <ele>147.916437</ele>
        <time>2020-08-15T06:10:56.647Z</time>
      </trkpt>
      <trkpt lat="37.417048" lon="-5.678068">
        <ele>147.836542</ele>
        <time>2020-08-15T06:10:58.623Z</time>
      </trkpt>
      <trkpt lat="37.416958" lon="-5.678130">
        <ele>147.749931</ele>
        <time>2020-08-15T06:11:00.619Z</time>
      </trkpt>
      <trkpt lat="37.416879" lon="-5.678185">
        <ele>147.673720</ele>
        <time>2020-08-15T06:11:02.644Z</time>
      </trkpt>
      <trkpt lat="37.416786" lon="-5.678232">
        <ele>147.589117</ele>
        <time>2020-08-15T06:11:06.612Z</time>
      </trkpt>
      <trkpt lat="37.416700" lon="-5.678281">
        <ele>147.509425</ele>
        <time>2020-08-15T06:11:12.609Z</time>
      </trkpt>
      <trkpt lat="37.416651" lon="-5.678389">
        <ele>147.426025</ele>
        <time>2020-08-15T06:11:23.610Z</time>
      </trkpt>
      <trkpt lat="37.416557" lon="-5.678459">
        <ele>147.333826</ele>
        <time>2020-08-15T06:11:29.614Z</time>
      </trkpt>
      <trkpt lat="37.416474" lon="-5.678532">
        <ele>147.248351</ele>
        <time>2020-08-15T06:11:33.608Z</time>
      </trkpt>
      <trkpt lat="37.416403" lon="-5.678606">
        <ele>147.263356</ele>
        <time>2020-08-15T06:11:37.634Z</time>
      </trkpt>
      <trkpt lat="37.416331" lon="-5.678676">
        <ele>147.284614</ele>
        <time>2020-08-15T06:11:40.636Z</time>
      </trkpt>
      <trkpt lat="37.416257" lon="-5.678763">
        <ele>147.308273</ele>
        <time>2020-08-15T06:11:43.634Z</time>
      </trkpt>
      <trkpt lat="37.416167" lon="-5.678831">
        <ele>147.332801</ele>
        <time>2020-08-15T06:11:46.620Z</time>
      </trkpt>
      <trkpt lat="37.416057" lon="-5.678874">
        <ele>147.359717</ele>
        <time>2020-08-15T06:11:49.603Z</time>
      </trkpt>
      <trkpt lat="37.415951" lon="-5.678954">
        <ele>147.388597</ele>
        <time>2020-08-15T06:11:52.624Z</time>
      </trkpt>
      <trkpt lat="37.415846" lon="-5.679049">
        <ele>147.418812</ele>
        <time>2020-08-15T06:11:55.622Z</time>
      </trkpt>
      <trkpt lat="37.415745" lon="-5.679147">
        <ele>147.448609</ele>
        <time>2020-08-15T06:11:58.631Z</time>
      </trkpt>
      <trkpt lat="37.415643" lon="-5.679244">
        <ele>147.478480</ele>
        <time>2020-08-15T06:12:01.629Z</time>
      </trkpt>
      <trkpt lat="37.415537" lon="-5.679338">
        <ele>147.508778</ele>
        <time>2020-08-15T06:12:04.610Z</time>
      </trkpt>
      <trkpt lat="37.415437" lon="-5.679427">
        <ele>147.537395</ele>
        <time>2020-08-15T06:12:07.633Z</time>
      </trkpt>
      <trkpt lat="37.415360" lon="-5.679498">
        <ele>147.559699</ele>
        <time>2020-08-15T06:12:09.611Z</time>
      </trkpt>
      <trkpt lat="37.415289" lon="-5.679577">
        <ele>147.581841</ele>
        <time>2020-08-15T06:12:11.612Z</time>
      </trkpt>
      <trkpt lat="37.415205" lon="-5.679637">
        <ele>147.604409</ele>
        <time>2020-08-15T06:12:13.630Z</time>
      </trkpt>
      <trkpt lat="37.415122" lon="-5.679689">
        <ele>147.626073</ele>
        <time>2020-08-15T06:12:15.606Z</time>
      </trkpt>
      <trkpt lat="37.415031" lon="-5.679791">
        <ele>147.654545</ele>
        <time>2020-08-15T06:12:18.630Z</time>
      </trkpt>
      <trkpt lat="37.414935" lon="-5.679872">
        <ele>147.571689</ele>
        <time>2020-08-15T06:12:21.608Z</time>
      </trkpt>
      <trkpt lat="37.414826" lon="-5.679978">
        <ele>147.407462</ele>
        <time>2020-08-15T06:12:24.627Z</time>
      </trkpt>
      <trkpt lat="37.414731" lon="-5.680064">
        <ele>147.267943</ele>
        <time>2020-08-15T06:12:27.615Z</time>
      </trkpt>
      <trkpt lat="37.414638" lon="-5.680148">
        <ele>147.131466</ele>
        <time>2020-08-15T06:12:30.628Z</time>
      </trkpt>
      <trkpt lat="37.414528" lon="-5.680235">
        <ele>146.976570</ele>
        <time>2020-08-15T06:12:33.622Z</time>
      </trkpt>
      <trkpt lat="37.414424" lon="-5.680321">
        <ele>146.828206</ele>
        <time>2020-08-15T06:12:36.627Z</time>
      </trkpt>
      <trkpt lat="37.414330" lon="-5.680405">
        <ele>146.690758</ele>
        <time>2020-08-15T06:12:39.639Z</time>
      </trkpt>
      <trkpt lat="37.414234" lon="-5.680489">
        <ele>146.551358</ele>
        <time>2020-08-15T06:12:42.618Z</time>
      </trkpt>
      <trkpt lat="37.414128" lon="-5.680585">
        <ele>146.395661</ele>
        <time>2020-08-15T06:12:45.634Z</time>
      </trkpt>
      <trkpt lat="37.414011" lon="-5.680676">
        <ele>146.231676</ele>
        <time>2020-08-15T06:12:48.648Z</time>
      </trkpt>
      <trkpt lat="37.413933" lon="-5.680750">
        <ele>146.115220</ele>
        <time>2020-08-15T06:12:50.621Z</time>
      </trkpt>
      <trkpt lat="37.413850" lon="-5.680826">
        <ele>145.992845</ele>
        <time>2020-08-15T06:12:52.638Z</time>
      </trkpt>
      <trkpt lat="37.413757" lon="-5.680902">
        <ele>145.860641</ele>
        <time>2020-08-15T06:12:54.645Z</time>
      </trkpt>
      <trkpt lat="37.413670" lon="-5.680977">
        <ele>145.734915</ele>
        <time>2020-08-15T06:12:56.637Z</time>
      </trkpt>
      <trkpt lat="37.413584" lon="-5.681052">
        <ele>145.610171</ele>
        <time>2020-08-15T06:12:58.633Z</time>
      </trkpt>
      <trkpt lat="37.413508" lon="-5.681130">
        <ele>145.535041</ele>
        <time>2020-08-15T06:13:00.618Z</time>
      </trkpt>
      <trkpt lat="37.413416" lon="-5.681209">
        <ele>145.618986</ele>
        <time>2020-08-15T06:13:02.631Z</time>
      </trkpt>
      <trkpt lat="37.413341" lon="-5.681274">
        <ele>145.687623</ele>
        <time>2020-08-15T06:13:04.630Z</time>
      </trkpt>
      <trkpt lat="37.413255" lon="-5.681324">
        <ele>145.759029</ele>
        <time>2020-08-15T06:13:06.620Z</time>
      </trkpt>
      <trkpt lat="37.413160" lon="-5.681420">
        <ele>145.850856</ele>
        <time>2020-08-15T06:13:09.611Z</time>
      </trkpt>
      <trkpt lat="37.413049" lon="-5.681507">
        <ele>145.949419</ele>
        <time>2020-08-15T06:13:12.634Z</time>
      </trkpt>
      <trkpt lat="37.412968" lon="-5.681568">
        <ele>146.020568</ele>
        <time>2020-08-15T06:13:14.614Z</time>
      </trkpt>
      <trkpt lat="37.412846" lon="-5.681652">
        <ele>146.125388</ele>
        <time>2020-08-15T06:13:17.613Z</time>
      </trkpt>
      <trkpt lat="37.412773" lon="-5.681726">
        <ele>146.196037</ele>
        <time>2020-08-15T06:13:19.597Z</time>
      </trkpt>
      <trkpt lat="37.412681" lon="-5.681799">
        <ele>146.278013</ele>
        <time>2020-08-15T06:13:21.608Z</time>
      </trkpt>
      <trkpt lat="37.412588" lon="-5.681874">
        <ele>146.361267</ele>
        <time>2020-08-15T06:13:23.606Z</time>
      </trkpt>
      <trkpt lat="37.412496" lon="-5.681962">
        <ele>146.448363</ele>
        <time>2020-08-15T06:13:25.617Z</time>
      </trkpt>
      <trkpt lat="37.412414" lon="-5.682053">
        <ele>146.530761</ele>
        <time>2020-08-15T06:13:27.631Z</time>
      </trkpt>
      <trkpt lat="37.412339" lon="-5.682147">
        <ele>146.610536</ele>
        <time>2020-08-15T06:13:29.630Z</time>
      </trkpt>
      <trkpt lat="37.412247" lon="-5.682199">
        <ele>146.686556</ele>
        <time>2020-08-15T06:13:31.630Z</time>
      </trkpt>
      <trkpt lat="37.412153" lon="-5.682280">
        <ele>146.772422</ele>
        <time>2020-08-15T06:13:33.619Z</time>
      </trkpt>
      <trkpt lat="37.412064" lon="-5.682346">
        <ele>146.850285</ele>
        <time>2020-08-15T06:13:35.612Z</time>
      </trkpt>
      <trkpt lat="37.411995" lon="-5.682430">
        <ele>146.946728</ele>
        <time>2020-08-15T06:13:37.621Z</time>
      </trkpt>
      <trkpt lat="37.411909" lon="-5.682508">
        <ele>147.066779</ele>
        <time>2020-08-15T06:13:39.632Z</time>
      </trkpt>
      <trkpt lat="37.411828" lon="-5.682566">
        <ele>147.172324</ele>
        <time>2020-08-15T06:13:41.626Z</time>
      </trkpt>
      <trkpt lat="37.411715" lon="-5.682653">
        <ele>147.322348</ele>
        <time>2020-08-15T06:13:44.612Z</time>
      </trkpt>
      <trkpt lat="37.411622" lon="-5.682769">
        <ele>147.470627</ele>
        <time>2020-08-15T06:13:47.628Z</time>
      </trkpt>
      <trkpt lat="37.411525" lon="-5.682863">
        <ele>147.609272</ele>
        <time>2020-08-15T06:13:50.630Z</time>
      </trkpt>
      <trkpt lat="37.411436" lon="-5.682920">
        <ele>147.722371</ele>
        <time>2020-08-15T06:13:52.633Z</time>
      </trkpt>
      <trkpt lat="37.411361" lon="-5.682996">
        <ele>147.831417</ele>
        <time>2020-08-15T06:13:54.605Z</time>
      </trkpt>
      <trkpt lat="37.411269" lon="-5.683086">
        <ele>147.963381</ele>
        <time>2020-08-15T06:13:57.625Z</time>
      </trkpt>
      <trkpt lat="37.411172" lon="-5.683192">
        <ele>148.108862</ele>
        <time>2020-08-15T06:14:00.627Z</time>
      </trkpt>
      <trkpt lat="37.411064" lon="-5.683308">
        <ele>148.269656</ele>
        <time>2020-08-15T06:14:03.605Z</time>
      </trkpt>
      <trkpt lat="37.411002" lon="-5.683392">
        <ele>148.372818</ele>
        <time>2020-08-15T06:14:05.605Z</time>
      </trkpt>
      <trkpt lat="37.410912" lon="-5.683451">
        <ele>148.487748</ele>
        <time>2020-08-15T06:14:07.625Z</time>
      </trkpt>
      <trkpt lat="37.410822" lon="-5.683498">
        <ele>148.598108</ele>
        <time>2020-08-15T06:14:09.614Z</time>
      </trkpt>
      <trkpt lat="37.410729" lon="-5.683588">
        <ele>148.730967</ele>
        <time>2020-08-15T06:14:12.622Z</time>
      </trkpt>
      <trkpt lat="37.410637" lon="-5.683637">
        <ele>148.844112</ele>
        <time>2020-08-15T06:14:14.606Z</time>
      </trkpt>
      <trkpt lat="37.410526" lon="-5.683733">
        <ele>148.774244</ele>
        <time>2020-08-15T06:14:17.624Z</time>
      </trkpt>
      <trkpt lat="37.410415" lon="-5.683818">
        <ele>148.535076</ele>
        <time>2020-08-15T06:14:20.614Z</time>
      </trkpt>
      <trkpt lat="37.410341" lon="-5.683892">
        <ele>148.361107</ele>
        <time>2020-08-15T06:14:22.621Z</time>
      </trkpt>
      <trkpt lat="37.410242" lon="-5.683991">
        <ele>148.128364</ele>
        <time>2020-08-15T06:14:25.626Z</time>
      </trkpt>
      <trkpt lat="37.410132" lon="-5.684105">
        <ele>147.866083</ele>
        <time>2020-08-15T06:14:28.610Z</time>
      </trkpt>
      <trkpt lat="37.410021" lon="-5.684188">
        <ele>147.628421</ele>
        <time>2020-08-15T06:14:31.631Z</time>
      </trkpt>
      <trkpt lat="37.409913" lon="-5.684280">
        <ele>147.388371</ele>
        <time>2020-08-15T06:14:34.649Z</time>
      </trkpt>
      <trkpt lat="37.409817" lon="-5.684366">
        <ele>147.171472</ele>
        <time>2020-08-15T06:14:37.625Z</time>
      </trkpt>
      <trkpt lat="37.409714" lon="-5.684467">
        <ele>146.931133</ele>
        <time>2020-08-15T06:14:40.608Z</time>
      </trkpt>
      <trkpt lat="37.409608" lon="-5.684571">
        <ele>146.683741</ele>
        <time>2020-08-15T06:14:43.632Z</time>
      </trkpt>
      <trkpt lat="37.409520" lon="-5.684640">
        <ele>146.492894</ele>
        <time>2020-08-15T06:14:45.630Z</time>
      </trkpt>
      <trkpt lat="37.409417" lon="-5.684738">
        <ele>146.255225</ele>
        <time>2020-08-15T06:14:48.611Z</time>
      </trkpt>
      <trkpt lat="37.409294" lon="-5.684804">
        <ele>146.009088</ele>
        <time>2020-08-15T06:14:51.623Z</time>
      </trkpt>
      <trkpt lat="37.409218" lon="-5.684874">
        <ele>145.835737</ele>
        <time>2020-08-15T06:14:53.623Z</time>
      </trkpt>
      <trkpt lat="37.409113" lon="-5.684966">
        <ele>145.601587</ele>
        <time>2020-08-15T06:14:56.635Z</time>
      </trkpt>
      <trkpt lat="37.409008" lon="-5.685052">
        <ele>145.880448</ele>
        <time>2020-08-15T06:14:59.624Z</time>
      </trkpt>
      <trkpt lat="37.408903" lon="-5.685144">
        <ele>146.165234</ele>
        <time>2020-08-15T06:15:02.623Z</time>
      </trkpt>
      <trkpt lat="37.408813" lon="-5.685229">
        <ele>146.415701</ele>
        <time>2020-08-15T06:15:05.605Z</time>
      </trkpt>
      <trkpt lat="37.408722" lon="-5.685305">
        <ele>146.658805</ele>
        <time>2020-08-15T06:15:08.611Z</time>
      </trkpt>
      <trkpt lat="37.408641" lon="-5.685384">
        <ele>146.886905</ele>
        <time>2020-08-15T06:15:11.601Z</time>
      </trkpt>
      <trkpt lat="37.408564" lon="-5.685459">
        <ele>147.103634</ele>
        <time>2020-08-15T06:15:14.628Z</time>
      </trkpt>
      <trkpt lat="37.408473" lon="-5.685537">
        <ele>147.348711</ele>
        <time>2020-08-15T06:15:17.615Z</time>
      </trkpt>
      <trkpt lat="37.408383" lon="-5.685614">
        <ele>147.590953</ele>
        <time>2020-08-15T06:15:20.629Z</time>
      </trkpt>
      <trkpt lat="37.408294" lon="-5.685698">
        <ele>147.838578</ele>
        <time>2020-08-15T06:15:23.609Z</time>
      </trkpt>
      <trkpt lat="37.408210" lon="-5.685775">
        <ele>148.069894</ele>
        <time>2020-08-15T06:15:26.623Z</time>
      </trkpt>
      <trkpt lat="37.408136" lon="-5.685861">
        <ele>148.294092</ele>
        <time>2020-08-15T06:15:29.608Z</time>
      </trkpt>
      <trkpt lat="37.408064" lon="-5.685950">
        <ele>148.518722</ele>
        <time>2020-08-15T06:15:32.608Z</time>
      </trkpt>
      <trkpt lat="37.407991" lon="-5.686018">
        <ele>148.720881</ele>
        <time>2020-08-15T06:15:35.611Z</time>
      </trkpt>
      <trkpt lat="37.407901" lon="-5.686098">
        <ele>148.966145</ele>
        <time>2020-08-15T06:15:39.616Z</time>
      </trkpt>
      <trkpt lat="37.407822" lon="-5.686157">
        <ele>149.170629</ele>
        <time>2020-08-15T06:15:42.592Z</time>
      </trkpt>
      <trkpt lat="37.407738" lon="-5.686205">
        <ele>149.375989</ele>
        <time>2020-08-15T06:15:45.611Z</time>
      </trkpt>
      <trkpt lat="37.407655" lon="-5.686255">
        <ele>149.580825</ele>
        <time>2020-08-15T06:15:48.599Z</time>
      </trkpt>
      <trkpt lat="37.407568" lon="-5.686318">
        <ele>149.699835</ele>
        <time>2020-08-15T06:15:51.608Z</time>
      </trkpt>
      <trkpt lat="37.407484" lon="-5.686378">
        <ele>149.802210</ele>
        <time>2020-08-15T06:15:54.626Z</time>
      </trkpt>
      <trkpt lat="37.407405" lon="-5.686443">
        <ele>149.902250</ele>
        <time>2020-08-15T06:15:57.623Z</time>
      </trkpt>
      <trkpt lat="37.407331" lon="-5.686518">
        <ele>150.002952</ele>
        <time>2020-08-15T06:16:00.593Z</time>
      </trkpt>
      <trkpt lat="37.407255" lon="-5.686595">
        <ele>150.106361</ele>
        <time>2020-08-15T06:16:03.606Z</time>
      </trkpt>
      <trkpt lat="37.407179" lon="-5.686667">
        <ele>150.207185</ele>
        <time>2020-08-15T06:16:06.620Z</time>
      </trkpt>
      <trkpt lat="37.407093" lon="-5.686765">
        <ele>150.330146</ele>
        <time>2020-08-15T06:16:10.610Z</time>
      </trkpt>
      <trkpt lat="37.407018" lon="-5.686834">
        <ele>150.428613</ele>
        <time>2020-08-15T06:16:13.607Z</time>
      </trkpt>
      <trkpt lat="37.406943" lon="-5.686903">
        <ele>150.527080</ele>
        <time>2020-08-15T06:16:16.617Z</time>
      </trkpt>
      <trkpt lat="37.406856" lon="-5.686961">
        <ele>150.631434</ele>
        <time>2020-08-15T06:16:19.617Z</time>
      </trkpt>
      <trkpt lat="37.406771" lon="-5.687016">
        <ele>150.732740</ele>
        <time>2020-08-15T06:16:22.626Z</time>
      </trkpt>
      <trkpt lat="37.406692" lon="-5.687075">
        <ele>150.830108</ele>
        <time>2020-08-15T06:16:25.609Z</time>
      </trkpt>
      <trkpt lat="37.406606" lon="-5.687165">
        <ele>150.948654</ele>
        <time>2020-08-15T06:16:29.626Z</time>
      </trkpt>
      <trkpt lat="37.406525" lon="-5.687263">
        <ele>151.067738</ele>
        <time>2020-08-15T06:16:33.610Z</time>
      </trkpt>
      <trkpt lat="37.406454" lon="-5.687346">
        <ele>151.170444</ele>
        <time>2020-08-15T06:16:37.625Z</time>
      </trkpt>
      <trkpt lat="37.406383" lon="-5.687433">
        <ele>151.275470</ele>
        <time>2020-08-15T06:16:41.607Z</time>
      </trkpt>
      <trkpt lat="37.406309" lon="-5.687533">
        <ele>151.390548</ele>
        <time>2020-08-15T06:16:46.623Z</time>
      </trkpt>
      <trkpt lat="37.406225" lon="-5.687612">
        <ele>151.501692</ele>
        <time>2020-08-15T06:16:50.611Z</time>
      </trkpt>
      <trkpt lat="37.406151" lon="-5.687682">
        <ele>151.267761</ele>
        <time>2020-08-15T06:16:53.627Z</time>
      </trkpt>
      <trkpt lat="37.406066" lon="-5.687753">
        <ele>150.969316</ele>
        <time>2020-08-15T06:16:56.628Z</time>
      </trkpt>
      <trkpt lat="37.405973" lon="-5.687838">
        <ele>150.633080</ele>
        <time>2020-08-15T06:16:59.612Z</time>
      </trkpt>
      <trkpt lat="37.405873" lon="-5.687918">
        <ele>150.286435</ele>
        <time>2020-08-15T06:17:02.615Z</time>
      </trkpt>
      <trkpt lat="37.405769" lon="-5.688014">
        <ele>149.909132</ele>
        <time>2020-08-15T06:17:05.613Z</time>
      </trkpt>
      <trkpt lat="37.405665" lon="-5.688116">
        <ele>149.523420</ele>
        <time>2020-08-15T06:17:08.606Z</time>
      </trkpt>
      <trkpt lat="37.405588" lon="-5.688224">
        <ele>149.186154</ele>
        <time>2020-08-15T06:17:11.634Z</time>
      </trkpt>
      <trkpt lat="37.405506" lon="-5.688329">
        <ele>148.843952</ele>
        <time>2020-08-15T06:17:14.607Z</time>
      </trkpt>
      <trkpt lat="37.405421" lon="-5.688429">
        <ele>148.503578</ele>
        <time>2020-08-15T06:17:17.622Z</time>
      </trkpt>
      <trkpt lat="37.405346" lon="-5.688528">
        <ele>148.185641</ele>
        <time>2020-08-15T06:17:20.620Z</time>
      </trkpt>
      <trkpt lat="37.405266" lon="-5.688625">
        <ele>147.860678</ele>
        <time>2020-08-15T06:17:23.611Z</time>
      </trkpt>
      <trkpt lat="37.405175" lon="-5.688721">
        <ele>147.513317</ele>
        <time>2020-08-15T06:17:26.651Z</time>
      </trkpt>
      <trkpt lat="37.405082" lon="-5.688809">
        <ele>147.172937</ele>
        <time>2020-08-15T06:17:28.629Z</time>
      </trkpt>
      <trkpt lat="37.405005" lon="-5.688904">
        <ele>146.857508</ele>
        <time>2020-08-15T06:17:30.632Z</time>
      </trkpt>
      <trkpt lat="37.404960" lon="-5.689014">
        <ele>146.569953</ele>
        <time>2020-08-15T06:17:32.625Z</time>
      </trkpt>
      <trkpt lat="37.404860" lon="-5.689131">
        <ele>146.241303</ele>
        <time>2020-08-15T06:17:34.635Z</time>
      </trkpt>
      <trkpt lat="37.404746" lon="-5.689244">
        <ele>146.198461</ele>
        <time>2020-08-15T06:17:36.608Z</time>
      </trkpt>
      <trkpt lat="37.404646" lon="-5.689351">
        <ele>146.159711</ele>
        <time>2020-08-15T06:17:38.632Z</time>
      </trkpt>
      <trkpt lat="37.404538" lon="-5.689460">
        <ele>146.118841</ele>
        <time>2020-08-15T06:17:40.631Z</time>
      </trkpt>
      <trkpt lat="37.404446" lon="-5.689560">
        <ele>146.082953</ele>
        <time>2020-08-15T06:17:42.615Z</time>
      </trkpt>
      <trkpt lat="37.404343" lon="-5.689665">
        <ele>146.043820</ele>
        <time>2020-08-15T06:17:44.635Z</time>
      </trkpt>
      <trkpt lat="37.404251" lon="-5.689778">
        <ele>146.005869</ele>
        <time>2020-08-15T06:17:46.627Z</time>
      </trkpt>
      <trkpt lat="37.404166" lon="-5.689886">
        <ele>145.970211</ele>
        <time>2020-08-15T06:17:48.614Z</time>
      </trkpt>
      <trkpt lat="37.404068" lon="-5.689982">
        <ele>145.933548</ele>
        <time>2020-08-15T06:17:50.635Z</time>
      </trkpt>
      <trkpt lat="37.403974" lon="-5.690077">
        <ele>145.897956</ele>
        <time>2020-08-15T06:17:52.619Z</time>
      </trkpt>
      <trkpt lat="37.403878" lon="-5.690185">
        <ele>145.859942</ele>
        <time>2020-08-15T06:17:54.623Z</time>
      </trkpt>
      <trkpt lat="37.403790" lon="-5.690282">
        <ele>145.825407</ele>
        <time>2020-08-15T06:17:56.634Z</time>
      </trkpt>
      <trkpt lat="37.403707" lon="-5.690375">
        <ele>145.792599</ele>
        <time>2020-08-15T06:17:58.628Z</time>
      </trkpt>
      <trkpt lat="37.403615" lon="-5.690474">
        <ele>145.756863</ele>
        <time>2020-08-15T06:18:00.625Z</time>
      </trkpt>
      <trkpt lat="37.403527" lon="-5.690571">
        <ele>145.722328</ele>
        <time>2020-08-15T06:18:02.630Z</time>
      </trkpt>
      <trkpt lat="37.403466" lon="-5.690677">
        <ele>145.662743</ele>
        <time>2020-08-15T06:18:04.632Z</time>
      </trkpt>
      <trkpt lat="37.403368" lon="-5.690774">
        <ele>145.585900</ele>
        <time>2020-08-15T06:18:06.635Z</time>
      </trkpt>
      <trkpt lat="37.403312" lon="-5.690864">
        <ele>145.529922</ele>
        <time>2020-08-15T06:18:08.612Z</time>
      </trkpt>
      <trkpt lat="37.403235" lon="-5.690956">
        <ele>145.464484</ele>
        <time>2020-08-15T06:18:10.607Z</time>
      </trkpt>
      <trkpt lat="37.403162" lon="-5.691038">
        <ele>145.404178</ele>
        <time>2020-08-15T06:18:12.629Z</time>
      </trkpt>
      <trkpt lat="37.403071" lon="-5.691144">
        <ele>145.327756</ele>
        <time>2020-08-15T06:18:15.643Z</time>
      </trkpt>
      <trkpt lat="37.402998" lon="-5.691267">
        <ele>145.252576</ele>
        <time>2020-08-15T06:18:18.630Z</time>
      </trkpt>
      <trkpt lat="37.402896" lon="-5.691352">
        <ele>145.177175</ele>
        <time>2020-08-15T06:18:20.625Z</time>
      </trkpt>
      <trkpt lat="37.402806" lon="-5.691475">
        <ele>145.095291</ele>
        <time>2020-08-15T06:18:23.625Z</time>
      </trkpt>
      <trkpt lat="37.402730" lon="-5.691598">
        <ele>145.018990</ele>
        <time>2020-08-15T06:18:26.648Z</time>
      </trkpt>
      <trkpt lat="37.402634" lon="-5.691691">
        <ele>144.944322</ele>
        <time>2020-08-15T06:18:28.625Z</time>
      </trkpt>
      <trkpt lat="37.402562" lon="-5.691765">
        <ele>144.887028</ele>
        <time>2020-08-15T06:18:30.640Z</time>
      </trkpt>
      <trkpt lat="37.402467" lon="-5.691875">
        <ele>144.807466</ele>
        <time>2020-08-15T06:18:33.614Z</time>
      </trkpt>
      <trkpt lat="37.402362" lon="-5.691968">
        <ele>144.728329</ele>
        <time>2020-08-15T06:18:35.631Z</time>
      </trkpt>
      <trkpt lat="37.402293" lon="-5.692125">
        <ele>144.640471</ele>
        <time>2020-08-15T06:18:38.616Z</time>
      </trkpt>
      <trkpt lat="37.402214" lon="-5.692243">
        <ele>144.658645</ele>
        <time>2020-08-15T06:18:40.625Z</time>
      </trkpt>
      <trkpt lat="37.402118" lon="-5.692340">
        <ele>144.742251</ele>
        <time>2020-08-15T06:18:42.611Z</time>
      </trkpt>
      <trkpt lat="37.402039" lon="-5.692447">
        <ele>144.821064</ele>
        <time>2020-08-15T06:18:44.629Z</time>
      </trkpt>
      <trkpt lat="37.401959" lon="-5.692566">
        <ele>144.905172</ele>
        <time>2020-08-15T06:18:46.628Z</time>
      </trkpt>
      <trkpt lat="37.401881" lon="-5.692650">
        <ele>144.974888</ele>
        <time>2020-08-15T06:18:48.614Z</time>
      </trkpt>
      <trkpt lat="37.401815" lon="-5.692754">
        <ele>145.046706</ele>
        <time>2020-08-15T06:18:50.619Z</time>
      </trkpt>
      <trkpt lat="37.401714" lon="-5.692837">
        <ele>145.128625</ele>
        <time>2020-08-15T06:18:52.615Z</time>
      </trkpt>
      <trkpt lat="37.401629" lon="-5.692924">
        <ele>145.203029</ele>
        <time>2020-08-15T06:18:54.629Z</time>
      </trkpt>
      <trkpt lat="37.401529" lon="-5.693012">
        <ele>145.285896</ele>
        <time>2020-08-15T06:18:56.630Z</time>
      </trkpt>
      <trkpt lat="37.401469" lon="-5.693108">
        <ele>145.351799</ele>
        <time>2020-08-15T06:18:58.637Z</time>
      </trkpt>
      <trkpt lat="37.401401" lon="-5.693211">
        <ele>145.424056</ele>
        <time>2020-08-15T06:19:00.632Z</time>
      </trkpt>
      <trkpt lat="37.401315" lon="-5.693300">
        <ele>145.499669</ele>
        <time>2020-08-15T06:19:02.628Z</time>
      </trkpt>
      <trkpt lat="37.401237" lon="-5.693394">
        <ele>145.573008</ele>
        <time>2020-08-15T06:19:04.605Z</time>
      </trkpt>
      <trkpt lat="37.401158" lon="-5.693490">
        <ele>145.647583</ele>
        <time>2020-08-15T06:19:06.609Z</time>
      </trkpt>
      <trkpt lat="37.401065" lon="-5.693582">
        <ele>145.727916</ele>
        <time>2020-08-15T06:19:08.615Z</time>
      </trkpt>
      <trkpt lat="37.400976" lon="-5.693673">
        <ele>145.805790</ele>
        <time>2020-08-15T06:19:10.617Z</time>
      </trkpt>
      <trkpt lat="37.400901" lon="-5.693751">
        <ele>145.899561</ele>
        <time>2020-08-15T06:19:12.622Z</time>
      </trkpt>
      <trkpt lat="37.400815" lon="-5.693827">
        <ele>146.019404</ele>
        <time>2020-08-15T06:19:14.637Z</time>
      </trkpt>
      <trkpt lat="37.400727" lon="-5.693916">
        <ele>146.148150</ele>
        <time>2020-08-15T06:19:16.632Z</time>
      </trkpt>
      <trkpt lat="37.400635" lon="-5.693999">
        <ele>146.277244</ele>
        <time>2020-08-15T06:19:18.633Z</time>
      </trkpt>
      <trkpt lat="37.400550" lon="-5.694089">
        <ele>146.403923</ele>
        <time>2020-08-15T06:19:20.619Z</time>
      </trkpt>
      <trkpt lat="37.400454" lon="-5.694226">
        <ele>146.569440</ele>
        <time>2020-08-15T06:19:23.635Z</time>
      </trkpt>
      <trkpt lat="37.400395" lon="-5.694315">
        <ele>146.674467</ele>
        <time>2020-08-15T06:19:25.633Z</time>
      </trkpt>
      <trkpt lat="37.400316" lon="-5.694395">
        <ele>146.790104</ele>
        <time>2020-08-15T06:19:27.612Z</time>
      </trkpt>
      <trkpt lat="37.400241" lon="-5.694474">
        <ele>146.901641</ele>
        <time>2020-08-15T06:19:29.629Z</time>
      </trkpt>
      <trkpt lat="37.400170" lon="-5.694553">
        <ele>147.009718</ele>
        <time>2020-08-15T06:19:31.631Z</time>
      </trkpt>
      <trkpt lat="37.400095" lon="-5.694632">
        <ele>147.121254</ele>
        <time>2020-08-15T06:19:33.635Z</time>
      </trkpt>
      <trkpt lat="37.400023" lon="-5.694710">
        <ele>147.229595</ele>
        <time>2020-08-15T06:19:35.645Z</time>
      </trkpt>
      <trkpt lat="37.399944" lon="-5.694783">
        <ele>147.341367</ele>
        <time>2020-08-15T06:19:37.629Z</time>
      </trkpt>
      <trkpt lat="37.399874" lon="-5.694860">
        <ele>147.447392</ele>
        <time>2020-08-15T06:19:39.636Z</time>
      </trkpt>
      <trkpt lat="37.399767" lon="-5.694965">
        <ele>147.602129</ele>
        <time>2020-08-15T06:19:42.623Z</time>
      </trkpt>
      <trkpt lat="37.399684" lon="-5.695082">
        <ele>147.744251</ele>
        <time>2020-08-15T06:19:45.635Z</time>
      </trkpt>
      <trkpt lat="37.399616" lon="-5.695162">
        <ele>147.850406</ele>
        <time>2020-08-15T06:19:47.629Z</time>
      </trkpt>
      <trkpt lat="37.399526" lon="-5.695279">
        <ele>148.312254</ele>
        <time>2020-08-15T06:19:50.630Z</time>
      </trkpt>
      <trkpt lat="37.399440" lon="-5.695394">
        <ele>148.844798</ele>
        <time>2020-08-15T06:19:53.638Z</time>
      </trkpt>
      <trkpt lat="37.399357" lon="-5.695500">
        <ele>149.346650</ele>
        <time>2020-08-15T06:19:56.632Z</time>
      </trkpt>
      <trkpt lat="37.399282" lon="-5.695602">
        <ele>149.815292</ele>
        <time>2020-08-15T06:19:59.604Z</time>
      </trkpt>
      <trkpt lat="37.399203" lon="-5.695704">
        <ele>150.295628</ele>
        <time>2020-08-15T06:20:02.610Z</time>
      </trkpt>
      <trkpt lat="37.399117" lon="-5.695797">
        <ele>150.776853</ele>
        <time>2020-08-15T06:20:05.627Z</time>
      </trkpt>
      <trkpt lat="37.399042" lon="-5.695883">
        <ele>151.207464</ele>
        <time>2020-08-15T06:20:08.627Z</time>
      </trkpt>
      <trkpt lat="37.398971" lon="-5.695969">
        <ele>151.625681</ele>
        <time>2020-08-15T06:20:11.623Z</time>
      </trkpt>
      <trkpt lat="37.398902" lon="-5.696060">
        <ele>152.049854</ele>
        <time>2020-08-15T06:20:14.626Z</time>
      </trkpt>
      <trkpt lat="37.398819" lon="-5.696160">
        <ele>152.537506</ele>
        <time>2020-08-15T06:20:17.634Z</time>
      </trkpt>
      <trkpt lat="37.398739" lon="-5.696258">
        <ele>153.011313</ele>
        <time>2020-08-15T06:20:20.627Z</time>
      </trkpt>
      <trkpt lat="37.398660" lon="-5.696354">
        <ele>153.477379</ele>
        <time>2020-08-15T06:20:23.637Z</time>
      </trkpt>
      <trkpt lat="37.398581" lon="-5.696445">
        <ele>153.931897</ele>
        <time>2020-08-15T06:20:26.630Z</time>
      </trkpt>
      <trkpt lat="37.398507" lon="-5.696533">
        <ele>154.363984</ele>
        <time>2020-08-15T06:20:29.629Z</time>
      </trkpt>
      <trkpt lat="37.398436" lon="-5.696619">
        <ele>154.782202</ele>
        <time>2020-08-15T06:20:32.608Z</time>
      </trkpt>
      <trkpt lat="37.398365" lon="-5.696717">
        <ele>155.229428</ele>
        <time>2020-08-15T06:20:35.629Z</time>
      </trkpt>
      <trkpt lat="37.398292" lon="-5.696815">
        <ele>155.468004</ele>
        <time>2020-08-15T06:20:38.615Z</time>
      </trkpt>
      <trkpt lat="37.398222" lon="-5.696905">
        <ele>155.343127</ele>
        <time>2020-08-15T06:20:41.609Z</time>
      </trkpt>
      <trkpt lat="37.398145" lon="-5.697011">
        <ele>155.200721</ele>
        <time>2020-08-15T06:20:44.622Z</time>
      </trkpt>
      <trkpt lat="37.398060" lon="-5.697111">
        <ele>155.055520</ele>
        <time>2020-08-15T06:20:47.624Z</time>
      </trkpt>
      <trkpt lat="37.397982" lon="-5.697208">
        <ele>154.918680</ele>
        <time>2020-08-15T06:20:50.616Z</time>
      </trkpt>
      <trkpt lat="37.397906" lon="-5.697303">
        <ele>154.785009</ele>
        <time>2020-08-15T06:20:53.634Z</time>
      </trkpt>
      <trkpt lat="37.397828" lon="-5.697396">
        <ele>154.650926</ele>
        <time>2020-08-15T06:20:56.631Z</time>
      </trkpt>
      <trkpt lat="37.397741" lon="-5.697485">
        <ele>154.511014</ele>
        <time>2020-08-15T06:20:59.614Z</time>
      </trkpt>
      <trkpt lat="37.397660" lon="-5.697572">
        <ele>154.378125</ele>
        <time>2020-08-15T06:21:02.604Z</time>
      </trkpt>
      <trkpt lat="37.397578" lon="-5.697670">
        <ele>154.237009</ele>
        <time>2020-08-15T06:21:05.614Z</time>
      </trkpt>
      <trkpt lat="37.397495" lon="-5.697775">
        <ele>154.090150</ele>
        <time>2020-08-15T06:21:08.616Z</time>
      </trkpt>
      <trkpt lat="37.397414" lon="-5.697896">
        <ele>153.933270</ele>
        <time>2020-08-15T06:21:11.604Z</time>
      </trkpt>
      <trkpt lat="37.397331" lon="-5.698003">
        <ele>153.784998</ele>
        <time>2020-08-15T06:21:14.626Z</time>
      </trkpt>
      <trkpt lat="37.397253" lon="-5.698110">
        <ele>153.641016</ele>
        <time>2020-08-15T06:21:17.625Z</time>
      </trkpt>
      <trkpt lat="37.397168" lon="-5.698223">
        <ele>153.486726</ele>
        <time>2020-08-15T06:21:20.607Z</time>
      </trkpt>
      <trkpt lat="37.397078" lon="-5.698353">
        <ele>153.315761</ele>
        <time>2020-08-15T06:21:23.620Z</time>
      </trkpt>
      <trkpt lat="37.396999" lon="-5.698428">
        <ele>153.150682</ele>
        <time>2020-08-15T06:21:25.628Z</time>
      </trkpt>
      <trkpt lat="37.396901" lon="-5.698535">
        <ele>152.904320</ele>
        <time>2020-08-15T06:21:28.610Z</time>
      </trkpt>
      <trkpt lat="37.396830" lon="-5.698635">
        <ele>152.701983</ele>
        <time>2020-08-15T06:21:31.619Z</time>
      </trkpt>
      <trkpt lat="37.396754" lon="-5.698701">
        <ele>152.526641</ele>
        <time>2020-08-15T06:21:33.638Z</time>
      </trkpt>
      <trkpt lat="37.396677" lon="-5.698821">
        <ele>152.293923</ele>
        <time>2020-08-15T06:21:36.616Z</time>
      </trkpt>
      <trkpt lat="37.396565" lon="-5.698923">
        <ele>152.031400</ele>
        <time>2020-08-15T06:21:39.632Z</time>
      </trkpt>
      <trkpt lat="37.396501" lon="-5.699005">
        <ele>151.857976</ele>
        <time>2020-08-15T06:21:41.625Z</time>
      </trkpt>
      <trkpt lat="37.396397" lon="-5.699098">
        <ele>151.615711</ele>
        <time>2020-08-15T06:21:44.626Z</time>
      </trkpt>
      <trkpt lat="37.396329" lon="-5.699172">
        <ele>151.445008</ele>
        <time>2020-08-15T06:21:46.627Z</time>
      </trkpt>
      <trkpt lat="37.396247" lon="-5.699247">
        <ele>151.252519</ele>
        <time>2020-08-15T06:21:48.616Z</time>
      </trkpt>
      <trkpt lat="37.396168" lon="-5.699377">
        <ele>151.005590</ele>
        <time>2020-08-15T06:21:51.627Z</time>
      </trkpt>
      <trkpt lat="37.396081" lon="-5.699487">
        <ele>150.771416</ele>
        <time>2020-08-15T06:21:54.624Z</time>
      </trkpt>
      <trkpt lat="37.395989" lon="-5.699594">
        <ele>150.533543</ele>
        <time>2020-08-15T06:21:57.637Z</time>
      </trkpt>
      <trkpt lat="37.395894" lon="-5.699695">
        <ele>150.297395</ele>
        <time>2020-08-15T06:22:00.626Z</time>
      </trkpt>
      <trkpt lat="37.395799" lon="-5.699792">
        <ele>150.065094</ele>
        <time>2020-08-15T06:22:03.621Z</time>
      </trkpt>
      <trkpt lat="37.395717" lon="-5.699885">
        <ele>149.856470</ele>
        <time>2020-08-15T06:22:06.632Z</time>
      </trkpt>
      <trkpt lat="37.395636" lon="-5.699975">
        <ele>149.892664</ele>
        <time>2020-08-15T06:22:09.628Z</time>
      </trkpt>
      <trkpt lat="37.395557" lon="-5.700068">
        <ele>149.928900</ele>
        <time>2020-08-15T06:22:12.642Z</time>
      </trkpt>
      <trkpt lat="37.395484" lon="-5.700166">
        <ele>149.964653</ele>
        <time>2020-08-15T06:22:15.630Z</time>
      </trkpt>
      <trkpt lat="37.395402" lon="-5.700267">
        <ele>150.003087</ele>
        <time>2020-08-15T06:22:18.622Z</time>
      </trkpt>
      <trkpt lat="37.395320" lon="-5.700366">
        <ele>150.041151</ele>
        <time>2020-08-15T06:22:21.620Z</time>
      </trkpt>
      <trkpt lat="37.395241" lon="-5.700463">
        <ele>150.078122</ele>
        <time>2020-08-15T06:22:24.621Z</time>
      </trkpt>
      <trkpt lat="37.395173" lon="-5.700564">
        <ele>150.113357</ele>
        <time>2020-08-15T06:22:27.626Z</time>
      </trkpt>
      <trkpt lat="37.395096" lon="-5.700658">
        <ele>150.149291</ele>
        <time>2020-08-15T06:22:30.630Z</time>
      </trkpt>
      <trkpt lat="37.395028" lon="-5.700760">
        <ele>150.184729</ele>
        <time>2020-08-15T06:22:33.625Z</time>
      </trkpt>
      <trkpt lat="37.394940" lon="-5.700875">
        <ele>150.227224</ele>
        <time>2020-08-15T06:22:36.627Z</time>
      </trkpt>
      <trkpt lat="37.394861" lon="-5.700959">
        <ele>150.261868</ele>
        <time>2020-08-15T06:22:38.633Z</time>
      </trkpt>
      <trkpt lat="37.394799" lon="-5.701046">
        <ele>150.292973</ele>
        <time>2020-08-15T06:22:40.625Z</time>
      </trkpt>
      <trkpt lat="37.394718" lon="-5.701120">
        <ele>150.326502</ele>
        <time>2020-08-15T06:22:42.635Z</time>
      </trkpt>
      <trkpt lat="37.394601" lon="-5.701231">
        <ele>150.375584</ele>
        <time>2020-08-15T06:22:45.636Z</time>
      </trkpt>
      <trkpt lat="37.394545" lon="-5.701339">
        <ele>150.409908</ele>
        <time>2020-08-15T06:22:47.624Z</time>
      </trkpt>
      <trkpt lat="37.394471" lon="-5.701425">
        <ele>150.443649</ele>
        <time>2020-08-15T06:22:49.617Z</time>
      </trkpt>
      <trkpt lat="37.394394" lon="-5.701508">
        <ele>150.522737</ele>
        <time>2020-08-15T06:22:51.630Z</time>
      </trkpt>
      <trkpt lat="37.394311" lon="-5.701603">
        <ele>150.650800</ele>
        <time>2020-08-15T06:22:53.619Z</time>
      </trkpt>
      <trkpt lat="37.394239" lon="-5.701693">
        <ele>150.766635</ele>
        <time>2020-08-15T06:22:55.632Z</time>
      </trkpt>
      <trkpt lat="37.394157" lon="-5.701827">
        <ele>150.920033</ele>
        <time>2020-08-15T06:22:58.630Z</time>
      </trkpt>
      <trkpt lat="37.394083" lon="-5.701899">
        <ele>151.026802</ele>
        <time>2020-08-15T06:23:00.630Z</time>
      </trkpt>
      <trkpt lat="37.393993" lon="-5.702011">
        <ele>151.171276</ele>
        <time>2020-08-15T06:23:03.632Z</time>
      </trkpt>
      <trkpt lat="37.393930" lon="-5.702093">
        <ele>151.274729</ele>
        <time>2020-08-15T06:23:06.629Z</time>
      </trkpt>
      <trkpt lat="37.393851" lon="-5.702189">
        <ele>151.400081</ele>
        <time>2020-08-15T06:23:08.655Z</time>
      </trkpt>
      <trkpt lat="37.393747" lon="-5.702282">
        <ele>151.545711</ele>
        <time>2020-08-15T06:23:11.638Z</time>
      </trkpt>
      <trkpt lat="37.393650" lon="-5.702379">
        <ele>151.687133</ele>
        <time>2020-08-15T06:23:14.643Z</time>
      </trkpt>
      <trkpt lat="37.393557" lon="-5.702478">
        <ele>151.826173</ele>
        <time>2020-08-15T06:23:17.618Z</time>
      </trkpt>
      <trkpt lat="37.393482" lon="-5.702573">
        <ele>151.947635</ele>
        <time>2020-08-15T06:23:20.615Z</time>
      </trkpt>
      <trkpt lat="37.393412" lon="-5.702653">
        <ele>152.055568</ele>
        <time>2020-08-15T06:23:24.634Z</time>
      </trkpt>
      <trkpt lat="37.393307" lon="-5.702778">
        <ele>152.220549</ele>
        <time>2020-08-15T06:23:27.626Z</time>
      </trkpt>
      <trkpt lat="37.393238" lon="-5.702860">
        <ele>152.328876</ele>
        <time>2020-08-15T06:23:30.627Z</time>
      </trkpt>
      <trkpt lat="37.393180" lon="-5.702948">
        <ele>152.432574</ele>
        <time>2020-08-15T06:23:33.645Z</time>
      </trkpt>
      <trkpt lat="37.393112" lon="-5.703035">
        <ele>152.500394</ele>
        <time>2020-08-15T06:23:36.634Z</time>
      </trkpt>
      <trkpt lat="37.393020" lon="-5.703128">
        <ele>152.449908</ele>
        <time>2020-08-15T06:23:39.628Z</time>
      </trkpt>
      <trkpt lat="37.392928" lon="-5.703224">
        <ele>152.398777</ele>
        <time>2020-08-15T06:23:42.619Z</time>
      </trkpt>
      <trkpt lat="37.392859" lon="-5.703313">
        <ele>152.356505</ele>
        <time>2020-08-15T06:23:45.648Z</time>
      </trkpt>
      <trkpt lat="37.392758" lon="-5.703426">
        <ele>152.298687</ele>
        <time>2020-08-15T06:23:48.651Z</time>
      </trkpt>
      <trkpt lat="37.392664" lon="-5.703515">
        <ele>152.248359</ele>
        <time>2020-08-15T06:23:51.629Z</time>
      </trkpt>
      <trkpt lat="37.392591" lon="-5.703608">
        <ele>152.203919</ele>
        <time>2020-08-15T06:23:54.627Z</time>
      </trkpt>
      <trkpt lat="37.392511" lon="-5.703720">
        <ele>152.152722</ele>
        <time>2020-08-15T06:23:57.634Z</time>
      </trkpt>
      <trkpt lat="37.392442" lon="-5.703801">
        <ele>152.112352</ele>
        <time>2020-08-15T06:23:59.652Z</time>
      </trkpt>
      <trkpt lat="37.392352" lon="-5.703900">
        <ele>152.061211</ele>
        <time>2020-08-15T06:24:01.610Z</time>
      </trkpt>
      <trkpt lat="37.392295" lon="-5.703990">
        <ele>152.022086</ele>
        <time>2020-08-15T06:24:03.626Z</time>
      </trkpt>
      <trkpt lat="37.392214" lon="-5.704078">
        <ele>151.976304</ele>
        <time>2020-08-15T06:24:06.640Z</time>
      </trkpt>
      <trkpt lat="37.392137" lon="-5.704173">
        <ele>151.930171</ele>
        <time>2020-08-15T06:24:08.625Z</time>
      </trkpt>
      <trkpt lat="37.392053" lon="-5.704281">
        <ele>151.878794</ele>
        <time>2020-08-15T06:24:11.633Z</time>
      </trkpt>
      <trkpt lat="37.391973" lon="-5.704362">
        <ele>151.834865</ele>
        <time>2020-08-15T06:24:14.634Z</time>
      </trkpt>
      <trkpt lat="37.391901" lon="-5.704446">
        <ele>151.792861</ele>
        <time>2020-08-15T06:24:17.630Z</time>
      </trkpt>
      <trkpt lat="37.391817" lon="-5.704539">
        <ele>151.744995</ele>
        <time>2020-08-15T06:24:21.640Z</time>
      </trkpt>
      <trkpt lat="37.391751" lon="-5.704629">
        <ele>151.954768</ele>
        <time>2020-08-15T06:24:23.643Z</time>
      </trkpt>
      <trkpt lat="37.391671" lon="-5.704722">
        <ele>152.207382</ele>
        <time>2020-08-15T06:24:26.634Z</time>
      </trkpt>
      <trkpt lat="37.391585" lon="-5.704806">
        <ele>152.459894</ele>
        <time>2020-08-15T06:24:29.654Z</time>
      </trkpt>
      <trkpt lat="37.391501" lon="-5.704900">
        <ele>152.720622</ele>
        <time>2020-08-15T06:24:32.632Z</time>
      </trkpt>
      <trkpt lat="37.391420" lon="-5.704988">
        <ele>152.968828</ele>
        <time>2020-08-15T06:24:35.647Z</time>
      </trkpt>
      <trkpt lat="37.391351" lon="-5.705077">
        <ele>153.198005</ele>
        <time>2020-08-15T06:24:38.609Z</time>
      </trkpt>
      <trkpt lat="37.391283" lon="-5.705169">
        <ele>153.429585</ele>
        <time>2020-08-15T06:24:41.627Z</time>
      </trkpt>
      <trkpt lat="37.391198" lon="-5.705249">
        <ele>153.675785</ele>
        <time>2020-08-15T06:24:44.633Z</time>
      </trkpt>
      <trkpt lat="37.391106" lon="-5.705324">
        <ele>153.930047</ele>
        <time>2020-08-15T06:24:47.615Z</time>
      </trkpt>
      <trkpt lat="37.391022" lon="-5.705405">
        <ele>154.175509</ele>
        <time>2020-08-15T06:24:50.627Z</time>
      </trkpt>
      <trkpt lat="37.390949" lon="-5.705490">
        <ele>154.406193</ele>
        <time>2020-08-15T06:24:53.618Z</time>
      </trkpt>
      <trkpt lat="37.390870" lon="-5.705579">
        <ele>154.652132</ele>
        <time>2020-08-15T06:24:56.637Z</time>
      </trkpt>
      <trkpt lat="37.390772" lon="-5.705657">
        <ele>154.921097</ele>
        <time>2020-08-15T06:24:59.618Z</time>
      </trkpt>
      <trkpt lat="37.390682" lon="-5.705745">
        <ele>155.185460</ele>
        <time>2020-08-15T06:25:02.607Z</time>
      </trkpt>
      <trkpt lat="37.390592" lon="-5.705832">
        <ele>155.448697</ele>
        <time>2020-08-15T06:25:05.630Z</time>
      </trkpt>
      <trkpt lat="37.390505" lon="-5.705908">
        <ele>155.694351</ele>
        <time>2020-08-15T06:25:08.628Z</time>
      </trkpt>
      <trkpt lat="37.390415" lon="-5.705987">
        <ele>155.909368</ele>
        <time>2020-08-15T06:25:11.628Z</time>
      </trkpt>
      <trkpt lat="37.390332" lon="-5.706063">
        <ele>155.871895</ele>
        <time>2020-08-15T06:25:14.598Z</time>
      </trkpt>
      <trkpt lat="37.390239" lon="-5.706133">
        <ele>155.832335</ele>
        <time>2020-08-15T06:25:17.604Z</time>
      </trkpt>
      <trkpt lat="37.390146" lon="-5.706205">
        <ele>155.792473</ele>
        <time>2020-08-15T06:25:20.609Z</time>
      </trkpt>
      <trkpt lat="37.390042" lon="-5.706269">
        <ele>155.750209</ele>
        <time>2020-08-15T06:25:23.615Z</time>
      </trkpt>
      <trkpt lat="37.389945" lon="-5.706341">
        <ele>155.709097</ele>
        <time>2020-08-15T06:25:26.606Z</time>
      </trkpt>
      <trkpt lat="37.389847" lon="-5.706422">
        <ele>155.666294</ele>
        <time>2020-08-15T06:25:29.608Z</time>
      </trkpt>
      <trkpt lat="37.389760" lon="-5.706520">
        <ele>155.623669</ele>
        <time>2020-08-15T06:25:32.604Z</time>
      </trkpt>
      <trkpt lat="37.389662" lon="-5.706623">
        <ele>155.577056</ele>
        <time>2020-08-15T06:25:35.649Z</time>
      </trkpt>
      <trkpt lat="37.389576" lon="-5.706677">
        <ele>155.541969</ele>
        <time>2020-08-15T06:25:37.607Z</time>
      </trkpt>
      <trkpt lat="37.389468" lon="-5.706776">
        <ele>155.493191</ele>
        <time>2020-08-15T06:25:40.614Z</time>
      </trkpt>
      <trkpt lat="37.389350" lon="-5.706863">
        <ele>155.443264</ele>
        <time>2020-08-15T06:25:43.609Z</time>
      </trkpt>
      <trkpt lat="37.389255" lon="-5.706966">
        <ele>155.397487</ele>
        <time>2020-08-15T06:25:46.635Z</time>
      </trkpt>
      <trkpt lat="37.389153" lon="-5.707060">
        <ele>155.351334</ele>
        <time>2020-08-15T06:25:49.616Z</time>
      </trkpt>
      <trkpt lat="37.389072" lon="-5.707147">
        <ele>155.312458</ele>
        <time>2020-08-15T06:25:52.632Z</time>
      </trkpt>
      <trkpt lat="37.388981" lon="-5.707220">
        <ele>155.273061</ele>
        <time>2020-08-15T06:25:55.598Z</time>
      </trkpt>
      <trkpt lat="37.388877" lon="-5.707303">
        <ele>155.393396</ele>
        <time>2020-08-15T06:25:58.619Z</time>
      </trkpt>
      <trkpt lat="37.388808" lon="-5.707378">
        <ele>155.543589</ele>
        <time>2020-08-15T06:26:00.610Z</time>
      </trkpt>
      <trkpt lat="37.388719" lon="-5.707505">
        <ele>155.765242</ele>
        <time>2020-08-15T06:26:03.620Z</time>
      </trkpt>
      <trkpt lat="37.388605" lon="-5.707549">
        <ele>155.961678</ele>
        <time>2020-08-15T06:26:05.610Z</time>
      </trkpt>
      <trkpt lat="37.388501" lon="-5.707637">
        <ele>156.168127</ele>
        <time>2020-08-15T06:26:08.626Z</time>
      </trkpt>
      <trkpt lat="37.388403" lon="-5.707708">
        <ele>156.354410</ele>
        <time>2020-08-15T06:26:10.610Z</time>
      </trkpt>
      <trkpt lat="37.388313" lon="-5.707771">
        <ele>156.524065</ele>
        <time>2020-08-15T06:26:12.624Z</time>
      </trkpt>
      <trkpt lat="37.388216" lon="-5.707815">
        <ele>156.693924</ele>
        <time>2020-08-15T06:26:14.626Z</time>
      </trkpt>
      <trkpt lat="37.388137" lon="-5.707869">
        <ele>156.842024</ele>
        <time>2020-08-15T06:26:16.632Z</time>
      </trkpt>
      <trkpt lat="37.388044" lon="-5.707970">
        <ele>157.044385</ele>
        <time>2020-08-15T06:26:19.616Z</time>
      </trkpt>
      <trkpt lat="37.387957" lon="-5.708049">
        <ele>157.221117</ele>
        <time>2020-08-15T06:26:21.627Z</time>
      </trkpt>
      <trkpt lat="37.387882" lon="-5.708148">
        <ele>157.400164</ele>
        <time>2020-08-15T06:26:23.634Z</time>
      </trkpt>
      <trkpt lat="37.387803" lon="-5.708221">
        <ele>157.561619</ele>
        <time>2020-08-15T06:26:25.624Z</time>
      </trkpt>
      <trkpt lat="37.387716" lon="-5.708315">
        <ele>157.750512</ele>
        <time>2020-08-15T06:26:27.621Z</time>
      </trkpt>
      <trkpt lat="37.387616" lon="-5.708394">
        <ele>157.945016</ele>
        <time>2020-08-15T06:26:29.632Z</time>
      </trkpt>
      <trkpt lat="37.387531" lon="-5.708487">
        <ele>158.130560</ele>
        <time>2020-08-15T06:26:31.637Z</time>
      </trkpt>
      <trkpt lat="37.387456" lon="-5.708582">
        <ele>157.991809</ele>
        <time>2020-08-15T06:26:33.601Z</time>
      </trkpt>
      <trkpt lat="37.387351" lon="-5.708653">
        <ele>157.459975</ele>
        <time>2020-08-15T06:26:35.631Z</time>
      </trkpt>
      <trkpt lat="37.387247" lon="-5.708716">
        <ele>156.944985</ele>
        <time>2020-08-15T06:26:37.627Z</time>
      </trkpt>
      <trkpt lat="37.387182" lon="-5.708801">
        <ele>156.526751</ele>
        <time>2020-08-15T06:26:40.633Z</time>
      </trkpt>
      <trkpt lat="37.387053" lon="-5.708888">
        <ele>155.873737</ele>
        <time>2020-08-15T06:26:41.635Z</time>
      </trkpt>
      <trkpt lat="37.386965" lon="-5.708969">
        <ele>155.387287</ele>
        <time>2020-08-15T06:26:43.610Z</time>
      </trkpt>
      <trkpt lat="37.386884" lon="-5.709051">
        <ele>154.923466</ele>
        <time>2020-08-15T06:26:45.620Z</time>
      </trkpt>
      <trkpt lat="37.386793" lon="-5.709128">
        <ele>154.434200</ele>
        <time>2020-08-15T06:26:47.608Z</time>
      </trkpt>
      <trkpt lat="37.386704" lon="-5.709210">
        <ele>153.942056</ele>
        <time>2020-08-15T06:26:49.638Z</time>
      </trkpt>
      <trkpt lat="37.386615" lon="-5.709288">
        <ele>153.458153</ele>
        <time>2020-08-15T06:26:51.634Z</time>
      </trkpt>
      <trkpt lat="37.386517" lon="-5.709351">
        <ele>152.967148</ele>
        <time>2020-08-15T06:26:53.607Z</time>
      </trkpt>
      <trkpt lat="37.386436" lon="-5.709428">
        <ele>152.514225</ele>
        <time>2020-08-15T06:26:55.630Z</time>
      </trkpt>
      <trkpt lat="37.386329" lon="-5.709514">
        <ele>151.947753</ele>
        <time>2020-08-15T06:26:58.629Z</time>
      </trkpt>
      <trkpt lat="37.386265" lon="-5.709602">
        <ele>151.524815</ele>
        <time>2020-08-15T06:27:00.638Z</time>
      </trkpt>
      <trkpt lat="37.386177" lon="-5.709695">
        <ele>151.012098</ele>
        <time>2020-08-15T06:27:03.634Z</time>
      </trkpt>
      <trkpt lat="37.386074" lon="-5.709778">
        <ele>150.466392</ele>
        <time>2020-08-15T06:27:05.638Z</time>
      </trkpt>
      <trkpt lat="37.386000" lon="-5.709858">
        <ele>150.208989</ele>
        <time>2020-08-15T06:27:07.615Z</time>
      </trkpt>
      <trkpt lat="37.385926" lon="-5.709934">
        <ele>150.243061</ele>
        <time>2020-08-15T06:27:09.636Z</time>
      </trkpt>
      <trkpt lat="37.385866" lon="-5.710027">
        <ele>150.277017</ele>
        <time>2020-08-15T06:27:11.625Z</time>
      </trkpt>
      <trkpt lat="37.385808" lon="-5.710120">
        <ele>150.310527</ele>
        <time>2020-08-15T06:27:13.627Z</time>
      </trkpt>
      <trkpt lat="37.385739" lon="-5.710206">
        <ele>150.345169</ele>
        <time>2020-08-15T06:27:15.635Z</time>
      </trkpt>
      <trkpt lat="37.385674" lon="-5.710296">
        <ele>150.379642</ele>
        <time>2020-08-15T06:27:17.637Z</time>
      </trkpt>
      <trkpt lat="37.385611" lon="-5.710389">
        <ele>150.414282</ele>
        <time>2020-08-15T06:27:19.632Z</time>
      </trkpt>
      <trkpt lat="37.385557" lon="-5.710501">
        <ele>150.451415</ele>
        <time>2020-08-15T06:27:21.636Z</time>
      </trkpt>
      <trkpt lat="37.385490" lon="-5.710612">
        <ele>150.490926</ele>
        <time>2020-08-15T06:27:23.626Z</time>
      </trkpt>
      <trkpt lat="37.385431" lon="-5.710700">
        <ele>150.523563</ele>
        <time>2020-08-15T06:27:25.616Z</time>
      </trkpt>
      <trkpt lat="37.385361" lon="-5.710812">
        <ele>150.563953</ele>
        <time>2020-08-15T06:27:27.632Z</time>
      </trkpt>
      <trkpt lat="37.385326" lon="-5.710942">
        <ele>150.602858</ele>
        <time>2020-08-15T06:27:29.618Z</time>
      </trkpt>
      <trkpt lat="37.385279" lon="-5.711060">
        <ele>150.640272</ele>
        <time>2020-08-15T06:27:31.633Z</time>
      </trkpt>
      <trkpt lat="37.385224" lon="-5.711177">
        <ele>150.678804</ele>
        <time>2020-08-15T06:27:33.616Z</time>
      </trkpt>
      <trkpt lat="37.385175" lon="-5.711285">
        <ele>150.714055</ele>
        <time>2020-08-15T06:27:35.635Z</time>
      </trkpt>
      <trkpt lat="37.385118" lon="-5.711408">
        <ele>150.754415</ele>
        <time>2020-08-15T06:27:37.642Z</time>
      </trkpt>
      <trkpt lat="37.385065" lon="-5.711529">
        <ele>150.793578</ele>
        <time>2020-08-15T06:27:39.609Z</time>
      </trkpt>
      <trkpt lat="37.385016" lon="-5.711657">
        <ele>150.833851</ele>
        <time>2020-08-15T06:27:41.608Z</time>
      </trkpt>
      <trkpt lat="37.384961" lon="-5.711772">
        <ele>150.696848</ele>
        <time>2020-08-15T06:27:43.608Z</time>
      </trkpt>
      <trkpt lat="37.384920" lon="-5.711907">
        <ele>150.529653</ele>
        <time>2020-08-15T06:27:45.635Z</time>
      </trkpt>
      <trkpt lat="37.384875" lon="-5.712027">
        <ele>150.376146</ele>
        <time>2020-08-15T06:27:47.610Z</time>
      </trkpt>
      <trkpt lat="37.384841" lon="-5.712153">
        <ele>150.222206</ele>
        <time>2020-08-15T06:27:49.605Z</time>
      </trkpt>
      <trkpt lat="37.384807" lon="-5.712277">
        <ele>150.070455</ele>
        <time>2020-08-15T06:27:51.623Z</time>
      </trkpt>
      <trkpt lat="37.384767" lon="-5.712409">
        <ele>149.907021</ele>
        <time>2020-08-15T06:27:53.645Z</time>
      </trkpt>
      <trkpt lat="37.384740" lon="-5.712540">
        <ele>149.750457</ele>
        <time>2020-08-15T06:27:55.642Z</time>
      </trkpt>
      <trkpt lat="37.384714" lon="-5.712679">
        <ele>149.585258</ele>
        <time>2020-08-15T06:27:57.605Z</time>
      </trkpt>
      <trkpt lat="37.384688" lon="-5.712798">
        <ele>149.442482</ele>
        <time>2020-08-15T06:27:59.590Z</time>
      </trkpt>
      <trkpt lat="37.384664" lon="-5.712914">
        <ele>149.303812</ele>
        <time>2020-08-15T06:28:01.629Z</time>
      </trkpt>
      <trkpt lat="37.384632" lon="-5.713044">
        <ele>149.146368</ele>
        <time>2020-08-15T06:28:03.609Z</time>
      </trkpt>
      <trkpt lat="37.384602" lon="-5.713171">
        <ele>148.993092</ele>
        <time>2020-08-15T06:28:05.607Z</time>
      </trkpt>
      <trkpt lat="37.384562" lon="-5.713286">
        <ele>148.847864</ele>
        <time>2020-08-15T06:28:07.607Z</time>
      </trkpt>
      <trkpt lat="37.384519" lon="-5.713418">
        <ele>148.682823</ele>
        <time>2020-08-15T06:28:09.619Z</time>
      </trkpt>
      <trkpt lat="37.384469" lon="-5.713527">
        <ele>148.537221</ele>
        <time>2020-08-15T06:28:11.618Z</time>
      </trkpt>
      <trkpt lat="37.384421" lon="-5.713635">
        <ele>148.394062</ele>
        <time>2020-08-15T06:28:13.623Z</time>
      </trkpt>
      <trkpt lat="37.384369" lon="-5.713748">
        <ele>148.242996</ele>
        <time>2020-08-15T06:28:15.592Z</time>
      </trkpt>
      <trkpt lat="37.384321" lon="-5.713862">
        <ele>148.280501</ele>
        <time>2020-08-15T06:28:17.634Z</time>
      </trkpt>
      <trkpt lat="37.384252" lon="-5.713985">
        <ele>148.366601</ele>
        <time>2020-08-15T06:28:21.638Z</time>
      </trkpt>
      <trkpt lat="37.384179" lon="-5.714106">
        <ele>148.453478</ele>
        <time>2020-08-15T06:28:23.634Z</time>
      </trkpt>
      <trkpt lat="37.384105" lon="-5.714213">
        <ele>148.534596</ele>
        <time>2020-08-15T06:28:25.631Z</time>
      </trkpt>
      <trkpt lat="37.384049" lon="-5.714311">
        <ele>148.603624</ele>
        <time>2020-08-15T06:28:28.637Z</time>
      </trkpt>
      <trkpt lat="37.383970" lon="-5.714381">
        <ele>148.673156</ele>
        <time>2020-08-15T06:28:31.625Z</time>
      </trkpt>
      <trkpt lat="37.383912" lon="-5.714469">
        <ele>148.738537</ele>
        <time>2020-08-15T06:28:34.638Z</time>
      </trkpt>
      <trkpt lat="37.383826" lon="-5.714567">
        <ele>148.822031</ele>
        <time>2020-08-15T06:28:37.630Z</time>
      </trkpt>
      <trkpt lat="37.383719" lon="-5.714671">
        <ele>148.919328</ele>
        <time>2020-08-15T06:28:40.632Z</time>
      </trkpt>
      <trkpt lat="37.383642" lon="-5.714742">
        <ele>148.988025</ele>
        <time>2020-08-15T06:28:42.623Z</time>
      </trkpt>
      <trkpt lat="37.383565" lon="-5.714808">
        <ele>149.055072</ele>
        <time>2020-08-15T06:28:44.613Z</time>
      </trkpt>
      <trkpt lat="37.383458" lon="-5.714893">
        <ele>149.146135</ele>
        <time>2020-08-15T06:28:47.612Z</time>
      </trkpt>
      <trkpt lat="37.383362" lon="-5.714982">
        <ele>149.231946</ele>
        <time>2020-08-15T06:28:50.611Z</time>
      </trkpt>
      <trkpt lat="37.383260" lon="-5.715066">
        <ele>149.319673</ele>
        <time>2020-08-15T06:28:53.610Z</time>
      </trkpt>
      <trkpt lat="37.383178" lon="-5.715114">
        <ele>149.384757</ele>
        <time>2020-08-15T06:28:55.628Z</time>
      </trkpt>
      <trkpt lat="37.383092" lon="-5.715159">
        <ele>149.451786</ele>
        <time>2020-08-15T06:28:57.602Z</time>
      </trkpt>
      <trkpt lat="37.382962" lon="-5.715217">
        <ele>149.619231</ele>
        <time>2020-08-15T06:29:00.615Z</time>
      </trkpt>
      <trkpt lat="37.382828" lon="-5.715273">
        <ele>149.903722</ele>
        <time>2020-08-15T06:29:03.608Z</time>
      </trkpt>
      <trkpt lat="37.382745" lon="-5.715335">
        <ele>150.098198</ele>
        <time>2020-08-15T06:29:05.604Z</time>
      </trkpt>
      <trkpt lat="37.382648" lon="-5.715397">
        <ele>150.317405</ele>
        <time>2020-08-15T06:29:07.615Z</time>
      </trkpt>
      <trkpt lat="37.382524" lon="-5.715474">
        <ele>150.596009</ele>
        <time>2020-08-15T06:29:10.625Z</time>
      </trkpt>
      <trkpt lat="37.382441" lon="-5.715524">
        <ele>150.781417</ele>
        <time>2020-08-15T06:29:12.610Z</time>
      </trkpt>
      <trkpt lat="37.382330" lon="-5.715567">
        <ele>151.015425</ele>
        <time>2020-08-15T06:29:16.627Z</time>
      </trkpt>
      <trkpt lat="37.382160" lon="-5.715608">
        <ele>151.364188</ele>
        <time>2020-08-15T06:29:19.639Z</time>
      </trkpt>
      <trkpt lat="37.382049" lon="-5.715641">
        <ele>151.593996</ele>
        <time>2020-08-15T06:29:21.610Z</time>
      </trkpt>
      <trkpt lat="37.381962" lon="-5.715675">
        <ele>151.777549</ele>
        <time>2020-08-15T06:29:23.625Z</time>
      </trkpt>
      <trkpt lat="37.381846" lon="-5.715689">
        <ele>152.012348</ele>
        <time>2020-08-15T06:29:25.627Z</time>
      </trkpt>
      <trkpt lat="37.381642" lon="-5.715731">
        <ele>152.428848</ele>
        <time>2020-08-15T06:29:29.629Z</time>
      </trkpt>
      <trkpt lat="37.381551" lon="-5.715726">
        <ele>152.612377</ele>
        <time>2020-08-15T06:29:31.626Z</time>
      </trkpt>
      <trkpt lat="37.381432" lon="-5.715698">
        <ele>152.856303</ele>
        <time>2020-08-15T06:29:34.632Z</time>
      </trkpt>
      <trkpt lat="37.381314" lon="-5.715667">
        <ele>153.099185</ele>
        <time>2020-08-15T06:29:38.628Z</time>
      </trkpt>
      <trkpt lat="37.381222" lon="-5.715629">
        <ele>152.772115</ele>
        <time>2020-08-15T06:29:39.634Z</time>
      </trkpt>
      <trkpt lat="37.381102" lon="-5.715611">
        <ele>152.206075</ele>
        <time>2020-08-15T06:29:41.614Z</time>
      </trkpt>
      <trkpt lat="37.381012" lon="-5.715572">
        <ele>151.760239</ele>
        <time>2020-08-15T06:29:43.629Z</time>
      </trkpt>
      <trkpt lat="37.380919" lon="-5.715541">
        <ele>151.309621</ele>
        <time>2020-08-15T06:29:45.638Z</time>
      </trkpt>
      <trkpt lat="37.380809" lon="-5.715518">
        <ele>150.787335</ele>
        <time>2020-08-15T06:29:47.630Z</time>
      </trkpt>
      <trkpt lat="37.380712" lon="-5.715499">
        <ele>150.327532</ele>
        <time>2020-08-15T06:29:49.624Z</time>
      </trkpt>
      <trkpt lat="37.380578" lon="-5.715462">
        <ele>149.684968</ele>
        <time>2020-08-15T06:29:52.630Z</time>
      </trkpt>
      <trkpt lat="37.380481" lon="-5.715420">
        <ele>149.204495</ele>
        <time>2020-08-15T06:29:54.606Z</time>
      </trkpt>
      <trkpt lat="37.380391" lon="-5.715392">
        <ele>148.770259</ele>
        <time>2020-08-15T06:29:56.619Z</time>
      </trkpt>
      <trkpt lat="37.380276" lon="-5.715363">
        <ele>148.220910</ele>
        <time>2020-08-15T06:29:59.638Z</time>
      </trkpt>
      <trkpt lat="37.380158" lon="-5.715333">
        <ele>147.657050</ele>
        <time>2020-08-15T06:30:02.634Z</time>
      </trkpt>
      <trkpt lat="37.380034" lon="-5.715285">
        <ele>147.049399</ele>
        <time>2020-08-15T06:30:04.624Z</time>
      </trkpt>
      <trkpt lat="37.379950" lon="-5.715243">
        <ele>146.626039</ele>
        <time>2020-08-15T06:30:06.616Z</time>
      </trkpt>
      <trkpt lat="37.379851" lon="-5.715194">
        <ele>146.127764</ele>
        <time>2020-08-15T06:30:09.649Z</time>
      </trkpt>
      <trkpt lat="37.379723" lon="-5.715134">
        <ele>145.487993</ele>
        <time>2020-08-15T06:30:12.633Z</time>
      </trkpt>
      <trkpt lat="37.379628" lon="-5.715106">
        <ele>145.030987</ele>
        <time>2020-08-15T06:30:14.637Z</time>
      </trkpt>
      <trkpt lat="37.379528" lon="-5.715064">
        <ele>144.670172</ele>
        <time>2020-08-15T06:30:16.616Z</time>
      </trkpt>
      <trkpt lat="37.379435" lon="-5.715031">
        <ele>144.560568</ele>
        <time>2020-08-15T06:30:18.640Z</time>
      </trkpt>
      <trkpt lat="37.379336" lon="-5.714981">
        <ele>144.439565</ele>
        <time>2020-08-15T06:30:20.619Z</time>
      </trkpt>
      <trkpt lat="37.379231" lon="-5.714953">
        <ele>144.317818</ele>
        <time>2020-08-15T06:30:22.620Z</time>
      </trkpt>
      <trkpt lat="37.379114" lon="-5.714917">
        <ele>144.181194</ele>
        <time>2020-08-15T06:30:24.640Z</time>
      </trkpt>
      <trkpt lat="37.379008" lon="-5.714887">
        <ele>144.057954</ele>
        <time>2020-08-15T06:30:26.648Z</time>
      </trkpt>
      <trkpt lat="37.378883" lon="-5.714859">
        <ele>143.913937</ele>
        <time>2020-08-15T06:30:28.614Z</time>
      </trkpt>
      <trkpt lat="37.378763" lon="-5.714812">
        <ele>143.771380</ele>
        <time>2020-08-15T06:30:30.628Z</time>
      </trkpt>
      <trkpt lat="37.378629" lon="-5.714766">
        <ele>143.613829</ele>
        <time>2020-08-15T06:30:32.628Z</time>
      </trkpt>
      <trkpt lat="37.378497" lon="-5.714714">
        <ele>143.456935</ele>
        <time>2020-08-15T06:30:34.628Z</time>
      </trkpt>
      <trkpt lat="37.378354" lon="-5.714669">
        <ele>143.289734</ele>
        <time>2020-08-15T06:30:36.638Z</time>
      </trkpt>
      <trkpt lat="37.378213" lon="-5.714623">
        <ele>143.124510</ele>
        <time>2020-08-15T06:30:38.613Z</time>
      </trkpt>
      <trkpt lat="37.378074" lon="-5.714576">
        <ele>142.961249</ele>
        <time>2020-08-15T06:30:40.610Z</time>
      </trkpt>
      <trkpt lat="37.377940" lon="-5.714514">
        <ele>142.799303</ele>
        <time>2020-08-15T06:30:42.622Z</time>
      </trkpt>
      <trkpt lat="37.377800" lon="-5.714455">
        <ele>142.677221</ele>
        <time>2020-08-15T06:30:44.630Z</time>
      </trkpt>
      <trkpt lat="37.377661" lon="-5.714405">
        <ele>142.696500</ele>
        <time>2020-08-15T06:30:46.619Z</time>
      </trkpt>
      <trkpt lat="37.377538" lon="-5.714356">
        <ele>142.713704</ele>
        <time>2020-08-15T06:30:48.646Z</time>
      </trkpt>
      <trkpt lat="37.377404" lon="-5.714314">
        <ele>142.732120</ele>
        <time>2020-08-15T06:30:50.632Z</time>
      </trkpt>
      <trkpt lat="37.377288" lon="-5.714271">
        <ele>142.748246</ele>
        <time>2020-08-15T06:30:52.634Z</time>
      </trkpt>
      <trkpt lat="37.377173" lon="-5.714234">
        <ele>142.764075</ele>
        <time>2020-08-15T06:30:54.631Z</time>
      </trkpt>
      <trkpt lat="37.377057" lon="-5.714181">
        <ele>142.780532</ele>
        <time>2020-08-15T06:30:56.632Z</time>
      </trkpt>
      <trkpt lat="37.376945" lon="-5.714145">
        <ele>142.795947</ele>
        <time>2020-08-15T06:30:58.630Z</time>
      </trkpt>
      <trkpt lat="37.376830" lon="-5.714079">
        <ele>142.812802</ele>
        <time>2020-08-15T06:31:00.637Z</time>
      </trkpt>
      <trkpt lat="37.376692" lon="-5.714041">
        <ele>142.831640</ele>
        <time>2020-08-15T06:31:02.615Z</time>
      </trkpt>
      <trkpt lat="37.376565" lon="-5.714004">
        <ele>142.849024</ele>
        <time>2020-08-15T06:31:04.610Z</time>
      </trkpt>
      <trkpt lat="37.376453" lon="-5.713995">
        <ele>142.863990</ele>
        <time>2020-08-15T06:31:06.609Z</time>
      </trkpt>
      <trkpt lat="37.376306" lon="-5.713954">
        <ele>142.884069</ele>
        <time>2020-08-15T06:31:08.616Z</time>
      </trkpt>
      <trkpt lat="37.376180" lon="-5.713927">
        <ele>142.901113</ele>
        <time>2020-08-15T06:31:10.633Z</time>
      </trkpt>
      <trkpt lat="37.376053" lon="-5.713898">
        <ele>142.942671</ele>
        <time>2020-08-15T06:31:12.610Z</time>
      </trkpt>
      <trkpt lat="37.375940" lon="-5.713891">
        <ele>143.018729</ele>
        <time>2020-08-15T06:31:14.633Z</time>
      </trkpt>
      <trkpt lat="37.375826" lon="-5.713870">
        <ele>143.096184</ele>
        <time>2020-08-15T06:31:16.634Z</time>
      </trkpt>
      <trkpt lat="37.375716" lon="-5.713869">
        <ele>143.170135</ele>
        <time>2020-08-15T06:31:18.630Z</time>
      </trkpt>
      <trkpt lat="37.375610" lon="-5.713844">
        <ele>143.242636</ele>
        <time>2020-08-15T06:31:20.624Z</time>
      </trkpt>
      <trkpt lat="37.375495" lon="-5.713832">
        <ele>143.320212</ele>
        <time>2020-08-15T06:31:22.628Z</time>
      </trkpt>
      <trkpt lat="37.375386" lon="-5.713827">
        <ele>143.393538</ele>
        <time>2020-08-15T06:31:24.629Z</time>
      </trkpt>
      <trkpt lat="37.375281" lon="-5.713828">
        <ele>143.464128</ele>
        <time>2020-08-15T06:31:26.619Z</time>
      </trkpt>
      <trkpt lat="37.375176" lon="-5.713833">
        <ele>143.534766</ele>
        <time>2020-08-15T06:31:28.608Z</time>
      </trkpt>
      <trkpt lat="37.375075" lon="-5.713823">
        <ele>143.602875</ele>
        <time>2020-08-15T06:31:30.629Z</time>
      </trkpt>
      <trkpt lat="37.374977" lon="-5.713819">
        <ele>143.668792</ele>
        <time>2020-08-15T06:31:32.605Z</time>
      </trkpt>
      <trkpt lat="37.374881" lon="-5.713818">
        <ele>143.733331</ele>
        <time>2020-08-15T06:31:34.615Z</time>
      </trkpt>
      <trkpt lat="37.374790" lon="-5.713817">
        <ele>143.794510</ele>
        <time>2020-08-15T06:31:36.610Z</time>
      </trkpt>
      <trkpt lat="37.374673" lon="-5.713854">
        <ele>143.875611</ele>
        <time>2020-08-15T06:31:39.613Z</time>
      </trkpt>
      <trkpt lat="37.374543" lon="-5.713896">
        <ele>143.965840</ele>
        <time>2020-08-15T06:31:42.623Z</time>
      </trkpt>
      <trkpt lat="37.374447" lon="-5.713893">
        <ele>144.030397</ele>
        <time>2020-08-15T06:31:44.634Z</time>
      </trkpt>
      <trkpt lat="37.374357" lon="-5.713898">
        <ele>144.090960</ele>
        <time>2020-08-15T06:31:46.614Z</time>
      </trkpt>
      <trkpt lat="37.374226" lon="-5.713904">
        <ele>144.074030</ele>
        <time>2020-08-15T06:31:49.614Z</time>
      </trkpt>
      <trkpt lat="37.374100" lon="-5.713945">
        <ele>144.001996</ele>
        <time>2020-08-15T06:31:52.625Z</time>
      </trkpt>
      <trkpt lat="37.374002" lon="-5.713952">
        <ele>143.947666</ele>
        <time>2020-08-15T06:31:54.617Z</time>
      </trkpt>
      <trkpt lat="37.373872" lon="-5.713981">
        <ele>143.874590</ele>
        <time>2020-08-15T06:31:57.623Z</time>
      </trkpt>
      <trkpt lat="37.373779" lon="-5.714007">
        <ele>143.821860</ele>
        <time>2020-08-15T06:31:59.632Z</time>
      </trkpt>
      <trkpt lat="37.373685" lon="-5.714039">
        <ele>143.767961</ele>
        <time>2020-08-15T06:32:01.628Z</time>
      </trkpt>
      <trkpt lat="37.373592" lon="-5.714052">
        <ele>143.716170</ele>
        <time>2020-08-15T06:32:03.642Z</time>
      </trkpt>
      <trkpt lat="37.373489" lon="-5.714063">
        <ele>143.658955</ele>
        <time>2020-08-15T06:32:05.628Z</time>
      </trkpt>
      <trkpt lat="37.373392" lon="-5.714088">
        <ele>143.604151</ele>
        <time>2020-08-15T06:32:07.619Z</time>
      </trkpt>
      <trkpt lat="37.373297" lon="-5.714124">
        <ele>143.549237</ele>
        <time>2020-08-15T06:32:09.631Z</time>
      </trkpt>
      <trkpt lat="37.373204" lon="-5.714165">
        <ele>143.494694</ele>
        <time>2020-08-15T06:32:11.622Z</time>
      </trkpt>
      <trkpt lat="37.373109" lon="-5.714186">
        <ele>143.441307</ele>
        <time>2020-08-15T06:32:13.636Z</time>
      </trkpt>
      <trkpt lat="37.373004" lon="-5.714221">
        <ele>143.381186</ele>
        <time>2020-08-15T06:32:15.609Z</time>
      </trkpt>
      <trkpt lat="37.372918" lon="-5.714270">
        <ele>143.328933</ele>
        <time>2020-08-15T06:32:17.609Z</time>
      </trkpt>
      <trkpt lat="37.372798" lon="-5.714347">
        <ele>143.254377</ele>
        <time>2020-08-15T06:32:20.612Z</time>
      </trkpt>
      <trkpt lat="37.372704" lon="-5.714374">
        <ele>143.201010</ele>
        <time>2020-08-15T06:32:22.651Z</time>
      </trkpt>
      <trkpt lat="37.372615" lon="-5.714428">
        <ele>143.146322</ele>
        <time>2020-08-15T06:32:24.625Z</time>
      </trkpt>
      <trkpt lat="37.372528" lon="-5.714473">
        <ele>143.014213</ele>
        <time>2020-08-15T06:32:26.631Z</time>
      </trkpt>
      <trkpt lat="37.372420" lon="-5.714538">
        <ele>142.780481</ele>
        <time>2020-08-15T06:32:29.621Z</time>
      </trkpt>
      <trkpt lat="37.372332" lon="-5.714577">
        <ele>142.598330</ele>
        <time>2020-08-15T06:32:31.635Z</time>
      </trkpt>
      <trkpt lat="37.372246" lon="-5.714630">
        <ele>142.411372</ele>
        <time>2020-08-15T06:32:33.608Z</time>
      </trkpt>
      <trkpt lat="37.372162" lon="-5.714683">
        <ele>142.227912</ele>
        <time>2020-08-15T06:32:35.606Z</time>
      </trkpt>
      <trkpt lat="37.372075" lon="-5.714742">
        <ele>142.034960</ele>
        <time>2020-08-15T06:32:37.606Z</time>
      </trkpt>
      <trkpt lat="37.371980" lon="-5.714812">
        <ele>141.820027</ele>
        <time>2020-08-15T06:32:39.618Z</time>
      </trkpt>
      <trkpt lat="37.371891" lon="-5.714880">
        <ele>141.616744</ele>
        <time>2020-08-15T06:32:41.624Z</time>
      </trkpt>
      <trkpt lat="37.371803" lon="-5.714936">
        <ele>141.424216</ele>
        <time>2020-08-15T06:32:43.627Z</time>
      </trkpt>
      <trkpt lat="37.371725" lon="-5.715011">
        <ele>141.232561</ele>
        <time>2020-08-15T06:32:45.606Z</time>
      </trkpt>
      <trkpt lat="37.371643" lon="-5.715094">
        <ele>141.027100</ele>
        <time>2020-08-15T06:32:47.627Z</time>
      </trkpt>
      <trkpt lat="37.371550" lon="-5.715196">
        <ele>140.786241</ele>
        <time>2020-08-15T06:32:49.607Z</time>
      </trkpt>
      <trkpt lat="37.371459" lon="-5.715262">
        <ele>140.581177</ele>
        <time>2020-08-15T06:32:51.616Z</time>
      </trkpt>
      <trkpt lat="37.371378" lon="-5.715336">
        <ele>140.385751</ele>
        <time>2020-08-15T06:32:53.615Z</time>
      </trkpt>
      <trkpt lat="37.371307" lon="-5.715424">
        <ele>140.191182</ele>
        <time>2020-08-15T06:32:55.605Z</time>
      </trkpt>
      <trkpt lat="37.371226" lon="-5.715502">
        <ele>139.992046</ele>
        <time>2020-08-15T06:32:57.612Z</time>
      </trkpt>
      <trkpt lat="37.371133" lon="-5.715568">
        <ele>139.783590</ele>
        <time>2020-08-15T06:32:59.631Z</time>
      </trkpt>
      <trkpt lat="37.371051" lon="-5.715644">
        <ele>139.588520</ele>
        <time>2020-08-15T06:33:01.610Z</time>
      </trkpt>
      <trkpt lat="37.370976" lon="-5.715709">
        <ele>139.433340</ele>
        <time>2020-08-15T06:33:03.629Z</time>
      </trkpt>
      <trkpt lat="37.370904" lon="-5.715785">
        <ele>139.273199</ele>
        <time>2020-08-15T06:33:05.630Z</time>
      </trkpt>
      <trkpt lat="37.370831" lon="-5.715873">
        <ele>139.100935</ele>
        <time>2020-08-15T06:33:07.612Z</time>
      </trkpt>
      <trkpt lat="37.370783" lon="-5.715977">
        <ele>138.938069</ele>
        <time>2020-08-15T06:33:09.610Z</time>
      </trkpt>
      <trkpt lat="37.370712" lon="-5.716063">
        <ele>138.770139</ele>
        <time>2020-08-15T06:33:11.625Z</time>
      </trkpt>
      <trkpt lat="37.370652" lon="-5.716175">
        <ele>138.587225</ele>
        <time>2020-08-15T06:33:13.611Z</time>
      </trkpt>
      <trkpt lat="37.370585" lon="-5.716258">
        <ele>138.427012</ele>
        <time>2020-08-15T06:33:15.643Z</time>
      </trkpt>
      <trkpt lat="37.370498" lon="-5.716364">
        <ele>138.220655</ele>
        <time>2020-08-15T06:33:18.632Z</time>
      </trkpt>
      <trkpt lat="37.370416" lon="-5.716468">
        <ele>138.022263</ele>
        <time>2020-08-15T06:33:21.610Z</time>
      </trkpt>
      <trkpt lat="37.370331" lon="-5.716593">
        <ele>137.799477</ele>
        <time>2020-08-15T06:33:24.632Z</time>
      </trkpt>
      <trkpt lat="37.370252" lon="-5.716704">
        <ele>137.597692</ele>
        <time>2020-08-15T06:33:27.610Z</time>
      </trkpt>
      <trkpt lat="37.370195" lon="-5.716844">
        <ele>137.384669</ele>
        <time>2020-08-15T06:33:30.613Z</time>
      </trkpt>
      <trkpt lat="37.370125" lon="-5.716979">
        <ele>137.166379</ele>
        <time>2020-08-15T06:33:33.609Z</time>
      </trkpt>
      <trkpt lat="37.370064" lon="-5.717121">
        <ele>136.947784</ele>
        <time>2020-08-15T06:33:36.633Z</time>
      </trkpt>
      <trkpt lat="37.370039" lon="-5.717272">
        <ele>136.738906</ele>
        <time>2020-08-15T06:33:39.603Z</time>
      </trkpt>
      <trkpt lat="37.369967" lon="-5.717418">
        <ele>136.448526</ele>
        <time>2020-08-15T06:33:42.614Z</time>
      </trkpt>
      <trkpt lat="37.369893" lon="-5.717530">
        <ele>135.988090</ele>
        <time>2020-08-15T06:33:44.636Z</time>
      </trkpt>
      <trkpt lat="37.369840" lon="-5.717637">
        <ele>135.589516</ele>
        <time>2020-08-15T06:33:46.617Z</time>
      </trkpt>
      <trkpt lat="37.369768" lon="-5.717774">
        <ele>135.070294</ele>
        <time>2020-08-15T06:33:49.609Z</time>
      </trkpt>
      <trkpt lat="37.369718" lon="-5.717884">
        <ele>134.669698</ele>
        <time>2020-08-15T06:33:51.620Z</time>
      </trkpt>
      <trkpt lat="37.369663" lon="-5.717981">
        <ele>134.293012</ele>
        <time>2020-08-15T06:33:53.627Z</time>
      </trkpt>
      <trkpt lat="37.369619" lon="-5.718086">
        <ele>133.917764</ele>
        <time>2020-08-15T06:33:55.619Z</time>
      </trkpt>
      <trkpt lat="37.369553" lon="-5.718195">
        <ele>133.484571</ele>
        <time>2020-08-15T06:33:57.622Z</time>
      </trkpt>
      <trkpt lat="37.369501" lon="-5.718294">
        <ele>133.109430</ele>
        <time>2020-08-15T06:33:59.618Z</time>
      </trkpt>
      <trkpt lat="37.369455" lon="-5.718400">
        <ele>132.727634</ele>
        <time>2020-08-15T06:34:01.614Z</time>
      </trkpt>
      <trkpt lat="37.369396" lon="-5.718512">
        <ele>132.302855</ele>
        <time>2020-08-15T06:34:03.624Z</time>
      </trkpt>
      <trkpt lat="37.369343" lon="-5.718621">
        <ele>131.898900</ele>
        <time>2020-08-15T06:34:05.610Z</time>
      </trkpt>
      <trkpt lat="37.369314" lon="-5.718730">
        <ele>131.535526</ele>
        <time>2020-08-15T06:34:07.632Z</time>
      </trkpt>
      <trkpt lat="37.369255" lon="-5.718832">
        <ele>131.136713</ele>
        <time>2020-08-15T06:34:09.634Z</time>
      </trkpt>
      <trkpt lat="37.369203" lon="-5.718973">
        <ele>130.645319</ele>
        <time>2020-08-15T06:34:12.648Z</time>
      </trkpt>
      <trkpt lat="37.369127" lon="-5.719115">
        <ele>130.104114</ele>
        <time>2020-08-15T06:34:15.611Z</time>
      </trkpt>
      <trkpt lat="37.369064" lon="-5.719251">
        <ele>129.606477</ele>
        <time>2020-08-15T06:34:18.614Z</time>
      </trkpt>
      <trkpt lat="37.369006" lon="-5.719382">
        <ele>129.458026</ele>
        <time>2020-08-15T06:34:21.608Z</time>
      </trkpt>
      <trkpt lat="37.368952" lon="-5.719525">
        <ele>129.578371</ele>
        <time>2020-08-15T06:34:24.618Z</time>
      </trkpt>
      <trkpt lat="37.368904" lon="-5.719659">
        <ele>129.690096</ele>
        <time>2020-08-15T06:34:27.621Z</time>
      </trkpt>
      <trkpt lat="37.368854" lon="-5.719798">
        <ele>129.806073</ele>
        <time>2020-08-15T06:34:30.611Z</time>
      </trkpt>
      <trkpt lat="37.368811" lon="-5.719924">
        <ele>129.910306</ele>
        <time>2020-08-15T06:34:33.607Z</time>
      </trkpt>
      <trkpt lat="37.368766" lon="-5.720061">
        <ele>130.022988</ele>
        <time>2020-08-15T06:34:36.626Z</time>
      </trkpt>
      <trkpt lat="37.368708" lon="-5.720201">
        <ele>130.142998</ele>
        <time>2020-08-15T06:34:39.628Z</time>
      </trkpt>
      <trkpt lat="37.368668" lon="-5.720344">
        <ele>130.258233</ele>
        <time>2020-08-15T06:34:42.605Z</time>
      </trkpt>
      <trkpt lat="37.368623" lon="-5.720491">
        <ele>130.377975</ele>
        <time>2020-08-15T06:34:45.640Z</time>
      </trkpt>
      <trkpt lat="37.368581" lon="-5.720617">
        <ele>130.481835</ele>
        <time>2020-08-15T06:34:48.629Z</time>
      </trkpt>
      <trkpt lat="37.368558" lon="-5.720737">
        <ele>130.575666</ele>
        <time>2020-08-15T06:34:51.625Z</time>
      </trkpt>
      <trkpt lat="37.368535" lon="-5.720860">
        <ele>130.671715</ele>
        <time>2020-08-15T06:34:54.616Z</time>
      </trkpt>
      <trkpt lat="37.368509" lon="-5.720992">
        <ele>130.775089</ele>
        <time>2020-08-15T06:34:57.608Z</time>
      </trkpt>
      <trkpt lat="37.368486" lon="-5.721127">
        <ele>130.880038</ele>
        <time>2020-08-15T06:35:00.614Z</time>
      </trkpt>
      <trkpt lat="37.368465" lon="-5.721258">
        <ele>130.981622</ele>
        <time>2020-08-15T06:35:03.618Z</time>
      </trkpt>
      <trkpt lat="37.368441" lon="-5.721392">
        <ele>131.086034</ele>
        <time>2020-08-15T06:35:06.622Z</time>
      </trkpt>
      <trkpt lat="37.368417" lon="-5.721526">
        <ele>131.206207</ele>
        <time>2020-08-15T06:35:09.630Z</time>
      </trkpt>
      <trkpt lat="37.368395" lon="-5.721664">
        <ele>131.335609</ele>
        <time>2020-08-15T06:35:12.645Z</time>
      </trkpt>
      <trkpt lat="37.368378" lon="-5.721807">
        <ele>131.468543</ele>
        <time>2020-08-15T06:35:15.627Z</time>
      </trkpt>
      <trkpt lat="37.368369" lon="-5.721953">
        <ele>131.603176</ele>
        <time>2020-08-15T06:35:18.610Z</time>
      </trkpt>
      <trkpt lat="37.368369" lon="-5.722097">
        <ele>131.735566</ele>
        <time>2020-08-15T06:35:21.620Z</time>
      </trkpt>
      <trkpt lat="37.368371" lon="-5.722254">
        <ele>131.879928</ele>
        <time>2020-08-15T06:35:24.617Z</time>
      </trkpt>
      <trkpt lat="37.368368" lon="-5.722414">
        <ele>132.027069</ele>
        <time>2020-08-15T06:35:27.619Z</time>
      </trkpt>
      <trkpt lat="37.368368" lon="-5.722563">
        <ele>132.164057</ele>
        <time>2020-08-15T06:35:30.606Z</time>
      </trkpt>
      <trkpt lat="37.368366" lon="-5.722711">
        <ele>132.300145</ele>
        <time>2020-08-15T06:35:33.641Z</time>
      </trkpt>
      <trkpt lat="37.368362" lon="-5.722870">
        <ele>132.446400</ele>
        <time>2020-08-15T06:35:36.620Z</time>
      </trkpt>
      <trkpt lat="37.368358" lon="-5.723015">
        <ele>132.579790</ele>
        <time>2020-08-15T06:35:39.633Z</time>
      </trkpt>
      <trkpt lat="37.368360" lon="-5.723165">
        <ele>132.717716</ele>
        <time>2020-08-15T06:35:42.604Z</time>
      </trkpt>
      <trkpt lat="37.368358" lon="-5.723311">
        <ele>132.851966</ele>
        <time>2020-08-15T06:35:45.614Z</time>
      </trkpt>
      <trkpt lat="37.368350" lon="-5.723457">
        <ele>132.986514</ele>
        <time>2020-08-15T06:35:48.624Z</time>
      </trkpt>
      <trkpt lat="37.368343" lon="-5.723592">
        <ele>133.110894</ele>
        <time>2020-08-15T06:35:51.608Z</time>
      </trkpt>
      <trkpt lat="37.368331" lon="-5.723722">
        <ele>133.151567</ele>
        <time>2020-08-15T06:35:54.633Z</time>
      </trkpt>
      <trkpt lat="37.368322" lon="-5.723857">
        <ele>132.995077</ele>
        <time>2020-08-15T06:35:57.613Z</time>
      </trkpt>
      <trkpt lat="37.368323" lon="-5.723996">
        <ele>132.834508</ele>
        <time>2020-08-15T06:36:00.633Z</time>
      </trkpt>
      <trkpt lat="37.368323" lon="-5.724138">
        <ele>132.670480</ele>
        <time>2020-08-15T06:36:03.604Z</time>
      </trkpt>
      <trkpt lat="37.368325" lon="-5.724279">
        <ele>132.507581</ele>
        <time>2020-08-15T06:36:06.635Z</time>
      </trkpt>
      <trkpt lat="37.368321" lon="-5.724421">
        <ele>132.343450</ele>
        <time>2020-08-15T06:36:09.629Z</time>
      </trkpt>
      <trkpt lat="37.368314" lon="-5.724580">
        <ele>132.159503</ele>
        <time>2020-08-15T06:36:12.633Z</time>
      </trkpt>
      <trkpt lat="37.368309" lon="-5.724738">
        <ele>131.976848</ele>
        <time>2020-08-15T06:36:15.615Z</time>
      </trkpt>
      <trkpt lat="37.368316" lon="-5.724865">
        <ele>131.829795</ele>
        <time>2020-08-15T06:36:18.639Z</time>
      </trkpt>
      <trkpt lat="37.368313" lon="-5.725043">
        <ele>131.624136</ele>
        <time>2020-08-15T06:36:20.635Z</time>
      </trkpt>
      <trkpt lat="37.368299" lon="-5.725202">
        <ele>131.439346</ele>
        <time>2020-08-15T06:36:22.633Z</time>
      </trkpt>
      <trkpt lat="37.368290" lon="-5.725335">
        <ele>131.285159</ele>
        <time>2020-08-15T06:36:24.631Z</time>
      </trkpt>
      <trkpt lat="37.368282" lon="-5.725490">
        <ele>131.105737</ele>
        <time>2020-08-15T06:36:26.649Z</time>
      </trkpt>
      <trkpt lat="37.368272" lon="-5.725639">
        <ele>130.933010</ele>
        <time>2020-08-15T06:36:29.606Z</time>
      </trkpt>
      <trkpt lat="37.368271" lon="-5.725788">
        <ele>130.760889</ele>
        <time>2020-08-15T06:36:31.629Z</time>
      </trkpt>
      <trkpt lat="37.368256" lon="-5.725931">
        <ele>130.594274</ele>
        <time>2020-08-15T06:36:33.637Z</time>
      </trkpt>
      <trkpt lat="37.368253" lon="-5.726075">
        <ele>130.543643</ele>
        <time>2020-08-15T06:36:35.618Z</time>
      </trkpt>
      <trkpt lat="37.368257" lon="-5.726203">
        <ele>130.507044</ele>
        <time>2020-08-15T06:36:37.598Z</time>
      </trkpt>
      <trkpt lat="37.368254" lon="-5.726323">
        <ele>130.472742</ele>
        <time>2020-08-15T06:36:39.604Z</time>
      </trkpt>
      <trkpt lat="37.368235" lon="-5.726489">
        <ele>130.424826</ele>
        <time>2020-08-15T06:36:42.620Z</time>
      </trkpt>
      <trkpt lat="37.368242" lon="-5.726610">
        <ele>130.390164</ele>
        <time>2020-08-15T06:36:44.603Z</time>
      </trkpt>
      <trkpt lat="37.368230" lon="-5.726749">
        <ele>130.350217</ele>
        <time>2020-08-15T06:36:46.606Z</time>
      </trkpt>
      <trkpt lat="37.368229" lon="-5.726889">
        <ele>130.310217</ele>
        <time>2020-08-15T06:36:49.595Z</time>
      </trkpt>
      <trkpt lat="37.368241" lon="-5.727037">
        <ele>130.267713</ele>
        <time>2020-08-15T06:36:52.635Z</time>
      </trkpt>
      <trkpt lat="37.368245" lon="-5.727243">
        <ele>130.208840</ele>
        <time>2020-08-15T06:36:54.628Z</time>
      </trkpt>
      <trkpt lat="37.368239" lon="-5.727367">
        <ele>130.173346</ele>
        <time>2020-08-15T06:36:56.623Z</time>
      </trkpt>
      <trkpt lat="37.368234" lon="-5.727485">
        <ele>130.139585</ele>
        <time>2020-08-15T06:36:58.640Z</time>
      </trkpt>
      <trkpt lat="37.368234" lon="-5.727607">
        <ele>130.104729</ele>
        <time>2020-08-15T06:37:00.600Z</time>
      </trkpt>
      <trkpt lat="37.368230" lon="-5.727770">
        <ele>130.058137</ele>
        <time>2020-08-15T06:37:03.632Z</time>
      </trkpt>
      <trkpt lat="37.368233" lon="-5.727922">
        <ele>130.014696</ele>
        <time>2020-08-15T06:37:07.627Z</time>
      </trkpt>
      <trkpt lat="37.368229" lon="-5.728051">
        <ele>129.977812</ele>
        <time>2020-08-15T06:37:09.630Z</time>
      </trkpt>
      <trkpt lat="37.368191" lon="-5.728189">
        <ele>129.936085</ele>
        <time>2020-08-15T06:37:12.602Z</time>
      </trkpt>
      <trkpt lat="37.368197" lon="-5.728302">
        <ele>130.323284</ele>
        <time>2020-08-15T06:37:15.607Z</time>
      </trkpt>
      <trkpt lat="37.368208" lon="-5.728443">
        <ele>130.824350</ele>
        <time>2020-08-15T06:37:19.647Z</time>
      </trkpt>
      <trkpt lat="37.368197" lon="-5.728588">
        <ele>131.339498</ele>
        <time>2020-08-15T06:37:22.636Z</time>
      </trkpt>
      <trkpt lat="37.368181" lon="-5.728744">
        <ele>131.895793</ele>
        <time>2020-08-15T06:37:25.629Z</time>
      </trkpt>
      <trkpt lat="37.368156" lon="-5.728898">
        <ele>132.451685</ele>
        <time>2020-08-15T06:37:28.619Z</time>
      </trkpt>
      <trkpt lat="37.368152" lon="-5.729032">
        <ele>132.925933</ele>
        <time>2020-08-15T06:37:31.645Z</time>
      </trkpt>
      <trkpt lat="37.368161" lon="-5.729179">
        <ele>133.447363</ele>
        <time>2020-08-15T06:37:35.650Z</time>
      </trkpt>
      <trkpt lat="37.368172" lon="-5.729321">
        <ele>133.951950</ele>
        <time>2020-08-15T06:37:39.635Z</time>
      </trkpt>
      <trkpt lat="37.368166" lon="-5.729455">
        <ele>134.426615</ele>
        <time>2020-08-15T06:37:42.636Z</time>
      </trkpt>
      <trkpt lat="37.368152" lon="-5.729601">
        <ele>134.946713</ele>
        <time>2020-08-15T06:37:45.618Z</time>
      </trkpt>
      <trkpt lat="37.368148" lon="-5.729723">
        <ele>135.378554</ele>
        <time>2020-08-15T06:37:48.631Z</time>
      </trkpt>
      <trkpt lat="37.368152" lon="-5.729852">
        <ele>135.835131</ele>
        <time>2020-08-15T06:37:51.630Z</time>
      </trkpt>
      <trkpt lat="37.368147" lon="-5.729983">
        <ele>136.298968</ele>
        <time>2020-08-15T06:37:54.611Z</time>
      </trkpt>
      <trkpt lat="37.368149" lon="-5.730118">
        <ele>136.776501</ele>
        <time>2020-08-15T06:37:57.615Z</time>
      </trkpt>
      <trkpt lat="37.368148" lon="-5.730269">
        <ele>137.310557</ele>
        <time>2020-08-15T06:38:00.615Z</time>
      </trkpt>
      <trkpt lat="37.368138" lon="-5.730411">
        <ele>137.814731</ele>
        <time>2020-08-15T06:38:03.611Z</time>
      </trkpt>
      <trkpt lat="37.368131" lon="-5.730554">
        <ele>137.953384</ele>
        <time>2020-08-15T06:38:06.612Z</time>
      </trkpt>
      <trkpt lat="37.368124" lon="-5.730702">
        <ele>137.972977</ele>
        <time>2020-08-15T06:38:09.623Z</time>
      </trkpt>
      <trkpt lat="37.368119" lon="-5.730852">
        <ele>137.992817</ele>
        <time>2020-08-15T06:38:12.625Z</time>
      </trkpt>
      <trkpt lat="37.368116" lon="-5.730998">
        <ele>138.012118</ele>
        <time>2020-08-15T06:38:15.601Z</time>
      </trkpt>
      <trkpt lat="37.368108" lon="-5.731141">
        <ele>138.031062</ele>
        <time>2020-08-15T06:38:18.616Z</time>
      </trkpt>
      <trkpt lat="37.368102" lon="-5.731287">
        <ele>138.050382</ele>
        <time>2020-08-15T06:38:21.622Z</time>
      </trkpt>
      <trkpt lat="37.368102" lon="-5.731418">
        <ele>138.067694</ele>
        <time>2020-08-15T06:38:24.613Z</time>
      </trkpt>
      <trkpt lat="37.368103" lon="-5.731561">
        <ele>138.086593</ele>
        <time>2020-08-15T06:38:28.628Z</time>
      </trkpt>
      <trkpt lat="37.368103" lon="-5.731699">
        <ele>138.104830</ele>
        <time>2020-08-15T06:38:32.627Z</time>
      </trkpt>
      <trkpt lat="37.368096" lon="-5.731848">
        <ele>138.124555</ele>
        <time>2020-08-15T06:38:36.625Z</time>
      </trkpt>
      <trkpt lat="37.368103" lon="-5.731973">
        <ele>138.141115</ele>
        <time>2020-08-15T06:38:39.638Z</time>
      </trkpt>
      <trkpt lat="37.368099" lon="-5.732102">
        <ele>138.158176</ele>
        <time>2020-08-15T06:38:42.642Z</time>
      </trkpt>
      <trkpt lat="37.368093" lon="-5.732231">
        <ele>138.175253</ele>
        <time>2020-08-15T06:38:45.616Z</time>
      </trkpt>
      <trkpt lat="37.368083" lon="-5.732350">
        <ele>138.191067</ele>
        <time>2020-08-15T06:38:48.636Z</time>
      </trkpt>
      <trkpt lat="37.368069" lon="-5.732495">
        <ele>138.210370</ele>
        <time>2020-08-15T06:38:51.633Z</time>
      </trkpt>
      <trkpt lat="37.368053" lon="-5.732664">
        <ele>138.232861</ele>
        <time>2020-08-15T06:38:54.612Z</time>
      </trkpt>
      <trkpt lat="37.368049" lon="-5.732835">
        <ele>138.303504</ele>
        <time>2020-08-15T06:38:57.609Z</time>
      </trkpt>
      <trkpt lat="37.368074" lon="-5.732988">
        <ele>138.381491</ele>
        <time>2020-08-15T06:39:00.645Z</time>
      </trkpt>
      <trkpt lat="37.368074" lon="-5.733101">
        <ele>138.437909</ele>
        <time>2020-08-15T06:39:02.632Z</time>
      </trkpt>
      <trkpt lat="37.368071" lon="-5.733227">
        <ele>138.500846</ele>
        <time>2020-08-15T06:39:04.631Z</time>
      </trkpt>
      <trkpt lat="37.368054" lon="-5.733414">
        <ele>138.594819</ele>
        <time>2020-08-15T06:39:07.617Z</time>
      </trkpt>
      <trkpt lat="37.368045" lon="-5.733560">
        <ele>138.667932</ele>
        <time>2020-08-15T06:39:09.611Z</time>
      </trkpt>
      <trkpt lat="37.368053" lon="-5.733688">
        <ele>138.732036</ele>
        <time>2020-08-15T06:39:11.618Z</time>
      </trkpt>
      <trkpt lat="37.368046" lon="-5.733853">
        <ele>138.814534</ele>
        <time>2020-08-15T06:39:14.619Z</time>
      </trkpt>
      <trkpt lat="37.368038" lon="-5.734034">
        <ele>138.905042</ele>
        <time>2020-08-15T06:39:18.645Z</time>
      </trkpt>
      <trkpt lat="37.368022" lon="-5.734147">
        <ele>138.962349</ele>
        <time>2020-08-15T06:39:19.631Z</time>
      </trkpt>
      <trkpt lat="37.368041" lon="-5.734302">
        <ele>139.040651</ele>
        <time>2020-08-15T06:39:22.611Z</time>
      </trkpt>
      <trkpt lat="37.368042" lon="-5.734457">
        <ele>139.118042</ele>
        <time>2020-08-15T06:39:25.637Z</time>
      </trkpt>
      <trkpt lat="37.368034" lon="-5.734608">
        <ele>139.193599</ele>
        <time>2020-08-15T06:39:28.640Z</time>
      </trkpt>
      <trkpt lat="37.368022" lon="-5.734751">
        <ele>139.265393</ele>
        <time>2020-08-15T06:39:31.627Z</time>
      </trkpt>
      <trkpt lat="37.368019" lon="-5.734914">
        <ele>139.346796</ele>
        <time>2020-08-15T06:39:34.629Z</time>
      </trkpt>
      <trkpt lat="37.368011" lon="-5.735057">
        <ele>139.181958</ele>
        <time>2020-08-15T06:39:38.640Z</time>
      </trkpt>
      <trkpt lat="37.367986" lon="-5.735254">
        <ele>138.813045</ele>
        <time>2020-08-15T06:39:41.624Z</time>
      </trkpt>
      <trkpt lat="37.367987" lon="-5.735395">
        <ele>138.552294</ele>
        <time>2020-08-15T06:39:44.628Z</time>
      </trkpt>
      <trkpt lat="37.367997" lon="-5.735534">
        <ele>138.294200</ele>
        <time>2020-08-15T06:39:47.634Z</time>
      </trkpt>
      <trkpt lat="37.367997" lon="-5.735663">
        <ele>138.055650</ele>
        <time>2020-08-15T06:39:50.610Z</time>
      </trkpt>
      <trkpt lat="37.368002" lon="-5.735805">
        <ele>137.792802</ele>
        <time>2020-08-15T06:39:53.631Z</time>
      </trkpt>
      <trkpt lat="37.367989" lon="-5.735930">
        <ele>137.559678</ele>
        <time>2020-08-15T06:39:56.597Z</time>
      </trkpt>
      <trkpt lat="37.367986" lon="-5.736055">
        <ele>137.328420</ele>
        <time>2020-08-15T06:39:59.630Z</time>
      </trkpt>
      <trkpt lat="37.367984" lon="-5.736175">
        <ele>137.106464</ele>
        <time>2020-08-15T06:40:02.619Z</time>
      </trkpt>
      <trkpt lat="37.367985" lon="-5.736313">
        <ele>136.851260</ele>
        <time>2020-08-15T06:40:05.644Z</time>
      </trkpt>
      <trkpt lat="37.367982" lon="-5.736452">
        <ele>136.594122</ele>
        <time>2020-08-15T06:40:08.614Z</time>
      </trkpt>
      <trkpt lat="37.367987" lon="-5.736587">
        <ele>136.344206</ele>
        <time>2020-08-15T06:40:11.618Z</time>
      </trkpt>
      <trkpt lat="37.367968" lon="-5.736716">
        <ele>136.101593</ele>
        <time>2020-08-15T06:40:14.607Z</time>
      </trkpt>
      <trkpt lat="37.367943" lon="-5.736842">
        <ele>135.861439</ele>
        <time>2020-08-15T06:40:17.609Z</time>
      </trkpt>
      <trkpt lat="37.367929" lon="-5.736971">
        <ele>135.620675</ele>
        <time>2020-08-15T06:40:20.619Z</time>
      </trkpt>
      <trkpt lat="37.367910" lon="-5.737099">
        <ele>135.379881</ele>
        <time>2020-08-15T06:40:24.629Z</time>
      </trkpt>
      <trkpt lat="37.367889" lon="-5.737230">
        <ele>135.185709</ele>
        <time>2020-08-15T06:40:27.616Z</time>
      </trkpt>
      <trkpt lat="37.367863" lon="-5.737382">
        <ele>135.200962</ele>
        <time>2020-08-15T06:40:30.630Z</time>
      </trkpt>
      <trkpt lat="37.367843" lon="-5.737540">
        <ele>135.216657</ele>
        <time>2020-08-15T06:40:33.625Z</time>
      </trkpt>
      <trkpt lat="37.367824" lon="-5.737655">
        <ele>135.228180</ele>
        <time>2020-08-15T06:40:36.644Z</time>
      </trkpt>
      <trkpt lat="37.367800" lon="-5.737779">
        <ele>135.240700</ele>
        <time>2020-08-15T06:40:40.628Z</time>
      </trkpt>
      <trkpt lat="37.367775" lon="-5.737905">
        <ele>135.253440</ele>
        <time>2020-08-15T06:40:43.626Z</time>
      </trkpt>
      <trkpt lat="37.367755" lon="-5.738023">
        <ele>135.265276</ele>
        <time>2020-08-15T06:40:46.638Z</time>
      </trkpt>
      <trkpt lat="37.367726" lon="-5.738156">
        <ele>135.278806</ele>
        <time>2020-08-15T06:40:49.612Z</time>
      </trkpt>
      <trkpt lat="37.367705" lon="-5.738278">
        <ele>135.291052</ele>
        <time>2020-08-15T06:40:52.648Z</time>
      </trkpt>
      <trkpt lat="37.367681" lon="-5.738400">
        <ele>135.303381</ele>
        <time>2020-08-15T06:40:55.641Z</time>
      </trkpt>
      <trkpt lat="37.367658" lon="-5.738519">
        <ele>135.315395</ele>
        <time>2020-08-15T06:40:58.634Z</time>
      </trkpt>
      <trkpt lat="37.367634" lon="-5.738666">
        <ele>135.330117</ele>
        <time>2020-08-15T06:41:02.618Z</time>
      </trkpt>
      <trkpt lat="37.367611" lon="-5.738777">
        <ele>135.341371</ele>
        <time>2020-08-15T06:41:05.607Z</time>
      </trkpt>
      <trkpt lat="37.367595" lon="-5.738905">
        <ele>135.354082</ele>
        <time>2020-08-15T06:41:08.623Z</time>
      </trkpt>
      <trkpt lat="37.367580" lon="-5.739035">
        <ele>135.366969</ele>
        <time>2020-08-15T06:41:11.612Z</time>
      </trkpt>
      <trkpt lat="37.367555" lon="-5.739169">
        <ele>135.380472</ele>
        <time>2020-08-15T06:41:14.621Z</time>
      </trkpt>
      <trkpt lat="37.367527" lon="-5.739292">
        <ele>135.393023</ele>
        <time>2020-08-15T06:41:17.633Z</time>
      </trkpt>
      <trkpt lat="37.367517" lon="-5.739423">
        <ele>135.419509</ele>
        <time>2020-08-15T06:41:20.600Z</time>
      </trkpt>
      <trkpt lat="37.367503" lon="-5.739539">
        <ele>135.609286</ele>
        <time>2020-08-15T06:41:24.630Z</time>
      </trkpt>
      <trkpt lat="37.367462" lon="-5.739689">
        <ele>135.865853</ele>
        <time>2020-08-15T06:41:27.629Z</time>
      </trkpt>
      <trkpt lat="37.367435" lon="-5.739855">
        <ele>136.139918</ele>
        <time>2020-08-15T06:41:29.638Z</time>
      </trkpt>
      <trkpt lat="37.367408" lon="-5.739968">
        <ele>136.330772</ele>
        <time>2020-08-15T06:41:31.630Z</time>
      </trkpt>
      <trkpt lat="37.367377" lon="-5.740086">
        <ele>136.531790</ele>
        <time>2020-08-15T06:41:33.639Z</time>
      </trkpt>
      <trkpt lat="37.367349" lon="-5.740209">
        <ele>136.738739</ele>
        <time>2020-08-15T06:41:35.628Z</time>
      </trkpt>
      <trkpt lat="37.367322" lon="-5.740348">
        <ele>136.970184</ele>
        <time>2020-08-15T06:41:38.638Z</time>
      </trkpt>
      <trkpt lat="37.367311" lon="-5.740466">
        <ele>137.162354</ele>
        <time>2020-08-15T06:41:41.610Z</time>
      </trkpt>
      <trkpt lat="37.367288" lon="-5.740596">
        <ele>137.377772</ele>
        <time>2020-08-15T06:41:44.630Z</time>
      </trkpt>
      <trkpt lat="37.367244" lon="-5.740718">
        <ele>137.594470</ele>
        <time>2020-08-15T06:41:47.630Z</time>
      </trkpt>
      <trkpt lat="37.367197" lon="-5.740862">
        <ele>137.846262</ele>
        <time>2020-08-15T06:41:50.616Z</time>
      </trkpt>
      <trkpt lat="37.367170" lon="-5.741027">
        <ele>138.118743</ele>
        <time>2020-08-15T06:41:53.637Z</time>
      </trkpt>
      <trkpt lat="37.367157" lon="-5.741195">
        <ele>138.391763</ele>
        <time>2020-08-15T06:41:56.639Z</time>
      </trkpt>
      <trkpt lat="37.367152" lon="-5.741327">
        <ele>138.605511</ele>
        <time>2020-08-15T06:41:58.612Z</time>
      </trkpt>
      <trkpt lat="37.367136" lon="-5.741446">
        <ele>138.800725</ele>
        <time>2020-08-15T06:42:00.616Z</time>
      </trkpt>
      <trkpt lat="37.367105" lon="-5.741552">
        <ele>138.983416</ele>
        <time>2020-08-15T06:42:02.615Z</time>
      </trkpt>
      <trkpt lat="37.367085" lon="-5.741663">
        <ele>139.063794</ele>
        <time>2020-08-15T06:42:04.615Z</time>
      </trkpt>
      <trkpt lat="37.367067" lon="-5.741785">
        <ele>139.060265</ele>
        <time>2020-08-15T06:42:07.630Z</time>
      </trkpt>
      <trkpt lat="37.367053" lon="-5.741921">
        <ele>139.056364</ele>
        <time>2020-08-15T06:42:09.632Z</time>
      </trkpt>
      <trkpt lat="37.367026" lon="-5.742086">
        <ele>139.051572</ele>
        <time>2020-08-15T06:42:11.624Z</time>
      </trkpt>
      <trkpt lat="37.366983" lon="-5.742225">
        <ele>139.047329</ele>
        <time>2020-08-15T06:42:13.645Z</time>
      </trkpt>
      <trkpt lat="37.366952" lon="-5.742346">
        <ele>139.043712</ele>
        <time>2020-08-15T06:42:15.641Z</time>
      </trkpt>
      <trkpt lat="37.366903" lon="-5.742492">
        <ele>139.039204</ele>
        <time>2020-08-15T06:42:17.629Z</time>
      </trkpt>
      <trkpt lat="37.366863" lon="-5.742626">
        <ele>139.035132</ele>
        <time>2020-08-15T06:42:19.607Z</time>
      </trkpt>
      <trkpt lat="37.366830" lon="-5.742759">
        <ele>139.031169</ele>
        <time>2020-08-15T06:42:21.629Z</time>
      </trkpt>
      <trkpt lat="37.366774" lon="-5.742902">
        <ele>139.026634</ele>
        <time>2020-08-15T06:42:23.630Z</time>
      </trkpt>
      <trkpt lat="37.366732" lon="-5.743015">
        <ele>139.023085</ele>
        <time>2020-08-15T06:42:27.633Z</time>
      </trkpt>
      <trkpt lat="37.366641" lon="-5.743202">
        <ele>139.016848</ele>
        <time>2020-08-15T06:42:29.647Z</time>
      </trkpt>
      <trkpt lat="37.366568" lon="-5.743318">
        <ele>139.012639</ele>
        <time>2020-08-15T06:42:30.619Z</time>
      </trkpt>
      <trkpt lat="37.366507" lon="-5.743440">
        <ele>139.008539</ele>
        <time>2020-08-15T06:42:32.635Z</time>
      </trkpt>
      <trkpt lat="37.366435" lon="-5.743568">
        <ele>139.004078</ele>
        <time>2020-08-15T06:42:34.633Z</time>
      </trkpt>
      <trkpt lat="37.366353" lon="-5.743678">
        <ele>138.939509</ele>
        <time>2020-08-15T06:42:36.625Z</time>
      </trkpt>
      <trkpt lat="37.366258" lon="-5.743775">
        <ele>138.749508</ele>
        <time>2020-08-15T06:42:38.632Z</time>
      </trkpt>
      <trkpt lat="37.366172" lon="-5.743871">
        <ele>138.570965</ele>
        <time>2020-08-15T06:42:40.617Z</time>
      </trkpt>
      <trkpt lat="37.366079" lon="-5.743981">
        <ele>138.372740</ele>
        <time>2020-08-15T06:42:42.642Z</time>
      </trkpt>
      <trkpt lat="37.365985" lon="-5.744069">
        <ele>138.190783</ele>
        <time>2020-08-15T06:42:44.625Z</time>
      </trkpt>
      <trkpt lat="37.365900" lon="-5.744167">
        <ele>138.011740</ele>
        <time>2020-08-15T06:42:46.621Z</time>
      </trkpt>
      <trkpt lat="37.365817" lon="-5.744260">
        <ele>137.839139</ele>
        <time>2020-08-15T06:42:48.622Z</time>
      </trkpt>
      <trkpt lat="37.365747" lon="-5.744366">
        <ele>137.669035</ele>
        <time>2020-08-15T06:42:50.634Z</time>
      </trkpt>
      <trkpt lat="37.365670" lon="-5.744454">
        <ele>137.507489</ele>
        <time>2020-08-15T06:42:52.641Z</time>
      </trkpt>
      <trkpt lat="37.365608" lon="-5.744550">
        <ele>137.354809</ele>
        <time>2020-08-15T06:42:54.636Z</time>
      </trkpt>
      <trkpt lat="37.365569" lon="-5.744656">
        <ele>137.210635</ele>
        <time>2020-08-15T06:42:56.638Z</time>
      </trkpt>
      <trkpt lat="37.365494" lon="-5.744771">
        <ele>137.027021</ele>
        <time>2020-08-15T06:42:58.628Z</time>
      </trkpt>
      <trkpt lat="37.365397" lon="-5.744850">
        <ele>136.847576</ele>
        <time>2020-08-15T06:43:00.608Z</time>
      </trkpt>
      <trkpt lat="37.365293" lon="-5.744934">
        <ele>136.655650</ele>
        <time>2020-08-15T06:43:02.637Z</time>
      </trkpt>
      <trkpt lat="37.365188" lon="-5.744976">
        <ele>136.484543</ele>
        <time>2020-08-15T06:43:04.624Z</time>
      </trkpt>
      <trkpt lat="37.365092" lon="-5.744998">
        <ele>136.333003</ele>
        <time>2020-08-15T06:43:06.606Z</time>
      </trkpt>
      <trkpt lat="37.364992" lon="-5.745001">
        <ele>136.177254</ele>
        <time>2020-08-15T06:43:08.610Z</time>
      </trkpt>
      <trkpt lat="37.364866" lon="-5.744975">
        <ele>135.976307</ele>
        <time>2020-08-15T06:43:10.601Z</time>
      </trkpt>
      <trkpt lat="37.364763" lon="-5.744963">
        <ele>135.813514</ele>
        <time>2020-08-15T06:43:12.627Z</time>
      </trkpt>
      <trkpt lat="37.364660" lon="-5.744931">
        <ele>135.646545</ele>
        <time>2020-08-15T06:43:14.631Z</time>
      </trkpt>
      <trkpt lat="37.364545" lon="-5.744898">
        <ele>135.460911</ele>
        <time>2020-08-15T06:43:16.637Z</time>
      </trkpt>
      <trkpt lat="37.364448" lon="-5.744905">
        <ele>135.308003</ele>
        <time>2020-08-15T06:43:18.629Z</time>
      </trkpt>
      <trkpt lat="37.364332" lon="-5.744857">
        <ele>135.115824</ele>
        <time>2020-08-15T06:43:20.618Z</time>
      </trkpt>
      <trkpt lat="37.364221" lon="-5.744829">
        <ele>134.937657</ele>
        <time>2020-08-15T06:43:22.635Z</time>
      </trkpt>
      <trkpt lat="37.364103" lon="-5.744803">
        <ele>134.749123</ele>
        <time>2020-08-15T06:43:24.614Z</time>
      </trkpt>
      <trkpt lat="37.363976" lon="-5.744770">
        <ele>134.545034</ele>
        <time>2020-08-15T06:43:26.632Z</time>
      </trkpt>
      <trkpt lat="37.363849" lon="-5.744747">
        <ele>134.343103</ele>
        <time>2020-08-15T06:43:28.631Z</time>
      </trkpt>
      <trkpt lat="37.363718" lon="-5.744712">
        <ele>134.132340</ele>
        <time>2020-08-15T06:43:30.627Z</time>
      </trkpt>
      <trkpt lat="37.363594" lon="-5.744678">
        <ele>133.932609</ele>
        <time>2020-08-15T06:43:32.630Z</time>
      </trkpt>
      <trkpt lat="37.363454" lon="-5.744648">
        <ele>133.709106</ele>
        <time>2020-08-15T06:43:34.607Z</time>
      </trkpt>
      <trkpt lat="37.363317" lon="-5.744634">
        <ele>133.492787</ele>
        <time>2020-08-15T06:43:36.611Z</time>
      </trkpt>
      <trkpt lat="37.363189" lon="-5.744609">
        <ele>133.321830</ele>
        <time>2020-08-15T06:43:38.619Z</time>
      </trkpt>
      <trkpt lat="37.363065" lon="-5.744612">
        <ele>133.199363</ele>
        <time>2020-08-15T06:43:40.612Z</time>
      </trkpt>
      <trkpt lat="37.362943" lon="-5.744619">
        <ele>133.078768</ele>
        <time>2020-08-15T06:43:42.618Z</time>
      </trkpt>
      <trkpt lat="37.362823" lon="-5.744652">
        <ele>132.957476</ele>
        <time>2020-08-15T06:43:44.642Z</time>
      </trkpt>
      <trkpt lat="37.362682" lon="-5.744669">
        <ele>132.817607</ele>
        <time>2020-08-15T06:43:46.595Z</time>
      </trkpt>
      <trkpt lat="37.362544" lon="-5.744693">
        <ele>132.680042</ele>
        <time>2020-08-15T06:43:48.629Z</time>
      </trkpt>
      <trkpt lat="37.362414" lon="-5.744732">
        <ele>132.548074</ele>
        <time>2020-08-15T06:43:50.610Z</time>
      </trkpt>
      <trkpt lat="37.362288" lon="-5.744767">
        <ele>132.420658</ele>
        <time>2020-08-15T06:43:52.607Z</time>
      </trkpt>
      <trkpt lat="37.362182" lon="-5.744814">
        <ele>132.309678</ele>
        <time>2020-08-15T06:43:54.627Z</time>
      </trkpt>
      <trkpt lat="37.362078" lon="-5.744846">
        <ele>132.203956</ele>
        <time>2020-08-15T06:43:56.605Z</time>
      </trkpt>
      <trkpt lat="37.361968" lon="-5.744893">
        <ele>132.089243</ele>
        <time>2020-08-15T06:43:58.599Z</time>
      </trkpt>
      <trkpt lat="37.361860" lon="-5.744936">
        <ele>131.977386</ele>
        <time>2020-08-15T06:44:00.630Z</time>
      </trkpt>
      <trkpt lat="37.361738" lon="-5.745011">
        <ele>131.843304</ele>
        <time>2020-08-15T06:44:02.610Z</time>
      </trkpt>
      <trkpt lat="37.361610" lon="-5.745070">
        <ele>131.708694</ele>
        <time>2020-08-15T06:44:04.634Z</time>
      </trkpt>
      <trkpt lat="37.361498" lon="-5.745162">
        <ele>131.550673</ele>
        <time>2020-08-15T06:44:06.631Z</time>
      </trkpt>
      <trkpt lat="37.361373" lon="-5.745237">
        <ele>131.269391</ele>
        <time>2020-08-15T06:44:08.622Z</time>
      </trkpt>
      <trkpt lat="37.361240" lon="-5.745305">
        <ele>130.977800</ele>
        <time>2020-08-15T06:44:10.610Z</time>
      </trkpt>
      <trkpt lat="37.361119" lon="-5.745397">
        <ele>130.690643</ele>
        <time>2020-08-15T06:44:12.612Z</time>
      </trkpt>
      <trkpt lat="37.361012" lon="-5.745510">
        <ele>130.406899</ele>
        <time>2020-08-15T06:44:14.613Z</time>
      </trkpt>
      <trkpt lat="37.360920" lon="-5.745613">
        <ele>130.156765</ele>
        <time>2020-08-15T06:44:16.623Z</time>
      </trkpt>
      <trkpt lat="37.360817" lon="-5.745718">
        <ele>129.887507</ele>
        <time>2020-08-15T06:44:18.636Z</time>
      </trkpt>
      <trkpt lat="37.360692" lon="-5.745817">
        <ele>129.587501</ele>
        <time>2020-08-15T06:44:20.626Z</time>
      </trkpt>
      <trkpt lat="37.360585" lon="-5.745899">
        <ele>129.333029</ele>
        <time>2020-08-15T06:44:22.628Z</time>
      </trkpt>
      <trkpt lat="37.360464" lon="-5.745975">
        <ele>129.058340</ele>
        <time>2020-08-15T06:44:24.619Z</time>
      </trkpt>
      <trkpt lat="37.360358" lon="-5.746076">
        <ele>128.788266</ele>
        <time>2020-08-15T06:44:26.631Z</time>
      </trkpt>
      <trkpt lat="37.360246" lon="-5.746156">
        <ele>128.526677</ele>
        <time>2020-08-15T06:44:28.631Z</time>
      </trkpt>
      <trkpt lat="37.360132" lon="-5.746249">
        <ele>128.250714</ele>
        <time>2020-08-15T06:44:30.624Z</time>
      </trkpt>
      <trkpt lat="37.360034" lon="-5.746355">
        <ele>127.988216</ele>
        <time>2020-08-15T06:44:32.631Z</time>
      </trkpt>
      <trkpt lat="37.359931" lon="-5.746456">
        <ele>127.601056</ele>
        <time>2020-08-15T06:44:34.632Z</time>
      </trkpt>
      <trkpt lat="37.359829" lon="-5.746566">
        <ele>127.180295</ele>
        <time>2020-08-15T06:44:36.637Z</time>
      </trkpt>
      <trkpt lat="37.359716" lon="-5.746669">
        <ele>126.743260</ele>
        <time>2020-08-15T06:44:38.632Z</time>
      </trkpt>
      <trkpt lat="37.359596" lon="-5.746772">
        <ele>126.288290</ele>
        <time>2020-08-15T06:44:40.618Z</time>
      </trkpt>
      <trkpt lat="37.359480" lon="-5.746883">
        <ele>125.831838</ele>
        <time>2020-08-15T06:44:42.630Z</time>
      </trkpt>
      <trkpt lat="37.359378" lon="-5.746992">
        <ele>125.412691</ele>
        <time>2020-08-15T06:44:44.631Z</time>
      </trkpt>
      <trkpt lat="37.359244" lon="-5.747080">
        <ele>124.939273</ele>
        <time>2020-08-15T06:44:46.630Z</time>
      </trkpt>
      <trkpt lat="37.359127" lon="-5.747173">
        <ele>124.505824</ele>
        <time>2020-08-15T06:44:48.626Z</time>
      </trkpt>
      <trkpt lat="37.359014" lon="-5.747286">
        <ele>124.053732</ele>
        <time>2020-08-15T06:44:50.626Z</time>
      </trkpt>
      <trkpt lat="37.358898" lon="-5.747387">
        <ele>123.611905</ele>
        <time>2020-08-15T06:44:52.635Z</time>
      </trkpt>
      <trkpt lat="37.358787" lon="-5.747492">
        <ele>123.176952</ele>
        <time>2020-08-15T06:44:54.635Z</time>
      </trkpt>
      <trkpt lat="37.358681" lon="-5.747601">
        <ele>122.748179</ele>
        <time>2020-08-15T06:44:56.629Z</time>
      </trkpt>
      <trkpt lat="37.358556" lon="-5.747702">
        <ele>122.316221</ele>
        <time>2020-08-15T06:44:58.620Z</time>
      </trkpt>
      <trkpt lat="37.358444" lon="-5.747811">
        <ele>122.338374</ele>
        <time>2020-08-15T06:45:00.639Z</time>
      </trkpt>
      <trkpt lat="37.358325" lon="-5.747910">
        <ele>122.360694</ele>
        <time>2020-08-15T06:45:02.624Z</time>
      </trkpt>
      <trkpt lat="37.358212" lon="-5.748017">
        <ele>122.382821</ele>
        <time>2020-08-15T06:45:04.619Z</time>
      </trkpt>
      <trkpt lat="37.358091" lon="-5.748118">
        <ele>122.405540</ele>
        <time>2020-08-15T06:45:06.635Z</time>
      </trkpt>
      <trkpt lat="37.357963" lon="-5.748222">
        <ele>122.429379</ele>
        <time>2020-08-15T06:45:08.625Z</time>
      </trkpt>
      <trkpt lat="37.357850" lon="-5.748332">
        <ele>122.451732</ele>
        <time>2020-08-15T06:45:10.638Z</time>
      </trkpt>
      <trkpt lat="37.357737" lon="-5.748435">
        <ele>122.473564</ele>
        <time>2020-08-15T06:45:12.627Z</time>
      </trkpt>
      <trkpt lat="37.357624" lon="-5.748542">
        <ele>122.495691</ele>
        <time>2020-08-15T06:45:14.633Z</time>
      </trkpt>
      <trkpt lat="37.357508" lon="-5.748655">
        <ele>122.518644</ele>
        <time>2020-08-15T06:45:16.617Z</time>
      </trkpt>
      <trkpt lat="37.357386" lon="-5.748757">
        <ele>122.541561</ele>
        <time>2020-08-15T06:45:18.607Z</time>
      </trkpt>
      <trkpt lat="37.357289" lon="-5.748872">
        <ele>122.562414</ele>
        <time>2020-08-15T06:45:20.624Z</time>
      </trkpt>
      <trkpt lat="37.357182" lon="-5.748972">
        <ele>122.583268</ele>
        <time>2020-08-15T06:45:22.631Z</time>
      </trkpt>
      <trkpt lat="37.357059" lon="-5.749053">
        <ele>122.648214</ele>
        <time>2020-08-15T06:45:24.621Z</time>
      </trkpt>
      <trkpt lat="37.356951" lon="-5.749150">
        <ele>122.769220</ele>
        <time>2020-08-15T06:45:26.631Z</time>
      </trkpt>
      <trkpt lat="37.356844" lon="-5.749240">
        <ele>122.886592</ele>
        <time>2020-08-15T06:45:28.617Z</time>
      </trkpt>
      <trkpt lat="37.356733" lon="-5.749346">
        <ele>123.013670</ele>
        <time>2020-08-15T06:45:30.643Z</time>
      </trkpt>
      <trkpt lat="37.356636" lon="-5.749462">
        <ele>123.135710</ele>
        <time>2020-08-15T06:45:32.632Z</time>
      </trkpt>
      <trkpt lat="37.356521" lon="-5.749545">
        <ele>123.256609</ele>
        <time>2020-08-15T06:45:34.629Z</time>
      </trkpt>
      <trkpt lat="37.356419" lon="-5.749631">
        <ele>123.368579</ele>
        <time>2020-08-15T06:45:36.633Z</time>
      </trkpt>
      <trkpt lat="37.356323" lon="-5.749730">
        <ele>123.481774</ele>
        <time>2020-08-15T06:45:38.632Z</time>
      </trkpt>
      <trkpt lat="37.356228" lon="-5.749819">
        <ele>123.589785</ele>
        <time>2020-08-15T06:45:40.645Z</time>
      </trkpt>
      <trkpt lat="37.356124" lon="-5.749883">
        <ele>123.695360</ele>
        <time>2020-08-15T06:45:42.617Z</time>
      </trkpt>
      <trkpt lat="37.356034" lon="-5.749981">
        <ele>123.803902</ele>
        <time>2020-08-15T06:45:44.631Z</time>
      </trkpt>
      <trkpt lat="37.355929" lon="-5.750066">
        <ele>123.917761</ele>
        <time>2020-08-15T06:45:46.649Z</time>
      </trkpt>
      <trkpt lat="37.355829" lon="-5.750154">
        <ele>124.029046</ele>
        <time>2020-08-15T06:45:48.639Z</time>
      </trkpt>
      <trkpt lat="37.355741" lon="-5.750230">
        <ele>124.126381</ele>
        <time>2020-08-15T06:45:50.636Z</time>
      </trkpt>
      <trkpt lat="37.355657" lon="-5.750312">
        <ele>124.223336</ele>
        <time>2020-08-15T06:45:52.616Z</time>
      </trkpt>
      <trkpt lat="37.355564" lon="-5.750390">
        <ele>124.188355</ele>
        <time>2020-08-15T06:45:54.617Z</time>
      </trkpt>
      <trkpt lat="37.355476" lon="-5.750473">
        <ele>124.134464</ele>
        <time>2020-08-15T06:45:56.638Z</time>
      </trkpt>
      <trkpt lat="37.355394" lon="-5.750560">
        <ele>124.081905</ele>
        <time>2020-08-15T06:45:58.629Z</time>
      </trkpt>
      <trkpt lat="37.355310" lon="-5.750641">
        <ele>124.030046</ele>
        <time>2020-08-15T06:46:00.641Z</time>
      </trkpt>
      <trkpt lat="37.355229" lon="-5.750718">
        <ele>123.980301</ele>
        <time>2020-08-15T06:46:02.633Z</time>
      </trkpt>
      <trkpt lat="37.355145" lon="-5.750796">
        <ele>123.929145</ele>
        <time>2020-08-15T06:46:04.624Z</time>
      </trkpt>
      <trkpt lat="37.355056" lon="-5.750871">
        <ele>123.876657</ele>
        <time>2020-08-15T06:46:06.616Z</time>
      </trkpt>
      <trkpt lat="37.354975" lon="-5.750937">
        <ele>123.829371</ele>
        <time>2020-08-15T06:46:08.614Z</time>
      </trkpt>
      <trkpt lat="37.354892" lon="-5.751027">
        <ele>123.775680</ele>
        <time>2020-08-15T06:46:10.628Z</time>
      </trkpt>
      <trkpt lat="37.354824" lon="-5.751103">
        <ele>123.731112</ele>
        <time>2020-08-15T06:46:12.625Z</time>
      </trkpt>
      <trkpt lat="37.354750" lon="-5.751193">
        <ele>123.680679</ele>
        <time>2020-08-15T06:46:14.630Z</time>
      </trkpt>
      <trkpt lat="37.354681" lon="-5.751289">
        <ele>123.630270</ele>
        <time>2020-08-15T06:46:16.612Z</time>
      </trkpt>
      <trkpt lat="37.354599" lon="-5.751361">
        <ele>123.581273</ele>
        <time>2020-08-15T06:46:18.628Z</time>
      </trkpt>
      <trkpt lat="37.354505" lon="-5.751417">
        <ele>123.530311</ele>
        <time>2020-08-15T06:46:20.631Z</time>
      </trkpt>
      <trkpt lat="37.354424" lon="-5.751481">
        <ele>123.483443</ele>
        <time>2020-08-15T06:46:22.624Z</time>
      </trkpt>
      <trkpt lat="37.354347" lon="-5.751548">
        <ele>123.437569</ele>
        <time>2020-08-15T06:46:24.633Z</time>
      </trkpt>
      <trkpt lat="37.354231" lon="-5.751646">
        <ele>123.369104</ele>
        <time>2020-08-15T06:46:27.627Z</time>
      </trkpt>
      <trkpt lat="37.354147" lon="-5.751750">
        <ele>123.251698</ele>
        <time>2020-08-15T06:46:30.633Z</time>
      </trkpt>
      <trkpt lat="37.354041" lon="-5.751836">
        <ele>123.105226</ele>
        <time>2020-08-15T06:46:33.631Z</time>
      </trkpt>
      <trkpt lat="37.353945" lon="-5.751932">
        <ele>122.962815</ele>
        <time>2020-08-15T06:46:36.604Z</time>
      </trkpt>
      <trkpt lat="37.353844" lon="-5.752019">
        <ele>122.820668</ele>
        <time>2020-08-15T06:46:39.617Z</time>
      </trkpt>
      <trkpt lat="37.353754" lon="-5.752112">
        <ele>122.685416</ele>
        <time>2020-08-15T06:46:42.630Z</time>
      </trkpt>
      <trkpt lat="37.353666" lon="-5.752211">
        <ele>122.548324</ele>
        <time>2020-08-15T06:46:45.632Z</time>
      </trkpt>
      <trkpt lat="37.353574" lon="-5.752299">
        <ele>122.414113</ele>
        <time>2020-08-15T06:46:48.624Z</time>
      </trkpt>
      <trkpt lat="37.353478" lon="-5.752376">
        <ele>122.281900</ele>
        <time>2020-08-15T06:46:51.609Z</time>
      </trkpt>
      <trkpt lat="37.353390" lon="-5.752452">
        <ele>122.157945</ele>
        <time>2020-08-15T06:46:54.630Z</time>
      </trkpt>
      <trkpt lat="37.353298" lon="-5.752525">
        <ele>122.031633</ele>
        <time>2020-08-15T06:46:57.637Z</time>
      </trkpt>
      <trkpt lat="37.353193" lon="-5.752601">
        <ele>121.890958</ele>
        <time>2020-08-15T06:47:00.614Z</time>
      </trkpt>
      <trkpt lat="37.353088" lon="-5.752684">
        <ele>121.746952</ele>
        <time>2020-08-15T06:47:03.624Z</time>
      </trkpt>
      <trkpt lat="37.352977" lon="-5.752767">
        <ele>121.597001</ele>
        <time>2020-08-15T06:47:06.633Z</time>
      </trkpt>
      <trkpt lat="37.352872" lon="-5.752851">
        <ele>121.452501</ele>
        <time>2020-08-15T06:47:09.626Z</time>
      </trkpt>
      <trkpt lat="37.352783" lon="-5.752958">
        <ele>121.309541</ele>
        <time>2020-08-15T06:47:12.617Z</time>
      </trkpt>
      <trkpt lat="37.352673" lon="-5.753047">
        <ele>121.044637</ele>
        <time>2020-08-15T06:47:15.626Z</time>
      </trkpt>
      <trkpt lat="37.352566" lon="-5.753143">
        <ele>120.733097</ele>
        <time>2020-08-15T06:47:18.627Z</time>
      </trkpt>
      <trkpt lat="37.352463" lon="-5.753241">
        <ele>120.426967</ele>
        <time>2020-08-15T06:47:21.636Z</time>
      </trkpt>
      <trkpt lat="37.352372" lon="-5.753349">
        <ele>120.130406</ele>
        <time>2020-08-15T06:47:24.630Z</time>
      </trkpt>
      <trkpt lat="37.352274" lon="-5.753454">
        <ele>119.825261</ele>
        <time>2020-08-15T06:47:27.636Z</time>
      </trkpt>
      <trkpt lat="37.352175" lon="-5.753551">
        <ele>119.527800</ele>
        <time>2020-08-15T06:47:30.647Z</time>
      </trkpt>
      <trkpt lat="37.352073" lon="-5.753658">
        <ele>119.212975</ele>
        <time>2020-08-15T06:47:33.625Z</time>
      </trkpt>
      <trkpt lat="37.351977" lon="-5.753773">
        <ele>118.898737</ele>
        <time>2020-08-15T06:47:36.617Z</time>
      </trkpt>
      <trkpt lat="37.351881" lon="-5.753888">
        <ele>118.584499</ele>
        <time>2020-08-15T06:47:39.642Z</time>
      </trkpt>
      <trkpt lat="37.351785" lon="-5.753999">
        <ele>118.275410</ele>
        <time>2020-08-15T06:47:42.649Z</time>
      </trkpt>
      <trkpt lat="37.351690" lon="-5.754111">
        <ele>117.966777</ele>
        <time>2020-08-15T06:47:45.626Z</time>
      </trkpt>
      <trkpt lat="37.351579" lon="-5.754214">
        <ele>117.639814</ele>
        <time>2020-08-15T06:47:48.637Z</time>
      </trkpt>
      <trkpt lat="37.351512" lon="-5.754293">
        <ele>117.422133</ele>
        <time>2020-08-15T06:47:50.625Z</time>
      </trkpt>
      <trkpt lat="37.351422" lon="-5.754417">
        <ele>117.105726</ele>
        <time>2020-08-15T06:47:53.626Z</time>
      </trkpt>
      <trkpt lat="37.351322" lon="-5.754516">
        <ele>117.173381</ele>
        <time>2020-08-15T06:47:56.632Z</time>
      </trkpt>
      <trkpt lat="37.351228" lon="-5.754630">
        <ele>117.439774</ele>
        <time>2020-08-15T06:47:59.632Z</time>
      </trkpt>
      <trkpt lat="37.351136" lon="-5.754742">
        <ele>117.700979</ele>
        <time>2020-08-15T06:48:02.628Z</time>
      </trkpt>
      <trkpt lat="37.351032" lon="-5.754847">
        <ele>117.973051</ele>
        <time>2020-08-15T06:48:05.637Z</time>
      </trkpt>
      <trkpt lat="37.350963" lon="-5.754921">
        <ele>118.158043</ele>
        <time>2020-08-15T06:48:07.645Z</time>
      </trkpt>
      <trkpt lat="37.350890" lon="-5.755054">
        <ele>118.420173</ele>
        <time>2020-08-15T06:48:10.628Z</time>
      </trkpt>
      <trkpt lat="37.350830" lon="-5.755141">
        <ele>118.606975</ele>
        <time>2020-08-15T06:48:12.636Z</time>
      </trkpt>
      <trkpt lat="37.350755" lon="-5.755205">
        <ele>118.791878</ele>
        <time>2020-08-15T06:48:14.634Z</time>
      </trkpt>
      <trkpt lat="37.350680" lon="-5.755289">
        <ele>118.996756</ele>
        <time>2020-08-15T06:48:16.636Z</time>
      </trkpt>
      <trkpt lat="37.350620" lon="-5.755381">
        <ele>119.189757</ele>
        <time>2020-08-15T06:48:18.631Z</time>
      </trkpt>
      <trkpt lat="37.350560" lon="-5.755481">
        <ele>119.392956</ele>
        <time>2020-08-15T06:48:20.601Z</time>
      </trkpt>
      <trkpt lat="37.350488" lon="-5.755567">
        <ele>119.595523</ele>
        <time>2020-08-15T06:48:22.634Z</time>
      </trkpt>
      <trkpt lat="37.350408" lon="-5.755705">
        <ele>119.872534</ele>
        <time>2020-08-15T06:48:25.621Z</time>
      </trkpt>
      <trkpt lat="37.350337" lon="-5.755795">
        <ele>120.078181</ele>
        <time>2020-08-15T06:48:27.618Z</time>
      </trkpt>
      <trkpt lat="37.350274" lon="-5.755893">
        <ele>120.282593</ele>
        <time>2020-08-15T06:48:29.630Z</time>
      </trkpt>
      <trkpt lat="37.350207" lon="-5.755985">
        <ele>120.484954</ele>
        <time>2020-08-15T06:48:31.643Z</time>
      </trkpt>
      <trkpt lat="37.350142" lon="-5.756086">
        <ele>120.688793</ele>
        <time>2020-08-15T06:48:33.631Z</time>
      </trkpt>
      <trkpt lat="37.350079" lon="-5.756178">
        <ele>120.827701</ele>
        <time>2020-08-15T06:48:35.608Z</time>
      </trkpt>
      <trkpt lat="37.350005" lon="-5.756269">
        <ele>120.976620</ele>
        <time>2020-08-15T06:48:37.646Z</time>
      </trkpt>
      <trkpt lat="37.349938" lon="-5.756348">
        <ele>121.108768</ele>
        <time>2020-08-15T06:48:39.623Z</time>
      </trkpt>
      <trkpt lat="37.349856" lon="-5.756433">
        <ele>121.261671</ele>
        <time>2020-08-15T06:48:41.607Z</time>
      </trkpt>
      <trkpt lat="37.349793" lon="-5.756528">
        <ele>121.403197</ele>
        <time>2020-08-15T06:48:43.610Z</time>
      </trkpt>
      <trkpt lat="37.349734" lon="-5.756621">
        <ele>121.539312</ele>
        <time>2020-08-15T06:48:45.639Z</time>
      </trkpt>
      <trkpt lat="37.349665" lon="-5.756706">
        <ele>121.678287</ele>
        <time>2020-08-15T06:48:47.636Z</time>
      </trkpt>
      <trkpt lat="37.349601" lon="-5.756850">
        <ele>121.867016</ele>
        <time>2020-08-15T06:48:50.648Z</time>
      </trkpt>
      <trkpt lat="37.349535" lon="-5.756932">
        <ele>122.000507</ele>
        <time>2020-08-15T06:48:52.614Z</time>
      </trkpt>
      <trkpt lat="37.349453" lon="-5.757048">
        <ele>122.178084</ele>
        <time>2020-08-15T06:48:55.628Z</time>
      </trkpt>
      <trkpt lat="37.349372" lon="-5.757162">
        <ele>122.352996</ele>
        <time>2020-08-15T06:48:58.633Z</time>
      </trkpt>
      <trkpt lat="37.349277" lon="-5.757290">
        <ele>122.553322</ele>
        <time>2020-08-15T06:49:01.633Z</time>
      </trkpt>
      <trkpt lat="37.349230" lon="-5.757395">
        <ele>122.691172</ele>
        <time>2020-08-15T06:49:03.634Z</time>
      </trkpt>
      <trkpt lat="37.349178" lon="-5.757497">
        <ele>122.829790</ele>
        <time>2020-08-15T06:49:05.643Z</time>
      </trkpt>
      <trkpt lat="37.349067" lon="-5.757596">
        <ele>123.025599</ele>
        <time>2020-08-15T06:49:08.634Z</time>
      </trkpt>
      <trkpt lat="37.348965" lon="-5.757709">
        <ele>123.221189</ele>
        <time>2020-08-15T06:49:11.645Z</time>
      </trkpt>
      <trkpt lat="37.348860" lon="-5.757812">
        <ele>124.018071</ele>
        <time>2020-08-15T06:49:14.639Z</time>
      </trkpt>
      <trkpt lat="37.348790" lon="-5.757889">
        <ele>124.683846</ele>
        <time>2020-08-15T06:49:16.651Z</time>
      </trkpt>
      <trkpt lat="37.348699" lon="-5.757993">
        <ele>125.564124</ele>
        <time>2020-08-15T06:49:19.631Z</time>
      </trkpt>
      <trkpt lat="37.348628" lon="-5.758094">
        <ele>126.331508</ele>
        <time>2020-08-15T06:49:22.641Z</time>
      </trkpt>
      <trkpt lat="37.348556" lon="-5.758191">
        <ele>127.086857</ele>
        <time>2020-08-15T06:49:24.650Z</time>
      </trkpt>
      <trkpt lat="37.348498" lon="-5.758294">
        <ele>127.805279</ele>
        <time>2020-08-15T06:49:26.636Z</time>
      </trkpt>
      <trkpt lat="37.348429" lon="-5.758385">
        <ele>128.521049</ele>
        <time>2020-08-15T06:49:28.639Z</time>
      </trkpt>
      <trkpt lat="37.348363" lon="-5.758478">
        <ele>129.230618</ele>
        <time>2020-08-15T06:49:30.637Z</time>
      </trkpt>
      <trkpt lat="37.348298" lon="-5.758581">
        <ele>129.979129</ele>
        <time>2020-08-15T06:49:32.638Z</time>
      </trkpt>
      <trkpt lat="37.348234" lon="-5.758672">
        <ele>130.670677</ele>
        <time>2020-08-15T06:49:34.635Z</time>
      </trkpt>
      <trkpt lat="37.348169" lon="-5.758779">
        <ele>131.437151</ele>
        <time>2020-08-15T06:49:36.608Z</time>
      </trkpt>
      <trkpt lat="37.348099" lon="-5.758860">
        <ele>132.118131</ele>
        <time>2020-08-15T06:49:38.632Z</time>
      </trkpt>
      <trkpt lat="37.348031" lon="-5.758950">
        <ele>132.824844</ele>
        <time>2020-08-15T06:49:40.632Z</time>
      </trkpt>
      <trkpt lat="37.347968" lon="-5.759047">
        <ele>133.537777</ele>
        <time>2020-08-15T06:49:42.639Z</time>
      </trkpt>
      <trkpt lat="37.347897" lon="-5.759134">
        <ele>134.247438</ele>
        <time>2020-08-15T06:49:44.617Z</time>
      </trkpt>
      <trkpt lat="37.347829" lon="-5.759226">
        <ele>134.962446</ele>
        <time>2020-08-15T06:49:46.639Z</time>
      </trkpt>
      <trkpt lat="37.347763" lon="-5.759312">
        <ele>135.642813</ele>
        <time>2020-08-15T06:49:48.631Z</time>
      </trkpt>
      <trkpt lat="37.347694" lon="-5.759453">
        <ele>136.166319</ele>
        <time>2020-08-15T06:49:51.625Z</time>
      </trkpt>
      <trkpt lat="37.347636" lon="-5.759552">
        <ele>136.210089</ele>
        <time>2020-08-15T06:49:53.622Z</time>
      </trkpt>
      <trkpt lat="37.347560" lon="-5.759632">
        <ele>136.254455</ele>
        <time>2020-08-15T06:49:55.622Z</time>
      </trkpt>
      <trkpt lat="37.347505" lon="-5.759724">
        <ele>136.295424</ele>
        <time>2020-08-15T06:49:57.629Z</time>
      </trkpt>
      <trkpt lat="37.347430" lon="-5.759816">
        <ele>136.342324</ele>
        <time>2020-08-15T06:49:59.607Z</time>
      </trkpt>
      <trkpt lat="37.347340" lon="-5.759945">
        <ele>136.403409</ele>
        <time>2020-08-15T06:50:02.617Z</time>
      </trkpt>
      <trkpt lat="37.347263" lon="-5.760035">
        <ele>136.450466</ele>
        <time>2020-08-15T06:50:04.632Z</time>
      </trkpt>
      <trkpt lat="37.347197" lon="-5.760126">
        <ele>136.494308</ele>
        <time>2020-08-15T06:50:06.643Z</time>
      </trkpt>
      <trkpt lat="37.347126" lon="-5.760198">
        <ele>136.535137</ele>
        <time>2020-08-15T06:50:08.633Z</time>
      </trkpt>
      <trkpt lat="37.347055" lon="-5.760330">
        <ele>136.591860</ele>
        <time>2020-08-15T06:50:11.619Z</time>
      </trkpt>
      <trkpt lat="37.346986" lon="-5.760406">
        <ele>136.632920</ele>
        <time>2020-08-15T06:50:13.633Z</time>
      </trkpt>
      <trkpt lat="37.346906" lon="-5.760548">
        <ele>136.694864</ele>
        <time>2020-08-15T06:50:16.639Z</time>
      </trkpt>
      <trkpt lat="37.346850" lon="-5.760646">
        <ele>136.737818</ele>
        <time>2020-08-15T06:50:18.638Z</time>
      </trkpt>
      <trkpt lat="37.346788" lon="-5.760734">
        <ele>136.779668</ele>
        <time>2020-08-15T06:50:20.640Z</time>
      </trkpt>
      <trkpt lat="37.346723" lon="-5.760859">
        <ele>136.832829</ele>
        <time>2020-08-15T06:50:23.641Z</time>
      </trkpt>
      <trkpt lat="37.346662" lon="-5.760984">
        <ele>136.885032</ele>
        <time>2020-08-15T06:50:26.635Z</time>
      </trkpt>
      <trkpt lat="37.346591" lon="-5.761080">
        <ele>136.931698</ele>
        <time>2020-08-15T06:50:28.604Z</time>
      </trkpt>
      <trkpt lat="37.346530" lon="-5.761177">
        <ele>137.200521</ele>
        <time>2020-08-15T06:50:30.643Z</time>
      </trkpt>
      <trkpt lat="37.346462" lon="-5.761302">
        <ele>137.632080</ele>
        <time>2020-08-15T06:50:33.595Z</time>
      </trkpt>
      <trkpt lat="37.346394" lon="-5.761433">
        <ele>138.077853</ele>
        <time>2020-08-15T06:50:36.627Z</time>
      </trkpt>
      <trkpt lat="37.346357" lon="-5.761567">
        <ele>138.482026</ele>
        <time>2020-08-15T06:50:39.606Z</time>
      </trkpt>
      <trkpt lat="37.346279" lon="-5.761683">
        <ele>138.914911</ele>
        <time>2020-08-15T06:50:42.606Z</time>
      </trkpt>
      <trkpt lat="37.346215" lon="-5.761798">
        <ele>139.314884</ele>
        <time>2020-08-15T06:50:45.617Z</time>
      </trkpt>
      <trkpt lat="37.346148" lon="-5.761918">
        <ele>139.732694</ele>
        <time>2020-08-15T06:50:48.608Z</time>
      </trkpt>
      <trkpt lat="37.346073" lon="-5.762034">
        <ele>140.158716</ele>
        <time>2020-08-15T06:50:51.631Z</time>
      </trkpt>
      <trkpt lat="37.346005" lon="-5.762149">
        <ele>140.567080</ele>
        <time>2020-08-15T06:50:54.633Z</time>
      </trkpt>
      <trkpt lat="37.345930" lon="-5.762272">
        <ele>141.008755</ele>
        <time>2020-08-15T06:50:57.617Z</time>
      </trkpt>
      <trkpt lat="37.345847" lon="-5.762404">
        <ele>141.488281</ele>
        <time>2020-08-15T06:51:00.607Z</time>
      </trkpt>
      <trkpt lat="37.345771" lon="-5.762542">
        <ele>141.966611</ele>
        <time>2020-08-15T06:51:03.634Z</time>
      </trkpt>
      <trkpt lat="37.345686" lon="-5.762678">
        <ele>142.459526</ele>
        <time>2020-08-15T06:51:06.619Z</time>
      </trkpt>
      <trkpt lat="37.345613" lon="-5.762776">
        <ele>142.842176</ele>
        <time>2020-08-15T06:51:08.638Z</time>
      </trkpt>
      <trkpt lat="37.345551" lon="-5.762890">
        <ele>143.235729</ele>
        <time>2020-08-15T06:51:10.623Z</time>
      </trkpt>
      <trkpt lat="37.345499" lon="-5.763016">
        <ele>143.397173</ele>
        <time>2020-08-15T06:51:12.612Z</time>
      </trkpt>
      <trkpt lat="37.345427" lon="-5.763141">
        <ele>143.409726</ele>
        <time>2020-08-15T06:51:14.633Z</time>
      </trkpt>
      <trkpt lat="37.345355" lon="-5.763269">
        <ele>143.422477</ele>
        <time>2020-08-15T06:51:16.611Z</time>
      </trkpt>
      <trkpt lat="37.345288" lon="-5.763382">
        <ele>143.433941</ele>
        <time>2020-08-15T06:51:18.639Z</time>
      </trkpt>
      <trkpt lat="37.345215" lon="-5.763518">
        <ele>143.447285</ele>
        <time>2020-08-15T06:51:20.632Z</time>
      </trkpt>
      <trkpt lat="37.345150" lon="-5.763633">
        <ele>143.458759</ele>
        <time>2020-08-15T06:51:22.614Z</time>
      </trkpt>
      <trkpt lat="37.345092" lon="-5.763755">
        <ele>143.470319</ele>
        <time>2020-08-15T06:51:24.634Z</time>
      </trkpt>
      <trkpt lat="37.344996" lon="-5.763851">
        <ele>143.482864</ele>
        <time>2020-08-15T06:51:26.619Z</time>
      </trkpt>
      <trkpt lat="37.344917" lon="-5.763970">
        <ele>143.495471</ele>
        <time>2020-08-15T06:51:28.606Z</time>
      </trkpt>
      <trkpt lat="37.344846" lon="-5.764097">
        <ele>143.508097</ele>
        <time>2020-08-15T06:51:30.615Z</time>
      </trkpt>
      <trkpt lat="37.344766" lon="-5.764227">
        <ele>143.521466</ele>
        <time>2020-08-15T06:51:32.608Z</time>
      </trkpt>
      <trkpt lat="37.344679" lon="-5.764341">
        <ele>143.534317</ele>
        <time>2020-08-15T06:51:34.630Z</time>
      </trkpt>
      <trkpt lat="37.344593" lon="-5.764442">
        <ele>143.546352</ele>
        <time>2020-08-15T06:51:36.626Z</time>
      </trkpt>
      <trkpt lat="37.344511" lon="-5.764535">
        <ele>143.557646</ele>
        <time>2020-08-15T06:51:38.626Z</time>
      </trkpt>
      <trkpt lat="37.344413" lon="-5.764643">
        <ele>143.570973</ele>
        <time>2020-08-15T06:51:40.626Z</time>
      </trkpt>
      <trkpt lat="37.344314" lon="-5.764724">
        <ele>143.279333</ele>
        <time>2020-08-15T06:51:42.631Z</time>
      </trkpt>
      <trkpt lat="37.344215" lon="-5.764823">
        <ele>142.857506</ele>
        <time>2020-08-15T06:51:44.620Z</time>
      </trkpt>
      <trkpt lat="37.344166" lon="-5.764946">
        <ele>142.492705</ele>
        <time>2020-08-15T06:51:46.632Z</time>
      </trkpt>
      <trkpt lat="37.344068" lon="-5.765006">
        <ele>142.129182</ele>
        <time>2020-08-15T06:51:48.629Z</time>
      </trkpt>
      <trkpt lat="37.344009" lon="-5.765100">
        <ele>141.811615</ele>
        <time>2020-08-15T06:51:50.626Z</time>
      </trkpt>
      <trkpt lat="37.343940" lon="-5.765178">
        <ele>141.502199</ele>
        <time>2020-08-15T06:51:52.627Z</time>
      </trkpt>
      <trkpt lat="37.343819" lon="-5.765220">
        <ele>141.083543</ele>
        <time>2020-08-15T06:51:55.605Z</time>
      </trkpt>
      <trkpt lat="37.343704" lon="-5.765299">
        <ele>140.646509</ele>
        <time>2020-08-15T06:51:58.635Z</time>
      </trkpt>
      <trkpt lat="37.343596" lon="-5.765393">
        <ele>140.208469</ele>
        <time>2020-08-15T06:52:01.623Z</time>
      </trkpt>
      <trkpt lat="37.343483" lon="-5.765457">
        <ele>139.795136</ele>
        <time>2020-08-15T06:52:04.648Z</time>
      </trkpt>
      <trkpt lat="37.343386" lon="-5.765541">
        <ele>139.402352</ele>
        <time>2020-08-15T06:52:07.633Z</time>
      </trkpt>
      <trkpt lat="37.343278" lon="-5.765611">
        <ele>138.997130</ele>
        <time>2020-08-15T06:52:10.629Z</time>
      </trkpt>
      <trkpt lat="37.343171" lon="-5.765681">
        <ele>138.594869</ele>
        <time>2020-08-15T06:52:13.632Z</time>
      </trkpt>
      <trkpt lat="37.343074" lon="-5.765748">
        <ele>138.225775</ele>
        <time>2020-08-15T06:52:16.632Z</time>
      </trkpt>
      <trkpt lat="37.342967" lon="-5.765812">
        <ele>137.830603</ele>
        <time>2020-08-15T06:52:19.621Z</time>
      </trkpt>
      <trkpt lat="37.342883" lon="-5.765874">
        <ele>137.616517</ele>
        <time>2020-08-15T06:52:21.625Z</time>
      </trkpt>
      <trkpt lat="37.342807" lon="-5.765936">
        <ele>137.797697</ele>
        <time>2020-08-15T06:52:23.625Z</time>
      </trkpt>
      <trkpt lat="37.342679" lon="-5.765977">
        <ele>138.061884</ele>
        <time>2020-08-15T06:52:26.639Z</time>
      </trkpt>
      <trkpt lat="37.342566" lon="-5.766053">
        <ele>138.318178</ele>
        <time>2020-08-15T06:52:29.623Z</time>
      </trkpt>
      <trkpt lat="37.342476" lon="-5.766085">
        <ele>138.505243</ele>
        <time>2020-08-15T06:52:31.646Z</time>
      </trkpt>
      <trkpt lat="37.342380" lon="-5.766186">
        <ele>138.755567</ele>
        <time>2020-08-15T06:52:34.646Z</time>
      </trkpt>
      <trkpt lat="37.342285" lon="-5.766285">
        <ele>139.002320</ele>
        <time>2020-08-15T06:52:37.631Z</time>
      </trkpt>
      <trkpt lat="37.342210" lon="-5.766387">
        <ele>139.223250</ele>
        <time>2020-08-15T06:52:40.630Z</time>
      </trkpt>
      <trkpt lat="37.342130" lon="-5.766474">
        <ele>139.434773</ele>
        <time>2020-08-15T06:52:43.619Z</time>
      </trkpt>
      <trkpt lat="37.342064" lon="-5.766577">
        <ele>139.645134</ele>
        <time>2020-08-15T06:52:46.634Z</time>
      </trkpt>
      <trkpt lat="37.342003" lon="-5.766686">
        <ele>139.857096</ele>
        <time>2020-08-15T06:52:49.631Z</time>
      </trkpt>
      <trkpt lat="37.341929" lon="-5.766791">
        <ele>140.080220</ele>
        <time>2020-08-15T06:52:52.626Z</time>
      </trkpt>
      <trkpt lat="37.341855" lon="-5.766900">
        <ele>140.308143</ele>
        <time>2020-08-15T06:52:55.645Z</time>
      </trkpt>
      <trkpt lat="37.341796" lon="-5.767005">
        <ele>140.512602</ele>
        <time>2020-08-15T06:52:58.641Z</time>
      </trkpt>
      <trkpt lat="37.341736" lon="-5.767108">
        <ele>140.715648</ele>
        <time>2020-08-15T06:53:01.662Z</time>
      </trkpt>
      <trkpt lat="37.341663" lon="-5.767209">
        <ele>140.932703</ele>
        <time>2020-08-15T06:53:04.636Z</time>
      </trkpt>
      <trkpt lat="37.341592" lon="-5.767317">
        <ele>141.155549</ele>
        <time>2020-08-15T06:53:07.619Z</time>
      </trkpt>
      <trkpt lat="37.341523" lon="-5.767428">
        <ele>141.335931</ele>
        <time>2020-08-15T06:53:10.635Z</time>
      </trkpt>
      <trkpt lat="37.341461" lon="-5.767546">
        <ele>141.513414</ele>
        <time>2020-08-15T06:53:13.628Z</time>
      </trkpt>
      <trkpt lat="37.341409" lon="-5.767662">
        <ele>141.680517</ele>
        <time>2020-08-15T06:53:16.635Z</time>
      </trkpt>
      <trkpt lat="37.341346" lon="-5.767786">
        <ele>141.865173</ele>
        <time>2020-08-15T06:53:19.612Z</time>
      </trkpt>
      <trkpt lat="37.341277" lon="-5.767919">
        <ele>142.064455</ele>
        <time>2020-08-15T06:53:22.626Z</time>
      </trkpt>
      <trkpt lat="37.341221" lon="-5.768054">
        <ele>142.255528</ele>
        <time>2020-08-15T06:53:25.627Z</time>
      </trkpt>
      <trkpt lat="37.341179" lon="-5.768188">
        <ele>142.436270</ele>
        <time>2020-08-15T06:53:28.607Z</time>
      </trkpt>
      <trkpt lat="37.341144" lon="-5.768326">
        <ele>142.618034</ele>
        <time>2020-08-15T06:53:31.629Z</time>
      </trkpt>
      <trkpt lat="37.341115" lon="-5.768470">
        <ele>142.804436</ele>
        <time>2020-08-15T06:53:34.616Z</time>
      </trkpt>
      <trkpt lat="37.341087" lon="-5.768613">
        <ele>142.989239</ele>
        <time>2020-08-15T06:53:37.628Z</time>
      </trkpt>
      <trkpt lat="37.341055" lon="-5.768760">
        <ele>143.180488</ele>
        <time>2020-08-15T06:53:40.639Z</time>
      </trkpt>
      <trkpt lat="37.341018" lon="-5.768912">
        <ele>143.379962</ele>
        <time>2020-08-15T06:53:43.631Z</time>
      </trkpt>
      <trkpt lat="37.340988" lon="-5.769076">
        <ele>143.591131</ele>
        <time>2020-08-15T06:53:46.632Z</time>
      </trkpt>
      <trkpt lat="37.340966" lon="-5.769237">
        <ele>143.796121</ele>
        <time>2020-08-15T06:53:49.629Z</time>
      </trkpt>
      <trkpt lat="37.340948" lon="-5.769398">
        <ele>144.000137</ele>
        <time>2020-08-15T06:53:52.646Z</time>
      </trkpt>
      <trkpt lat="37.340944" lon="-5.769552">
        <ele>144.109322</ele>
        <time>2020-08-15T06:53:55.633Z</time>
      </trkpt>
      <trkpt lat="37.340931" lon="-5.769704">
        <ele>144.212516</ele>
        <time>2020-08-15T06:53:58.623Z</time>
      </trkpt>
      <trkpt lat="37.340938" lon="-5.769826">
        <ele>144.295081</ele>
        <time>2020-08-15T06:54:01.629Z</time>
      </trkpt>
      <trkpt lat="37.340948" lon="-5.769944">
        <ele>144.375183</ele>
        <time>2020-08-15T06:54:04.619Z</time>
      </trkpt>
      <trkpt lat="37.340951" lon="-5.770074">
        <ele>144.462972</ele>
        <time>2020-08-15T06:54:07.609Z</time>
      </trkpt>
      <trkpt lat="37.340963" lon="-5.770203">
        <ele>144.550642</ele>
        <time>2020-08-15T06:54:10.610Z</time>
      </trkpt>
      <trkpt lat="37.340972" lon="-5.770329">
        <ele>144.636036</ele>
        <time>2020-08-15T06:54:13.614Z</time>
      </trkpt>
      <trkpt lat="37.340983" lon="-5.770456">
        <ele>144.722269</ele>
        <time>2020-08-15T06:54:16.637Z</time>
      </trkpt>
      <trkpt lat="37.341020" lon="-5.770577">
        <ele>144.809778</ele>
        <time>2020-08-15T06:54:19.599Z</time>
      </trkpt>
      <trkpt lat="37.341048" lon="-5.770693">
        <ele>144.891608</ele>
        <time>2020-08-15T06:54:22.621Z</time>
      </trkpt>
      <trkpt lat="37.341059" lon="-5.770807">
        <ele>144.969124</ele>
        <time>2020-08-15T06:54:25.643Z</time>
      </trkpt>
      <trkpt lat="37.341058" lon="-5.770923">
        <ele>145.047429</ele>
        <time>2020-08-15T06:54:28.610Z</time>
      </trkpt>
      <trkpt lat="37.341060" lon="-5.771041">
        <ele>145.127098</ele>
        <time>2020-08-15T06:54:31.607Z</time>
      </trkpt>
      <trkpt lat="37.341055" lon="-5.771159">
        <ele>145.206862</ele>
        <time>2020-08-15T06:54:34.609Z</time>
      </trkpt>
      <trkpt lat="37.341046" lon="-5.771277">
        <ele>145.286879</ele>
        <time>2020-08-15T06:54:37.605Z</time>
      </trkpt>
      <trkpt lat="37.341064" lon="-5.771403">
        <ele>145.373292</ele>
        <time>2020-08-15T06:54:40.604Z</time>
      </trkpt>
      <trkpt lat="37.341086" lon="-5.771516">
        <ele>145.451822</ele>
        <time>2020-08-15T06:54:43.614Z</time>
      </trkpt>
      <trkpt lat="37.341102" lon="-5.771642">
        <ele>145.537951</ele>
        <time>2020-08-15T06:54:47.605Z</time>
      </trkpt>
      <trkpt lat="37.341126" lon="-5.771756">
        <ele>145.301925</ele>
        <time>2020-08-15T06:54:54.596Z</time>
      </trkpt>
      <trkpt lat="37.341155" lon="-5.771876">
        <ele>145.048837</ele>
        <time>2020-08-15T06:55:01.611Z</time>
      </trkpt>
      <trkpt lat="37.341165" lon="-5.772009">
        <ele>144.779258</ele>
        <time>2020-08-15T06:55:04.629Z</time>
      </trkpt>
      <trkpt lat="37.341179" lon="-5.772129">
        <ele>144.534517</ele>
        <time>2020-08-15T06:55:07.617Z</time>
      </trkpt>
      <trkpt lat="37.341189" lon="-5.772261">
        <ele>144.266948</ele>
        <time>2020-08-15T06:55:10.629Z</time>
      </trkpt>
      <trkpt lat="37.341205" lon="-5.772387">
        <ele>144.009470</ele>
        <time>2020-08-15T06:55:13.630Z</time>
      </trkpt>
      <trkpt lat="37.341225" lon="-5.772503">
        <ele>143.769952</ele>
        <time>2020-08-15T06:55:16.639Z</time>
      </trkpt>
      <trkpt lat="37.341246" lon="-5.772632">
        <ele>143.504243</ele>
        <time>2020-08-15T06:55:19.625Z</time>
      </trkpt>
      <trkpt lat="37.341259" lon="-5.772760">
        <ele>143.243853</ele>
        <time>2020-08-15T06:55:22.631Z</time>
      </trkpt>
      <trkpt lat="37.341285" lon="-5.772876">
        <ele>143.000652</ele>
        <time>2020-08-15T06:55:25.624Z</time>
      </trkpt>
      <trkpt lat="37.341313" lon="-5.773006">
        <ele>142.728870</ele>
        <time>2020-08-15T06:55:28.628Z</time>
      </trkpt>
      <trkpt lat="37.341332" lon="-5.773125">
        <ele>142.483946</ele>
        <time>2020-08-15T06:55:31.634Z</time>
      </trkpt>
      <trkpt lat="37.341353" lon="-5.773267">
        <ele>142.192489</ele>
        <time>2020-08-15T06:55:35.630Z</time>
      </trkpt>
      <trkpt lat="37.341359" lon="-5.773383">
        <ele>141.957919</ele>
        <time>2020-08-15T06:55:38.623Z</time>
      </trkpt>
      <trkpt lat="37.341362" lon="-5.773504">
        <ele>141.713635</ele>
        <time>2020-08-15T06:55:41.618Z</time>
      </trkpt>
      <trkpt lat="37.341376" lon="-5.773642">
        <ele>141.432907</ele>
        <time>2020-08-15T06:55:44.625Z</time>
      </trkpt>
      <trkpt lat="37.341408" lon="-5.773769">
        <ele>141.164072</ele>
        <time>2020-08-15T06:55:47.628Z</time>
      </trkpt>
      <trkpt lat="37.341447" lon="-5.773901">
        <ele>141.089626</ele>
        <time>2020-08-15T06:55:50.625Z</time>
      </trkpt>
      <trkpt lat="37.341471" lon="-5.774026">
        <ele>141.413046</ele>
        <time>2020-08-15T06:55:53.633Z</time>
      </trkpt>
      <trkpt lat="37.341496" lon="-5.774150">
        <ele>141.734784</ele>
        <time>2020-08-15T06:55:56.634Z</time>
      </trkpt>
      <trkpt lat="37.341510" lon="-5.774274">
        <ele>142.049780</ele>
        <time>2020-08-15T06:55:59.621Z</time>
      </trkpt>
      <trkpt lat="37.341531" lon="-5.774421">
        <ele>142.425414</ele>
        <time>2020-08-15T06:56:03.636Z</time>
      </trkpt>
      <trkpt lat="37.341535" lon="-5.774543">
        <ele>142.732511</ele>
        <time>2020-08-15T06:56:06.636Z</time>
      </trkpt>
      <trkpt lat="37.341555" lon="-5.774668">
        <ele>143.053196</ele>
        <time>2020-08-15T06:56:09.601Z</time>
      </trkpt>
      <trkpt lat="37.341576" lon="-5.774792">
        <ele>143.372059</ele>
        <time>2020-08-15T06:56:12.635Z</time>
      </trkpt>
      <trkpt lat="37.341589" lon="-5.774915">
        <ele>143.684132</ele>
        <time>2020-08-15T06:56:15.628Z</time>
      </trkpt>
      <trkpt lat="37.341596" lon="-5.775046">
        <ele>144.014347</ele>
        <time>2020-08-15T06:56:18.638Z</time>
      </trkpt>
      <trkpt lat="37.341604" lon="-5.775176">
        <ele>144.342282</ele>
        <time>2020-08-15T06:56:22.638Z</time>
      </trkpt>
      <trkpt lat="37.341596" lon="-5.775299">
        <ele>144.652667</ele>
        <time>2020-08-15T06:56:27.623Z</time>
      </trkpt>
      <trkpt lat="37.341617" lon="-5.775416">
        <ele>144.954333</ele>
        <time>2020-08-15T06:56:32.622Z</time>
      </trkpt>
      <trkpt lat="37.341647" lon="-5.775533">
        <ele>145.263520</ele>
        <time>2020-08-15T06:56:37.630Z</time>
      </trkpt>
      <trkpt lat="37.341661" lon="-5.775668">
        <ele>145.605928</ele>
        <time>2020-08-15T06:56:42.630Z</time>
      </trkpt>
      <trkpt lat="37.341652" lon="-5.775790">
        <ele>145.914082</ele>
        <time>2020-08-15T06:56:46.599Z</time>
      </trkpt>
      <trkpt lat="37.341655" lon="-5.775910">
        <ele>146.216037</ele>
        <time>2020-08-15T06:56:50.628Z</time>
      </trkpt>
      <trkpt lat="37.341669" lon="-5.776036">
        <ele>146.536013</ele>
        <time>2020-08-15T06:56:54.602Z</time>
      </trkpt>
      <trkpt lat="37.341704" lon="-5.776172">
        <ele>146.686773</ele>
        <time>2020-08-15T06:56:58.602Z</time>
      </trkpt>
      <trkpt lat="37.341725" lon="-5.776317">
        <ele>146.724394</ele>
        <time>2020-08-15T06:57:02.627Z</time>
      </trkpt>
      <trkpt lat="37.341735" lon="-5.776433">
        <ele>146.754176</ele>
        <time>2020-08-15T06:57:05.626Z</time>
      </trkpt>
      <trkpt lat="37.341744" lon="-5.776553">
        <ele>146.784942</ele>
        <time>2020-08-15T06:57:08.619Z</time>
      </trkpt>
      <trkpt lat="37.341741" lon="-5.776669">
        <ele>146.814567</ele>
        <time>2020-08-15T06:57:11.613Z</time>
      </trkpt>
      <trkpt lat="37.341750" lon="-5.776815">
        <ele>146.851945</ele>
        <time>2020-08-15T06:57:15.612Z</time>
      </trkpt>
      <trkpt lat="37.341736" lon="-5.776934">
        <ele>146.882651</ele>
        <time>2020-08-15T06:57:18.615Z</time>
      </trkpt>
      <trkpt lat="37.341718" lon="-5.777078">
        <ele>146.919859</ele>
        <time>2020-08-15T06:57:22.628Z</time>
      </trkpt>
      <trkpt lat="37.341718" lon="-5.777220">
        <ele>146.956104</ele>
        <time>2020-08-15T06:57:26.618Z</time>
      </trkpt>
      <trkpt lat="37.341725" lon="-5.777333">
        <ele>146.985035</ele>
        <time>2020-08-15T06:57:29.632Z</time>
      </trkpt>
      <trkpt lat="37.341728" lon="-5.777463">
        <ele>147.018231</ele>
        <time>2020-08-15T06:57:32.607Z</time>
      </trkpt>
      <trkpt lat="37.341725" lon="-5.777603">
        <ele>147.053980</ele>
        <time>2020-08-15T06:57:35.631Z</time>
      </trkpt>
      <trkpt lat="37.341714" lon="-5.777742">
        <ele>147.089635</ele>
        <time>2020-08-15T06:57:38.629Z</time>
      </trkpt>
      <trkpt lat="37.341705" lon="-5.777870">
        <ele>147.122434</ele>
        <time>2020-08-15T06:57:41.627Z</time>
      </trkpt>
      <trkpt lat="37.341706" lon="-5.778004">
        <ele>147.156639</ele>
        <time>2020-08-15T06:57:44.642Z</time>
      </trkpt>
      <trkpt lat="37.341697" lon="-5.778146">
        <ele>147.193000</ele>
        <time>2020-08-15T06:57:47.635Z</time>
      </trkpt>
      <trkpt lat="37.341680" lon="-5.778296">
        <ele>147.231675</ele>
        <time>2020-08-15T06:57:50.603Z</time>
      </trkpt>
      <trkpt lat="37.341671" lon="-5.778441">
        <ele>147.275615</ele>
        <time>2020-08-15T06:57:53.631Z</time>
      </trkpt>
      <trkpt lat="37.341657" lon="-5.778599">
        <ele>147.326023</ele>
        <time>2020-08-15T06:57:56.634Z</time>
      </trkpt>
      <trkpt lat="37.341634" lon="-5.778784">
        <ele>147.385396</ele>
        <time>2020-08-15T06:57:59.630Z</time>
      </trkpt>
      <trkpt lat="37.341611" lon="-5.778899">
        <ele>147.422996</ele>
        <time>2020-08-15T06:58:01.613Z</time>
      </trkpt>
      <trkpt lat="37.341590" lon="-5.779029">
        <ele>147.465059</ele>
        <time>2020-08-15T06:58:03.636Z</time>
      </trkpt>
      <trkpt lat="37.341559" lon="-5.779202">
        <ele>147.521290</ele>
        <time>2020-08-15T06:58:06.629Z</time>
      </trkpt>
      <trkpt lat="37.341506" lon="-5.779457">
        <ele>147.604863</ele>
        <time>2020-08-15T06:58:10.683Z</time>
      </trkpt>
      <trkpt lat="37.341488" lon="-5.779583">
        <ele>147.645455</ele>
        <time>2020-08-15T06:58:12.605Z</time>
      </trkpt>
      <trkpt lat="37.341458" lon="-5.779711">
        <ele>147.687768</ele>
        <time>2020-08-15T06:58:14.628Z</time>
      </trkpt>
      <trkpt lat="37.341423" lon="-5.779828">
        <ele>147.727406</ele>
        <time>2020-08-15T06:58:16.626Z</time>
      </trkpt>
      <trkpt lat="37.341388" lon="-5.779960">
        <ele>147.771527</ele>
        <time>2020-08-15T06:58:18.633Z</time>
      </trkpt>
      <trkpt lat="37.341344" lon="-5.780066">
        <ele>147.809443</ele>
        <time>2020-08-15T06:58:20.631Z</time>
      </trkpt>
      <trkpt lat="37.341317" lon="-5.780196">
        <ele>147.852046</ele>
        <time>2020-08-15T06:58:23.630Z</time>
      </trkpt>
      <trkpt lat="37.341279" lon="-5.780345">
        <ele>147.901663</ele>
        <time>2020-08-15T06:58:26.636Z</time>
      </trkpt>
      <trkpt lat="37.341198" lon="-5.780536">
        <ele>148.031528</ele>
        <time>2020-08-15T06:58:29.628Z</time>
      </trkpt>
      <trkpt lat="37.341155" lon="-5.780660">
        <ele>148.287999</ele>
        <time>2020-08-15T06:58:31.634Z</time>
      </trkpt>
      <trkpt lat="37.341115" lon="-5.780780">
        <ele>148.534684</ele>
        <time>2020-08-15T06:58:33.615Z</time>
      </trkpt>
      <trkpt lat="37.341094" lon="-5.780913">
        <ele>148.791753</ele>
        <time>2020-08-15T06:58:35.615Z</time>
      </trkpt>
      <trkpt lat="37.341041" lon="-5.781010">
        <ele>149.014890</ele>
        <time>2020-08-15T06:58:38.643Z</time>
      </trkpt>
      <trkpt lat="37.340982" lon="-5.781117">
        <ele>149.261757</ele>
        <time>2020-08-15T06:58:40.630Z</time>
      </trkpt>
      <trkpt lat="37.340927" lon="-5.781298">
        <ele>149.629111</ele>
        <time>2020-08-15T06:58:42.624Z</time>
      </trkpt>
      <trkpt lat="37.340876" lon="-5.781416">
        <ele>149.883738</ele>
        <time>2020-08-15T06:58:44.620Z</time>
      </trkpt>
      <trkpt lat="37.340836" lon="-5.781537">
        <ele>150.132174</ele>
        <time>2020-08-15T06:58:46.625Z</time>
      </trkpt>
      <trkpt lat="37.340790" lon="-5.781651">
        <ele>150.374541</ele>
        <time>2020-08-15T06:58:48.625Z</time>
      </trkpt>
      <trkpt lat="37.340713" lon="-5.781781">
        <ele>150.681877</ele>
        <time>2020-08-15T06:58:51.602Z</time>
      </trkpt>
      <trkpt lat="37.340677" lon="-5.781887">
        <ele>150.900403</ele>
        <time>2020-08-15T06:58:53.632Z</time>
      </trkpt>
      <trkpt lat="37.340624" lon="-5.781991">
        <ele>151.134598</ele>
        <time>2020-08-15T06:58:56.638Z</time>
      </trkpt>
      <trkpt lat="37.340565" lon="-5.782089">
        <ele>151.367648</ele>
        <time>2020-08-15T06:59:09.619Z</time>
      </trkpt>
      <trkpt lat="37.340490" lon="-5.782198">
        <ele>151.640938</ele>
        <time>2020-08-15T06:59:14.624Z</time>
      </trkpt>
      <trkpt lat="37.340422" lon="-5.782303">
        <ele>151.897686</ele>
        <time>2020-08-15T06:59:18.631Z</time>
      </trkpt>
      <trkpt lat="37.340373" lon="-5.782401">
        <ele>152.117165</ele>
        <time>2020-08-15T06:59:30.608Z</time>
      </trkpt>
      <trkpt lat="37.340300" lon="-5.782479">
        <ele>152.274252</ele>
        <time>2020-08-15T06:59:37.626Z</time>
      </trkpt>
      <trkpt lat="37.340301" lon="-5.782603">
        <ele>152.339252</ele>
        <time>2020-08-15T06:59:43.618Z</time>
      </trkpt>
      <trkpt lat="37.340258" lon="-5.782710">
        <ele>152.402096</ele>
        <time>2020-08-15T06:59:52.613Z</time>
      </trkpt>
      <trkpt lat="37.340182" lon="-5.782789">
        <ele>152.467099</ele>
        <time>2020-08-15T07:00:00.629Z</time>
      </trkpt>
      <trkpt lat="37.340114" lon="-5.782872">
        <ele>152.529570</ele>
        <time>2020-08-15T07:00:11.618Z</time>
      </trkpt>
      <trkpt lat="37.340064" lon="-5.782997">
        <ele>152.602917</ele>
        <time>2020-08-15T07:00:29.605Z</time>
      </trkpt>
      <trkpt lat="37.340023" lon="-5.783126">
        <ele>152.675737</ele>
        <time>2020-08-15T07:00:32.610Z</time>
      </trkpt>
      <trkpt lat="37.339951" lon="-5.783255">
        <ele>152.758354</ele>
        <time>2020-08-15T07:00:35.603Z</time>
      </trkpt>
      <trkpt lat="37.339891" lon="-5.783365">
        <ele>152.828278</ele>
        <time>2020-08-15T07:00:38.616Z</time>
      </trkpt>
      <trkpt lat="37.339837" lon="-5.783490">
        <ele>152.902847</ele>
        <time>2020-08-15T07:00:41.631Z</time>
      </trkpt>
      <trkpt lat="37.339749" lon="-5.783598">
        <ele>152.983907</ele>
        <time>2020-08-15T07:00:44.626Z</time>
      </trkpt>
      <trkpt lat="37.339639" lon="-5.783683">
        <ele>153.069023</ele>
        <time>2020-08-15T07:00:46.600Z</time>
      </trkpt>
      <trkpt lat="37.339568" lon="-5.783763">
        <ele>153.131868</ele>
        <time>2020-08-15T07:00:48.637Z</time>
      </trkpt>
      <trkpt lat="37.339491" lon="-5.783840">
        <ele>153.196723</ele>
        <time>2020-08-15T07:00:50.618Z</time>
      </trkpt>
      <trkpt lat="37.339435" lon="-5.783938">
        <ele>153.259984</ele>
        <time>2020-08-15T07:00:52.624Z</time>
      </trkpt>
      <trkpt lat="37.339377" lon="-5.784027">
        <ele>153.320305</ele>
        <time>2020-08-15T07:00:54.637Z</time>
      </trkpt>
      <trkpt lat="37.339327" lon="-5.784138">
        <ele>153.387178</ele>
        <time>2020-08-15T07:00:56.631Z</time>
      </trkpt>
      <trkpt lat="37.339232" lon="-5.784279">
        <ele>153.186425</ele>
        <time>2020-08-15T07:00:58.628Z</time>
      </trkpt>
      <trkpt lat="37.339154" lon="-5.784421">
        <ele>152.751246</ele>
        <time>2020-08-15T07:01:00.627Z</time>
      </trkpt>
      <trkpt lat="37.339085" lon="-5.784503">
        <ele>152.450196</ele>
        <time>2020-08-15T07:01:02.627Z</time>
      </trkpt>
      <trkpt lat="37.339013" lon="-5.784607">
        <ele>152.102490</ele>
        <time>2020-08-15T07:01:04.609Z</time>
      </trkpt>
      <trkpt lat="37.338945" lon="-5.784719">
        <ele>151.747168</ele>
        <time>2020-08-15T07:01:06.623Z</time>
      </trkpt>
      <trkpt lat="37.338869" lon="-5.784821">
        <ele>151.394698</ele>
        <time>2020-08-15T07:01:08.616Z</time>
      </trkpt>
      <trkpt lat="37.338791" lon="-5.784953">
        <ele>150.980015</ele>
        <time>2020-08-15T07:01:10.631Z</time>
      </trkpt>
      <trkpt lat="37.338709" lon="-5.785057">
        <ele>150.610707</ele>
        <time>2020-08-15T07:01:12.618Z</time>
      </trkpt>
      <trkpt lat="37.338655" lon="-5.785159">
        <ele>150.301723</ele>
        <time>2020-08-15T07:01:14.634Z</time>
      </trkpt>
      <trkpt lat="37.338610" lon="-5.785261">
        <ele>150.007597</ele>
        <time>2020-08-15T07:01:16.636Z</time>
      </trkpt>
      <trkpt lat="37.338547" lon="-5.785352">
        <ele>149.703352</ele>
        <time>2020-08-15T07:01:18.620Z</time>
      </trkpt>
      <trkpt lat="37.338449" lon="-5.785456">
        <ele>149.296714</ele>
        <time>2020-08-15T07:01:21.626Z</time>
      </trkpt>
      <trkpt lat="37.338415" lon="-5.785597">
        <ele>148.925202</ele>
        <time>2020-08-15T07:01:23.626Z</time>
      </trkpt>
      <trkpt lat="37.338344" lon="-5.785697">
        <ele>148.587156</ele>
        <time>2020-08-15T07:01:26.638Z</time>
      </trkpt>
      <trkpt lat="37.338292" lon="-5.785791">
        <ele>148.298416</ele>
        <time>2020-08-15T07:01:39.632Z</time>
      </trkpt>
      <trkpt lat="37.337796" lon="-5.786547">
        <ele>147.544317</ele>
        <time>2020-08-15T07:01:44.631Z</time>
      </trkpt>
      <trkpt lat="37.337734" lon="-5.786661">
        <ele>147.510546</ele>
        <time>2020-08-15T07:01:47.602Z</time>
      </trkpt>
      <trkpt lat="37.337638" lon="-5.786760">
        <ele>147.472369</ele>
        <time>2020-08-15T07:01:49.617Z</time>
      </trkpt>
      <trkpt lat="37.337552" lon="-5.786857">
        <ele>147.436845</ele>
        <time>2020-08-15T07:01:52.630Z</time>
      </trkpt>
      <trkpt lat="37.337363" lon="-5.787093">
        <ele>147.354943</ele>
        <time>2020-08-15T07:01:56.632Z</time>
      </trkpt>
      <trkpt lat="37.337300" lon="-5.787193">
        <ele>147.323747</ele>
        <time>2020-08-15T07:01:58.624Z</time>
      </trkpt>
      <trkpt lat="37.337233" lon="-5.787298">
        <ele>147.290828</ele>
        <time>2020-08-15T07:02:00.637Z</time>
      </trkpt>
      <trkpt lat="37.337152" lon="-5.787409">
        <ele>147.253989</ele>
        <time>2020-08-15T07:02:02.630Z</time>
      </trkpt>
      <trkpt lat="37.337117" lon="-5.787529">
        <ele>147.222736</ele>
        <time>2020-08-15T07:02:04.640Z</time>
      </trkpt>
      <trkpt lat="37.337054" lon="-5.787667">
        <ele>147.183828</ele>
        <time>2020-08-15T07:02:07.630Z</time>
      </trkpt>
      <trkpt lat="37.336982" lon="-5.787787">
        <ele>147.055662</ele>
        <time>2020-08-15T07:02:11.620Z</time>
      </trkpt>
      <trkpt lat="37.336863" lon="-5.787953">
        <ele>146.825915</ele>
        <time>2020-08-15T07:02:13.627Z</time>
      </trkpt>
      <trkpt lat="37.336811" lon="-5.788048">
        <ele>146.707361</ele>
        <time>2020-08-15T07:02:14.637Z</time>
      </trkpt>
      <trkpt lat="37.336775" lon="-5.788154">
        <ele>146.588879</ele>
        <time>2020-08-15T07:02:16.633Z</time>
      </trkpt>
      <trkpt lat="37.336726" lon="-5.788268">
        <ele>146.455671</ele>
        <time>2020-08-15T07:02:18.638Z</time>
      </trkpt>
      <trkpt lat="37.336663" lon="-5.788383">
        <ele>146.312120</ele>
        <time>2020-08-15T07:02:20.605Z</time>
      </trkpt>
      <trkpt lat="37.336609" lon="-5.788477">
        <ele>146.192915</ele>
        <time>2020-08-15T07:02:22.636Z</time>
      </trkpt>
      <trkpt lat="37.336533" lon="-5.788580">
        <ele>146.048474</ele>
        <time>2020-08-15T07:02:24.614Z</time>
      </trkpt>
      <trkpt lat="37.336461" lon="-5.788676">
        <ele>145.912819</ele>
        <time>2020-08-15T07:02:26.640Z</time>
      </trkpt>
      <trkpt lat="37.336358" lon="-5.788781">
        <ele>145.741411</ele>
        <time>2020-08-15T07:02:29.632Z</time>
      </trkpt>
      <trkpt lat="37.336270" lon="-5.788898">
        <ele>145.575861</ele>
        <time>2020-08-15T07:02:32.612Z</time>
      </trkpt>
      <trkpt lat="37.336203" lon="-5.788980">
        <ele>145.455000</ele>
        <time>2020-08-15T07:02:34.624Z</time>
      </trkpt>
      <trkpt lat="37.336124" lon="-5.789060">
        <ele>145.323876</ele>
        <time>2020-08-15T07:02:36.632Z</time>
      </trkpt>
      <trkpt lat="37.336039" lon="-5.789219">
        <ele>145.126930</ele>
        <time>2020-08-15T07:02:39.633Z</time>
      </trkpt>
      <trkpt lat="37.335954" lon="-5.789312">
        <ele>144.981278</ele>
        <time>2020-08-15T07:02:42.621Z</time>
      </trkpt>
      <trkpt lat="37.335865" lon="-5.789446">
        <ele>144.763921</ele>
        <time>2020-08-15T07:02:45.627Z</time>
      </trkpt>
      <trkpt lat="37.335801" lon="-5.789560">
        <ele>144.508362</ele>
        <time>2020-08-15T07:02:48.610Z</time>
      </trkpt>
      <trkpt lat="37.335732" lon="-5.789647">
        <ele>144.283332</ele>
        <time>2020-08-15T07:02:50.616Z</time>
      </trkpt>
      <trkpt lat="37.335681" lon="-5.789750">
        <ele>144.061127</ele>
        <time>2020-08-15T07:02:52.617Z</time>
      </trkpt>
      <trkpt lat="37.335629" lon="-5.789855">
        <ele>143.834595</ele>
        <time>2020-08-15T07:02:54.624Z</time>
      </trkpt>
      <trkpt lat="37.335551" lon="-5.789934">
        <ele>143.603936</ele>
        <time>2020-08-15T07:02:56.620Z</time>
      </trkpt>
      <trkpt lat="37.335448" lon="-5.790014">
        <ele>143.325116</ele>
        <time>2020-08-15T07:02:59.625Z</time>
      </trkpt>
      <trkpt lat="37.335386" lon="-5.790097">
        <ele>143.116564</ele>
        <time>2020-08-15T07:03:01.628Z</time>
      </trkpt>
      <trkpt lat="37.335307" lon="-5.790201">
        <ele>142.853165</ele>
        <time>2020-08-15T07:03:04.622Z</time>
      </trkpt>
      <trkpt lat="37.335237" lon="-5.790277">
        <ele>142.640178</ele>
        <time>2020-08-15T07:03:06.612Z</time>
      </trkpt>
      <trkpt lat="37.335161" lon="-5.790386">
        <ele>142.374690</ele>
        <time>2020-08-15T07:03:09.633Z</time>
      </trkpt>
      <trkpt lat="37.335084" lon="-5.790496">
        <ele>142.106306</ele>
        <time>2020-08-15T07:03:12.611Z</time>
      </trkpt>
      <trkpt lat="37.335005" lon="-5.790628">
        <ele>141.803750</ele>
        <time>2020-08-15T07:03:15.613Z</time>
      </trkpt>
      <trkpt lat="37.334949" lon="-5.790761">
        <ele>141.528147</ele>
        <time>2020-08-15T07:03:17.635Z</time>
      </trkpt>
      <trkpt lat="37.334867" lon="-5.790836">
        <ele>141.294624</ele>
        <time>2020-08-15T07:03:19.632Z</time>
      </trkpt>
      <trkpt lat="37.334758" lon="-5.790927">
        <ele>140.993299</ele>
        <time>2020-08-15T07:03:22.631Z</time>
      </trkpt>
      <trkpt lat="37.334699" lon="-5.791039">
        <ele>140.747263</ele>
        <time>2020-08-15T07:03:24.616Z</time>
      </trkpt>
      <trkpt lat="37.334624" lon="-5.791156">
        <ele>140.425490</ele>
        <time>2020-08-15T07:03:27.628Z</time>
      </trkpt>
      <trkpt lat="37.334495" lon="-5.791253">
        <ele>140.010925</ele>
        <time>2020-08-15T07:03:30.621Z</time>
      </trkpt>
      <trkpt lat="37.334406" lon="-5.791286">
        <ele>139.754991</ele>
        <time>2020-08-15T07:03:32.644Z</time>
      </trkpt>
      <trkpt lat="37.334296" lon="-5.791335">
        <ele>139.433110</ele>
        <time>2020-08-15T07:03:35.640Z</time>
      </trkpt>
      <trkpt lat="37.334201" lon="-5.791343">
        <ele>139.170486</ele>
        <time>2020-08-15T07:03:37.629Z</time>
      </trkpt>
      <trkpt lat="37.334116" lon="-5.791405">
        <ele>138.899454</ele>
        <time>2020-08-15T07:03:39.619Z</time>
      </trkpt>
      <trkpt lat="37.334023" lon="-5.791478">
        <ele>138.597071</ele>
        <time>2020-08-15T07:03:41.628Z</time>
      </trkpt>
      <trkpt lat="37.333912" lon="-5.791499">
        <ele>138.287456</ele>
        <time>2020-08-15T07:03:43.638Z</time>
      </trkpt>
      <trkpt lat="37.333807" lon="-5.791532">
        <ele>137.988929</ele>
        <time>2020-08-15T07:03:45.636Z</time>
      </trkpt>
      <trkpt lat="37.333721" lon="-5.791609">
        <ele>137.697745</ele>
        <time>2020-08-15T07:03:47.623Z</time>
      </trkpt>
      <trkpt lat="37.333640" lon="-5.791671">
        <ele>137.436198</ele>
        <time>2020-08-15T07:03:49.611Z</time>
      </trkpt>
      <trkpt lat="37.333540" lon="-5.791723">
        <ele>137.137722</ele>
        <time>2020-08-15T07:03:51.633Z</time>
      </trkpt>
      <trkpt lat="37.333430" lon="-5.791789">
        <ele>136.801551</ele>
        <time>2020-08-15T07:03:54.629Z</time>
      </trkpt>
      <trkpt lat="37.333343" lon="-5.791853">
        <ele>136.523543</ele>
        <time>2020-08-15T07:03:57.608Z</time>
      </trkpt>
      <trkpt lat="37.333217" lon="-5.791899">
        <ele>136.161652</ele>
        <time>2020-08-15T07:04:00.644Z</time>
      </trkpt>
      <trkpt lat="37.333090" lon="-5.791945">
        <ele>135.797111</ele>
        <time>2020-08-15T07:04:03.603Z</time>
      </trkpt>
      <trkpt lat="37.332963" lon="-5.791974">
        <ele>135.517626</ele>
        <time>2020-08-15T07:04:05.634Z</time>
      </trkpt>
      <trkpt lat="37.332879" lon="-5.792042">
        <ele>135.311149</ele>
        <time>2020-08-15T07:04:08.619Z</time>
      </trkpt>
      <trkpt lat="37.332734" lon="-5.792048">
        <ele>135.011287</ele>
        <time>2020-08-15T07:04:11.617Z</time>
      </trkpt>
      <trkpt lat="37.332641" lon="-5.792113">
        <ele>134.791377</ele>
        <time>2020-08-15T07:04:14.638Z</time>
      </trkpt>
      <trkpt lat="37.332546" lon="-5.792184">
        <ele>134.562968</ele>
        <time>2020-08-15T07:04:17.635Z</time>
      </trkpt>
      <trkpt lat="37.332445" lon="-5.792243">
        <ele>134.332791</ele>
        <time>2020-08-15T07:04:20.627Z</time>
      </trkpt>
      <trkpt lat="37.332333" lon="-5.792307">
        <ele>134.078524</ele>
        <time>2020-08-15T07:04:23.632Z</time>
      </trkpt>
      <trkpt lat="37.332255" lon="-5.792388">
        <ele>133.869450</ele>
        <time>2020-08-15T07:04:26.634Z</time>
      </trkpt>
      <trkpt lat="37.332169" lon="-5.792465">
        <ele>133.651252</ele>
        <time>2020-08-15T07:04:31.632Z</time>
      </trkpt>
      <trkpt lat="37.332072" lon="-5.792452">
        <ele>133.449628</ele>
        <time>2020-08-15T07:04:42.605Z</time>
      </trkpt>
      <trkpt lat="37.332021" lon="-5.792346">
        <ele>133.246012</ele>
        <time>2020-08-15T07:04:47.603Z</time>
      </trkpt>
      <trkpt lat="37.331922" lon="-5.792269">
        <ele>133.005420</ele>
        <time>2020-08-15T07:04:52.602Z</time>
      </trkpt>
      <trkpt lat="37.331810" lon="-5.792230">
        <ele>132.765218</ele>
        <time>2020-08-15T07:04:55.614Z</time>
      </trkpt>
      <trkpt lat="37.331675" lon="-5.792264">
        <ele>132.480647</ele>
        <time>2020-08-15T07:04:58.603Z</time>
      </trkpt>
      <trkpt lat="37.331571" lon="-5.792289">
        <ele>132.261798</ele>
        <time>2020-08-15T07:05:00.622Z</time>
      </trkpt>
      <trkpt lat="37.331450" lon="-5.792335">
        <ele>132.084790</ele>
        <time>2020-08-15T07:05:03.634Z</time>
      </trkpt>
      <trkpt lat="37.331360" lon="-5.792380">
        <ele>132.480273</ele>
        <time>2020-08-15T07:05:07.644Z</time>
      </trkpt>
      <trkpt lat="37.331261" lon="-5.792440">
        <ele>132.929018</ele>
        <time>2020-08-15T07:05:10.648Z</time>
      </trkpt>
      <trkpt lat="37.330220" lon="-5.792891">
        <ele>137.424958</ele>
        <time>2020-08-15T07:05:29.679Z</time>
      </trkpt>
      <trkpt lat="37.330123" lon="-5.792942">
        <ele>137.854266</ele>
        <time>2020-08-15T07:05:31.610Z</time>
      </trkpt>
      <trkpt lat="37.330012" lon="-5.792954">
        <ele>138.309191</ele>
        <time>2020-08-15T07:05:33.613Z</time>
      </trkpt>
      <trkpt lat="37.329915" lon="-5.792970">
        <ele>138.708670</ele>
        <time>2020-08-15T07:05:38.639Z</time>
      </trkpt>
      <trkpt lat="37.329795" lon="-5.793040">
        <ele>139.248820</ele>
        <time>2020-08-15T07:05:40.619Z</time>
      </trkpt>
      <trkpt lat="37.329671" lon="-5.793120">
        <ele>139.471222</ele>
        <time>2020-08-15T07:05:41.618Z</time>
      </trkpt>
      <trkpt lat="37.329431" lon="-5.793027">
        <ele>139.696962</ele>
        <time>2020-08-15T07:06:39.617Z</time>
      </trkpt>
      <trkpt lat="37.329396" lon="-5.792905">
        <ele>139.789664</ele>
        <time>2020-08-15T07:06:45.646Z</time>
      </trkpt>
      <trkpt lat="37.329405" lon="-5.792768">
        <ele>139.887919</ele>
        <time>2020-08-15T07:06:52.628Z</time>
      </trkpt>
      <trkpt lat="37.329407" lon="-5.792647">
        <ele>139.974424</ele>
        <time>2020-08-15T07:06:56.643Z</time>
      </trkpt>
      <trkpt lat="37.329422" lon="-5.792521">
        <ele>140.065487</ele>
        <time>2020-08-15T07:07:00.624Z</time>
      </trkpt>
      <trkpt lat="37.329450" lon="-5.792413">
        <ele>140.146680</ele>
        <time>2020-08-15T07:07:04.647Z</time>
      </trkpt>
      <trkpt lat="37.329462" lon="-5.792290">
        <ele>140.235255</ele>
        <time>2020-08-15T07:07:09.634Z</time>
      </trkpt>
      <trkpt lat="37.329479" lon="-5.792179">
        <ele>140.316051</ele>
        <time>2020-08-15T07:07:13.644Z</time>
      </trkpt>
      <trkpt lat="37.329469" lon="-5.792046">
        <ele>140.411537</ele>
        <time>2020-08-15T07:07:17.633Z</time>
      </trkpt>
      <trkpt lat="37.329430" lon="-5.791922">
        <ele>140.506848</ele>
        <time>2020-08-15T07:07:22.628Z</time>
      </trkpt>
      <trkpt lat="37.329396" lon="-5.791816">
        <ele>140.588545</ele>
        <time>2020-08-15T07:07:27.612Z</time>
      </trkpt>
      <trkpt lat="37.329366" lon="-5.791691">
        <ele>140.681870</ele>
        <time>2020-08-15T07:07:32.632Z</time>
      </trkpt>
      <trkpt lat="37.329355" lon="-5.791549">
        <ele>140.783846</ele>
        <time>2020-08-15T07:07:37.620Z</time>
      </trkpt>
      <trkpt lat="37.329333" lon="-5.791427">
        <ele>140.873261</ele>
        <time>2020-08-15T07:07:41.636Z</time>
      </trkpt>
      <trkpt lat="37.329317" lon="-5.791316">
        <ele>140.953892</ele>
        <time>2020-08-15T07:07:44.613Z</time>
      </trkpt>
      <trkpt lat="37.329309" lon="-5.791180">
        <ele>140.605394</ele>
        <time>2020-08-15T07:07:47.627Z</time>
      </trkpt>
      <trkpt lat="37.329297" lon="-5.791006">
        <ele>139.821006</ele>
        <time>2020-08-15T07:07:50.646Z</time>
      </trkpt>
      <trkpt lat="37.329288" lon="-5.790852">
        <ele>139.127509</ele>
        <time>2020-08-15T07:07:52.654Z</time>
      </trkpt>
      <trkpt lat="37.329276" lon="-5.790697">
        <ele>138.428094</ele>
        <time>2020-08-15T07:07:55.643Z</time>
      </trkpt>
      <trkpt lat="37.329222" lon="-5.790606">
        <ele>137.918142</ele>
        <time>2020-08-15T07:08:13.618Z</time>
      </trkpt>
      <trkpt lat="37.329201" lon="-5.790486">
        <ele>137.366311</ele>
        <time>2020-08-15T07:08:24.627Z</time>
      </trkpt>
      <trkpt lat="37.329233" lon="-5.790372">
        <ele>136.823358</ele>
        <time>2020-08-15T07:08:42.621Z</time>
      </trkpt>
      <trkpt lat="37.329296" lon="-5.790274">
        <ele>136.257384</ele>
        <time>2020-08-15T07:08:54.623Z</time>
      </trkpt>
      <trkpt lat="37.329380" lon="-5.790204">
        <ele>135.688242</ele>
        <time>2020-08-15T07:09:07.628Z</time>
      </trkpt>
      <trkpt lat="37.329466" lon="-5.790171">
        <ele>135.180404</ele>
        <time>2020-08-15T07:09:21.625Z</time>
      </trkpt>
      <trkpt lat="37.329546" lon="-5.790108">
        <ele>134.647284</ele>
        <time>2020-08-15T07:09:30.628Z</time>
      </trkpt>
      <trkpt lat="37.329494" lon="-5.789996">
        <ele>134.064814</ele>
        <time>2020-08-15T07:09:54.601Z</time>
      </trkpt>
      <trkpt lat="37.329395" lon="-5.789937">
        <ele>133.446051</ele>
        <time>2020-08-15T07:09:58.658Z</time>
      </trkpt>
      <trkpt lat="37.329284" lon="-5.789891">
        <ele>132.785957</ele>
        <time>2020-08-15T07:10:01.640Z</time>
      </trkpt>
      <trkpt lat="37.329200" lon="-5.789849">
        <ele>132.275399</ele>
        <time>2020-08-15T07:10:03.644Z</time>
      </trkpt>
      <trkpt lat="37.329063" lon="-5.789774">
        <ele>131.431483</ele>
        <time>2020-08-15T07:10:06.621Z</time>
      </trkpt>
      <trkpt lat="37.328933" lon="-5.789714">
        <ele>130.743240</ele>
        <time>2020-08-15T07:10:08.657Z</time>
      </trkpt>
      <trkpt lat="37.328688" lon="-5.789615">
        <ele>130.039690</ele>
        <time>2020-08-15T07:10:10.636Z</time>
      </trkpt>
      <trkpt lat="37.328585" lon="-5.789607">
        <ele>129.757555</ele>
        <time>2020-08-15T07:10:12.638Z</time>
      </trkpt>
      <trkpt lat="37.328492" lon="-5.789615">
        <ele>129.502702</ele>
        <time>2020-08-15T07:10:14.637Z</time>
      </trkpt>
      <trkpt lat="37.328385" lon="-5.789618">
        <ele>129.210095</ele>
        <time>2020-08-15T07:10:16.636Z</time>
      </trkpt>
      <trkpt lat="37.328271" lon="-5.789625">
        <ele>128.898052</ele>
        <time>2020-08-15T07:10:18.634Z</time>
      </trkpt>
      <trkpt lat="37.328163" lon="-5.789661">
        <ele>128.592588</ele>
        <time>2020-08-15T07:10:20.646Z</time>
      </trkpt>
      <trkpt lat="37.328087" lon="-5.789732">
        <ele>128.333748</ele>
        <time>2020-08-15T07:10:22.636Z</time>
      </trkpt>
      <trkpt lat="37.328000" lon="-5.789839">
        <ele>128.001054</ele>
        <time>2020-08-15T07:10:25.624Z</time>
      </trkpt>
      <trkpt lat="37.327933" lon="-5.789931">
        <ele>127.729842</ele>
        <time>2020-08-15T07:10:30.639Z</time>
      </trkpt>
      <trkpt lat="37.327928" lon="-5.789809">
        <ele>127.464263</ele>
        <time>2020-08-15T07:10:38.618Z</time>
      </trkpt>
      <trkpt lat="37.328018" lon="-5.789740">
        <ele>127.176087</ele>
        <time>2020-08-15T07:10:42.649Z</time>
      </trkpt>
      <trkpt lat="37.327922" lon="-5.789693">
        <ele>126.894438</ele>
        <time>2020-08-15T07:10:53.608Z</time>
      </trkpt>
      <trkpt lat="37.327831" lon="-5.789744">
        <ele>126.622060</ele>
        <time>2020-08-15T07:10:57.629Z</time>
      </trkpt>
      <trkpt lat="37.327749" lon="-5.789825">
        <ele>126.336985</ele>
        <time>2020-08-15T07:11:09.625Z</time>
      </trkpt>
      <trkpt lat="37.327678" lon="-5.789904">
        <ele>126.077802</ele>
        <time>2020-08-15T07:11:14.627Z</time>
      </trkpt>
      <trkpt lat="37.327614" lon="-5.789986">
        <ele>125.763578</ele>
        <time>2020-08-15T07:11:18.628Z</time>
      </trkpt>
      <trkpt lat="37.327514" lon="-5.790080">
        <ele>125.166168</ele>
        <time>2020-08-15T07:11:22.635Z</time>
      </trkpt>
      <trkpt lat="37.327415" lon="-5.790167">
        <ele>124.588242</ele>
        <time>2020-08-15T07:11:25.633Z</time>
      </trkpt>
      <trkpt lat="37.327337" lon="-5.790258">
        <ele>124.079126</ele>
        <time>2020-08-15T07:11:28.628Z</time>
      </trkpt>
      <trkpt lat="37.327254" lon="-5.790309">
        <ele>123.637091</ele>
        <time>2020-08-15T07:11:31.624Z</time>
      </trkpt>
      <trkpt lat="37.327166" lon="-5.790365">
        <ele>123.165161</ele>
        <time>2020-08-15T07:11:35.629Z</time>
      </trkpt>
      <trkpt lat="37.327067" lon="-5.790389">
        <ele>122.682717</ele>
        <time>2020-08-15T07:11:37.636Z</time>
      </trkpt>
      <trkpt lat="37.326973" lon="-5.790452">
        <ele>122.173028</ele>
        <time>2020-08-15T07:11:40.636Z</time>
      </trkpt>
      <trkpt lat="37.326877" lon="-5.790514">
        <ele>121.656624</ele>
        <time>2020-08-15T07:11:45.636Z</time>
      </trkpt>
      <trkpt lat="37.326774" lon="-5.790534">
        <ele>121.157920</ele>
        <time>2020-08-15T07:11:48.631Z</time>
      </trkpt>
      <trkpt lat="37.326664" lon="-5.790549">
        <ele>120.628476</ele>
        <time>2020-08-15T07:11:52.629Z</time>
      </trkpt>
      <trkpt lat="37.326588" lon="-5.790614">
        <ele>120.188676</ele>
        <time>2020-08-15T07:11:56.632Z</time>
      </trkpt>
      <trkpt lat="37.326497" lon="-5.790672">
        <ele>119.700500</ele>
        <time>2020-08-15T07:12:01.636Z</time>
      </trkpt>
      <trkpt lat="37.326402" lon="-5.790699">
        <ele>119.234453</ele>
        <time>2020-08-15T07:12:05.631Z</time>
      </trkpt>
      <trkpt lat="37.326311" lon="-5.790742">
        <ele>118.769285</ele>
        <time>2020-08-15T07:12:08.637Z</time>
      </trkpt>
      <trkpt lat="37.326206" lon="-5.790816">
        <ele>118.193330</ele>
        <time>2020-08-15T07:12:11.632Z</time>
      </trkpt>
      <trkpt lat="37.326101" lon="-5.790881">
        <ele>117.633320</ele>
        <time>2020-08-15T07:12:14.644Z</time>
      </trkpt>
      <trkpt lat="37.326016" lon="-5.790922">
        <ele>117.245260</ele>
        <time>2020-08-15T07:12:18.652Z</time>
      </trkpt>
      <trkpt lat="37.325884" lon="-5.790941">
        <ele>116.885543</ele>
        <time>2020-08-15T07:12:21.627Z</time>
      </trkpt>
      <trkpt lat="37.325782" lon="-5.790926">
        <ele>116.607500</ele>
        <time>2020-08-15T07:12:26.607Z</time>
      </trkpt>
      <trkpt lat="37.325689" lon="-5.790967">
        <ele>116.340682</ele>
        <time>2020-08-15T07:12:32.630Z</time>
      </trkpt>
      <trkpt lat="37.325595" lon="-5.791008">
        <ele>116.071308</ele>
        <time>2020-08-15T07:12:36.629Z</time>
      </trkpt>
      <trkpt lat="37.325505" lon="-5.790990">
        <ele>115.824574</ele>
        <time>2020-08-15T07:12:40.621Z</time>
      </trkpt>
      <trkpt lat="37.325400" lon="-5.791003">
        <ele>115.538917</ele>
        <time>2020-08-15T07:12:54.592Z</time>
      </trkpt>
      <trkpt lat="37.325326" lon="-5.790917">
        <ele>115.266110</ele>
        <time>2020-08-15T07:13:08.636Z</time>
      </trkpt>
      <trkpt lat="37.325232" lon="-5.790853">
        <ele>114.976702</ele>
        <time>2020-08-15T07:13:15.625Z</time>
      </trkpt>
      <trkpt lat="37.325158" lon="-5.790788">
        <ele>114.732314</ele>
        <time>2020-08-15T07:13:57.641Z</time>
      </trkpt>
      <trkpt lat="37.324980" lon="-5.790526">
        <ele>113.990395</ele>
        <time>2020-08-15T07:14:03.631Z</time>
      </trkpt>
      <trkpt lat="37.324880" lon="-5.790517">
        <ele>113.718957</ele>
        <time>2020-08-15T07:14:07.619Z</time>
      </trkpt>
      <trkpt lat="37.324788" lon="-5.790513">
        <ele>113.469722</ele>
        <time>2020-08-15T07:14:09.636Z</time>
      </trkpt>
      <trkpt lat="37.324673" lon="-5.790513">
        <ele>113.158364</ele>
        <time>2020-08-15T07:14:11.624Z</time>
      </trkpt>
      <trkpt lat="37.324570" lon="-5.790545">
        <ele>112.871112</ele>
        <time>2020-08-15T07:14:14.607Z</time>
      </trkpt>
      <trkpt lat="37.324471" lon="-5.790570">
        <ele>112.597723</ele>
        <time>2020-08-15T07:14:22.600Z</time>
      </trkpt>
      <trkpt lat="37.324432" lon="-5.790686">
        <ele>112.056179</ele>
        <time>2020-08-15T07:14:31.617Z</time>
      </trkpt>
      <trkpt lat="37.324463" lon="-5.790804">
        <ele>111.136435</ele>
        <time>2020-08-15T07:14:36.621Z</time>
      </trkpt>
      <trkpt lat="37.324465" lon="-5.790936">
        <ele>110.159323</ele>
        <time>2020-08-15T07:14:41.626Z</time>
      </trkpt>
      <trkpt lat="37.324448" lon="-5.791062">
        <ele>109.213467</ele>
        <time>2020-08-15T07:14:47.627Z</time>
      </trkpt>
      <trkpt lat="37.324445" lon="-5.791192">
        <ele>108.250929</ele>
        <time>2020-08-15T07:14:51.639Z</time>
      </trkpt>
      <trkpt lat="37.324439" lon="-5.791324">
        <ele>107.272400</ele>
        <time>2020-08-15T07:14:56.615Z</time>
      </trkpt>
      <trkpt lat="37.324443" lon="-5.791451">
        <ele>106.331733</ele>
        <time>2020-08-15T07:14:59.614Z</time>
      </trkpt>
      <trkpt lat="37.324432" lon="-5.791566">
        <ele>105.474480</ele>
        <time>2020-08-15T07:15:03.661Z</time>
      </trkpt>
      <trkpt lat="37.324452" lon="-5.791682">
        <ele>104.596014</ele>
        <time>2020-08-15T07:15:12.627Z</time>
      </trkpt>
      <trkpt lat="37.324473" lon="-5.791816">
        <ele>103.585203</ele>
        <time>2020-08-15T07:15:19.639Z</time>
      </trkpt>
      <trkpt lat="37.324485" lon="-5.791935">
        <ele>102.697428</ele>
        <time>2020-08-15T07:15:23.624Z</time>
      </trkpt>
      <trkpt lat="37.324491" lon="-5.792064">
        <ele>101.741065</ele>
        <time>2020-08-15T07:15:27.647Z</time>
      </trkpt>
      <trkpt lat="37.324485" lon="-5.792180">
        <ele>100.880733</ele>
        <time>2020-08-15T07:15:30.631Z</time>
      </trkpt>
      <trkpt lat="37.324474" lon="-5.792303">
        <ele>99.964669</ele>
        <time>2020-08-15T07:15:34.617Z</time>
      </trkpt>
      <trkpt lat="37.324348" lon="-5.792485">
        <ele>98.178741</ele>
        <time>2020-08-15T07:15:37.626Z</time>
      </trkpt>
      <trkpt lat="37.324320" lon="-5.792631">
        <ele>97.067210</ele>
        <time>2020-08-15T07:15:40.608Z</time>
      </trkpt>
      <trkpt lat="37.324296" lon="-5.792768">
        <ele>96.028957</ele>
        <time>2020-08-15T07:15:44.625Z</time>
      </trkpt>
      <trkpt lat="37.324267" lon="-5.792898">
        <ele>95.639140</ele>
        <time>2020-08-15T07:15:48.634Z</time>
      </trkpt>
      <trkpt lat="37.324195" lon="-5.793035">
        <ele>95.532729</ele>
        <time>2020-08-15T07:15:50.635Z</time>
      </trkpt>
      <trkpt lat="37.324160" lon="-5.793167">
        <ele>95.442563</ele>
        <time>2020-08-15T07:15:53.625Z</time>
      </trkpt>
      <trkpt lat="37.324114" lon="-5.793291">
        <ele>95.353898</ele>
        <time>2020-08-15T07:15:56.644Z</time>
      </trkpt>
      <trkpt lat="37.324055" lon="-5.793431">
        <ele>95.251226</ele>
        <time>2020-08-15T07:15:59.631Z</time>
      </trkpt>
      <trkpt lat="37.323947" lon="-5.793590">
        <ele>95.115724</ele>
        <time>2020-08-15T07:16:02.637Z</time>
      </trkpt>
      <trkpt lat="37.323893" lon="-5.793688">
        <ele>95.038465</ele>
        <time>2020-08-15T07:16:04.600Z</time>
      </trkpt>
      <trkpt lat="37.323841" lon="-5.793800">
        <ele>94.954424</ele>
        <time>2020-08-15T07:16:06.641Z</time>
      </trkpt>
      <trkpt lat="37.323771" lon="-5.793912">
        <ele>94.862115</ele>
        <time>2020-08-15T07:16:10.649Z</time>
      </trkpt>
      <trkpt lat="37.323668" lon="-5.794094">
        <ele>94.717361</ele>
        <time>2020-08-15T07:16:13.648Z</time>
      </trkpt>
      <trkpt lat="37.323619" lon="-5.794191">
        <ele>94.642895</ele>
        <time>2020-08-15T07:16:15.620Z</time>
      </trkpt>
      <trkpt lat="37.323551" lon="-5.794286">
        <ele>94.560069</ele>
        <time>2020-08-15T07:16:17.645Z</time>
      </trkpt>
      <trkpt lat="37.323488" lon="-5.794409">
        <ele>94.465263</ele>
        <time>2020-08-15T07:16:20.642Z</time>
      </trkpt>
      <trkpt lat="37.323440" lon="-5.794538">
        <ele>94.372972</ele>
        <time>2020-08-15T07:16:22.652Z</time>
      </trkpt>
      <trkpt lat="37.323372" lon="-5.794650">
        <ele>94.281660</ele>
        <time>2020-08-15T07:16:24.625Z</time>
      </trkpt>
      <trkpt lat="37.323327" lon="-5.794782">
        <ele>94.288231</ele>
        <time>2020-08-15T07:16:27.625Z</time>
      </trkpt>
      <trkpt lat="37.323273" lon="-5.794893">
        <ele>94.397646</ele>
        <time>2020-08-15T07:16:29.633Z</time>
      </trkpt>
      <trkpt lat="37.323233" lon="-5.795004">
        <ele>94.500117</ele>
        <time>2020-08-15T07:16:31.643Z</time>
      </trkpt>
      <trkpt lat="37.323176" lon="-5.795128">
        <ele>94.620550</ele>
        <time>2020-08-15T07:16:33.619Z</time>
      </trkpt>
      <trkpt lat="37.323106" lon="-5.795253">
        <ele>94.749104</ele>
        <time>2020-08-15T07:16:35.621Z</time>
      </trkpt>
      <trkpt lat="37.323070" lon="-5.795387">
        <ele>94.868035</ele>
        <time>2020-08-15T07:16:38.597Z</time>
      </trkpt>
      <trkpt lat="37.323019" lon="-5.795488">
        <ele>94.968637</ele>
        <time>2020-08-15T07:16:40.603Z</time>
      </trkpt>
      <trkpt lat="37.322958" lon="-5.795572">
        <ele>95.064288</ele>
        <time>2020-08-15T07:16:42.607Z</time>
      </trkpt>
      <trkpt lat="37.322897" lon="-5.795695">
        <ele>95.186179</ele>
        <time>2020-08-15T07:16:47.618Z</time>
      </trkpt>
      <trkpt lat="37.322828" lon="-5.795824">
        <ele>95.316904</ele>
        <time>2020-08-15T07:16:50.624Z</time>
      </trkpt>
      <trkpt lat="37.322761" lon="-5.795924">
        <ele>95.426856</ele>
        <time>2020-08-15T07:16:54.620Z</time>
      </trkpt>
      <trkpt lat="37.322750" lon="-5.796049">
        <ele>95.532606</ele>
        <time>2020-08-15T07:17:01.612Z</time>
      </trkpt>
      <trkpt lat="37.322699" lon="-5.796185">
        <ele>95.659040</ele>
        <time>2020-08-15T07:17:06.627Z</time>
      </trkpt>
      <trkpt lat="37.322652" lon="-5.796315">
        <ele>95.779120</ele>
        <time>2020-08-15T07:17:08.613Z</time>
      </trkpt>
      <trkpt lat="37.322610" lon="-5.796438">
        <ele>95.891678</ele>
        <time>2020-08-15T07:17:11.614Z</time>
      </trkpt>
      <trkpt lat="37.322587" lon="-5.796547">
        <ele>95.986504</ele>
        <time>2020-08-15T07:17:14.607Z</time>
      </trkpt>
      <trkpt lat="37.322537" lon="-5.796645">
        <ele>96.084410</ele>
        <time>2020-08-15T07:17:17.608Z</time>
      </trkpt>
      <trkpt lat="37.322493" lon="-5.796763">
        <ele>96.263008</ele>
        <time>2020-08-15T07:17:21.625Z</time>
      </trkpt>
      <trkpt lat="37.322391" lon="-5.797170">
        <ele>97.033259</ele>
        <time>2020-08-15T07:18:51.631Z</time>
      </trkpt>
      <trkpt lat="37.322355" lon="-5.797279">
        <ele>97.246297</ele>
        <time>2020-08-15T07:18:54.646Z</time>
      </trkpt>
      <trkpt lat="37.322320" lon="-5.797392">
        <ele>97.465186</ele>
        <time>2020-08-15T07:18:57.607Z</time>
      </trkpt>
      <trkpt lat="37.322300" lon="-5.797511">
        <ele>97.684726</ele>
        <time>2020-08-15T07:19:00.627Z</time>
      </trkpt>
      <trkpt lat="37.322265" lon="-5.797636">
        <ele>97.923927</ele>
        <time>2020-08-15T07:19:03.636Z</time>
      </trkpt>
      <trkpt lat="37.322214" lon="-5.797758">
        <ele>98.172709</ele>
        <time>2020-08-15T07:19:06.622Z</time>
      </trkpt>
      <trkpt lat="37.322160" lon="-5.797879">
        <ele>98.423156</ele>
        <time>2020-08-15T07:19:09.623Z</time>
      </trkpt>
      <trkpt lat="37.322086" lon="-5.797990">
        <ele>98.684601</ele>
        <time>2020-08-15T07:19:11.625Z</time>
      </trkpt>
      <trkpt lat="37.322025" lon="-5.798134">
        <ele>98.979098</ele>
        <time>2020-08-15T07:19:14.604Z</time>
      </trkpt>
      <trkpt lat="37.321948" lon="-5.798260">
        <ele>99.265926</ele>
        <time>2020-08-15T07:19:17.618Z</time>
      </trkpt>
      <trkpt lat="37.321896" lon="-5.798360">
        <ele>99.481590</ele>
        <time>2020-08-15T07:19:19.626Z</time>
      </trkpt>
      <trkpt lat="37.321869" lon="-5.798475">
        <ele>99.698023</ele>
        <time>2020-08-15T07:19:21.614Z</time>
      </trkpt>
      <trkpt lat="37.321796" lon="-5.798584">
        <ele>99.955245</ele>
        <time>2020-08-15T07:19:23.621Z</time>
      </trkpt>
      <trkpt lat="37.321741" lon="-5.798693">
        <ele>100.188255</ele>
        <time>2020-08-15T07:19:25.629Z</time>
      </trkpt>
      <trkpt lat="37.321681" lon="-5.798786">
        <ele>101.022769</ele>
        <time>2020-08-15T07:19:27.625Z</time>
      </trkpt>
      <trkpt lat="37.321621" lon="-5.798887">
        <ele>101.998333</ele>
        <time>2020-08-15T07:19:30.635Z</time>
      </trkpt>
      <trkpt lat="37.321532" lon="-5.799035">
        <ele>103.434182</ele>
        <time>2020-08-15T07:19:32.627Z</time>
      </trkpt>
      <trkpt lat="37.321461" lon="-5.799134">
        <ele>104.465791</ele>
        <time>2020-08-15T07:19:34.621Z</time>
      </trkpt>
      <trkpt lat="37.321399" lon="-5.799261">
        <ele>105.618965</ele>
        <time>2020-08-15T07:19:37.624Z</time>
      </trkpt>
      <trkpt lat="37.321336" lon="-5.799352">
        <ele>106.552612</ele>
        <time>2020-08-15T07:19:40.614Z</time>
      </trkpt>
      <trkpt lat="37.321247" lon="-5.799516">
        <ele>108.089037</ele>
        <time>2020-08-15T07:19:42.644Z</time>
      </trkpt>
      <trkpt lat="37.321191" lon="-5.799616">
        <ele>109.035483</ele>
        <time>2020-08-15T07:19:44.625Z</time>
      </trkpt>
      <trkpt lat="37.321136" lon="-5.799714">
        <ele>109.963674</ele>
        <time>2020-08-15T07:19:46.629Z</time>
      </trkpt>
      <trkpt lat="37.321068" lon="-5.799794">
        <ele>110.869808</ele>
        <time>2020-08-15T07:19:48.637Z</time>
      </trkpt>
      <trkpt lat="37.320981" lon="-5.799912">
        <ele>112.114995</ele>
        <time>2020-08-15T07:19:51.630Z</time>
      </trkpt>
      <trkpt lat="37.320877" lon="-5.800011">
        <ele>113.384265</ele>
        <time>2020-08-15T07:19:54.627Z</time>
      </trkpt>
      <trkpt lat="37.320801" lon="-5.800079">
        <ele>114.291905</ele>
        <time>2020-08-15T07:19:56.635Z</time>
      </trkpt>
      <trkpt lat="37.320730" lon="-5.800165">
        <ele>115.251181</ele>
        <time>2020-08-15T07:19:58.605Z</time>
      </trkpt>
      <trkpt lat="37.320651" lon="-5.800223">
        <ele>116.141344</ele>
        <time>2020-08-15T07:20:00.616Z</time>
      </trkpt>
      <trkpt lat="37.320549" lon="-5.800281">
        <ele>117.230642</ele>
        <time>2020-08-15T07:20:02.644Z</time>
      </trkpt>
      <trkpt lat="37.320447" lon="-5.800319">
        <ele>117.297753</ele>
        <time>2020-08-15T07:20:04.615Z</time>
      </trkpt>
      <trkpt lat="37.320341" lon="-5.800386">
        <ele>116.410608</ele>
        <time>2020-08-15T07:20:06.622Z</time>
      </trkpt>
      <trkpt lat="37.320233" lon="-5.800429">
        <ele>115.563496</ele>
        <time>2020-08-15T07:20:08.622Z</time>
      </trkpt>
      <trkpt lat="37.320118" lon="-5.800471">
        <ele>114.668020</ele>
        <time>2020-08-15T07:20:10.631Z</time>
      </trkpt>
      <trkpt lat="37.319997" lon="-5.800509">
        <ele>113.735421</ele>
        <time>2020-08-15T07:20:12.614Z</time>
      </trkpt>
      <trkpt lat="37.319901" lon="-5.800580">
        <ele>112.902597</ele>
        <time>2020-08-15T07:20:14.615Z</time>
      </trkpt>
      <trkpt lat="37.319810" lon="-5.800649">
        <ele>112.107981</ele>
        <time>2020-08-15T07:20:16.631Z</time>
      </trkpt>
      <trkpt lat="37.319707" lon="-5.800739">
        <ele>111.170075</ele>
        <time>2020-08-15T07:20:18.625Z</time>
      </trkpt>
      <trkpt lat="37.319610" lon="-5.800822">
        <ele>110.292724</ele>
        <time>2020-08-15T07:20:20.628Z</time>
      </trkpt>
      <trkpt lat="37.319505" lon="-5.800904">
        <ele>109.368457</ele>
        <time>2020-08-15T07:20:22.614Z</time>
      </trkpt>
      <trkpt lat="37.319392" lon="-5.800976">
        <ele>108.421183</ele>
        <time>2020-08-15T07:20:24.630Z</time>
      </trkpt>
      <trkpt lat="37.319282" lon="-5.801038">
        <ele>107.519778</ele>
        <time>2020-08-15T07:20:26.639Z</time>
      </trkpt>
      <trkpt lat="37.319187" lon="-5.801132">
        <ele>106.615826</ele>
        <time>2020-08-15T07:20:28.615Z</time>
      </trkpt>
      <trkpt lat="37.319068" lon="-5.801167">
        <ele>105.701957</ele>
        <time>2020-08-15T07:20:30.612Z</time>
      </trkpt>
      <trkpt lat="37.318939" lon="-5.801204">
        <ele>104.712552</ele>
        <time>2020-08-15T07:20:32.612Z</time>
      </trkpt>
      <trkpt lat="37.318813" lon="-5.801236">
        <ele>103.819460</ele>
        <time>2020-08-15T07:20:34.607Z</time>
      </trkpt>
      <trkpt lat="37.318690" lon="-5.801277">
        <ele>102.993246</ele>
        <time>2020-08-15T07:20:36.635Z</time>
      </trkpt>
      <trkpt lat="37.318562" lon="-5.801345">
        <ele>102.091022</ele>
        <time>2020-08-15T07:20:38.610Z</time>
      </trkpt>
      <trkpt lat="37.318444" lon="-5.801451">
        <ele>101.149428</ele>
        <time>2020-08-15T07:20:40.609Z</time>
      </trkpt>
      <trkpt lat="37.318347" lon="-5.801536">
        <ele>100.381764</ele>
        <time>2020-08-15T07:20:42.629Z</time>
      </trkpt>
      <trkpt lat="37.318275" lon="-5.801638">
        <ele>99.677523</ele>
        <time>2020-08-15T07:20:44.616Z</time>
      </trkpt>
      <trkpt lat="37.318200" lon="-5.801754">
        <ele>98.905560</ele>
        <time>2020-08-15T07:20:46.612Z</time>
      </trkpt>
      <trkpt lat="37.318091" lon="-5.801836">
        <ele>98.080839</ele>
        <time>2020-08-15T07:20:48.612Z</time>
      </trkpt>
      <trkpt lat="37.317985" lon="-5.801945">
        <ele>97.191749</ele>
        <time>2020-08-15T07:20:50.622Z</time>
      </trkpt>
      <trkpt lat="37.317897" lon="-5.802079">
        <ele>96.294392</ele>
        <time>2020-08-15T07:20:52.622Z</time>
      </trkpt>
      <trkpt lat="37.317830" lon="-5.802231">
        <ele>95.397012</ele>
        <time>2020-08-15T07:20:54.619Z</time>
      </trkpt>
      <trkpt lat="37.317784" lon="-5.802391">
        <ele>94.518488</ele>
        <time>2020-08-15T07:20:56.628Z</time>
      </trkpt>
      <trkpt lat="37.317723" lon="-5.802538">
        <ele>93.662302</ele>
        <time>2020-08-15T07:20:58.625Z</time>
      </trkpt>
      <trkpt lat="37.317681" lon="-5.802667">
        <ele>92.942522</ele>
        <time>2020-08-15T07:21:00.616Z</time>
      </trkpt>
      <trkpt lat="37.317648" lon="-5.802797">
        <ele>92.544773</ele>
        <time>2020-08-15T07:21:02.615Z</time>
      </trkpt>
      <trkpt lat="37.317626" lon="-5.802948">
        <ele>92.442588</ele>
        <time>2020-08-15T07:21:04.606Z</time>
      </trkpt>
      <trkpt lat="37.317603" lon="-5.803097">
        <ele>92.341555</ele>
        <time>2020-08-15T07:21:06.613Z</time>
      </trkpt>
      <trkpt lat="37.317549" lon="-5.803235">
        <ele>92.239178</ele>
        <time>2020-08-15T07:21:08.624Z</time>
      </trkpt>
      <trkpt lat="37.317495" lon="-5.803359">
        <ele>92.145073</ele>
        <time>2020-08-15T07:21:10.626Z</time>
      </trkpt>
      <trkpt lat="37.317412" lon="-5.803467">
        <ele>92.045101</ele>
        <time>2020-08-15T07:21:12.598Z</time>
      </trkpt>
      <trkpt lat="37.317306" lon="-5.803565">
        <ele>91.934978</ele>
        <time>2020-08-15T07:21:14.602Z</time>
      </trkpt>
      <trkpt lat="37.317216" lon="-5.803662">
        <ele>91.835764</ele>
        <time>2020-08-15T07:21:16.603Z</time>
      </trkpt>
      <trkpt lat="37.317107" lon="-5.803762">
        <ele>91.722829</ele>
        <time>2020-08-15T07:21:18.619Z</time>
      </trkpt>
      <trkpt lat="37.316968" lon="-5.803854">
        <ele>91.591353</ele>
        <time>2020-08-15T07:21:20.607Z</time>
      </trkpt>
      <trkpt lat="37.316866" lon="-5.803943">
        <ele>91.487438</ele>
        <time>2020-08-15T07:21:22.622Z</time>
      </trkpt>
      <trkpt lat="37.316773" lon="-5.804052">
        <ele>91.381025</ele>
        <time>2020-08-15T07:21:24.598Z</time>
      </trkpt>
      <trkpt lat="37.316710" lon="-5.804183">
        <ele>91.279121</ele>
        <time>2020-08-15T07:21:26.597Z</time>
      </trkpt>
      <trkpt lat="37.316667" lon="-5.804317">
        <ele>91.182935</ele>
        <time>2020-08-15T07:21:28.621Z</time>
      </trkpt>
      <trkpt lat="37.316664" lon="-5.804450">
        <ele>91.094367</ele>
        <time>2020-08-15T07:21:30.603Z</time>
      </trkpt>
      <trkpt lat="37.316649" lon="-5.804618">
        <ele>91.077196</ele>
        <time>2020-08-15T07:21:33.603Z</time>
      </trkpt>
      <trkpt lat="37.316663" lon="-5.804770">
        <ele>91.069730</ele>
        <time>2020-08-15T07:21:36.604Z</time>
      </trkpt>
      <trkpt lat="37.316641" lon="-5.804917">
        <ele>91.062431</ele>
        <time>2020-08-15T07:21:39.622Z</time>
      </trkpt>
      <trkpt lat="37.316615" lon="-5.805040">
        <ele>91.056222</ele>
        <time>2020-08-15T07:21:42.620Z</time>
      </trkpt>
      <trkpt lat="37.316584" lon="-5.805169">
        <ele>91.049647</ele>
        <time>2020-08-15T07:21:45.622Z</time>
      </trkpt>
      <trkpt lat="37.316552" lon="-5.805309">
        <ele>91.042539</ele>
        <time>2020-08-15T07:21:48.625Z</time>
      </trkpt>
      <trkpt lat="37.316510" lon="-5.805441">
        <ele>91.035603</ele>
        <time>2020-08-15T07:21:51.627Z</time>
      </trkpt>
      <trkpt lat="37.316471" lon="-5.805573">
        <ele>91.028732</ele>
        <time>2020-08-15T07:21:54.612Z</time>
      </trkpt>
      <trkpt lat="37.316438" lon="-5.805705">
        <ele>91.021981</ele>
        <time>2020-08-15T07:21:57.613Z</time>
      </trkpt>
      <trkpt lat="37.316409" lon="-5.805832">
        <ele>91.015534</ele>
        <time>2020-08-15T07:22:00.602Z</time>
      </trkpt>
      <trkpt lat="37.316374" lon="-5.805957">
        <ele>91.009068</ele>
        <time>2020-08-15T07:22:03.606Z</time>
      </trkpt>
      <trkpt lat="37.316334" lon="-5.806068">
        <ele>91.003122</ele>
        <time>2020-08-15T07:22:06.627Z</time>
      </trkpt>
      <trkpt lat="37.316291" lon="-5.806181">
        <ele>90.997010</ele>
        <time>2020-08-15T07:22:09.627Z</time>
      </trkpt>
      <trkpt lat="37.316247" lon="-5.806288">
        <ele>90.991133</ele>
        <time>2020-08-15T07:22:12.609Z</time>
      </trkpt>
      <trkpt lat="37.316162" lon="-5.806377">
        <ele>90.984347</ele>
        <time>2020-08-15T07:22:15.599Z</time>
      </trkpt>
      <trkpt lat="37.316036" lon="-5.806429">
        <ele>90.976211</ele>
        <time>2020-08-15T07:22:18.624Z</time>
      </trkpt>
      <trkpt lat="37.315930" lon="-5.806477">
        <ele>91.061873</ele>
        <time>2020-08-15T07:22:20.605Z</time>
      </trkpt>
      <trkpt lat="37.315825" lon="-5.806530">
        <ele>91.181108</ele>
        <time>2020-08-15T07:22:22.610Z</time>
      </trkpt>
      <trkpt lat="37.315721" lon="-5.806577">
        <ele>91.297570</ele>
        <time>2020-08-15T07:22:24.616Z</time>
      </trkpt>
      <trkpt lat="37.315596" lon="-5.806611">
        <ele>91.432346</ele>
        <time>2020-08-15T07:22:26.619Z</time>
      </trkpt>
      <trkpt lat="37.315490" lon="-5.806657">
        <ele>91.550518</ele>
        <time>2020-08-15T07:22:29.604Z</time>
      </trkpt>
      <trkpt lat="37.315397" lon="-5.806715">
        <ele>91.659917</ele>
        <time>2020-08-15T07:22:32.611Z</time>
      </trkpt>
      <trkpt lat="37.315421" lon="-5.806829">
        <ele>91.758754</ele>
        <time>2020-08-15T07:22:36.602Z</time>
      </trkpt>
      <trkpt lat="37.315524" lon="-5.806883">
        <ele>91.876356</ele>
        <time>2020-08-15T07:22:39.604Z</time>
      </trkpt>
      <trkpt lat="37.315622" lon="-5.806954">
        <ele>91.995548</ele>
        <time>2020-08-15T07:22:42.626Z</time>
      </trkpt>
      <trkpt lat="37.315721" lon="-5.807030">
        <ele>92.117785</ele>
        <time>2020-08-15T07:22:46.624Z</time>
      </trkpt>
      <trkpt lat="37.315818" lon="-5.807105">
        <ele>92.237787</ele>
        <time>2020-08-15T07:22:51.607Z</time>
      </trkpt>
      <trkpt lat="37.315901" lon="-5.807179">
        <ele>92.345012</ele>
        <time>2020-08-15T07:22:55.609Z</time>
      </trkpt>
      <trkpt lat="37.315983" lon="-5.807247">
        <ele>92.448527</ele>
        <time>2020-08-15T07:22:59.612Z</time>
      </trkpt>
      <trkpt lat="37.316069" lon="-5.807300">
        <ele>92.549457</ele>
        <time>2020-08-15T07:23:03.625Z</time>
      </trkpt>
      <trkpt lat="37.316149" lon="-5.807365">
        <ele>92.649833</ele>
        <time>2020-08-15T07:23:07.602Z</time>
      </trkpt>
      <trkpt lat="37.316245" lon="-5.807433">
        <ele>92.765949</ele>
        <time>2020-08-15T07:23:11.612Z</time>
      </trkpt>
      <trkpt lat="37.316340" lon="-5.807489">
        <ele>92.863151</ele>
        <time>2020-08-15T07:23:15.609Z</time>
      </trkpt>
      <trkpt lat="37.315988" lon="-5.807386">
        <ele>92.479992</ele>
        <time>2020-08-15T07:24:52.625Z</time>
      </trkpt>
      <trkpt lat="37.315888" lon="-5.807294">
        <ele>92.348624</ele>
        <time>2020-08-15T07:24:54.609Z</time>
      </trkpt>
      <trkpt lat="37.315759" lon="-5.807236">
        <ele>92.203379</ele>
        <time>2020-08-15T07:24:56.627Z</time>
      </trkpt>
      <trkpt lat="37.315637" lon="-5.807120">
        <ele>92.041218</ele>
        <time>2020-08-15T07:24:58.625Z</time>
      </trkpt>
      <trkpt lat="37.315512" lon="-5.807009">
        <ele>91.878977</ele>
        <time>2020-08-15T07:25:00.626Z</time>
      </trkpt>
      <trkpt lat="37.315401" lon="-5.806971">
        <ele>91.757011</ele>
        <time>2020-08-15T07:25:02.641Z</time>
      </trkpt>
      <trkpt lat="37.315310" lon="-5.806972">
        <ele>91.660530</ele>
        <time>2020-08-15T07:25:07.612Z</time>
      </trkpt>
      <trkpt lat="37.315352" lon="-5.807076">
        <ele>91.562182</ele>
        <time>2020-08-15T07:25:17.612Z</time>
      </trkpt>
      <trkpt lat="37.315445" lon="-5.807130">
        <ele>91.453578</ele>
        <time>2020-08-15T07:25:22.607Z</time>
      </trkpt>
      <trkpt lat="37.315535" lon="-5.807205">
        <ele>91.339108</ele>
        <time>2020-08-15T07:25:27.628Z</time>
      </trkpt>
      <trkpt lat="37.315631" lon="-5.807270">
        <ele>91.223511</ele>
        <time>2020-08-15T07:25:32.625Z</time>
      </trkpt>
      <trkpt lat="37.315719" lon="-5.807324">
        <ele>91.119696</ele>
        <time>2020-08-15T07:25:37.615Z</time>
      </trkpt>
      <trkpt lat="37.315805" lon="-5.807384">
        <ele>91.015425</ele>
        <time>2020-08-15T07:25:42.630Z</time>
      </trkpt>
      <trkpt lat="37.315896" lon="-5.807426">
        <ele>91.094636</ele>
        <time>2020-08-15T07:25:48.607Z</time>
      </trkpt>
      <trkpt lat="37.315988" lon="-5.807481">
        <ele>91.377407</ele>
        <time>2020-08-15T07:25:52.642Z</time>
      </trkpt>
      <trkpt lat="37.316071" lon="-5.807535">
        <ele>91.636815</ele>
        <time>2020-08-15T07:25:56.640Z</time>
      </trkpt>
      <trkpt lat="37.316158" lon="-5.807600">
        <ele>91.917727</ele>
        <time>2020-08-15T07:26:00.608Z</time>
      </trkpt>
      <trkpt lat="37.316255" lon="-5.807661">
        <ele>92.218781</ele>
        <time>2020-08-15T07:26:04.622Z</time>
      </trkpt>
      <trkpt lat="37.316346" lon="-5.807735">
        <ele>92.519604</ele>
        <time>2020-08-15T07:26:08.639Z</time>
      </trkpt>
      <trkpt lat="37.316444" lon="-5.807801">
        <ele>92.828197</ele>
        <time>2020-08-15T07:26:12.610Z</time>
      </trkpt>
      <trkpt lat="37.316542" lon="-5.807858">
        <ele>93.127922</ele>
        <time>2020-08-15T07:26:17.642Z</time>
      </trkpt>
      <trkpt lat="37.316626" lon="-5.807913">
        <ele>93.390811</ele>
        <time>2020-08-15T07:26:21.614Z</time>
      </trkpt>
      <trkpt lat="37.316714" lon="-5.807972">
        <ele>93.667639</ele>
        <time>2020-08-15T07:26:25.641Z</time>
      </trkpt>
      <trkpt lat="37.316801" lon="-5.808034">
        <ele>93.945226</ele>
        <time>2020-08-15T07:26:29.640Z</time>
      </trkpt>
      <trkpt lat="37.316896" lon="-5.808104">
        <ele>94.250873</ele>
        <time>2020-08-15T07:26:34.623Z</time>
      </trkpt>
      <trkpt lat="37.316982" lon="-5.808163">
        <ele>94.522815</ele>
        <time>2020-08-15T07:26:38.627Z</time>
      </trkpt>
      <trkpt lat="37.317053" lon="-5.808240">
        <ele>94.783078</ele>
        <time>2020-08-15T07:26:42.636Z</time>
      </trkpt>
      <trkpt lat="37.317122" lon="-5.808326">
        <ele>95.052760</ele>
        <time>2020-08-15T07:26:46.627Z</time>
      </trkpt>
      <trkpt lat="37.317204" lon="-5.808403">
        <ele>95.336846</ele>
        <time>2020-08-15T07:26:51.612Z</time>
      </trkpt>
      <trkpt lat="37.317298" lon="-5.808461">
        <ele>95.627496</ele>
        <time>2020-08-15T07:26:55.632Z</time>
      </trkpt>
      <trkpt lat="37.317394" lon="-5.808538">
        <ele>95.943575</ele>
        <time>2020-08-15T07:26:59.629Z</time>
      </trkpt>
      <trkpt lat="37.317485" lon="-5.808615">
        <ele>96.384600</ele>
        <time>2020-08-15T07:27:03.636Z</time>
      </trkpt>
      <trkpt lat="37.317577" lon="-5.808694">
        <ele>96.838280</ele>
        <time>2020-08-15T07:27:07.643Z</time>
      </trkpt>
      <trkpt lat="37.317663" lon="-5.808764">
        <ele>97.255472</ele>
        <time>2020-08-15T07:27:11.634Z</time>
      </trkpt>
      <trkpt lat="37.317747" lon="-5.808831">
        <ele>97.660563</ele>
        <time>2020-08-15T07:27:15.611Z</time>
      </trkpt>
      <trkpt lat="37.317840" lon="-5.808910">
        <ele>98.117611</ele>
        <time>2020-08-15T07:27:19.642Z</time>
      </trkpt>
      <trkpt lat="37.317934" lon="-5.808982">
        <ele>98.565838</ele>
        <time>2020-08-15T07:27:23.634Z</time>
      </trkpt>
      <trkpt lat="37.318009" lon="-5.809048">
        <ele>98.938628</ele>
        <time>2020-08-15T07:27:26.639Z</time>
      </trkpt>
      <trkpt lat="37.318099" lon="-5.809124">
        <ele>99.380115</ele>
        <time>2020-08-15T07:27:30.633Z</time>
      </trkpt>
      <trkpt lat="37.318190" lon="-5.809188">
        <ele>99.804723</ele>
        <time>2020-08-15T07:27:34.625Z</time>
      </trkpt>
      <trkpt lat="37.318282" lon="-5.809251">
        <ele>100.231330</ele>
        <time>2020-08-15T07:27:39.633Z</time>
      </trkpt>
      <trkpt lat="37.318367" lon="-5.809292">
        <ele>100.602071</ele>
        <time>2020-08-15T07:27:43.627Z</time>
      </trkpt>
      <trkpt lat="37.318458" lon="-5.809313">
        <ele>100.978840</ele>
        <time>2020-08-15T07:27:46.596Z</time>
      </trkpt>
      <trkpt lat="37.318564" lon="-5.809374">
        <ele>101.453564</ele>
        <time>2020-08-15T07:27:50.640Z</time>
      </trkpt>
      <trkpt lat="37.318661" lon="-5.809443">
        <ele>101.907405</ele>
        <time>2020-08-15T07:27:54.629Z</time>
      </trkpt>
      <trkpt lat="37.318757" lon="-5.809513">
        <ele>102.359323</ele>
        <time>2020-08-15T07:27:58.625Z</time>
      </trkpt>
      <trkpt lat="37.318837" lon="-5.809581">
        <ele>102.752559</ele>
        <time>2020-08-15T07:28:02.671Z</time>
      </trkpt>
      <trkpt lat="37.318913" lon="-5.809647">
        <ele>103.128691</ele>
        <time>2020-08-15T07:28:05.638Z</time>
      </trkpt>
      <trkpt lat="37.318997" lon="-5.809725">
        <ele>103.188232</ele>
        <time>2020-08-15T07:28:08.630Z</time>
      </trkpt>
      <trkpt lat="37.319080" lon="-5.809823">
        <ele>103.032227</ele>
        <time>2020-08-15T07:28:11.642Z</time>
      </trkpt>
      <trkpt lat="37.319154" lon="-5.809940">
        <ele>102.869331</ele>
        <time>2020-08-15T07:28:14.637Z</time>
      </trkpt>
      <trkpt lat="37.319232" lon="-5.810048">
        <ele>102.710359</ele>
        <time>2020-08-15T07:28:17.632Z</time>
      </trkpt>
      <trkpt lat="37.319302" lon="-5.810161">
        <ele>102.554278</ele>
        <time>2020-08-15T07:28:20.633Z</time>
      </trkpt>
      <trkpt lat="37.319378" lon="-5.810290">
        <ele>102.379339</ele>
        <time>2020-08-15T07:28:23.634Z</time>
      </trkpt>
      <trkpt lat="37.319443" lon="-5.810376">
        <ele>102.250056</ele>
        <time>2020-08-15T07:28:25.622Z</time>
      </trkpt>
      <trkpt lat="37.319533" lon="-5.810497">
        <ele>102.069524</ele>
        <time>2020-08-15T07:28:28.630Z</time>
      </trkpt>
      <trkpt lat="37.319604" lon="-5.810579">
        <ele>101.937432</ele>
        <time>2020-08-15T07:28:30.641Z</time>
      </trkpt>
      <trkpt lat="37.319676" lon="-5.810664">
        <ele>101.802112</ele>
        <time>2020-08-15T07:28:32.634Z</time>
      </trkpt>
      <trkpt lat="37.319737" lon="-5.810757">
        <ele>101.670751</ele>
        <time>2020-08-15T07:28:34.642Z</time>
      </trkpt>
      <trkpt lat="37.319798" lon="-5.810860">
        <ele>101.530813</ele>
        <time>2020-08-15T07:28:36.649Z</time>
      </trkpt>
      <trkpt lat="37.319864" lon="-5.810960">
        <ele>101.389208</ele>
        <time>2020-08-15T07:28:38.645Z</time>
      </trkpt>
      <trkpt lat="37.319923" lon="-5.811067">
        <ele>101.247329</ele>
        <time>2020-08-15T07:28:40.641Z</time>
      </trkpt>
      <trkpt lat="37.319983" lon="-5.811188">
        <ele>101.091948</ele>
        <time>2020-08-15T07:28:42.637Z</time>
      </trkpt>
      <trkpt lat="37.320042" lon="-5.811333">
        <ele>100.914466</ele>
        <time>2020-08-15T07:28:44.618Z</time>
      </trkpt>
      <trkpt lat="37.320103" lon="-5.811481">
        <ele>100.756875</ele>
        <time>2020-08-15T07:28:47.620Z</time>
      </trkpt>
      <trkpt lat="37.320153" lon="-5.811603">
        <ele>100.650671</ele>
        <time>2020-08-15T07:28:49.639Z</time>
      </trkpt>
      <trkpt lat="37.320225" lon="-5.811715">
        <ele>100.539228</ele>
        <time>2020-08-15T07:28:51.609Z</time>
      </trkpt>
      <trkpt lat="37.320291" lon="-5.811801">
        <ele>100.446746</ele>
        <time>2020-08-15T07:28:53.638Z</time>
      </trkpt>
      <trkpt lat="37.320352" lon="-5.811893">
        <ele>100.354057</ele>
        <time>2020-08-15T07:28:55.634Z</time>
      </trkpt>
      <trkpt lat="37.320430" lon="-5.812008">
        <ele>100.237099</ele>
        <time>2020-08-15T07:28:58.624Z</time>
      </trkpt>
      <trkpt lat="37.320515" lon="-5.812114">
        <ele>100.120614</ele>
        <time>2020-08-15T07:29:01.625Z</time>
      </trkpt>
      <trkpt lat="37.320610" lon="-5.812182">
        <ele>100.014249</ele>
        <time>2020-08-15T07:29:04.612Z</time>
      </trkpt>
      <trkpt lat="37.320648" lon="-5.812312">
        <ele>99.907073</ele>
        <time>2020-08-15T07:29:07.629Z</time>
      </trkpt>
      <trkpt lat="37.320685" lon="-5.812457">
        <ele>99.789236</ele>
        <time>2020-08-15T07:29:10.621Z</time>
      </trkpt>
      <trkpt lat="37.320699" lon="-5.812597">
        <ele>99.680049</ele>
        <time>2020-08-15T07:29:12.632Z</time>
      </trkpt>
      <trkpt lat="37.320730" lon="-5.812707">
        <ele>99.589743</ele>
        <time>2020-08-15T07:29:14.633Z</time>
      </trkpt>
      <trkpt lat="37.320806" lon="-5.812791">
        <ele>99.491287</ele>
        <time>2020-08-15T07:29:17.629Z</time>
      </trkpt>
      <trkpt lat="37.320902" lon="-5.812851">
        <ele>99.386973</ele>
        <time>2020-08-15T07:29:20.616Z</time>
      </trkpt>
      <trkpt lat="37.320989" lon="-5.812891">
        <ele>99.296838</ele>
        <time>2020-08-15T07:29:22.634Z</time>
      </trkpt>
      <trkpt lat="37.321054" lon="-5.812969">
        <ele>99.209412</ele>
        <time>2020-08-15T07:29:24.630Z</time>
      </trkpt>
      <trkpt lat="37.321090" lon="-5.813080">
        <ele>99.116651</ele>
        <time>2020-08-15T07:29:26.606Z</time>
      </trkpt>
      <trkpt lat="37.321135" lon="-5.813188">
        <ele>99.097510</ele>
        <time>2020-08-15T07:29:28.621Z</time>
      </trkpt>
      <trkpt lat="37.321162" lon="-5.813299">
        <ele>99.163502</ele>
        <time>2020-08-15T07:29:30.615Z</time>
      </trkpt>
      <trkpt lat="37.321178" lon="-5.813423">
        <ele>99.234921</ele>
        <time>2020-08-15T07:29:32.609Z</time>
      </trkpt>
      <trkpt lat="37.321198" lon="-5.813538">
        <ele>99.301846</ele>
        <time>2020-08-15T07:29:34.638Z</time>
      </trkpt>
      <trkpt lat="37.321230" lon="-5.813652">
        <ele>99.370577</ele>
        <time>2020-08-15T07:29:37.634Z</time>
      </trkpt>
      <trkpt lat="37.321288" lon="-5.813789">
        <ele>99.458814</ele>
        <time>2020-08-15T07:29:41.638Z</time>
      </trkpt>
      <trkpt lat="37.321330" lon="-5.813940">
        <ele>99.549760</ele>
        <time>2020-08-15T07:29:44.644Z</time>
      </trkpt>
      <trkpt lat="37.321358" lon="-5.814056">
        <ele>99.618680</ele>
        <time>2020-08-15T07:29:46.637Z</time>
      </trkpt>
      <trkpt lat="37.321365" lon="-5.814185">
        <ele>99.692189</ele>
        <time>2020-08-15T07:29:48.616Z</time>
      </trkpt>
      <trkpt lat="37.321386" lon="-5.814309">
        <ele>99.764267</ele>
        <time>2020-08-15T07:29:50.633Z</time>
      </trkpt>
      <trkpt lat="37.321412" lon="-5.814440">
        <ele>99.841028</ele>
        <time>2020-08-15T07:29:52.638Z</time>
      </trkpt>
      <trkpt lat="37.321440" lon="-5.814576">
        <ele>99.920896</ele>
        <time>2020-08-15T07:29:54.634Z</time>
      </trkpt>
      <trkpt lat="37.321483" lon="-5.814709">
        <ele>100.002519</ele>
        <time>2020-08-15T07:29:56.651Z</time>
      </trkpt>
      <trkpt lat="37.321526" lon="-5.814849">
        <ele>100.087842</ele>
        <time>2020-08-15T07:29:58.637Z</time>
      </trkpt>
      <trkpt lat="37.321561" lon="-5.814980">
        <ele>100.166409</ele>
        <time>2020-08-15T07:30:00.635Z</time>
      </trkpt>
      <trkpt lat="37.321587" lon="-5.815111">
        <ele>100.243170</ele>
        <time>2020-08-15T07:30:02.640Z</time>
      </trkpt>
      <trkpt lat="37.321637" lon="-5.815220">
        <ele>100.314709</ele>
        <time>2020-08-15T07:30:04.648Z</time>
      </trkpt>
      <trkpt lat="37.321711" lon="-5.815368">
        <ele>100.342104</ele>
        <time>2020-08-15T07:30:09.619Z</time>
      </trkpt>
      <trkpt lat="37.321829" lon="-5.815477">
        <ele>100.326379</ele>
        <time>2020-08-15T07:30:11.616Z</time>
      </trkpt>
      <trkpt lat="37.321865" lon="-5.815664">
        <ele>100.309945</ele>
        <time>2020-08-15T07:30:12.610Z</time>
      </trkpt>
      <trkpt lat="37.321935" lon="-5.815766">
        <ele>100.298438</ele>
        <time>2020-08-15T07:30:14.614Z</time>
      </trkpt>
      <trkpt lat="37.322015" lon="-5.815873">
        <ele>100.285895</ele>
        <time>2020-08-15T07:30:16.613Z</time>
      </trkpt>
      <trkpt lat="37.322083" lon="-5.815991">
        <ele>100.273448</ele>
        <time>2020-08-15T07:30:18.635Z</time>
      </trkpt>
      <trkpt lat="37.322144" lon="-5.816139">
        <ele>100.259211</ele>
        <time>2020-08-15T07:30:20.619Z</time>
      </trkpt>
      <trkpt lat="37.322204" lon="-5.816268">
        <ele>100.246447</ele>
        <time>2020-08-15T07:30:22.636Z</time>
      </trkpt>
      <trkpt lat="37.322231" lon="-5.816395">
        <ele>100.235219</ele>
        <time>2020-08-15T07:30:24.636Z</time>
      </trkpt>
      <trkpt lat="37.322259" lon="-5.816559">
        <ele>100.220892</ele>
        <time>2020-08-15T07:30:26.630Z</time>
      </trkpt>
      <trkpt lat="37.322326" lon="-5.816689">
        <ele>100.207661</ele>
        <time>2020-08-15T07:30:28.636Z</time>
      </trkpt>
      <trkpt lat="37.322418" lon="-5.816791">
        <ele>100.194488</ele>
        <time>2020-08-15T07:30:30.615Z</time>
      </trkpt>
      <trkpt lat="37.322485" lon="-5.816910">
        <ele>100.182035</ele>
        <time>2020-08-15T07:30:32.634Z</time>
      </trkpt>
      <trkpt lat="37.322541" lon="-5.817036">
        <ele>100.169707</ele>
        <time>2020-08-15T07:30:34.623Z</time>
      </trkpt>
      <trkpt lat="37.322591" lon="-5.817162">
        <ele>100.146632</ele>
        <time>2020-08-15T07:30:36.630Z</time>
      </trkpt>
      <trkpt lat="37.322659" lon="-5.817268">
        <ele>99.937511</ele>
        <time>2020-08-15T07:30:38.649Z</time>
      </trkpt>
      <trkpt lat="37.322710" lon="-5.817382">
        <ele>99.736666</ele>
        <time>2020-08-15T07:30:40.627Z</time>
      </trkpt>
      <trkpt lat="37.322727" lon="-5.817513">
        <ele>99.532854</ele>
        <time>2020-08-15T07:30:42.635Z</time>
      </trkpt>
      <trkpt lat="37.322738" lon="-5.817668">
        <ele>99.293905</ele>
        <time>2020-08-15T07:30:44.643Z</time>
      </trkpt>
      <trkpt lat="37.322768" lon="-5.817807">
        <ele>99.072750</ele>
        <time>2020-08-15T07:30:46.630Z</time>
      </trkpt>
      <trkpt lat="37.322819" lon="-5.817937">
        <ele>98.850166</ele>
        <time>2020-08-15T07:30:48.606Z</time>
      </trkpt>
      <trkpt lat="37.322916" lon="-5.818015">
        <ele>98.627850</ele>
        <time>2020-08-15T07:30:51.616Z</time>
      </trkpt>
      <trkpt lat="37.323029" lon="-5.818023">
        <ele>98.409315</ele>
        <time>2020-08-15T07:30:54.613Z</time>
      </trkpt>
      <trkpt lat="37.323134" lon="-5.818033">
        <ele>98.205992</ele>
        <time>2020-08-15T07:30:58.650Z</time>
      </trkpt>
      <trkpt lat="37.323218" lon="-5.818089">
        <ele>98.022414</ele>
        <time>2020-08-15T07:31:02.624Z</time>
      </trkpt>
      <trkpt lat="37.323278" lon="-5.818182">
        <ele>97.838528</ele>
        <time>2020-08-15T07:31:07.632Z</time>
      </trkpt>
      <trkpt lat="37.323300" lon="-5.818316">
        <ele>97.628433</ele>
        <time>2020-08-15T07:31:12.635Z</time>
      </trkpt>
      <trkpt lat="37.323225" lon="-5.818385">
        <ele>97.448998</ele>
        <time>2020-08-15T07:31:16.636Z</time>
      </trkpt>
      <trkpt lat="37.323116" lon="-5.818442">
        <ele>97.221059</ele>
        <time>2020-08-15T07:31:20.633Z</time>
      </trkpt>
      <trkpt lat="37.323014" lon="-5.818497">
        <ele>97.006766</ele>
        <time>2020-08-15T07:31:23.644Z</time>
      </trkpt>
      <trkpt lat="37.322907" lon="-5.818551">
        <ele>96.784144</ele>
        <time>2020-08-15T07:31:26.642Z</time>
      </trkpt>
      <trkpt lat="37.322814" lon="-5.818614">
        <ele>96.615990</ele>
        <time>2020-08-15T07:31:29.648Z</time>
      </trkpt>
      <trkpt lat="37.322740" lon="-5.818679">
        <ele>96.501046</ele>
        <time>2020-08-15T07:31:31.625Z</time>
      </trkpt>
      <trkpt lat="37.322642" lon="-5.818800">
        <ele>96.326153</ele>
        <time>2020-08-15T07:31:34.640Z</time>
      </trkpt>
      <trkpt lat="37.322573" lon="-5.818933">
        <ele>96.165344</ele>
        <time>2020-08-15T07:31:37.606Z</time>
      </trkpt>
      <trkpt lat="37.322542" lon="-5.819040">
        <ele>96.050023</ele>
        <time>2020-08-15T07:31:39.628Z</time>
      </trkpt>
      <trkpt lat="37.322512" lon="-5.819160">
        <ele>95.922641</ele>
        <time>2020-08-15T07:31:42.629Z</time>
      </trkpt>
      <trkpt lat="37.322483" lon="-5.819286">
        <ele>95.789810</ele>
        <time>2020-08-15T07:31:44.622Z</time>
      </trkpt>
      <trkpt lat="37.322479" lon="-5.819445">
        <ele>95.628717</ele>
        <time>2020-08-15T07:31:46.613Z</time>
      </trkpt>
      <trkpt lat="37.322484" lon="-5.819570">
        <ele>95.501975</ele>
        <time>2020-08-15T07:31:48.622Z</time>
      </trkpt>
      <trkpt lat="37.322495" lon="-5.819711">
        <ele>95.358505</ele>
        <time>2020-08-15T07:31:50.628Z</time>
      </trkpt>
      <trkpt lat="37.322500" lon="-5.819836">
        <ele>95.231763</ele>
        <time>2020-08-15T07:31:54.636Z</time>
      </trkpt>
      <trkpt lat="37.322495" lon="-5.820044">
        <ele>95.021035</ele>
        <time>2020-08-15T07:31:56.618Z</time>
      </trkpt>
      <trkpt lat="37.322495" lon="-5.820183">
        <ele>94.880276</ele>
        <time>2020-08-15T07:31:57.639Z</time>
      </trkpt>
      <trkpt lat="37.322502" lon="-5.820322">
        <ele>94.739235</ele>
        <time>2020-08-15T07:31:59.628Z</time>
      </trkpt>
      <trkpt lat="37.322503" lon="-5.820435">
        <ele>94.624798</ele>
        <time>2020-08-15T07:32:01.621Z</time>
      </trkpt>
      <trkpt lat="37.322505" lon="-5.820574">
        <ele>94.484015</ele>
        <time>2020-08-15T07:32:03.619Z</time>
      </trkpt>
      <trkpt lat="37.322535" lon="-5.820876">
        <ele>94.439278</ele>
        <time>2020-08-15T07:32:08.674Z</time>
      </trkpt>
      <trkpt lat="37.322549" lon="-5.821001">
        <ele>94.465128</ele>
        <time>2020-08-15T07:32:10.641Z</time>
      </trkpt>
      <trkpt lat="37.322569" lon="-5.821153">
        <ele>94.496677</ele>
        <time>2020-08-15T07:32:12.616Z</time>
      </trkpt>
      <trkpt lat="37.322558" lon="-5.821304">
        <ele>94.527728</ele>
        <time>2020-08-15T07:32:14.630Z</time>
      </trkpt>
      <trkpt lat="37.322575" lon="-5.821445">
        <ele>94.556931</ele>
        <time>2020-08-15T07:32:16.603Z</time>
      </trkpt>
      <trkpt lat="37.322599" lon="-5.821586">
        <ele>94.586459</ele>
        <time>2020-08-15T07:32:18.612Z</time>
      </trkpt>
      <trkpt lat="37.322661" lon="-5.821709">
        <ele>94.616280</ele>
        <time>2020-08-15T07:32:20.633Z</time>
      </trkpt>
      <trkpt lat="37.322683" lon="-5.821844">
        <ele>94.644499</ele>
        <time>2020-08-15T07:32:22.632Z</time>
      </trkpt>
      <trkpt lat="37.322714" lon="-5.821966">
        <ele>94.670727</ele>
        <time>2020-08-15T07:32:24.639Z</time>
      </trkpt>
      <trkpt lat="37.322749" lon="-5.822084">
        <ele>94.696516</ele>
        <time>2020-08-15T07:32:27.624Z</time>
      </trkpt>
      <trkpt lat="37.322767" lon="-5.822269">
        <ele>94.734682</ele>
        <time>2020-08-15T07:32:32.617Z</time>
      </trkpt>
      <trkpt lat="37.322764" lon="-5.822421">
        <ele>94.765818</ele>
        <time>2020-08-15T07:32:33.630Z</time>
      </trkpt>
      <trkpt lat="37.322734" lon="-5.822528">
        <ele>94.789051</ele>
        <time>2020-08-15T07:32:41.624Z</time>
      </trkpt>
      <trkpt lat="37.322699" lon="-5.822700">
        <ele>94.825407</ele>
        <time>2020-08-15T07:32:45.627Z</time>
      </trkpt>
      <trkpt lat="37.322697" lon="-5.822881">
        <ele>94.835504</ele>
        <time>2020-08-15T07:32:47.609Z</time>
      </trkpt>
      <trkpt lat="37.322719" lon="-5.823008">
        <ele>94.697202</ele>
        <time>2020-08-15T07:32:50.645Z</time>
      </trkpt>
      <trkpt lat="37.322787" lon="-5.823209">
        <ele>94.464782</ele>
        <time>2020-08-15T07:32:53.642Z</time>
      </trkpt>
      <trkpt lat="37.322787" lon="-5.823366">
        <ele>94.297728</ele>
        <time>2020-08-15T07:32:54.633Z</time>
      </trkpt>
      <trkpt lat="37.322742" lon="-5.823490">
        <ele>94.152698</ele>
        <time>2020-08-15T07:32:56.648Z</time>
      </trkpt>
      <trkpt lat="37.322835" lon="-5.823533">
        <ele>94.020118</ele>
        <time>2020-08-15T07:33:02.631Z</time>
      </trkpt>
      <trkpt lat="37.322941" lon="-5.823522">
        <ele>93.877805</ele>
        <time>2020-08-15T07:33:07.628Z</time>
      </trkpt>
      <trkpt lat="37.323042" lon="-5.823518">
        <ele>93.742599</ele>
        <time>2020-08-15T07:33:11.640Z</time>
      </trkpt>
      <trkpt lat="37.323140" lon="-5.823486">
        <ele>93.607124</ele>
        <time>2020-08-15T07:33:17.619Z</time>
      </trkpt>
      <trkpt lat="37.323605" lon="-5.823132">
        <ele>92.879812</ele>
        <time>2020-08-15T07:33:45.630Z</time>
      </trkpt>
      <trkpt lat="37.323702" lon="-5.823161">
        <ele>92.746406</ele>
        <time>2020-08-15T07:33:52.611Z</time>
      </trkpt>
      <trkpt lat="37.323774" lon="-5.823259">
        <ele>92.604442</ele>
        <time>2020-08-15T07:33:59.626Z</time>
      </trkpt>
      <trkpt lat="37.323803" lon="-5.823372">
        <ele>92.478101</ele>
        <time>2020-08-15T07:34:03.637Z</time>
      </trkpt>
      <trkpt lat="37.323812" lon="-5.823492">
        <ele>92.476466</ele>
        <time>2020-08-15T07:34:08.619Z</time>
      </trkpt>
      <trkpt lat="37.323872" lon="-5.823593">
        <ele>92.509406</ele>
        <time>2020-08-15T07:34:14.611Z</time>
      </trkpt>
      <trkpt lat="37.323932" lon="-5.823686">
        <ele>92.540697</ele>
        <time>2020-08-15T07:34:24.644Z</time>
      </trkpt>
      <trkpt lat="37.323978" lon="-5.823802">
        <ele>92.574565</ele>
        <time>2020-08-15T07:34:29.624Z</time>
      </trkpt>
      <trkpt lat="37.324063" lon="-5.824110">
        <ele>92.659747</ele>
        <time>2020-08-15T07:34:32.636Z</time>
      </trkpt>
      <trkpt lat="37.324074" lon="-5.824229">
        <ele>92.691049</ele>
        <time>2020-08-15T07:34:34.611Z</time>
      </trkpt>
      <trkpt lat="37.324126" lon="-5.824332">
        <ele>92.722926</ele>
        <time>2020-08-15T07:34:36.636Z</time>
      </trkpt>
      <trkpt lat="37.324192" lon="-5.824458">
        <ele>92.762348</ele>
        <time>2020-08-15T07:34:39.642Z</time>
      </trkpt>
      <trkpt lat="37.324217" lon="-5.824580">
        <ele>92.795266</ele>
        <time>2020-08-15T07:34:41.638Z</time>
      </trkpt>
      <trkpt lat="37.324270" lon="-5.824712">
        <ele>92.833901</ele>
        <time>2020-08-15T07:34:44.618Z</time>
      </trkpt>
      <trkpt lat="37.324323" lon="-5.824814">
        <ele>92.865737</ele>
        <time>2020-08-15T07:34:47.622Z</time>
      </trkpt>
      <trkpt lat="37.324352" lon="-5.824956">
        <ele>92.904043</ele>
        <time>2020-08-15T07:34:51.609Z</time>
      </trkpt>
      <trkpt lat="37.324372" lon="-5.825069">
        <ele>92.934290</ele>
        <time>2020-08-15T07:34:54.639Z</time>
      </trkpt>
      <trkpt lat="37.324441" lon="-5.825180">
        <ele>92.971101</ele>
        <time>2020-08-15T07:34:58.622Z</time>
      </trkpt>
      <trkpt lat="37.324500" lon="-5.825275">
        <ele>93.002596</ele>
        <time>2020-08-15T07:35:01.612Z</time>
      </trkpt>
      <trkpt lat="37.324567" lon="-5.825373">
        <ele>93.036363</ele>
        <time>2020-08-15T07:35:05.640Z</time>
      </trkpt>
      <trkpt lat="37.324629" lon="-5.825472">
        <ele>92.905522</ele>
        <time>2020-08-15T07:35:09.637Z</time>
      </trkpt>
      <trkpt lat="37.324693" lon="-5.825587">
        <ele>92.718204</ele>
        <time>2020-08-15T07:35:14.636Z</time>
      </trkpt>
      <trkpt lat="37.324746" lon="-5.825696">
        <ele>92.547704</ele>
        <time>2020-08-15T07:35:18.641Z</time>
      </trkpt>
      <trkpt lat="37.324812" lon="-5.825799">
        <ele>92.371178</ele>
        <time>2020-08-15T07:35:22.635Z</time>
      </trkpt>
      <trkpt lat="37.324864" lon="-5.825904">
        <ele>92.206103</ele>
        <time>2020-08-15T07:35:26.608Z</time>
      </trkpt>
      <trkpt lat="37.324921" lon="-5.826025">
        <ele>92.018422</ele>
        <time>2020-08-15T07:35:31.617Z</time>
      </trkpt>
      <trkpt lat="37.324954" lon="-5.826155">
        <ele>91.836312</ele>
        <time>2020-08-15T07:35:36.606Z</time>
      </trkpt>
      <trkpt lat="37.324978" lon="-5.826274">
        <ele>91.672478</ele>
        <time>2020-08-15T07:35:39.623Z</time>
      </trkpt>
      <trkpt lat="37.324987" lon="-5.826429">
        <ele>91.465079</ele>
        <time>2020-08-15T07:35:42.637Z</time>
      </trkpt>
      <trkpt lat="37.324993" lon="-5.826596">
        <ele>91.241990</ele>
        <time>2020-08-15T07:35:45.635Z</time>
      </trkpt>
      <trkpt lat="37.324971" lon="-5.826740">
        <ele>91.046307</ele>
        <time>2020-08-15T07:35:47.627Z</time>
      </trkpt>
      <trkpt lat="37.324978" lon="-5.826870">
        <ele>90.872424</ele>
        <time>2020-08-15T07:35:52.649Z</time>
      </trkpt>
      <trkpt lat="37.324997" lon="-5.827051">
        <ele>90.628783</ele>
        <time>2020-08-15T07:35:54.637Z</time>
      </trkpt>
      <trkpt lat="37.325013" lon="-5.827264">
        <ele>90.343269</ele>
        <time>2020-08-15T07:35:56.631Z</time>
      </trkpt>
      <trkpt lat="37.325106" lon="-5.827320">
        <ele>90.170228</ele>
        <time>2020-08-15T07:36:02.616Z</time>
      </trkpt>
      <trkpt lat="37.325186" lon="-5.827472">
        <ele>90.004676</ele>
        <time>2020-08-15T07:36:04.627Z</time>
      </trkpt>
      <trkpt lat="37.325233" lon="-5.827591">
        <ele>89.969319</ele>
        <time>2020-08-15T07:36:06.625Z</time>
      </trkpt>
      <trkpt lat="37.325250" lon="-5.827479">
        <ele>89.938977</ele>
        <time>2020-08-15T07:36:09.623Z</time>
      </trkpt>
      <trkpt lat="37.325244" lon="-5.827339">
        <ele>89.901668</ele>
        <time>2020-08-15T07:36:12.638Z</time>
      </trkpt>
      <trkpt lat="37.325058" lon="-5.828684">
        <ele>89.538381</ele>
        <time>2020-08-15T07:36:18.623Z</time>
      </trkpt>
      <trkpt lat="37.324999" lon="-5.828807">
        <ele>89.500156</ele>
        <time>2020-08-15T07:36:20.629Z</time>
      </trkpt>
      <trkpt lat="37.324931" lon="-5.828956">
        <ele>89.454440</ele>
        <time>2020-08-15T07:36:22.619Z</time>
      </trkpt>
      <trkpt lat="37.324902" lon="-5.829157">
        <ele>89.555236</ele>
        <time>2020-08-15T07:36:25.643Z</time>
      </trkpt>
      <trkpt lat="37.324907" lon="-5.829297">
        <ele>89.780325</ele>
        <time>2020-08-15T07:36:27.639Z</time>
      </trkpt>
      <trkpt lat="37.324907" lon="-5.829422">
        <ele>89.981095</ele>
        <time>2020-08-15T07:36:30.619Z</time>
      </trkpt>
      <trkpt lat="37.324900" lon="-5.829584">
        <ele>90.241677</ele>
        <time>2020-08-15T07:36:33.614Z</time>
      </trkpt>
      <trkpt lat="37.324860" lon="-5.829738">
        <ele>90.501886</ele>
        <time>2020-08-15T07:36:35.638Z</time>
      </trkpt>
      <trkpt lat="37.324873" lon="-5.829893">
        <ele>90.752221</ele>
        <time>2020-08-15T07:36:37.627Z</time>
      </trkpt>
      <trkpt lat="37.324885" lon="-5.830028">
        <ele>90.970403</ele>
        <time>2020-08-15T07:36:39.642Z</time>
      </trkpt>
      <trkpt lat="37.324914" lon="-5.830136">
        <ele>91.153491</ele>
        <time>2020-08-15T07:36:42.637Z</time>
      </trkpt>
      <trkpt lat="37.324917" lon="-5.830264">
        <ele>91.359169</ele>
        <time>2020-08-15T07:36:45.663Z</time>
      </trkpt>
      <trkpt lat="37.324898" lon="-5.830413">
        <ele>91.601544</ele>
        <time>2020-08-15T07:36:48.632Z</time>
      </trkpt>
      <trkpt lat="37.324852" lon="-5.830534">
        <ele>91.816956</ele>
        <time>2020-08-15T07:36:50.627Z</time>
      </trkpt>
      <trkpt lat="37.324814" lon="-5.830647">
        <ele>92.014014</ele>
        <time>2020-08-15T07:36:52.636Z</time>
      </trkpt>
      <trkpt lat="37.324785" lon="-5.830806">
        <ele>92.276024</ele>
        <time>2020-08-15T07:36:55.637Z</time>
      </trkpt>
      <trkpt lat="37.324752" lon="-5.830926">
        <ele>92.479964</ele>
        <time>2020-08-15T07:36:57.633Z</time>
      </trkpt>
      <trkpt lat="37.324742" lon="-5.831047">
        <ele>92.675356</ele>
        <time>2020-08-15T07:36:59.627Z</time>
      </trkpt>
      <trkpt lat="37.324741" lon="-5.831183">
        <ele>92.893803</ele>
        <time>2020-08-15T07:37:02.641Z</time>
      </trkpt>
      <trkpt lat="37.324728" lon="-5.831347">
        <ele>93.202406</ele>
        <time>2020-08-15T07:37:05.654Z</time>
      </trkpt>
      <trkpt lat="37.324727" lon="-5.831515">
        <ele>93.586668</ele>
        <time>2020-08-15T07:37:08.632Z</time>
      </trkpt>
      <trkpt lat="37.324728" lon="-5.831630">
        <ele>93.849713</ele>
        <time>2020-08-15T07:37:10.631Z</time>
      </trkpt>
      <trkpt lat="37.324741" lon="-5.831799">
        <ele>94.238055</ele>
        <time>2020-08-15T07:37:13.645Z</time>
      </trkpt>
      <trkpt lat="37.324771" lon="-5.831965">
        <ele>94.627413</ele>
        <time>2020-08-15T07:37:16.636Z</time>
      </trkpt>
      <trkpt lat="37.324826" lon="-5.832062">
        <ele>94.899894</ele>
        <time>2020-08-15T07:37:18.635Z</time>
      </trkpt>
      <trkpt lat="37.324887" lon="-5.832161">
        <ele>95.186346</ele>
        <time>2020-08-15T07:37:20.616Z</time>
      </trkpt>
      <trkpt lat="37.324908" lon="-5.832294">
        <ele>95.496483</ele>
        <time>2020-08-15T07:37:22.650Z</time>
      </trkpt>
      <trkpt lat="37.324899" lon="-5.832431">
        <ele>95.810897</ele>
        <time>2020-08-15T07:37:24.629Z</time>
      </trkpt>
      <trkpt lat="37.324919" lon="-5.832547">
        <ele>96.082377</ele>
        <time>2020-08-15T07:37:26.624Z</time>
      </trkpt>
      <trkpt lat="37.325008" lon="-5.832642">
        <ele>96.418145</ele>
        <time>2020-08-15T07:37:28.639Z</time>
      </trkpt>
      <trkpt lat="37.325104" lon="-5.832708">
        <ele>96.732832</ele>
        <time>2020-08-15T07:37:31.611Z</time>
      </trkpt>
      <trkpt lat="37.325184" lon="-5.832818">
        <ele>97.073777</ele>
        <time>2020-08-15T07:37:34.645Z</time>
      </trkpt>
      <trkpt lat="37.325237" lon="-5.832952">
        <ele>97.416078</ele>
        <time>2020-08-15T07:37:38.639Z</time>
      </trkpt>
      <trkpt lat="37.325313" lon="-5.833070">
        <ele>97.763386</ele>
        <time>2020-08-15T07:37:40.626Z</time>
      </trkpt>
      <trkpt lat="37.325369" lon="-5.833178">
        <ele>98.058276</ele>
        <time>2020-08-15T07:37:42.632Z</time>
      </trkpt>
      <trkpt lat="37.325428" lon="-5.833307">
        <ele>97.954686</ele>
        <time>2020-08-15T07:37:45.632Z</time>
      </trkpt>
      <trkpt lat="37.325468" lon="-5.833409">
        <ele>97.536796</ele>
        <time>2020-08-15T07:37:48.642Z</time>
      </trkpt>
      <trkpt lat="37.325502" lon="-5.833528">
        <ele>97.072170</ele>
        <time>2020-08-15T07:37:51.624Z</time>
      </trkpt>
      <trkpt lat="37.325545" lon="-5.833663">
        <ele>96.537808</ele>
        <time>2020-08-15T07:37:54.651Z</time>
      </trkpt>
      <trkpt lat="37.325705" lon="-5.833855">
        <ele>95.515892</ele>
        <time>2020-08-15T07:37:55.617Z</time>
      </trkpt>
      <trkpt lat="37.325695" lon="-5.834003">
        <ele>94.970116</ele>
        <time>2020-08-15T07:37:58.639Z</time>
      </trkpt>
      <trkpt lat="37.325619" lon="-5.834106">
        <ele>94.453820</ele>
        <time>2020-08-15T07:38:00.607Z</time>
      </trkpt>
      <trkpt lat="37.325559" lon="-5.834198">
        <ele>94.016623</ele>
        <time>2020-08-15T07:38:04.632Z</time>
      </trkpt>
      <trkpt lat="37.325462" lon="-5.834328">
        <ele>93.361588</ele>
        <time>2020-08-15T07:38:07.655Z</time>
      </trkpt>
      <trkpt lat="37.325382" lon="-5.834412">
        <ele>92.880012</ele>
        <time>2020-08-15T07:38:10.641Z</time>
      </trkpt>
      <trkpt lat="37.325293" lon="-5.834523">
        <ele>92.300809</ele>
        <time>2020-08-15T07:38:13.634Z</time>
      </trkpt>
      <trkpt lat="37.325225" lon="-5.834608">
        <ele>91.857776</ele>
        <time>2020-08-15T07:38:19.637Z</time>
      </trkpt>
      <trkpt lat="37.325118" lon="-5.834763">
        <ele>91.103570</ele>
        <time>2020-08-15T07:38:20.635Z</time>
      </trkpt>
      <trkpt lat="37.325033" lon="-5.834825">
        <ele>90.649517</ele>
        <time>2020-08-15T07:38:23.615Z</time>
      </trkpt>
      <trkpt lat="37.324947" lon="-5.834875">
        <ele>90.211717</ele>
        <time>2020-08-15T07:38:29.630Z</time>
      </trkpt>
      <trkpt lat="37.324853" lon="-5.834908">
        <ele>89.804987</ele>
        <time>2020-08-15T07:38:31.609Z</time>
      </trkpt>
      <trkpt lat="37.324750" lon="-5.834950">
        <ele>89.446074</ele>
        <time>2020-08-15T07:38:32.631Z</time>
      </trkpt>
      <trkpt lat="37.324653" lon="-5.834996">
        <ele>89.102447</ele>
        <time>2020-08-15T07:38:36.636Z</time>
      </trkpt>
      <trkpt lat="37.324570" lon="-5.835067">
        <ele>88.769709</ele>
        <time>2020-08-15T07:38:41.667Z</time>
      </trkpt>
      <trkpt lat="37.324492" lon="-5.835132">
        <ele>88.459547</ele>
        <time>2020-08-15T07:38:48.634Z</time>
      </trkpt>
      <trkpt lat="37.324641" lon="-5.835291">
        <ele>87.811801</ele>
        <time>2020-08-15T07:38:51.634Z</time>
      </trkpt>
      <trkpt lat="37.324736" lon="-5.835381">
        <ele>87.417547</ele>
        <time>2020-08-15T07:38:54.614Z</time>
      </trkpt>
      <trkpt lat="37.324808" lon="-5.835476">
        <ele>87.071626</ele>
        <time>2020-08-15T07:38:57.639Z</time>
      </trkpt>
      <trkpt lat="37.324894" lon="-5.835559">
        <ele>86.712287</ele>
        <time>2020-08-15T07:39:01.633Z</time>
      </trkpt>
      <trkpt lat="37.324997" lon="-5.835617">
        <ele>86.338209</ele>
        <time>2020-08-15T07:39:04.627Z</time>
      </trkpt>
      <trkpt lat="37.325101" lon="-5.835668">
        <ele>85.968198</ele>
        <time>2020-08-15T07:39:08.635Z</time>
      </trkpt>
      <trkpt lat="37.325197" lon="-5.835716">
        <ele>85.625758</ele>
        <time>2020-08-15T07:39:12.620Z</time>
      </trkpt>
      <trkpt lat="37.325292" lon="-5.835736">
        <ele>85.306481</ele>
        <time>2020-08-15T07:39:15.635Z</time>
      </trkpt>
      <trkpt lat="37.325405" lon="-5.835786">
        <ele>84.909412</ele>
        <time>2020-08-15T07:39:19.643Z</time>
      </trkpt>
      <trkpt lat="37.325520" lon="-5.835834">
        <ele>84.507775</ele>
        <time>2020-08-15T07:39:23.624Z</time>
      </trkpt>
      <trkpt lat="37.325633" lon="-5.835858">
        <ele>84.127911</ele>
        <time>2020-08-15T07:39:27.612Z</time>
      </trkpt>
      <trkpt lat="37.325725" lon="-5.835838">
        <ele>83.985044</ele>
        <time>2020-08-15T07:39:30.635Z</time>
      </trkpt>
      <trkpt lat="37.325817" lon="-5.835834">
        <ele>84.051354</ele>
        <time>2020-08-15T07:39:37.631Z</time>
      </trkpt>
      <trkpt lat="37.325910" lon="-5.835855">
        <ele>84.119416</ele>
        <time>2020-08-15T07:39:43.637Z</time>
      </trkpt>
      <trkpt lat="37.326668" lon="-5.836237">
        <ele>84.707636</ele>
        <time>2020-08-15T07:39:54.688Z</time>
      </trkpt>
      <trkpt lat="37.326782" lon="-5.836254">
        <ele>84.790329</ele>
        <time>2020-08-15T07:39:57.629Z</time>
      </trkpt>
      <trkpt lat="37.326891" lon="-5.836326">
        <ele>84.879017</ele>
        <time>2020-08-15T07:40:01.627Z</time>
      </trkpt>
      <trkpt lat="37.326973" lon="-5.836419">
        <ele>84.958557</ele>
        <time>2020-08-15T07:40:04.604Z</time>
      </trkpt>
      <trkpt lat="37.327079" lon="-5.836458">
        <ele>85.038113</ele>
        <time>2020-08-15T07:40:08.632Z</time>
      </trkpt>
      <trkpt lat="37.327167" lon="-5.836510">
        <ele>85.108150</ele>
        <time>2020-08-15T07:40:12.640Z</time>
      </trkpt>
      <trkpt lat="37.327217" lon="-5.836605">
        <ele>85.173406</ele>
        <time>2020-08-15T07:40:15.642Z</time>
      </trkpt>
      <trkpt lat="37.327255" lon="-5.836711">
        <ele>85.240007</ele>
        <time>2020-08-15T07:40:18.632Z</time>
      </trkpt>
      <trkpt lat="37.327290" lon="-5.836832">
        <ele>85.302892</ele>
        <time>2020-08-15T07:40:22.635Z</time>
      </trkpt>
      <trkpt lat="37.327341" lon="-5.836948">
        <ele>85.365688</ele>
        <time>2020-08-15T07:40:26.638Z</time>
      </trkpt>
      <trkpt lat="37.327401" lon="-5.837034">
        <ele>85.419890</ele>
        <time>2020-08-15T07:40:29.638Z</time>
      </trkpt>
      <trkpt lat="37.327484" lon="-5.837089">
        <ele>85.475784</ele>
        <time>2020-08-15T07:40:33.650Z</time>
      </trkpt>
      <trkpt lat="37.327587" lon="-5.837146">
        <ele>85.542829</ele>
        <time>2020-08-15T07:40:37.636Z</time>
      </trkpt>
      <trkpt lat="37.327672" lon="-5.837206">
        <ele>85.600902</ele>
        <time>2020-08-15T07:40:41.637Z</time>
      </trkpt>
      <trkpt lat="37.327765" lon="-5.837240">
        <ele>85.658604</ele>
        <time>2020-08-15T07:40:45.634Z</time>
      </trkpt>
      <trkpt lat="37.327854" lon="-5.837263">
        <ele>85.712736</ele>
        <time>2020-08-15T07:40:49.617Z</time>
      </trkpt>
      <trkpt lat="37.327940" lon="-5.837310">
        <ele>85.768602</ele>
        <time>2020-08-15T07:40:52.638Z</time>
      </trkpt>
      <trkpt lat="37.328020" lon="-5.837368">
        <ele>85.823618</ele>
        <time>2020-08-15T07:40:55.659Z</time>
      </trkpt>
      <trkpt lat="37.328122" lon="-5.837434">
        <ele>85.891960</ele>
        <time>2020-08-15T07:40:59.629Z</time>
      </trkpt>
      <trkpt lat="37.328214" lon="-5.837470">
        <ele>85.949364</ele>
        <time>2020-08-15T07:41:03.635Z</time>
      </trkpt>
      <trkpt lat="37.328288" lon="-5.837555">
        <ele>86.009074</ele>
        <time>2020-08-15T07:41:07.633Z</time>
      </trkpt>
      <trkpt lat="37.328379" lon="-5.837644">
        <ele>86.077755</ele>
        <time>2020-08-15T07:41:11.619Z</time>
      </trkpt>
      <trkpt lat="37.328459" lon="-5.837706">
        <ele>86.133741</ele>
        <time>2020-08-15T07:41:18.617Z</time>
      </trkpt>
      <trkpt lat="37.328529" lon="-5.837795">
        <ele>86.193046</ele>
        <time>2020-08-15T07:41:24.634Z</time>
      </trkpt>
      <trkpt lat="37.328594" lon="-5.837881">
        <ele>86.249256</ele>
        <time>2020-08-15T07:41:32.619Z</time>
      </trkpt>
      <trkpt lat="37.328683" lon="-5.837925">
        <ele>86.306231</ele>
        <time>2020-08-15T07:41:37.632Z</time>
      </trkpt>
      <trkpt lat="37.328776" lon="-5.838002">
        <ele>86.879571</ele>
        <time>2020-08-15T07:41:40.648Z</time>
      </trkpt>
      <trkpt lat="37.328866" lon="-5.838124">
        <ele>87.756922</ele>
        <time>2020-08-15T07:41:43.626Z</time>
      </trkpt>
      <trkpt lat="37.329052" lon="-5.838292">
        <ele>89.275216</ele>
        <time>2020-08-15T07:41:45.626Z</time>
      </trkpt>
      <trkpt lat="37.329135" lon="-5.838408">
        <ele>90.097906</ele>
        <time>2020-08-15T07:41:48.627Z</time>
      </trkpt>
      <trkpt lat="37.329218" lon="-5.838518">
        <ele>90.897362</ele>
        <time>2020-08-15T07:41:51.623Z</time>
      </trkpt>
      <trkpt lat="37.329309" lon="-5.838595">
        <ele>91.624550</ele>
        <time>2020-08-15T07:41:54.645Z</time>
      </trkpt>
      <trkpt lat="37.329399" lon="-5.838700">
        <ele>92.438480</ele>
        <time>2020-08-15T07:41:57.634Z</time>
      </trkpt>
      <trkpt lat="37.329501" lon="-5.838812">
        <ele>93.336243</ele>
        <time>2020-08-15T07:42:00.643Z</time>
      </trkpt>
      <trkpt lat="37.329594" lon="-5.838908">
        <ele>94.133949</ele>
        <time>2020-08-15T07:42:03.617Z</time>
      </trkpt>
      <trkpt lat="37.329699" lon="-5.838991">
        <ele>94.956203</ele>
        <time>2020-08-15T07:42:06.638Z</time>
      </trkpt>
      <trkpt lat="37.329789" lon="-5.839056">
        <ele>95.644305</ele>
        <time>2020-08-15T07:42:09.648Z</time>
      </trkpt>
      <trkpt lat="37.329880" lon="-5.839120">
        <ele>96.335575</ele>
        <time>2020-08-15T07:42:12.604Z</time>
      </trkpt>
      <trkpt lat="37.329968" lon="-5.839190">
        <ele>97.025934</ele>
        <time>2020-08-15T07:42:15.636Z</time>
      </trkpt>
      <trkpt lat="37.330055" lon="-5.839242">
        <ele>97.664580</ele>
        <time>2020-08-15T07:42:18.642Z</time>
      </trkpt>
      <trkpt lat="37.330169" lon="-5.839253">
        <ele>98.274025</ele>
        <time>2020-08-15T07:42:21.609Z</time>
      </trkpt>
      <trkpt lat="37.330260" lon="-5.839263">
        <ele>98.365418</ele>
        <time>2020-08-15T07:42:23.620Z</time>
      </trkpt>
      <trkpt lat="37.330354" lon="-5.839257">
        <ele>98.459587</ele>
        <time>2020-08-15T07:42:25.641Z</time>
      </trkpt>
      <trkpt lat="37.330452" lon="-5.839316">
        <ele>98.568293</ele>
        <time>2020-08-15T07:42:28.622Z</time>
      </trkpt>
      <trkpt lat="37.330543" lon="-5.839357">
        <ele>98.665006</ele>
        <time>2020-08-15T07:42:30.636Z</time>
      </trkpt>
      <trkpt lat="37.330645" lon="-5.839380">
        <ele>98.768685</ele>
        <time>2020-08-15T07:42:32.601Z</time>
      </trkpt>
      <trkpt lat="37.330752" lon="-5.839441">
        <ele>98.886226</ele>
        <time>2020-08-15T07:42:35.606Z</time>
      </trkpt>
      <trkpt lat="37.330858" lon="-5.839426">
        <ele>98.992949</ele>
        <time>2020-08-15T07:42:38.608Z</time>
      </trkpt>
      <trkpt lat="37.330954" lon="-5.839470">
        <ele>99.095178</ele>
        <time>2020-08-15T07:42:41.608Z</time>
      </trkpt>
      <trkpt lat="37.331045" lon="-5.839567">
        <ele>99.214528</ele>
        <time>2020-08-15T07:42:44.628Z</time>
      </trkpt>
      <trkpt lat="37.331110" lon="-5.839681">
        <ele>99.326127</ele>
        <time>2020-08-15T07:42:46.617Z</time>
      </trkpt>
      <trkpt lat="37.331191" lon="-5.839778">
        <ele>99.438032</ele>
        <time>2020-08-15T07:42:48.624Z</time>
      </trkpt>
      <trkpt lat="37.331280" lon="-5.839875">
        <ele>99.555862</ele>
        <time>2020-08-15T07:42:51.616Z</time>
      </trkpt>
      <trkpt lat="37.331278" lon="-5.840029">
        <ele>99.678393</ele>
        <time>2020-08-15T07:42:54.621Z</time>
      </trkpt>
      <trkpt lat="37.331152" lon="-5.840110">
        <ele>99.819972</ele>
        <time>2020-08-15T07:42:57.628Z</time>
      </trkpt>
      <trkpt lat="37.331066" lon="-5.840179">
        <ele>99.922035</ele>
        <time>2020-08-15T07:43:01.626Z</time>
      </trkpt>
      <trkpt lat="37.331051" lon="-5.840307">
        <ele>100.024965</ele>
        <time>2020-08-15T07:43:06.613Z</time>
      </trkpt>
      <trkpt lat="37.331158" lon="-5.840712">
        <ele>99.723037</ele>
        <time>2020-08-15T07:44:35.638Z</time>
      </trkpt>
      <trkpt lat="37.331255" lon="-5.840711">
        <ele>99.623896</ele>
        <time>2020-08-15T07:44:37.632Z</time>
      </trkpt>
      <trkpt lat="37.331369" lon="-5.840692">
        <ele>99.506364</ele>
        <time>2020-08-15T07:44:42.616Z</time>
      </trkpt>
      <trkpt lat="37.331477" lon="-5.840715">
        <ele>99.394411</ele>
        <time>2020-08-15T07:44:47.629Z</time>
      </trkpt>
      <trkpt lat="37.331593" lon="-5.840722">
        <ele>99.275717</ele>
        <time>2020-08-15T07:44:57.599Z</time>
      </trkpt>
      <trkpt lat="37.331674" lon="-5.840787">
        <ele>99.177514</ele>
        <time>2020-08-15T07:44:59.639Z</time>
      </trkpt>
      <trkpt lat="37.331758" lon="-5.840876">
        <ele>99.065257</ele>
        <time>2020-08-15T07:45:01.635Z</time>
      </trkpt>
      <trkpt lat="37.331849" lon="-5.840961">
        <ele>98.949404</ele>
        <time>2020-08-15T07:45:02.631Z</time>
      </trkpt>
      <trkpt lat="37.331964" lon="-5.840996">
        <ele>98.828476</ele>
        <time>2020-08-15T07:45:03.626Z</time>
      </trkpt>
      <trkpt lat="37.332057" lon="-5.841092">
        <ele>98.705509</ele>
        <time>2020-08-15T07:45:05.614Z</time>
      </trkpt>
      <trkpt lat="37.332131" lon="-5.841193">
        <ele>98.593897</ele>
        <time>2020-08-15T07:45:07.623Z</time>
      </trkpt>
      <trkpt lat="37.332230" lon="-5.841255">
        <ele>98.480864</ele>
        <time>2020-08-15T07:45:10.627Z</time>
      </trkpt>
      <trkpt lat="37.332258" lon="-5.841366">
        <ele>98.386228</ele>
        <time>2020-08-15T07:45:24.595Z</time>
      </trkpt>
      <trkpt lat="37.332357" lon="-5.841396">
        <ele>98.282149</ele>
        <time>2020-08-15T07:45:44.594Z</time>
      </trkpt>
      <trkpt lat="37.332454" lon="-5.841465">
        <ele>98.240787</ele>
        <time>2020-08-15T07:45:46.609Z</time>
      </trkpt>
      <trkpt lat="37.332537" lon="-5.841543">
        <ele>98.323961</ele>
        <time>2020-08-15T07:45:48.607Z</time>
      </trkpt>
      <trkpt lat="37.332617" lon="-5.841604">
        <ele>98.399061</ele>
        <time>2020-08-15T07:45:50.609Z</time>
      </trkpt>
      <trkpt lat="37.332701" lon="-5.841665">
        <ele>98.476925</ele>
        <time>2020-08-15T07:45:52.610Z</time>
      </trkpt>
      <trkpt lat="37.332810" lon="-5.841727">
        <ele>98.572957</ele>
        <time>2020-08-15T07:45:55.612Z</time>
      </trkpt>
      <trkpt lat="37.332903" lon="-5.841819">
        <ele>98.667939</ele>
        <time>2020-08-15T07:45:58.610Z</time>
      </trkpt>
      <trkpt lat="37.333013" lon="-5.841908">
        <ele>98.772936</ele>
        <time>2020-08-15T07:46:01.612Z</time>
      </trkpt>
      <trkpt lat="37.333108" lon="-5.842007">
        <ele>98.871974</ele>
        <time>2020-08-15T07:46:04.607Z</time>
      </trkpt>
      <trkpt lat="37.333198" lon="-5.842108">
        <ele>98.968801</ele>
        <time>2020-08-15T07:46:07.616Z</time>
      </trkpt>
      <trkpt lat="37.333281" lon="-5.842225">
        <ele>99.068882</ele>
        <time>2020-08-15T07:46:10.611Z</time>
      </trkpt>
      <trkpt lat="37.333342" lon="-5.842309">
        <ele>99.141493</ele>
        <time>2020-08-15T07:46:12.608Z</time>
      </trkpt>
      <trkpt lat="37.333417" lon="-5.842387">
        <ele>99.219617</ele>
        <time>2020-08-15T07:46:14.610Z</time>
      </trkpt>
      <trkpt lat="37.333499" lon="-5.842540">
        <ele>99.337386</ele>
        <time>2020-08-15T07:46:17.612Z</time>
      </trkpt>
      <trkpt lat="37.333552" lon="-5.842661">
        <ele>99.425561</ele>
        <time>2020-08-15T07:46:20.616Z</time>
      </trkpt>
      <trkpt lat="37.333595" lon="-5.842800">
        <ele>99.520760</ele>
        <time>2020-08-15T07:46:23.609Z</time>
      </trkpt>
      <trkpt lat="37.333627" lon="-5.842911">
        <ele>99.596121</ele>
        <time>2020-08-15T07:46:25.618Z</time>
      </trkpt>
      <trkpt lat="37.333627" lon="-5.843033">
        <ele>99.580082</ele>
        <time>2020-08-15T07:46:27.608Z</time>
      </trkpt>
      <trkpt lat="37.333663" lon="-5.843189">
        <ele>99.225912</ele>
        <time>2020-08-15T07:46:29.607Z</time>
      </trkpt>
      <trkpt lat="37.333691" lon="-5.843300">
        <ele>98.972007</ele>
        <time>2020-08-15T07:46:31.612Z</time>
      </trkpt>
      <trkpt lat="37.333696" lon="-5.843429">
        <ele>98.690410</ele>
        <time>2020-08-15T07:46:33.617Z</time>
      </trkpt>
      <trkpt lat="37.333681" lon="-5.843549">
        <ele>98.425555</ele>
        <time>2020-08-15T07:46:35.625Z</time>
      </trkpt>
      <trkpt lat="37.333665" lon="-5.843679">
        <ele>98.138736</ele>
        <time>2020-08-15T07:46:37.611Z</time>
      </trkpt>
      <trkpt lat="37.333636" lon="-5.843814">
        <ele>97.833837</ele>
        <time>2020-08-15T07:46:39.618Z</time>
      </trkpt>
      <trkpt lat="37.333620" lon="-5.843953">
        <ele>97.527610</ele>
        <time>2020-08-15T07:46:42.613Z</time>
      </trkpt>
      <trkpt lat="37.333592" lon="-5.844065">
        <ele>97.271625</ele>
        <time>2020-08-15T07:46:44.620Z</time>
      </trkpt>
      <trkpt lat="37.333560" lon="-5.844189">
        <ele>96.987379</ele>
        <time>2020-08-15T07:46:46.605Z</time>
      </trkpt>
      <trkpt lat="37.333494" lon="-5.844304">
        <ele>96.678146</ele>
        <time>2020-08-15T07:46:48.618Z</time>
      </trkpt>
      <trkpt lat="37.333429" lon="-5.844432">
        <ele>96.347000</ele>
        <time>2020-08-15T07:46:50.610Z</time>
      </trkpt>
      <trkpt lat="37.333390" lon="-5.844573">
        <ele>96.021501</ele>
        <time>2020-08-15T07:46:52.603Z</time>
      </trkpt>
      <trkpt lat="37.333310" lon="-5.844715">
        <ele>95.642051</ele>
        <time>2020-08-15T07:46:54.616Z</time>
      </trkpt>
      <trkpt lat="37.333278" lon="-5.844876">
        <ele>95.280213</ele>
        <time>2020-08-15T07:46:56.637Z</time>
      </trkpt>
      <trkpt lat="37.333244" lon="-5.845043">
        <ele>94.904348</ele>
        <time>2020-08-15T07:46:58.640Z</time>
      </trkpt>
      <trkpt lat="37.333226" lon="-5.845201">
        <ele>94.511058</ele>
        <time>2020-08-15T07:47:00.626Z</time>
      </trkpt>
      <trkpt lat="37.333143" lon="-5.845356">
        <ele>93.991273</ele>
        <time>2020-08-15T07:47:02.616Z</time>
      </trkpt>
      <trkpt lat="37.333059" lon="-5.845498">
        <ele>93.498984</ele>
        <time>2020-08-15T07:47:04.619Z</time>
      </trkpt>
      <trkpt lat="37.333013" lon="-5.845665">
        <ele>93.007392</ele>
        <time>2020-08-15T07:47:06.620Z</time>
      </trkpt>
      <trkpt lat="37.332961" lon="-5.845812">
        <ele>92.559875</ele>
        <time>2020-08-15T07:47:08.626Z</time>
      </trkpt>
      <trkpt lat="37.332922" lon="-5.845973">
        <ele>92.091734</ele>
        <time>2020-08-15T07:47:10.625Z</time>
      </trkpt>
      <trkpt lat="37.332874" lon="-5.846139">
        <ele>91.600422</ele>
        <time>2020-08-15T07:47:12.631Z</time>
      </trkpt>
      <trkpt lat="37.332838" lon="-5.846291">
        <ele>91.159277</ele>
        <time>2020-08-15T07:47:14.623Z</time>
      </trkpt>
      <trkpt lat="37.332781" lon="-5.846467">
        <ele>90.630682</ele>
        <time>2020-08-15T07:47:16.626Z</time>
      </trkpt>
      <trkpt lat="37.332732" lon="-5.846627">
        <ele>90.153773</ele>
        <time>2020-08-15T07:47:18.628Z</time>
      </trkpt>
      <trkpt lat="37.332679" lon="-5.846793">
        <ele>89.656211</ele>
        <time>2020-08-15T07:47:20.626Z</time>
      </trkpt>
      <trkpt lat="37.332625" lon="-5.846969">
        <ele>89.131484</ele>
        <time>2020-08-15T07:47:22.616Z</time>
      </trkpt>
      <trkpt lat="37.332590" lon="-5.847121">
        <ele>88.691324</ele>
        <time>2020-08-15T07:47:24.601Z</time>
      </trkpt>
      <trkpt lat="37.332572" lon="-5.847245">
        <ele>88.254311</ele>
        <time>2020-08-15T07:47:26.639Z</time>
      </trkpt>
      <trkpt lat="37.332519" lon="-5.847381">
        <ele>87.418706</ele>
        <time>2020-08-15T07:47:28.623Z</time>
      </trkpt>
      <trkpt lat="37.332499" lon="-5.847539">
        <ele>86.536021</ele>
        <time>2020-08-15T07:47:30.634Z</time>
      </trkpt>
      <trkpt lat="37.332477" lon="-5.847692">
        <ele>85.678207</ele>
        <time>2020-08-15T07:47:32.622Z</time>
      </trkpt>
      <trkpt lat="37.332466" lon="-5.847857">
        <ele>84.764684</ele>
        <time>2020-08-15T07:47:34.630Z</time>
      </trkpt>
      <trkpt lat="37.332444" lon="-5.847998">
        <ele>83.971931</ele>
        <time>2020-08-15T07:47:36.613Z</time>
      </trkpt>
      <trkpt lat="37.332435" lon="-5.848146">
        <ele>83.153009</ele>
        <time>2020-08-15T07:47:38.616Z</time>
      </trkpt>
      <trkpt lat="37.332460" lon="-5.848287">
        <ele>82.355985</ele>
        <time>2020-08-15T07:47:40.616Z</time>
      </trkpt>
      <trkpt lat="37.332489" lon="-5.848431">
        <ele>81.536430</ele>
        <time>2020-08-15T07:47:42.632Z</time>
      </trkpt>
      <trkpt lat="37.332468" lon="-5.848572">
        <ele>80.744984</ele>
        <time>2020-08-15T07:47:44.624Z</time>
      </trkpt>
      <trkpt lat="37.332500" lon="-5.848708">
        <ele>79.962489</ele>
        <time>2020-08-15T07:47:46.612Z</time>
      </trkpt>
      <trkpt lat="37.332533" lon="-5.848850">
        <ele>79.146279</ele>
        <time>2020-08-15T07:47:48.636Z</time>
      </trkpt>
      <trkpt lat="37.332557" lon="-5.848992">
        <ele>78.345343</ele>
        <time>2020-08-15T07:47:50.609Z</time>
      </trkpt>
      <trkpt lat="37.332573" lon="-5.849153">
        <ele>77.450173</ele>
        <time>2020-08-15T07:47:52.611Z</time>
      </trkpt>
      <trkpt lat="37.332595" lon="-5.849282">
        <ele>76.722276</ele>
        <time>2020-08-15T07:47:54.613Z</time>
      </trkpt>
      <trkpt lat="37.332556" lon="-5.849446">
        <ele>75.925110</ele>
        <time>2020-08-15T07:47:56.639Z</time>
      </trkpt>
      <trkpt lat="37.332612" lon="-5.849565">
        <ele>75.820996</ele>
        <time>2020-08-15T07:47:58.607Z</time>
      </trkpt>
      <trkpt lat="37.332691" lon="-5.849652">
        <ele>75.721564</ele>
        <time>2020-08-15T07:48:00.628Z</time>
      </trkpt>
      <trkpt lat="37.332794" lon="-5.849676">
        <ele>75.622371</ele>
        <time>2020-08-15T07:48:02.609Z</time>
      </trkpt>
      <trkpt lat="37.332882" lon="-5.849626">
        <ele>75.530933</ele>
        <time>2020-08-15T07:48:07.598Z</time>
      </trkpt>
      <trkpt lat="37.332922" lon="-5.849755">
        <ele>75.426683</ele>
        <time>2020-08-15T07:48:19.601Z</time>
      </trkpt>
      <trkpt lat="37.332933" lon="-5.849916">
        <ele>75.305016</ele>
        <time>2020-08-15T07:48:20.625Z</time>
      </trkpt>
      <trkpt lat="37.332968" lon="-5.850037">
        <ele>75.208072</ele>
        <time>2020-08-15T07:48:22.625Z</time>
      </trkpt>
      <trkpt lat="37.332974" lon="-5.850203">
        <ele>75.082958</ele>
        <time>2020-08-15T07:48:24.630Z</time>
      </trkpt>
      <trkpt lat="37.332975" lon="-5.850404">
        <ele>74.931619</ele>
        <time>2020-08-15T07:48:26.622Z</time>
      </trkpt>
      <trkpt lat="37.332966" lon="-5.850604">
        <ele>74.780794</ele>
        <time>2020-08-15T07:48:28.624Z</time>
      </trkpt>
      <trkpt lat="37.333021" lon="-5.850778">
        <ele>74.639814</ele>
        <time>2020-08-15T07:48:30.648Z</time>
      </trkpt>
      <trkpt lat="37.333072" lon="-5.850985">
        <ele>74.476650</ele>
        <time>2020-08-15T07:48:32.605Z</time>
      </trkpt>
      <trkpt lat="37.333103" lon="-5.851206">
        <ele>74.307686</ele>
        <time>2020-08-15T07:48:34.616Z</time>
      </trkpt>
      <trkpt lat="37.333192" lon="-5.851366">
        <ele>74.349079</ele>
        <time>2020-08-15T07:48:36.634Z</time>
      </trkpt>
      <trkpt lat="37.333292" lon="-5.851524">
        <ele>74.535875</ele>
        <time>2020-08-15T07:48:38.628Z</time>
      </trkpt>
      <trkpt lat="37.333365" lon="-5.851652">
        <ele>74.681580</ele>
        <time>2020-08-15T07:48:40.622Z</time>
      </trkpt>
      <trkpt lat="37.333452" lon="-5.851704">
        <ele>74.793638</ele>
        <time>2020-08-15T07:48:42.630Z</time>
      </trkpt>
      <trkpt lat="37.333551" lon="-5.851757">
        <ele>74.918807</ele>
        <time>2020-08-15T07:48:45.626Z</time>
      </trkpt>
      <trkpt lat="37.333644" lon="-5.851780">
        <ele>75.029069</ele>
        <time>2020-08-15T07:48:49.607Z</time>
      </trkpt>
      <trkpt lat="37.333727" lon="-5.851862">
        <ele>75.151854</ele>
        <time>2020-08-15T07:48:52.642Z</time>
      </trkpt>
      <trkpt lat="37.333750" lon="-5.852004">
        <ele>75.285899</ele>
        <time>2020-08-15T07:48:56.621Z</time>
      </trkpt>
      <trkpt lat="37.333708" lon="-5.852147">
        <ele>75.426907</ele>
        <time>2020-08-15T07:48:59.603Z</time>
      </trkpt>
      <trkpt lat="37.333673" lon="-5.852286">
        <ele>75.561773</ele>
        <time>2020-08-15T07:49:02.612Z</time>
      </trkpt>
      <trkpt lat="37.333644" lon="-5.852427">
        <ele>75.696488</ele>
        <time>2020-08-15T07:49:05.612Z</time>
      </trkpt>
      <trkpt lat="37.333632" lon="-5.852573">
        <ele>75.832255</ele>
        <time>2020-08-15T07:49:08.615Z</time>
      </trkpt>
      <trkpt lat="37.333620" lon="-5.852710">
        <ele>75.959745</ele>
        <time>2020-08-15T07:49:11.618Z</time>
      </trkpt>
      <trkpt lat="37.333607" lon="-5.852852">
        <ele>76.091960</ele>
        <time>2020-08-15T07:49:14.623Z</time>
      </trkpt>
      <trkpt lat="37.333593" lon="-5.852991">
        <ele>76.221560</ele>
        <time>2020-08-15T07:49:17.614Z</time>
      </trkpt>
      <trkpt lat="37.333579" lon="-5.853109">
        <ele>76.331917</ele>
        <time>2020-08-15T07:49:20.622Z</time>
      </trkpt>
      <trkpt lat="37.333559" lon="-5.853238">
        <ele>76.741575</ele>
        <time>2020-08-15T07:49:23.608Z</time>
      </trkpt>
      <trkpt lat="37.333528" lon="-5.853366">
        <ele>77.173093</ele>
        <time>2020-08-15T07:49:26.639Z</time>
      </trkpt>
      <trkpt lat="37.333509" lon="-5.853486">
        <ele>77.567686</ele>
        <time>2020-08-15T07:49:29.621Z</time>
      </trkpt>
      <trkpt lat="37.333474" lon="-5.853598">
        <ele>77.955776</ele>
        <time>2020-08-15T07:49:32.617Z</time>
      </trkpt>
      <trkpt lat="37.333435" lon="-5.853731">
        <ele>78.412934</ele>
        <time>2020-08-15T07:49:35.622Z</time>
      </trkpt>
      <trkpt lat="37.333393" lon="-5.853856">
        <ele>78.850569</ele>
        <time>2020-08-15T07:49:38.627Z</time>
      </trkpt>
      <trkpt lat="37.333367" lon="-5.853971">
        <ele>79.236140</ele>
        <time>2020-08-15T07:49:41.622Z</time>
      </trkpt>
      <trkpt lat="37.333360" lon="-5.854113">
        <ele>79.694964</ele>
        <time>2020-08-15T07:49:45.617Z</time>
      </trkpt>
      <trkpt lat="37.333362" lon="-5.854233">
        <ele>80.082045</ele>
        <time>2020-08-15T07:49:48.614Z</time>
      </trkpt>
      <trkpt lat="37.333358" lon="-5.854359">
        <ele>80.488713</ele>
        <time>2020-08-15T07:49:51.617Z</time>
      </trkpt>
      <trkpt lat="37.333367" lon="-5.854486">
        <ele>80.899907</ele>
        <time>2020-08-15T07:49:54.614Z</time>
      </trkpt>
      <trkpt lat="37.333361" lon="-5.854619">
        <ele>81.329517</ele>
        <time>2020-08-15T07:49:57.623Z</time>
      </trkpt>
      <trkpt lat="37.333340" lon="-5.854750">
        <ele>81.760487</ele>
        <time>2020-08-15T07:50:00.612Z</time>
      </trkpt>
      <trkpt lat="37.333311" lon="-5.854898">
        <ele>82.252061</ele>
        <time>2020-08-15T07:50:04.622Z</time>
      </trkpt>
      <trkpt lat="37.333297" lon="-5.855012">
        <ele>82.624066</ele>
        <time>2020-08-15T07:50:07.640Z</time>
      </trkpt>
      <trkpt lat="37.333273" lon="-5.855150">
        <ele>83.079633</ele>
        <time>2020-08-15T07:50:11.619Z</time>
      </trkpt>
      <trkpt lat="37.333264" lon="-5.855283">
        <ele>83.510104</ele>
        <time>2020-08-15T07:50:15.610Z</time>
      </trkpt>
      <trkpt lat="37.333267" lon="-5.855430">
        <ele>83.512051</ele>
        <time>2020-08-15T07:50:19.612Z</time>
      </trkpt>
      <trkpt lat="37.333307" lon="-5.855536">
        <ele>83.382053</ele>
        <time>2020-08-15T07:50:22.612Z</time>
      </trkpt>
      <trkpt lat="37.333390" lon="-5.855607">
        <ele>83.242181</ele>
        <time>2020-08-15T07:50:26.626Z</time>
      </trkpt>
      <trkpt lat="37.333451" lon="-5.855716">
        <ele>83.094500</ele>
        <time>2020-08-15T07:50:31.601Z</time>
      </trkpt>
      <trkpt lat="37.333414" lon="-5.855829">
        <ele>82.959102</ele>
        <time>2020-08-15T07:50:34.631Z</time>
      </trkpt>
      <trkpt lat="37.333360" lon="-5.855955">
        <ele>82.800513</ele>
        <time>2020-08-15T07:50:38.636Z</time>
      </trkpt>
      <trkpt lat="37.333404" lon="-5.856102">
        <ele>82.626486</ele>
        <time>2020-08-15T07:50:41.610Z</time>
      </trkpt>
      <trkpt lat="37.333467" lon="-5.856185">
        <ele>82.499352</ele>
        <time>2020-08-15T07:50:43.610Z</time>
      </trkpt>
      <trkpt lat="37.333553" lon="-5.856261">
        <ele>82.352891</ele>
        <time>2020-08-15T07:50:45.626Z</time>
      </trkpt>
      <trkpt lat="37.333620" lon="-5.856383">
        <ele>82.188614</ele>
        <time>2020-08-15T07:50:48.610Z</time>
      </trkpt>
      <trkpt lat="37.333718" lon="-5.856413">
        <ele>82.048071</ele>
        <time>2020-08-15T07:50:51.612Z</time>
      </trkpt>
      <trkpt lat="37.333806" lon="-5.856470">
        <ele>81.910141</ele>
        <time>2020-08-15T07:50:56.642Z</time>
      </trkpt>
      <trkpt lat="37.333864" lon="-5.856559">
        <ele>81.782646</ele>
        <time>2020-08-15T07:51:03.600Z</time>
      </trkpt>
      <trkpt lat="37.333942" lon="-5.856631">
        <ele>81.647825</ele>
        <time>2020-08-15T07:51:07.614Z</time>
      </trkpt>
      <trkpt lat="37.334038" lon="-5.856654">
        <ele>81.511650</ele>
        <time>2020-08-15T07:51:11.605Z</time>
      </trkpt>
      <trkpt lat="37.334131" lon="-5.856609">
        <ele>81.372800</ele>
        <time>2020-08-15T07:51:16.631Z</time>
      </trkpt>
      <trkpt lat="37.334232" lon="-5.856556">
        <ele>81.220304</ele>
        <time>2020-08-15T07:51:22.632Z</time>
      </trkpt>
      <trkpt lat="37.334357" lon="-5.856533">
        <ele>80.855335</ele>
        <time>2020-08-15T07:51:24.624Z</time>
      </trkpt>
      <trkpt lat="37.334463" lon="-5.856520">
        <ele>80.366033</ele>
        <time>2020-08-15T07:51:26.637Z</time>
      </trkpt>
      <trkpt lat="37.334586" lon="-5.856513">
        <ele>79.800360</ele>
        <time>2020-08-15T07:51:29.642Z</time>
      </trkpt>
      <trkpt lat="37.334696" lon="-5.856497">
        <ele>79.291622</ele>
        <time>2020-08-15T07:51:33.623Z</time>
      </trkpt>
      <trkpt lat="37.334796" lon="-5.856519">
        <ele>78.825220</ele>
        <time>2020-08-15T07:51:37.606Z</time>
      </trkpt>
      <trkpt lat="37.334889" lon="-5.856527">
        <ele>78.396954</ele>
        <time>2020-08-15T07:51:43.624Z</time>
      </trkpt>
      <trkpt lat="37.334980" lon="-5.856586">
        <ele>77.926594</ele>
        <time>2020-08-15T07:51:47.635Z</time>
      </trkpt>
      <trkpt lat="37.335070" lon="-5.856658">
        <ele>77.436549</ele>
        <time>2020-08-15T07:51:51.635Z</time>
      </trkpt>
      <trkpt lat="37.335167" lon="-5.856706">
        <ele>76.957652</ele>
        <time>2020-08-15T07:51:54.640Z</time>
      </trkpt>
      <trkpt lat="37.335285" lon="-5.856733">
        <ele>76.406630</ele>
        <time>2020-08-15T07:51:57.632Z</time>
      </trkpt>
      <trkpt lat="37.335391" lon="-5.856739">
        <ele>75.919145</ele>
        <time>2020-08-15T07:52:00.642Z</time>
      </trkpt>
      <trkpt lat="37.335481" lon="-5.856743">
        <ele>75.505403</ele>
        <time>2020-08-15T07:52:03.605Z</time>
      </trkpt>
      <trkpt lat="37.335581" lon="-5.856741">
        <ele>75.045918</ele>
        <time>2020-08-15T07:52:10.631Z</time>
      </trkpt>
      <trkpt lat="37.335691" lon="-5.856758">
        <ele>74.536747</ele>
        <time>2020-08-15T07:52:14.635Z</time>
      </trkpt>
      <trkpt lat="37.335778" lon="-5.856795">
        <ele>74.114813</ele>
        <time>2020-08-15T07:52:17.636Z</time>
      </trkpt>
      <trkpt lat="37.335889" lon="-5.856822">
        <ele>73.595400</ele>
        <time>2020-08-15T07:52:20.657Z</time>
      </trkpt>
      <trkpt lat="37.336005" lon="-5.856869">
        <ele>73.035493</ele>
        <time>2020-08-15T07:52:23.638Z</time>
      </trkpt>
      <trkpt lat="37.336095" lon="-5.856892">
        <ele>72.920336</ele>
        <time>2020-08-15T07:52:25.649Z</time>
      </trkpt>
      <trkpt lat="37.336187" lon="-5.856910">
        <ele>73.018505</ele>
        <time>2020-08-15T07:52:27.606Z</time>
      </trkpt>
      <trkpt lat="37.336310" lon="-5.856929">
        <ele>73.149167</ele>
        <time>2020-08-15T07:52:30.624Z</time>
      </trkpt>
      <trkpt lat="37.336411" lon="-5.856935">
        <ele>73.255777</ele>
        <time>2020-08-15T07:52:33.643Z</time>
      </trkpt>
      <trkpt lat="37.336517" lon="-5.856934">
        <ele>73.367544</ele>
        <time>2020-08-15T07:52:36.635Z</time>
      </trkpt>
      <trkpt lat="37.336632" lon="-5.856914">
        <ele>73.489950</ele>
        <time>2020-08-15T07:52:40.629Z</time>
      </trkpt>
      <trkpt lat="37.336724" lon="-5.856917">
        <ele>73.586985</ele>
        <time>2020-08-15T07:52:47.616Z</time>
      </trkpt>
      <trkpt lat="37.336839" lon="-5.856910">
        <ele>73.708380</ele>
        <time>2020-08-15T07:52:52.619Z</time>
      </trkpt>
      <trkpt lat="37.336959" lon="-5.856898">
        <ele>73.835303</ele>
        <time>2020-08-15T07:52:56.631Z</time>
      </trkpt>
      <trkpt lat="37.337067" lon="-5.856898">
        <ele>73.949175</ele>
        <time>2020-08-15T07:53:01.635Z</time>
      </trkpt>
      <trkpt lat="37.337158" lon="-5.856898">
        <ele>74.045123</ele>
        <time>2020-08-15T07:53:04.627Z</time>
      </trkpt>
      <trkpt lat="37.337255" lon="-5.856871">
        <ele>74.149872</ele>
        <time>2020-08-15T07:53:08.632Z</time>
      </trkpt>
      <trkpt lat="37.337359" lon="-5.856855">
        <ele>74.260344</ele>
        <time>2020-08-15T07:53:12.634Z</time>
      </trkpt>
      <trkpt lat="37.337463" lon="-5.856879">
        <ele>74.371829</ele>
        <time>2020-08-15T07:53:18.631Z</time>
      </trkpt>
      <trkpt lat="37.337555" lon="-5.856904">
        <ele>74.471069</ele>
        <time>2020-08-15T07:53:22.635Z</time>
      </trkpt>
      <trkpt lat="37.337660" lon="-5.856921">
        <ele>74.582692</ele>
        <time>2020-08-15T07:53:27.625Z</time>
      </trkpt>
      <trkpt lat="37.337764" lon="-5.856914">
        <ele>74.692503</ele>
        <time>2020-08-15T07:53:30.631Z</time>
      </trkpt>
      <trkpt lat="37.337852" lon="-5.856880">
        <ele>74.727780</ele>
        <time>2020-08-15T07:53:33.636Z</time>
      </trkpt>
      <trkpt lat="37.337932" lon="-5.856820">
        <ele>74.624097</ele>
        <time>2020-08-15T07:53:37.622Z</time>
      </trkpt>
      <trkpt lat="37.338294" lon="-5.856696">
        <ele>74.206459</ele>
        <time>2020-08-15T08:15:53.630Z</time>
      </trkpt>
      <trkpt lat="37.338412" lon="-5.856639">
        <ele>74.065753</ele>
        <time>2020-08-15T08:15:56.612Z</time>
      </trkpt>
      <trkpt lat="37.338504" lon="-5.856613">
        <ele>73.960790</ele>
        <time>2020-08-15T08:15:58.622Z</time>
      </trkpt>
      <trkpt lat="37.338593" lon="-5.856584">
        <ele>73.858449</ele>
        <time>2020-08-15T08:16:00.623Z</time>
      </trkpt>
      <trkpt lat="37.338681" lon="-5.856540">
        <ele>73.753035</ele>
        <time>2020-08-15T08:16:03.618Z</time>
      </trkpt>
      <trkpt lat="37.338794" lon="-5.856511">
        <ele>73.624657</ele>
        <time>2020-08-15T08:16:06.602Z</time>
      </trkpt>
      <trkpt lat="37.338907" lon="-5.856484">
        <ele>73.496621</ele>
        <time>2020-08-15T08:16:09.632Z</time>
      </trkpt>
      <trkpt lat="37.339001" lon="-5.856418">
        <ele>73.376786</ele>
        <time>2020-08-15T08:16:12.626Z</time>
      </trkpt>
      <trkpt lat="37.339095" lon="-5.856299">
        <ele>73.228325</ele>
        <time>2020-08-15T08:16:15.626Z</time>
      </trkpt>
      <trkpt lat="37.339290" lon="-5.856147">
        <ele>72.972956</ele>
        <time>2020-08-15T08:16:16.617Z</time>
      </trkpt>
      <trkpt lat="37.339401" lon="-5.856081">
        <ele>72.836285</ele>
        <time>2020-08-15T08:16:19.607Z</time>
      </trkpt>
      <trkpt lat="37.339498" lon="-5.856096">
        <ele>72.749777</ele>
        <time>2020-08-15T08:16:24.612Z</time>
      </trkpt>
      <trkpt lat="37.339593" lon="-5.856088">
        <ele>72.722897</ele>
        <time>2020-08-15T08:16:27.601Z</time>
      </trkpt>
      <trkpt lat="37.339690" lon="-5.856105">
        <ele>72.695247</ele>
        <time>2020-08-15T08:16:30.616Z</time>
      </trkpt>
      <trkpt lat="37.339782" lon="-5.856090">
        <ele>72.669056</ele>
        <time>2020-08-15T08:16:32.609Z</time>
      </trkpt>
      <trkpt lat="37.339888" lon="-5.856038">
        <ele>72.636934</ele>
        <time>2020-08-15T08:16:35.620Z</time>
      </trkpt>
      <trkpt lat="37.340002" lon="-5.856020">
        <ele>72.604496</ele>
        <time>2020-08-15T08:16:39.623Z</time>
      </trkpt>
      <trkpt lat="37.340120" lon="-5.855990">
        <ele>72.570509</ele>
        <time>2020-08-15T08:16:43.642Z</time>
      </trkpt>
      <trkpt lat="37.340231" lon="-5.855959">
        <ele>72.538408</ele>
        <time>2020-08-15T08:16:46.615Z</time>
      </trkpt>
      <trkpt lat="37.340335" lon="-5.855935">
        <ele>72.508556</ele>
        <time>2020-08-15T08:16:49.602Z</time>
      </trkpt>
      <trkpt lat="37.340459" lon="-5.855900">
        <ele>72.472677</ele>
        <time>2020-08-15T08:16:52.616Z</time>
      </trkpt>
      <trkpt lat="37.340570" lon="-5.855876">
        <ele>72.440880</ele>
        <time>2020-08-15T08:16:55.610Z</time>
      </trkpt>
      <trkpt lat="37.340678" lon="-5.855891">
        <ele>72.410203</ele>
        <time>2020-08-15T08:16:59.626Z</time>
      </trkpt>
      <trkpt lat="37.340772" lon="-5.855889">
        <ele>72.383661</ele>
        <time>2020-08-15T08:17:02.619Z</time>
      </trkpt>
      <trkpt lat="37.340879" lon="-5.855901">
        <ele>72.353333</ele>
        <time>2020-08-15T08:17:06.614Z</time>
      </trkpt>
      <trkpt lat="37.340978" lon="-5.855940">
        <ele>72.324044</ele>
        <time>2020-08-15T08:17:10.613Z</time>
      </trkpt>
      <trkpt lat="37.341050" lon="-5.856014">
        <ele>72.297794</ele>
        <time>2020-08-15T08:17:14.623Z</time>
      </trkpt>
      <trkpt lat="37.341147" lon="-5.856062">
        <ele>72.268365</ele>
        <time>2020-08-15T08:17:20.612Z</time>
      </trkpt>
      <trkpt lat="37.341230" lon="-5.856118">
        <ele>72.219929</ele>
        <time>2020-08-15T08:17:23.625Z</time>
      </trkpt>
      <trkpt lat="37.341237" lon="-5.856246">
        <ele>72.110234</ele>
        <time>2020-08-15T08:17:25.608Z</time>
      </trkpt>
      <trkpt lat="37.341274" lon="-5.856359">
        <ele>72.005748</ele>
        <time>2020-08-15T08:17:29.612Z</time>
      </trkpt>
      <trkpt lat="37.341330" lon="-5.856476">
        <ele>71.888987</ele>
        <time>2020-08-15T08:17:34.616Z</time>
      </trkpt>
      <trkpt lat="37.341413" lon="-5.856548">
        <ele>71.780560</ele>
        <time>2020-08-15T08:17:38.622Z</time>
      </trkpt>
      <trkpt lat="37.341512" lon="-5.856601">
        <ele>71.664854</ele>
        <time>2020-08-15T08:17:41.625Z</time>
      </trkpt>
      <trkpt lat="37.341644" lon="-5.856638">
        <ele>71.519420</ele>
        <time>2020-08-15T08:17:44.647Z</time>
      </trkpt>
      <trkpt lat="37.341754" lon="-5.856614">
        <ele>71.399360</ele>
        <time>2020-08-15T08:17:46.623Z</time>
      </trkpt>
      <trkpt lat="37.341876" lon="-5.856572">
        <ele>71.263337</ele>
        <time>2020-08-15T08:17:49.608Z</time>
      </trkpt>
      <trkpt lat="37.341968" lon="-5.856642">
        <ele>71.147708</ele>
        <time>2020-08-15T08:17:53.616Z</time>
      </trkpt>
      <trkpt lat="37.342002" lon="-5.856777">
        <ele>71.026634</ele>
        <time>2020-08-15T08:17:56.598Z</time>
      </trkpt>
      <trkpt lat="37.342037" lon="-5.856958">
        <ele>70.867373</ele>
        <time>2020-08-15T08:17:58.635Z</time>
      </trkpt>
      <trkpt lat="37.342082" lon="-5.857133">
        <ele>70.710122</ele>
        <time>2020-08-15T08:18:00.625Z</time>
      </trkpt>
      <trkpt lat="37.342122" lon="-5.857272">
        <ele>70.583736</ele>
        <time>2020-08-15T08:18:02.631Z</time>
      </trkpt>
      <trkpt lat="37.342155" lon="-5.857398">
        <ele>70.470315</ele>
        <time>2020-08-15T08:18:04.617Z</time>
      </trkpt>
      <trkpt lat="37.342180" lon="-5.857536">
        <ele>70.349306</ele>
        <time>2020-08-15T08:18:06.621Z</time>
      </trkpt>
      <trkpt lat="37.342216" lon="-5.857650">
        <ele>70.208228</ele>
        <time>2020-08-15T08:18:08.631Z</time>
      </trkpt>
      <trkpt lat="37.342253" lon="-5.857807">
        <ele>69.996702</ele>
        <time>2020-08-15T08:18:11.635Z</time>
      </trkpt>
      <trkpt lat="37.342258" lon="-5.857927">
        <ele>69.841480</ele>
        <time>2020-08-15T08:18:13.633Z</time>
      </trkpt>
      <trkpt lat="37.342280" lon="-5.858053">
        <ele>69.674842</ele>
        <time>2020-08-15T08:18:15.627Z</time>
      </trkpt>
      <trkpt lat="37.342327" lon="-5.858171">
        <ele>69.504358</ele>
        <time>2020-08-15T08:18:17.623Z</time>
      </trkpt>
      <trkpt lat="37.342356" lon="-5.858295">
        <ele>69.337396</ele>
        <time>2020-08-15T08:18:19.610Z</time>
      </trkpt>
      <trkpt lat="37.342402" lon="-5.858429">
        <ele>69.148857</ele>
        <time>2020-08-15T08:18:21.607Z</time>
      </trkpt>
      <trkpt lat="37.342462" lon="-5.858556">
        <ele>68.958026</ele>
        <time>2020-08-15T08:18:24.612Z</time>
      </trkpt>
      <trkpt lat="37.342524" lon="-5.858694">
        <ele>68.753272</ele>
        <time>2020-08-15T08:18:27.615Z</time>
      </trkpt>
      <trkpt lat="37.342541" lon="-5.858855">
        <ele>68.543477</ele>
        <time>2020-08-15T08:18:30.616Z</time>
      </trkpt>
      <trkpt lat="37.342584" lon="-5.858991">
        <ele>68.354418</ele>
        <time>2020-08-15T08:18:33.609Z</time>
      </trkpt>
      <trkpt lat="37.342624" lon="-5.859118">
        <ele>68.177964</ele>
        <time>2020-08-15T08:18:37.626Z</time>
      </trkpt>
      <trkpt lat="37.342637" lon="-5.859260">
        <ele>67.993326</ele>
        <time>2020-08-15T08:18:41.619Z</time>
      </trkpt>
      <trkpt lat="37.342607" lon="-5.859375">
        <ele>67.836984</ele>
        <time>2020-08-15T08:18:43.616Z</time>
      </trkpt>
      <trkpt lat="37.342574" lon="-5.859481">
        <ele>67.689936</ele>
        <time>2020-08-15T08:18:46.621Z</time>
      </trkpt>
      <trkpt lat="37.342658" lon="-5.859538">
        <ele>67.534861</ele>
        <time>2020-08-15T08:18:52.609Z</time>
      </trkpt>
      <trkpt lat="37.342754" lon="-5.859564">
        <ele>67.405062</ele>
        <time>2020-08-15T08:18:57.601Z</time>
      </trkpt>
      <trkpt lat="37.342819" lon="-5.859833">
        <ele>67.655754</ele>
        <time>2020-08-15T08:19:12.671Z</time>
      </trkpt>
      <trkpt lat="37.342878" lon="-5.859939">
        <ele>67.771133</ele>
        <time>2020-08-15T08:19:18.608Z</time>
      </trkpt>
      <trkpt lat="37.342852" lon="-5.860073">
        <ele>67.894123</ele>
        <time>2020-08-15T08:19:23.600Z</time>
      </trkpt>
      <trkpt lat="37.342806" lon="-5.860223">
        <ele>68.037479</ele>
        <time>2020-08-15T08:19:36.593Z</time>
      </trkpt>
      <trkpt lat="37.342830" lon="-5.860405">
        <ele>68.201980</ele>
        <time>2020-08-15T08:19:41.600Z</time>
      </trkpt>
      <trkpt lat="37.342866" lon="-5.860282">
        <ele>68.318851</ele>
        <time>2020-08-15T08:19:52.614Z</time>
      </trkpt>
      <trkpt lat="37.342839" lon="-5.860138">
        <ele>68.450773</ele>
        <time>2020-08-15T08:19:58.608Z</time>
      </trkpt>
      <trkpt lat="37.342794" lon="-5.860020">
        <ele>68.567469</ele>
        <time>2020-08-15T08:20:03.620Z</time>
      </trkpt>
      <trkpt lat="37.342721" lon="-5.859943">
        <ele>68.674321</ele>
        <time>2020-08-15T08:20:06.617Z</time>
      </trkpt>
      <trkpt lat="37.342656" lon="-5.859862">
        <ele>68.776942</ele>
        <time>2020-08-15T08:20:09.628Z</time>
      </trkpt>
      <trkpt lat="37.342581" lon="-5.859781">
        <ele>68.887813</ele>
        <time>2020-08-15T08:20:13.620Z</time>
      </trkpt>
      <trkpt lat="37.342748" lon="-5.859541">
        <ele>69.172204</ele>
        <time>2020-08-15T08:20:15.612Z</time>
      </trkpt>
      <trkpt lat="37.342739" lon="-5.859414">
        <ele>69.285894</ele>
        <time>2020-08-15T08:20:19.627Z</time>
      </trkpt>
      <trkpt lat="37.342742" lon="-5.859284">
        <ele>69.401860</ele>
        <time>2020-08-15T08:20:24.614Z</time>
      </trkpt>
      <trkpt lat="37.342778" lon="-5.859157">
        <ele>69.382392</ele>
        <time>2020-08-15T08:20:29.633Z</time>
      </trkpt>
      <trkpt lat="37.342597" lon="-5.858872">
        <ele>69.301528</ele>
        <time>2020-08-15T08:20:40.615Z</time>
      </trkpt>
      <trkpt lat="37.342528" lon="-5.859111">
        <ele>69.245160</ele>
        <time>2020-08-15T08:20:43.619Z</time>
      </trkpt>
      <trkpt lat="37.342497" lon="-5.859223">
        <ele>69.218869</ele>
        <time>2020-08-15T08:20:48.610Z</time>
      </trkpt>
      <trkpt lat="37.342530" lon="-5.859340">
        <ele>69.191348</ele>
        <time>2020-08-15T08:20:54.643Z</time>
      </trkpt>
      <trkpt lat="37.342620" lon="-5.859378">
        <ele>69.164876</ele>
        <time>2020-08-15T08:20:59.633Z</time>
      </trkpt>
      <trkpt lat="37.342696" lon="-5.859470">
        <ele>69.135464</ele>
        <time>2020-08-15T08:21:03.616Z</time>
      </trkpt>
      <trkpt lat="37.342781" lon="-5.859508">
        <ele>69.110310</ele>
        <time>2020-08-15T08:21:06.624Z</time>
      </trkpt>
      <trkpt lat="37.342882" lon="-5.859566">
        <ele>69.079350</ele>
        <time>2020-08-15T08:21:13.641Z</time>
      </trkpt>
      <trkpt lat="37.342809" lon="-5.859797">
        <ele>69.024244</ele>
        <time>2020-08-15T08:21:16.618Z</time>
      </trkpt>
      <trkpt lat="37.342675" lon="-5.859989">
        <ele>68.967606</ele>
        <time>2020-08-15T08:21:17.646Z</time>
      </trkpt>
      <trkpt lat="37.342758" lon="-5.860041">
        <ele>68.941751</ele>
        <time>2020-08-15T08:21:21.643Z</time>
      </trkpt>
      <trkpt lat="37.342613" lon="-5.860495">
        <ele>69.544805</ele>
        <time>2020-08-15T08:21:28.629Z</time>
      </trkpt>
      <trkpt lat="37.342288" lon="-5.861744">
        <ele>72.003381</ele>
        <time>2020-08-15T08:21:59.631Z</time>
      </trkpt>
      <trkpt lat="37.342296" lon="-5.861870">
        <ele>72.239850</ele>
        <time>2020-08-15T08:22:02.632Z</time>
      </trkpt>
      <trkpt lat="37.342252" lon="-5.862007">
        <ele>72.516271</ele>
        <time>2020-08-15T08:22:04.635Z</time>
      </trkpt>
      <trkpt lat="37.342205" lon="-5.862198">
        <ele>72.890316</ele>
        <time>2020-08-15T08:22:05.633Z</time>
      </trkpt>
      <trkpt lat="37.342151" lon="-5.862323">
        <ele>73.161431</ele>
        <time>2020-08-15T08:22:08.630Z</time>
      </trkpt>
      <trkpt lat="37.342107" lon="-5.862452">
        <ele>73.508973</ele>
        <time>2020-08-15T08:22:12.643Z</time>
      </trkpt>
      <trkpt lat="37.342087" lon="-5.862565">
        <ele>73.795596</ele>
        <time>2020-08-15T08:22:15.648Z</time>
      </trkpt>
      <trkpt lat="37.342020" lon="-5.862707">
        <ele>74.204425</ele>
        <time>2020-08-15T08:22:16.617Z</time>
      </trkpt>
      <trkpt lat="37.341989" lon="-5.862824">
        <ele>74.509767</ele>
        <time>2020-08-15T08:22:19.629Z</time>
      </trkpt>
      <trkpt lat="37.341979" lon="-5.862971">
        <ele>74.875052</ele>
        <time>2020-08-15T08:22:25.623Z</time>
      </trkpt>
      <trkpt lat="37.341970" lon="-5.863120">
        <ele>75.245022</ele>
        <time>2020-08-15T08:22:28.639Z</time>
      </trkpt>
      <trkpt lat="37.341950" lon="-5.863249">
        <ele>75.570428</ele>
        <time>2020-08-15T08:22:30.639Z</time>
      </trkpt>
      <trkpt lat="37.341912" lon="-5.863480">
        <ele>76.154473</ele>
        <time>2020-08-15T08:22:33.635Z</time>
      </trkpt>
      <trkpt lat="37.341925" lon="-5.863607">
        <ele>76.471506</ele>
        <time>2020-08-15T08:22:36.623Z</time>
      </trkpt>
      <trkpt lat="37.341949" lon="-5.863726">
        <ele>76.775469</ele>
        <time>2020-08-15T08:22:40.643Z</time>
      </trkpt>
      <trkpt lat="37.341977" lon="-5.863903">
        <ele>77.222292</ele>
        <time>2020-08-15T08:22:43.636Z</time>
      </trkpt>
      <trkpt lat="37.342001" lon="-5.864036">
        <ele>77.559960</ele>
        <time>2020-08-15T08:22:45.599Z</time>
      </trkpt>
      <trkpt lat="37.341992" lon="-5.864149">
        <ele>77.841136</ele>
        <time>2020-08-15T08:22:48.609Z</time>
      </trkpt>
      <trkpt lat="37.341994" lon="-5.864474">
        <ele>78.645823</ele>
        <time>2020-08-15T08:22:55.633Z</time>
      </trkpt>
      <trkpt lat="37.341996" lon="-5.864636">
        <ele>78.566394</ele>
        <time>2020-08-15T08:22:58.609Z</time>
      </trkpt>
      <trkpt lat="37.342070" lon="-5.864752">
        <ele>78.353542</ele>
        <time>2020-08-15T08:23:01.634Z</time>
      </trkpt>
      <trkpt lat="37.342111" lon="-5.864867">
        <ele>78.173167</ele>
        <time>2020-08-15T08:23:04.632Z</time>
      </trkpt>
      <trkpt lat="37.342125" lon="-5.864996">
        <ele>77.986834</ele>
        <time>2020-08-15T08:23:06.622Z</time>
      </trkpt>
      <trkpt lat="37.342151" lon="-5.865121">
        <ele>77.801918</ele>
        <time>2020-08-15T08:23:08.629Z</time>
      </trkpt>
      <trkpt lat="37.342181" lon="-5.865253">
        <ele>77.605437</ele>
        <time>2020-08-15T08:23:10.620Z</time>
      </trkpt>
      <trkpt lat="37.342213" lon="-5.865402">
        <ele>77.384550</ele>
        <time>2020-08-15T08:23:13.642Z</time>
      </trkpt>
      <trkpt lat="37.342245" lon="-5.865532">
        <ele>77.189785</ele>
        <time>2020-08-15T08:23:16.621Z</time>
      </trkpt>
      <trkpt lat="37.342339" lon="-5.865654">
        <ele>76.946641</ele>
        <time>2020-08-15T08:23:20.651Z</time>
      </trkpt>
      <trkpt lat="37.342350" lon="-5.865769">
        <ele>76.780871</ele>
        <time>2020-08-15T08:23:22.618Z</time>
      </trkpt>
      <trkpt lat="37.342391" lon="-5.865883">
        <ele>76.601801</ele>
        <time>2020-08-15T08:23:25.627Z</time>
      </trkpt>
      <trkpt lat="37.342424" lon="-5.865769">
        <ele>76.428171</ele>
        <time>2020-08-15T08:23:37.635Z</time>
      </trkpt>
      <trkpt lat="37.342469" lon="-5.865661">
        <ele>76.253665</ele>
        <time>2020-08-15T08:23:47.641Z</time>
      </trkpt>
      <trkpt lat="37.342823" lon="-5.868106">
        <ele>77.308111</ele>
        <time>2020-08-15T08:24:14.684Z</time>
      </trkpt>
      <trkpt lat="37.342868" lon="-5.868252">
        <ele>77.452062</ele>
        <time>2020-08-15T08:24:17.612Z</time>
      </trkpt>
      <trkpt lat="37.342917" lon="-5.868365">
        <ele>77.570389</ele>
        <time>2020-08-15T08:24:20.648Z</time>
      </trkpt>
      <trkpt lat="37.342963" lon="-5.868538">
        <ele>77.472767</ele>
        <time>2020-08-15T08:24:23.633Z</time>
      </trkpt>
      <trkpt lat="37.343003" lon="-5.868695">
        <ele>77.362658</ele>
        <time>2020-08-15T08:24:25.627Z</time>
      </trkpt>
      <trkpt lat="37.343041" lon="-5.868867">
        <ele>77.243431</ele>
        <time>2020-08-15T08:24:28.643Z</time>
      </trkpt>
      <trkpt lat="37.343063" lon="-5.869036">
        <ele>77.129057</ele>
        <time>2020-08-15T08:24:30.645Z</time>
      </trkpt>
      <trkpt lat="37.343053" lon="-5.869283">
        <ele>76.963879</ele>
        <time>2020-08-15T08:24:42.614Z</time>
      </trkpt>
      <trkpt lat="37.343112" lon="-5.869404">
        <ele>76.869077</ele>
        <time>2020-08-15T08:24:44.614Z</time>
      </trkpt>
      <trkpt lat="37.343175" lon="-5.869492">
        <ele>76.789987</ele>
        <time>2020-08-15T08:24:47.641Z</time>
      </trkpt>
      <trkpt lat="37.343220" lon="-5.869591">
        <ele>76.713824</ele>
        <time>2020-08-15T08:24:50.630Z</time>
      </trkpt>
      <trkpt lat="37.343359" lon="-5.870030">
        <ele>76.398231</ele>
        <time>2020-08-15T08:24:52.598Z</time>
      </trkpt>
      <trkpt lat="37.343436" lon="-5.870091">
        <ele>76.321785</ele>
        <time>2020-08-15T08:25:03.615Z</time>
      </trkpt>
      <trkpt lat="37.343430" lon="-5.870261">
        <ele>76.208135</ele>
        <time>2020-08-15T08:25:04.630Z</time>
      </trkpt>
      <trkpt lat="37.343487" lon="-5.870379">
        <ele>76.115920</ele>
        <time>2020-08-15T08:25:06.627Z</time>
      </trkpt>
      <trkpt lat="37.343580" lon="-5.870544">
        <ele>75.777518</ele>
        <time>2020-08-15T08:25:11.630Z</time>
      </trkpt>
      <trkpt lat="37.343657" lon="-5.870680">
        <ele>75.421129</ele>
        <time>2020-08-15T08:25:12.650Z</time>
      </trkpt>
      <trkpt lat="37.343821" lon="-5.870947">
        <ele>74.700922</ele>
        <time>2020-08-15T08:25:13.628Z</time>
      </trkpt>
      <trkpt lat="37.343911" lon="-5.870982">
        <ele>74.447995</ele>
        <time>2020-08-15T08:25:15.633Z</time>
      </trkpt>
      <trkpt lat="37.343959" lon="-5.871127">
        <ele>74.112728</ele>
        <time>2020-08-15T08:25:18.632Z</time>
      </trkpt>
      <trkpt lat="37.344036" lon="-5.871258">
        <ele>73.764978</ele>
        <time>2020-08-15T08:25:22.642Z</time>
      </trkpt>
      <trkpt lat="37.344151" lon="-5.871355">
        <ele>73.393219</ele>
        <time>2020-08-15T08:25:24.643Z</time>
      </trkpt>
      <trkpt lat="37.344245" lon="-5.871400">
        <ele>73.123176</ele>
        <time>2020-08-15T08:25:26.624Z</time>
      </trkpt>
      <trkpt lat="37.344277" lon="-5.871530">
        <ele>72.832692</ele>
        <time>2020-08-15T08:25:28.643Z</time>
      </trkpt>
      <trkpt lat="37.344355" lon="-5.871615">
        <ele>72.555606</ele>
        <time>2020-08-15T08:25:34.638Z</time>
      </trkpt>
      <trkpt lat="37.344515" lon="-5.871873">
        <ele>71.857165</ele>
        <time>2020-08-15T08:25:36.609Z</time>
      </trkpt>
      <trkpt lat="37.344570" lon="-5.871979">
        <ele>71.586981</ele>
        <time>2020-08-15T08:25:38.629Z</time>
      </trkpt>
      <trkpt lat="37.344648" lon="-5.872068">
        <ele>71.304231</ele>
        <time>2020-08-15T08:25:40.624Z</time>
      </trkpt>
      <trkpt lat="37.344718" lon="-5.872160">
        <ele>71.128107</ele>
        <time>2020-08-15T08:25:47.650Z</time>
      </trkpt>
      <trkpt lat="37.344905" lon="-5.872446">
        <ele>70.694809</ele>
        <time>2020-08-15T08:25:48.628Z</time>
      </trkpt>
      <trkpt lat="37.344945" lon="-5.872600">
        <ele>70.505238</ele>
        <time>2020-08-15T08:25:50.617Z</time>
      </trkpt>
      <trkpt lat="37.345039" lon="-5.872692">
        <ele>70.329938</ele>
        <time>2020-08-15T08:25:53.628Z</time>
      </trkpt>
      <trkpt lat="37.345223" lon="-5.872972">
        <ele>69.904867</ele>
        <time>2020-08-15T08:26:00.627Z</time>
      </trkpt>
      <trkpt lat="37.345283" lon="-5.873073">
        <ele>69.757336</ele>
        <time>2020-08-15T08:26:02.637Z</time>
      </trkpt>
      <trkpt lat="37.345372" lon="-5.873134">
        <ele>69.608158</ele>
        <time>2020-08-15T08:26:06.626Z</time>
      </trkpt>
      <trkpt lat="37.345441" lon="-5.873217">
        <ele>69.467638</ele>
        <time>2020-08-15T08:26:09.632Z</time>
      </trkpt>
      <trkpt lat="37.345527" lon="-5.873341">
        <ele>69.275091</ele>
        <time>2020-08-15T08:26:13.627Z</time>
      </trkpt>
      <trkpt lat="37.345615" lon="-5.873474">
        <ele>69.072620</ele>
        <time>2020-08-15T08:26:16.640Z</time>
      </trkpt>
      <trkpt lat="37.345661" lon="-5.873605">
        <ele>68.905050</ele>
        <time>2020-08-15T08:26:17.623Z</time>
      </trkpt>
      <trkpt lat="37.345719" lon="-5.873726">
        <ele>68.739723</ele>
        <time>2020-08-15T08:26:19.619Z</time>
      </trkpt>
      <trkpt lat="37.345813" lon="-5.873774">
        <ele>68.599126</ele>
        <time>2020-08-15T08:26:21.602Z</time>
      </trkpt>
      <trkpt lat="37.345870" lon="-5.873867">
        <ele>68.646368</ele>
        <time>2020-08-15T08:26:23.607Z</time>
      </trkpt>
      <trkpt lat="37.345934" lon="-5.873974">
        <ele>68.700237</ele>
        <time>2020-08-15T08:26:28.639Z</time>
      </trkpt>
      <trkpt lat="37.345973" lon="-5.874111">
        <ele>68.758780</ele>
        <time>2020-08-15T08:26:30.625Z</time>
      </trkpt>
      <trkpt lat="37.346033" lon="-5.874199">
        <ele>68.805419</ele>
        <time>2020-08-15T08:26:31.624Z</time>
      </trkpt>
      <trkpt lat="37.346131" lon="-5.874292">
        <ele>68.867541</ele>
        <time>2020-08-15T08:26:34.636Z</time>
      </trkpt>
      <trkpt lat="37.346183" lon="-5.874395">
        <ele>68.916628</ele>
        <time>2020-08-15T08:26:37.634Z</time>
      </trkpt>
      <trkpt lat="37.346271" lon="-5.874487">
        <ele>68.974532</ele>
        <time>2020-08-15T08:26:40.630Z</time>
      </trkpt>
      <trkpt lat="37.346354" lon="-5.874566">
        <ele>69.027203</ele>
        <time>2020-08-15T08:26:43.642Z</time>
      </trkpt>
      <trkpt lat="37.346430" lon="-5.874659">
        <ele>69.080858</ele>
        <time>2020-08-15T08:26:45.638Z</time>
      </trkpt>
      <trkpt lat="37.346542" lon="-5.874769">
        <ele>69.152765</ele>
        <time>2020-08-15T08:26:47.638Z</time>
      </trkpt>
      <trkpt lat="37.346576" lon="-5.874891">
        <ele>69.204774</ele>
        <time>2020-08-15T08:26:49.615Z</time>
      </trkpt>
      <trkpt lat="37.346653" lon="-5.875030">
        <ele>69.272930</ele>
        <time>2020-08-15T08:26:52.634Z</time>
      </trkpt>
      <trkpt lat="37.346728" lon="-5.875097">
        <ele>69.319481</ele>
        <time>2020-08-15T08:26:54.627Z</time>
      </trkpt>
      <trkpt lat="37.346816" lon="-5.875154">
        <ele>69.369570</ele>
        <time>2020-08-15T08:26:56.617Z</time>
      </trkpt>
      <trkpt lat="37.346914" lon="-5.875238">
        <ele>69.429581</ele>
        <time>2020-08-15T08:26:59.619Z</time>
      </trkpt>
      <trkpt lat="37.346972" lon="-5.875358">
        <ele>69.486079</ele>
        <time>2020-08-15T08:27:01.636Z</time>
      </trkpt>
      <trkpt lat="37.347056" lon="-5.875404">
        <ele>69.378420</ele>
        <time>2020-08-15T08:27:03.623Z</time>
      </trkpt>
      <trkpt lat="37.347134" lon="-5.875483">
        <ele>69.121203</ele>
        <time>2020-08-15T08:27:05.603Z</time>
      </trkpt>
      <trkpt lat="37.347219" lon="-5.875550">
        <ele>68.863552</ele>
        <time>2020-08-15T08:27:07.625Z</time>
      </trkpt>
      <trkpt lat="37.347307" lon="-5.875581">
        <ele>68.628823</ele>
        <time>2020-08-15T08:27:10.624Z</time>
      </trkpt>
      <trkpt lat="37.347394" lon="-5.875610">
        <ele>68.397646</ele>
        <time>2020-08-15T08:27:12.625Z</time>
      </trkpt>
      <trkpt lat="37.347526" lon="-5.875666">
        <ele>68.039834</ele>
        <time>2020-08-15T08:27:15.623Z</time>
      </trkpt>
      <trkpt lat="37.347651" lon="-5.875653">
        <ele>67.717669</ele>
        <time>2020-08-15T08:27:18.623Z</time>
      </trkpt>
      <trkpt lat="37.347760" lon="-5.875586">
        <ele>67.406058</ele>
        <time>2020-08-15T08:27:23.630Z</time>
      </trkpt>
      <trkpt lat="37.347849" lon="-5.875520">
        <ele>67.140689</ele>
        <time>2020-08-15T08:27:28.634Z</time>
      </trkpt>
      <trkpt lat="37.347945" lon="-5.875536">
        <ele>66.891953</ele>
        <time>2020-08-15T08:27:32.617Z</time>
      </trkpt>
      <trkpt lat="37.347984" lon="-5.875664">
        <ele>66.612049</ele>
        <time>2020-08-15T08:27:35.631Z</time>
      </trkpt>
      <trkpt lat="37.348014" lon="-5.875779">
        <ele>66.364909</ele>
        <time>2020-08-15T08:27:38.630Z</time>
      </trkpt>
      <trkpt lat="37.348109" lon="-5.876163">
        <ele>65.543724</ele>
        <time>2020-08-15T08:27:44.614Z</time>
      </trkpt>
      <trkpt lat="37.348202" lon="-5.876294">
        <ele>65.185098</ele>
        <time>2020-08-15T08:27:46.633Z</time>
      </trkpt>
      <trkpt lat="37.348254" lon="-5.876419">
        <ele>64.897025</ele>
        <time>2020-08-15T08:27:48.633Z</time>
      </trkpt>
      <trkpt lat="37.348306" lon="-5.876540">
        <ele>64.853888</ele>
        <time>2020-08-15T08:27:50.630Z</time>
      </trkpt>
      <trkpt lat="37.348359" lon="-5.876654">
        <ele>64.820765</ele>
        <time>2020-08-15T08:27:52.636Z</time>
      </trkpt>
      <trkpt lat="37.348454" lon="-5.876745">
        <ele>64.783092</ele>
        <time>2020-08-15T08:27:55.625Z</time>
      </trkpt>
      <trkpt lat="37.348528" lon="-5.876858">
        <ele>64.746373</ele>
        <time>2020-08-15T08:27:59.625Z</time>
      </trkpt>
      <trkpt lat="37.348630" lon="-5.876920">
        <ele>64.710632</ele>
        <time>2020-08-15T08:28:02.622Z</time>
      </trkpt>
      <trkpt lat="37.348744" lon="-5.876988">
        <ele>64.670826</ele>
        <time>2020-08-15T08:28:05.618Z</time>
      </trkpt>
      <trkpt lat="37.348853" lon="-5.877056">
        <ele>64.632440</ele>
        <time>2020-08-15T08:28:08.622Z</time>
      </trkpt>
      <trkpt lat="37.348929" lon="-5.877149">
        <ele>64.598989</ele>
        <time>2020-08-15T08:28:11.614Z</time>
      </trkpt>
      <trkpt lat="37.348972" lon="-5.877280">
        <ele>64.563443</ele>
        <time>2020-08-15T08:28:14.612Z</time>
      </trkpt>
      <trkpt lat="37.349004" lon="-5.877429">
        <ele>64.524733</ele>
        <time>2020-08-15T08:28:16.632Z</time>
      </trkpt>
      <trkpt lat="37.349006" lon="-5.877564">
        <ele>64.490868</ele>
        <time>2020-08-15T08:28:17.632Z</time>
      </trkpt>
      <trkpt lat="37.349098" lon="-5.877582">
        <ele>64.461494</ele>
        <time>2020-08-15T08:28:18.639Z</time>
      </trkpt>
      <trkpt lat="37.349022" lon="-5.877659">
        <ele>64.430706</ele>
        <time>2020-08-15T08:28:19.628Z</time>
      </trkpt>
      <trkpt lat="37.348956" lon="-5.877814">
        <ele>64.386605</ele>
        <time>2020-08-15T08:28:21.634Z</time>
      </trkpt>
      <trkpt lat="37.348951" lon="-5.878002">
        <ele>64.339427</ele>
        <time>2020-08-15T08:28:23.636Z</time>
      </trkpt>
      <trkpt lat="37.348943" lon="-5.878120">
        <ele>64.294380</ele>
        <time>2020-08-15T08:28:25.626Z</time>
      </trkpt>
      <trkpt lat="37.348938" lon="-5.878254">
        <ele>64.209029</ele>
        <time>2020-08-15T08:28:27.635Z</time>
      </trkpt>
      <trkpt lat="37.348918" lon="-5.878368">
        <ele>64.134752</ele>
        <time>2020-08-15T08:28:29.633Z</time>
      </trkpt>
      <trkpt lat="37.348946" lon="-5.878478">
        <ele>64.061265</ele>
        <time>2020-08-15T08:28:31.611Z</time>
      </trkpt>
      <trkpt lat="37.348962" lon="-5.878643">
        <ele>63.955506</ele>
        <time>2020-08-15T08:28:34.632Z</time>
      </trkpt>
      <trkpt lat="37.348984" lon="-5.878784">
        <ele>63.864084</ele>
        <time>2020-08-15T08:28:36.635Z</time>
      </trkpt>
      <trkpt lat="37.349011" lon="-5.878956">
        <ele>63.752536</ele>
        <time>2020-08-15T08:28:38.625Z</time>
      </trkpt>
      <trkpt lat="37.349041" lon="-5.879068">
        <ele>63.677340</ele>
        <time>2020-08-15T08:28:40.633Z</time>
      </trkpt>
      <trkpt lat="37.349082" lon="-5.879176">
        <ele>63.601192</ele>
        <time>2020-08-15T08:28:42.638Z</time>
      </trkpt>
      <trkpt lat="37.349157" lon="-5.879248">
        <ele>63.525683</ele>
        <time>2020-08-15T08:28:46.638Z</time>
      </trkpt>
      <trkpt lat="37.349439" lon="-5.879371">
        <ele>63.286800</ele>
        <time>2020-08-15T08:28:50.610Z</time>
      </trkpt>
      <trkpt lat="37.349530" lon="-5.879463">
        <ele>63.193362</ele>
        <time>2020-08-15T08:28:53.627Z</time>
      </trkpt>
      <trkpt lat="37.349573" lon="-5.879609">
        <ele>63.094300</ele>
        <time>2020-08-15T08:28:57.639Z</time>
      </trkpt>
      <trkpt lat="37.349619" lon="-5.879773">
        <ele>62.983652</ele>
        <time>2020-08-15T08:28:59.633Z</time>
      </trkpt>
      <trkpt lat="37.349655" lon="-5.879901">
        <ele>62.897267</ele>
        <time>2020-08-15T08:29:01.611Z</time>
      </trkpt>
      <trkpt lat="37.349723" lon="-5.880012">
        <ele>62.822505</ele>
        <time>2020-08-15T08:29:03.618Z</time>
      </trkpt>
      <trkpt lat="37.349796" lon="-5.880107">
        <ele>62.755239</ele>
        <time>2020-08-15T08:29:06.611Z</time>
      </trkpt>
      <trkpt lat="37.349982" lon="-5.880400">
        <ele>62.564349</ele>
        <time>2020-08-15T08:29:12.613Z</time>
      </trkpt>
      <trkpt lat="37.350051" lon="-5.880558">
        <ele>62.472573</ele>
        <time>2020-08-15T08:29:15.606Z</time>
      </trkpt>
      <trkpt lat="37.350114" lon="-5.880681">
        <ele>62.398082</ele>
        <time>2020-08-15T08:29:18.636Z</time>
      </trkpt>
      <trkpt lat="37.350182" lon="-5.880768">
        <ele>62.335968</ele>
        <time>2020-08-15T08:29:22.600Z</time>
      </trkpt>
      <trkpt lat="37.350224" lon="-5.880873">
        <ele>62.276127</ele>
        <time>2020-08-15T08:29:24.635Z</time>
      </trkpt>
      <trkpt lat="37.350261" lon="-5.881087">
        <ele>62.164634</ele>
        <time>2020-08-15T08:29:26.634Z</time>
      </trkpt>
      <trkpt lat="37.350312" lon="-5.881185">
        <ele>62.105003</ele>
        <time>2020-08-15T08:29:28.619Z</time>
      </trkpt>
      <trkpt lat="37.350373" lon="-5.881314">
        <ele>62.028590</ele>
        <time>2020-08-15T08:29:30.617Z</time>
      </trkpt>
      <trkpt lat="37.350444" lon="-5.881434">
        <ele>61.952435</ele>
        <time>2020-08-15T08:29:33.635Z</time>
      </trkpt>
      <trkpt lat="37.350524" lon="-5.881546">
        <ele>61.875780</ele>
        <time>2020-08-15T08:29:35.636Z</time>
      </trkpt>
      <trkpt lat="37.350629" lon="-5.881660">
        <ele>61.786955</ele>
        <time>2020-08-15T08:29:37.615Z</time>
      </trkpt>
      <trkpt lat="37.350708" lon="-5.881725">
        <ele>61.730615</ele>
        <time>2020-08-15T08:29:39.619Z</time>
      </trkpt>
      <trkpt lat="37.350847" lon="-5.881766">
        <ele>61.850885</ele>
        <time>2020-08-15T08:29:42.608Z</time>
      </trkpt>
      <trkpt lat="37.350948" lon="-5.881847">
        <ele>61.951787</ele>
        <time>2020-08-15T08:29:47.636Z</time>
      </trkpt>
      <trkpt lat="37.351063" lon="-5.882060">
        <ele>62.124212</ele>
        <time>2020-08-15T08:29:49.628Z</time>
      </trkpt>
      <trkpt lat="37.351133" lon="-5.882160">
        <ele>62.213441</ele>
        <time>2020-08-15T08:29:51.619Z</time>
      </trkpt>
      <trkpt lat="37.351243" lon="-5.882178">
        <ele>62.306886</ele>
        <time>2020-08-15T08:29:54.648Z</time>
      </trkpt>
      <trkpt lat="37.351346" lon="-5.882120">
        <ele>62.401950</ele>
        <time>2020-08-15T08:29:58.629Z</time>
      </trkpt>
      <trkpt lat="37.351525" lon="-5.882052">
        <ele>62.559466</ele>
        <time>2020-08-15T08:30:00.633Z</time>
      </trkpt>
      <trkpt lat="37.351609" lon="-5.881954">
        <ele>62.655976</ele>
        <time>2020-08-15T08:30:03.619Z</time>
      </trkpt>
      <trkpt lat="37.351681" lon="-5.881869">
        <ele>62.739154</ele>
        <time>2020-08-15T08:30:07.624Z</time>
      </trkpt>
      <trkpt lat="37.351771" lon="-5.881804">
        <ele>62.826577</ele>
        <time>2020-08-15T08:30:14.645Z</time>
      </trkpt>
      <trkpt lat="37.351841" lon="-5.881878">
        <ele>62.903603</ele>
        <time>2020-08-15T08:30:18.625Z</time>
      </trkpt>
      <trkpt lat="37.351808" lon="-5.882016">
        <ele>63.000105</ele>
        <time>2020-08-15T08:30:22.634Z</time>
      </trkpt>
      <trkpt lat="37.351734" lon="-5.882112">
        <ele>63.089653</ele>
        <time>2020-08-15T08:30:25.648Z</time>
      </trkpt>
      <trkpt lat="37.351681" lon="-5.882235">
        <ele>63.183342</ele>
        <time>2020-08-15T08:30:29.628Z</time>
      </trkpt>
      <trkpt lat="37.351613" lon="-5.882315">
        <ele>63.278158</ele>
        <time>2020-08-15T08:30:32.637Z</time>
      </trkpt>
      <trkpt lat="37.351518" lon="-5.882388">
        <ele>63.455866</ele>
        <time>2020-08-15T08:30:34.636Z</time>
      </trkpt>
      <trkpt lat="37.351451" lon="-5.882483">
        <ele>63.617026</ele>
        <time>2020-08-15T08:30:36.620Z</time>
      </trkpt>
      <trkpt lat="37.351451" lon="-5.882610">
        <ele>63.778187</ele>
        <time>2020-08-15T08:30:39.629Z</time>
      </trkpt>
      <trkpt lat="37.351450" lon="-5.882752">
        <ele>63.958390</ele>
        <time>2020-08-15T08:30:41.602Z</time>
      </trkpt>
      <trkpt lat="37.351506" lon="-5.882913">
        <ele>64.181398</ele>
        <time>2020-08-15T08:30:45.611Z</time>
      </trkpt>
      <trkpt lat="37.351549" lon="-5.883037">
        <ele>64.353072</ele>
        <time>2020-08-15T08:30:47.640Z</time>
      </trkpt>
      <trkpt lat="37.351506" lon="-5.883158">
        <ele>64.521264</ele>
        <time>2020-08-15T08:30:48.626Z</time>
      </trkpt>
      <trkpt lat="37.351544" lon="-5.883298">
        <ele>64.708993</ele>
        <time>2020-08-15T08:30:51.612Z</time>
      </trkpt>
      <trkpt lat="37.351637" lon="-5.883428">
        <ele>64.930927</ele>
        <time>2020-08-15T08:30:54.631Z</time>
      </trkpt>
      <trkpt lat="37.351698" lon="-5.883546">
        <ele>65.109545</ele>
        <time>2020-08-15T08:30:57.622Z</time>
      </trkpt>
      <trkpt lat="37.351726" lon="-5.883683">
        <ele>65.289049</ele>
        <time>2020-08-15T08:31:00.645Z</time>
      </trkpt>
      <trkpt lat="37.351791" lon="-5.883840">
        <ele>65.513680</ele>
        <time>2020-08-15T08:31:03.609Z</time>
      </trkpt>
      <trkpt lat="37.351843" lon="-5.883954">
        <ele>65.680468</ele>
        <time>2020-08-15T08:31:06.607Z</time>
      </trkpt>
      <trkpt lat="37.351897" lon="-5.884046">
        <ele>65.825591</ele>
        <time>2020-08-15T08:31:08.625Z</time>
      </trkpt>
      <trkpt lat="37.351982" lon="-5.884140">
        <ele>66.006257</ele>
        <time>2020-08-15T08:31:11.618Z</time>
      </trkpt>
      <trkpt lat="37.351873" lon="-5.884302">
        <ele>65.993493</ele>
        <time>2020-08-15T08:31:12.627Z</time>
      </trkpt>
      <trkpt lat="37.351932" lon="-5.884417">
        <ele>65.862589</ele>
        <time>2020-08-15T08:31:15.614Z</time>
      </trkpt>
      <trkpt lat="37.351959" lon="-5.884532">
        <ele>65.747905</ele>
        <time>2020-08-15T08:31:18.632Z</time>
      </trkpt>
      <trkpt lat="37.352086" lon="-5.884586">
        <ele>65.586615</ele>
        <time>2020-08-15T08:31:20.614Z</time>
      </trkpt>
      <trkpt lat="37.352118" lon="-5.884720">
        <ele>65.452799</ele>
        <time>2020-08-15T08:31:22.627Z</time>
      </trkpt>
      <trkpt lat="37.352209" lon="-5.884821">
        <ele>65.306792</ele>
        <time>2020-08-15T08:31:25.627Z</time>
      </trkpt>
      <trkpt lat="37.352300" lon="-5.884902">
        <ele>65.172671</ele>
        <time>2020-08-15T08:31:27.618Z</time>
      </trkpt>
      <trkpt lat="37.352368" lon="-5.884989">
        <ele>65.055980</ele>
        <time>2020-08-15T08:31:29.624Z</time>
      </trkpt>
      <trkpt lat="37.352452" lon="-5.885084">
        <ele>64.920080</ele>
        <time>2020-08-15T08:31:32.614Z</time>
      </trkpt>
      <trkpt lat="37.352508" lon="-5.885226">
        <ele>64.768477</ele>
        <time>2020-08-15T08:31:35.612Z</time>
      </trkpt>
      <trkpt lat="37.352559" lon="-5.885335">
        <ele>64.647512</ele>
        <time>2020-08-15T08:31:37.608Z</time>
      </trkpt>
      <trkpt lat="37.352634" lon="-5.885404">
        <ele>64.535721</ele>
        <time>2020-08-15T08:31:39.622Z</time>
      </trkpt>
      <trkpt lat="37.352719" lon="-5.885446">
        <ele>64.425848</ele>
        <time>2020-08-15T08:31:41.621Z</time>
      </trkpt>
      <trkpt lat="37.352833" lon="-5.885471">
        <ele>64.286622</ele>
        <time>2020-08-15T08:31:44.627Z</time>
      </trkpt>
      <trkpt lat="37.352943" lon="-5.885481">
        <ele>64.153932</ele>
        <time>2020-08-15T08:31:47.618Z</time>
      </trkpt>
      <trkpt lat="37.353066" lon="-5.885446">
        <ele>64.002207</ele>
        <time>2020-08-15T08:31:50.626Z</time>
      </trkpt>
      <trkpt lat="37.353186" lon="-5.885451">
        <ele>63.918760</ele>
        <time>2020-08-15T08:31:53.618Z</time>
      </trkpt>
      <trkpt lat="37.353265" lon="-5.885574">
        <ele>63.866780</ele>
        <time>2020-08-15T08:31:56.609Z</time>
      </trkpt>
      <trkpt lat="37.353309" lon="-5.885723">
        <ele>63.814530</ele>
        <time>2020-08-15T08:31:59.628Z</time>
      </trkpt>
      <trkpt lat="37.353378" lon="-5.885859">
        <ele>63.761495</ele>
        <time>2020-08-15T08:32:02.614Z</time>
      </trkpt>
      <trkpt lat="37.353446" lon="-5.885936">
        <ele>63.723662</ele>
        <time>2020-08-15T08:32:04.612Z</time>
      </trkpt>
      <trkpt lat="37.353541" lon="-5.885981">
        <ele>63.681684</ele>
        <time>2020-08-15T08:32:06.629Z</time>
      </trkpt>
      <trkpt lat="37.353621" lon="-5.886034">
        <ele>63.644295</ele>
        <time>2020-08-15T08:32:08.628Z</time>
      </trkpt>
      <trkpt lat="37.353721" lon="-5.886137">
        <ele>63.590849</ele>
        <time>2020-08-15T08:32:10.623Z</time>
      </trkpt>
      <trkpt lat="37.353791" lon="-5.886259">
        <ele>63.541390</ele>
        <time>2020-08-15T08:32:12.640Z</time>
      </trkpt>
      <trkpt lat="37.353875" lon="-5.886345">
        <ele>63.496605</ele>
        <time>2020-08-15T08:32:15.631Z</time>
      </trkpt>
      <trkpt lat="37.353932" lon="-5.886468">
        <ele>63.449804</ele>
        <time>2020-08-15T08:32:17.626Z</time>
      </trkpt>
      <trkpt lat="37.354035" lon="-5.886528">
        <ele>63.402866</ele>
        <time>2020-08-15T08:32:19.636Z</time>
      </trkpt>
      <trkpt lat="37.354095" lon="-5.886709">
        <ele>63.338402</ele>
        <time>2020-08-15T08:32:21.612Z</time>
      </trkpt>
      <trkpt lat="37.354178" lon="-5.886773">
        <ele>63.298145</ele>
        <time>2020-08-15T08:32:23.627Z</time>
      </trkpt>
      <trkpt lat="37.354216" lon="-5.886928">
        <ele>63.244826</ele>
        <time>2020-08-15T08:32:26.611Z</time>
      </trkpt>
      <trkpt lat="37.354269" lon="-5.887027">
        <ele>63.209944</ele>
        <time>2020-08-15T08:32:28.628Z</time>
      </trkpt>
      <trkpt lat="37.354310" lon="-5.887130">
        <ele>63.295823</ele>
        <time>2020-08-15T08:32:30.606Z</time>
      </trkpt>
      <trkpt lat="37.354345" lon="-5.887244">
        <ele>63.386932</ele>
        <time>2020-08-15T08:32:32.613Z</time>
      </trkpt>
      <trkpt lat="37.354389" lon="-5.887360">
        <ele>63.482754</ele>
        <time>2020-08-15T08:32:34.619Z</time>
      </trkpt>
      <trkpt lat="37.354468" lon="-5.887453">
        <ele>63.584227</ele>
        <time>2020-08-15T08:32:36.653Z</time>
      </trkpt>
      <trkpt lat="37.354534" lon="-5.887612">
        <ele>63.717954</ele>
        <time>2020-08-15T08:32:38.626Z</time>
      </trkpt>
      <trkpt lat="37.354557" lon="-5.887738">
        <ele>63.814335</ele>
        <time>2020-08-15T08:32:40.609Z</time>
      </trkpt>
      <trkpt lat="37.354626" lon="-5.887851">
        <ele>63.920565</ele>
        <time>2020-08-15T08:32:42.630Z</time>
      </trkpt>
      <trkpt lat="37.354678" lon="-5.887957">
        <ele>64.013428</ele>
        <time>2020-08-15T08:32:44.626Z</time>
      </trkpt>
      <trkpt lat="37.354754" lon="-5.888074">
        <ele>64.126074</ele>
        <time>2020-08-15T08:32:47.632Z</time>
      </trkpt>
      <trkpt lat="37.354795" lon="-5.888208">
        <ele>64.233118</ele>
        <time>2020-08-15T08:32:49.612Z</time>
      </trkpt>
      <trkpt lat="37.354834" lon="-5.888340">
        <ele>64.338105</ele>
        <time>2020-08-15T08:32:51.638Z</time>
      </trkpt>
      <trkpt lat="37.354838" lon="-5.888480">
        <ele>64.442544</ele>
        <time>2020-08-15T08:32:53.630Z</time>
      </trkpt>
      <trkpt lat="37.354876" lon="-5.888619">
        <ele>64.552129</ele>
        <time>2020-08-15T08:32:55.599Z</time>
      </trkpt>
      <trkpt lat="37.354886" lon="-5.888743">
        <ele>64.645047</ele>
        <time>2020-08-15T08:32:57.597Z</time>
      </trkpt>
      <trkpt lat="37.354934" lon="-5.888894">
        <ele>64.766288</ele>
        <time>2020-08-15T08:33:00.622Z</time>
      </trkpt>
      <trkpt lat="37.354897" lon="-5.889036">
        <ele>64.877694</ele>
        <time>2020-08-15T08:33:01.610Z</time>
      </trkpt>
      <trkpt lat="37.354931" lon="-5.889150">
        <ele>64.868230</ele>
        <time>2020-08-15T08:33:03.616Z</time>
      </trkpt>
      <trkpt lat="37.354941" lon="-5.889280">
        <ele>64.834810</ele>
        <time>2020-08-15T08:33:05.624Z</time>
      </trkpt>
      <trkpt lat="37.354951" lon="-5.889407">
        <ele>64.802154</ele>
        <time>2020-08-15T08:33:15.630Z</time>
      </trkpt>
      <trkpt lat="37.355021" lon="-5.889528">
        <ele>64.763861</ele>
        <time>2020-08-15T08:33:21.630Z</time>
      </trkpt>
      <trkpt lat="37.355175" lon="-5.890403">
        <ele>64.534544</ele>
        <time>2020-08-15T08:33:22.628Z</time>
      </trkpt>
      <trkpt lat="37.355190" lon="-5.890560">
        <ele>64.494082</ele>
        <time>2020-08-15T08:33:24.615Z</time>
      </trkpt>
      <trkpt lat="37.355250" lon="-5.890654">
        <ele>64.463234</ele>
        <time>2020-08-15T08:33:26.618Z</time>
      </trkpt>
      <trkpt lat="37.355297" lon="-5.890797">
        <ele>64.423639</ele>
        <time>2020-08-15T08:33:31.630Z</time>
      </trkpt>
      <trkpt lat="37.355351" lon="-5.890901">
        <ele>64.391853</ele>
        <time>2020-08-15T08:33:32.627Z</time>
      </trkpt>
      <trkpt lat="37.355387" lon="-5.891017">
        <ele>64.359990</ele>
        <time>2020-08-15T08:33:34.625Z</time>
      </trkpt>
      <trkpt lat="37.355426" lon="-5.891143">
        <ele>64.325391</ele>
        <time>2020-08-15T08:33:37.629Z</time>
      </trkpt>
      <trkpt lat="37.355484" lon="-5.891257">
        <ele>64.229836</ele>
        <time>2020-08-15T08:33:40.637Z</time>
      </trkpt>
      <trkpt lat="37.355539" lon="-5.891376">
        <ele>64.105551</ele>
        <time>2020-08-15T08:33:43.625Z</time>
      </trkpt>
      <trkpt lat="37.355602" lon="-5.891506">
        <ele>63.968083</ele>
        <time>2020-08-15T08:33:46.627Z</time>
      </trkpt>
      <trkpt lat="37.355840" lon="-5.891941">
        <ele>63.491286</ele>
        <time>2020-08-15T08:34:49.626Z</time>
      </trkpt>
      <trkpt lat="37.355876" lon="-5.892044">
        <ele>63.389696</ele>
        <time>2020-08-15T08:34:51.623Z</time>
      </trkpt>
      <trkpt lat="37.355932" lon="-5.892187">
        <ele>63.245767</ele>
        <time>2020-08-15T08:34:54.624Z</time>
      </trkpt>
      <trkpt lat="37.355981" lon="-5.892320">
        <ele>63.113413</ele>
        <time>2020-08-15T08:34:57.627Z</time>
      </trkpt>
      <trkpt lat="37.356034" lon="-5.892438">
        <ele>62.991041</ele>
        <time>2020-08-15T08:35:00.611Z</time>
      </trkpt>
      <trkpt lat="37.356099" lon="-5.892571">
        <ele>62.850077</ele>
        <time>2020-08-15T08:35:03.628Z</time>
      </trkpt>
      <trkpt lat="37.356171" lon="-5.892678">
        <ele>62.723502</ele>
        <time>2020-08-15T08:35:05.618Z</time>
      </trkpt>
      <trkpt lat="37.356205" lon="-5.892783">
        <ele>62.621136</ele>
        <time>2020-08-15T08:35:07.637Z</time>
      </trkpt>
      <trkpt lat="37.356236" lon="-5.892919">
        <ele>62.493396</ele>
        <time>2020-08-15T08:35:09.613Z</time>
      </trkpt>
      <trkpt lat="37.356267" lon="-5.893076">
        <ele>62.347337</ele>
        <time>2020-08-15T08:35:11.625Z</time>
      </trkpt>
      <trkpt lat="37.356357" lon="-5.893156">
        <ele>62.241950</ele>
        <time>2020-08-15T08:35:14.614Z</time>
      </trkpt>
      <trkpt lat="37.356448" lon="-5.893239">
        <ele>62.165128</ele>
        <time>2020-08-15T08:35:17.608Z</time>
      </trkpt>
      <trkpt lat="37.356517" lon="-5.893312">
        <ele>62.103508</ele>
        <time>2020-08-15T08:35:19.612Z</time>
      </trkpt>
      <trkpt lat="37.356571" lon="-5.893428">
        <ele>62.030476</ele>
        <time>2020-08-15T08:35:22.627Z</time>
      </trkpt>
      <trkpt lat="37.356626" lon="-5.893554">
        <ele>61.952381</ele>
        <time>2020-08-15T08:35:25.608Z</time>
      </trkpt>
      <trkpt lat="37.356694" lon="-5.893680">
        <ele>61.869641</ele>
        <time>2020-08-15T08:35:28.628Z</time>
      </trkpt>
      <trkpt lat="37.356736" lon="-5.893788">
        <ele>61.804321</ele>
        <time>2020-08-15T08:35:30.625Z</time>
      </trkpt>
      <trkpt lat="37.356831" lon="-5.893863">
        <ele>61.727665</ele>
        <time>2020-08-15T08:35:33.633Z</time>
      </trkpt>
      <trkpt lat="37.356886" lon="-5.893966">
        <ele>61.660254</ele>
        <time>2020-08-15T08:35:35.616Z</time>
      </trkpt>
      <trkpt lat="37.356937" lon="-5.894062">
        <ele>61.597523</ele>
        <time>2020-08-15T08:35:37.611Z</time>
      </trkpt>
      <trkpt lat="37.357011" lon="-5.894165">
        <ele>61.522096</ele>
        <time>2020-08-15T08:35:40.632Z</time>
      </trkpt>
      <trkpt lat="37.357080" lon="-5.894281">
        <ele>61.443384</ele>
        <time>2020-08-15T08:35:44.608Z</time>
      </trkpt>
      <trkpt lat="37.357145" lon="-5.894418">
        <ele>61.356705</ele>
        <time>2020-08-15T08:35:46.628Z</time>
      </trkpt>
      <trkpt lat="37.357210" lon="-5.894512">
        <ele>61.289018</ele>
        <time>2020-08-15T08:35:48.627Z</time>
      </trkpt>
      <trkpt lat="37.357295" lon="-5.894620">
        <ele>61.206449</ele>
        <time>2020-08-15T08:35:51.621Z</time>
      </trkpt>
      <trkpt lat="37.357375" lon="-5.894740">
        <ele>61.121362</ele>
        <time>2020-08-15T08:35:54.636Z</time>
      </trkpt>
      <trkpt lat="37.357455" lon="-5.894869">
        <ele>61.065731</ele>
        <time>2020-08-15T08:35:57.642Z</time>
      </trkpt>
      <trkpt lat="37.357531" lon="-5.894967">
        <ele>61.237836</ele>
        <time>2020-08-15T08:36:00.644Z</time>
      </trkpt>
      <trkpt lat="37.357613" lon="-5.895063">
        <ele>61.414975</ele>
        <time>2020-08-15T08:36:03.620Z</time>
      </trkpt>
      <trkpt lat="37.357680" lon="-5.895169">
        <ele>61.585210</ele>
        <time>2020-08-15T08:36:05.620Z</time>
      </trkpt>
      <trkpt lat="37.357781" lon="-5.895269">
        <ele>61.788465</ele>
        <time>2020-08-15T08:36:08.638Z</time>
      </trkpt>
      <trkpt lat="37.357855" lon="-5.895356">
        <ele>61.948635</ele>
        <time>2020-08-15T08:36:10.622Z</time>
      </trkpt>
      <trkpt lat="37.357938" lon="-5.895431">
        <ele>62.110241</ele>
        <time>2020-08-15T08:36:12.620Z</time>
      </trkpt>
      <trkpt lat="37.358015" lon="-5.895507">
        <ele>62.265012</ele>
        <time>2020-08-15T08:36:14.625Z</time>
      </trkpt>
      <trkpt lat="37.358099" lon="-5.895632">
        <ele>62.470766</ele>
        <time>2020-08-15T08:36:17.607Z</time>
      </trkpt>
      <trkpt lat="37.358167" lon="-5.895725">
        <ele>62.629606</ele>
        <time>2020-08-15T08:36:19.623Z</time>
      </trkpt>
      <trkpt lat="37.358233" lon="-5.895820">
        <ele>62.788206</ele>
        <time>2020-08-15T08:36:21.620Z</time>
      </trkpt>
      <trkpt lat="37.358290" lon="-5.895908">
        <ele>62.930899</ele>
        <time>2020-08-15T08:36:23.619Z</time>
      </trkpt>
      <trkpt lat="37.358344" lon="-5.896007">
        <ele>63.081825</ele>
        <time>2020-08-15T08:36:25.627Z</time>
      </trkpt>
      <trkpt lat="37.358420" lon="-5.896153">
        <ele>63.301200</ele>
        <time>2020-08-15T08:36:28.628Z</time>
      </trkpt>
      <trkpt lat="37.358471" lon="-5.896252">
        <ele>63.449493</ele>
        <time>2020-08-15T08:36:30.629Z</time>
      </trkpt>
      <trkpt lat="37.358564" lon="-5.896371">
        <ele>63.659267</ele>
        <time>2020-08-15T08:36:33.609Z</time>
      </trkpt>
      <trkpt lat="37.358622" lon="-5.896460">
        <ele>63.803934</ele>
        <time>2020-08-15T08:36:35.637Z</time>
      </trkpt>
      <trkpt lat="37.358680" lon="-5.896555">
        <ele>63.912083</ele>
        <time>2020-08-15T08:36:37.636Z</time>
      </trkpt>
      <trkpt lat="37.358764" lon="-5.896624">
        <ele>63.971149</ele>
        <time>2020-08-15T08:36:40.641Z</time>
      </trkpt>
      <trkpt lat="37.358858" lon="-5.896701">
        <ele>64.037191</ele>
        <time>2020-08-15T08:36:43.645Z</time>
      </trkpt>
      <trkpt lat="37.358951" lon="-5.896810">
        <ele>64.112026</ele>
        <time>2020-08-15T08:36:46.628Z</time>
      </trkpt>
      <trkpt lat="37.359045" lon="-5.896925">
        <ele>64.189224</ele>
        <time>2020-08-15T08:36:49.627Z</time>
      </trkpt>
      <trkpt lat="37.359110" lon="-5.897040">
        <ele>64.255263</ele>
        <time>2020-08-15T08:36:52.634Z</time>
      </trkpt>
      <trkpt lat="37.359147" lon="-5.897241">
        <ele>64.351818</ele>
        <time>2020-08-15T08:36:55.642Z</time>
      </trkpt>
      <trkpt lat="37.359185" lon="-5.897388">
        <ele>64.424159</ele>
        <time>2020-08-15T08:36:58.635Z</time>
      </trkpt>
      <trkpt lat="37.359167" lon="-5.897513">
        <ele>64.483610</ele>
        <time>2020-08-15T08:37:00.628Z</time>
      </trkpt>
      <trkpt lat="37.359176" lon="-5.897651">
        <ele>64.548409</ele>
        <time>2020-08-15T08:37:02.631Z</time>
      </trkpt>
      <trkpt lat="37.359183" lon="-5.897859">
        <ele>64.645837</ele>
        <time>2020-08-15T08:37:05.678Z</time>
      </trkpt>
      <trkpt lat="37.359212" lon="-5.897976">
        <ele>64.703192</ele>
        <time>2020-08-15T08:37:07.646Z</time>
      </trkpt>
      <trkpt lat="37.359211" lon="-5.898128">
        <ele>64.774329</ele>
        <time>2020-08-15T08:37:09.627Z</time>
      </trkpt>
      <trkpt lat="37.359224" lon="-5.898297">
        <ele>64.853788</ele>
        <time>2020-08-15T08:37:12.636Z</time>
      </trkpt>
      <trkpt lat="37.359286" lon="-5.898465">
        <ele>64.940471</ele>
        <time>2020-08-15T08:37:14.633Z</time>
      </trkpt>
      <trkpt lat="37.359291" lon="-5.898620">
        <ele>64.844351</ele>
        <time>2020-08-15T08:37:17.630Z</time>
      </trkpt>
      <trkpt lat="37.359344" lon="-5.898730">
        <ele>64.753302</ele>
        <time>2020-08-15T08:37:19.639Z</time>
      </trkpt>
      <trkpt lat="37.359400" lon="-5.898857">
        <ele>64.650503</ele>
        <time>2020-08-15T08:37:22.630Z</time>
      </trkpt>
      <trkpt lat="37.359429" lon="-5.898973">
        <ele>64.564429</ele>
        <time>2020-08-15T08:37:24.625Z</time>
      </trkpt>
      <trkpt lat="37.359506" lon="-5.899117">
        <ele>64.441585</ele>
        <time>2020-08-15T08:37:28.634Z</time>
      </trkpt>
      <trkpt lat="37.359564" lon="-5.899260">
        <ele>64.327949</ele>
        <time>2020-08-15T08:37:30.661Z</time>
      </trkpt>
      <trkpt lat="37.359560" lon="-5.899412">
        <ele>64.220301</ele>
        <time>2020-08-15T08:37:32.608Z</time>
      </trkpt>
      <trkpt lat="37.359571" lon="-5.899535">
        <ele>64.132690</ele>
        <time>2020-08-15T08:37:34.634Z</time>
      </trkpt>
      <trkpt lat="37.359625" lon="-5.899627">
        <ele>64.051739</ele>
        <time>2020-08-15T08:37:39.613Z</time>
      </trkpt>
      <trkpt lat="37.359659" lon="-5.899953">
        <ele>63.819011</ele>
        <time>2020-08-15T08:37:41.641Z</time>
      </trkpt>
      <trkpt lat="37.359726" lon="-5.900084">
        <ele>63.708749</ele>
        <time>2020-08-15T08:37:44.623Z</time>
      </trkpt>
      <trkpt lat="37.359761" lon="-5.900221">
        <ele>63.606892</ele>
        <time>2020-08-15T08:37:48.645Z</time>
      </trkpt>
      <trkpt lat="37.359757" lon="-5.900361">
        <ele>63.507733</ele>
        <time>2020-08-15T08:37:50.640Z</time>
      </trkpt>
      <trkpt lat="37.359759" lon="-5.900495">
        <ele>63.412868</ele>
        <time>2020-08-15T08:37:52.634Z</time>
      </trkpt>
      <trkpt lat="37.359780" lon="-5.900628">
        <ele>63.310642</ele>
        <time>2020-08-15T08:37:54.638Z</time>
      </trkpt>
      <trkpt lat="37.359805" lon="-5.900737">
        <ele>63.211971</ele>
        <time>2020-08-15T08:37:56.639Z</time>
      </trkpt>
      <trkpt lat="37.359846" lon="-5.900899">
        <ele>63.064100</ele>
        <time>2020-08-15T08:37:59.603Z</time>
      </trkpt>
      <trkpt lat="37.359867" lon="-5.901050">
        <ele>62.930772</ele>
        <time>2020-08-15T08:38:02.624Z</time>
      </trkpt>
      <trkpt lat="37.359917" lon="-5.901161">
        <ele>62.819804</ele>
        <time>2020-08-15T08:38:06.653Z</time>
      </trkpt>
      <trkpt lat="37.359952" lon="-5.901285">
        <ele>62.705356</ele>
        <time>2020-08-15T08:38:09.631Z</time>
      </trkpt>
      <trkpt lat="37.359993" lon="-5.901402">
        <ele>62.594144</ele>
        <time>2020-08-15T08:38:11.635Z</time>
      </trkpt>
      <trkpt lat="37.361890" lon="-5.903603">
        <ele>61.177310</ele>
        <time>2020-08-15T08:39:25.626Z</time>
      </trkpt>
      <trkpt lat="37.361972" lon="-5.903551">
        <ele>61.164874</ele>
        <time>2020-08-15T08:39:29.647Z</time>
      </trkpt>
      <trkpt lat="37.362068" lon="-5.903499">
        <ele>61.150720</ele>
        <time>2020-08-15T08:39:33.616Z</time>
      </trkpt>
      <trkpt lat="37.362167" lon="-5.903424">
        <ele>61.135069</ele>
        <time>2020-08-15T08:39:36.620Z</time>
      </trkpt>
      <trkpt lat="37.362252" lon="-5.903369">
        <ele>61.452726</ele>
        <time>2020-08-15T08:39:40.636Z</time>
      </trkpt>
      <trkpt lat="37.362349" lon="-5.903315">
        <ele>61.898772</ele>
        <time>2020-08-15T08:39:45.615Z</time>
      </trkpt>
      <trkpt lat="37.362453" lon="-5.903301">
        <ele>62.338603</ele>
        <time>2020-08-15T08:39:50.634Z</time>
      </trkpt>
      <trkpt lat="37.362552" lon="-5.903243">
        <ele>62.797834</ele>
        <time>2020-08-15T08:39:55.629Z</time>
      </trkpt>
      <trkpt lat="37.362645" lon="-5.903209">
        <ele>63.205089</ele>
        <time>2020-08-15T08:39:59.637Z</time>
      </trkpt>
      <trkpt lat="37.362737" lon="-5.903186">
        <ele>63.599526</ele>
        <time>2020-08-15T08:40:03.628Z</time>
      </trkpt>
      <trkpt lat="37.362832" lon="-5.903195">
        <ele>64.000146</ele>
        <time>2020-08-15T08:40:07.644Z</time>
      </trkpt>
      <trkpt lat="37.362934" lon="-5.903197">
        <ele>64.429123</ele>
        <time>2020-08-15T08:40:11.639Z</time>
      </trkpt>
      <trkpt lat="37.363035" lon="-5.903209">
        <ele>64.855732</ele>
        <time>2020-08-15T08:40:14.626Z</time>
      </trkpt>
      <trkpt lat="37.363062" lon="-5.903323">
        <ele>65.253309</ele>
        <time>2020-08-15T08:40:17.647Z</time>
      </trkpt>
      <trkpt lat="37.363076" lon="-5.903452">
        <ele>65.688463</ele>
        <time>2020-08-15T08:40:20.600Z</time>
      </trkpt>
      <trkpt lat="37.362102" lon="-5.903728">
        <ele>69.373170</ele>
        <time>2020-08-15T08:41:56.615Z</time>
      </trkpt>
      <trkpt lat="37.362017" lon="-5.903788">
        <ele>69.606224</ele>
        <time>2020-08-15T08:42:02.613Z</time>
      </trkpt>
      <trkpt lat="37.361928" lon="-5.903804">
        <ele>69.821201</ele>
        <time>2020-08-15T08:42:04.614Z</time>
      </trkpt>
      <trkpt lat="37.361834" lon="-5.903851">
        <ele>70.063071</ele>
        <time>2020-08-15T08:42:06.609Z</time>
      </trkpt>
      <trkpt lat="37.361744" lon="-5.903935">
        <ele>70.331028</ele>
        <time>2020-08-15T08:42:08.608Z</time>
      </trkpt>
      <trkpt lat="37.361629" lon="-5.904017">
        <ele>70.647106</ele>
        <time>2020-08-15T08:42:11.603Z</time>
      </trkpt>
      <trkpt lat="37.361530" lon="-5.904046">
        <ele>70.890165</ele>
        <time>2020-08-15T08:42:14.605Z</time>
      </trkpt>
      <trkpt lat="37.361466" lon="-5.904149">
        <ele>71.138643</ele>
        <time>2020-08-15T08:42:21.624Z</time>
      </trkpt>
      <trkpt lat="37.361357" lon="-5.904190">
        <ele>71.410681</ele>
        <time>2020-08-15T08:42:25.617Z</time>
      </trkpt>
      <trkpt lat="37.361242" lon="-5.904258">
        <ele>71.714523</ele>
        <time>2020-08-15T08:42:28.602Z</time>
      </trkpt>
      <trkpt lat="37.361145" lon="-5.904305">
        <ele>71.963074</ele>
        <time>2020-08-15T08:42:30.606Z</time>
      </trkpt>
      <trkpt lat="37.361061" lon="-5.904356">
        <ele>72.186098</ele>
        <time>2020-08-15T08:42:32.627Z</time>
      </trkpt>
      <trkpt lat="37.360962" lon="-5.904422">
        <ele>72.454005</ele>
        <time>2020-08-15T08:42:35.618Z</time>
      </trkpt>
      <trkpt lat="37.360859" lon="-5.904481">
        <ele>72.724623</ele>
        <time>2020-08-15T08:42:38.628Z</time>
      </trkpt>
      <trkpt lat="37.360799" lon="-5.904568">
        <ele>72.943540</ele>
        <time>2020-08-15T08:42:41.608Z</time>
      </trkpt>
      <trkpt lat="37.360679" lon="-5.904612">
        <ele>73.325232</ele>
        <time>2020-08-15T08:42:44.624Z</time>
      </trkpt>
      <trkpt lat="37.360594" lon="-5.904681">
        <ele>73.648699</ele>
        <time>2020-08-15T08:42:47.612Z</time>
      </trkpt>
      <trkpt lat="37.360522" lon="-5.904751">
        <ele>73.939663</ele>
        <time>2020-08-15T08:42:49.638Z</time>
      </trkpt>
      <trkpt lat="37.360420" lon="-5.904819">
        <ele>74.308786</ele>
        <time>2020-08-15T08:42:52.611Z</time>
      </trkpt>
      <trkpt lat="37.360332" lon="-5.904866">
        <ele>74.614486</ele>
        <time>2020-08-15T08:42:55.640Z</time>
      </trkpt>
      <trkpt lat="37.360228" lon="-5.904918">
        <ele>74.972343</ele>
        <time>2020-08-15T08:42:59.635Z</time>
      </trkpt>
      <trkpt lat="37.360120" lon="-5.904994">
        <ele>75.368042</ele>
        <time>2020-08-15T08:43:03.610Z</time>
      </trkpt>
      <trkpt lat="37.360026" lon="-5.905062">
        <ele>75.714768</ele>
        <time>2020-08-15T08:43:06.636Z</time>
      </trkpt>
      <trkpt lat="37.359927" lon="-5.905121">
        <ele>76.065058</ele>
        <time>2020-08-15T08:43:10.618Z</time>
      </trkpt>
      <trkpt lat="37.359826" lon="-5.905200">
        <ele>76.445350</ele>
        <time>2020-08-15T08:43:14.625Z</time>
      </trkpt>
      <trkpt lat="37.359724" lon="-5.905238">
        <ele>76.785512</ele>
        <time>2020-08-15T08:43:17.619Z</time>
      </trkpt>
      <trkpt lat="37.359634" lon="-5.905329">
        <ele>77.154724</ele>
        <time>2020-08-15T08:43:20.627Z</time>
      </trkpt>
      <trkpt lat="37.359587" lon="-5.905432">
        <ele>77.456587</ele>
        <time>2020-08-15T08:43:24.657Z</time>
      </trkpt>
      <trkpt lat="37.359491" lon="-5.905472">
        <ele>77.779960</ele>
        <time>2020-08-15T08:43:29.622Z</time>
      </trkpt>
      <trkpt lat="37.359460" lon="-5.905609">
        <ele>78.142000</ele>
        <time>2020-08-15T08:43:39.603Z</time>
      </trkpt>
      <trkpt lat="37.359448" lon="-5.905723">
        <ele>78.434278</ele>
        <time>2020-08-15T08:43:42.620Z</time>
      </trkpt>
      <trkpt lat="37.359430" lon="-5.905847">
        <ele>78.743381</ele>
        <time>2020-08-15T08:43:45.621Z</time>
      </trkpt>
      <trkpt lat="37.359372" lon="-5.905947">
        <ele>78.495593</ele>
        <time>2020-08-15T08:43:48.632Z</time>
      </trkpt>
      <trkpt lat="37.359269" lon="-5.906021">
        <ele>78.196897</ele>
        <time>2020-08-15T08:43:51.619Z</time>
      </trkpt>
      <trkpt lat="37.359176" lon="-5.906064">
        <ele>77.947382</ele>
        <time>2020-08-15T08:43:54.621Z</time>
      </trkpt>
      <trkpt lat="37.359075" lon="-5.906123">
        <ele>77.666956</ele>
        <time>2020-08-15T08:43:59.636Z</time>
      </trkpt>
      <trkpt lat="37.358990" lon="-5.906181">
        <ele>77.423447</ele>
        <time>2020-08-15T08:44:03.637Z</time>
      </trkpt>
      <trkpt lat="37.358898" lon="-5.906221">
        <ele>77.178321</ele>
        <time>2020-08-15T08:44:08.649Z</time>
      </trkpt>
      <trkpt lat="37.358725" lon="-5.906310">
        <ele>76.707643</ele>
        <time>2020-08-15T08:44:09.603Z</time>
      </trkpt>
      <trkpt lat="37.358625" lon="-5.906357">
        <ele>76.438816</ele>
        <time>2020-08-15T08:44:12.631Z</time>
      </trkpt>
      <trkpt lat="37.358573" lon="-5.906455">
        <ele>76.202961</ele>
        <time>2020-08-15T08:44:14.635Z</time>
      </trkpt>
      <trkpt lat="37.358485" lon="-5.906488">
        <ele>75.971718</ele>
        <time>2020-08-15T08:44:16.606Z</time>
      </trkpt>
      <trkpt lat="37.358252" lon="-5.906617">
        <ele>75.330656</ele>
        <time>2020-08-15T08:44:23.631Z</time>
      </trkpt>
      <trkpt lat="37.358143" lon="-5.906681">
        <ele>75.027741</ele>
        <time>2020-08-15T08:44:26.643Z</time>
      </trkpt>
      <trkpt lat="37.358109" lon="-5.906789">
        <ele>74.795222</ele>
        <time>2020-08-15T08:44:30.623Z</time>
      </trkpt>
      <trkpt lat="37.358079" lon="-5.906932">
        <ele>74.499181</ele>
        <time>2020-08-15T08:44:33.636Z</time>
      </trkpt>
      <trkpt lat="37.358072" lon="-5.907059">
        <ele>74.244358</ele>
        <time>2020-08-15T08:44:39.614Z</time>
      </trkpt>
      <trkpt lat="37.358163" lon="-5.907349">
        <ele>74.064525</ele>
        <time>2020-08-15T08:44:40.640Z</time>
      </trkpt>
      <trkpt lat="37.358214" lon="-5.907490">
        <ele>73.984571</ele>
        <time>2020-08-15T08:44:43.611Z</time>
      </trkpt>
      <trkpt lat="37.358250" lon="-5.907653">
        <ele>73.897256</ele>
        <time>2020-08-15T08:44:46.619Z</time>
      </trkpt>
      <trkpt lat="37.358319" lon="-5.907785">
        <ele>73.815716</ele>
        <time>2020-08-15T08:44:49.640Z</time>
      </trkpt>
      <trkpt lat="37.358377" lon="-5.907916">
        <ele>73.738323</ele>
        <time>2020-08-15T08:44:51.645Z</time>
      </trkpt>
      <trkpt lat="37.358455" lon="-5.907983">
        <ele>73.676996</ele>
        <time>2020-08-15T08:44:52.603Z</time>
      </trkpt>
      <trkpt lat="37.358515" lon="-5.908079">
        <ele>73.613966</ele>
        <time>2020-08-15T08:44:55.620Z</time>
      </trkpt>
      <trkpt lat="37.358566" lon="-5.908185">
        <ele>73.550015</ele>
        <time>2020-08-15T08:44:58.600Z</time>
      </trkpt>
      <trkpt lat="37.358641" lon="-5.908346">
        <ele>73.453701</ele>
        <time>2020-08-15T08:45:01.646Z</time>
      </trkpt>
      <trkpt lat="37.358703" lon="-5.908464">
        <ele>73.380696</ele>
        <time>2020-08-15T08:45:03.633Z</time>
      </trkpt>
      <trkpt lat="37.358776" lon="-5.908898">
        <ele>73.151740</ele>
        <time>2020-08-15T08:45:10.665Z</time>
      </trkpt>
      <trkpt lat="37.358848" lon="-5.909008">
        <ele>73.078195</ele>
        <time>2020-08-15T08:45:13.606Z</time>
      </trkpt>
      <trkpt lat="37.358936" lon="-5.909055">
        <ele>72.938130</ele>
        <time>2020-08-15T08:45:17.638Z</time>
      </trkpt>
      <trkpt lat="37.359003" lon="-5.909135">
        <ele>72.743906</ele>
        <time>2020-08-15T08:45:20.617Z</time>
      </trkpt>
      <trkpt lat="37.359099" lon="-5.909245">
        <ele>72.470882</ele>
        <time>2020-08-15T08:45:22.635Z</time>
      </trkpt>
      <trkpt lat="37.359027" lon="-5.909139">
        <ele>72.237852</ele>
        <time>2020-08-15T08:45:27.618Z</time>
      </trkpt>
      <trkpt lat="37.358991" lon="-5.908994">
        <ele>71.983969</ele>
        <time>2020-08-15T08:45:30.620Z</time>
      </trkpt>
      <trkpt lat="37.359833" lon="-5.910814">
        <ele>69.756979</ele>
        <time>2020-08-15T08:45:54.619Z</time>
      </trkpt>
      <trkpt lat="37.359822" lon="-5.911018">
        <ele>69.964219</ele>
        <time>2020-08-15T08:45:57.610Z</time>
      </trkpt>
      <trkpt lat="37.359845" lon="-5.911131">
        <ele>70.082446</ele>
        <time>2020-08-15T08:45:59.617Z</time>
      </trkpt>
      <trkpt lat="37.359849" lon="-5.911272">
        <ele>70.225448</ele>
        <time>2020-08-15T08:46:02.623Z</time>
      </trkpt>
      <trkpt lat="37.359861" lon="-5.911417">
        <ele>70.373208</ele>
        <time>2020-08-15T08:46:05.635Z</time>
      </trkpt>
      <trkpt lat="37.359850" lon="-5.911530">
        <ele>70.488595</ele>
        <time>2020-08-15T08:46:07.637Z</time>
      </trkpt>
      <trkpt lat="37.359831" lon="-5.911684">
        <ele>70.646551</ele>
        <time>2020-08-15T08:46:10.620Z</time>
      </trkpt>
      <trkpt lat="37.359818" lon="-5.911841">
        <ele>70.806540</ele>
        <time>2020-08-15T08:46:13.648Z</time>
      </trkpt>
      <trkpt lat="37.359814" lon="-5.911966">
        <ele>70.933337</ele>
        <time>2020-08-15T08:46:15.632Z</time>
      </trkpt>
      <trkpt lat="37.359804" lon="-5.912091">
        <ele>71.060671</ele>
        <time>2020-08-15T08:46:17.617Z</time>
      </trkpt>
      <trkpt lat="37.359792" lon="-5.912263">
        <ele>71.235673</ele>
        <time>2020-08-15T08:46:20.617Z</time>
      </trkpt>
      <trkpt lat="37.359755" lon="-5.912374">
        <ele>71.357670</ele>
        <time>2020-08-15T08:46:22.620Z</time>
      </trkpt>
      <trkpt lat="37.359764" lon="-5.912529">
        <ele>71.515190</ele>
        <time>2020-08-15T08:46:25.612Z</time>
      </trkpt>
      <trkpt lat="37.359752" lon="-5.912672">
        <ele>71.585292</ele>
        <time>2020-08-15T08:46:28.624Z</time>
      </trkpt>
      <trkpt lat="37.359739" lon="-5.912844">
        <ele>71.625658</ele>
        <time>2020-08-15T08:46:30.614Z</time>
      </trkpt>
      <trkpt lat="37.359723" lon="-5.912971">
        <ele>71.655700</ele>
        <time>2020-08-15T08:46:34.621Z</time>
      </trkpt>
      <trkpt lat="37.359691" lon="-5.913078">
        <ele>71.682410</ele>
        <time>2020-08-15T08:46:36.615Z</time>
      </trkpt>
      <trkpt lat="37.359641" lon="-5.913233">
        <ele>71.721492</ele>
        <time>2020-08-15T08:46:38.639Z</time>
      </trkpt>
      <trkpt lat="37.359600" lon="-5.913344">
        <ele>71.750088</ele>
        <time>2020-08-15T08:46:41.629Z</time>
      </trkpt>
      <trkpt lat="37.359633" lon="-5.913450">
        <ele>71.776685</ele>
        <time>2020-08-15T08:46:44.636Z</time>
      </trkpt>
      <trkpt lat="37.359727" lon="-5.913423">
        <ele>71.805026</ele>
        <time>2020-08-15T08:46:53.637Z</time>
      </trkpt>
      <trkpt lat="37.359827" lon="-5.913424">
        <ele>71.834421</ele>
        <time>2020-08-15T08:46:57.624Z</time>
      </trkpt>
      <trkpt lat="37.359905" lon="-5.913487">
        <ele>71.861666</ele>
        <time>2020-08-15T08:46:59.643Z</time>
      </trkpt>
      <trkpt lat="37.359972" lon="-5.913573">
        <ele>71.889801</ele>
        <time>2020-08-15T08:47:01.639Z</time>
      </trkpt>
      <trkpt lat="37.359974" lon="-5.914213">
        <ele>72.039327</ele>
        <time>2020-08-15T08:47:02.627Z</time>
      </trkpt>
      <trkpt lat="37.359894" lon="-5.914342">
        <ele>72.077554</ele>
        <time>2020-08-15T08:47:05.636Z</time>
      </trkpt>
      <trkpt lat="37.359837" lon="-5.914475">
        <ele>71.973124</ele>
        <time>2020-08-15T08:47:07.637Z</time>
      </trkpt>
      <trkpt lat="37.359784" lon="-5.914611">
        <ele>71.778897</ele>
        <time>2020-08-15T08:47:09.637Z</time>
      </trkpt>
      <trkpt lat="37.359761" lon="-5.914732">
        <ele>71.619363</ele>
        <time>2020-08-15T08:47:11.627Z</time>
      </trkpt>
      <trkpt lat="37.359791" lon="-5.914893">
        <ele>71.407314</ele>
        <time>2020-08-15T08:47:14.637Z</time>
      </trkpt>
      <trkpt lat="37.359805" lon="-5.915023">
        <ele>71.239091</ele>
        <time>2020-08-15T08:47:16.640Z</time>
      </trkpt>
      <trkpt lat="37.359831" lon="-5.915151">
        <ele>71.069681</ele>
        <time>2020-08-15T08:47:18.624Z</time>
      </trkpt>
      <trkpt lat="37.359850" lon="-5.915290">
        <ele>70.888824</ele>
        <time>2020-08-15T08:47:21.617Z</time>
      </trkpt>
      <trkpt lat="37.359872" lon="-5.915417">
        <ele>70.722149</ele>
        <time>2020-08-15T08:47:24.626Z</time>
      </trkpt>
      <trkpt lat="37.359927" lon="-5.915522">
        <ele>70.560899</ele>
        <time>2020-08-15T08:47:27.632Z</time>
      </trkpt>
      <trkpt lat="37.359985" lon="-5.915618">
        <ele>70.406272</ele>
        <time>2020-08-15T08:47:30.645Z</time>
      </trkpt>
      <trkpt lat="37.360025" lon="-5.915765">
        <ele>70.207034</ele>
        <time>2020-08-15T08:47:34.638Z</time>
      </trkpt>
      <trkpt lat="37.360031" lon="-5.915911">
        <ele>70.019567</ele>
        <time>2020-08-15T08:47:37.637Z</time>
      </trkpt>
      <trkpt lat="37.360078" lon="-5.916044">
        <ele>69.832925</ele>
        <time>2020-08-15T08:47:40.641Z</time>
      </trkpt>
      <trkpt lat="37.360101" lon="-5.916180">
        <ele>69.654628</ele>
        <time>2020-08-15T08:47:43.623Z</time>
      </trkpt>
      <trkpt lat="37.360124" lon="-5.916330">
        <ele>69.458737</ele>
        <time>2020-08-15T08:47:46.640Z</time>
      </trkpt>
      <trkpt lat="37.360174" lon="-5.916472">
        <ele>69.259583</ele>
        <time>2020-08-15T08:47:49.633Z</time>
      </trkpt>
      <trkpt lat="37.360198" lon="-5.916594">
        <ele>69.252586</ele>
        <time>2020-08-15T08:47:51.644Z</time>
      </trkpt>
      <trkpt lat="37.360234" lon="-5.916744">
        <ele>69.391409</ele>
        <time>2020-08-15T08:47:53.634Z</time>
      </trkpt>
      <trkpt lat="37.360256" lon="-5.916871">
        <ele>69.506570</ele>
        <time>2020-08-15T08:47:55.641Z</time>
      </trkpt>
      <trkpt lat="37.360269" lon="-5.917005">
        <ele>69.626173</ele>
        <time>2020-08-15T08:47:57.637Z</time>
      </trkpt>
      <trkpt lat="37.360279" lon="-5.917130">
        <ele>69.737481</ele>
        <time>2020-08-15T08:47:59.652Z</time>
      </trkpt>
      <trkpt lat="37.360290" lon="-5.917262">
        <ele>69.855071</ele>
        <time>2020-08-15T08:48:01.624Z</time>
      </trkpt>
      <trkpt lat="37.360306" lon="-5.917399">
        <ele>69.977754</ele>
        <time>2020-08-15T08:48:03.648Z</time>
      </trkpt>
      <trkpt lat="37.360328" lon="-5.917524">
        <ele>70.091184</ele>
        <time>2020-08-15T08:48:05.622Z</time>
      </trkpt>
      <trkpt lat="37.360348" lon="-5.917723">
        <ele>70.268899</ele>
        <time>2020-08-15T08:48:06.625Z</time>
      </trkpt>
      <trkpt lat="37.360255" lon="-5.918046">
        <ele>70.573268</ele>
        <time>2020-08-15T08:48:07.617Z</time>
      </trkpt>
      <trkpt lat="37.360256" lon="-5.918191">
        <ele>70.701741</ele>
        <time>2020-08-15T08:48:10.622Z</time>
      </trkpt>
      <trkpt lat="37.360362" lon="-5.918180">
        <ele>70.820298</ele>
        <time>2020-08-15T08:48:11.617Z</time>
      </trkpt>
      <trkpt lat="37.360302" lon="-5.918296">
        <ele>70.942917</ele>
        <time>2020-08-15T08:48:14.640Z</time>
      </trkpt>
      <trkpt lat="37.360248" lon="-5.918409">
        <ele>71.059734</ele>
        <time>2020-08-15T08:48:17.642Z</time>
      </trkpt>
      <trkpt lat="37.360185" lon="-5.918750">
        <ele>71.200520</ele>
        <time>2020-08-15T08:48:19.617Z</time>
      </trkpt>
      <trkpt lat="37.360073" lon="-5.918787">
        <ele>71.204954</ele>
        <time>2020-08-15T08:48:20.624Z</time>
      </trkpt>
      <trkpt lat="37.359995" lon="-5.918849">
        <ele>71.208487</ele>
        <time>2020-08-15T08:48:22.616Z</time>
      </trkpt>
      <trkpt lat="37.359945" lon="-5.918971">
        <ele>71.212665</ele>
        <time>2020-08-15T08:48:23.619Z</time>
      </trkpt>
      <trkpt lat="37.359855" lon="-5.919118">
        <ele>71.218313</ele>
        <time>2020-08-15T08:48:25.627Z</time>
      </trkpt>
      <trkpt lat="37.359827" lon="-5.919259">
        <ele>71.222737</ele>
        <time>2020-08-15T08:48:29.629Z</time>
      </trkpt>
      <trkpt lat="37.359794" lon="-5.919382">
        <ele>71.226688</ele>
        <time>2020-08-15T08:48:32.637Z</time>
      </trkpt>
      <trkpt lat="37.359732" lon="-5.919534">
        <ele>71.231888</ele>
        <time>2020-08-15T08:48:35.658Z</time>
      </trkpt>
      <trkpt lat="37.359666" lon="-5.919659">
        <ele>71.236456</ele>
        <time>2020-08-15T08:48:37.632Z</time>
      </trkpt>
      <trkpt lat="37.358174" lon="-5.922150">
        <ele>70.013406</ele>
        <time>2020-08-15T08:49:29.597Z</time>
      </trkpt>
      <trkpt lat="37.358073" lon="-5.922265">
        <ele>70.085803</ele>
        <time>2020-08-15T08:49:35.617Z</time>
      </trkpt>
      <trkpt lat="37.357686" lon="-5.923363">
        <ele>70.824158</ele>
        <time>2020-08-15T08:50:06.615Z</time>
      </trkpt>
      <trkpt lat="37.357654" lon="-5.923537">
        <ele>70.933947</ele>
        <time>2020-08-15T08:50:08.630Z</time>
      </trkpt>
      <trkpt lat="37.357652" lon="-5.923656">
        <ele>71.007116</ele>
        <time>2020-08-15T08:50:10.619Z</time>
      </trkpt>
      <trkpt lat="37.357417" lon="-5.924001">
        <ele>71.286419</ele>
        <time>2020-08-15T08:50:12.609Z</time>
      </trkpt>
      <trkpt lat="37.357347" lon="-5.924076">
        <ele>71.357528</ele>
        <time>2020-08-15T08:50:13.617Z</time>
      </trkpt>
      <trkpt lat="37.357221" lon="-5.924355">
        <ele>71.755953</ele>
        <time>2020-08-15T08:50:15.661Z</time>
      </trkpt>
      <trkpt lat="37.357200" lon="-5.924717">
        <ele>72.249393</ele>
        <time>2020-08-15T08:50:16.630Z</time>
      </trkpt>
      <trkpt lat="37.357346" lon="-5.924690">
        <ele>72.501784</ele>
        <time>2020-08-15T08:50:19.604Z</time>
      </trkpt>
      <trkpt lat="37.357381" lon="-5.924801">
        <ele>72.664125</ele>
        <time>2020-08-15T08:50:28.637Z</time>
      </trkpt>
      <trkpt lat="37.357352" lon="-5.924916">
        <ele>72.828144</ele>
        <time>2020-08-15T08:50:31.626Z</time>
      </trkpt>
      <trkpt lat="37.357341" lon="-5.925070">
        <ele>73.038347</ele>
        <time>2020-08-15T08:50:33.612Z</time>
      </trkpt>
      <trkpt lat="37.357321" lon="-5.925221">
        <ele>73.246459</ele>
        <time>2020-08-15T08:50:36.637Z</time>
      </trkpt>
      <trkpt lat="37.357320" lon="-5.925350">
        <ele>73.421840</ele>
        <time>2020-08-15T08:50:38.638Z</time>
      </trkpt>
      <trkpt lat="37.357132" lon="-5.925816">
        <ele>74.132285</ele>
        <time>2020-08-15T08:50:40.611Z</time>
      </trkpt>
      <trkpt lat="37.357121" lon="-5.925972">
        <ele>74.345197</ele>
        <time>2020-08-15T08:50:43.614Z</time>
      </trkpt>
      <trkpt lat="37.357133" lon="-5.926094">
        <ele>74.439155</ele>
        <time>2020-08-15T08:50:49.638Z</time>
      </trkpt>
      <trkpt lat="37.357081" lon="-5.926378">
        <ele>74.222777</ele>
        <time>2020-08-15T08:50:51.634Z</time>
      </trkpt>
      <trkpt lat="37.357051" lon="-5.926500">
        <ele>74.127963</ele>
        <time>2020-08-15T08:51:03.638Z</time>
      </trkpt>
      <trkpt lat="37.356999" lon="-5.926617">
        <ele>74.028439</ele>
        <time>2020-08-15T08:51:06.615Z</time>
      </trkpt>
      <trkpt lat="37.356944" lon="-5.926738">
        <ele>73.924951</ele>
        <time>2020-08-15T08:51:08.605Z</time>
      </trkpt>
      <trkpt lat="37.356912" lon="-5.926906">
        <ele>73.796687</ele>
        <time>2020-08-15T08:51:10.637Z</time>
      </trkpt>
      <trkpt lat="37.356867" lon="-5.927062">
        <ele>73.673473</ele>
        <time>2020-08-15T08:51:12.623Z</time>
      </trkpt>
      <trkpt lat="37.356757" lon="-5.927258">
        <ele>73.495335</ele>
        <time>2020-08-15T08:51:14.622Z</time>
      </trkpt>
      <trkpt lat="37.356739" lon="-5.927373">
        <ele>73.408313</ele>
        <time>2020-08-15T08:51:16.616Z</time>
      </trkpt>
      <trkpt lat="37.356593" lon="-5.927554">
        <ele>73.216854</ele>
        <time>2020-08-15T08:51:19.610Z</time>
      </trkpt>
      <trkpt lat="37.356557" lon="-5.927691">
        <ele>73.109724</ele>
        <time>2020-08-15T08:51:21.617Z</time>
      </trkpt>
      <trkpt lat="37.356348" lon="-5.927823">
        <ele>72.891287</ele>
        <time>2020-08-15T08:51:23.630Z</time>
      </trkpt>
      <trkpt lat="37.356522" lon="-5.928020">
        <ele>72.707235</ele>
        <time>2020-08-15T08:51:28.664Z</time>
      </trkpt>
      <trkpt lat="37.356457" lon="-5.928105">
        <ele>72.646635</ele>
        <time>2020-08-15T08:51:30.604Z</time>
      </trkpt>
      <trkpt lat="37.356343" lon="-5.928209">
        <ele>72.555615</ele>
        <time>2020-08-15T08:51:32.607Z</time>
      </trkpt>
      <trkpt lat="37.356338" lon="-5.928342">
        <ele>72.487206</ele>
        <time>2020-08-15T08:51:35.633Z</time>
      </trkpt>
      <trkpt lat="37.356286" lon="-5.928457">
        <ele>72.419230</ele>
        <time>2020-08-15T08:51:40.658Z</time>
      </trkpt>
      <trkpt lat="37.356270" lon="-5.928594">
        <ele>72.348086</ele>
        <time>2020-08-15T08:51:44.635Z</time>
      </trkpt>
      <trkpt lat="37.356199" lon="-5.928709">
        <ele>72.273273</ele>
        <time>2020-08-15T08:51:46.632Z</time>
      </trkpt>
      <trkpt lat="37.356132" lon="-5.928820">
        <ele>72.201664</ele>
        <time>2020-08-15T08:51:48.640Z</time>
      </trkpt>
      <trkpt lat="37.355959" lon="-5.929105">
        <ele>72.017422</ele>
        <time>2020-08-15T08:51:55.612Z</time>
      </trkpt>
      <trkpt lat="37.355886" lon="-5.929195">
        <ele>71.951357</ele>
        <time>2020-08-15T08:52:02.649Z</time>
      </trkpt>
      <trkpt lat="37.355481" lon="-5.929789">
        <ele>71.674192</ele>
        <time>2020-08-15T08:52:09.619Z</time>
      </trkpt>
      <trkpt lat="37.355497" lon="-5.929911">
        <ele>71.719208</ele>
        <time>2020-08-15T08:52:16.628Z</time>
      </trkpt>
      <trkpt lat="37.355527" lon="-5.930027">
        <ele>71.763618</ele>
        <time>2020-08-15T08:52:20.632Z</time>
      </trkpt>
      <trkpt lat="37.355256" lon="-5.930374">
        <ele>71.940717</ele>
        <time>2020-08-15T08:52:22.613Z</time>
      </trkpt>
      <trkpt lat="37.355197" lon="-5.930476">
        <ele>71.986642</ele>
        <time>2020-08-15T08:52:23.595Z</time>
      </trkpt>
      <trkpt lat="37.355157" lon="-5.930599">
        <ele>72.035024</ele>
        <time>2020-08-15T08:52:25.635Z</time>
      </trkpt>
      <trkpt lat="37.355101" lon="-5.930703">
        <ele>72.080756</ele>
        <time>2020-08-15T08:52:27.619Z</time>
      </trkpt>
      <trkpt lat="37.355084" lon="-5.930865">
        <ele>72.140245</ele>
        <time>2020-08-15T08:52:30.634Z</time>
      </trkpt>
      <trkpt lat="37.355035" lon="-5.930961">
        <ele>72.181780</ele>
        <time>2020-08-15T08:52:32.618Z</time>
      </trkpt>
      <trkpt lat="37.355217" lon="-5.930977">
        <ele>72.265339</ele>
        <time>2020-08-15T08:52:33.606Z</time>
      </trkpt>
      <trkpt lat="37.355231" lon="-5.931110">
        <ele>72.314182</ele>
        <time>2020-08-15T08:52:36.616Z</time>
      </trkpt>
      <trkpt lat="37.355127" lon="-5.931240">
        <ele>72.381329</ele>
        <time>2020-08-15T08:52:38.611Z</time>
      </trkpt>
      <trkpt lat="37.354969" lon="-5.931397">
        <ele>72.431940</ele>
        <time>2020-08-15T08:52:41.614Z</time>
      </trkpt>
      <trkpt lat="37.354866" lon="-5.931498">
        <ele>72.400854</ele>
        <time>2020-08-15T08:52:43.621Z</time>
      </trkpt>
      <trkpt lat="37.354786" lon="-5.931643">
        <ele>72.367457</ele>
        <time>2020-08-15T08:52:45.619Z</time>
      </trkpt>
      <trkpt lat="37.354774" lon="-5.931792">
        <ele>72.339120</ele>
        <time>2020-08-15T08:52:47.628Z</time>
      </trkpt>
      <trkpt lat="37.354700" lon="-5.931872">
        <ele>72.315895</ele>
        <time>2020-08-15T08:52:49.613Z</time>
      </trkpt>
      <trkpt lat="37.354642" lon="-5.931997">
        <ele>72.288509</ele>
        <time>2020-08-15T08:52:52.619Z</time>
      </trkpt>
      <trkpt lat="37.354562" lon="-5.932134">
        <ele>72.256344</ele>
        <time>2020-08-15T08:52:54.605Z</time>
      </trkpt>
      <trkpt lat="37.354483" lon="-5.932216">
        <ele>72.231964</ele>
        <time>2020-08-15T08:52:55.614Z</time>
      </trkpt>
      <trkpt lat="37.354447" lon="-5.932347">
        <ele>72.205738</ele>
        <time>2020-08-15T08:52:57.626Z</time>
      </trkpt>
      <trkpt lat="37.354368" lon="-5.932465">
        <ele>72.176547</ele>
        <time>2020-08-15T08:52:58.614Z</time>
      </trkpt>
      <trkpt lat="37.354290" lon="-5.932563">
        <ele>72.150306</ele>
        <time>2020-08-15T08:53:00.617Z</time>
      </trkpt>
      <trkpt lat="37.354264" lon="-5.932709">
        <ele>72.121996</ele>
        <time>2020-08-15T08:53:03.624Z</time>
      </trkpt>
      <trkpt lat="37.354218" lon="-5.932815">
        <ele>72.099145</ele>
        <time>2020-08-15T08:53:06.625Z</time>
      </trkpt>
      <trkpt lat="37.354106" lon="-5.932952">
        <ele>72.061960</ele>
        <time>2020-08-15T08:53:07.644Z</time>
      </trkpt>
      <trkpt lat="37.354055" lon="-5.933066">
        <ele>72.037208</ele>
        <time>2020-08-15T08:53:10.616Z</time>
      </trkpt>
      <trkpt lat="37.354000" lon="-5.933162">
        <ele>71.949035</ele>
        <time>2020-08-15T08:53:11.624Z</time>
      </trkpt>
      <trkpt lat="37.353923" lon="-5.933241">
        <ele>71.440644</ele>
        <time>2020-08-15T08:53:12.624Z</time>
      </trkpt>
      <trkpt lat="37.353877" lon="-5.933364">
        <ele>70.887773</ele>
        <time>2020-08-15T08:53:14.605Z</time>
      </trkpt>
      <trkpt lat="37.353808" lon="-5.933484">
        <ele>70.285400</ele>
        <time>2020-08-15T08:53:17.633Z</time>
      </trkpt>
      <trkpt lat="37.352127" lon="-5.934026">
        <ele>64.246577</ele>
        <time>2020-08-15T08:55:08.637Z</time>
      </trkpt>
      <trkpt lat="37.352066" lon="-5.934144">
        <ele>64.828368</ele>
        <time>2020-08-15T08:55:12.635Z</time>
      </trkpt>
      <trkpt lat="37.351961" lon="-5.934199">
        <ele>65.419768</ele>
        <time>2020-08-15T08:55:16.643Z</time>
      </trkpt>
      <trkpt lat="37.351847" lon="-5.934243">
        <ele>66.039798</ele>
        <time>2020-08-15T08:55:19.634Z</time>
      </trkpt>
      <trkpt lat="37.351765" lon="-5.934325">
        <ele>66.584468</ele>
        <time>2020-08-15T08:55:21.615Z</time>
      </trkpt>
      <trkpt lat="37.351669" lon="-5.934370">
        <ele>67.117160</ele>
        <time>2020-08-15T08:55:24.620Z</time>
      </trkpt>
      <trkpt lat="37.351610" lon="-5.934467">
        <ele>67.621997</ele>
        <time>2020-08-15T08:55:28.642Z</time>
      </trkpt>
      <trkpt lat="37.351548" lon="-5.934551">
        <ele>68.095784</ele>
        <time>2020-08-15T08:55:30.643Z</time>
      </trkpt>
      <trkpt lat="37.351462" lon="-5.934626">
        <ele>68.639898</ele>
        <time>2020-08-15T08:55:33.633Z</time>
      </trkpt>
      <trkpt lat="37.351376" lon="-5.934706">
        <ele>69.196045</ele>
        <time>2020-08-15T08:55:35.634Z</time>
      </trkpt>
      <trkpt lat="37.351264" lon="-5.934805">
        <ele>69.907794</ele>
        <time>2020-08-15T08:55:37.641Z</time>
      </trkpt>
      <trkpt lat="37.351156" lon="-5.934949">
        <ele>70.726095</ele>
        <time>2020-08-15T08:55:40.624Z</time>
      </trkpt>
      <trkpt lat="37.351126" lon="-5.935090">
        <ele>71.329412</ele>
        <time>2020-08-15T08:55:44.633Z</time>
      </trkpt>
      <trkpt lat="37.351088" lon="-5.935197">
        <ele>71.813811</ele>
        <time>2020-08-15T08:55:46.636Z</time>
      </trkpt>
      <trkpt lat="37.351060" lon="-5.935329">
        <ele>72.129529</ele>
        <time>2020-08-15T08:55:48.675Z</time>
      </trkpt>
      <trkpt lat="37.351030" lon="-5.935441">
        <ele>72.042149</ele>
        <time>2020-08-15T08:55:50.631Z</time>
      </trkpt>
      <trkpt lat="37.350949" lon="-5.935544">
        <ele>71.935031</ele>
        <time>2020-08-15T08:55:52.633Z</time>
      </trkpt>
      <trkpt lat="37.350878" lon="-5.935660">
        <ele>71.826792</ele>
        <time>2020-08-15T08:55:54.639Z</time>
      </trkpt>
      <trkpt lat="37.350800" lon="-5.935833">
        <ele>71.679747</ele>
        <time>2020-08-15T08:55:58.620Z</time>
      </trkpt>
      <trkpt lat="37.350743" lon="-5.935947">
        <ele>71.580177</ele>
        <time>2020-08-15T08:56:00.628Z</time>
      </trkpt>
      <trkpt lat="37.350709" lon="-5.936051">
        <ele>71.497038</ele>
        <time>2020-08-15T08:56:02.625Z</time>
      </trkpt>
      <trkpt lat="37.350664" lon="-5.936169">
        <ele>71.400277</ele>
        <time>2020-08-15T08:56:04.598Z</time>
      </trkpt>
      <trkpt lat="37.350613" lon="-5.936278">
        <ele>71.306766</ele>
        <time>2020-08-15T08:56:06.611Z</time>
      </trkpt>
      <trkpt lat="37.350578" lon="-5.936385">
        <ele>71.221222</ele>
        <time>2020-08-15T08:56:08.630Z</time>
      </trkpt>
      <trkpt lat="37.350518" lon="-5.936529">
        <ele>71.101019</ele>
        <time>2020-08-15T08:56:11.652Z</time>
      </trkpt>
      <trkpt lat="37.350485" lon="-5.936663">
        <ele>70.997303</ele>
        <time>2020-08-15T08:56:14.617Z</time>
      </trkpt>
      <trkpt lat="37.350395" lon="-5.936761">
        <ele>70.886595</ele>
        <time>2020-08-15T08:56:16.619Z</time>
      </trkpt>
      <trkpt lat="37.350323" lon="-5.936882">
        <ele>70.774849</ele>
        <time>2020-08-15T08:56:19.614Z</time>
      </trkpt>
      <trkpt lat="37.350262" lon="-5.936995">
        <ele>70.673861</ele>
        <time>2020-08-15T08:56:22.614Z</time>
      </trkpt>
      <trkpt lat="37.350213" lon="-5.937096">
        <ele>70.586380</ele>
        <time>2020-08-15T08:56:25.621Z</time>
      </trkpt>
      <trkpt lat="37.350170" lon="-5.937208">
        <ele>70.494586</ele>
        <time>2020-08-15T08:56:28.625Z</time>
      </trkpt>
      <trkpt lat="37.350100" lon="-5.937331">
        <ele>70.766304</ele>
        <time>2020-08-15T08:56:31.628Z</time>
      </trkpt>
      <trkpt lat="37.350047" lon="-5.937441">
        <ele>70.997349</ele>
        <time>2020-08-15T08:56:34.629Z</time>
      </trkpt>
      <trkpt lat="37.350012" lon="-5.937554">
        <ele>71.215186</ele>
        <time>2020-08-15T08:56:37.625Z</time>
      </trkpt>
      <trkpt lat="37.349969" lon="-5.937662">
        <ele>71.432151</ele>
        <time>2020-08-15T08:56:40.634Z</time>
      </trkpt>
      <trkpt lat="37.349918" lon="-5.937787">
        <ele>71.684526</ele>
        <time>2020-08-15T08:56:44.632Z</time>
      </trkpt>
      <trkpt lat="37.349889" lon="-5.937899">
        <ele>71.896107</ele>
        <time>2020-08-15T08:56:47.633Z</time>
      </trkpt>
      <trkpt lat="37.349852" lon="-5.938011">
        <ele>72.113966</ele>
        <time>2020-08-15T08:56:50.639Z</time>
      </trkpt>
      <trkpt lat="37.349791" lon="-5.938129">
        <ele>72.366797</ele>
        <time>2020-08-15T08:56:53.637Z</time>
      </trkpt>
      <trkpt lat="37.349749" lon="-5.938268">
        <ele>72.633902</ele>
        <time>2020-08-15T08:56:57.619Z</time>
      </trkpt>
      <trkpt lat="37.349690" lon="-5.938384">
        <ele>72.881265</ele>
        <time>2020-08-15T08:57:00.621Z</time>
      </trkpt>
      <trkpt lat="37.349634" lon="-5.938483">
        <ele>73.099518</ele>
        <time>2020-08-15T08:57:03.611Z</time>
      </trkpt>
      <trkpt lat="37.349590" lon="-5.938588">
        <ele>73.312723</ele>
        <time>2020-08-15T08:57:08.653Z</time>
      </trkpt>
      <trkpt lat="37.349545" lon="-5.938687">
        <ele>73.517569</ele>
        <time>2020-08-15T08:57:11.626Z</time>
      </trkpt>
      <trkpt lat="37.349479" lon="-5.938816">
        <ele>73.793127</ele>
        <time>2020-08-15T08:57:13.618Z</time>
      </trkpt>
      <trkpt lat="37.349459" lon="-5.938973">
        <ele>74.078736</ele>
        <time>2020-08-15T08:57:16.613Z</time>
      </trkpt>
      <trkpt lat="37.349416" lon="-5.939073">
        <ele>74.282955</ele>
        <time>2020-08-15T08:57:19.651Z</time>
      </trkpt>
      <trkpt lat="37.349409" lon="-5.939187">
        <ele>74.488337</ele>
        <time>2020-08-15T08:57:24.648Z</time>
      </trkpt>
      <trkpt lat="37.349439" lon="-5.939309">
        <ele>74.431748</ele>
        <time>2020-08-15T08:57:27.640Z</time>
      </trkpt>
      <trkpt lat="37.349500" lon="-5.939415">
        <ele>74.244276</ele>
        <time>2020-08-15T08:57:30.638Z</time>
      </trkpt>
      <trkpt lat="37.349590" lon="-5.939457">
        <ele>74.071281</ele>
        <time>2020-08-15T08:57:33.646Z</time>
      </trkpt>
      <trkpt lat="37.349694" lon="-5.939508">
        <ele>73.870119</ele>
        <time>2020-08-15T08:57:37.632Z</time>
      </trkpt>
      <trkpt lat="37.349778" lon="-5.939581">
        <ele>73.686126</ele>
        <time>2020-08-15T08:57:40.650Z</time>
      </trkpt>
      <trkpt lat="37.349863" lon="-5.939648">
        <ele>73.505354</ele>
        <time>2020-08-15T08:57:43.650Z</time>
      </trkpt>
      <trkpt lat="37.349966" lon="-5.939707">
        <ele>73.301394</ele>
        <time>2020-08-15T08:57:46.646Z</time>
      </trkpt>
      <trkpt lat="37.350072" lon="-5.939784">
        <ele>73.080803</ele>
        <time>2020-08-15T08:57:49.653Z</time>
      </trkpt>
      <trkpt lat="37.350164" lon="-5.939898">
        <ele>72.848076</ele>
        <time>2020-08-15T08:57:52.639Z</time>
      </trkpt>
      <trkpt lat="37.350242" lon="-5.939995">
        <ele>72.650414</ele>
        <time>2020-08-15T08:57:54.640Z</time>
      </trkpt>
      <trkpt lat="37.350416" lon="-5.940148">
        <ele>72.267827</ele>
        <time>2020-08-15T08:57:56.634Z</time>
      </trkpt>
      <trkpt lat="37.350495" lon="-5.940222">
        <ele>72.090322</ele>
        <time>2020-08-15T08:57:58.626Z</time>
      </trkpt>
      <trkpt lat="37.350573" lon="-5.940306">
        <ele>71.905279</ele>
        <time>2020-08-15T08:58:00.634Z</time>
      </trkpt>
      <trkpt lat="37.350644" lon="-5.940376">
        <ele>71.742711</ele>
        <time>2020-08-15T08:58:03.637Z</time>
      </trkpt>
      <trkpt lat="37.350862" lon="-5.940583">
        <ele>71.259473</ele>
        <time>2020-08-15T08:58:08.631Z</time>
      </trkpt>
      <trkpt lat="37.350949" lon="-5.940627">
        <ele>71.113259</ele>
        <time>2020-08-15T08:58:10.621Z</time>
      </trkpt>
      <trkpt lat="37.351046" lon="-5.940754">
        <ele>70.894947</ele>
        <time>2020-08-15T08:58:13.622Z</time>
      </trkpt>
      <trkpt lat="37.351115" lon="-5.940866">
        <ele>70.719305</ele>
        <time>2020-08-15T08:58:15.603Z</time>
      </trkpt>
      <trkpt lat="37.351202" lon="-5.940955">
        <ele>70.544449</ele>
        <time>2020-08-15T08:58:19.630Z</time>
      </trkpt>
      <trkpt lat="37.351264" lon="-5.941064">
        <ele>70.378311</ele>
        <time>2020-08-15T08:58:21.629Z</time>
      </trkpt>
      <trkpt lat="37.351366" lon="-5.941128">
        <ele>70.200573</ele>
        <time>2020-08-15T08:58:23.608Z</time>
      </trkpt>
      <trkpt lat="37.351487" lon="-5.941199">
        <ele>69.992379</ele>
        <time>2020-08-15T08:58:26.634Z</time>
      </trkpt>
      <trkpt lat="37.351587" lon="-5.941215">
        <ele>69.835190</ele>
        <time>2020-08-15T08:58:28.620Z</time>
      </trkpt>
      <trkpt lat="37.351687" lon="-5.941270">
        <ele>69.665006</ele>
        <time>2020-08-15T08:58:30.626Z</time>
      </trkpt>
      <trkpt lat="37.351772" lon="-5.941340">
        <ele>69.506588</ele>
        <time>2020-08-15T08:58:32.624Z</time>
      </trkpt>
      <trkpt lat="37.351864" lon="-5.941401">
        <ele>69.344423</ele>
        <time>2020-08-15T08:58:34.630Z</time>
      </trkpt>
      <trkpt lat="37.351947" lon="-5.941454">
        <ele>69.199280</ele>
        <time>2020-08-15T08:58:36.613Z</time>
      </trkpt>
      <trkpt lat="37.352036" lon="-5.941523">
        <ele>69.036262</ele>
        <time>2020-08-15T08:58:38.633Z</time>
      </trkpt>
      <trkpt lat="37.352115" lon="-5.941605">
        <ele>68.876556</ele>
        <time>2020-08-15T08:58:40.635Z</time>
      </trkpt>
      <trkpt lat="37.352216" lon="-5.941674">
        <ele>68.697339</ele>
        <time>2020-08-15T08:58:42.617Z</time>
      </trkpt>
      <trkpt lat="37.352317" lon="-5.941750">
        <ele>68.513823</ele>
        <time>2020-08-15T08:58:44.644Z</time>
      </trkpt>
      <trkpt lat="37.352406" lon="-5.941809">
        <ele>68.511851</ele>
        <time>2020-08-15T08:58:46.632Z</time>
      </trkpt>
      <trkpt lat="37.352498" lon="-5.941885">
        <ele>68.511100</ele>
        <time>2020-08-15T08:58:48.634Z</time>
      </trkpt>
      <trkpt lat="37.352581" lon="-5.941975">
        <ele>68.510352</ele>
        <time>2020-08-15T08:58:50.641Z</time>
      </trkpt>
      <trkpt lat="37.352657" lon="-5.942073">
        <ele>68.509609</ele>
        <time>2020-08-15T08:58:52.638Z</time>
      </trkpt>
      <trkpt lat="37.352736" lon="-5.942153">
        <ele>68.508916</ele>
        <time>2020-08-15T08:58:54.615Z</time>
      </trkpt>
      <trkpt lat="37.352804" lon="-5.942237">
        <ele>68.508266</ele>
        <time>2020-08-15T08:58:57.637Z</time>
      </trkpt>
      <trkpt lat="37.352911" lon="-5.942334">
        <ele>68.507366</ele>
        <time>2020-08-15T08:59:00.644Z</time>
      </trkpt>
      <trkpt lat="37.353022" lon="-5.942419">
        <ele>68.506479</ele>
        <time>2020-08-15T08:59:02.628Z</time>
      </trkpt>
      <trkpt lat="37.353121" lon="-5.942497">
        <ele>68.505681</ele>
        <time>2020-08-15T08:59:05.620Z</time>
      </trkpt>
      <trkpt lat="37.353226" lon="-5.942463">
        <ele>68.504941</ele>
        <time>2020-08-15T08:59:08.612Z</time>
      </trkpt>
      <trkpt lat="37.353346" lon="-5.942467">
        <ele>68.504122</ele>
        <time>2020-08-15T08:59:11.629Z</time>
      </trkpt>
      <trkpt lat="37.353433" lon="-5.942499">
        <ele>68.503503</ele>
        <time>2020-08-15T08:59:13.640Z</time>
      </trkpt>
      <trkpt lat="37.353565" lon="-5.942513">
        <ele>68.502599</ele>
        <time>2020-08-15T08:59:16.626Z</time>
      </trkpt>
      <trkpt lat="37.353718" lon="-5.942472">
        <ele>68.501531</ele>
        <time>2020-08-15T08:59:19.619Z</time>
      </trkpt>
      <trkpt lat="37.353831" lon="-5.942432">
        <ele>68.500730</ele>
        <time>2020-08-15T08:59:21.631Z</time>
      </trkpt>
      <trkpt lat="37.353964" lon="-5.942370">
        <ele>68.648251</ele>
        <time>2020-08-15T08:59:24.612Z</time>
      </trkpt>
      <trkpt lat="37.354075" lon="-5.942331">
        <ele>68.884469</ele>
        <time>2020-08-15T08:59:26.619Z</time>
      </trkpt>
      <trkpt lat="37.354164" lon="-5.942295">
        <ele>69.076085</ele>
        <time>2020-08-15T08:59:29.605Z</time>
      </trkpt>
      <trkpt lat="37.354258" lon="-5.942373">
        <ele>69.306890</ele>
        <time>2020-08-15T08:59:33.608Z</time>
      </trkpt>
      <trkpt lat="37.354302" lon="-5.942519">
        <ele>69.561284</ele>
        <time>2020-08-15T08:59:36.615Z</time>
      </trkpt>
      <trkpt lat="37.354280" lon="-5.942658">
        <ele>69.792198</ele>
        <time>2020-08-15T08:59:38.604Z</time>
      </trkpt>
      <trkpt lat="37.354273" lon="-5.942777">
        <ele>69.986610</ele>
        <time>2020-08-15T08:59:40.612Z</time>
      </trkpt>
      <trkpt lat="37.354287" lon="-5.942943">
        <ele>70.258586</ele>
        <time>2020-08-15T08:59:43.638Z</time>
      </trkpt>
      <trkpt lat="37.354303" lon="-5.943114">
        <ele>70.539114</ele>
        <time>2020-08-15T08:59:46.632Z</time>
      </trkpt>
      <trkpt lat="37.354329" lon="-5.943231">
        <ele>70.737047</ele>
        <time>2020-08-15T08:59:48.624Z</time>
      </trkpt>
      <trkpt lat="37.354288" lon="-5.943360">
        <ele>70.963399</ele>
        <time>2020-08-15T08:59:52.609Z</time>
      </trkpt>
      <trkpt lat="37.354193" lon="-5.943388">
        <ele>71.163389</ele>
        <time>2020-08-15T08:59:57.618Z</time>
      </trkpt>
      <trkpt lat="37.354141" lon="-5.943284">
        <ele>71.363566</ele>
        <time>2020-08-15T09:00:02.617Z</time>
      </trkpt>
      <trkpt lat="37.354209" lon="-5.943201">
        <ele>71.557763</ele>
        <time>2020-08-15T09:00:15.606Z</time>
      </trkpt>
      <trkpt lat="37.354270" lon="-5.943070">
        <ele>71.805122</ele>
        <time>2020-08-15T09:00:18.612Z</time>
      </trkpt>
      <trkpt lat="37.354336" lon="-5.942975">
        <ele>72.010686</ele>
        <time>2020-08-15T09:00:22.614Z</time>
      </trkpt>
      <trkpt lat="37.354369" lon="-5.942863">
        <ele>72.157575</ele>
        <time>2020-08-15T09:00:27.634Z</time>
      </trkpt>
      <trkpt lat="37.354430" lon="-5.942969">
        <ele>71.819397</ele>
        <time>2020-08-15T09:00:45.593Z</time>
      </trkpt>
      <trkpt lat="37.354457" lon="-5.943091">
        <ele>71.492130</ele>
        <time>2020-08-15T09:00:51.604Z</time>
      </trkpt>
      <trkpt lat="37.354508" lon="-5.943328">
        <ele>70.857622</ele>
        <time>2020-08-15T09:00:52.624Z</time>
      </trkpt>
      <trkpt lat="37.354562" lon="-5.943460">
        <ele>70.473980</ele>
        <time>2020-08-15T09:00:55.612Z</time>
      </trkpt>
      <trkpt lat="37.354673" lon="-5.943559">
        <ele>70.031628</ele>
        <time>2020-08-15T09:00:58.608Z</time>
      </trkpt>
      <trkpt lat="37.354782" lon="-5.943574">
        <ele>69.675152</ele>
        <time>2020-08-15T09:01:00.609Z</time>
      </trkpt>
      <trkpt lat="37.354872" lon="-5.943621">
        <ele>69.358352</ele>
        <time>2020-08-15T09:01:02.628Z</time>
      </trkpt>
      <trkpt lat="37.354970" lon="-5.943659">
        <ele>69.024962</ele>
        <time>2020-08-15T09:01:04.627Z</time>
      </trkpt>
      <trkpt lat="37.355107" lon="-5.943687">
        <ele>68.573732</ele>
        <time>2020-08-15T09:01:07.624Z</time>
      </trkpt>
      <trkpt lat="37.355217" lon="-5.943698">
        <ele>68.214991</ele>
        <time>2020-08-15T09:01:09.619Z</time>
      </trkpt>
      <trkpt lat="37.355312" lon="-5.943744">
        <ele>67.884057</ele>
        <time>2020-08-15T09:01:11.624Z</time>
      </trkpt>
      <trkpt lat="37.355428" lon="-5.943777">
        <ele>67.497417</ele>
        <time>2020-08-15T09:01:13.618Z</time>
      </trkpt>
      <trkpt lat="37.355554" lon="-5.943821">
        <ele>67.072300</ele>
        <time>2020-08-15T09:01:15.611Z</time>
      </trkpt>
      <trkpt lat="37.355645" lon="-5.943871">
        <ele>66.749471</ele>
        <time>2020-08-15T09:01:17.629Z</time>
      </trkpt>
      <trkpt lat="37.355734" lon="-5.943913">
        <ele>66.440443</ele>
        <time>2020-08-15T09:01:19.619Z</time>
      </trkpt>
      <trkpt lat="37.355783" lon="-5.944024">
        <ele>66.548213</ele>
        <time>2020-08-15T09:01:22.591Z</time>
      </trkpt>
      <trkpt lat="37.355757" lon="-5.944154">
        <ele>66.866742</ele>
        <time>2020-08-15T09:01:26.593Z</time>
      </trkpt>
      <trkpt lat="37.355705" lon="-5.944276">
        <ele>67.195680</ele>
        <time>2020-08-15T09:01:29.636Z</time>
      </trkpt>
      <trkpt lat="37.355644" lon="-5.944402">
        <ele>67.546236</ele>
        <time>2020-08-15T09:01:32.616Z</time>
      </trkpt>
      <trkpt lat="37.355576" lon="-5.944526">
        <ele>67.904196</ele>
        <time>2020-08-15T09:01:35.610Z</time>
      </trkpt>
      <trkpt lat="37.355509" lon="-5.944654">
        <ele>68.268368</ele>
        <time>2020-08-15T09:01:38.616Z</time>
      </trkpt>
      <trkpt lat="37.355422" lon="-5.944770">
        <ele>68.647330</ele>
        <time>2020-08-15T09:01:41.612Z</time>
      </trkpt>
      <trkpt lat="37.355350" lon="-5.944867">
        <ele>68.962686</ele>
        <time>2020-08-15T09:01:43.638Z</time>
      </trkpt>
      <trkpt lat="37.355282" lon="-5.944996">
        <ele>69.330489</ele>
        <time>2020-08-15T09:01:45.630Z</time>
      </trkpt>
      <trkpt lat="37.355322" lon="-5.945116">
        <ele>69.639687</ele>
        <time>2020-08-15T09:01:47.611Z</time>
      </trkpt>
      <trkpt lat="37.355392" lon="-5.945190">
        <ele>69.913009</ele>
        <time>2020-08-15T09:01:49.603Z</time>
      </trkpt>
      <trkpt lat="37.355484" lon="-5.945293">
        <ele>70.281160</ele>
        <time>2020-08-15T09:01:51.599Z</time>
      </trkpt>
      <trkpt lat="37.355571" lon="-5.945383">
        <ele>70.617866</ele>
        <time>2020-08-15T09:01:53.619Z</time>
      </trkpt>
      <trkpt lat="37.355601" lon="-5.945490">
        <ele>70.887469</ele>
        <time>2020-08-15T09:01:55.622Z</time>
      </trkpt>
      <trkpt lat="37.355662" lon="-5.945622">
        <ele>71.250277</ele>
        <time>2020-08-15T09:01:58.625Z</time>
      </trkpt>
      <trkpt lat="37.355736" lon="-5.945730">
        <ele>71.589084</ele>
        <time>2020-08-15T09:02:01.616Z</time>
      </trkpt>
      <trkpt lat="37.355810" lon="-5.945817">
        <ele>71.655480</ele>
        <time>2020-08-15T09:02:04.650Z</time>
      </trkpt>
      <trkpt lat="37.355904" lon="-5.945902">
        <ele>71.536025</ele>
        <time>2020-08-15T09:02:07.626Z</time>
      </trkpt>
      <trkpt lat="37.355977" lon="-5.946021">
        <ele>71.412731</ele>
        <time>2020-08-15T09:02:10.623Z</time>
      </trkpt>
      <trkpt lat="37.356064" lon="-5.946142">
        <ele>71.278905</ele>
        <time>2020-08-15T09:02:13.629Z</time>
      </trkpt>
      <trkpt lat="37.356148" lon="-5.946198">
        <ele>71.180808</ele>
        <time>2020-08-15T09:02:15.636Z</time>
      </trkpt>
      <trkpt lat="37.356217" lon="-5.946274">
        <ele>71.086175</ele>
        <time>2020-08-15T09:02:17.626Z</time>
      </trkpt>
      <trkpt lat="37.356289" lon="-5.946356">
        <ele>70.985957</ele>
        <time>2020-08-15T09:02:19.616Z</time>
      </trkpt>
      <trkpt lat="37.356391" lon="-5.946439">
        <ele>70.860606</ele>
        <time>2020-08-15T09:02:22.618Z</time>
      </trkpt>
      <trkpt lat="37.356461" lon="-5.946530">
        <ele>70.756737</ele>
        <time>2020-08-15T09:02:24.612Z</time>
      </trkpt>
      <trkpt lat="37.356548" lon="-5.946591">
        <ele>70.653962</ele>
        <time>2020-08-15T09:02:26.606Z</time>
      </trkpt>
      <trkpt lat="37.356613" lon="-5.946713">
        <ele>70.533495</ele>
        <time>2020-08-15T09:02:28.608Z</time>
      </trkpt>
      <trkpt lat="37.356701" lon="-5.946811">
        <ele>70.412223</ele>
        <time>2020-08-15T09:02:30.621Z</time>
      </trkpt>
      <trkpt lat="37.356739" lon="-5.946924">
        <ele>70.311585</ele>
        <time>2020-08-15T09:02:32.610Z</time>
      </trkpt>
      <trkpt lat="37.356835" lon="-5.946988">
        <ele>70.199474</ele>
        <time>2020-08-15T09:02:34.622Z</time>
      </trkpt>
      <trkpt lat="37.356919" lon="-5.947053">
        <ele>70.097712</ele>
        <time>2020-08-15T09:02:36.624Z</time>
      </trkpt>
      <trkpt lat="37.356989" lon="-5.947157">
        <ele>69.985935</ele>
        <time>2020-08-15T09:02:38.612Z</time>
      </trkpt>
      <trkpt lat="37.357042" lon="-5.947276">
        <ele>69.874051</ele>
        <time>2020-08-15T09:02:40.619Z</time>
      </trkpt>
      <trkpt lat="37.357121" lon="-5.947395">
        <ele>69.948393</ele>
        <time>2020-08-15T09:02:42.625Z</time>
      </trkpt>
      <trkpt lat="37.357200" lon="-5.947489">
        <ele>70.035830</ele>
        <time>2020-08-15T09:02:44.614Z</time>
      </trkpt>
      <trkpt lat="37.357278" lon="-5.947611">
        <ele>70.135904</ele>
        <time>2020-08-15T09:02:46.621Z</time>
      </trkpt>
      <trkpt lat="37.357347" lon="-5.947737">
        <ele>70.233702</ele>
        <time>2020-08-15T09:02:48.606Z</time>
      </trkpt>
      <trkpt lat="37.357413" lon="-5.947832">
        <ele>70.314348</ele>
        <time>2020-08-15T09:02:50.619Z</time>
      </trkpt>
      <trkpt lat="37.357472" lon="-5.947986">
        <ele>70.423617</ele>
        <time>2020-08-15T09:02:53.621Z</time>
      </trkpt>
      <trkpt lat="37.357560" lon="-5.948031">
        <ele>70.500002</ele>
        <time>2020-08-15T09:02:55.625Z</time>
      </trkpt>
      <trkpt lat="37.357600" lon="-5.948231">
        <ele>70.631820</ele>
        <time>2020-08-15T09:02:57.612Z</time>
      </trkpt>
      <trkpt lat="37.357677" lon="-5.948311">
        <ele>70.712122</ele>
        <time>2020-08-15T09:02:59.626Z</time>
      </trkpt>
      <trkpt lat="37.357747" lon="-5.948444">
        <ele>70.814077</ele>
        <time>2020-08-15T09:03:01.615Z</time>
      </trkpt>
      <trkpt lat="37.357827" lon="-5.948512">
        <ele>70.891714</ele>
        <time>2020-08-15T09:03:03.607Z</time>
      </trkpt>
      <trkpt lat="37.357860" lon="-5.948625">
        <ele>70.968660</ele>
        <time>2020-08-15T09:03:05.625Z</time>
      </trkpt>
      <trkpt lat="37.357932" lon="-5.948700">
        <ele>71.043827</ele>
        <time>2020-08-15T09:03:07.618Z</time>
      </trkpt>
      <trkpt lat="37.358000" lon="-5.948809">
        <ele>71.132391</ele>
        <time>2020-08-15T09:03:09.614Z</time>
      </trkpt>
      <trkpt lat="37.358104" lon="-5.948904">
        <ele>71.235739</ele>
        <time>2020-08-15T09:03:12.607Z</time>
      </trkpt>
      <trkpt lat="37.358167" lon="-5.948992">
        <ele>71.291019</ele>
        <time>2020-08-15T09:03:14.617Z</time>
      </trkpt>
      <trkpt lat="37.358228" lon="-5.949087">
        <ele>71.048442</ele>
        <time>2020-08-15T09:03:16.622Z</time>
      </trkpt>
      <trkpt lat="37.358290" lon="-5.949171">
        <ele>70.820751</ele>
        <time>2020-08-15T09:03:18.611Z</time>
      </trkpt>
      <trkpt lat="37.358328" lon="-5.949286">
        <ele>70.573375</ele>
        <time>2020-08-15T09:03:20.615Z</time>
      </trkpt>
      <trkpt lat="37.358368" lon="-5.949392">
        <ele>70.340305</ele>
        <time>2020-08-15T09:03:22.614Z</time>
      </trkpt>
      <trkpt lat="37.358403" lon="-5.949524">
        <ele>70.063911</ele>
        <time>2020-08-15T09:03:24.622Z</time>
      </trkpt>
      <trkpt lat="37.358448" lon="-5.949625">
        <ele>69.833928</ele>
        <time>2020-08-15T09:03:26.617Z</time>
      </trkpt>
      <trkpt lat="37.358508" lon="-5.949770">
        <ele>69.509226</ele>
        <time>2020-08-15T09:03:29.624Z</time>
      </trkpt>
      <trkpt lat="37.358552" lon="-5.949925">
        <ele>69.182306</ele>
        <time>2020-08-15T09:03:32.624Z</time>
      </trkpt>
      <trkpt lat="37.358588" lon="-5.950031">
        <ele>68.953345</ele>
        <time>2020-08-15T09:03:34.613Z</time>
      </trkpt>
      <trkpt lat="37.358618" lon="-5.950186">
        <ele>68.636474</ele>
        <time>2020-08-15T09:03:37.628Z</time>
      </trkpt>
      <trkpt lat="37.358577" lon="-5.950349">
        <ele>68.296885</ele>
        <time>2020-08-15T09:03:40.599Z</time>
      </trkpt>
      <trkpt lat="37.358540" lon="-5.950483">
        <ele>68.015120</ele>
        <time>2020-08-15T09:03:43.615Z</time>
      </trkpt>
      <trkpt lat="37.358480" lon="-5.950599">
        <ele>67.740221</ele>
        <time>2020-08-15T09:03:46.631Z</time>
      </trkpt>
      <trkpt lat="37.358438" lon="-5.950712">
        <ele>67.492443</ele>
        <time>2020-08-15T09:03:48.623Z</time>
      </trkpt>
      <trkpt lat="37.358385" lon="-5.950846">
        <ele>67.195148</ele>
        <time>2020-08-15T09:03:51.626Z</time>
      </trkpt>
      <trkpt lat="37.358313" lon="-5.950989">
        <ele>66.858917</ele>
        <time>2020-08-15T09:03:54.622Z</time>
      </trkpt>
      <trkpt lat="37.358244" lon="-5.951106">
        <ele>66.310057</ele>
        <time>2020-08-15T09:03:56.612Z</time>
      </trkpt>
      <trkpt lat="37.358215" lon="-5.951241">
        <ele>65.734732</ele>
        <time>2020-08-15T09:03:58.632Z</time>
      </trkpt>
      <trkpt lat="37.358187" lon="-5.951364">
        <ele>65.208357</ele>
        <time>2020-08-15T09:04:00.632Z</time>
      </trkpt>
      <trkpt lat="37.358140" lon="-5.951477">
        <ele>64.683666</ele>
        <time>2020-08-15T09:04:02.621Z</time>
      </trkpt>
      <trkpt lat="37.358084" lon="-5.951642">
        <ele>63.945552</ele>
        <time>2020-08-15T09:04:04.621Z</time>
      </trkpt>
      <trkpt lat="37.358079" lon="-5.951761">
        <ele>63.455293</ele>
        <time>2020-08-15T09:04:06.620Z</time>
      </trkpt>
      <trkpt lat="37.358054" lon="-5.951908">
        <ele>62.836835</ele>
        <time>2020-08-15T09:04:09.624Z</time>
      </trkpt>
      <trkpt lat="37.358045" lon="-5.952031">
        <ele>62.328664</ele>
        <time>2020-08-15T09:04:11.607Z</time>
      </trkpt>
      <trkpt lat="37.358018" lon="-5.952181">
        <ele>61.695926</ele>
        <time>2020-08-15T09:04:13.607Z</time>
      </trkpt>
      <trkpt lat="37.358013" lon="-5.952360">
        <ele>60.959051</ele>
        <time>2020-08-15T09:04:15.610Z</time>
      </trkpt>
      <trkpt lat="37.357979" lon="-5.952540">
        <ele>60.197894</ele>
        <time>2020-08-15T09:04:18.624Z</time>
      </trkpt>
      <trkpt lat="37.357999" lon="-5.952704">
        <ele>59.515289</ele>
        <time>2020-08-15T09:04:21.611Z</time>
      </trkpt>
      <trkpt lat="37.358001" lon="-5.952837">
        <ele>58.968018</ele>
        <time>2020-08-15T09:04:23.615Z</time>
      </trkpt>
      <trkpt lat="37.358051" lon="-5.952941">
        <ele>58.467976</ele>
        <time>2020-08-15T09:04:25.617Z</time>
      </trkpt>
      <trkpt lat="37.358080" lon="-5.953054">
        <ele>57.979454</ele>
        <time>2020-08-15T09:04:27.599Z</time>
      </trkpt>
      <trkpt lat="37.358146" lon="-5.953145">
        <ele>57.500064</ele>
        <time>2020-08-15T09:04:30.608Z</time>
      </trkpt>
      <trkpt lat="37.358232" lon="-5.953202">
        <ele>57.463024</ele>
        <time>2020-08-15T09:04:33.608Z</time>
      </trkpt>
      <trkpt lat="37.358316" lon="-5.953257">
        <ele>57.426940</ele>
        <time>2020-08-15T09:04:36.621Z</time>
      </trkpt>
      <trkpt lat="37.358412" lon="-5.953347">
        <ele>57.381320</ele>
        <time>2020-08-15T09:04:39.619Z</time>
      </trkpt>
      <trkpt lat="37.358484" lon="-5.953421">
        <ele>57.345893</ele>
        <time>2020-08-15T09:04:41.608Z</time>
      </trkpt>
      <trkpt lat="37.358588" lon="-5.953515">
        <ele>57.297096</ele>
        <time>2020-08-15T09:04:44.608Z</time>
      </trkpt>
      <trkpt lat="37.358686" lon="-5.953572">
        <ele>57.255955</ele>
        <time>2020-08-15T09:04:47.595Z</time>
      </trkpt>
      <trkpt lat="37.358807" lon="-5.953557">
        <ele>57.209625</ele>
        <time>2020-08-15T09:04:50.613Z</time>
      </trkpt>
      <trkpt lat="37.358916" lon="-5.953526">
        <ele>57.167042</ele>
        <time>2020-08-15T09:04:52.602Z</time>
      </trkpt>
      <trkpt lat="37.359013" lon="-5.953459">
        <ele>57.124876</ele>
        <time>2020-08-15T09:04:54.615Z</time>
      </trkpt>
      <trkpt lat="37.359099" lon="-5.953373">
        <ele>57.083014</ele>
        <time>2020-08-15T09:04:56.622Z</time>
      </trkpt>
      <trkpt lat="37.359171" lon="-5.953298">
        <ele>57.047395</ele>
        <time>2020-08-15T09:04:58.603Z</time>
      </trkpt>
      <trkpt lat="37.359271" lon="-5.953224">
        <ele>57.003187</ele>
        <time>2020-08-15T09:05:01.626Z</time>
      </trkpt>
      <trkpt lat="37.359477" lon="-5.953067">
        <ele>56.911410</ele>
        <time>2020-08-15T09:05:03.610Z</time>
      </trkpt>
      <trkpt lat="37.359551" lon="-5.952939">
        <ele>56.863472</ele>
        <time>2020-08-15T09:05:05.610Z</time>
      </trkpt>
      <trkpt lat="37.359768" lon="-5.952958">
        <ele>56.808197</ele>
        <time>2020-08-15T09:05:06.635Z</time>
      </trkpt>
      <trkpt lat="37.359963" lon="-5.952479">
        <ele>56.769255</ele>
        <time>2020-08-15T09:05:20.699Z</time>
      </trkpt>
      <trkpt lat="37.359904" lon="-5.952386">
        <ele>56.760645</ele>
        <time>2020-08-15T09:05:22.609Z</time>
      </trkpt>
      <trkpt lat="37.360023" lon="-5.952407">
        <ele>56.749705</ele>
        <time>2020-08-15T09:05:25.610Z</time>
      </trkpt>
      <trkpt lat="37.360112" lon="-5.952347">
        <ele>56.740513</ele>
        <time>2020-08-15T09:05:29.618Z</time>
      </trkpt>
      <trkpt lat="37.360225" lon="-5.952397">
        <ele>56.729608</ele>
        <time>2020-08-15T09:05:37.613Z</time>
      </trkpt>
      <trkpt lat="37.360339" lon="-5.952485">
        <ele>56.717432</ele>
        <time>2020-08-15T09:05:40.615Z</time>
      </trkpt>
      <trkpt lat="37.360413" lon="-5.952574">
        <ele>56.708113</ele>
        <time>2020-08-15T09:05:44.619Z</time>
      </trkpt>
      <trkpt lat="37.360522" lon="-5.952644">
        <ele>56.696972</ele>
        <time>2020-08-15T09:05:49.597Z</time>
      </trkpt>
      <trkpt lat="37.360636" lon="-5.952721">
        <ele>56.685192</ele>
        <time>2020-08-15T09:05:52.613Z</time>
      </trkpt>
      <trkpt lat="37.360705" lon="-5.952826">
        <ele>56.675334</ele>
        <time>2020-08-15T09:05:56.608Z</time>
      </trkpt>
      <trkpt lat="37.360742" lon="-5.952949">
        <ele>56.665818</ele>
        <time>2020-08-15T09:05:59.613Z</time>
      </trkpt>
      <trkpt lat="37.360791" lon="-5.953058">
        <ele>56.656757</ele>
        <time>2020-08-15T09:06:02.616Z</time>
      </trkpt>
      <trkpt lat="37.360853" lon="-5.953142">
        <ele>56.670483</ele>
        <time>2020-08-15T09:06:06.620Z</time>
      </trkpt>
      <trkpt lat="37.360896" lon="-5.953264">
        <ele>56.706461</ele>
        <time>2020-08-15T09:06:10.625Z</time>
      </trkpt>
      <trkpt lat="37.361092" lon="-5.954278">
        <ele>56.987782</ele>
        <time>2020-08-15T09:06:21.613Z</time>
      </trkpt>
      <trkpt lat="37.361088" lon="-5.954431">
        <ele>57.029050</ele>
        <time>2020-08-15T09:06:22.621Z</time>
      </trkpt>
      <trkpt lat="37.361286" lon="-5.954407">
        <ele>57.096516</ele>
        <time>2020-08-15T09:06:23.610Z</time>
      </trkpt>
      <trkpt lat="37.361260" lon="-5.954540">
        <ele>57.133439</ele>
        <time>2020-08-15T09:06:24.608Z</time>
      </trkpt>
      <trkpt lat="37.361295" lon="-5.954728">
        <ele>57.185491</ele>
        <time>2020-08-15T09:06:26.613Z</time>
      </trkpt>
      <trkpt lat="37.361328" lon="-5.954839">
        <ele>57.217439</ele>
        <time>2020-08-15T09:06:28.639Z</time>
      </trkpt>
      <trkpt lat="37.361245" lon="-5.955043">
        <ele>57.315860</ele>
        <time>2020-08-15T09:06:30.613Z</time>
      </trkpt>
      <trkpt lat="37.361203" lon="-5.955160">
        <ele>57.429447</ele>
        <time>2020-08-15T09:06:31.609Z</time>
      </trkpt>
      <trkpt lat="37.361174" lon="-5.955338">
        <ele>57.590212</ele>
        <time>2020-08-15T09:06:33.614Z</time>
      </trkpt>
      <trkpt lat="37.361137" lon="-5.955514">
        <ele>57.751288</ele>
        <time>2020-08-15T09:06:35.630Z</time>
      </trkpt>
      <trkpt lat="37.361097" lon="-5.955668">
        <ele>57.894635</ele>
        <time>2020-08-15T09:06:37.624Z</time>
      </trkpt>
      <trkpt lat="37.361079" lon="-5.955840">
        <ele>58.048130</ele>
        <time>2020-08-15T09:06:39.616Z</time>
      </trkpt>
      <trkpt lat="37.361037" lon="-5.955975">
        <ele>58.176399</ele>
        <time>2020-08-15T09:06:41.609Z</time>
      </trkpt>
      <trkpt lat="37.360976" lon="-5.956121">
        <ele>58.322336</ele>
        <time>2020-08-15T09:06:43.617Z</time>
      </trkpt>
      <trkpt lat="37.360971" lon="-5.956273">
        <ele>58.456938</ele>
        <time>2020-08-15T09:06:46.628Z</time>
      </trkpt>
      <trkpt lat="37.360965" lon="-5.956440">
        <ele>58.604847</ele>
        <time>2020-08-15T09:06:49.610Z</time>
      </trkpt>
      <trkpt lat="37.360920" lon="-5.956539">
        <ele>58.705752</ele>
        <time>2020-08-15T09:06:51.609Z</time>
      </trkpt>
      <trkpt lat="37.360933" lon="-5.956679">
        <ele>58.830464</ele>
        <time>2020-08-15T09:06:54.597Z</time>
      </trkpt>
      <trkpt lat="37.360973" lon="-5.956810">
        <ele>58.954628</ele>
        <time>2020-08-15T09:06:57.603Z</time>
      </trkpt>
      <trkpt lat="37.361031" lon="-5.956931">
        <ele>59.079648</ele>
        <time>2020-08-15T09:07:00.629Z</time>
      </trkpt>
      <trkpt lat="37.361109" lon="-5.957011">
        <ele>59.191671</ele>
        <time>2020-08-15T09:07:03.610Z</time>
      </trkpt>
      <trkpt lat="37.361209" lon="-5.957062">
        <ele>59.314980</ele>
        <time>2020-08-15T09:07:06.607Z</time>
      </trkpt>
      <trkpt lat="37.361303" lon="-5.957119">
        <ele>59.439129</ele>
        <time>2020-08-15T09:07:09.614Z</time>
      </trkpt>
      <trkpt lat="37.361411" lon="-5.957183">
        <ele>59.581162</ele>
        <time>2020-08-15T09:07:12.620Z</time>
      </trkpt>
      <trkpt lat="37.361515" lon="-5.957256">
        <ele>59.722850</ele>
        <time>2020-08-15T09:07:15.623Z</time>
      </trkpt>
      <trkpt lat="37.361579" lon="-5.957363">
        <ele>59.849484</ele>
        <time>2020-08-15T09:07:18.619Z</time>
      </trkpt>
      <trkpt lat="37.361647" lon="-5.957468">
        <ele>59.977563</ele>
        <time>2020-08-15T09:07:21.618Z</time>
      </trkpt>
      <trkpt lat="37.361711" lon="-5.957578">
        <ele>60.106475</ele>
        <time>2020-08-15T09:07:24.627Z</time>
      </trkpt>
      <trkpt lat="37.361777" lon="-5.957686">
        <ele>60.235302</ele>
        <time>2020-08-15T09:07:27.631Z</time>
      </trkpt>
      <trkpt lat="37.361852" lon="-5.957792">
        <ele>60.369503</ele>
        <time>2020-08-15T09:07:30.625Z</time>
      </trkpt>
      <trkpt lat="37.361909" lon="-5.957919">
        <ele>60.507423</ele>
        <time>2020-08-15T09:07:33.629Z</time>
      </trkpt>
      <trkpt lat="37.361944" lon="-5.958055">
        <ele>60.642603</ele>
        <time>2020-08-15T09:07:36.624Z</time>
      </trkpt>
      <trkpt lat="37.361939" lon="-5.958195">
        <ele>60.775126</ele>
        <time>2020-08-15T09:07:40.592Z</time>
      </trkpt>
      <trkpt lat="37.361901" lon="-5.958310">
        <ele>60.892898</ele>
        <time>2020-08-15T09:07:44.608Z</time>
      </trkpt>
      <trkpt lat="37.361818" lon="-5.958369">
        <ele>61.006319</ele>
        <time>2020-08-15T09:07:48.626Z</time>
      </trkpt>
      <trkpt lat="37.361723" lon="-5.958419">
        <ele>61.128837</ele>
        <time>2020-08-15T09:07:54.610Z</time>
      </trkpt>
      <trkpt lat="37.361626" lon="-5.958484">
        <ele>61.259591</ele>
        <time>2020-08-15T09:07:57.635Z</time>
      </trkpt>
      <trkpt lat="37.361522" lon="-5.958553">
        <ele>61.399476</ele>
        <time>2020-08-15T09:08:00.620Z</time>
      </trkpt>
      <trkpt lat="37.361434" lon="-5.958604">
        <ele>61.455760</ele>
        <time>2020-08-15T09:08:03.610Z</time>
      </trkpt>
      <trkpt lat="37.361524" lon="-5.958915">
        <ele>61.600054</ele>
        <time>2020-08-15T09:09:22.609Z</time>
      </trkpt>
      <trkpt lat="37.361565" lon="-5.959019">
        <ele>61.650665</ele>
        <time>2020-08-15T09:09:25.620Z</time>
      </trkpt>
      <trkpt lat="37.361549" lon="-5.959160">
        <ele>61.712760</ele>
        <time>2020-08-15T09:09:28.613Z</time>
      </trkpt>
      <trkpt lat="37.361600" lon="-5.959272">
        <ele>61.769034</ele>
        <time>2020-08-15T09:09:31.626Z</time>
      </trkpt>
      <trkpt lat="37.361667" lon="-5.959356">
        <ele>61.820916</ele>
        <time>2020-08-15T09:09:34.635Z</time>
      </trkpt>
      <trkpt lat="37.361767" lon="-5.959436">
        <ele>61.885916</ele>
        <time>2020-08-15T09:09:37.610Z</time>
      </trkpt>
      <trkpt lat="37.361868" lon="-5.959522">
        <ele>61.952811</ele>
        <time>2020-08-15T09:09:40.639Z</time>
      </trkpt>
      <trkpt lat="37.361941" lon="-5.959590">
        <ele>62.002632</ele>
        <time>2020-08-15T09:09:42.612Z</time>
      </trkpt>
      <trkpt lat="37.362027" lon="-5.959685">
        <ele>62.065406</ele>
        <time>2020-08-15T09:09:45.610Z</time>
      </trkpt>
      <trkpt lat="37.362113" lon="-5.959809">
        <ele>62.137153</ele>
        <time>2020-08-15T09:09:48.605Z</time>
      </trkpt>
      <trkpt lat="37.362198" lon="-5.959928">
        <ele>62.206904</ele>
        <time>2020-08-15T09:09:51.604Z</time>
      </trkpt>
      <trkpt lat="37.362268" lon="-5.960026">
        <ele>62.264346</ele>
        <time>2020-08-15T09:09:54.614Z</time>
      </trkpt>
      <trkpt lat="37.362366" lon="-5.960115">
        <ele>62.330641</ele>
        <time>2020-08-15T09:09:57.619Z</time>
      </trkpt>
      <trkpt lat="37.362461" lon="-5.960214">
        <ele>62.333896</ele>
        <time>2020-08-15T09:10:00.599Z</time>
      </trkpt>
      <trkpt lat="37.362543" lon="-5.960322">
        <ele>61.746286</ele>
        <time>2020-08-15T09:10:03.625Z</time>
      </trkpt>
      <trkpt lat="37.362626" lon="-5.960438">
        <ele>61.132231</ele>
        <time>2020-08-15T09:10:06.612Z</time>
      </trkpt>
      <trkpt lat="37.362696" lon="-5.960517">
        <ele>60.666768</ele>
        <time>2020-08-15T09:10:08.621Z</time>
      </trkpt>
      <trkpt lat="37.362792" lon="-5.960623">
        <ele>60.034537</ele>
        <time>2020-08-15T09:10:11.614Z</time>
      </trkpt>
      <trkpt lat="37.362883" lon="-5.960715">
        <ele>59.456694</ele>
        <time>2020-08-15T09:10:14.614Z</time>
      </trkpt>
      <trkpt lat="37.362963" lon="-5.960816">
        <ele>58.895713</ele>
        <time>2020-08-15T09:10:17.623Z</time>
      </trkpt>
      <trkpt lat="37.363052" lon="-5.960908">
        <ele>58.325554</ele>
        <time>2020-08-15T09:10:20.629Z</time>
      </trkpt>
      <trkpt lat="37.363135" lon="-5.961015">
        <ele>57.737339</ele>
        <time>2020-08-15T09:10:23.622Z</time>
      </trkpt>
      <trkpt lat="37.363222" lon="-5.961116">
        <ele>57.151386</ele>
        <time>2020-08-15T09:10:26.634Z</time>
      </trkpt>
      <trkpt lat="37.363297" lon="-5.961222">
        <ele>56.593059</ele>
        <time>2020-08-15T09:10:29.613Z</time>
      </trkpt>
      <trkpt lat="37.363389" lon="-5.961330">
        <ele>55.970232</ele>
        <time>2020-08-15T09:10:32.625Z</time>
      </trkpt>
      <trkpt lat="37.363482" lon="-5.961448">
        <ele>55.316455</ele>
        <time>2020-08-15T09:10:35.608Z</time>
      </trkpt>
      <trkpt lat="37.363559" lon="-5.961561">
        <ele>54.730874</ele>
        <time>2020-08-15T09:10:38.619Z</time>
      </trkpt>
      <trkpt lat="37.363638" lon="-5.961658">
        <ele>54.184483</ele>
        <time>2020-08-15T09:10:41.623Z</time>
      </trkpt>
      <trkpt lat="37.363701" lon="-5.961756">
        <ele>53.688607</ele>
        <time>2020-08-15T09:10:44.635Z</time>
      </trkpt>
      <trkpt lat="37.363762" lon="-5.961855">
        <ele>53.611059</ele>
        <time>2020-08-15T09:10:47.627Z</time>
      </trkpt>
      <trkpt lat="37.363840" lon="-5.961975">
        <ele>53.865546</ele>
        <time>2020-08-15T09:10:50.625Z</time>
      </trkpt>
      <trkpt lat="37.363913" lon="-5.962103">
        <ele>54.124176</ele>
        <time>2020-08-15T09:10:53.624Z</time>
      </trkpt>
      <trkpt lat="37.363999" lon="-5.962222">
        <ele>54.388216</ele>
        <time>2020-08-15T09:10:56.623Z</time>
      </trkpt>
      <trkpt lat="37.364082" lon="-5.962344">
        <ele>54.651849</ele>
        <time>2020-08-15T09:10:59.628Z</time>
      </trkpt>
      <trkpt lat="37.364167" lon="-5.962448">
        <ele>54.896741</ele>
        <time>2020-08-15T09:11:02.617Z</time>
      </trkpt>
      <trkpt lat="37.364257" lon="-5.962556">
        <ele>55.153628</ele>
        <time>2020-08-15T09:11:05.632Z</time>
      </trkpt>
      <trkpt lat="37.364327" lon="-5.962628">
        <ele>55.340377</ele>
        <time>2020-08-15T09:11:07.617Z</time>
      </trkpt>
      <trkpt lat="37.364431" lon="-5.962723">
        <ele>55.605831</ele>
        <time>2020-08-15T09:11:10.634Z</time>
      </trkpt>
      <trkpt lat="37.364522" lon="-5.962837">
        <ele>55.871071</ele>
        <time>2020-08-15T09:11:13.612Z</time>
      </trkpt>
      <trkpt lat="37.364543" lon="-5.962981">
        <ele>56.111412</ele>
        <time>2020-08-15T09:11:16.597Z</time>
      </trkpt>
      <trkpt lat="37.364576" lon="-5.963134">
        <ele>56.371665</ele>
        <time>2020-08-15T09:11:19.603Z</time>
      </trkpt>
      <trkpt lat="37.364668" lon="-5.963246">
        <ele>56.636080</ele>
        <time>2020-08-15T09:11:22.604Z</time>
      </trkpt>
      <trkpt lat="37.364736" lon="-5.963329">
        <ele>56.831764</ele>
        <time>2020-08-15T09:11:24.626Z</time>
      </trkpt>
      <trkpt lat="37.364804" lon="-5.963408">
        <ele>57.022935</ele>
        <time>2020-08-15T09:11:26.609Z</time>
      </trkpt>
      <trkpt lat="37.364891" lon="-5.963529">
        <ele>57.288995</ele>
        <time>2020-08-15T09:11:29.624Z</time>
      </trkpt>
      <trkpt lat="37.364977" lon="-5.963654">
        <ele>57.554791</ele>
        <time>2020-08-15T09:11:32.615Z</time>
      </trkpt>
      <trkpt lat="37.365069" lon="-5.963748">
        <ele>57.794519</ele>
        <time>2020-08-15T09:11:35.616Z</time>
      </trkpt>
      <trkpt lat="37.365149" lon="-5.963836">
        <ele>58.009466</ele>
        <time>2020-08-15T09:11:38.625Z</time>
      </trkpt>
      <trkpt lat="37.365202" lon="-5.963928">
        <ele>58.192141</ele>
        <time>2020-08-15T09:11:58.606Z</time>
      </trkpt>
      <trkpt lat="37.365285" lon="-5.964023">
        <ele>58.419107</ele>
        <time>2020-08-15T09:12:02.615Z</time>
      </trkpt>
      <trkpt lat="37.365374" lon="-5.964116">
        <ele>58.653126</ele>
        <time>2020-08-15T09:12:06.635Z</time>
      </trkpt>
      <trkpt lat="37.365457" lon="-5.964168">
        <ele>58.840679</ele>
        <time>2020-08-15T09:12:10.626Z</time>
      </trkpt>
      <trkpt lat="37.365543" lon="-5.964244">
        <ele>59.053261</ele>
        <time>2020-08-15T09:12:15.612Z</time>
      </trkpt>
      <trkpt lat="37.365624" lon="-5.964323">
        <ele>59.260567</ele>
        <time>2020-08-15T09:12:18.628Z</time>
      </trkpt>
      <trkpt lat="37.365719" lon="-5.964411">
        <ele>59.499194</ele>
        <time>2020-08-15T09:12:21.615Z</time>
      </trkpt>
      <trkpt lat="37.365817" lon="-5.964517">
        <ele>59.760607</ele>
        <time>2020-08-15T09:12:24.618Z</time>
      </trkpt>
      <trkpt lat="37.365909" lon="-5.964604">
        <ele>59.993405</ele>
        <time>2020-08-15T09:12:27.608Z</time>
      </trkpt>
      <trkpt lat="37.366003" lon="-5.964681">
        <ele>60.220292</ele>
        <time>2020-08-15T09:12:30.614Z</time>
      </trkpt>
      <trkpt lat="37.366073" lon="-5.964791">
        <ele>60.446837</ele>
        <time>2020-08-15T09:12:33.629Z</time>
      </trkpt>
      <trkpt lat="37.366162" lon="-5.964899">
        <ele>60.696950</ele>
        <time>2020-08-15T09:12:36.608Z</time>
      </trkpt>
      <trkpt lat="37.366233" lon="-5.964971">
        <ele>60.786961</ele>
        <time>2020-08-15T09:12:38.609Z</time>
      </trkpt>
      <trkpt lat="37.366330" lon="-5.965035">
        <ele>60.475547</ele>
        <time>2020-08-15T09:12:41.613Z</time>
      </trkpt>
      <trkpt lat="37.366437" lon="-5.965113">
        <ele>60.123949</ele>
        <time>2020-08-15T09:12:44.624Z</time>
      </trkpt>
      <trkpt lat="37.366522" lon="-5.965170">
        <ele>59.850092</ele>
        <time>2020-08-15T09:12:46.628Z</time>
      </trkpt>
      <trkpt lat="37.366596" lon="-5.965236">
        <ele>59.592194</ele>
        <time>2020-08-15T09:12:48.605Z</time>
      </trkpt>
      <trkpt lat="37.366701" lon="-5.965352">
        <ele>59.194907</ele>
        <time>2020-08-15T09:12:51.626Z</time>
      </trkpt>
      <trkpt lat="37.366769" lon="-5.965437">
        <ele>58.922375</ele>
        <time>2020-08-15T09:12:53.625Z</time>
      </trkpt>
      <trkpt lat="37.366873" lon="-5.965533">
        <ele>58.555637</ele>
        <time>2020-08-15T09:12:56.618Z</time>
      </trkpt>
      <trkpt lat="37.366951" lon="-5.965636">
        <ele>58.234147</ele>
        <time>2020-08-15T09:12:59.616Z</time>
      </trkpt>
      <trkpt lat="37.367034" lon="-5.965743">
        <ele>57.896282</ele>
        <time>2020-08-15T09:13:02.624Z</time>
      </trkpt>
      <trkpt lat="37.367132" lon="-5.965854">
        <ele>57.521377</ele>
        <time>2020-08-15T09:13:05.607Z</time>
      </trkpt>
      <trkpt lat="37.367219" lon="-5.965988">
        <ele>57.130383</ele>
        <time>2020-08-15T09:13:08.613Z</time>
      </trkpt>
      <trkpt lat="37.367297" lon="-5.966098">
        <ele>56.797263</ele>
        <time>2020-08-15T09:13:11.617Z</time>
      </trkpt>
      <trkpt lat="37.367407" lon="-5.966192">
        <ele>56.419195</ele>
        <time>2020-08-15T09:13:14.624Z</time>
      </trkpt>
      <trkpt lat="37.367491" lon="-5.966298">
        <ele>56.080943</ele>
        <time>2020-08-15T09:13:17.614Z</time>
      </trkpt>
      <trkpt lat="37.367542" lon="-5.966417">
        <ele>55.775434</ele>
        <time>2020-08-15T09:13:20.621Z</time>
      </trkpt>
      <trkpt lat="37.367622" lon="-5.966519">
        <ele>55.430786</ele>
        <time>2020-08-15T09:13:23.633Z</time>
      </trkpt>
      <trkpt lat="37.367695" lon="-5.966619">
        <ele>55.100859</ele>
        <time>2020-08-15T09:13:26.608Z</time>
      </trkpt>
      <trkpt lat="37.367764" lon="-5.966703">
        <ele>54.807326</ele>
        <time>2020-08-15T09:13:28.633Z</time>
      </trkpt>
      <trkpt lat="37.367837" lon="-5.966801">
        <ele>54.480962</ele>
        <time>2020-08-15T09:13:31.619Z</time>
      </trkpt>
      <trkpt lat="37.367915" lon="-5.966946">
        <ele>54.055519</ele>
        <time>2020-08-15T09:13:34.627Z</time>
      </trkpt>
      <trkpt lat="37.367967" lon="-5.967051">
        <ele>53.754909</ele>
        <time>2020-08-15T09:13:36.616Z</time>
      </trkpt>
      <trkpt lat="37.368045" lon="-5.967183">
        <ele>53.355233</ele>
        <time>2020-08-15T09:13:39.630Z</time>
      </trkpt>
      <trkpt lat="37.368119" lon="-5.967295">
        <ele>53.001333</ele>
        <time>2020-08-15T09:13:42.623Z</time>
      </trkpt>
      <trkpt lat="37.368213" lon="-5.967410">
        <ele>52.600494</ele>
        <time>2020-08-15T09:13:45.617Z</time>
      </trkpt>
      <trkpt lat="37.368307" lon="-5.967498">
        <ele>52.242286</ele>
        <time>2020-08-15T09:13:48.621Z</time>
      </trkpt>
      <trkpt lat="37.368399" lon="-5.967557">
        <ele>51.926586</ele>
        <time>2020-08-15T09:13:50.619Z</time>
      </trkpt>
      <trkpt lat="37.368511" lon="-5.967635">
        <ele>51.535215</ele>
        <time>2020-08-15T09:13:53.620Z</time>
      </trkpt>
      <trkpt lat="37.368604" lon="-5.967716">
        <ele>51.189412</ele>
        <time>2020-08-15T09:13:56.620Z</time>
      </trkpt>
      <trkpt lat="37.368678" lon="-5.967801">
        <ele>50.883076</ele>
        <time>2020-08-15T09:13:59.605Z</time>
      </trkpt>
      <trkpt lat="37.368749" lon="-5.967875">
        <ele>50.601209</ele>
        <time>2020-08-15T09:14:01.619Z</time>
      </trkpt>
      <trkpt lat="37.368847" lon="-5.967984">
        <ele>50.269205</ele>
        <time>2020-08-15T09:14:04.614Z</time>
      </trkpt>
      <trkpt lat="37.368922" lon="-5.968050">
        <ele>50.672330</ele>
        <time>2020-08-15T09:14:06.622Z</time>
      </trkpt>
      <trkpt lat="37.369003" lon="-5.968156">
        <ele>51.187089</ele>
        <time>2020-08-15T09:14:09.612Z</time>
      </trkpt>
      <trkpt lat="37.369055" lon="-5.968274">
        <ele>51.659409</ele>
        <time>2020-08-15T09:14:12.607Z</time>
      </trkpt>
      <trkpt lat="37.369130" lon="-5.968381">
        <ele>52.158836</ele>
        <time>2020-08-15T09:14:15.618Z</time>
      </trkpt>
      <trkpt lat="37.369225" lon="-5.968486">
        <ele>52.715788</ele>
        <time>2020-08-15T09:14:18.610Z</time>
      </trkpt>
      <trkpt lat="37.369296" lon="-5.968589">
        <ele>53.193075</ele>
        <time>2020-08-15T09:14:21.609Z</time>
      </trkpt>
      <trkpt lat="37.369336" lon="-5.968704">
        <ele>53.632507</ele>
        <time>2020-08-15T09:14:25.633Z</time>
      </trkpt>
      <trkpt lat="37.369434" lon="-5.968714">
        <ele>54.065582</ele>
        <time>2020-08-15T09:14:28.596Z</time>
      </trkpt>
      <trkpt lat="37.369506" lon="-5.968783">
        <ele>54.464224</ele>
        <time>2020-08-15T09:14:38.628Z</time>
      </trkpt>
      <trkpt lat="37.369581" lon="-5.968849">
        <ele>54.867348</ele>
        <time>2020-08-15T09:15:13.628Z</time>
      </trkpt>
      <trkpt lat="37.369648" lon="-5.968925">
        <ele>55.264677</ele>
        <time>2020-08-15T09:15:16.628Z</time>
      </trkpt>
      <trkpt lat="37.369736" lon="-5.969017">
        <ele>55.768620</ele>
        <time>2020-08-15T09:15:20.618Z</time>
      </trkpt>
      <trkpt lat="37.369804" lon="-5.969106">
        <ele>56.200792</ele>
        <time>2020-08-15T09:15:24.628Z</time>
      </trkpt>
      <trkpt lat="37.369843" lon="-5.969216">
        <ele>56.622432</ele>
        <time>2020-08-15T09:15:28.625Z</time>
      </trkpt>
      <trkpt lat="37.369827" lon="-5.969327">
        <ele>57.017331</ele>
        <time>2020-08-15T09:15:32.624Z</time>
      </trkpt>
      <trkpt lat="37.369805" lon="-5.969463">
        <ele>57.503166</ele>
        <time>2020-08-15T09:15:36.632Z</time>
      </trkpt>
      <trkpt lat="37.369843" lon="-5.969573">
        <ele>57.923031</ele>
        <time>2020-08-15T09:15:39.614Z</time>
      </trkpt>
      <trkpt lat="37.369930" lon="-5.969687">
        <ele>58.077718</ele>
        <time>2020-08-15T09:15:43.617Z</time>
      </trkpt>
      <trkpt lat="37.370003" lon="-5.969779">
        <ele>57.974241</ele>
        <time>2020-08-15T09:15:46.621Z</time>
      </trkpt>
      <trkpt lat="37.370102" lon="-5.969852">
        <ele>57.859320</ele>
        <time>2020-08-15T09:15:50.627Z</time>
      </trkpt>
      <trkpt lat="37.370181" lon="-5.969946">
        <ele>57.750426</ele>
        <time>2020-08-15T09:15:54.612Z</time>
      </trkpt>
      <trkpt lat="37.370239" lon="-5.970052">
        <ele>57.647993</ele>
        <time>2020-08-15T09:15:57.621Z</time>
      </trkpt>
      <trkpt lat="37.370307" lon="-5.970166">
        <ele>57.534541</ele>
        <time>2020-08-15T09:16:01.613Z</time>
      </trkpt>
      <trkpt lat="37.370402" lon="-5.970271">
        <ele>57.407903</ele>
        <time>2020-08-15T09:16:05.626Z</time>
      </trkpt>
      <trkpt lat="37.370490" lon="-5.970358">
        <ele>57.295820</ele>
        <time>2020-08-15T09:16:08.616Z</time>
      </trkpt>
      <trkpt lat="37.370600" lon="-5.970411">
        <ele>57.177852</ele>
        <time>2020-08-15T09:16:12.625Z</time>
      </trkpt>
      <trkpt lat="37.370676" lon="-5.970474">
        <ele>57.086703</ele>
        <time>2020-08-15T09:16:15.627Z</time>
      </trkpt>
      <trkpt lat="37.370776" lon="-5.970550">
        <ele>56.969700</ele>
        <time>2020-08-15T09:16:18.618Z</time>
      </trkpt>
      <trkpt lat="37.370862" lon="-5.970669">
        <ele>56.841678</ele>
        <time>2020-08-15T09:16:21.626Z</time>
      </trkpt>
      <trkpt lat="37.370937" lon="-5.970784">
        <ele>56.723270</ele>
        <time>2020-08-15T09:16:24.624Z</time>
      </trkpt>
      <trkpt lat="37.371017" lon="-5.970898">
        <ele>56.602222</ele>
        <time>2020-08-15T09:16:27.626Z</time>
      </trkpt>
      <trkpt lat="37.371090" lon="-5.970973">
        <ele>56.507836</ele>
        <time>2020-08-15T09:16:29.625Z</time>
      </trkpt>
      <trkpt lat="37.371167" lon="-5.971037">
        <ele>56.415414</ele>
        <time>2020-08-15T09:16:31.621Z</time>
      </trkpt>
      <trkpt lat="37.371241" lon="-5.971155">
        <ele>56.354401</ele>
        <time>2020-08-15T09:16:34.623Z</time>
      </trkpt>
      <trkpt lat="37.371321" lon="-5.971275">
        <ele>56.364094</ele>
        <time>2020-08-15T09:16:37.612Z</time>
      </trkpt>
      <trkpt lat="37.371406" lon="-5.971377">
        <ele>56.373240</ele>
        <time>2020-08-15T09:16:40.617Z</time>
      </trkpt>
      <trkpt lat="37.371485" lon="-5.971480">
        <ele>56.382099</ele>
        <time>2020-08-15T09:16:43.619Z</time>
      </trkpt>
      <trkpt lat="37.371569" lon="-5.971586">
        <ele>56.391363</ele>
        <time>2020-08-15T09:16:46.620Z</time>
      </trkpt>
      <trkpt lat="37.371659" lon="-5.971689">
        <ele>56.400836</ele>
        <time>2020-08-15T09:16:49.606Z</time>
      </trkpt>
      <trkpt lat="37.371747" lon="-5.971802">
        <ele>56.410627</ele>
        <time>2020-08-15T09:16:52.606Z</time>
      </trkpt>
      <trkpt lat="37.371847" lon="-5.971910">
        <ele>56.420889</ele>
        <time>2020-08-15T09:16:55.634Z</time>
      </trkpt>
      <trkpt lat="37.371905" lon="-5.972016">
        <ele>56.428854</ele>
        <time>2020-08-15T09:16:57.623Z</time>
      </trkpt>
      <trkpt lat="37.371963" lon="-5.972115">
        <ele>56.436465</ele>
        <time>2020-08-15T09:16:59.606Z</time>
      </trkpt>
      <trkpt lat="37.372030" lon="-5.972199">
        <ele>56.443830</ele>
        <time>2020-08-15T09:17:01.619Z</time>
      </trkpt>
      <trkpt lat="37.372126" lon="-5.972296">
        <ele>56.453418</ele>
        <time>2020-08-15T09:17:04.614Z</time>
      </trkpt>
      <trkpt lat="37.372205" lon="-5.972406">
        <ele>56.462593</ele>
        <time>2020-08-15T09:17:07.622Z</time>
      </trkpt>
      <trkpt lat="37.372298" lon="-5.972496">
        <ele>56.471729</ele>
        <time>2020-08-15T09:17:10.617Z</time>
      </trkpt>
      <trkpt lat="37.372378" lon="-5.972576">
        <ele>56.479686</ele>
        <time>2020-08-15T09:17:13.612Z</time>
      </trkpt>
      <trkpt lat="37.372454" lon="-5.972688">
        <ele>56.488800</ele>
        <time>2020-08-15T09:17:16.613Z</time>
      </trkpt>
      <trkpt lat="37.372523" lon="-5.972791">
        <ele>56.902316</ele>
        <time>2020-08-15T09:17:19.612Z</time>
      </trkpt>
      <trkpt lat="37.372611" lon="-5.972878">
        <ele>57.422526</ele>
        <time>2020-08-15T09:17:22.640Z</time>
      </trkpt>
      <trkpt lat="37.372672" lon="-5.972972">
        <ele>57.870835</ele>
        <time>2020-08-15T09:17:25.609Z</time>
      </trkpt>
      <trkpt lat="37.372739" lon="-5.973065">
        <ele>58.334540</ele>
        <time>2020-08-15T09:17:28.625Z</time>
      </trkpt>
      <trkpt lat="37.372826" lon="-5.973127">
        <ele>58.799302</ele>
        <time>2020-08-15T09:17:32.592Z</time>
      </trkpt>
      <trkpt lat="37.372929" lon="-5.973166">
        <ele>59.299292</ele>
        <time>2020-08-15T09:17:36.606Z</time>
      </trkpt>
      <trkpt lat="37.373023" lon="-5.973168">
        <ele>59.736303</ele>
        <time>2020-08-15T09:17:40.599Z</time>
      </trkpt>
      <trkpt lat="37.373119" lon="-5.973205">
        <ele>60.203012</ele>
        <time>2020-08-15T09:17:54.612Z</time>
      </trkpt>
      <trkpt lat="37.373202" lon="-5.973260">
        <ele>60.639055</ele>
        <time>2020-08-15T09:18:12.627Z</time>
      </trkpt>
      <trkpt lat="37.373218" lon="-5.973604">
        <ele>61.911989</ele>
        <time>2020-08-15T09:19:11.614Z</time>
      </trkpt>
      <trkpt lat="37.373163" lon="-5.973724">
        <ele>62.423718</ele>
        <time>2020-08-15T09:19:16.601Z</time>
      </trkpt>
      <trkpt lat="37.373076" lon="-5.973800">
        <ele>62.916027</ele>
        <time>2020-08-15T09:19:19.607Z</time>
      </trkpt>
      <trkpt lat="37.372975" lon="-5.973883">
        <ele>63.476765</ele>
        <time>2020-08-15T09:19:22.620Z</time>
      </trkpt>
      <trkpt lat="37.372891" lon="-5.973973">
        <ele>63.989597</ele>
        <time>2020-08-15T09:19:25.626Z</time>
      </trkpt>
      <trkpt lat="37.372791" lon="-5.974040">
        <ele>64.516221</ele>
        <time>2020-08-15T09:19:28.621Z</time>
      </trkpt>
      <trkpt lat="37.372692" lon="-5.974124">
        <ele>64.781534</ele>
        <time>2020-08-15T09:19:32.610Z</time>
      </trkpt>
      <trkpt lat="37.372673" lon="-5.974236">
        <ele>64.648042</ele>
        <time>2020-08-15T09:19:35.621Z</time>
      </trkpt>
      <trkpt lat="37.372669" lon="-5.974365">
        <ele>64.497560</ele>
        <time>2020-08-15T09:19:38.626Z</time>
      </trkpt>
      <trkpt lat="37.372672" lon="-5.974497">
        <ele>64.343633</ele>
        <time>2020-08-15T09:19:41.617Z</time>
      </trkpt>
      <trkpt lat="37.372670" lon="-5.974641">
        <ele>64.175756</ele>
        <time>2020-08-15T09:19:44.625Z</time>
      </trkpt>
      <trkpt lat="37.372672" lon="-5.974790">
        <ele>64.002052</ele>
        <time>2020-08-15T09:19:47.611Z</time>
      </trkpt>
      <trkpt lat="37.372669" lon="-5.974921">
        <ele>63.849290</ele>
        <time>2020-08-15T09:19:50.614Z</time>
      </trkpt>
      <trkpt lat="37.372665" lon="-5.975075">
        <ele>63.669686</ele>
        <time>2020-08-15T09:19:53.622Z</time>
      </trkpt>
      <trkpt lat="37.372633" lon="-5.975240">
        <ele>63.471712</ele>
        <time>2020-08-15T09:19:56.619Z</time>
      </trkpt>
      <trkpt lat="37.372609" lon="-5.975354">
        <ele>63.334246</ele>
        <time>2020-08-15T09:19:58.627Z</time>
      </trkpt>
      <trkpt lat="37.372581" lon="-5.975466">
        <ele>63.197387</ele>
        <time>2020-08-15T09:20:00.648Z</time>
      </trkpt>
      <trkpt lat="37.372550" lon="-5.975620">
        <ele>63.012209</ele>
        <time>2020-08-15T09:20:03.621Z</time>
      </trkpt>
      <trkpt lat="37.372522" lon="-5.975776">
        <ele>62.825790</ele>
        <time>2020-08-15T09:20:06.607Z</time>
      </trkpt>
      <trkpt lat="37.372517" lon="-5.975916">
        <ele>62.662436</ele>
        <time>2020-08-15T09:20:09.618Z</time>
      </trkpt>
      <trkpt lat="37.372511" lon="-5.976062">
        <ele>62.492025</ele>
        <time>2020-08-15T09:20:12.626Z</time>
      </trkpt>
      <trkpt lat="37.372511" lon="-5.976224">
        <ele>62.303192</ele>
        <time>2020-08-15T09:20:15.626Z</time>
      </trkpt>
      <trkpt lat="37.372525" lon="-5.976338">
        <ele>62.245528</ele>
        <time>2020-08-15T09:20:17.620Z</time>
      </trkpt>
      <trkpt lat="37.372523" lon="-5.976452">
        <ele>62.343935</ele>
        <time>2020-08-15T09:20:19.632Z</time>
      </trkpt>
      <trkpt lat="37.372491" lon="-5.976602">
        <ele>62.477970</ele>
        <time>2020-08-15T09:20:22.610Z</time>
      </trkpt>
      <trkpt lat="37.372512" lon="-5.976738">
        <ele>62.597535</ele>
        <time>2020-08-15T09:20:25.606Z</time>
      </trkpt>
      <trkpt lat="37.372527" lon="-5.976862">
        <ele>62.705781</ele>
        <time>2020-08-15T09:20:28.613Z</time>
      </trkpt>
      <trkpt lat="37.372451" lon="-5.976960">
        <ele>62.823953</ele>
        <time>2020-08-15T09:20:32.603Z</time>
      </trkpt>
      <trkpt lat="37.372401" lon="-5.977085">
        <ele>62.944724</ele>
        <time>2020-08-15T09:20:36.615Z</time>
      </trkpt>
      <trkpt lat="37.372367" lon="-5.977242">
        <ele>63.085157</ele>
        <time>2020-08-15T09:20:39.628Z</time>
      </trkpt>
      <trkpt lat="37.372355" lon="-5.977369">
        <ele>63.195532</ele>
        <time>2020-08-15T09:20:41.613Z</time>
      </trkpt>
      <trkpt lat="37.372347" lon="-5.977525">
        <ele>63.330442</ele>
        <time>2020-08-15T09:20:44.618Z</time>
      </trkpt>
      <trkpt lat="37.372321" lon="-5.977658">
        <ele>63.448645</ele>
        <time>2020-08-15T09:20:47.604Z</time>
      </trkpt>
      <trkpt lat="37.372331" lon="-5.977788">
        <ele>63.561361</ele>
        <time>2020-08-15T09:20:49.609Z</time>
      </trkpt>
      <trkpt lat="37.372313" lon="-5.977923">
        <ele>63.679497</ele>
        <time>2020-08-15T09:20:52.625Z</time>
      </trkpt>
      <trkpt lat="37.372273" lon="-5.978068">
        <ele>63.811959</ele>
        <time>2020-08-15T09:20:55.623Z</time>
      </trkpt>
      <trkpt lat="37.372263" lon="-5.978203">
        <ele>63.928971</ele>
        <time>2020-08-15T09:20:58.631Z</time>
      </trkpt>
      <trkpt lat="37.372331" lon="-5.978299">
        <ele>64.039953</ele>
        <time>2020-08-15T09:21:02.613Z</time>
      </trkpt>
      <trkpt lat="37.372151" lon="-5.978720">
        <ele>63.353668</ele>
        <time>2020-08-15T09:22:01.603Z</time>
      </trkpt>
      <trkpt lat="37.372087" lon="-5.978854">
        <ele>62.970975</ele>
        <time>2020-08-15T09:22:04.602Z</time>
      </trkpt>
      <trkpt lat="37.372038" lon="-5.978998">
        <ele>62.587529</ele>
        <time>2020-08-15T09:22:08.618Z</time>
      </trkpt>
      <trkpt lat="37.372036" lon="-5.979131">
        <ele>62.261904</ele>
        <time>2020-08-15T09:22:10.601Z</time>
      </trkpt>
      <trkpt lat="37.372041" lon="-5.979271">
        <ele>61.918857</ele>
        <time>2020-08-15T09:22:12.630Z</time>
      </trkpt>
      <trkpt lat="37.372060" lon="-5.979415">
        <ele>61.561539</ele>
        <time>2020-08-15T09:22:15.623Z</time>
      </trkpt>
      <trkpt lat="37.372028" lon="-5.979571">
        <ele>61.167156</ele>
        <time>2020-08-15T09:22:18.619Z</time>
      </trkpt>
      <trkpt lat="37.372037" lon="-5.979683">
        <ele>60.891597</ele>
        <time>2020-08-15T09:22:20.631Z</time>
      </trkpt>
      <trkpt lat="37.372057" lon="-5.979798">
        <ele>60.603430</ele>
        <time>2020-08-15T09:22:22.631Z</time>
      </trkpt>
      <trkpt lat="37.372046" lon="-5.979940">
        <ele>60.254186</ele>
        <time>2020-08-15T09:22:25.633Z</time>
      </trkpt>
      <trkpt lat="37.372023" lon="-5.980064">
        <ele>59.942493</ele>
        <time>2020-08-15T09:22:28.625Z</time>
      </trkpt>
      <trkpt lat="37.371997" lon="-5.980230">
        <ele>59.528330</ele>
        <time>2020-08-15T09:22:31.621Z</time>
      </trkpt>
      <trkpt lat="37.371977" lon="-5.980388">
        <ele>59.136691</ele>
        <time>2020-08-15T09:22:34.624Z</time>
      </trkpt>
      <trkpt lat="37.371924" lon="-5.980499">
        <ele>58.819707</ele>
        <time>2020-08-15T09:22:37.609Z</time>
      </trkpt>
      <trkpt lat="37.371876" lon="-5.980611">
        <ele>58.564063</ele>
        <time>2020-08-15T09:22:40.619Z</time>
      </trkpt>
      <trkpt lat="37.371815" lon="-5.980743">
        <ele>58.367624</ele>
        <time>2020-08-15T09:22:43.624Z</time>
      </trkpt>
      <trkpt lat="37.371805" lon="-5.980877">
        <ele>58.194476</ele>
        <time>2020-08-15T09:22:46.621Z</time>
      </trkpt>
      <trkpt lat="37.371802" lon="-5.981031">
        <ele>57.996298</ele>
        <time>2020-08-15T09:22:49.619Z</time>
      </trkpt>
      <trkpt lat="37.371750" lon="-5.981163">
        <ele>57.806763</ele>
        <time>2020-08-15T09:22:52.625Z</time>
      </trkpt>
      <trkpt lat="37.371765" lon="-5.981321">
        <ele>57.602053</ele>
        <time>2020-08-15T09:22:55.603Z</time>
      </trkpt>
      <trkpt lat="37.371769" lon="-5.981466">
        <ele>57.415400</ele>
        <time>2020-08-15T09:22:58.619Z</time>
      </trkpt>
      <trkpt lat="37.371758" lon="-5.981617">
        <ele>57.220326</ele>
        <time>2020-08-15T09:23:01.626Z</time>
      </trkpt>
      <trkpt lat="37.371762" lon="-5.981749">
        <ele>57.050387</ele>
        <time>2020-08-15T09:23:03.621Z</time>
      </trkpt>
      <trkpt lat="37.371775" lon="-5.981864">
        <ele>56.900952</ele>
        <time>2020-08-15T09:23:05.615Z</time>
      </trkpt>
      <trkpt lat="37.371795" lon="-5.981978">
        <ele>56.750761</ele>
        <time>2020-08-15T09:23:07.610Z</time>
      </trkpt>
      <trkpt lat="37.371810" lon="-5.982106">
        <ele>56.584310</ele>
        <time>2020-08-15T09:23:10.618Z</time>
      </trkpt>
      <trkpt lat="37.371822" lon="-5.982227">
        <ele>56.427438</ele>
        <time>2020-08-15T09:23:12.612Z</time>
      </trkpt>
      <trkpt lat="37.371876" lon="-5.982375">
        <ele>56.217930</ele>
        <time>2020-08-15T09:23:14.619Z</time>
      </trkpt>
      <trkpt lat="37.371877" lon="-5.982532">
        <ele>56.015946</ele>
        <time>2020-08-15T09:23:16.608Z</time>
      </trkpt>
      <trkpt lat="37.371900" lon="-5.982650">
        <ele>55.859641</ele>
        <time>2020-08-15T09:23:18.627Z</time>
      </trkpt>
      <trkpt lat="37.371822" lon="-5.982721">
        <ele>55.697917</ele>
        <time>2020-08-15T09:23:19.618Z</time>
      </trkpt>
      <trkpt lat="37.371854" lon="-5.982851">
        <ele>55.424440</ele>
        <time>2020-08-15T09:23:21.626Z</time>
      </trkpt>
      <trkpt lat="37.371844" lon="-5.982970">
        <ele>55.183979</ele>
        <time>2020-08-15T09:23:23.617Z</time>
      </trkpt>
      <trkpt lat="37.371850" lon="-5.983085">
        <ele>54.952391</ele>
        <time>2020-08-15T09:23:25.619Z</time>
      </trkpt>
      <trkpt lat="37.371848" lon="-5.983200">
        <ele>54.721245</ele>
        <time>2020-08-15T09:23:27.625Z</time>
      </trkpt>
      <trkpt lat="37.371877" lon="-5.983315">
        <ele>54.478800</ele>
        <time>2020-08-15T09:23:29.622Z</time>
      </trkpt>
      <trkpt lat="37.371906" lon="-5.983454">
        <ele>54.190017</ele>
        <time>2020-08-15T09:23:31.630Z</time>
      </trkpt>
      <trkpt lat="37.371817" lon="-5.983514">
        <ele>53.934712</ele>
        <time>2020-08-15T09:23:32.615Z</time>
      </trkpt>
      <trkpt lat="37.371876" lon="-5.983606">
        <ele>53.697154</ele>
        <time>2020-08-15T09:23:34.615Z</time>
      </trkpt>
      <trkpt lat="37.371876" lon="-5.983753">
        <ele>53.401760</ele>
        <time>2020-08-15T09:23:37.622Z</time>
      </trkpt>
      <trkpt lat="37.371876" lon="-5.983905">
        <ele>53.096319</ele>
        <time>2020-08-15T09:23:40.596Z</time>
      </trkpt>
      <trkpt lat="37.371888" lon="-5.984085">
        <ele>52.733342</ele>
        <time>2020-08-15T09:23:43.628Z</time>
      </trkpt>
      <trkpt lat="37.371905" lon="-5.984227">
        <ele>52.444776</ele>
        <time>2020-08-15T09:23:45.624Z</time>
      </trkpt>
      <trkpt lat="37.371912" lon="-5.984345">
        <ele>52.206998</ele>
        <time>2020-08-15T09:23:47.594Z</time>
      </trkpt>
      <trkpt lat="37.371922" lon="-5.984481">
        <ele>51.932542</ele>
        <time>2020-08-15T09:23:50.636Z</time>
      </trkpt>
      <trkpt lat="37.371927" lon="-5.984611">
        <ele>51.671004</ele>
        <time>2020-08-15T09:23:53.620Z</time>
      </trkpt>
      <trkpt lat="37.371937" lon="-5.984727">
        <ele>51.436537</ele>
        <time>2020-08-15T09:23:56.627Z</time>
      </trkpt>
      <trkpt lat="37.371959" lon="-5.984868">
        <ele>51.141933</ele>
        <time>2020-08-15T09:23:59.608Z</time>
      </trkpt>
      <trkpt lat="37.371973" lon="-5.984991">
        <ele>50.813170</ele>
        <time>2020-08-15T09:24:02.619Z</time>
      </trkpt>
      <trkpt lat="37.371982" lon="-5.985121">
        <ele>50.467905</ele>
        <time>2020-08-15T09:24:05.620Z</time>
      </trkpt>
      <trkpt lat="37.371947" lon="-5.985240">
        <ele>50.132175</ele>
        <time>2020-08-15T09:24:08.597Z</time>
      </trkpt>
      <trkpt lat="37.371845" lon="-5.985271">
        <ele>49.782817</ele>
        <time>2020-08-15T09:24:13.605Z</time>
      </trkpt>
      <trkpt lat="37.371749" lon="-5.985299">
        <ele>49.454727</ele>
        <time>2020-08-15T09:24:18.603Z</time>
      </trkpt>
      <trkpt lat="37.371741" lon="-5.985451">
        <ele>49.051672</ele>
        <time>2020-08-15T09:24:22.604Z</time>
      </trkpt>
      <trkpt lat="37.371780" lon="-5.985596">
        <ele>48.646644</ele>
        <time>2020-08-15T09:24:25.598Z</time>
      </trkpt>
      <trkpt lat="37.371895" lon="-5.985640">
        <ele>48.246461</ele>
        <time>2020-08-15T09:24:29.612Z</time>
      </trkpt>
      <trkpt lat="37.372001" lon="-5.985609">
        <ele>47.884144</ele>
        <time>2020-08-15T09:24:31.606Z</time>
      </trkpt>
      <trkpt lat="37.372128" lon="-5.985556">
        <ele>47.438670</ele>
        <time>2020-08-15T09:24:33.621Z</time>
      </trkpt>
      <trkpt lat="37.372239" lon="-5.985559">
        <ele>47.069028</ele>
        <time>2020-08-15T09:24:35.617Z</time>
      </trkpt>
      <trkpt lat="37.372344" lon="-5.985565">
        <ele>46.719087</ele>
        <time>2020-08-15T09:24:37.612Z</time>
      </trkpt>
      <trkpt lat="37.372455" lon="-5.985541">
        <ele>46.344114</ele>
        <time>2020-08-15T09:24:39.608Z</time>
      </trkpt>
      <trkpt lat="37.372565" lon="-5.985529">
        <ele>45.976512</ele>
        <time>2020-08-15T09:24:41.613Z</time>
      </trkpt>
      <trkpt lat="37.372695" lon="-5.985503">
        <ele>45.538265</ele>
        <time>2020-08-15T09:24:43.634Z</time>
      </trkpt>
      <trkpt lat="37.372842" lon="-5.985478">
        <ele>45.259403</ele>
        <time>2020-08-15T09:24:46.630Z</time>
      </trkpt>
      <trkpt lat="37.372952" lon="-5.985487">
        <ele>45.483078</ele>
        <time>2020-08-15T09:24:48.614Z</time>
      </trkpt>
      <trkpt lat="37.373080" lon="-5.985481">
        <ele>45.742986</ele>
        <time>2020-08-15T09:24:50.617Z</time>
      </trkpt>
      <trkpt lat="37.373222" lon="-5.985451">
        <ele>46.035154</ele>
        <time>2020-08-15T09:24:52.610Z</time>
      </trkpt>
      <trkpt lat="37.373336" lon="-5.985445">
        <ele>46.266676</ele>
        <time>2020-08-15T09:24:54.632Z</time>
      </trkpt>
      <trkpt lat="37.373450" lon="-5.985429">
        <ele>46.499431</ele>
        <time>2020-08-15T09:24:56.604Z</time>
      </trkpt>
      <trkpt lat="37.373560" lon="-5.985415">
        <ele>46.723773</ele>
        <time>2020-08-15T09:24:58.626Z</time>
      </trkpt>
      <trkpt lat="37.373683" lon="-5.985409">
        <ele>46.973542</ele>
        <time>2020-08-15T09:25:00.604Z</time>
      </trkpt>
      <trkpt lat="37.373787" lon="-5.985408">
        <ele>47.184577</ele>
        <time>2020-08-15T09:25:02.613Z</time>
      </trkpt>
      <trkpt lat="37.373907" lon="-5.985387">
        <ele>47.430415</ele>
        <time>2020-08-15T09:25:04.626Z</time>
      </trkpt>
      <trkpt lat="37.374014" lon="-5.985383">
        <ele>47.647627</ele>
        <time>2020-08-15T09:25:06.618Z</time>
      </trkpt>
      <trkpt lat="37.374123" lon="-5.985362">
        <ele>47.871379</ele>
        <time>2020-08-15T09:25:08.627Z</time>
      </trkpt>
      <trkpt lat="37.374234" lon="-5.985355">
        <ele>48.096894</ele>
        <time>2020-08-15T09:25:10.618Z</time>
      </trkpt>
      <trkpt lat="37.374363" lon="-5.985349">
        <ele>48.358830</ele>
        <time>2020-08-15T09:25:13.624Z</time>
      </trkpt>
      <trkpt lat="37.374483" lon="-5.985327">
        <ele>48.604895</ele>
        <time>2020-08-15T09:25:15.607Z</time>
      </trkpt>
      <trkpt lat="37.374579" lon="-5.985272">
        <ele>48.818930</ele>
        <time>2020-08-15T09:25:17.610Z</time>
      </trkpt>
      <trkpt lat="37.374696" lon="-5.985238">
        <ele>49.114307</ele>
        <time>2020-08-15T09:25:20.614Z</time>
      </trkpt>
      <trkpt lat="37.374832" lon="-5.985179">
        <ele>49.470470</ele>
        <time>2020-08-15T09:25:23.606Z</time>
      </trkpt>
      <trkpt lat="37.374944" lon="-5.985128">
        <ele>49.765362</ele>
        <time>2020-08-15T09:25:26.619Z</time>
      </trkpt>
      <trkpt lat="37.375044" lon="-5.985107">
        <ele>50.016370</ele>
        <time>2020-08-15T09:25:28.617Z</time>
      </trkpt>
      <trkpt lat="37.375146" lon="-5.985051">
        <ele>50.291896</ele>
        <time>2020-08-15T09:25:30.616Z</time>
      </trkpt>
      <trkpt lat="37.375289" lon="-5.985028">
        <ele>50.648822</ele>
        <time>2020-08-15T09:25:33.623Z</time>
      </trkpt>
      <trkpt lat="37.375387" lon="-5.984996">
        <ele>50.899490</ele>
        <time>2020-08-15T09:25:35.619Z</time>
      </trkpt>
      <trkpt lat="37.375509" lon="-5.984955">
        <ele>51.212129</ele>
        <time>2020-08-15T09:25:37.614Z</time>
      </trkpt>
      <trkpt lat="37.375610" lon="-5.984943">
        <ele>51.463302</ele>
        <time>2020-08-15T09:25:39.619Z</time>
      </trkpt>
      <trkpt lat="37.375705" lon="-5.984902">
        <ele>51.711955</ele>
        <time>2020-08-15T09:25:41.616Z</time>
      </trkpt>
      <trkpt lat="37.375794" lon="-5.984866">
        <ele>51.943409</ele>
        <time>2020-08-15T09:25:43.621Z</time>
      </trkpt>
      <trkpt lat="37.375888" lon="-5.984830">
        <ele>52.186678</ele>
        <time>2020-08-15T09:25:45.627Z</time>
      </trkpt>
      <trkpt lat="37.375985" lon="-5.984799">
        <ele>52.434459</ele>
        <time>2020-08-15T09:25:47.627Z</time>
      </trkpt>
      <trkpt lat="37.376109" lon="-5.984776">
        <ele>52.744781</ele>
        <time>2020-08-15T09:25:50.619Z</time>
      </trkpt>
      <trkpt lat="37.376197" lon="-5.984719">
        <ele>52.989824</ele>
        <time>2020-08-15T09:25:52.619Z</time>
      </trkpt>
      <trkpt lat="37.376344" lon="-5.984683">
        <ele>53.328669</ele>
        <time>2020-08-15T09:25:55.616Z</time>
      </trkpt>
      <trkpt lat="37.376472" lon="-5.984633">
        <ele>53.527690</ele>
        <time>2020-08-15T09:25:58.619Z</time>
      </trkpt>
      <trkpt lat="37.376557" lon="-5.984565">
        <ele>53.677259</ele>
        <time>2020-08-15T09:26:00.622Z</time>
      </trkpt>
      <trkpt lat="37.376695" lon="-5.984504">
        <ele>53.894457</ele>
        <time>2020-08-15T09:26:03.623Z</time>
      </trkpt>
      <trkpt lat="37.376806" lon="-5.984451">
        <ele>54.070754</ele>
        <time>2020-08-15T09:26:06.605Z</time>
      </trkpt>
      <trkpt lat="37.376886" lon="-5.984400">
        <ele>54.203924</ele>
        <time>2020-08-15T09:26:09.619Z</time>
      </trkpt>
      <trkpt lat="37.377003" lon="-5.984389">
        <ele>54.378148</ele>
        <time>2020-08-15T09:26:13.621Z</time>
      </trkpt>
      <trkpt lat="37.377103" lon="-5.984371">
        <ele>54.528155</ele>
        <time>2020-08-15T09:26:15.624Z</time>
      </trkpt>
      <trkpt lat="37.377217" lon="-5.984336">
        <ele>54.702405</ele>
        <time>2020-08-15T09:26:17.630Z</time>
      </trkpt>
      <trkpt lat="37.377329" lon="-5.984289">
        <ele>54.877724</ele>
        <time>2020-08-15T09:26:20.611Z</time>
      </trkpt>
      <trkpt lat="37.377433" lon="-5.984267">
        <ele>55.034326</ele>
        <time>2020-08-15T09:26:23.622Z</time>
      </trkpt>
      <trkpt lat="37.377527" lon="-5.984218">
        <ele>55.185414</ele>
        <time>2020-08-15T09:26:26.630Z</time>
      </trkpt>
      <trkpt lat="37.377618" lon="-5.984170">
        <ele>55.331935</ele>
        <time>2020-08-15T09:26:29.614Z</time>
      </trkpt>
      <trkpt lat="37.377728" lon="-5.984117">
        <ele>55.506844</ele>
        <time>2020-08-15T09:26:32.629Z</time>
      </trkpt>
      <trkpt lat="37.377827" lon="-5.984119">
        <ele>55.653873</ele>
        <time>2020-08-15T09:26:35.619Z</time>
      </trkpt>
      <trkpt lat="37.377936" lon="-5.984108">
        <ele>55.816253</ele>
        <time>2020-08-15T09:26:39.599Z</time>
      </trkpt>
      <trkpt lat="37.378023" lon="-5.984202">
        <ele>55.973635</ele>
        <time>2020-08-15T09:26:44.601Z</time>
      </trkpt>
      <trkpt lat="37.378070" lon="-5.984327">
        <ele>56.076372</ele>
        <time>2020-08-15T09:26:47.629Z</time>
      </trkpt>
      <trkpt lat="37.378124" lon="-5.984490">
        <ele>56.207571</ele>
        <time>2020-08-15T09:26:50.619Z</time>
      </trkpt>
      <trkpt lat="37.378170" lon="-5.984620">
        <ele>56.313294</ele>
        <time>2020-08-15T09:26:52.607Z</time>
      </trkpt>
      <trkpt lat="37.378212" lon="-5.984777">
        <ele>56.436365</ele>
        <time>2020-08-15T09:26:55.617Z</time>
      </trkpt>
      <trkpt lat="37.378240" lon="-5.984922">
        <ele>56.547224</ele>
        <time>2020-08-15T09:26:58.620Z</time>
      </trkpt>
      <trkpt lat="37.378280" lon="-5.985061">
        <ele>56.657053</ele>
        <time>2020-08-15T09:27:02.615Z</time>
      </trkpt>
      <trkpt lat="37.378303" lon="-5.985187">
        <ele>56.753099</ele>
        <time>2020-08-15T09:27:06.626Z</time>
      </trkpt>
      <trkpt lat="37.378348" lon="-5.985285">
        <ele>56.837187</ele>
        <time>2020-08-15T09:27:27.612Z</time>
      </trkpt>
      <trkpt lat="37.378385" lon="-5.985449">
        <ele>56.963841</ele>
        <time>2020-08-15T09:27:30.622Z</time>
      </trkpt>
      <trkpt lat="37.378400" lon="-5.985575">
        <ele>57.058494</ele>
        <time>2020-08-15T09:27:32.626Z</time>
      </trkpt>
      <trkpt lat="37.378419" lon="-5.985703">
        <ele>57.155233</ele>
        <time>2020-08-15T09:27:34.632Z</time>
      </trkpt>
      <trkpt lat="37.378457" lon="-5.985818">
        <ele>57.247761</ele>
        <time>2020-08-15T09:27:36.615Z</time>
      </trkpt>
      <trkpt lat="37.378510" lon="-5.985973">
        <ele>57.373122</ele>
        <time>2020-08-15T09:27:39.632Z</time>
      </trkpt>
      <trkpt lat="37.378523" lon="-5.986092">
        <ele>57.462361</ele>
        <time>2020-08-15T09:27:41.611Z</time>
      </trkpt>
      <trkpt lat="37.378548" lon="-5.986251">
        <ele>57.582776</ele>
        <time>2020-08-15T09:27:44.623Z</time>
      </trkpt>
      <trkpt lat="37.378603" lon="-5.986378">
        <ele>57.577668</ele>
        <time>2020-08-15T09:27:47.614Z</time>
      </trkpt>
      <trkpt lat="37.378626" lon="-5.986540">
        <ele>57.458221</ele>
        <time>2020-08-15T09:27:50.623Z</time>
      </trkpt>
      <trkpt lat="37.378651" lon="-5.986705">
        <ele>57.336302</ele>
        <time>2020-08-15T09:27:53.607Z</time>
      </trkpt>
      <trkpt lat="37.378668" lon="-5.986818">
        <ele>57.252826</ele>
        <time>2020-08-15T09:27:55.623Z</time>
      </trkpt>
      <trkpt lat="37.378669" lon="-5.986932">
        <ele>57.170076</ele>
        <time>2020-08-15T09:27:57.628Z</time>
      </trkpt>
      <trkpt lat="37.378725" lon="-5.987074">
        <ele>57.055014</ele>
        <time>2020-08-15T09:28:00.618Z</time>
      </trkpt>
      <trkpt lat="37.378765" lon="-5.987241">
        <ele>56.928414</ele>
        <time>2020-08-15T09:28:03.626Z</time>
      </trkpt>
      <trkpt lat="37.378794" lon="-5.987398">
        <ele>56.811421</ele>
        <time>2020-08-15T09:28:06.624Z</time>
      </trkpt>
      <trkpt lat="37.378835" lon="-5.987541">
        <ele>56.701078</ele>
        <time>2020-08-15T09:28:09.631Z</time>
      </trkpt>
      <trkpt lat="37.378870" lon="-5.987663">
        <ele>56.606933</ele>
        <time>2020-08-15T09:28:11.608Z</time>
      </trkpt>
      <trkpt lat="37.378919" lon="-5.987766">
        <ele>56.519799</ele>
        <time>2020-08-15T09:28:13.626Z</time>
      </trkpt>
      <trkpt lat="37.378968" lon="-5.987912">
        <ele>56.404764</ele>
        <time>2020-08-15T09:28:16.627Z</time>
      </trkpt>
      <trkpt lat="37.378999" lon="-5.988069">
        <ele>56.287344</ele>
        <time>2020-08-15T09:28:19.622Z</time>
      </trkpt>
      <trkpt lat="37.379029" lon="-5.988220">
        <ele>56.174371</ele>
        <time>2020-08-15T09:28:22.603Z</time>
      </trkpt>
      <trkpt lat="37.379080" lon="-5.988332">
        <ele>56.080677</ele>
        <time>2020-08-15T09:28:25.629Z</time>
      </trkpt>
      <trkpt lat="37.379123" lon="-5.988460">
        <ele>55.990402</ele>
        <time>2020-08-15T09:28:28.609Z</time>
      </trkpt>
      <trkpt lat="37.379123" lon="-5.988591">
        <ele>55.990402</ele>
        <time>2020-08-15T09:28:32.609Z</time>
      </trkpt>
      <trkpt lat="37.379040" lon="-5.988652">
        <ele>55.990402</ele>
        <time>2020-08-15T09:28:40.624Z</time>
      </trkpt>
      <trkpt lat="37.378962" lon="-5.988721">
        <ele>55.990402</ele>
        <time>2020-08-15T09:28:44.628Z</time>
      </trkpt>
      <trkpt lat="37.379028" lon="-5.988833">
        <ele>55.990402</ele>
        <time>2020-08-15T09:28:48.611Z</time>
      </trkpt>
      <trkpt lat="37.379000" lon="-5.988947">
        <ele>55.990402</ele>
        <time>2020-08-15T09:28:52.620Z</time>
      </trkpt>
      <trkpt lat="37.378939" lon="-5.989061">
        <ele>55.990402</ele>
        <time>2020-08-15T09:28:56.618Z</time>
      </trkpt>
      <trkpt lat="37.378843" lon="-5.989071">
        <ele>55.990402</ele>
        <time>2020-08-15T09:29:01.611Z</time>
      </trkpt>
      <trkpt lat="37.378738" lon="-5.989078">
        <ele>55.990402</ele>
        <time>2020-08-15T09:29:06.621Z</time>
      </trkpt>
      <trkpt lat="37.378640" lon="-5.989053">
        <ele>55.990402</ele>
        <time>2020-08-15T09:29:10.596Z</time>
      </trkpt>
      <trkpt lat="37.378550" lon="-5.989026">
        <ele>55.990402</ele>
        <time>2020-08-15T09:29:13.611Z</time>
      </trkpt>
      <trkpt lat="37.378464" lon="-5.988988">
        <ele>55.990402</ele>
        <time>2020-08-15T09:29:16.602Z</time>
      </trkpt>
      <trkpt lat="37.378387" lon="-5.988916">
        <ele>55.990402</ele>
        <time>2020-08-15T09:29:20.607Z</time>
      </trkpt>
      <trkpt lat="37.378307" lon="-5.988856">
        <ele>55.990402</ele>
        <time>2020-08-15T09:29:23.603Z</time>
      </trkpt>
      <trkpt lat="37.378219" lon="-5.988789">
        <ele>55.990402</ele>
        <time>2020-08-15T09:29:28.607Z</time>
      </trkpt>
      <trkpt lat="37.378121" lon="-5.988763">
        <ele>55.990402</ele>
        <time>2020-08-15T09:29:32.595Z</time>
      </trkpt>
      <trkpt lat="37.378025" lon="-5.988727">
        <ele>55.990402</ele>
        <time>2020-08-15T09:29:38.626Z</time>
      </trkpt>
      <trkpt lat="37.377926" lon="-5.988658">
        <ele>55.990402</ele>
        <time>2020-08-15T09:29:43.629Z</time>
      </trkpt>
      <trkpt lat="37.377844" lon="-5.988587">
        <ele>55.990402</ele>
        <time>2020-08-15T09:29:48.614Z</time>
      </trkpt>
      <trkpt lat="37.377747" lon="-5.988546">
        <ele>55.990402</ele>
        <time>2020-08-15T09:29:54.609Z</time>
      </trkpt>
      <trkpt lat="37.377654" lon="-5.988487">
        <ele>55.990402</ele>
        <time>2020-08-15T09:30:02.598Z</time>
      </trkpt>
      <trkpt lat="37.377562" lon="-5.988423">
        <ele>55.990402</ele>
        <time>2020-08-15T09:30:08.604Z</time>
      </trkpt>
      <trkpt lat="37.377476" lon="-5.988375">
        <ele>55.990402</ele>
        <time>2020-08-15T09:30:12.624Z</time>
      </trkpt>
      <trkpt lat="37.377412" lon="-5.988295">
        <ele>55.990402</ele>
        <time>2020-08-15T09:30:16.617Z</time>
      </trkpt>
      <trkpt lat="37.377321" lon="-5.988282">
        <ele>55.990402</ele>
        <time>2020-08-15T09:30:22.634Z</time>
      </trkpt>
      <trkpt lat="37.377250" lon="-5.988276">
        <ele>55.990402</ele>
        <time>2020-08-15T09:30:44.316Z</time>
      </trkpt>
      <trkpt lat="37.386700" lon="-5.985894">
        <ele>73.709944</ele>
        <time>2020-08-16T05:20:31.774Z</time>
      </trkpt>
      <trkpt lat="37.386612" lon="-5.985863">
        <ele>73.709944</ele>
        <time>2020-08-16T05:20:58.762Z</time>
      </trkpt>
      <trkpt lat="37.385825" lon="-5.986136">
        <ele>73.600610</ele>
        <time>2020-08-16T05:21:11.776Z</time>
      </trkpt>
      <trkpt lat="37.385725" lon="-5.986248">
        <ele>71.859649</ele>
        <time>2020-08-16T05:21:18.752Z</time>
      </trkpt>
      <trkpt lat="37.385622" lon="-5.986316">
        <ele>70.346966</ele>
        <time>2020-08-16T05:21:21.750Z</time>
      </trkpt>
      <trkpt lat="37.385534" lon="-5.986378">
        <ele>69.035353</ele>
        <time>2020-08-16T05:21:24.773Z</time>
      </trkpt>
      <trkpt lat="37.385457" lon="-5.986475">
        <ele>67.618456</ele>
        <time>2020-08-16T05:21:28.767Z</time>
      </trkpt>
      <trkpt lat="37.385368" lon="-5.986581">
        <ele>66.024833</ele>
        <time>2020-08-16T05:21:32.769Z</time>
      </trkpt>
      <trkpt lat="37.385294" lon="-5.986660">
        <ele>64.762818</ele>
        <time>2020-08-16T05:21:35.777Z</time>
      </trkpt>
      <trkpt lat="37.385248" lon="-5.986761">
        <ele>63.559805</ele>
        <time>2020-08-16T05:21:38.762Z</time>
      </trkpt>
      <trkpt lat="37.385144" lon="-5.986839">
        <ele>61.985277</ele>
        <time>2020-08-16T05:21:41.766Z</time>
      </trkpt>
      <trkpt lat="37.385055" lon="-5.986868">
        <ele>60.789623</ele>
        <time>2020-08-16T05:21:43.750Z</time>
      </trkpt>
      <trkpt lat="37.384965" lon="-5.986897">
        <ele>59.581375</ele>
        <time>2020-08-16T05:21:45.779Z</time>
      </trkpt>
      <trkpt lat="37.384849" lon="-5.986920">
        <ele>58.054131</ele>
        <time>2020-08-16T05:21:48.760Z</time>
      </trkpt>
      <trkpt lat="37.384739" lon="-5.986978">
        <ele>56.503046</ele>
        <time>2020-08-16T05:21:51.767Z</time>
      </trkpt>
      <trkpt lat="37.384634" lon="-5.987056">
        <ele>54.917329</ele>
        <time>2020-08-16T05:21:54.761Z</time>
      </trkpt>
      <trkpt lat="37.384546" lon="-5.987107">
        <ele>53.657329</ele>
        <time>2020-08-16T05:21:56.761Z</time>
      </trkpt>
      <trkpt lat="37.384430" lon="-5.987162">
        <ele>52.045182</ele>
        <time>2020-08-16T05:21:59.761Z</time>
      </trkpt>
      <trkpt lat="37.384327" lon="-5.987192">
        <ele>50.670211</ele>
        <time>2020-08-16T05:22:02.763Z</time>
      </trkpt>
      <trkpt lat="37.384222" lon="-5.987253">
        <ele>50.262552</ele>
        <time>2020-08-16T05:22:06.782Z</time>
      </trkpt>
      <trkpt lat="37.384127" lon="-5.987279">
        <ele>50.201982</ele>
        <time>2020-08-16T05:22:10.763Z</time>
      </trkpt>
      <trkpt lat="37.384040" lon="-5.987237">
        <ele>50.143929</ele>
        <time>2020-08-16T05:22:15.759Z</time>
      </trkpt>
      <trkpt lat="37.384004" lon="-5.987117">
        <ele>50.080432</ele>
        <time>2020-08-16T05:22:24.775Z</time>
      </trkpt>
      <trkpt lat="37.383976" lon="-5.987003">
        <ele>50.021364</ele>
        <time>2020-08-16T05:22:29.770Z</time>
      </trkpt>
      <trkpt lat="37.383947" lon="-5.986894">
        <ele>49.964461</ele>
        <time>2020-08-16T05:22:36.772Z</time>
      </trkpt>
      <trkpt lat="37.383989" lon="-5.987195">
        <ele>49.813175</ele>
        <time>2020-08-16T05:40:37.745Z</time>
      </trkpt>
      <trkpt lat="37.383884" lon="-5.987258">
        <ele>49.740705</ele>
        <time>2020-08-16T05:40:44.770Z</time>
      </trkpt>
      <trkpt lat="37.383821" lon="-5.987355">
        <ele>49.678686</ele>
        <time>2020-08-16T05:40:46.746Z</time>
      </trkpt>
      <trkpt lat="37.383748" lon="-5.987441">
        <ele>49.616390</ele>
        <time>2020-08-16T05:40:48.750Z</time>
      </trkpt>
      <trkpt lat="37.383644" lon="-5.987515">
        <ele>49.541958</ele>
        <time>2020-08-16T05:40:51.760Z</time>
      </trkpt>
      <trkpt lat="37.383530" lon="-5.987495">
        <ele>49.470248</ele>
        <time>2020-08-16T05:40:55.769Z</time>
      </trkpt>
      <trkpt lat="37.383401" lon="-5.987540">
        <ele>49.386849</ele>
        <time>2020-08-16T05:40:58.761Z</time>
      </trkpt>
      <trkpt lat="37.383283" lon="-5.987759">
        <ele>49.255861</ele>
        <time>2020-08-16T05:41:00.751Z</time>
      </trkpt>
      <trkpt lat="37.383193" lon="-5.987826">
        <ele>49.220320</ele>
        <time>2020-08-16T05:41:02.751Z</time>
      </trkpt>
      <trkpt lat="37.383118" lon="-5.987903">
        <ele>49.437795</ele>
        <time>2020-08-16T05:41:04.761Z</time>
      </trkpt>
      <trkpt lat="37.383028" lon="-5.987955">
        <ele>49.660305</ele>
        <time>2020-08-16T05:41:06.762Z</time>
      </trkpt>
      <trkpt lat="37.382935" lon="-5.988028">
        <ele>49.906576</ele>
        <time>2020-08-16T05:41:08.762Z</time>
      </trkpt>
      <trkpt lat="37.382853" lon="-5.988101">
        <ele>50.132256</ele>
        <time>2020-08-16T05:41:10.764Z</time>
      </trkpt>
      <trkpt lat="37.382760" lon="-5.988158">
        <ele>50.364678</ele>
        <time>2020-08-16T05:41:12.763Z</time>
      </trkpt>
      <trkpt lat="37.382668" lon="-5.988204">
        <ele>50.587106</ele>
        <time>2020-08-16T05:41:14.766Z</time>
      </trkpt>
      <trkpt lat="37.382587" lon="-5.988266">
        <ele>50.800120</ele>
        <time>2020-08-16T05:41:16.758Z</time>
      </trkpt>
      <trkpt lat="37.382483" lon="-5.988311">
        <ele>51.047220</ele>
        <time>2020-08-16T05:41:18.770Z</time>
      </trkpt>
      <trkpt lat="37.382390" lon="-5.988368">
        <ele>51.279641</ele>
        <time>2020-08-16T05:41:20.762Z</time>
      </trkpt>
      <trkpt lat="37.382292" lon="-5.988427">
        <ele>51.523732</ele>
        <time>2020-08-16T05:41:22.765Z</time>
      </trkpt>
      <trkpt lat="37.382179" lon="-5.988485">
        <ele>51.797932</ele>
        <time>2020-08-16T05:41:24.771Z</time>
      </trkpt>
      <trkpt lat="37.382080" lon="-5.988541">
        <ele>52.041808</ele>
        <time>2020-08-16T05:41:26.758Z</time>
      </trkpt>
      <trkpt lat="37.381978" lon="-5.988588">
        <ele>52.285867</ele>
        <time>2020-08-16T05:41:28.757Z</time>
      </trkpt>
      <trkpt lat="37.381883" lon="-5.988639">
        <ele>52.517929</ele>
        <time>2020-08-16T05:41:30.762Z</time>
      </trkpt>
      <trkpt lat="37.381794" lon="-5.988704">
        <ele>52.749134</ele>
        <time>2020-08-16T05:41:32.757Z</time>
      </trkpt>
      <trkpt lat="37.381722" lon="-5.988773">
        <ele>52.952473</ele>
        <time>2020-08-16T05:41:34.761Z</time>
      </trkpt>
      <trkpt lat="37.381668" lon="-5.988910">
        <ele>53.225509</ele>
        <time>2020-08-16T05:41:37.754Z</time>
      </trkpt>
      <trkpt lat="37.381622" lon="-5.989051">
        <ele>53.649047</ele>
        <time>2020-08-16T05:41:41.762Z</time>
      </trkpt>
      <trkpt lat="37.381587" lon="-5.989185">
        <ele>54.047991</ele>
        <time>2020-08-16T05:41:44.770Z</time>
      </trkpt>
      <trkpt lat="37.381560" lon="-5.989311">
        <ele>54.417089</ele>
        <time>2020-08-16T05:41:48.754Z</time>
      </trkpt>
      <trkpt lat="37.381540" lon="-5.989459">
        <ele>54.841690</ele>
        <time>2020-08-16T05:41:52.763Z</time>
      </trkpt>
      <trkpt lat="37.381450" lon="-5.989521">
        <ele>55.206888</ele>
        <time>2020-08-16T05:41:58.752Z</time>
      </trkpt>
      <trkpt lat="37.381399" lon="-5.989408">
        <ele>55.574443</ele>
        <time>2020-08-16T05:42:02.752Z</time>
      </trkpt>
      <trkpt lat="37.381381" lon="-5.989285">
        <ele>55.928177</ele>
        <time>2020-08-16T05:42:05.772Z</time>
      </trkpt>
      <trkpt lat="37.381365" lon="-5.989170">
        <ele>56.258383</ele>
        <time>2020-08-16T05:42:08.763Z</time>
      </trkpt>
      <trkpt lat="37.381348" lon="-5.989055">
        <ele>56.589220</ele>
        <time>2020-08-16T05:42:11.765Z</time>
      </trkpt>
      <trkpt lat="37.381265" lon="-5.988983">
        <ele>56.948033</ele>
        <time>2020-08-16T05:42:15.761Z</time>
      </trkpt>
      <trkpt lat="37.381155" lon="-5.989046">
        <ele>57.378204</ele>
        <time>2020-08-16T05:42:18.757Z</time>
      </trkpt>
      <trkpt lat="37.381054" lon="-5.989093">
        <ele>57.761490</ele>
        <time>2020-08-16T05:42:21.744Z</time>
      </trkpt>
      <trkpt lat="37.380969" lon="-5.989027">
        <ele>58.116991</ele>
        <time>2020-08-16T05:42:27.748Z</time>
      </trkpt>
      <trkpt lat="37.380920" lon="-5.988890">
        <ele>58.541916</ele>
        <time>2020-08-16T05:42:31.760Z</time>
      </trkpt>
      <trkpt lat="37.380893" lon="-5.988775">
        <ele>58.881075</ele>
        <time>2020-08-16T05:42:33.759Z</time>
      </trkpt>
      <trkpt lat="37.380868" lon="-5.988659">
        <ele>59.221016</ele>
        <time>2020-08-16T05:42:35.761Z</time>
      </trkpt>
      <trkpt lat="37.380832" lon="-5.988518">
        <ele>59.639892</ele>
        <time>2020-08-16T05:42:38.758Z</time>
      </trkpt>
      <trkpt lat="37.380799" lon="-5.988384">
        <ele>59.492470</ele>
        <time>2020-08-16T05:42:41.764Z</time>
      </trkpt>
      <trkpt lat="37.380737" lon="-5.988281">
        <ele>59.355925</ele>
        <time>2020-08-16T05:42:44.764Z</time>
      </trkpt>
      <trkpt lat="37.380638" lon="-5.988310">
        <ele>59.220751</ele>
        <time>2020-08-16T05:42:47.750Z</time>
      </trkpt>
      <trkpt lat="37.380523" lon="-5.988366">
        <ele>59.056770</ele>
        <time>2020-08-16T05:42:49.752Z</time>
      </trkpt>
      <trkpt lat="37.380419" lon="-5.988424">
        <ele>58.905494</ele>
        <time>2020-08-16T05:42:51.775Z</time>
      </trkpt>
      <trkpt lat="37.380286" lon="-5.988488">
        <ele>58.716136</ele>
        <time>2020-08-16T05:42:53.779Z</time>
      </trkpt>
      <trkpt lat="37.380173" lon="-5.988533">
        <ele>58.558519</ele>
        <time>2020-08-16T05:42:55.789Z</time>
      </trkpt>
      <trkpt lat="37.380038" lon="-5.988578">
        <ele>58.372800</ele>
        <time>2020-08-16T05:42:57.764Z</time>
      </trkpt>
      <trkpt lat="37.379916" lon="-5.988648">
        <ele>58.194492</ele>
        <time>2020-08-16T05:42:59.779Z</time>
      </trkpt>
      <trkpt lat="37.379804" lon="-5.988681">
        <ele>58.041522</ele>
        <time>2020-08-16T05:43:01.768Z</time>
      </trkpt>
      <trkpt lat="37.379690" lon="-5.988685">
        <ele>57.889861</ele>
        <time>2020-08-16T05:43:03.768Z</time>
      </trkpt>
      <trkpt lat="37.379591" lon="-5.988740">
        <ele>57.745948</ele>
        <time>2020-08-16T05:43:07.780Z</time>
      </trkpt>
      <trkpt lat="37.379295" lon="-5.988795">
        <ele>57.348047</ele>
        <time>2020-08-16T05:43:10.757Z</time>
      </trkpt>
      <trkpt lat="37.379176" lon="-5.988759">
        <ele>57.408591</ele>
        <time>2020-08-16T05:43:19.750Z</time>
      </trkpt>
      <trkpt lat="37.379124" lon="-5.988857">
        <ele>57.723410</ele>
        <time>2020-08-16T05:43:22.777Z</time>
      </trkpt>
      <trkpt lat="37.379005" lon="-5.989072">
        <ele>58.423401</ele>
        <time>2020-08-16T05:43:29.772Z</time>
      </trkpt>
      <trkpt lat="37.378953" lon="-5.989187">
        <ele>58.776892</ele>
        <time>2020-08-16T05:43:32.760Z</time>
      </trkpt>
      <trkpt lat="37.378918" lon="-5.989319">
        <ele>59.148655</ele>
        <time>2020-08-16T05:43:35.756Z</time>
      </trkpt>
      <trkpt lat="37.378916" lon="-5.989468">
        <ele>59.546778</ele>
        <time>2020-08-16T05:43:38.764Z</time>
      </trkpt>
      <trkpt lat="37.378831" lon="-5.989536">
        <ele>59.885405</ele>
        <time>2020-08-16T05:43:51.744Z</time>
      </trkpt>
      <trkpt lat="37.378451" lon="-5.989769">
        <ele>61.306553</ele>
        <time>2020-08-16T05:44:37.770Z</time>
      </trkpt>
      <trkpt lat="37.378361" lon="-5.989834">
        <ele>61.655424</ele>
        <time>2020-08-16T05:44:39.775Z</time>
      </trkpt>
      <trkpt lat="37.378257" lon="-5.989959">
        <ele>62.138931</ele>
        <time>2020-08-16T05:44:41.754Z</time>
      </trkpt>
      <trkpt lat="37.378163" lon="-5.990041">
        <ele>62.523466</ele>
        <time>2020-08-16T05:44:43.745Z</time>
      </trkpt>
      <trkpt lat="37.378076" lon="-5.990110">
        <ele>62.869205</ele>
        <time>2020-08-16T05:44:45.776Z</time>
      </trkpt>
      <trkpt lat="37.377975" lon="-5.990203">
        <ele>63.289961</ele>
        <time>2020-08-16T05:44:47.765Z</time>
      </trkpt>
      <trkpt lat="37.377896" lon="-5.990288">
        <ele>63.152172</ele>
        <time>2020-08-16T05:44:49.749Z</time>
      </trkpt>
      <trkpt lat="37.377776" lon="-5.990330">
        <ele>62.977393</ele>
        <time>2020-08-16T05:44:51.756Z</time>
      </trkpt>
      <trkpt lat="37.377680" lon="-5.990382">
        <ele>62.830734</ele>
        <time>2020-08-16T05:44:54.743Z</time>
      </trkpt>
      <trkpt lat="37.377548" lon="-5.990460">
        <ele>62.626103</ele>
        <time>2020-08-16T05:44:57.760Z</time>
      </trkpt>
      <trkpt lat="37.377453" lon="-5.990532">
        <ele>62.470486</ele>
        <time>2020-08-16T05:45:00.765Z</time>
      </trkpt>
      <trkpt lat="37.377358" lon="-5.990599">
        <ele>62.317672</ele>
        <time>2020-08-16T05:45:02.769Z</time>
      </trkpt>
      <trkpt lat="37.377222" lon="-5.990666">
        <ele>62.112729</ele>
        <time>2020-08-16T05:45:05.762Z</time>
      </trkpt>
      <trkpt lat="37.377120" lon="-5.990729">
        <ele>61.953289</ele>
        <time>2020-08-16T05:45:07.769Z</time>
      </trkpt>
      <trkpt lat="37.376983" lon="-5.990817">
        <ele>61.737451</ele>
        <time>2020-08-16T05:45:09.770Z</time>
      </trkpt>
      <trkpt lat="37.376872" lon="-5.990864">
        <ele>61.573111</ele>
        <time>2020-08-16T05:45:11.762Z</time>
      </trkpt>
      <trkpt lat="37.376767" lon="-5.990912">
        <ele>61.416351</ele>
        <time>2020-08-16T05:45:13.764Z</time>
      </trkpt>
      <trkpt lat="37.376665" lon="-5.990996">
        <ele>61.245297</ele>
        <time>2020-08-16T05:45:15.766Z</time>
      </trkpt>
      <trkpt lat="37.376562" lon="-5.991034">
        <ele>61.094681</ele>
        <time>2020-08-16T05:45:17.765Z</time>
      </trkpt>
      <trkpt lat="37.376443" lon="-5.991101">
        <ele>60.911745</ele>
        <time>2020-08-16T05:45:19.761Z</time>
      </trkpt>
      <trkpt lat="37.376336" lon="-5.991149">
        <ele>60.724108</ele>
        <time>2020-08-16T05:45:22.767Z</time>
      </trkpt>
      <trkpt lat="37.376254" lon="-5.991200">
        <ele>60.408897</ele>
        <time>2020-08-16T05:45:24.763Z</time>
      </trkpt>
      <trkpt lat="37.376151" lon="-5.991241">
        <ele>60.036612</ele>
        <time>2020-08-16T05:45:27.761Z</time>
      </trkpt>
      <trkpt lat="37.376056" lon="-5.991141">
        <ele>59.609794</ele>
        <time>2020-08-16T05:45:30.760Z</time>
      </trkpt>
      <trkpt lat="37.375952" lon="-5.991059">
        <ele>59.186859</ele>
        <time>2020-08-16T05:45:33.768Z</time>
      </trkpt>
      <trkpt lat="37.375831" lon="-5.991004">
        <ele>58.743509</ele>
        <time>2020-08-16T05:45:36.747Z</time>
      </trkpt>
      <trkpt lat="37.375643" lon="-5.990993">
        <ele>58.094939</ele>
        <time>2020-08-16T05:45:38.759Z</time>
      </trkpt>
      <trkpt lat="37.375522" lon="-5.991049">
        <ele>57.650652</ele>
        <time>2020-08-16T05:45:40.748Z</time>
      </trkpt>
      <trkpt lat="37.375432" lon="-5.991069">
        <ele>57.335703</ele>
        <time>2020-08-16T05:45:42.763Z</time>
      </trkpt>
      <trkpt lat="37.375341" lon="-5.991136">
        <ele>56.972373</ele>
        <time>2020-08-16T05:45:45.747Z</time>
      </trkpt>
      <trkpt lat="37.375247" lon="-5.991203">
        <ele>56.600083</ele>
        <time>2020-08-16T05:45:48.759Z</time>
      </trkpt>
      <trkpt lat="37.375121" lon="-5.991174">
        <ele>56.158669</ele>
        <time>2020-08-16T05:45:51.748Z</time>
      </trkpt>
      <trkpt lat="37.375015" lon="-5.991112">
        <ele>55.755849</ele>
        <time>2020-08-16T05:45:54.765Z</time>
      </trkpt>
      <trkpt lat="37.374928" lon="-5.991151">
        <ele>55.437581</ele>
        <time>2020-08-16T05:46:00.774Z</time>
      </trkpt>
      <trkpt lat="37.374864" lon="-5.991259">
        <ele>55.068637</ele>
        <time>2020-08-16T05:46:04.754Z</time>
      </trkpt>
      <trkpt lat="37.374794" lon="-5.991352">
        <ele>54.717843</ele>
        <time>2020-08-16T05:46:07.766Z</time>
      </trkpt>
      <trkpt lat="37.374689" lon="-5.991349">
        <ele>54.663420</ele>
        <time>2020-08-16T05:46:11.759Z</time>
      </trkpt>
      <trkpt lat="37.374580" lon="-5.991258">
        <ele>54.849985</ele>
        <time>2020-08-16T05:46:14.770Z</time>
      </trkpt>
      <trkpt lat="37.374498" lon="-5.991191">
        <ele>54.989429</ele>
        <time>2020-08-16T05:46:16.762Z</time>
      </trkpt>
      <trkpt lat="37.374388" lon="-5.991128">
        <ele>55.161802</ele>
        <time>2020-08-16T05:46:18.774Z</time>
      </trkpt>
      <trkpt lat="37.374292" lon="-5.991069">
        <ele>55.314180</ele>
        <time>2020-08-16T05:46:20.748Z</time>
      </trkpt>
      <trkpt lat="37.374195" lon="-5.990990">
        <ele>55.478975</ele>
        <time>2020-08-16T05:46:23.769Z</time>
      </trkpt>
      <trkpt lat="37.374079" lon="-5.990896">
        <ele>55.675757</ele>
        <time>2020-08-16T05:46:26.774Z</time>
      </trkpt>
      <trkpt lat="37.373986" lon="-5.990831">
        <ele>55.827485</ele>
        <time>2020-08-16T05:46:28.758Z</time>
      </trkpt>
      <trkpt lat="37.373878" lon="-5.990771">
        <ele>55.995865</ele>
        <time>2020-08-16T05:46:30.763Z</time>
      </trkpt>
      <trkpt lat="37.373765" lon="-5.990714">
        <ele>56.169498</ele>
        <time>2020-08-16T05:46:32.758Z</time>
      </trkpt>
      <trkpt lat="37.373666" lon="-5.990669">
        <ele>56.319627</ele>
        <time>2020-08-16T05:46:34.766Z</time>
      </trkpt>
      <trkpt lat="37.373560" lon="-5.990598">
        <ele>56.490894</ele>
        <time>2020-08-16T05:46:36.793Z</time>
      </trkpt>
      <trkpt lat="37.373464" lon="-5.990536">
        <ele>56.644794</ele>
        <time>2020-08-16T05:46:38.774Z</time>
      </trkpt>
      <trkpt lat="37.373366" lon="-5.990456">
        <ele>56.811403</ele>
        <time>2020-08-16T05:46:40.785Z</time>
      </trkpt>
      <trkpt lat="37.373256" lon="-5.990391">
        <ele>56.984728</ele>
        <time>2020-08-16T05:46:42.762Z</time>
      </trkpt>
      <trkpt lat="37.373159" lon="-5.990338">
        <ele>57.135554</ele>
        <time>2020-08-16T05:46:44.786Z</time>
      </trkpt>
      <trkpt lat="37.373064" lon="-5.990278">
        <ele>57.118247</ele>
        <time>2020-08-16T05:46:46.771Z</time>
      </trkpt>
      <trkpt lat="37.372969" lon="-5.990214">
        <ele>57.097045</ele>
        <time>2020-08-16T05:46:48.767Z</time>
      </trkpt>
      <trkpt lat="37.372873" lon="-5.990153">
        <ele>57.075884</ele>
        <time>2020-08-16T05:46:50.772Z</time>
      </trkpt>
      <trkpt lat="37.372775" lon="-5.990092">
        <ele>57.054372</ele>
        <time>2020-08-16T05:46:52.766Z</time>
      </trkpt>
      <trkpt lat="37.372682" lon="-5.990036">
        <ele>57.034086</ele>
        <time>2020-08-16T05:46:54.770Z</time>
      </trkpt>
      <trkpt lat="37.372586" lon="-5.989991">
        <ele>57.013929</ele>
        <time>2020-08-16T05:46:56.766Z</time>
      </trkpt>
      <trkpt lat="37.372486" lon="-5.989949">
        <ele>56.993187</ele>
        <time>2020-08-16T05:46:58.770Z</time>
      </trkpt>
      <trkpt lat="37.372388" lon="-5.989903">
        <ele>56.972607</ele>
        <time>2020-08-16T05:47:00.762Z</time>
      </trkpt>
      <trkpt lat="37.372284" lon="-5.989835">
        <ele>56.949546</ele>
        <time>2020-08-16T05:47:02.798Z</time>
      </trkpt>
      <trkpt lat="37.372186" lon="-5.989763">
        <ele>56.927218</ele>
        <time>2020-08-16T05:47:04.760Z</time>
      </trkpt>
      <trkpt lat="37.372087" lon="-5.989699">
        <ele>56.905319</ele>
        <time>2020-08-16T05:47:06.756Z</time>
      </trkpt>
      <trkpt lat="37.371985" lon="-5.989643">
        <ele>56.883422</ele>
        <time>2020-08-16T05:47:08.773Z</time>
      </trkpt>
      <trkpt lat="37.371878" lon="-5.989574">
        <ele>56.859766</ele>
        <time>2020-08-16T05:47:10.743Z</time>
      </trkpt>
      <trkpt lat="37.371770" lon="-5.989514">
        <ele>56.836537</ele>
        <time>2020-08-16T05:47:12.757Z</time>
      </trkpt>
      <trkpt lat="37.371664" lon="-5.989466">
        <ele>56.814371</ele>
        <time>2020-08-16T05:47:14.769Z</time>
      </trkpt>
      <trkpt lat="37.371566" lon="-5.989390">
        <ele>56.791721</ele>
        <time>2020-08-16T05:47:16.756Z</time>
      </trkpt>
      <trkpt lat="37.371473" lon="-5.989356">
        <ele>56.791947</ele>
        <time>2020-08-16T05:47:18.760Z</time>
      </trkpt>
      <trkpt lat="37.371372" lon="-5.989293">
        <ele>56.804933</ele>
        <time>2020-08-16T05:47:20.751Z</time>
      </trkpt>
      <trkpt lat="37.371271" lon="-5.989230">
        <ele>56.817919</ele>
        <time>2020-08-16T05:47:22.756Z</time>
      </trkpt>
      <trkpt lat="37.371175" lon="-5.989165">
        <ele>56.830476</ele>
        <time>2020-08-16T05:47:24.757Z</time>
      </trkpt>
      <trkpt lat="37.371074" lon="-5.989098">
        <ele>56.843629</ele>
        <time>2020-08-16T05:47:26.756Z</time>
      </trkpt>
      <trkpt lat="37.370977" lon="-5.989022">
        <ele>56.856791</ele>
        <time>2020-08-16T05:47:28.757Z</time>
      </trkpt>
      <trkpt lat="37.370874" lon="-5.988951">
        <ele>56.870320</ele>
        <time>2020-08-16T05:47:30.767Z</time>
      </trkpt>
      <trkpt lat="37.370786" lon="-5.988901">
        <ele>56.881443</ele>
        <time>2020-08-16T05:47:32.766Z</time>
      </trkpt>
      <trkpt lat="37.370693" lon="-5.988830">
        <ele>56.893973</ele>
        <time>2020-08-16T05:47:34.753Z</time>
      </trkpt>
      <trkpt lat="37.370593" lon="-5.988781">
        <ele>56.906335</ele>
        <time>2020-08-16T05:47:36.765Z</time>
      </trkpt>
      <trkpt lat="37.370507" lon="-5.988705">
        <ele>56.918441</ele>
        <time>2020-08-16T05:47:38.761Z</time>
      </trkpt>
      <trkpt lat="37.370410" lon="-5.988649">
        <ele>56.930735</ele>
        <time>2020-08-16T05:47:40.760Z</time>
      </trkpt>
      <trkpt lat="37.370321" lon="-5.988573">
        <ele>56.943125</ele>
        <time>2020-08-16T05:47:42.764Z</time>
      </trkpt>
      <trkpt lat="37.370233" lon="-5.988515">
        <ele>56.954568</ele>
        <time>2020-08-16T05:47:44.764Z</time>
      </trkpt>
      <trkpt lat="37.370148" lon="-5.988464">
        <ele>56.965416</ele>
        <time>2020-08-16T05:47:46.783Z</time>
      </trkpt>
      <trkpt lat="37.370053" lon="-5.988460">
        <ele>56.976365</ele>
        <time>2020-08-16T05:47:48.775Z</time>
      </trkpt>
      <trkpt lat="37.369948" lon="-5.988406">
        <ele>56.989432</ele>
        <time>2020-08-16T05:47:50.784Z</time>
      </trkpt>
      <trkpt lat="37.369853" lon="-5.988349">
        <ele>56.982594</ele>
        <time>2020-08-16T05:47:52.765Z</time>
      </trkpt>
      <trkpt lat="37.369778" lon="-5.988270">
        <ele>56.971460</ele>
        <time>2020-08-16T05:47:54.760Z</time>
      </trkpt>
      <trkpt lat="37.369696" lon="-5.988203">
        <ele>56.960329</ele>
        <time>2020-08-16T05:47:56.766Z</time>
      </trkpt>
      <trkpt lat="37.369575" lon="-5.988221">
        <ele>56.946459</ele>
        <time>2020-08-16T05:47:59.769Z</time>
      </trkpt>
      <trkpt lat="37.369463" lon="-5.988136">
        <ele>56.931570</ele>
        <time>2020-08-16T05:48:02.782Z</time>
      </trkpt>
      <trkpt lat="37.369348" lon="-5.988092">
        <ele>56.917886</ele>
        <time>2020-08-16T05:48:05.758Z</time>
      </trkpt>
      <trkpt lat="37.369258" lon="-5.988015">
        <ele>56.905497</ele>
        <time>2020-08-16T05:48:07.781Z</time>
      </trkpt>
      <trkpt lat="37.369168" lon="-5.987961">
        <ele>56.894146</ele>
        <time>2020-08-16T05:48:09.803Z</time>
      </trkpt>
      <trkpt lat="37.369067" lon="-5.987900">
        <ele>56.881393</ele>
        <time>2020-08-16T05:48:11.780Z</time>
      </trkpt>
      <trkpt lat="37.368961" lon="-5.987863">
        <ele>56.868870</ele>
        <time>2020-08-16T05:48:13.775Z</time>
      </trkpt>
      <trkpt lat="37.368826" lon="-5.987802">
        <ele>56.852541</ele>
        <time>2020-08-16T05:48:15.781Z</time>
      </trkpt>
      <trkpt lat="37.368741" lon="-5.987737">
        <ele>56.841218</ele>
        <time>2020-08-16T05:48:17.783Z</time>
      </trkpt>
      <trkpt lat="37.368626" lon="-5.987679">
        <ele>56.827114</ele>
        <time>2020-08-16T05:48:19.771Z</time>
      </trkpt>
      <trkpt lat="37.368517" lon="-5.987638">
        <ele>56.814163</ele>
        <time>2020-08-16T05:48:21.773Z</time>
      </trkpt>
      <trkpt lat="37.368409" lon="-5.987602">
        <ele>56.801445</ele>
        <time>2020-08-16T05:48:24.776Z</time>
      </trkpt>
      <trkpt lat="37.368301" lon="-5.987540">
        <ele>56.787931</ele>
        <time>2020-08-16T05:48:26.763Z</time>
      </trkpt>
      <trkpt lat="37.368122" lon="-5.987425">
        <ele>56.907856</ele>
        <time>2020-08-16T05:48:28.766Z</time>
      </trkpt>
      <trkpt lat="37.368050" lon="-5.987331">
        <ele>56.971977</ele>
        <time>2020-08-16T05:48:30.760Z</time>
      </trkpt>
      <trkpt lat="37.367951" lon="-5.987307">
        <ele>57.034285</ele>
        <time>2020-08-16T05:48:32.761Z</time>
      </trkpt>
      <trkpt lat="37.367872" lon="-5.987238">
        <ele>57.093717</ele>
        <time>2020-08-16T05:48:34.768Z</time>
      </trkpt>
      <trkpt lat="37.367763" lon="-5.987131">
        <ele>57.179156</ele>
        <time>2020-08-16T05:48:37.761Z</time>
      </trkpt>
      <trkpt lat="37.367659" lon="-5.987104">
        <ele>57.244782</ele>
        <time>2020-08-16T05:48:39.771Z</time>
      </trkpt>
      <trkpt lat="37.367555" lon="-5.987056">
        <ele>57.313243</ele>
        <time>2020-08-16T05:48:42.765Z</time>
      </trkpt>
      <trkpt lat="37.367442" lon="-5.987015">
        <ele>57.385923</ele>
        <time>2020-08-16T05:48:44.777Z</time>
      </trkpt>
      <trkpt lat="37.367327" lon="-5.986957">
        <ele>57.462491</ele>
        <time>2020-08-16T05:48:46.760Z</time>
      </trkpt>
      <trkpt lat="37.367220" lon="-5.986850">
        <ele>57.546958</ele>
        <time>2020-08-16T05:48:48.759Z</time>
      </trkpt>
      <trkpt lat="37.367110" lon="-5.986806">
        <ele>57.618292</ele>
        <time>2020-08-16T05:48:50.749Z</time>
      </trkpt>
      <trkpt lat="37.367001" lon="-5.986737">
        <ele>57.693699</ele>
        <time>2020-08-16T05:48:52.762Z</time>
      </trkpt>
      <trkpt lat="37.366907" lon="-5.986684">
        <ele>57.757358</ele>
        <time>2020-08-16T05:48:54.765Z</time>
      </trkpt>
      <trkpt lat="37.366812" lon="-5.986585">
        <ele>57.833591</ele>
        <time>2020-08-16T05:48:56.781Z</time>
      </trkpt>
      <trkpt lat="37.366704" lon="-5.986548">
        <ele>57.898514</ele>
        <time>2020-08-16T05:48:58.762Z</time>
      </trkpt>
      <trkpt lat="37.366588" lon="-5.986470">
        <ele>57.891802</ele>
        <time>2020-08-16T05:49:00.766Z</time>
      </trkpt>
      <trkpt lat="37.366497" lon="-5.986432">
        <ele>57.886909</ele>
        <time>2020-08-16T05:49:02.784Z</time>
      </trkpt>
      <trkpt lat="37.366414" lon="-5.986366">
        <ele>57.881898</ele>
        <time>2020-08-16T05:49:04.763Z</time>
      </trkpt>
      <trkpt lat="37.366316" lon="-5.986312">
        <ele>57.876438</ele>
        <time>2020-08-16T05:49:07.762Z</time>
      </trkpt>
      <trkpt lat="37.366216" lon="-5.986205">
        <ele>57.869738</ele>
        <time>2020-08-16T05:49:10.768Z</time>
      </trkpt>
      <trkpt lat="37.366111" lon="-5.986124">
        <ele>57.863453</ele>
        <time>2020-08-16T05:49:12.769Z</time>
      </trkpt>
      <trkpt lat="37.366013" lon="-5.986098">
        <ele>57.858341</ele>
        <time>2020-08-16T05:49:15.787Z</time>
      </trkpt>
      <trkpt lat="37.365923" lon="-5.986049">
        <ele>57.853337</ele>
        <time>2020-08-16T05:49:17.773Z</time>
      </trkpt>
      <trkpt lat="37.365797" lon="-5.985988">
        <ele>57.846447</ele>
        <time>2020-08-16T05:49:20.769Z</time>
      </trkpt>
      <trkpt lat="37.365689" lon="-5.985916">
        <ele>57.840209</ele>
        <time>2020-08-16T05:49:22.761Z</time>
      </trkpt>
      <trkpt lat="37.365579" lon="-5.985867">
        <ele>57.834254</ele>
        <time>2020-08-16T05:49:24.776Z</time>
      </trkpt>
      <trkpt lat="37.365489" lon="-5.985816">
        <ele>57.829216</ele>
        <time>2020-08-16T05:49:26.764Z</time>
      </trkpt>
      <trkpt lat="37.365388" lon="-5.985732">
        <ele>57.823037</ele>
        <time>2020-08-16T05:49:28.779Z</time>
      </trkpt>
      <trkpt lat="37.365305" lon="-5.985641">
        <ele>57.817419</ele>
        <time>2020-08-16T05:49:30.761Z</time>
      </trkpt>
      <trkpt lat="37.365220" lon="-5.985568">
        <ele>57.812167</ele>
        <time>2020-08-16T05:49:32.787Z</time>
      </trkpt>
      <trkpt lat="37.365097" lon="-5.985527">
        <ele>57.858769</ele>
        <time>2020-08-16T05:49:35.764Z</time>
      </trkpt>
      <trkpt lat="37.365019" lon="-5.985456">
        <ele>58.043977</ele>
        <time>2020-08-16T05:49:37.786Z</time>
      </trkpt>
      <trkpt lat="37.364940" lon="-5.985392">
        <ele>58.224737</ele>
        <time>2020-08-16T05:49:39.771Z</time>
      </trkpt>
      <trkpt lat="37.364854" lon="-5.985323">
        <ele>58.420960</ele>
        <time>2020-08-16T05:49:41.768Z</time>
      </trkpt>
      <trkpt lat="37.364744" lon="-5.985253">
        <ele>58.658106</ele>
        <time>2020-08-16T05:49:43.801Z</time>
      </trkpt>
      <trkpt lat="37.364647" lon="-5.985194">
        <ele>58.865377</ele>
        <time>2020-08-16T05:49:45.778Z</time>
      </trkpt>
      <trkpt lat="37.364540" lon="-5.985152">
        <ele>59.081009</ele>
        <time>2020-08-16T05:49:47.770Z</time>
      </trkpt>
      <trkpt lat="37.364444" lon="-5.985091">
        <ele>59.287911</ele>
        <time>2020-08-16T05:49:49.783Z</time>
      </trkpt>
      <trkpt lat="37.364363" lon="-5.985027">
        <ele>59.471918</ele>
        <time>2020-08-16T05:49:51.763Z</time>
      </trkpt>
      <trkpt lat="37.364272" lon="-5.984988">
        <ele>59.656862</ele>
        <time>2020-08-16T05:49:53.764Z</time>
      </trkpt>
      <trkpt lat="37.364168" lon="-5.984927">
        <ele>59.877610</ele>
        <time>2020-08-16T05:49:55.771Z</time>
      </trkpt>
      <trkpt lat="37.364081" lon="-5.984860">
        <ele>60.073845</ele>
        <time>2020-08-16T05:49:57.791Z</time>
      </trkpt>
      <trkpt lat="37.363969" lon="-5.984793">
        <ele>60.312426</ele>
        <time>2020-08-16T05:49:59.788Z</time>
      </trkpt>
      <trkpt lat="37.363875" lon="-5.984755">
        <ele>60.502369</ele>
        <time>2020-08-16T05:50:01.776Z</time>
      </trkpt>
      <trkpt lat="37.363769" lon="-5.984759">
        <ele>60.706384</ele>
        <time>2020-08-16T05:50:04.767Z</time>
      </trkpt>
      <trkpt lat="37.363693" lon="-5.984656">
        <ele>60.921281</ele>
        <time>2020-08-16T05:50:07.756Z</time>
      </trkpt>
      <trkpt lat="37.363613" lon="-5.984581">
        <ele>61.113212</ele>
        <time>2020-08-16T05:50:10.774Z</time>
      </trkpt>
      <trkpt lat="37.363507" lon="-5.984562">
        <ele>61.312186</ele>
        <time>2020-08-16T05:50:14.780Z</time>
      </trkpt>
      <trkpt lat="37.363395" lon="-5.984538">
        <ele>61.501244</ele>
        <time>2020-08-16T05:50:18.775Z</time>
      </trkpt>
      <trkpt lat="37.363341" lon="-5.984395">
        <ele>61.710636</ele>
        <time>2020-08-16T05:50:20.759Z</time>
      </trkpt>
      <trkpt lat="37.363251" lon="-5.984387">
        <ele>61.860774</ele>
        <time>2020-08-16T05:50:22.783Z</time>
      </trkpt>
      <trkpt lat="37.363148" lon="-5.984325">
        <ele>62.050777</ele>
        <time>2020-08-16T05:50:24.785Z</time>
      </trkpt>
      <trkpt lat="37.363053" lon="-5.984259">
        <ele>62.231362</ele>
        <time>2020-08-16T05:50:26.760Z</time>
      </trkpt>
      <trkpt lat="37.362947" lon="-5.984179">
        <ele>62.437052</ele>
        <time>2020-08-16T05:50:28.774Z</time>
      </trkpt>
      <trkpt lat="37.362815" lon="-5.984135">
        <ele>62.664286</ele>
        <time>2020-08-16T05:50:30.801Z</time>
      </trkpt>
      <trkpt lat="37.362703" lon="-5.984059">
        <ele>62.876038</ele>
        <time>2020-08-16T05:50:32.768Z</time>
      </trkpt>
      <trkpt lat="37.362476" lon="-5.983889">
        <ele>63.315631</ele>
        <time>2020-08-16T05:50:36.785Z</time>
      </trkpt>
      <trkpt lat="37.362363" lon="-5.983891">
        <ele>63.503688</ele>
        <time>2020-08-16T05:50:38.767Z</time>
      </trkpt>
      <trkpt lat="37.362253" lon="-5.983829">
        <ele>63.704262</ele>
        <time>2020-08-16T05:50:40.787Z</time>
      </trkpt>
      <trkpt lat="37.362153" lon="-5.983831">
        <ele>63.870688</ele>
        <time>2020-08-16T05:50:42.783Z</time>
      </trkpt>
      <trkpt lat="37.362040" lon="-5.983757">
        <ele>64.082673</ele>
        <time>2020-08-16T05:50:44.780Z</time>
      </trkpt>
      <trkpt lat="37.361912" lon="-5.983631">
        <ele>64.224642</ele>
        <time>2020-08-16T05:50:46.777Z</time>
      </trkpt>
      <trkpt lat="37.361850" lon="-5.983543">
        <ele>64.164834</ele>
        <time>2020-08-16T05:50:47.773Z</time>
      </trkpt>
      <trkpt lat="37.361747" lon="-5.983492">
        <ele>64.094005</ele>
        <time>2020-08-16T05:50:49.778Z</time>
      </trkpt>
      <trkpt lat="37.361644" lon="-5.983422">
        <ele>64.019095</ele>
        <time>2020-08-16T05:50:51.781Z</time>
      </trkpt>
      <trkpt lat="37.361553" lon="-5.983415">
        <ele>63.960757</ele>
        <time>2020-08-16T05:50:53.755Z</time>
      </trkpt>
      <trkpt lat="37.361467" lon="-5.983313">
        <ele>63.885129</ele>
        <time>2020-08-16T05:50:55.779Z</time>
      </trkpt>
      <trkpt lat="37.361370" lon="-5.983259">
        <ele>63.817255</ele>
        <time>2020-08-16T05:50:57.784Z</time>
      </trkpt>
      <trkpt lat="37.361245" lon="-5.983177">
        <ele>63.727049</ele>
        <time>2020-08-16T05:50:59.776Z</time>
      </trkpt>
      <trkpt lat="37.361131" lon="-5.983104">
        <ele>63.645197</ele>
        <time>2020-08-16T05:51:01.781Z</time>
      </trkpt>
      <trkpt lat="37.361035" lon="-5.983037">
        <ele>63.574949</ele>
        <time>2020-08-16T05:51:03.781Z</time>
      </trkpt>
      <trkpt lat="37.360929" lon="-5.982973">
        <ele>63.499715</ele>
        <time>2020-08-16T05:51:05.769Z</time>
      </trkpt>
      <trkpt lat="37.360822" lon="-5.982922">
        <ele>63.426498</ele>
        <time>2020-08-16T05:51:07.757Z</time>
      </trkpt>
      <trkpt lat="37.360733" lon="-5.982864">
        <ele>63.362361</ele>
        <time>2020-08-16T05:51:09.785Z</time>
      </trkpt>
      <trkpt lat="37.360634" lon="-5.982796">
        <ele>63.290186</ele>
        <time>2020-08-16T05:51:11.776Z</time>
      </trkpt>
      <trkpt lat="37.360539" lon="-5.982732">
        <ele>63.221230</ele>
        <time>2020-08-16T05:51:13.786Z</time>
      </trkpt>
      <trkpt lat="37.360442" lon="-5.982684">
        <ele>63.154533</ele>
        <time>2020-08-16T05:51:15.788Z</time>
      </trkpt>
      <trkpt lat="37.360350" lon="-5.982625">
        <ele>63.092279</ele>
        <time>2020-08-16T05:51:17.779Z</time>
      </trkpt>
      <trkpt lat="37.360260" lon="-5.982574">
        <ele>63.040651</ele>
        <time>2020-08-16T05:51:19.761Z</time>
      </trkpt>
      <trkpt lat="37.360160" lon="-5.982571">
        <ele>62.988332</ele>
        <time>2020-08-16T05:51:21.743Z</time>
      </trkpt>
      <trkpt lat="37.360042" lon="-5.982553">
        <ele>62.926161</ele>
        <time>2020-08-16T05:51:24.755Z</time>
      </trkpt>
      <trkpt lat="37.359942" lon="-5.982458">
        <ele>62.860620</ele>
        <time>2020-08-16T05:51:27.782Z</time>
      </trkpt>
      <trkpt lat="37.359835" lon="-5.982358">
        <ele>62.790903</ele>
        <time>2020-08-16T05:51:30.773Z</time>
      </trkpt>
      <trkpt lat="37.359743" lon="-5.982287">
        <ele>62.734451</ele>
        <time>2020-08-16T05:51:32.769Z</time>
      </trkpt>
      <trkpt lat="37.359630" lon="-5.982236">
        <ele>62.671659</ele>
        <time>2020-08-16T05:51:34.773Z</time>
      </trkpt>
      <trkpt lat="37.359523" lon="-5.982184">
        <ele>62.611663</ele>
        <time>2020-08-16T05:51:36.768Z</time>
      </trkpt>
      <trkpt lat="37.359420" lon="-5.982106">
        <ele>62.548783</ele>
        <time>2020-08-16T05:51:38.781Z</time>
      </trkpt>
      <trkpt lat="37.359347" lon="-5.982002">
        <ele>62.491101</ele>
        <time>2020-08-16T05:51:40.770Z</time>
      </trkpt>
      <trkpt lat="37.359233" lon="-5.981958">
        <ele>62.428731</ele>
        <time>2020-08-16T05:51:42.768Z</time>
      </trkpt>
      <trkpt lat="37.359129" lon="-5.981904">
        <ele>62.369884</ele>
        <time>2020-08-16T05:51:44.765Z</time>
      </trkpt>
      <trkpt lat="37.359032" lon="-5.981835">
        <ele>62.311601</ele>
        <time>2020-08-16T05:51:46.778Z</time>
      </trkpt>
      <trkpt lat="37.358926" lon="-5.981797">
        <ele>62.253951</ele>
        <time>2020-08-16T05:51:48.770Z</time>
      </trkpt>
      <trkpt lat="37.358813" lon="-5.981741">
        <ele>62.190427</ele>
        <time>2020-08-16T05:51:51.779Z</time>
      </trkpt>
      <trkpt lat="37.358687" lon="-5.981666">
        <ele>62.087703</ele>
        <time>2020-08-16T05:51:54.763Z</time>
      </trkpt>
      <trkpt lat="37.358579" lon="-5.981582">
        <ele>61.982543</ele>
        <time>2020-08-16T05:51:56.779Z</time>
      </trkpt>
      <trkpt lat="37.358487" lon="-5.981530">
        <ele>61.899011</ele>
        <time>2020-08-16T05:51:58.764Z</time>
      </trkpt>
      <trkpt lat="37.358406" lon="-5.981443">
        <ele>61.810804</ele>
        <time>2020-08-16T05:52:00.783Z</time>
      </trkpt>
      <trkpt lat="37.358300" lon="-5.981380">
        <ele>61.713711</ele>
        <time>2020-08-16T05:52:02.760Z</time>
      </trkpt>
      <trkpt lat="37.358212" lon="-5.981304">
        <ele>61.625308</ele>
        <time>2020-08-16T05:52:04.777Z</time>
      </trkpt>
      <trkpt lat="37.358080" lon="-5.981235">
        <ele>61.506924</ele>
        <time>2020-08-16T05:52:07.769Z</time>
      </trkpt>
      <trkpt lat="37.357959" lon="-5.981184">
        <ele>61.401236</ele>
        <time>2020-08-16T05:52:10.757Z</time>
      </trkpt>
      <trkpt lat="37.357850" lon="-5.981182">
        <ele>61.310952</ele>
        <time>2020-08-16T05:52:14.768Z</time>
      </trkpt>
      <trkpt lat="37.357761" lon="-5.981129">
        <ele>61.229400</ele>
        <time>2020-08-16T05:52:18.777Z</time>
      </trkpt>
      <trkpt lat="37.357678" lon="-5.981058">
        <ele>61.146274</ele>
        <time>2020-08-16T05:52:22.766Z</time>
      </trkpt>
      <trkpt lat="37.357575" lon="-5.981024">
        <ele>61.058081</ele>
        <time>2020-08-16T05:52:25.757Z</time>
      </trkpt>
      <trkpt lat="37.357461" lon="-5.980974">
        <ele>60.958092</ele>
        <time>2020-08-16T05:52:28.764Z</time>
      </trkpt>
      <trkpt lat="37.357369" lon="-5.980929">
        <ele>60.876340</ele>
        <time>2020-08-16T05:52:30.784Z</time>
      </trkpt>
      <trkpt lat="37.357255" lon="-5.980861">
        <ele>60.771850</ele>
        <time>2020-08-16T05:52:33.780Z</time>
      </trkpt>
      <trkpt lat="37.357122" lon="-5.980859">
        <ele>60.722541</ele>
        <time>2020-08-16T05:52:36.756Z</time>
      </trkpt>
      <trkpt lat="37.357022" lon="-5.980823">
        <ele>60.939693</ele>
        <time>2020-08-16T05:52:38.763Z</time>
      </trkpt>
      <trkpt lat="37.356894" lon="-5.980781">
        <ele>61.215863</ele>
        <time>2020-08-16T05:52:41.798Z</time>
      </trkpt>
      <trkpt lat="37.356791" lon="-5.980756">
        <ele>61.434865</ele>
        <time>2020-08-16T05:52:44.761Z</time>
      </trkpt>
      <trkpt lat="37.356673" lon="-5.980704">
        <ele>61.695894</ele>
        <time>2020-08-16T05:52:47.775Z</time>
      </trkpt>
      <trkpt lat="37.356604" lon="-5.980624">
        <ele>61.891792</ele>
        <time>2020-08-16T05:52:49.748Z</time>
      </trkpt>
      <trkpt lat="37.356531" lon="-5.980493">
        <ele>62.157286</ele>
        <time>2020-08-16T05:52:51.750Z</time>
      </trkpt>
      <trkpt lat="37.356452" lon="-5.980428">
        <ele>62.354358</ele>
        <time>2020-08-16T05:52:53.758Z</time>
      </trkpt>
      <trkpt lat="37.356334" lon="-5.980347">
        <ele>62.634996</ele>
        <time>2020-08-16T05:52:56.764Z</time>
      </trkpt>
      <trkpt lat="37.356251" lon="-5.980304">
        <ele>62.822396</ele>
        <time>2020-08-16T05:52:58.769Z</time>
      </trkpt>
      <trkpt lat="37.356153" lon="-5.980294">
        <ele>63.027666</ele>
        <time>2020-08-16T05:53:00.753Z</time>
      </trkpt>
      <trkpt lat="37.356064" lon="-5.980353">
        <ele>63.237692</ele>
        <time>2020-08-16T05:53:02.763Z</time>
      </trkpt>
      <trkpt lat="37.355928" lon="-5.980348">
        <ele>63.521745</ele>
        <time>2020-08-16T05:53:05.788Z</time>
      </trkpt>
      <trkpt lat="37.355832" lon="-5.980255">
        <ele>63.774704</ele>
        <time>2020-08-16T05:53:07.797Z</time>
      </trkpt>
      <trkpt lat="37.355780" lon="-5.980139">
        <ele>63.995708</ele>
        <time>2020-08-16T05:53:09.770Z</time>
      </trkpt>
      <trkpt lat="37.355735" lon="-5.980011">
        <ele>64.227973</ele>
        <time>2020-08-16T05:53:11.762Z</time>
      </trkpt>
      <trkpt lat="37.355676" lon="-5.979907">
        <ele>64.434055</ele>
        <time>2020-08-16T05:53:13.790Z</time>
      </trkpt>
      <trkpt lat="37.355578" lon="-5.979846">
        <ele>64.433844</ele>
        <time>2020-08-16T05:53:15.782Z</time>
      </trkpt>
      <trkpt lat="37.355480" lon="-5.979794">
        <ele>64.433638</ele>
        <time>2020-08-16T05:53:17.763Z</time>
      </trkpt>
      <trkpt lat="37.355395" lon="-5.979736">
        <ele>64.433451</ele>
        <time>2020-08-16T05:53:19.780Z</time>
      </trkpt>
      <trkpt lat="37.355306" lon="-5.979657">
        <ele>64.433241</ele>
        <time>2020-08-16T05:53:21.775Z</time>
      </trkpt>
      <trkpt lat="37.355200" lon="-5.979596">
        <ele>64.433016</ele>
        <time>2020-08-16T05:53:23.780Z</time>
      </trkpt>
      <trkpt lat="37.355085" lon="-5.979532">
        <ele>64.432773</ele>
        <time>2020-08-16T05:53:25.757Z</time>
      </trkpt>
      <trkpt lat="37.354983" lon="-5.979484">
        <ele>64.432562</ele>
        <time>2020-08-16T05:53:27.771Z</time>
      </trkpt>
      <trkpt lat="37.354884" lon="-5.979429">
        <ele>64.432353</ele>
        <time>2020-08-16T05:53:29.762Z</time>
      </trkpt>
      <trkpt lat="37.354793" lon="-5.979373">
        <ele>64.432158</ele>
        <time>2020-08-16T05:53:31.759Z</time>
      </trkpt>
      <trkpt lat="37.354677" lon="-5.979301">
        <ele>64.431908</ele>
        <time>2020-08-16T05:53:35.760Z</time>
      </trkpt>
      <trkpt lat="37.354611" lon="-5.979219">
        <ele>64.431729</ele>
        <time>2020-08-16T05:53:37.753Z</time>
      </trkpt>
      <trkpt lat="37.354491" lon="-5.979176">
        <ele>64.431488</ele>
        <time>2020-08-16T05:53:39.772Z</time>
      </trkpt>
      <trkpt lat="37.354396" lon="-5.979127">
        <ele>64.431289</ele>
        <time>2020-08-16T05:53:41.759Z</time>
      </trkpt>
      <trkpt lat="37.354291" lon="-5.979044">
        <ele>64.431050</ele>
        <time>2020-08-16T05:53:43.788Z</time>
      </trkpt>
      <trkpt lat="37.354189" lon="-5.978987">
        <ele>64.430834</ele>
        <time>2020-08-16T05:53:45.775Z</time>
      </trkpt>
      <trkpt lat="37.354089" lon="-5.978915">
        <ele>64.430611</ele>
        <time>2020-08-16T05:53:47.761Z</time>
      </trkpt>
      <trkpt lat="37.353993" lon="-5.978866">
        <ele>64.373217</ele>
        <time>2020-08-16T05:53:49.762Z</time>
      </trkpt>
      <trkpt lat="37.353893" lon="-5.978804">
        <ele>64.302365</ele>
        <time>2020-08-16T05:53:51.758Z</time>
      </trkpt>
      <trkpt lat="37.353797" lon="-5.978750">
        <ele>64.235533</ele>
        <time>2020-08-16T05:53:53.779Z</time>
      </trkpt>
      <trkpt lat="37.353696" lon="-5.978676">
        <ele>64.161252</ele>
        <time>2020-08-16T05:53:55.784Z</time>
      </trkpt>
      <trkpt lat="37.353600" lon="-5.978644">
        <ele>64.098136</ele>
        <time>2020-08-16T05:53:57.767Z</time>
      </trkpt>
      <trkpt lat="37.353512" lon="-5.978583">
        <ele>64.034281</ele>
        <time>2020-08-16T05:53:59.780Z</time>
      </trkpt>
      <trkpt lat="37.353414" lon="-5.978529">
        <ele>63.966287</ele>
        <time>2020-08-16T05:54:01.775Z</time>
      </trkpt>
      <trkpt lat="37.353321" lon="-5.978479">
        <ele>63.902011</ele>
        <time>2020-08-16T05:54:03.764Z</time>
      </trkpt>
      <trkpt lat="37.353238" lon="-5.978416">
        <ele>63.840404</ele>
        <time>2020-08-16T05:54:05.780Z</time>
      </trkpt>
      <trkpt lat="37.353151" lon="-5.978372">
        <ele>63.780813</ele>
        <time>2020-08-16T05:54:07.776Z</time>
      </trkpt>
      <trkpt lat="37.353037" lon="-5.978284">
        <ele>63.695810</ele>
        <time>2020-08-16T05:54:10.780Z</time>
      </trkpt>
      <trkpt lat="37.352909" lon="-5.978206">
        <ele>63.605421</ele>
        <time>2020-08-16T05:54:13.764Z</time>
      </trkpt>
      <trkpt lat="37.352819" lon="-5.978177">
        <ele>63.546377</ele>
        <time>2020-08-16T05:54:15.772Z</time>
      </trkpt>
      <trkpt lat="37.352724" lon="-5.978140">
        <ele>63.483174</ele>
        <time>2020-08-16T05:54:17.765Z</time>
      </trkpt>
      <trkpt lat="37.352636" lon="-5.978086">
        <ele>63.420949</ele>
        <time>2020-08-16T05:54:19.770Z</time>
      </trkpt>
      <trkpt lat="37.352540" lon="-5.978054">
        <ele>63.357833</ele>
        <time>2020-08-16T05:54:21.763Z</time>
      </trkpt>
      <trkpt lat="37.352451" lon="-5.977974">
        <ele>63.288315</ele>
        <time>2020-08-16T05:54:23.758Z</time>
      </trkpt>
      <trkpt lat="37.352357" lon="-5.977922">
        <ele>63.183240</ele>
        <time>2020-08-16T05:54:25.764Z</time>
      </trkpt>
      <trkpt lat="37.352234" lon="-5.977846">
        <ele>63.042342</ele>
        <time>2020-08-16T05:54:28.763Z</time>
      </trkpt>
      <trkpt lat="37.352143" lon="-5.977791">
        <ele>62.938538</ele>
        <time>2020-08-16T05:54:30.768Z</time>
      </trkpt>
      <trkpt lat="37.352013" lon="-5.977699">
        <ele>62.785175</ele>
        <time>2020-08-16T05:54:33.755Z</time>
      </trkpt>
      <trkpt lat="37.351918" lon="-5.977665">
        <ele>62.683622</ele>
        <time>2020-08-16T05:54:35.779Z</time>
      </trkpt>
      <trkpt lat="37.351819" lon="-5.977604">
        <ele>62.570277</ele>
        <time>2020-08-16T05:54:37.782Z</time>
      </trkpt>
      <trkpt lat="37.351705" lon="-5.977632">
        <ele>62.450851</ele>
        <time>2020-08-16T05:54:40.767Z</time>
      </trkpt>
      <trkpt lat="37.351658" lon="-5.977731">
        <ele>62.356603</ele>
        <time>2020-08-16T05:54:42.750Z</time>
      </trkpt>
      <trkpt lat="37.351620" lon="-5.977839">
        <ele>62.260071</ele>
        <time>2020-08-16T05:54:44.746Z</time>
      </trkpt>
      <trkpt lat="37.351527" lon="-5.977875">
        <ele>62.160025</ele>
        <time>2020-08-16T05:54:48.745Z</time>
      </trkpt>
      <trkpt lat="37.351427" lon="-5.977804">
        <ele>62.041961</ele>
        <time>2020-08-16T05:54:51.758Z</time>
      </trkpt>
      <trkpt lat="37.351335" lon="-5.977789">
        <ele>61.946577</ele>
        <time>2020-08-16T05:54:53.776Z</time>
      </trkpt>
      <trkpt lat="37.351236" lon="-5.977791">
        <ele>61.844773</ele>
        <time>2020-08-16T05:54:55.767Z</time>
      </trkpt>
      <trkpt lat="37.351141" lon="-5.977789">
        <ele>61.747082</ele>
        <time>2020-08-16T05:54:57.765Z</time>
      </trkpt>
      <trkpt lat="37.351038" lon="-5.977772">
        <ele>61.640272</ele>
        <time>2020-08-16T05:54:59.763Z</time>
      </trkpt>
      <trkpt lat="37.350944" lon="-5.977755">
        <ele>61.542629</ele>
        <time>2020-08-16T05:55:01.778Z</time>
      </trkpt>
      <trkpt lat="37.350828" lon="-5.977690">
        <ele>61.476399</ele>
        <time>2020-08-16T05:55:04.766Z</time>
      </trkpt>
      <trkpt lat="37.350813" lon="-5.977540">
        <ele>61.657456</ele>
        <time>2020-08-16T05:55:07.768Z</time>
      </trkpt>
      <trkpt lat="37.350821" lon="-5.977407">
        <ele>61.817193</ele>
        <time>2020-08-16T05:55:10.772Z</time>
      </trkpt>
      <trkpt lat="37.350845" lon="-5.977275">
        <ele>61.979359</ele>
        <time>2020-08-16T05:55:13.776Z</time>
      </trkpt>
      <trkpt lat="37.350855" lon="-5.977124">
        <ele>62.160825</ele>
        <time>2020-08-16T05:55:16.785Z</time>
      </trkpt>
      <trkpt lat="37.350802" lon="-5.977006">
        <ele>62.323140</ele>
        <time>2020-08-16T05:55:19.754Z</time>
      </trkpt>
      <trkpt lat="37.350684" lon="-5.976955">
        <ele>62.511112</ele>
        <time>2020-08-16T05:55:22.770Z</time>
      </trkpt>
      <trkpt lat="37.350565" lon="-5.976912">
        <ele>62.697641</ele>
        <time>2020-08-16T05:55:25.772Z</time>
      </trkpt>
      <trkpt lat="37.350444" lon="-5.976894">
        <ele>62.881203</ele>
        <time>2020-08-16T05:55:28.766Z</time>
      </trkpt>
      <trkpt lat="37.350312" lon="-5.976872">
        <ele>63.081805</ele>
        <time>2020-08-16T05:55:31.771Z</time>
      </trkpt>
      <trkpt lat="37.350220" lon="-5.976879">
        <ele>63.220661</ele>
        <time>2020-08-16T05:55:33.783Z</time>
      </trkpt>
      <trkpt lat="37.350100" lon="-5.976846">
        <ele>63.405716</ele>
        <time>2020-08-16T05:55:35.764Z</time>
      </trkpt>
      <trkpt lat="37.349990" lon="-5.976823">
        <ele>63.573710</ele>
        <time>2020-08-16T05:55:37.764Z</time>
      </trkpt>
      <trkpt lat="37.349876" lon="-5.976795">
        <ele>63.748699</ele>
        <time>2020-08-16T05:55:39.762Z</time>
      </trkpt>
      <trkpt lat="37.349787" lon="-5.976821">
        <ele>63.886350</ele>
        <time>2020-08-16T05:55:41.757Z</time>
      </trkpt>
      <trkpt lat="37.349691" lon="-5.976807">
        <ele>64.031947</ele>
        <time>2020-08-16T05:55:43.744Z</time>
      </trkpt>
      <trkpt lat="37.349562" lon="-5.976794">
        <ele>64.190619</ele>
        <time>2020-08-16T05:55:45.785Z</time>
      </trkpt>
      <trkpt lat="37.349457" lon="-5.976787">
        <ele>64.276264</ele>
        <time>2020-08-16T05:55:47.775Z</time>
      </trkpt>
      <trkpt lat="37.349329" lon="-5.976780">
        <ele>64.380621</ele>
        <time>2020-08-16T05:55:50.780Z</time>
      </trkpt>
      <trkpt lat="37.349222" lon="-5.976763">
        <ele>64.468467</ele>
        <time>2020-08-16T05:55:52.758Z</time>
      </trkpt>
      <trkpt lat="37.349127" lon="-5.976747">
        <ele>64.546537</ele>
        <time>2020-08-16T05:55:54.769Z</time>
      </trkpt>
      <trkpt lat="37.349025" lon="-5.976731">
        <ele>64.630261</ele>
        <time>2020-08-16T05:55:57.764Z</time>
      </trkpt>
      <trkpt lat="37.348905" lon="-5.976675">
        <ele>64.734513</ele>
        <time>2020-08-16T05:56:01.769Z</time>
      </trkpt>
      <trkpt lat="37.348676" lon="-5.976589">
        <ele>64.929173</ele>
        <time>2020-08-16T05:56:07.769Z</time>
      </trkpt>
      <trkpt lat="37.348554" lon="-5.976635">
        <ele>65.032912</ele>
        <time>2020-08-16T05:56:10.781Z</time>
      </trkpt>
      <trkpt lat="37.348448" lon="-5.976617">
        <ele>65.120034</ele>
        <time>2020-08-16T05:56:12.775Z</time>
      </trkpt>
      <trkpt lat="37.348353" lon="-5.976592">
        <ele>65.199089</ele>
        <time>2020-08-16T05:56:14.753Z</time>
      </trkpt>
      <trkpt lat="37.348264" lon="-5.976616">
        <ele>65.273228</ele>
        <time>2020-08-16T05:56:16.764Z</time>
      </trkpt>
      <trkpt lat="37.348165" lon="-5.976585">
        <ele>65.356326</ele>
        <time>2020-08-16T05:56:18.774Z</time>
      </trkpt>
      <trkpt lat="37.348026" lon="-5.976586">
        <ele>65.469547</ele>
        <time>2020-08-16T05:56:21.761Z</time>
      </trkpt>
      <trkpt lat="37.347908" lon="-5.976538">
        <ele>65.570560</ele>
        <time>2020-08-16T05:56:23.772Z</time>
      </trkpt>
      <trkpt lat="37.347824" lon="-5.976587">
        <ele>65.695449</ele>
        <time>2020-08-16T05:56:25.763Z</time>
      </trkpt>
      <trkpt lat="37.347729" lon="-5.976498">
        <ele>65.936353</ele>
        <time>2020-08-16T05:56:27.761Z</time>
      </trkpt>
      <trkpt lat="37.347613" lon="-5.976484">
        <ele>66.173354</ele>
        <time>2020-08-16T05:56:29.781Z</time>
      </trkpt>
      <trkpt lat="37.347516" lon="-5.976491">
        <ele>66.370954</ele>
        <time>2020-08-16T05:56:31.779Z</time>
      </trkpt>
      <trkpt lat="37.347419" lon="-5.976451">
        <ele>66.578560</ele>
        <time>2020-08-16T05:56:33.789Z</time>
      </trkpt>
      <trkpt lat="37.347308" lon="-5.976427">
        <ele>66.807619</ele>
        <time>2020-08-16T05:56:35.771Z</time>
      </trkpt>
      <trkpt lat="37.347204" lon="-5.976364">
        <ele>67.042380</ele>
        <time>2020-08-16T05:56:37.772Z</time>
      </trkpt>
      <trkpt lat="37.347110" lon="-5.976251">
        <ele>67.306816</ele>
        <time>2020-08-16T05:56:39.773Z</time>
      </trkpt>
      <trkpt lat="37.347003" lon="-5.976150">
        <ele>67.578885</ele>
        <time>2020-08-16T05:56:41.758Z</time>
      </trkpt>
      <trkpt lat="37.346897" lon="-5.976095">
        <ele>67.812085</ele>
        <time>2020-08-16T05:56:43.782Z</time>
      </trkpt>
      <trkpt lat="37.346795" lon="-5.976034">
        <ele>68.041781</ele>
        <time>2020-08-16T05:56:45.780Z</time>
      </trkpt>
      <trkpt lat="37.346694" lon="-5.975963">
        <ele>68.277091</ele>
        <time>2020-08-16T05:56:47.782Z</time>
      </trkpt>
      <trkpt lat="37.346599" lon="-5.975936">
        <ele>68.475170</ele>
        <time>2020-08-16T05:56:49.775Z</time>
      </trkpt>
      <trkpt lat="37.346511" lon="-5.976015">
        <ele>68.695046</ele>
        <time>2020-08-16T05:56:51.751Z</time>
      </trkpt>
      <trkpt lat="37.346471" lon="-5.976134">
        <ele>68.903938</ele>
        <time>2020-08-16T05:56:54.751Z</time>
      </trkpt>
      <trkpt lat="37.346469" lon="-5.976258">
        <ele>69.104464</ele>
        <time>2020-08-16T05:56:57.768Z</time>
      </trkpt>
      <trkpt lat="37.346475" lon="-5.976413">
        <ele>69.222813</ele>
        <time>2020-08-16T05:56:59.757Z</time>
      </trkpt>
      <trkpt lat="37.346482" lon="-5.976587">
        <ele>69.062127</ele>
        <time>2020-08-16T05:57:02.762Z</time>
      </trkpt>
      <trkpt lat="37.346421" lon="-5.976701">
        <ele>68.935387</ele>
        <time>2020-08-16T05:57:04.758Z</time>
      </trkpt>
      <trkpt lat="37.346412" lon="-5.976839">
        <ele>68.807681</ele>
        <time>2020-08-16T05:57:07.763Z</time>
      </trkpt>
      <trkpt lat="37.346312" lon="-5.976867">
        <ele>68.688827</ele>
        <time>2020-08-16T05:57:11.776Z</time>
      </trkpt>
      <trkpt lat="37.346285" lon="-5.976986">
        <ele>68.574690</ele>
        <time>2020-08-16T05:57:15.761Z</time>
      </trkpt>
      <trkpt lat="37.346289" lon="-5.977100">
        <ele>68.469445</ele>
        <time>2020-08-16T05:57:19.756Z</time>
      </trkpt>
      <trkpt lat="37.346281" lon="-5.977219">
        <ele>68.359300</ele>
        <time>2020-08-16T05:57:22.789Z</time>
      </trkpt>
      <trkpt lat="37.346225" lon="-5.977366">
        <ele>68.208959</ele>
        <time>2020-08-16T05:57:25.783Z</time>
      </trkpt>
      <trkpt lat="37.346193" lon="-5.977474">
        <ele>68.102656</ele>
        <time>2020-08-16T05:57:27.761Z</time>
      </trkpt>
      <trkpt lat="37.346167" lon="-5.977627">
        <ele>67.958356</ele>
        <time>2020-08-16T05:57:30.742Z</time>
      </trkpt>
      <trkpt lat="37.346129" lon="-5.977783">
        <ele>67.807874</ele>
        <time>2020-08-16T05:57:32.750Z</time>
      </trkpt>
      <trkpt lat="37.346117" lon="-5.977912">
        <ele>67.688085</ele>
        <time>2020-08-16T05:57:34.750Z</time>
      </trkpt>
      <trkpt lat="37.346081" lon="-5.978064">
        <ele>67.541805</ele>
        <time>2020-08-16T05:57:36.781Z</time>
      </trkpt>
      <trkpt lat="37.346059" lon="-5.978205">
        <ele>67.409279</ele>
        <time>2020-08-16T05:57:38.779Z</time>
      </trkpt>
      <trkpt lat="37.346050" lon="-5.978357">
        <ele>67.268700</ele>
        <time>2020-08-16T05:57:40.777Z</time>
      </trkpt>
      <trkpt lat="37.346047" lon="-5.978504">
        <ele>67.224447</ele>
        <time>2020-08-16T05:57:42.793Z</time>
      </trkpt>
      <trkpt lat="37.346020" lon="-5.978668">
        <ele>67.345729</ele>
        <time>2020-08-16T05:57:44.768Z</time>
      </trkpt>
      <trkpt lat="37.345991" lon="-5.978862">
        <ele>67.488677</ele>
        <time>2020-08-16T05:57:46.761Z</time>
      </trkpt>
      <trkpt lat="37.345948" lon="-5.979035">
        <ele>67.619937</ele>
        <time>2020-08-16T05:57:48.786Z</time>
      </trkpt>
      <trkpt lat="37.345893" lon="-5.979183">
        <ele>67.738244</ele>
        <time>2020-08-16T05:57:50.782Z</time>
      </trkpt>
      <trkpt lat="37.345860" lon="-5.979334">
        <ele>67.851649</ele>
        <time>2020-08-16T05:57:52.759Z</time>
      </trkpt>
      <trkpt lat="37.345831" lon="-5.979458">
        <ele>67.945249</ele>
        <time>2020-08-16T05:57:54.785Z</time>
      </trkpt>
      <trkpt lat="37.345795" lon="-5.979586">
        <ele>68.043571</ele>
        <time>2020-08-16T05:57:56.757Z</time>
      </trkpt>
      <trkpt lat="37.345777" lon="-5.979731">
        <ele>68.149847</ele>
        <time>2020-08-16T05:57:58.788Z</time>
      </trkpt>
      <trkpt lat="37.345770" lon="-5.979894">
        <ele>68.268057</ele>
        <time>2020-08-16T05:58:00.760Z</time>
      </trkpt>
      <trkpt lat="37.345753" lon="-5.980058">
        <ele>68.387824</ele>
        <time>2020-08-16T05:58:02.766Z</time>
      </trkpt>
      <trkpt lat="37.345743" lon="-5.980205">
        <ele>68.494665</ele>
        <time>2020-08-16T05:58:04.769Z</time>
      </trkpt>
      <trkpt lat="37.345733" lon="-5.980349">
        <ele>68.599341</ele>
        <time>2020-08-16T05:58:06.762Z</time>
      </trkpt>
      <trkpt lat="37.345716" lon="-5.980495">
        <ele>68.706196</ele>
        <time>2020-08-16T05:58:09.777Z</time>
      </trkpt>
      <trkpt lat="37.345687" lon="-5.980650">
        <ele>68.821508</ele>
        <time>2020-08-16T05:58:11.759Z</time>
      </trkpt>
      <trkpt lat="37.345662" lon="-5.980788">
        <ele>68.185969</ele>
        <time>2020-08-16T05:58:13.744Z</time>
      </trkpt>
      <trkpt lat="37.345642" lon="-5.980952">
        <ele>67.431178</ele>
        <time>2020-08-16T05:58:15.774Z</time>
      </trkpt>
      <trkpt lat="37.345627" lon="-5.981091">
        <ele>66.793043</ele>
        <time>2020-08-16T05:58:17.769Z</time>
      </trkpt>
      <trkpt lat="37.345626" lon="-5.981247">
        <ele>66.083349</ele>
        <time>2020-08-16T05:58:20.770Z</time>
      </trkpt>
      <trkpt lat="37.345620" lon="-5.981380">
        <ele>65.477335</ele>
        <time>2020-08-16T05:58:22.764Z</time>
      </trkpt>
      <trkpt lat="37.345590" lon="-5.981491">
        <ele>64.943993</ele>
        <time>2020-08-16T05:58:24.773Z</time>
      </trkpt>
      <trkpt lat="37.345538" lon="-5.981624">
        <ele>64.269741</ele>
        <time>2020-08-16T05:58:26.761Z</time>
      </trkpt>
      <trkpt lat="37.345485" lon="-5.981791">
        <ele>63.451728</ele>
        <time>2020-08-16T05:58:29.761Z</time>
      </trkpt>
      <trkpt lat="37.345483" lon="-5.981937">
        <ele>62.787449</ele>
        <time>2020-08-16T05:58:32.762Z</time>
      </trkpt>
      <trkpt lat="37.345471" lon="-5.982062">
        <ele>62.214670</ele>
        <time>2020-08-16T05:58:34.767Z</time>
      </trkpt>
      <trkpt lat="37.345457" lon="-5.982205">
        <ele>61.559222</ele>
        <time>2020-08-16T05:58:36.759Z</time>
      </trkpt>
      <trkpt lat="37.345429" lon="-5.982349">
        <ele>60.884829</ele>
        <time>2020-08-16T05:58:39.762Z</time>
      </trkpt>
      <trkpt lat="37.345325" lon="-5.982453">
        <ele>60.124562</ele>
        <time>2020-08-16T05:58:42.747Z</time>
      </trkpt>
      <trkpt lat="37.345288" lon="-5.982593">
        <ele>59.453405</ele>
        <time>2020-08-16T05:58:45.768Z</time>
      </trkpt>
      <trkpt lat="37.345233" lon="-5.982693">
        <ele>58.900228</ele>
        <time>2020-08-16T05:58:48.755Z</time>
      </trkpt>
      <trkpt lat="37.345154" lon="-5.982752">
        <ele>58.433561</ele>
        <time>2020-08-16T05:58:50.765Z</time>
      </trkpt>
      <trkpt lat="37.345043" lon="-5.982832">
        <ele>57.979091</ele>
        <time>2020-08-16T05:58:53.775Z</time>
      </trkpt>
      <trkpt lat="37.344971" lon="-5.982946">
        <ele>57.567894</ele>
        <time>2020-08-16T05:58:56.771Z</time>
      </trkpt>
      <trkpt lat="37.344892" lon="-5.983068">
        <ele>57.123503</ele>
        <time>2020-08-16T05:58:59.779Z</time>
      </trkpt>
      <trkpt lat="37.344811" lon="-5.983132">
        <ele>56.783690</ele>
        <time>2020-08-16T05:59:01.754Z</time>
      </trkpt>
      <trkpt lat="37.344723" lon="-5.983177">
        <ele>56.446224</ele>
        <time>2020-08-16T05:59:03.752Z</time>
      </trkpt>
      <trkpt lat="37.344627" lon="-5.983203">
        <ele>56.097367</ele>
        <time>2020-08-16T05:59:05.768Z</time>
      </trkpt>
      <trkpt lat="37.344525" lon="-5.983233">
        <ele>55.725238</ele>
        <time>2020-08-16T05:59:07.770Z</time>
      </trkpt>
      <trkpt lat="37.344427" lon="-5.983259">
        <ele>55.369433</ele>
        <time>2020-08-16T05:59:09.764Z</time>
      </trkpt>
      <trkpt lat="37.344294" lon="-5.983308">
        <ele>54.877099</ele>
        <time>2020-08-16T05:59:12.770Z</time>
      </trkpt>
      <trkpt lat="37.344203" lon="-5.983350">
        <ele>54.532746</ele>
        <time>2020-08-16T05:59:14.768Z</time>
      </trkpt>
      <trkpt lat="37.344086" lon="-5.983366">
        <ele>54.114654</ele>
        <time>2020-08-16T05:59:16.773Z</time>
      </trkpt>
      <trkpt lat="37.343955" lon="-5.983394">
        <ele>53.642604</ele>
        <time>2020-08-16T05:59:18.765Z</time>
      </trkpt>
      <trkpt lat="37.343843" lon="-5.983441">
        <ele>53.223165</ele>
        <time>2020-08-16T05:59:20.769Z</time>
      </trkpt>
      <trkpt lat="37.343726" lon="-5.983497">
        <ele>52.778448</ele>
        <time>2020-08-16T05:59:22.777Z</time>
      </trkpt>
      <trkpt lat="37.343614" lon="-5.983556">
        <ele>52.347083</ele>
        <time>2020-08-16T05:59:24.763Z</time>
      </trkpt>
      <trkpt lat="37.343524" lon="-5.983510">
        <ele>52.187431</ele>
        <time>2020-08-16T05:59:26.775Z</time>
      </trkpt>
      <trkpt lat="37.343441" lon="-5.983399">
        <ele>52.332885</ele>
        <time>2020-08-16T05:59:28.766Z</time>
      </trkpt>
      <trkpt lat="37.343358" lon="-5.983298">
        <ele>52.471540</ele>
        <time>2020-08-16T05:59:30.779Z</time>
      </trkpt>
      <trkpt lat="37.343264" lon="-5.983187">
        <ele>52.626342</ele>
        <time>2020-08-16T05:59:32.790Z</time>
      </trkpt>
      <trkpt lat="37.343191" lon="-5.983074">
        <ele>52.765324</ele>
        <time>2020-08-16T05:59:37.780Z</time>
      </trkpt>
      <trkpt lat="37.343072" lon="-5.982952">
        <ele>52.949648</ele>
        <time>2020-08-16T05:59:40.769Z</time>
      </trkpt>
      <trkpt lat="37.342975" lon="-5.982867">
        <ele>53.091586</ele>
        <time>2020-08-16T05:59:43.770Z</time>
      </trkpt>
      <trkpt lat="37.342903" lon="-5.982793">
        <ele>53.203221</ele>
        <time>2020-08-16T05:59:45.757Z</time>
      </trkpt>
      <trkpt lat="37.342813" lon="-5.982688">
        <ele>53.350604</ele>
        <time>2020-08-16T05:59:48.767Z</time>
      </trkpt>
      <trkpt lat="37.342724" lon="-5.982594">
        <ele>53.490137</ele>
        <time>2020-08-16T05:59:51.766Z</time>
      </trkpt>
      <trkpt lat="37.342638" lon="-5.982486">
        <ele>53.636045</ele>
        <time>2020-08-16T05:59:54.784Z</time>
      </trkpt>
      <trkpt lat="37.342543" lon="-5.982398">
        <ele>53.777699</ele>
        <time>2020-08-16T05:59:57.766Z</time>
      </trkpt>
      <trkpt lat="37.342430" lon="-5.982314">
        <ele>53.935294</ele>
        <time>2020-08-16T06:00:00.778Z</time>
      </trkpt>
      <trkpt lat="37.342332" lon="-5.982210">
        <ele>54.089241</ele>
        <time>2020-08-16T06:00:03.771Z</time>
      </trkpt>
      <trkpt lat="37.342265" lon="-5.982076">
        <ele>54.240343</ele>
        <time>2020-08-16T06:00:06.769Z</time>
      </trkpt>
      <trkpt lat="37.342231" lon="-5.981929">
        <ele>54.302603</ele>
        <time>2020-08-16T06:00:09.754Z</time>
      </trkpt>
      <trkpt lat="37.342214" lon="-5.981768">
        <ele>54.307070</ele>
        <time>2020-08-16T06:00:12.756Z</time>
      </trkpt>
      <trkpt lat="37.342213" lon="-5.981615">
        <ele>54.311278</ele>
        <time>2020-08-16T06:00:15.756Z</time>
      </trkpt>
      <trkpt lat="37.342219" lon="-5.981495">
        <ele>54.314585</ele>
        <time>2020-08-16T06:00:17.783Z</time>
      </trkpt>
      <trkpt lat="37.342207" lon="-5.981382">
        <ele>54.317721</ele>
        <time>2020-08-16T06:00:19.759Z</time>
      </trkpt>
      <trkpt lat="37.342224" lon="-5.981269">
        <ele>54.320884</ele>
        <time>2020-08-16T06:00:21.768Z</time>
      </trkpt>
      <trkpt lat="37.342230" lon="-5.981141">
        <ele>54.324411</ele>
        <time>2020-08-16T06:00:23.764Z</time>
      </trkpt>
      <trkpt lat="37.342222" lon="-5.981020">
        <ele>54.327751</ele>
        <time>2020-08-16T06:00:25.765Z</time>
      </trkpt>
      <trkpt lat="37.342251" lon="-5.980857">
        <ele>54.332345</ele>
        <time>2020-08-16T06:00:28.756Z</time>
      </trkpt>
      <trkpt lat="37.342292" lon="-5.980746">
        <ele>54.335711</ele>
        <time>2020-08-16T06:00:30.778Z</time>
      </trkpt>
      <trkpt lat="37.342315" lon="-5.980621">
        <ele>54.339240</ele>
        <time>2020-08-16T06:00:32.783Z</time>
      </trkpt>
      <trkpt lat="37.342335" lon="-5.980503">
        <ele>54.342559</ele>
        <time>2020-08-16T06:00:34.748Z</time>
      </trkpt>
      <trkpt lat="37.342369" lon="-5.980397">
        <ele>54.345702</ele>
        <time>2020-08-16T06:00:36.751Z</time>
      </trkpt>
      <trkpt lat="37.342340" lon="-5.980261">
        <ele>54.349575</ele>
        <time>2020-08-16T06:00:39.747Z</time>
      </trkpt>
      <trkpt lat="37.342320" lon="-5.980100">
        <ele>54.354057</ele>
        <time>2020-08-16T06:00:42.758Z</time>
      </trkpt>
      <trkpt lat="37.342331" lon="-5.979974">
        <ele>54.357544</ele>
        <time>2020-08-16T06:00:44.785Z</time>
      </trkpt>
      <trkpt lat="37.342310" lon="-5.979853">
        <ele>54.360950</ele>
        <time>2020-08-16T06:00:46.758Z</time>
      </trkpt>
      <trkpt lat="37.342282" lon="-5.979717">
        <ele>54.229883</ele>
        <time>2020-08-16T06:00:49.774Z</time>
      </trkpt>
      <trkpt lat="37.342270" lon="-5.979601">
        <ele>54.057625</ele>
        <time>2020-08-16T06:00:51.756Z</time>
      </trkpt>
      <trkpt lat="37.342224" lon="-5.979476">
        <ele>53.854790</ele>
        <time>2020-08-16T06:00:53.764Z</time>
      </trkpt>
      <trkpt lat="37.342168" lon="-5.979325">
        <ele>53.609428</ele>
        <time>2020-08-16T06:00:56.745Z</time>
      </trkpt>
      <trkpt lat="37.342084" lon="-5.979247">
        <ele>53.416036</ele>
        <time>2020-08-16T06:00:58.745Z</time>
      </trkpt>
      <trkpt lat="37.342011" lon="-5.979177">
        <ele>53.246012</ele>
        <time>2020-08-16T06:01:00.764Z</time>
      </trkpt>
      <trkpt lat="37.341888" lon="-5.979232">
        <ele>53.004220</ele>
        <time>2020-08-16T06:01:01.761Z</time>
      </trkpt>
      <trkpt lat="37.341795" lon="-5.979169">
        <ele>52.808568</ele>
        <time>2020-08-16T06:01:03.767Z</time>
      </trkpt>
      <trkpt lat="37.341711" lon="-5.979125">
        <ele>52.640028</ele>
        <time>2020-08-16T06:01:05.769Z</time>
      </trkpt>
      <trkpt lat="37.341621" lon="-5.979063">
        <ele>52.449963</ele>
        <time>2020-08-16T06:01:07.764Z</time>
      </trkpt>
      <trkpt lat="37.341485" lon="-5.978961">
        <ele>52.156677</ele>
        <time>2020-08-16T06:01:10.768Z</time>
      </trkpt>
      <trkpt lat="37.341391" lon="-5.978897">
        <ele>51.958696</ele>
        <time>2020-08-16T06:01:12.761Z</time>
      </trkpt>
      <trkpt lat="37.341308" lon="-5.978851">
        <ele>51.790698</ele>
        <time>2020-08-16T06:01:14.769Z</time>
      </trkpt>
      <trkpt lat="37.341204" lon="-5.978740">
        <ele>51.538061</ele>
        <time>2020-08-16T06:01:16.756Z</time>
      </trkpt>
      <trkpt lat="37.341124" lon="-5.978658">
        <ele>51.346911</ele>
        <time>2020-08-16T06:01:18.755Z</time>
      </trkpt>
      <trkpt lat="37.341053" lon="-5.978530">
        <ele>51.117077</ele>
        <time>2020-08-16T06:01:20.765Z</time>
      </trkpt>
      <trkpt lat="37.341029" lon="-5.978402">
        <ele>51.099922</ele>
        <time>2020-08-16T06:01:22.756Z</time>
      </trkpt>
      <trkpt lat="37.341010" lon="-5.978249">
        <ele>51.246585</ele>
        <time>2020-08-16T06:01:24.755Z</time>
      </trkpt>
      <trkpt lat="37.340981" lon="-5.978129">
        <ele>51.365371</ele>
        <time>2020-08-16T06:01:26.777Z</time>
      </trkpt>
      <trkpt lat="37.340967" lon="-5.978010">
        <ele>51.479303</ele>
        <time>2020-08-16T06:01:28.772Z</time>
      </trkpt>
      <trkpt lat="37.340952" lon="-5.977862">
        <ele>51.620608</ele>
        <time>2020-08-16T06:01:30.768Z</time>
      </trkpt>
      <trkpt lat="37.340944" lon="-5.977719">
        <ele>51.756378</ele>
        <time>2020-08-16T06:01:32.754Z</time>
      </trkpt>
      <trkpt lat="37.340940" lon="-5.977573">
        <ele>51.894736</ele>
        <time>2020-08-16T06:01:34.759Z</time>
      </trkpt>
      <trkpt lat="37.340909" lon="-5.977394">
        <ele>52.068242</ele>
        <time>2020-08-16T06:01:37.748Z</time>
      </trkpt>
      <trkpt lat="37.340890" lon="-5.977268">
        <ele>52.189704</ele>
        <time>2020-08-16T06:01:39.746Z</time>
      </trkpt>
      <trkpt lat="37.340868" lon="-5.977156">
        <ele>52.298968</ele>
        <time>2020-08-16T06:01:41.760Z</time>
      </trkpt>
      <trkpt lat="37.340853" lon="-5.977022">
        <ele>52.427131</ele>
        <time>2020-08-16T06:01:44.764Z</time>
      </trkpt>
      <trkpt lat="37.340856" lon="-5.976869">
        <ele>52.572081</ele>
        <time>2020-08-16T06:01:47.760Z</time>
      </trkpt>
      <trkpt lat="37.340834" lon="-5.976752">
        <ele>52.685949</ele>
        <time>2020-08-16T06:01:50.773Z</time>
      </trkpt>
      <trkpt lat="37.340748" lon="-5.976702">
        <ele>52.798812</ele>
        <time>2020-08-16T06:01:54.749Z</time>
      </trkpt>
      <trkpt lat="37.340658" lon="-5.976749">
        <ele>52.914899</ele>
        <time>2020-08-16T06:01:58.756Z</time>
      </trkpt>
      <trkpt lat="37.340550" lon="-5.976772">
        <ele>53.045386</ele>
        <time>2020-08-16T06:02:03.764Z</time>
      </trkpt>
      <trkpt lat="37.340440" lon="-5.976775">
        <ele>53.172128</ele>
        <time>2020-08-16T06:02:07.779Z</time>
      </trkpt>
      <trkpt lat="37.340328" lon="-5.976801">
        <ele>53.110363</ele>
        <time>2020-08-16T06:02:12.762Z</time>
      </trkpt>
      <trkpt lat="37.340258" lon="-5.976881">
        <ele>53.059072</ele>
        <time>2020-08-16T06:02:16.755Z</time>
      </trkpt>
      <trkpt lat="37.340046" lon="-5.976896">
        <ele>52.943921</ele>
        <time>2020-08-16T06:02:17.747Z</time>
      </trkpt>
      <trkpt lat="37.339995" lon="-5.977044">
        <ele>52.874373</ele>
        <time>2020-08-16T06:02:20.758Z</time>
      </trkpt>
      <trkpt lat="37.340065" lon="-5.977247">
        <ele>52.778969</ele>
        <time>2020-08-16T06:02:23.760Z</time>
      </trkpt>
      <trkpt lat="37.340020" lon="-5.977401">
        <ele>52.708227</ele>
        <time>2020-08-16T06:02:27.782Z</time>
      </trkpt>
      <trkpt lat="37.339871" lon="-5.977431">
        <ele>52.626395</ele>
        <time>2020-08-16T06:02:30.776Z</time>
      </trkpt>
      <trkpt lat="37.339783" lon="-5.977462">
        <ele>52.576835</ele>
        <time>2020-08-16T06:02:32.752Z</time>
      </trkpt>
      <trkpt lat="37.339716" lon="-5.977575">
        <ele>52.516057</ele>
        <time>2020-08-16T06:02:34.756Z</time>
      </trkpt>
      <trkpt lat="37.339641" lon="-5.977680">
        <ele>52.455198</ele>
        <time>2020-08-16T06:02:36.747Z</time>
      </trkpt>
      <trkpt lat="37.339544" lon="-5.977807">
        <ele>52.379266</ele>
        <time>2020-08-16T06:02:39.767Z</time>
      </trkpt>
      <trkpt lat="37.339432" lon="-5.977944">
        <ele>52.294541</ele>
        <time>2020-08-16T06:02:42.760Z</time>
      </trkpt>
      <trkpt lat="37.339351" lon="-5.978036">
        <ele>52.235354</ele>
        <time>2020-08-16T06:02:44.753Z</time>
      </trkpt>
      <trkpt lat="37.339260" lon="-5.978131">
        <ele>52.314581</ele>
        <time>2020-08-16T06:02:46.766Z</time>
      </trkpt>
      <trkpt lat="37.339164" lon="-5.978216">
        <ele>52.590947</ele>
        <time>2020-08-16T06:02:48.760Z</time>
      </trkpt>
      <trkpt lat="37.339066" lon="-5.978306">
        <ele>52.876592</ele>
        <time>2020-08-16T06:02:50.772Z</time>
      </trkpt>
      <trkpt lat="37.338983" lon="-5.978416">
        <ele>53.160423</ele>
        <time>2020-08-16T06:02:52.783Z</time>
      </trkpt>
      <trkpt lat="37.338859" lon="-5.978475">
        <ele>53.472511</ele>
        <time>2020-08-16T06:02:54.780Z</time>
      </trkpt>
      <trkpt lat="37.338745" lon="-5.978484">
        <ele>53.741398</ele>
        <time>2020-08-16T06:02:56.749Z</time>
      </trkpt>
      <trkpt lat="37.338635" lon="-5.978454">
        <ele>54.006359</ele>
        <time>2020-08-16T06:02:59.787Z</time>
      </trkpt>
      <trkpt lat="37.338512" lon="-5.978289">
        <ele>54.429683</ele>
        <time>2020-08-16T06:03:02.760Z</time>
      </trkpt>
      <trkpt lat="37.338434" lon="-5.978201">
        <ele>54.676342</ele>
        <time>2020-08-16T06:03:04.753Z</time>
      </trkpt>
      <trkpt lat="37.338354" lon="-5.978098">
        <ele>54.945837</ele>
        <time>2020-08-16T06:03:06.776Z</time>
      </trkpt>
      <trkpt lat="37.338284" lon="-5.977982">
        <ele>55.218397</ele>
        <time>2020-08-16T06:03:08.767Z</time>
      </trkpt>
      <trkpt lat="37.338212" lon="-5.977844">
        <ele>55.527325</ele>
        <time>2020-08-16T06:03:10.783Z</time>
      </trkpt>
      <trkpt lat="37.338108" lon="-5.977737">
        <ele>55.843619</ele>
        <time>2020-08-16T06:03:12.775Z</time>
      </trkpt>
      <trkpt lat="37.337971" lon="-5.977747">
        <ele>56.166663</ele>
        <time>2020-08-16T06:03:14.750Z</time>
      </trkpt>
      <trkpt lat="37.337855" lon="-5.977807">
        <ele>56.401042</ele>
        <time>2020-08-16T06:03:16.757Z</time>
      </trkpt>
      <trkpt lat="37.337737" lon="-5.977791">
        <ele>56.109690</ele>
        <time>2020-08-16T06:03:18.768Z</time>
      </trkpt>
      <trkpt lat="37.337607" lon="-5.977730">
        <ele>55.769072</ele>
        <time>2020-08-16T06:03:21.777Z</time>
      </trkpt>
      <trkpt lat="37.337484" lon="-5.977722">
        <ele>55.466720</ele>
        <time>2020-08-16T06:03:23.767Z</time>
      </trkpt>
      <trkpt lat="37.337369" lon="-5.977748">
        <ele>55.179886</ele>
        <time>2020-08-16T06:03:25.760Z</time>
      </trkpt>
      <trkpt lat="37.337265" lon="-5.977732">
        <ele>54.922677</ele>
        <time>2020-08-16T06:03:30.769Z</time>
      </trkpt>
      <trkpt lat="37.337220" lon="-5.977613">
        <ele>54.665480</ele>
        <time>2020-08-16T06:03:32.769Z</time>
      </trkpt>
      <trkpt lat="37.337150" lon="-5.977521">
        <ele>54.416937</ele>
        <time>2020-08-16T06:03:33.777Z</time>
      </trkpt>
      <trkpt lat="37.337083" lon="-5.977382">
        <ele>54.099672</ele>
        <time>2020-08-16T06:03:36.777Z</time>
      </trkpt>
      <trkpt lat="37.337058" lon="-5.977265">
        <ele>53.863207</ele>
        <time>2020-08-16T06:03:38.756Z</time>
      </trkpt>
      <trkpt lat="37.337052" lon="-5.977112">
        <ele>53.564216</ele>
        <time>2020-08-16T06:03:42.776Z</time>
      </trkpt>
      <trkpt lat="37.337027" lon="-5.976968">
        <ele>53.276532</ele>
        <time>2020-08-16T06:03:45.784Z</time>
      </trkpt>
      <trkpt lat="37.337011" lon="-5.976818">
        <ele>52.981136</ele>
        <time>2020-08-16T06:03:48.774Z</time>
      </trkpt>
      <trkpt lat="37.336954" lon="-5.976671">
        <ele>52.661917</ele>
        <time>2020-08-16T06:03:51.764Z</time>
      </trkpt>
      <trkpt lat="37.336887" lon="-5.976557">
        <ele>52.385219</ele>
        <time>2020-08-16T06:03:54.782Z</time>
      </trkpt>
      <trkpt lat="37.336828" lon="-5.976443">
        <ele>52.119724</ele>
        <time>2020-08-16T06:03:57.773Z</time>
      </trkpt>
      <trkpt lat="37.336753" lon="-5.976357">
        <ele>52.158700</ele>
        <time>2020-08-16T06:04:00.773Z</time>
      </trkpt>
      <trkpt lat="37.336675" lon="-5.976283">
        <ele>52.391792</ele>
        <time>2020-08-16T06:04:03.756Z</time>
      </trkpt>
      <trkpt lat="37.336570" lon="-5.976231">
        <ele>52.661014</ele>
        <time>2020-08-16T06:04:07.752Z</time>
      </trkpt>
      <trkpt lat="37.336471" lon="-5.976242">
        <ele>52.898122</ele>
        <time>2020-08-16T06:04:10.776Z</time>
      </trkpt>
      <trkpt lat="37.336373" lon="-5.976297">
        <ele>53.154145</ele>
        <time>2020-08-16T06:04:13.772Z</time>
      </trkpt>
      <trkpt lat="37.336293" lon="-5.976385">
        <ele>53.407702</ele>
        <time>2020-08-16T06:04:15.747Z</time>
      </trkpt>
      <trkpt lat="37.336208" lon="-5.976448">
        <ele>53.643082</ele>
        <time>2020-08-16T06:04:18.763Z</time>
      </trkpt>
      <trkpt lat="37.336130" lon="-5.976506">
        <ele>53.859259</ele>
        <time>2020-08-16T06:04:20.761Z</time>
      </trkpt>
      <trkpt lat="37.336040" lon="-5.976592">
        <ele>54.128916</ele>
        <time>2020-08-16T06:04:23.778Z</time>
      </trkpt>
      <trkpt lat="37.335964" lon="-5.976687">
        <ele>54.384551</ele>
        <time>2020-08-16T06:04:26.751Z</time>
      </trkpt>
      <trkpt lat="37.335879" lon="-5.976784">
        <ele>54.658372</ele>
        <time>2020-08-16T06:04:29.771Z</time>
      </trkpt>
      <trkpt lat="37.335787" lon="-5.976845">
        <ele>54.906492</ele>
        <time>2020-08-16T06:04:31.794Z</time>
      </trkpt>
      <trkpt lat="37.335708" lon="-5.976919">
        <ele>55.141494</ele>
        <time>2020-08-16T06:04:33.774Z</time>
      </trkpt>
      <trkpt lat="37.335594" lon="-5.977010">
        <ele>55.463622</ele>
        <time>2020-08-16T06:04:36.772Z</time>
      </trkpt>
      <trkpt lat="37.335515" lon="-5.977090">
        <ele>55.705594</ele>
        <time>2020-08-16T06:04:38.779Z</time>
      </trkpt>
      <trkpt lat="37.335432" lon="-5.977161">
        <ele>55.945070</ele>
        <time>2020-08-16T06:04:40.787Z</time>
      </trkpt>
      <trkpt lat="37.335353" lon="-5.977238">
        <ele>56.183515</ele>
        <time>2020-08-16T06:04:43.770Z</time>
      </trkpt>
      <trkpt lat="37.335281" lon="-5.977320">
        <ele>56.267517</ele>
        <time>2020-08-16T06:04:45.787Z</time>
      </trkpt>
      <trkpt lat="37.335204" lon="-5.977392">
        <ele>56.181742</ele>
        <time>2020-08-16T06:04:47.785Z</time>
      </trkpt>
      <trkpt lat="37.335104" lon="-5.977451">
        <ele>56.082999</ele>
        <time>2020-08-16T06:04:50.781Z</time>
      </trkpt>
      <trkpt lat="37.335029" lon="-5.977513">
        <ele>56.002766</ele>
        <time>2020-08-16T06:04:52.769Z</time>
      </trkpt>
      <trkpt lat="37.334923" lon="-5.977583">
        <ele>55.895738</ele>
        <time>2020-08-16T06:04:54.770Z</time>
      </trkpt>
      <trkpt lat="37.334838" lon="-5.977641">
        <ele>55.809289</ele>
        <time>2020-08-16T06:04:56.751Z</time>
      </trkpt>
      <trkpt lat="37.334744" lon="-5.977693">
        <ele>55.717487</ele>
        <time>2020-08-16T06:04:58.760Z</time>
      </trkpt>
      <trkpt lat="37.334663" lon="-5.977786">
        <ele>55.619441</ele>
        <time>2020-08-16T06:05:02.776Z</time>
      </trkpt>
      <trkpt lat="37.334563" lon="-5.977893">
        <ele>55.502070</ele>
        <time>2020-08-16T06:05:05.785Z</time>
      </trkpt>
      <trkpt lat="37.334426" lon="-5.977978">
        <ele>55.365506</ele>
        <time>2020-08-16T06:05:07.785Z</time>
      </trkpt>
      <trkpt lat="37.334310" lon="-5.978043">
        <ele>55.251981</ele>
        <time>2020-08-16T06:05:10.781Z</time>
      </trkpt>
      <trkpt lat="37.334232" lon="-5.978136">
        <ele>55.155898</ele>
        <time>2020-08-16T06:05:13.800Z</time>
      </trkpt>
      <trkpt lat="37.334125" lon="-5.978242">
        <ele>55.034135</ele>
        <time>2020-08-16T06:05:16.788Z</time>
      </trkpt>
      <trkpt lat="37.334028" lon="-5.978318">
        <ele>54.931970</ele>
        <time>2020-08-16T06:05:18.788Z</time>
      </trkpt>
      <trkpt lat="37.333942" lon="-5.978382">
        <ele>54.842639</ele>
        <time>2020-08-16T06:05:20.803Z</time>
      </trkpt>
      <trkpt lat="37.333845" lon="-5.978448">
        <ele>54.744049</ele>
        <time>2020-08-16T06:05:22.777Z</time>
      </trkpt>
      <trkpt lat="37.333719" lon="-5.978497">
        <ele>54.801319</ele>
        <time>2020-08-16T06:05:24.787Z</time>
      </trkpt>
      <trkpt lat="37.333595" lon="-5.978574">
        <ele>54.971427</ele>
        <time>2020-08-16T06:05:27.776Z</time>
      </trkpt>
      <trkpt lat="37.333505" lon="-5.978627">
        <ele>55.093669</ele>
        <time>2020-08-16T06:05:29.788Z</time>
      </trkpt>
      <trkpt lat="37.333419" lon="-5.978682">
        <ele>55.212347</ele>
        <time>2020-08-16T06:05:31.783Z</time>
      </trkpt>
      <trkpt lat="37.333319" lon="-5.978752">
        <ele>55.353124</ele>
        <time>2020-08-16T06:05:34.797Z</time>
      </trkpt>
      <trkpt lat="37.333200" lon="-5.978833">
        <ele>55.519566</ele>
        <time>2020-08-16T06:05:36.776Z</time>
      </trkpt>
      <trkpt lat="37.333101" lon="-5.978890">
        <ele>55.653498</ele>
        <time>2020-08-16T06:05:38.781Z</time>
      </trkpt>
      <trkpt lat="37.333009" lon="-5.978972">
        <ele>55.792203</ele>
        <time>2020-08-16T06:05:41.785Z</time>
      </trkpt>
      <trkpt lat="37.332944" lon="-5.979078">
        <ele>55.923128</ele>
        <time>2020-08-16T06:05:46.788Z</time>
      </trkpt>
      <trkpt lat="37.332759" lon="-5.979221">
        <ele>56.190236</ele>
        <time>2020-08-16T06:05:47.783Z</time>
      </trkpt>
      <trkpt lat="37.332643" lon="-5.979313">
        <ele>56.358928</ele>
        <time>2020-08-16T06:05:50.786Z</time>
      </trkpt>
      <trkpt lat="37.332535" lon="-5.979350">
        <ele>56.496617</ele>
        <time>2020-08-16T06:05:54.756Z</time>
      </trkpt>
      <trkpt lat="37.332407" lon="-5.979382">
        <ele>56.657147</ele>
        <time>2020-08-16T06:05:55.751Z</time>
      </trkpt>
      <trkpt lat="37.332310" lon="-5.979416">
        <ele>56.781012</ele>
        <time>2020-08-16T06:05:57.782Z</time>
      </trkpt>
      <trkpt lat="37.332209" lon="-5.979457">
        <ele>56.911561</ele>
        <time>2020-08-16T06:05:59.796Z</time>
      </trkpt>
      <trkpt lat="37.332122" lon="-5.979499">
        <ele>56.941962</ele>
        <time>2020-08-16T06:06:01.792Z</time>
      </trkpt>
      <trkpt lat="37.332017" lon="-5.979557">
        <ele>56.978663</ele>
        <time>2020-08-16T06:06:03.763Z</time>
      </trkpt>
      <trkpt lat="37.331917" lon="-5.979604">
        <ele>57.012828</ele>
        <time>2020-08-16T06:06:05.771Z</time>
      </trkpt>
      <trkpt lat="37.331818" lon="-5.979652">
        <ele>57.046784</ele>
        <time>2020-08-16T06:06:07.752Z</time>
      </trkpt>
      <trkpt lat="37.331738" lon="-5.979708">
        <ele>57.076085</ele>
        <time>2020-08-16T06:06:09.782Z</time>
      </trkpt>
      <trkpt lat="37.331648" lon="-5.979752">
        <ele>57.106987</ele>
        <time>2020-08-16T06:06:11.774Z</time>
      </trkpt>
      <trkpt lat="37.331536" lon="-5.979775">
        <ele>57.143305</ele>
        <time>2020-08-16T06:06:13.775Z</time>
      </trkpt>
      <trkpt lat="37.331448" lon="-5.979831">
        <ele>57.174868</ele>
        <time>2020-08-16T06:06:15.781Z</time>
      </trkpt>
      <trkpt lat="37.331355" lon="-5.979871">
        <ele>57.206323</ele>
        <time>2020-08-16T06:06:17.746Z</time>
      </trkpt>
      <trkpt lat="37.331258" lon="-5.979907">
        <ele>57.238689</ele>
        <time>2020-08-16T06:06:19.782Z</time>
      </trkpt>
      <trkpt lat="37.331156" lon="-5.979953">
        <ele>57.273368</ele>
        <time>2020-08-16T06:06:21.751Z</time>
      </trkpt>
      <trkpt lat="37.331037" lon="-5.980025">
        <ele>57.315629</ele>
        <time>2020-08-16T06:06:24.775Z</time>
      </trkpt>
      <trkpt lat="37.330938" lon="-5.980073">
        <ele>57.349585</ele>
        <time>2020-08-16T06:06:26.754Z</time>
      </trkpt>
      <trkpt lat="37.330841" lon="-5.980101">
        <ele>57.381435</ele>
        <time>2020-08-16T06:06:28.762Z</time>
      </trkpt>
      <trkpt lat="37.330750" lon="-5.980150">
        <ele>57.413115</ele>
        <time>2020-08-16T06:06:30.776Z</time>
      </trkpt>
      <trkpt lat="37.330654" lon="-5.980187">
        <ele>57.445248</ele>
        <time>2020-08-16T06:06:32.771Z</time>
      </trkpt>
      <trkpt lat="37.330566" lon="-5.980237">
        <ele>57.476152</ele>
        <time>2020-08-16T06:06:34.764Z</time>
      </trkpt>
      <trkpt lat="37.330471" lon="-5.980283">
        <ele>57.506195</ele>
        <time>2020-08-16T06:06:36.775Z</time>
      </trkpt>
      <trkpt lat="37.330362" lon="-5.980324">
        <ele>57.538161</ele>
        <time>2020-08-16T06:06:38.769Z</time>
      </trkpt>
      <trkpt lat="37.330265" lon="-5.980371">
        <ele>57.567368</ele>
        <time>2020-08-16T06:06:40.779Z</time>
      </trkpt>
      <trkpt lat="37.330146" lon="-5.980411">
        <ele>57.601978</ele>
        <time>2020-08-16T06:06:42.785Z</time>
      </trkpt>
      <trkpt lat="37.330051" lon="-5.980464">
        <ele>57.631178</ele>
        <time>2020-08-16T06:06:44.773Z</time>
      </trkpt>
      <trkpt lat="37.329945" lon="-5.980518">
        <ele>57.663312</ele>
        <time>2020-08-16T06:06:46.786Z</time>
      </trkpt>
      <trkpt lat="37.329837" lon="-5.980590">
        <ele>57.697657</ele>
        <time>2020-08-16T06:06:48.799Z</time>
      </trkpt>
      <trkpt lat="37.329722" lon="-5.980654">
        <ele>57.732991</ele>
        <time>2020-08-16T06:06:50.781Z</time>
      </trkpt>
      <trkpt lat="37.329606" lon="-5.980724">
        <ele>57.769141</ele>
        <time>2020-08-16T06:06:52.778Z</time>
      </trkpt>
      <trkpt lat="37.329491" lon="-5.980794">
        <ele>57.805038</ele>
        <time>2020-08-16T06:06:54.768Z</time>
      </trkpt>
      <trkpt lat="37.329383" lon="-5.980844">
        <ele>57.837374</ele>
        <time>2020-08-16T06:06:56.780Z</time>
      </trkpt>
      <trkpt lat="37.329267" lon="-5.980884">
        <ele>57.871170</ele>
        <time>2020-08-16T06:06:58.764Z</time>
      </trkpt>
      <trkpt lat="37.329157" lon="-5.980935">
        <ele>57.904110</ele>
        <time>2020-08-16T06:07:00.774Z</time>
      </trkpt>
      <trkpt lat="37.329040" lon="-5.980984">
        <ele>57.938758</ele>
        <time>2020-08-16T06:07:02.788Z</time>
      </trkpt>
      <trkpt lat="37.328925" lon="-5.981057">
        <ele>57.974953</ele>
        <time>2020-08-16T06:07:04.785Z</time>
      </trkpt>
      <trkpt lat="37.328814" lon="-5.981107">
        <ele>57.963336</ele>
        <time>2020-08-16T06:07:06.756Z</time>
      </trkpt>
      <trkpt lat="37.328705" lon="-5.981155">
        <ele>57.897383</ele>
        <time>2020-08-16T06:07:08.782Z</time>
      </trkpt>
      <trkpt lat="37.328582" lon="-5.981190">
        <ele>57.825366</ele>
        <time>2020-08-16T06:07:10.789Z</time>
      </trkpt>
      <trkpt lat="37.328480" lon="-5.981230">
        <ele>57.764351</ele>
        <time>2020-08-16T06:07:12.789Z</time>
      </trkpt>
      <trkpt lat="37.328377" lon="-5.981266">
        <ele>57.703301</ele>
        <time>2020-08-16T06:07:14.781Z</time>
      </trkpt>
      <trkpt lat="37.328273" lon="-5.981299">
        <ele>57.642049</ele>
        <time>2020-08-16T06:07:16.790Z</time>
      </trkpt>
      <trkpt lat="37.328190" lon="-5.981366">
        <ele>57.585725</ele>
        <time>2020-08-16T06:07:18.800Z</time>
      </trkpt>
      <trkpt lat="37.328083" lon="-5.981416">
        <ele>57.520539</ele>
        <time>2020-08-16T06:07:20.781Z</time>
      </trkpt>
      <trkpt lat="37.327975" lon="-5.981476">
        <ele>57.453113</ele>
        <time>2020-08-16T06:07:22.779Z</time>
      </trkpt>
      <trkpt lat="37.327868" lon="-5.981523">
        <ele>57.388389</ele>
        <time>2020-08-16T06:07:24.769Z</time>
      </trkpt>
      <trkpt lat="37.327753" lon="-5.981571">
        <ele>57.319193</ele>
        <time>2020-08-16T06:07:26.788Z</time>
      </trkpt>
      <trkpt lat="37.327656" lon="-5.981617">
        <ele>57.259992</ele>
        <time>2020-08-16T06:07:28.791Z</time>
      </trkpt>
      <trkpt lat="37.327561" lon="-5.981661">
        <ele>57.202178</ele>
        <time>2020-08-16T06:07:30.787Z</time>
      </trkpt>
      <trkpt lat="37.327453" lon="-5.981704">
        <ele>57.137485</ele>
        <time>2020-08-16T06:07:32.786Z</time>
      </trkpt>
      <trkpt lat="37.327342" lon="-5.981735">
        <ele>57.072552</ele>
        <time>2020-08-16T06:07:34.771Z</time>
      </trkpt>
      <trkpt lat="37.327245" lon="-5.981805">
        <ele>57.008686</ele>
        <time>2020-08-16T06:07:36.772Z</time>
      </trkpt>
      <trkpt lat="37.327150" lon="-5.981862">
        <ele>56.949912</ele>
        <time>2020-08-16T06:07:38.786Z</time>
      </trkpt>
      <trkpt lat="37.327053" lon="-5.981911">
        <ele>56.894747</ele>
        <time>2020-08-16T06:07:40.789Z</time>
      </trkpt>
      <trkpt lat="37.326951" lon="-5.981952">
        <ele>56.838236</ele>
        <time>2020-08-16T06:07:42.784Z</time>
      </trkpt>
      <trkpt lat="37.326846" lon="-5.981979">
        <ele>56.781678</ele>
        <time>2020-08-16T06:07:44.789Z</time>
      </trkpt>
      <trkpt lat="37.326724" lon="-5.982023">
        <ele>56.714699</ele>
        <time>2020-08-16T06:07:46.776Z</time>
      </trkpt>
      <trkpt lat="37.326636" lon="-5.982089">
        <ele>56.660628</ele>
        <time>2020-08-16T06:07:48.773Z</time>
      </trkpt>
      <trkpt lat="37.326543" lon="-5.982141">
        <ele>56.606916</ele>
        <time>2020-08-16T06:07:50.788Z</time>
      </trkpt>
      <trkpt lat="37.326431" lon="-5.982181">
        <ele>56.545473</ele>
        <time>2020-08-16T06:07:52.785Z</time>
      </trkpt>
      <trkpt lat="37.326325" lon="-5.982215">
        <ele>56.487743</ele>
        <time>2020-08-16T06:07:54.767Z</time>
      </trkpt>
      <trkpt lat="37.326213" lon="-5.982242">
        <ele>56.427562</ele>
        <time>2020-08-16T06:07:56.776Z</time>
      </trkpt>
      <trkpt lat="37.326123" lon="-5.982298">
        <ele>56.374570</ele>
        <time>2020-08-16T06:07:59.784Z</time>
      </trkpt>
      <trkpt lat="37.325988" lon="-5.982354">
        <ele>56.299551</ele>
        <time>2020-08-16T06:08:00.782Z</time>
      </trkpt>
      <trkpt lat="37.325868" lon="-5.982388">
        <ele>56.234636</ele>
        <time>2020-08-16T06:08:03.779Z</time>
      </trkpt>
      <trkpt lat="37.325772" lon="-5.982436">
        <ele>56.180117</ele>
        <time>2020-08-16T06:08:05.767Z</time>
      </trkpt>
      <trkpt lat="37.325674" lon="-5.982482">
        <ele>56.124914</ele>
        <time>2020-08-16T06:08:07.791Z</time>
      </trkpt>
      <trkpt lat="37.325577" lon="-5.982535">
        <ele>56.069101</ele>
        <time>2020-08-16T06:08:09.786Z</time>
      </trkpt>
      <trkpt lat="37.325481" lon="-5.982589">
        <ele>56.019808</ele>
        <time>2020-08-16T06:08:11.780Z</time>
      </trkpt>
      <trkpt lat="37.325403" lon="-5.982649">
        <ele>56.060155</ele>
        <time>2020-08-16T06:08:13.790Z</time>
      </trkpt>
      <trkpt lat="37.325292" lon="-5.982698">
        <ele>56.112066</ele>
        <time>2020-08-16T06:08:15.806Z</time>
      </trkpt>
      <trkpt lat="37.325189" lon="-5.982746">
        <ele>56.160537</ele>
        <time>2020-08-16T06:08:17.780Z</time>
      </trkpt>
      <trkpt lat="37.325069" lon="-5.982824">
        <ele>56.220145</ele>
        <time>2020-08-16T06:08:20.763Z</time>
      </trkpt>
      <trkpt lat="37.324973" lon="-5.982877">
        <ele>56.266409</ele>
        <time>2020-08-16T06:08:22.789Z</time>
      </trkpt>
      <trkpt lat="37.324866" lon="-5.982917">
        <ele>56.315667</ele>
        <time>2020-08-16T06:08:24.765Z</time>
      </trkpt>
      <trkpt lat="37.324764" lon="-5.982944">
        <ele>56.361663</ele>
        <time>2020-08-16T06:08:26.784Z</time>
      </trkpt>
      <trkpt lat="37.324648" lon="-5.982988">
        <ele>56.415128</ele>
        <time>2020-08-16T06:08:28.788Z</time>
      </trkpt>
      <trkpt lat="37.324553" lon="-5.983027">
        <ele>56.459226</ele>
        <time>2020-08-16T06:08:30.796Z</time>
      </trkpt>
      <trkpt lat="37.324448" lon="-5.983082">
        <ele>56.509418</ele>
        <time>2020-08-16T06:08:32.798Z</time>
      </trkpt>
      <trkpt lat="37.324329" lon="-5.983154">
        <ele>56.567690</ele>
        <time>2020-08-16T06:08:35.783Z</time>
      </trkpt>
      <trkpt lat="37.324223" lon="-5.983219">
        <ele>56.619730</ele>
        <time>2020-08-16T06:08:38.784Z</time>
      </trkpt>
      <trkpt lat="37.324127" lon="-5.983267">
        <ele>56.665317</ele>
        <time>2020-08-16T06:08:40.790Z</time>
      </trkpt>
      <trkpt lat="37.324043" lon="-5.983320">
        <ele>56.706788</ele>
        <time>2020-08-16T06:08:42.780Z</time>
      </trkpt>
      <trkpt lat="37.323930" lon="-5.983358">
        <ele>56.758403</ele>
        <time>2020-08-16T06:08:44.781Z</time>
      </trkpt>
      <trkpt lat="37.323840" lon="-5.983415">
        <ele>56.802870</ele>
        <time>2020-08-16T06:08:46.781Z</time>
      </trkpt>
      <trkpt lat="37.323768" lon="-5.983484">
        <ele>56.848775</ele>
        <time>2020-08-16T06:08:48.782Z</time>
      </trkpt>
      <trkpt lat="37.323646" lon="-5.983592">
        <ele>56.926815</ele>
        <time>2020-08-16T06:08:51.779Z</time>
      </trkpt>
      <trkpt lat="37.323567" lon="-5.983682">
        <ele>56.982573</ele>
        <time>2020-08-16T06:08:53.780Z</time>
      </trkpt>
      <trkpt lat="37.323523" lon="-5.983785">
        <ele>57.031206</ele>
        <time>2020-08-16T06:08:55.785Z</time>
      </trkpt>
      <trkpt lat="37.323452" lon="-5.983896">
        <ele>57.090459</ele>
        <time>2020-08-16T06:08:57.782Z</time>
      </trkpt>
      <trkpt lat="37.323364" lon="-5.984013">
        <ele>57.157445</ele>
        <time>2020-08-16T06:08:59.757Z</time>
      </trkpt>
      <trkpt lat="37.323260" lon="-5.984131">
        <ele>57.230714</ele>
        <time>2020-08-16T06:09:01.783Z</time>
      </trkpt>
      <trkpt lat="37.323181" lon="-5.984268">
        <ele>57.301105</ele>
        <time>2020-08-16T06:09:03.782Z</time>
      </trkpt>
      <trkpt lat="37.323107" lon="-5.984419">
        <ele>57.374883</ele>
        <time>2020-08-16T06:09:05.750Z</time>
      </trkpt>
      <trkpt lat="37.322954" lon="-5.984763">
        <ele>57.538831</ele>
        <time>2020-08-16T06:09:11.783Z</time>
      </trkpt>
      <trkpt lat="37.322861" lon="-5.984809">
        <ele>57.591104</ele>
        <time>2020-08-16T06:09:13.765Z</time>
      </trkpt>
      <trkpt lat="37.322733" lon="-5.984821">
        <ele>57.658242</ele>
        <time>2020-08-16T06:09:15.755Z</time>
      </trkpt>
      <trkpt lat="37.322631" lon="-5.984819">
        <ele>57.711600</ele>
        <time>2020-08-16T06:09:17.785Z</time>
      </trkpt>
      <trkpt lat="37.322514" lon="-5.984790">
        <ele>57.841373</ele>
        <time>2020-08-16T06:09:19.780Z</time>
      </trkpt>
      <trkpt lat="37.322412" lon="-5.984778">
        <ele>58.055419</ele>
        <time>2020-08-16T06:09:21.787Z</time>
      </trkpt>
      <trkpt lat="37.322311" lon="-5.984774">
        <ele>58.266549</ele>
        <time>2020-08-16T06:09:23.755Z</time>
      </trkpt>
      <trkpt lat="37.322216" lon="-5.984749">
        <ele>58.469339</ele>
        <time>2020-08-16T06:09:25.774Z</time>
      </trkpt>
      <trkpt lat="37.322126" lon="-5.984724">
        <ele>58.661915</ele>
        <time>2020-08-16T06:09:27.760Z</time>
      </trkpt>
      <trkpt lat="37.322029" lon="-5.984692">
        <ele>58.871442</ele>
        <time>2020-08-16T06:09:29.763Z</time>
      </trkpt>
      <trkpt lat="37.321908" lon="-5.984688">
        <ele>59.124342</ele>
        <time>2020-08-16T06:09:32.766Z</time>
      </trkpt>
      <trkpt lat="37.321801" lon="-5.984678">
        <ele>59.348521</ele>
        <time>2020-08-16T06:09:35.770Z</time>
      </trkpt>
      <trkpt lat="37.321696" lon="-5.984660">
        <ele>59.569934</ele>
        <time>2020-08-16T06:09:38.776Z</time>
      </trkpt>
      <trkpt lat="37.321595" lon="-5.984643">
        <ele>59.782842</ele>
        <time>2020-08-16T06:09:41.762Z</time>
      </trkpt>
      <trkpt lat="37.321490" lon="-5.984637">
        <ele>60.002451</ele>
        <time>2020-08-16T06:09:44.757Z</time>
      </trkpt>
      <trkpt lat="37.321383" lon="-5.984623">
        <ele>60.227220</ele>
        <time>2020-08-16T06:09:47.767Z</time>
      </trkpt>
      <trkpt lat="37.321271" lon="-5.984632">
        <ele>60.461707</ele>
        <time>2020-08-16T06:09:50.783Z</time>
      </trkpt>
      <trkpt lat="37.321156" lon="-5.984668">
        <ele>60.709317</ele>
        <time>2020-08-16T06:09:53.780Z</time>
      </trkpt>
      <trkpt lat="37.321085" lon="-5.984765">
        <ele>60.928367</ele>
        <time>2020-08-16T06:09:54.781Z</time>
      </trkpt>
      <trkpt lat="37.320996" lon="-5.984792">
        <ele>61.119655</ele>
        <time>2020-08-16T06:09:57.772Z</time>
      </trkpt>
      <trkpt lat="37.320909" lon="-5.984830">
        <ele>61.312084</ele>
        <time>2020-08-16T06:10:00.783Z</time>
      </trkpt>
      <trkpt lat="37.320781" lon="-5.984847">
        <ele>61.509171</ele>
        <time>2020-08-16T06:10:03.777Z</time>
      </trkpt>
      <trkpt lat="37.320680" lon="-5.984892">
        <ele>61.508167</ele>
        <time>2020-08-16T06:10:05.783Z</time>
      </trkpt>
      <trkpt lat="37.320567" lon="-5.984892">
        <ele>61.507108</ele>
        <time>2020-08-16T06:10:07.786Z</time>
      </trkpt>
      <trkpt lat="37.320493" lon="-5.984970">
        <ele>61.506202</ele>
        <time>2020-08-16T06:10:10.788Z</time>
      </trkpt>
      <trkpt lat="37.320362" lon="-5.985015">
        <ele>61.504929</ele>
        <time>2020-08-16T06:10:12.782Z</time>
      </trkpt>
      <trkpt lat="37.320261" lon="-5.985073">
        <ele>61.503889</ele>
        <time>2020-08-16T06:10:14.788Z</time>
      </trkpt>
      <trkpt lat="37.320162" lon="-5.985112">
        <ele>61.502916</ele>
        <time>2020-08-16T06:10:16.782Z</time>
      </trkpt>
      <trkpt lat="37.320072" lon="-5.985169">
        <ele>61.501971</ele>
        <time>2020-08-16T06:10:18.786Z</time>
      </trkpt>
      <trkpt lat="37.319980" lon="-5.985217">
        <ele>61.501038</ele>
        <time>2020-08-16T06:10:20.771Z</time>
      </trkpt>
      <trkpt lat="37.319894" lon="-5.985271">
        <ele>61.500136</ele>
        <time>2020-08-16T06:10:22.783Z</time>
      </trkpt>
      <trkpt lat="37.319806" lon="-5.985324">
        <ele>61.499222</ele>
        <time>2020-08-16T06:10:24.783Z</time>
      </trkpt>
      <trkpt lat="37.319712" lon="-5.985359">
        <ele>61.498303</ele>
        <time>2020-08-16T06:10:26.791Z</time>
      </trkpt>
      <trkpt lat="37.319616" lon="-5.985395">
        <ele>61.497364</ele>
        <time>2020-08-16T06:10:28.783Z</time>
      </trkpt>
      <trkpt lat="37.319528" lon="-5.985442">
        <ele>61.496467</ele>
        <time>2020-08-16T06:10:30.777Z</time>
      </trkpt>
      <trkpt lat="37.319434" lon="-5.985480">
        <ele>61.495542</ele>
        <time>2020-08-16T06:10:32.787Z</time>
      </trkpt>
      <trkpt lat="37.319356" lon="-5.985543">
        <ele>61.494673</ele>
        <time>2020-08-16T06:10:34.779Z</time>
      </trkpt>
      <trkpt lat="37.319268" lon="-5.985587">
        <ele>61.493785</ele>
        <time>2020-08-16T06:10:36.777Z</time>
      </trkpt>
      <trkpt lat="37.319173" lon="-5.985638">
        <ele>61.492817</ele>
        <time>2020-08-16T06:10:38.777Z</time>
      </trkpt>
      <trkpt lat="37.319051" lon="-5.985716">
        <ele>61.351919</ele>
        <time>2020-08-16T06:10:41.782Z</time>
      </trkpt>
      <trkpt lat="37.318954" lon="-5.985760">
        <ele>61.227985</ele>
        <time>2020-08-16T06:10:43.770Z</time>
      </trkpt>
      <trkpt lat="37.318859" lon="-5.985814">
        <ele>61.102685</ele>
        <time>2020-08-16T06:10:45.785Z</time>
      </trkpt>
      <trkpt lat="37.318748" lon="-5.985873">
        <ele>60.957849</ele>
        <time>2020-08-16T06:10:47.784Z</time>
      </trkpt>
      <trkpt lat="37.318642" lon="-5.985951">
        <ele>60.810241</ele>
        <time>2020-08-16T06:10:49.784Z</time>
      </trkpt>
      <trkpt lat="37.318539" lon="-5.986012">
        <ele>60.673406</ele>
        <time>2020-08-16T06:10:51.782Z</time>
      </trkpt>
      <trkpt lat="37.318451" lon="-5.986077">
        <ele>60.550745</ele>
        <time>2020-08-16T06:10:53.782Z</time>
      </trkpt>
      <trkpt lat="37.318362" lon="-5.986138">
        <ele>60.428921</ele>
        <time>2020-08-16T06:10:55.784Z</time>
      </trkpt>
      <trkpt lat="37.318251" lon="-5.986194">
        <ele>60.285178</ele>
        <time>2020-08-16T06:10:57.776Z</time>
      </trkpt>
      <trkpt lat="37.318163" lon="-5.986228">
        <ele>60.174534</ele>
        <time>2020-08-16T06:10:59.788Z</time>
      </trkpt>
      <trkpt lat="37.318069" lon="-5.986277">
        <ele>60.052236</ele>
        <time>2020-08-16T06:11:01.787Z</time>
      </trkpt>
      <trkpt lat="37.317953" lon="-5.986355">
        <ele>59.894138</ele>
        <time>2020-08-16T06:11:04.752Z</time>
      </trkpt>
      <trkpt lat="37.317862" lon="-5.986422">
        <ele>59.767399</ele>
        <time>2020-08-16T06:11:06.782Z</time>
      </trkpt>
      <trkpt lat="37.317741" lon="-5.986496">
        <ele>59.605686</ele>
        <time>2020-08-16T06:11:09.784Z</time>
      </trkpt>
      <trkpt lat="37.317654" lon="-5.986552">
        <ele>59.488220</ele>
        <time>2020-08-16T06:11:11.754Z</time>
      </trkpt>
      <trkpt lat="37.317554" lon="-5.986603">
        <ele>59.358525</ele>
        <time>2020-08-16T06:11:13.789Z</time>
      </trkpt>
      <trkpt lat="37.317468" lon="-5.986670">
        <ele>59.343222</ele>
        <time>2020-08-16T06:11:15.783Z</time>
      </trkpt>
      <trkpt lat="37.317372" lon="-5.986721">
        <ele>59.359622</ele>
        <time>2020-08-16T06:11:17.775Z</time>
      </trkpt>
      <trkpt lat="37.317267" lon="-5.986770">
        <ele>59.377247</ele>
        <time>2020-08-16T06:11:19.780Z</time>
      </trkpt>
      <trkpt lat="37.317179" lon="-5.986837">
        <ele>59.393436</ele>
        <time>2020-08-16T06:11:21.785Z</time>
      </trkpt>
      <trkpt lat="37.317091" lon="-5.986899">
        <ele>59.409310</ele>
        <time>2020-08-16T06:11:23.780Z</time>
      </trkpt>
      <trkpt lat="37.316995" lon="-5.986952">
        <ele>59.425809</ele>
        <time>2020-08-16T06:11:25.769Z</time>
      </trkpt>
      <trkpt lat="37.316903" lon="-5.987017">
        <ele>59.442415</ele>
        <time>2020-08-16T06:11:27.783Z</time>
      </trkpt>
      <trkpt lat="37.316817" lon="-5.987085">
        <ele>59.458402</ele>
        <time>2020-08-16T06:11:29.786Z</time>
      </trkpt>
      <trkpt lat="37.316737" lon="-5.987140">
        <ele>59.472750</ele>
        <time>2020-08-16T06:11:31.783Z</time>
      </trkpt>
      <trkpt lat="37.316628" lon="-5.987181">
        <ele>59.490654</ele>
        <time>2020-08-16T06:11:33.776Z</time>
      </trkpt>
      <trkpt lat="37.316525" lon="-5.987247">
        <ele>59.508846</ele>
        <time>2020-08-16T06:11:35.784Z</time>
      </trkpt>
      <trkpt lat="37.316437" lon="-5.987303">
        <ele>59.524366</ele>
        <time>2020-08-16T06:11:37.770Z</time>
      </trkpt>
      <trkpt lat="37.316358" lon="-5.987362">
        <ele>59.538826</ele>
        <time>2020-08-16T06:11:39.767Z</time>
      </trkpt>
      <trkpt lat="37.316256" lon="-5.987420">
        <ele>59.556442</ele>
        <time>2020-08-16T06:11:41.786Z</time>
      </trkpt>
      <trkpt lat="37.316175" lon="-5.987480">
        <ele>59.571236</ele>
        <time>2020-08-16T06:11:43.789Z</time>
      </trkpt>
      <trkpt lat="37.316076" lon="-5.987527">
        <ele>59.587889</ele>
        <time>2020-08-16T06:11:45.794Z</time>
      </trkpt>
      <trkpt lat="37.315972" lon="-5.987573">
        <ele>59.605238</ele>
        <time>2020-08-16T06:11:47.772Z</time>
      </trkpt>
      <trkpt lat="37.315891" lon="-5.987632">
        <ele>59.618987</ele>
        <time>2020-08-16T06:11:49.777Z</time>
      </trkpt>
      <trkpt lat="37.315798" lon="-5.987693">
        <ele>59.632799</ele>
        <time>2020-08-16T06:11:51.781Z</time>
      </trkpt>
      <trkpt lat="37.315703" lon="-5.987740">
        <ele>59.646241</ele>
        <time>2020-08-16T06:11:53.782Z</time>
      </trkpt>
      <trkpt lat="37.315615" lon="-5.987791">
        <ele>59.658999</ele>
        <time>2020-08-16T06:11:55.782Z</time>
      </trkpt>
      <trkpt lat="37.315523" lon="-5.987848">
        <ele>59.672504</ele>
        <time>2020-08-16T06:11:57.763Z</time>
      </trkpt>
      <trkpt lat="37.315441" lon="-5.987914">
        <ele>59.685324</ele>
        <time>2020-08-16T06:11:59.795Z</time>
      </trkpt>
      <trkpt lat="37.315331" lon="-5.987968">
        <ele>59.700872</ele>
        <time>2020-08-16T06:12:01.779Z</time>
      </trkpt>
      <trkpt lat="37.315209" lon="-5.988057">
        <ele>59.719444</ele>
        <time>2020-08-16T06:12:04.785Z</time>
      </trkpt>
      <trkpt lat="37.315129" lon="-5.988129">
        <ele>59.732398</ele>
        <time>2020-08-16T06:12:06.759Z</time>
      </trkpt>
      <trkpt lat="37.315039" lon="-5.988171">
        <ele>59.745038</ele>
        <time>2020-08-16T06:12:08.766Z</time>
      </trkpt>
      <trkpt lat="37.314947" lon="-5.988217">
        <ele>59.758074</ele>
        <time>2020-08-16T06:12:10.782Z</time>
      </trkpt>
      <trkpt lat="37.314846" lon="-5.988265">
        <ele>59.772291</ele>
        <time>2020-08-16T06:12:12.760Z</time>
      </trkpt>
      <trkpt lat="37.314759" lon="-5.988325">
        <ele>59.785357</ele>
        <time>2020-08-16T06:12:14.778Z</time>
      </trkpt>
      <trkpt lat="37.314675" lon="-5.988392">
        <ele>59.798455</ele>
        <time>2020-08-16T06:12:16.784Z</time>
      </trkpt>
      <trkpt lat="37.314580" lon="-5.988437">
        <ele>59.811821</ele>
        <time>2020-08-16T06:12:18.777Z</time>
      </trkpt>
      <trkpt lat="37.314507" lon="-5.988507">
        <ele>59.823910</ele>
        <time>2020-08-16T06:12:20.771Z</time>
      </trkpt>
      <trkpt lat="37.314416" lon="-5.988569">
        <ele>59.837538</ele>
        <time>2020-08-16T06:12:22.782Z</time>
      </trkpt>
      <trkpt lat="37.314323" lon="-5.988636">
        <ele>59.851941</ele>
        <time>2020-08-16T06:12:24.779Z</time>
      </trkpt>
      <trkpt lat="37.314225" lon="-5.988686">
        <ele>59.870550</ele>
        <time>2020-08-16T06:12:26.764Z</time>
      </trkpt>
      <trkpt lat="37.314138" lon="-5.988732">
        <ele>59.887157</ele>
        <time>2020-08-16T06:12:28.773Z</time>
      </trkpt>
      <trkpt lat="37.314032" lon="-5.988781">
        <ele>59.907029</ele>
        <time>2020-08-16T06:12:30.765Z</time>
      </trkpt>
      <trkpt lat="37.313909" lon="-5.988877">
        <ele>59.932502</ele>
        <time>2020-08-16T06:12:33.780Z</time>
      </trkpt>
      <trkpt lat="37.313810" lon="-5.988939">
        <ele>59.951963</ele>
        <time>2020-08-16T06:12:35.766Z</time>
      </trkpt>
      <trkpt lat="37.313702" lon="-5.988989">
        <ele>59.972214</ele>
        <time>2020-08-16T06:12:37.766Z</time>
      </trkpt>
      <trkpt lat="37.313610" lon="-5.989050">
        <ele>59.990515</ele>
        <time>2020-08-16T06:12:39.790Z</time>
      </trkpt>
      <trkpt lat="37.313524" lon="-5.989122">
        <ele>60.008695</ele>
        <time>2020-08-16T06:12:41.792Z</time>
      </trkpt>
      <trkpt lat="37.313416" lon="-5.989164">
        <ele>60.028587</ele>
        <time>2020-08-16T06:12:43.787Z</time>
      </trkpt>
      <trkpt lat="37.313319" lon="-5.989231">
        <ele>60.048061</ele>
        <time>2020-08-16T06:12:45.775Z</time>
      </trkpt>
      <trkpt lat="37.313231" lon="-5.989276">
        <ele>60.064776</ele>
        <time>2020-08-16T06:12:47.765Z</time>
      </trkpt>
      <trkpt lat="37.313149" lon="-5.989335">
        <ele>60.081400</ele>
        <time>2020-08-16T06:12:49.775Z</time>
      </trkpt>
      <trkpt lat="37.313061" lon="-5.989378">
        <ele>60.098013</ele>
        <time>2020-08-16T06:12:51.793Z</time>
      </trkpt>
      <trkpt lat="37.312976" lon="-5.989417">
        <ele>60.113934</ele>
        <time>2020-08-16T06:12:54.779Z</time>
      </trkpt>
      <trkpt lat="37.312896" lon="-5.989513">
        <ele>60.133393</ele>
        <time>2020-08-16T06:12:57.790Z</time>
      </trkpt>
      <trkpt lat="37.312777" lon="-5.989580">
        <ele>60.156335</ele>
        <time>2020-08-16T06:13:00.772Z</time>
      </trkpt>
      <trkpt lat="37.312698" lon="-5.989650">
        <ele>60.186642</ele>
        <time>2020-08-16T06:13:04.781Z</time>
      </trkpt>
      <trkpt lat="37.312647" lon="-5.989769">
        <ele>60.247025</ele>
        <time>2020-08-16T06:13:11.806Z</time>
      </trkpt>
      <trkpt lat="37.312561" lon="-5.989840">
        <ele>60.304809</ele>
        <time>2020-08-16T06:13:15.791Z</time>
      </trkpt>
      <trkpt lat="37.312477" lon="-5.989885">
        <ele>60.356091</ele>
        <time>2020-08-16T06:13:19.799Z</time>
      </trkpt>
      <trkpt lat="37.312333" lon="-5.989969">
        <ele>60.445249</ele>
        <time>2020-08-16T06:13:25.795Z</time>
      </trkpt>
      <trkpt lat="37.311722" lon="-5.990238">
        <ele>60.808846</ele>
        <time>2020-08-16T06:13:26.785Z</time>
      </trkpt>
      <trkpt lat="37.311645" lon="-5.990296">
        <ele>60.859260</ele>
        <time>2020-08-16T06:13:28.757Z</time>
      </trkpt>
      <trkpt lat="37.311558" lon="-5.990338">
        <ele>60.911602</ele>
        <time>2020-08-16T06:13:30.783Z</time>
      </trkpt>
      <trkpt lat="37.311432" lon="-5.990430">
        <ele>60.993437</ele>
        <time>2020-08-16T06:13:33.789Z</time>
      </trkpt>
      <trkpt lat="37.311353" lon="-5.990484">
        <ele>61.043941</ele>
        <time>2020-08-16T06:13:35.757Z</time>
      </trkpt>
      <trkpt lat="37.311251" lon="-5.990535">
        <ele>61.105593</ele>
        <time>2020-08-16T06:13:37.788Z</time>
      </trkpt>
      <trkpt lat="37.311147" lon="-5.990628">
        <ele>61.177271</ele>
        <time>2020-08-16T06:13:40.776Z</time>
      </trkpt>
      <trkpt lat="37.310996" lon="-5.990684">
        <ele>61.091424</ele>
        <time>2020-08-16T06:13:42.801Z</time>
      </trkpt>
      <trkpt lat="37.310881" lon="-5.990750">
        <ele>61.022165</ele>
        <time>2020-08-16T06:13:45.777Z</time>
      </trkpt>
      <trkpt lat="37.310780" lon="-5.990794">
        <ele>60.963601</ele>
        <time>2020-08-16T06:13:47.765Z</time>
      </trkpt>
      <trkpt lat="37.310696" lon="-5.990854">
        <ele>60.910671</ele>
        <time>2020-08-16T06:13:49.785Z</time>
      </trkpt>
      <trkpt lat="37.310625" lon="-5.990929">
        <ele>60.859864</ele>
        <time>2020-08-16T06:13:51.794Z</time>
      </trkpt>
      <trkpt lat="37.310533" lon="-5.990980">
        <ele>60.804777</ele>
        <time>2020-08-16T06:13:53.776Z</time>
      </trkpt>
      <trkpt lat="37.310449" lon="-5.991035">
        <ele>60.752889</ele>
        <time>2020-08-16T06:13:55.774Z</time>
      </trkpt>
      <trkpt lat="37.310351" lon="-5.991081">
        <ele>60.695577</ele>
        <time>2020-08-16T06:13:57.776Z</time>
      </trkpt>
      <trkpt lat="37.310257" lon="-5.991131">
        <ele>60.639657</ele>
        <time>2020-08-16T06:13:59.760Z</time>
      </trkpt>
      <trkpt lat="37.310176" lon="-5.991202">
        <ele>60.585558</ele>
        <time>2020-08-16T06:14:01.779Z</time>
      </trkpt>
      <trkpt lat="37.310078" lon="-5.991287">
        <ele>60.520329</ele>
        <time>2020-08-16T06:14:04.776Z</time>
      </trkpt>
      <trkpt lat="37.309979" lon="-5.991331">
        <ele>60.462800</ele>
        <time>2020-08-16T06:14:06.772Z</time>
      </trkpt>
      <trkpt lat="37.309895" lon="-5.991380">
        <ele>60.412065</ele>
        <time>2020-08-16T06:14:08.771Z</time>
      </trkpt>
      <trkpt lat="37.309814" lon="-5.991447">
        <ele>60.358944</ele>
        <time>2020-08-16T06:14:10.784Z</time>
      </trkpt>
      <trkpt lat="37.309721" lon="-5.991509">
        <ele>60.301272</ele>
        <time>2020-08-16T06:14:12.776Z</time>
      </trkpt>
      <trkpt lat="37.309633" lon="-5.991551">
        <ele>60.249701</ele>
        <time>2020-08-16T06:14:14.774Z</time>
      </trkpt>
      <trkpt lat="37.309543" lon="-5.991594">
        <ele>60.196952</ele>
        <time>2020-08-16T06:14:16.782Z</time>
      </trkpt>
      <trkpt lat="37.309445" lon="-5.991631">
        <ele>60.341165</ele>
        <time>2020-08-16T06:14:18.782Z</time>
      </trkpt>
      <trkpt lat="37.309346" lon="-5.991687">
        <ele>60.514586</ele>
        <time>2020-08-16T06:14:20.779Z</time>
      </trkpt>
      <trkpt lat="37.309263" lon="-5.991749">
        <ele>60.668814</ele>
        <time>2020-08-16T06:14:22.778Z</time>
      </trkpt>
      <trkpt lat="37.309174" lon="-5.991802">
        <ele>60.826133</ele>
        <time>2020-08-16T06:14:24.783Z</time>
      </trkpt>
      <trkpt lat="37.309083" lon="-5.991844">
        <ele>60.980990</ele>
        <time>2020-08-16T06:14:26.792Z</time>
      </trkpt>
      <trkpt lat="37.308989" lon="-5.991896">
        <ele>61.145047</ele>
        <time>2020-08-16T06:14:28.780Z</time>
      </trkpt>
      <trkpt lat="37.308888" lon="-5.991935">
        <ele>61.313832</ele>
        <time>2020-08-16T06:14:30.774Z</time>
      </trkpt>
      <trkpt lat="37.308770" lon="-5.992024">
        <ele>61.533654</ele>
        <time>2020-08-16T06:14:33.771Z</time>
      </trkpt>
      <trkpt lat="37.308690" lon="-5.992082">
        <ele>61.681179</ele>
        <time>2020-08-16T06:14:35.772Z</time>
      </trkpt>
      <trkpt lat="37.308596" lon="-5.992139">
        <ele>61.847897</ele>
        <time>2020-08-16T06:14:37.779Z</time>
      </trkpt>
      <trkpt lat="37.308507" lon="-5.992204">
        <ele>62.012321</ele>
        <time>2020-08-16T06:14:39.777Z</time>
      </trkpt>
      <trkpt lat="37.308393" lon="-5.992238">
        <ele>62.199489</ele>
        <time>2020-08-16T06:14:41.791Z</time>
      </trkpt>
      <trkpt lat="37.308298" lon="-5.992273">
        <ele>62.357632</ele>
        <time>2020-08-16T06:14:43.772Z</time>
      </trkpt>
      <trkpt lat="37.308210" lon="-5.992323">
        <ele>62.511900</ele>
        <time>2020-08-16T06:14:45.786Z</time>
      </trkpt>
      <trkpt lat="37.308123" lon="-5.992368">
        <ele>62.662184</ele>
        <time>2020-08-16T06:14:47.777Z</time>
      </trkpt>
      <trkpt lat="37.308030" lon="-5.992434">
        <ele>62.832785</ele>
        <time>2020-08-16T06:14:49.788Z</time>
      </trkpt>
      <trkpt lat="37.307913" lon="-5.992490">
        <ele>63.032778</ele>
        <time>2020-08-16T06:14:52.774Z</time>
      </trkpt>
      <trkpt lat="37.307805" lon="-5.992559">
        <ele>63.173218</ele>
        <time>2020-08-16T06:14:55.805Z</time>
      </trkpt>
      <trkpt lat="37.307715" lon="-5.992619">
        <ele>63.282279</ele>
        <time>2020-08-16T06:14:58.791Z</time>
      </trkpt>
      <trkpt lat="37.307613" lon="-5.992705">
        <ele>63.413762</ele>
        <time>2020-08-16T06:15:00.759Z</time>
      </trkpt>
      <trkpt lat="37.306627" lon="-5.993283">
        <ele>64.578473</ele>
        <time>2020-08-16T06:15:21.839Z</time>
      </trkpt>
      <trkpt lat="37.306516" lon="-5.993331">
        <ele>64.704142</ele>
        <time>2020-08-16T06:15:23.771Z</time>
      </trkpt>
      <trkpt lat="37.306447" lon="-5.993421">
        <ele>64.810587</ele>
        <time>2020-08-16T06:15:25.769Z</time>
      </trkpt>
      <trkpt lat="37.306333" lon="-5.993508">
        <ele>64.953360</ele>
        <time>2020-08-16T06:15:28.776Z</time>
      </trkpt>
      <trkpt lat="37.306255" lon="-5.993569">
        <ele>64.928230</ele>
        <time>2020-08-16T06:15:30.788Z</time>
      </trkpt>
      <trkpt lat="37.306169" lon="-5.993611">
        <ele>64.826215</ele>
        <time>2020-08-16T06:15:32.784Z</time>
      </trkpt>
      <trkpt lat="37.306095" lon="-5.993695">
        <ele>64.715975</ele>
        <time>2020-08-16T06:15:34.784Z</time>
      </trkpt>
      <trkpt lat="37.306009" lon="-5.993744">
        <ele>64.611574</ele>
        <time>2020-08-16T06:15:36.780Z</time>
      </trkpt>
      <trkpt lat="37.305925" lon="-5.993805">
        <ele>64.504313</ele>
        <time>2020-08-16T06:15:38.773Z</time>
      </trkpt>
      <trkpt lat="37.305825" lon="-5.993860">
        <ele>64.383623</ele>
        <time>2020-08-16T06:15:40.763Z</time>
      </trkpt>
      <trkpt lat="37.305717" lon="-5.993903">
        <ele>64.258360</ele>
        <time>2020-08-16T06:15:42.775Z</time>
      </trkpt>
      <trkpt lat="37.305634" lon="-5.993963">
        <ele>64.152496</ele>
        <time>2020-08-16T06:15:44.775Z</time>
      </trkpt>
      <trkpt lat="37.305532" lon="-5.994005">
        <ele>64.033818</ele>
        <time>2020-08-16T06:15:46.784Z</time>
      </trkpt>
      <trkpt lat="37.305431" lon="-5.994039">
        <ele>63.918206</ele>
        <time>2020-08-16T06:15:48.778Z</time>
      </trkpt>
      <trkpt lat="37.305343" lon="-5.994121">
        <ele>63.797090</ele>
        <time>2020-08-16T06:15:53.780Z</time>
      </trkpt>
      <trkpt lat="37.305432" lon="-5.994098">
        <ele>63.696624</ele>
        <time>2020-08-16T06:15:58.771Z</time>
      </trkpt>
      <trkpt lat="37.305488" lon="-5.994246">
        <ele>63.552480</ele>
        <time>2020-08-16T06:16:01.769Z</time>
      </trkpt>
      <trkpt lat="37.304852" lon="-5.994441">
        <ele>63.040596</ele>
        <time>2020-08-16T06:16:02.780Z</time>
      </trkpt>
      <trkpt lat="37.304757" lon="-5.994477">
        <ele>63.064886</ele>
        <time>2020-08-16T06:16:04.756Z</time>
      </trkpt>
      <trkpt lat="37.304667" lon="-5.994535">
        <ele>63.089644</ele>
        <time>2020-08-16T06:16:06.756Z</time>
      </trkpt>
      <trkpt lat="37.304583" lon="-5.994600">
        <ele>63.113791</ele>
        <time>2020-08-16T06:16:08.751Z</time>
      </trkpt>
      <trkpt lat="37.304494" lon="-5.994663">
        <ele>63.138795</ele>
        <time>2020-08-16T06:16:10.787Z</time>
      </trkpt>
      <trkpt lat="37.304417" lon="-5.994726">
        <ele>63.161285</ele>
        <time>2020-08-16T06:16:12.783Z</time>
      </trkpt>
      <trkpt lat="37.304326" lon="-5.994775">
        <ele>63.185520</ele>
        <time>2020-08-16T06:16:14.791Z</time>
      </trkpt>
      <trkpt lat="37.304242" lon="-5.994826">
        <ele>63.208356</ele>
        <time>2020-08-16T06:16:16.787Z</time>
      </trkpt>
      <trkpt lat="37.304150" lon="-5.994881">
        <ele>63.233294</ele>
        <time>2020-08-16T06:16:18.750Z</time>
      </trkpt>
      <trkpt lat="37.304026" lon="-5.994961">
        <ele>63.267414</ele>
        <time>2020-08-16T06:16:21.776Z</time>
      </trkpt>
      <trkpt lat="37.303929" lon="-5.995009">
        <ele>63.292933</ele>
        <time>2020-08-16T06:16:23.765Z</time>
      </trkpt>
      <trkpt lat="37.303838" lon="-5.995057">
        <ele>63.317092</ele>
        <time>2020-08-16T06:16:25.767Z</time>
      </trkpt>
      <trkpt lat="37.303708" lon="-5.995124">
        <ele>63.351487</ele>
        <time>2020-08-16T06:16:28.767Z</time>
      </trkpt>
      <trkpt lat="37.303618" lon="-5.995229">
        <ele>63.381544</ele>
        <time>2020-08-16T06:16:31.774Z</time>
      </trkpt>
      <trkpt lat="37.303524" lon="-5.995338">
        <ele>63.412850</ele>
        <time>2020-08-16T06:16:34.774Z</time>
      </trkpt>
      <trkpt lat="37.303453" lon="-5.995422">
        <ele>63.436717</ele>
        <time>2020-08-16T06:16:37.774Z</time>
      </trkpt>
      <trkpt lat="37.303361" lon="-5.995483">
        <ele>63.188851</ele>
        <time>2020-08-16T06:16:40.762Z</time>
      </trkpt>
      <trkpt lat="37.303283" lon="-5.995547">
        <ele>62.895132</ele>
        <time>2020-08-16T06:17:03.764Z</time>
      </trkpt>
      <trkpt lat="37.303184" lon="-5.995561">
        <ele>62.580975</ele>
        <time>2020-08-16T06:17:15.761Z</time>
      </trkpt>
      <trkpt lat="37.303209" lon="-5.995675">
        <ele>62.284355</ele>
        <time>2020-08-16T06:17:37.762Z</time>
      </trkpt>
      <trkpt lat="37.303118" lon="-5.995693">
        <ele>61.993864</ele>
        <time>2020-08-16T06:17:55.780Z</time>
      </trkpt>
      <trkpt lat="37.303027" lon="-5.995713">
        <ele>61.702551</ele>
        <time>2020-08-16T06:18:04.777Z</time>
      </trkpt>
      <trkpt lat="37.302946" lon="-5.995777">
        <ele>61.400866</ele>
        <time>2020-08-16T06:18:13.773Z</time>
      </trkpt>
      <trkpt lat="37.302810" lon="-5.995832">
        <ele>60.950357</ele>
        <time>2020-08-16T06:18:29.758Z</time>
      </trkpt>
      <trkpt lat="37.302689" lon="-5.995903">
        <ele>60.529278</ele>
        <time>2020-08-16T06:18:31.779Z</time>
      </trkpt>
      <trkpt lat="37.302571" lon="-5.995970">
        <ele>60.120982</ele>
        <time>2020-08-16T06:18:33.771Z</time>
      </trkpt>
      <trkpt lat="37.302463" lon="-5.995991">
        <ele>59.776364</ele>
        <time>2020-08-16T06:18:35.784Z</time>
      </trkpt>
      <trkpt lat="37.302358" lon="-5.996033">
        <ele>59.428899</ele>
        <time>2020-08-16T06:18:40.784Z</time>
      </trkpt>
      <trkpt lat="37.302259" lon="-5.996053">
        <ele>59.112706</ele>
        <time>2020-08-16T06:18:44.794Z</time>
      </trkpt>
      <trkpt lat="37.302156" lon="-5.996107">
        <ele>58.760792</ele>
        <time>2020-08-16T06:18:48.779Z</time>
      </trkpt>
      <trkpt lat="37.302051" lon="-5.996170">
        <ele>58.393905</ele>
        <time>2020-08-16T06:18:52.785Z</time>
      </trkpt>
      <trkpt lat="37.301969" lon="-5.996223">
        <ele>58.103151</ele>
        <time>2020-08-16T06:18:55.788Z</time>
      </trkpt>
      <trkpt lat="37.301868" lon="-5.996269">
        <ele>57.772002</ele>
        <time>2020-08-16T06:18:58.769Z</time>
      </trkpt>
      <trkpt lat="37.301780" lon="-5.996341">
        <ele>57.845473</ele>
        <time>2020-08-16T06:19:01.789Z</time>
      </trkpt>
      <trkpt lat="37.301689" lon="-5.996400">
        <ele>57.917121</ele>
        <time>2020-08-16T06:19:06.772Z</time>
      </trkpt>
      <trkpt lat="37.301562" lon="-5.996500">
        <ele>58.021982</ele>
        <time>2020-08-16T06:19:09.774Z</time>
      </trkpt>
      <trkpt lat="37.301469" lon="-5.996560">
        <ele>58.095129</ele>
        <time>2020-08-16T06:19:12.775Z</time>
      </trkpt>
      <trkpt lat="37.301382" lon="-5.996623">
        <ele>58.165385</ele>
        <time>2020-08-16T06:19:15.786Z</time>
      </trkpt>
      <trkpt lat="37.301298" lon="-5.996694">
        <ele>58.236215</ele>
        <time>2020-08-16T06:19:18.766Z</time>
      </trkpt>
      <trkpt lat="37.301187" lon="-5.996720">
        <ele>58.315224</ele>
        <time>2020-08-16T06:19:21.779Z</time>
      </trkpt>
      <trkpt lat="37.301077" lon="-5.996793">
        <ele>58.402264</ele>
        <time>2020-08-16T06:19:24.760Z</time>
      </trkpt>
      <trkpt lat="37.300964" lon="-5.996864">
        <ele>58.490662</ele>
        <time>2020-08-16T06:19:27.751Z</time>
      </trkpt>
      <trkpt lat="37.300877" lon="-5.996908">
        <ele>58.556283</ele>
        <time>2020-08-16T06:19:29.783Z</time>
      </trkpt>
      <trkpt lat="37.300788" lon="-5.996950">
        <ele>58.622804</ele>
        <time>2020-08-16T06:19:31.786Z</time>
      </trkpt>
      <trkpt lat="37.300658" lon="-5.997017">
        <ele>58.721120</ele>
        <time>2020-08-16T06:19:34.778Z</time>
      </trkpt>
      <trkpt lat="37.300538" lon="-5.997103">
        <ele>58.817777</ele>
        <time>2020-08-16T06:19:37.786Z</time>
      </trkpt>
      <trkpt lat="37.300446" lon="-5.997150">
        <ele>58.887267</ele>
        <time>2020-08-16T06:19:39.784Z</time>
      </trkpt>
      <trkpt lat="37.300321" lon="-5.997216">
        <ele>58.982138</ele>
        <time>2020-08-16T06:19:42.779Z</time>
      </trkpt>
      <trkpt lat="37.300242" lon="-5.997305">
        <ele>59.052612</ele>
        <time>2020-08-16T06:19:45.786Z</time>
      </trkpt>
      <trkpt lat="37.300149" lon="-5.997373">
        <ele>59.117474</ele>
        <time>2020-08-16T06:19:47.784Z</time>
      </trkpt>
      <trkpt lat="37.300061" lon="-5.997404">
        <ele>59.172571</ele>
        <time>2020-08-16T06:19:49.787Z</time>
      </trkpt>
      <trkpt lat="37.299975" lon="-5.997452">
        <ele>59.229300</ele>
        <time>2020-08-16T06:19:51.786Z</time>
      </trkpt>
      <trkpt lat="37.299894" lon="-5.997509">
        <ele>59.285264</ele>
        <time>2020-08-16T06:19:53.781Z</time>
      </trkpt>
      <trkpt lat="37.299805" lon="-5.997566">
        <ele>59.345483</ele>
        <time>2020-08-16T06:19:55.784Z</time>
      </trkpt>
      <trkpt lat="37.299719" lon="-5.997619">
        <ele>59.403226</ele>
        <time>2020-08-16T06:19:57.783Z</time>
      </trkpt>
      <trkpt lat="37.299611" lon="-5.997689">
        <ele>59.476482</ele>
        <time>2020-08-16T06:20:00.787Z</time>
      </trkpt>
      <trkpt lat="37.299524" lon="-5.997728">
        <ele>59.532168</ele>
        <time>2020-08-16T06:20:02.773Z</time>
      </trkpt>
      <trkpt lat="37.299444" lon="-5.997788">
        <ele>59.588330</ele>
        <time>2020-08-16T06:20:04.766Z</time>
      </trkpt>
      <trkpt lat="37.299336" lon="-5.997851">
        <ele>59.660110</ele>
        <time>2020-08-16T06:20:07.780Z</time>
      </trkpt>
      <trkpt lat="37.299254" lon="-5.997926">
        <ele>59.721247</ele>
        <time>2020-08-16T06:20:09.798Z</time>
      </trkpt>
      <trkpt lat="37.299177" lon="-5.998014">
        <ele>59.783986</ele>
        <time>2020-08-16T06:20:12.773Z</time>
      </trkpt>
      <trkpt lat="37.299072" lon="-5.998092">
        <ele>59.857515</ele>
        <time>2020-08-16T06:20:16.786Z</time>
      </trkpt>
      <trkpt lat="37.298984" lon="-5.998153">
        <ele>59.918100</ele>
        <time>2020-08-16T06:20:19.764Z</time>
      </trkpt>
      <trkpt lat="37.298877" lon="-5.998223">
        <ele>59.990821</ele>
        <time>2020-08-16T06:20:22.781Z</time>
      </trkpt>
      <trkpt lat="37.298754" lon="-5.998296">
        <ele>60.072825</ele>
        <time>2020-08-16T06:20:25.785Z</time>
      </trkpt>
      <trkpt lat="37.298666" lon="-5.998325">
        <ele>60.155989</ele>
        <time>2020-08-16T06:20:27.788Z</time>
      </trkpt>
      <trkpt lat="37.298590" lon="-5.998387">
        <ele>60.320540</ele>
        <time>2020-08-16T06:20:29.780Z</time>
      </trkpt>
      <trkpt lat="37.298481" lon="-5.998493">
        <ele>60.570831</ele>
        <time>2020-08-16T06:20:32.766Z</time>
      </trkpt>
      <trkpt lat="37.298400" lon="-5.998551">
        <ele>60.740137</ele>
        <time>2020-08-16T06:20:34.778Z</time>
      </trkpt>
      <trkpt lat="37.298313" lon="-5.998592">
        <ele>60.908887</ele>
        <time>2020-08-16T06:20:36.777Z</time>
      </trkpt>
      <trkpt lat="37.298210" lon="-5.998619">
        <ele>61.099982</ele>
        <time>2020-08-16T06:20:38.779Z</time>
      </trkpt>
      <trkpt lat="37.298132" lon="-5.998679">
        <ele>61.266066</ele>
        <time>2020-08-16T06:20:40.776Z</time>
      </trkpt>
      <trkpt lat="37.298005" lon="-5.998735">
        <ele>61.510504</ele>
        <time>2020-08-16T06:20:43.794Z</time>
      </trkpt>
      <trkpt lat="37.297909" lon="-5.998799">
        <ele>61.707863</ele>
        <time>2020-08-16T06:20:46.747Z</time>
      </trkpt>
      <trkpt lat="37.297802" lon="-5.998878">
        <ele>61.933239</ele>
        <time>2020-08-16T06:20:49.774Z</time>
      </trkpt>
      <trkpt lat="37.297693" lon="-5.998951">
        <ele>62.157550</ele>
        <time>2020-08-16T06:20:52.788Z</time>
      </trkpt>
      <trkpt lat="37.297614" lon="-5.999032">
        <ele>62.342706</ele>
        <time>2020-08-16T06:20:54.792Z</time>
      </trkpt>
      <trkpt lat="37.297528" lon="-5.999076">
        <ele>62.511342</ele>
        <time>2020-08-16T06:20:56.782Z</time>
      </trkpt>
      <trkpt lat="37.297408" lon="-5.999144">
        <ele>62.750410</ele>
        <time>2020-08-16T06:20:59.785Z</time>
      </trkpt>
      <trkpt lat="37.297323" lon="-5.999193">
        <ele>62.920247</ele>
        <time>2020-08-16T06:21:01.779Z</time>
      </trkpt>
      <trkpt lat="37.297206" lon="-5.999256">
        <ele>63.151419</ele>
        <time>2020-08-16T06:21:03.785Z</time>
      </trkpt>
      <trkpt lat="37.297108" lon="-5.999336">
        <ele>63.363646</ele>
        <time>2020-08-16T06:21:06.776Z</time>
      </trkpt>
      <trkpt lat="37.297007" lon="-5.999384">
        <ele>63.215791</ele>
        <time>2020-08-16T06:21:08.776Z</time>
      </trkpt>
      <trkpt lat="37.296909" lon="-5.999454">
        <ele>63.028047</ele>
        <time>2020-08-16T06:21:11.788Z</time>
      </trkpt>
      <trkpt lat="37.296774" lon="-5.999506">
        <ele>62.792865</ele>
        <time>2020-08-16T06:21:14.784Z</time>
      </trkpt>
      <trkpt lat="37.296672" lon="-5.999549">
        <ele>62.613670</ele>
        <time>2020-08-16T06:21:16.784Z</time>
      </trkpt>
      <trkpt lat="37.296554" lon="-5.999611">
        <ele>62.400645</ele>
        <time>2020-08-16T06:21:19.782Z</time>
      </trkpt>
      <trkpt lat="37.296437" lon="-5.999658">
        <ele>62.196056</ele>
        <time>2020-08-16T06:21:22.774Z</time>
      </trkpt>
      <trkpt lat="37.296316" lon="-5.999709">
        <ele>61.983485</ele>
        <time>2020-08-16T06:21:25.781Z</time>
      </trkpt>
      <trkpt lat="37.296200" lon="-5.999776">
        <ele>61.770850</ele>
        <time>2020-08-16T06:21:28.784Z</time>
      </trkpt>
      <trkpt lat="37.296109" lon="-5.999797">
        <ele>61.616744</ele>
        <time>2020-08-16T06:21:30.785Z</time>
      </trkpt>
      <trkpt lat="37.296013" lon="-5.999841">
        <ele>61.446544</ele>
        <time>2020-08-16T06:21:33.769Z</time>
      </trkpt>
      <trkpt lat="37.295899" lon="-5.999894">
        <ele>61.244090</ele>
        <time>2020-08-16T06:21:36.779Z</time>
      </trkpt>
      <trkpt lat="37.295780" lon="-5.999956">
        <ele>61.029528</ele>
        <time>2020-08-16T06:21:40.796Z</time>
      </trkpt>
      <trkpt lat="37.295683" lon="-6.000013">
        <ele>60.851178</ele>
        <time>2020-08-16T06:21:42.767Z</time>
      </trkpt>
      <trkpt lat="37.295588" lon="-6.000064">
        <ele>60.679115</ele>
        <time>2020-08-16T06:21:45.776Z</time>
      </trkpt>
      <trkpt lat="37.295502" lon="-6.000102">
        <ele>60.527278</ele>
        <time>2020-08-16T06:21:47.779Z</time>
      </trkpt>
      <trkpt lat="37.295419" lon="-6.000158">
        <ele>60.393218</ele>
        <time>2020-08-16T06:21:49.795Z</time>
      </trkpt>
      <trkpt lat="37.295279" lon="-6.000234">
        <ele>60.551915</ele>
        <time>2020-08-16T06:21:51.792Z</time>
      </trkpt>
      <trkpt lat="37.295179" lon="-6.000292">
        <ele>60.666524</ele>
        <time>2020-08-16T06:21:53.789Z</time>
      </trkpt>
      <trkpt lat="37.295070" lon="-6.000338">
        <ele>60.786178</ele>
        <time>2020-08-16T06:21:56.774Z</time>
      </trkpt>
      <trkpt lat="37.294976" lon="-6.000375">
        <ele>60.888683</ele>
        <time>2020-08-16T06:21:59.777Z</time>
      </trkpt>
      <trkpt lat="37.294865" lon="-6.000424">
        <ele>61.011112</ele>
        <time>2020-08-16T06:22:02.770Z</time>
      </trkpt>
      <trkpt lat="37.295038" lon="-6.000440">
        <ele>61.191632</ele>
        <time>2020-08-16T06:22:06.781Z</time>
      </trkpt>
      <trkpt lat="37.295196" lon="-6.000506">
        <ele>61.364897</ele>
        <time>2020-08-16T06:22:08.781Z</time>
      </trkpt>
      <trkpt lat="37.295313" lon="-6.000612">
        <ele>61.514982</ele>
        <time>2020-08-16T06:22:10.776Z</time>
      </trkpt>
      <trkpt lat="37.294594" lon="-6.000517">
        <ele>62.246743</ele>
        <time>2020-08-16T06:22:13.826Z</time>
      </trkpt>
      <trkpt lat="37.294478" lon="-6.000554">
        <ele>62.140880</ele>
        <time>2020-08-16T06:22:16.781Z</time>
      </trkpt>
      <trkpt lat="37.294386" lon="-6.000569">
        <ele>62.058818</ele>
        <time>2020-08-16T06:22:18.779Z</time>
      </trkpt>
      <trkpt lat="37.294299" lon="-6.000633">
        <ele>61.969650</ele>
        <time>2020-08-16T06:22:22.777Z</time>
      </trkpt>
      <trkpt lat="37.294179" lon="-6.000690">
        <ele>61.856176</ele>
        <time>2020-08-16T06:22:25.779Z</time>
      </trkpt>
      <trkpt lat="37.294041" lon="-6.000734">
        <ele>61.730239</ele>
        <time>2020-08-16T06:22:27.787Z</time>
      </trkpt>
      <trkpt lat="37.293927" lon="-6.000775">
        <ele>61.625351</ele>
        <time>2020-08-16T06:22:30.785Z</time>
      </trkpt>
      <trkpt lat="37.293835" lon="-6.000808">
        <ele>61.540722</ele>
        <time>2020-08-16T06:22:33.770Z</time>
      </trkpt>
      <trkpt lat="37.293705" lon="-6.000855">
        <ele>61.421065</ele>
        <time>2020-08-16T06:22:36.798Z</time>
      </trkpt>
      <trkpt lat="37.293575" lon="-6.000857">
        <ele>61.306062</ele>
        <time>2020-08-16T06:22:38.785Z</time>
      </trkpt>
      <trkpt lat="37.293442" lon="-6.000892">
        <ele>61.185864</ele>
        <time>2020-08-16T06:22:41.782Z</time>
      </trkpt>
      <trkpt lat="37.293356" lon="-6.000930">
        <ele>61.105227</ele>
        <time>2020-08-16T06:22:43.787Z</time>
      </trkpt>
      <trkpt lat="37.293256" lon="-6.000974">
        <ele>61.011507</ele>
        <time>2020-08-16T06:22:46.776Z</time>
      </trkpt>
      <trkpt lat="37.293147" lon="-6.001015">
        <ele>60.910864</ele>
        <time>2020-08-16T06:22:48.778Z</time>
      </trkpt>
      <trkpt lat="37.293040" lon="-6.001075">
        <ele>60.807224</ele>
        <time>2020-08-16T06:22:51.779Z</time>
      </trkpt>
      <trkpt lat="37.292908" lon="-6.001101">
        <ele>60.689035</ele>
        <time>2020-08-16T06:22:54.791Z</time>
      </trkpt>
      <trkpt lat="37.292626" lon="-6.001183">
        <ele>60.435346</ele>
        <time>2020-08-16T06:23:01.777Z</time>
      </trkpt>
      <trkpt lat="37.292499" lon="-6.001211">
        <ele>60.322444</ele>
        <time>2020-08-16T06:23:04.756Z</time>
      </trkpt>
      <trkpt lat="37.292387" lon="-6.001268">
        <ele>60.216641</ele>
        <time>2020-08-16T06:23:07.776Z</time>
      </trkpt>
      <trkpt lat="37.292292" lon="-6.001304">
        <ele>60.129758</ele>
        <time>2020-08-16T06:23:10.784Z</time>
      </trkpt>
      <trkpt lat="37.292180" lon="-6.001339">
        <ele>60.028702</ele>
        <time>2020-08-16T06:23:12.791Z</time>
      </trkpt>
      <trkpt lat="37.292081" lon="-6.001361">
        <ele>59.940671</ele>
        <time>2020-08-16T06:23:14.792Z</time>
      </trkpt>
      <trkpt lat="37.291979" lon="-6.001393">
        <ele>59.848617</ele>
        <time>2020-08-16T06:23:16.779Z</time>
      </trkpt>
      <trkpt lat="37.291887" lon="-6.001427">
        <ele>59.764650</ele>
        <time>2020-08-16T06:23:18.795Z</time>
      </trkpt>
      <trkpt lat="37.291759" lon="-6.001473">
        <ele>59.648079</ele>
        <time>2020-08-16T06:23:21.788Z</time>
      </trkpt>
      <trkpt lat="37.291647" lon="-6.001487">
        <ele>59.549525</ele>
        <time>2020-08-16T06:23:24.787Z</time>
      </trkpt>
      <trkpt lat="37.291547" lon="-6.001522">
        <ele>59.458631</ele>
        <time>2020-08-16T06:23:27.790Z</time>
      </trkpt>
      <trkpt lat="37.291437" lon="-6.001558">
        <ele>59.359101</ele>
        <time>2020-08-16T06:23:30.780Z</time>
      </trkpt>
      <trkpt lat="37.291346" lon="-6.001592">
        <ele>59.275973</ele>
        <time>2020-08-16T06:23:32.791Z</time>
      </trkpt>
      <trkpt lat="37.291256" lon="-6.001621">
        <ele>59.194619</ele>
        <time>2020-08-16T06:23:34.788Z</time>
      </trkpt>
      <trkpt lat="37.291138" lon="-6.001653">
        <ele>59.092222</ele>
        <time>2020-08-16T06:23:36.776Z</time>
      </trkpt>
      <trkpt lat="37.291009" lon="-6.001675">
        <ele>59.264673</ele>
        <time>2020-08-16T06:23:39.787Z</time>
      </trkpt>
      <trkpt lat="37.290914" lon="-6.001683">
        <ele>59.390801</ele>
        <time>2020-08-16T06:23:41.784Z</time>
      </trkpt>
      <trkpt lat="37.290791" lon="-6.001716">
        <ele>59.557408</ele>
        <time>2020-08-16T06:23:44.790Z</time>
      </trkpt>
      <trkpt lat="37.290694" lon="-6.001751">
        <ele>59.691093</ele>
        <time>2020-08-16T06:23:48.768Z</time>
      </trkpt>
      <trkpt lat="37.290505" lon="-6.001820">
        <ele>59.951806</ele>
        <time>2020-08-16T06:23:50.789Z</time>
      </trkpt>
      <trkpt lat="37.290410" lon="-6.001863">
        <ele>60.085563</ele>
        <time>2020-08-16T06:23:53.774Z</time>
      </trkpt>
      <trkpt lat="37.290277" lon="-6.001878">
        <ele>60.262454</ele>
        <time>2020-08-16T06:23:56.776Z</time>
      </trkpt>
      <trkpt lat="37.290172" lon="-6.001900">
        <ele>60.403466</ele>
        <time>2020-08-16T06:23:59.794Z</time>
      </trkpt>
      <trkpt lat="37.290063" lon="-6.001922">
        <ele>60.549707</ele>
        <time>2020-08-16T06:24:01.766Z</time>
      </trkpt>
      <trkpt lat="37.289948" lon="-6.001956">
        <ele>60.706205</ele>
        <time>2020-08-16T06:24:03.777Z</time>
      </trkpt>
      <trkpt lat="37.289853" lon="-6.001984">
        <ele>60.835464</ele>
        <time>2020-08-16T06:24:05.787Z</time>
      </trkpt>
      <trkpt lat="37.289755" lon="-6.002008">
        <ele>60.967725</ele>
        <time>2020-08-16T06:24:07.778Z</time>
      </trkpt>
      <trkpt lat="37.289648" lon="-6.002030">
        <ele>61.111351</ele>
        <time>2020-08-16T06:24:09.779Z</time>
      </trkpt>
      <trkpt lat="37.289542" lon="-6.002044">
        <ele>61.252541</ele>
        <time>2020-08-16T06:24:11.760Z</time>
      </trkpt>
      <trkpt lat="37.289437" lon="-6.002084">
        <ele>61.397882</ele>
        <time>2020-08-16T06:24:13.782Z</time>
      </trkpt>
      <trkpt lat="37.289330" lon="-6.002119">
        <ele>61.548580</ele>
        <time>2020-08-16T06:24:15.790Z</time>
      </trkpt>
      <trkpt lat="37.289242" lon="-6.002173">
        <ele>61.685992</ele>
        <time>2020-08-16T06:24:17.784Z</time>
      </trkpt>
      <trkpt lat="37.289152" lon="-6.002206">
        <ele>61.817544</ele>
        <time>2020-08-16T06:24:19.782Z</time>
      </trkpt>
      <trkpt lat="37.289055" lon="-6.002232">
        <ele>61.956716</ele>
        <time>2020-08-16T06:24:22.804Z</time>
      </trkpt>
      <trkpt lat="37.288966" lon="-6.002285">
        <ele>62.094908</ele>
        <time>2020-08-16T06:24:23.792Z</time>
      </trkpt>
      <trkpt lat="37.288865" lon="-6.002329">
        <ele>62.244903</ele>
        <time>2020-08-16T06:24:24.769Z</time>
      </trkpt>
      <trkpt lat="37.288775" lon="-6.002342">
        <ele>62.372023</ele>
        <time>2020-08-16T06:24:27.764Z</time>
      </trkpt>
      <trkpt lat="37.288686" lon="-6.002365">
        <ele>62.499521</ele>
        <time>2020-08-16T06:24:29.756Z</time>
      </trkpt>
      <trkpt lat="37.288588" lon="-6.002377">
        <ele>62.637686</ele>
        <time>2020-08-16T06:24:31.786Z</time>
      </trkpt>
      <trkpt lat="37.288477" lon="-6.002406">
        <ele>62.796771</ele>
        <time>2020-08-16T06:24:34.790Z</time>
      </trkpt>
      <trkpt lat="37.288358" lon="-6.002440">
        <ele>62.968012</ele>
        <time>2020-08-16T06:24:37.779Z</time>
      </trkpt>
      <trkpt lat="37.288261" lon="-6.002466">
        <ele>63.107183</ele>
        <time>2020-08-16T06:24:39.780Z</time>
      </trkpt>
      <trkpt lat="37.288163" lon="-6.002503">
        <ele>63.250767</ele>
        <time>2020-08-16T06:24:41.778Z</time>
      </trkpt>
      <trkpt lat="37.288057" lon="-6.002547">
        <ele>63.407408</ele>
        <time>2020-08-16T06:24:43.786Z</time>
      </trkpt>
      <trkpt lat="37.287955" lon="-6.002559">
        <ele>63.551161</ele>
        <time>2020-08-16T06:24:45.768Z</time>
      </trkpt>
      <trkpt lat="37.287857" lon="-6.002583">
        <ele>63.691261</ele>
        <time>2020-08-16T06:24:47.780Z</time>
      </trkpt>
      <trkpt lat="37.287746" lon="-6.002588">
        <ele>63.847117</ele>
        <time>2020-08-16T06:24:49.773Z</time>
      </trkpt>
      <trkpt lat="37.287653" lon="-6.002635">
        <ele>63.987769</ele>
        <time>2020-08-16T06:24:52.791Z</time>
      </trkpt>
      <trkpt lat="37.287562" lon="-6.002669">
        <ele>64.085537</ele>
        <time>2020-08-16T06:24:54.787Z</time>
      </trkpt>
      <trkpt lat="37.287456" lon="-6.002708">
        <ele>64.196300</ele>
        <time>2020-08-16T06:24:56.791Z</time>
      </trkpt>
      <trkpt lat="37.287362" lon="-6.002737">
        <ele>64.293366</ele>
        <time>2020-08-16T06:24:58.767Z</time>
      </trkpt>
      <trkpt lat="37.287229" lon="-6.002757">
        <ele>64.427696</ele>
        <time>2020-08-16T06:25:01.779Z</time>
      </trkpt>
      <trkpt lat="37.287149" lon="-6.002814">
        <ele>64.519918</ele>
        <time>2020-08-16T06:25:04.789Z</time>
      </trkpt>
      <trkpt lat="37.287063" lon="-6.002890">
        <ele>64.625347</ele>
        <time>2020-08-16T06:25:08.799Z</time>
      </trkpt>
      <trkpt lat="37.286904" lon="-6.002918">
        <ele>64.786358</ele>
        <time>2020-08-16T06:25:09.785Z</time>
      </trkpt>
      <trkpt lat="37.286770" lon="-6.002945">
        <ele>64.922456</ele>
        <time>2020-08-16T06:25:12.779Z</time>
      </trkpt>
      <trkpt lat="37.286672" lon="-6.002960">
        <ele>65.021462</ele>
        <time>2020-08-16T06:25:14.785Z</time>
      </trkpt>
      <trkpt lat="37.286583" lon="-6.002994">
        <ele>65.114747</ele>
        <time>2020-08-16T06:25:17.791Z</time>
      </trkpt>
      <trkpt lat="37.286488" lon="-6.003030">
        <ele>65.214254</ele>
        <time>2020-08-16T06:25:19.793Z</time>
      </trkpt>
      <trkpt lat="37.286362" lon="-6.003067">
        <ele>65.344016</ele>
        <time>2020-08-16T06:25:22.786Z</time>
      </trkpt>
      <trkpt lat="37.286257" lon="-6.003092">
        <ele>65.451188</ele>
        <time>2020-08-16T06:25:24.790Z</time>
      </trkpt>
      <trkpt lat="37.286150" lon="-6.003116">
        <ele>65.560188</ele>
        <time>2020-08-16T06:25:26.789Z</time>
      </trkpt>
      <trkpt lat="37.286020" lon="-6.003159">
        <ele>65.694998</ele>
        <time>2020-08-16T06:25:29.750Z</time>
      </trkpt>
      <trkpt lat="37.285928" lon="-6.003188">
        <ele>65.790118</ele>
        <time>2020-08-16T06:25:31.788Z</time>
      </trkpt>
      <trkpt lat="37.285818" lon="-6.003227">
        <ele>65.676398</ele>
        <time>2020-08-16T06:25:34.769Z</time>
      </trkpt>
      <trkpt lat="37.285675" lon="-6.003275">
        <ele>65.499615</ele>
        <time>2020-08-16T06:25:36.790Z</time>
      </trkpt>
      <trkpt lat="37.285571" lon="-6.003299">
        <ele>65.373322</ele>
        <time>2020-08-16T06:25:38.789Z</time>
      </trkpt>
      <trkpt lat="37.285475" lon="-6.003343">
        <ele>65.251275</ele>
        <time>2020-08-16T06:25:40.770Z</time>
      </trkpt>
      <trkpt lat="37.285353" lon="-6.003394">
        <ele>65.097712</ele>
        <time>2020-08-16T06:25:43.797Z</time>
      </trkpt>
      <trkpt lat="37.285261" lon="-6.003408">
        <ele>64.987026</ele>
        <time>2020-08-16T06:25:46.787Z</time>
      </trkpt>
      <trkpt lat="37.285137" lon="-6.003453">
        <ele>64.832872</ele>
        <time>2020-08-16T06:25:49.781Z</time>
      </trkpt>
      <trkpt lat="37.285008" lon="-6.003482">
        <ele>64.676351</ele>
        <time>2020-08-16T06:25:51.790Z</time>
      </trkpt>
      <trkpt lat="37.284912" lon="-6.003486">
        <ele>64.561627</ele>
        <time>2020-08-16T06:25:53.776Z</time>
      </trkpt>
      <trkpt lat="37.284826" lon="-6.003524">
        <ele>64.452747</ele>
        <time>2020-08-16T06:25:55.786Z</time>
      </trkpt>
      <trkpt lat="37.284728" lon="-6.003556">
        <ele>64.331811</ele>
        <time>2020-08-16T06:25:58.789Z</time>
      </trkpt>
      <trkpt lat="37.284624" lon="-6.003604">
        <ele>64.199485</ele>
        <time>2020-08-16T06:26:00.791Z</time>
      </trkpt>
      <trkpt lat="37.284488" lon="-6.003646">
        <ele>64.032217</ele>
        <time>2020-08-16T06:26:02.793Z</time>
      </trkpt>
      <trkpt lat="37.284388" lon="-6.003654">
        <ele>63.912536</ele>
        <time>2020-08-16T06:26:05.770Z</time>
      </trkpt>
      <trkpt lat="37.284269" lon="-6.003687">
        <ele>63.766986</ele>
        <time>2020-08-16T06:26:08.783Z</time>
      </trkpt>
      <trkpt lat="37.284167" lon="-6.003751">
        <ele>63.603386</ele>
        <time>2020-08-16T06:26:11.785Z</time>
      </trkpt>
      <trkpt lat="37.284051" lon="-6.003795">
        <ele>63.273338</ele>
        <time>2020-08-16T06:26:14.781Z</time>
      </trkpt>
      <trkpt lat="37.283929" lon="-6.003847">
        <ele>62.922434</ele>
        <time>2020-08-16T06:26:17.768Z</time>
      </trkpt>
      <trkpt lat="37.283841" lon="-6.003877">
        <ele>62.674070</ele>
        <time>2020-08-16T06:26:19.781Z</time>
      </trkpt>
      <trkpt lat="37.283754" lon="-6.003906">
        <ele>62.428898</ele>
        <time>2020-08-16T06:26:21.766Z</time>
      </trkpt>
      <trkpt lat="37.283624" lon="-6.003946">
        <ele>62.064335</ele>
        <time>2020-08-16T06:26:24.773Z</time>
      </trkpt>
      <trkpt lat="37.283500" lon="-6.003990">
        <ele>61.713369</ele>
        <time>2020-08-16T06:26:27.775Z</time>
      </trkpt>
      <trkpt lat="37.283376" lon="-6.004040">
        <ele>61.358648</ele>
        <time>2020-08-16T06:26:30.786Z</time>
      </trkpt>
      <trkpt lat="37.283253" lon="-6.004088">
        <ele>61.007830</ele>
        <time>2020-08-16T06:26:33.777Z</time>
      </trkpt>
      <trkpt lat="37.283129" lon="-6.004131">
        <ele>60.657447</ele>
        <time>2020-08-16T06:26:36.777Z</time>
      </trkpt>
      <trkpt lat="37.282988" lon="-6.004153">
        <ele>60.270429</ele>
        <time>2020-08-16T06:26:39.782Z</time>
      </trkpt>
      <trkpt lat="37.282865" lon="-6.004198">
        <ele>59.921484</ele>
        <time>2020-08-16T06:26:42.760Z</time>
      </trkpt>
      <trkpt lat="37.282775" lon="-6.004239">
        <ele>59.660726</ele>
        <time>2020-08-16T06:26:44.756Z</time>
      </trkpt>
      <trkpt lat="37.282684" lon="-6.004275">
        <ele>59.400863</ele>
        <time>2020-08-16T06:26:46.783Z</time>
      </trkpt>
      <trkpt lat="37.282602" lon="-6.004328">
        <ele>59.149698</ele>
        <time>2020-08-16T06:26:48.785Z</time>
      </trkpt>
      <trkpt lat="37.282524" lon="-6.004386">
        <ele>58.902833</ele>
        <time>2020-08-16T06:26:50.762Z</time>
      </trkpt>
      <trkpt lat="37.282431" lon="-6.004409">
        <ele>58.751312</ele>
        <time>2020-08-16T06:26:54.800Z</time>
      </trkpt>
      <trkpt lat="37.282322" lon="-6.004432">
        <ele>58.746817</ele>
        <time>2020-08-16T06:26:56.780Z</time>
      </trkpt>
      <trkpt lat="37.282210" lon="-6.004457">
        <ele>58.742191</ele>
        <time>2020-08-16T06:26:58.786Z</time>
      </trkpt>
      <trkpt lat="37.282115" lon="-6.004482">
        <ele>58.738243</ele>
        <time>2020-08-16T06:27:00.789Z</time>
      </trkpt>
      <trkpt lat="37.281979" lon="-6.004536">
        <ele>58.732442</ele>
        <time>2020-08-16T06:27:03.784Z</time>
      </trkpt>
      <trkpt lat="37.281865" lon="-6.004590">
        <ele>58.727487</ele>
        <time>2020-08-16T06:27:05.785Z</time>
      </trkpt>
      <trkpt lat="37.281757" lon="-6.004637">
        <ele>58.722839</ele>
        <time>2020-08-16T06:27:08.775Z</time>
      </trkpt>
      <trkpt lat="37.281648" lon="-6.004686">
        <ele>58.718130</ele>
        <time>2020-08-16T06:27:11.784Z</time>
      </trkpt>
      <trkpt lat="37.281544" lon="-6.004696">
        <ele>58.713888</ele>
        <time>2020-08-16T06:27:14.788Z</time>
      </trkpt>
      <trkpt lat="37.281457" lon="-6.004729">
        <ele>58.710192</ele>
        <time>2020-08-16T06:27:16.769Z</time>
      </trkpt>
      <trkpt lat="37.281323" lon="-6.004764">
        <ele>58.704625</ele>
        <time>2020-08-16T06:27:19.790Z</time>
      </trkpt>
      <trkpt lat="37.281208" lon="-6.004809">
        <ele>58.699727</ele>
        <time>2020-08-16T06:27:22.778Z</time>
      </trkpt>
      <trkpt lat="37.281121" lon="-6.004849">
        <ele>58.695959</ele>
        <time>2020-08-16T06:27:24.820Z</time>
      </trkpt>
      <trkpt lat="37.281020" lon="-6.004892">
        <ele>58.691622</ele>
        <time>2020-08-16T06:27:27.784Z</time>
      </trkpt>
      <trkpt lat="37.280930" lon="-6.004935">
        <ele>58.687706</ele>
        <time>2020-08-16T06:27:29.788Z</time>
      </trkpt>
      <trkpt lat="37.280830" lon="-6.004978">
        <ele>58.683407</ele>
        <time>2020-08-16T06:27:31.779Z</time>
      </trkpt>
      <trkpt lat="37.280737" lon="-6.005023">
        <ele>58.687265</ele>
        <time>2020-08-16T06:27:33.787Z</time>
      </trkpt>
      <trkpt lat="37.280609" lon="-6.005059">
        <ele>58.782215</ele>
        <time>2020-08-16T06:27:36.784Z</time>
      </trkpt>
      <trkpt lat="37.280507" lon="-6.005120">
        <ele>58.863985</ele>
        <time>2020-08-16T06:27:39.791Z</time>
      </trkpt>
      <trkpt lat="37.280418" lon="-6.005167">
        <ele>58.933867</ele>
        <time>2020-08-16T06:27:41.799Z</time>
      </trkpt>
      <trkpt lat="37.280304" lon="-6.005224">
        <ele>59.022681</ele>
        <time>2020-08-16T06:27:44.780Z</time>
      </trkpt>
      <trkpt lat="37.280215" lon="-6.005270">
        <ele>59.092343</ele>
        <time>2020-08-16T06:27:46.782Z</time>
      </trkpt>
      <trkpt lat="37.280119" lon="-6.005299">
        <ele>59.163816</ele>
        <time>2020-08-16T06:27:48.784Z</time>
      </trkpt>
      <trkpt lat="37.280003" lon="-6.005346">
        <ele>59.252043</ele>
        <time>2020-08-16T06:27:51.787Z</time>
      </trkpt>
      <trkpt lat="37.279893" lon="-6.005393">
        <ele>59.336146</ele>
        <time>2020-08-16T06:27:54.798Z</time>
      </trkpt>
      <trkpt lat="37.279795" lon="-6.005443">
        <ele>59.412710</ele>
        <time>2020-08-16T06:27:57.783Z</time>
      </trkpt>
      <trkpt lat="37.279691" lon="-6.005499">
        <ele>59.494614</ele>
        <time>2020-08-16T06:28:00.778Z</time>
      </trkpt>
      <trkpt lat="37.279582" lon="-6.005551">
        <ele>59.579011</ele>
        <time>2020-08-16T06:28:03.784Z</time>
      </trkpt>
      <trkpt lat="37.279473" lon="-6.005591">
        <ele>59.661210</ele>
        <time>2020-08-16T06:28:06.798Z</time>
      </trkpt>
      <trkpt lat="37.279371" lon="-6.005651">
        <ele>59.742734</ele>
        <time>2020-08-16T06:28:09.791Z</time>
      </trkpt>
      <trkpt lat="37.279266" lon="-6.005705">
        <ele>59.824860</ele>
        <time>2020-08-16T06:28:12.793Z</time>
      </trkpt>
      <trkpt lat="37.279158" lon="-6.005759">
        <ele>59.909000</ele>
        <time>2020-08-16T06:28:15.787Z</time>
      </trkpt>
      <trkpt lat="37.279041" lon="-6.005804">
        <ele>59.982000</ele>
        <time>2020-08-16T06:28:18.790Z</time>
      </trkpt>
      <trkpt lat="37.278915" lon="-6.005861">
        <ele>59.983278</ele>
        <time>2020-08-16T06:28:21.795Z</time>
      </trkpt>
      <trkpt lat="37.278812" lon="-6.005978">
        <ele>59.984603</ele>
        <time>2020-08-16T06:28:24.780Z</time>
      </trkpt>
      <trkpt lat="37.278704" lon="-6.005973">
        <ele>59.985634</ele>
        <time>2020-08-16T06:28:26.785Z</time>
      </trkpt>
      <trkpt lat="37.278590" lon="-6.006021">
        <ele>59.986781</ele>
        <time>2020-08-16T06:28:29.771Z</time>
      </trkpt>
      <trkpt lat="37.278491" lon="-6.006071">
        <ele>59.987799</ele>
        <time>2020-08-16T06:28:32.792Z</time>
      </trkpt>
      <trkpt lat="37.278403" lon="-6.006113">
        <ele>59.988697</ele>
        <time>2020-08-16T06:28:34.783Z</time>
      </trkpt>
      <trkpt lat="37.278312" lon="-6.006154">
        <ele>59.989619</ele>
        <time>2020-08-16T06:28:36.761Z</time>
      </trkpt>
      <trkpt lat="37.278203" lon="-6.006210">
        <ele>59.990742</ele>
        <time>2020-08-16T06:28:39.764Z</time>
      </trkpt>
      <trkpt lat="37.278107" lon="-6.006263">
        <ele>59.991743</ele>
        <time>2020-08-16T06:28:42.783Z</time>
      </trkpt>
      <trkpt lat="37.278014" lon="-6.006318">
        <ele>59.992723</ele>
        <time>2020-08-16T06:28:45.801Z</time>
      </trkpt>
      <trkpt lat="37.277907" lon="-6.006389">
        <ele>59.993878</ele>
        <time>2020-08-16T06:28:47.801Z</time>
      </trkpt>
      <trkpt lat="37.277801" lon="-6.006441">
        <ele>59.994963</ele>
        <time>2020-08-16T06:28:51.785Z</time>
      </trkpt>
      <trkpt lat="37.277700" lon="-6.006488">
        <ele>59.995991</ele>
        <time>2020-08-16T06:28:54.778Z</time>
      </trkpt>
      <trkpt lat="37.277619" lon="-6.006539">
        <ele>59.996855</ele>
        <time>2020-08-16T06:28:57.789Z</time>
      </trkpt>
      <trkpt lat="37.277524" lon="-6.006588">
        <ele>59.997835</ele>
        <time>2020-08-16T06:29:00.779Z</time>
      </trkpt>
      <trkpt lat="37.277427" lon="-6.006642">
        <ele>59.998847</ele>
        <time>2020-08-16T06:29:02.788Z</time>
      </trkpt>
      <trkpt lat="37.277329" lon="-6.006690">
        <ele>60.049722</ele>
        <time>2020-08-16T06:29:05.757Z</time>
      </trkpt>
      <trkpt lat="37.277237" lon="-6.006742">
        <ele>60.104119</ele>
        <time>2020-08-16T06:29:08.784Z</time>
      </trkpt>
      <trkpt lat="37.277145" lon="-6.006792">
        <ele>60.158170</ele>
        <time>2020-08-16T06:29:11.789Z</time>
      </trkpt>
      <trkpt lat="37.277024" lon="-6.006856">
        <ele>60.228962</ele>
        <time>2020-08-16T06:29:14.788Z</time>
      </trkpt>
      <trkpt lat="37.276915" lon="-6.006926">
        <ele>60.294970</ele>
        <time>2020-08-16T06:29:17.810Z</time>
      </trkpt>
      <trkpt lat="37.276814" lon="-6.006991">
        <ele>60.356160</ele>
        <time>2020-08-16T06:29:21.780Z</time>
      </trkpt>
      <trkpt lat="37.276717" lon="-6.007042">
        <ele>60.412860</ele>
        <time>2020-08-16T06:29:24.803Z</time>
      </trkpt>
      <trkpt lat="37.276616" lon="-6.007098">
        <ele>60.472389</ele>
        <time>2020-08-16T06:29:27.791Z</time>
      </trkpt>
      <trkpt lat="37.276518" lon="-6.007164">
        <ele>60.532345</ele>
        <time>2020-08-16T06:29:30.788Z</time>
      </trkpt>
      <trkpt lat="37.276394" lon="-6.007236">
        <ele>60.606003</ele>
        <time>2020-08-16T06:29:33.797Z</time>
      </trkpt>
      <trkpt lat="37.276305" lon="-6.007267">
        <ele>60.655805</ele>
        <time>2020-08-16T06:29:35.798Z</time>
      </trkpt>
      <trkpt lat="37.276219" lon="-6.007308">
        <ele>60.705405</ele>
        <time>2020-08-16T06:29:37.787Z</time>
      </trkpt>
      <trkpt lat="37.276100" lon="-6.007379">
        <ele>60.776440</ele>
        <time>2020-08-16T06:29:40.778Z</time>
      </trkpt>
      <trkpt lat="37.276007" lon="-6.007453">
        <ele>60.835797</ele>
        <time>2020-08-16T06:29:43.794Z</time>
      </trkpt>
      <trkpt lat="37.275924" lon="-6.007514">
        <ele>60.887647</ele>
        <time>2020-08-16T06:29:45.779Z</time>
      </trkpt>
      <trkpt lat="37.275816" lon="-6.007592">
        <ele>60.954817</ele>
        <time>2020-08-16T06:29:48.769Z</time>
      </trkpt>
      <trkpt lat="37.275721" lon="-6.007645">
        <ele>60.930901</ele>
        <time>2020-08-16T06:29:51.788Z</time>
      </trkpt>
      <trkpt lat="37.275636" lon="-6.007693">
        <ele>60.885486</ele>
        <time>2020-08-16T06:29:53.789Z</time>
      </trkpt>
      <trkpt lat="37.275506" lon="-6.007759">
        <ele>60.817155</ele>
        <time>2020-08-16T06:29:56.798Z</time>
      </trkpt>
      <trkpt lat="37.275425" lon="-6.007815">
        <ele>60.772100</ele>
        <time>2020-08-16T06:29:58.785Z</time>
      </trkpt>
      <trkpt lat="37.275340" lon="-6.007862">
        <ele>60.726842</ele>
        <time>2020-08-16T06:30:00.801Z</time>
      </trkpt>
      <trkpt lat="37.275224" lon="-6.007941">
        <ele>60.662541</ele>
        <time>2020-08-16T06:30:03.769Z</time>
      </trkpt>
      <trkpt lat="37.275141" lon="-6.007992">
        <ele>60.617514</ele>
        <time>2020-08-16T06:30:05.776Z</time>
      </trkpt>
      <trkpt lat="37.275042" lon="-6.008053">
        <ele>60.563778</ele>
        <time>2020-08-16T06:30:07.767Z</time>
      </trkpt>
      <trkpt lat="37.274962" lon="-6.008113">
        <ele>60.518374</ele>
        <time>2020-08-16T06:30:09.774Z</time>
      </trkpt>
      <trkpt lat="37.274882" lon="-6.008170">
        <ele>60.473556</ele>
        <time>2020-08-16T06:30:12.770Z</time>
      </trkpt>
      <trkpt lat="37.274782" lon="-6.008229">
        <ele>60.419716</ele>
        <time>2020-08-16T06:30:15.785Z</time>
      </trkpt>
      <trkpt lat="37.274681" lon="-6.008296">
        <ele>60.364056</ele>
        <time>2020-08-16T06:30:18.785Z</time>
      </trkpt>
      <trkpt lat="37.274566" lon="-6.008371">
        <ele>60.300912</ele>
        <time>2020-08-16T06:30:21.778Z</time>
      </trkpt>
      <trkpt lat="37.274472" lon="-6.008442">
        <ele>60.247463</ele>
        <time>2020-08-16T06:30:24.765Z</time>
      </trkpt>
      <trkpt lat="37.274357" lon="-6.008514">
        <ele>60.184847</ele>
        <time>2020-08-16T06:30:27.782Z</time>
      </trkpt>
      <trkpt lat="37.274270" lon="-6.008566">
        <ele>60.137895</ele>
        <time>2020-08-16T06:30:30.791Z</time>
      </trkpt>
      <trkpt lat="37.274177" lon="-6.008639">
        <ele>60.056547</ele>
        <time>2020-08-16T06:30:33.783Z</time>
      </trkpt>
      <trkpt lat="37.274090" lon="-6.008677">
        <ele>59.851607</ele>
        <time>2020-08-16T06:30:35.756Z</time>
      </trkpt>
      <trkpt lat="37.273988" lon="-6.008748">
        <ele>59.592160</ele>
        <time>2020-08-16T06:30:38.785Z</time>
      </trkpt>
      <trkpt lat="37.273892" lon="-6.008816">
        <ele>59.346959</ele>
        <time>2020-08-16T06:30:41.804Z</time>
      </trkpt>
      <trkpt lat="37.273804" lon="-6.008872">
        <ele>59.127480</ele>
        <time>2020-08-16T06:30:44.773Z</time>
      </trkpt>
      <trkpt lat="37.273674" lon="-6.008942">
        <ele>58.812787</ele>
        <time>2020-08-16T06:30:47.783Z</time>
      </trkpt>
      <trkpt lat="37.273564" lon="-6.009015">
        <ele>58.535997</ele>
        <time>2020-08-16T06:30:50.775Z</time>
      </trkpt>
      <trkpt lat="37.273457" lon="-6.009073">
        <ele>58.276711</ele>
        <time>2020-08-16T06:30:53.790Z</time>
      </trkpt>
      <trkpt lat="37.273348" lon="-6.009142">
        <ele>58.005146</ele>
        <time>2020-08-16T06:30:56.772Z</time>
      </trkpt>
      <trkpt lat="37.273234" lon="-6.009208">
        <ele>57.725865</ele>
        <time>2020-08-16T06:30:59.762Z</time>
      </trkpt>
      <trkpt lat="37.273123" lon="-6.009280">
        <ele>57.447922</ele>
        <time>2020-08-16T06:31:02.777Z</time>
      </trkpt>
      <trkpt lat="37.273012" lon="-6.009347">
        <ele>57.173927</ele>
        <time>2020-08-16T06:31:05.780Z</time>
      </trkpt>
      <trkpt lat="37.272904" lon="-6.009416">
        <ele>56.904347</ele>
        <time>2020-08-16T06:31:08.760Z</time>
      </trkpt>
      <trkpt lat="37.272784" lon="-6.009495">
        <ele>56.602918</ele>
        <time>2020-08-16T06:31:11.760Z</time>
      </trkpt>
      <trkpt lat="37.272707" lon="-6.009570">
        <ele>56.386149</ele>
        <time>2020-08-16T06:31:13.769Z</time>
      </trkpt>
      <trkpt lat="37.272621" lon="-6.009614">
        <ele>56.179543</ele>
        <time>2020-08-16T06:31:15.764Z</time>
      </trkpt>
      <trkpt lat="37.272533" lon="-6.009660">
        <ele>56.147547</ele>
        <time>2020-08-16T06:31:17.752Z</time>
      </trkpt>
      <trkpt lat="37.272441" lon="-6.009716">
        <ele>56.253857</ele>
        <time>2020-08-16T06:31:19.776Z</time>
      </trkpt>
      <trkpt lat="37.272354" lon="-6.009753">
        <ele>56.349375</ele>
        <time>2020-08-16T06:31:21.767Z</time>
      </trkpt>
      <trkpt lat="37.272264" lon="-6.009810">
        <ele>56.454186</ele>
        <time>2020-08-16T06:31:24.787Z</time>
      </trkpt>
      <trkpt lat="37.272150" lon="-6.009883">
        <ele>56.587247</ele>
        <time>2020-08-16T06:31:27.787Z</time>
      </trkpt>
      <trkpt lat="37.272045" lon="-6.009938">
        <ele>56.705550</ele>
        <time>2020-08-16T06:31:29.780Z</time>
      </trkpt>
      <trkpt lat="37.271941" lon="-6.010004">
        <ele>56.826715</ele>
        <time>2020-08-16T06:31:32.782Z</time>
      </trkpt>
      <trkpt lat="37.271828" lon="-6.010069">
        <ele>56.955958</ele>
        <time>2020-08-16T06:31:36.778Z</time>
      </trkpt>
      <trkpt lat="37.271735" lon="-6.010128">
        <ele>57.064300</ele>
        <time>2020-08-16T06:31:39.789Z</time>
      </trkpt>
      <trkpt lat="37.271621" lon="-6.010191">
        <ele>57.193814</ele>
        <time>2020-08-16T06:31:41.766Z</time>
      </trkpt>
      <trkpt lat="37.271508" lon="-6.010265">
        <ele>57.326330</ele>
        <time>2020-08-16T06:31:44.779Z</time>
      </trkpt>
      <trkpt lat="37.271398" lon="-6.010334">
        <ele>57.454186</ele>
        <time>2020-08-16T06:31:47.794Z</time>
      </trkpt>
      <trkpt lat="37.271312" lon="-6.010396">
        <ele>57.557295</ele>
        <time>2020-08-16T06:31:49.782Z</time>
      </trkpt>
      <trkpt lat="37.271213" lon="-6.010451">
        <ele>57.669865</ele>
        <time>2020-08-16T06:31:52.774Z</time>
      </trkpt>
      <trkpt lat="37.271107" lon="-6.010520">
        <ele>57.794013</ele>
        <time>2020-08-16T06:31:55.777Z</time>
      </trkpt>
      <trkpt lat="37.271016" lon="-6.010543">
        <ele>57.890544</ele>
        <time>2020-08-16T06:32:01.803Z</time>
      </trkpt>
      <trkpt lat="37.270806" lon="-6.010643">
        <ele>57.912538</ele>
        <time>2020-08-16T06:34:02.784Z</time>
      </trkpt>
      <trkpt lat="37.270711" lon="-6.010712">
        <ele>57.878890</ele>
        <time>2020-08-16T06:34:06.777Z</time>
      </trkpt>
      <trkpt lat="37.270612" lon="-6.010778">
        <ele>57.844524</ele>
        <time>2020-08-16T06:34:10.783Z</time>
      </trkpt>
      <trkpt lat="37.270526" lon="-6.010840">
        <ele>57.814120</ele>
        <time>2020-08-16T06:34:13.786Z</time>
      </trkpt>
      <trkpt lat="37.270435" lon="-6.010891">
        <ele>57.783565</ele>
        <time>2020-08-16T06:34:14.791Z</time>
      </trkpt>
      <trkpt lat="37.270338" lon="-6.010950">
        <ele>57.750519</ele>
        <time>2020-08-16T06:34:17.777Z</time>
      </trkpt>
      <trkpt lat="37.270253" lon="-6.011008">
        <ele>57.720859</ele>
        <time>2020-08-16T06:34:20.754Z</time>
      </trkpt>
      <trkpt lat="37.270140" lon="-6.011046">
        <ele>57.684988</ele>
        <time>2020-08-16T06:34:24.783Z</time>
      </trkpt>
      <trkpt lat="37.270021" lon="-6.011139">
        <ele>57.642014</ele>
        <time>2020-08-16T06:34:27.771Z</time>
      </trkpt>
      <trkpt lat="37.269948" lon="-6.011209">
        <ele>57.613856</ele>
        <time>2020-08-16T06:34:30.767Z</time>
      </trkpt>
      <trkpt lat="37.269847" lon="-6.011272">
        <ele>57.579278</ele>
        <time>2020-08-16T06:34:33.774Z</time>
      </trkpt>
      <trkpt lat="37.269757" lon="-6.011336">
        <ele>57.547567</ele>
        <time>2020-08-16T06:34:36.761Z</time>
      </trkpt>
      <trkpt lat="37.269652" lon="-6.011379">
        <ele>57.513701</ele>
        <time>2020-08-16T06:34:39.760Z</time>
      </trkpt>
      <trkpt lat="37.269560" lon="-6.011449">
        <ele>57.480721</ele>
        <time>2020-08-16T06:34:42.777Z</time>
      </trkpt>
      <trkpt lat="37.269477" lon="-6.011506">
        <ele>57.451716</ele>
        <time>2020-08-16T06:34:45.787Z</time>
      </trkpt>
      <trkpt lat="37.269388" lon="-6.011561">
        <ele>57.421302</ele>
        <time>2020-08-16T06:34:48.767Z</time>
      </trkpt>
      <trkpt lat="37.269291" lon="-6.011612">
        <ele>57.470917</ele>
        <time>2020-08-16T06:34:51.761Z</time>
      </trkpt>
      <trkpt lat="37.269196" lon="-6.011659">
        <ele>57.567128</ele>
        <time>2020-08-16T06:34:54.761Z</time>
      </trkpt>
      <trkpt lat="37.269097" lon="-6.011700">
        <ele>57.665356</ele>
        <time>2020-08-16T06:34:57.774Z</time>
      </trkpt>
      <trkpt lat="37.269003" lon="-6.011755">
        <ele>57.763068</ele>
        <time>2020-08-16T06:35:00.767Z</time>
      </trkpt>
      <trkpt lat="37.268914" lon="-6.011820">
        <ele>57.860074</ele>
        <time>2020-08-16T06:35:03.776Z</time>
      </trkpt>
      <trkpt lat="37.268806" lon="-6.011874">
        <ele>57.969608</ele>
        <time>2020-08-16T06:35:06.777Z</time>
      </trkpt>
      <trkpt lat="37.268702" lon="-6.011929">
        <ele>58.075937</ele>
        <time>2020-08-16T06:35:09.778Z</time>
      </trkpt>
      <trkpt lat="37.268598" lon="-6.011984">
        <ele>58.182267</ele>
        <time>2020-08-16T06:35:12.803Z</time>
      </trkpt>
      <trkpt lat="37.268499" lon="-6.012046">
        <ele>58.286503</ele>
        <time>2020-08-16T06:35:15.750Z</time>
      </trkpt>
      <trkpt lat="37.268402" lon="-6.012101">
        <ele>58.386785</ele>
        <time>2020-08-16T06:35:18.780Z</time>
      </trkpt>
      <trkpt lat="37.268298" lon="-6.012153">
        <ele>58.492263</ele>
        <time>2020-08-16T06:35:21.767Z</time>
      </trkpt>
      <trkpt lat="37.268202" lon="-6.012216">
        <ele>58.594322</ele>
        <time>2020-08-16T06:35:24.769Z</time>
      </trkpt>
      <trkpt lat="37.268115" lon="-6.012293">
        <ele>58.694600</ele>
        <time>2020-08-16T06:35:27.770Z</time>
      </trkpt>
      <trkpt lat="37.268030" lon="-6.012374">
        <ele>58.795128</ele>
        <time>2020-08-16T06:35:30.753Z</time>
      </trkpt>
      <trkpt lat="37.267941" lon="-6.012436">
        <ele>58.891022</ele>
        <time>2020-08-16T06:35:33.767Z</time>
      </trkpt>
      <trkpt lat="37.267849" lon="-6.012492">
        <ele>58.987354</ele>
        <time>2020-08-16T06:35:36.762Z</time>
      </trkpt>
      <trkpt lat="37.267763" lon="-6.012559">
        <ele>59.082708</ele>
        <time>2020-08-16T06:35:39.766Z</time>
      </trkpt>
      <trkpt lat="37.267669" lon="-6.012630">
        <ele>59.078896</ele>
        <time>2020-08-16T06:35:42.785Z</time>
      </trkpt>
      <trkpt lat="37.267568" lon="-6.012691">
        <ele>59.046426</ele>
        <time>2020-08-16T06:35:45.761Z</time>
      </trkpt>
      <trkpt lat="37.267473" lon="-6.012764">
        <ele>59.014160</ele>
        <time>2020-08-16T06:35:48.768Z</time>
      </trkpt>
      <trkpt lat="37.267374" lon="-6.012835">
        <ele>58.981131</ele>
        <time>2020-08-16T06:35:51.788Z</time>
      </trkpt>
      <trkpt lat="37.267268" lon="-6.012886">
        <ele>58.948242</ele>
        <time>2020-08-16T06:35:54.781Z</time>
      </trkpt>
      <trkpt lat="37.267149" lon="-6.012942">
        <ele>58.911422</ele>
        <time>2020-08-16T06:35:57.776Z</time>
      </trkpt>
      <trkpt lat="37.267031" lon="-6.012996">
        <ele>58.875034</ele>
        <time>2020-08-16T06:36:00.770Z</time>
      </trkpt>
      <trkpt lat="37.266922" lon="-6.013053">
        <ele>58.840825</ele>
        <time>2020-08-16T06:36:03.764Z</time>
      </trkpt>
      <trkpt lat="37.266812" lon="-6.013110">
        <ele>58.806348</ele>
        <time>2020-08-16T06:36:06.764Z</time>
      </trkpt>
      <trkpt lat="37.266706" lon="-6.013181">
        <ele>58.771543</ele>
        <time>2020-08-16T06:36:09.779Z</time>
      </trkpt>
      <trkpt lat="37.266609" lon="-6.013246">
        <ele>58.739690</ele>
        <time>2020-08-16T06:36:12.775Z</time>
      </trkpt>
      <trkpt lat="37.266517" lon="-6.013322">
        <ele>58.707787</ele>
        <time>2020-08-16T06:36:15.776Z</time>
      </trkpt>
      <trkpt lat="37.266423" lon="-6.013389">
        <ele>58.676473</ele>
        <time>2020-08-16T06:36:18.765Z</time>
      </trkpt>
      <trkpt lat="37.266317" lon="-6.013445">
        <ele>58.643155</ele>
        <time>2020-08-16T06:36:21.786Z</time>
      </trkpt>
      <trkpt lat="37.266215" lon="-6.013512">
        <ele>58.609805</ele>
        <time>2020-08-16T06:36:24.788Z</time>
      </trkpt>
      <trkpt lat="37.266123" lon="-6.013591">
        <ele>58.575912</ele>
        <time>2020-08-16T06:36:27.780Z</time>
      </trkpt>
      <trkpt lat="37.266016" lon="-6.013651">
        <ele>58.531890</ele>
        <time>2020-08-16T06:36:30.791Z</time>
      </trkpt>
      <trkpt lat="37.265930" lon="-6.013731">
        <ele>58.491688</ele>
        <time>2020-08-16T06:36:33.779Z</time>
      </trkpt>
      <trkpt lat="37.265839" lon="-6.013810">
        <ele>58.450133</ele>
        <time>2020-08-16T06:36:36.785Z</time>
      </trkpt>
      <trkpt lat="37.265728" lon="-6.013870">
        <ele>58.404734</ele>
        <time>2020-08-16T06:36:39.755Z</time>
      </trkpt>
      <trkpt lat="37.265617" lon="-6.013927">
        <ele>58.359682</ele>
        <time>2020-08-16T06:36:42.780Z</time>
      </trkpt>
      <trkpt lat="37.265507" lon="-6.013979">
        <ele>58.315526</ele>
        <time>2020-08-16T06:36:45.788Z</time>
      </trkpt>
      <trkpt lat="37.265399" lon="-6.014041">
        <ele>58.270916</ele>
        <time>2020-08-16T06:36:48.765Z</time>
      </trkpt>
      <trkpt lat="37.265296" lon="-6.014113">
        <ele>58.226632</ele>
        <time>2020-08-16T06:36:51.774Z</time>
      </trkpt>
      <trkpt lat="37.265200" lon="-6.014193">
        <ele>58.183353</ele>
        <time>2020-08-16T06:36:54.774Z</time>
      </trkpt>
      <trkpt lat="37.265095" lon="-6.014263">
        <ele>58.138695</ele>
        <time>2020-08-16T06:36:57.781Z</time>
      </trkpt>
      <trkpt lat="37.264998" lon="-6.014331">
        <ele>58.096964</ele>
        <time>2020-08-16T06:37:00.769Z</time>
      </trkpt>
      <trkpt lat="37.264895" lon="-6.014402">
        <ele>58.052825</ele>
        <time>2020-08-16T06:37:03.770Z</time>
      </trkpt>
      <trkpt lat="37.264768" lon="-6.014446">
        <ele>58.003329</ele>
        <time>2020-08-16T06:37:06.770Z</time>
      </trkpt>
      <trkpt lat="37.264651" lon="-6.014508">
        <ele>57.955622</ele>
        <time>2020-08-16T06:37:09.776Z</time>
      </trkpt>
      <trkpt lat="37.264544" lon="-6.014580">
        <ele>57.910020</ele>
        <time>2020-08-16T06:37:12.774Z</time>
      </trkpt>
      <trkpt lat="37.264440" lon="-6.014637">
        <ele>57.933850</ele>
        <time>2020-08-16T06:37:15.790Z</time>
      </trkpt>
      <trkpt lat="37.264344" lon="-6.014696">
        <ele>57.960788</ele>
        <time>2020-08-16T06:37:18.784Z</time>
      </trkpt>
      <trkpt lat="37.264255" lon="-6.014779">
        <ele>57.988725</ele>
        <time>2020-08-16T06:37:21.775Z</time>
      </trkpt>
      <trkpt lat="37.264138" lon="-6.014864">
        <ele>58.022792</ele>
        <time>2020-08-16T06:37:24.780Z</time>
      </trkpt>
      <trkpt lat="37.264050" lon="-6.014906">
        <ele>58.046520</ele>
        <time>2020-08-16T06:37:27.775Z</time>
      </trkpt>
      <trkpt lat="37.263954" lon="-6.014950">
        <ele>58.072278</ele>
        <time>2020-08-16T06:37:29.778Z</time>
      </trkpt>
      <trkpt lat="37.263845" lon="-6.015002">
        <ele>58.101667</ele>
        <time>2020-08-16T06:37:31.788Z</time>
      </trkpt>
      <trkpt lat="37.263730" lon="-6.015072">
        <ele>58.133877</ele>
        <time>2020-08-16T06:37:34.773Z</time>
      </trkpt>
      <trkpt lat="37.263624" lon="-6.015146">
        <ele>58.164443</ele>
        <time>2020-08-16T06:37:39.769Z</time>
      </trkpt>
      <trkpt lat="37.263534" lon="-6.015209">
        <ele>58.190412</ele>
        <time>2020-08-16T06:37:41.779Z</time>
      </trkpt>
      <trkpt lat="37.263450" lon="-6.015266">
        <ele>58.214476</ele>
        <time>2020-08-16T06:37:43.770Z</time>
      </trkpt>
      <trkpt lat="37.263361" lon="-6.015326">
        <ele>58.239935</ele>
        <time>2020-08-16T06:37:45.796Z</time>
      </trkpt>
      <trkpt lat="37.263252" lon="-6.015392">
        <ele>58.270435</ele>
        <time>2020-08-16T06:37:47.779Z</time>
      </trkpt>
      <trkpt lat="37.263167" lon="-6.015443">
        <ele>58.294178</ele>
        <time>2020-08-16T06:37:49.771Z</time>
      </trkpt>
      <trkpt lat="37.263039" lon="-6.015459">
        <ele>58.326602</ele>
        <time>2020-08-16T06:37:52.765Z</time>
      </trkpt>
      <trkpt lat="37.262957" lon="-6.015525">
        <ele>58.351148</ele>
        <time>2020-08-16T06:37:57.781Z</time>
      </trkpt>
      <trkpt lat="37.262876" lon="-6.015579">
        <ele>58.270295</ele>
        <time>2020-08-16T06:37:59.781Z</time>
      </trkpt>
      <trkpt lat="37.262780" lon="-6.015635">
        <ele>58.094774</ele>
        <time>2020-08-16T06:38:01.775Z</time>
      </trkpt>
      <trkpt lat="37.262688" lon="-6.015682">
        <ele>57.930078</ele>
        <time>2020-08-16T06:38:03.778Z</time>
      </trkpt>
      <trkpt lat="37.262610" lon="-6.015738">
        <ele>57.781101</ele>
        <time>2020-08-16T06:38:05.781Z</time>
      </trkpt>
      <trkpt lat="37.262517" lon="-6.015807">
        <ele>57.601995</ele>
        <time>2020-08-16T06:38:07.765Z</time>
      </trkpt>
      <trkpt lat="37.262405" lon="-6.015872">
        <ele>57.397405</ele>
        <time>2020-08-16T06:38:10.767Z</time>
      </trkpt>
      <trkpt lat="37.262272" lon="-6.015971">
        <ele>57.141047</ele>
        <time>2020-08-16T06:38:13.770Z</time>
      </trkpt>
      <trkpt lat="37.262158" lon="-6.016026">
        <ele>56.938538</ele>
        <time>2020-08-16T06:38:18.775Z</time>
      </trkpt>
      <trkpt lat="37.262010" lon="-6.016178">
        <ele>56.621545</ele>
        <time>2020-08-16T06:38:20.775Z</time>
      </trkpt>
      <trkpt lat="37.261926" lon="-6.016230">
        <ele>56.466255</ele>
        <time>2020-08-16T06:38:22.763Z</time>
      </trkpt>
      <trkpt lat="37.261824" lon="-6.016240">
        <ele>56.296590</ele>
        <time>2020-08-16T06:38:24.786Z</time>
      </trkpt>
      <trkpt lat="37.261746" lon="-6.016311">
        <ele>56.136863</ele>
        <time>2020-08-16T06:38:26.767Z</time>
      </trkpt>
      <trkpt lat="37.261661" lon="-6.016379">
        <ele>55.969757</ele>
        <time>2020-08-16T06:38:28.776Z</time>
      </trkpt>
      <trkpt lat="37.261560" lon="-6.016395">
        <ele>55.800938</ele>
        <time>2020-08-16T06:38:30.775Z</time>
      </trkpt>
      <trkpt lat="37.261510" lon="-6.016491">
        <ele>55.649514</ele>
        <time>2020-08-16T06:38:32.784Z</time>
      </trkpt>
      <trkpt lat="37.261418" lon="-6.016591">
        <ele>55.447779</ele>
        <time>2020-08-16T06:38:35.780Z</time>
      </trkpt>
      <trkpt lat="37.261304" lon="-6.016680">
        <ele>55.489119</ele>
        <time>2020-08-16T06:38:38.776Z</time>
      </trkpt>
      <trkpt lat="37.261200" lon="-6.016703">
        <ele>55.616919</ele>
        <time>2020-08-16T06:38:40.780Z</time>
      </trkpt>
      <trkpt lat="37.261096" lon="-6.016744">
        <ele>55.748834</ele>
        <time>2020-08-16T06:38:43.778Z</time>
      </trkpt>
      <trkpt lat="37.261014" lon="-6.016815">
        <ele>55.869355</ele>
        <time>2020-08-16T06:38:51.786Z</time>
      </trkpt>
      <trkpt lat="37.260689" lon="-6.016948">
        <ele>56.283020</ele>
        <time>2020-08-16T06:38:52.787Z</time>
      </trkpt>
      <trkpt lat="37.260651" lon="-6.017072">
        <ele>56.411007</ele>
        <time>2020-08-16T06:38:54.781Z</time>
      </trkpt>
      <trkpt lat="37.260572" lon="-6.017129">
        <ele>56.521258</ele>
        <time>2020-08-16T06:38:56.778Z</time>
      </trkpt>
      <trkpt lat="37.260452" lon="-6.017162">
        <ele>56.669925</ele>
        <time>2020-08-16T06:39:00.769Z</time>
      </trkpt>
      <trkpt lat="37.260231" lon="-6.017207">
        <ele>56.940877</ele>
        <time>2020-08-16T06:39:03.787Z</time>
      </trkpt>
      <trkpt lat="37.260158" lon="-6.017277">
        <ele>57.052014</ele>
        <time>2020-08-16T06:39:05.793Z</time>
      </trkpt>
      <trkpt lat="37.260070" lon="-6.017399">
        <ele>57.210608</ele>
        <time>2020-08-16T06:39:08.787Z</time>
      </trkpt>
      <trkpt lat="37.259983" lon="-6.017469">
        <ele>57.335637</ele>
        <time>2020-08-16T06:39:13.788Z</time>
      </trkpt>
      <trkpt lat="37.259895" lon="-6.017556">
        <ele>57.471155</ele>
        <time>2020-08-16T06:39:14.791Z</time>
      </trkpt>
      <trkpt lat="37.259826" lon="-6.017635">
        <ele>57.541791</ele>
        <time>2020-08-16T06:39:15.790Z</time>
      </trkpt>
      <trkpt lat="37.259721" lon="-6.017662">
        <ele>57.485756</ele>
        <time>2020-08-16T06:39:17.759Z</time>
      </trkpt>
      <trkpt lat="37.259632" lon="-6.017719">
        <ele>57.433528</ele>
        <time>2020-08-16T06:39:21.777Z</time>
      </trkpt>
      <trkpt lat="37.259528" lon="-6.017806">
        <ele>57.368205</ele>
        <time>2020-08-16T06:39:24.797Z</time>
      </trkpt>
      <trkpt lat="37.259377" lon="-6.017850">
        <ele>57.287163</ele>
        <time>2020-08-16T06:39:26.785Z</time>
      </trkpt>
      <trkpt lat="37.259254" lon="-6.017912">
        <ele>57.217873</ele>
        <time>2020-08-16T06:39:29.787Z</time>
      </trkpt>
      <trkpt lat="37.259163" lon="-6.017938">
        <ele>57.169081</ele>
        <time>2020-08-16T06:39:33.796Z</time>
      </trkpt>
      <trkpt lat="37.259043" lon="-6.018057">
        <ele>57.089154</ele>
        <time>2020-08-16T06:39:36.763Z</time>
      </trkpt>
      <trkpt lat="37.258952" lon="-6.018073">
        <ele>57.041114</ele>
        <time>2020-08-16T06:39:37.769Z</time>
      </trkpt>
      <trkpt lat="37.258882" lon="-6.018146">
        <ele>56.993551</ele>
        <time>2020-08-16T06:39:39.760Z</time>
      </trkpt>
      <trkpt lat="37.258777" lon="-6.018183">
        <ele>56.936536</ele>
        <time>2020-08-16T06:39:42.762Z</time>
      </trkpt>
      <trkpt lat="37.258671" lon="-6.018327">
        <ele>56.854916</ele>
        <time>2020-08-16T06:39:47.793Z</time>
      </trkpt>
      <trkpt lat="37.258546" lon="-6.018320">
        <ele>56.789497</ele>
        <time>2020-08-16T06:39:48.786Z</time>
      </trkpt>
      <trkpt lat="37.258461" lon="-6.018376">
        <ele>56.739318</ele>
        <time>2020-08-16T06:39:50.766Z</time>
      </trkpt>
      <trkpt lat="37.258390" lon="-6.018506">
        <ele>56.673711</ele>
        <time>2020-08-16T06:39:53.782Z</time>
      </trkpt>
      <trkpt lat="37.258300" lon="-6.018587">
        <ele>56.615830</ele>
        <time>2020-08-16T06:39:58.792Z</time>
      </trkpt>
      <trkpt lat="37.258141" lon="-6.018679">
        <ele>56.668554</ele>
        <time>2020-08-16T06:40:00.781Z</time>
      </trkpt>
      <trkpt lat="37.258025" lon="-6.018701">
        <ele>56.705657</ele>
        <time>2020-08-16T06:40:02.788Z</time>
      </trkpt>
      <trkpt lat="37.257939" lon="-6.018753">
        <ele>56.735842</ele>
        <time>2020-08-16T06:40:04.782Z</time>
      </trkpt>
      <trkpt lat="37.257841" lon="-6.018816">
        <ele>56.770658</ele>
        <time>2020-08-16T06:40:07.791Z</time>
      </trkpt>
      <trkpt lat="37.257751" lon="-6.018854">
        <ele>56.800687</ele>
        <time>2020-08-16T06:40:09.776Z</time>
      </trkpt>
      <trkpt lat="37.257653" lon="-6.018907">
        <ele>56.834431</ele>
        <time>2020-08-16T06:40:11.800Z</time>
      </trkpt>
      <trkpt lat="37.257561" lon="-6.018960">
        <ele>56.866440</ele>
        <time>2020-08-16T06:40:13.769Z</time>
      </trkpt>
      <trkpt lat="37.257456" lon="-6.019037">
        <ele>56.904891</ele>
        <time>2020-08-16T06:40:16.787Z</time>
      </trkpt>
      <trkpt lat="37.257371" lon="-6.019099">
        <ele>56.935976</ele>
        <time>2020-08-16T06:40:20.777Z</time>
      </trkpt>
      <trkpt lat="37.257213" lon="-6.019233">
        <ele>56.996266</ele>
        <time>2020-08-16T06:40:23.786Z</time>
      </trkpt>
      <trkpt lat="37.257102" lon="-6.019302">
        <ele>57.035434</ele>
        <time>2020-08-16T06:40:26.763Z</time>
      </trkpt>
      <trkpt lat="37.257022" lon="-6.019358">
        <ele>57.064398</ele>
        <time>2020-08-16T06:40:29.792Z</time>
      </trkpt>
      <trkpt lat="37.256906" lon="-6.019447">
        <ele>57.107385</ele>
        <time>2020-08-16T06:40:32.793Z</time>
      </trkpt>
      <trkpt lat="37.256808" lon="-6.019502">
        <ele>57.141331</ele>
        <time>2020-08-16T06:40:35.788Z</time>
      </trkpt>
      <trkpt lat="37.256714" lon="-6.019547">
        <ele>57.173145</ele>
        <time>2020-08-16T06:40:37.783Z</time>
      </trkpt>
      <trkpt lat="37.256552" lon="-6.019599">
        <ele>57.090462</ele>
        <time>2020-08-16T06:40:40.786Z</time>
      </trkpt>
      <trkpt lat="37.256423" lon="-6.019626">
        <ele>57.001379</ele>
        <time>2020-08-16T06:40:43.785Z</time>
      </trkpt>
      <trkpt lat="37.256335" lon="-6.019676">
        <ele>56.935590</ele>
        <time>2020-08-16T06:40:47.776Z</time>
      </trkpt>
      <trkpt lat="37.256200" lon="-6.019753">
        <ele>56.834598</ele>
        <time>2020-08-16T06:40:50.783Z</time>
      </trkpt>
      <trkpt lat="37.256075" lon="-6.019810">
        <ele>56.744016</ele>
        <time>2020-08-16T06:40:52.764Z</time>
      </trkpt>
      <trkpt lat="37.255979" lon="-6.019895">
        <ele>56.664015</ele>
        <time>2020-08-16T06:40:55.784Z</time>
      </trkpt>
      <trkpt lat="37.255905" lon="-6.019967">
        <ele>56.600260</ele>
        <time>2020-08-16T06:40:59.803Z</time>
      </trkpt>
      <trkpt lat="37.255809" lon="-6.020037">
        <ele>56.524651</ele>
        <time>2020-08-16T06:41:02.807Z</time>
      </trkpt>
      <trkpt lat="37.255685" lon="-6.020081">
        <ele>56.436881</ele>
        <time>2020-08-16T06:41:03.797Z</time>
      </trkpt>
      <trkpt lat="37.255591" lon="-6.020096">
        <ele>56.372336</ele>
        <time>2020-08-16T06:41:05.778Z</time>
      </trkpt>
      <trkpt lat="37.255480" lon="-6.020179">
        <ele>56.284347</ele>
        <time>2020-08-16T06:41:08.780Z</time>
      </trkpt>
      <trkpt lat="37.255380" lon="-6.020245">
        <ele>56.207401</ele>
        <time>2020-08-16T06:41:11.787Z</time>
      </trkpt>
      <trkpt lat="37.255286" lon="-6.020321">
        <ele>56.131258</ele>
        <time>2020-08-16T06:41:15.803Z</time>
      </trkpt>
      <trkpt lat="37.255148" lon="-6.020396">
        <ele>56.028837</ele>
        <time>2020-08-16T06:41:17.783Z</time>
      </trkpt>
      <trkpt lat="37.255037" lon="-6.020443">
        <ele>55.967896</ele>
        <time>2020-08-16T06:41:20.788Z</time>
      </trkpt>
      <trkpt lat="37.254952" lon="-6.020493">
        <ele>56.040960</ele>
        <time>2020-08-16T06:41:22.765Z</time>
      </trkpt>
      <trkpt lat="37.254809" lon="-6.020612">
        <ele>56.174488</ele>
        <time>2020-08-16T06:41:26.778Z</time>
      </trkpt>
      <trkpt lat="37.254690" lon="-6.020676">
        <ele>56.275259</ele>
        <time>2020-08-16T06:41:29.786Z</time>
      </trkpt>
      <trkpt lat="37.254572" lon="-6.020757">
        <ele>56.379936</ele>
        <time>2020-08-16T06:41:33.782Z</time>
      </trkpt>
      <trkpt lat="37.254484" lon="-6.020800">
        <ele>56.453441</ele>
        <time>2020-08-16T06:41:35.808Z</time>
      </trkpt>
      <trkpt lat="37.254397" lon="-6.020830">
        <ele>56.523674</ele>
        <time>2020-08-16T06:41:37.789Z</time>
      </trkpt>
      <trkpt lat="37.254304" lon="-6.020871">
        <ele>56.600400</ele>
        <time>2020-08-16T06:41:40.787Z</time>
      </trkpt>
      <trkpt lat="37.254212" lon="-6.020955">
        <ele>56.688936</ele>
        <time>2020-08-16T06:41:43.789Z</time>
      </trkpt>
      <trkpt lat="37.254115" lon="-6.021026">
        <ele>56.776330</ele>
        <time>2020-08-16T06:41:46.772Z</time>
      </trkpt>
      <trkpt lat="37.254031" lon="-6.021072">
        <ele>56.847664</ele>
        <time>2020-08-16T06:41:49.790Z</time>
      </trkpt>
      <trkpt lat="37.253931" lon="-6.021138">
        <ele>56.935600</ele>
        <time>2020-08-16T06:41:52.792Z</time>
      </trkpt>
      <trkpt lat="37.253811" lon="-6.021222">
        <ele>57.042540</ele>
        <time>2020-08-16T06:41:55.776Z</time>
      </trkpt>
      <trkpt lat="37.253698" lon="-6.021292">
        <ele>57.140620</ele>
        <time>2020-08-16T06:41:58.793Z</time>
      </trkpt>
      <trkpt lat="37.253611" lon="-6.021352">
        <ele>57.217881</ele>
        <time>2020-08-16T06:42:01.779Z</time>
      </trkpt>
      <trkpt lat="37.253518" lon="-6.021414">
        <ele>57.299841</ele>
        <time>2020-08-16T06:42:04.782Z</time>
      </trkpt>
      <trkpt lat="37.253383" lon="-6.021498">
        <ele>57.371457</ele>
        <time>2020-08-16T06:42:07.783Z</time>
      </trkpt>
      <trkpt lat="37.253270" lon="-6.021563">
        <ele>57.393417</ele>
        <time>2020-08-16T06:42:10.778Z</time>
      </trkpt>
      <trkpt lat="37.253150" lon="-6.021650">
        <ele>57.417897</ele>
        <time>2020-08-16T06:42:14.799Z</time>
      </trkpt>
      <trkpt lat="37.253040" lon="-6.021711">
        <ele>57.439143</ele>
        <time>2020-08-16T06:42:16.792Z</time>
      </trkpt>
      <trkpt lat="37.252937" lon="-6.021764">
        <ele>57.458809</ele>
        <time>2020-08-16T06:42:19.783Z</time>
      </trkpt>
      <trkpt lat="37.252828" lon="-6.021827">
        <ele>57.480009</ele>
        <time>2020-08-16T06:42:22.779Z</time>
      </trkpt>
      <trkpt lat="37.252723" lon="-6.021904">
        <ele>57.501492</ele>
        <time>2020-08-16T06:42:25.770Z</time>
      </trkpt>
      <trkpt lat="37.252589" lon="-6.021956">
        <ele>57.526272</ele>
        <time>2020-08-16T06:42:28.750Z</time>
      </trkpt>
      <trkpt lat="37.252514" lon="-6.022020">
        <ele>57.542292</ele>
        <time>2020-08-16T06:42:30.783Z</time>
      </trkpt>
      <trkpt lat="37.252431" lon="-6.022062">
        <ele>57.558103</ele>
        <time>2020-08-16T06:42:33.780Z</time>
      </trkpt>
      <trkpt lat="37.252312" lon="-6.022142">
        <ele>57.581951</ele>
        <time>2020-08-16T06:42:36.801Z</time>
      </trkpt>
      <trkpt lat="37.252212" lon="-6.022197">
        <ele>57.601239</ele>
        <time>2020-08-16T06:42:38.776Z</time>
      </trkpt>
      <trkpt lat="37.252093" lon="-6.022270">
        <ele>57.624638</ele>
        <time>2020-08-16T06:42:41.771Z</time>
      </trkpt>
      <trkpt lat="37.251991" lon="-6.022346">
        <ele>57.645592</ele>
        <time>2020-08-16T06:42:44.778Z</time>
      </trkpt>
      <trkpt lat="37.251894" lon="-6.022412">
        <ele>57.665084</ele>
        <time>2020-08-16T06:42:46.779Z</time>
      </trkpt>
      <trkpt lat="37.251777" lon="-6.022495">
        <ele>57.667196</ele>
        <time>2020-08-16T06:42:49.780Z</time>
      </trkpt>
      <trkpt lat="37.251699" lon="-6.022553">
        <ele>57.656497</ele>
        <time>2020-08-16T06:42:51.788Z</time>
      </trkpt>
      <trkpt lat="37.251590" lon="-6.022607">
        <ele>57.642667</ele>
        <time>2020-08-16T06:42:54.779Z</time>
      </trkpt>
      <trkpt lat="37.251478" lon="-6.022676">
        <ele>57.627942</ele>
        <time>2020-08-16T06:42:57.781Z</time>
      </trkpt>
      <trkpt lat="37.251368" lon="-6.022759">
        <ele>57.612796</ele>
        <time>2020-08-16T06:43:00.789Z</time>
      </trkpt>
      <trkpt lat="37.251284" lon="-6.022813">
        <ele>57.601658</ele>
        <time>2020-08-16T06:43:02.788Z</time>
      </trkpt>
      <trkpt lat="37.251190" lon="-6.022870">
        <ele>57.589337</ele>
        <time>2020-08-16T06:43:04.799Z</time>
      </trkpt>
      <trkpt lat="37.251089" lon="-6.022935">
        <ele>57.575942</ele>
        <time>2020-08-16T06:43:07.799Z</time>
      </trkpt>
      <trkpt lat="37.250997" lon="-6.022989">
        <ele>57.563956</ele>
        <time>2020-08-16T06:43:10.801Z</time>
      </trkpt>
      <trkpt lat="37.250883" lon="-6.023067">
        <ele>57.548633</ele>
        <time>2020-08-16T06:43:13.804Z</time>
      </trkpt>
      <trkpt lat="37.250763" lon="-6.023121">
        <ele>57.533587</ele>
        <time>2020-08-16T06:43:15.796Z</time>
      </trkpt>
      <trkpt lat="37.250665" lon="-6.023183">
        <ele>57.520635</ele>
        <time>2020-08-16T06:43:18.778Z</time>
      </trkpt>
      <trkpt lat="37.250571" lon="-6.023260">
        <ele>57.507389</ele>
        <time>2020-08-16T06:43:21.787Z</time>
      </trkpt>
      <trkpt lat="37.250455" lon="-6.023330">
        <ele>57.492199</ele>
        <time>2020-08-16T06:43:24.777Z</time>
      </trkpt>
      <trkpt lat="37.250371" lon="-6.023419">
        <ele>57.479228</ele>
        <time>2020-08-16T06:43:26.809Z</time>
      </trkpt>
      <trkpt lat="37.250238" lon="-6.023456">
        <ele>57.459737</ele>
        <time>2020-08-16T06:43:29.774Z</time>
      </trkpt>
      <trkpt lat="37.250123" lon="-6.023520">
        <ele>57.318130</ele>
        <time>2020-08-16T06:43:32.774Z</time>
      </trkpt>
      <trkpt lat="37.250009" lon="-6.023589">
        <ele>57.175664</ele>
        <time>2020-08-16T06:43:35.776Z</time>
      </trkpt>
      <trkpt lat="37.249905" lon="-6.023649">
        <ele>57.046819</ele>
        <time>2020-08-16T06:43:37.782Z</time>
      </trkpt>
      <trkpt lat="37.249790" lon="-6.023699">
        <ele>56.909812</ele>
        <time>2020-08-16T06:43:40.781Z</time>
      </trkpt>
      <trkpt lat="37.249709" lon="-6.023750">
        <ele>56.807806</ele>
        <time>2020-08-16T06:43:42.804Z</time>
      </trkpt>
      <trkpt lat="37.249622" lon="-6.023810">
        <ele>56.696069</ele>
        <time>2020-08-16T06:43:47.776Z</time>
      </trkpt>
      <trkpt lat="37.249533" lon="-6.023882">
        <ele>56.576890</ele>
        <time>2020-08-16T06:43:50.789Z</time>
      </trkpt>
      <trkpt lat="37.249421" lon="-6.023927">
        <ele>56.444503</ele>
        <time>2020-08-16T06:43:52.790Z</time>
      </trkpt>
      <trkpt lat="37.249333" lon="-6.023969">
        <ele>56.338520</ele>
        <time>2020-08-16T06:43:54.801Z</time>
      </trkpt>
      <trkpt lat="37.249228" lon="-6.024080">
        <ele>56.184020</ele>
        <time>2020-08-16T06:43:56.775Z</time>
      </trkpt>
      <trkpt lat="37.249142" lon="-6.024177">
        <ele>56.053899</ele>
        <time>2020-08-16T06:44:00.789Z</time>
      </trkpt>
      <trkpt lat="37.249049" lon="-6.024245">
        <ele>55.932752</ele>
        <time>2020-08-16T06:44:03.792Z</time>
      </trkpt>
      <trkpt lat="37.248958" lon="-6.024316">
        <ele>55.812149</ele>
        <time>2020-08-16T06:44:06.782Z</time>
      </trkpt>
      <trkpt lat="37.248879" lon="-6.024377">
        <ele>55.707750</ele>
        <time>2020-08-16T06:44:08.781Z</time>
      </trkpt>
      <trkpt lat="37.248766" lon="-6.024421">
        <ele>55.574558</ele>
        <time>2020-08-16T06:44:11.767Z</time>
      </trkpt>
      <trkpt lat="37.248681" lon="-6.024488">
        <ele>55.461584</ele>
        <time>2020-08-16T06:44:14.794Z</time>
      </trkpt>
      <trkpt lat="37.248582" lon="-6.024570">
        <ele>55.451435</ele>
        <time>2020-08-16T06:44:18.802Z</time>
      </trkpt>
      <trkpt lat="37.248476" lon="-6.024642">
        <ele>55.467257</ele>
        <time>2020-08-16T06:44:20.786Z</time>
      </trkpt>
      <trkpt lat="37.248367" lon="-6.024711">
        <ele>55.483283</ele>
        <time>2020-08-16T06:44:23.795Z</time>
      </trkpt>
      <trkpt lat="37.248257" lon="-6.024745">
        <ele>55.498156</ele>
        <time>2020-08-16T06:44:26.784Z</time>
      </trkpt>
      <trkpt lat="37.248154" lon="-6.024815">
        <ele>55.513532</ele>
        <time>2020-08-16T06:44:31.772Z</time>
      </trkpt>
      <trkpt lat="37.248030" lon="-6.024857">
        <ele>55.530394</ele>
        <time>2020-08-16T06:44:32.786Z</time>
      </trkpt>
      <trkpt lat="37.247932" lon="-6.024960">
        <ele>55.547170</ele>
        <time>2020-08-16T06:44:35.765Z</time>
      </trkpt>
      <trkpt lat="37.247816" lon="-6.025032">
        <ele>55.564159</ele>
        <time>2020-08-16T06:44:38.787Z</time>
      </trkpt>
      <trkpt lat="37.247710" lon="-6.025115">
        <ele>55.580558</ele>
        <time>2020-08-16T06:44:41.760Z</time>
      </trkpt>
      <trkpt lat="37.247628" lon="-6.025165">
        <ele>55.592526</ele>
        <time>2020-08-16T06:44:43.753Z</time>
      </trkpt>
      <trkpt lat="37.247508" lon="-6.025233">
        <ele>55.609810</ele>
        <time>2020-08-16T06:44:46.753Z</time>
      </trkpt>
      <trkpt lat="37.247389" lon="-6.025294">
        <ele>55.626685</ele>
        <time>2020-08-16T06:44:49.760Z</time>
      </trkpt>
      <trkpt lat="37.247280" lon="-6.025363">
        <ele>55.642711</ele>
        <time>2020-08-16T06:44:52.793Z</time>
      </trkpt>
      <trkpt lat="37.247173" lon="-6.025435">
        <ele>55.658648</ele>
        <time>2020-08-16T06:44:55.771Z</time>
      </trkpt>
      <trkpt lat="37.247059" lon="-6.025494">
        <ele>55.675363</ele>
        <time>2020-08-16T06:44:58.784Z</time>
      </trkpt>
      <trkpt lat="37.246972" lon="-6.025547">
        <ele>55.740266</ele>
        <time>2020-08-16T06:45:01.749Z</time>
      </trkpt>
      <trkpt lat="37.246878" lon="-6.025580">
        <ele>55.805781</ele>
        <time>2020-08-16T06:45:05.793Z</time>
      </trkpt>
      <trkpt lat="37.246787" lon="-6.025542">
        <ele>55.870150</ele>
        <time>2020-08-16T06:45:10.758Z</time>
      </trkpt>
      <trkpt lat="37.246733" lon="-6.025405">
        <ele>55.951837</ele>
        <time>2020-08-16T06:45:14.791Z</time>
      </trkpt>
      <trkpt lat="37.246693" lon="-6.025289">
        <ele>56.019385</ele>
        <time>2020-08-16T06:45:17.787Z</time>
      </trkpt>
      <trkpt lat="37.246648" lon="-6.025159">
        <ele>56.095132</ele>
        <time>2020-08-16T06:45:20.780Z</time>
      </trkpt>
      <trkpt lat="37.246583" lon="-6.025017">
        <ele>56.182658</ele>
        <time>2020-08-16T06:45:23.783Z</time>
      </trkpt>
      <trkpt lat="37.246521" lon="-6.024874">
        <ele>56.269666</ele>
        <time>2020-08-16T06:45:26.776Z</time>
      </trkpt>
      <trkpt lat="37.246461" lon="-6.024720">
        <ele>56.361281</ele>
        <time>2020-08-16T06:45:29.778Z</time>
      </trkpt>
      <trkpt lat="37.246425" lon="-6.024607">
        <ele>56.426318</ele>
        <time>2020-08-16T06:45:31.783Z</time>
      </trkpt>
      <trkpt lat="37.246356" lon="-6.024511">
        <ele>56.495430</ele>
        <time>2020-08-16T06:45:33.780Z</time>
      </trkpt>
      <trkpt lat="37.246305" lon="-6.024406">
        <ele>56.561154</ele>
        <time>2020-08-16T06:45:35.774Z</time>
      </trkpt>
      <trkpt lat="37.246269" lon="-6.024301">
        <ele>56.622243</ele>
        <time>2020-08-16T06:45:37.787Z</time>
      </trkpt>
      <trkpt lat="37.246237" lon="-6.024187">
        <ele>56.686833</ele>
        <time>2020-08-16T06:45:39.787Z</time>
      </trkpt>
      <trkpt lat="37.246197" lon="-6.024084">
        <ele>56.748070</ele>
        <time>2020-08-16T06:45:41.784Z</time>
      </trkpt>
      <trkpt lat="37.246146" lon="-6.023943">
        <ele>56.830825</ele>
        <time>2020-08-16T06:45:44.783Z</time>
      </trkpt>
      <trkpt lat="37.246111" lon="-6.023828">
        <ele>56.878579</ele>
        <time>2020-08-16T06:45:46.794Z</time>
      </trkpt>
      <trkpt lat="37.246058" lon="-6.023721">
        <ele>56.862599</ele>
        <time>2020-08-16T06:45:48.776Z</time>
      </trkpt>
      <trkpt lat="37.246011" lon="-6.023616">
        <ele>56.847323</ele>
        <time>2020-08-16T06:45:50.772Z</time>
      </trkpt>
      <trkpt lat="37.245970" lon="-6.023500">
        <ele>56.831229</ele>
        <time>2020-08-16T06:45:52.771Z</time>
      </trkpt>
      <trkpt lat="37.245924" lon="-6.023348">
        <ele>56.810609</ele>
        <time>2020-08-16T06:45:55.772Z</time>
      </trkpt>
      <trkpt lat="37.245875" lon="-6.023199">
        <ele>56.790166</ele>
        <time>2020-08-16T06:45:58.780Z</time>
      </trkpt>
      <trkpt lat="37.245803" lon="-6.023120">
        <ele>56.774938</ele>
        <time>2020-08-16T06:46:00.786Z</time>
      </trkpt>
      <trkpt lat="37.245729" lon="-6.023028">
        <ele>56.758353</ele>
        <time>2020-08-16T06:46:02.773Z</time>
      </trkpt>
      <trkpt lat="37.245655" lon="-6.022922">
        <ele>56.740475</ele>
        <time>2020-08-16T06:46:04.765Z</time>
      </trkpt>
      <trkpt lat="37.245591" lon="-6.022804">
        <ele>56.722369</ele>
        <time>2020-08-16T06:46:06.791Z</time>
      </trkpt>
      <trkpt lat="37.245507" lon="-6.022679">
        <ele>56.701625</ele>
        <time>2020-08-16T06:46:08.777Z</time>
      </trkpt>
      <trkpt lat="37.245390" lon="-6.022612">
        <ele>56.681142</ele>
        <time>2020-08-16T06:46:10.778Z</time>
      </trkpt>
      <trkpt lat="37.245295" lon="-6.022498">
        <ele>56.660214</ele>
        <time>2020-08-16T06:46:12.791Z</time>
      </trkpt>
      <trkpt lat="37.245156" lon="-6.022434">
        <ele>56.636632</ele>
        <time>2020-08-16T06:46:14.780Z</time>
      </trkpt>
      <trkpt lat="37.245036" lon="-6.022383">
        <ele>56.616452</ele>
        <time>2020-08-16T06:46:16.768Z</time>
      </trkpt>
      <trkpt lat="37.244916" lon="-6.022352">
        <ele>56.596936</ele>
        <time>2020-08-16T06:46:18.782Z</time>
      </trkpt>
      <trkpt lat="37.244817" lon="-6.022315">
        <ele>56.499801</ele>
        <time>2020-08-16T06:46:20.796Z</time>
      </trkpt>
      <trkpt lat="37.244700" lon="-6.022297">
        <ele>56.380293</ele>
        <time>2020-08-16T06:46:22.763Z</time>
      </trkpt>
      <trkpt lat="37.244598" lon="-6.022259">
        <ele>56.272426</ele>
        <time>2020-08-16T06:46:24.791Z</time>
      </trkpt>
      <trkpt lat="37.244465" lon="-6.022180">
        <ele>56.123267</ele>
        <time>2020-08-16T06:46:26.771Z</time>
      </trkpt>
      <trkpt lat="37.244360" lon="-6.022125">
        <ele>56.007927</ele>
        <time>2020-08-16T06:46:28.783Z</time>
      </trkpt>
      <trkpt lat="37.244247" lon="-6.022057">
        <ele>55.880893</ele>
        <time>2020-08-16T06:46:30.756Z</time>
      </trkpt>
      <trkpt lat="37.244143" lon="-6.021958">
        <ele>55.748595</ele>
        <time>2020-08-16T06:46:32.783Z</time>
      </trkpt>
      <trkpt lat="37.244043" lon="-6.021863">
        <ele>55.621480</ele>
        <time>2020-08-16T06:46:34.759Z</time>
      </trkpt>
      <trkpt lat="37.243975" lon="-6.021727">
        <ele>55.491859</ele>
        <time>2020-08-16T06:46:36.775Z</time>
      </trkpt>
      <trkpt lat="37.243908" lon="-6.021596">
        <ele>55.366187</ele>
        <time>2020-08-16T06:46:38.760Z</time>
      </trkpt>
      <trkpt lat="37.243834" lon="-6.021486">
        <ele>55.249950</ele>
        <time>2020-08-16T06:46:40.776Z</time>
      </trkpt>
      <trkpt lat="37.243770" lon="-6.021378">
        <ele>55.141283</ele>
        <time>2020-08-16T06:46:42.781Z</time>
      </trkpt>
      <trkpt lat="37.243696" lon="-6.021244">
        <ele>55.009655</ele>
        <time>2020-08-16T06:46:44.765Z</time>
      </trkpt>
      <trkpt lat="37.243603" lon="-6.021121">
        <ele>54.872739</ele>
        <time>2020-08-16T06:46:46.788Z</time>
      </trkpt>
      <trkpt lat="37.243538" lon="-6.021009">
        <ele>54.766338</ele>
        <time>2020-08-16T06:46:48.797Z</time>
      </trkpt>
      <trkpt lat="37.243456" lon="-6.020894">
        <ele>54.703280</ele>
        <time>2020-08-16T06:46:50.767Z</time>
      </trkpt>
      <trkpt lat="37.243394" lon="-6.020786">
        <ele>54.648895</ele>
        <time>2020-08-16T06:46:52.779Z</time>
      </trkpt>
      <trkpt lat="37.243294" lon="-6.020682">
        <ele>54.582285</ele>
        <time>2020-08-16T06:46:54.782Z</time>
      </trkpt>
      <trkpt lat="37.243189" lon="-6.020606">
        <ele>54.520110</ele>
        <time>2020-08-16T06:46:56.784Z</time>
      </trkpt>
      <trkpt lat="37.243110" lon="-6.020502">
        <ele>54.461396</ele>
        <time>2020-08-16T06:46:58.781Z</time>
      </trkpt>
      <trkpt lat="37.243003" lon="-6.020410">
        <ele>54.394869</ele>
        <time>2020-08-16T06:47:00.783Z</time>
      </trkpt>
      <trkpt lat="37.242937" lon="-6.020303">
        <ele>54.339582</ele>
        <time>2020-08-16T06:47:02.781Z</time>
      </trkpt>
      <trkpt lat="37.242864" lon="-6.020201">
        <ele>54.283560</ele>
        <time>2020-08-16T06:47:04.769Z</time>
      </trkpt>
      <trkpt lat="37.242817" lon="-6.020083">
        <ele>54.229667</ele>
        <time>2020-08-16T06:47:06.802Z</time>
      </trkpt>
      <trkpt lat="37.242759" lon="-6.019943">
        <ele>54.165205</ele>
        <time>2020-08-16T06:47:08.773Z</time>
      </trkpt>
      <trkpt lat="37.242701" lon="-6.019818">
        <ele>54.106110</ele>
        <time>2020-08-16T06:47:10.764Z</time>
      </trkpt>
      <trkpt lat="37.242671" lon="-6.019694">
        <ele>54.053176</ele>
        <time>2020-08-16T06:47:12.792Z</time>
      </trkpt>
      <trkpt lat="37.242613" lon="-6.019564">
        <ele>53.992308</ele>
        <time>2020-08-16T06:47:14.800Z</time>
      </trkpt>
      <trkpt lat="37.242546" lon="-6.019454">
        <ele>53.935736</ele>
        <time>2020-08-16T06:47:16.779Z</time>
      </trkpt>
      <trkpt lat="37.242437" lon="-6.019352">
        <ele>53.865999</ele>
        <time>2020-08-16T06:47:18.780Z</time>
      </trkpt>
      <trkpt lat="37.242359" lon="-6.019254">
        <ele>53.843929</ele>
        <time>2020-08-16T06:47:20.802Z</time>
      </trkpt>
      <trkpt lat="37.242295" lon="-6.019135">
        <ele>53.836280</ele>
        <time>2020-08-16T06:47:22.802Z</time>
      </trkpt>
      <trkpt lat="37.242258" lon="-6.018991">
        <ele>53.828221</ele>
        <time>2020-08-16T06:47:24.785Z</time>
      </trkpt>
      <trkpt lat="37.242156" lon="-6.018914">
        <ele>53.820259</ele>
        <time>2020-08-16T06:47:26.777Z</time>
      </trkpt>
      <trkpt lat="37.242115" lon="-6.018769">
        <ele>53.812063</ele>
        <time>2020-08-16T06:47:28.788Z</time>
      </trkpt>
      <trkpt lat="37.242055" lon="-6.018665">
        <ele>53.805223</ele>
        <time>2020-08-16T06:47:30.789Z</time>
      </trkpt>
      <trkpt lat="37.241981" lon="-6.018551">
        <ele>53.797388</ele>
        <time>2020-08-16T06:47:32.788Z</time>
      </trkpt>
      <trkpt lat="37.241921" lon="-6.018443">
        <ele>53.790374</ele>
        <time>2020-08-16T06:47:34.756Z</time>
      </trkpt>
      <trkpt lat="37.241867" lon="-6.018322">
        <ele>53.782986</ele>
        <time>2020-08-16T06:47:36.768Z</time>
      </trkpt>
      <trkpt lat="37.241800" lon="-6.018221">
        <ele>53.775983</ele>
        <time>2020-08-16T06:47:38.774Z</time>
      </trkpt>
      <trkpt lat="37.241743" lon="-6.018091">
        <ele>53.768079</ele>
        <time>2020-08-16T06:47:40.765Z</time>
      </trkpt>
      <trkpt lat="37.241664" lon="-6.017965">
        <ele>53.759536</ele>
        <time>2020-08-16T06:47:42.761Z</time>
      </trkpt>
      <trkpt lat="37.241595" lon="-6.017845">
        <ele>53.751652</ele>
        <time>2020-08-16T06:47:44.775Z</time>
      </trkpt>
      <trkpt lat="37.241529" lon="-6.017696">
        <ele>53.742570</ele>
        <time>2020-08-16T06:47:47.769Z</time>
      </trkpt>
      <trkpt lat="37.241454" lon="-6.017569">
        <ele>53.734148</ele>
        <time>2020-08-16T06:47:49.764Z</time>
      </trkpt>
      <trkpt lat="37.241419" lon="-6.017435">
        <ele>53.617872</ele>
        <time>2020-08-16T06:47:51.769Z</time>
      </trkpt>
      <trkpt lat="37.241364" lon="-6.017324">
        <ele>53.255950</ele>
        <time>2020-08-16T06:47:53.777Z</time>
      </trkpt>
      <trkpt lat="37.241279" lon="-6.017177">
        <ele>52.753018</ele>
        <time>2020-08-16T06:47:56.780Z</time>
      </trkpt>
      <trkpt lat="37.241216" lon="-6.017058">
        <ele>52.357416</ele>
        <time>2020-08-16T06:47:58.782Z</time>
      </trkpt>
      <trkpt lat="37.241192" lon="-6.016930">
        <ele>51.993394</ele>
        <time>2020-08-16T06:48:00.768Z</time>
      </trkpt>
      <trkpt lat="37.241157" lon="-6.016805">
        <ele>51.626594</ele>
        <time>2020-08-16T06:48:02.767Z</time>
      </trkpt>
      <trkpt lat="37.241110" lon="-6.016699">
        <ele>51.290725</ele>
        <time>2020-08-16T06:48:04.788Z</time>
      </trkpt>
      <trkpt lat="37.241069" lon="-6.016578">
        <ele>50.926698</ele>
        <time>2020-08-16T06:48:06.770Z</time>
      </trkpt>
      <trkpt lat="37.241028" lon="-6.016409">
        <ele>50.437635</ele>
        <time>2020-08-16T06:48:09.782Z</time>
      </trkpt>
      <trkpt lat="37.240974" lon="-6.016286">
        <ele>50.048806</ele>
        <time>2020-08-16T06:48:11.746Z</time>
      </trkpt>
      <trkpt lat="37.240921" lon="-6.016187">
        <ele>49.718554</ele>
        <time>2020-08-16T06:48:13.771Z</time>
      </trkpt>
      <trkpt lat="37.240871" lon="-6.016089">
        <ele>49.396341</ele>
        <time>2020-08-16T06:48:15.772Z</time>
      </trkpt>
      <trkpt lat="37.240829" lon="-6.015969">
        <ele>49.033473</ele>
        <time>2020-08-16T06:48:17.775Z</time>
      </trkpt>
      <trkpt lat="37.240806" lon="-6.015856">
        <ele>48.710606</ele>
        <time>2020-08-16T06:48:19.772Z</time>
      </trkpt>
      <trkpt lat="37.240770" lon="-6.015737">
        <ele>48.358209</ele>
        <time>2020-08-16T06:48:21.766Z</time>
      </trkpt>
      <trkpt lat="37.240742" lon="-6.015589">
        <ele>47.937107</ele>
        <time>2020-08-16T06:48:23.781Z</time>
      </trkpt>
      <trkpt lat="37.240681" lon="-6.015500">
        <ele>47.612010</ele>
        <time>2020-08-16T06:48:25.760Z</time>
      </trkpt>
      <trkpt lat="37.240650" lon="-6.015384">
        <ele>47.571825</ele>
        <time>2020-08-16T06:48:27.777Z</time>
      </trkpt>
      <trkpt lat="37.240653" lon="-6.015246">
        <ele>47.756543</ele>
        <time>2020-08-16T06:48:29.759Z</time>
      </trkpt>
      <trkpt lat="37.240598" lon="-6.015139">
        <ele>47.926962</ele>
        <time>2020-08-16T06:48:31.773Z</time>
      </trkpt>
      <trkpt lat="37.240534" lon="-6.015038">
        <ele>48.099688</ele>
        <time>2020-08-16T06:48:33.775Z</time>
      </trkpt>
      <trkpt lat="37.240456" lon="-6.014941">
        <ele>48.284165</ele>
        <time>2020-08-16T06:48:35.763Z</time>
      </trkpt>
      <trkpt lat="37.240437" lon="-6.014762">
        <ele>48.525794</ele>
        <time>2020-08-16T06:48:38.777Z</time>
      </trkpt>
      <trkpt lat="37.240386" lon="-6.014628">
        <ele>48.724527</ele>
        <time>2020-08-16T06:48:41.759Z</time>
      </trkpt>
      <trkpt lat="37.240381" lon="-6.014513">
        <ele>48.878631</ele>
        <time>2020-08-16T06:48:43.778Z</time>
      </trkpt>
      <trkpt lat="37.240397" lon="-6.014363">
        <ele>49.081131</ele>
        <time>2020-08-16T06:48:46.771Z</time>
      </trkpt>
      <trkpt lat="37.240454" lon="-6.014274">
        <ele>49.233969</ele>
        <time>2020-08-16T06:48:48.754Z</time>
      </trkpt>
      <trkpt lat="37.240475" lon="-6.014127">
        <ele>49.433802</ele>
        <time>2020-08-16T06:48:51.764Z</time>
      </trkpt>
      <trkpt lat="37.240452" lon="-6.014004">
        <ele>49.602860</ele>
        <time>2020-08-16T06:48:54.777Z</time>
      </trkpt>
      <trkpt lat="37.240429" lon="-6.013863">
        <ele>49.795443</ele>
        <time>2020-08-16T06:48:57.788Z</time>
      </trkpt>
      <trkpt lat="37.240380" lon="-6.013722">
        <ele>50.001299</ele>
        <time>2020-08-16T06:49:00.778Z</time>
      </trkpt>
      <trkpt lat="37.240321" lon="-6.013603">
        <ele>50.188880</ele>
        <time>2020-08-16T06:49:03.784Z</time>
      </trkpt>
      <trkpt lat="37.240284" lon="-6.013489">
        <ele>50.353606</ele>
        <time>2020-08-16T06:49:06.781Z</time>
      </trkpt>
      <trkpt lat="37.240254" lon="-6.013363">
        <ele>50.579668</ele>
        <time>2020-08-16T06:49:09.799Z</time>
      </trkpt>
      <trkpt lat="37.240220" lon="-6.013238">
        <ele>51.033204</ele>
        <time>2020-08-16T06:49:12.762Z</time>
      </trkpt>
      <trkpt lat="37.240188" lon="-6.013123">
        <ele>51.451471</ele>
        <time>2020-08-16T06:49:15.789Z</time>
      </trkpt>
      <trkpt lat="37.240160" lon="-6.013014">
        <ele>51.844714</ele>
        <time>2020-08-16T06:49:20.776Z</time>
      </trkpt>
      <trkpt lat="37.240116" lon="-6.012903">
        <ele>52.270454</ele>
        <time>2020-08-16T06:49:23.778Z</time>
      </trkpt>
      <trkpt lat="37.240071" lon="-6.012779">
        <ele>52.738347</ele>
        <time>2020-08-16T06:49:26.780Z</time>
      </trkpt>
      <trkpt lat="37.240041" lon="-6.012663">
        <ele>53.157113</ele>
        <time>2020-08-16T06:49:29.779Z</time>
      </trkpt>
      <trkpt lat="37.240033" lon="-6.012544">
        <ele>53.567145</ele>
        <time>2020-08-16T06:49:32.773Z</time>
      </trkpt>
      <trkpt lat="37.240009" lon="-6.012394">
        <ele>54.092458</ele>
        <time>2020-08-16T06:49:36.755Z</time>
      </trkpt>
      <trkpt lat="37.239961" lon="-6.012277">
        <ele>54.544372</ele>
        <time>2020-08-16T06:49:39.800Z</time>
      </trkpt>
      <trkpt lat="37.239892" lon="-6.012153">
        <ele>55.063808</ele>
        <time>2020-08-16T06:49:42.759Z</time>
      </trkpt>
      <trkpt lat="37.239823" lon="-6.012029">
        <ele>55.583244</ele>
        <time>2020-08-16T06:49:45.791Z</time>
      </trkpt>
      <trkpt lat="37.239762" lon="-6.011894">
        <ele>56.116214</ele>
        <time>2020-08-16T06:49:48.777Z</time>
      </trkpt>
      <trkpt lat="37.239721" lon="-6.011750">
        <ele>56.641298</ele>
        <time>2020-08-16T06:49:51.790Z</time>
      </trkpt>
      <trkpt lat="37.239682" lon="-6.011592">
        <ele>57.209258</ele>
        <time>2020-08-16T06:49:54.763Z</time>
      </trkpt>
      <trkpt lat="37.239633" lon="-6.011451">
        <ele>57.737488</ele>
        <time>2020-08-16T06:49:57.788Z</time>
      </trkpt>
      <trkpt lat="37.239600" lon="-6.011337">
        <ele>58.153973</ele>
        <time>2020-08-16T06:50:00.777Z</time>
      </trkpt>
      <trkpt lat="37.239557" lon="-6.011220">
        <ele>58.302654</ele>
        <time>2020-08-16T06:50:05.783Z</time>
      </trkpt>
      <trkpt lat="37.239510" lon="-6.011121">
        <ele>58.358164</ele>
        <time>2020-08-16T06:50:10.781Z</time>
      </trkpt>
      <trkpt lat="37.239457" lon="-6.010990">
        <ele>58.428930</ele>
        <time>2020-08-16T06:50:15.791Z</time>
      </trkpt>
      <trkpt lat="37.239435" lon="-6.010855">
        <ele>58.495291</ele>
        <time>2020-08-16T06:50:19.789Z</time>
      </trkpt>
      <trkpt lat="37.239416" lon="-6.010740">
        <ele>58.551853</ele>
        <time>2020-08-16T06:50:22.794Z</time>
      </trkpt>
      <trkpt lat="37.239401" lon="-6.010629">
        <ele>58.606073</ele>
        <time>2020-08-16T06:50:25.775Z</time>
      </trkpt>
      <trkpt lat="37.239384" lon="-6.010498">
        <ele>58.669993</ele>
        <time>2020-08-16T06:50:28.767Z</time>
      </trkpt>
      <trkpt lat="37.239349" lon="-6.010368">
        <ele>58.736081</ele>
        <time>2020-08-16T06:50:32.827Z</time>
      </trkpt>
      <trkpt lat="37.239291" lon="-6.010240">
        <ele>58.807009</ele>
        <time>2020-08-16T06:50:36.753Z</time>
      </trkpt>
      <trkpt lat="37.239265" lon="-6.010130">
        <ele>58.862268</ele>
        <time>2020-08-16T06:50:39.755Z</time>
      </trkpt>
      <trkpt lat="37.239244" lon="-6.010007">
        <ele>58.922849</ele>
        <time>2020-08-16T06:50:42.764Z</time>
      </trkpt>
      <trkpt lat="37.239208" lon="-6.009884">
        <ele>58.985960</ele>
        <time>2020-08-16T06:50:45.809Z</time>
      </trkpt>
      <trkpt lat="37.239159" lon="-6.009756">
        <ele>59.054358</ele>
        <time>2020-08-16T06:50:49.796Z</time>
      </trkpt>
      <trkpt lat="37.239093" lon="-6.009659">
        <ele>59.115808</ele>
        <time>2020-08-16T06:50:53.784Z</time>
      </trkpt>
      <trkpt lat="37.239069" lon="-6.009537">
        <ele>59.176328</ele>
        <time>2020-08-16T06:50:58.757Z</time>
      </trkpt>
      <trkpt lat="37.239033" lon="-6.009431">
        <ele>59.231827</ele>
        <time>2020-08-16T06:51:02.795Z</time>
      </trkpt>
      <trkpt lat="37.238990" lon="-6.009321">
        <ele>59.290842</ele>
        <time>2020-08-16T06:51:07.781Z</time>
      </trkpt>
      <trkpt lat="37.238935" lon="-6.009213">
        <ele>59.320701</ele>
        <time>2020-08-16T06:51:11.770Z</time>
      </trkpt>
      <trkpt lat="37.238888" lon="-6.009083">
        <ele>59.166540</ele>
        <time>2020-08-16T06:51:15.796Z</time>
      </trkpt>
      <trkpt lat="37.238864" lon="-6.008947">
        <ele>59.016132</ele>
        <time>2020-08-16T06:51:19.783Z</time>
      </trkpt>
      <trkpt lat="37.238860" lon="-6.008833">
        <ele>58.892923</ele>
        <time>2020-08-16T06:51:22.775Z</time>
      </trkpt>
      <trkpt lat="37.238855" lon="-6.008686">
        <ele>58.734058</ele>
        <time>2020-08-16T06:51:25.769Z</time>
      </trkpt>
      <trkpt lat="37.238836" lon="-6.008521">
        <ele>58.554048</ele>
        <time>2020-08-16T06:51:28.774Z</time>
      </trkpt>
      <trkpt lat="37.238812" lon="-6.008380">
        <ele>58.398365</ele>
        <time>2020-08-16T06:51:31.754Z</time>
      </trkpt>
      <trkpt lat="37.238799" lon="-6.008246">
        <ele>58.252610</ele>
        <time>2020-08-16T06:51:34.774Z</time>
      </trkpt>
      <trkpt lat="37.238789" lon="-6.008116">
        <ele>58.111591</ele>
        <time>2020-08-16T06:51:38.783Z</time>
      </trkpt>
      <trkpt lat="37.238780" lon="-6.007979">
        <ele>57.963165</ele>
        <time>2020-08-16T06:51:41.785Z</time>
      </trkpt>
      <trkpt lat="37.238728" lon="-6.007853">
        <ele>57.809925</ele>
        <time>2020-08-16T06:51:45.781Z</time>
      </trkpt>
      <trkpt lat="37.238659" lon="-6.007762">
        <ele>57.674236</ele>
        <time>2020-08-16T06:51:48.771Z</time>
      </trkpt>
      <trkpt lat="37.238722" lon="-6.007656">
        <ele>57.531408</ele>
        <time>2020-08-16T06:51:52.750Z</time>
      </trkpt>
      <trkpt lat="37.238794" lon="-6.007530">
        <ele>57.363945</ele>
        <time>2020-08-16T06:51:55.761Z</time>
      </trkpt>
      <trkpt lat="37.238851" lon="-6.007391">
        <ele>57.195122</ele>
        <time>2020-08-16T06:51:58.787Z</time>
      </trkpt>
      <trkpt lat="37.238906" lon="-6.007250">
        <ele>57.025588</ele>
        <time>2020-08-16T06:52:01.781Z</time>
      </trkpt>
      <trkpt lat="37.238956" lon="-6.007153">
        <ele>56.901072</ele>
        <time>2020-08-16T06:52:03.789Z</time>
      </trkpt>
      <trkpt lat="37.239001" lon="-6.007048">
        <ele>56.785241</ele>
        <time>2020-08-16T06:52:06.797Z</time>
      </trkpt>
      <trkpt lat="37.239063" lon="-6.006950">
        <ele>56.663651</ele>
        <time>2020-08-16T06:52:11.799Z</time>
      </trkpt>
      <trkpt lat="37.239097" lon="-6.006841">
        <ele>56.549938</ele>
        <time>2020-08-16T06:52:15.774Z</time>
      </trkpt>
      <trkpt lat="37.239160" lon="-6.006712">
        <ele>56.402936</ele>
        <time>2020-08-16T06:52:18.761Z</time>
      </trkpt>
      <trkpt lat="37.239153" lon="-6.006567">
        <ele>56.261832</ele>
        <time>2020-08-16T06:52:21.781Z</time>
      </trkpt>
      <trkpt lat="37.239173" lon="-6.006433">
        <ele>56.129404</ele>
        <time>2020-08-16T06:52:25.792Z</time>
      </trkpt>
      <trkpt lat="37.239182" lon="-6.006313">
        <ele>56.012326</ele>
        <time>2020-08-16T06:52:28.797Z</time>
      </trkpt>
      <trkpt lat="37.239153" lon="-6.006175">
        <ele>55.873689</ele>
        <time>2020-08-16T06:52:32.777Z</time>
      </trkpt>
      <trkpt lat="37.239183" lon="-6.006043">
        <ele>55.740349</ele>
        <time>2020-08-16T06:52:37.785Z</time>
      </trkpt>
      <trkpt lat="37.239249" lon="-6.005913">
        <ele>55.590583</ele>
        <time>2020-08-16T06:52:40.791Z</time>
      </trkpt>
      <trkpt lat="37.239320" lon="-6.005836">
        <ele>55.476134</ele>
        <time>2020-08-16T06:52:42.787Z</time>
      </trkpt>
      <trkpt lat="37.239502" lon="-6.005826">
        <ele>55.253863</ele>
        <time>2020-08-16T06:52:43.777Z</time>
      </trkpt>
      <trkpt lat="37.239604" lon="-6.005638">
        <ele>55.032876</ele>
        <time>2020-08-16T06:52:53.768Z</time>
      </trkpt>
      <trkpt lat="37.239638" lon="-6.005488">
        <ele>54.881384</ele>
        <time>2020-08-16T06:52:55.777Z</time>
      </trkpt>
      <trkpt lat="37.239670" lon="-6.005320">
        <ele>54.713593</ele>
        <time>2020-08-16T06:52:57.775Z</time>
      </trkpt>
      <trkpt lat="37.239677" lon="-6.005162">
        <ele>54.649685</ele>
        <time>2020-08-16T06:53:01.765Z</time>
      </trkpt>
      <trkpt lat="37.239740" lon="-6.005043">
        <ele>54.594572</ele>
        <time>2020-08-16T06:53:04.760Z</time>
      </trkpt>
      <trkpt lat="37.239795" lon="-6.004895">
        <ele>54.531583</ele>
        <time>2020-08-16T06:53:07.765Z</time>
      </trkpt>
      <trkpt lat="37.239865" lon="-6.004757">
        <ele>54.468479</ele>
        <time>2020-08-16T06:53:10.785Z</time>
      </trkpt>
      <trkpt lat="37.239916" lon="-6.004626">
        <ele>54.412241</ele>
        <time>2020-08-16T06:53:13.774Z</time>
      </trkpt>
      <trkpt lat="37.239971" lon="-6.004505">
        <ele>54.358507</ele>
        <time>2020-08-16T06:53:16.776Z</time>
      </trkpt>
      <trkpt lat="37.240011" lon="-6.004372">
        <ele>54.303677</ele>
        <time>2020-08-16T06:53:19.785Z</time>
      </trkpt>
      <trkpt lat="37.240061" lon="-6.004222">
        <ele>54.240964</ele>
        <time>2020-08-16T06:53:22.779Z</time>
      </trkpt>
      <trkpt lat="37.240101" lon="-6.004110">
        <ele>54.193624</ele>
        <time>2020-08-16T06:53:24.775Z</time>
      </trkpt>
      <trkpt lat="37.240100" lon="-6.003952">
        <ele>54.132689</ele>
        <time>2020-08-16T06:53:27.800Z</time>
      </trkpt>
      <trkpt lat="37.240136" lon="-6.003803">
        <ele>54.072639</ele>
        <time>2020-08-16T06:53:30.782Z</time>
      </trkpt>
      <trkpt lat="37.240178" lon="-6.003653">
        <ele>54.011318</ele>
        <time>2020-08-16T06:53:33.785Z</time>
      </trkpt>
      <trkpt lat="37.240203" lon="-6.003493">
        <ele>53.948437</ele>
        <time>2020-08-16T06:53:36.773Z</time>
      </trkpt>
      <trkpt lat="37.240217" lon="-6.003342">
        <ele>53.889811</ele>
        <time>2020-08-16T06:53:39.769Z</time>
      </trkpt>
      <trkpt lat="37.240236" lon="-6.003221">
        <ele>53.842248</ele>
        <time>2020-08-16T06:53:42.792Z</time>
      </trkpt>
      <trkpt lat="37.240287" lon="-6.003116">
        <ele>54.038195</ele>
        <time>2020-08-16T06:53:45.773Z</time>
      </trkpt>
      <trkpt lat="37.240329" lon="-6.003001">
        <ele>54.267488</ele>
        <time>2020-08-16T06:53:48.759Z</time>
      </trkpt>
      <trkpt lat="37.240365" lon="-6.002896">
        <ele>54.474671</ele>
        <time>2020-08-16T06:53:51.778Z</time>
      </trkpt>
      <trkpt lat="37.240399" lon="-6.002790">
        <ele>54.681775</ele>
        <time>2020-08-16T06:53:53.786Z</time>
      </trkpt>
      <trkpt lat="37.240438" lon="-6.002665">
        <ele>54.925082</ele>
        <time>2020-08-16T06:53:56.786Z</time>
      </trkpt>
      <trkpt lat="37.240451" lon="-6.002535">
        <ele>55.162526</ele>
        <time>2020-08-16T06:53:59.778Z</time>
      </trkpt>
      <trkpt lat="37.240484" lon="-6.002404">
        <ele>55.411532</ele>
        <time>2020-08-16T06:54:02.764Z</time>
      </trkpt>
      <trkpt lat="37.240524" lon="-6.002281">
        <ele>55.652320</ele>
        <time>2020-08-16T06:54:05.788Z</time>
      </trkpt>
      <trkpt lat="37.240566" lon="-6.002167">
        <ele>55.879966</ele>
        <time>2020-08-16T06:54:08.777Z</time>
      </trkpt>
      <trkpt lat="37.240614" lon="-6.002061">
        <ele>56.100966</ele>
        <time>2020-08-16T06:54:11.776Z</time>
      </trkpt>
      <trkpt lat="37.240661" lon="-6.001949">
        <ele>56.330410</ele>
        <time>2020-08-16T06:54:14.780Z</time>
      </trkpt>
      <trkpt lat="37.240694" lon="-6.001832">
        <ele>56.555357</ele>
        <time>2020-08-16T06:54:17.779Z</time>
      </trkpt>
      <trkpt lat="37.240756" lon="-6.001698">
        <ele>56.836232</ele>
        <time>2020-08-16T06:54:21.789Z</time>
      </trkpt>
      <trkpt lat="37.240751" lon="-6.001553">
        <ele>57.099254</ele>
        <time>2020-08-16T06:54:24.773Z</time>
      </trkpt>
      <trkpt lat="37.240760" lon="-6.001441">
        <ele>57.303256</ele>
        <time>2020-08-16T06:54:27.778Z</time>
      </trkpt>
      <trkpt lat="37.240785" lon="-6.001322">
        <ele>57.526295</ele>
        <time>2020-08-16T06:54:30.782Z</time>
      </trkpt>
      <trkpt lat="37.240812" lon="-6.001205">
        <ele>57.747056</ele>
        <time>2020-08-16T06:54:34.789Z</time>
      </trkpt>
      <trkpt lat="37.240849" lon="-6.001078">
        <ele>58.042783</ele>
        <time>2020-08-16T06:54:38.765Z</time>
      </trkpt>
      <trkpt lat="37.240877" lon="-6.000939">
        <ele>58.521261</ele>
        <time>2020-08-16T06:54:41.784Z</time>
      </trkpt>
      <trkpt lat="37.240904" lon="-6.000795">
        <ele>59.014955</ele>
        <time>2020-08-16T06:54:44.785Z</time>
      </trkpt>
      <trkpt lat="37.240932" lon="-6.000682">
        <ele>59.409893</ele>
        <time>2020-08-16T06:54:47.798Z</time>
      </trkpt>
      <trkpt lat="37.240988" lon="-6.000565">
        <ele>59.865469</ele>
        <time>2020-08-16T06:54:51.798Z</time>
      </trkpt>
      <trkpt lat="37.241076" lon="-6.000471">
        <ele>60.349694</ele>
        <time>2020-08-16T06:54:54.783Z</time>
      </trkpt>
      <trkpt lat="37.241109" lon="-6.000352">
        <ele>60.770213</ele>
        <time>2020-08-16T06:54:57.752Z</time>
      </trkpt>
      <trkpt lat="37.241153" lon="-6.000211">
        <ele>61.275603</ele>
        <time>2020-08-16T06:55:01.793Z</time>
      </trkpt>
      <trkpt lat="37.241198" lon="-6.000081">
        <ele>61.748663</ele>
        <time>2020-08-16T06:55:05.777Z</time>
      </trkpt>
      <trkpt lat="37.241247" lon="-5.999983">
        <ele>62.134852</ele>
        <time>2020-08-16T06:55:08.779Z</time>
      </trkpt>
      <trkpt lat="37.241297" lon="-5.999872">
        <ele>62.560455</ele>
        <time>2020-08-16T06:55:11.785Z</time>
      </trkpt>
      <trkpt lat="37.241337" lon="-5.999746">
        <ele>63.013128</ele>
        <time>2020-08-16T06:55:14.795Z</time>
      </trkpt>
      <trkpt lat="37.241376" lon="-5.999609">
        <ele>63.498661</ele>
        <time>2020-08-16T06:55:17.764Z</time>
      </trkpt>
      <trkpt lat="37.241421" lon="-5.999477">
        <ele>63.977847</ele>
        <time>2020-08-16T06:55:20.780Z</time>
      </trkpt>
      <trkpt lat="37.241464" lon="-5.999361">
        <ele>64.404858</ele>
        <time>2020-08-16T06:55:23.782Z</time>
      </trkpt>
      <trkpt lat="37.241502" lon="-5.999244">
        <ele>64.826541</ele>
        <time>2020-08-16T06:55:26.797Z</time>
      </trkpt>
      <trkpt lat="37.241527" lon="-5.999110">
        <ele>65.285827</ele>
        <time>2020-08-16T06:55:29.776Z</time>
      </trkpt>
      <trkpt lat="37.241547" lon="-5.998978">
        <ele>65.424776</ele>
        <time>2020-08-16T06:55:32.760Z</time>
      </trkpt>
      <trkpt lat="37.241531" lon="-5.998822">
        <ele>65.331251</ele>
        <time>2020-08-16T06:55:35.771Z</time>
      </trkpt>
      <trkpt lat="37.241508" lon="-5.998689">
        <ele>65.250324</ele>
        <time>2020-08-16T06:55:38.776Z</time>
      </trkpt>
      <trkpt lat="37.241531" lon="-5.998576">
        <ele>65.180972</ele>
        <time>2020-08-16T06:55:41.787Z</time>
      </trkpt>
      <trkpt lat="37.241583" lon="-5.998445">
        <ele>65.093933</ele>
        <time>2020-08-16T06:55:44.775Z</time>
      </trkpt>
      <trkpt lat="37.241630" lon="-5.998322">
        <ele>65.012808</ele>
        <time>2020-08-16T06:55:48.778Z</time>
      </trkpt>
      <trkpt lat="37.241665" lon="-5.998215">
        <ele>64.944024</ele>
        <time>2020-08-16T06:55:52.796Z</time>
      </trkpt>
      <trkpt lat="37.241693" lon="-5.998081">
        <ele>64.861647</ele>
        <time>2020-08-16T06:55:55.764Z</time>
      </trkpt>
      <trkpt lat="37.241739" lon="-5.997953">
        <ele>64.778142</ele>
        <time>2020-08-16T06:55:58.771Z</time>
      </trkpt>
      <trkpt lat="37.241754" lon="-5.997825">
        <ele>64.701213</ele>
        <time>2020-08-16T06:56:01.789Z</time>
      </trkpt>
      <trkpt lat="37.241757" lon="-5.997705">
        <ele>64.629825</ele>
        <time>2020-08-16T06:56:04.777Z</time>
      </trkpt>
      <trkpt lat="37.241782" lon="-5.997597">
        <ele>64.562948</ele>
        <time>2020-08-16T06:56:07.780Z</time>
      </trkpt>
      <trkpt lat="37.241847" lon="-5.997481">
        <ele>64.478601</ele>
        <time>2020-08-16T06:56:11.771Z</time>
      </trkpt>
      <trkpt lat="37.241845" lon="-5.997356">
        <ele>64.404260</ele>
        <time>2020-08-16T06:56:15.751Z</time>
      </trkpt>
      <trkpt lat="37.241862" lon="-5.997229">
        <ele>64.327686</ele>
        <time>2020-08-16T06:56:19.773Z</time>
      </trkpt>
      <trkpt lat="37.241886" lon="-5.997097">
        <ele>64.247177</ele>
        <time>2020-08-16T06:56:22.789Z</time>
      </trkpt>
      <trkpt lat="37.241906" lon="-5.996967">
        <ele>64.168448</ele>
        <time>2020-08-16T06:56:25.776Z</time>
      </trkpt>
      <trkpt lat="37.241921" lon="-5.996855">
        <ele>64.141247</ele>
        <time>2020-08-16T06:56:28.782Z</time>
      </trkpt>
      <trkpt lat="37.241955" lon="-5.996736">
        <ele>64.177374</ele>
        <time>2020-08-16T06:56:33.792Z</time>
      </trkpt>
      <trkpt lat="37.241970" lon="-5.996606">
        <ele>64.214908</ele>
        <time>2020-08-16T06:56:39.787Z</time>
      </trkpt>
      <trkpt lat="37.242140" lon="-5.996079">
        <ele>64.377387</ele>
        <time>2020-08-16T06:56:51.849Z</time>
      </trkpt>
      <trkpt lat="37.242168" lon="-5.995956">
        <ele>64.413942</ele>
        <time>2020-08-16T06:56:54.761Z</time>
      </trkpt>
      <trkpt lat="37.242172" lon="-5.995841">
        <ele>64.446834</ele>
        <time>2020-08-16T06:56:59.820Z</time>
      </trkpt>
      <trkpt lat="37.242209" lon="-5.995723">
        <ele>64.483073</ele>
        <time>2020-08-16T06:57:03.808Z</time>
      </trkpt>
      <trkpt lat="37.242250" lon="-5.995618">
        <ele>64.516490</ele>
        <time>2020-08-16T06:57:06.786Z</time>
      </trkpt>
      <trkpt lat="37.242304" lon="-5.995510">
        <ele>64.552932</ele>
        <time>2020-08-16T06:57:09.801Z</time>
      </trkpt>
      <trkpt lat="37.242319" lon="-5.995383">
        <ele>64.589619</ele>
        <time>2020-08-16T06:57:12.805Z</time>
      </trkpt>
      <trkpt lat="37.242328" lon="-5.995249">
        <ele>64.628044</ele>
        <time>2020-08-16T06:57:15.784Z</time>
      </trkpt>
      <trkpt lat="37.242345" lon="-5.995123">
        <ele>64.664561</ele>
        <time>2020-08-16T06:57:18.797Z</time>
      </trkpt>
      <trkpt lat="37.242368" lon="-5.995007">
        <ele>64.698719</ele>
        <time>2020-08-16T06:57:22.787Z</time>
      </trkpt>
      <trkpt lat="37.242430" lon="-5.994883">
        <ele>64.740560</ele>
        <time>2020-08-16T06:57:26.783Z</time>
      </trkpt>
      <trkpt lat="37.242514" lon="-5.994774">
        <ele>64.802582</ele>
        <time>2020-08-16T06:57:29.778Z</time>
      </trkpt>
      <trkpt lat="37.242582" lon="-5.994651">
        <ele>64.924026</ele>
        <time>2020-08-16T06:57:32.786Z</time>
      </trkpt>
      <trkpt lat="37.242731" lon="-5.993857">
        <ele>65.585586</ele>
        <time>2020-08-16T06:57:51.779Z</time>
      </trkpt>
      <trkpt lat="37.242662" lon="-5.993697">
        <ele>65.733157</ele>
        <time>2020-08-16T06:57:54.776Z</time>
      </trkpt>
      <trkpt lat="37.242691" lon="-5.993569">
        <ele>65.841084</ele>
        <time>2020-08-16T06:57:56.772Z</time>
      </trkpt>
      <trkpt lat="37.242727" lon="-5.993440">
        <ele>65.951941</ele>
        <time>2020-08-16T06:57:58.799Z</time>
      </trkpt>
      <trkpt lat="37.242734" lon="-5.993323">
        <ele>66.047092</ele>
        <time>2020-08-16T06:58:00.788Z</time>
      </trkpt>
      <trkpt lat="37.242757" lon="-5.993194">
        <ele>66.154299</ele>
        <time>2020-08-16T06:58:02.772Z</time>
      </trkpt>
      <trkpt lat="37.242777" lon="-5.993061">
        <ele>66.264066</ele>
        <time>2020-08-16T06:58:04.785Z</time>
      </trkpt>
      <trkpt lat="37.242793" lon="-5.992942">
        <ele>66.361938</ele>
        <time>2020-08-16T06:58:06.795Z</time>
      </trkpt>
      <trkpt lat="37.242817" lon="-5.992787">
        <ele>66.489994</ele>
        <time>2020-08-16T06:58:08.777Z</time>
      </trkpt>
      <trkpt lat="37.242756" lon="-5.992669">
        <ele>66.604095</ele>
        <time>2020-08-16T06:58:11.763Z</time>
      </trkpt>
      <trkpt lat="37.242780" lon="-5.992518">
        <ele>67.123501</ele>
        <time>2020-08-16T06:58:14.798Z</time>
      </trkpt>
      <trkpt lat="37.242793" lon="-5.992388">
        <ele>67.570779</ele>
        <time>2020-08-16T06:58:16.762Z</time>
      </trkpt>
      <trkpt lat="37.242820" lon="-5.992221">
        <ele>68.152517</ele>
        <time>2020-08-16T06:58:19.781Z</time>
      </trkpt>
      <trkpt lat="37.242810" lon="-5.992104">
        <ele>68.554224</ele>
        <time>2020-08-16T06:58:25.790Z</time>
      </trkpt>
      <trkpt lat="37.242784" lon="-5.991994">
        <ele>68.945941</ele>
        <time>2020-08-16T06:58:35.768Z</time>
      </trkpt>
      <trkpt lat="37.242618" lon="-5.991241">
        <ele>71.613257</ele>
        <time>2020-08-16T06:58:43.771Z</time>
      </trkpt>
      <trkpt lat="37.242609" lon="-5.991009">
        <ele>72.406194</ele>
        <time>2020-08-16T06:58:57.758Z</time>
      </trkpt>
      <trkpt lat="37.242758" lon="-5.990808">
        <ele>73.343787</ele>
        <time>2020-08-16T06:58:58.786Z</time>
      </trkpt>
      <trkpt lat="37.242757" lon="-5.990686">
        <ele>73.760290</ele>
        <time>2020-08-16T06:58:59.771Z</time>
      </trkpt>
      <trkpt lat="37.242560" lon="-5.990613">
        <ele>74.354112</ele>
        <time>2020-08-16T06:59:00.769Z</time>
      </trkpt>
      <trkpt lat="37.242487" lon="-5.990493">
        <ele>74.410250</ele>
        <time>2020-08-16T06:59:03.787Z</time>
      </trkpt>
      <trkpt lat="37.242246" lon="-5.990200">
        <ele>74.566854</ele>
        <time>2020-08-16T06:59:05.777Z</time>
      </trkpt>
      <trkpt lat="37.242229" lon="-5.990044">
        <ele>74.625383</ele>
        <time>2020-08-16T06:59:08.795Z</time>
      </trkpt>
      <trkpt lat="37.242176" lon="-5.989904">
        <ele>74.683007</ele>
        <time>2020-08-16T06:59:10.756Z</time>
      </trkpt>
      <trkpt lat="37.242158" lon="-5.989522">
        <ele>74.825251</ele>
        <time>2020-08-16T06:59:15.796Z</time>
      </trkpt>
      <trkpt lat="37.242179" lon="-5.989289">
        <ele>74.912414</ele>
        <time>2020-08-16T06:59:16.773Z</time>
      </trkpt>
      <trkpt lat="37.242183" lon="-5.989100">
        <ele>74.982693</ele>
        <time>2020-08-16T06:59:20.791Z</time>
      </trkpt>
      <trkpt lat="37.242186" lon="-5.988941">
        <ele>75.041812</ele>
        <time>2020-08-16T06:59:22.765Z</time>
      </trkpt>
      <trkpt lat="37.242230" lon="-5.988758">
        <ele>75.112871</ele>
        <time>2020-08-16T06:59:24.787Z</time>
      </trkpt>
      <trkpt lat="37.242333" lon="-5.988576">
        <ele>75.092982</ele>
        <time>2020-08-16T06:59:26.783Z</time>
      </trkpt>
      <trkpt lat="37.242322" lon="-5.988424">
        <ele>74.991892</ele>
        <time>2020-08-16T06:59:28.758Z</time>
      </trkpt>
      <trkpt lat="37.242418" lon="-5.988285">
        <ele>74.870010</ele>
        <time>2020-08-16T06:59:30.775Z</time>
      </trkpt>
      <trkpt lat="37.242449" lon="-5.988155">
        <ele>74.780127</ele>
        <time>2020-08-16T06:59:32.783Z</time>
      </trkpt>
      <trkpt lat="37.242492" lon="-5.988041">
        <ele>74.696574</ele>
        <time>2020-08-16T06:59:34.778Z</time>
      </trkpt>
      <trkpt lat="37.242532" lon="-5.987880">
        <ele>74.584866</ele>
        <time>2020-08-16T06:59:37.752Z</time>
      </trkpt>
      <trkpt lat="37.242560" lon="-5.987757">
        <ele>74.500134</ele>
        <time>2020-08-16T06:59:39.779Z</time>
      </trkpt>
      <trkpt lat="37.242552" lon="-5.987624">
        <ele>74.411793</ele>
        <time>2020-08-16T06:59:42.767Z</time>
      </trkpt>
      <trkpt lat="37.242502" lon="-5.987521">
        <ele>74.331890</ele>
        <time>2020-08-16T06:59:45.785Z</time>
      </trkpt>
      <trkpt lat="37.242445" lon="-5.987418">
        <ele>74.248806</ele>
        <time>2020-08-16T06:59:48.784Z</time>
      </trkpt>
      <trkpt lat="37.242361" lon="-5.987311">
        <ele>74.149273</ele>
        <time>2020-08-16T06:59:51.789Z</time>
      </trkpt>
      <trkpt lat="37.242274" lon="-5.987220">
        <ele>74.055081</ele>
        <time>2020-08-16T06:59:53.798Z</time>
      </trkpt>
      <trkpt lat="37.242177" lon="-5.987170">
        <ele>73.967848</ele>
        <time>2020-08-16T06:59:55.762Z</time>
      </trkpt>
      <trkpt lat="37.242050" lon="-5.987078">
        <ele>73.845874</ele>
        <time>2020-08-16T06:59:58.783Z</time>
      </trkpt>
      <trkpt lat="37.241945" lon="-5.987016">
        <ele>73.749344</ele>
        <time>2020-08-16T07:00:00.783Z</time>
      </trkpt>
      <trkpt lat="37.241859" lon="-5.986982">
        <ele>73.674333</ele>
        <time>2020-08-16T07:00:02.775Z</time>
      </trkpt>
      <trkpt lat="37.241742" lon="-5.986931">
        <ele>73.798589</ele>
        <time>2020-08-16T07:00:05.762Z</time>
      </trkpt>
      <trkpt lat="37.241633" lon="-5.986828">
        <ele>73.968126</ele>
        <time>2020-08-16T07:00:08.753Z</time>
      </trkpt>
      <trkpt lat="37.241538" lon="-5.986764">
        <ele>74.102117</ele>
        <time>2020-08-16T07:00:10.777Z</time>
      </trkpt>
      <trkpt lat="37.241448" lon="-5.986713">
        <ele>74.224839</ele>
        <time>2020-08-16T07:00:13.763Z</time>
      </trkpt>
      <trkpt lat="37.241362" lon="-5.986638">
        <ele>74.354970</ele>
        <time>2020-08-16T07:00:16.771Z</time>
      </trkpt>
      <trkpt lat="37.241255" lon="-5.986566">
        <ele>74.505847</ele>
        <time>2020-08-16T07:00:19.781Z</time>
      </trkpt>
      <trkpt lat="37.241131" lon="-5.986485">
        <ele>74.679568</ele>
        <time>2020-08-16T07:00:22.759Z</time>
      </trkpt>
      <trkpt lat="37.241028" lon="-5.986437">
        <ele>74.816119</ele>
        <time>2020-08-16T07:00:24.782Z</time>
      </trkpt>
      <trkpt lat="37.240922" lon="-5.986364">
        <ele>74.966375</ele>
        <time>2020-08-16T07:00:26.758Z</time>
      </trkpt>
      <trkpt lat="37.240837" lon="-5.986299">
        <ele>75.090065</ele>
        <time>2020-08-16T07:00:28.787Z</time>
      </trkpt>
      <trkpt lat="37.240716" lon="-5.986268">
        <ele>75.243559</ele>
        <time>2020-08-16T07:00:30.784Z</time>
      </trkpt>
      <trkpt lat="37.240607" lon="-5.986225">
        <ele>75.385565</ele>
        <time>2020-08-16T07:00:32.773Z</time>
      </trkpt>
      <trkpt lat="37.240509" lon="-5.986169">
        <ele>75.519387</ele>
        <time>2020-08-16T07:00:34.780Z</time>
      </trkpt>
      <trkpt lat="37.240404" lon="-5.986111">
        <ele>75.661959</ele>
        <time>2020-08-16T07:00:36.786Z</time>
      </trkpt>
      <trkpt lat="37.240307" lon="-5.986013">
        <ele>75.816685</ele>
        <time>2020-08-16T07:00:38.791Z</time>
      </trkpt>
      <trkpt lat="37.240200" lon="-5.985947">
        <ele>75.811881</ele>
        <time>2020-08-16T07:00:40.762Z</time>
      </trkpt>
      <trkpt lat="37.240115" lon="-5.985874">
        <ele>75.646707</ele>
        <time>2020-08-16T07:00:42.799Z</time>
      </trkpt>
      <trkpt lat="37.240017" lon="-5.985823">
        <ele>75.476544</ele>
        <time>2020-08-16T07:00:44.765Z</time>
      </trkpt>
      <trkpt lat="37.239922" lon="-5.985785">
        <ele>75.316612</ele>
        <time>2020-08-16T07:00:46.772Z</time>
      </trkpt>
      <trkpt lat="37.239845" lon="-5.985700">
        <ele>75.152174</ele>
        <time>2020-08-16T07:00:48.782Z</time>
      </trkpt>
      <trkpt lat="37.239708" lon="-5.985602">
        <ele>74.899271</ele>
        <time>2020-08-16T07:00:51.776Z</time>
      </trkpt>
      <trkpt lat="37.239633" lon="-5.985494">
        <ele>74.716249</ele>
        <time>2020-08-16T07:00:55.759Z</time>
      </trkpt>
      <trkpt lat="37.239513" lon="-5.985436">
        <ele>74.509995</ele>
        <time>2020-08-16T07:00:58.777Z</time>
      </trkpt>
      <trkpt lat="37.239385" lon="-5.985361">
        <ele>74.283426</ele>
        <time>2020-08-16T07:01:00.773Z</time>
      </trkpt>
      <trkpt lat="37.239256" lon="-5.985285">
        <ele>74.054863</ele>
        <time>2020-08-16T07:01:02.776Z</time>
      </trkpt>
      <trkpt lat="37.239134" lon="-5.985193">
        <ele>73.826600</ele>
        <time>2020-08-16T07:01:04.780Z</time>
      </trkpt>
      <trkpt lat="37.239012" lon="-5.985085">
        <ele>73.587178</ele>
        <time>2020-08-16T07:01:06.791Z</time>
      </trkpt>
      <trkpt lat="37.238917" lon="-5.985021">
        <ele>73.414251</ele>
        <time>2020-08-16T07:01:08.774Z</time>
      </trkpt>
      <trkpt lat="37.238786" lon="-5.984936">
        <ele>73.177729</ele>
        <time>2020-08-16T07:01:10.786Z</time>
      </trkpt>
      <trkpt lat="37.238668" lon="-5.984851">
        <ele>72.959300</ele>
        <time>2020-08-16T07:01:12.786Z</time>
      </trkpt>
      <trkpt lat="37.238551" lon="-5.984761">
        <ele>72.738288</ele>
        <time>2020-08-16T07:01:14.755Z</time>
      </trkpt>
      <trkpt lat="37.238410" lon="-5.984703">
        <ele>72.499280</ele>
        <time>2020-08-16T07:01:16.788Z</time>
      </trkpt>
      <trkpt lat="37.238283" lon="-5.984623">
        <ele>72.270409</ele>
        <time>2020-08-16T07:01:18.770Z</time>
      </trkpt>
      <trkpt lat="37.238177" lon="-5.984573">
        <ele>72.088009</ele>
        <time>2020-08-16T07:01:20.785Z</time>
      </trkpt>
      <trkpt lat="37.238072" lon="-5.984481">
        <ele>71.881777</ele>
        <time>2020-08-16T07:01:22.791Z</time>
      </trkpt>
      <trkpt lat="37.237958" lon="-5.984401">
        <ele>71.671416</ele>
        <time>2020-08-16T07:01:24.783Z</time>
      </trkpt>
      <trkpt lat="37.237866" lon="-5.984314">
        <ele>71.485907</ele>
        <time>2020-08-16T07:01:26.774Z</time>
      </trkpt>
      <trkpt lat="37.237731" lon="-5.984254">
        <ele>71.255221</ele>
        <time>2020-08-16T07:01:28.792Z</time>
      </trkpt>
      <trkpt lat="37.237609" lon="-5.984176">
        <ele>71.034696</ele>
        <time>2020-08-16T07:01:30.760Z</time>
      </trkpt>
      <trkpt lat="37.237507" lon="-5.984122">
        <ele>70.856384</ele>
        <time>2020-08-16T07:01:32.765Z</time>
      </trkpt>
      <trkpt lat="37.237380" lon="-5.984064">
        <ele>70.638695</ele>
        <time>2020-08-16T07:01:34.788Z</time>
      </trkpt>
      <trkpt lat="37.237283" lon="-5.983981">
        <ele>70.449624</ele>
        <time>2020-08-16T07:01:36.751Z</time>
      </trkpt>
      <trkpt lat="37.237171" lon="-5.983937">
        <ele>70.260583</ele>
        <time>2020-08-16T07:01:38.770Z</time>
      </trkpt>
      <trkpt lat="37.237070" lon="-5.983869">
        <ele>70.066073</ele>
        <time>2020-08-16T07:01:40.790Z</time>
      </trkpt>
      <trkpt lat="37.236955" lon="-5.983794">
        <ele>69.804808</ele>
        <time>2020-08-16T07:01:42.785Z</time>
      </trkpt>
      <trkpt lat="37.236833" lon="-5.983703">
        <ele>69.518718</ele>
        <time>2020-08-16T07:01:44.787Z</time>
      </trkpt>
      <trkpt lat="37.236706" lon="-5.983642">
        <ele>69.244567</ele>
        <time>2020-08-16T07:01:46.784Z</time>
      </trkpt>
      <trkpt lat="37.236583" lon="-5.983504">
        <ele>68.912035</ele>
        <time>2020-08-16T07:01:48.778Z</time>
      </trkpt>
      <trkpt lat="37.236455" lon="-5.983439">
        <ele>68.633657</ele>
        <time>2020-08-16T07:01:50.779Z</time>
      </trkpt>
      <trkpt lat="37.236313" lon="-5.983364">
        <ele>68.323063</ele>
        <time>2020-08-16T07:01:52.756Z</time>
      </trkpt>
      <trkpt lat="37.236193" lon="-5.983294">
        <ele>68.056289</ele>
        <time>2020-08-16T07:01:54.786Z</time>
      </trkpt>
      <trkpt lat="37.236061" lon="-5.983212">
        <ele>67.759369</ele>
        <time>2020-08-16T07:01:56.775Z</time>
      </trkpt>
      <trkpt lat="37.235945" lon="-5.983129">
        <ele>67.490193</ele>
        <time>2020-08-16T07:01:58.781Z</time>
      </trkpt>
      <trkpt lat="37.235809" lon="-5.983067">
        <ele>67.198476</ele>
        <time>2020-08-16T07:02:00.785Z</time>
      </trkpt>
      <trkpt lat="37.235673" lon="-5.982997">
        <ele>66.902132</ele>
        <time>2020-08-16T07:02:02.778Z</time>
      </trkpt>
      <trkpt lat="37.235547" lon="-5.982924">
        <ele>66.622357</ele>
        <time>2020-08-16T07:02:04.786Z</time>
      </trkpt>
      <trkpt lat="37.235421" lon="-5.982828">
        <ele>66.340640</ele>
        <time>2020-08-16T07:02:06.783Z</time>
      </trkpt>
      <trkpt lat="37.235290" lon="-5.982770">
        <ele>66.086981</ele>
        <time>2020-08-16T07:02:08.760Z</time>
      </trkpt>
      <trkpt lat="37.235189" lon="-5.982681">
        <ele>65.861670</ele>
        <time>2020-08-16T07:02:10.780Z</time>
      </trkpt>
      <trkpt lat="37.235075" lon="-5.982647">
        <ele>65.647695</ele>
        <time>2020-08-16T07:02:12.795Z</time>
      </trkpt>
      <trkpt lat="37.234951" lon="-5.982540">
        <ele>65.372956</ele>
        <time>2020-08-16T07:02:14.779Z</time>
      </trkpt>
      <trkpt lat="37.234818" lon="-5.982435">
        <ele>65.086077</ele>
        <time>2020-08-16T07:02:16.784Z</time>
      </trkpt>
      <trkpt lat="37.234670" lon="-5.982363">
        <ele>64.796235</ele>
        <time>2020-08-16T07:02:18.783Z</time>
      </trkpt>
      <trkpt lat="37.234522" lon="-5.982278">
        <ele>64.499042</ele>
        <time>2020-08-16T07:02:20.783Z</time>
      </trkpt>
      <trkpt lat="37.234377" lon="-5.982165">
        <ele>64.187414</ele>
        <time>2020-08-16T07:02:22.753Z</time>
      </trkpt>
      <trkpt lat="37.234221" lon="-5.982073">
        <ele>63.872687</ele>
        <time>2020-08-16T07:02:24.783Z</time>
      </trkpt>
      <trkpt lat="37.234110" lon="-5.982007">
        <ele>63.648412</ele>
        <time>2020-08-16T07:02:26.783Z</time>
      </trkpt>
      <trkpt lat="37.233967" lon="-5.981933">
        <ele>63.365969</ele>
        <time>2020-08-16T07:02:28.778Z</time>
      </trkpt>
      <trkpt lat="37.233837" lon="-5.981847">
        <ele>63.227321</ele>
        <time>2020-08-16T07:02:30.765Z</time>
      </trkpt>
      <trkpt lat="37.233731" lon="-5.981732">
        <ele>63.283066</ele>
        <time>2020-08-16T07:02:32.775Z</time>
      </trkpt>
      <trkpt lat="37.233598" lon="-5.981642">
        <ele>63.343192</ele>
        <time>2020-08-16T07:02:34.780Z</time>
      </trkpt>
      <trkpt lat="37.233481" lon="-5.981562">
        <ele>63.396210</ele>
        <time>2020-08-16T07:02:36.783Z</time>
      </trkpt>
      <trkpt lat="37.233359" lon="-5.981476">
        <ele>63.451889</ele>
        <time>2020-08-16T07:02:38.771Z</time>
      </trkpt>
      <trkpt lat="37.233225" lon="-5.981421">
        <ele>63.507994</ele>
        <time>2020-08-16T07:02:40.774Z</time>
      </trkpt>
      <trkpt lat="37.233095" lon="-5.981316">
        <ele>63.569507</ele>
        <time>2020-08-16T07:02:42.751Z</time>
      </trkpt>
      <trkpt lat="37.232975" lon="-5.981236">
        <ele>63.623576</ele>
        <time>2020-08-16T07:02:44.761Z</time>
      </trkpt>
      <trkpt lat="37.232840" lon="-5.981166">
        <ele>63.681703</ele>
        <time>2020-08-16T07:02:46.779Z</time>
      </trkpt>
      <trkpt lat="37.232720" lon="-5.981082">
        <ele>63.736378</ele>
        <time>2020-08-16T07:02:48.789Z</time>
      </trkpt>
      <trkpt lat="37.232576" lon="-5.980999">
        <ele>63.799435</ele>
        <time>2020-08-16T07:02:50.794Z</time>
      </trkpt>
      <trkpt lat="37.232447" lon="-5.980934">
        <ele>63.854753</ele>
        <time>2020-08-16T07:02:52.773Z</time>
      </trkpt>
      <trkpt lat="37.232351" lon="-5.980841">
        <ele>63.903004</ele>
        <time>2020-08-16T07:02:54.762Z</time>
      </trkpt>
      <trkpt lat="37.232231" lon="-5.980819">
        <ele>63.965366</ele>
        <time>2020-08-16T07:02:56.795Z</time>
      </trkpt>
      <trkpt lat="37.232126" lon="-5.980728">
        <ele>64.038996</ele>
        <time>2020-08-16T07:02:58.777Z</time>
      </trkpt>
      <trkpt lat="37.232005" lon="-5.980664">
        <ele>64.114773</ele>
        <time>2020-08-16T07:03:00.777Z</time>
      </trkpt>
      <trkpt lat="37.231901" lon="-5.980585">
        <ele>64.184922</ele>
        <time>2020-08-16T07:03:02.772Z</time>
      </trkpt>
      <trkpt lat="37.231809" lon="-5.980504">
        <ele>64.249768</ele>
        <time>2020-08-16T07:03:04.781Z</time>
      </trkpt>
      <trkpt lat="37.231725" lon="-5.980444">
        <ele>64.305541</ele>
        <time>2020-08-16T07:03:06.794Z</time>
      </trkpt>
      <trkpt lat="37.231628" lon="-5.980362">
        <ele>64.373026</ele>
        <time>2020-08-16T07:03:08.780Z</time>
      </trkpt>
      <trkpt lat="37.231518" lon="-5.980319">
        <ele>64.439518</ele>
        <time>2020-08-16T07:03:10.790Z</time>
      </trkpt>
      <trkpt lat="37.231416" lon="-5.980288">
        <ele>64.500087</ele>
        <time>2020-08-16T07:03:12.783Z</time>
      </trkpt>
      <trkpt lat="37.231298" lon="-5.980203">
        <ele>64.578599</ele>
        <time>2020-08-16T07:03:15.772Z</time>
      </trkpt>
      <trkpt lat="37.231191" lon="-5.980133">
        <ele>64.648231</ele>
        <time>2020-08-16T07:03:17.788Z</time>
      </trkpt>
      <trkpt lat="37.231136" lon="-5.980033">
        <ele>64.704083</ele>
        <time>2020-08-16T07:03:19.781Z</time>
      </trkpt>
      <trkpt lat="37.231024" lon="-5.979947">
        <ele>64.779848</ele>
        <time>2020-08-16T07:03:22.799Z</time>
      </trkpt>
      <trkpt lat="37.230947" lon="-5.979837">
        <ele>64.847156</ele>
        <time>2020-08-16T07:03:24.783Z</time>
      </trkpt>
      <trkpt lat="37.230836" lon="-5.979840">
        <ele>64.911236</ele>
        <time>2020-08-16T07:03:26.768Z</time>
      </trkpt>
      <trkpt lat="37.230737" lon="-5.979831">
        <ele>64.961691</ele>
        <time>2020-08-16T07:03:28.775Z</time>
      </trkpt>
      <trkpt lat="37.230667" lon="-5.979757">
        <ele>64.979999</ele>
        <time>2020-08-16T07:03:30.785Z</time>
      </trkpt>
      <trkpt lat="37.230555" lon="-5.979675">
        <ele>65.005939</ele>
        <time>2020-08-16T07:03:33.763Z</time>
      </trkpt>
      <trkpt lat="37.230452" lon="-5.979677">
        <ele>65.026551</ele>
        <time>2020-08-16T07:03:35.766Z</time>
      </trkpt>
      <trkpt lat="37.230357" lon="-5.979573">
        <ele>65.051768</ele>
        <time>2020-08-16T07:03:38.765Z</time>
      </trkpt>
      <trkpt lat="37.230268" lon="-5.979529">
        <ele>65.070906</ele>
        <time>2020-08-16T07:03:40.784Z</time>
      </trkpt>
      <trkpt lat="37.230145" lon="-5.979471">
        <ele>65.097195</ele>
        <time>2020-08-16T07:03:43.799Z</time>
      </trkpt>
      <trkpt lat="37.230049" lon="-5.979449">
        <ele>65.116722</ele>
        <time>2020-08-16T07:03:45.790Z</time>
      </trkpt>
      <trkpt lat="37.229976" lon="-5.979372">
        <ele>65.135797</ele>
        <time>2020-08-16T07:03:47.783Z</time>
      </trkpt>
      <trkpt lat="37.229879" lon="-5.979295">
        <ele>65.158758</ele>
        <time>2020-08-16T07:03:50.786Z</time>
      </trkpt>
      <trkpt lat="37.229738" lon="-5.979232">
        <ele>65.188703</ele>
        <time>2020-08-16T07:03:53.787Z</time>
      </trkpt>
      <trkpt lat="37.229673" lon="-5.979104">
        <ele>65.212891</ele>
        <time>2020-08-16T07:03:55.774Z</time>
      </trkpt>
      <trkpt lat="37.229546" lon="-5.979126">
        <ele>65.238543</ele>
        <time>2020-08-16T07:03:58.797Z</time>
      </trkpt>
      <trkpt lat="37.229457" lon="-5.979066">
        <ele>65.258755</ele>
        <time>2020-08-16T07:04:00.784Z</time>
      </trkpt>
      <trkpt lat="37.229346" lon="-5.979019">
        <ele>65.282194</ele>
        <time>2020-08-16T07:04:03.792Z</time>
      </trkpt>
      <trkpt lat="37.229249" lon="-5.978935">
        <ele>65.305770</ele>
        <time>2020-08-16T07:04:05.775Z</time>
      </trkpt>
      <trkpt lat="37.229167" lon="-5.978874">
        <ele>65.282493</ele>
        <time>2020-08-16T07:04:07.774Z</time>
      </trkpt>
      <trkpt lat="37.229053" lon="-5.978825">
        <ele>65.158114</ele>
        <time>2020-08-16T07:04:10.772Z</time>
      </trkpt>
      <trkpt lat="37.228960" lon="-5.978725">
        <ele>65.031736</ele>
        <time>2020-08-16T07:04:12.781Z</time>
      </trkpt>
      <trkpt lat="37.228870" lon="-5.978647">
        <ele>64.918859</ele>
        <time>2020-08-16T07:04:14.780Z</time>
      </trkpt>
      <trkpt lat="37.228785" lon="-5.978591">
        <ele>64.819777</ele>
        <time>2020-08-16T07:04:16.785Z</time>
      </trkpt>
      <trkpt lat="37.228702" lon="-5.978530">
        <ele>64.720508</ele>
        <time>2020-08-16T07:04:18.787Z</time>
      </trkpt>
      <trkpt lat="37.228612" lon="-5.978506">
        <ele>64.625533</ele>
        <time>2020-08-16T07:04:20.777Z</time>
      </trkpt>
      <trkpt lat="37.228498" lon="-5.978431">
        <ele>64.492687</ele>
        <time>2020-08-16T07:04:23.782Z</time>
      </trkpt>
      <trkpt lat="37.228403" lon="-5.978379">
        <ele>64.385714</ele>
        <time>2020-08-16T07:04:25.773Z</time>
      </trkpt>
      <trkpt lat="37.228305" lon="-5.978335">
        <ele>64.278282</ele>
        <time>2020-08-16T07:04:27.795Z</time>
      </trkpt>
      <trkpt lat="37.228215" lon="-5.978262">
        <ele>64.167688</ele>
        <time>2020-08-16T07:04:29.787Z</time>
      </trkpt>
      <trkpt lat="37.228097" lon="-5.978198">
        <ele>64.035007</ele>
        <time>2020-08-16T07:04:31.787Z</time>
      </trkpt>
      <trkpt lat="37.227992" lon="-5.978140">
        <ele>63.916599</ele>
        <time>2020-08-16T07:04:33.787Z</time>
      </trkpt>
      <trkpt lat="37.227883" lon="-5.978046">
        <ele>63.780111</ele>
        <time>2020-08-16T07:04:35.787Z</time>
      </trkpt>
      <trkpt lat="37.227780" lon="-5.977991">
        <ele>63.664576</ele>
        <time>2020-08-16T07:04:37.794Z</time>
      </trkpt>
      <trkpt lat="37.227669" lon="-5.977953">
        <ele>63.545815</ele>
        <time>2020-08-16T07:04:39.791Z</time>
      </trkpt>
      <trkpt lat="37.227545" lon="-5.977884">
        <ele>63.467840</ele>
        <time>2020-08-16T07:04:41.784Z</time>
      </trkpt>
      <trkpt lat="37.227441" lon="-5.977812">
        <ele>63.482309</ele>
        <time>2020-08-16T07:04:43.791Z</time>
      </trkpt>
      <trkpt lat="37.227343" lon="-5.977721">
        <ele>63.497158</ele>
        <time>2020-08-16T07:04:45.775Z</time>
      </trkpt>
      <trkpt lat="37.227237" lon="-5.977658">
        <ele>63.511446</ele>
        <time>2020-08-16T07:04:47.792Z</time>
      </trkpt>
      <trkpt lat="37.227130" lon="-5.977580">
        <ele>63.526520</ele>
        <time>2020-08-16T07:04:49.789Z</time>
      </trkpt>
      <trkpt lat="37.227040" lon="-5.977518">
        <ele>63.539027</ele>
        <time>2020-08-16T07:04:51.785Z</time>
      </trkpt>
      <trkpt lat="37.226942" lon="-5.977474">
        <ele>63.551707</ele>
        <time>2020-08-16T07:04:53.800Z</time>
      </trkpt>
      <trkpt lat="37.226851" lon="-5.977403">
        <ele>63.564760</ele>
        <time>2020-08-16T07:04:55.787Z</time>
      </trkpt>
      <trkpt lat="37.226739" lon="-5.977333">
        <ele>63.580002</ele>
        <time>2020-08-16T07:04:58.784Z</time>
      </trkpt>
      <trkpt lat="37.226658" lon="-5.977272">
        <ele>63.591510</ele>
        <time>2020-08-16T07:05:03.753Z</time>
      </trkpt>
      <trkpt lat="37.226556" lon="-5.977224">
        <ele>63.604781</ele>
        <time>2020-08-16T07:05:09.757Z</time>
      </trkpt>
      <trkpt lat="37.226430" lon="-5.977157">
        <ele>63.621452</ele>
        <time>2020-08-16T07:05:12.789Z</time>
      </trkpt>
      <trkpt lat="37.226343" lon="-5.977100">
        <ele>63.633408</ele>
        <time>2020-08-16T07:05:14.778Z</time>
      </trkpt>
      <trkpt lat="37.226231" lon="-5.977031">
        <ele>63.648607</ele>
        <time>2020-08-16T07:05:16.789Z</time>
      </trkpt>
      <trkpt lat="37.226130" lon="-5.976968">
        <ele>63.662347</ele>
        <time>2020-08-16T07:05:18.783Z</time>
      </trkpt>
      <trkpt lat="37.226034" lon="-5.976884">
        <ele>63.676603</ele>
        <time>2020-08-16T07:05:20.775Z</time>
      </trkpt>
      <trkpt lat="37.225911" lon="-5.976865">
        <ele>63.602060</ele>
        <time>2020-08-16T07:05:22.773Z</time>
      </trkpt>
      <trkpt lat="37.225807" lon="-5.976789">
        <ele>63.500063</ele>
        <time>2020-08-16T07:05:24.764Z</time>
      </trkpt>
      <trkpt lat="37.225718" lon="-5.976715">
        <ele>63.409583</ele>
        <time>2020-08-16T07:05:26.770Z</time>
      </trkpt>
      <trkpt lat="37.225616" lon="-5.976636">
        <ele>63.307999</ele>
        <time>2020-08-16T07:05:28.746Z</time>
      </trkpt>
      <trkpt lat="37.225524" lon="-5.976548">
        <ele>63.209968</ele>
        <time>2020-08-16T07:05:30.779Z</time>
      </trkpt>
      <trkpt lat="37.225402" lon="-5.976441">
        <ele>63.083829</ele>
        <time>2020-08-16T07:05:32.759Z</time>
      </trkpt>
      <trkpt lat="37.225303" lon="-5.976400">
        <ele>62.995463</ele>
        <time>2020-08-16T07:05:34.773Z</time>
      </trkpt>
      <trkpt lat="37.225213" lon="-5.976283">
        <ele>62.885659</ele>
        <time>2020-08-16T07:05:36.791Z</time>
      </trkpt>
      <trkpt lat="37.225170" lon="-5.976183">
        <ele>62.808948</ele>
        <time>2020-08-16T07:05:38.747Z</time>
      </trkpt>
      <trkpt lat="37.225074" lon="-5.976106">
        <ele>62.712389</ele>
        <time>2020-08-16T07:05:40.776Z</time>
      </trkpt>
      <trkpt lat="37.224976" lon="-5.976026">
        <ele>62.613309</ele>
        <time>2020-08-16T07:05:42.789Z</time>
      </trkpt>
      <trkpt lat="37.224871" lon="-5.975950">
        <ele>62.510577</ele>
        <time>2020-08-16T07:05:44.759Z</time>
      </trkpt>
      <trkpt lat="37.224793" lon="-5.975853">
        <ele>62.417526</ele>
        <time>2020-08-16T07:05:46.781Z</time>
      </trkpt>
      <trkpt lat="37.224687" lon="-5.975764">
        <ele>62.309440</ele>
        <time>2020-08-16T07:05:48.751Z</time>
      </trkpt>
      <trkpt lat="37.224586" lon="-5.975685">
        <ele>62.208577</ele>
        <time>2020-08-16T07:05:50.775Z</time>
      </trkpt>
      <trkpt lat="37.224499" lon="-5.975578">
        <ele>62.199040</ele>
        <time>2020-08-16T07:05:52.778Z</time>
      </trkpt>
      <trkpt lat="37.224409" lon="-5.975520">
        <ele>62.272668</ele>
        <time>2020-08-16T07:05:54.787Z</time>
      </trkpt>
      <trkpt lat="37.224298" lon="-5.975468">
        <ele>62.358898</ele>
        <time>2020-08-16T07:05:56.773Z</time>
      </trkpt>
      <trkpt lat="37.224185" lon="-5.975426">
        <ele>62.444672</ele>
        <time>2020-08-16T07:05:58.780Z</time>
      </trkpt>
      <trkpt lat="37.224081" lon="-5.975368">
        <ele>62.527496</ele>
        <time>2020-08-16T07:06:00.790Z</time>
      </trkpt>
      <trkpt lat="37.223976" lon="-5.975364">
        <ele>62.603956</ele>
        <time>2020-08-16T07:06:02.777Z</time>
      </trkpt>
      <trkpt lat="37.223870" lon="-5.975302">
        <ele>62.689066</ele>
        <time>2020-08-16T07:06:04.762Z</time>
      </trkpt>
      <trkpt lat="37.223778" lon="-5.975244">
        <ele>62.763992</ele>
        <time>2020-08-16T07:06:06.764Z</time>
      </trkpt>
      <trkpt lat="37.223689" lon="-5.975210">
        <ele>62.831702</ele>
        <time>2020-08-16T07:06:08.771Z</time>
      </trkpt>
      <trkpt lat="37.223600" lon="-5.975169">
        <ele>62.900702</ele>
        <time>2020-08-16T07:06:10.772Z</time>
      </trkpt>
      <trkpt lat="37.223503" lon="-5.975122">
        <ele>62.976376</ele>
        <time>2020-08-16T07:06:12.783Z</time>
      </trkpt>
      <trkpt lat="37.223413" lon="-5.975086">
        <ele>63.045125</ele>
        <time>2020-08-16T07:06:14.787Z</time>
      </trkpt>
      <trkpt lat="37.223316" lon="-5.975046">
        <ele>63.119436</ele>
        <time>2020-08-16T07:06:16.784Z</time>
      </trkpt>
      <trkpt lat="37.223225" lon="-5.974990">
        <ele>63.193195</ele>
        <time>2020-08-16T07:06:18.791Z</time>
      </trkpt>
      <trkpt lat="37.223130" lon="-5.974955">
        <ele>63.265255</ele>
        <time>2020-08-16T07:06:20.760Z</time>
      </trkpt>
      <trkpt lat="37.223030" lon="-5.974886">
        <ele>63.348303</ele>
        <time>2020-08-16T07:06:22.768Z</time>
      </trkpt>
      <trkpt lat="37.222907" lon="-5.974852">
        <ele>63.439972</ele>
        <time>2020-08-16T07:06:25.779Z</time>
      </trkpt>
      <trkpt lat="37.222819" lon="-5.974808">
        <ele>63.550532</ele>
        <time>2020-08-16T07:06:27.770Z</time>
      </trkpt>
      <trkpt lat="37.222715" lon="-5.974750">
        <ele>63.711688</ele>
        <time>2020-08-16T07:06:29.757Z</time>
      </trkpt>
      <trkpt lat="37.222623" lon="-5.974733">
        <ele>63.843382</ele>
        <time>2020-08-16T07:06:31.775Z</time>
      </trkpt>
      <trkpt lat="37.222528" lon="-5.974655">
        <ele>64.004125</ele>
        <time>2020-08-16T07:06:33.781Z</time>
      </trkpt>
      <trkpt lat="37.222435" lon="-5.974628">
        <ele>64.139306</ele>
        <time>2020-08-16T07:06:35.773Z</time>
      </trkpt>
      <trkpt lat="37.222336" lon="-5.974561">
        <ele>64.298574</ele>
        <time>2020-08-16T07:06:37.780Z</time>
      </trkpt>
      <trkpt lat="37.222222" lon="-5.974495">
        <ele>64.476352</ele>
        <time>2020-08-16T07:06:40.758Z</time>
      </trkpt>
      <trkpt lat="37.222136" lon="-5.974458">
        <ele>64.605095</ele>
        <time>2020-08-16T07:06:42.788Z</time>
      </trkpt>
      <trkpt lat="37.222028" lon="-5.974393">
        <ele>64.774704</ele>
        <time>2020-08-16T07:06:45.760Z</time>
      </trkpt>
      <trkpt lat="37.221911" lon="-5.974330">
        <ele>64.954989</ele>
        <time>2020-08-16T07:06:48.759Z</time>
      </trkpt>
      <trkpt lat="37.221809" lon="-5.974270">
        <ele>65.114505</ele>
        <time>2020-08-16T07:06:51.772Z</time>
      </trkpt>
      <trkpt lat="37.221719" lon="-5.974223">
        <ele>65.252545</ele>
        <time>2020-08-16T07:06:53.786Z</time>
      </trkpt>
      <trkpt lat="37.221622" lon="-5.974159">
        <ele>65.407723</ele>
        <time>2020-08-16T07:06:55.784Z</time>
      </trkpt>
      <trkpt lat="37.221528" lon="-5.974119">
        <ele>65.548282</ele>
        <time>2020-08-16T07:06:57.783Z</time>
      </trkpt>
      <trkpt lat="37.221447" lon="-5.974071">
        <ele>65.675125</ele>
        <time>2020-08-16T07:06:59.785Z</time>
      </trkpt>
      <trkpt lat="37.221355" lon="-5.974018">
        <ele>65.818471</ele>
        <time>2020-08-16T07:07:01.781Z</time>
      </trkpt>
      <trkpt lat="37.221269" lon="-5.973978">
        <ele>65.948351</ele>
        <time>2020-08-16T07:07:03.776Z</time>
      </trkpt>
      <trkpt lat="37.221189" lon="-5.973911">
        <ele>66.038615</ele>
        <time>2020-08-16T07:07:05.795Z</time>
      </trkpt>
      <trkpt lat="37.221096" lon="-5.973861">
        <ele>66.090986</ele>
        <time>2020-08-16T07:07:07.778Z</time>
      </trkpt>
      <trkpt lat="37.220974" lon="-5.973812">
        <ele>66.157295</ele>
        <time>2020-08-16T07:07:10.759Z</time>
      </trkpt>
      <trkpt lat="37.220889" lon="-5.973748">
        <ele>66.208601</ele>
        <time>2020-08-16T07:07:12.761Z</time>
      </trkpt>
      <trkpt lat="37.220804" lon="-5.973686">
        <ele>66.259488</ele>
        <time>2020-08-16T07:07:14.802Z</time>
      </trkpt>
      <trkpt lat="37.220725" lon="-5.973621">
        <ele>66.308382</ele>
        <time>2020-08-16T07:07:16.781Z</time>
      </trkpt>
      <trkpt lat="37.220643" lon="-5.973571">
        <ele>66.355571</ele>
        <time>2020-08-16T07:07:18.788Z</time>
      </trkpt>
      <trkpt lat="37.220557" lon="-5.973508">
        <ele>66.407113</ele>
        <time>2020-08-16T07:07:20.775Z</time>
      </trkpt>
      <trkpt lat="37.220474" lon="-5.973452">
        <ele>66.455890</ele>
        <time>2020-08-16T07:07:22.774Z</time>
      </trkpt>
      <trkpt lat="37.220351" lon="-5.973380">
        <ele>66.526143</ele>
        <time>2020-08-16T07:07:25.762Z</time>
      </trkpt>
      <trkpt lat="37.220220" lon="-5.973325">
        <ele>66.597649</ele>
        <time>2020-08-16T07:07:28.767Z</time>
      </trkpt>
      <trkpt lat="37.220125" lon="-5.973284">
        <ele>66.649652</ele>
        <time>2020-08-16T07:07:30.781Z</time>
      </trkpt>
      <trkpt lat="37.220034" lon="-5.973236">
        <ele>66.700749</ele>
        <time>2020-08-16T07:07:32.781Z</time>
      </trkpt>
      <trkpt lat="37.219910" lon="-5.973147">
        <ele>66.774686</ele>
        <time>2020-08-16T07:07:35.772Z</time>
      </trkpt>
      <trkpt lat="37.219821" lon="-5.973085">
        <ele>66.827375</ele>
        <time>2020-08-16T07:07:37.767Z</time>
      </trkpt>
      <trkpt lat="37.219743" lon="-5.973028">
        <ele>66.874093</ele>
        <time>2020-08-16T07:07:39.777Z</time>
      </trkpt>
      <trkpt lat="37.219647" lon="-5.972996">
        <ele>66.925512</ele>
        <time>2020-08-16T07:07:41.775Z</time>
      </trkpt>
      <trkpt lat="37.219520" lon="-5.972923">
        <ele>66.535993</ele>
        <time>2020-08-16T07:07:44.748Z</time>
      </trkpt>
      <trkpt lat="37.219396" lon="-5.972856">
        <ele>66.014035</ele>
        <time>2020-08-16T07:07:47.766Z</time>
      </trkpt>
      <trkpt lat="37.219320" lon="-5.972790">
        <ele>65.656749</ele>
        <time>2020-08-16T07:07:49.784Z</time>
      </trkpt>
      <trkpt lat="37.219228" lon="-5.972728">
        <ele>65.253033</ele>
        <time>2020-08-16T07:07:51.774Z</time>
      </trkpt>
      <trkpt lat="37.219142" lon="-5.972662">
        <ele>64.863323</ele>
        <time>2020-08-16T07:07:53.764Z</time>
      </trkpt>
      <trkpt lat="37.219058" lon="-5.972588">
        <ele>64.466575</ele>
        <time>2020-08-16T07:07:55.772Z</time>
      </trkpt>
      <trkpt lat="37.218973" lon="-5.972537">
        <ele>64.102325</ele>
        <time>2020-08-16T07:07:57.772Z</time>
      </trkpt>
      <trkpt lat="37.218885" lon="-5.972496">
        <ele>63.739399</ele>
        <time>2020-08-16T07:07:59.774Z</time>
      </trkpt>
      <trkpt lat="37.218805" lon="-5.972428">
        <ele>63.365870</ele>
        <time>2020-08-16T07:08:01.789Z</time>
      </trkpt>
      <trkpt lat="37.218716" lon="-5.972385">
        <ele>62.997150</ele>
        <time>2020-08-16T07:08:03.759Z</time>
      </trkpt>
      <trkpt lat="37.218631" lon="-5.972346">
        <ele>62.647237</ele>
        <time>2020-08-16T07:08:05.774Z</time>
      </trkpt>
      <trkpt lat="37.218508" lon="-5.972274">
        <ele>62.122510</ele>
        <time>2020-08-16T07:08:08.763Z</time>
      </trkpt>
      <trkpt lat="37.218412" lon="-5.972214">
        <ele>61.707882</ele>
        <time>2020-08-16T07:08:10.795Z</time>
      </trkpt>
      <trkpt lat="37.218329" lon="-5.972171">
        <ele>61.360714</ele>
        <time>2020-08-16T07:08:12.758Z</time>
      </trkpt>
      <trkpt lat="37.218243" lon="-5.972132">
        <ele>61.007166</ele>
        <time>2020-08-16T07:08:14.781Z</time>
      </trkpt>
      <trkpt lat="37.218146" lon="-5.972084">
        <ele>60.604034</ele>
        <time>2020-08-16T07:08:16.779Z</time>
      </trkpt>
      <trkpt lat="37.218064" lon="-5.972002">
        <ele>60.198721</ele>
        <time>2020-08-16T07:08:18.768Z</time>
      </trkpt>
      <trkpt lat="37.217947" lon="-5.971927">
        <ele>60.143782</ele>
        <time>2020-08-16T07:08:20.766Z</time>
      </trkpt>
      <trkpt lat="37.217840" lon="-5.971886">
        <ele>60.369105</ele>
        <time>2020-08-16T07:08:22.788Z</time>
      </trkpt>
      <trkpt lat="37.217755" lon="-5.971825">
        <ele>60.566293</ele>
        <time>2020-08-16T07:08:24.779Z</time>
      </trkpt>
      <trkpt lat="37.217646" lon="-5.971749">
        <ele>60.817407</ele>
        <time>2020-08-16T07:08:26.791Z</time>
      </trkpt>
      <trkpt lat="37.217548" lon="-5.971693">
        <ele>61.034270</ele>
        <time>2020-08-16T07:08:28.790Z</time>
      </trkpt>
      <trkpt lat="37.217444" lon="-5.971641">
        <ele>61.259735</ele>
        <time>2020-08-16T07:08:30.798Z</time>
      </trkpt>
      <trkpt lat="37.217348" lon="-5.971578">
        <ele>61.477905</ele>
        <time>2020-08-16T07:08:32.789Z</time>
      </trkpt>
      <trkpt lat="37.217240" lon="-5.971503">
        <ele>61.726481</ele>
        <time>2020-08-16T07:08:36.788Z</time>
      </trkpt>
      <trkpt lat="37.217118" lon="-5.971419">
        <ele>62.006720</ele>
        <time>2020-08-16T07:08:38.783Z</time>
      </trkpt>
      <trkpt lat="37.217041" lon="-5.971359">
        <ele>62.189242</ele>
        <time>2020-08-16T07:08:39.781Z</time>
      </trkpt>
      <trkpt lat="37.216943" lon="-5.971282">
        <ele>62.422083</ele>
        <time>2020-08-16T07:08:41.776Z</time>
      </trkpt>
      <trkpt lat="37.216841" lon="-5.971202">
        <ele>62.664307</ele>
        <time>2020-08-16T07:08:43.792Z</time>
      </trkpt>
      <trkpt lat="37.216737" lon="-5.971159">
        <ele>62.884840</ele>
        <time>2020-08-16T07:08:45.779Z</time>
      </trkpt>
      <trkpt lat="37.216626" lon="-5.971092">
        <ele>63.132898</ele>
        <time>2020-08-16T07:08:47.791Z</time>
      </trkpt>
      <trkpt lat="37.216528" lon="-5.971006">
        <ele>63.373708</ele>
        <time>2020-08-16T07:08:49.789Z</time>
      </trkpt>
      <trkpt lat="37.216418" lon="-5.970935">
        <ele>63.622184</ele>
        <time>2020-08-16T07:08:51.787Z</time>
      </trkpt>
      <trkpt lat="37.216306" lon="-5.970871">
        <ele>63.856290</ele>
        <time>2020-08-16T07:08:53.788Z</time>
      </trkpt>
      <trkpt lat="37.216189" lon="-5.970792">
        <ele>64.109023</ele>
        <time>2020-08-16T07:08:55.783Z</time>
      </trkpt>
      <trkpt lat="37.216072" lon="-5.970711">
        <ele>64.363205</ele>
        <time>2020-08-16T07:08:57.780Z</time>
      </trkpt>
      <trkpt lat="37.215946" lon="-5.970635">
        <ele>64.629142</ele>
        <time>2020-08-16T07:08:59.786Z</time>
      </trkpt>
      <trkpt lat="37.215825" lon="-5.970568">
        <ele>64.880734</ele>
        <time>2020-08-16T07:09:01.769Z</time>
      </trkpt>
      <trkpt lat="37.215707" lon="-5.970488">
        <ele>65.135861</ele>
        <time>2020-08-16T07:09:03.763Z</time>
      </trkpt>
      <trkpt lat="37.215584" lon="-5.970418">
        <ele>65.392781</ele>
        <time>2020-08-16T07:09:05.759Z</time>
      </trkpt>
      <trkpt lat="37.215462" lon="-5.970345">
        <ele>65.649892</ele>
        <time>2020-08-16T07:09:07.797Z</time>
      </trkpt>
      <trkpt lat="37.215329" lon="-5.970261">
        <ele>65.933129</ele>
        <time>2020-08-16T07:09:09.785Z</time>
      </trkpt>
      <trkpt lat="37.215213" lon="-5.970157">
        <ele>66.204299</ele>
        <time>2020-08-16T07:09:11.774Z</time>
      </trkpt>
      <trkpt lat="37.215070" lon="-5.970048">
        <ele>66.522559</ele>
        <time>2020-08-16T07:09:13.788Z</time>
      </trkpt>
      <trkpt lat="37.214937" lon="-5.969941">
        <ele>66.823071</ele>
        <time>2020-08-16T07:09:15.791Z</time>
      </trkpt>
      <trkpt lat="37.214798" lon="-5.969855">
        <ele>67.025936</ele>
        <time>2020-08-16T07:09:17.778Z</time>
      </trkpt>
      <trkpt lat="37.214660" lon="-5.969776">
        <ele>67.000814</ele>
        <time>2020-08-16T07:09:19.785Z</time>
      </trkpt>
      <trkpt lat="37.214528" lon="-5.969672">
        <ele>66.975001</ele>
        <time>2020-08-16T07:09:21.785Z</time>
      </trkpt>
      <trkpt lat="37.214386" lon="-5.969611">
        <ele>66.950142</ele>
        <time>2020-08-16T07:09:23.778Z</time>
      </trkpt>
      <trkpt lat="37.214257" lon="-5.969570">
        <ele>66.928100</ele>
        <time>2020-08-16T07:09:25.774Z</time>
      </trkpt>
      <trkpt lat="37.214127" lon="-5.969484">
        <ele>66.903760</ele>
        <time>2020-08-16T07:09:27.786Z</time>
      </trkpt>
      <trkpt lat="37.213994" lon="-5.969406">
        <ele>66.879445</ele>
        <time>2020-08-16T07:09:29.776Z</time>
      </trkpt>
      <trkpt lat="37.213855" lon="-5.969328">
        <ele>66.854226</ele>
        <time>2020-08-16T07:09:31.778Z</time>
      </trkpt>
      <trkpt lat="37.213713" lon="-5.969252">
        <ele>66.828657</ele>
        <time>2020-08-16T07:09:33.785Z</time>
      </trkpt>
      <trkpt lat="37.213572" lon="-5.969150">
        <ele>66.801702</ele>
        <time>2020-08-16T07:09:35.786Z</time>
      </trkpt>
      <trkpt lat="37.213443" lon="-5.969035">
        <ele>66.775497</ele>
        <time>2020-08-16T07:09:37.781Z</time>
      </trkpt>
      <trkpt lat="37.213290" lon="-5.968957">
        <ele>66.748144</ele>
        <time>2020-08-16T07:09:39.783Z</time>
      </trkpt>
      <trkpt lat="37.213168" lon="-5.968890">
        <ele>66.758956</ele>
        <time>2020-08-16T07:09:41.757Z</time>
      </trkpt>
      <trkpt lat="37.213031" lon="-5.968793">
        <ele>66.825197</ele>
        <time>2020-08-16T07:09:43.783Z</time>
      </trkpt>
      <trkpt lat="37.212910" lon="-5.968709">
        <ele>66.883429</ele>
        <time>2020-08-16T07:09:45.790Z</time>
      </trkpt>
      <trkpt lat="37.212779" lon="-5.968634">
        <ele>66.944067</ele>
        <time>2020-08-16T07:09:47.778Z</time>
      </trkpt>
      <trkpt lat="37.212643" lon="-5.968544">
        <ele>67.008814</ele>
        <time>2020-08-16T07:09:49.788Z</time>
      </trkpt>
      <trkpt lat="37.212514" lon="-5.968454">
        <ele>67.070968</ele>
        <time>2020-08-16T07:09:51.782Z</time>
      </trkpt>
      <trkpt lat="37.212378" lon="-5.968368">
        <ele>67.135101</ele>
        <time>2020-08-16T07:09:53.790Z</time>
      </trkpt>
      <trkpt lat="37.212241" lon="-5.968266">
        <ele>67.202181</ele>
        <time>2020-08-16T07:09:55.782Z</time>
      </trkpt>
      <trkpt lat="37.212125" lon="-5.968174">
        <ele>67.259967</ele>
        <time>2020-08-16T07:09:57.790Z</time>
      </trkpt>
      <trkpt lat="37.212003" lon="-5.968115">
        <ele>67.315029</ele>
        <time>2020-08-16T07:09:59.781Z</time>
      </trkpt>
      <trkpt lat="37.211874" lon="-5.968051">
        <ele>67.373447</ele>
        <time>2020-08-16T07:10:01.797Z</time>
      </trkpt>
      <trkpt lat="37.211747" lon="-5.967970">
        <ele>67.433440</ele>
        <time>2020-08-16T07:10:03.789Z</time>
      </trkpt>
      <trkpt lat="37.211615" lon="-5.967877">
        <ele>67.468982</ele>
        <time>2020-08-16T07:10:05.775Z</time>
      </trkpt>
      <trkpt lat="37.211485" lon="-5.967797">
        <ele>67.128897</ele>
        <time>2020-08-16T07:10:07.753Z</time>
      </trkpt>
      <trkpt lat="37.211347" lon="-5.967720">
        <ele>66.774158</ele>
        <time>2020-08-16T07:10:09.783Z</time>
      </trkpt>
      <trkpt lat="37.211217" lon="-5.967634">
        <ele>66.428986</ele>
        <time>2020-08-16T07:10:11.787Z</time>
      </trkpt>
      <trkpt lat="37.211078" lon="-5.967543">
        <ele>66.060746</ele>
        <time>2020-08-16T07:10:13.783Z</time>
      </trkpt>
      <trkpt lat="37.210942" lon="-5.967463">
        <ele>65.707950</ele>
        <time>2020-08-16T07:10:15.787Z</time>
      </trkpt>
      <trkpt lat="37.210810" lon="-5.967386">
        <ele>65.366042</ele>
        <time>2020-08-16T07:10:17.800Z</time>
      </trkpt>
      <trkpt lat="37.210679" lon="-5.967308">
        <ele>65.025466</ele>
        <time>2020-08-16T07:10:19.787Z</time>
      </trkpt>
      <trkpt lat="37.210556" lon="-5.967237">
        <ele>64.707459</ele>
        <time>2020-08-16T07:10:21.793Z</time>
      </trkpt>
      <trkpt lat="37.210442" lon="-5.967154">
        <ele>64.397900</ele>
        <time>2020-08-16T07:10:23.766Z</time>
      </trkpt>
      <trkpt lat="37.210314" lon="-5.967080">
        <ele>64.066876</ele>
        <time>2020-08-16T07:10:25.799Z</time>
      </trkpt>
      <trkpt lat="37.210189" lon="-5.967042">
        <ele>63.764757</ele>
        <time>2020-08-16T07:10:27.788Z</time>
      </trkpt>
      <trkpt lat="37.210062" lon="-5.966975">
        <ele>63.441160</ele>
        <time>2020-08-16T07:10:29.753Z</time>
      </trkpt>
      <trkpt lat="37.209941" lon="-5.966914">
        <ele>63.253369</ele>
        <time>2020-08-16T07:10:31.791Z</time>
      </trkpt>
      <trkpt lat="37.209814" lon="-5.966826">
        <ele>63.216523</ele>
        <time>2020-08-16T07:10:33.791Z</time>
      </trkpt>
      <trkpt lat="37.209700" lon="-5.966739">
        <ele>63.182636</ele>
        <time>2020-08-16T07:10:35.788Z</time>
      </trkpt>
      <trkpt lat="37.209589" lon="-5.966671">
        <ele>63.151263</ele>
        <time>2020-08-16T07:10:37.783Z</time>
      </trkpt>
      <trkpt lat="37.209479" lon="-5.966571">
        <ele>63.116767</ele>
        <time>2020-08-16T07:10:39.783Z</time>
      </trkpt>
      <trkpt lat="37.209368" lon="-5.966504">
        <ele>63.085482</ele>
        <time>2020-08-16T07:10:41.780Z</time>
      </trkpt>
      <trkpt lat="37.209260" lon="-5.966439">
        <ele>63.055060</ele>
        <time>2020-08-16T07:10:43.787Z</time>
      </trkpt>
      <trkpt lat="37.209158" lon="-5.966368">
        <ele>63.025435</ele>
        <time>2020-08-16T07:10:45.786Z</time>
      </trkpt>
      <trkpt lat="37.209039" lon="-5.966315">
        <ele>62.993362</ele>
        <time>2020-08-16T07:10:47.789Z</time>
      </trkpt>
      <trkpt lat="37.208944" lon="-5.966234">
        <ele>62.964192</ele>
        <time>2020-08-16T07:10:49.788Z</time>
      </trkpt>
      <trkpt lat="37.208861" lon="-5.966158">
        <ele>62.938098</ele>
        <time>2020-08-16T07:10:51.790Z</time>
      </trkpt>
      <trkpt lat="37.208761" lon="-5.966101">
        <ele>62.910202</ele>
        <time>2020-08-16T07:10:53.785Z</time>
      </trkpt>
      <trkpt lat="37.208658" lon="-5.966021">
        <ele>62.879437</ele>
        <time>2020-08-16T07:10:55.773Z</time>
      </trkpt>
      <trkpt lat="37.208560" lon="-5.965964">
        <ele>62.852002</ele>
        <time>2020-08-16T07:10:57.776Z</time>
      </trkpt>
      <trkpt lat="37.208458" lon="-5.965886">
        <ele>62.821666</ele>
        <time>2020-08-16T07:10:59.792Z</time>
      </trkpt>
      <trkpt lat="37.208368" lon="-5.965837">
        <ele>62.953671</ele>
        <time>2020-08-16T07:11:01.788Z</time>
      </trkpt>
      <trkpt lat="37.208275" lon="-5.965779">
        <ele>63.220717</ele>
        <time>2020-08-16T07:11:03.788Z</time>
      </trkpt>
      <trkpt lat="37.208177" lon="-5.965724">
        <ele>63.496774</ele>
        <time>2020-08-16T07:11:05.784Z</time>
      </trkpt>
      <trkpt lat="37.208075" lon="-5.965640">
        <ele>63.810477</ele>
        <time>2020-08-16T07:11:07.796Z</time>
      </trkpt>
      <trkpt lat="37.207978" lon="-5.965592">
        <ele>64.078606</ele>
        <time>2020-08-16T07:11:09.781Z</time>
      </trkpt>
      <trkpt lat="37.207878" lon="-5.965528">
        <ele>64.367258</ele>
        <time>2020-08-16T07:11:11.798Z</time>
      </trkpt>
      <trkpt lat="37.207778" lon="-5.965466">
        <ele>64.654073</ele>
        <time>2020-08-16T07:11:13.801Z</time>
      </trkpt>
      <trkpt lat="37.207691" lon="-5.965397">
        <ele>64.918708</ele>
        <time>2020-08-16T07:11:15.784Z</time>
      </trkpt>
      <trkpt lat="37.207588" lon="-5.965330">
        <ele>65.217031</ele>
        <time>2020-08-16T07:11:17.787Z</time>
      </trkpt>
      <trkpt lat="37.207495" lon="-5.965285">
        <ele>65.473344</ele>
        <time>2020-08-16T07:11:19.795Z</time>
      </trkpt>
      <trkpt lat="37.207403" lon="-5.965245">
        <ele>65.723724</ele>
        <time>2020-08-16T07:11:21.785Z</time>
      </trkpt>
      <trkpt lat="37.207331" lon="-5.965172">
        <ele>65.961719</ele>
        <time>2020-08-16T07:11:23.785Z</time>
      </trkpt>
      <trkpt lat="37.207228" lon="-5.965097">
        <ele>66.267925</ele>
        <time>2020-08-16T07:11:25.788Z</time>
      </trkpt>
      <trkpt lat="37.207145" lon="-5.965046">
        <ele>66.505566</ele>
        <time>2020-08-16T07:11:27.792Z</time>
      </trkpt>
      <trkpt lat="37.207031" lon="-5.964961">
        <ele>66.846538</ele>
        <time>2020-08-16T07:11:30.771Z</time>
      </trkpt>
      <trkpt lat="37.206924" lon="-5.964913">
        <ele>67.138745</ele>
        <time>2020-08-16T07:11:32.796Z</time>
      </trkpt>
      <trkpt lat="37.206840" lon="-5.964851">
        <ele>67.389330</ele>
        <time>2020-08-16T07:11:34.788Z</time>
      </trkpt>
      <trkpt lat="37.206736" lon="-5.964769">
        <ele>67.458510</ele>
        <time>2020-08-16T07:11:37.784Z</time>
      </trkpt>
      <trkpt lat="37.206629" lon="-5.964730">
        <ele>67.482065</ele>
        <time>2020-08-16T07:11:40.788Z</time>
      </trkpt>
      <trkpt lat="37.206540" lon="-5.964667">
        <ele>67.503664</ele>
        <time>2020-08-16T07:11:42.770Z</time>
      </trkpt>
      <trkpt lat="37.206453" lon="-5.964618">
        <ele>67.523822</ele>
        <time>2020-08-16T07:11:44.784Z</time>
      </trkpt>
      <trkpt lat="37.206362" lon="-5.964572">
        <ele>67.544561</ele>
        <time>2020-08-16T07:11:46.790Z</time>
      </trkpt>
      <trkpt lat="37.206260" lon="-5.964510">
        <ele>67.568519</ele>
        <time>2020-08-16T07:11:48.787Z</time>
      </trkpt>
      <trkpt lat="37.206167" lon="-5.964436">
        <ele>67.591796</ele>
        <time>2020-08-16T07:11:50.789Z</time>
      </trkpt>
      <trkpt lat="37.206068" lon="-5.964373">
        <ele>67.615260</ele>
        <time>2020-08-16T07:11:52.793Z</time>
      </trkpt>
      <trkpt lat="37.205977" lon="-5.964320">
        <ele>67.636467</ele>
        <time>2020-08-16T07:11:54.766Z</time>
      </trkpt>
      <trkpt lat="37.205838" lon="-5.964263">
        <ele>67.667380</ele>
        <time>2020-08-16T07:11:57.784Z</time>
      </trkpt>
      <trkpt lat="37.205745" lon="-5.964181">
        <ele>67.691405</ele>
        <time>2020-08-16T07:11:59.764Z</time>
      </trkpt>
      <trkpt lat="37.205631" lon="-5.964115">
        <ele>67.717945</ele>
        <time>2020-08-16T07:12:01.796Z</time>
      </trkpt>
      <trkpt lat="37.205516" lon="-5.964052">
        <ele>67.744470</ele>
        <time>2020-08-16T07:12:03.759Z</time>
      </trkpt>
      <trkpt lat="37.205398" lon="-5.964001">
        <ele>67.770853</ele>
        <time>2020-08-16T07:12:05.784Z</time>
      </trkpt>
      <trkpt lat="37.205293" lon="-5.963929">
        <ele>67.796146</ele>
        <time>2020-08-16T07:12:07.786Z</time>
      </trkpt>
      <trkpt lat="37.205159" lon="-5.963839">
        <ele>67.778658</ele>
        <time>2020-08-16T07:12:09.786Z</time>
      </trkpt>
      <trkpt lat="37.205020" lon="-5.963744">
        <ele>67.669089</ele>
        <time>2020-08-16T07:12:11.780Z</time>
      </trkpt>
      <trkpt lat="37.204892" lon="-5.963655">
        <ele>67.567789</ele>
        <time>2020-08-16T07:12:13.792Z</time>
      </trkpt>
      <trkpt lat="37.204783" lon="-5.963551">
        <ele>67.473007</ele>
        <time>2020-08-16T07:12:15.785Z</time>
      </trkpt>
      <trkpt lat="37.204639" lon="-5.963464">
        <ele>67.362369</ele>
        <time>2020-08-16T07:12:17.786Z</time>
      </trkpt>
      <trkpt lat="37.204515" lon="-5.963425">
        <ele>67.273868</ele>
        <time>2020-08-16T07:12:19.774Z</time>
      </trkpt>
      <trkpt lat="37.204391" lon="-5.963342">
        <ele>67.176581</ele>
        <time>2020-08-16T07:12:21.785Z</time>
      </trkpt>
      <trkpt lat="37.204283" lon="-5.963250">
        <ele>67.086223</ele>
        <time>2020-08-16T07:12:23.785Z</time>
      </trkpt>
      <trkpt lat="37.204152" lon="-5.963160">
        <ele>66.982837</ele>
        <time>2020-08-16T07:12:25.771Z</time>
      </trkpt>
      <trkpt lat="37.204028" lon="-5.963111">
        <ele>66.892837</ele>
        <time>2020-08-16T07:12:27.787Z</time>
      </trkpt>
      <trkpt lat="37.203907" lon="-5.963049">
        <ele>66.802357</ele>
        <time>2020-08-16T07:12:29.773Z</time>
      </trkpt>
      <trkpt lat="37.203794" lon="-5.962963">
        <ele>66.710872</ele>
        <time>2020-08-16T07:12:31.788Z</time>
      </trkpt>
      <trkpt lat="37.203675" lon="-5.962884">
        <ele>66.617677</ele>
        <time>2020-08-16T07:12:33.783Z</time>
      </trkpt>
      <trkpt lat="37.203559" lon="-5.962823">
        <ele>66.548698</ele>
        <time>2020-08-16T07:12:35.787Z</time>
      </trkpt>
      <trkpt lat="37.203446" lon="-5.962740">
        <ele>66.498244</ele>
        <time>2020-08-16T07:12:37.785Z</time>
      </trkpt>
      <trkpt lat="37.203336" lon="-5.962660">
        <ele>66.449253</ele>
        <time>2020-08-16T07:12:39.786Z</time>
      </trkpt>
      <trkpt lat="37.203217" lon="-5.962597">
        <ele>66.399481</ele>
        <time>2020-08-16T07:12:41.783Z</time>
      </trkpt>
      <trkpt lat="37.203116" lon="-5.962528">
        <ele>66.355168</ele>
        <time>2020-08-16T07:12:43.798Z</time>
      </trkpt>
      <trkpt lat="37.203007" lon="-5.962468">
        <ele>66.309301</ele>
        <time>2020-08-16T07:12:45.815Z</time>
      </trkpt>
      <trkpt lat="37.202912" lon="-5.962388">
        <ele>66.265216</ele>
        <time>2020-08-16T07:12:47.794Z</time>
      </trkpt>
      <trkpt lat="37.202803" lon="-5.962313">
        <ele>66.217314</ele>
        <time>2020-08-16T07:12:49.779Z</time>
      </trkpt>
      <trkpt lat="37.202688" lon="-5.962254">
        <ele>66.169437</ele>
        <time>2020-08-16T07:12:51.786Z</time>
      </trkpt>
      <trkpt lat="37.202598" lon="-5.962142">
        <ele>66.120601</ele>
        <time>2020-08-16T07:12:53.786Z</time>
      </trkpt>
      <trkpt lat="37.202495" lon="-5.962094">
        <ele>66.078260</ele>
        <time>2020-08-16T07:12:55.773Z</time>
      </trkpt>
      <trkpt lat="37.202399" lon="-5.962024">
        <ele>66.035475</ele>
        <time>2020-08-16T07:12:57.809Z</time>
      </trkpt>
      <trkpt lat="37.202299" lon="-5.961979">
        <ele>65.994536</ele>
        <time>2020-08-16T07:12:59.789Z</time>
      </trkpt>
      <trkpt lat="37.202201" lon="-5.961922">
        <ele>65.952912</ele>
        <time>2020-08-16T07:13:01.798Z</time>
      </trkpt>
      <trkpt lat="37.202092" lon="-5.961872">
        <ele>65.908189</ele>
        <time>2020-08-16T07:13:03.800Z</time>
      </trkpt>
      <trkpt lat="37.201981" lon="-5.961844">
        <ele>65.869697</ele>
        <time>2020-08-16T07:13:05.787Z</time>
      </trkpt>
      <trkpt lat="37.201888" lon="-5.961758">
        <ele>65.841906</ele>
        <time>2020-08-16T07:13:07.791Z</time>
      </trkpt>
      <trkpt lat="37.201785" lon="-5.961678">
        <ele>65.812765</ele>
        <time>2020-08-16T07:13:09.775Z</time>
      </trkpt>
      <trkpt lat="37.201657" lon="-5.961580">
        <ele>65.776692</ele>
        <time>2020-08-16T07:13:11.805Z</time>
      </trkpt>
      <trkpt lat="37.201537" lon="-5.961497">
        <ele>65.743728</ele>
        <time>2020-08-16T07:13:13.779Z</time>
      </trkpt>
      <trkpt lat="37.201419" lon="-5.961420">
        <ele>65.711731</ele>
        <time>2020-08-16T07:13:15.780Z</time>
      </trkpt>
      <trkpt lat="37.201311" lon="-5.961347">
        <ele>65.682218</ele>
        <time>2020-08-16T07:13:17.790Z</time>
      </trkpt>
      <trkpt lat="37.201175" lon="-5.961263">
        <ele>65.645751</ele>
        <time>2020-08-16T07:13:19.781Z</time>
      </trkpt>
      <trkpt lat="37.201071" lon="-5.961176">
        <ele>65.615682</ele>
        <time>2020-08-16T07:13:21.778Z</time>
      </trkpt>
      <trkpt lat="37.200952" lon="-5.961069">
        <ele>65.580464</ele>
        <time>2020-08-16T07:13:23.786Z</time>
      </trkpt>
      <trkpt lat="37.200834" lon="-5.960967">
        <ele>65.545994</ele>
        <time>2020-08-16T07:13:25.770Z</time>
      </trkpt>
      <trkpt lat="37.200724" lon="-5.960863">
        <ele>65.512861</ele>
        <time>2020-08-16T07:13:27.797Z</time>
      </trkpt>
      <trkpt lat="37.200600" lon="-5.960754">
        <ele>65.476440</ele>
        <time>2020-08-16T07:13:29.787Z</time>
      </trkpt>
      <trkpt lat="37.200471" lon="-5.960661">
        <ele>65.419761</ele>
        <time>2020-08-16T07:13:31.788Z</time>
      </trkpt>
      <trkpt lat="37.200334" lon="-5.960553">
        <ele>65.212471</ele>
        <time>2020-08-16T07:13:33.781Z</time>
      </trkpt>
      <trkpt lat="37.200204" lon="-5.960443">
        <ele>65.011586</ele>
        <time>2020-08-16T07:13:35.801Z</time>
      </trkpt>
      <trkpt lat="37.200076" lon="-5.960323">
        <ele>64.806882</ele>
        <time>2020-08-16T07:13:37.790Z</time>
      </trkpt>
      <trkpt lat="37.199941" lon="-5.960219">
        <ele>64.603922</ele>
        <time>2020-08-16T07:13:39.765Z</time>
      </trkpt>
      <trkpt lat="37.199815" lon="-5.960103">
        <ele>64.403707</ele>
        <time>2020-08-16T07:13:41.792Z</time>
      </trkpt>
      <trkpt lat="37.199678" lon="-5.959986">
        <ele>64.191388</ele>
        <time>2020-08-16T07:13:43.757Z</time>
      </trkpt>
      <trkpt lat="37.199562" lon="-5.959861">
        <ele>63.995500</ele>
        <time>2020-08-16T07:13:45.794Z</time>
      </trkpt>
      <trkpt lat="37.199417" lon="-5.959756">
        <ele>63.781004</ele>
        <time>2020-08-16T07:13:47.787Z</time>
      </trkpt>
      <trkpt lat="37.199346" lon="-5.959683">
        <ele>63.663408</ele>
        <time>2020-08-16T07:13:48.801Z</time>
      </trkpt>
      <trkpt lat="37.199277" lon="-5.959608">
        <ele>63.546457</ele>
        <time>2020-08-16T07:13:49.779Z</time>
      </trkpt>
      <trkpt lat="37.199160" lon="-5.959473">
        <ele>63.342830</ele>
        <time>2020-08-16T07:13:51.773Z</time>
      </trkpt>
      <trkpt lat="37.199083" lon="-5.959282">
        <ele>63.125806</ele>
        <time>2020-08-16T07:13:53.754Z</time>
      </trkpt>
      <trkpt lat="37.198998" lon="-5.959085">
        <ele>62.917700</ele>
        <time>2020-08-16T07:13:55.759Z</time>
      </trkpt>
      <trkpt lat="37.198969" lon="-5.958975">
        <ele>62.810075</ele>
        <time>2020-08-16T07:13:56.781Z</time>
      </trkpt>
      <trkpt lat="37.198933" lon="-5.958870">
        <ele>62.703894</ele>
        <time>2020-08-16T07:13:57.783Z</time>
      </trkpt>
      <trkpt lat="37.198891" lon="-5.958765">
        <ele>62.594758</ele>
        <time>2020-08-16T07:13:58.793Z</time>
      </trkpt>
      <trkpt lat="37.198826" lon="-5.958589">
        <ele>62.414562</ele>
        <time>2020-08-16T07:14:00.775Z</time>
      </trkpt>
      <trkpt lat="37.198771" lon="-5.958410">
        <ele>62.236355</ele>
        <time>2020-08-16T07:14:02.786Z</time>
      </trkpt>
      <trkpt lat="37.198707" lon="-5.958210">
        <ele>62.036153</ele>
        <time>2020-08-16T07:14:04.777Z</time>
      </trkpt>
      <trkpt lat="37.198646" lon="-5.958012">
        <ele>61.838962</ele>
        <time>2020-08-16T07:14:06.778Z</time>
      </trkpt>
      <trkpt lat="37.198574" lon="-5.957841">
        <ele>61.659301</ele>
        <time>2020-08-16T07:14:08.785Z</time>
      </trkpt>
      <trkpt lat="37.198524" lon="-5.957673">
        <ele>61.492716</ele>
        <time>2020-08-16T07:14:10.788Z</time>
      </trkpt>
      <trkpt lat="37.198478" lon="-5.957468">
        <ele>61.294888</ele>
        <time>2020-08-16T07:14:12.768Z</time>
      </trkpt>
      <trkpt lat="37.198423" lon="-5.957288">
        <ele>61.115814</ele>
        <time>2020-08-16T07:14:14.786Z</time>
      </trkpt>
      <trkpt lat="37.198398" lon="-5.957180">
        <ele>61.084423</ele>
        <time>2020-08-16T07:14:15.781Z</time>
      </trkpt>
      <trkpt lat="37.198334" lon="-5.956999">
        <ele>61.321394</ele>
        <time>2020-08-16T07:14:17.804Z</time>
      </trkpt>
      <trkpt lat="37.198276" lon="-5.956805">
        <ele>61.569354</ele>
        <time>2020-08-16T07:14:19.792Z</time>
      </trkpt>
      <trkpt lat="37.198200" lon="-5.956627">
        <ele>61.811025</ele>
        <time>2020-08-16T07:14:21.779Z</time>
      </trkpt>
      <trkpt lat="37.198182" lon="-5.956516">
        <ele>61.946575</ele>
        <time>2020-08-16T07:14:22.783Z</time>
      </trkpt>
      <trkpt lat="37.198129" lon="-5.956306">
        <ele>62.210181</ele>
        <time>2020-08-16T07:14:24.784Z</time>
      </trkpt>
      <trkpt lat="37.198089" lon="-5.956200">
        <ele>62.350538</ele>
        <time>2020-08-16T07:14:25.790Z</time>
      </trkpt>
      <trkpt lat="37.198017" lon="-5.956021">
        <ele>62.590496</ele>
        <time>2020-08-16T07:14:27.797Z</time>
      </trkpt>
      <trkpt lat="37.197941" lon="-5.955831">
        <ele>62.844914</ele>
        <time>2020-08-16T07:14:29.792Z</time>
      </trkpt>
      <trkpt lat="37.197916" lon="-5.955722">
        <ele>62.980647</ele>
        <time>2020-08-16T07:14:30.795Z</time>
      </trkpt>
      <trkpt lat="37.197890" lon="-5.955608">
        <ele>63.122546</ele>
        <time>2020-08-16T07:14:31.769Z</time>
      </trkpt>
      <trkpt lat="37.197813" lon="-5.955416">
        <ele>63.379777</ele>
        <time>2020-08-16T07:14:33.789Z</time>
      </trkpt>
      <trkpt lat="37.197708" lon="-5.955269">
        <ele>63.616049</ele>
        <time>2020-08-16T07:14:35.778Z</time>
      </trkpt>
      <trkpt lat="37.197631" lon="-5.955125">
        <ele>63.686231</ele>
        <time>2020-08-16T07:14:37.783Z</time>
      </trkpt>
      <trkpt lat="37.197552" lon="-5.954946">
        <ele>63.501284</ele>
        <time>2020-08-16T07:14:39.793Z</time>
      </trkpt>
      <trkpt lat="37.197524" lon="-5.954830">
        <ele>63.391738</ele>
        <time>2020-08-16T07:14:40.770Z</time>
      </trkpt>
      <trkpt lat="37.197495" lon="-5.954722">
        <ele>63.288734</ele>
        <time>2020-08-16T07:14:41.772Z</time>
      </trkpt>
      <trkpt lat="37.197464" lon="-5.954602">
        <ele>63.174720</ele>
        <time>2020-08-16T07:14:42.788Z</time>
      </trkpt>
      <trkpt lat="37.197391" lon="-5.954409">
        <ele>62.981626</ele>
        <time>2020-08-16T07:14:44.787Z</time>
      </trkpt>
      <trkpt lat="37.197335" lon="-5.954211">
        <ele>62.791733</ele>
        <time>2020-08-16T07:14:46.775Z</time>
      </trkpt>
      <trkpt lat="37.197279" lon="-5.954027">
        <ele>62.613713</ele>
        <time>2020-08-16T07:14:48.777Z</time>
      </trkpt>
      <trkpt lat="37.197193" lon="-5.953871">
        <ele>62.442252</ele>
        <time>2020-08-16T07:14:50.786Z</time>
      </trkpt>
      <trkpt lat="37.197124" lon="-5.953711">
        <ele>62.277815</ele>
        <time>2020-08-16T07:14:52.784Z</time>
      </trkpt>
      <trkpt lat="37.197056" lon="-5.953544">
        <ele>62.108308</ele>
        <time>2020-08-16T07:14:54.778Z</time>
      </trkpt>
      <trkpt lat="37.197001" lon="-5.953385">
        <ele>61.951643</ele>
        <time>2020-08-16T07:14:56.778Z</time>
      </trkpt>
      <trkpt lat="37.196895" lon="-5.953273">
        <ele>61.794447</ele>
        <time>2020-08-16T07:14:58.760Z</time>
      </trkpt>
      <trkpt lat="37.196844" lon="-5.953117">
        <ele>61.644740</ele>
        <time>2020-08-16T07:15:00.798Z</time>
      </trkpt>
      <trkpt lat="37.196785" lon="-5.952969">
        <ele>61.501611</ele>
        <time>2020-08-16T07:15:02.755Z</time>
      </trkpt>
      <trkpt lat="37.196688" lon="-5.952801">
        <ele>61.322166</ele>
        <time>2020-08-16T07:15:04.788Z</time>
      </trkpt>
      <trkpt lat="37.196627" lon="-5.952601">
        <ele>61.136953</ele>
        <time>2020-08-16T07:15:06.782Z</time>
      </trkpt>
      <trkpt lat="37.196547" lon="-5.952435">
        <ele>60.969161</ele>
        <time>2020-08-16T07:15:08.792Z</time>
      </trkpt>
      <trkpt lat="37.196474" lon="-5.952276">
        <ele>60.810447</ele>
        <time>2020-08-16T07:15:10.787Z</time>
      </trkpt>
      <trkpt lat="37.196405" lon="-5.952129">
        <ele>60.662886</ele>
        <time>2020-08-16T07:15:12.784Z</time>
      </trkpt>
      <trkpt lat="37.196333" lon="-5.951969">
        <ele>60.503959</ele>
        <time>2020-08-16T07:15:14.772Z</time>
      </trkpt>
      <trkpt lat="37.196278" lon="-5.951839">
        <ele>60.376656</ele>
        <time>2020-08-16T07:15:16.792Z</time>
      </trkpt>
      <trkpt lat="37.196216" lon="-5.951681">
        <ele>60.224331</ele>
        <time>2020-08-16T07:15:18.796Z</time>
      </trkpt>
      <trkpt lat="37.196145" lon="-5.951541">
        <ele>60.080798</ele>
        <time>2020-08-16T07:15:20.767Z</time>
      </trkpt>
      <trkpt lat="37.196071" lon="-5.951418">
        <ele>59.947492</ele>
        <time>2020-08-16T07:15:22.789Z</time>
      </trkpt>
      <trkpt lat="37.196014" lon="-5.951284">
        <ele>59.816115</ele>
        <time>2020-08-16T07:15:24.754Z</time>
      </trkpt>
      <trkpt lat="37.195947" lon="-5.951164">
        <ele>59.666684</ele>
        <time>2020-08-16T07:15:26.772Z</time>
      </trkpt>
      <trkpt lat="37.195881" lon="-5.951036">
        <ele>59.486871</ele>
        <time>2020-08-16T07:15:28.781Z</time>
      </trkpt>
      <trkpt lat="37.195817" lon="-5.950924">
        <ele>59.324321</ele>
        <time>2020-08-16T07:15:30.778Z</time>
      </trkpt>
      <trkpt lat="37.195749" lon="-5.950816">
        <ele>59.161976</ele>
        <time>2020-08-16T07:15:32.794Z</time>
      </trkpt>
      <trkpt lat="37.195669" lon="-5.950708">
        <ele>58.988055</ele>
        <time>2020-08-16T07:15:34.781Z</time>
      </trkpt>
      <trkpt lat="37.195571" lon="-5.950631">
        <ele>58.816897</ele>
        <time>2020-08-16T07:15:36.802Z</time>
      </trkpt>
      <trkpt lat="37.195448" lon="-5.950582">
        <ele>58.625853</ele>
        <time>2020-08-16T07:15:38.792Z</time>
      </trkpt>
      <trkpt lat="37.195342" lon="-5.950534">
        <ele>58.459028</ele>
        <time>2020-08-16T07:15:40.784Z</time>
      </trkpt>
      <trkpt lat="37.195233" lon="-5.950502">
        <ele>58.293306</ele>
        <time>2020-08-16T07:15:42.785Z</time>
      </trkpt>
      <trkpt lat="37.195130" lon="-5.950470">
        <ele>58.136219</ele>
        <time>2020-08-16T07:15:44.772Z</time>
      </trkpt>
      <trkpt lat="37.195018" lon="-5.950465">
        <ele>57.970304</ele>
        <time>2020-08-16T07:15:46.784Z</time>
      </trkpt>
      <trkpt lat="37.194912" lon="-5.950442">
        <ele>57.811049</ele>
        <time>2020-08-16T07:15:48.797Z</time>
      </trkpt>
      <trkpt lat="37.194807" lon="-5.950412">
        <ele>57.651627</ele>
        <time>2020-08-16T07:15:50.782Z</time>
      </trkpt>
      <trkpt lat="37.194701" lon="-5.950373">
        <ele>57.488098</ele>
        <time>2020-08-16T07:15:52.821Z</time>
      </trkpt>
      <trkpt lat="37.194602" lon="-5.950327">
        <ele>57.331816</ele>
        <time>2020-08-16T07:15:54.778Z</time>
      </trkpt>
      <trkpt lat="37.194506" lon="-5.950284">
        <ele>57.180917</ele>
        <time>2020-08-16T07:15:56.777Z</time>
      </trkpt>
      <trkpt lat="37.194409" lon="-5.950264">
        <ele>57.163740</ele>
        <time>2020-08-16T07:15:58.792Z</time>
      </trkpt>
      <trkpt lat="37.194311" lon="-5.950218">
        <ele>57.379690</ele>
        <time>2020-08-16T07:16:00.784Z</time>
      </trkpt>
      <trkpt lat="37.194209" lon="-5.950168">
        <ele>57.605701</ele>
        <time>2020-08-16T07:16:02.785Z</time>
      </trkpt>
      <trkpt lat="37.194117" lon="-5.950148">
        <ele>57.798416</ele>
        <time>2020-08-16T07:16:04.795Z</time>
      </trkpt>
      <trkpt lat="37.194013" lon="-5.950128">
        <ele>58.015577</ele>
        <time>2020-08-16T07:16:06.779Z</time>
      </trkpt>
      <trkpt lat="37.193910" lon="-5.950084">
        <ele>58.240142</ele>
        <time>2020-08-16T07:16:08.762Z</time>
      </trkpt>
      <trkpt lat="37.193798" lon="-5.950057">
        <ele>58.475535</ele>
        <time>2020-08-16T07:16:10.781Z</time>
      </trkpt>
      <trkpt lat="37.193690" lon="-5.950012">
        <ele>58.710406</ele>
        <time>2020-08-16T07:16:12.780Z</time>
      </trkpt>
      <trkpt lat="37.193583" lon="-5.949979">
        <ele>58.937823</ele>
        <time>2020-08-16T07:16:14.782Z</time>
      </trkpt>
      <trkpt lat="37.193474" lon="-5.949984">
        <ele>59.162950</ele>
        <time>2020-08-16T07:16:16.789Z</time>
      </trkpt>
      <trkpt lat="37.193368" lon="-5.949946">
        <ele>59.390481</ele>
        <time>2020-08-16T07:16:18.796Z</time>
      </trkpt>
      <trkpt lat="37.193245" lon="-5.949914">
        <ele>59.649749</ele>
        <time>2020-08-16T07:16:20.788Z</time>
      </trkpt>
      <trkpt lat="37.193127" lon="-5.949876">
        <ele>59.901189</ele>
        <time>2020-08-16T07:16:22.768Z</time>
      </trkpt>
      <trkpt lat="37.193005" lon="-5.949832">
        <ele>60.163184</ele>
        <time>2020-08-16T07:16:24.789Z</time>
      </trkpt>
      <trkpt lat="37.192888" lon="-5.949798">
        <ele>60.411060</ele>
        <time>2020-08-16T07:16:26.782Z</time>
      </trkpt>
      <trkpt lat="37.192778" lon="-5.949767">
        <ele>60.643752</ele>
        <time>2020-08-16T07:16:28.779Z</time>
      </trkpt>
      <trkpt lat="37.192668" lon="-5.949737">
        <ele>60.801084</ele>
        <time>2020-08-16T07:16:30.787Z</time>
      </trkpt>
      <trkpt lat="37.192551" lon="-5.949701">
        <ele>60.799975</ele>
        <time>2020-08-16T07:16:32.779Z</time>
      </trkpt>
      <trkpt lat="37.192437" lon="-5.949667">
        <ele>60.798896</ele>
        <time>2020-08-16T07:16:34.788Z</time>
      </trkpt>
      <trkpt lat="37.192332" lon="-5.949632">
        <ele>60.797895</ele>
        <time>2020-08-16T07:16:36.795Z</time>
      </trkpt>
      <trkpt lat="37.192229" lon="-5.949595">
        <ele>60.796909</ele>
        <time>2020-08-16T07:16:38.803Z</time>
      </trkpt>
      <trkpt lat="37.192136" lon="-5.949555">
        <ele>60.796004</ele>
        <time>2020-08-16T07:16:40.777Z</time>
      </trkpt>
      <trkpt lat="37.192003" lon="-5.949485">
        <ele>60.794676</ele>
        <time>2020-08-16T07:16:43.778Z</time>
      </trkpt>
      <trkpt lat="37.191902" lon="-5.949434">
        <ele>60.793674</ele>
        <time>2020-08-16T07:16:45.797Z</time>
      </trkpt>
      <trkpt lat="37.191754" lon="-5.949418">
        <ele>60.792306</ele>
        <time>2020-08-16T07:16:48.763Z</time>
      </trkpt>
      <trkpt lat="37.191667" lon="-5.949447">
        <ele>60.791477</ele>
        <time>2020-08-16T07:16:50.780Z</time>
      </trkpt>
      <trkpt lat="37.191567" lon="-5.949394">
        <ele>60.790478</ele>
        <time>2020-08-16T07:16:52.788Z</time>
      </trkpt>
      <trkpt lat="37.191470" lon="-5.949368">
        <ele>60.789564</ele>
        <time>2020-08-16T07:16:55.769Z</time>
      </trkpt>
      <trkpt lat="37.191350" lon="-5.949327">
        <ele>60.788419</ele>
        <time>2020-08-16T07:16:58.789Z</time>
      </trkpt>
      <trkpt lat="37.191250" lon="-5.949298">
        <ele>60.787474</ele>
        <time>2020-08-16T07:17:01.787Z</time>
      </trkpt>
      <trkpt lat="37.191156" lon="-5.949238">
        <ele>60.786503</ele>
        <time>2020-08-16T07:17:04.788Z</time>
      </trkpt>
      <trkpt lat="37.191040" lon="-5.949172">
        <ele>60.785331</ele>
        <time>2020-08-16T07:17:07.789Z</time>
      </trkpt>
      <trkpt lat="37.190952" lon="-5.949096">
        <ele>60.803553</ele>
        <time>2020-08-16T07:17:10.789Z</time>
      </trkpt>
      <trkpt lat="37.190877" lon="-5.948996">
        <ele>60.840571</ele>
        <time>2020-08-16T07:17:13.766Z</time>
      </trkpt>
      <trkpt lat="37.190827" lon="-5.948879">
        <ele>60.876358</ele>
        <time>2020-08-16T07:17:16.783Z</time>
      </trkpt>
      <trkpt lat="37.190763" lon="-5.948765">
        <ele>60.913948</ele>
        <time>2020-08-16T07:17:19.760Z</time>
      </trkpt>
      <trkpt lat="37.190690" lon="-5.948640">
        <ele>60.955723</ele>
        <time>2020-08-16T07:17:22.791Z</time>
      </trkpt>
      <trkpt lat="37.190615" lon="-5.948504">
        <ele>61.000306</ele>
        <time>2020-08-16T07:17:25.783Z</time>
      </trkpt>
      <trkpt lat="37.190526" lon="-5.948387">
        <ele>61.043909</ele>
        <time>2020-08-16T07:17:28.781Z</time>
      </trkpt>
      <trkpt lat="37.190462" lon="-5.948286">
        <ele>61.078694</ele>
        <time>2020-08-16T07:17:30.772Z</time>
      </trkpt>
      <trkpt lat="37.190392" lon="-5.948170">
        <ele>61.117918</ele>
        <time>2020-08-16T07:17:32.788Z</time>
      </trkpt>
      <trkpt lat="37.190319" lon="-5.948067">
        <ele>61.155077</ele>
        <time>2020-08-16T07:17:34.789Z</time>
      </trkpt>
      <trkpt lat="37.190231" lon="-5.947945">
        <ele>61.199437</ele>
        <time>2020-08-16T07:17:36.787Z</time>
      </trkpt>
      <trkpt lat="37.190161" lon="-5.947833">
        <ele>61.237806</ele>
        <time>2020-08-16T07:17:38.766Z</time>
      </trkpt>
      <trkpt lat="37.190070" lon="-5.947723">
        <ele>61.280550</ele>
        <time>2020-08-16T07:17:40.796Z</time>
      </trkpt>
      <trkpt lat="37.189997" lon="-5.947598">
        <ele>61.322326</ele>
        <time>2020-08-16T07:17:42.782Z</time>
      </trkpt>
      <trkpt lat="37.189933" lon="-5.947483">
        <ele>61.360137</ele>
        <time>2020-08-16T07:17:44.783Z</time>
      </trkpt>
      <trkpt lat="37.189853" lon="-5.947352">
        <ele>61.434549</ele>
        <time>2020-08-16T07:17:46.759Z</time>
      </trkpt>
      <trkpt lat="37.189757" lon="-5.947237">
        <ele>61.599253</ele>
        <time>2020-08-16T07:17:48.778Z</time>
      </trkpt>
      <trkpt lat="37.189687" lon="-5.947099">
        <ele>61.761017</ele>
        <time>2020-08-16T07:17:50.776Z</time>
      </trkpt>
      <trkpt lat="37.189602" lon="-5.946993">
        <ele>61.909730</ele>
        <time>2020-08-16T07:17:52.788Z</time>
      </trkpt>
      <trkpt lat="37.189524" lon="-5.946875">
        <ele>62.061341</ele>
        <time>2020-08-16T07:17:54.797Z</time>
      </trkpt>
      <trkpt lat="37.189454" lon="-5.946752">
        <ele>62.210806</ele>
        <time>2020-08-16T07:17:56.790Z</time>
      </trkpt>
      <trkpt lat="37.189359" lon="-5.946658">
        <ele>62.360947</ele>
        <time>2020-08-16T07:17:58.786Z</time>
      </trkpt>
      <trkpt lat="37.189276" lon="-5.946529">
        <ele>62.524906</ele>
        <time>2020-08-16T07:18:00.786Z</time>
      </trkpt>
      <trkpt lat="37.189196" lon="-5.946401">
        <ele>62.685772</ele>
        <time>2020-08-16T07:18:02.783Z</time>
      </trkpt>
      <trkpt lat="37.189100" lon="-5.946284">
        <ele>62.851848</ele>
        <time>2020-08-16T07:18:04.776Z</time>
      </trkpt>
      <trkpt lat="37.189024" lon="-5.946160">
        <ele>63.006545</ele>
        <time>2020-08-16T07:18:06.784Z</time>
      </trkpt>
      <trkpt lat="37.188950" lon="-5.946041">
        <ele>63.155813</ele>
        <time>2020-08-16T07:18:08.766Z</time>
      </trkpt>
      <trkpt lat="37.188876" lon="-5.945922">
        <ele>63.305082</ele>
        <time>2020-08-16T07:18:10.780Z</time>
      </trkpt>
      <trkpt lat="37.188807" lon="-5.945790">
        <ele>63.461191</ele>
        <time>2020-08-16T07:18:12.791Z</time>
      </trkpt>
      <trkpt lat="37.188717" lon="-5.945678">
        <ele>63.618489</ele>
        <time>2020-08-16T07:18:14.783Z</time>
      </trkpt>
      <trkpt lat="37.188637" lon="-5.945561">
        <ele>63.495837</ele>
        <time>2020-08-16T07:18:16.786Z</time>
      </trkpt>
      <trkpt lat="37.188559" lon="-5.945446">
        <ele>63.361996</ele>
        <time>2020-08-16T07:18:18.789Z</time>
      </trkpt>
      <trkpt lat="37.188492" lon="-5.945337">
        <ele>63.239995</ele>
        <time>2020-08-16T07:18:20.781Z</time>
      </trkpt>
      <trkpt lat="37.188425" lon="-5.945208">
        <ele>63.103531</ele>
        <time>2020-08-16T07:18:22.785Z</time>
      </trkpt>
      <trkpt lat="37.188337" lon="-5.945082">
        <ele>62.955042</ele>
        <time>2020-08-16T07:18:24.756Z</time>
      </trkpt>
      <trkpt lat="37.188264" lon="-5.944962">
        <ele>62.821244</ele>
        <time>2020-08-16T07:18:26.802Z</time>
      </trkpt>
      <trkpt lat="37.188191" lon="-5.944822">
        <ele>62.672970</ele>
        <time>2020-08-16T07:18:28.781Z</time>
      </trkpt>
      <trkpt lat="37.188112" lon="-5.944710">
        <ele>62.540407</ele>
        <time>2020-08-16T07:18:30.793Z</time>
      </trkpt>
      <trkpt lat="37.188037" lon="-5.944596">
        <ele>62.409389</ele>
        <time>2020-08-16T07:18:32.795Z</time>
      </trkpt>
      <trkpt lat="37.187955" lon="-5.944477">
        <ele>62.269961</ele>
        <time>2020-08-16T07:18:34.776Z</time>
      </trkpt>
      <trkpt lat="37.187876" lon="-5.944363">
        <ele>62.136066</ele>
        <time>2020-08-16T07:18:36.781Z</time>
      </trkpt>
      <trkpt lat="37.187801" lon="-5.944254">
        <ele>62.008433</ele>
        <time>2020-08-16T07:18:38.798Z</time>
      </trkpt>
      <trkpt lat="37.187726" lon="-5.944147">
        <ele>61.882136</ele>
        <time>2020-08-16T07:18:40.781Z</time>
      </trkpt>
      <trkpt lat="37.187651" lon="-5.944038">
        <ele>61.754503</ele>
        <time>2020-08-16T07:18:42.782Z</time>
      </trkpt>
      <trkpt lat="37.187577" lon="-5.943929">
        <ele>61.627595</ele>
        <time>2020-08-16T07:18:44.811Z</time>
      </trkpt>
      <trkpt lat="37.187506" lon="-5.943825">
        <ele>61.630487</ele>
        <time>2020-08-16T07:18:46.784Z</time>
      </trkpt>
      <trkpt lat="37.187430" lon="-5.943709">
        <ele>61.636484</ele>
        <time>2020-08-16T07:18:48.784Z</time>
      </trkpt>
      <trkpt lat="37.187360" lon="-5.943593">
        <ele>61.642295</ele>
        <time>2020-08-16T07:18:50.789Z</time>
      </trkpt>
      <trkpt lat="37.187286" lon="-5.943494">
        <ele>61.647716</ele>
        <time>2020-08-16T07:18:52.781Z</time>
      </trkpt>
      <trkpt lat="37.187211" lon="-5.943391">
        <ele>61.653288</ele>
        <time>2020-08-16T07:18:54.810Z</time>
      </trkpt>
      <trkpt lat="37.187146" lon="-5.943295">
        <ele>61.658319</ele>
        <time>2020-08-16T07:18:56.798Z</time>
      </trkpt>
      <trkpt lat="37.187072" lon="-5.943200">
        <ele>61.663624</ele>
        <time>2020-08-16T07:18:58.773Z</time>
      </trkpt>
      <trkpt lat="37.187000" lon="-5.943099">
        <ele>61.669036</ele>
        <time>2020-08-16T07:19:00.789Z</time>
      </trkpt>
      <trkpt lat="37.186938" lon="-5.942981">
        <ele>61.674680</ele>
        <time>2020-08-16T07:19:02.779Z</time>
      </trkpt>
      <trkpt lat="37.186874" lon="-5.942867">
        <ele>61.680249</ele>
        <time>2020-08-16T07:19:04.764Z</time>
      </trkpt>
      <trkpt lat="37.186800" lon="-5.942770">
        <ele>61.685612</ele>
        <time>2020-08-16T07:19:06.787Z</time>
      </trkpt>
      <trkpt lat="37.186725" lon="-5.942665">
        <ele>61.691243</ele>
        <time>2020-08-16T07:19:08.778Z</time>
      </trkpt>
      <trkpt lat="37.186664" lon="-5.942553">
        <ele>61.696660</ele>
        <time>2020-08-16T07:19:10.818Z</time>
      </trkpt>
      <trkpt lat="37.186579" lon="-5.942474">
        <ele>61.701961</ele>
        <time>2020-08-16T07:19:12.782Z</time>
      </trkpt>
      <trkpt lat="37.186497" lon="-5.942377">
        <ele>61.707609</ele>
        <time>2020-08-16T07:19:14.790Z</time>
      </trkpt>
      <trkpt lat="37.186409" lon="-5.942296">
        <ele>61.713079</ele>
        <time>2020-08-16T07:19:16.789Z</time>
      </trkpt>
      <trkpt lat="37.186317" lon="-5.942209">
        <ele>61.747142</ele>
        <time>2020-08-16T07:19:18.809Z</time>
      </trkpt>
      <trkpt lat="37.186216" lon="-5.942161">
        <ele>61.795440</ele>
        <time>2020-08-16T07:19:20.788Z</time>
      </trkpt>
      <trkpt lat="37.186125" lon="-5.942078">
        <ele>61.845747</ele>
        <time>2020-08-16T07:19:22.750Z</time>
      </trkpt>
      <trkpt lat="37.186037" lon="-5.942011">
        <ele>61.891777</ele>
        <time>2020-08-16T07:19:24.807Z</time>
      </trkpt>
      <trkpt lat="37.185943" lon="-5.941942">
        <ele>61.940476</ele>
        <time>2020-08-16T07:19:26.784Z</time>
      </trkpt>
      <trkpt lat="37.185853" lon="-5.941885">
        <ele>61.985559</ele>
        <time>2020-08-16T07:19:28.753Z</time>
      </trkpt>
      <trkpt lat="37.185763" lon="-5.941820">
        <ele>62.031996</ele>
        <time>2020-08-16T07:19:30.768Z</time>
      </trkpt>
      <trkpt lat="37.185674" lon="-5.941718">
        <ele>62.085894</ele>
        <time>2020-08-16T07:19:32.786Z</time>
      </trkpt>
      <trkpt lat="37.185590" lon="-5.941636">
        <ele>62.133485</ele>
        <time>2020-08-16T07:19:34.784Z</time>
      </trkpt>
      <trkpt lat="37.185479" lon="-5.941551">
        <ele>62.191635</ele>
        <time>2020-08-16T07:19:37.783Z</time>
      </trkpt>
      <trkpt lat="37.185354" lon="-5.941525">
        <ele>62.248300</ele>
        <time>2020-08-16T07:19:40.789Z</time>
      </trkpt>
      <trkpt lat="37.185262" lon="-5.941514">
        <ele>62.289631</ele>
        <time>2020-08-16T07:19:42.779Z</time>
      </trkpt>
      <trkpt lat="37.185165" lon="-5.941489">
        <ele>62.333916</ele>
        <time>2020-08-16T07:19:44.765Z</time>
      </trkpt>
      <trkpt lat="37.185062" lon="-5.941459">
        <ele>62.381204</ele>
        <time>2020-08-16T07:19:46.788Z</time>
      </trkpt>
      <trkpt lat="37.184929" lon="-5.941451">
        <ele>62.440753</ele>
        <time>2020-08-16T07:19:49.778Z</time>
      </trkpt>
      <trkpt lat="37.184828" lon="-5.941444">
        <ele>62.485991</ele>
        <time>2020-08-16T07:19:51.774Z</time>
      </trkpt>
      <trkpt lat="37.184712" lon="-5.941431">
        <ele>62.489692</ele>
        <time>2020-08-16T07:19:53.781Z</time>
      </trkpt>
      <trkpt lat="37.184603" lon="-5.941423">
        <ele>62.410130</ele>
        <time>2020-08-16T07:19:55.773Z</time>
      </trkpt>
      <trkpt lat="37.184489" lon="-5.941403">
        <ele>62.326253</ele>
        <time>2020-08-16T07:19:57.787Z</time>
      </trkpt>
      <trkpt lat="37.184373" lon="-5.941402">
        <ele>62.241725</ele>
        <time>2020-08-16T07:19:59.789Z</time>
      </trkpt>
      <trkpt lat="37.184266" lon="-5.941408">
        <ele>62.163679</ele>
        <time>2020-08-16T07:20:01.792Z</time>
      </trkpt>
      <trkpt lat="37.184149" lon="-5.941380">
        <ele>62.076887</ele>
        <time>2020-08-16T07:20:03.781Z</time>
      </trkpt>
      <trkpt lat="37.184024" lon="-5.941361">
        <ele>61.985137</ele>
        <time>2020-08-16T07:20:05.787Z</time>
      </trkpt>
      <trkpt lat="37.183908" lon="-5.941345">
        <ele>61.900102</ele>
        <time>2020-08-16T07:20:07.780Z</time>
      </trkpt>
      <trkpt lat="37.183782" lon="-5.941310">
        <ele>61.806067</ele>
        <time>2020-08-16T07:20:09.784Z</time>
      </trkpt>
      <trkpt lat="37.183670" lon="-5.941253">
        <ele>61.718002</ele>
        <time>2020-08-16T07:20:11.766Z</time>
      </trkpt>
      <trkpt lat="37.183560" lon="-5.941203">
        <ele>61.632753</ele>
        <time>2020-08-16T07:20:13.786Z</time>
      </trkpt>
      <trkpt lat="37.183431" lon="-5.941160">
        <ele>61.535495</ele>
        <time>2020-08-16T07:20:15.791Z</time>
      </trkpt>
      <trkpt lat="37.183309" lon="-5.941100">
        <ele>61.440016</ele>
        <time>2020-08-16T07:20:17.780Z</time>
      </trkpt>
      <trkpt lat="37.183199" lon="-5.941044">
        <ele>61.353520</ele>
        <time>2020-08-16T07:20:19.783Z</time>
      </trkpt>
      <trkpt lat="37.183077" lon="-5.940981">
        <ele>61.257391</ele>
        <time>2020-08-16T07:20:21.784Z</time>
      </trkpt>
      <trkpt lat="37.182970" lon="-5.940908">
        <ele>61.127169</ele>
        <time>2020-08-16T07:20:23.782Z</time>
      </trkpt>
      <trkpt lat="37.182841" lon="-5.940885">
        <ele>60.934729</ele>
        <time>2020-08-16T07:20:25.795Z</time>
      </trkpt>
      <trkpt lat="37.182709" lon="-5.940816">
        <ele>60.723539</ele>
        <time>2020-08-16T07:20:27.777Z</time>
      </trkpt>
      <trkpt lat="37.182589" lon="-5.940778">
        <ele>60.540750</ele>
        <time>2020-08-16T07:20:29.784Z</time>
      </trkpt>
      <trkpt lat="37.182463" lon="-5.940747">
        <ele>60.351111</ele>
        <time>2020-08-16T07:20:31.772Z</time>
      </trkpt>
      <trkpt lat="37.182346" lon="-5.940696">
        <ele>60.168182</ele>
        <time>2020-08-16T07:20:33.784Z</time>
      </trkpt>
      <trkpt lat="37.182220" lon="-5.940647">
        <ele>59.973358</ele>
        <time>2020-08-16T07:20:35.792Z</time>
      </trkpt>
      <trkpt lat="37.182097" lon="-5.940590">
        <ele>59.779705</ele>
        <time>2020-08-16T07:20:37.782Z</time>
      </trkpt>
      <trkpt lat="37.181980" lon="-5.940531">
        <ele>59.593475</ele>
        <time>2020-08-16T07:20:39.784Z</time>
      </trkpt>
      <trkpt lat="37.181876" lon="-5.940469">
        <ele>59.423426</ele>
        <time>2020-08-16T07:20:41.768Z</time>
      </trkpt>
      <trkpt lat="37.181759" lon="-5.940413">
        <ele>59.238483</ele>
        <time>2020-08-16T07:20:43.788Z</time>
      </trkpt>
      <trkpt lat="37.181640" lon="-5.940342">
        <ele>59.043878</ele>
        <time>2020-08-16T07:20:45.784Z</time>
      </trkpt>
      <trkpt lat="37.181529" lon="-5.940297">
        <ele>58.871595</ele>
        <time>2020-08-16T07:20:47.788Z</time>
      </trkpt>
      <trkpt lat="37.181417" lon="-5.940256">
        <ele>58.699284</ele>
        <time>2020-08-16T07:20:49.789Z</time>
      </trkpt>
      <trkpt lat="37.181316" lon="-5.940204">
        <ele>58.556464</ele>
        <time>2020-08-16T07:20:51.791Z</time>
      </trkpt>
      <trkpt lat="37.181207" lon="-5.940144">
        <ele>58.604428</ele>
        <time>2020-08-16T07:20:53.786Z</time>
      </trkpt>
      <trkpt lat="37.181094" lon="-5.940103">
        <ele>58.651830</ele>
        <time>2020-08-16T07:20:55.784Z</time>
      </trkpt>
      <trkpt lat="37.180995" lon="-5.940058">
        <ele>58.694261</ele>
        <time>2020-08-16T07:20:57.785Z</time>
      </trkpt>
      <trkpt lat="37.180871" lon="-5.939997">
        <ele>58.747932</ele>
        <time>2020-08-16T07:20:59.783Z</time>
      </trkpt>
      <trkpt lat="37.180770" lon="-5.939955">
        <ele>58.790810</ele>
        <time>2020-08-16T07:21:01.788Z</time>
      </trkpt>
      <trkpt lat="37.180668" lon="-5.939876">
        <ele>58.839110</ele>
        <time>2020-08-16T07:21:03.791Z</time>
      </trkpt>
      <trkpt lat="37.180557" lon="-5.939801">
        <ele>58.889911</ele>
        <time>2020-08-16T07:21:05.762Z</time>
      </trkpt>
      <trkpt lat="37.180447" lon="-5.939706">
        <ele>58.943720</ele>
        <time>2020-08-16T07:21:07.787Z</time>
      </trkpt>
      <trkpt lat="37.180336" lon="-5.939630">
        <ele>58.994674</ele>
        <time>2020-08-16T07:21:09.795Z</time>
      </trkpt>
      <trkpt lat="37.180226" lon="-5.939537">
        <ele>59.048121</ele>
        <time>2020-08-16T07:21:11.785Z</time>
      </trkpt>
      <trkpt lat="37.180103" lon="-5.939460">
        <ele>59.103512</ele>
        <time>2020-08-16T07:21:13.792Z</time>
      </trkpt>
      <trkpt lat="37.179991" lon="-5.939366">
        <ele>59.157808</ele>
        <time>2020-08-16T07:21:15.792Z</time>
      </trkpt>
      <trkpt lat="37.179890" lon="-5.939285">
        <ele>59.206108</ele>
        <time>2020-08-16T07:21:17.788Z</time>
      </trkpt>
      <trkpt lat="37.179776" lon="-5.939231">
        <ele>59.255212</ele>
        <time>2020-08-16T07:21:19.787Z</time>
      </trkpt>
      <trkpt lat="37.179661" lon="-5.939117">
        <ele>59.314048</ele>
        <time>2020-08-16T07:21:21.786Z</time>
      </trkpt>
      <trkpt lat="37.179559" lon="-5.939065">
        <ele>59.358152</ele>
        <time>2020-08-16T07:21:23.780Z</time>
      </trkpt>
      <trkpt lat="37.179438" lon="-5.938988">
        <ele>59.412500</ele>
        <time>2020-08-16T07:21:25.783Z</time>
      </trkpt>
      <trkpt lat="37.179340" lon="-5.938931">
        <ele>59.455770</ele>
        <time>2020-08-16T07:21:27.777Z</time>
      </trkpt>
      <trkpt lat="37.179216" lon="-5.938834">
        <ele>59.514303</ele>
        <time>2020-08-16T07:21:29.788Z</time>
      </trkpt>
      <trkpt lat="37.179107" lon="-5.938768">
        <ele>59.562785</ele>
        <time>2020-08-16T07:21:31.776Z</time>
      </trkpt>
      <trkpt lat="37.178987" lon="-5.938674">
        <ele>59.619452</ele>
        <time>2020-08-16T07:21:33.785Z</time>
      </trkpt>
      <trkpt lat="37.178877" lon="-5.938583">
        <ele>59.672230</ele>
        <time>2020-08-16T07:21:35.785Z</time>
      </trkpt>
      <trkpt lat="37.178750" lon="-5.938513">
        <ele>59.727797</ele>
        <time>2020-08-16T07:21:37.786Z</time>
      </trkpt>
      <trkpt lat="37.178624" lon="-5.938458">
        <ele>59.781239</ele>
        <time>2020-08-16T07:21:39.785Z</time>
      </trkpt>
      <trkpt lat="37.178507" lon="-5.938410">
        <ele>59.830550</ele>
        <time>2020-08-16T07:21:41.786Z</time>
      </trkpt>
      <trkpt lat="37.178396" lon="-5.938335">
        <ele>59.881051</ele>
        <time>2020-08-16T07:21:43.785Z</time>
      </trkpt>
      <trkpt lat="37.178279" lon="-5.938267">
        <ele>59.932704</ele>
        <time>2020-08-16T07:21:45.791Z</time>
      </trkpt>
      <trkpt lat="37.178172" lon="-5.938185">
        <ele>59.982927</ele>
        <time>2020-08-16T07:21:47.780Z</time>
      </trkpt>
      <trkpt lat="37.178055" lon="-5.938171">
        <ele>59.998141</ele>
        <time>2020-08-16T07:21:49.789Z</time>
      </trkpt>
      <trkpt lat="37.177939" lon="-5.938103">
        <ele>59.998545</ele>
        <time>2020-08-16T07:21:51.781Z</time>
      </trkpt>
      <trkpt lat="37.177823" lon="-5.938013">
        <ele>59.998974</ele>
        <time>2020-08-16T07:21:53.788Z</time>
      </trkpt>
      <trkpt lat="37.177710" lon="-5.937953">
        <ele>59.999361</ele>
        <time>2020-08-16T07:21:55.785Z</time>
      </trkpt>
      <trkpt lat="37.177618" lon="-5.937833">
        <ele>59.999780</ele>
        <time>2020-08-16T07:21:57.790Z</time>
      </trkpt>
      <trkpt lat="37.177498" lon="-5.937788">
        <ele>60.000174</ele>
        <time>2020-08-16T07:21:59.790Z</time>
      </trkpt>
      <trkpt lat="37.177388" lon="-5.937703">
        <ele>60.000582</ele>
        <time>2020-08-16T07:22:01.787Z</time>
      </trkpt>
      <trkpt lat="37.177269" lon="-5.937633">
        <ele>60.000996</ele>
        <time>2020-08-16T07:22:03.793Z</time>
      </trkpt>
      <trkpt lat="37.177151" lon="-5.937581">
        <ele>60.001390</ele>
        <time>2020-08-16T07:22:05.779Z</time>
      </trkpt>
      <trkpt lat="37.177027" lon="-5.937539">
        <ele>60.001795</ele>
        <time>2020-08-16T07:22:07.778Z</time>
      </trkpt>
      <trkpt lat="37.176922" lon="-5.937453">
        <ele>60.002190</ele>
        <time>2020-08-16T07:22:09.764Z</time>
      </trkpt>
      <trkpt lat="37.176823" lon="-5.937371">
        <ele>60.002564</ele>
        <time>2020-08-16T07:22:11.762Z</time>
      </trkpt>
      <trkpt lat="37.176709" lon="-5.937309">
        <ele>60.002956</ele>
        <time>2020-08-16T07:22:13.783Z</time>
      </trkpt>
      <trkpt lat="37.176605" lon="-5.937231">
        <ele>60.003338</ele>
        <time>2020-08-16T07:22:15.778Z</time>
      </trkpt>
      <trkpt lat="37.176495" lon="-5.937194">
        <ele>60.014226</ele>
        <time>2020-08-16T07:22:17.769Z</time>
      </trkpt>
      <trkpt lat="37.176376" lon="-5.937130">
        <ele>60.045655</ele>
        <time>2020-08-16T07:22:19.800Z</time>
      </trkpt>
      <trkpt lat="37.176269" lon="-5.937054">
        <ele>60.075502</ele>
        <time>2020-08-16T07:22:21.775Z</time>
      </trkpt>
      <trkpt lat="37.176158" lon="-5.936966">
        <ele>60.107375</ele>
        <time>2020-08-16T07:22:23.784Z</time>
      </trkpt>
      <trkpt lat="37.176046" lon="-5.936866">
        <ele>60.140742</ele>
        <time>2020-08-16T07:22:25.784Z</time>
      </trkpt>
      <trkpt lat="37.175946" lon="-5.936777">
        <ele>60.170503</ele>
        <time>2020-08-16T07:22:27.780Z</time>
      </trkpt>
      <trkpt lat="37.175867" lon="-5.936713">
        <ele>60.193330</ele>
        <time>2020-08-16T07:22:29.790Z</time>
      </trkpt>
      <trkpt lat="37.175747" lon="-5.936646">
        <ele>60.225214</ele>
        <time>2020-08-16T07:22:32.785Z</time>
      </trkpt>
      <trkpt lat="37.175649" lon="-5.936552">
        <ele>60.255157</ele>
        <time>2020-08-16T07:22:35.784Z</time>
      </trkpt>
      <trkpt lat="37.175536" lon="-5.936486">
        <ele>60.285414</ele>
        <time>2020-08-16T07:22:39.804Z</time>
      </trkpt>
      <trkpt lat="37.175453" lon="-5.936404">
        <ele>60.311057</ele>
        <time>2020-08-16T07:22:42.783Z</time>
      </trkpt>
      <trkpt lat="37.175366" lon="-5.936340">
        <ele>60.335538</ele>
        <time>2020-08-16T07:22:45.775Z</time>
      </trkpt>
      <trkpt lat="37.175286" lon="-5.936271">
        <ele>60.359103</ele>
        <time>2020-08-16T07:22:48.772Z</time>
      </trkpt>
      <trkpt lat="37.175204" lon="-5.936199">
        <ele>60.383398</ele>
        <time>2020-08-16T07:22:51.779Z</time>
      </trkpt>
      <trkpt lat="37.175119" lon="-5.936117">
        <ele>60.409424</ele>
        <time>2020-08-16T07:22:54.776Z</time>
      </trkpt>
      <trkpt lat="37.175042" lon="-5.936052">
        <ele>60.431952</ele>
        <time>2020-08-16T07:22:57.774Z</time>
      </trkpt>
      <trkpt lat="37.174960" lon="-5.935967">
        <ele>60.511221</ele>
        <time>2020-08-16T07:23:00.786Z</time>
      </trkpt>
      <trkpt lat="37.174873" lon="-5.935862">
        <ele>60.629661</ele>
        <time>2020-08-16T07:23:03.767Z</time>
      </trkpt>
      <trkpt lat="37.174780" lon="-5.935770">
        <ele>60.745861</ele>
        <time>2020-08-16T07:23:06.790Z</time>
      </trkpt>
      <trkpt lat="37.174676" lon="-5.935681">
        <ele>60.869380</ele>
        <time>2020-08-16T07:23:09.791Z</time>
      </trkpt>
      <trkpt lat="37.174602" lon="-5.935609">
        <ele>60.961260</ele>
        <time>2020-08-16T07:23:11.781Z</time>
      </trkpt>
      <trkpt lat="37.174531" lon="-5.935531">
        <ele>61.053852</ele>
        <time>2020-08-16T07:23:13.796Z</time>
      </trkpt>
      <trkpt lat="37.174432" lon="-5.935456">
        <ele>61.167325</ele>
        <time>2020-08-16T07:23:15.786Z</time>
      </trkpt>
      <trkpt lat="37.174311" lon="-5.935399">
        <ele>61.294148</ele>
        <time>2020-08-16T07:23:17.766Z</time>
      </trkpt>
      <trkpt lat="37.174200" lon="-5.935310">
        <ele>61.423400</ele>
        <time>2020-08-16T07:23:19.794Z</time>
      </trkpt>
      <trkpt lat="37.174067" lon="-5.935209">
        <ele>61.575942</ele>
        <time>2020-08-16T07:23:21.789Z</time>
      </trkpt>
      <trkpt lat="37.173934" lon="-5.935082">
        <ele>61.739933</ele>
        <time>2020-08-16T07:23:23.782Z</time>
      </trkpt>
      <trkpt lat="37.173806" lon="-5.934961">
        <ele>61.897180</ele>
        <time>2020-08-16T07:23:25.790Z</time>
      </trkpt>
      <trkpt lat="37.173658" lon="-5.934881">
        <ele>62.055306</ele>
        <time>2020-08-16T07:23:27.796Z</time>
      </trkpt>
      <trkpt lat="37.173578" lon="-5.934827">
        <ele>62.144442</ele>
        <time>2020-08-16T07:23:28.759Z</time>
      </trkpt>
      <trkpt lat="37.173438" lon="-5.934758">
        <ele>62.094204</ele>
        <time>2020-08-16T07:23:30.755Z</time>
      </trkpt>
      <trkpt lat="37.173295" lon="-5.934675">
        <ele>61.896750</ele>
        <time>2020-08-16T07:23:32.772Z</time>
      </trkpt>
      <trkpt lat="37.173149" lon="-5.934601">
        <ele>61.699415</ele>
        <time>2020-08-16T07:23:34.803Z</time>
      </trkpt>
      <trkpt lat="37.173013" lon="-5.934537">
        <ele>61.517383</ele>
        <time>2020-08-16T07:23:36.780Z</time>
      </trkpt>
      <trkpt lat="37.172889" lon="-5.934473">
        <ele>61.349350</ele>
        <time>2020-08-16T07:23:38.787Z</time>
      </trkpt>
      <trkpt lat="37.172771" lon="-5.934382">
        <ele>61.175776</ele>
        <time>2020-08-16T07:23:40.790Z</time>
      </trkpt>
      <trkpt lat="37.172644" lon="-5.934340">
        <ele>61.011178</ele>
        <time>2020-08-16T07:23:42.764Z</time>
      </trkpt>
      <trkpt lat="37.172532" lon="-5.934290">
        <ele>60.862197</ele>
        <time>2020-08-16T07:23:44.763Z</time>
      </trkpt>
      <trkpt lat="37.172409" lon="-5.934234">
        <ele>60.698216</ele>
        <time>2020-08-16T07:23:46.790Z</time>
      </trkpt>
      <trkpt lat="37.172281" lon="-5.934171">
        <ele>60.525903</ele>
        <time>2020-08-16T07:23:48.782Z</time>
      </trkpt>
      <trkpt lat="37.172174" lon="-5.934143">
        <ele>60.388920</ele>
        <time>2020-08-16T07:23:50.773Z</time>
      </trkpt>
      <trkpt lat="37.172065" lon="-5.934082">
        <ele>60.239348</ele>
        <time>2020-08-16T07:23:52.790Z</time>
      </trkpt>
      <trkpt lat="37.171965" lon="-5.934003">
        <ele>60.091258</ele>
        <time>2020-08-16T07:23:54.768Z</time>
      </trkpt>
      <trkpt lat="37.171844" lon="-5.933961">
        <ele>59.919249</ele>
        <time>2020-08-16T07:23:56.752Z</time>
      </trkpt>
      <trkpt lat="37.171738" lon="-5.933892">
        <ele>59.640990</ele>
        <time>2020-08-16T07:23:58.778Z</time>
      </trkpt>
      <trkpt lat="37.171623" lon="-5.933854">
        <ele>59.363876</ele>
        <time>2020-08-16T07:24:00.780Z</time>
      </trkpt>
      <trkpt lat="37.171516" lon="-5.933803">
        <ele>59.097159</ele>
        <time>2020-08-16T07:24:02.786Z</time>
      </trkpt>
      <trkpt lat="37.171401" lon="-5.933744">
        <ele>58.807650</ele>
        <time>2020-08-16T07:24:04.785Z</time>
      </trkpt>
      <trkpt lat="37.171290" lon="-5.933673">
        <ele>58.517330</ele>
        <time>2020-08-16T07:24:06.790Z</time>
      </trkpt>
      <trkpt lat="37.171171" lon="-5.933628">
        <ele>58.227712</ele>
        <time>2020-08-16T07:24:08.784Z</time>
      </trkpt>
      <trkpt lat="37.171072" lon="-5.933588">
        <ele>57.985354</ele>
        <time>2020-08-16T07:24:10.789Z</time>
      </trkpt>
      <trkpt lat="37.170952" lon="-5.933507">
        <ele>57.667839</ele>
        <time>2020-08-16T07:24:12.800Z</time>
      </trkpt>
      <trkpt lat="37.170823" lon="-5.933450">
        <ele>57.349146</ele>
        <time>2020-08-16T07:24:14.771Z</time>
      </trkpt>
      <trkpt lat="37.170703" lon="-5.933413">
        <ele>57.061197</ele>
        <time>2020-08-16T07:24:16.778Z</time>
      </trkpt>
      <trkpt lat="37.170583" lon="-5.933340">
        <ele>56.750443</ele>
        <time>2020-08-16T07:24:18.768Z</time>
      </trkpt>
      <trkpt lat="37.170463" lon="-5.933281">
        <ele>56.450115</ele>
        <time>2020-08-16T07:24:20.768Z</time>
      </trkpt>
      <trkpt lat="37.170343" lon="-5.933213">
        <ele>56.143297</ele>
        <time>2020-08-16T07:24:22.789Z</time>
      </trkpt>
      <trkpt lat="37.170221" lon="-5.933157">
        <ele>55.840584</ele>
        <time>2020-08-16T07:24:24.791Z</time>
      </trkpt>
      <trkpt lat="37.170114" lon="-5.933089">
        <ele>55.780428</ele>
        <time>2020-08-16T07:24:26.787Z</time>
      </trkpt>
      <trkpt lat="37.169996" lon="-5.933018">
        <ele>55.812311</ele>
        <time>2020-08-16T07:24:28.785Z</time>
      </trkpt>
      <trkpt lat="37.169880" lon="-5.932963">
        <ele>55.842523</ele>
        <time>2020-08-16T07:24:30.773Z</time>
      </trkpt>
      <trkpt lat="37.169756" lon="-5.932919">
        <ele>55.873918</ele>
        <time>2020-08-16T07:24:32.771Z</time>
      </trkpt>
      <trkpt lat="37.169622" lon="-5.932856">
        <ele>55.908782</ele>
        <time>2020-08-16T07:24:34.765Z</time>
      </trkpt>
      <trkpt lat="37.169499" lon="-5.932801">
        <ele>55.940595</ele>
        <time>2020-08-16T07:24:36.775Z</time>
      </trkpt>
      <trkpt lat="37.169374" lon="-5.932733">
        <ele>55.973788</ele>
        <time>2020-08-16T07:24:38.786Z</time>
      </trkpt>
      <trkpt lat="37.169254" lon="-5.932682">
        <ele>56.004656</ele>
        <time>2020-08-16T07:24:40.780Z</time>
      </trkpt>
      <trkpt lat="37.169133" lon="-5.932631">
        <ele>56.035754</ele>
        <time>2020-08-16T07:24:42.783Z</time>
      </trkpt>
      <trkpt lat="37.169016" lon="-5.932574">
        <ele>56.066332</ele>
        <time>2020-08-16T07:24:44.780Z</time>
      </trkpt>
      <trkpt lat="37.168906" lon="-5.932519">
        <ele>56.095181</ele>
        <time>2020-08-16T07:24:46.776Z</time>
      </trkpt>
      <trkpt lat="37.168799" lon="-5.932456">
        <ele>56.123977</ele>
        <time>2020-08-16T07:24:48.761Z</time>
      </trkpt>
      <trkpt lat="37.168685" lon="-5.932399">
        <ele>56.153875</ele>
        <time>2020-08-16T07:24:50.747Z</time>
      </trkpt>
      <trkpt lat="37.168572" lon="-5.932340">
        <ele>56.183694</ele>
        <time>2020-08-16T07:24:52.784Z</time>
      </trkpt>
      <trkpt lat="37.168464" lon="-5.932290">
        <ele>56.273095</ele>
        <time>2020-08-16T07:24:54.784Z</time>
      </trkpt>
      <trkpt lat="37.168356" lon="-5.932231">
        <ele>56.428867</ele>
        <time>2020-08-16T07:24:56.764Z</time>
      </trkpt>
      <trkpt lat="37.168251" lon="-5.932173">
        <ele>56.580581</ele>
        <time>2020-08-16T07:24:58.785Z</time>
      </trkpt>
      <trkpt lat="37.168144" lon="-5.932120">
        <ele>56.732708</ele>
        <time>2020-08-16T07:25:00.780Z</time>
      </trkpt>
      <trkpt lat="37.168038" lon="-5.932062">
        <ele>56.885634</ele>
        <time>2020-08-16T07:25:02.767Z</time>
      </trkpt>
      <trkpt lat="37.167931" lon="-5.931989">
        <ele>57.046696</ele>
        <time>2020-08-16T07:25:04.786Z</time>
      </trkpt>
      <trkpt lat="37.167820" lon="-5.931938">
        <ele>57.203018</ele>
        <time>2020-08-16T07:25:06.783Z</time>
      </trkpt>
      <trkpt lat="37.167711" lon="-5.931875">
        <ele>57.361719</ele>
        <time>2020-08-16T07:25:08.792Z</time>
      </trkpt>
      <trkpt lat="37.167603" lon="-5.931811">
        <ele>57.519668</ele>
        <time>2020-08-16T07:25:10.784Z</time>
      </trkpt>
      <trkpt lat="37.167495" lon="-5.931751">
        <ele>57.675864</ele>
        <time>2020-08-16T07:25:12.787Z</time>
      </trkpt>
      <trkpt lat="37.167380" lon="-5.931706">
        <ele>57.835168</ele>
        <time>2020-08-16T07:25:14.786Z</time>
      </trkpt>
      <trkpt lat="37.167276" lon="-5.931683">
        <ele>57.974823</ele>
        <time>2020-08-16T07:25:16.761Z</time>
      </trkpt>
      <trkpt lat="37.167185" lon="-5.931664">
        <ele>58.096820</ele>
        <time>2020-08-16T07:25:18.783Z</time>
      </trkpt>
      <trkpt lat="37.167068" lon="-5.931609">
        <ele>58.262047</ele>
        <time>2020-08-16T07:25:20.783Z</time>
      </trkpt>
      <trkpt lat="37.166951" lon="-5.931524">
        <ele>58.440833</ele>
        <time>2020-08-16T07:25:23.804Z</time>
      </trkpt>
      <trkpt lat="37.166875" lon="-5.931461">
        <ele>58.561288</ele>
        <time>2020-08-16T07:25:25.789Z</time>
      </trkpt>
      <trkpt lat="37.166790" lon="-5.931406">
        <ele>58.497480</ele>
        <time>2020-08-16T07:25:27.775Z</time>
      </trkpt>
      <trkpt lat="37.166698" lon="-5.931335">
        <ele>58.396019</ele>
        <time>2020-08-16T07:25:29.767Z</time>
      </trkpt>
      <trkpt lat="37.166614" lon="-5.931273">
        <ele>58.304471</ele>
        <time>2020-08-16T07:25:31.784Z</time>
      </trkpt>
      <trkpt lat="37.166525" lon="-5.931209">
        <ele>58.208110</ele>
        <time>2020-08-16T07:25:33.787Z</time>
      </trkpt>
      <trkpt lat="37.166437" lon="-5.931151">
        <ele>58.114734</ele>
        <time>2020-08-16T07:25:35.785Z</time>
      </trkpt>
      <trkpt lat="37.166323" lon="-5.931140">
        <ele>58.007325</ele>
        <time>2020-08-16T07:25:38.774Z</time>
      </trkpt>
      <trkpt lat="37.166189" lon="-5.931163">
        <ele>57.880273</ele>
        <time>2020-08-16T07:25:41.759Z</time>
      </trkpt>
      <trkpt lat="37.166100" lon="-5.931120">
        <ele>57.790683</ele>
        <time>2020-08-16T07:25:43.781Z</time>
      </trkpt>
      <trkpt lat="37.166083" lon="-5.931009">
        <ele>57.706067</ele>
        <time>2020-08-16T07:25:45.750Z</time>
      </trkpt>
      <trkpt lat="37.166113" lon="-5.930848">
        <ele>57.582292</ele>
        <time>2020-08-16T07:25:48.755Z</time>
      </trkpt>
      <trkpt lat="37.166108" lon="-5.930704">
        <ele>57.474391</ele>
        <time>2020-08-16T07:25:50.775Z</time>
      </trkpt>
      <trkpt lat="37.166099" lon="-5.930589">
        <ele>57.387888</ele>
        <time>2020-08-16T07:25:52.779Z</time>
      </trkpt>
      <trkpt lat="37.166168" lon="-5.930468">
        <ele>57.276504</ele>
        <time>2020-08-16T07:25:54.789Z</time>
      </trkpt>
      <trkpt lat="37.166195" lon="-5.930263">
        <ele>57.120959</ele>
        <time>2020-08-16T07:25:56.783Z</time>
      </trkpt>
      <trkpt lat="37.166100" lon="-5.930238">
        <ele>57.029774</ele>
        <time>2020-08-16T07:25:59.760Z</time>
      </trkpt>
      <trkpt lat="37.165962" lon="-5.930187">
        <ele>56.894631</ele>
        <time>2020-08-16T07:26:02.750Z</time>
      </trkpt>
      <trkpt lat="37.165849" lon="-5.930150">
        <ele>56.463773</ele>
        <time>2020-08-16T07:26:05.789Z</time>
      </trkpt>
      <trkpt lat="37.165750" lon="-5.930135">
        <ele>56.074942</ele>
        <time>2020-08-16T07:26:07.793Z</time>
      </trkpt>
      <trkpt lat="37.165632" lon="-5.930058">
        <ele>55.556338</ele>
        <time>2020-08-16T07:26:10.790Z</time>
      </trkpt>
      <trkpt lat="37.165503" lon="-5.930046">
        <ele>55.051953</ele>
        <time>2020-08-16T07:26:13.784Z</time>
      </trkpt>
      <trkpt lat="37.165404" lon="-5.930005">
        <ele>54.645447</ele>
        <time>2020-08-16T07:26:15.775Z</time>
      </trkpt>
      <trkpt lat="37.165307" lon="-5.929968">
        <ele>54.250130</ele>
        <time>2020-08-16T07:26:17.791Z</time>
      </trkpt>
      <trkpt lat="37.165268" lon="-5.929829">
        <ele>53.792225</ele>
        <time>2020-08-16T07:26:20.751Z</time>
      </trkpt>
      <trkpt lat="37.165312" lon="-5.929666">
        <ele>53.257465</ele>
        <time>2020-08-16T07:26:23.757Z</time>
      </trkpt>
      <trkpt lat="37.165357" lon="-5.929540">
        <ele>52.828423</ele>
        <time>2020-08-16T07:26:25.777Z</time>
      </trkpt>
      <trkpt lat="37.165383" lon="-5.929368">
        <ele>52.284436</ele>
        <time>2020-08-16T07:26:28.753Z</time>
      </trkpt>
      <trkpt lat="37.165407" lon="-5.929243">
        <ele>51.884908</ele>
        <time>2020-08-16T07:26:30.753Z</time>
      </trkpt>
      <trkpt lat="37.165427" lon="-5.929126">
        <ele>51.513084</ele>
        <time>2020-08-16T07:26:32.795Z</time>
      </trkpt>
      <trkpt lat="37.165464" lon="-5.929005">
        <ele>51.110370</ele>
        <time>2020-08-16T07:26:34.764Z</time>
      </trkpt>
      <trkpt lat="37.165505" lon="-5.928885">
        <ele>50.704667</ele>
        <time>2020-08-16T07:26:36.790Z</time>
      </trkpt>
      <trkpt lat="37.165548" lon="-5.928772">
        <ele>50.315564</ele>
        <time>2020-08-16T07:26:38.793Z</time>
      </trkpt>
      <trkpt lat="37.165542" lon="-5.928637">
        <ele>49.895427</ele>
        <time>2020-08-16T07:26:40.764Z</time>
      </trkpt>
      <trkpt lat="37.165583" lon="-5.928521">
        <ele>50.000070</ele>
        <time>2020-08-16T07:26:42.784Z</time>
      </trkpt>
      <trkpt lat="37.165577" lon="-5.928383">
        <ele>50.146086</ele>
        <time>2020-08-16T07:26:44.783Z</time>
      </trkpt>
      <trkpt lat="37.165573" lon="-5.928246">
        <ele>50.290926</ele>
        <time>2020-08-16T07:26:46.761Z</time>
      </trkpt>
      <trkpt lat="37.165615" lon="-5.928120">
        <ele>50.435223</ele>
        <time>2020-08-16T07:26:48.796Z</time>
      </trkpt>
      <trkpt lat="37.165638" lon="-5.928008">
        <ele>50.557419</ele>
        <time>2020-08-16T07:26:50.785Z</time>
      </trkpt>
      <trkpt lat="37.165658" lon="-5.927865">
        <ele>50.710810</ele>
        <time>2020-08-16T07:26:53.778Z</time>
      </trkpt>
      <trkpt lat="37.165665" lon="-5.927749">
        <ele>50.833716</ele>
        <time>2020-08-16T07:26:56.768Z</time>
      </trkpt>
      <trkpt lat="37.165695" lon="-5.927602">
        <ele>50.994036</ele>
        <time>2020-08-16T07:26:59.768Z</time>
      </trkpt>
      <trkpt lat="37.165727" lon="-5.927479">
        <ele>51.130737</ele>
        <time>2020-08-16T07:27:01.774Z</time>
      </trkpt>
      <trkpt lat="37.165727" lon="-5.927325">
        <ele>51.293441</ele>
        <time>2020-08-16T07:27:04.773Z</time>
      </trkpt>
      <trkpt lat="37.165704" lon="-5.927169">
        <ele>51.461054</ele>
        <time>2020-08-16T07:27:07.753Z</time>
      </trkpt>
      <trkpt lat="37.165698" lon="-5.927031">
        <ele>51.607070</ele>
        <time>2020-08-16T07:27:10.761Z</time>
      </trkpt>
      <trkpt lat="37.165715" lon="-5.926880">
        <ele>51.768188</ele>
        <time>2020-08-16T07:27:13.745Z</time>
      </trkpt>
      <trkpt lat="37.165764" lon="-5.926747">
        <ele>51.922994</ele>
        <time>2020-08-16T07:27:16.758Z</time>
      </trkpt>
      <trkpt lat="37.165801" lon="-5.926640">
        <ele>52.046226</ele>
        <time>2020-08-16T07:27:18.764Z</time>
      </trkpt>
      <trkpt lat="37.165864" lon="-5.926467">
        <ele>52.247183</ele>
        <time>2020-08-16T07:27:21.771Z</time>
      </trkpt>
      <trkpt lat="37.165905" lon="-5.926355">
        <ele>52.255621</ele>
        <time>2020-08-16T07:27:23.771Z</time>
      </trkpt>
      <trkpt lat="37.165904" lon="-5.926197">
        <ele>52.252156</ele>
        <time>2020-08-16T07:27:26.780Z</time>
      </trkpt>
      <trkpt lat="37.165955" lon="-5.926099">
        <ele>52.249590</ele>
        <time>2020-08-16T07:27:28.758Z</time>
      </trkpt>
      <trkpt lat="37.166018" lon="-5.925937">
        <ele>52.245637</ele>
        <time>2020-08-16T07:27:31.775Z</time>
      </trkpt>
      <trkpt lat="37.166074" lon="-5.925847">
        <ele>52.243133</ele>
        <time>2020-08-16T07:27:33.778Z</time>
      </trkpt>
      <trkpt lat="37.166097" lon="-5.925736">
        <ele>52.240618</ele>
        <time>2020-08-16T07:27:35.759Z</time>
      </trkpt>
      <trkpt lat="37.166166" lon="-5.925658">
        <ele>52.238062</ele>
        <time>2020-08-16T07:27:38.772Z</time>
      </trkpt>
      <trkpt lat="37.166076" lon="-5.925589">
        <ele>52.235160</ele>
        <time>2020-08-16T07:27:42.764Z</time>
      </trkpt>
      <trkpt lat="37.165980" lon="-5.925566">
        <ele>52.232470</ele>
        <time>2020-08-16T07:27:45.770Z</time>
      </trkpt>
      <trkpt lat="37.165892" lon="-5.925528">
        <ele>52.229909</ele>
        <time>2020-08-16T07:27:48.779Z</time>
      </trkpt>
      <trkpt lat="37.165780" lon="-5.925465">
        <ele>52.226532</ele>
        <time>2020-08-16T07:27:51.784Z</time>
      </trkpt>
      <trkpt lat="37.165666" lon="-5.925418">
        <ele>52.223230</ele>
        <time>2020-08-16T07:27:54.774Z</time>
      </trkpt>
      <trkpt lat="37.165555" lon="-5.925370">
        <ele>52.219999</ele>
        <time>2020-08-16T07:27:57.778Z</time>
      </trkpt>
      <trkpt lat="37.165460" lon="-5.925310">
        <ele>52.217072</ele>
        <time>2020-08-16T07:28:00.780Z</time>
      </trkpt>
      <trkpt lat="37.165393" lon="-5.925225">
        <ele>52.214451</ele>
        <time>2020-08-16T07:28:03.769Z</time>
      </trkpt>
      <trkpt lat="37.165318" lon="-5.925146">
        <ele>52.211756</ele>
        <time>2020-08-16T07:28:06.786Z</time>
      </trkpt>
      <trkpt lat="37.165225" lon="-5.925105">
        <ele>52.209043</ele>
        <time>2020-08-16T07:28:09.785Z</time>
      </trkpt>
      <trkpt lat="37.165111" lon="-5.925067">
        <ele>52.376941</ele>
        <time>2020-08-16T07:28:12.774Z</time>
      </trkpt>
      <trkpt lat="37.164990" lon="-5.924992">
        <ele>52.599865</ele>
        <time>2020-08-16T07:28:15.770Z</time>
      </trkpt>
      <trkpt lat="37.164870" lon="-5.924929">
        <ele>52.814732</ele>
        <time>2020-08-16T07:28:18.774Z</time>
      </trkpt>
      <trkpt lat="37.164785" lon="-5.924876">
        <ele>52.971514</ele>
        <time>2020-08-16T07:28:20.768Z</time>
      </trkpt>
      <trkpt lat="37.164664" lon="-5.924857">
        <ele>53.172944</ele>
        <time>2020-08-16T07:28:23.783Z</time>
      </trkpt>
      <trkpt lat="37.164554" lon="-5.924799">
        <ele>53.370033</ele>
        <time>2020-08-16T07:28:26.764Z</time>
      </trkpt>
      <trkpt lat="37.164441" lon="-5.924749">
        <ele>53.567953</ele>
        <time>2020-08-16T07:28:29.773Z</time>
      </trkpt>
      <trkpt lat="37.164323" lon="-5.924701">
        <ele>53.772853</ele>
        <time>2020-08-16T07:28:32.771Z</time>
      </trkpt>
      <trkpt lat="37.164236" lon="-5.924645">
        <ele>53.934365</ele>
        <time>2020-08-16T07:28:34.776Z</time>
      </trkpt>
      <trkpt lat="37.164116" lon="-5.924579">
        <ele>54.150787</ele>
        <time>2020-08-16T07:28:37.774Z</time>
      </trkpt>
      <trkpt lat="37.164030" lon="-5.924544">
        <ele>54.300129</ele>
        <time>2020-08-16T07:28:39.767Z</time>
      </trkpt>
      <trkpt lat="37.163909" lon="-5.924495">
        <ele>54.510149</ele>
        <time>2020-08-16T07:28:42.759Z</time>
      </trkpt>
      <trkpt lat="37.163791" lon="-5.924450">
        <ele>54.713867</ele>
        <time>2020-08-16T07:28:45.762Z</time>
      </trkpt>
      <trkpt lat="37.163660" lon="-5.924414">
        <ele>54.935384</ele>
        <time>2020-08-16T07:28:48.767Z</time>
      </trkpt>
      <trkpt lat="37.163540" lon="-5.924395">
        <ele>55.135174</ele>
        <time>2020-08-16T07:28:51.778Z</time>
      </trkpt>
      <trkpt lat="37.163411" lon="-5.924377">
        <ele>55.644822</ele>
        <time>2020-08-16T07:28:54.783Z</time>
      </trkpt>
      <trkpt lat="37.163291" lon="-5.924393">
        <ele>56.190494</ele>
        <time>2020-08-16T07:28:57.748Z</time>
      </trkpt>
      <trkpt lat="37.163190" lon="-5.924409">
        <ele>56.650822</ele>
        <time>2020-08-16T07:28:59.761Z</time>
      </trkpt>
      <trkpt lat="37.163055" lon="-5.924407">
        <ele>57.261308</ele>
        <time>2020-08-16T07:29:02.780Z</time>
      </trkpt>
      <trkpt lat="37.162949" lon="-5.924414">
        <ele>57.741283</ele>
        <time>2020-08-16T07:29:04.766Z</time>
      </trkpt>
      <trkpt lat="37.162857" lon="-5.924332">
        <ele>58.251553</ele>
        <time>2020-08-16T07:29:06.750Z</time>
      </trkpt>
      <trkpt lat="37.162768" lon="-5.924284">
        <ele>58.689591</ele>
        <time>2020-08-16T07:29:08.750Z</time>
      </trkpt>
      <trkpt lat="37.162644" lon="-5.924251">
        <ele>59.262767</ele>
        <time>2020-08-16T07:29:11.765Z</time>
      </trkpt>
      <trkpt lat="37.162541" lon="-5.924250">
        <ele>59.728527</ele>
        <time>2020-08-16T07:29:13.782Z</time>
      </trkpt>
      <trkpt lat="37.162413" lon="-5.924192">
        <ele>60.343899</ele>
        <time>2020-08-16T07:29:16.761Z</time>
      </trkpt>
      <trkpt lat="37.162284" lon="-5.924195">
        <ele>60.927313</ele>
        <time>2020-08-16T07:29:19.780Z</time>
      </trkpt>
      <trkpt lat="37.162164" lon="-5.924168">
        <ele>61.478584</ele>
        <time>2020-08-16T07:29:21.761Z</time>
      </trkpt>
      <trkpt lat="37.162046" lon="-5.924122">
        <ele>62.037313</ele>
        <time>2020-08-16T07:29:23.758Z</time>
      </trkpt>
      <trkpt lat="37.161940" lon="-5.924087">
        <ele>62.532941</ele>
        <time>2020-08-16T07:29:25.776Z</time>
      </trkpt>
      <trkpt lat="37.161822" lon="-5.924065">
        <ele>63.072372</ele>
        <time>2020-08-16T07:29:27.780Z</time>
      </trkpt>
      <trkpt lat="37.161730" lon="-5.924081">
        <ele>63.305850</ele>
        <time>2020-08-16T07:29:29.759Z</time>
      </trkpt>
      <trkpt lat="37.161627" lon="-5.924051">
        <ele>63.287449</ele>
        <time>2020-08-16T07:29:31.776Z</time>
      </trkpt>
      <trkpt lat="37.161517" lon="-5.924034">
        <ele>63.268160</ele>
        <time>2020-08-16T07:29:33.783Z</time>
      </trkpt>
      <trkpt lat="37.161401" lon="-5.924017">
        <ele>63.247835</ele>
        <time>2020-08-16T07:29:35.760Z</time>
      </trkpt>
      <trkpt lat="37.161282" lon="-5.924005">
        <ele>63.227059</ele>
        <time>2020-08-16T07:29:37.757Z</time>
      </trkpt>
      <trkpt lat="37.161154" lon="-5.924008">
        <ele>63.204779</ele>
        <time>2020-08-16T07:29:39.782Z</time>
      </trkpt>
      <trkpt lat="37.161041" lon="-5.923990">
        <ele>63.184956</ele>
        <time>2020-08-16T07:29:41.764Z</time>
      </trkpt>
      <trkpt lat="37.160920" lon="-5.923975">
        <ele>63.163795</ele>
        <time>2020-08-16T07:29:43.779Z</time>
      </trkpt>
      <trkpt lat="37.160796" lon="-5.923948">
        <ele>63.141893</ele>
        <time>2020-08-16T07:29:45.778Z</time>
      </trkpt>
      <trkpt lat="37.160664" lon="-5.923933">
        <ele>63.118827</ele>
        <time>2020-08-16T07:29:47.773Z</time>
      </trkpt>
      <trkpt lat="37.160547" lon="-5.923937">
        <ele>63.098457</ele>
        <time>2020-08-16T07:29:49.775Z</time>
      </trkpt>
      <trkpt lat="37.160417" lon="-5.923923">
        <ele>63.075750</ele>
        <time>2020-08-16T07:29:51.775Z</time>
      </trkpt>
      <trkpt lat="37.160290" lon="-5.923918">
        <ele>63.053637</ele>
        <time>2020-08-16T07:29:53.775Z</time>
      </trkpt>
      <trkpt lat="37.160179" lon="-5.923922">
        <ele>63.034312</ele>
        <time>2020-08-16T07:29:55.773Z</time>
      </trkpt>
      <trkpt lat="37.160054" lon="-5.923919">
        <ele>63.012554</ele>
        <time>2020-08-16T07:29:57.792Z</time>
      </trkpt>
      <trkpt lat="37.159967" lon="-5.923949">
        <ele>62.948121</ele>
        <time>2020-08-16T07:29:58.769Z</time>
      </trkpt>
      <trkpt lat="37.159844" lon="-5.923950">
        <ele>62.565736</ele>
        <time>2020-08-16T07:30:00.773Z</time>
      </trkpt>
      <trkpt lat="37.159695" lon="-5.923949">
        <ele>62.102525</ele>
        <time>2020-08-16T07:30:02.802Z</time>
      </trkpt>
      <trkpt lat="37.159600" lon="-5.923932">
        <ele>61.804205</ele>
        <time>2020-08-16T07:30:03.790Z</time>
      </trkpt>
      <trkpt lat="37.159478" lon="-5.923923">
        <ele>61.424281</ele>
        <time>2020-08-16T07:30:05.785Z</time>
      </trkpt>
      <trkpt lat="37.159384" lon="-5.923876">
        <ele>61.109712</ele>
        <time>2020-08-16T07:30:06.775Z</time>
      </trkpt>
      <trkpt lat="37.159313" lon="-5.923952">
        <ele>60.819587</ele>
        <time>2020-08-16T07:30:07.784Z</time>
      </trkpt>
      <trkpt lat="37.159186" lon="-5.923963">
        <ele>60.423836</ele>
        <time>2020-08-16T07:30:09.795Z</time>
      </trkpt>
      <trkpt lat="37.159069" lon="-5.923987">
        <ele>60.055283</ele>
        <time>2020-08-16T07:30:11.786Z</time>
      </trkpt>
      <trkpt lat="37.158896" lon="-5.923995">
        <ele>59.517103</ele>
        <time>2020-08-16T07:30:13.760Z</time>
      </trkpt>
      <trkpt lat="37.158801" lon="-5.924003">
        <ele>59.221107</ele>
        <time>2020-08-16T07:30:14.803Z</time>
      </trkpt>
      <trkpt lat="37.158709" lon="-5.924018">
        <ele>58.932697</ele>
        <time>2020-08-16T07:30:15.796Z</time>
      </trkpt>
      <trkpt lat="37.158543" lon="-5.924035">
        <ele>58.414927</ele>
        <time>2020-08-16T07:30:17.769Z</time>
      </trkpt>
      <trkpt lat="37.158375" lon="-5.924043">
        <ele>57.892280</ele>
        <time>2020-08-16T07:30:19.782Z</time>
      </trkpt>
      <trkpt lat="37.158225" lon="-5.924107">
        <ele>57.403958</ele>
        <time>2020-08-16T07:30:21.783Z</time>
      </trkpt>
      <trkpt lat="37.158096" lon="-5.924117">
        <ele>57.202420</ele>
        <time>2020-08-16T07:30:23.783Z</time>
      </trkpt>
      <trkpt lat="37.157934" lon="-5.924103">
        <ele>56.949210</ele>
        <time>2020-08-16T07:30:25.787Z</time>
      </trkpt>
      <trkpt lat="37.157817" lon="-5.924100">
        <ele>56.766730</ele>
        <time>2020-08-16T07:30:27.785Z</time>
      </trkpt>
      <trkpt lat="37.157670" lon="-5.924081">
        <ele>56.536296</ele>
        <time>2020-08-16T07:30:29.791Z</time>
      </trkpt>
      <trkpt lat="37.157502" lon="-5.924077">
        <ele>56.274281</ele>
        <time>2020-08-16T07:30:31.778Z</time>
      </trkpt>
      <trkpt lat="37.157346" lon="-5.924076">
        <ele>56.031022</ele>
        <time>2020-08-16T07:30:33.768Z</time>
      </trkpt>
      <trkpt lat="37.157194" lon="-5.924106">
        <ele>55.791089</ele>
        <time>2020-08-16T07:30:35.767Z</time>
      </trkpt>
      <trkpt lat="37.157056" lon="-5.924103">
        <ele>55.575869</ele>
        <time>2020-08-16T07:30:37.778Z</time>
      </trkpt>
      <trkpt lat="37.156903" lon="-5.924101">
        <ele>55.337278</ele>
        <time>2020-08-16T07:30:39.761Z</time>
      </trkpt>
      <trkpt lat="37.156761" lon="-5.924128">
        <ele>55.113325</ele>
        <time>2020-08-16T07:30:41.774Z</time>
      </trkpt>
      <trkpt lat="37.156623" lon="-5.924148">
        <ele>54.896707</ele>
        <time>2020-08-16T07:30:43.760Z</time>
      </trkpt>
      <trkpt lat="37.156474" lon="-5.924161">
        <ele>54.663805</ele>
        <time>2020-08-16T07:30:45.761Z</time>
      </trkpt>
      <trkpt lat="37.156347" lon="-5.924215">
        <ele>54.560123</ele>
        <time>2020-08-16T07:30:47.777Z</time>
      </trkpt>
      <trkpt lat="37.156221" lon="-5.924222">
        <ele>54.502774</ele>
        <time>2020-08-16T07:30:49.769Z</time>
      </trkpt>
      <trkpt lat="37.156078" lon="-5.924245">
        <ele>54.437219</ele>
        <time>2020-08-16T07:30:51.772Z</time>
      </trkpt>
      <trkpt lat="37.155926" lon="-5.924246">
        <ele>54.368102</ele>
        <time>2020-08-16T07:30:53.778Z</time>
      </trkpt>
      <trkpt lat="37.155803" lon="-5.924258">
        <ele>54.312004</ele>
        <time>2020-08-16T07:30:55.761Z</time>
      </trkpt>
      <trkpt lat="37.155657" lon="-5.924232">
        <ele>54.244951</ele>
        <time>2020-08-16T07:30:57.798Z</time>
      </trkpt>
      <trkpt lat="37.155534" lon="-5.924235">
        <ele>54.189012</ele>
        <time>2020-08-16T07:30:59.756Z</time>
      </trkpt>
      <trkpt lat="37.155401" lon="-5.924260">
        <ele>54.127861</ele>
        <time>2020-08-16T07:31:01.765Z</time>
      </trkpt>
      <trkpt lat="37.155275" lon="-5.924266">
        <ele>54.070526</ele>
        <time>2020-08-16T07:31:03.787Z</time>
      </trkpt>
      <trkpt lat="37.155142" lon="-5.924278">
        <ele>54.009894</ele>
        <time>2020-08-16T07:31:05.780Z</time>
      </trkpt>
      <trkpt lat="37.155022" lon="-5.924285">
        <ele>53.955270</ele>
        <time>2020-08-16T07:31:07.784Z</time>
      </trkpt>
      <trkpt lat="37.154882" lon="-5.924278">
        <ele>53.891560</ele>
        <time>2020-08-16T07:31:09.795Z</time>
      </trkpt>
      <trkpt lat="37.154764" lon="-5.924299">
        <ele>53.837367</ele>
        <time>2020-08-16T07:31:11.793Z</time>
      </trkpt>
      <trkpt lat="37.154646" lon="-5.924287">
        <ele>53.789374</ele>
        <time>2020-08-16T07:31:13.760Z</time>
      </trkpt>
      <trkpt lat="37.154515" lon="-5.924258">
        <ele>53.895252</ele>
        <time>2020-08-16T07:31:15.793Z</time>
      </trkpt>
      <trkpt lat="37.154383" lon="-5.924269">
        <ele>54.000548</ele>
        <time>2020-08-16T07:31:17.767Z</time>
      </trkpt>
      <trkpt lat="37.154243" lon="-5.924228">
        <ele>54.114974</ele>
        <time>2020-08-16T07:31:19.778Z</time>
      </trkpt>
      <trkpt lat="37.154113" lon="-5.924216">
        <ele>54.218726</ele>
        <time>2020-08-16T07:31:21.792Z</time>
      </trkpt>
      <trkpt lat="37.153980" lon="-5.924187">
        <ele>54.326173</ele>
        <time>2020-08-16T07:31:23.782Z</time>
      </trkpt>
      <trkpt lat="37.153859" lon="-5.924167">
        <ele>54.423313</ele>
        <time>2020-08-16T07:31:25.782Z</time>
      </trkpt>
      <trkpt lat="37.153745" lon="-5.924140">
        <ele>54.515653</ele>
        <time>2020-08-16T07:31:27.778Z</time>
      </trkpt>
      <trkpt lat="37.153614" lon="-5.924099">
        <ele>54.623116</ele>
        <time>2020-08-16T07:31:29.787Z</time>
      </trkpt>
      <trkpt lat="37.153481" lon="-5.924044">
        <ele>54.734577</ele>
        <time>2020-08-16T07:31:31.786Z</time>
      </trkpt>
      <trkpt lat="37.153351" lon="-5.923994">
        <ele>54.842802</ele>
        <time>2020-08-16T07:31:33.770Z</time>
      </trkpt>
      <trkpt lat="37.153212" lon="-5.923951">
        <ele>54.956751</ele>
        <time>2020-08-16T07:31:35.769Z</time>
      </trkpt>
      <trkpt lat="37.153089" lon="-5.923931">
        <ele>55.055470</ele>
        <time>2020-08-16T07:31:37.786Z</time>
      </trkpt>
      <trkpt lat="37.152957" lon="-5.923908">
        <ele>55.161542</ele>
        <time>2020-08-16T07:31:39.792Z</time>
      </trkpt>
      <trkpt lat="37.152828" lon="-5.923853">
        <ele>55.122659</ele>
        <time>2020-08-16T07:31:41.778Z</time>
      </trkpt>
      <trkpt lat="37.152700" lon="-5.923834">
        <ele>54.938543</ele>
        <time>2020-08-16T07:31:43.802Z</time>
      </trkpt>
      <trkpt lat="37.152576" lon="-5.923800">
        <ele>54.757234</ele>
        <time>2020-08-16T07:31:45.778Z</time>
      </trkpt>
      <trkpt lat="37.152451" lon="-5.923772">
        <ele>54.575855</ele>
        <time>2020-08-16T07:31:47.756Z</time>
      </trkpt>
      <trkpt lat="37.152333" lon="-5.923739">
        <ele>54.403161</ele>
        <time>2020-08-16T07:31:49.751Z</time>
      </trkpt>
      <trkpt lat="37.152202" lon="-5.923701">
        <ele>54.211098</ele>
        <time>2020-08-16T07:31:51.763Z</time>
      </trkpt>
      <trkpt lat="37.152084" lon="-5.923656">
        <ele>54.034926</ele>
        <time>2020-08-16T07:31:53.783Z</time>
      </trkpt>
      <trkpt lat="37.151959" lon="-5.923617">
        <ele>53.850932</ele>
        <time>2020-08-16T07:31:55.764Z</time>
      </trkpt>
      <trkpt lat="37.151837" lon="-5.923579">
        <ele>53.671371</ele>
        <time>2020-08-16T07:31:57.787Z</time>
      </trkpt>
      <trkpt lat="37.151712" lon="-5.923539">
        <ele>53.487099</ele>
        <time>2020-08-16T07:31:59.788Z</time>
      </trkpt>
      <trkpt lat="37.151598" lon="-5.923515">
        <ele>53.321979</ele>
        <time>2020-08-16T07:32:01.785Z</time>
      </trkpt>
      <trkpt lat="37.151483" lon="-5.923478">
        <ele>53.152392</ele>
        <time>2020-08-16T07:32:03.791Z</time>
      </trkpt>
      <trkpt lat="37.151352" lon="-5.923420">
        <ele>52.953955</ele>
        <time>2020-08-16T07:32:05.787Z</time>
      </trkpt>
      <trkpt lat="37.151206" lon="-5.923377">
        <ele>52.739732</ele>
        <time>2020-08-16T07:32:07.790Z</time>
      </trkpt>
      <trkpt lat="37.151097" lon="-5.923344">
        <ele>52.642750</ele>
        <time>2020-08-16T07:32:09.754Z</time>
      </trkpt>
      <trkpt lat="37.150967" lon="-5.923306">
        <ele>52.628132</ele>
        <time>2020-08-16T07:32:11.798Z</time>
      </trkpt>
      <trkpt lat="37.150836" lon="-5.923285">
        <ele>52.613669</ele>
        <time>2020-08-16T07:32:13.784Z</time>
      </trkpt>
      <trkpt lat="37.150714" lon="-5.923341">
        <ele>52.599442</ele>
        <time>2020-08-16T07:32:15.778Z</time>
      </trkpt>
      <trkpt lat="37.150636" lon="-5.923499">
        <ele>52.583219</ele>
        <time>2020-08-16T07:32:17.765Z</time>
      </trkpt>
      <trkpt lat="37.150660" lon="-5.923688">
        <ele>52.566514</ele>
        <time>2020-08-16T07:32:19.786Z</time>
      </trkpt>
      <trkpt lat="37.150705" lon="-5.923847">
        <ele>52.551786</ele>
        <time>2020-08-16T07:32:21.761Z</time>
      </trkpt>
      <trkpt lat="37.150802" lon="-5.923896">
        <ele>52.540334</ele>
        <time>2020-08-16T07:32:22.760Z</time>
      </trkpt>
      <trkpt lat="37.150912" lon="-5.924004">
        <ele>52.525038</ele>
        <time>2020-08-16T07:32:24.754Z</time>
      </trkpt>
      <trkpt lat="37.151015" lon="-5.924118">
        <ele>52.509996</ele>
        <time>2020-08-16T07:32:26.767Z</time>
      </trkpt>
      <trkpt lat="37.151122" lon="-5.924230">
        <ele>52.494735</ele>
        <time>2020-08-16T07:32:28.777Z</time>
      </trkpt>
      <trkpt lat="37.151214" lon="-5.924347">
        <ele>52.480389</ele>
        <time>2020-08-16T07:32:30.771Z</time>
      </trkpt>
      <trkpt lat="37.151217" lon="-5.924512">
        <ele>52.465983</ele>
        <time>2020-08-16T07:32:32.764Z</time>
      </trkpt>
      <trkpt lat="37.151156" lon="-5.924609">
        <ele>52.455198</ele>
        <time>2020-08-16T07:32:34.773Z</time>
      </trkpt>
      <trkpt lat="37.151033" lon="-5.924632">
        <ele>52.398983</ele>
        <time>2020-08-16T07:32:36.767Z</time>
      </trkpt>
      <trkpt lat="37.150912" lon="-5.924640">
        <ele>52.325842</ele>
        <time>2020-08-16T07:32:38.768Z</time>
      </trkpt>
      <trkpt lat="37.150782" lon="-5.924684">
        <ele>52.244564</ele>
        <time>2020-08-16T07:32:40.779Z</time>
      </trkpt>
      <trkpt lat="37.150667" lon="-5.924748">
        <ele>52.168623</ele>
        <time>2020-08-16T07:32:42.788Z</time>
      </trkpt>
      <trkpt lat="37.150575" lon="-5.924841">
        <ele>52.097305</ele>
        <time>2020-08-16T07:32:44.782Z</time>
      </trkpt>
      <trkpt lat="37.150497" lon="-5.925020">
        <ele>51.999153</ele>
        <time>2020-08-16T07:32:47.760Z</time>
      </trkpt>
      <trkpt lat="37.150500" lon="-5.925170">
        <ele>51.926960</ele>
        <time>2020-08-16T07:32:49.763Z</time>
      </trkpt>
      <trkpt lat="37.150525" lon="-5.925278">
        <ele>51.872851</ele>
        <time>2020-08-16T07:32:50.761Z</time>
      </trkpt>
      <trkpt lat="37.150529" lon="-5.925417">
        <ele>51.805931</ele>
        <time>2020-08-16T07:32:52.748Z</time>
      </trkpt>
      <trkpt lat="37.150514" lon="-5.925538">
        <ele>51.747014</ele>
        <time>2020-08-16T07:32:55.770Z</time>
      </trkpt>
      <trkpt lat="37.150418" lon="-5.925509">
        <ele>51.687409</ele>
        <time>2020-08-16T07:32:57.765Z</time>
      </trkpt>
      <trkpt lat="37.150345" lon="-5.925377">
        <ele>51.610110</ele>
        <time>2020-08-16T07:33:00.770Z</time>
      </trkpt>
      <trkpt lat="37.150280" lon="-5.925285">
        <ele>51.550959</ele>
        <time>2020-08-16T07:33:02.767Z</time>
      </trkpt>
      <trkpt lat="37.150216" lon="-5.925160">
        <ele>51.479478</ele>
        <time>2020-08-16T07:33:05.769Z</time>
      </trkpt>
      <trkpt lat="37.150314" lon="-5.925147">
        <ele>51.419992</ele>
        <time>2020-08-16T07:33:11.755Z</time>
      </trkpt>
      <trkpt lat="37.150392" lon="-5.925268">
        <ele>51.358895</ele>
        <time>2020-08-16T07:33:14.786Z</time>
      </trkpt>
      <trkpt lat="37.150446" lon="-5.925395">
        <ele>51.336933</ele>
        <time>2020-08-16T07:33:16.791Z</time>
      </trkpt>
      <trkpt lat="37.150499" lon="-5.925489">
        <ele>51.319365</ele>
        <time>2020-08-16T07:33:18.783Z</time>
      </trkpt>
      <trkpt lat="37.150553" lon="-5.925588">
        <ele>51.301062</ele>
        <time>2020-08-16T07:33:20.770Z</time>
      </trkpt>
      <trkpt lat="37.150648" lon="-5.925697">
        <ele>51.276418</ele>
        <time>2020-08-16T07:33:23.768Z</time>
      </trkpt>
      <trkpt lat="37.150681" lon="-5.925813">
        <ele>51.257626</ele>
        <time>2020-08-16T07:33:25.772Z</time>
      </trkpt>
      <trkpt lat="37.150731" lon="-5.925908">
        <ele>51.240256</ele>
        <time>2020-08-16T07:33:27.789Z</time>
      </trkpt>
      <trkpt lat="37.150779" lon="-5.926021">
        <ele>51.220720</ele>
        <time>2020-08-16T07:33:29.759Z</time>
      </trkpt>
      <trkpt lat="37.150840" lon="-5.926143">
        <ele>51.198746</ele>
        <time>2020-08-16T07:33:32.778Z</time>
      </trkpt>
      <trkpt lat="37.150882" lon="-5.926243">
        <ele>51.181499</ele>
        <time>2020-08-16T07:33:34.767Z</time>
      </trkpt>
      <trkpt lat="37.150942" lon="-5.926361">
        <ele>51.160144</ele>
        <time>2020-08-16T07:33:36.769Z</time>
      </trkpt>
      <trkpt lat="37.150993" lon="-5.926469">
        <ele>51.140991</ele>
        <time>2020-08-16T07:33:38.760Z</time>
      </trkpt>
      <trkpt lat="37.151012" lon="-5.926600">
        <ele>51.120675</ele>
        <time>2020-08-16T07:33:40.780Z</time>
      </trkpt>
      <trkpt lat="37.151058" lon="-5.926709">
        <ele>51.101857</ele>
        <time>2020-08-16T07:33:42.753Z</time>
      </trkpt>
      <trkpt lat="37.151106" lon="-5.926804">
        <ele>51.084695</ele>
        <time>2020-08-16T07:33:44.771Z</time>
      </trkpt>
      <trkpt lat="37.151169" lon="-5.926901">
        <ele>51.065604</ele>
        <time>2020-08-16T07:33:46.797Z</time>
      </trkpt>
      <trkpt lat="37.151231" lon="-5.927014">
        <ele>51.044673</ele>
        <time>2020-08-16T07:33:48.774Z</time>
      </trkpt>
      <trkpt lat="37.151298" lon="-5.927141">
        <ele>51.021436</ele>
        <time>2020-08-16T07:33:51.755Z</time>
      </trkpt>
      <trkpt lat="37.151359" lon="-5.927226">
        <ele>50.729116</ele>
        <time>2020-08-16T07:33:53.761Z</time>
      </trkpt>
      <trkpt lat="37.151417" lon="-5.927373">
        <ele>50.299468</ele>
        <time>2020-08-16T07:33:56.770Z</time>
      </trkpt>
      <trkpt lat="37.151442" lon="-5.927491">
        <ele>49.979645</ele>
        <time>2020-08-16T07:33:58.755Z</time>
      </trkpt>
      <trkpt lat="37.151484" lon="-5.927646">
        <ele>49.550816</ele>
        <time>2020-08-16T07:34:01.750Z</time>
      </trkpt>
      <trkpt lat="37.151527" lon="-5.927775">
        <ele>49.184553</ele>
        <time>2020-08-16T07:34:04.776Z</time>
      </trkpt>
      <trkpt lat="37.151567" lon="-5.927904">
        <ele>48.821981</ele>
        <time>2020-08-16T07:34:07.766Z</time>
      </trkpt>
      <trkpt lat="37.151580" lon="-5.928030">
        <ele>48.489183</ele>
        <time>2020-08-16T07:34:11.762Z</time>
      </trkpt>
      <trkpt lat="37.151599" lon="-5.928150">
        <ele>48.168713</ele>
        <time>2020-08-16T07:34:15.745Z</time>
      </trkpt>
      <trkpt lat="37.151452" lon="-5.927980">
        <ele>47.511692</ele>
        <time>2020-08-16T07:35:17.754Z</time>
      </trkpt>
      <trkpt lat="37.151413" lon="-5.927830">
        <ele>47.098405</ele>
        <time>2020-08-16T07:35:20.771Z</time>
      </trkpt>
      <trkpt lat="37.151368" lon="-5.927683">
        <ele>46.685929</ele>
        <time>2020-08-16T07:35:23.777Z</time>
      </trkpt>
      <trkpt lat="37.151301" lon="-5.927548">
        <ele>46.269359</ele>
        <time>2020-08-16T07:35:26.775Z</time>
      </trkpt>
      <trkpt lat="37.151267" lon="-5.927427">
        <ele>45.933291</ele>
        <time>2020-08-16T07:35:28.788Z</time>
      </trkpt>
      <trkpt lat="37.151222" lon="-5.927308">
        <ele>45.588278</ele>
        <time>2020-08-16T07:35:30.780Z</time>
      </trkpt>
      <trkpt lat="37.151175" lon="-5.927204">
        <ele>45.275117</ele>
        <time>2020-08-16T07:35:32.775Z</time>
      </trkpt>
      <trkpt lat="37.151117" lon="-5.927075">
        <ele>45.363229</ele>
        <time>2020-08-16T07:35:34.764Z</time>
      </trkpt>
      <trkpt lat="37.151098" lon="-5.926909">
        <ele>45.862770</ele>
        <time>2020-08-16T07:35:36.785Z</time>
      </trkpt>
      <trkpt lat="37.151017" lon="-5.926836">
        <ele>46.235489</ele>
        <time>2020-08-16T07:35:39.763Z</time>
      </trkpt>
      <trkpt lat="37.150974" lon="-5.926724">
        <ele>46.605794</ele>
        <time>2020-08-16T07:35:41.784Z</time>
      </trkpt>
      <trkpt lat="37.150919" lon="-5.926625">
        <ele>46.965255</ele>
        <time>2020-08-16T07:35:43.799Z</time>
      </trkpt>
      <trkpt lat="37.150863" lon="-5.926503">
        <ele>47.384616</ele>
        <time>2020-08-16T07:35:45.790Z</time>
      </trkpt>
      <trkpt lat="37.150804" lon="-5.926382">
        <ele>47.807140</ele>
        <time>2020-08-16T07:35:47.779Z</time>
      </trkpt>
      <trkpt lat="37.150770" lon="-5.926258">
        <ele>48.197749</ele>
        <time>2020-08-16T07:35:49.766Z</time>
      </trkpt>
      <trkpt lat="37.150719" lon="-5.926135">
        <ele>48.610745</ele>
        <time>2020-08-16T07:35:51.759Z</time>
      </trkpt>
      <trkpt lat="37.150657" lon="-5.926020">
        <ele>49.024306</ele>
        <time>2020-08-16T07:35:53.783Z</time>
      </trkpt>
      <trkpt lat="37.150599" lon="-5.925908">
        <ele>49.422158</ele>
        <time>2020-08-16T07:35:55.797Z</time>
      </trkpt>
      <trkpt lat="37.150539" lon="-5.925782">
        <ele>49.859362</ele>
        <time>2020-08-16T07:35:57.784Z</time>
      </trkpt>
      <trkpt lat="37.150469" lon="-5.925671">
        <ele>50.280979</ele>
        <time>2020-08-16T07:35:59.764Z</time>
      </trkpt>
      <trkpt lat="37.150412" lon="-5.925547">
        <ele>50.707370</ele>
        <time>2020-08-16T07:36:01.780Z</time>
      </trkpt>
      <trkpt lat="37.150365" lon="-5.925440">
        <ele>51.071293</ele>
        <time>2020-08-16T07:36:03.781Z</time>
      </trkpt>
      <trkpt lat="37.150301" lon="-5.925320">
        <ele>51.501385</ele>
        <time>2020-08-16T07:36:05.786Z</time>
      </trkpt>
      <trkpt lat="37.150224" lon="-5.925219">
        <ele>51.823578</ele>
        <time>2020-08-16T07:36:07.780Z</time>
      </trkpt>
      <trkpt lat="37.150161" lon="-5.925118">
        <ele>51.786873</ele>
        <time>2020-08-16T07:36:09.800Z</time>
      </trkpt>
      <trkpt lat="37.150098" lon="-5.924997">
        <ele>51.745510</ele>
        <time>2020-08-16T07:36:11.786Z</time>
      </trkpt>
      <trkpt lat="37.150032" lon="-5.924897">
        <ele>51.708352</ele>
        <time>2020-08-16T07:36:13.774Z</time>
      </trkpt>
      <trkpt lat="37.149964" lon="-5.924808">
        <ele>51.673068</ele>
        <time>2020-08-16T07:36:15.786Z</time>
      </trkpt>
      <trkpt lat="37.149891" lon="-5.924701">
        <ele>51.632760</ele>
        <time>2020-08-16T07:36:17.777Z</time>
      </trkpt>
      <trkpt lat="37.149806" lon="-5.924587">
        <ele>51.588083</ele>
        <time>2020-08-16T07:36:19.792Z</time>
      </trkpt>
      <trkpt lat="37.149751" lon="-5.924483">
        <ele>51.552363</ele>
        <time>2020-08-16T07:36:21.799Z</time>
      </trkpt>
      <trkpt lat="37.149665" lon="-5.924380">
        <ele>51.509673</ele>
        <time>2020-08-16T07:36:23.793Z</time>
      </trkpt>
      <trkpt lat="37.149592" lon="-5.924283">
        <ele>51.471492</ele>
        <time>2020-08-16T07:36:25.782Z</time>
      </trkpt>
      <trkpt lat="37.149516" lon="-5.924174">
        <ele>51.430046</ele>
        <time>2020-08-16T07:36:27.795Z</time>
      </trkpt>
      <trkpt lat="37.149457" lon="-5.924073">
        <ele>51.394208</ele>
        <time>2020-08-16T07:36:29.787Z</time>
      </trkpt>
      <trkpt lat="37.149355" lon="-5.923997">
        <ele>51.351612</ele>
        <time>2020-08-16T07:36:31.773Z</time>
      </trkpt>
      <trkpt lat="37.149264" lon="-5.923851">
        <ele>51.298568</ele>
        <time>2020-08-16T07:36:34.798Z</time>
      </trkpt>
      <trkpt lat="37.149174" lon="-5.923746">
        <ele>51.254439</ele>
        <time>2020-08-16T07:36:36.792Z</time>
      </trkpt>
      <trkpt lat="37.149116" lon="-5.923645">
        <ele>51.218813</ele>
        <time>2020-08-16T07:36:38.789Z</time>
      </trkpt>
      <trkpt lat="37.149024" lon="-5.923580">
        <ele>51.214524</ele>
        <time>2020-08-16T07:36:40.776Z</time>
      </trkpt>
      <trkpt lat="37.148947" lon="-5.923456">
        <ele>51.466116</ele>
        <time>2020-08-16T07:36:43.794Z</time>
      </trkpt>
      <trkpt lat="37.148858" lon="-5.923362">
        <ele>51.699733</ele>
        <time>2020-08-16T07:36:45.748Z</time>
      </trkpt>
      <trkpt lat="37.148778" lon="-5.923281">
        <ele>51.906167</ele>
        <time>2020-08-16T07:36:47.782Z</time>
      </trkpt>
      <trkpt lat="37.148703" lon="-5.923208">
        <ele>52.096783</ele>
        <time>2020-08-16T07:36:49.787Z</time>
      </trkpt>
      <trkpt lat="37.148617" lon="-5.923129">
        <ele>52.310820</ele>
        <time>2020-08-16T07:36:51.782Z</time>
      </trkpt>
      <trkpt lat="37.148538" lon="-5.923042">
        <ele>52.521904</ele>
        <time>2020-08-16T07:36:53.787Z</time>
      </trkpt>
      <trkpt lat="37.148458" lon="-5.922968">
        <ele>52.721494</ele>
        <time>2020-08-16T07:36:55.784Z</time>
      </trkpt>
      <trkpt lat="37.148364" lon="-5.922891">
        <ele>52.946925</ele>
        <time>2020-08-16T07:36:57.797Z</time>
      </trkpt>
      <trkpt lat="37.148274" lon="-5.922808">
        <ele>53.171226</ele>
        <time>2020-08-16T07:36:59.794Z</time>
      </trkpt>
      <trkpt lat="37.148200" lon="-5.922731">
        <ele>53.364282</ele>
        <time>2020-08-16T07:37:01.789Z</time>
      </trkpt>
      <trkpt lat="37.148129" lon="-5.922648">
        <ele>53.559156</ele>
        <time>2020-08-16T07:37:03.786Z</time>
      </trkpt>
      <trkpt lat="37.148051" lon="-5.922586">
        <ele>53.744577</ele>
        <time>2020-08-16T07:37:05.767Z</time>
      </trkpt>
      <trkpt lat="37.147952" lon="-5.922512">
        <ele>53.975986</ele>
        <time>2020-08-16T07:37:07.787Z</time>
      </trkpt>
      <trkpt lat="37.147863" lon="-5.922449">
        <ele>54.181190</ele>
        <time>2020-08-16T07:37:09.769Z</time>
      </trkpt>
      <trkpt lat="37.147764" lon="-5.922365">
        <ele>54.421186</ele>
        <time>2020-08-16T07:37:11.758Z</time>
      </trkpt>
      <trkpt lat="37.147659" lon="-5.922286">
        <ele>54.667043</ele>
        <time>2020-08-16T07:37:13.755Z</time>
      </trkpt>
      <trkpt lat="37.147539" lon="-5.922206">
        <ele>54.705507</ele>
        <time>2020-08-16T07:37:16.765Z</time>
      </trkpt>
      <trkpt lat="37.147444" lon="-5.922149">
        <ele>54.568157</ele>
        <time>2020-08-16T07:37:18.786Z</time>
      </trkpt>
      <trkpt lat="37.147366" lon="-5.922068">
        <ele>54.436090</ele>
        <time>2020-08-16T07:37:20.759Z</time>
      </trkpt>
      <trkpt lat="37.147259" lon="-5.922016">
        <ele>54.286424</ele>
        <time>2020-08-16T07:37:22.759Z</time>
      </trkpt>
      <trkpt lat="37.147148" lon="-5.921925">
        <ele>54.113476</ele>
        <time>2020-08-16T07:37:25.759Z</time>
      </trkpt>
      <trkpt lat="37.147051" lon="-5.921854">
        <ele>53.966999</ele>
        <time>2020-08-16T07:37:27.779Z</time>
      </trkpt>
      <trkpt lat="37.146952" lon="-5.921796">
        <ele>53.824487</ele>
        <time>2020-08-16T07:37:29.786Z</time>
      </trkpt>
      <trkpt lat="37.146852" lon="-5.921743">
        <ele>53.682896</ele>
        <time>2020-08-16T07:37:31.777Z</time>
      </trkpt>
      <trkpt lat="37.146744" lon="-5.921685">
        <ele>53.529667</ele>
        <time>2020-08-16T07:37:33.782Z</time>
      </trkpt>
      <trkpt lat="37.146659" lon="-5.921622">
        <ele>53.400899</ele>
        <time>2020-08-16T07:37:35.784Z</time>
      </trkpt>
      <trkpt lat="37.146572" lon="-5.921560">
        <ele>53.270395</ele>
        <time>2020-08-16T07:37:37.774Z</time>
      </trkpt>
      <trkpt lat="37.146480" lon="-5.921506">
        <ele>53.137915</ele>
        <time>2020-08-16T07:37:39.781Z</time>
      </trkpt>
      <trkpt lat="37.146381" lon="-5.921453">
        <ele>52.997524</ele>
        <time>2020-08-16T07:37:41.786Z</time>
      </trkpt>
      <trkpt lat="37.146294" lon="-5.921377">
        <ele>52.859250</ele>
        <time>2020-08-16T07:37:43.781Z</time>
      </trkpt>
      <trkpt lat="37.146206" lon="-5.921322">
        <ele>52.731016</ele>
        <time>2020-08-16T07:37:45.784Z</time>
      </trkpt>
      <trkpt lat="37.146115" lon="-5.921255">
        <ele>52.593394</ele>
        <time>2020-08-16T07:37:47.783Z</time>
      </trkpt>
      <trkpt lat="37.146027" lon="-5.921195">
        <ele>52.462759</ele>
        <time>2020-08-16T07:37:49.779Z</time>
      </trkpt>
      <trkpt lat="37.145931" lon="-5.921139">
        <ele>52.471602</ele>
        <time>2020-08-16T07:37:51.797Z</time>
      </trkpt>
      <trkpt lat="37.145840" lon="-5.921071">
        <ele>52.493080</ele>
        <time>2020-08-16T07:37:53.785Z</time>
      </trkpt>
      <trkpt lat="37.145719" lon="-5.920967">
        <ele>52.522821</ele>
        <time>2020-08-16T07:37:56.778Z</time>
      </trkpt>
      <trkpt lat="37.145630" lon="-5.920893">
        <ele>52.544472</ele>
        <time>2020-08-16T07:37:58.783Z</time>
      </trkpt>
      <trkpt lat="37.145538" lon="-5.920809">
        <ele>52.567545</ele>
        <time>2020-08-16T07:38:00.785Z</time>
      </trkpt>
      <trkpt lat="37.145446" lon="-5.920749">
        <ele>52.588570</ele>
        <time>2020-08-16T07:38:02.774Z</time>
      </trkpt>
      <trkpt lat="37.145359" lon="-5.920685">
        <ele>52.609021</ele>
        <time>2020-08-16T07:38:04.777Z</time>
      </trkpt>
      <trkpt lat="37.145262" lon="-5.920605">
        <ele>52.632560</ele>
        <time>2020-08-16T07:38:06.787Z</time>
      </trkpt>
      <trkpt lat="37.145155" lon="-5.920527">
        <ele>52.657654</ele>
        <time>2020-08-16T07:38:09.786Z</time>
      </trkpt>
      <trkpt lat="37.145067" lon="-5.920447">
        <ele>52.679691</ele>
        <time>2020-08-16T07:38:11.778Z</time>
      </trkpt>
      <trkpt lat="37.144972" lon="-5.920368">
        <ele>52.702802</ele>
        <time>2020-08-16T07:38:15.783Z</time>
      </trkpt>
      <trkpt lat="37.144869" lon="-5.920264">
        <ele>52.729612</ele>
        <time>2020-08-16T07:38:17.754Z</time>
      </trkpt>
      <trkpt lat="37.144796" lon="-5.920197">
        <ele>52.747953</ele>
        <time>2020-08-16T07:38:18.768Z</time>
      </trkpt>
      <trkpt lat="37.144689" lon="-5.920112">
        <ele>52.773635</ele>
        <time>2020-08-16T07:38:21.769Z</time>
      </trkpt>
      <trkpt lat="37.144619" lon="-5.920039">
        <ele>52.792093</ele>
        <time>2020-08-16T07:38:23.759Z</time>
      </trkpt>
      <trkpt lat="37.144525" lon="-5.919970">
        <ele>52.814177</ele>
        <time>2020-08-16T07:38:26.766Z</time>
      </trkpt>
      <trkpt lat="37.144434" lon="-5.919867">
        <ele>52.979213</ele>
        <time>2020-08-16T07:38:29.759Z</time>
      </trkpt>
      <trkpt lat="37.144296" lon="-5.919731">
        <ele>53.236733</ele>
        <time>2020-08-16T07:38:31.777Z</time>
      </trkpt>
      <trkpt lat="37.144196" lon="-5.919628">
        <ele>53.426601</ele>
        <time>2020-08-16T07:38:34.787Z</time>
      </trkpt>
      <trkpt lat="37.144121" lon="-5.919543">
        <ele>53.574920</ele>
        <time>2020-08-16T07:38:37.786Z</time>
      </trkpt>
      <trkpt lat="37.144037" lon="-5.919462">
        <ele>53.730392</ele>
        <time>2020-08-16T07:38:39.796Z</time>
      </trkpt>
      <trkpt lat="37.143943" lon="-5.919346">
        <ele>53.923883</ele>
        <time>2020-08-16T07:38:41.810Z</time>
      </trkpt>
      <trkpt lat="37.143871" lon="-5.919246">
        <ele>54.081509</ele>
        <time>2020-08-16T07:38:44.785Z</time>
      </trkpt>
      <trkpt lat="37.143777" lon="-5.919154">
        <ele>54.256462</ele>
        <time>2020-08-16T07:38:47.786Z</time>
      </trkpt>
      <trkpt lat="37.143716" lon="-5.919070">
        <ele>54.389380</ele>
        <time>2020-08-16T07:38:49.787Z</time>
      </trkpt>
      <trkpt lat="37.143616" lon="-5.918963">
        <ele>54.582252</ele>
        <time>2020-08-16T07:38:52.787Z</time>
      </trkpt>
      <trkpt lat="37.143517" lon="-5.918858">
        <ele>54.772490</ele>
        <time>2020-08-16T07:38:55.765Z</time>
      </trkpt>
      <trkpt lat="37.143446" lon="-5.918782">
        <ele>54.909452</ele>
        <time>2020-08-16T07:38:57.791Z</time>
      </trkpt>
      <trkpt lat="37.143383" lon="-5.918696">
        <ele>55.046078</ele>
        <time>2020-08-16T07:38:59.797Z</time>
      </trkpt>
      <trkpt lat="37.143302" lon="-5.918586">
        <ele>55.221249</ele>
        <time>2020-08-16T07:39:02.777Z</time>
      </trkpt>
      <trkpt lat="37.143218" lon="-5.918478">
        <ele>55.397754</ele>
        <time>2020-08-16T07:39:05.763Z</time>
      </trkpt>
      <trkpt lat="37.143121" lon="-5.918367">
        <ele>55.530190</ele>
        <time>2020-08-16T07:39:08.782Z</time>
      </trkpt>
      <trkpt lat="37.143024" lon="-5.918272">
        <ele>55.629881</ele>
        <time>2020-08-16T07:39:11.748Z</time>
      </trkpt>
      <trkpt lat="37.142938" lon="-5.918169">
        <ele>55.726202</ele>
        <time>2020-08-16T07:39:14.778Z</time>
      </trkpt>
      <trkpt lat="37.142855" lon="-5.918072">
        <ele>55.818097</ele>
        <time>2020-08-16T07:39:17.783Z</time>
      </trkpt>
      <trkpt lat="37.142770" lon="-5.917965">
        <ele>55.915646</ele>
        <time>2020-08-16T07:39:20.763Z</time>
      </trkpt>
      <trkpt lat="37.142697" lon="-5.917852">
        <ele>56.009572</ele>
        <time>2020-08-16T07:39:23.774Z</time>
      </trkpt>
      <trkpt lat="37.142610" lon="-5.917738">
        <ele>56.111487</ele>
        <time>2020-08-16T07:39:26.775Z</time>
      </trkpt>
      <trkpt lat="37.142531" lon="-5.917621">
        <ele>56.210503</ele>
        <time>2020-08-16T07:39:29.761Z</time>
      </trkpt>
      <trkpt lat="37.142455" lon="-5.917498">
        <ele>56.311000</ele>
        <time>2020-08-16T07:39:32.773Z</time>
      </trkpt>
      <trkpt lat="37.142376" lon="-5.917364">
        <ele>56.418627</ele>
        <time>2020-08-16T07:39:35.764Z</time>
      </trkpt>
      <trkpt lat="37.142289" lon="-5.917243">
        <ele>56.523855</ele>
        <time>2020-08-16T07:39:38.758Z</time>
      </trkpt>
      <trkpt lat="37.142204" lon="-5.917109">
        <ele>56.634441</ele>
        <time>2020-08-16T07:39:41.751Z</time>
      </trkpt>
      <trkpt lat="37.142151" lon="-5.917013">
        <ele>56.709851</ele>
        <time>2020-08-16T07:39:43.778Z</time>
      </trkpt>
      <trkpt lat="37.142084" lon="-5.916929">
        <ele>56.786587</ele>
        <time>2020-08-16T07:39:45.767Z</time>
      </trkpt>
      <trkpt lat="37.141993" lon="-5.916806">
        <ele>56.894955</ele>
        <time>2020-08-16T07:39:48.773Z</time>
      </trkpt>
      <trkpt lat="37.141955" lon="-5.916687">
        <ele>56.873657</ele>
        <time>2020-08-16T07:39:50.761Z</time>
      </trkpt>
      <trkpt lat="37.141883" lon="-5.916589">
        <ele>56.821245</ele>
        <time>2020-08-16T07:39:52.797Z</time>
      </trkpt>
      <trkpt lat="37.141830" lon="-5.916485">
        <ele>56.772701</ele>
        <time>2020-08-16T07:39:54.768Z</time>
      </trkpt>
      <trkpt lat="37.141750" lon="-5.916382">
        <ele>56.716146</ele>
        <time>2020-08-16T07:39:56.781Z</time>
      </trkpt>
      <trkpt lat="37.141695" lon="-5.916258">
        <ele>56.660340</ele>
        <time>2020-08-16T07:39:58.766Z</time>
      </trkpt>
      <trkpt lat="37.141634" lon="-5.916133">
        <ele>56.602702</ele>
        <time>2020-08-16T07:40:00.799Z</time>
      </trkpt>
      <trkpt lat="37.141574" lon="-5.916013">
        <ele>56.546995</ele>
        <time>2020-08-16T07:40:02.797Z</time>
      </trkpt>
      <trkpt lat="37.141508" lon="-5.915892">
        <ele>56.489335</ele>
        <time>2020-08-16T07:40:04.793Z</time>
      </trkpt>
      <trkpt lat="37.141436" lon="-5.915783">
        <ele>56.433665</ele>
        <time>2020-08-16T07:40:06.806Z</time>
      </trkpt>
      <trkpt lat="37.141369" lon="-5.915688">
        <ele>56.383781</ele>
        <time>2020-08-16T07:40:08.783Z</time>
      </trkpt>
      <trkpt lat="37.141309" lon="-5.915553">
        <ele>56.322995</ele>
        <time>2020-08-16T07:40:10.785Z</time>
      </trkpt>
      <trkpt lat="37.141244" lon="-5.915431">
        <ele>56.265287</ele>
        <time>2020-08-16T07:40:12.785Z</time>
      </trkpt>
      <trkpt lat="37.141176" lon="-5.915295">
        <ele>56.202151</ele>
        <time>2020-08-16T07:40:14.787Z</time>
      </trkpt>
      <trkpt lat="37.141125" lon="-5.915158">
        <ele>56.142688</ele>
        <time>2020-08-16T07:40:16.785Z</time>
      </trkpt>
      <trkpt lat="37.141075" lon="-5.915026">
        <ele>56.085214</ele>
        <time>2020-08-16T07:40:18.770Z</time>
      </trkpt>
      <trkpt lat="37.141026" lon="-5.914888">
        <ele>56.025802</ele>
        <time>2020-08-16T07:40:20.793Z</time>
      </trkpt>
      <trkpt lat="37.140947" lon="-5.914765">
        <ele>55.890383</ele>
        <time>2020-08-16T07:40:22.785Z</time>
      </trkpt>
      <trkpt lat="37.140882" lon="-5.914634">
        <ele>55.757977</ele>
        <time>2020-08-16T07:40:24.783Z</time>
      </trkpt>
      <trkpt lat="37.140821" lon="-5.914487">
        <ele>55.615772</ele>
        <time>2020-08-16T07:40:26.796Z</time>
      </trkpt>
      <trkpt lat="37.140749" lon="-5.914360">
        <ele>55.482045</ele>
        <time>2020-08-16T07:40:28.797Z</time>
      </trkpt>
      <trkpt lat="37.140676" lon="-5.914217">
        <ele>55.336335</ele>
        <time>2020-08-16T07:40:30.766Z</time>
      </trkpt>
      <trkpt lat="37.140612" lon="-5.914077">
        <ele>55.197851</ele>
        <time>2020-08-16T07:40:32.795Z</time>
      </trkpt>
      <trkpt lat="37.140539" lon="-5.913946">
        <ele>55.060699</ele>
        <time>2020-08-16T07:40:34.797Z</time>
      </trkpt>
      <trkpt lat="37.140445" lon="-5.913825">
        <ele>54.915720</ele>
        <time>2020-08-16T07:40:36.781Z</time>
      </trkpt>
      <trkpt lat="37.140374" lon="-5.913692">
        <ele>54.778367</ele>
        <time>2020-08-16T07:40:38.802Z</time>
      </trkpt>
      <trkpt lat="37.140288" lon="-5.913575">
        <ele>54.641805</ele>
        <time>2020-08-16T07:40:40.779Z</time>
      </trkpt>
      <trkpt lat="37.140218" lon="-5.913445">
        <ele>54.507189</ele>
        <time>2020-08-16T07:40:42.781Z</time>
      </trkpt>
      <trkpt lat="37.140146" lon="-5.913318">
        <ele>54.373462</ele>
        <time>2020-08-16T07:40:44.788Z</time>
      </trkpt>
      <trkpt lat="37.140075" lon="-5.913199">
        <ele>54.245915</ele>
        <time>2020-08-16T07:40:46.791Z</time>
      </trkpt>
      <trkpt lat="37.140008" lon="-5.913089">
        <ele>54.127126</ele>
        <time>2020-08-16T07:40:48.802Z</time>
      </trkpt>
      <trkpt lat="37.139941" lon="-5.912968">
        <ele>54.133331</ele>
        <time>2020-08-16T07:40:50.783Z</time>
      </trkpt>
      <trkpt lat="37.139868" lon="-5.912857">
        <ele>54.194123</ele>
        <time>2020-08-16T07:40:52.776Z</time>
      </trkpt>
      <trkpt lat="37.139795" lon="-5.912737">
        <ele>54.257894</ele>
        <time>2020-08-16T07:40:54.774Z</time>
      </trkpt>
      <trkpt lat="37.139716" lon="-5.912618">
        <ele>54.323317</ele>
        <time>2020-08-16T07:40:56.787Z</time>
      </trkpt>
      <trkpt lat="37.139638" lon="-5.912515">
        <ele>54.383336</ele>
        <time>2020-08-16T07:40:58.787Z</time>
      </trkpt>
      <trkpt lat="37.139571" lon="-5.912392">
        <ele>54.446272</ele>
        <time>2020-08-16T07:41:00.782Z</time>
      </trkpt>
      <trkpt lat="37.139505" lon="-5.912265">
        <ele>54.510319</ele>
        <time>2020-08-16T07:41:02.775Z</time>
      </trkpt>
      <trkpt lat="37.139448" lon="-5.912130">
        <ele>54.574858</ele>
        <time>2020-08-16T07:41:04.789Z</time>
      </trkpt>
      <trkpt lat="37.139368" lon="-5.912043">
        <ele>54.630968</ele>
        <time>2020-08-16T07:41:06.775Z</time>
      </trkpt>
      <trkpt lat="37.139289" lon="-5.911959">
        <ele>54.685851</ele>
        <time>2020-08-16T07:41:08.787Z</time>
      </trkpt>
      <trkpt lat="37.139200" lon="-5.911848">
        <ele>54.752362</ele>
        <time>2020-08-16T07:41:10.766Z</time>
      </trkpt>
      <trkpt lat="37.139107" lon="-5.911734">
        <ele>54.821273</ele>
        <time>2020-08-16T07:41:12.789Z</time>
      </trkpt>
      <trkpt lat="37.139033" lon="-5.911629">
        <ele>54.880481</ele>
        <time>2020-08-16T07:41:14.791Z</time>
      </trkpt>
      <trkpt lat="37.138952" lon="-5.911533">
        <ele>54.939537</ele>
        <time>2020-08-16T07:41:16.776Z</time>
      </trkpt>
      <trkpt lat="37.138907" lon="-5.911373">
        <ele>55.011216</ele>
        <time>2020-08-16T07:41:18.789Z</time>
      </trkpt>
      <trkpt lat="37.138836" lon="-5.911246">
        <ele>54.973409</ele>
        <time>2020-08-16T07:41:20.787Z</time>
      </trkpt>
      <trkpt lat="37.138750" lon="-5.911138">
        <ele>54.841686</ele>
        <time>2020-08-16T07:41:22.787Z</time>
      </trkpt>
      <trkpt lat="37.138678" lon="-5.911037">
        <ele>54.724768</ele>
        <time>2020-08-16T07:41:24.784Z</time>
      </trkpt>
      <trkpt lat="37.138586" lon="-5.910973">
        <ele>54.610895</ele>
        <time>2020-08-16T07:41:26.791Z</time>
      </trkpt>
      <trkpt lat="37.138546" lon="-5.910846">
        <ele>54.493062</ele>
        <time>2020-08-16T07:41:28.783Z</time>
      </trkpt>
      <trkpt lat="37.138463" lon="-5.910766">
        <ele>54.379760</ele>
        <time>2020-08-16T07:41:30.788Z</time>
      </trkpt>
      <trkpt lat="37.138388" lon="-5.910675">
        <ele>54.266814</ele>
        <time>2020-08-16T07:41:32.753Z</time>
      </trkpt>
      <trkpt lat="37.138320" lon="-5.910579">
        <ele>54.155997</ele>
        <time>2020-08-16T07:41:34.785Z</time>
      </trkpt>
      <trkpt lat="37.138231" lon="-5.910458">
        <ele>54.013931</ele>
        <time>2020-08-16T07:41:36.784Z</time>
      </trkpt>
      <trkpt lat="37.138160" lon="-5.910360">
        <ele>53.899660</ele>
        <time>2020-08-16T07:41:38.768Z</time>
      </trkpt>
      <trkpt lat="37.138095" lon="-5.910258">
        <ele>53.786977</ele>
        <time>2020-08-16T07:41:40.773Z</time>
      </trkpt>
      <trkpt lat="37.138034" lon="-5.910168">
        <ele>53.685039</ele>
        <time>2020-08-16T07:41:42.778Z</time>
      </trkpt>
      <trkpt lat="37.137939" lon="-5.910072">
        <ele>53.552990</ele>
        <time>2020-08-16T07:41:44.781Z</time>
      </trkpt>
      <trkpt lat="37.137851" lon="-5.909963">
        <ele>53.419122</ele>
        <time>2020-08-16T07:41:46.785Z</time>
      </trkpt>
      <trkpt lat="37.137757" lon="-5.909888">
        <ele>53.298534</ele>
        <time>2020-08-16T07:41:48.806Z</time>
      </trkpt>
      <trkpt lat="37.137676" lon="-5.909765">
        <ele>53.160864</ele>
        <time>2020-08-16T07:41:50.776Z</time>
      </trkpt>
      <trkpt lat="37.137584" lon="-5.909674">
        <ele>53.173304</ele>
        <time>2020-08-16T07:41:52.783Z</time>
      </trkpt>
      <trkpt lat="37.137461" lon="-5.909600">
        <ele>53.358409</ele>
        <time>2020-08-16T07:41:55.797Z</time>
      </trkpt>
      <trkpt lat="37.137360" lon="-5.909533">
        <ele>53.513442</ele>
        <time>2020-08-16T07:41:57.780Z</time>
      </trkpt>
      <trkpt lat="37.137275" lon="-5.909426">
        <ele>53.676843</ele>
        <time>2020-08-16T07:41:59.794Z</time>
      </trkpt>
      <trkpt lat="37.137180" lon="-5.909335">
        <ele>53.839038</ele>
        <time>2020-08-16T07:42:01.787Z</time>
      </trkpt>
      <trkpt lat="37.137126" lon="-5.909234">
        <ele>53.970589</ele>
        <time>2020-08-16T07:42:03.768Z</time>
      </trkpt>
      <trkpt lat="37.137020" lon="-5.909186">
        <ele>54.123507</ele>
        <time>2020-08-16T07:42:05.754Z</time>
      </trkpt>
      <trkpt lat="37.136968" lon="-5.909067">
        <ele>54.270304</ele>
        <time>2020-08-16T07:42:07.780Z</time>
      </trkpt>
      <trkpt lat="37.136906" lon="-5.908954">
        <ele>54.418693</ele>
        <time>2020-08-16T07:42:09.782Z</time>
      </trkpt>
      <trkpt lat="37.136799" lon="-5.908854">
        <ele>54.599750</ele>
        <time>2020-08-16T07:42:11.769Z</time>
      </trkpt>
      <trkpt lat="37.136723" lon="-5.908755">
        <ele>54.748423</ele>
        <time>2020-08-16T07:42:13.798Z</time>
      </trkpt>
      <trkpt lat="37.136627" lon="-5.908683">
        <ele>54.900196</ele>
        <time>2020-08-16T07:42:15.794Z</time>
      </trkpt>
      <trkpt lat="37.136496" lon="-5.908575">
        <ele>55.112908</ele>
        <time>2020-08-16T07:42:18.796Z</time>
      </trkpt>
      <trkpt lat="37.136427" lon="-5.908501">
        <ele>55.236090</ele>
        <time>2020-08-16T07:42:20.788Z</time>
      </trkpt>
      <trkpt lat="37.136344" lon="-5.908430">
        <ele>55.372410</ele>
        <time>2020-08-16T07:42:22.796Z</time>
      </trkpt>
      <trkpt lat="37.136261" lon="-5.908342">
        <ele>55.519876</ele>
        <time>2020-08-16T07:42:24.784Z</time>
      </trkpt>
      <trkpt lat="37.136180" lon="-5.908266">
        <ele>55.497998</ele>
        <time>2020-08-16T07:42:26.797Z</time>
      </trkpt>
      <trkpt lat="37.136058" lon="-5.908188">
        <ele>55.438775</ele>
        <time>2020-08-16T07:42:29.796Z</time>
      </trkpt>
      <trkpt lat="37.135943" lon="-5.908069">
        <ele>55.374298</ele>
        <time>2020-08-16T07:42:31.780Z</time>
      </trkpt>
      <trkpt lat="37.135882" lon="-5.907954">
        <ele>55.326673</ele>
        <time>2020-08-16T07:42:33.779Z</time>
      </trkpt>
      <trkpt lat="37.135805" lon="-5.907820">
        <ele>55.269719</ele>
        <time>2020-08-16T07:42:36.797Z</time>
      </trkpt>
      <trkpt lat="37.135718" lon="-5.907761">
        <ele>55.226945</ele>
        <time>2020-08-16T07:42:39.775Z</time>
      </trkpt>
      <trkpt lat="37.135633" lon="-5.907704">
        <ele>55.185259</ele>
        <time>2020-08-16T07:42:41.792Z</time>
      </trkpt>
      <trkpt lat="37.135568" lon="-5.907622">
        <ele>55.145389</ele>
        <time>2020-08-16T07:42:43.788Z</time>
      </trkpt>
      <trkpt lat="37.135495" lon="-5.907538">
        <ele>55.102544</ele>
        <time>2020-08-16T07:42:45.802Z</time>
      </trkpt>
      <trkpt lat="37.135415" lon="-5.907404">
        <ele>55.044822</ele>
        <time>2020-08-16T07:42:48.794Z</time>
      </trkpt>
      <trkpt lat="37.135339" lon="-5.907316">
        <ele>55.000089</ele>
        <time>2020-08-16T07:42:50.788Z</time>
      </trkpt>
      <trkpt lat="37.135217" lon="-5.907244">
        <ele>54.941776</ele>
        <time>2020-08-16T07:42:52.773Z</time>
      </trkpt>
      <trkpt lat="37.135119" lon="-5.907135">
        <ele>54.885129</ele>
        <time>2020-08-16T07:42:55.767Z</time>
      </trkpt>
      <trkpt lat="37.135036" lon="-5.907078">
        <ele>54.844204</ele>
        <time>2020-08-16T07:42:57.784Z</time>
      </trkpt>
      <trkpt lat="37.134940" lon="-5.907014">
        <ele>54.797184</ele>
        <time>2020-08-16T07:42:59.780Z</time>
      </trkpt>
      <trkpt lat="37.134861" lon="-5.906940">
        <ele>54.765587</ele>
        <time>2020-08-16T07:43:01.786Z</time>
      </trkpt>
      <trkpt lat="37.134760" lon="-5.906812">
        <ele>54.874577</ele>
        <time>2020-08-16T07:43:04.781Z</time>
      </trkpt>
      <trkpt lat="37.134683" lon="-5.906699">
        <ele>54.964539</ele>
        <time>2020-08-16T07:43:06.760Z</time>
      </trkpt>
      <trkpt lat="37.134575" lon="-5.906607">
        <ele>55.063642</ele>
        <time>2020-08-16T07:43:08.788Z</time>
      </trkpt>
      <trkpt lat="37.134534" lon="-5.906489">
        <ele>55.141542</ele>
        <time>2020-08-16T07:43:10.765Z</time>
      </trkpt>
      <trkpt lat="37.134508" lon="-5.906381">
        <ele>55.209816</ele>
        <time>2020-08-16T07:43:12.779Z</time>
      </trkpt>
      <trkpt lat="37.134446" lon="-5.906275">
        <ele>55.289379</ele>
        <time>2020-08-16T07:43:14.796Z</time>
      </trkpt>
      <trkpt lat="37.134349" lon="-5.906181">
        <ele>55.382429</ele>
        <time>2020-08-16T07:43:16.753Z</time>
      </trkpt>
      <trkpt lat="37.134291" lon="-5.905984">
        <ele>55.509520</ele>
        <time>2020-08-16T07:43:18.767Z</time>
      </trkpt>
      <trkpt lat="37.134157" lon="-5.905962">
        <ele>55.612109</ele>
        <time>2020-08-16T07:43:21.770Z</time>
      </trkpt>
      <trkpt lat="37.134065" lon="-5.905850">
        <ele>55.709432</ele>
        <time>2020-08-16T07:43:24.788Z</time>
      </trkpt>
      <trkpt lat="37.133980" lon="-5.905762">
        <ele>55.793096</ele>
        <time>2020-08-16T07:43:26.767Z</time>
      </trkpt>
      <trkpt lat="37.133865" lon="-5.905590">
        <ele>55.928950</ele>
        <time>2020-08-16T07:43:30.793Z</time>
      </trkpt>
      <trkpt lat="37.133748" lon="-5.905540">
        <ele>56.022779</ele>
        <time>2020-08-16T07:43:33.756Z</time>
      </trkpt>
      <trkpt lat="37.133683" lon="-5.905459">
        <ele>56.092333</ele>
        <time>2020-08-16T07:43:35.763Z</time>
      </trkpt>
      <trkpt lat="37.133597" lon="-5.905371">
        <ele>56.048625</ele>
        <time>2020-08-16T07:43:37.761Z</time>
      </trkpt>
      <trkpt lat="37.133491" lon="-5.905281">
        <ele>55.909661</ele>
        <time>2020-08-16T07:43:39.766Z</time>
      </trkpt>
      <trkpt lat="37.133403" lon="-5.905225">
        <ele>55.802532</ele>
        <time>2020-08-16T07:43:41.766Z</time>
      </trkpt>
      <trkpt lat="37.133309" lon="-5.905176">
        <ele>55.692019</ele>
        <time>2020-08-16T07:43:44.763Z</time>
      </trkpt>
      <trkpt lat="37.133253" lon="-5.905073">
        <ele>55.584114</ele>
        <time>2020-08-16T07:43:46.788Z</time>
      </trkpt>
      <trkpt lat="37.133158" lon="-5.905008">
        <ele>55.466631</ele>
        <time>2020-08-16T07:43:48.753Z</time>
      </trkpt>
      <trkpt lat="37.133092" lon="-5.904918">
        <ele>55.360791</ele>
        <time>2020-08-16T07:43:50.769Z</time>
      </trkpt>
      <trkpt lat="37.132994" lon="-5.904832">
        <ele>55.230945</ele>
        <time>2020-08-16T07:43:53.763Z</time>
      </trkpt>
      <trkpt lat="37.132924" lon="-5.904747">
        <ele>55.125173</ele>
        <time>2020-08-16T07:43:55.759Z</time>
      </trkpt>
      <trkpt lat="37.132822" lon="-5.904673">
        <ele>54.997248</ele>
        <time>2020-08-16T07:43:58.786Z</time>
      </trkpt>
      <trkpt lat="37.132747" lon="-5.904570">
        <ele>54.876511</ele>
        <time>2020-08-16T07:44:00.784Z</time>
      </trkpt>
      <trkpt lat="37.132668" lon="-5.904492">
        <ele>54.767362</ele>
        <time>2020-08-16T07:44:02.761Z</time>
      </trkpt>
      <trkpt lat="37.132606" lon="-5.904390">
        <ele>54.656346</ele>
        <time>2020-08-16T07:44:04.782Z</time>
      </trkpt>
      <trkpt lat="37.132506" lon="-5.904336">
        <ele>54.538147</ele>
        <time>2020-08-16T07:44:07.760Z</time>
      </trkpt>
      <trkpt lat="37.132391" lon="-5.904229">
        <ele>54.382699</ele>
        <time>2020-08-16T07:44:10.779Z</time>
      </trkpt>
      <trkpt lat="37.132290" lon="-5.904164">
        <ele>54.259458</ele>
        <time>2020-08-16T07:44:13.789Z</time>
      </trkpt>
      <trkpt lat="37.132158" lon="-5.904112">
        <ele>54.280210</ele>
        <time>2020-08-16T07:44:16.787Z</time>
      </trkpt>
      <trkpt lat="37.132064" lon="-5.903983">
        <ele>54.546164</ele>
        <time>2020-08-16T07:44:19.782Z</time>
      </trkpt>
      <trkpt lat="37.131966" lon="-5.903929">
        <ele>54.750480</ele>
        <time>2020-08-16T07:44:22.758Z</time>
      </trkpt>
      <trkpt lat="37.131893" lon="-5.903832">
        <ele>54.953472</ele>
        <time>2020-08-16T07:44:25.763Z</time>
      </trkpt>
      <trkpt lat="37.131798" lon="-5.903776">
        <ele>55.153834</ele>
        <time>2020-08-16T07:44:29.759Z</time>
      </trkpt>
      <trkpt lat="37.131720" lon="-5.903697">
        <ele>55.345199</ele>
        <time>2020-08-16T07:44:33.794Z</time>
      </trkpt>
      <trkpt lat="37.131651" lon="-5.903622">
        <ele>55.519478</ele>
        <time>2020-08-16T07:44:37.783Z</time>
      </trkpt>
      <trkpt lat="37.131549" lon="-5.903551">
        <ele>55.742146</ele>
        <time>2020-08-16T07:44:41.781Z</time>
      </trkpt>
      <trkpt lat="37.131470" lon="-5.903478">
        <ele>55.929444</ele>
        <time>2020-08-16T07:44:45.777Z</time>
      </trkpt>
      <trkpt lat="37.131381" lon="-5.903395">
        <ele>56.141137</ele>
        <time>2020-08-16T07:44:50.783Z</time>
      </trkpt>
      <trkpt lat="37.131300" lon="-5.903338">
        <ele>56.318420</ele>
        <time>2020-08-16T07:44:54.791Z</time>
      </trkpt>
      <trkpt lat="37.131218" lon="-5.903286">
        <ele>56.493808</ele>
        <time>2020-08-16T07:44:59.758Z</time>
      </trkpt>
      <trkpt lat="37.131140" lon="-5.903222">
        <ele>56.671721</ele>
        <time>2020-08-16T07:45:05.774Z</time>
      </trkpt>
      <trkpt lat="37.131073" lon="-5.903139">
        <ele>56.851470</ele>
        <time>2020-08-16T07:45:08.784Z</time>
      </trkpt>
      <trkpt lat="37.131006" lon="-5.903046">
        <ele>57.042220</ele>
        <time>2020-08-16T07:45:11.787Z</time>
      </trkpt>
      <trkpt lat="37.130911" lon="-5.902950">
        <ele>57.275085</ele>
        <time>2020-08-16T07:45:14.790Z</time>
      </trkpt>
      <trkpt lat="37.130837" lon="-5.902860">
        <ele>57.471835</ele>
        <time>2020-08-16T07:45:16.778Z</time>
      </trkpt>
      <trkpt lat="37.130776" lon="-5.902755">
        <ele>57.643429</ele>
        <time>2020-08-16T07:45:18.795Z</time>
      </trkpt>
      <trkpt lat="37.130702" lon="-5.902642">
        <ele>57.776646</ele>
        <time>2020-08-16T07:45:20.785Z</time>
      </trkpt>
      <trkpt lat="37.130755" lon="-5.902733">
        <ele>57.879311</ele>
        <time>2020-08-16T07:45:35.796Z</time>
      </trkpt>
      <trkpt lat="37.130831" lon="-5.902816">
        <ele>57.994457</ele>
        <time>2020-08-16T07:45:42.760Z</time>
      </trkpt>
      <trkpt lat="37.130889" lon="-5.902912">
        <ele>58.104186</ele>
        <time>2020-08-16T07:45:46.789Z</time>
      </trkpt>
      <trkpt lat="37.130958" lon="-5.902991">
        <ele>58.210936</ele>
        <time>2020-08-16T07:45:51.784Z</time>
      </trkpt>
      <trkpt lat="37.131023" lon="-5.903086">
        <ele>58.324981</ele>
        <time>2020-08-16T07:45:56.801Z</time>
      </trkpt>
      <trkpt lat="37.131030" lon="-5.903205">
        <ele>58.433683</ele>
        <time>2020-08-16T07:46:00.763Z</time>
      </trkpt>
      <trkpt lat="37.130934" lon="-5.903310">
        <ele>58.579225</ele>
        <time>2020-08-16T07:46:03.768Z</time>
      </trkpt>
      <trkpt lat="37.130796" lon="-5.903218">
        <ele>58.757800</ele>
        <time>2020-08-16T07:46:05.759Z</time>
      </trkpt>
      <trkpt lat="37.130752" lon="-5.903108">
        <ele>58.869914</ele>
        <time>2020-08-16T07:46:07.759Z</time>
      </trkpt>
      <trkpt lat="37.130698" lon="-5.902969">
        <ele>59.010775</ele>
        <time>2020-08-16T07:46:09.755Z</time>
      </trkpt>
      <trkpt lat="37.130649" lon="-5.902801">
        <ele>59.173741</ele>
        <time>2020-08-16T07:46:11.787Z</time>
      </trkpt>
      <trkpt lat="37.130585" lon="-5.902656">
        <ele>59.324727</ele>
        <time>2020-08-16T07:46:13.781Z</time>
      </trkpt>
      <trkpt lat="37.130477" lon="-5.902497">
        <ele>59.515016</ele>
        <time>2020-08-16T07:46:15.788Z</time>
      </trkpt>
      <trkpt lat="37.130378" lon="-5.902319">
        <ele>59.599229</ele>
        <time>2020-08-16T07:46:17.782Z</time>
      </trkpt>
      <trkpt lat="37.130251" lon="-5.902195">
        <ele>59.389560</ele>
        <time>2020-08-16T07:46:19.759Z</time>
      </trkpt>
      <trkpt lat="37.130125" lon="-5.902047">
        <ele>59.164673</ele>
        <time>2020-08-16T07:46:21.757Z</time>
      </trkpt>
      <trkpt lat="37.130015" lon="-5.901894">
        <ele>58.950689</ele>
        <time>2020-08-16T07:46:23.785Z</time>
      </trkpt>
      <trkpt lat="37.129917" lon="-5.901825">
        <ele>58.804279</ele>
        <time>2020-08-16T07:46:25.777Z</time>
      </trkpt>
      <trkpt lat="37.129822" lon="-5.901714">
        <ele>58.635138</ele>
        <time>2020-08-16T07:46:27.787Z</time>
      </trkpt>
      <trkpt lat="37.129749" lon="-5.901647">
        <ele>58.517295</ele>
        <time>2020-08-16T07:46:28.786Z</time>
      </trkpt>
      <trkpt lat="37.129650" lon="-5.901544">
        <ele>58.349727</ele>
        <time>2020-08-16T07:46:30.786Z</time>
      </trkpt>
      <trkpt lat="37.129559" lon="-5.901452">
        <ele>58.197460</ele>
        <time>2020-08-16T07:46:32.783Z</time>
      </trkpt>
      <trkpt lat="37.129472" lon="-5.901353">
        <ele>58.044427</ele>
        <time>2020-08-16T07:46:34.785Z</time>
      </trkpt>
      <trkpt lat="37.129397" lon="-5.901246">
        <ele>57.896447</ele>
        <time>2020-08-16T07:46:36.793Z</time>
      </trkpt>
      <trkpt lat="37.129317" lon="-5.901136">
        <ele>57.741801</ele>
        <time>2020-08-16T07:46:38.788Z</time>
      </trkpt>
      <trkpt lat="37.129228" lon="-5.901043">
        <ele>57.590891</ele>
        <time>2020-08-16T07:46:40.785Z</time>
      </trkpt>
      <trkpt lat="37.129118" lon="-5.900928">
        <ele>57.404335</ele>
        <time>2020-08-16T07:46:43.787Z</time>
      </trkpt>
      <trkpt lat="37.129047" lon="-5.900831">
        <ele>57.262969</ele>
        <time>2020-08-16T07:46:46.776Z</time>
      </trkpt>
      <trkpt lat="37.128976" lon="-5.900716">
        <ele>57.097710</ele>
        <time>2020-08-16T07:46:48.784Z</time>
      </trkpt>
      <trkpt lat="37.128887" lon="-5.900688">
        <ele>56.966947</ele>
        <time>2020-08-16T07:46:50.785Z</time>
      </trkpt>
      <trkpt lat="37.128785" lon="-5.900672">
        <ele>56.820454</ele>
        <time>2020-08-16T07:46:53.779Z</time>
      </trkpt>
      <trkpt lat="37.128707" lon="-5.900568">
        <ele>56.658223</ele>
        <time>2020-08-16T07:46:56.786Z</time>
      </trkpt>
      <trkpt lat="37.128590" lon="-5.900470">
        <ele>56.457724</ele>
        <time>2020-08-16T07:46:59.775Z</time>
      </trkpt>
      <trkpt lat="37.128518" lon="-5.900391">
        <ele>56.321397</ele>
        <time>2020-08-16T07:47:02.773Z</time>
      </trkpt>
      <trkpt lat="37.128401" lon="-5.900329">
        <ele>56.140389</ele>
        <time>2020-08-16T07:47:04.783Z</time>
      </trkpt>
      <trkpt lat="37.128375" lon="-5.900184">
        <ele>55.971524</ele>
        <time>2020-08-16T07:47:06.796Z</time>
      </trkpt>
      <trkpt lat="37.128291" lon="-5.900083">
        <ele>55.805694</ele>
        <time>2020-08-16T07:47:08.782Z</time>
      </trkpt>
      <trkpt lat="37.128213" lon="-5.899977">
        <ele>55.641799</ele>
        <time>2020-08-16T07:47:10.785Z</time>
      </trkpt>
      <trkpt lat="37.128180" lon="-5.899853">
        <ele>55.493267</ele>
        <time>2020-08-16T07:47:12.796Z</time>
      </trkpt>
      <trkpt lat="37.128087" lon="-5.899770">
        <ele>55.330605</ele>
        <time>2020-08-16T07:47:15.770Z</time>
      </trkpt>
      <trkpt lat="37.128011" lon="-5.899667">
        <ele>55.171148</ele>
        <time>2020-08-16T07:47:17.760Z</time>
      </trkpt>
      <trkpt lat="37.127919" lon="-5.899565">
        <ele>54.996159</ele>
        <time>2020-08-16T07:47:20.791Z</time>
      </trkpt>
      <trkpt lat="37.127835" lon="-5.899490">
        <ele>54.849217</ele>
        <time>2020-08-16T07:47:23.792Z</time>
      </trkpt>
      <trkpt lat="37.127739" lon="-5.899400">
        <ele>54.895117</ele>
        <time>2020-08-16T07:47:26.811Z</time>
      </trkpt>
      <trkpt lat="37.127654" lon="-5.899281">
        <ele>55.239233</ele>
        <time>2020-08-16T07:47:29.761Z</time>
      </trkpt>
      <trkpt lat="37.127571" lon="-5.899207">
        <ele>55.514325</ele>
        <time>2020-08-16T07:47:33.794Z</time>
      </trkpt>
      <trkpt lat="37.127497" lon="-5.899132">
        <ele>55.771337</ele>
        <time>2020-08-16T07:47:35.777Z</time>
      </trkpt>
      <trkpt lat="37.127415" lon="-5.899057">
        <ele>56.045494</ele>
        <time>2020-08-16T07:47:37.795Z</time>
      </trkpt>
      <trkpt lat="37.127307" lon="-5.898968">
        <ele>56.394584</ele>
        <time>2020-08-16T07:47:40.786Z</time>
      </trkpt>
      <trkpt lat="37.127234" lon="-5.898893">
        <ele>56.649501</ele>
        <time>2020-08-16T07:47:42.785Z</time>
      </trkpt>
      <trkpt lat="37.127135" lon="-5.898816">
        <ele>56.964187</ele>
        <time>2020-08-16T07:47:44.756Z</time>
      </trkpt>
      <trkpt lat="37.127059" lon="-5.898696">
        <ele>57.294265</ele>
        <time>2020-08-16T07:47:46.800Z</time>
      </trkpt>
      <trkpt lat="37.126989" lon="-5.898605">
        <ele>57.566612</ele>
        <time>2020-08-16T07:47:48.790Z</time>
      </trkpt>
      <trkpt lat="37.126890" lon="-5.898487">
        <ele>57.935552</ele>
        <time>2020-08-16T07:47:51.785Z</time>
      </trkpt>
      <trkpt lat="37.126817" lon="-5.898414">
        <ele>58.187762</ele>
        <time>2020-08-16T07:47:53.781Z</time>
      </trkpt>
      <trkpt lat="37.126740" lon="-5.898351">
        <ele>58.436115</ele>
        <time>2020-08-16T07:47:55.789Z</time>
      </trkpt>
      <trkpt lat="37.126665" lon="-5.898288">
        <ele>58.679961</ele>
        <time>2020-08-16T07:47:57.784Z</time>
      </trkpt>
      <trkpt lat="37.126556" lon="-5.898175">
        <ele>59.061979</ele>
        <time>2020-08-16T07:48:00.785Z</time>
      </trkpt>
      <trkpt lat="37.126499" lon="-5.898085">
        <ele>59.309538</ele>
        <time>2020-08-16T07:48:02.781Z</time>
      </trkpt>
      <trkpt lat="37.126415" lon="-5.898002">
        <ele>59.598415</ele>
        <time>2020-08-16T07:48:04.787Z</time>
      </trkpt>
      <trkpt lat="37.126308" lon="-5.897900">
        <ele>59.612784</ele>
        <time>2020-08-16T07:48:07.785Z</time>
      </trkpt>
      <trkpt lat="37.126235" lon="-5.897830">
        <ele>59.613268</ele>
        <time>2020-08-16T07:48:09.790Z</time>
      </trkpt>
      <trkpt lat="37.126126" lon="-5.897731">
        <ele>59.613976</ele>
        <time>2020-08-16T07:48:12.764Z</time>
      </trkpt>
      <trkpt lat="37.126052" lon="-5.897633">
        <ele>59.614542</ele>
        <time>2020-08-16T07:48:14.789Z</time>
      </trkpt>
      <trkpt lat="37.125948" lon="-5.897576">
        <ele>59.615139</ele>
        <time>2020-08-16T07:48:16.792Z</time>
      </trkpt>
      <trkpt lat="37.125860" lon="-5.897446">
        <ele>59.615854</ele>
        <time>2020-08-16T07:48:19.780Z</time>
      </trkpt>
      <trkpt lat="37.125766" lon="-5.897329">
        <ele>59.616551</ele>
        <time>2020-08-16T07:48:22.785Z</time>
      </trkpt>
      <trkpt lat="37.125684" lon="-5.897251">
        <ele>59.617092</ele>
        <time>2020-08-16T07:48:24.778Z</time>
      </trkpt>
      <trkpt lat="37.125611" lon="-5.897175">
        <ele>59.617592</ele>
        <time>2020-08-16T07:48:26.789Z</time>
      </trkpt>
      <trkpt lat="37.125530" lon="-5.897064">
        <ele>59.618223</ele>
        <time>2020-08-16T07:48:29.770Z</time>
      </trkpt>
      <trkpt lat="37.125457" lon="-5.896961">
        <ele>59.618801</ele>
        <time>2020-08-16T07:48:31.777Z</time>
      </trkpt>
      <trkpt lat="37.125374" lon="-5.896896">
        <ele>59.619316</ele>
        <time>2020-08-16T07:48:33.785Z</time>
      </trkpt>
      <trkpt lat="37.125298" lon="-5.896823">
        <ele>59.619819</ele>
        <time>2020-08-16T07:48:35.782Z</time>
      </trkpt>
      <trkpt lat="37.125215" lon="-5.896729">
        <ele>59.620408</ele>
        <time>2020-08-16T07:48:37.779Z</time>
      </trkpt>
      <trkpt lat="37.125144" lon="-5.896650">
        <ele>59.620907</ele>
        <time>2020-08-16T07:48:39.777Z</time>
      </trkpt>
      <trkpt lat="37.125071" lon="-5.896582">
        <ele>59.621385</ele>
        <time>2020-08-16T07:48:41.783Z</time>
      </trkpt>
      <trkpt lat="37.124983" lon="-5.896512">
        <ele>59.652759</ele>
        <time>2020-08-16T07:48:43.777Z</time>
      </trkpt>
      <trkpt lat="37.124912" lon="-5.896412">
        <ele>59.700490</ele>
        <time>2020-08-16T07:48:45.769Z</time>
      </trkpt>
      <trkpt lat="37.124844" lon="-5.896330">
        <ele>59.742663</ele>
        <time>2020-08-16T07:48:47.787Z</time>
      </trkpt>
      <trkpt lat="37.124762" lon="-5.896256">
        <ele>59.787827</ele>
        <time>2020-08-16T07:48:49.792Z</time>
      </trkpt>
      <trkpt lat="37.124699" lon="-5.896156">
        <ele>59.833258</ele>
        <time>2020-08-16T07:48:51.777Z</time>
      </trkpt>
      <trkpt lat="37.124600" lon="-5.896054">
        <ele>59.890537</ele>
        <time>2020-08-16T07:48:54.779Z</time>
      </trkpt>
      <trkpt lat="37.124496" lon="-5.895938">
        <ele>59.952760</ele>
        <time>2020-08-16T07:48:57.789Z</time>
      </trkpt>
      <trkpt lat="37.124432" lon="-5.895855">
        <ele>59.993918</ele>
        <time>2020-08-16T07:48:59.755Z</time>
      </trkpt>
      <trkpt lat="37.124355" lon="-5.895794">
        <ele>60.034635</ele>
        <time>2020-08-16T07:49:01.774Z</time>
      </trkpt>
      <trkpt lat="37.124253" lon="-5.895700">
        <ele>60.091224</ele>
        <time>2020-08-16T07:49:04.787Z</time>
      </trkpt>
      <trkpt lat="37.124176" lon="-5.895635">
        <ele>60.132719</ele>
        <time>2020-08-16T07:49:06.805Z</time>
      </trkpt>
      <trkpt lat="37.124096" lon="-5.895564">
        <ele>60.176534</ele>
        <time>2020-08-16T07:49:08.786Z</time>
      </trkpt>
      <trkpt lat="37.124027" lon="-5.895488">
        <ele>60.217590</ele>
        <time>2020-08-16T07:49:10.775Z</time>
      </trkpt>
      <trkpt lat="37.123932" lon="-5.895376">
        <ele>60.275880</ele>
        <time>2020-08-16T07:49:13.788Z</time>
      </trkpt>
      <trkpt lat="37.123853" lon="-5.895311">
        <ele>60.318121</ele>
        <time>2020-08-16T07:49:15.788Z</time>
      </trkpt>
      <trkpt lat="37.123793" lon="-5.895213">
        <ele>60.362165</ele>
        <time>2020-08-16T07:49:17.788Z</time>
      </trkpt>
      <trkpt lat="37.123729" lon="-5.895124">
        <ele>60.404887</ele>
        <time>2020-08-16T07:49:19.788Z</time>
      </trkpt>
      <trkpt lat="37.123652" lon="-5.895029">
        <ele>60.391879</ele>
        <time>2020-08-16T07:49:21.790Z</time>
      </trkpt>
      <trkpt lat="37.123594" lon="-5.894913">
        <ele>60.331840</ele>
        <time>2020-08-16T07:49:23.783Z</time>
      </trkpt>
      <trkpt lat="37.123507" lon="-5.894835">
        <ele>60.273027</ele>
        <time>2020-08-16T07:49:25.792Z</time>
      </trkpt>
      <trkpt lat="37.123419" lon="-5.894792">
        <ele>60.221088</ele>
        <time>2020-08-16T07:49:27.783Z</time>
      </trkpt>
      <trkpt lat="37.123328" lon="-5.894689">
        <ele>60.153676</ele>
        <time>2020-08-16T07:49:30.797Z</time>
      </trkpt>
      <trkpt lat="37.123259" lon="-5.894611">
        <ele>60.102590</ele>
        <time>2020-08-16T07:49:32.818Z</time>
      </trkpt>
      <trkpt lat="37.123202" lon="-5.894515">
        <ele>60.050105</ele>
        <time>2020-08-16T07:49:34.794Z</time>
      </trkpt>
      <trkpt lat="37.123107" lon="-5.894390">
        <ele>59.974383</ele>
        <time>2020-08-16T07:49:36.774Z</time>
      </trkpt>
      <trkpt lat="37.123038" lon="-5.894313">
        <ele>59.923590</ele>
        <time>2020-08-16T07:49:38.775Z</time>
      </trkpt>
      <trkpt lat="37.122956" lon="-5.894255">
        <ele>59.871817</ele>
        <time>2020-08-16T07:49:40.768Z</time>
      </trkpt>
      <trkpt lat="37.122883" lon="-5.894174">
        <ele>59.818214</ele>
        <time>2020-08-16T07:49:44.801Z</time>
      </trkpt>
      <trkpt lat="37.122753" lon="-5.894020">
        <ele>59.719870</ele>
        <time>2020-08-16T07:49:46.780Z</time>
      </trkpt>
      <trkpt lat="37.122654" lon="-5.893923">
        <ele>59.650781</ele>
        <time>2020-08-16T07:49:48.782Z</time>
      </trkpt>
      <trkpt lat="37.122583" lon="-5.893848">
        <ele>59.599730</ele>
        <time>2020-08-16T07:49:50.785Z</time>
      </trkpt>
      <trkpt lat="37.122498" lon="-5.893758">
        <ele>59.538553</ele>
        <time>2020-08-16T07:49:53.775Z</time>
      </trkpt>
      <trkpt lat="37.122416" lon="-5.893673">
        <ele>59.480047</ele>
        <time>2020-08-16T07:49:55.794Z</time>
      </trkpt>
      <trkpt lat="37.122340" lon="-5.893578">
        <ele>59.400633</ele>
        <time>2020-08-16T07:49:57.774Z</time>
      </trkpt>
      <trkpt lat="37.122238" lon="-5.893504">
        <ele>59.250487</ele>
        <time>2020-08-16T07:49:59.763Z</time>
      </trkpt>
      <trkpt lat="37.122167" lon="-5.893419">
        <ele>59.125419</ele>
        <time>2020-08-16T07:50:01.769Z</time>
      </trkpt>
      <trkpt lat="37.122100" lon="-5.893320">
        <ele>58.993491</ele>
        <time>2020-08-16T07:50:04.798Z</time>
      </trkpt>
      <trkpt lat="37.122020" lon="-5.893236">
        <ele>58.860547</ele>
        <time>2020-08-16T07:50:06.781Z</time>
      </trkpt>
      <trkpt lat="37.121904" lon="-5.893075">
        <ele>58.640087</ele>
        <time>2020-08-16T07:50:09.787Z</time>
      </trkpt>
      <trkpt lat="37.121812" lon="-5.893000">
        <ele>58.500273</ele>
        <time>2020-08-16T07:50:11.775Z</time>
      </trkpt>
      <trkpt lat="37.121730" lon="-5.892928">
        <ele>58.372727</ele>
        <time>2020-08-16T07:50:13.772Z</time>
      </trkpt>
      <trkpt lat="37.121650" lon="-5.892857">
        <ele>58.247850</ele>
        <time>2020-08-16T07:50:15.782Z</time>
      </trkpt>
      <trkpt lat="37.121538" lon="-5.892765">
        <ele>58.077255</ele>
        <time>2020-08-16T07:50:16.778Z</time>
      </trkpt>
      <trkpt lat="37.121461" lon="-5.892664">
        <ele>57.935284</ele>
        <time>2020-08-16T07:50:18.765Z</time>
      </trkpt>
      <trkpt lat="37.121368" lon="-5.892543">
        <ele>57.764535</ele>
        <time>2020-08-16T07:50:20.777Z</time>
      </trkpt>
      <trkpt lat="37.121309" lon="-5.892408">
        <ele>57.608125</ele>
        <time>2020-08-16T07:50:22.789Z</time>
      </trkpt>
      <trkpt lat="37.121252" lon="-5.892283">
        <ele>57.461826</ele>
        <time>2020-08-16T07:50:24.786Z</time>
      </trkpt>
      <trkpt lat="37.121187" lon="-5.892184">
        <ele>57.331532</ele>
        <time>2020-08-16T07:50:26.790Z</time>
      </trkpt>
      <trkpt lat="37.121119" lon="-5.892065">
        <ele>57.182788</ele>
        <time>2020-08-16T07:50:28.792Z</time>
      </trkpt>
      <trkpt lat="37.120515" lon="-5.891677">
        <ele>57.833767</ele>
        <time>2020-08-16T07:50:44.841Z</time>
      </trkpt>
      <trkpt lat="37.120438" lon="-5.891602">
        <ele>57.937320</ele>
        <time>2020-08-16T07:50:46.767Z</time>
      </trkpt>
      <trkpt lat="37.120365" lon="-5.891513">
        <ele>58.045455</ele>
        <time>2020-08-16T07:50:48.780Z</time>
      </trkpt>
      <trkpt lat="37.120255" lon="-5.891408">
        <ele>58.192281</ele>
        <time>2020-08-16T07:50:54.782Z</time>
      </trkpt>
      <trkpt lat="37.120148" lon="-5.891343">
        <ele>58.318560</ele>
        <time>2020-08-16T07:50:58.791Z</time>
      </trkpt>
      <trkpt lat="37.120027" lon="-5.891183">
        <ele>58.505319</ele>
        <time>2020-08-16T07:51:00.780Z</time>
      </trkpt>
      <trkpt lat="37.119915" lon="-5.890981">
        <ele>58.713690</ele>
        <time>2020-08-16T07:51:01.788Z</time>
      </trkpt>
      <trkpt lat="37.119822" lon="-5.890917">
        <ele>58.826362</ele>
        <time>2020-08-16T07:51:03.759Z</time>
      </trkpt>
      <trkpt lat="37.119760" lon="-5.890834">
        <ele>58.922683</ele>
        <time>2020-08-16T07:51:05.783Z</time>
      </trkpt>
      <trkpt lat="37.119684" lon="-5.890772">
        <ele>59.018981</ele>
        <time>2020-08-16T07:51:07.787Z</time>
      </trkpt>
      <trkpt lat="37.119598" lon="-5.890683">
        <ele>58.982440</ele>
        <time>2020-08-16T07:51:11.778Z</time>
      </trkpt>
      <trkpt lat="37.119499" lon="-5.890567">
        <ele>58.855370</ele>
        <time>2020-08-16T07:51:13.787Z</time>
      </trkpt>
      <trkpt lat="37.119404" lon="-5.890497">
        <ele>58.752031</ele>
        <time>2020-08-16T07:51:15.765Z</time>
      </trkpt>
      <trkpt lat="37.119345" lon="-5.890405">
        <ele>58.663738</ele>
        <time>2020-08-16T07:51:17.766Z</time>
      </trkpt>
      <trkpt lat="37.119268" lon="-5.890322">
        <ele>58.568511</ele>
        <time>2020-08-16T07:51:19.801Z</time>
      </trkpt>
      <trkpt lat="37.119152" lon="-5.890179">
        <ele>58.415956</ele>
        <time>2020-08-16T07:51:23.773Z</time>
      </trkpt>
      <trkpt lat="37.119050" lon="-5.890058">
        <ele>58.284274</ele>
        <time>2020-08-16T07:51:25.791Z</time>
      </trkpt>
      <trkpt lat="37.118949" lon="-5.889937">
        <ele>58.153272</ele>
        <time>2020-08-16T07:51:28.774Z</time>
      </trkpt>
      <trkpt lat="37.118865" lon="-5.889863">
        <ele>58.056995</ele>
        <time>2020-08-16T07:51:31.784Z</time>
      </trkpt>
      <trkpt lat="37.118771" lon="-5.889795">
        <ele>57.955218</ele>
        <time>2020-08-16T07:51:34.797Z</time>
      </trkpt>
      <trkpt lat="37.118644" lon="-5.889610">
        <ele>57.772656</ele>
        <time>2020-08-16T07:51:37.798Z</time>
      </trkpt>
      <trkpt lat="37.118555" lon="-5.889543">
        <ele>57.675300</ele>
        <time>2020-08-16T07:51:39.774Z</time>
      </trkpt>
      <trkpt lat="37.118470" lon="-5.889488">
        <ele>57.585594</ele>
        <time>2020-08-16T07:51:41.780Z</time>
      </trkpt>
      <trkpt lat="37.118378" lon="-5.889398">
        <ele>57.476162</ele>
        <time>2020-08-16T07:51:44.783Z</time>
      </trkpt>
      <trkpt lat="37.118291" lon="-5.889314">
        <ele>57.373185</ele>
        <time>2020-08-16T07:51:46.792Z</time>
      </trkpt>
      <trkpt lat="37.118223" lon="-5.889216">
        <ele>57.555924</ele>
        <time>2020-08-16T07:51:48.795Z</time>
      </trkpt>
      <trkpt lat="37.118164" lon="-5.889124">
        <ele>57.735774</ele>
        <time>2020-08-16T07:51:50.759Z</time>
      </trkpt>
      <trkpt lat="37.118095" lon="-5.889014">
        <ele>57.948975</ele>
        <time>2020-08-16T07:51:52.780Z</time>
      </trkpt>
      <trkpt lat="37.117999" lon="-5.888900">
        <ele>58.201548</ele>
        <time>2020-08-16T07:51:56.768Z</time>
      </trkpt>
      <trkpt lat="37.117848" lon="-5.888769">
        <ele>58.552318</ele>
        <time>2020-08-16T07:51:58.754Z</time>
      </trkpt>
      <trkpt lat="37.117754" lon="-5.888674">
        <ele>58.782951</ele>
        <time>2020-08-16T07:52:01.757Z</time>
      </trkpt>
      <trkpt lat="37.117687" lon="-5.888593">
        <ele>58.960739</ele>
        <time>2020-08-16T07:52:03.771Z</time>
      </trkpt>
      <trkpt lat="37.117572" lon="-5.888479">
        <ele>59.240784</ele>
        <time>2020-08-16T07:52:07.778Z</time>
      </trkpt>
      <trkpt lat="37.117486" lon="-5.888387">
        <ele>59.456734</ele>
        <time>2020-08-16T07:52:09.778Z</time>
      </trkpt>
      <trkpt lat="37.117372" lon="-5.888274">
        <ele>59.734336</ele>
        <time>2020-08-16T07:52:11.754Z</time>
      </trkpt>
      <trkpt lat="37.117268" lon="-5.888197">
        <ele>59.965060</ele>
        <time>2020-08-16T07:52:13.767Z</time>
      </trkpt>
      <trkpt lat="37.117191" lon="-5.888117">
        <ele>60.156085</ele>
        <time>2020-08-16T07:52:15.762Z</time>
      </trkpt>
      <trkpt lat="37.117077" lon="-5.887990">
        <ele>60.447393</ele>
        <time>2020-08-16T07:52:18.783Z</time>
      </trkpt>
      <trkpt lat="37.116997" lon="-5.887887">
        <ele>60.666430</ele>
        <time>2020-08-16T07:52:20.782Z</time>
      </trkpt>
      <trkpt lat="37.116924" lon="-5.887776">
        <ele>60.801578</ele>
        <time>2020-08-16T07:52:23.771Z</time>
      </trkpt>
      <trkpt lat="37.116828" lon="-5.887653">
        <ele>60.792704</ele>
        <time>2020-08-16T07:52:26.768Z</time>
      </trkpt>
      <trkpt lat="37.116756" lon="-5.887562">
        <ele>60.786094</ele>
        <time>2020-08-16T07:52:28.770Z</time>
      </trkpt>
      <trkpt lat="37.116688" lon="-5.887480">
        <ele>60.779993</ele>
        <time>2020-08-16T07:52:30.754Z</time>
      </trkpt>
      <trkpt lat="37.116587" lon="-5.887369">
        <ele>60.771309</ele>
        <time>2020-08-16T07:52:33.757Z</time>
      </trkpt>
      <trkpt lat="37.116509" lon="-5.887291">
        <ele>60.764858</ele>
        <time>2020-08-16T07:52:36.789Z</time>
      </trkpt>
      <trkpt lat="37.116377" lon="-5.887113">
        <ele>60.752325</ele>
        <time>2020-08-16T07:52:39.796Z</time>
      </trkpt>
      <trkpt lat="37.116280" lon="-5.887010">
        <ele>60.744106</ele>
        <time>2020-08-16T07:52:42.764Z</time>
      </trkpt>
      <trkpt lat="37.116205" lon="-5.886898">
        <ele>60.736564</ele>
        <time>2020-08-16T07:52:45.775Z</time>
      </trkpt>
      <trkpt lat="37.116115" lon="-5.886803">
        <ele>60.728958</ele>
        <time>2020-08-16T07:52:48.800Z</time>
      </trkpt>
      <trkpt lat="37.116035" lon="-5.886711">
        <ele>60.721939</ele>
        <time>2020-08-16T07:52:50.780Z</time>
      </trkpt>
      <trkpt lat="37.115951" lon="-5.886620">
        <ele>60.714761</ele>
        <time>2020-08-16T07:52:53.775Z</time>
      </trkpt>
      <trkpt lat="37.115873" lon="-5.886534">
        <ele>60.708045</ele>
        <time>2020-08-16T07:52:55.781Z</time>
      </trkpt>
      <trkpt lat="37.115794" lon="-5.886474">
        <ele>60.702073</ele>
        <time>2020-08-16T07:52:57.771Z</time>
      </trkpt>
      <trkpt lat="37.115695" lon="-5.886367">
        <ele>60.693622</ele>
        <time>2020-08-16T07:53:00.777Z</time>
      </trkpt>
      <trkpt lat="37.115611" lon="-5.886304">
        <ele>60.684041</ele>
        <time>2020-08-16T07:53:03.777Z</time>
      </trkpt>
      <trkpt lat="37.115516" lon="-5.886213">
        <ele>60.641920</ele>
        <time>2020-08-16T07:53:06.776Z</time>
      </trkpt>
      <trkpt lat="37.115409" lon="-5.886111">
        <ele>60.594563</ele>
        <time>2020-08-16T07:53:08.770Z</time>
      </trkpt>
      <trkpt lat="37.115320" lon="-5.886037">
        <ele>60.556938</ele>
        <time>2020-08-16T07:53:10.765Z</time>
      </trkpt>
      <trkpt lat="37.115231" lon="-5.885915">
        <ele>60.510480</ele>
        <time>2020-08-16T07:53:13.774Z</time>
      </trkpt>
      <trkpt lat="37.115165" lon="-5.885836">
        <ele>60.478333</ele>
        <time>2020-08-16T07:53:17.779Z</time>
      </trkpt>
      <trkpt lat="37.115067" lon="-5.885698">
        <ele>60.426412</ele>
        <time>2020-08-16T07:53:21.768Z</time>
      </trkpt>
      <trkpt lat="37.114998" lon="-5.885622">
        <ele>60.394054</ele>
        <time>2020-08-16T07:53:23.764Z</time>
      </trkpt>
      <trkpt lat="37.114936" lon="-5.885532">
        <ele>60.360638</ele>
        <time>2020-08-16T07:53:27.753Z</time>
      </trkpt>
      <trkpt lat="37.114853" lon="-5.885481">
        <ele>60.328071</ele>
        <time>2020-08-16T07:53:41.750Z</time>
      </trkpt>
      <trkpt lat="37.114671" lon="-5.885301">
        <ele>60.246401</ele>
        <time>2020-08-16T07:57:21.781Z</time>
      </trkpt>
      <trkpt lat="37.114563" lon="-5.885254">
        <ele>60.206122</ele>
        <time>2020-08-16T07:57:25.771Z</time>
      </trkpt>
      <trkpt lat="37.114474" lon="-5.885172">
        <ele>60.167209</ele>
        <time>2020-08-16T07:57:29.758Z</time>
      </trkpt>
      <trkpt lat="37.114409" lon="-5.885087">
        <ele>60.134120</ele>
        <time>2020-08-16T07:57:35.779Z</time>
      </trkpt>
      <trkpt lat="37.114313" lon="-5.884982">
        <ele>60.089237</ele>
        <time>2020-08-16T07:57:38.798Z</time>
      </trkpt>
      <trkpt lat="37.114210" lon="-5.884886">
        <ele>60.108972</ele>
        <time>2020-08-16T07:57:39.766Z</time>
      </trkpt>
      <trkpt lat="37.114120" lon="-5.884760">
        <ele>60.362277</ele>
        <time>2020-08-16T07:57:44.799Z</time>
      </trkpt>
      <trkpt lat="37.114068" lon="-5.884652">
        <ele>60.551196</ele>
        <time>2020-08-16T07:57:46.771Z</time>
      </trkpt>
      <trkpt lat="37.113936" lon="-5.884546">
        <ele>60.845540</ele>
        <time>2020-08-16T07:57:49.799Z</time>
      </trkpt>
      <trkpt lat="37.113845" lon="-5.884464">
        <ele>61.055966</ele>
        <time>2020-08-16T07:57:51.789Z</time>
      </trkpt>
      <trkpt lat="37.113792" lon="-5.884370">
        <ele>61.228360</ele>
        <time>2020-08-16T07:57:53.788Z</time>
      </trkpt>
      <trkpt lat="37.113686" lon="-5.884345">
        <ele>61.430901</ele>
        <time>2020-08-16T07:57:55.796Z</time>
      </trkpt>
      <trkpt lat="37.113600" lon="-5.884285">
        <ele>61.615708</ele>
        <time>2020-08-16T07:57:58.775Z</time>
      </trkpt>
      <trkpt lat="37.113557" lon="-5.884175">
        <ele>61.799157</ele>
        <time>2020-08-16T07:58:00.785Z</time>
      </trkpt>
      <trkpt lat="37.113483" lon="-5.884098">
        <ele>61.979727</ele>
        <time>2020-08-16T07:58:02.754Z</time>
      </trkpt>
      <trkpt lat="37.113451" lon="-5.883958">
        <ele>62.197815</ele>
        <time>2020-08-16T07:58:04.785Z</time>
      </trkpt>
      <trkpt lat="37.113359" lon="-5.883857">
        <ele>62.427428</ele>
        <time>2020-08-16T07:58:07.760Z</time>
      </trkpt>
      <trkpt lat="37.113256" lon="-5.883777">
        <ele>62.654941</ele>
        <time>2020-08-16T07:58:10.767Z</time>
      </trkpt>
      <trkpt lat="37.113209" lon="-5.883677">
        <ele>62.828763</ele>
        <time>2020-08-16T07:58:12.777Z</time>
      </trkpt>
      <trkpt lat="37.113099" lon="-5.883572">
        <ele>63.088362</ele>
        <time>2020-08-16T07:58:15.772Z</time>
      </trkpt>
      <trkpt lat="37.113019" lon="-5.883517">
        <ele>63.259686</ele>
        <time>2020-08-16T07:58:17.786Z</time>
      </trkpt>
      <trkpt lat="37.112940" lon="-5.883457">
        <ele>63.431177</ele>
        <time>2020-08-16T07:58:19.788Z</time>
      </trkpt>
      <trkpt lat="37.112874" lon="-5.883376">
        <ele>63.337243</ele>
        <time>2020-08-16T07:58:24.777Z</time>
      </trkpt>
      <trkpt lat="37.112789" lon="-5.883291">
        <ele>63.226657</ele>
        <time>2020-08-16T07:58:26.772Z</time>
      </trkpt>
      <trkpt lat="37.112687" lon="-5.883193">
        <ele>63.095953</ele>
        <time>2020-08-16T07:58:28.779Z</time>
      </trkpt>
      <trkpt lat="37.112585" lon="-5.883076">
        <ele>62.955343</ele>
        <time>2020-08-16T07:58:30.792Z</time>
      </trkpt>
      <trkpt lat="37.112472" lon="-5.882997">
        <ele>62.823746</ele>
        <time>2020-08-16T07:58:32.784Z</time>
      </trkpt>
      <trkpt lat="37.112348" lon="-5.883021">
        <ele>62.696123</ele>
        <time>2020-08-16T07:58:34.780Z</time>
      </trkpt>
      <trkpt lat="37.112255" lon="-5.883033">
        <ele>62.601026</ele>
        <time>2020-08-16T07:58:37.760Z</time>
      </trkpt>
      <trkpt lat="37.112238" lon="-5.882796">
        <ele>62.408007</ele>
        <time>2020-08-16T07:58:39.788Z</time>
      </trkpt>
      <trkpt lat="37.112150" lon="-5.882631">
        <ele>62.246993</ele>
        <time>2020-08-16T07:58:41.770Z</time>
      </trkpt>
      <trkpt lat="37.112078" lon="-5.882561">
        <ele>62.154323</ele>
        <time>2020-08-16T07:58:44.803Z</time>
      </trkpt>
      <trkpt lat="37.111990" lon="-5.882462">
        <ele>62.034069</ele>
        <time>2020-08-16T07:58:51.791Z</time>
      </trkpt>
      <trkpt lat="37.111867" lon="-5.882343">
        <ele>61.876047</ele>
        <time>2020-08-16T07:58:54.793Z</time>
      </trkpt>
      <trkpt lat="37.111732" lon="-5.882207">
        <ele>61.699904</ele>
        <time>2020-08-16T07:58:56.790Z</time>
      </trkpt>
      <trkpt lat="37.111667" lon="-5.882116">
        <ele>61.603688</ele>
        <time>2020-08-16T07:58:57.785Z</time>
      </trkpt>
      <trkpt lat="37.111589" lon="-5.882010">
        <ele>61.708923</ele>
        <time>2020-08-16T07:58:59.782Z</time>
      </trkpt>
      <trkpt lat="37.111494" lon="-5.881950">
        <ele>61.806243</ele>
        <time>2020-08-16T07:59:01.776Z</time>
      </trkpt>
      <trkpt lat="37.111425" lon="-5.881835">
        <ele>61.911247</ele>
        <time>2020-08-16T07:59:06.801Z</time>
      </trkpt>
      <trkpt lat="37.111320" lon="-5.881669">
        <ele>62.065839</ele>
        <time>2020-08-16T07:59:08.767Z</time>
      </trkpt>
      <trkpt lat="37.111205" lon="-5.881570">
        <ele>62.193464</ele>
        <time>2020-08-16T07:59:11.772Z</time>
      </trkpt>
      <trkpt lat="37.111124" lon="-5.881486">
        <ele>62.289633</ele>
        <time>2020-08-16T07:59:13.788Z</time>
      </trkpt>
      <trkpt lat="37.110794" lon="-5.881247">
        <ele>62.638301</ele>
        <time>2020-08-16T07:59:20.803Z</time>
      </trkpt>
      <trkpt lat="37.110678" lon="-5.881154">
        <ele>62.764271</ele>
        <time>2020-08-16T07:59:23.787Z</time>
      </trkpt>
      <trkpt lat="37.110619" lon="-5.881061">
        <ele>62.850979</ele>
        <time>2020-08-16T07:59:25.779Z</time>
      </trkpt>
      <trkpt lat="37.110535" lon="-5.881002">
        <ele>62.939069</ele>
        <time>2020-08-16T07:59:30.810Z</time>
      </trkpt>
      <trkpt lat="37.110403" lon="-5.880844">
        <ele>63.106029</ele>
        <time>2020-08-16T07:59:32.788Z</time>
      </trkpt>
      <trkpt lat="37.110326" lon="-5.880744">
        <ele>63.207453</ele>
        <time>2020-08-16T07:59:34.788Z</time>
      </trkpt>
      <trkpt lat="37.110223" lon="-5.880630">
        <ele>63.141634</ele>
        <time>2020-08-16T07:59:36.811Z</time>
      </trkpt>
      <trkpt lat="37.110144" lon="-5.880558">
        <ele>63.030109</ele>
        <time>2020-08-16T07:59:38.785Z</time>
      </trkpt>
      <trkpt lat="37.110050" lon="-5.880495">
        <ele>62.908395</ele>
        <time>2020-08-16T07:59:43.793Z</time>
      </trkpt>
      <trkpt lat="37.109963" lon="-5.880370">
        <ele>62.757304</ele>
        <time>2020-08-16T07:59:45.755Z</time>
      </trkpt>
      <trkpt lat="37.109872" lon="-5.880211">
        <ele>62.579075</ele>
        <time>2020-08-16T07:59:47.790Z</time>
      </trkpt>
      <trkpt lat="37.109789" lon="-5.880153">
        <ele>62.470570</ele>
        <time>2020-08-16T07:59:51.771Z</time>
      </trkpt>
      <trkpt lat="37.109709" lon="-5.880079">
        <ele>62.357047</ele>
        <time>2020-08-16T07:59:53.769Z</time>
      </trkpt>
      <trkpt lat="37.109629" lon="-5.879978">
        <ele>62.227409</ele>
        <time>2020-08-16T07:59:54.785Z</time>
      </trkpt>
      <trkpt lat="37.109589" lon="-5.879865">
        <ele>62.114819</ele>
        <time>2020-08-16T07:59:55.778Z</time>
      </trkpt>
      <trkpt lat="37.109482" lon="-5.879761">
        <ele>61.960222</ele>
        <time>2020-08-16T07:59:57.776Z</time>
      </trkpt>
      <trkpt lat="37.109413" lon="-5.879669">
        <ele>61.845209</ele>
        <time>2020-08-16T07:59:59.775Z</time>
      </trkpt>
      <trkpt lat="37.109320" lon="-5.879619">
        <ele>61.729657</ele>
        <time>2020-08-16T08:00:01.782Z</time>
      </trkpt>
      <trkpt lat="37.109235" lon="-5.879535">
        <ele>61.606071</ele>
        <time>2020-08-16T08:00:03.803Z</time>
      </trkpt>
      <trkpt lat="37.109188" lon="-5.879438">
        <ele>61.502707</ele>
        <time>2020-08-16T08:00:07.788Z</time>
      </trkpt>
      <trkpt lat="37.109086" lon="-5.879366">
        <ele>61.369041</ele>
        <time>2020-08-16T08:00:09.788Z</time>
      </trkpt>
      <trkpt lat="37.108981" lon="-5.879270">
        <ele>61.220648</ele>
        <time>2020-08-16T08:00:10.791Z</time>
      </trkpt>
      <trkpt lat="37.108891" lon="-5.879166">
        <ele>61.243854</ele>
        <time>2020-08-16T08:00:12.777Z</time>
      </trkpt>
      <trkpt lat="37.108819" lon="-5.879085">
        <ele>61.292536</ele>
        <time>2020-08-16T08:00:14.791Z</time>
      </trkpt>
      <trkpt lat="37.108746" lon="-5.878990">
        <ele>61.345486</ele>
        <time>2020-08-16T08:00:16.761Z</time>
      </trkpt>
      <trkpt lat="37.108669" lon="-5.878871">
        <ele>61.406992</ele>
        <time>2020-08-16T08:00:18.768Z</time>
      </trkpt>
      <trkpt lat="37.108587" lon="-5.878822">
        <ele>61.452707</ele>
        <time>2020-08-16T08:00:20.776Z</time>
      </trkpt>
      <trkpt lat="37.108512" lon="-5.878752">
        <ele>61.499762</ele>
        <time>2020-08-16T08:00:22.751Z</time>
      </trkpt>
      <trkpt lat="37.108432" lon="-5.878639">
        <ele>61.560409</ele>
        <time>2020-08-16T08:00:25.800Z</time>
      </trkpt>
      <trkpt lat="37.108346" lon="-5.878521">
        <ele>61.624568</ele>
        <time>2020-08-16T08:00:27.799Z</time>
      </trkpt>
      <trkpt lat="37.108240" lon="-5.878400">
        <ele>61.696711</ele>
        <time>2020-08-16T08:00:29.796Z</time>
      </trkpt>
      <trkpt lat="37.108167" lon="-5.878305">
        <ele>61.749660</ele>
        <time>2020-08-16T08:00:31.790Z</time>
      </trkpt>
      <trkpt lat="37.108106" lon="-5.878141">
        <ele>61.822291</ele>
        <time>2020-08-16T08:00:34.777Z</time>
      </trkpt>
      <trkpt lat="37.108073" lon="-5.878007">
        <ele>61.878580</ele>
        <time>2020-08-16T08:00:36.783Z</time>
      </trkpt>
      <trkpt lat="37.108013" lon="-5.877875">
        <ele>61.939562</ele>
        <time>2020-08-16T08:00:38.784Z</time>
      </trkpt>
      <trkpt lat="37.107935" lon="-5.877760">
        <ele>62.000155</ele>
        <time>2020-08-16T08:00:40.803Z</time>
      </trkpt>
      <trkpt lat="37.107454" lon="-5.877571">
        <ele>61.987511</ele>
        <time>2020-08-16T08:00:53.837Z</time>
      </trkpt>
      <trkpt lat="37.107361" lon="-5.877477">
        <ele>61.944075</ele>
        <time>2020-08-16T08:00:56.787Z</time>
      </trkpt>
      <trkpt lat="37.107311" lon="-5.877370">
        <ele>61.908111</ele>
        <time>2020-08-16T08:00:59.797Z</time>
      </trkpt>
      <trkpt lat="37.107225" lon="-5.877284">
        <ele>61.868112</ele>
        <time>2020-08-16T08:01:02.779Z</time>
      </trkpt>
      <trkpt lat="37.107106" lon="-5.877195">
        <ele>61.817728</ele>
        <time>2020-08-16T08:01:04.773Z</time>
      </trkpt>
      <trkpt lat="37.107018" lon="-5.877080">
        <ele>61.771510</ele>
        <time>2020-08-16T08:01:06.776Z</time>
      </trkpt>
      <trkpt lat="37.106936" lon="-5.877011">
        <ele>61.735600</ele>
        <time>2020-08-16T08:01:08.758Z</time>
      </trkpt>
      <trkpt lat="37.106874" lon="-5.876910">
        <ele>61.698639</ele>
        <time>2020-08-16T08:01:12.776Z</time>
      </trkpt>
      <trkpt lat="37.106742" lon="-5.876756">
        <ele>61.633077</ele>
        <time>2020-08-16T08:01:14.795Z</time>
      </trkpt>
      <trkpt lat="37.106664" lon="-5.876674">
        <ele>61.596064</ele>
        <time>2020-08-16T08:01:16.769Z</time>
      </trkpt>
      <trkpt lat="37.106573" lon="-5.876604">
        <ele>61.557243</ele>
        <time>2020-08-16T08:01:22.785Z</time>
      </trkpt>
      <trkpt lat="37.106485" lon="-5.876486">
        <ele>61.510393</ele>
        <time>2020-08-16T08:01:24.765Z</time>
      </trkpt>
      <trkpt lat="37.106359" lon="-5.876396">
        <ele>61.457663</ele>
        <time>2020-08-16T08:01:26.774Z</time>
      </trkpt>
      <trkpt lat="37.106264" lon="-5.876254">
        <ele>61.555824</ele>
        <time>2020-08-16T08:01:28.787Z</time>
      </trkpt>
      <trkpt lat="37.106206" lon="-5.876115">
        <ele>61.677771</ele>
        <time>2020-08-16T08:01:30.776Z</time>
      </trkpt>
      <trkpt lat="37.106123" lon="-5.875988">
        <ele>61.805409</ele>
        <time>2020-08-16T08:01:32.782Z</time>
      </trkpt>
      <trkpt lat="37.106008" lon="-5.876023">
        <ele>61.920756</ele>
        <time>2020-08-16T08:01:34.797Z</time>
      </trkpt>
      <trkpt lat="37.105937" lon="-5.875879">
        <ele>62.052360</ele>
        <time>2020-08-16T08:01:37.780Z</time>
      </trkpt>
      <trkpt lat="37.105834" lon="-5.875938">
        <ele>62.162735</ele>
        <time>2020-08-16T08:01:38.793Z</time>
      </trkpt>
      <trkpt lat="37.105741" lon="-5.875869">
        <ele>62.268064</ele>
        <time>2020-08-16T08:01:40.759Z</time>
      </trkpt>
      <trkpt lat="37.105687" lon="-5.875737">
        <ele>62.383387</ele>
        <time>2020-08-16T08:01:43.767Z</time>
      </trkpt>
      <trkpt lat="37.105600" lon="-5.875629">
        <ele>62.502716</ele>
        <time>2020-08-16T08:01:46.795Z</time>
      </trkpt>
      <trkpt lat="37.105528" lon="-5.875553">
        <ele>62.594452</ele>
        <time>2020-08-16T08:01:48.781Z</time>
      </trkpt>
      <trkpt lat="37.105471" lon="-5.875464">
        <ele>62.683184</ele>
        <time>2020-08-16T08:01:50.783Z</time>
      </trkpt>
      <trkpt lat="37.105408" lon="-5.875360">
        <ele>62.784706</ele>
        <time>2020-08-16T08:01:52.783Z</time>
      </trkpt>
      <trkpt lat="37.105330" lon="-5.875254">
        <ele>62.896822</ele>
        <time>2020-08-16T08:01:55.776Z</time>
      </trkpt>
      <trkpt lat="37.105250" lon="-5.875171">
        <ele>62.998032</ele>
        <time>2020-08-16T08:01:58.773Z</time>
      </trkpt>
      <trkpt lat="37.105192" lon="-5.875063">
        <ele>63.099247</ele>
        <time>2020-08-16T08:02:00.783Z</time>
      </trkpt>
      <trkpt lat="37.105104" lon="-5.874978">
        <ele>63.195554</ele>
        <time>2020-08-16T08:02:02.773Z</time>
      </trkpt>
      <trkpt lat="37.105022" lon="-5.874872">
        <ele>63.160591</ele>
        <time>2020-08-16T08:02:05.787Z</time>
      </trkpt>
      <trkpt lat="37.104933" lon="-5.874814">
        <ele>63.130815</ele>
        <time>2020-08-16T08:02:07.780Z</time>
      </trkpt>
      <trkpt lat="37.104792" lon="-5.874735">
        <ele>63.084968</ele>
        <time>2020-08-16T08:02:10.767Z</time>
      </trkpt>
      <trkpt lat="37.104710" lon="-5.874658">
        <ele>63.054556</ele>
        <time>2020-08-16T08:02:12.772Z</time>
      </trkpt>
      <trkpt lat="37.104688" lon="-5.874544">
        <ele>63.026786</ele>
        <time>2020-08-16T08:02:14.762Z</time>
      </trkpt>
      <trkpt lat="37.104582" lon="-5.874514">
        <ele>62.994527</ele>
        <time>2020-08-16T08:02:16.787Z</time>
      </trkpt>
      <trkpt lat="37.104529" lon="-5.874422">
        <ele>62.967657</ele>
        <time>2020-08-16T08:02:18.782Z</time>
      </trkpt>
      <trkpt lat="37.104381" lon="-5.874354">
        <ele>62.920864</ele>
        <time>2020-08-16T08:02:21.783Z</time>
      </trkpt>
      <trkpt lat="37.104341" lon="-5.874250">
        <ele>62.893527</ele>
        <time>2020-08-16T08:02:23.789Z</time>
      </trkpt>
      <trkpt lat="37.104283" lon="-5.874140">
        <ele>62.862307</ele>
        <time>2020-08-16T08:02:25.786Z</time>
      </trkpt>
      <trkpt lat="37.104213" lon="-5.874064">
        <ele>62.834818</ele>
        <time>2020-08-16T08:02:27.796Z</time>
      </trkpt>
      <trkpt lat="37.104139" lon="-5.873947">
        <ele>62.799464</ele>
        <time>2020-08-16T08:02:30.800Z</time>
      </trkpt>
      <trkpt lat="37.104057" lon="-5.873872">
        <ele>62.769333</ele>
        <time>2020-08-16T08:02:32.783Z</time>
      </trkpt>
      <trkpt lat="37.103959" lon="-5.873825">
        <ele>62.738184</ele>
        <time>2020-08-16T08:02:34.795Z</time>
      </trkpt>
      <trkpt lat="37.103897" lon="-5.873729">
        <ele>62.708938</ele>
        <time>2020-08-16T08:02:36.767Z</time>
      </trkpt>
      <trkpt lat="37.103812" lon="-5.873662">
        <ele>62.679132</ele>
        <time>2020-08-16T08:02:38.798Z</time>
      </trkpt>
      <trkpt lat="37.103723" lon="-5.873544">
        <ele>62.577227</ele>
        <time>2020-08-16T08:02:41.787Z</time>
      </trkpt>
      <trkpt lat="37.103643" lon="-5.873474">
        <ele>62.470781</ele>
        <time>2020-08-16T08:02:43.787Z</time>
      </trkpt>
      <trkpt lat="37.103542" lon="-5.873366">
        <ele>62.325941</ele>
        <time>2020-08-16T08:02:46.793Z</time>
      </trkpt>
      <trkpt lat="37.103469" lon="-5.873288">
        <ele>62.221288</ele>
        <time>2020-08-16T08:02:48.783Z</time>
      </trkpt>
      <trkpt lat="37.103388" lon="-5.873200">
        <ele>62.104343</ele>
        <time>2020-08-16T08:02:50.768Z</time>
      </trkpt>
      <trkpt lat="37.103306" lon="-5.873115">
        <ele>61.988251</ele>
        <time>2020-08-16T08:02:52.791Z</time>
      </trkpt>
      <trkpt lat="37.103228" lon="-5.873030">
        <ele>61.875489</ele>
        <time>2020-08-16T08:02:54.759Z</time>
      </trkpt>
      <trkpt lat="37.103150" lon="-5.872952">
        <ele>61.766626</ele>
        <time>2020-08-16T08:02:56.784Z</time>
      </trkpt>
      <trkpt lat="37.103068" lon="-5.872884">
        <ele>61.659353</ele>
        <time>2020-08-16T08:02:58.788Z</time>
      </trkpt>
      <trkpt lat="37.103029" lon="-5.872774">
        <ele>61.554594</ele>
        <time>2020-08-16T08:03:00.780Z</time>
      </trkpt>
      <trkpt lat="37.102972" lon="-5.872685">
        <ele>61.455261</ele>
        <time>2020-08-16T08:03:02.784Z</time>
      </trkpt>
      <trkpt lat="37.102882" lon="-5.872608">
        <ele>61.336374</ele>
        <time>2020-08-16T08:03:04.762Z</time>
      </trkpt>
      <trkpt lat="37.102802" lon="-5.872531">
        <ele>61.226329</ele>
        <time>2020-08-16T08:03:06.782Z</time>
      </trkpt>
      <trkpt lat="37.102728" lon="-5.872439">
        <ele>61.112619</ele>
        <time>2020-08-16T08:03:08.783Z</time>
      </trkpt>
      <trkpt lat="37.102639" lon="-5.872364">
        <ele>60.995612</ele>
        <time>2020-08-16T08:03:10.780Z</time>
      </trkpt>
      <trkpt lat="37.102561" lon="-5.872264">
        <ele>60.873887</ele>
        <time>2020-08-16T08:03:12.780Z</time>
      </trkpt>
      <trkpt lat="37.102473" lon="-5.872188">
        <ele>60.757292</ele>
        <time>2020-08-16T08:03:14.789Z</time>
      </trkpt>
      <trkpt lat="37.102384" lon="-5.872102">
        <ele>60.697006</ele>
        <time>2020-08-16T08:03:16.775Z</time>
      </trkpt>
      <trkpt lat="37.102316" lon="-5.872019">
        <ele>60.689589</ele>
        <time>2020-08-16T08:03:18.783Z</time>
      </trkpt>
      <trkpt lat="37.102226" lon="-5.871931">
        <ele>60.680670</ele>
        <time>2020-08-16T08:03:20.786Z</time>
      </trkpt>
      <trkpt lat="37.102152" lon="-5.871854">
        <ele>60.673155</ele>
        <time>2020-08-16T08:03:22.764Z</time>
      </trkpt>
      <trkpt lat="37.102088" lon="-5.871742">
        <ele>60.664567</ele>
        <time>2020-08-16T08:03:24.784Z</time>
      </trkpt>
      <trkpt lat="37.101993" lon="-5.871662">
        <ele>60.655623</ele>
        <time>2020-08-16T08:03:26.787Z</time>
      </trkpt>
      <trkpt lat="37.101914" lon="-5.871576">
        <ele>60.647447</ele>
        <time>2020-08-16T08:03:28.768Z</time>
      </trkpt>
      <trkpt lat="37.101843" lon="-5.871481">
        <ele>60.639332</ele>
        <time>2020-08-16T08:03:30.760Z</time>
      </trkpt>
      <trkpt lat="37.101770" lon="-5.871384">
        <ele>60.631020</ele>
        <time>2020-08-16T08:03:32.789Z</time>
      </trkpt>
      <trkpt lat="37.101673" lon="-5.871332">
        <ele>60.622775</ele>
        <time>2020-08-16T08:03:34.777Z</time>
      </trkpt>
      <trkpt lat="37.101599" lon="-5.871261">
        <ele>60.615493</ele>
        <time>2020-08-16T08:03:36.808Z</time>
      </trkpt>
      <trkpt lat="37.101486" lon="-5.871103">
        <ele>60.602265</ele>
        <time>2020-08-16T08:03:39.779Z</time>
      </trkpt>
      <trkpt lat="37.101415" lon="-5.871024">
        <ele>60.594847</ele>
        <time>2020-08-16T08:03:41.783Z</time>
      </trkpt>
      <trkpt lat="37.101342" lon="-5.870952">
        <ele>60.587588</ele>
        <time>2020-08-16T08:03:43.790Z</time>
      </trkpt>
      <trkpt lat="37.101232" lon="-5.870855">
        <ele>60.577078</ele>
        <time>2020-08-16T08:03:48.793Z</time>
      </trkpt>
      <trkpt lat="37.101162" lon="-5.870780">
        <ele>60.569883</ele>
        <time>2020-08-16T08:03:49.798Z</time>
      </trkpt>
      <trkpt lat="37.101039" lon="-5.870627">
        <ele>60.532582</ele>
        <time>2020-08-16T08:03:50.778Z</time>
      </trkpt>
      <trkpt lat="37.100941" lon="-5.870501">
        <ele>60.468494</ele>
        <time>2020-08-16T08:03:53.769Z</time>
      </trkpt>
      <trkpt lat="37.100838" lon="-5.870402">
        <ele>60.409237</ele>
        <time>2020-08-16T08:03:55.818Z</time>
      </trkpt>
      <trkpt lat="37.100744" lon="-5.870285">
        <ele>60.348762</ele>
        <time>2020-08-16T08:03:57.784Z</time>
      </trkpt>
      <trkpt lat="37.100648" lon="-5.870175">
        <ele>60.289384</ele>
        <time>2020-08-16T08:03:59.796Z</time>
      </trkpt>
      <trkpt lat="37.100554" lon="-5.870073">
        <ele>60.232624</ele>
        <time>2020-08-16T08:04:01.790Z</time>
      </trkpt>
      <trkpt lat="37.100470" lon="-5.869967">
        <ele>60.178210</ele>
        <time>2020-08-16T08:04:03.789Z</time>
      </trkpt>
      <trkpt lat="37.100183" lon="-5.869693">
        <ele>60.013507</ele>
        <time>2020-08-16T08:04:14.780Z</time>
      </trkpt>
      <trkpt lat="37.100041" lon="-5.869667">
        <ele>59.947985</ele>
        <time>2020-08-16T08:04:16.764Z</time>
      </trkpt>
      <trkpt lat="37.099994" lon="-5.869559">
        <ele>59.903183</ele>
        <time>2020-08-16T08:04:18.764Z</time>
      </trkpt>
      <trkpt lat="37.099714" lon="-5.869256">
        <ele>59.729637</ele>
        <time>2020-08-16T08:04:25.783Z</time>
      </trkpt>
      <trkpt lat="37.099622" lon="-5.869209">
        <ele>59.647228</ele>
        <time>2020-08-16T08:04:27.756Z</time>
      </trkpt>
      <trkpt lat="37.099552" lon="-5.869120">
        <ele>59.564528</ele>
        <time>2020-08-16T08:04:29.756Z</time>
      </trkpt>
      <trkpt lat="37.099477" lon="-5.869037">
        <ele>59.481544</ele>
        <time>2020-08-16T08:04:31.767Z</time>
      </trkpt>
      <trkpt lat="37.099412" lon="-5.868953">
        <ele>59.404110</ele>
        <time>2020-08-16T08:04:33.780Z</time>
      </trkpt>
      <trkpt lat="37.099318" lon="-5.868856">
        <ele>59.303119</ele>
        <time>2020-08-16T08:04:35.794Z</time>
      </trkpt>
      <trkpt lat="37.099248" lon="-5.868784">
        <ele>59.228012</ele>
        <time>2020-08-16T08:04:37.789Z</time>
      </trkpt>
      <trkpt lat="37.099160" lon="-5.868716">
        <ele>59.142262</ele>
        <time>2020-08-16T08:04:39.783Z</time>
      </trkpt>
      <trkpt lat="37.099104" lon="-5.868592">
        <ele>59.047982</ele>
        <time>2020-08-16T08:04:41.781Z</time>
      </trkpt>
      <trkpt lat="37.099027" lon="-5.868510">
        <ele>58.964176</ele>
        <time>2020-08-16T08:04:43.774Z</time>
      </trkpt>
      <trkpt lat="37.098932" lon="-5.868413">
        <ele>58.862544</ele>
        <time>2020-08-16T08:04:46.774Z</time>
      </trkpt>
      <trkpt lat="37.098838" lon="-5.868304">
        <ele>58.756331</ele>
        <time>2020-08-16T08:04:48.785Z</time>
      </trkpt>
      <trkpt lat="37.098750" lon="-5.868193">
        <ele>58.652781</ele>
        <time>2020-08-16T08:04:51.779Z</time>
      </trkpt>
      <trkpt lat="37.098656" lon="-5.868122">
        <ele>58.561748</ele>
        <time>2020-08-16T08:04:54.793Z</time>
      </trkpt>
      <trkpt lat="37.098575" lon="-5.868031">
        <ele>58.471527</ele>
        <time>2020-08-16T08:04:56.793Z</time>
      </trkpt>
      <trkpt lat="37.098527" lon="-5.867927">
        <ele>58.392027</ele>
        <time>2020-08-16T08:04:58.785Z</time>
      </trkpt>
      <trkpt lat="37.098414" lon="-5.867848">
        <ele>58.284702</ele>
        <time>2020-08-16T08:05:00.775Z</time>
      </trkpt>
      <trkpt lat="37.098310" lon="-5.867757">
        <ele>58.308575</ele>
        <time>2020-08-16T08:05:03.781Z</time>
      </trkpt>
      <trkpt lat="37.098217" lon="-5.867711">
        <ele>58.381924</ele>
        <time>2020-08-16T08:05:05.781Z</time>
      </trkpt>
      <trkpt lat="37.098095" lon="-5.867517">
        <ele>58.526491</ele>
        <time>2020-08-16T08:05:10.772Z</time>
      </trkpt>
      <trkpt lat="37.098025" lon="-5.867396">
        <ele>58.613961</ele>
        <time>2020-08-16T08:05:11.792Z</time>
      </trkpt>
      <trkpt lat="37.097942" lon="-5.867282">
        <ele>58.704285</ele>
        <time>2020-08-16T08:05:13.789Z</time>
      </trkpt>
      <trkpt lat="37.097859" lon="-5.867193">
        <ele>58.784414</ele>
        <time>2020-08-16T08:05:15.777Z</time>
      </trkpt>
      <trkpt lat="37.097796" lon="-5.867088">
        <ele>58.861302</ele>
        <time>2020-08-16T08:05:17.773Z</time>
      </trkpt>
      <trkpt lat="37.097693" lon="-5.866989">
        <ele>58.956521</ele>
        <time>2020-08-16T08:05:19.762Z</time>
      </trkpt>
      <trkpt lat="37.097631" lon="-5.866871">
        <ele>59.039208</ele>
        <time>2020-08-16T08:05:21.789Z</time>
      </trkpt>
      <trkpt lat="37.097550" lon="-5.866776">
        <ele>59.120585</ele>
        <time>2020-08-16T08:05:23.795Z</time>
      </trkpt>
      <trkpt lat="37.097471" lon="-5.866713">
        <ele>59.189276</ele>
        <time>2020-08-16T08:05:28.767Z</time>
      </trkpt>
      <trkpt lat="37.097290" lon="-5.866521">
        <ele>59.363224</ele>
        <time>2020-08-16T08:05:30.787Z</time>
      </trkpt>
      <trkpt lat="37.097221" lon="-5.866421">
        <ele>59.440601</ele>
        <time>2020-08-16T08:05:32.786Z</time>
      </trkpt>
      <trkpt lat="37.097148" lon="-5.866318">
        <ele>59.521232</ele>
        <time>2020-08-16T08:05:35.789Z</time>
      </trkpt>
      <trkpt lat="37.097016" lon="-5.866207">
        <ele>59.700812</ele>
        <time>2020-08-16T08:05:38.783Z</time>
      </trkpt>
      <trkpt lat="37.096935" lon="-5.866135">
        <ele>59.838969</ele>
        <time>2020-08-16T08:05:40.776Z</time>
      </trkpt>
      <trkpt lat="37.096831" lon="-5.866101">
        <ele>59.988515</ele>
        <time>2020-08-16T08:05:42.783Z</time>
      </trkpt>
      <trkpt lat="37.096731" lon="-5.866043">
        <ele>60.141824</ele>
        <time>2020-08-16T08:05:44.776Z</time>
      </trkpt>
      <trkpt lat="37.096650" lon="-5.865951">
        <ele>60.293901</ele>
        <time>2020-08-16T08:05:46.779Z</time>
      </trkpt>
      <trkpt lat="37.096637" lon="-5.865835">
        <ele>60.423905</ele>
        <time>2020-08-16T08:05:48.763Z</time>
      </trkpt>
      <trkpt lat="37.096546" lon="-5.865767">
        <ele>60.571308</ele>
        <time>2020-08-16T08:05:50.773Z</time>
      </trkpt>
      <trkpt lat="37.096444" lon="-5.865723">
        <ele>60.721398</ele>
        <time>2020-08-16T08:05:52.766Z</time>
      </trkpt>
      <trkpt lat="37.096329" lon="-5.865658">
        <ele>60.896920</ele>
        <time>2020-08-16T08:05:56.782Z</time>
      </trkpt>
      <trkpt lat="37.096228" lon="-5.865609">
        <ele>61.047607</ele>
        <time>2020-08-16T08:05:58.777Z</time>
      </trkpt>
      <trkpt lat="37.096139" lon="-5.865562">
        <ele>61.181981</ele>
        <time>2020-08-16T08:05:59.789Z</time>
      </trkpt>
      <trkpt lat="37.096059" lon="-5.865510">
        <ele>61.307365</ele>
        <time>2020-08-16T08:06:01.767Z</time>
      </trkpt>
      <trkpt lat="37.095973" lon="-5.865459">
        <ele>61.439737</ele>
        <time>2020-08-16T08:06:03.781Z</time>
      </trkpt>
      <trkpt lat="37.095880" lon="-5.865403">
        <ele>61.583290</ele>
        <time>2020-08-16T08:06:05.786Z</time>
      </trkpt>
      <trkpt lat="37.095752" lon="-5.865343">
        <ele>61.773433</ele>
        <time>2020-08-16T08:06:08.779Z</time>
      </trkpt>
      <trkpt lat="37.095635" lon="-5.865270">
        <ele>61.955274</ele>
        <time>2020-08-16T08:06:11.782Z</time>
      </trkpt>
      <trkpt lat="37.095542" lon="-5.865213">
        <ele>62.036903</ele>
        <time>2020-08-16T08:06:13.777Z</time>
      </trkpt>
      <trkpt lat="37.095453" lon="-5.865165">
        <ele>61.882105</ele>
        <time>2020-08-16T08:06:15.775Z</time>
      </trkpt>
      <trkpt lat="37.095282" lon="-5.865085">
        <ele>61.590488</ele>
        <time>2020-08-16T08:06:19.782Z</time>
      </trkpt>
      <trkpt lat="37.095171" lon="-5.865004">
        <ele>61.385285</ele>
        <time>2020-08-16T08:06:22.778Z</time>
      </trkpt>
      <trkpt lat="37.095079" lon="-5.864944">
        <ele>61.219593</ele>
        <time>2020-08-16T08:06:25.781Z</time>
      </trkpt>
      <trkpt lat="37.094989" lon="-5.864904">
        <ele>61.067028</ele>
        <time>2020-08-16T08:06:26.779Z</time>
      </trkpt>
      <trkpt lat="37.094901" lon="-5.864875">
        <ele>60.921651</ele>
        <time>2020-08-16T08:06:28.781Z</time>
      </trkpt>
      <trkpt lat="37.094821" lon="-5.864823">
        <ele>60.777674</ele>
        <time>2020-08-16T08:06:30.787Z</time>
      </trkpt>
      <trkpt lat="37.094729" lon="-5.864768">
        <ele>60.614825</ele>
        <time>2020-08-16T08:06:32.777Z</time>
      </trkpt>
      <trkpt lat="37.094623" lon="-5.864714">
        <ele>60.432016</ele>
        <time>2020-08-16T08:06:35.775Z</time>
      </trkpt>
      <trkpt lat="37.094481" lon="-5.864642">
        <ele>60.187284</ele>
        <time>2020-08-16T08:06:38.773Z</time>
      </trkpt>
      <trkpt lat="37.094367" lon="-5.864588">
        <ele>59.992575</ele>
        <time>2020-08-16T08:06:40.791Z</time>
      </trkpt>
      <trkpt lat="37.094279" lon="-5.864561">
        <ele>59.847824</ele>
        <time>2020-08-16T08:06:42.761Z</time>
      </trkpt>
      <trkpt lat="37.094174" lon="-5.864525">
        <ele>59.673901</ele>
        <time>2020-08-16T08:06:45.797Z</time>
      </trkpt>
      <trkpt lat="37.094056" lon="-5.864483">
        <ele>59.477917</ele>
        <time>2020-08-16T08:06:48.783Z</time>
      </trkpt>
      <trkpt lat="37.093969" lon="-5.864443">
        <ele>59.329860</ele>
        <time>2020-08-16T08:06:50.798Z</time>
      </trkpt>
      <trkpt lat="37.093884" lon="-5.864395">
        <ele>59.200810</ele>
        <time>2020-08-16T08:06:52.789Z</time>
      </trkpt>
      <trkpt lat="37.093796" lon="-5.864341">
        <ele>59.244142</ele>
        <time>2020-08-16T08:06:54.782Z</time>
      </trkpt>
      <trkpt lat="37.093712" lon="-5.864293">
        <ele>59.284971</ele>
        <time>2020-08-16T08:06:56.778Z</time>
      </trkpt>
      <trkpt lat="37.093619" lon="-5.864241">
        <ele>59.330008</ele>
        <time>2020-08-16T08:06:58.781Z</time>
      </trkpt>
      <trkpt lat="37.093533" lon="-5.864207">
        <ele>59.369890</ele>
        <time>2020-08-16T08:06:59.788Z</time>
      </trkpt>
      <trkpt lat="37.093445" lon="-5.864161">
        <ele>59.412058</ele>
        <time>2020-08-16T08:07:01.802Z</time>
      </trkpt>
      <trkpt lat="37.093349" lon="-5.864111">
        <ele>59.458035</ele>
        <time>2020-08-16T08:07:03.794Z</time>
      </trkpt>
      <trkpt lat="37.093253" lon="-5.864010">
        <ele>59.513464</ele>
        <time>2020-08-16T08:07:06.774Z</time>
      </trkpt>
      <trkpt lat="37.093146" lon="-5.863909">
        <ele>59.572702</ele>
        <time>2020-08-16T08:07:10.799Z</time>
      </trkpt>
      <trkpt lat="37.093018" lon="-5.863773">
        <ele>59.646910</ele>
        <time>2020-08-16T08:07:13.771Z</time>
      </trkpt>
      <trkpt lat="37.092922" lon="-5.863677">
        <ele>59.701221</ele>
        <time>2020-08-16T08:07:16.786Z</time>
      </trkpt>
      <trkpt lat="37.092850" lon="-5.863587">
        <ele>59.746189</ele>
        <time>2020-08-16T08:07:19.776Z</time>
      </trkpt>
      <trkpt lat="37.092785" lon="-5.863496">
        <ele>59.789283</ele>
        <time>2020-08-16T08:07:21.815Z</time>
      </trkpt>
      <trkpt lat="37.092714" lon="-5.863399">
        <ele>59.835728</ele>
        <time>2020-08-16T08:07:24.783Z</time>
      </trkpt>
      <trkpt lat="37.092652" lon="-5.863307">
        <ele>59.878217</ele>
        <time>2020-08-16T08:07:27.774Z</time>
      </trkpt>
      <trkpt lat="37.092635" lon="-5.863182">
        <ele>59.922952</ele>
        <time>2020-08-16T08:07:31.752Z</time>
      </trkpt>
      <trkpt lat="37.092710" lon="-5.863097">
        <ele>59.967668</ele>
        <time>2020-08-16T08:07:35.752Z</time>
      </trkpt>
      <trkpt lat="37.092811" lon="-5.863044">
        <ele>60.132370</ele>
        <time>2020-08-16T08:07:38.755Z</time>
      </trkpt>
      <trkpt lat="37.092920" lon="-5.863037">
        <ele>60.413553</ele>
        <time>2020-08-16T08:07:41.741Z</time>
      </trkpt>
      <trkpt lat="37.093000" lon="-5.863127">
        <ele>60.690473</ele>
        <time>2020-08-16T08:07:44.765Z</time>
      </trkpt>
      <trkpt lat="37.093055" lon="-5.863249">
        <ele>60.978454</ele>
        <time>2020-08-16T08:07:47.760Z</time>
      </trkpt>
      <trkpt lat="37.093106" lon="-5.863352">
        <ele>61.227583</ele>
        <time>2020-08-16T08:07:50.786Z</time>
      </trkpt>
      <trkpt lat="37.093173" lon="-5.863464">
        <ele>61.515276</ele>
        <time>2020-08-16T08:07:54.771Z</time>
      </trkpt>
      <trkpt lat="37.093250" lon="-5.863545">
        <ele>61.774234</ele>
        <time>2020-08-16T08:07:58.778Z</time>
      </trkpt>
      <trkpt lat="37.093351" lon="-5.863625">
        <ele>62.082022</ele>
        <time>2020-08-16T08:08:02.781Z</time>
      </trkpt>
      <trkpt lat="37.093431" lon="-5.863679">
        <ele>62.316100</ele>
        <time>2020-08-16T08:08:05.769Z</time>
      </trkpt>
      <trkpt lat="37.093530" lon="-5.863735">
        <ele>62.595912</ele>
        <time>2020-08-16T08:08:09.777Z</time>
      </trkpt>
      <trkpt lat="37.093642" lon="-5.863772">
        <ele>62.894306</ele>
        <time>2020-08-16T08:08:13.793Z</time>
      </trkpt>
      <trkpt lat="37.093759" lon="-5.863781">
        <ele>63.196298</ele>
        <time>2020-08-16T08:08:17.779Z</time>
      </trkpt>
      <trkpt lat="37.093842" lon="-5.863721">
        <ele>63.443131</ele>
        <time>2020-08-16T08:08:20.750Z</time>
      </trkpt>
      <trkpt lat="37.093893" lon="-5.863627">
        <ele>63.676748</ele>
        <time>2020-08-16T08:08:23.750Z</time>
      </trkpt>
      <trkpt lat="37.093890" lon="-5.863497">
        <ele>63.944006</ele>
        <time>2020-08-16T08:08:27.760Z</time>
      </trkpt>
      <trkpt lat="37.093834" lon="-5.863407">
        <ele>64.178569</ele>
        <time>2020-08-16T08:08:30.752Z</time>
      </trkpt>
      <trkpt lat="37.093759" lon="-5.863346">
        <ele>64.408891</ele>
        <time>2020-08-16T08:08:33.773Z</time>
      </trkpt>
      <trkpt lat="37.093679" lon="-5.863284">
        <ele>64.636360</ele>
        <time>2020-08-16T08:08:36.785Z</time>
      </trkpt>
      <trkpt lat="37.093560" lon="-5.863223">
        <ele>64.774003</ele>
        <time>2020-08-16T08:08:40.771Z</time>
      </trkpt>
      <trkpt lat="37.093446" lon="-5.863171">
        <ele>64.903882</ele>
        <time>2020-08-16T08:08:43.751Z</time>
      </trkpt>
      <trkpt lat="37.093347" lon="-5.863110">
        <ele>65.021983</ele>
        <time>2020-08-16T08:08:46.773Z</time>
      </trkpt>
      <trkpt lat="37.093247" lon="-5.863034">
        <ele>65.147182</ele>
        <time>2020-08-16T08:08:49.762Z</time>
      </trkpt>
      <trkpt lat="37.093158" lon="-5.862937">
        <ele>65.273441</ele>
        <time>2020-08-16T08:08:52.773Z</time>
      </trkpt>
      <trkpt lat="37.093082" lon="-5.862867">
        <ele>65.374408</ele>
        <time>2020-08-16T08:08:56.773Z</time>
      </trkpt>
      <trkpt lat="37.092834" lon="-5.862677">
        <ele>65.685576</ele>
        <time>2020-08-16T08:10:08.762Z</time>
      </trkpt>
      <trkpt lat="37.092736" lon="-5.862623">
        <ele>65.800185</ele>
        <time>2020-08-16T08:10:10.784Z</time>
      </trkpt>
      <trkpt lat="37.092666" lon="-5.862546">
        <ele>65.899888</ele>
        <time>2020-08-16T08:10:12.776Z</time>
      </trkpt>
      <trkpt lat="37.092576" lon="-5.862504">
        <ele>66.002703</ele>
        <time>2020-08-16T08:10:14.759Z</time>
      </trkpt>
      <trkpt lat="37.092464" lon="-5.862396">
        <ele>66.153981</ele>
        <time>2020-08-16T08:10:17.773Z</time>
      </trkpt>
      <trkpt lat="37.092363" lon="-5.862329">
        <ele>66.276320</ele>
        <time>2020-08-16T08:10:19.760Z</time>
      </trkpt>
      <trkpt lat="37.092253" lon="-5.862243">
        <ele>66.415113</ele>
        <time>2020-08-16T08:10:22.789Z</time>
      </trkpt>
      <trkpt lat="37.092172" lon="-5.862169">
        <ele>66.522417</ele>
        <time>2020-08-16T08:10:24.767Z</time>
      </trkpt>
      <trkpt lat="37.092080" lon="-5.862105">
        <ele>66.435324</ele>
        <time>2020-08-16T08:10:26.774Z</time>
      </trkpt>
      <trkpt lat="37.091981" lon="-5.861988">
        <ele>66.232878</ele>
        <time>2020-08-16T08:10:29.782Z</time>
      </trkpt>
      <trkpt lat="37.091876" lon="-5.861924">
        <ele>66.059154</ele>
        <time>2020-08-16T08:10:31.783Z</time>
      </trkpt>
      <trkpt lat="37.091781" lon="-5.861845">
        <ele>65.889525</ele>
        <time>2020-08-16T08:10:33.769Z</time>
      </trkpt>
      <trkpt lat="37.091650" lon="-5.861774">
        <ele>65.677165</ele>
        <time>2020-08-16T08:10:36.779Z</time>
      </trkpt>
      <trkpt lat="37.091563" lon="-5.861695">
        <ele>65.517320</ele>
        <time>2020-08-16T08:10:38.785Z</time>
      </trkpt>
      <trkpt lat="37.091452" lon="-5.861648">
        <ele>65.342989</ele>
        <time>2020-08-16T08:10:40.784Z</time>
      </trkpt>
      <trkpt lat="37.091358" lon="-5.861581">
        <ele>65.182093</ele>
        <time>2020-08-16T08:10:42.781Z</time>
      </trkpt>
      <trkpt lat="37.091268" lon="-5.861539">
        <ele>65.039199</ele>
        <time>2020-08-16T08:10:44.767Z</time>
      </trkpt>
      <trkpt lat="37.091184" lon="-5.861471">
        <ele>64.890415</ele>
        <time>2020-08-16T08:10:46.780Z</time>
      </trkpt>
      <trkpt lat="37.091084" lon="-5.861415">
        <ele>64.727447</ele>
        <time>2020-08-16T08:10:48.768Z</time>
      </trkpt>
      <trkpt lat="37.090992" lon="-5.861328">
        <ele>64.555974</ele>
        <time>2020-08-16T08:10:50.761Z</time>
      </trkpt>
      <trkpt lat="37.090884" lon="-5.861266">
        <ele>64.379226</ele>
        <time>2020-08-16T08:10:52.772Z</time>
      </trkpt>
      <trkpt lat="37.090800" lon="-5.861196">
        <ele>64.229141</ele>
        <time>2020-08-16T08:10:54.757Z</time>
      </trkpt>
      <trkpt lat="37.090690" lon="-5.861142">
        <ele>64.053362</ele>
        <time>2020-08-16T08:10:56.757Z</time>
      </trkpt>
      <trkpt lat="37.090576" lon="-5.861057">
        <ele>63.887397</ele>
        <time>2020-08-16T08:10:58.763Z</time>
      </trkpt>
      <trkpt lat="37.090445" lon="-5.860976">
        <ele>64.026290</ele>
        <time>2020-08-16T08:11:00.784Z</time>
      </trkpt>
      <trkpt lat="37.090326" lon="-5.860879">
        <ele>64.161261</ele>
        <time>2020-08-16T08:11:02.788Z</time>
      </trkpt>
      <trkpt lat="37.090209" lon="-5.860800">
        <ele>64.287625</ele>
        <time>2020-08-16T08:11:04.782Z</time>
      </trkpt>
      <trkpt lat="37.090082" lon="-5.860737">
        <ele>64.417497</ele>
        <time>2020-08-16T08:11:06.786Z</time>
      </trkpt>
      <trkpt lat="37.089960" lon="-5.860681">
        <ele>64.541037</ele>
        <time>2020-08-16T08:11:08.776Z</time>
      </trkpt>
      <trkpt lat="37.089816" lon="-5.860606">
        <ele>64.689311</ele>
        <time>2020-08-16T08:11:10.782Z</time>
      </trkpt>
      <trkpt lat="37.089704" lon="-5.860536">
        <ele>64.808311</ele>
        <time>2020-08-16T08:11:12.758Z</time>
      </trkpt>
      <trkpt lat="37.089569" lon="-5.860483">
        <ele>64.942827</ele>
        <time>2020-08-16T08:11:14.785Z</time>
      </trkpt>
      <trkpt lat="37.089430" lon="-5.860404">
        <ele>65.087949</ele>
        <time>2020-08-16T08:11:16.784Z</time>
      </trkpt>
      <trkpt lat="37.089286" lon="-5.860355">
        <ele>65.229830</ele>
        <time>2020-08-16T08:11:18.774Z</time>
      </trkpt>
      <trkpt lat="37.089158" lon="-5.860320">
        <ele>65.354404</ele>
        <time>2020-08-16T08:11:20.784Z</time>
      </trkpt>
      <trkpt lat="37.089019" lon="-5.860265">
        <ele>65.493004</ele>
        <time>2020-08-16T08:11:22.771Z</time>
      </trkpt>
      <trkpt lat="37.088877" lon="-5.860222">
        <ele>65.529287</ele>
        <time>2020-08-16T08:11:24.781Z</time>
      </trkpt>
      <trkpt lat="37.088755" lon="-5.860204">
        <ele>65.388101</ele>
        <time>2020-08-16T08:11:26.768Z</time>
      </trkpt>
      <trkpt lat="37.088619" lon="-5.860181">
        <ele>65.230377</ele>
        <time>2020-08-16T08:11:28.781Z</time>
      </trkpt>
      <trkpt lat="37.088498" lon="-5.860130">
        <ele>65.083658</ele>
        <time>2020-08-16T08:11:30.783Z</time>
      </trkpt>
      <trkpt lat="37.088365" lon="-5.860077">
        <ele>64.923260</ele>
        <time>2020-08-16T08:11:32.776Z</time>
      </trkpt>
      <trkpt lat="37.088244" lon="-5.860010">
        <ele>64.771229</ele>
        <time>2020-08-16T08:11:34.780Z</time>
      </trkpt>
      <trkpt lat="37.088107" lon="-5.859970">
        <ele>64.609557</ele>
        <time>2020-08-16T08:11:36.786Z</time>
      </trkpt>
      <trkpt lat="37.087982" lon="-5.859889">
        <ele>64.447832</ele>
        <time>2020-08-16T08:11:38.757Z</time>
      </trkpt>
      <trkpt lat="37.087874" lon="-5.859851">
        <ele>64.318908</ele>
        <time>2020-08-16T08:11:40.759Z</time>
      </trkpt>
      <trkpt lat="37.087775" lon="-5.859819">
        <ele>64.201403</ele>
        <time>2020-08-16T08:11:42.791Z</time>
      </trkpt>
      <trkpt lat="37.087629" lon="-5.859843">
        <ele>64.032165</ele>
        <time>2020-08-16T08:11:44.764Z</time>
      </trkpt>
      <trkpt lat="37.087528" lon="-5.859812">
        <ele>63.912654</ele>
        <time>2020-08-16T08:11:46.784Z</time>
      </trkpt>
      <trkpt lat="37.087463" lon="-5.859679">
        <ele>63.769650</ele>
        <time>2020-08-16T08:11:48.786Z</time>
      </trkpt>
      <trkpt lat="37.087375" lon="-5.859613">
        <ele>63.651789</ele>
        <time>2020-08-16T08:11:49.758Z</time>
      </trkpt>
      <trkpt lat="37.087285" lon="-5.859630">
        <ele>63.547182</ele>
        <time>2020-08-16T08:11:51.773Z</time>
      </trkpt>
      <trkpt lat="37.087184" lon="-5.859621">
        <ele>63.453274</ele>
        <time>2020-08-16T08:11:53.753Z</time>
      </trkpt>
      <trkpt lat="37.087068" lon="-5.859550">
        <ele>63.343042</ele>
        <time>2020-08-16T08:11:55.751Z</time>
      </trkpt>
      <trkpt lat="37.086937" lon="-5.859484">
        <ele>63.222482</ele>
        <time>2020-08-16T08:11:58.786Z</time>
      </trkpt>
      <trkpt lat="37.086836" lon="-5.859418">
        <ele>63.125221</ele>
        <time>2020-08-16T08:12:00.746Z</time>
      </trkpt>
      <trkpt lat="37.086737" lon="-5.859432">
        <ele>63.040147</ele>
        <time>2020-08-16T08:12:02.756Z</time>
      </trkpt>
      <trkpt lat="37.086637" lon="-5.859398">
        <ele>62.951669</ele>
        <time>2020-08-16T08:12:04.764Z</time>
      </trkpt>
      <trkpt lat="37.086518" lon="-5.859377">
        <ele>62.849051</ele>
        <time>2020-08-16T08:12:06.781Z</time>
      </trkpt>
      <trkpt lat="37.086430" lon="-5.859353">
        <ele>62.772148</ele>
        <time>2020-08-16T08:12:08.768Z</time>
      </trkpt>
      <trkpt lat="37.086313" lon="-5.859359">
        <ele>62.672155</ele>
        <time>2020-08-16T08:12:11.764Z</time>
      </trkpt>
      <trkpt lat="37.086206" lon="-5.859343">
        <ele>62.580138</ele>
        <time>2020-08-16T08:12:14.761Z</time>
      </trkpt>
      <trkpt lat="37.086082" lon="-5.859332">
        <ele>62.473987</ele>
        <time>2020-08-16T08:12:17.764Z</time>
      </trkpt>
      <trkpt lat="37.085939" lon="-5.859305">
        <ele>62.350499</ele>
        <time>2020-08-16T08:12:20.779Z</time>
      </trkpt>
      <trkpt lat="37.085847" lon="-5.859294">
        <ele>62.271581</ele>
        <time>2020-08-16T08:12:22.761Z</time>
      </trkpt>
      <trkpt lat="37.085749" lon="-5.859293">
        <ele>62.187894</ele>
        <time>2020-08-16T08:12:24.769Z</time>
      </trkpt>
      <trkpt lat="37.085635" lon="-5.859343">
        <ele>62.084761</ele>
        <time>2020-08-16T08:12:27.775Z</time>
      </trkpt>
      <trkpt lat="37.085523" lon="-5.859286">
        <ele>61.983403</ele>
        <time>2020-08-16T08:12:29.757Z</time>
      </trkpt>
      <trkpt lat="37.085433" lon="-5.859297">
        <ele>62.091119</ele>
        <time>2020-08-16T08:12:31.759Z</time>
      </trkpt>
      <trkpt lat="37.085347" lon="-5.859260">
        <ele>62.199428</ele>
        <time>2020-08-16T08:12:33.769Z</time>
      </trkpt>
      <trkpt lat="37.085256" lon="-5.859341">
        <ele>62.332376</ele>
        <time>2020-08-16T08:12:36.769Z</time>
      </trkpt>
      <trkpt lat="37.085144" lon="-5.859363">
        <ele>62.467418</ele>
        <time>2020-08-16T08:12:39.768Z</time>
      </trkpt>
      <trkpt lat="37.085056" lon="-5.859332">
        <ele>62.576305</ele>
        <time>2020-08-16T08:12:41.777Z</time>
      </trkpt>
      <trkpt lat="37.084947" lon="-5.859332">
        <ele>62.706146</ele>
        <time>2020-08-16T08:12:44.761Z</time>
      </trkpt>
      <trkpt lat="37.084844" lon="-5.859350">
        <ele>62.830026</ele>
        <time>2020-08-16T08:12:47.785Z</time>
      </trkpt>
      <trkpt lat="37.084750" lon="-5.859373">
        <ele>62.944112</ele>
        <time>2020-08-16T08:12:50.769Z</time>
      </trkpt>
      <trkpt lat="37.084666" lon="-5.859425">
        <ele>63.055709</ele>
        <time>2020-08-16T08:12:53.779Z</time>
      </trkpt>
      <trkpt lat="37.084574" lon="-5.859435">
        <ele>63.165711</ele>
        <time>2020-08-16T08:12:56.771Z</time>
      </trkpt>
      <trkpt lat="37.084457" lon="-5.859462">
        <ele>63.307424</ele>
        <time>2020-08-16T08:13:00.784Z</time>
      </trkpt>
      <trkpt lat="37.084363" lon="-5.859466">
        <ele>63.419461</ele>
        <time>2020-08-16T08:13:03.767Z</time>
      </trkpt>
      <trkpt lat="37.084266" lon="-5.859469">
        <ele>63.535043</ele>
        <time>2020-08-16T08:13:06.781Z</time>
      </trkpt>
      <trkpt lat="37.084163" lon="-5.859486">
        <ele>63.658796</ele>
        <time>2020-08-16T08:13:09.786Z</time>
      </trkpt>
      <trkpt lat="37.084049" lon="-5.859524">
        <ele>63.799312</ele>
        <time>2020-08-16T08:13:12.777Z</time>
      </trkpt>
      <trkpt lat="37.083958" lon="-5.859545">
        <ele>63.909533</ele>
        <time>2020-08-16T08:13:14.771Z</time>
      </trkpt>
      <trkpt lat="37.083850" lon="-5.859529">
        <ele>64.039078</ele>
        <time>2020-08-16T08:13:16.779Z</time>
      </trkpt>
      <trkpt lat="37.083754" lon="-5.859528">
        <ele>64.136724</ele>
        <time>2020-08-16T08:13:18.769Z</time>
      </trkpt>
      <trkpt lat="37.083648" lon="-5.859553">
        <ele>64.190055</ele>
        <time>2020-08-16T08:13:20.760Z</time>
      </trkpt>
      <trkpt lat="37.083515" lon="-5.859522">
        <ele>64.256944</ele>
        <time>2020-08-16T08:13:22.765Z</time>
      </trkpt>
      <trkpt lat="37.083402" lon="-5.859516">
        <ele>64.312867</ele>
        <time>2020-08-16T08:13:24.773Z</time>
      </trkpt>
      <trkpt lat="37.083284" lon="-5.859444">
        <ele>64.377756</ele>
        <time>2020-08-16T08:13:26.759Z</time>
      </trkpt>
      <trkpt lat="37.083171" lon="-5.859404">
        <ele>64.435814</ele>
        <time>2020-08-16T08:13:28.758Z</time>
      </trkpt>
      <trkpt lat="37.083043" lon="-5.859352">
        <ele>64.502344</ele>
        <time>2020-08-16T08:13:30.783Z</time>
      </trkpt>
      <trkpt lat="37.082902" lon="-5.859271">
        <ele>64.579034</ele>
        <time>2020-08-16T08:13:32.758Z</time>
      </trkpt>
      <trkpt lat="37.082761" lon="-5.859235">
        <ele>64.650182</ele>
        <time>2020-08-16T08:13:34.759Z</time>
      </trkpt>
      <trkpt lat="37.082626" lon="-5.859223">
        <ele>64.717100</ele>
        <time>2020-08-16T08:13:36.776Z</time>
      </trkpt>
      <trkpt lat="37.082490" lon="-5.859204">
        <ele>64.784761</ele>
        <time>2020-08-16T08:13:38.761Z</time>
      </trkpt>
      <trkpt lat="37.082370" lon="-5.859234">
        <ele>64.845263</ele>
        <time>2020-08-16T08:13:40.754Z</time>
      </trkpt>
      <trkpt lat="37.082252" lon="-5.859266">
        <ele>64.904958</ele>
        <time>2020-08-16T08:13:42.767Z</time>
      </trkpt>
      <trkpt lat="37.082184" lon="-5.859389">
        <ele>64.963987</ele>
        <time>2020-08-16T08:13:44.757Z</time>
      </trkpt>
      <trkpt lat="37.082141" lon="-5.859529">
        <ele>64.982077</ele>
        <time>2020-08-16T08:13:46.757Z</time>
      </trkpt>
      <trkpt lat="37.082096" lon="-5.859653">
        <ele>64.789543</ele>
        <time>2020-08-16T08:13:48.765Z</time>
      </trkpt>
      <trkpt lat="37.082066" lon="-5.859782">
        <ele>64.599635</ele>
        <time>2020-08-16T08:13:50.787Z</time>
      </trkpt>
      <trkpt lat="37.082073" lon="-5.859930">
        <ele>64.390095</ele>
        <time>2020-08-16T08:13:52.779Z</time>
      </trkpt>
      <trkpt lat="37.082065" lon="-5.860087">
        <ele>64.167750</ele>
        <time>2020-08-16T08:13:54.778Z</time>
      </trkpt>
      <trkpt lat="37.082069" lon="-5.860236">
        <ele>63.957044</ele>
        <time>2020-08-16T08:13:56.781Z</time>
      </trkpt>
      <trkpt lat="37.082080" lon="-5.860395">
        <ele>63.731481</ele>
        <time>2020-08-16T08:13:58.762Z</time>
      </trkpt>
      <trkpt lat="37.082073" lon="-5.860542">
        <ele>63.523352</ele>
        <time>2020-08-16T08:14:00.779Z</time>
      </trkpt>
      <trkpt lat="37.082089" lon="-5.860692">
        <ele>63.309466</ele>
        <time>2020-08-16T08:14:02.755Z</time>
      </trkpt>
      <trkpt lat="37.082119" lon="-5.860821">
        <ele>63.119557</ele>
        <time>2020-08-16T08:14:04.759Z</time>
      </trkpt>
      <trkpt lat="37.082177" lon="-5.860924">
        <ele>62.941373</ele>
        <time>2020-08-16T08:14:06.777Z</time>
      </trkpt>
      <trkpt lat="37.082220" lon="-5.861032">
        <ele>62.770780</ele>
        <time>2020-08-16T08:14:08.761Z</time>
      </trkpt>
      <trkpt lat="37.082251" lon="-5.861137">
        <ele>62.612545</ele>
        <time>2020-08-16T08:14:10.759Z</time>
      </trkpt>
      <trkpt lat="37.082292" lon="-5.861262">
        <ele>62.421530</ele>
        <time>2020-08-16T08:14:12.758Z</time>
      </trkpt>
      <trkpt lat="37.082313" lon="-5.861376">
        <ele>62.256171</ele>
        <time>2020-08-16T08:14:14.788Z</time>
      </trkpt>
      <trkpt lat="37.082312" lon="-5.861490">
        <ele>62.095042</ele>
        <time>2020-08-16T08:14:16.785Z</time>
      </trkpt>
      <trkpt lat="37.082337" lon="-5.861643">
        <ele>61.874314</ele>
        <time>2020-08-16T08:14:19.767Z</time>
      </trkpt>
      <trkpt lat="37.082395" lon="-5.861755">
        <ele>61.617193</ele>
        <time>2020-08-16T08:14:21.762Z</time>
      </trkpt>
      <trkpt lat="37.082432" lon="-5.861872">
        <ele>61.353710</ele>
        <time>2020-08-16T08:14:23.775Z</time>
      </trkpt>
      <trkpt lat="37.082457" lon="-5.862016">
        <ele>61.045190</ele>
        <time>2020-08-16T08:14:25.778Z</time>
      </trkpt>
      <trkpt lat="37.082472" lon="-5.862189">
        <ele>60.680882</ele>
        <time>2020-08-16T08:14:28.770Z</time>
      </trkpt>
      <trkpt lat="37.082462" lon="-5.862315">
        <ele>60.415799</ele>
        <time>2020-08-16T08:14:30.777Z</time>
      </trkpt>
      <trkpt lat="37.082470" lon="-5.862479">
        <ele>60.071823</ele>
        <time>2020-08-16T08:14:32.775Z</time>
      </trkpt>
      <trkpt lat="37.082451" lon="-5.862619">
        <ele>59.774522</ele>
        <time>2020-08-16T08:14:34.776Z</time>
      </trkpt>
      <trkpt lat="37.082449" lon="-5.862743">
        <ele>59.514875</ele>
        <time>2020-08-16T08:14:36.755Z</time>
      </trkpt>
      <trkpt lat="37.082407" lon="-5.862868">
        <ele>59.230924</ele>
        <time>2020-08-16T08:14:38.778Z</time>
      </trkpt>
      <trkpt lat="37.082397" lon="-5.863000">
        <ele>58.953339</ele>
        <time>2020-08-16T08:14:40.769Z</time>
      </trkpt>
      <trkpt lat="37.082337" lon="-5.863169">
        <ele>58.566083</ele>
        <time>2020-08-16T08:14:42.765Z</time>
      </trkpt>
      <trkpt lat="37.082343" lon="-5.863285">
        <ele>58.322727</ele>
        <time>2020-08-16T08:14:44.764Z</time>
      </trkpt>
      <trkpt lat="37.082303" lon="-5.863424">
        <ele>58.013377</ele>
        <time>2020-08-16T08:14:46.770Z</time>
      </trkpt>
      <trkpt lat="37.082260" lon="-5.863557">
        <ele>57.712944</ele>
        <time>2020-08-16T08:14:48.767Z</time>
      </trkpt>
      <trkpt lat="37.082226" lon="-5.863690">
        <ele>57.420562</ele>
        <time>2020-08-16T08:14:50.758Z</time>
      </trkpt>
      <trkpt lat="37.082187" lon="-5.863823">
        <ele>57.123912</ele>
        <time>2020-08-16T08:14:52.788Z</time>
      </trkpt>
      <trkpt lat="37.082130" lon="-5.863960">
        <ele>57.250528</ele>
        <time>2020-08-16T08:14:54.780Z</time>
      </trkpt>
      <trkpt lat="37.082062" lon="-5.864084">
        <ele>57.396904</ele>
        <time>2020-08-16T08:14:56.776Z</time>
      </trkpt>
      <trkpt lat="37.081999" lon="-5.864205">
        <ele>57.537462</ele>
        <time>2020-08-16T08:14:58.776Z</time>
      </trkpt>
      <trkpt lat="37.081923" lon="-5.864325">
        <ele>57.686509</ele>
        <time>2020-08-16T08:15:00.787Z</time>
      </trkpt>
      <trkpt lat="37.081859" lon="-5.864450">
        <ele>57.830997</ele>
        <time>2020-08-16T08:15:02.783Z</time>
      </trkpt>
      <trkpt lat="37.081783" lon="-5.864560">
        <ele>57.972555</ele>
        <time>2020-08-16T08:15:04.760Z</time>
      </trkpt>
      <trkpt lat="37.081699" lon="-5.864666">
        <ele>58.117897</ele>
        <time>2020-08-16T08:15:06.776Z</time>
      </trkpt>
      <trkpt lat="37.081612" lon="-5.864773">
        <ele>58.266520</ele>
        <time>2020-08-16T08:15:08.774Z</time>
      </trkpt>
      <trkpt lat="37.081523" lon="-5.864896">
        <ele>58.428059</ele>
        <time>2020-08-16T08:15:10.783Z</time>
      </trkpt>
      <trkpt lat="37.081435" lon="-5.864998">
        <ele>58.574210</ele>
        <time>2020-08-16T08:15:12.775Z</time>
      </trkpt>
      <trkpt lat="37.081340" lon="-5.865111">
        <ele>58.733906</ele>
        <time>2020-08-16T08:15:14.764Z</time>
      </trkpt>
      <trkpt lat="37.081260" lon="-5.865194">
        <ele>58.860537</ele>
        <time>2020-08-16T08:15:16.786Z</time>
      </trkpt>
      <trkpt lat="37.081169" lon="-5.865292">
        <ele>59.006829</ele>
        <time>2020-08-16T08:15:18.772Z</time>
      </trkpt>
      <trkpt lat="37.081071" lon="-5.865394">
        <ele>59.162154</ele>
        <time>2020-08-16T08:15:20.755Z</time>
      </trkpt>
      <trkpt lat="37.080974" lon="-5.865497">
        <ele>59.314484</ele>
        <time>2020-08-16T08:15:22.769Z</time>
      </trkpt>
      <trkpt lat="37.080876" lon="-5.865572">
        <ele>59.431283</ele>
        <time>2020-08-16T08:15:24.770Z</time>
      </trkpt>
      <trkpt lat="37.080794" lon="-5.865663">
        <ele>59.542688</ele>
        <time>2020-08-16T08:15:26.786Z</time>
      </trkpt>
      <trkpt lat="37.080722" lon="-5.865738">
        <ele>59.637917</ele>
        <time>2020-08-16T08:15:28.786Z</time>
      </trkpt>
      <trkpt lat="37.080629" lon="-5.865801">
        <ele>59.745450</ele>
        <time>2020-08-16T08:15:30.791Z</time>
      </trkpt>
      <trkpt lat="37.080520" lon="-5.865877">
        <ele>59.872327</ele>
        <time>2020-08-16T08:15:32.753Z</time>
      </trkpt>
      <trkpt lat="37.080433" lon="-5.865946">
        <ele>59.977052</ele>
        <time>2020-08-16T08:15:34.783Z</time>
      </trkpt>
      <trkpt lat="37.080338" lon="-5.865999">
        <ele>60.082828</ele>
        <time>2020-08-16T08:15:36.761Z</time>
      </trkpt>
      <trkpt lat="37.080252" lon="-5.866064">
        <ele>60.184982</ele>
        <time>2020-08-16T08:15:38.760Z</time>
      </trkpt>
      <trkpt lat="37.080151" lon="-5.866133">
        <ele>60.301990</ele>
        <time>2020-08-16T08:15:40.770Z</time>
      </trkpt>
      <trkpt lat="37.080053" lon="-5.866185">
        <ele>60.410241</ele>
        <time>2020-08-16T08:15:42.766Z</time>
      </trkpt>
      <trkpt lat="37.079939" lon="-5.866243">
        <ele>60.535393</ele>
        <time>2020-08-16T08:15:44.767Z</time>
      </trkpt>
      <trkpt lat="37.079837" lon="-5.866301">
        <ele>60.649327</ele>
        <time>2020-08-16T08:15:46.788Z</time>
      </trkpt>
      <trkpt lat="37.079741" lon="-5.866355">
        <ele>60.756362</ele>
        <time>2020-08-16T08:15:48.772Z</time>
      </trkpt>
      <trkpt lat="37.079635" lon="-5.866390">
        <ele>60.867866</ele>
        <time>2020-08-16T08:15:50.777Z</time>
      </trkpt>
      <trkpt lat="37.079520" lon="-5.866421">
        <ele>60.987521</ele>
        <time>2020-08-16T08:15:52.795Z</time>
      </trkpt>
      <trkpt lat="37.079412" lon="-5.866475">
        <ele>61.105799</ele>
        <time>2020-08-16T08:15:54.792Z</time>
      </trkpt>
      <trkpt lat="37.079307" lon="-5.866529">
        <ele>61.338825</ele>
        <time>2020-08-16T08:15:56.784Z</time>
      </trkpt>
      <trkpt lat="37.079169" lon="-5.866574">
        <ele>61.671980</ele>
        <time>2020-08-16T08:15:58.782Z</time>
      </trkpt>
      <trkpt lat="37.079051" lon="-5.866587">
        <ele>61.948738</ele>
        <time>2020-08-16T08:16:00.804Z</time>
      </trkpt>
      <trkpt lat="37.078961" lon="-5.866726">
        <ele>62.282423</ele>
        <time>2020-08-16T08:16:02.767Z</time>
      </trkpt>
      <trkpt lat="37.078879" lon="-5.866796">
        <ele>62.514219</ele>
        <time>2020-08-16T08:16:04.766Z</time>
      </trkpt>
      <trkpt lat="37.078755" lon="-5.866842">
        <ele>62.816355</ele>
        <time>2020-08-16T08:16:06.759Z</time>
      </trkpt>
      <trkpt lat="37.078628" lon="-5.866855">
        <ele>63.114065</ele>
        <time>2020-08-16T08:16:08.757Z</time>
      </trkpt>
      <trkpt lat="37.078492" lon="-5.866907">
        <ele>63.446270</ele>
        <time>2020-08-16T08:16:11.785Z</time>
      </trkpt>
      <trkpt lat="37.078393" lon="-5.866969">
        <ele>63.704837</ele>
        <time>2020-08-16T08:16:13.777Z</time>
      </trkpt>
      <trkpt lat="37.078285" lon="-5.867064">
        <ele>64.013104</ele>
        <time>2020-08-16T08:16:15.763Z</time>
      </trkpt>
      <trkpt lat="37.078188" lon="-5.867106">
        <ele>64.252875</ele>
        <time>2020-08-16T08:16:17.767Z</time>
      </trkpt>
      <trkpt lat="37.078089" lon="-5.867120">
        <ele>64.485646</ele>
        <time>2020-08-16T08:16:19.776Z</time>
      </trkpt>
      <trkpt lat="37.077980" lon="-5.867152">
        <ele>64.747206</ele>
        <time>2020-08-16T08:16:21.770Z</time>
      </trkpt>
      <trkpt lat="37.077859" lon="-5.867138">
        <ele>65.031111</ele>
        <time>2020-08-16T08:16:23.777Z</time>
      </trkpt>
      <trkpt lat="37.077745" lon="-5.867177">
        <ele>65.307203</ele>
        <time>2020-08-16T08:16:25.777Z</time>
      </trkpt>
      <trkpt lat="37.077643" lon="-5.867252">
        <ele>65.194863</ele>
        <time>2020-08-16T08:16:27.782Z</time>
      </trkpt>
      <trkpt lat="37.077544" lon="-5.867284">
        <ele>65.063245</ele>
        <time>2020-08-16T08:16:29.764Z</time>
      </trkpt>
      <trkpt lat="37.077418" lon="-5.867369">
        <ele>64.879035</ele>
        <time>2020-08-16T08:16:31.779Z</time>
      </trkpt>
      <trkpt lat="37.077305" lon="-5.867419">
        <ele>64.724765</ele>
        <time>2020-08-16T08:16:33.770Z</time>
      </trkpt>
      <trkpt lat="37.077218" lon="-5.867451">
        <ele>64.608041</ele>
        <time>2020-08-16T08:16:35.767Z</time>
      </trkpt>
      <trkpt lat="37.077110" lon="-5.867477">
        <ele>64.466465</ele>
        <time>2020-08-16T08:16:37.783Z</time>
      </trkpt>
      <trkpt lat="37.076993" lon="-5.867491">
        <ele>64.315158</ele>
        <time>2020-08-16T08:16:39.779Z</time>
      </trkpt>
      <trkpt lat="37.076873" lon="-5.867545">
        <ele>64.151020</ele>
        <time>2020-08-16T08:16:41.775Z</time>
      </trkpt>
      <trkpt lat="37.076805" lon="-5.867635">
        <ele>64.023709</ele>
        <time>2020-08-16T08:16:43.775Z</time>
      </trkpt>
      <trkpt lat="37.076712" lon="-5.867691">
        <ele>63.890884</ele>
        <time>2020-08-16T08:16:45.776Z</time>
      </trkpt>
      <trkpt lat="37.076609" lon="-5.867732">
        <ele>63.751760</ele>
        <time>2020-08-16T08:16:47.771Z</time>
      </trkpt>
      <trkpt lat="37.076518" lon="-5.867762">
        <ele>63.630625</ele>
        <time>2020-08-16T08:16:49.755Z</time>
      </trkpt>
      <trkpt lat="37.076417" lon="-5.867824">
        <ele>63.485845</ele>
        <time>2020-08-16T08:16:51.776Z</time>
      </trkpt>
      <trkpt lat="37.076333" lon="-5.867895">
        <ele>63.355415</ele>
        <time>2020-08-16T08:16:53.757Z</time>
      </trkpt>
      <trkpt lat="37.076238" lon="-5.867964">
        <ele>63.214066</ele>
        <time>2020-08-16T08:16:55.760Z</time>
      </trkpt>
      <trkpt lat="37.076133" lon="-5.867975">
        <ele>63.078421</ele>
        <time>2020-08-16T08:16:57.774Z</time>
      </trkpt>
      <trkpt lat="37.076032" lon="-5.868016">
        <ele>63.044240</ele>
        <time>2020-08-16T08:16:59.779Z</time>
      </trkpt>
      <trkpt lat="37.075925" lon="-5.868062">
        <ele>63.095854</ele>
        <time>2020-08-16T08:17:01.766Z</time>
      </trkpt>
      <trkpt lat="37.075814" lon="-5.868117">
        <ele>63.150315</ele>
        <time>2020-08-16T08:17:03.761Z</time>
      </trkpt>
      <trkpt lat="37.075705" lon="-5.868192">
        <ele>63.207051</ele>
        <time>2020-08-16T08:17:05.766Z</time>
      </trkpt>
      <trkpt lat="37.075561" lon="-5.868229">
        <ele>63.274122</ele>
        <time>2020-08-16T08:17:07.781Z</time>
      </trkpt>
      <trkpt lat="37.075464" lon="-5.868301">
        <ele>63.325560</ele>
        <time>2020-08-16T08:17:09.767Z</time>
      </trkpt>
      <trkpt lat="37.075373" lon="-5.868360">
        <ele>63.372307</ele>
        <time>2020-08-16T08:17:11.757Z</time>
      </trkpt>
      <trkpt lat="37.075277" lon="-5.868425">
        <ele>63.422093</ele>
        <time>2020-08-16T08:17:13.759Z</time>
      </trkpt>
      <trkpt lat="37.075170" lon="-5.868493">
        <ele>63.476832</ele>
        <time>2020-08-16T08:17:15.755Z</time>
      </trkpt>
      <trkpt lat="37.075065" lon="-5.868555">
        <ele>63.529792</ele>
        <time>2020-08-16T08:17:17.780Z</time>
      </trkpt>
      <trkpt lat="37.074975" lon="-5.868627">
        <ele>63.578509</ele>
        <time>2020-08-16T08:17:19.770Z</time>
      </trkpt>
      <trkpt lat="37.074862" lon="-5.868689">
        <ele>63.634792</ele>
        <time>2020-08-16T08:17:21.766Z</time>
      </trkpt>
      <trkpt lat="37.074780" lon="-5.868757">
        <ele>63.679655</ele>
        <time>2020-08-16T08:17:23.762Z</time>
      </trkpt>
      <trkpt lat="37.074686" lon="-5.868819">
        <ele>63.728122</ele>
        <time>2020-08-16T08:17:25.769Z</time>
      </trkpt>
      <trkpt lat="37.074590" lon="-5.868883">
        <ele>63.777736</ele>
        <time>2020-08-16T08:17:27.770Z</time>
      </trkpt>
      <trkpt lat="37.074497" lon="-5.868945">
        <ele>63.825799</ele>
        <time>2020-08-16T08:17:29.759Z</time>
      </trkpt>
      <trkpt lat="37.074407" lon="-5.869020">
        <ele>63.819086</ele>
        <time>2020-08-16T08:17:31.758Z</time>
      </trkpt>
      <trkpt lat="37.074299" lon="-5.869063">
        <ele>63.792515</ele>
        <time>2020-08-16T08:17:33.776Z</time>
      </trkpt>
      <trkpt lat="37.074210" lon="-5.869133">
        <ele>63.767878</ele>
        <time>2020-08-16T08:17:35.768Z</time>
      </trkpt>
      <trkpt lat="37.074108" lon="-5.869179">
        <ele>63.742461</ele>
        <time>2020-08-16T08:17:37.765Z</time>
      </trkpt>
      <trkpt lat="37.074014" lon="-5.869261">
        <ele>63.715607</ele>
        <time>2020-08-16T08:17:39.768Z</time>
      </trkpt>
      <trkpt lat="37.073913" lon="-5.869316">
        <ele>63.689786</ele>
        <time>2020-08-16T08:17:41.763Z</time>
      </trkpt>
      <trkpt lat="37.073808" lon="-5.869372">
        <ele>63.663030</ele>
        <time>2020-08-16T08:17:43.763Z</time>
      </trkpt>
      <trkpt lat="37.073737" lon="-5.869499">
        <ele>63.634019</ele>
        <time>2020-08-16T08:17:45.764Z</time>
      </trkpt>
      <trkpt lat="37.073623" lon="-5.869562">
        <ele>63.604805</ele>
        <time>2020-08-16T08:17:47.768Z</time>
      </trkpt>
      <trkpt lat="37.073528" lon="-5.869604">
        <ele>63.581185</ele>
        <time>2020-08-16T08:17:49.773Z</time>
      </trkpt>
      <trkpt lat="37.073416" lon="-5.869660">
        <ele>63.552911</ele>
        <time>2020-08-16T08:17:51.763Z</time>
      </trkpt>
      <trkpt lat="37.073343" lon="-5.869745">
        <ele>63.529547</ele>
        <time>2020-08-16T08:17:53.771Z</time>
      </trkpt>
      <trkpt lat="37.073227" lon="-5.869785">
        <ele>63.501338</ele>
        <time>2020-08-16T08:17:55.762Z</time>
      </trkpt>
      <trkpt lat="37.073140" lon="-5.869865">
        <ele>63.476037</ele>
        <time>2020-08-16T08:17:57.749Z</time>
      </trkpt>
      <trkpt lat="37.073053" lon="-5.869934">
        <ele>63.451896</ele>
        <time>2020-08-16T08:17:59.758Z</time>
      </trkpt>
      <trkpt lat="37.072934" lon="-5.870016">
        <ele>63.420054</ele>
        <time>2020-08-16T08:18:01.758Z</time>
      </trkpt>
      <trkpt lat="37.072833" lon="-5.870076">
        <ele>63.291171</ele>
        <time>2020-08-16T08:18:03.759Z</time>
      </trkpt>
      <trkpt lat="37.072735" lon="-5.870147">
        <ele>63.143606</ele>
        <time>2020-08-16T08:18:05.755Z</time>
      </trkpt>
      <trkpt lat="37.072629" lon="-5.870212">
        <ele>62.989769</ele>
        <time>2020-08-16T08:18:07.762Z</time>
      </trkpt>
      <trkpt lat="37.072547" lon="-5.870281">
        <ele>62.861014</ele>
        <time>2020-08-16T08:18:09.758Z</time>
      </trkpt>
      <trkpt lat="37.072466" lon="-5.870348">
        <ele>62.734496</ele>
        <time>2020-08-16T08:18:11.758Z</time>
      </trkpt>
      <trkpt lat="37.072321" lon="-5.870426">
        <ele>62.528794</ele>
        <time>2020-08-16T08:18:14.775Z</time>
      </trkpt>
      <trkpt lat="37.072206" lon="-5.870480">
        <ele>62.368701</ele>
        <time>2020-08-16T08:18:17.763Z</time>
      </trkpt>
      <trkpt lat="37.072121" lon="-5.870563">
        <ele>62.228231</ele>
        <time>2020-08-16T08:18:19.768Z</time>
      </trkpt>
      <trkpt lat="37.072036" lon="-5.870618">
        <ele>62.103526</ele>
        <time>2020-08-16T08:18:21.768Z</time>
      </trkpt>
      <trkpt lat="37.071948" lon="-5.870684">
        <ele>61.969835</ele>
        <time>2020-08-16T08:18:23.765Z</time>
      </trkpt>
      <trkpt lat="37.071812" lon="-5.870752">
        <ele>61.778954</ele>
        <time>2020-08-16T08:18:26.759Z</time>
      </trkpt>
      <trkpt lat="37.071728" lon="-5.870808">
        <ele>61.654921</ele>
        <time>2020-08-16T08:18:28.764Z</time>
      </trkpt>
      <trkpt lat="37.071654" lon="-5.870877">
        <ele>61.534683</ele>
        <time>2020-08-16T08:18:30.766Z</time>
      </trkpt>
      <trkpt lat="37.071556" lon="-5.870958">
        <ele>61.381647</ele>
        <time>2020-08-16T08:18:33.767Z</time>
      </trkpt>
      <trkpt lat="37.071463" lon="-5.870981">
        <ele>61.258072</ele>
        <time>2020-08-16T08:18:35.772Z</time>
      </trkpt>
      <trkpt lat="37.071371" lon="-5.871011">
        <ele>61.134145</ele>
        <time>2020-08-16T08:18:37.762Z</time>
      </trkpt>
      <trkpt lat="37.071308" lon="-5.870925">
        <ele>60.953365</ele>
        <time>2020-08-16T08:18:39.742Z</time>
      </trkpt>
      <trkpt lat="37.071254" lon="-5.870828">
        <ele>60.706365</ele>
        <time>2020-08-16T08:18:42.750Z</time>
      </trkpt>
      <trkpt lat="37.071202" lon="-5.870711">
        <ele>60.426683</ele>
        <time>2020-08-16T08:18:44.789Z</time>
      </trkpt>
      <trkpt lat="37.071156" lon="-5.870611">
        <ele>60.185632</ele>
        <time>2020-08-16T08:18:46.794Z</time>
      </trkpt>
      <trkpt lat="37.071099" lon="-5.870522">
        <ele>59.947302</ele>
        <time>2020-08-16T08:18:48.778Z</time>
      </trkpt>
      <trkpt lat="37.071028" lon="-5.870416">
        <ele>59.658281</ele>
        <time>2020-08-16T08:18:50.792Z</time>
      </trkpt>
      <trkpt lat="37.070942" lon="-5.870223">
        <ele>59.196641</ele>
        <time>2020-08-16T08:18:53.785Z</time>
      </trkpt>
      <trkpt lat="37.070898" lon="-5.870090">
        <ele>58.895965</ele>
        <time>2020-08-16T08:18:56.772Z</time>
      </trkpt>
      <trkpt lat="37.070845" lon="-5.869957">
        <ele>58.585504</ele>
        <time>2020-08-16T08:18:59.777Z</time>
      </trkpt>
      <trkpt lat="37.070802" lon="-5.869847">
        <ele>58.329700</ele>
        <time>2020-08-16T08:19:01.788Z</time>
      </trkpt>
      <trkpt lat="37.070757" lon="-5.869699">
        <ele>57.998946</ele>
        <time>2020-08-16T08:19:03.804Z</time>
      </trkpt>
      <trkpt lat="37.070731" lon="-5.869567">
        <ele>57.715011</ele>
        <time>2020-08-16T08:19:06.758Z</time>
      </trkpt>
      <trkpt lat="37.070679" lon="-5.869460">
        <ele>57.453375</ele>
        <time>2020-08-16T08:19:08.776Z</time>
      </trkpt>
      <trkpt lat="37.070588" lon="-5.869344">
        <ele>57.113653</ele>
        <time>2020-08-16T08:19:11.772Z</time>
      </trkpt>
      <trkpt lat="37.070512" lon="-5.869222">
        <ele>56.790421</ele>
        <time>2020-08-16T08:19:13.794Z</time>
      </trkpt>
      <trkpt lat="37.070446" lon="-5.869102">
        <ele>56.486052</ele>
        <time>2020-08-16T08:19:16.788Z</time>
      </trkpt>
      <trkpt lat="37.070386" lon="-5.868992">
        <ele>56.377673</ele>
        <time>2020-08-16T08:19:18.774Z</time>
      </trkpt>
      <trkpt lat="37.070332" lon="-5.868896">
        <ele>56.399161</ele>
        <time>2020-08-16T08:19:20.787Z</time>
      </trkpt>
      <trkpt lat="37.070257" lon="-5.868711">
        <ele>56.437123</ele>
        <time>2020-08-16T08:19:24.766Z</time>
      </trkpt>
      <trkpt lat="37.070216" lon="-5.868599">
        <ele>56.459666</ele>
        <time>2020-08-16T08:19:26.786Z</time>
      </trkpt>
      <trkpt lat="37.070187" lon="-5.868452">
        <ele>56.487368</ele>
        <time>2020-08-16T08:19:29.791Z</time>
      </trkpt>
      <trkpt lat="37.070163" lon="-5.868339">
        <ele>56.508760</ele>
        <time>2020-08-16T08:19:31.789Z</time>
      </trkpt>
      <trkpt lat="37.070137" lon="-5.868197">
        <ele>56.535413</ele>
        <time>2020-08-16T08:19:33.776Z</time>
      </trkpt>
      <trkpt lat="37.070104" lon="-5.868088">
        <ele>56.556741</ele>
        <time>2020-08-16T08:19:35.780Z</time>
      </trkpt>
      <trkpt lat="37.070059" lon="-5.867944">
        <ele>56.585033</ele>
        <time>2020-08-16T08:19:38.780Z</time>
      </trkpt>
      <trkpt lat="37.069992" lon="-5.867791">
        <ele>56.616961</ele>
        <time>2020-08-16T08:19:42.779Z</time>
      </trkpt>
      <trkpt lat="37.069966" lon="-5.867680">
        <ele>56.638125</ele>
        <time>2020-08-16T08:19:44.794Z</time>
      </trkpt>
      <trkpt lat="37.069908" lon="-5.867567">
        <ele>56.662705</ele>
        <time>2020-08-16T08:19:46.783Z</time>
      </trkpt>
      <trkpt lat="37.069847" lon="-5.867474">
        <ele>56.684729</ele>
        <time>2020-08-16T08:19:48.775Z</time>
      </trkpt>
      <trkpt lat="37.069820" lon="-5.867361">
        <ele>56.706309</ele>
        <time>2020-08-16T08:19:50.771Z</time>
      </trkpt>
      <trkpt lat="37.069770" lon="-5.867266">
        <ele>56.727129</ele>
        <time>2020-08-16T08:19:55.774Z</time>
      </trkpt>
      <trkpt lat="37.069644" lon="-5.866964">
        <ele>56.878861</ele>
        <time>2020-08-16T08:19:58.788Z</time>
      </trkpt>
      <trkpt lat="37.069604" lon="-5.866818">
        <ele>57.099886</ele>
        <time>2020-08-16T08:20:01.777Z</time>
      </trkpt>
      <trkpt lat="37.069551" lon="-5.866668">
        <ele>57.334775</ele>
        <time>2020-08-16T08:20:05.792Z</time>
      </trkpt>
      <trkpt lat="37.069454" lon="-5.866474">
        <ele>57.662581</ele>
        <time>2020-08-16T08:20:09.748Z</time>
      </trkpt>
      <trkpt lat="37.069409" lon="-5.866367">
        <ele>57.835764</ele>
        <time>2020-08-16T08:20:12.765Z</time>
      </trkpt>
      <trkpt lat="37.069350" lon="-5.866266">
        <ele>58.014992</ele>
        <time>2020-08-16T08:20:18.770Z</time>
      </trkpt>
      <trkpt lat="37.069240" lon="-5.866304">
        <ele>58.219746</ele>
        <time>2020-08-16T08:20:22.786Z</time>
      </trkpt>
      <trkpt lat="37.069119" lon="-5.866355">
        <ele>58.448828</ele>
        <time>2020-08-16T08:20:25.800Z</time>
      </trkpt>
      <trkpt lat="37.069031" lon="-5.866394">
        <ele>58.616324</ele>
        <time>2020-08-16T08:20:27.782Z</time>
      </trkpt>
      <trkpt lat="37.068928" lon="-5.866419">
        <ele>58.804590</ele>
        <time>2020-08-16T08:20:29.791Z</time>
      </trkpt>
      <trkpt lat="37.068806" lon="-5.866479">
        <ele>59.039769</ele>
        <time>2020-08-16T08:20:32.785Z</time>
      </trkpt>
      <trkpt lat="37.068720" lon="-5.866532">
        <ele>59.211743</ele>
        <time>2020-08-16T08:20:35.775Z</time>
      </trkpt>
      <trkpt lat="37.068618" lon="-5.866591">
        <ele>59.413334</ele>
        <time>2020-08-16T08:20:38.788Z</time>
      </trkpt>
      <trkpt lat="37.068478" lon="-5.866690">
        <ele>59.701793</ele>
        <time>2020-08-16T08:20:40.790Z</time>
      </trkpt>
      <trkpt lat="37.068386" lon="-5.866746">
        <ele>59.885326</ele>
        <time>2020-08-16T08:20:43.764Z</time>
      </trkpt>
      <trkpt lat="37.068277" lon="-5.866814">
        <ele>59.999553</ele>
        <time>2020-08-16T08:20:46.785Z</time>
      </trkpt>
      <trkpt lat="37.068186" lon="-5.866865">
        <ele>59.991577</ele>
        <time>2020-08-16T08:20:50.799Z</time>
      </trkpt>
      <trkpt lat="37.068084" lon="-5.866922">
        <ele>59.982641</ele>
        <time>2020-08-16T08:20:52.789Z</time>
      </trkpt>
      <trkpt lat="37.067949" lon="-5.866970">
        <ele>59.971414</ele>
        <time>2020-08-16T08:20:54.778Z</time>
      </trkpt>
      <trkpt lat="37.067823" lon="-5.867043">
        <ele>59.960307</ele>
        <time>2020-08-16T08:20:57.786Z</time>
      </trkpt>
      <trkpt lat="37.067732" lon="-5.867098">
        <ele>59.952224</ele>
        <time>2020-08-16T08:20:59.791Z</time>
      </trkpt>
      <trkpt lat="37.067646" lon="-5.867144">
        <ele>59.944743</ele>
        <time>2020-08-16T08:21:03.774Z</time>
      </trkpt>
      <trkpt lat="37.067548" lon="-5.867257">
        <ele>59.934088</ele>
        <time>2020-08-16T08:21:05.785Z</time>
      </trkpt>
      <trkpt lat="37.067453" lon="-5.867319">
        <ele>59.925518</ele>
        <time>2020-08-16T08:21:06.775Z</time>
      </trkpt>
      <trkpt lat="37.067372" lon="-5.867370">
        <ele>59.918265</ele>
        <time>2020-08-16T08:21:07.778Z</time>
      </trkpt>
      <trkpt lat="37.067322" lon="-5.867471">
        <ele>59.910677</ele>
        <time>2020-08-16T08:21:09.763Z</time>
      </trkpt>
      <trkpt lat="37.067245" lon="-5.867539">
        <ele>59.903140</ele>
        <time>2020-08-16T08:21:12.766Z</time>
      </trkpt>
      <trkpt lat="37.066948" lon="-5.867676">
        <ele>59.877819</ele>
        <time>2020-08-16T08:21:20.831Z</time>
      </trkpt>
      <trkpt lat="37.066868" lon="-5.867770">
        <ele>59.869045</ele>
        <time>2020-08-16T08:21:22.773Z</time>
      </trkpt>
      <trkpt lat="37.066761" lon="-5.867799">
        <ele>59.860286</ele>
        <time>2020-08-16T08:21:25.780Z</time>
      </trkpt>
      <trkpt lat="37.066678" lon="-5.867854">
        <ele>59.882090</ele>
        <time>2020-08-16T08:21:27.800Z</time>
      </trkpt>
      <trkpt lat="37.066588" lon="-5.867926">
        <ele>59.907762</ele>
        <time>2020-08-16T08:21:30.792Z</time>
      </trkpt>
      <trkpt lat="37.066328" lon="-5.868011">
        <ele>59.972366</ele>
        <time>2020-08-16T08:21:58.791Z</time>
      </trkpt>
      <trkpt lat="37.066207" lon="-5.868065">
        <ele>60.003248</ele>
        <time>2020-08-16T08:22:01.767Z</time>
      </trkpt>
      <trkpt lat="37.066120" lon="-5.868133">
        <ele>60.027900</ele>
        <time>2020-08-16T08:22:03.775Z</time>
      </trkpt>
      <trkpt lat="37.066043" lon="-5.868203">
        <ele>60.050771</ele>
        <time>2020-08-16T08:22:07.774Z</time>
      </trkpt>
      <trkpt lat="37.065857" lon="-5.868344">
        <ele>60.103036</ele>
        <time>2020-08-16T08:22:09.776Z</time>
      </trkpt>
      <trkpt lat="37.065769" lon="-5.868388">
        <ele>60.125816</ele>
        <time>2020-08-16T08:22:11.760Z</time>
      </trkpt>
      <trkpt lat="37.065665" lon="-5.868440">
        <ele>60.152738</ele>
        <time>2020-08-16T08:22:13.774Z</time>
      </trkpt>
      <trkpt lat="37.065543" lon="-5.868491">
        <ele>60.183659</ele>
        <time>2020-08-16T08:22:15.782Z</time>
      </trkpt>
      <trkpt lat="37.065422" lon="-5.868586">
        <ele>60.217989</ele>
        <time>2020-08-16T08:22:17.789Z</time>
      </trkpt>
      <trkpt lat="37.065310" lon="-5.868627">
        <ele>60.246043</ele>
        <time>2020-08-16T08:22:20.778Z</time>
      </trkpt>
      <trkpt lat="37.065230" lon="-5.868692">
        <ele>60.268966</ele>
        <time>2020-08-16T08:22:22.776Z</time>
      </trkpt>
      <trkpt lat="37.065143" lon="-5.868748">
        <ele>60.292481</ele>
        <time>2020-08-16T08:22:24.780Z</time>
      </trkpt>
      <trkpt lat="37.065021" lon="-5.868834">
        <ele>60.298054</ele>
        <time>2020-08-16T08:22:27.785Z</time>
      </trkpt>
      <trkpt lat="37.064942" lon="-5.868892">
        <ele>60.301664</ele>
        <time>2020-08-16T08:22:31.809Z</time>
      </trkpt>
      <trkpt lat="37.064824" lon="-5.868993">
        <ele>60.307300</ele>
        <time>2020-08-16T08:22:34.800Z</time>
      </trkpt>
      <trkpt lat="37.064732" lon="-5.869047">
        <ele>60.311306</ele>
        <time>2020-08-16T08:22:35.783Z</time>
      </trkpt>
      <trkpt lat="37.064622" lon="-5.869088">
        <ele>60.315831</ele>
        <time>2020-08-16T08:22:36.781Z</time>
      </trkpt>
      <trkpt lat="37.064457" lon="-5.869189">
        <ele>60.323073</ele>
        <time>2020-08-16T08:22:38.770Z</time>
      </trkpt>
      <trkpt lat="37.064364" lon="-5.869245">
        <ele>60.327142</ele>
        <time>2020-08-16T08:22:41.802Z</time>
      </trkpt>
      <trkpt lat="37.064163" lon="-5.869385">
        <ele>60.336210</ele>
        <time>2020-08-16T08:22:45.777Z</time>
      </trkpt>
      <trkpt lat="37.064042" lon="-5.869450">
        <ele>60.341402</ele>
        <time>2020-08-16T08:22:47.781Z</time>
      </trkpt>
      <trkpt lat="37.063938" lon="-5.869498">
        <ele>60.345773</ele>
        <time>2020-08-16T08:22:49.763Z</time>
      </trkpt>
      <trkpt lat="37.063855" lon="-5.869546">
        <ele>60.349377</ele>
        <time>2020-08-16T08:22:51.776Z</time>
      </trkpt>
      <trkpt lat="37.063770" lon="-5.869585">
        <ele>60.352947</ele>
        <time>2020-08-16T08:22:56.760Z</time>
      </trkpt>
      <trkpt lat="37.063608" lon="-5.869625">
        <ele>60.359458</ele>
        <time>2020-08-16T08:22:58.756Z</time>
      </trkpt>
      <trkpt lat="37.063478" lon="-5.869729">
        <ele>60.391048</ele>
        <time>2020-08-16T08:23:00.778Z</time>
      </trkpt>
      <trkpt lat="37.063384" lon="-5.869812">
        <ele>60.451559</ele>
        <time>2020-08-16T08:23:02.764Z</time>
      </trkpt>
      <trkpt lat="37.063290" lon="-5.869878">
        <ele>60.508259</ele>
        <time>2020-08-16T08:23:04.781Z</time>
      </trkpt>
      <trkpt lat="37.063183" lon="-5.869939">
        <ele>60.570118</ele>
        <time>2020-08-16T08:23:06.782Z</time>
      </trkpt>
      <trkpt lat="37.063102" lon="-5.870021">
        <ele>60.624913</ele>
        <time>2020-08-16T08:23:11.792Z</time>
      </trkpt>
      <trkpt lat="37.062858" lon="-5.870189">
        <ele>60.771416</ele>
        <time>2020-08-16T08:23:12.788Z</time>
      </trkpt>
      <trkpt lat="37.062749" lon="-5.870246">
        <ele>60.833569</ele>
        <time>2020-08-16T08:23:15.771Z</time>
      </trkpt>
      <trkpt lat="37.062645" lon="-5.870246">
        <ele>60.888296</ele>
        <time>2020-08-16T08:23:16.773Z</time>
      </trkpt>
      <trkpt lat="37.062550" lon="-5.870279">
        <ele>60.940173</ele>
        <time>2020-08-16T08:23:22.794Z</time>
      </trkpt>
      <trkpt lat="37.062413" lon="-5.870370">
        <ele>61.021767</ele>
        <time>2020-08-16T08:23:25.768Z</time>
      </trkpt>
      <trkpt lat="37.062295" lon="-5.870451">
        <ele>61.092568</ele>
        <time>2020-08-16T08:23:27.806Z</time>
      </trkpt>
      <trkpt lat="37.062182" lon="-5.870543">
        <ele>61.163479</ele>
        <time>2020-08-16T08:23:28.807Z</time>
      </trkpt>
      <trkpt lat="37.062100" lon="-5.870624">
        <ele>61.218424</ele>
        <time>2020-08-16T08:23:29.790Z</time>
      </trkpt>
      <trkpt lat="37.061989" lon="-5.870698">
        <ele>61.284586</ele>
        <time>2020-08-16T08:23:31.758Z</time>
      </trkpt>
      <trkpt lat="37.061902" lon="-5.870739">
        <ele>61.268170</ele>
        <time>2020-08-16T08:23:33.787Z</time>
      </trkpt>
      <trkpt lat="37.061814" lon="-5.870808">
        <ele>61.171119</ele>
        <time>2020-08-16T08:23:37.776Z</time>
      </trkpt>
      <trkpt lat="37.061710" lon="-5.870877">
        <ele>61.061101</ele>
        <time>2020-08-16T08:23:39.798Z</time>
      </trkpt>
      <trkpt lat="37.061567" lon="-5.870913">
        <ele>60.924737</ele>
        <time>2020-08-16T08:23:40.780Z</time>
      </trkpt>
      <trkpt lat="37.061421" lon="-5.870958">
        <ele>60.784170</ele>
        <time>2020-08-16T08:23:42.783Z</time>
      </trkpt>
      <trkpt lat="37.061383" lon="-5.871092">
        <ele>60.678074</ele>
        <time>2020-08-16T08:23:47.766Z</time>
      </trkpt>
      <trkpt lat="37.061129" lon="-5.871262">
        <ele>60.408857</ele>
        <time>2020-08-16T08:23:49.778Z</time>
      </trkpt>
      <trkpt lat="37.061009" lon="-5.871319">
        <ele>60.288878</ele>
        <time>2020-08-16T08:23:51.770Z</time>
      </trkpt>
      <trkpt lat="37.060938" lon="-5.871403">
        <ele>60.197589</ele>
        <time>2020-08-16T08:23:57.786Z</time>
      </trkpt>
      <trkpt lat="37.060600" lon="-5.871494">
        <ele>59.874375</ele>
        <time>2020-08-16T08:24:00.798Z</time>
      </trkpt>
      <trkpt lat="37.060503" lon="-5.871523">
        <ele>59.781143</ele>
        <time>2020-08-16T08:24:02.752Z</time>
      </trkpt>
      <trkpt lat="37.060414" lon="-5.871566">
        <ele>59.691965</ele>
        <time>2020-08-16T08:24:03.782Z</time>
      </trkpt>
      <trkpt lat="37.060322" lon="-5.871668">
        <ele>59.664434</ele>
        <time>2020-08-16T08:24:05.787Z</time>
      </trkpt>
      <trkpt lat="37.060234" lon="-5.871758">
        <ele>59.739116</ele>
        <time>2020-08-16T08:24:07.779Z</time>
      </trkpt>
      <trkpt lat="37.060159" lon="-5.871822">
        <ele>59.798775</ele>
        <time>2020-08-16T08:24:09.791Z</time>
      </trkpt>
      <trkpt lat="37.060075" lon="-5.871906">
        <ele>59.869433</ele>
        <time>2020-08-16T08:24:14.781Z</time>
      </trkpt>
      <trkpt lat="37.059895" lon="-5.872060">
        <ele>60.012731</ele>
        <time>2020-08-16T08:24:15.786Z</time>
      </trkpt>
      <trkpt lat="37.059790" lon="-5.872055">
        <ele>60.081817</ele>
        <time>2020-08-16T08:24:16.776Z</time>
      </trkpt>
      <trkpt lat="37.059692" lon="-5.872005">
        <ele>60.151386</ele>
        <time>2020-08-16T08:24:17.753Z</time>
      </trkpt>
      <trkpt lat="37.059591" lon="-5.872069">
        <ele>60.225799</ele>
        <time>2020-08-16T08:24:19.752Z</time>
      </trkpt>
      <trkpt lat="37.059525" lon="-5.872193">
        <ele>60.304002</ele>
        <time>2020-08-16T08:24:22.784Z</time>
      </trkpt>
      <trkpt lat="37.059408" lon="-5.872281">
        <ele>60.393720</ele>
        <time>2020-08-16T08:24:25.789Z</time>
      </trkpt>
      <trkpt lat="37.059324" lon="-5.872331">
        <ele>60.454863</ele>
        <time>2020-08-16T08:24:27.779Z</time>
      </trkpt>
      <trkpt lat="37.059206" lon="-5.872395">
        <ele>60.539401</ele>
        <time>2020-08-16T08:24:29.780Z</time>
      </trkpt>
      <trkpt lat="37.059095" lon="-5.872458">
        <ele>60.619518</ele>
        <time>2020-08-16T08:24:31.777Z</time>
      </trkpt>
      <trkpt lat="37.058993" lon="-5.872535">
        <ele>60.697810</ele>
        <time>2020-08-16T08:24:33.767Z</time>
      </trkpt>
      <trkpt lat="37.058875" lon="-5.872605">
        <ele>60.783647</ele>
        <time>2020-08-16T08:24:35.785Z</time>
      </trkpt>
      <trkpt lat="37.058780" lon="-5.872652">
        <ele>60.695397</ele>
        <time>2020-08-16T08:24:37.773Z</time>
      </trkpt>
      <trkpt lat="37.058689" lon="-5.872703">
        <ele>60.505291</ele>
        <time>2020-08-16T08:24:39.788Z</time>
      </trkpt>
      <trkpt lat="37.058594" lon="-5.872758">
        <ele>60.305721</ele>
        <time>2020-08-16T08:24:41.768Z</time>
      </trkpt>
      <trkpt lat="37.058504" lon="-5.872817">
        <ele>60.112020</ele>
        <time>2020-08-16T08:24:43.783Z</time>
      </trkpt>
      <trkpt lat="37.058413" lon="-5.872876">
        <ele>59.916627</ele>
        <time>2020-08-16T08:24:45.790Z</time>
      </trkpt>
      <trkpt lat="37.058320" lon="-5.872949">
        <ele>59.707350</ele>
        <time>2020-08-16T08:24:47.787Z</time>
      </trkpt>
      <trkpt lat="37.058218" lon="-5.872997">
        <ele>59.499567</ele>
        <time>2020-08-16T08:24:49.782Z</time>
      </trkpt>
      <trkpt lat="37.058123" lon="-5.873070">
        <ele>59.287048</ele>
        <time>2020-08-16T08:24:51.780Z</time>
      </trkpt>
      <trkpt lat="37.058002" lon="-5.873138">
        <ele>59.034153</ele>
        <time>2020-08-16T08:24:53.784Z</time>
      </trkpt>
      <trkpt lat="37.057898" lon="-5.873152">
        <ele>58.834680</ele>
        <time>2020-08-16T08:24:54.765Z</time>
      </trkpt>
      <trkpt lat="37.057795" lon="-5.873177">
        <ele>58.634604</ele>
        <time>2020-08-16T08:24:56.784Z</time>
      </trkpt>
      <trkpt lat="37.057747" lon="-5.873283">
        <ele>58.449124</ele>
        <time>2020-08-16T08:24:58.783Z</time>
      </trkpt>
      <trkpt lat="37.057655" lon="-5.873301">
        <ele>58.271551</ele>
        <time>2020-08-16T08:25:02.803Z</time>
      </trkpt>
      <trkpt lat="37.057435" lon="-5.873407">
        <ele>57.822057</ele>
        <time>2020-08-16T08:25:06.789Z</time>
      </trkpt>
      <trkpt lat="37.057310" lon="-5.873487">
        <ele>57.554385</ele>
        <time>2020-08-16T08:25:08.761Z</time>
      </trkpt>
      <trkpt lat="37.057194" lon="-5.873546">
        <ele>57.449510</ele>
        <time>2020-08-16T08:25:10.779Z</time>
      </trkpt>
      <trkpt lat="37.057103" lon="-5.873588">
        <ele>57.644086</ele>
        <time>2020-08-16T08:25:12.787Z</time>
      </trkpt>
      <trkpt lat="37.056966" lon="-5.873690">
        <ele>57.963825</ele>
        <time>2020-08-16T08:25:15.789Z</time>
      </trkpt>
      <trkpt lat="37.056881" lon="-5.873776">
        <ele>58.183024</ele>
        <time>2020-08-16T08:25:17.792Z</time>
      </trkpt>
      <trkpt lat="37.056756" lon="-5.873847">
        <ele>58.458391</ele>
        <time>2020-08-16T08:25:20.791Z</time>
      </trkpt>
      <trkpt lat="37.056640" lon="-5.873898">
        <ele>58.705046</ele>
        <time>2020-08-16T08:25:22.776Z</time>
      </trkpt>
      <trkpt lat="37.056557" lon="-5.873943">
        <ele>58.886499</ele>
        <time>2020-08-16T08:25:24.794Z</time>
      </trkpt>
      <trkpt lat="37.056490" lon="-5.874104">
        <ele>59.177239</ele>
        <time>2020-08-16T08:25:25.767Z</time>
      </trkpt>
      <trkpt lat="37.056398" lon="-5.874132">
        <ele>59.367197</ele>
        <time>2020-08-16T08:25:28.784Z</time>
      </trkpt>
      <trkpt lat="37.056305" lon="-5.874102">
        <ele>59.559879</ele>
        <time>2020-08-16T08:25:29.788Z</time>
      </trkpt>
      <trkpt lat="37.056222" lon="-5.874184">
        <ele>59.771947</ele>
        <time>2020-08-16T08:25:34.788Z</time>
      </trkpt>
      <trkpt lat="37.056027" lon="-5.874406">
        <ele>60.300566</ele>
        <time>2020-08-16T08:25:36.779Z</time>
      </trkpt>
      <trkpt lat="37.055949" lon="-5.874476">
        <ele>60.493065</ele>
        <time>2020-08-16T08:25:38.777Z</time>
      </trkpt>
      <trkpt lat="37.055831" lon="-5.874550">
        <ele>60.757819</ele>
        <time>2020-08-16T08:25:41.779Z</time>
      </trkpt>
      <trkpt lat="37.055741" lon="-5.874582">
        <ele>60.945526</ele>
        <time>2020-08-16T08:25:45.800Z</time>
      </trkpt>
      <trkpt lat="37.055508" lon="-5.874640">
        <ele>60.586555</ele>
        <time>2020-08-16T08:25:47.780Z</time>
      </trkpt>
      <trkpt lat="37.055382" lon="-5.874704">
        <ele>60.332233</ele>
        <time>2020-08-16T08:25:50.773Z</time>
      </trkpt>
      <trkpt lat="37.055239" lon="-5.874727">
        <ele>60.062544</ele>
        <time>2020-08-16T08:25:53.784Z</time>
      </trkpt>
      <trkpt lat="37.055135" lon="-5.874768">
        <ele>59.858601</ele>
        <time>2020-08-16T08:25:57.777Z</time>
      </trkpt>
      <trkpt lat="37.055032" lon="-5.874793">
        <ele>59.662349</ele>
        <time>2020-08-16T08:25:59.782Z</time>
      </trkpt>
      <trkpt lat="37.054922" lon="-5.874817">
        <ele>59.453488</ele>
        <time>2020-08-16T08:26:01.782Z</time>
      </trkpt>
      <trkpt lat="37.054804" lon="-5.874835">
        <ele>59.231128</ele>
        <time>2020-08-16T08:26:03.783Z</time>
      </trkpt>
      <trkpt lat="37.054674" lon="-5.874860">
        <ele>58.985104</ele>
        <time>2020-08-16T08:26:05.796Z</time>
      </trkpt>
      <trkpt lat="37.054540" lon="-5.874874">
        <ele>58.733575</ele>
        <time>2020-08-16T08:26:07.784Z</time>
      </trkpt>
      <trkpt lat="37.054424" lon="-5.874874">
        <ele>58.516586</ele>
        <time>2020-08-16T08:26:09.794Z</time>
      </trkpt>
      <trkpt lat="37.054309" lon="-5.874869">
        <ele>58.301339</ele>
        <time>2020-08-16T08:26:11.791Z</time>
      </trkpt>
      <trkpt lat="37.054195" lon="-5.874860">
        <ele>58.087669</ele>
        <time>2020-08-16T08:26:13.789Z</time>
      </trkpt>
      <trkpt lat="37.054093" lon="-5.874847">
        <ele>57.895884</ele>
        <time>2020-08-16T08:26:15.785Z</time>
      </trkpt>
      <trkpt lat="37.053992" lon="-5.874826">
        <ele>57.704371</ele>
        <time>2020-08-16T08:26:17.796Z</time>
      </trkpt>
      <trkpt lat="37.053896" lon="-5.874792">
        <ele>57.659831</ele>
        <time>2020-08-16T08:26:19.772Z</time>
      </trkpt>
      <trkpt lat="37.053775" lon="-5.874770">
        <ele>57.733572</ele>
        <time>2020-08-16T08:26:22.782Z</time>
      </trkpt>
      <trkpt lat="37.053683" lon="-5.874755">
        <ele>57.789527</ele>
        <time>2020-08-16T08:26:24.790Z</time>
      </trkpt>
      <trkpt lat="37.053587" lon="-5.874749">
        <ele>57.847498</ele>
        <time>2020-08-16T08:26:26.785Z</time>
      </trkpt>
      <trkpt lat="37.053453" lon="-5.874744">
        <ele>57.928351</ele>
        <time>2020-08-16T08:26:29.779Z</time>
      </trkpt>
      <trkpt lat="37.053352" lon="-5.874730">
        <ele>57.989637</ele>
        <time>2020-08-16T08:26:31.790Z</time>
      </trkpt>
      <trkpt lat="37.053242" lon="-5.874710">
        <ele>58.056675</ele>
        <time>2020-08-16T08:26:33.792Z</time>
      </trkpt>
      <trkpt lat="37.053143" lon="-5.874695">
        <ele>58.116818</ele>
        <time>2020-08-16T08:26:35.798Z</time>
      </trkpt>
      <trkpt lat="37.053045" lon="-5.874679">
        <ele>58.176423</ele>
        <time>2020-08-16T08:26:37.781Z</time>
      </trkpt>
      <trkpt lat="37.052955" lon="-5.874660">
        <ele>58.231469</ele>
        <time>2020-08-16T08:26:39.783Z</time>
      </trkpt>
      <trkpt lat="37.052852" lon="-5.874634">
        <ele>58.294838</ele>
        <time>2020-08-16T08:26:41.783Z</time>
      </trkpt>
      <trkpt lat="37.052750" lon="-5.874608">
        <ele>58.357615</ele>
        <time>2020-08-16T08:26:43.798Z</time>
      </trkpt>
      <trkpt lat="37.052644" lon="-5.874601">
        <ele>58.421634</ele>
        <time>2020-08-16T08:26:45.776Z</time>
      </trkpt>
      <trkpt lat="37.052464" lon="-5.874593">
        <ele>58.530263</ele>
        <time>2020-08-16T08:26:48.759Z</time>
      </trkpt>
      <trkpt lat="37.052355" lon="-5.874547">
        <ele>58.599632</ele>
        <time>2020-08-16T08:26:50.758Z</time>
      </trkpt>
      <trkpt lat="37.052248" lon="-5.874535">
        <ele>58.664423</ele>
        <time>2020-08-16T08:26:52.785Z</time>
      </trkpt>
      <trkpt lat="37.052147" lon="-5.874524">
        <ele>58.731748</ele>
        <time>2020-08-16T08:26:54.782Z</time>
      </trkpt>
      <trkpt lat="37.052054" lon="-5.874481">
        <ele>58.815246</ele>
        <time>2020-08-16T08:26:56.781Z</time>
      </trkpt>
      <trkpt lat="37.051954" lon="-5.874434">
        <ele>58.905207</ele>
        <time>2020-08-16T08:26:58.774Z</time>
      </trkpt>
      <trkpt lat="37.051817" lon="-5.874424">
        <ele>59.020799</ele>
        <time>2020-08-16T08:27:01.793Z</time>
      </trkpt>
      <trkpt lat="37.051715" lon="-5.874378">
        <ele>59.112109</ele>
        <time>2020-08-16T08:27:03.781Z</time>
      </trkpt>
      <trkpt lat="37.051603" lon="-5.874370">
        <ele>59.206601</ele>
        <time>2020-08-16T08:27:05.771Z</time>
      </trkpt>
      <trkpt lat="37.051504" lon="-5.874310">
        <ele>59.299231</ele>
        <time>2020-08-16T08:27:07.789Z</time>
      </trkpt>
      <trkpt lat="37.051406" lon="-5.874289">
        <ele>59.382976</ele>
        <time>2020-08-16T08:27:09.792Z</time>
      </trkpt>
      <trkpt lat="37.051294" lon="-5.874263">
        <ele>59.478919</ele>
        <time>2020-08-16T08:27:12.792Z</time>
      </trkpt>
      <trkpt lat="37.051182" lon="-5.874238">
        <ele>59.574743</ele>
        <time>2020-08-16T08:27:15.787Z</time>
      </trkpt>
      <trkpt lat="37.051042" lon="-5.874213">
        <ele>59.693857</ele>
        <time>2020-08-16T08:27:18.787Z</time>
      </trkpt>
      <trkpt lat="37.050924" lon="-5.874173">
        <ele>59.796823</ele>
        <time>2020-08-16T08:27:20.782Z</time>
      </trkpt>
      <trkpt lat="37.050805" lon="-5.874120">
        <ele>59.903201</ele>
        <time>2020-08-16T08:27:21.774Z</time>
      </trkpt>
      <trkpt lat="37.050709" lon="-5.874037">
        <ele>60.001444</ele>
        <time>2020-08-16T08:27:23.779Z</time>
      </trkpt>
      <trkpt lat="37.050596" lon="-5.873994">
        <ele>60.100918</ele>
        <time>2020-08-16T08:27:25.781Z</time>
      </trkpt>
      <trkpt lat="37.050483" lon="-5.873942">
        <ele>60.202314</ele>
        <time>2020-08-16T08:27:27.789Z</time>
      </trkpt>
      <trkpt lat="37.050377" lon="-5.873882">
        <ele>60.084323</ele>
        <time>2020-08-16T08:27:29.758Z</time>
      </trkpt>
      <trkpt lat="37.050262" lon="-5.873859">
        <ele>59.901076</ele>
        <time>2020-08-16T08:27:31.759Z</time>
      </trkpt>
      <trkpt lat="37.050164" lon="-5.873817">
        <ele>59.738099</ele>
        <time>2020-08-16T08:27:33.788Z</time>
      </trkpt>
      <trkpt lat="37.050069" lon="-5.873762">
        <ele>59.573427</ele>
        <time>2020-08-16T08:27:35.771Z</time>
      </trkpt>
      <trkpt lat="37.049971" lon="-5.873748">
        <ele>59.418221</ele>
        <time>2020-08-16T08:27:37.800Z</time>
      </trkpt>
      <trkpt lat="37.049869" lon="-5.873708">
        <ele>59.250043</ele>
        <time>2020-08-16T08:27:39.775Z</time>
      </trkpt>
      <trkpt lat="37.049426" lon="-5.873660">
        <ele>58.550367</ele>
        <time>2020-08-16T08:27:49.847Z</time>
      </trkpt>
      <trkpt lat="37.049266" lon="-5.873544">
        <ele>58.259491</ele>
        <time>2020-08-16T08:27:51.795Z</time>
      </trkpt>
      <trkpt lat="37.049159" lon="-5.873579">
        <ele>58.085480</ele>
        <time>2020-08-16T08:27:53.760Z</time>
      </trkpt>
      <trkpt lat="37.049057" lon="-5.873544">
        <ele>57.919070</ele>
        <time>2020-08-16T08:27:55.767Z</time>
      </trkpt>
      <trkpt lat="37.048962" lon="-5.873523">
        <ele>57.767275</ele>
        <time>2020-08-16T08:27:57.787Z</time>
      </trkpt>
      <trkpt lat="37.048706" lon="-5.873418">
        <ele>57.404275</ele>
        <time>2020-08-16T08:28:02.805Z</time>
      </trkpt>
      <trkpt lat="37.048553" lon="-5.873404">
        <ele>57.448987</ele>
        <time>2020-08-16T08:28:05.788Z</time>
      </trkpt>
      <trkpt lat="37.048470" lon="-5.873356">
        <ele>57.475630</ele>
        <time>2020-08-16T08:28:09.789Z</time>
      </trkpt>
      <trkpt lat="37.048185" lon="-5.873244">
        <ele>57.562686</ele>
        <time>2020-08-16T08:28:11.788Z</time>
      </trkpt>
      <trkpt lat="37.048060" lon="-5.873231">
        <ele>57.599243</ele>
        <time>2020-08-16T08:28:15.754Z</time>
      </trkpt>
      <trkpt lat="37.047933" lon="-5.873196">
        <ele>57.637143</ele>
        <time>2020-08-16T08:28:18.787Z</time>
      </trkpt>
      <trkpt lat="37.047826" lon="-5.873167">
        <ele>57.669050</ele>
        <time>2020-08-16T08:28:21.780Z</time>
      </trkpt>
      <trkpt lat="37.047695" lon="-5.873119">
        <ele>57.708830</ele>
        <time>2020-08-16T08:28:24.780Z</time>
      </trkpt>
      <trkpt lat="37.047557" lon="-5.873091">
        <ele>57.749575</ele>
        <time>2020-08-16T08:28:26.759Z</time>
      </trkpt>
      <trkpt lat="37.047468" lon="-5.873046">
        <ele>57.777547</ele>
        <time>2020-08-16T08:28:28.786Z</time>
      </trkpt>
      <trkpt lat="37.047333" lon="-5.873023">
        <ele>57.817256</ele>
        <time>2020-08-16T08:28:31.777Z</time>
      </trkpt>
      <trkpt lat="37.047232" lon="-5.873019">
        <ele>57.846707</ele>
        <time>2020-08-16T08:28:34.809Z</time>
      </trkpt>
      <trkpt lat="37.047142" lon="-5.872990">
        <ele>57.873792</ele>
        <time>2020-08-16T08:28:36.779Z</time>
      </trkpt>
      <trkpt lat="37.047035" lon="-5.872955">
        <ele>57.906023</ele>
        <time>2020-08-16T08:28:37.798Z</time>
      </trkpt>
      <trkpt lat="37.046927" lon="-5.872937">
        <ele>57.929532</ele>
        <time>2020-08-16T08:28:39.778Z</time>
      </trkpt>
      <trkpt lat="37.046829" lon="-5.872951">
        <ele>57.945663</ele>
        <time>2020-08-16T08:28:41.767Z</time>
      </trkpt>
      <trkpt lat="37.046669" lon="-5.872901">
        <ele>57.972632</ele>
        <time>2020-08-16T08:28:44.758Z</time>
      </trkpt>
      <trkpt lat="37.046569" lon="-5.872837">
        <ele>57.990996</ele>
        <time>2020-08-16T08:28:46.804Z</time>
      </trkpt>
      <trkpt lat="37.046447" lon="-5.872818">
        <ele>58.011101</ele>
        <time>2020-08-16T08:28:49.771Z</time>
      </trkpt>
      <trkpt lat="37.046349" lon="-5.872801">
        <ele>58.027281</ele>
        <time>2020-08-16T08:28:52.807Z</time>
      </trkpt>
      <trkpt lat="37.046170" lon="-5.872769">
        <ele>58.056852</ele>
        <time>2020-08-16T08:28:55.757Z</time>
      </trkpt>
      <trkpt lat="37.046061" lon="-5.872735">
        <ele>58.075222</ele>
        <time>2020-08-16T08:28:57.775Z</time>
      </trkpt>
      <trkpt lat="37.045950" lon="-5.872703">
        <ele>58.093849</ele>
        <time>2020-08-16T08:28:59.754Z</time>
      </trkpt>
      <trkpt lat="37.045858" lon="-5.872659">
        <ele>58.109954</ele>
        <time>2020-08-16T08:29:01.768Z</time>
      </trkpt>
      <trkpt lat="37.045742" lon="-5.872598">
        <ele>58.130528</ele>
        <time>2020-08-16T08:29:03.788Z</time>
      </trkpt>
      <trkpt lat="37.045621" lon="-5.872578">
        <ele>58.150488</ele>
        <time>2020-08-16T08:29:05.758Z</time>
      </trkpt>
      <trkpt lat="37.045507" lon="-5.872544">
        <ele>58.169653</ele>
        <time>2020-08-16T08:29:07.775Z</time>
      </trkpt>
      <trkpt lat="37.045406" lon="-5.872497">
        <ele>58.187273</ele>
        <time>2020-08-16T08:29:09.786Z</time>
      </trkpt>
      <trkpt lat="37.045303" lon="-5.872444">
        <ele>58.205483</ele>
        <time>2020-08-16T08:29:11.757Z</time>
      </trkpt>
      <trkpt lat="37.045191" lon="-5.872391">
        <ele>58.049403</ele>
        <time>2020-08-16T08:29:13.766Z</time>
      </trkpt>
      <trkpt lat="37.045072" lon="-5.872374">
        <ele>57.780326</ele>
        <time>2020-08-16T08:29:15.775Z</time>
      </trkpt>
      <trkpt lat="37.044964" lon="-5.872382">
        <ele>57.537271</ele>
        <time>2020-08-16T08:29:17.776Z</time>
      </trkpt>
      <trkpt lat="37.044833" lon="-5.872353">
        <ele>57.238408</ele>
        <time>2020-08-16T08:29:20.802Z</time>
      </trkpt>
      <trkpt lat="37.044717" lon="-5.872316">
        <ele>56.969490</ele>
        <time>2020-08-16T08:29:22.786Z</time>
      </trkpt>
      <trkpt lat="37.044579" lon="-5.872289">
        <ele>56.655703</ele>
        <time>2020-08-16T08:29:25.767Z</time>
      </trkpt>
      <trkpt lat="37.044491" lon="-5.872233">
        <ele>56.433963</ele>
        <time>2020-08-16T08:29:27.783Z</time>
      </trkpt>
      <trkpt lat="37.044394" lon="-5.872199">
        <ele>56.207675</ele>
        <time>2020-08-16T08:29:30.787Z</time>
      </trkpt>
      <trkpt lat="37.044272" lon="-5.872170">
        <ele>55.928702</ele>
        <time>2020-08-16T08:29:32.769Z</time>
      </trkpt>
      <trkpt lat="37.044174" lon="-5.872115">
        <ele>55.687455</ele>
        <time>2020-08-16T08:29:34.800Z</time>
      </trkpt>
      <trkpt lat="37.044084" lon="-5.872084">
        <ele>55.477760</ele>
        <time>2020-08-16T08:29:37.790Z</time>
      </trkpt>
      <trkpt lat="37.043928" lon="-5.872066">
        <ele>55.125808</ele>
        <time>2020-08-16T08:29:40.805Z</time>
      </trkpt>
      <trkpt lat="37.043763" lon="-5.871993">
        <ele>54.732686</ele>
        <time>2020-08-16T08:29:41.785Z</time>
      </trkpt>
      <trkpt lat="37.043650" lon="-5.871975">
        <ele>54.476778</ele>
        <time>2020-08-16T08:29:43.782Z</time>
      </trkpt>
      <trkpt lat="37.043559" lon="-5.871917">
        <ele>54.247403</ele>
        <time>2020-08-16T08:29:45.765Z</time>
      </trkpt>
      <trkpt lat="37.043458" lon="-5.871853">
        <ele>54.251422</ele>
        <time>2020-08-16T08:29:49.782Z</time>
      </trkpt>
      <trkpt lat="37.043361" lon="-5.871815">
        <ele>54.352202</ele>
        <time>2020-08-16T08:29:52.775Z</time>
      </trkpt>
      <trkpt lat="37.043243" lon="-5.871768">
        <ele>54.474985</ele>
        <time>2020-08-16T08:29:54.780Z</time>
      </trkpt>
      <trkpt lat="37.043141" lon="-5.871759">
        <ele>54.576382</ele>
        <time>2020-08-16T08:29:56.756Z</time>
      </trkpt>
      <trkpt lat="37.043019" lon="-5.871745">
        <ele>54.697867</ele>
        <time>2020-08-16T08:30:00.776Z</time>
      </trkpt>
      <trkpt lat="37.042895" lon="-5.871725">
        <ele>54.821843</ele>
        <time>2020-08-16T08:30:03.777Z</time>
      </trkpt>
      <trkpt lat="37.042782" lon="-5.871717">
        <ele>54.934076</ele>
        <time>2020-08-16T08:30:05.783Z</time>
      </trkpt>
      <trkpt lat="37.042672" lon="-5.871686">
        <ele>55.045881</ele>
        <time>2020-08-16T08:30:07.780Z</time>
      </trkpt>
      <trkpt lat="37.042570" lon="-5.871634">
        <ele>55.155080</ele>
        <time>2020-08-16T08:30:09.794Z</time>
      </trkpt>
      <trkpt lat="37.042467" lon="-5.871559">
        <ele>55.273216</ele>
        <time>2020-08-16T08:30:11.760Z</time>
      </trkpt>
      <trkpt lat="37.042369" lon="-5.871532">
        <ele>55.372718</ele>
        <time>2020-08-16T08:30:13.773Z</time>
      </trkpt>
      <trkpt lat="37.042276" lon="-5.871483">
        <ele>55.472763</ele>
        <time>2020-08-16T08:30:15.788Z</time>
      </trkpt>
      <trkpt lat="37.042177" lon="-5.871450">
        <ele>55.574349</ele>
        <time>2020-08-16T08:30:17.787Z</time>
      </trkpt>
      <trkpt lat="37.042058" lon="-5.871403">
        <ele>55.698078</ele>
        <time>2020-08-16T08:30:19.778Z</time>
      </trkpt>
      <trkpt lat="37.041965" lon="-5.871345">
        <ele>55.801094</ele>
        <time>2020-08-16T08:30:21.786Z</time>
      </trkpt>
      <trkpt lat="37.041857" lon="-5.871326">
        <ele>55.909240</ele>
        <time>2020-08-16T08:30:23.797Z</time>
      </trkpt>
      <trkpt lat="37.041737" lon="-5.871291">
        <ele>56.137447</ele>
        <time>2020-08-16T08:30:25.764Z</time>
      </trkpt>
      <trkpt lat="37.041637" lon="-5.871250">
        <ele>56.388296</ele>
        <time>2020-08-16T08:30:27.780Z</time>
      </trkpt>
      <trkpt lat="37.041539" lon="-5.871228">
        <ele>56.625657</ele>
        <time>2020-08-16T08:30:29.797Z</time>
      </trkpt>
      <trkpt lat="37.041435" lon="-5.871207">
        <ele>56.876800</ele>
        <time>2020-08-16T08:30:31.769Z</time>
      </trkpt>
      <trkpt lat="37.041338" lon="-5.871183">
        <ele>57.112522</ele>
        <time>2020-08-16T08:30:33.769Z</time>
      </trkpt>
      <trkpt lat="37.041242" lon="-5.871179">
        <ele>57.341520</ele>
        <time>2020-08-16T08:30:35.761Z</time>
      </trkpt>
      <trkpt lat="37.041113" lon="-5.871167">
        <ele>57.649912</ele>
        <time>2020-08-16T08:30:38.786Z</time>
      </trkpt>
      <trkpt lat="37.040984" lon="-5.871140">
        <ele>57.961720</ele>
        <time>2020-08-16T08:30:40.794Z</time>
      </trkpt>
      <trkpt lat="37.040876" lon="-5.871122">
        <ele>58.221468</ele>
        <time>2020-08-16T08:30:42.783Z</time>
      </trkpt>
      <trkpt lat="37.040752" lon="-5.871102">
        <ele>58.519533</ele>
        <time>2020-08-16T08:30:45.794Z</time>
      </trkpt>
      <trkpt lat="37.040622" lon="-5.871050">
        <ele>58.844877</ele>
        <time>2020-08-16T08:30:47.778Z</time>
      </trkpt>
      <trkpt lat="37.040508" lon="-5.871047">
        <ele>59.116721</ele>
        <time>2020-08-16T08:30:50.771Z</time>
      </trkpt>
      <trkpt lat="37.040417" lon="-5.871016">
        <ele>59.341550</ele>
        <time>2020-08-16T08:30:52.764Z</time>
      </trkpt>
      <trkpt lat="37.040330" lon="-5.870985">
        <ele>59.557190</ele>
        <time>2020-08-16T08:30:55.778Z</time>
      </trkpt>
      <trkpt lat="37.040224" lon="-5.870948">
        <ele>59.819528</ele>
        <time>2020-08-16T08:30:57.776Z</time>
      </trkpt>
      <trkpt lat="37.040102" lon="-5.870911">
        <ele>60.118786</ele>
        <time>2020-08-16T08:30:59.797Z</time>
      </trkpt>
      <trkpt lat="37.040006" lon="-5.870893">
        <ele>60.229366</ele>
        <time>2020-08-16T08:31:01.777Z</time>
      </trkpt>
      <trkpt lat="37.039866" lon="-5.870876">
        <ele>60.183136</ele>
        <time>2020-08-16T08:31:04.779Z</time>
      </trkpt>
      <trkpt lat="37.039764" lon="-5.870851">
        <ele>60.148976</ele>
        <time>2020-08-16T08:31:06.791Z</time>
      </trkpt>
      <trkpt lat="37.039664" lon="-5.870820">
        <ele>60.115118</ele>
        <time>2020-08-16T08:31:08.781Z</time>
      </trkpt>
      <trkpt lat="37.039560" lon="-5.870793">
        <ele>60.080209</ele>
        <time>2020-08-16T08:31:10.792Z</time>
      </trkpt>
      <trkpt lat="37.039430" lon="-5.870789">
        <ele>60.037469</ele>
        <time>2020-08-16T08:31:13.765Z</time>
      </trkpt>
      <trkpt lat="37.039320" lon="-5.870751">
        <ele>59.999966</ele>
        <time>2020-08-16T08:31:15.763Z</time>
      </trkpt>
      <trkpt lat="37.039233" lon="-5.870712">
        <ele>59.969596</ele>
        <time>2020-08-16T08:31:17.794Z</time>
      </trkpt>
      <trkpt lat="37.039080" lon="-5.870679">
        <ele>59.918569</ele>
        <time>2020-08-16T08:31:20.772Z</time>
      </trkpt>
      <trkpt lat="37.038900" lon="-5.870686">
        <ele>59.859379</ele>
        <time>2020-08-16T08:31:22.784Z</time>
      </trkpt>
      <trkpt lat="37.038766" lon="-5.870645">
        <ele>59.814042</ele>
        <time>2020-08-16T08:31:26.766Z</time>
      </trkpt>
      <trkpt lat="37.038673" lon="-5.870654">
        <ele>59.783385</ele>
        <time>2020-08-16T08:31:30.795Z</time>
      </trkpt>
      <trkpt lat="37.038539" lon="-5.870625">
        <ele>59.738690</ele>
        <time>2020-08-16T08:31:33.781Z</time>
      </trkpt>
      <trkpt lat="37.038374" lon="-5.870615">
        <ele>59.684396</ele>
        <time>2020-08-16T08:31:34.783Z</time>
      </trkpt>
      <trkpt lat="37.038240" lon="-5.870592">
        <ele>59.468929</ele>
        <time>2020-08-16T08:31:37.762Z</time>
      </trkpt>
      <trkpt lat="37.038150" lon="-5.870586">
        <ele>59.046592</ele>
        <time>2020-08-16T08:31:40.783Z</time>
      </trkpt>
      <trkpt lat="37.038038" lon="-5.870593">
        <ele>58.521106</ele>
        <time>2020-08-16T08:31:41.789Z</time>
      </trkpt>
      <trkpt lat="37.037911" lon="-5.870609">
        <ele>57.922981</ele>
        <time>2020-08-16T08:31:44.787Z</time>
      </trkpt>
      <trkpt lat="37.037775" lon="-5.870622">
        <ele>57.283832</ele>
        <time>2020-08-16T08:31:47.786Z</time>
      </trkpt>
      <trkpt lat="37.037684" lon="-5.870631">
        <ele>56.856078</ele>
        <time>2020-08-16T08:31:49.786Z</time>
      </trkpt>
      <trkpt lat="37.037558" lon="-5.870620">
        <ele>56.264209</ele>
        <time>2020-08-16T08:31:51.783Z</time>
      </trkpt>
      <trkpt lat="37.037454" lon="-5.870637">
        <ele>55.772733</ele>
        <time>2020-08-16T08:31:53.786Z</time>
      </trkpt>
      <trkpt lat="37.037360" lon="-5.870616">
        <ele>55.325299</ele>
        <time>2020-08-16T08:31:55.783Z</time>
      </trkpt>
      <trkpt lat="37.037254" lon="-5.870628">
        <ele>54.826558</ele>
        <time>2020-08-16T08:31:58.804Z</time>
      </trkpt>
      <trkpt lat="37.037129" lon="-5.870662">
        <ele>54.227159</ele>
        <time>2020-08-16T08:32:00.795Z</time>
      </trkpt>
      <trkpt lat="37.037010" lon="-5.870666">
        <ele>53.669324</ele>
        <time>2020-08-16T08:32:03.778Z</time>
      </trkpt>
      <trkpt lat="37.036905" lon="-5.870695">
        <ele>53.165477</ele>
        <time>2020-08-16T08:32:05.779Z</time>
      </trkpt>
      <trkpt lat="37.036809" lon="-5.870720">
        <ele>52.706003</ele>
        <time>2020-08-16T08:32:07.810Z</time>
      </trkpt>
      <trkpt lat="37.036692" lon="-5.870751">
        <ele>52.145611</ele>
        <time>2020-08-16T08:32:09.754Z</time>
      </trkpt>
      <trkpt lat="37.036577" lon="-5.870792">
        <ele>51.585322</ele>
        <time>2020-08-16T08:32:11.773Z</time>
      </trkpt>
      <trkpt lat="37.036493" lon="-5.870834">
        <ele>51.234913</ele>
        <time>2020-08-16T08:32:14.779Z</time>
      </trkpt>
      <trkpt lat="37.036215" lon="-5.870910">
        <ele>51.458165</ele>
        <time>2020-08-16T08:32:19.789Z</time>
      </trkpt>
      <trkpt lat="37.036086" lon="-5.870929">
        <ele>51.560076</ele>
        <time>2020-08-16T08:32:22.770Z</time>
      </trkpt>
      <trkpt lat="37.035986" lon="-5.870980">
        <ele>51.644789</ele>
        <time>2020-08-16T08:32:26.803Z</time>
      </trkpt>
      <trkpt lat="37.035805" lon="-5.871065">
        <ele>51.796452</ele>
        <time>2020-08-16T08:32:28.785Z</time>
      </trkpt>
      <trkpt lat="37.035718" lon="-5.871131">
        <ele>51.876253</ele>
        <time>2020-08-16T08:32:30.759Z</time>
      </trkpt>
      <trkpt lat="37.035583" lon="-5.871192">
        <ele>51.988853</ele>
        <time>2020-08-16T08:32:32.792Z</time>
      </trkpt>
      <trkpt lat="37.035473" lon="-5.871188">
        <ele>52.075195</ele>
        <time>2020-08-16T08:32:34.770Z</time>
      </trkpt>
      <trkpt lat="37.035343" lon="-5.871188">
        <ele>52.177193</ele>
        <time>2020-08-16T08:32:37.756Z</time>
      </trkpt>
      <trkpt lat="37.035236" lon="-5.871231">
        <ele>52.265360</ele>
        <time>2020-08-16T08:32:38.764Z</time>
      </trkpt>
      <trkpt lat="37.035309" lon="-5.871299">
        <ele>52.336735</ele>
        <time>2020-08-16T08:32:40.749Z</time>
      </trkpt>
      <trkpt lat="37.035192" lon="-5.871343">
        <ele>52.432580</ele>
        <time>2020-08-16T08:32:41.764Z</time>
      </trkpt>
      <trkpt lat="37.035114" lon="-5.871416">
        <ele>52.508972</ele>
        <time>2020-08-16T08:32:48.781Z</time>
      </trkpt>
      <trkpt lat="37.035047" lon="-5.871493">
        <ele>52.580311</ele>
        <time>2020-08-16T08:32:50.782Z</time>
      </trkpt>
      <trkpt lat="37.034907" lon="-5.871633">
        <ele>52.771309</ele>
        <time>2020-08-16T08:32:51.777Z</time>
      </trkpt>
      <trkpt lat="37.034777" lon="-5.871780">
        <ele>52.990016</ele>
        <time>2020-08-16T08:32:52.782Z</time>
      </trkpt>
      <trkpt lat="37.034619" lon="-5.871773">
        <ele>53.187456</ele>
        <time>2020-08-16T08:32:55.756Z</time>
      </trkpt>
      <trkpt lat="37.034524" lon="-5.871770">
        <ele>53.306133</ele>
        <time>2020-08-16T08:32:57.767Z</time>
      </trkpt>
      <trkpt lat="37.034458" lon="-5.871880">
        <ele>53.443315</ele>
        <time>2020-08-16T08:33:03.794Z</time>
      </trkpt>
      <trkpt lat="37.034425" lon="-5.872025">
        <ele>53.593628</ele>
        <time>2020-08-16T08:33:07.790Z</time>
      </trkpt>
      <trkpt lat="37.034354" lon="-5.872164">
        <ele>53.758139</ele>
        <time>2020-08-16T08:33:08.776Z</time>
      </trkpt>
      <trkpt lat="37.034173" lon="-5.872348">
        <ele>54.049243</ele>
        <time>2020-08-16T08:33:09.783Z</time>
      </trkpt>
      <trkpt lat="37.034206" lon="-5.872498">
        <ele>54.204355</ele>
        <time>2020-08-16T08:33:10.771Z</time>
      </trkpt>
      <trkpt lat="37.034191" lon="-5.872693">
        <ele>54.399655</ele>
        <time>2020-08-16T08:33:13.770Z</time>
      </trkpt>
      <trkpt lat="37.034101" lon="-5.872712">
        <ele>54.513635</ele>
        <time>2020-08-16T08:33:16.788Z</time>
      </trkpt>
      <trkpt lat="37.033840" lon="-5.872652">
        <ele>54.845024</ele>
        <time>2020-08-16T08:33:19.778Z</time>
      </trkpt>
      <trkpt lat="37.033757" lon="-5.872757">
        <ele>54.904586</ele>
        <time>2020-08-16T08:33:23.797Z</time>
      </trkpt>
      <trkpt lat="37.033619" lon="-5.872906">
        <ele>54.951465</ele>
        <time>2020-08-16T08:33:25.774Z</time>
      </trkpt>
      <trkpt lat="37.033517" lon="-5.872969">
        <ele>54.980728</ele>
        <time>2020-08-16T08:33:26.788Z</time>
      </trkpt>
      <trkpt lat="37.033405" lon="-5.873070">
        <ele>55.016239</ele>
        <time>2020-08-16T08:33:29.775Z</time>
      </trkpt>
      <trkpt lat="37.033355" lon="-5.873171">
        <ele>55.040651</ele>
        <time>2020-08-16T08:33:34.776Z</time>
      </trkpt>
      <trkpt lat="37.033209" lon="-5.873392">
        <ele>55.099576</ele>
        <time>2020-08-16T08:33:36.829Z</time>
      </trkpt>
      <trkpt lat="37.033052" lon="-5.873413">
        <ele>55.140204</ele>
        <time>2020-08-16T08:33:38.793Z</time>
      </trkpt>
      <trkpt lat="37.033132" lon="-5.873511">
        <ele>55.168997</ele>
        <time>2020-08-16T08:33:41.789Z</time>
      </trkpt>
      <trkpt lat="37.033053" lon="-5.873615">
        <ele>55.198486</ele>
        <time>2020-08-16T08:33:43.750Z</time>
      </trkpt>
      <trkpt lat="37.032990" lon="-5.873728">
        <ele>55.226798</ele>
        <time>2020-08-16T08:33:45.759Z</time>
      </trkpt>
      <trkpt lat="37.032940" lon="-5.873824">
        <ele>55.250343</ele>
        <time>2020-08-16T08:33:47.772Z</time>
      </trkpt>
      <trkpt lat="37.032706" lon="-5.874106">
        <ele>55.333896</ele>
        <time>2020-08-16T08:33:54.781Z</time>
      </trkpt>
      <trkpt lat="37.032640" lon="-5.874196">
        <ele>55.349859</ele>
        <time>2020-08-16T08:34:00.776Z</time>
      </trkpt>
      <trkpt lat="37.032505" lon="-5.874285">
        <ele>55.364137</ele>
        <time>2020-08-16T08:34:01.763Z</time>
      </trkpt>
      <trkpt lat="37.032436" lon="-5.874419">
        <ele>55.376051</ele>
        <time>2020-08-16T08:34:03.748Z</time>
      </trkpt>
      <trkpt lat="37.032392" lon="-5.874530">
        <ele>55.385310</ele>
        <time>2020-08-16T08:34:06.787Z</time>
      </trkpt>
      <trkpt lat="37.032283" lon="-5.874663">
        <ele>55.399552</ele>
        <time>2020-08-16T08:34:10.783Z</time>
      </trkpt>
      <trkpt lat="37.032001" lon="-5.874894">
        <ele>55.431087</ele>
        <time>2020-08-16T08:34:11.772Z</time>
      </trkpt>
      <trkpt lat="37.031901" lon="-5.875016">
        <ele>55.444152</ele>
        <time>2020-08-16T08:34:13.769Z</time>
      </trkpt>
      <trkpt lat="37.031763" lon="-5.875098">
        <ele>55.458447</ele>
        <time>2020-08-16T08:34:15.752Z</time>
      </trkpt>
      <trkpt lat="37.031705" lon="-5.875201">
        <ele>55.467864</ele>
        <time>2020-08-16T08:34:21.788Z</time>
      </trkpt>
      <trkpt lat="37.031583" lon="-5.875468">
        <ele>55.490850</ele>
        <time>2020-08-16T08:34:22.788Z</time>
      </trkpt>
      <trkpt lat="37.031488" lon="-5.875581">
        <ele>55.503111</ele>
        <time>2020-08-16T08:34:24.802Z</time>
      </trkpt>
      <trkpt lat="37.031410" lon="-5.875720">
        <ele>55.518184</ele>
        <time>2020-08-16T08:34:28.771Z</time>
      </trkpt>
      <trkpt lat="37.031335" lon="-5.875837">
        <ele>55.538807</ele>
        <time>2020-08-16T08:34:30.780Z</time>
      </trkpt>
      <trkpt lat="37.031244" lon="-5.875947">
        <ele>55.560580</ele>
        <time>2020-08-16T08:34:33.785Z</time>
      </trkpt>
      <trkpt lat="37.031097" lon="-5.876212">
        <ele>55.604932</ele>
        <time>2020-08-16T08:34:38.763Z</time>
      </trkpt>
      <trkpt lat="37.031051" lon="-5.876310">
        <ele>55.620557</ele>
        <time>2020-08-16T08:34:47.765Z</time>
      </trkpt>
      <trkpt lat="37.030938" lon="-5.876436">
        <ele>55.646603</ele>
        <time>2020-08-16T08:34:48.749Z</time>
      </trkpt>
      <trkpt lat="37.030891" lon="-5.876559">
        <ele>55.665346</ele>
        <time>2020-08-16T08:34:49.775Z</time>
      </trkpt>
      <trkpt lat="37.030688" lon="-5.876613">
        <ele>55.701075</ele>
        <time>2020-08-16T08:34:51.763Z</time>
      </trkpt>
      <trkpt lat="37.030626" lon="-5.876716">
        <ele>55.718805</ele>
        <time>2020-08-16T08:34:54.783Z</time>
      </trkpt>
      <trkpt lat="37.030571" lon="-5.876837">
        <ele>55.737943</ele>
        <time>2020-08-16T08:34:56.772Z</time>
      </trkpt>
      <trkpt lat="37.030502" lon="-5.877015">
        <ele>55.765140</ele>
        <time>2020-08-16T08:34:57.793Z</time>
      </trkpt>
      <trkpt lat="37.030413" lon="-5.877051">
        <ele>55.781242</ele>
        <time>2020-08-16T08:34:58.783Z</time>
      </trkpt>
      <trkpt lat="37.030390" lon="-5.877167">
        <ele>55.797670</ele>
        <time>2020-08-16T08:35:00.768Z</time>
      </trkpt>
      <trkpt lat="37.030304" lon="-5.877224">
        <ele>55.814421</ele>
        <time>2020-08-16T08:35:02.762Z</time>
      </trkpt>
      <trkpt lat="37.030264" lon="-5.877331">
        <ele>55.742920</ele>
        <time>2020-08-16T08:35:07.778Z</time>
      </trkpt>
      <trkpt lat="37.030217" lon="-5.877450">
        <ele>55.561466</ele>
        <time>2020-08-16T08:35:13.793Z</time>
      </trkpt>
      <trkpt lat="37.029920" lon="-5.877745">
        <ele>54.912555</ele>
        <time>2020-08-16T08:35:15.771Z</time>
      </trkpt>
      <trkpt lat="37.029831" lon="-5.877855">
        <ele>54.698505</ele>
        <time>2020-08-16T08:35:18.781Z</time>
      </trkpt>
      <trkpt lat="37.029739" lon="-5.877904">
        <ele>54.527356</ele>
        <time>2020-08-16T08:35:20.774Z</time>
      </trkpt>
      <trkpt lat="37.029667" lon="-5.878005">
        <ele>54.342293</ele>
        <time>2020-08-16T08:35:31.783Z</time>
      </trkpt>
      <trkpt lat="37.029294" lon="-5.878425">
        <ele>53.483646</ele>
        <time>2020-08-16T08:35:32.790Z</time>
      </trkpt>
      <trkpt lat="37.029246" lon="-5.878534">
        <ele>53.313512</ele>
        <time>2020-08-16T08:35:34.792Z</time>
      </trkpt>
      <trkpt lat="37.029189" lon="-5.878633">
        <ele>53.146688</ele>
        <time>2020-08-16T08:35:36.760Z</time>
      </trkpt>
      <trkpt lat="37.029148" lon="-5.878757">
        <ele>52.963253</ele>
        <time>2020-08-16T08:35:42.791Z</time>
      </trkpt>
      <trkpt lat="37.028991" lon="-5.878906">
        <ele>52.781886</ele>
        <time>2020-08-16T08:35:43.785Z</time>
      </trkpt>
      <trkpt lat="37.028902" lon="-5.879044">
        <ele>52.861418</ele>
        <time>2020-08-16T08:35:46.776Z</time>
      </trkpt>
      <trkpt lat="37.028828" lon="-5.879123">
        <ele>52.916018</ele>
        <time>2020-08-16T08:35:51.791Z</time>
      </trkpt>
      <trkpt lat="37.028640" lon="-5.879386">
        <ele>53.074280</ele>
        <time>2020-08-16T08:35:54.786Z</time>
      </trkpt>
      <trkpt lat="37.028509" lon="-5.879432">
        <ele>53.150680</ele>
        <time>2020-08-16T08:35:56.766Z</time>
      </trkpt>
      <trkpt lat="37.028409" lon="-5.879410">
        <ele>53.207695</ele>
        <time>2020-08-16T08:35:58.771Z</time>
      </trkpt>
      <trkpt lat="37.028418" lon="-5.879527">
        <ele>53.260390</ele>
        <time>2020-08-16T08:36:00.754Z</time>
      </trkpt>
      <trkpt lat="37.028424" lon="-5.879689">
        <ele>53.333094</ele>
        <time>2020-08-16T08:36:05.794Z</time>
      </trkpt>
      <trkpt lat="37.028222" lon="-5.879877">
        <ele>53.474412</ele>
        <time>2020-08-16T08:36:06.777Z</time>
      </trkpt>
      <trkpt lat="37.028154" lon="-5.880011">
        <ele>53.545595</ele>
        <time>2020-08-16T08:36:13.758Z</time>
      </trkpt>
      <trkpt lat="37.028115" lon="-5.880116">
        <ele>53.597513</ele>
        <time>2020-08-16T08:36:15.779Z</time>
      </trkpt>
      <trkpt lat="37.027865" lon="-5.880367">
        <ele>53.781912</ele>
        <time>2020-08-16T08:36:18.780Z</time>
      </trkpt>
      <trkpt lat="37.027732" lon="-5.880476">
        <ele>53.887823</ele>
        <time>2020-08-16T08:36:20.788Z</time>
      </trkpt>
      <trkpt lat="37.027657" lon="-5.880622">
        <ele>53.980183</ele>
        <time>2020-08-16T08:36:23.762Z</time>
      </trkpt>
      <trkpt lat="37.027576" lon="-5.880707">
        <ele>54.050597</ele>
        <time>2020-08-16T08:36:28.760Z</time>
      </trkpt>
      <trkpt lat="37.027516" lon="-5.880794">
        <ele>54.111757</ele>
        <time>2020-08-16T08:36:30.777Z</time>
      </trkpt>
      <trkpt lat="37.027441" lon="-5.880870">
        <ele>54.176041</ele>
        <time>2020-08-16T08:36:33.784Z</time>
      </trkpt>
      <trkpt lat="37.027370" lon="-5.880961">
        <ele>54.243732</ele>
        <time>2020-08-16T08:36:36.782Z</time>
      </trkpt>
      <trkpt lat="37.027286" lon="-5.881046">
        <ele>54.315689</ele>
        <time>2020-08-16T08:36:39.799Z</time>
      </trkpt>
      <trkpt lat="37.027204" lon="-5.881137">
        <ele>54.388692</ele>
        <time>2020-08-16T08:36:41.777Z</time>
      </trkpt>
      <trkpt lat="37.027053" lon="-5.881257">
        <ele>54.507855</ele>
        <time>2020-08-16T08:36:43.776Z</time>
      </trkpt>
      <trkpt lat="37.026978" lon="-5.881363">
        <ele>54.583206</ele>
        <time>2020-08-16T08:36:46.760Z</time>
      </trkpt>
      <trkpt lat="37.026866" lon="-5.881420">
        <ele>54.663763</ele>
        <time>2020-08-16T08:36:48.753Z</time>
      </trkpt>
      <trkpt lat="37.026797" lon="-5.881517">
        <ele>54.732879</ele>
        <time>2020-08-16T08:36:53.774Z</time>
      </trkpt>
      <trkpt lat="37.026665" lon="-5.881557">
        <ele>54.823376</ele>
        <time>2020-08-16T08:36:54.788Z</time>
      </trkpt>
      <trkpt lat="37.026554" lon="-5.881680">
        <ele>54.922132</ele>
        <time>2020-08-16T08:36:55.779Z</time>
      </trkpt>
      <trkpt lat="37.026468" lon="-5.881746">
        <ele>54.877098</ele>
        <time>2020-08-16T08:36:58.787Z</time>
      </trkpt>
      <trkpt lat="37.026369" lon="-5.881817">
        <ele>54.724757</ele>
        <time>2020-08-16T08:37:01.796Z</time>
      </trkpt>
      <trkpt lat="37.026100" lon="-5.882109">
        <ele>54.249411</ele>
        <time>2020-08-16T08:37:07.791Z</time>
      </trkpt>
      <trkpt lat="37.026001" lon="-5.882215">
        <ele>54.075489</ele>
        <time>2020-08-16T08:37:10.791Z</time>
      </trkpt>
      <trkpt lat="37.025914" lon="-5.882276">
        <ele>53.942345</ele>
        <time>2020-08-16T08:37:12.782Z</time>
      </trkpt>
      <trkpt lat="37.025828" lon="-5.882322">
        <ele>53.817468</ele>
        <time>2020-08-16T08:37:16.800Z</time>
      </trkpt>
      <trkpt lat="37.025609" lon="-5.882436">
        <ele>53.500767</ele>
        <time>2020-08-16T08:37:19.754Z</time>
      </trkpt>
      <trkpt lat="37.025519" lon="-5.882536">
        <ele>53.340109</ele>
        <time>2020-08-16T08:37:21.777Z</time>
      </trkpt>
      <trkpt lat="37.025439" lon="-5.882635">
        <ele>53.189931</ele>
        <time>2020-08-16T08:37:24.766Z</time>
      </trkpt>
      <trkpt lat="37.025328" lon="-5.882753">
        <ele>52.995513</ele>
        <time>2020-08-16T08:37:30.777Z</time>
      </trkpt>
      <trkpt lat="37.025291" lon="-5.882865">
        <ele>52.866286</ele>
        <time>2020-08-16T08:37:31.759Z</time>
      </trkpt>
      <trkpt lat="37.025233" lon="-5.882972">
        <ele>52.728400</ele>
        <time>2020-08-16T08:37:32.765Z</time>
      </trkpt>
      <trkpt lat="37.025112" lon="-5.883010">
        <ele>52.561816</ele>
        <time>2020-08-16T08:37:35.761Z</time>
      </trkpt>
      <trkpt lat="37.025029" lon="-5.883056">
        <ele>52.602067</ele>
        <time>2020-08-16T08:37:37.768Z</time>
      </trkpt>
      <trkpt lat="37.024951" lon="-5.883119">
        <ele>52.660934</ele>
        <time>2020-08-16T08:37:44.790Z</time>
      </trkpt>
      <trkpt lat="37.024693" lon="-5.883475">
        <ele>52.904405</ele>
        <time>2020-08-16T08:37:49.784Z</time>
      </trkpt>
      <trkpt lat="37.024551" lon="-5.883500">
        <ele>52.995357</ele>
        <time>2020-08-16T08:37:56.758Z</time>
      </trkpt>
      <trkpt lat="37.024485" lon="-5.883586">
        <ele>53.055764</ele>
        <time>2020-08-16T08:37:57.756Z</time>
      </trkpt>
      <trkpt lat="37.024362" lon="-5.883601">
        <ele>53.134149</ele>
        <time>2020-08-16T08:37:58.760Z</time>
      </trkpt>
      <trkpt lat="37.024201" lon="-5.883638">
        <ele>53.237972</ele>
        <time>2020-08-16T08:37:59.758Z</time>
      </trkpt>
      <trkpt lat="37.024076" lon="-5.883661">
        <ele>53.318107</ele>
        <time>2020-08-16T08:38:00.767Z</time>
      </trkpt>
      <trkpt lat="37.023975" lon="-5.883677">
        <ele>53.382679</ele>
        <time>2020-08-16T08:38:01.760Z</time>
      </trkpt>
      <trkpt lat="37.023885" lon="-5.883704">
        <ele>53.441379</ele>
        <time>2020-08-16T08:38:02.779Z</time>
      </trkpt>
      <trkpt lat="37.023836" lon="-5.883813">
        <ele>53.504724</ele>
        <time>2020-08-16T08:38:04.785Z</time>
      </trkpt>
      <trkpt lat="37.023802" lon="-5.883919">
        <ele>53.562572</ele>
        <time>2020-08-16T08:38:05.781Z</time>
      </trkpt>
      <trkpt lat="37.023703" lon="-5.884085">
        <ele>53.667498</ele>
        <time>2020-08-16T08:38:09.762Z</time>
      </trkpt>
      <trkpt lat="37.023628" lon="-5.884185">
        <ele>53.605519</ele>
        <time>2020-08-16T08:38:11.788Z</time>
      </trkpt>
      <trkpt lat="37.023552" lon="-5.884272">
        <ele>53.484470</ele>
        <time>2020-08-16T08:38:14.769Z</time>
      </trkpt>
      <trkpt lat="37.023468" lon="-5.884336">
        <ele>53.368874</ele>
        <time>2020-08-16T08:38:16.783Z</time>
      </trkpt>
      <trkpt lat="37.023364" lon="-5.884406">
        <ele>53.230065</ele>
        <time>2020-08-16T08:38:18.787Z</time>
      </trkpt>
      <trkpt lat="37.023237" lon="-5.884436">
        <ele>53.078119</ele>
        <time>2020-08-16T08:38:20.791Z</time>
      </trkpt>
      <trkpt lat="37.023105" lon="-5.884459">
        <ele>52.921432</ele>
        <time>2020-08-16T08:38:22.775Z</time>
      </trkpt>
      <trkpt lat="37.022954" lon="-5.884600">
        <ele>52.699996</ele>
        <time>2020-08-16T08:38:24.781Z</time>
      </trkpt>
      <trkpt lat="37.022844" lon="-5.884635">
        <ele>52.566561</ele>
        <time>2020-08-16T08:38:26.774Z</time>
      </trkpt>
      <trkpt lat="37.022919" lon="-5.884828">
        <ele>52.365078</ele>
        <time>2020-08-16T08:38:28.753Z</time>
      </trkpt>
      <trkpt lat="37.022830" lon="-5.884887">
        <ele>52.246688</ele>
        <time>2020-08-16T08:38:34.777Z</time>
      </trkpt>
      <trkpt lat="37.022524" lon="-5.885286">
        <ele>51.727358</ele>
        <time>2020-08-16T08:38:42.792Z</time>
      </trkpt>
      <trkpt lat="37.022336" lon="-5.885291">
        <ele>51.608460</ele>
        <time>2020-08-16T08:38:43.749Z</time>
      </trkpt>
      <trkpt lat="37.022210" lon="-5.885320">
        <ele>51.677802</ele>
        <time>2020-08-16T08:38:45.762Z</time>
      </trkpt>
      <trkpt lat="37.022111" lon="-5.885347">
        <ele>51.732644</ele>
        <time>2020-08-16T08:38:51.782Z</time>
      </trkpt>
      <trkpt lat="37.021579" lon="-5.885746">
        <ele>52.068283</ele>
        <time>2020-08-16T08:38:59.782Z</time>
      </trkpt>
      <trkpt lat="37.021500" lon="-5.885869">
        <ele>52.136503</ele>
        <time>2020-08-16T08:39:02.773Z</time>
      </trkpt>
      <trkpt lat="37.021447" lon="-5.885983">
        <ele>52.193513</ele>
        <time>2020-08-16T08:39:06.767Z</time>
      </trkpt>
      <trkpt lat="37.021363" lon="-5.886120">
        <ele>52.268163</ele>
        <time>2020-08-16T08:39:09.771Z</time>
      </trkpt>
      <trkpt lat="37.021274" lon="-5.886186">
        <ele>52.324147</ele>
        <time>2020-08-16T08:39:10.758Z</time>
      </trkpt>
      <trkpt lat="37.021188" lon="-5.886280">
        <ele>52.385930</ele>
        <time>2020-08-16T08:39:12.765Z</time>
      </trkpt>
      <trkpt lat="37.021101" lon="-5.886349">
        <ele>52.441669</ele>
        <time>2020-08-16T08:39:14.756Z</time>
      </trkpt>
      <trkpt lat="37.021057" lon="-5.886464">
        <ele>52.496779</ele>
        <time>2020-08-16T08:39:18.776Z</time>
      </trkpt>
      <trkpt lat="37.021014" lon="-5.886575">
        <ele>52.549710</ele>
        <time>2020-08-16T08:39:21.784Z</time>
      </trkpt>
      <trkpt lat="37.020978" lon="-5.886682">
        <ele>52.532276</ele>
        <time>2020-08-16T08:39:24.765Z</time>
      </trkpt>
      <trkpt lat="37.020754" lon="-5.886926">
        <ele>52.476449</ele>
        <time>2020-08-16T08:39:27.813Z</time>
      </trkpt>
      <trkpt lat="37.020687" lon="-5.887037">
        <ele>52.455556</ele>
        <time>2020-08-16T08:39:31.752Z</time>
      </trkpt>
      <trkpt lat="37.020594" lon="-5.887120">
        <ele>52.434080</ele>
        <time>2020-08-16T08:39:33.762Z</time>
      </trkpt>
      <trkpt lat="37.020525" lon="-5.887204">
        <ele>52.415985</ele>
        <time>2020-08-16T08:39:35.778Z</time>
      </trkpt>
      <trkpt lat="37.020455" lon="-5.887280">
        <ele>52.398563</ele>
        <time>2020-08-16T08:39:37.768Z</time>
      </trkpt>
      <trkpt lat="37.020371" lon="-5.887365">
        <ele>52.378255</ele>
        <time>2020-08-16T08:39:39.766Z</time>
      </trkpt>
      <trkpt lat="37.020326" lon="-5.887480">
        <ele>52.359026</ele>
        <time>2020-08-16T08:39:41.787Z</time>
      </trkpt>
      <trkpt lat="37.020257" lon="-5.887582">
        <ele>52.338953</ele>
        <time>2020-08-16T08:39:44.786Z</time>
      </trkpt>
      <trkpt lat="37.020177" lon="-5.887684">
        <ele>52.317484</ele>
        <time>2020-08-16T08:39:46.782Z</time>
      </trkpt>
      <trkpt lat="37.020125" lon="-5.887784">
        <ele>52.299566</ele>
        <time>2020-08-16T08:39:48.784Z</time>
      </trkpt>
      <trkpt lat="37.020023" lon="-5.887858">
        <ele>52.277398</ele>
        <time>2020-08-16T08:39:50.780Z</time>
      </trkpt>
      <trkpt lat="37.019987" lon="-5.887978">
        <ele>52.258151</ele>
        <time>2020-08-16T08:39:52.783Z</time>
      </trkpt>
      <trkpt lat="37.019921" lon="-5.888081">
        <ele>52.238321</ele>
        <time>2020-08-16T08:39:55.759Z</time>
      </trkpt>
      <trkpt lat="37.019818" lon="-5.888183">
        <ele>52.213628</ele>
        <time>2020-08-16T08:39:58.771Z</time>
      </trkpt>
      <trkpt lat="37.019755" lon="-5.888311">
        <ele>52.172341</ele>
        <time>2020-08-16T08:40:00.764Z</time>
      </trkpt>
      <trkpt lat="37.019681" lon="-5.888414">
        <ele>52.132561</ele>
        <time>2020-08-16T08:40:02.773Z</time>
      </trkpt>
      <trkpt lat="37.019612" lon="-5.888547">
        <ele>52.087024</ele>
        <time>2020-08-16T08:40:05.770Z</time>
      </trkpt>
      <trkpt lat="37.019493" lon="-5.888664">
        <ele>52.032625</ele>
        <time>2020-08-16T08:40:08.752Z</time>
      </trkpt>
      <trkpt lat="37.019418" lon="-5.888746">
        <ele>51.996827</ele>
        <time>2020-08-16T08:40:10.761Z</time>
      </trkpt>
      <trkpt lat="37.019348" lon="-5.888836">
        <ele>51.960755</ele>
        <time>2020-08-16T08:40:12.766Z</time>
      </trkpt>
      <trkpt lat="37.019274" lon="-5.888917">
        <ele>51.925416</ele>
        <time>2020-08-16T08:40:14.767Z</time>
      </trkpt>
      <trkpt lat="37.019185" lon="-5.888999">
        <ele>51.885687</ele>
        <time>2020-08-16T08:40:16.784Z</time>
      </trkpt>
      <trkpt lat="37.019126" lon="-5.889144">
        <ele>51.838964</ele>
        <time>2020-08-16T08:40:19.778Z</time>
      </trkpt>
      <trkpt lat="37.019063" lon="-5.889226">
        <ele>51.806293</ele>
        <time>2020-08-16T08:40:21.763Z</time>
      </trkpt>
      <trkpt lat="37.018998" lon="-5.889367">
        <ele>51.759549</ele>
        <time>2020-08-16T08:40:24.780Z</time>
      </trkpt>
      <trkpt lat="37.018904" lon="-5.889422">
        <ele>51.722242</ele>
        <time>2020-08-16T08:40:26.781Z</time>
      </trkpt>
      <trkpt lat="37.018829" lon="-5.889501">
        <ele>51.687004</ele>
        <time>2020-08-16T08:40:28.763Z</time>
      </trkpt>
      <trkpt lat="37.018738" lon="-5.889600">
        <ele>51.643662</ele>
        <time>2020-08-16T08:40:30.773Z</time>
      </trkpt>
      <trkpt lat="37.018660" lon="-5.889708">
        <ele>51.601852</ele>
        <time>2020-08-16T08:40:32.783Z</time>
      </trkpt>
      <trkpt lat="37.018567" lon="-5.889786">
        <ele>51.570252</ele>
        <time>2020-08-16T08:40:34.766Z</time>
      </trkpt>
      <trkpt lat="37.018470" lon="-5.889856">
        <ele>51.638538</ele>
        <time>2020-08-16T08:40:36.750Z</time>
      </trkpt>
      <trkpt lat="37.018400" lon="-5.889976">
        <ele>51.710917</ele>
        <time>2020-08-16T08:40:38.785Z</time>
      </trkpt>
      <trkpt lat="37.018307" lon="-5.890102">
        <ele>51.794486</ele>
        <time>2020-08-16T08:40:40.781Z</time>
      </trkpt>
      <trkpt lat="37.018225" lon="-5.890237">
        <ele>51.877098</ele>
        <time>2020-08-16T08:40:43.776Z</time>
      </trkpt>
      <trkpt lat="37.018147" lon="-5.890331">
        <ele>51.943125</ele>
        <time>2020-08-16T08:40:46.778Z</time>
      </trkpt>
      <trkpt lat="37.018070" lon="-5.890452">
        <ele>52.018483</ele>
        <time>2020-08-16T08:40:49.759Z</time>
      </trkpt>
      <trkpt lat="37.018006" lon="-5.890570">
        <ele>52.087958</ele>
        <time>2020-08-16T08:40:52.769Z</time>
      </trkpt>
      <trkpt lat="37.017944" lon="-5.890670">
        <ele>52.149620</ele>
        <time>2020-08-16T08:40:55.784Z</time>
      </trkpt>
      <trkpt lat="37.017860" lon="-5.890785">
        <ele>52.225529</ele>
        <time>2020-08-16T08:40:58.757Z</time>
      </trkpt>
      <trkpt lat="37.017782" lon="-5.890914">
        <ele>52.304339</ele>
        <time>2020-08-16T08:41:01.756Z</time>
      </trkpt>
      <trkpt lat="37.017721" lon="-5.891001">
        <ele>52.360729</ele>
        <time>2020-08-16T08:41:03.767Z</time>
      </trkpt>
      <trkpt lat="37.017637" lon="-5.891097">
        <ele>52.430093</ele>
        <time>2020-08-16T08:41:05.746Z</time>
      </trkpt>
      <trkpt lat="37.017551" lon="-5.891195">
        <ele>52.501015</ele>
        <time>2020-08-16T08:41:08.757Z</time>
      </trkpt>
      <trkpt lat="37.017459" lon="-5.891313">
        <ele>52.581339</ele>
        <time>2020-08-16T08:41:11.757Z</time>
      </trkpt>
      <trkpt lat="37.017379" lon="-5.891434">
        <ele>52.657851</ele>
        <time>2020-08-16T08:41:14.779Z</time>
      </trkpt>
      <trkpt lat="37.017308" lon="-5.891560">
        <ele>52.548527</ele>
        <time>2020-08-16T08:41:17.746Z</time>
      </trkpt>
      <trkpt lat="37.017214" lon="-5.891650">
        <ele>52.433282</ele>
        <time>2020-08-16T08:41:19.752Z</time>
      </trkpt>
      <trkpt lat="37.017145" lon="-5.891745">
        <ele>52.333407</ele>
        <time>2020-08-16T08:41:24.762Z</time>
      </trkpt>
      <trkpt lat="37.017100" lon="-5.891872">
        <ele>52.225351</ele>
        <time>2020-08-16T08:41:27.771Z</time>
      </trkpt>
      <trkpt lat="37.017044" lon="-5.892003">
        <ele>52.109791</ele>
        <time>2020-08-16T08:41:29.772Z</time>
      </trkpt>
      <trkpt lat="37.016925" lon="-5.892073">
        <ele>51.981737</ele>
        <time>2020-08-16T08:41:31.779Z</time>
      </trkpt>
      <trkpt lat="37.016835" lon="-5.892124">
        <ele>51.885522</ele>
        <time>2020-08-16T08:41:33.767Z</time>
      </trkpt>
      <trkpt lat="37.016777" lon="-5.892216">
        <ele>51.794360</ele>
        <time>2020-08-16T08:41:35.788Z</time>
      </trkpt>
      <trkpt lat="37.016690" lon="-5.892342">
        <ele>51.664812</ele>
        <time>2020-08-16T08:41:38.785Z</time>
      </trkpt>
      <trkpt lat="37.016800" lon="-5.892275">
        <ele>51.545674</ele>
        <time>2020-08-16T08:41:41.770Z</time>
      </trkpt>
      <trkpt lat="37.016918" lon="-5.892221">
        <ele>51.423309</ele>
        <time>2020-08-16T08:41:44.784Z</time>
      </trkpt>
      <trkpt lat="37.017030" lon="-5.892256">
        <ele>51.310877</ele>
        <time>2020-08-16T08:41:47.774Z</time>
      </trkpt>
      <trkpt lat="37.016280" lon="-5.892756">
        <ele>50.571234</ele>
        <time>2020-08-16T08:41:51.782Z</time>
      </trkpt>
      <trkpt lat="37.016221" lon="-5.892877">
        <ele>50.483686</ele>
        <time>2020-08-16T08:41:54.762Z</time>
      </trkpt>
      <trkpt lat="37.016180" lon="-5.892987">
        <ele>50.408725</ele>
        <time>2020-08-16T08:42:00.786Z</time>
      </trkpt>
      <trkpt lat="37.016018" lon="-5.893177">
        <ele>50.237082</ele>
        <time>2020-08-16T08:42:02.771Z</time>
      </trkpt>
      <trkpt lat="37.015938" lon="-5.893308">
        <ele>50.135242</ele>
        <time>2020-08-16T08:42:05.776Z</time>
      </trkpt>
      <trkpt lat="37.015868" lon="-5.893396">
        <ele>50.058538</ele>
        <time>2020-08-16T08:42:08.764Z</time>
      </trkpt>
      <trkpt lat="37.015748" lon="-5.893586">
        <ele>49.908946</ele>
        <time>2020-08-16T08:42:13.785Z</time>
      </trkpt>
      <trkpt lat="37.015652" lon="-5.893671">
        <ele>49.818024</ele>
        <time>2020-08-16T08:42:14.785Z</time>
      </trkpt>
      <trkpt lat="37.015615" lon="-5.893782">
        <ele>49.743748</ele>
        <time>2020-08-16T08:42:16.781Z</time>
      </trkpt>
      <trkpt lat="37.015546" lon="-5.893859">
        <ele>49.672276</ele>
        <time>2020-08-16T08:42:18.757Z</time>
      </trkpt>
      <trkpt lat="37.015378" lon="-5.894069">
        <ele>49.605935</ele>
        <time>2020-08-16T08:42:26.785Z</time>
      </trkpt>
      <trkpt lat="37.015324" lon="-5.894319">
        <ele>50.063673</ele>
        <time>2020-08-16T08:42:37.767Z</time>
      </trkpt>
      <trkpt lat="37.015185" lon="-5.894502">
        <ele>50.510079</ele>
        <time>2020-08-16T08:42:39.760Z</time>
      </trkpt>
      <trkpt lat="37.015105" lon="-5.894590">
        <ele>50.745766</ele>
        <time>2020-08-16T08:42:41.764Z</time>
      </trkpt>
      <trkpt lat="37.015058" lon="-5.894692">
        <ele>50.953908</ele>
        <time>2020-08-16T08:42:46.790Z</time>
      </trkpt>
      <trkpt lat="37.015001" lon="-5.894801">
        <ele>51.184197</ele>
        <time>2020-08-16T08:42:52.791Z</time>
      </trkpt>
      <trkpt lat="37.014975" lon="-5.894956">
        <ele>51.464129</ele>
        <time>2020-08-16T08:42:57.789Z</time>
      </trkpt>
      <trkpt lat="37.014645" lon="-5.895360">
        <ele>52.485612</ele>
        <time>2020-08-16T08:42:58.760Z</time>
      </trkpt>
      <trkpt lat="37.014566" lon="-5.895487">
        <ele>52.770152</ele>
        <time>2020-08-16T08:43:04.779Z</time>
      </trkpt>
      <trkpt lat="37.014485" lon="-5.895588">
        <ele>53.023160</ele>
        <time>2020-08-16T08:43:06.774Z</time>
      </trkpt>
      <trkpt lat="37.014448" lon="-5.895709">
        <ele>53.252166</ele>
        <time>2020-08-16T08:43:09.775Z</time>
      </trkpt>
      <trkpt lat="37.014394" lon="-5.895824">
        <ele>53.487964</ele>
        <time>2020-08-16T08:43:11.786Z</time>
      </trkpt>
      <trkpt lat="37.014340" lon="-5.895931">
        <ele>53.428012</ele>
        <time>2020-08-16T08:43:15.756Z</time>
      </trkpt>
      <trkpt lat="37.014184" lon="-5.896267">
        <ele>53.192807</ele>
        <time>2020-08-16T08:43:19.750Z</time>
      </trkpt>
      <trkpt lat="37.014135" lon="-5.896382">
        <ele>53.113926</ele>
        <time>2020-08-16T08:43:22.797Z</time>
      </trkpt>
      <trkpt lat="37.014046" lon="-5.896426">
        <ele>53.041410</ele>
        <time>2020-08-16T08:43:24.755Z</time>
      </trkpt>
      <trkpt lat="37.013997" lon="-5.896570">
        <ele>52.946685</ele>
        <time>2020-08-16T08:43:29.795Z</time>
      </trkpt>
      <trkpt lat="37.013907" lon="-5.896719">
        <ele>52.833625</ele>
        <time>2020-08-16T08:43:30.762Z</time>
      </trkpt>
      <trkpt lat="37.013833" lon="-5.896804">
        <ele>52.757525</ele>
        <time>2020-08-16T08:43:32.745Z</time>
      </trkpt>
      <trkpt lat="37.013771" lon="-5.896900">
        <ele>52.682806</ele>
        <time>2020-08-16T08:43:35.785Z</time>
      </trkpt>
      <trkpt lat="37.013720" lon="-5.897003">
        <ele>52.609464</ele>
        <time>2020-08-16T08:43:39.790Z</time>
      </trkpt>
      <trkpt lat="37.013636" lon="-5.897171">
        <ele>52.489511</ele>
        <time>2020-08-16T08:43:42.785Z</time>
      </trkpt>
      <trkpt lat="37.013544" lon="-5.897306">
        <ele>52.382106</ele>
        <time>2020-08-16T08:43:44.761Z</time>
      </trkpt>
      <trkpt lat="37.013493" lon="-5.897403">
        <ele>52.311824</ele>
        <time>2020-08-16T08:43:46.800Z</time>
      </trkpt>
      <trkpt lat="37.013437" lon="-5.897498">
        <ele>52.240365</ele>
        <time>2020-08-16T08:43:50.798Z</time>
      </trkpt>
      <trkpt lat="37.013365" lon="-5.897626">
        <ele>52.145615</ele>
        <time>2020-08-16T08:43:52.784Z</time>
      </trkpt>
      <trkpt lat="37.013307" lon="-5.897732">
        <ele>52.438971</ele>
        <time>2020-08-16T08:43:54.776Z</time>
      </trkpt>
      <trkpt lat="37.013242" lon="-5.897858">
        <ele>52.833848</ele>
        <time>2020-08-16T08:43:57.784Z</time>
      </trkpt>
      <trkpt lat="37.013160" lon="-5.897998">
        <ele>53.290896</ele>
        <time>2020-08-16T08:44:00.788Z</time>
      </trkpt>
      <trkpt lat="37.013081" lon="-5.898123">
        <ele>53.710538</ele>
        <time>2020-08-16T08:44:03.773Z</time>
      </trkpt>
      <trkpt lat="37.013033" lon="-5.898218">
        <ele>54.006474</ele>
        <time>2020-08-16T08:44:07.783Z</time>
      </trkpt>
      <trkpt lat="37.012980" lon="-5.898314">
        <ele>54.313704</ele>
        <time>2020-08-16T08:44:10.803Z</time>
      </trkpt>
      <trkpt lat="37.012898" lon="-5.898455">
        <ele>54.772878</ele>
        <time>2020-08-16T08:44:11.791Z</time>
      </trkpt>
      <trkpt lat="37.012826" lon="-5.898581">
        <ele>55.180741</ele>
        <time>2020-08-16T08:44:14.785Z</time>
      </trkpt>
      <trkpt lat="37.012769" lon="-5.898688">
        <ele>55.519334</ele>
        <time>2020-08-16T08:44:17.799Z</time>
      </trkpt>
      <trkpt lat="37.012715" lon="-5.898792">
        <ele>55.845893</ele>
        <time>2020-08-16T08:44:19.790Z</time>
      </trkpt>
      <trkpt lat="37.012655" lon="-5.898892">
        <ele>56.175165</ele>
        <time>2020-08-16T08:44:22.793Z</time>
      </trkpt>
      <trkpt lat="37.012605" lon="-5.898989">
        <ele>56.479089</ele>
        <time>2020-08-16T08:44:25.769Z</time>
      </trkpt>
      <trkpt lat="37.012567" lon="-5.899096">
        <ele>56.787357</ele>
        <time>2020-08-16T08:44:31.789Z</time>
      </trkpt>
      <trkpt lat="37.012511" lon="-5.899191">
        <ele>57.098196</ele>
        <time>2020-08-16T08:44:33.772Z</time>
      </trkpt>
      <trkpt lat="37.012445" lon="-5.899301">
        <ele>57.460396</ele>
        <time>2020-08-16T08:44:36.792Z</time>
      </trkpt>
      <trkpt lat="37.012344" lon="-5.899440">
        <ele>57.955119</ele>
        <time>2020-08-16T08:44:39.786Z</time>
      </trkpt>
      <trkpt lat="37.012279" lon="-5.899560">
        <ele>57.977334</ele>
        <time>2020-08-16T08:44:42.786Z</time>
      </trkpt>
      <trkpt lat="37.012203" lon="-5.899693">
        <ele>57.834806</ele>
        <time>2020-08-16T08:44:45.773Z</time>
      </trkpt>
      <trkpt lat="37.012136" lon="-5.899839">
        <ele>57.688055</ele>
        <time>2020-08-16T08:44:49.780Z</time>
      </trkpt>
      <trkpt lat="37.012048" lon="-5.899993">
        <ele>57.523023</ele>
        <time>2020-08-16T08:44:51.764Z</time>
      </trkpt>
      <trkpt lat="37.011987" lon="-5.900077">
        <ele>57.424073</ele>
        <time>2020-08-16T08:44:53.778Z</time>
      </trkpt>
      <trkpt lat="37.011893" lon="-5.900209">
        <ele>57.269938</ele>
        <time>2020-08-16T08:44:56.794Z</time>
      </trkpt>
      <trkpt lat="37.011838" lon="-5.900308">
        <ele>57.164834</ele>
        <time>2020-08-16T08:45:00.778Z</time>
      </trkpt>
      <trkpt lat="37.011740" lon="-5.900488">
        <ele>56.974975</ele>
        <time>2020-08-16T08:45:02.778Z</time>
      </trkpt>
      <trkpt lat="37.011686" lon="-5.900581">
        <ele>56.874765</ele>
        <time>2020-08-16T08:45:04.762Z</time>
      </trkpt>
      <trkpt lat="37.011616" lon="-5.900717">
        <ele>56.733755</ele>
        <time>2020-08-16T08:45:07.785Z</time>
      </trkpt>
      <trkpt lat="37.011539" lon="-5.900858">
        <ele>56.584888</ele>
        <time>2020-08-16T08:45:10.758Z</time>
      </trkpt>
      <trkpt lat="37.011485" lon="-5.900948">
        <ele>56.486780</ele>
        <time>2020-08-16T08:45:12.790Z</time>
      </trkpt>
      <trkpt lat="37.011437" lon="-5.901051">
        <ele>56.382849</ele>
        <time>2020-08-16T08:45:14.810Z</time>
      </trkpt>
      <trkpt lat="37.011374" lon="-5.901163">
        <ele>56.263456</ele>
        <time>2020-08-16T08:45:16.786Z</time>
      </trkpt>
      <trkpt lat="37.011310" lon="-5.901244">
        <ele>56.164150</ele>
        <time>2020-08-16T08:45:18.777Z</time>
      </trkpt>
      <trkpt lat="37.011249" lon="-5.901363">
        <ele>56.032363</ele>
        <time>2020-08-16T08:45:20.778Z</time>
      </trkpt>
      <trkpt lat="37.011216" lon="-5.901472">
        <ele>55.916946</ele>
        <time>2020-08-16T08:45:22.766Z</time>
      </trkpt>
      <trkpt lat="37.011141" lon="-5.901553">
        <ele>55.794147</ele>
        <time>2020-08-16T08:45:24.762Z</time>
      </trkpt>
      <trkpt lat="37.011068" lon="-5.901694">
        <ele>55.627769</ele>
        <time>2020-08-16T08:45:27.779Z</time>
      </trkpt>
      <trkpt lat="37.011009" lon="-5.901807">
        <ele>55.494094</ele>
        <time>2020-08-16T08:45:29.796Z</time>
      </trkpt>
      <trkpt lat="37.010941" lon="-5.901908">
        <ele>55.363293</ele>
        <time>2020-08-16T08:45:31.769Z</time>
      </trkpt>
      <trkpt lat="37.010885" lon="-5.902018">
        <ele>55.234131</ele>
        <time>2020-08-16T08:45:33.776Z</time>
      </trkpt>
      <trkpt lat="37.010828" lon="-5.902133">
        <ele>55.100118</ele>
        <time>2020-08-16T08:45:35.775Z</time>
      </trkpt>
      <trkpt lat="37.010781" lon="-5.902236">
        <ele>54.982662</ele>
        <time>2020-08-16T08:45:37.783Z</time>
      </trkpt>
      <trkpt lat="37.010719" lon="-5.902340">
        <ele>54.854160</ele>
        <time>2020-08-16T08:45:39.761Z</time>
      </trkpt>
      <trkpt lat="37.010664" lon="-5.902438">
        <ele>54.735562</ele>
        <time>2020-08-16T08:45:41.764Z</time>
      </trkpt>
      <trkpt lat="37.010590" lon="-5.902590">
        <ele>54.559302</ele>
        <time>2020-08-16T08:45:44.763Z</time>
      </trkpt>
      <trkpt lat="37.010527" lon="-5.902711">
        <ele>54.416283</ele>
        <time>2020-08-16T08:45:48.783Z</time>
      </trkpt>
      <trkpt lat="37.010415" lon="-5.902881">
        <ele>54.198072</ele>
        <time>2020-08-16T08:45:51.789Z</time>
      </trkpt>
      <trkpt lat="37.010326" lon="-5.903000">
        <ele>54.036642</ele>
        <time>2020-08-16T08:45:54.775Z</time>
      </trkpt>
      <trkpt lat="37.010276" lon="-5.903099">
        <ele>53.920661</ele>
        <time>2020-08-16T08:45:57.784Z</time>
      </trkpt>
      <trkpt lat="37.010222" lon="-5.903206">
        <ele>53.925155</ele>
        <time>2020-08-16T08:45:59.788Z</time>
      </trkpt>
      <trkpt lat="37.010149" lon="-5.903330">
        <ele>54.025714</ele>
        <time>2020-08-16T08:46:02.788Z</time>
      </trkpt>
      <trkpt lat="37.010062" lon="-5.903455">
        <ele>54.133950</ele>
        <time>2020-08-16T08:46:05.801Z</time>
      </trkpt>
      <trkpt lat="37.009999" lon="-5.903544">
        <ele>54.211584</ele>
        <time>2020-08-16T08:46:07.776Z</time>
      </trkpt>
      <trkpt lat="37.009941" lon="-5.903645">
        <ele>54.292788</ele>
        <time>2020-08-16T08:46:09.785Z</time>
      </trkpt>
      <trkpt lat="37.009866" lon="-5.903782">
        <ele>54.401211</ele>
        <time>2020-08-16T08:46:12.770Z</time>
      </trkpt>
      <trkpt lat="37.009798" lon="-5.903910">
        <ele>54.501564</ele>
        <time>2020-08-16T08:46:15.775Z</time>
      </trkpt>
      <trkpt lat="37.009739" lon="-5.904046">
        <ele>54.602592</ele>
        <time>2020-08-16T08:46:18.794Z</time>
      </trkpt>
      <trkpt lat="37.009686" lon="-5.904142">
        <ele>54.678774</ele>
        <time>2020-08-16T08:46:20.762Z</time>
      </trkpt>
      <trkpt lat="37.009614" lon="-5.904266">
        <ele>54.778850</ele>
        <time>2020-08-16T08:46:23.784Z</time>
      </trkpt>
      <trkpt lat="37.009547" lon="-5.904380">
        <ele>54.871245</ele>
        <time>2020-08-16T08:46:26.775Z</time>
      </trkpt>
      <trkpt lat="37.009480" lon="-5.904490">
        <ele>54.961551</ele>
        <time>2020-08-16T08:46:28.783Z</time>
      </trkpt>
      <trkpt lat="37.009399" lon="-5.904617">
        <ele>55.067646</ele>
        <time>2020-08-16T08:46:30.801Z</time>
      </trkpt>
      <trkpt lat="37.009358" lon="-5.904726">
        <ele>55.146294</ele>
        <time>2020-08-16T08:46:33.769Z</time>
      </trkpt>
      <trkpt lat="37.009314" lon="-5.904827">
        <ele>55.221395</ele>
        <time>2020-08-16T08:46:35.770Z</time>
      </trkpt>
      <trkpt lat="37.009230" lon="-5.904949">
        <ele>55.326545</ele>
        <time>2020-08-16T08:46:38.781Z</time>
      </trkpt>
      <trkpt lat="37.009174" lon="-5.905059">
        <ele>55.285659</ele>
        <time>2020-08-16T08:46:41.787Z</time>
      </trkpt>
      <trkpt lat="37.009079" lon="-5.905237">
        <ele>55.165831</ele>
        <time>2020-08-16T08:46:45.769Z</time>
      </trkpt>
      <trkpt lat="37.009020" lon="-5.905366">
        <ele>55.082627</ele>
        <time>2020-08-16T08:46:48.770Z</time>
      </trkpt>
      <trkpt lat="37.008972" lon="-5.905469">
        <ele>55.015880</ele>
        <time>2020-08-16T08:46:52.787Z</time>
      </trkpt>
      <trkpt lat="37.008905" lon="-5.905574">
        <ele>54.940655</ele>
        <time>2020-08-16T08:46:54.796Z</time>
      </trkpt>
      <trkpt lat="37.008831" lon="-5.905702">
        <ele>54.852210</ele>
        <time>2020-08-16T08:46:56.775Z</time>
      </trkpt>
      <trkpt lat="37.008759" lon="-5.905840">
        <ele>54.759947</ele>
        <time>2020-08-16T08:46:59.774Z</time>
      </trkpt>
      <trkpt lat="37.008677" lon="-5.905976">
        <ele>54.664568</ele>
        <time>2020-08-16T08:47:02.761Z</time>
      </trkpt>
      <trkpt lat="37.008576" lon="-5.906147">
        <ele>54.545525</ele>
        <time>2020-08-16T08:47:05.766Z</time>
      </trkpt>
      <trkpt lat="37.008484" lon="-5.906278">
        <ele>54.447884</ele>
        <time>2020-08-16T08:47:08.774Z</time>
      </trkpt>
      <trkpt lat="37.008423" lon="-5.906394">
        <ele>54.370146</ele>
        <time>2020-08-16T08:47:11.751Z</time>
      </trkpt>
      <trkpt lat="37.008371" lon="-5.906494">
        <ele>54.303356</ele>
        <time>2020-08-16T08:47:13.765Z</time>
      </trkpt>
      <trkpt lat="37.008321" lon="-5.906587">
        <ele>54.240606</ele>
        <time>2020-08-16T08:47:16.765Z</time>
      </trkpt>
      <trkpt lat="37.008269" lon="-5.906682">
        <ele>54.176143</ele>
        <time>2020-08-16T08:47:18.769Z</time>
      </trkpt>
      <trkpt lat="37.008205" lon="-5.906791">
        <ele>54.100419</ele>
        <time>2020-08-16T08:47:20.767Z</time>
      </trkpt>
      <trkpt lat="37.008140" lon="-5.906888">
        <ele>54.102378</ele>
        <time>2020-08-16T08:47:22.777Z</time>
      </trkpt>
      <trkpt lat="37.008077" lon="-5.906987">
        <ele>54.127732</ele>
        <time>2020-08-16T08:47:24.778Z</time>
      </trkpt>
      <trkpt lat="37.008015" lon="-5.907113">
        <ele>54.157375</ele>
        <time>2020-08-16T08:47:27.756Z</time>
      </trkpt>
      <trkpt lat="37.007948" lon="-5.907240">
        <ele>54.187861</ele>
        <time>2020-08-16T08:47:30.763Z</time>
      </trkpt>
      <trkpt lat="37.007878" lon="-5.907392">
        <ele>54.223004</ele>
        <time>2020-08-16T08:47:35.794Z</time>
      </trkpt>
      <trkpt lat="37.007771" lon="-5.907559">
        <ele>54.265887</ele>
        <time>2020-08-16T08:47:37.761Z</time>
      </trkpt>
      <trkpt lat="37.007700" lon="-5.907692">
        <ele>54.297930</ele>
        <time>2020-08-16T08:47:40.754Z</time>
      </trkpt>
      <trkpt lat="37.007651" lon="-5.907788">
        <ele>54.320750</ele>
        <time>2020-08-16T08:47:42.748Z</time>
      </trkpt>
      <trkpt lat="37.007555" lon="-5.907932">
        <ele>54.358321</ele>
        <time>2020-08-16T08:47:45.778Z</time>
      </trkpt>
      <trkpt lat="37.007468" lon="-5.908051">
        <ele>54.390635</ele>
        <time>2020-08-16T08:47:47.784Z</time>
      </trkpt>
      <trkpt lat="37.007415" lon="-5.908147">
        <ele>54.414010</ele>
        <time>2020-08-16T08:47:50.763Z</time>
      </trkpt>
      <trkpt lat="37.007346" lon="-5.908283">
        <ele>54.446282</ele>
        <time>2020-08-16T08:47:53.759Z</time>
      </trkpt>
      <trkpt lat="37.007255" lon="-5.908447">
        <ele>54.486281</ele>
        <time>2020-08-16T08:47:56.769Z</time>
      </trkpt>
      <trkpt lat="37.007169" lon="-5.908611">
        <ele>54.525577</ele>
        <time>2020-08-16T08:48:00.772Z</time>
      </trkpt>
      <trkpt lat="37.007119" lon="-5.908707">
        <ele>54.533512</ele>
        <time>2020-08-16T08:48:02.771Z</time>
      </trkpt>
      <trkpt lat="37.007058" lon="-5.908815">
        <ele>54.532032</ele>
        <time>2020-08-16T08:48:04.764Z</time>
      </trkpt>
      <trkpt lat="37.007005" lon="-5.908906">
        <ele>54.530773</ele>
        <time>2020-08-16T08:48:06.767Z</time>
      </trkpt>
      <trkpt lat="37.006938" lon="-5.909008">
        <ele>54.529296</ele>
        <time>2020-08-16T08:48:08.780Z</time>
      </trkpt>
      <trkpt lat="37.006889" lon="-5.909121">
        <ele>54.527858</ele>
        <time>2020-08-16T08:48:10.763Z</time>
      </trkpt>
      <trkpt lat="37.006836" lon="-5.909227">
        <ele>54.526459</ele>
        <time>2020-08-16T08:48:13.777Z</time>
      </trkpt>
      <trkpt lat="37.006774" lon="-5.909328">
        <ele>54.525035</ele>
        <time>2020-08-16T08:48:15.784Z</time>
      </trkpt>
      <trkpt lat="37.006674" lon="-5.909483">
        <ele>54.522806</ele>
        <time>2020-08-16T08:48:17.770Z</time>
      </trkpt>
      <trkpt lat="37.006599" lon="-5.909624">
        <ele>54.520912</ele>
        <time>2020-08-16T08:48:20.767Z</time>
      </trkpt>
      <trkpt lat="37.006548" lon="-5.909726">
        <ele>54.519566</ele>
        <time>2020-08-16T08:48:22.788Z</time>
      </trkpt>
      <trkpt lat="37.006486" lon="-5.909835">
        <ele>54.518069</ele>
        <time>2020-08-16T08:48:26.788Z</time>
      </trkpt>
      <trkpt lat="37.006407" lon="-5.909970">
        <ele>54.516198</ele>
        <time>2020-08-16T08:48:28.781Z</time>
      </trkpt>
      <trkpt lat="37.006345" lon="-5.910089">
        <ele>54.514609</ele>
        <time>2020-08-16T08:48:30.782Z</time>
      </trkpt>
      <trkpt lat="37.006279" lon="-5.910208">
        <ele>54.512988</ele>
        <time>2020-08-16T08:48:33.777Z</time>
      </trkpt>
      <trkpt lat="37.006232" lon="-5.910307">
        <ele>54.511700</ele>
        <time>2020-08-16T08:48:36.780Z</time>
      </trkpt>
      <trkpt lat="37.006169" lon="-5.910420">
        <ele>54.510159</ele>
        <time>2020-08-16T08:48:39.798Z</time>
      </trkpt>
      <trkpt lat="37.006099" lon="-5.910563">
        <ele>54.470537</ele>
        <time>2020-08-16T08:48:42.784Z</time>
      </trkpt>
      <trkpt lat="37.006031" lon="-5.910726">
        <ele>54.375458</ele>
        <time>2020-08-16T08:48:44.784Z</time>
      </trkpt>
      <trkpt lat="37.005972" lon="-5.910883">
        <ele>54.285748</ele>
        <time>2020-08-16T08:48:46.777Z</time>
      </trkpt>
      <trkpt lat="37.005924" lon="-5.911007">
        <ele>54.214504</ele>
        <time>2020-08-16T08:48:48.784Z</time>
      </trkpt>
      <trkpt lat="37.005869" lon="-5.911142">
        <ele>54.136148</ele>
        <time>2020-08-16T08:48:50.778Z</time>
      </trkpt>
      <trkpt lat="37.005805" lon="-5.911302">
        <ele>54.043629</ele>
        <time>2020-08-16T08:48:52.782Z</time>
      </trkpt>
      <trkpt lat="37.005749" lon="-5.911444">
        <ele>53.961749</ele>
        <time>2020-08-16T08:48:54.786Z</time>
      </trkpt>
      <trkpt lat="37.005714" lon="-5.911609">
        <ele>53.873483</ele>
        <time>2020-08-16T08:48:56.781Z</time>
      </trkpt>
      <trkpt lat="37.005665" lon="-5.911775">
        <ele>53.781983</ele>
        <time>2020-08-16T08:48:58.786Z</time>
      </trkpt>
      <trkpt lat="37.005626" lon="-5.911917">
        <ele>53.704347</ele>
        <time>2020-08-16T08:49:00.777Z</time>
      </trkpt>
      <trkpt lat="37.005605" lon="-5.912032">
        <ele>53.643355</ele>
        <time>2020-08-16T08:49:02.780Z</time>
      </trkpt>
      <trkpt lat="37.005658" lon="-5.911844">
        <ele>53.540277</ele>
        <time>2020-08-16T08:49:04.795Z</time>
      </trkpt>
      <trkpt lat="37.005619" lon="-5.912010">
        <ele>53.450816</ele>
        <time>2020-08-16T08:49:06.760Z</time>
      </trkpt>
      <trkpt lat="37.005597" lon="-5.912120">
        <ele>53.392188</ele>
        <time>2020-08-16T08:49:08.780Z</time>
      </trkpt>
      <trkpt lat="37.005568" lon="-5.912234">
        <ele>53.391599</ele>
        <time>2020-08-16T08:49:10.775Z</time>
      </trkpt>
      <trkpt lat="37.005554" lon="-5.912347">
        <ele>53.585641</ele>
        <time>2020-08-16T08:49:12.784Z</time>
      </trkpt>
      <trkpt lat="37.005534" lon="-5.912499">
        <ele>53.847045</ele>
        <time>2020-08-16T08:49:14.775Z</time>
      </trkpt>
      <trkpt lat="37.005540" lon="-5.912621">
        <ele>54.054457</ele>
        <time>2020-08-16T08:49:17.762Z</time>
      </trkpt>
      <trkpt lat="37.005533" lon="-5.912795">
        <ele>54.350089</ele>
        <time>2020-08-16T08:49:20.771Z</time>
      </trkpt>
      <trkpt lat="37.005532" lon="-5.912909">
        <ele>54.543546</ele>
        <time>2020-08-16T08:49:22.778Z</time>
      </trkpt>
      <trkpt lat="37.005535" lon="-5.913149">
        <ele>54.950848</ele>
        <time>2020-08-16T08:49:26.781Z</time>
      </trkpt>
      <trkpt lat="37.005524" lon="-5.913311">
        <ele>55.226735</ele>
        <time>2020-08-16T08:49:29.774Z</time>
      </trkpt>
      <trkpt lat="37.005534" lon="-5.913444">
        <ele>55.453419</ele>
        <time>2020-08-16T08:49:32.777Z</time>
      </trkpt>
      <trkpt lat="37.005531" lon="-5.913569">
        <ele>55.665625</ele>
        <time>2020-08-16T08:49:35.782Z</time>
      </trkpt>
      <trkpt lat="37.005529" lon="-5.913717">
        <ele>55.916800</ele>
        <time>2020-08-16T08:49:37.778Z</time>
      </trkpt>
      <trkpt lat="37.005563" lon="-5.913833">
        <ele>56.126478</ele>
        <time>2020-08-16T08:49:40.782Z</time>
      </trkpt>
      <trkpt lat="37.005590" lon="-5.913958">
        <ele>56.346210</ele>
        <time>2020-08-16T08:49:44.778Z</time>
      </trkpt>
      <trkpt lat="37.005602" lon="-5.914070">
        <ele>56.537964</ele>
        <time>2020-08-16T08:49:47.782Z</time>
      </trkpt>
      <trkpt lat="37.005623" lon="-5.914183">
        <ele>56.734836</ele>
        <time>2020-08-16T08:49:49.755Z</time>
      </trkpt>
      <trkpt lat="37.005634" lon="-5.914329">
        <ele>56.983681</ele>
        <time>2020-08-16T08:49:53.777Z</time>
      </trkpt>
      <trkpt lat="37.005551" lon="-5.914442">
        <ele>57.147031</ele>
        <time>2020-08-16T08:49:56.750Z</time>
      </trkpt>
      <trkpt lat="37.005486" lon="-5.914554">
        <ele>57.087991</ele>
        <time>2020-08-16T08:49:59.755Z</time>
      </trkpt>
      <trkpt lat="37.005413" lon="-5.914646">
        <ele>57.032686</ele>
        <time>2020-08-16T08:50:01.759Z</time>
      </trkpt>
      <trkpt lat="37.005339" lon="-5.914771">
        <ele>56.966334</ele>
        <time>2020-08-16T08:50:04.767Z</time>
      </trkpt>
      <trkpt lat="37.005243" lon="-5.914931">
        <ele>56.880993</ele>
        <time>2020-08-16T08:50:08.774Z</time>
      </trkpt>
      <trkpt lat="37.005068" lon="-5.915084">
        <ele>56.767023</ele>
        <time>2020-08-16T08:50:12.776Z</time>
      </trkpt>
      <trkpt lat="37.005028" lon="-5.915210">
        <ele>56.709203</ele>
        <time>2020-08-16T08:50:14.753Z</time>
      </trkpt>
      <trkpt lat="37.004976" lon="-5.915366">
        <ele>56.637118</ele>
        <time>2020-08-16T08:50:15.757Z</time>
      </trkpt>
      <trkpt lat="37.004860" lon="-5.915533">
        <ele>56.542734</ele>
        <time>2020-08-16T08:50:19.766Z</time>
      </trkpt>
      <trkpt lat="37.004879" lon="-5.915700">
        <ele>56.470801</ele>
        <time>2020-08-16T08:50:21.778Z</time>
      </trkpt>
      <trkpt lat="37.004775" lon="-5.915831">
        <ele>56.392031</ele>
        <time>2020-08-16T08:50:24.768Z</time>
      </trkpt>
      <trkpt lat="37.004837" lon="-5.915975">
        <ele>56.322269</ele>
        <time>2020-08-16T08:50:27.782Z</time>
      </trkpt>
      <trkpt lat="37.004722" lon="-5.916123">
        <ele>56.234211</ele>
        <time>2020-08-16T08:50:28.765Z</time>
      </trkpt>
      <trkpt lat="37.004769" lon="-5.916264">
        <ele>56.211893</ele>
        <time>2020-08-16T08:50:30.759Z</time>
      </trkpt>
      <trkpt lat="37.004806" lon="-5.916387">
        <ele>56.220659</ele>
        <time>2020-08-16T08:50:32.757Z</time>
      </trkpt>
      <trkpt lat="37.004771" lon="-5.916538">
        <ele>56.231145</ele>
        <time>2020-08-16T08:50:34.775Z</time>
      </trkpt>
      <trkpt lat="37.004738" lon="-5.916670">
        <ele>56.240369</ele>
        <time>2020-08-16T08:50:36.767Z</time>
      </trkpt>
      <trkpt lat="37.004648" lon="-5.916812">
        <ele>56.252460</ele>
        <time>2020-08-16T08:50:38.756Z</time>
      </trkpt>
      <trkpt lat="37.004593" lon="-5.916963">
        <ele>56.263529</ele>
        <time>2020-08-16T08:50:41.765Z</time>
      </trkpt>
      <trkpt lat="37.004547" lon="-5.917094">
        <ele>56.273073</ele>
        <time>2020-08-16T08:50:43.777Z</time>
      </trkpt>
      <trkpt lat="37.004521" lon="-5.917207">
        <ele>56.280915</ele>
        <time>2020-08-16T08:50:45.753Z</time>
      </trkpt>
      <trkpt lat="37.004493" lon="-5.917332">
        <ele>56.289574</ele>
        <time>2020-08-16T08:50:47.754Z</time>
      </trkpt>
      <trkpt lat="37.004481" lon="-5.917451">
        <ele>56.297573</ele>
        <time>2020-08-16T08:50:49.767Z</time>
      </trkpt>
      <trkpt lat="37.004467" lon="-5.917563">
        <ele>56.305134</ele>
        <time>2020-08-16T08:50:51.777Z</time>
      </trkpt>
      <trkpt lat="37.004435" lon="-5.917704">
        <ele>56.314910</ele>
        <time>2020-08-16T08:50:53.765Z</time>
      </trkpt>
      <trkpt lat="37.004380" lon="-5.917840">
        <ele>56.325077</ele>
        <time>2020-08-16T08:50:57.771Z</time>
      </trkpt>
      <trkpt lat="37.004327" lon="-5.917947">
        <ele>56.333474</ele>
        <time>2020-08-16T08:50:58.759Z</time>
      </trkpt>
      <trkpt lat="37.004329" lon="-5.918067">
        <ele>56.341479</ele>
        <time>2020-08-16T08:51:00.751Z</time>
      </trkpt>
      <trkpt lat="37.004278" lon="-5.918187">
        <ele>56.350545</ele>
        <time>2020-08-16T08:51:02.767Z</time>
      </trkpt>
      <trkpt lat="37.004271" lon="-5.918304">
        <ele>56.380529</ele>
        <time>2020-08-16T08:51:07.769Z</time>
      </trkpt>
      <trkpt lat="37.004229" lon="-5.918469">
        <ele>56.516325</ele>
        <time>2020-08-16T08:51:11.767Z</time>
      </trkpt>
      <trkpt lat="37.004174" lon="-5.918583">
        <ele>56.620763</ele>
        <time>2020-08-16T08:51:13.781Z</time>
      </trkpt>
      <trkpt lat="37.004106" lon="-5.918707">
        <ele>56.738713</ele>
        <time>2020-08-16T08:51:15.769Z</time>
      </trkpt>
      <trkpt lat="37.004037" lon="-5.918808">
        <ele>56.842936</ele>
        <time>2020-08-16T08:51:16.783Z</time>
      </trkpt>
      <trkpt lat="37.003950" lon="-5.918903">
        <ele>56.956279</ele>
        <time>2020-08-16T08:51:17.786Z</time>
      </trkpt>
      <trkpt lat="37.003859" lon="-5.918939">
        <ele>57.049985</ele>
        <time>2020-08-16T08:51:18.755Z</time>
      </trkpt>
      <trkpt lat="37.003831" lon="-5.919050">
        <ele>57.141263</ele>
        <time>2020-08-16T08:51:20.783Z</time>
      </trkpt>
      <trkpt lat="37.003808" lon="-5.919173">
        <ele>57.240321</ele>
        <time>2020-08-16T08:51:21.782Z</time>
      </trkpt>
      <trkpt lat="37.003697" lon="-5.919280">
        <ele>57.377866</ele>
        <time>2020-08-16T08:51:24.773Z</time>
      </trkpt>
      <trkpt lat="37.003634" lon="-5.919420">
        <ele>57.503874</ele>
        <time>2020-08-16T08:51:28.766Z</time>
      </trkpt>
      <trkpt lat="37.003633" lon="-5.919558">
        <ele>57.612090</ele>
        <time>2020-08-16T08:51:34.772Z</time>
      </trkpt>
      <trkpt lat="37.003563" lon="-5.919665">
        <ele>57.720552</ele>
        <time>2020-08-16T08:51:37.765Z</time>
      </trkpt>
      <trkpt lat="37.003494" lon="-5.919741">
        <ele>57.810783</ele>
        <time>2020-08-16T08:51:40.778Z</time>
      </trkpt>
      <trkpt lat="37.003437" lon="-5.919836">
        <ele>57.903959</ele>
        <time>2020-08-16T08:51:43.767Z</time>
      </trkpt>
      <trkpt lat="37.003348" lon="-5.919924">
        <ele>58.015307</ele>
        <time>2020-08-16T08:51:46.784Z</time>
      </trkpt>
      <trkpt lat="37.003260" lon="-5.919990">
        <ele>58.116027</ele>
        <time>2020-08-16T08:51:49.771Z</time>
      </trkpt>
      <trkpt lat="37.003179" lon="-5.920068">
        <ele>58.106894</ele>
        <time>2020-08-16T08:51:52.770Z</time>
      </trkpt>
      <trkpt lat="37.003112" lon="-5.920150">
        <ele>58.091723</ele>
        <time>2020-08-16T08:51:55.771Z</time>
      </trkpt>
      <trkpt lat="37.003034" lon="-5.920238">
        <ele>58.074721</ele>
        <time>2020-08-16T08:51:58.775Z</time>
      </trkpt>
      <trkpt lat="37.002953" lon="-5.920317">
        <ele>58.058095</ele>
        <time>2020-08-16T08:52:01.773Z</time>
      </trkpt>
      <trkpt lat="37.002874" lon="-5.920395">
        <ele>58.041803</ele>
        <time>2020-08-16T08:52:04.781Z</time>
      </trkpt>
      <trkpt lat="37.002783" lon="-5.920491">
        <ele>58.022534</ele>
        <time>2020-08-16T08:52:08.781Z</time>
      </trkpt>
      <trkpt lat="37.002692" lon="-5.920584">
        <ele>58.003513</ele>
        <time>2020-08-16T08:52:12.762Z</time>
      </trkpt>
      <trkpt lat="37.002622" lon="-5.920669">
        <ele>57.987722</ele>
        <time>2020-08-16T08:52:15.766Z</time>
      </trkpt>
      <trkpt lat="37.002550" lon="-5.920761">
        <ele>57.971064</ele>
        <time>2020-08-16T08:52:18.765Z</time>
      </trkpt>
      <trkpt lat="37.002485" lon="-5.920842">
        <ele>57.956214</ele>
        <time>2020-08-16T08:52:21.767Z</time>
      </trkpt>
      <trkpt lat="37.002422" lon="-5.920924">
        <ele>57.941498</ele>
        <time>2020-08-16T08:52:24.765Z</time>
      </trkpt>
      <trkpt lat="37.002356" lon="-5.921012">
        <ele>57.925886</ele>
        <time>2020-08-16T08:52:27.762Z</time>
      </trkpt>
      <trkpt lat="37.002283" lon="-5.921096">
        <ele>57.909831</ele>
        <time>2020-08-16T08:52:30.762Z</time>
      </trkpt>
      <trkpt lat="37.002208" lon="-5.921171">
        <ele>57.894288</ele>
        <time>2020-08-16T08:52:33.769Z</time>
      </trkpt>
      <trkpt lat="37.002135" lon="-5.921242">
        <ele>57.879319</ele>
        <time>2020-08-16T08:52:36.782Z</time>
      </trkpt>
      <trkpt lat="37.002060" lon="-5.921331">
        <ele>57.862587</ele>
        <time>2020-08-16T08:52:39.769Z</time>
      </trkpt>
      <trkpt lat="37.001994" lon="-5.921432">
        <ele>57.845709</ele>
        <time>2020-08-16T08:52:42.794Z</time>
      </trkpt>
      <trkpt lat="37.001925" lon="-5.921506">
        <ele>57.832689</ele>
        <time>2020-08-16T08:52:45.795Z</time>
      </trkpt>
      <trkpt lat="37.001852" lon="-5.921619">
        <ele>58.065767</ele>
        <time>2020-08-16T08:52:49.789Z</time>
      </trkpt>
      <trkpt lat="37.001797" lon="-5.921724">
        <ele>58.267138</ele>
        <time>2020-08-16T08:52:52.775Z</time>
      </trkpt>
      <trkpt lat="37.001725" lon="-5.921819">
        <ele>58.477168</ele>
        <time>2020-08-16T08:52:55.778Z</time>
      </trkpt>
      <trkpt lat="37.001639" lon="-5.921901">
        <ele>58.694226</ele>
        <time>2020-08-16T08:52:58.777Z</time>
      </trkpt>
      <trkpt lat="37.001580" lon="-5.921991">
        <ele>58.880953</ele>
        <time>2020-08-16T08:53:01.776Z</time>
      </trkpt>
      <trkpt lat="37.001524" lon="-5.922082">
        <ele>59.065185</ele>
        <time>2020-08-16T08:53:04.782Z</time>
      </trkpt>
      <trkpt lat="37.001458" lon="-5.922171">
        <ele>59.259954</ele>
        <time>2020-08-16T08:53:07.774Z</time>
      </trkpt>
      <trkpt lat="37.001387" lon="-5.922264">
        <ele>59.466276</ele>
        <time>2020-08-16T08:53:10.786Z</time>
      </trkpt>
      <trkpt lat="37.001314" lon="-5.922362">
        <ele>59.681187</ele>
        <time>2020-08-16T08:53:13.766Z</time>
      </trkpt>
      <trkpt lat="37.001244" lon="-5.922459">
        <ele>59.890842</ele>
        <time>2020-08-16T08:53:17.779Z</time>
      </trkpt>
      <trkpt lat="37.001177" lon="-5.922554">
        <ele>60.094091</ele>
        <time>2020-08-16T08:53:20.777Z</time>
      </trkpt>
      <trkpt lat="37.001102" lon="-5.922649">
        <ele>60.308313</ele>
        <time>2020-08-16T08:53:23.763Z</time>
      </trkpt>
      <trkpt lat="37.001028" lon="-5.922748">
        <ele>60.525767</ele>
        <time>2020-08-16T08:53:26.804Z</time>
      </trkpt>
      <trkpt lat="37.000952" lon="-5.922841">
        <ele>60.739152</ele>
        <time>2020-08-16T08:53:29.772Z</time>
      </trkpt>
      <trkpt lat="37.000872" lon="-5.922925">
        <ele>60.948800</ele>
        <time>2020-08-16T08:53:32.789Z</time>
      </trkpt>
      <trkpt lat="37.000798" lon="-5.923005">
        <ele>61.145115</ele>
        <time>2020-08-16T08:53:35.768Z</time>
      </trkpt>
      <trkpt lat="37.000721" lon="-5.923090">
        <ele>61.351241</ele>
        <time>2020-08-16T08:53:38.790Z</time>
      </trkpt>
      <trkpt lat="37.000660" lon="-5.923178">
        <ele>61.518569</ele>
        <time>2020-08-16T08:53:41.786Z</time>
      </trkpt>
      <trkpt lat="37.000596" lon="-5.923272">
        <ele>61.676021</ele>
        <time>2020-08-16T08:53:44.786Z</time>
      </trkpt>
      <trkpt lat="37.000516" lon="-5.923365">
        <ele>61.850252</ele>
        <time>2020-08-16T08:53:47.772Z</time>
      </trkpt>
      <trkpt lat="37.000437" lon="-5.923472">
        <ele>62.035997</ele>
        <time>2020-08-16T08:53:50.775Z</time>
      </trkpt>
      <trkpt lat="37.000348" lon="-5.923600">
        <ele>62.252329</ele>
        <time>2020-08-16T08:53:53.769Z</time>
      </trkpt>
      <trkpt lat="37.000283" lon="-5.923689">
        <ele>62.406060</ele>
        <time>2020-08-16T08:53:55.787Z</time>
      </trkpt>
      <trkpt lat="37.000218" lon="-5.923786">
        <ele>62.567463</ele>
        <time>2020-08-16T08:53:57.787Z</time>
      </trkpt>
      <trkpt lat="37.000137" lon="-5.923870">
        <ele>62.735328</ele>
        <time>2020-08-16T08:53:59.783Z</time>
      </trkpt>
      <trkpt lat="37.000056" lon="-5.923981">
        <ele>62.926987</ele>
        <time>2020-08-16T08:54:02.785Z</time>
      </trkpt>
      <trkpt lat="37.000004" lon="-5.924077">
        <ele>63.074848</ele>
        <time>2020-08-16T08:54:04.794Z</time>
      </trkpt>
      <trkpt lat="36.999944" lon="-5.924162">
        <ele>63.219452</ele>
        <time>2020-08-16T08:54:06.777Z</time>
      </trkpt>
      <trkpt lat="36.999878" lon="-5.924257">
        <ele>63.379953</ele>
        <time>2020-08-16T08:54:08.788Z</time>
      </trkpt>
      <trkpt lat="36.999813" lon="-5.924342">
        <ele>63.529962</ele>
        <time>2020-08-16T08:54:10.803Z</time>
      </trkpt>
      <trkpt lat="36.999741" lon="-5.924418">
        <ele>63.680265</ele>
        <time>2020-08-16T08:54:12.780Z</time>
      </trkpt>
      <trkpt lat="36.999670" lon="-5.924544">
        <ele>63.876830</ele>
        <time>2020-08-16T08:54:14.781Z</time>
      </trkpt>
      <trkpt lat="36.999578" lon="-5.924655">
        <ele>64.080745</ele>
        <time>2020-08-16T08:54:17.788Z</time>
      </trkpt>
      <trkpt lat="36.999504" lon="-5.924739">
        <ele>64.240166</ele>
        <time>2020-08-16T08:54:19.776Z</time>
      </trkpt>
      <trkpt lat="36.999434" lon="-5.924827">
        <ele>64.374151</ele>
        <time>2020-08-16T08:54:21.773Z</time>
      </trkpt>
      <trkpt lat="36.999362" lon="-5.924919">
        <ele>64.491251</ele>
        <time>2020-08-16T08:54:23.788Z</time>
      </trkpt>
      <trkpt lat="36.999298" lon="-5.925023">
        <ele>64.610609</ele>
        <time>2020-08-16T08:54:25.791Z</time>
      </trkpt>
      <trkpt lat="36.999225" lon="-5.925118">
        <ele>64.730458</ele>
        <time>2020-08-16T08:54:27.784Z</time>
      </trkpt>
      <trkpt lat="36.999153" lon="-5.925204">
        <ele>64.843726</ele>
        <time>2020-08-16T08:54:29.781Z</time>
      </trkpt>
      <trkpt lat="36.999081" lon="-5.925293">
        <ele>64.958894</ele>
        <time>2020-08-16T08:54:31.794Z</time>
      </trkpt>
      <trkpt lat="36.999015" lon="-5.925379">
        <ele>65.067323</ele>
        <time>2020-08-16T08:54:33.766Z</time>
      </trkpt>
      <trkpt lat="36.998944" lon="-5.925458">
        <ele>65.175442</ele>
        <time>2020-08-16T08:54:35.784Z</time>
      </trkpt>
      <trkpt lat="36.998876" lon="-5.925542">
        <ele>65.284176</ele>
        <time>2020-08-16T08:54:37.767Z</time>
      </trkpt>
      <trkpt lat="36.998795" lon="-5.925626">
        <ele>65.403897</ele>
        <time>2020-08-16T08:54:39.766Z</time>
      </trkpt>
      <trkpt lat="36.998721" lon="-5.925722">
        <ele>65.525191</ele>
        <time>2020-08-16T08:54:41.762Z</time>
      </trkpt>
      <trkpt lat="36.998642" lon="-5.925815">
        <ele>65.648621</ele>
        <time>2020-08-16T08:54:43.767Z</time>
      </trkpt>
      <trkpt lat="36.998558" lon="-5.925904">
        <ele>65.773878</ele>
        <time>2020-08-16T08:54:45.766Z</time>
      </trkpt>
      <trkpt lat="36.998473" lon="-5.925997">
        <ele>65.902369</ele>
        <time>2020-08-16T08:54:47.767Z</time>
      </trkpt>
      <trkpt lat="36.998386" lon="-5.926091">
        <ele>66.033175</ele>
        <time>2020-08-16T08:54:49.764Z</time>
      </trkpt>
      <trkpt lat="36.998307" lon="-5.926172">
        <ele>66.149404</ele>
        <time>2020-08-16T08:54:51.778Z</time>
      </trkpt>
      <trkpt lat="36.998220" lon="-5.926245">
        <ele>66.268618</ele>
        <time>2020-08-16T08:54:53.794Z</time>
      </trkpt>
      <trkpt lat="36.998130" lon="-5.926325">
        <ele>66.295769</ele>
        <time>2020-08-16T08:54:55.771Z</time>
      </trkpt>
      <trkpt lat="36.998017" lon="-5.926420">
        <ele>65.991221</ele>
        <time>2020-08-16T08:54:57.784Z</time>
      </trkpt>
      <trkpt lat="36.997912" lon="-5.926503">
        <ele>65.713377</ele>
        <time>2020-08-16T08:54:59.773Z</time>
      </trkpt>
      <trkpt lat="36.997812" lon="-5.926611">
        <ele>65.417888</ele>
        <time>2020-08-16T08:55:01.771Z</time>
      </trkpt>
      <trkpt lat="36.997704" lon="-5.926728">
        <ele>65.098338</ele>
        <time>2020-08-16T08:55:03.778Z</time>
      </trkpt>
      <trkpt lat="36.997584" lon="-5.926829">
        <ele>64.774809</ele>
        <time>2020-08-16T08:55:05.749Z</time>
      </trkpt>
      <trkpt lat="36.997453" lon="-5.926927">
        <ele>64.433360</ele>
        <time>2020-08-16T08:55:07.803Z</time>
      </trkpt>
      <trkpt lat="36.997320" lon="-5.927018">
        <ele>64.094234</ele>
        <time>2020-08-16T08:55:09.801Z</time>
      </trkpt>
      <trkpt lat="36.997190" lon="-5.927108">
        <ele>63.761851</ele>
        <time>2020-08-16T08:55:11.769Z</time>
      </trkpt>
      <trkpt lat="36.997052" lon="-5.927202">
        <ele>63.410336</ele>
        <time>2020-08-16T08:55:13.788Z</time>
      </trkpt>
      <trkpt lat="36.996902" lon="-5.927281">
        <ele>63.046223</ele>
        <time>2020-08-16T08:55:15.760Z</time>
      </trkpt>
      <trkpt lat="36.996764" lon="-5.927378">
        <ele>62.692115</ele>
        <time>2020-08-16T08:55:17.766Z</time>
      </trkpt>
      <trkpt lat="36.996625" lon="-5.927464">
        <ele>62.345198</ele>
        <time>2020-08-16T08:55:19.790Z</time>
      </trkpt>
      <trkpt lat="36.996489" lon="-5.927550">
        <ele>62.768340</ele>
        <time>2020-08-16T08:55:21.798Z</time>
      </trkpt>
      <trkpt lat="36.996350" lon="-5.927603">
        <ele>63.190908</ele>
        <time>2020-08-16T08:55:23.780Z</time>
      </trkpt>
      <trkpt lat="36.996227" lon="-5.927731">
        <ele>63.656037</ele>
        <time>2020-08-16T08:55:25.785Z</time>
      </trkpt>
      <trkpt lat="36.996119" lon="-5.927835">
        <ele>64.052271</ele>
        <time>2020-08-16T08:55:27.781Z</time>
      </trkpt>
      <trkpt lat="36.995980" lon="-5.927939">
        <ele>64.523186</ele>
        <time>2020-08-16T08:55:29.770Z</time>
      </trkpt>
      <trkpt lat="36.995858" lon="-5.927992">
        <ele>64.898736</ele>
        <time>2020-08-16T08:55:31.764Z</time>
      </trkpt>
      <trkpt lat="36.995748" lon="-5.928046">
        <ele>65.242347</ele>
        <time>2020-08-16T08:55:33.777Z</time>
      </trkpt>
      <trkpt lat="36.995654" lon="-5.928105">
        <ele>65.548143</ele>
        <time>2020-08-16T08:55:35.780Z</time>
      </trkpt>
      <trkpt lat="36.995555" lon="-5.928175">
        <ele>65.878792</ele>
        <time>2020-08-16T08:55:37.780Z</time>
      </trkpt>
      <trkpt lat="36.995466" lon="-5.928266">
        <ele>66.212961</ele>
        <time>2020-08-16T08:55:39.761Z</time>
      </trkpt>
      <trkpt lat="36.995387" lon="-5.928349">
        <ele>66.512878</ele>
        <time>2020-08-16T08:55:41.763Z</time>
      </trkpt>
      <trkpt lat="36.995299" lon="-5.928409">
        <ele>66.804285</ele>
        <time>2020-08-16T08:55:43.787Z</time>
      </trkpt>
      <trkpt lat="36.995216" lon="-5.928484">
        <ele>67.101962</ele>
        <time>2020-08-16T08:55:45.776Z</time>
      </trkpt>
      <trkpt lat="36.995106" lon="-5.928573">
        <ele>67.482845</ele>
        <time>2020-08-16T08:55:48.765Z</time>
      </trkpt>
      <trkpt lat="36.995023" lon="-5.928642">
        <ele>67.642416</ele>
        <time>2020-08-16T08:55:50.778Z</time>
      </trkpt>
      <trkpt lat="36.994945" lon="-5.928731">
        <ele>67.754691</ele>
        <time>2020-08-16T08:55:52.771Z</time>
      </trkpt>
      <trkpt lat="36.994851" lon="-5.928826">
        <ele>67.883212</ele>
        <time>2020-08-16T08:55:54.799Z</time>
      </trkpt>
      <trkpt lat="36.994764" lon="-5.928906">
        <ele>67.998053</ele>
        <time>2020-08-16T08:55:56.764Z</time>
      </trkpt>
      <trkpt lat="36.994685" lon="-5.928990">
        <ele>68.108320</ele>
        <time>2020-08-16T08:55:58.757Z</time>
      </trkpt>
      <trkpt lat="36.994588" lon="-5.929065">
        <ele>68.229610</ele>
        <time>2020-08-16T08:56:00.774Z</time>
      </trkpt>
      <trkpt lat="36.994506" lon="-5.929155">
        <ele>68.345625</ele>
        <time>2020-08-16T08:56:02.767Z</time>
      </trkpt>
      <trkpt lat="36.994406" lon="-5.929228">
        <ele>68.468778</ele>
        <time>2020-08-16T08:56:04.778Z</time>
      </trkpt>
      <trkpt lat="36.994328" lon="-5.929295">
        <ele>68.569414</ele>
        <time>2020-08-16T08:56:06.787Z</time>
      </trkpt>
      <trkpt lat="36.994263" lon="-5.929375">
        <ele>68.666385</ele>
        <time>2020-08-16T08:56:08.762Z</time>
      </trkpt>
      <trkpt lat="36.994163" lon="-5.929477">
        <ele>68.803611</ele>
        <time>2020-08-16T08:56:11.768Z</time>
      </trkpt>
      <trkpt lat="36.994099" lon="-5.929558">
        <ele>68.900429</ele>
        <time>2020-08-16T08:56:13.742Z</time>
      </trkpt>
      <trkpt lat="36.994007" lon="-5.929664">
        <ele>69.033445</ele>
        <time>2020-08-16T08:56:16.777Z</time>
      </trkpt>
      <trkpt lat="36.993891" lon="-5.929752">
        <ele>69.177744</ele>
        <time>2020-08-16T08:56:19.764Z</time>
      </trkpt>
      <trkpt lat="36.993817" lon="-5.929825">
        <ele>69.277974</ele>
        <time>2020-08-16T08:56:21.782Z</time>
      </trkpt>
      <trkpt lat="36.993744" lon="-5.929897">
        <ele>69.376843</ele>
        <time>2020-08-16T08:56:23.772Z</time>
      </trkpt>
      <trkpt lat="36.993644" lon="-5.929968">
        <ele>69.466660</ele>
        <time>2020-08-16T08:56:25.783Z</time>
      </trkpt>
      <trkpt lat="36.993530" lon="-5.930058">
        <ele>69.354683</ele>
        <time>2020-08-16T08:56:27.782Z</time>
      </trkpt>
      <trkpt lat="36.993440" lon="-5.930125">
        <ele>69.267685</ele>
        <time>2020-08-16T08:56:29.782Z</time>
      </trkpt>
      <trkpt lat="36.993372" lon="-5.930230">
        <ele>69.177978</ele>
        <time>2020-08-16T08:56:31.770Z</time>
      </trkpt>
      <trkpt lat="36.993261" lon="-5.930333">
        <ele>69.063184</ele>
        <time>2020-08-16T08:56:34.803Z</time>
      </trkpt>
      <trkpt lat="36.993171" lon="-5.930443">
        <ele>68.958683</ele>
        <time>2020-08-16T08:56:36.784Z</time>
      </trkpt>
      <trkpt lat="36.993097" lon="-5.930522">
        <ele>68.877882</ele>
        <time>2020-08-16T08:56:38.779Z</time>
      </trkpt>
      <trkpt lat="36.993028" lon="-5.930608">
        <ele>68.796988</ele>
        <time>2020-08-16T08:56:40.773Z</time>
      </trkpt>
      <trkpt lat="36.992955" lon="-5.930699">
        <ele>68.711398</ele>
        <time>2020-08-16T08:56:42.788Z</time>
      </trkpt>
      <trkpt lat="36.992880" lon="-5.930783">
        <ele>68.627788</ele>
        <time>2020-08-16T08:56:44.786Z</time>
      </trkpt>
      <trkpt lat="36.992803" lon="-5.930872">
        <ele>68.540717</ele>
        <time>2020-08-16T08:56:46.774Z</time>
      </trkpt>
      <trkpt lat="36.992725" lon="-5.930957">
        <ele>68.454799</ele>
        <time>2020-08-16T08:56:48.785Z</time>
      </trkpt>
      <trkpt lat="36.992652" lon="-5.931068">
        <ele>68.359379</ele>
        <time>2020-08-16T08:56:50.776Z</time>
      </trkpt>
      <trkpt lat="36.992576" lon="-5.931147">
        <ele>68.277307</ele>
        <time>2020-08-16T08:56:52.765Z</time>
      </trkpt>
      <trkpt lat="36.992508" lon="-5.931244">
        <ele>68.191657</ele>
        <time>2020-08-16T08:56:54.771Z</time>
      </trkpt>
      <trkpt lat="36.992441" lon="-5.931342">
        <ele>68.106050</ele>
        <time>2020-08-16T08:56:56.773Z</time>
      </trkpt>
      <trkpt lat="36.992362" lon="-5.931435">
        <ele>68.015954</ele>
        <time>2020-08-16T08:56:58.771Z</time>
      </trkpt>
      <trkpt lat="36.992298" lon="-5.931517">
        <ele>67.921310</ele>
        <time>2020-08-16T08:57:00.788Z</time>
      </trkpt>
      <trkpt lat="36.992228" lon="-5.931611">
        <ele>67.802059</ele>
        <time>2020-08-16T08:57:02.784Z</time>
      </trkpt>
      <trkpt lat="36.992146" lon="-5.931705">
        <ele>67.672898</ele>
        <time>2020-08-16T08:57:04.776Z</time>
      </trkpt>
      <trkpt lat="36.992077" lon="-5.931811">
        <ele>67.546013</ele>
        <time>2020-08-16T08:57:06.771Z</time>
      </trkpt>
      <trkpt lat="36.992014" lon="-5.931908">
        <ele>67.430006</ele>
        <time>2020-08-16T08:57:08.769Z</time>
      </trkpt>
      <trkpt lat="36.991951" lon="-5.932011">
        <ele>67.309628</ele>
        <time>2020-08-16T08:57:10.791Z</time>
      </trkpt>
      <trkpt lat="36.991881" lon="-5.932085">
        <ele>67.203195</ele>
        <time>2020-08-16T08:57:12.767Z</time>
      </trkpt>
      <trkpt lat="36.991803" lon="-5.932171">
        <ele>67.082451</ele>
        <time>2020-08-16T08:57:14.795Z</time>
      </trkpt>
      <trkpt lat="36.991732" lon="-5.932251">
        <ele>66.971483</ele>
        <time>2020-08-16T08:57:16.779Z</time>
      </trkpt>
      <trkpt lat="36.991663" lon="-5.932347">
        <ele>66.851648</ele>
        <time>2020-08-16T08:57:18.802Z</time>
      </trkpt>
      <trkpt lat="36.991590" lon="-5.932464">
        <ele>66.713886</ele>
        <time>2020-08-16T08:57:20.769Z</time>
      </trkpt>
      <trkpt lat="36.991511" lon="-5.932579">
        <ele>66.573138</ele>
        <time>2020-08-16T08:57:22.764Z</time>
      </trkpt>
      <trkpt lat="36.991402" lon="-5.932706">
        <ele>66.400159</ele>
        <time>2020-08-16T08:57:24.759Z</time>
      </trkpt>
      <trkpt lat="36.991331" lon="-5.932803">
        <ele>66.278074</ele>
        <time>2020-08-16T08:57:26.755Z</time>
      </trkpt>
      <trkpt lat="36.991275" lon="-5.932896">
        <ele>66.170003</ele>
        <time>2020-08-16T08:57:28.796Z</time>
      </trkpt>
      <trkpt lat="36.991215" lon="-5.933016">
        <ele>66.038636</ele>
        <time>2020-08-16T08:57:30.779Z</time>
      </trkpt>
      <trkpt lat="36.991127" lon="-5.933123">
        <ele>65.895529</ele>
        <time>2020-08-16T08:57:32.769Z</time>
      </trkpt>
      <trkpt lat="36.991089" lon="-5.933247">
        <ele>65.681041</ele>
        <time>2020-08-16T08:57:33.786Z</time>
      </trkpt>
      <trkpt lat="36.990982" lon="-5.933375">
        <ele>65.381817</ele>
        <time>2020-08-16T08:57:35.776Z</time>
      </trkpt>
      <trkpt lat="36.990902" lon="-5.933524">
        <ele>65.091875</ele>
        <time>2020-08-16T08:57:38.800Z</time>
      </trkpt>
      <trkpt lat="36.990818" lon="-5.933630">
        <ele>64.850732</ele>
        <time>2020-08-16T08:57:40.778Z</time>
      </trkpt>
      <trkpt lat="36.990739" lon="-5.933693">
        <ele>64.661351</ele>
        <time>2020-08-16T08:57:41.786Z</time>
      </trkpt>
      <trkpt lat="36.990613" lon="-5.933802">
        <ele>64.351691</ele>
        <time>2020-08-16T08:57:43.770Z</time>
      </trkpt>
      <trkpt lat="36.990528" lon="-5.933939">
        <ele>64.071533</ele>
        <time>2020-08-16T08:57:45.775Z</time>
      </trkpt>
      <trkpt lat="36.990446" lon="-5.933991">
        <ele>63.885682</ele>
        <time>2020-08-16T08:57:46.783Z</time>
      </trkpt>
      <trkpt lat="36.990385" lon="-5.934078">
        <ele>63.698726</ele>
        <time>2020-08-16T08:57:48.776Z</time>
      </trkpt>
      <trkpt lat="36.990274" lon="-5.934176">
        <ele>63.424103</ele>
        <time>2020-08-16T08:57:50.759Z</time>
      </trkpt>
      <trkpt lat="36.990150" lon="-5.934301">
        <ele>63.102217</ele>
        <time>2020-08-16T08:57:52.776Z</time>
      </trkpt>
      <trkpt lat="36.990030" lon="-5.934427">
        <ele>62.785554</ele>
        <time>2020-08-16T08:57:54.770Z</time>
      </trkpt>
      <trkpt lat="36.989898" lon="-5.934548">
        <ele>62.454772</ele>
        <time>2020-08-16T08:57:56.775Z</time>
      </trkpt>
      <trkpt lat="36.989764" lon="-5.934672">
        <ele>62.173507</ele>
        <time>2020-08-16T08:57:58.781Z</time>
      </trkpt>
      <trkpt lat="36.989661" lon="-5.934767">
        <ele>62.015928</ele>
        <time>2020-08-16T08:58:00.773Z</time>
      </trkpt>
      <trkpt lat="36.989548" lon="-5.934902">
        <ele>61.823539</ele>
        <time>2020-08-16T08:58:02.773Z</time>
      </trkpt>
      <trkpt lat="36.989421" lon="-5.934993">
        <ele>61.643300</ele>
        <time>2020-08-16T08:58:04.760Z</time>
      </trkpt>
      <trkpt lat="36.989334" lon="-5.935129">
        <ele>61.471875</ele>
        <time>2020-08-16T08:58:06.776Z</time>
      </trkpt>
      <trkpt lat="36.989211" lon="-5.935230">
        <ele>61.290691</ele>
        <time>2020-08-16T08:58:08.769Z</time>
      </trkpt>
      <trkpt lat="36.989095" lon="-5.935318">
        <ele>61.123626</ele>
        <time>2020-08-16T08:58:10.767Z</time>
      </trkpt>
      <trkpt lat="36.988955" lon="-5.935385">
        <ele>60.939013</ele>
        <time>2020-08-16T08:58:12.765Z</time>
      </trkpt>
      <trkpt lat="36.988858" lon="-5.935522">
        <ele>60.758895</ele>
        <time>2020-08-16T08:58:14.769Z</time>
      </trkpt>
      <trkpt lat="36.988784" lon="-5.935585">
        <ele>60.648668</ele>
        <time>2020-08-16T08:58:15.779Z</time>
      </trkpt>
      <trkpt lat="36.988640" lon="-5.935669">
        <ele>60.452990</ele>
        <time>2020-08-16T08:58:17.784Z</time>
      </trkpt>
      <trkpt lat="36.988511" lon="-5.935725">
        <ele>60.284815</ele>
        <time>2020-08-16T08:58:19.789Z</time>
      </trkpt>
      <trkpt lat="36.988415" lon="-5.935801">
        <ele>60.144910</ele>
        <time>2020-08-16T08:58:21.777Z</time>
      </trkpt>
      <trkpt lat="36.988281" lon="-5.935898">
        <ele>60.060304</ele>
        <time>2020-08-16T08:58:23.767Z</time>
      </trkpt>
      <trkpt lat="36.988164" lon="-5.935958">
        <ele>60.086971</ele>
        <time>2020-08-16T08:58:25.784Z</time>
      </trkpt>
      <trkpt lat="36.988062" lon="-5.935996">
        <ele>60.109417</ele>
        <time>2020-08-16T08:58:27.778Z</time>
      </trkpt>
      <trkpt lat="36.987946" lon="-5.936067">
        <ele>60.136652</ele>
        <time>2020-08-16T08:58:29.784Z</time>
      </trkpt>
      <trkpt lat="36.987847" lon="-5.936161">
        <ele>60.162859</ele>
        <time>2020-08-16T08:58:31.781Z</time>
      </trkpt>
      <trkpt lat="36.987714" lon="-5.936242">
        <ele>60.194054</ele>
        <time>2020-08-16T08:58:33.778Z</time>
      </trkpt>
      <trkpt lat="36.987618" lon="-5.936318">
        <ele>60.218012</ele>
        <time>2020-08-16T08:58:35.774Z</time>
      </trkpt>
      <trkpt lat="36.987505" lon="-5.936395">
        <ele>60.245147</ele>
        <time>2020-08-16T08:58:37.773Z</time>
      </trkpt>
      <trkpt lat="36.987405" lon="-5.936479">
        <ele>60.270547</ele>
        <time>2020-08-16T08:58:39.777Z</time>
      </trkpt>
      <trkpt lat="36.987299" lon="-5.936551">
        <ele>60.295983</ele>
        <time>2020-08-16T08:58:41.776Z</time>
      </trkpt>
      <trkpt lat="36.987226" lon="-5.936667">
        <ele>60.320863</ele>
        <time>2020-08-16T08:58:43.775Z</time>
      </trkpt>
      <trkpt lat="36.987173" lon="-5.936768">
        <ele>60.341223</ele>
        <time>2020-08-16T08:58:45.768Z</time>
      </trkpt>
      <trkpt lat="36.987093" lon="-5.936832">
        <ele>60.361247</ele>
        <time>2020-08-16T08:58:47.792Z</time>
      </trkpt>
      <trkpt lat="36.987005" lon="-5.936904">
        <ele>60.383421</ele>
        <time>2020-08-16T08:58:49.786Z</time>
      </trkpt>
      <trkpt lat="36.986922" lon="-5.936999">
        <ele>60.407141</ele>
        <time>2020-08-16T08:58:52.773Z</time>
      </trkpt>
      <trkpt lat="36.986850" lon="-5.937079">
        <ele>60.424169</ele>
        <time>2020-08-16T08:58:54.772Z</time>
      </trkpt>
      <trkpt lat="36.986767" lon="-5.937183">
        <ele>60.424169</ele>
        <time>2020-08-16T08:58:57.765Z</time>
      </trkpt>
      <trkpt lat="36.986680" lon="-5.937323">
        <ele>60.424169</ele>
        <time>2020-08-16T08:59:00.771Z</time>
      </trkpt>
      <trkpt lat="36.986586" lon="-5.937425">
        <ele>60.424169</ele>
        <time>2020-08-16T08:59:03.761Z</time>
      </trkpt>
      <trkpt lat="36.986503" lon="-5.937527">
        <ele>60.424169</ele>
        <time>2020-08-16T08:59:06.768Z</time>
      </trkpt>
      <trkpt lat="36.986407" lon="-5.937605">
        <ele>60.424169</ele>
        <time>2020-08-16T08:59:09.763Z</time>
      </trkpt>
      <trkpt lat="36.986293" lon="-5.937701">
        <ele>60.424169</ele>
        <time>2020-08-16T08:59:13.762Z</time>
      </trkpt>
      <trkpt lat="36.986237" lon="-5.937792">
        <ele>60.424169</ele>
        <time>2020-08-16T08:59:16.779Z</time>
      </trkpt>
      <trkpt lat="36.986208" lon="-5.937905">
        <ele>60.424169</ele>
        <time>2020-08-16T08:59:21.753Z</time>
      </trkpt>
      <trkpt lat="36.986295" lon="-5.937990">
        <ele>60.424169</ele>
        <time>2020-08-16T08:59:24.760Z</time>
      </trkpt>
      <trkpt lat="36.986382" lon="-5.938065">
        <ele>60.424169</ele>
        <time>2020-08-16T08:59:27.780Z</time>
      </trkpt>
      <trkpt lat="36.986467" lon="-5.938119">
        <ele>60.424169</ele>
        <time>2020-08-16T08:59:30.775Z</time>
      </trkpt>
      <trkpt lat="36.986574" lon="-5.938165">
        <ele>60.424169</ele>
        <time>2020-08-16T08:59:33.756Z</time>
      </trkpt>
      <trkpt lat="36.986675" lon="-5.938210">
        <ele>60.424169</ele>
        <time>2020-08-16T08:59:36.777Z</time>
      </trkpt>
      <trkpt lat="36.986776" lon="-5.938258">
        <ele>60.424169</ele>
        <time>2020-08-16T08:59:39.774Z</time>
      </trkpt>
      <trkpt lat="36.986877" lon="-5.938283">
        <ele>60.424169</ele>
        <time>2020-08-16T08:59:42.782Z</time>
      </trkpt>
      <trkpt lat="36.986976" lon="-5.938310">
        <ele>60.424169</ele>
        <time>2020-08-16T08:59:45.772Z</time>
      </trkpt>
      <trkpt lat="36.987084" lon="-5.938317">
        <ele>60.424169</ele>
        <time>2020-08-16T08:59:48.770Z</time>
      </trkpt>
      <trkpt lat="36.987172" lon="-5.938282">
        <ele>60.424169</ele>
        <time>2020-08-16T08:59:53.787Z</time>
      </trkpt>
      <trkpt lat="36.987093" lon="-5.938255">
        <ele>60.424169</ele>
        <time>2020-08-16T09:00:04.449Z</time>
      </trkpt>
      <trkpt lat="36.986343" lon="-5.938078">
        <ele>73.255028</ele>
        <time>2020-08-17T06:02:48.377Z</time>
      </trkpt>
      <trkpt lat="36.986463" lon="-5.938194">
        <ele>73.255028</ele>
        <time>2020-08-17T06:03:39.051Z</time>
      </trkpt>
      <trkpt lat="36.986505" lon="-5.938311">
        <ele>73.255028</ele>
        <time>2020-08-17T06:03:43.053Z</time>
      </trkpt>
      <trkpt lat="36.986488" lon="-5.938432">
        <ele>73.255028</ele>
        <time>2020-08-17T06:03:46.061Z</time>
      </trkpt>
      <trkpt lat="36.986475" lon="-5.938546">
        <ele>73.255028</ele>
        <time>2020-08-17T06:03:49.056Z</time>
      </trkpt>
      <trkpt lat="36.986476" lon="-5.938678">
        <ele>73.255028</ele>
        <time>2020-08-17T06:03:52.051Z</time>
      </trkpt>
      <trkpt lat="36.986450" lon="-5.938810">
        <ele>73.255028</ele>
        <time>2020-08-17T06:03:55.075Z</time>
      </trkpt>
      <trkpt lat="36.986390" lon="-5.938914">
        <ele>73.255028</ele>
        <time>2020-08-17T06:03:58.039Z</time>
      </trkpt>
      <trkpt lat="36.986321" lon="-5.939032">
        <ele>73.255028</ele>
        <time>2020-08-17T06:04:01.048Z</time>
      </trkpt>
      <trkpt lat="36.986238" lon="-5.939109">
        <ele>73.334744</ele>
        <time>2020-08-17T06:04:04.048Z</time>
      </trkpt>
      <trkpt lat="36.986128" lon="-5.939150">
        <ele>73.447001</ele>
        <time>2020-08-17T06:04:08.039Z</time>
      </trkpt>
      <trkpt lat="36.986022" lon="-5.939164">
        <ele>73.551253</ele>
        <time>2020-08-17T06:04:12.067Z</time>
      </trkpt>
      <trkpt lat="36.985933" lon="-5.939209">
        <ele>73.645135</ele>
        <time>2020-08-17T06:04:16.061Z</time>
      </trkpt>
      <trkpt lat="36.985834" lon="-5.939243">
        <ele>73.745543</ele>
        <time>2020-08-17T06:04:21.061Z</time>
      </trkpt>
      <trkpt lat="36.985735" lon="-5.939277">
        <ele>73.845951</ele>
        <time>2020-08-17T06:04:26.064Z</time>
      </trkpt>
      <trkpt lat="36.985641" lon="-5.939337">
        <ele>73.949152</ele>
        <time>2020-08-17T06:04:31.060Z</time>
      </trkpt>
      <trkpt lat="36.985548" lon="-5.939394">
        <ele>74.050430</ele>
        <time>2020-08-17T06:04:35.055Z</time>
      </trkpt>
      <trkpt lat="36.985443" lon="-5.939433">
        <ele>74.157554</ele>
        <time>2020-08-17T06:04:39.057Z</time>
      </trkpt>
      <trkpt lat="36.985366" lon="-5.939496">
        <ele>74.247524</ele>
        <time>2020-08-17T06:04:43.064Z</time>
      </trkpt>
      <trkpt lat="36.985290" lon="-5.939574">
        <ele>74.343646</ele>
        <time>2020-08-17T06:04:47.061Z</time>
      </trkpt>
      <trkpt lat="36.985211" lon="-5.939637">
        <ele>74.435260</ele>
        <time>2020-08-17T06:04:51.062Z</time>
      </trkpt>
      <trkpt lat="36.985127" lon="-5.939696">
        <ele>74.529467</ele>
        <time>2020-08-17T06:04:55.070Z</time>
      </trkpt>
      <trkpt lat="36.985031" lon="-5.939755">
        <ele>74.634068</ele>
        <time>2020-08-17T06:04:59.064Z</time>
      </trkpt>
      <trkpt lat="36.984935" lon="-5.939809">
        <ele>74.737007</ele>
        <time>2020-08-17T06:05:02.079Z</time>
      </trkpt>
      <trkpt lat="36.984807" lon="-5.939890">
        <ele>74.877288</ele>
        <time>2020-08-17T06:05:05.065Z</time>
      </trkpt>
      <trkpt lat="36.984709" lon="-5.939952">
        <ele>74.984685</ele>
        <time>2020-08-17T06:05:07.056Z</time>
      </trkpt>
      <trkpt lat="36.984608" lon="-5.939998">
        <ele>75.322523</ele>
        <time>2020-08-17T06:05:09.063Z</time>
      </trkpt>
      <trkpt lat="36.984478" lon="-5.940084">
        <ele>75.909324</ele>
        <time>2020-08-17T06:05:12.061Z</time>
      </trkpt>
      <trkpt lat="36.984351" lon="-5.940146">
        <ele>76.453343</ele>
        <time>2020-08-17T06:05:14.060Z</time>
      </trkpt>
      <trkpt lat="36.984238" lon="-5.940193">
        <ele>76.928554</ele>
        <time>2020-08-17T06:05:16.055Z</time>
      </trkpt>
      <trkpt lat="36.984137" lon="-5.940286">
        <ele>77.428927</ele>
        <time>2020-08-17T06:05:18.071Z</time>
      </trkpt>
      <trkpt lat="36.984027" lon="-5.940338">
        <ele>77.898183</ele>
        <time>2020-08-17T06:05:20.066Z</time>
      </trkpt>
      <trkpt lat="36.983916" lon="-5.940396">
        <ele>78.378212</ele>
        <time>2020-08-17T06:05:22.058Z</time>
      </trkpt>
      <trkpt lat="36.983814" lon="-5.940468">
        <ele>78.845537</ele>
        <time>2020-08-17T06:05:24.064Z</time>
      </trkpt>
      <trkpt lat="36.983727" lon="-5.940519">
        <ele>79.228926</ele>
        <time>2020-08-17T06:05:26.068Z</time>
      </trkpt>
      <trkpt lat="36.983656" lon="-5.940604">
        <ele>79.620995</ele>
        <time>2020-08-17T06:05:30.061Z</time>
      </trkpt>
      <trkpt lat="36.983554" lon="-5.940666">
        <ele>80.073515</ele>
        <time>2020-08-17T06:05:35.056Z</time>
      </trkpt>
      <trkpt lat="36.983471" lon="-5.940732">
        <ele>80.465935</ele>
        <time>2020-08-17T06:05:39.061Z</time>
      </trkpt>
      <trkpt lat="36.983392" lon="-5.940803">
        <ele>80.854051</ele>
        <time>2020-08-17T06:05:42.062Z</time>
      </trkpt>
      <trkpt lat="36.983306" lon="-5.940877">
        <ele>81.270526</ele>
        <time>2020-08-17T06:05:45.050Z</time>
      </trkpt>
      <trkpt lat="36.983222" lon="-5.940946">
        <ele>81.671487</ele>
        <time>2020-08-17T06:05:48.079Z</time>
      </trkpt>
      <trkpt lat="36.983135" lon="-5.941014">
        <ele>82.080814</ele>
        <time>2020-08-17T06:05:51.046Z</time>
      </trkpt>
      <trkpt lat="36.983051" lon="-5.941089">
        <ele>82.666559</ele>
        <time>2020-08-17T06:05:55.068Z</time>
      </trkpt>
      <trkpt lat="36.982948" lon="-5.941064">
        <ele>83.328006</ele>
        <time>2020-08-17T06:06:00.042Z</time>
      </trkpt>
      <trkpt lat="36.982865" lon="-5.940996">
        <ele>83.953370</ele>
        <time>2020-08-17T06:06:03.041Z</time>
      </trkpt>
      <trkpt lat="36.982787" lon="-5.940913">
        <ele>84.598762</ele>
        <time>2020-08-17T06:06:06.072Z</time>
      </trkpt>
      <trkpt lat="36.982694" lon="-5.940906">
        <ele>85.186131</ele>
        <time>2020-08-17T06:06:09.048Z</time>
      </trkpt>
      <trkpt lat="36.982593" lon="-5.940957">
        <ele>85.872726</ele>
        <time>2020-08-17T06:06:13.063Z</time>
      </trkpt>
      <trkpt lat="36.982502" lon="-5.941009">
        <ele>86.503370</ele>
        <time>2020-08-17T06:06:17.059Z</time>
      </trkpt>
      <trkpt lat="36.982398" lon="-5.941067">
        <ele>87.221149</ele>
        <time>2020-08-17T06:06:21.064Z</time>
      </trkpt>
      <trkpt lat="36.982306" lon="-5.941110">
        <ele>87.840263</ele>
        <time>2020-08-17T06:06:25.060Z</time>
      </trkpt>
      <trkpt lat="36.982218" lon="-5.941181">
        <ele>88.500294</ele>
        <time>2020-08-17T06:06:29.060Z</time>
      </trkpt>
      <trkpt lat="36.982136" lon="-5.941237">
        <ele>89.089180</ele>
        <time>2020-08-17T06:06:33.055Z</time>
      </trkpt>
      <trkpt lat="36.982052" lon="-5.941286">
        <ele>89.673423</ele>
        <time>2020-08-17T06:06:39.060Z</time>
      </trkpt>
      <trkpt lat="36.981945" lon="-5.941330">
        <ele>90.383458</ele>
        <time>2020-08-17T06:06:44.060Z</time>
      </trkpt>
      <trkpt lat="36.981849" lon="-5.941368">
        <ele>91.018217</ele>
        <time>2020-08-17T06:06:48.077Z</time>
      </trkpt>
      <trkpt lat="36.981764" lon="-5.941406">
        <ele>91.587238</ele>
        <time>2020-08-17T06:06:53.053Z</time>
      </trkpt>
      <trkpt lat="36.981670" lon="-5.941401">
        <ele>92.180388</ele>
        <time>2020-08-17T06:06:57.049Z</time>
      </trkpt>
      <trkpt lat="36.981626" lon="-5.941299">
        <ele>92.764187</ele>
        <time>2020-08-17T06:07:02.056Z</time>
      </trkpt>
      <trkpt lat="36.981577" lon="-5.941174">
        <ele>93.465416</ele>
        <time>2020-08-17T06:07:07.074Z</time>
      </trkpt>
      <trkpt lat="36.981529" lon="-5.941066">
        <ele>93.809183</ele>
        <time>2020-08-17T06:07:12.068Z</time>
      </trkpt>
      <trkpt lat="36.981423" lon="-5.941043">
        <ele>94.147497</ele>
        <time>2020-08-17T06:07:32.056Z</time>
      </trkpt>
      <trkpt lat="36.981313" lon="-5.941074">
        <ele>94.502077</ele>
        <time>2020-08-17T06:07:37.081Z</time>
      </trkpt>
      <trkpt lat="36.981201" lon="-5.941070">
        <ele>94.854433</ele>
        <time>2020-08-17T06:07:41.075Z</time>
      </trkpt>
      <trkpt lat="36.981103" lon="-5.941056">
        <ele>95.164618</ele>
        <time>2020-08-17T06:07:45.077Z</time>
      </trkpt>
      <trkpt lat="36.980988" lon="-5.941068">
        <ele>95.527519</ele>
        <time>2020-08-17T06:07:50.078Z</time>
      </trkpt>
      <trkpt lat="36.980882" lon="-5.941100">
        <ele>95.870419</ele>
        <time>2020-08-17T06:07:54.092Z</time>
      </trkpt>
      <trkpt lat="36.980754" lon="-5.941090">
        <ele>96.273730</ele>
        <time>2020-08-17T06:07:57.068Z</time>
      </trkpt>
      <trkpt lat="36.980661" lon="-5.941115">
        <ele>96.572859</ele>
        <time>2020-08-17T06:08:00.071Z</time>
      </trkpt>
      <trkpt lat="36.980559" lon="-5.941141">
        <ele>96.900206</ele>
        <time>2020-08-17T06:08:04.062Z</time>
      </trkpt>
      <trkpt lat="36.980448" lon="-5.941160">
        <ele>97.252522</ele>
        <time>2020-08-17T06:08:08.075Z</time>
      </trkpt>
      <trkpt lat="36.980345" lon="-5.941196">
        <ele>97.588820</ele>
        <time>2020-08-17T06:08:12.071Z</time>
      </trkpt>
      <trkpt lat="36.980234" lon="-5.941243">
        <ele>97.957315</ele>
        <time>2020-08-17T06:08:16.066Z</time>
      </trkpt>
      <trkpt lat="36.980139" lon="-5.941278">
        <ele>98.268737</ele>
        <time>2020-08-17T06:08:19.080Z</time>
      </trkpt>
      <trkpt lat="36.980016" lon="-5.941301">
        <ele>98.659833</ele>
        <time>2020-08-17T06:08:22.081Z</time>
      </trkpt>
      <trkpt lat="36.979902" lon="-5.941303">
        <ele>99.018369</ele>
        <time>2020-08-17T06:08:24.074Z</time>
      </trkpt>
      <trkpt lat="36.979776" lon="-5.941310">
        <ele>99.230699</ele>
        <time>2020-08-17T06:08:26.062Z</time>
      </trkpt>
      <trkpt lat="36.979614" lon="-5.941297">
        <ele>99.326487</ele>
        <time>2020-08-17T06:08:28.074Z</time>
      </trkpt>
      <trkpt lat="36.979466" lon="-5.941289">
        <ele>99.413898</ele>
        <time>2020-08-17T06:08:30.066Z</time>
      </trkpt>
      <trkpt lat="36.979265" lon="-5.941237">
        <ele>99.535009</ele>
        <time>2020-08-17T06:08:33.084Z</time>
      </trkpt>
      <trkpt lat="36.979146" lon="-5.941137">
        <ele>99.619581</ele>
        <time>2020-08-17T06:08:35.056Z</time>
      </trkpt>
      <trkpt lat="36.979085" lon="-5.941050">
        <ele>99.674147</ele>
        <time>2020-08-17T06:08:36.049Z</time>
      </trkpt>
      <trkpt lat="36.979016" lon="-5.940951">
        <ele>99.736078</ele>
        <time>2020-08-17T06:08:37.074Z</time>
      </trkpt>
      <trkpt lat="36.978911" lon="-5.940793">
        <ele>99.832958</ele>
        <time>2020-08-17T06:08:39.060Z</time>
      </trkpt>
      <trkpt lat="36.978859" lon="-5.940689">
        <ele>99.890792</ele>
        <time>2020-08-17T06:08:41.046Z</time>
      </trkpt>
      <trkpt lat="36.978792" lon="-5.940590">
        <ele>99.951954</ele>
        <time>2020-08-17T06:08:47.060Z</time>
      </trkpt>
      <trkpt lat="36.978690" lon="-5.940514">
        <ele>100.021996</ele>
        <time>2020-08-17T06:08:50.058Z</time>
      </trkpt>
      <trkpt lat="36.978618" lon="-5.940439">
        <ele>100.077267</ele>
        <time>2020-08-17T06:08:52.070Z</time>
      </trkpt>
      <trkpt lat="36.978517" lon="-5.940363">
        <ele>100.146803</ele>
        <time>2020-08-17T06:08:54.078Z</time>
      </trkpt>
      <trkpt lat="36.978412" lon="-5.940285">
        <ele>100.218848</ele>
        <time>2020-08-17T06:08:56.071Z</time>
      </trkpt>
      <trkpt lat="36.978286" lon="-5.940210">
        <ele>99.905787</ele>
        <time>2020-08-17T06:08:58.074Z</time>
      </trkpt>
      <trkpt lat="36.978157" lon="-5.940135">
        <ele>99.348106</ele>
        <time>2020-08-17T06:09:00.076Z</time>
      </trkpt>
      <trkpt lat="36.978023" lon="-5.940057">
        <ele>98.768687</ele>
        <time>2020-08-17T06:09:02.068Z</time>
      </trkpt>
      <trkpt lat="36.977875" lon="-5.939974">
        <ele>98.132828</ele>
        <time>2020-08-17T06:09:04.064Z</time>
      </trkpt>
      <trkpt lat="36.977735" lon="-5.939887">
        <ele>97.519991</ele>
        <time>2020-08-17T06:09:06.062Z</time>
      </trkpt>
      <trkpt lat="36.977598" lon="-5.939794">
        <ele>96.908934</ele>
        <time>2020-08-17T06:09:08.079Z</time>
      </trkpt>
      <trkpt lat="36.977457" lon="-5.939706">
        <ele>96.291191</ele>
        <time>2020-08-17T06:09:10.077Z</time>
      </trkpt>
      <trkpt lat="36.977313" lon="-5.939627">
        <ele>95.674746</ele>
        <time>2020-08-17T06:09:12.070Z</time>
      </trkpt>
      <trkpt lat="36.977175" lon="-5.939524">
        <ele>95.044786</ele>
        <time>2020-08-17T06:09:14.093Z</time>
      </trkpt>
      <trkpt lat="36.977032" lon="-5.939438">
        <ele>94.422754</ele>
        <time>2020-08-17T06:09:16.067Z</time>
      </trkpt>
      <trkpt lat="36.976885" lon="-5.939332">
        <ele>93.757597</ele>
        <time>2020-08-17T06:09:18.067Z</time>
      </trkpt>
      <trkpt lat="36.976732" lon="-5.939244">
        <ele>93.056304</ele>
        <time>2020-08-17T06:09:20.053Z</time>
      </trkpt>
      <trkpt lat="36.976586" lon="-5.939150">
        <ele>92.147550</ele>
        <time>2020-08-17T06:09:22.060Z</time>
      </trkpt>
      <trkpt lat="36.976442" lon="-5.939048">
        <ele>91.231731</ele>
        <time>2020-08-17T06:09:24.060Z</time>
      </trkpt>
      <trkpt lat="36.976296" lon="-5.938973">
        <ele>90.358203</ele>
        <time>2020-08-17T06:09:26.060Z</time>
      </trkpt>
      <trkpt lat="36.976218" lon="-5.938916">
        <ele>89.858278</ele>
        <time>2020-08-17T06:09:27.041Z</time>
      </trkpt>
      <trkpt lat="36.976065" lon="-5.938826">
        <ele>88.922560</ele>
        <time>2020-08-17T06:09:29.072Z</time>
      </trkpt>
      <trkpt lat="36.975928" lon="-5.938748">
        <ele>88.089497</ele>
        <time>2020-08-17T06:09:31.072Z</time>
      </trkpt>
      <trkpt lat="36.975791" lon="-5.938654">
        <ele>87.224740</ele>
        <time>2020-08-17T06:09:33.071Z</time>
      </trkpt>
      <trkpt lat="36.975662" lon="-5.938589">
        <ele>86.455034</ele>
        <time>2020-08-17T06:09:35.072Z</time>
      </trkpt>
      <trkpt lat="36.975525" lon="-5.938497">
        <ele>85.594492</ele>
        <time>2020-08-17T06:09:37.067Z</time>
      </trkpt>
      <trkpt lat="36.975388" lon="-5.938398">
        <ele>84.718892</ele>
        <time>2020-08-17T06:09:39.064Z</time>
      </trkpt>
      <trkpt lat="36.975260" lon="-5.938302">
        <ele>83.892957</ele>
        <time>2020-08-17T06:09:41.070Z</time>
      </trkpt>
      <trkpt lat="36.975135" lon="-5.938216">
        <ele>83.212802</ele>
        <time>2020-08-17T06:09:43.075Z</time>
      </trkpt>
      <trkpt lat="36.975007" lon="-5.938136">
        <ele>83.047713</ele>
        <time>2020-08-17T06:09:45.080Z</time>
      </trkpt>
      <trkpt lat="36.974873" lon="-5.938051">
        <ele>82.874368</ele>
        <time>2020-08-17T06:09:47.058Z</time>
      </trkpt>
      <trkpt lat="36.974751" lon="-5.937961">
        <ele>82.710961</ele>
        <time>2020-08-17T06:09:49.069Z</time>
      </trkpt>
      <trkpt lat="36.974631" lon="-5.937894">
        <ele>82.559340</ele>
        <time>2020-08-17T06:09:51.068Z</time>
      </trkpt>
      <trkpt lat="36.974512" lon="-5.937817">
        <ele>82.404763</ele>
        <time>2020-08-17T06:09:53.065Z</time>
      </trkpt>
      <trkpt lat="36.974399" lon="-5.937757">
        <ele>82.263124</ele>
        <time>2020-08-17T06:09:55.081Z</time>
      </trkpt>
      <trkpt lat="36.974294" lon="-5.937692">
        <ele>82.127956</ele>
        <time>2020-08-17T06:09:57.059Z</time>
      </trkpt>
      <trkpt lat="36.974197" lon="-5.937622">
        <ele>81.998756</ele>
        <time>2020-08-17T06:09:59.097Z</time>
      </trkpt>
      <trkpt lat="36.974095" lon="-5.937563">
        <ele>81.869098</ele>
        <time>2020-08-17T06:10:01.062Z</time>
      </trkpt>
      <trkpt lat="36.974004" lon="-5.937503">
        <ele>81.750414</ele>
        <time>2020-08-17T06:10:03.075Z</time>
      </trkpt>
      <trkpt lat="36.973913" lon="-5.937425">
        <ele>81.623148</ele>
        <time>2020-08-17T06:10:05.080Z</time>
      </trkpt>
      <trkpt lat="36.973826" lon="-5.937358">
        <ele>81.505278</ele>
        <time>2020-08-17T06:10:07.074Z</time>
      </trkpt>
      <trkpt lat="36.973739" lon="-5.937299">
        <ele>81.391101</ele>
        <time>2020-08-17T06:10:09.076Z</time>
      </trkpt>
      <trkpt lat="36.973650" lon="-5.937235">
        <ele>81.272661</ele>
        <time>2020-08-17T06:10:11.086Z</time>
      </trkpt>
      <trkpt lat="36.973567" lon="-5.937172">
        <ele>81.175206</ele>
        <time>2020-08-17T06:10:13.071Z</time>
      </trkpt>
      <trkpt lat="36.973480" lon="-5.937103">
        <ele>81.372335</ele>
        <time>2020-08-17T06:10:15.079Z</time>
      </trkpt>
      <trkpt lat="36.973391" lon="-5.937030">
        <ele>81.575995</ele>
        <time>2020-08-17T06:10:17.088Z</time>
      </trkpt>
      <trkpt lat="36.973299" lon="-5.936963">
        <ele>81.779717</ele>
        <time>2020-08-17T06:10:19.073Z</time>
      </trkpt>
      <trkpt lat="36.973210" lon="-5.936886">
        <ele>81.986793</ele>
        <time>2020-08-17T06:10:21.072Z</time>
      </trkpt>
      <trkpt lat="36.973125" lon="-5.936816">
        <ele>82.181536</ele>
        <time>2020-08-17T06:10:23.083Z</time>
      </trkpt>
      <trkpt lat="36.973031" lon="-5.936762">
        <ele>82.379494</ele>
        <time>2020-08-17T06:10:25.071Z</time>
      </trkpt>
      <trkpt lat="36.972942" lon="-5.936683">
        <ele>82.588325</ele>
        <time>2020-08-17T06:10:27.052Z</time>
      </trkpt>
      <trkpt lat="36.972844" lon="-5.936613">
        <ele>82.804287</ele>
        <time>2020-08-17T06:10:29.072Z</time>
      </trkpt>
      <trkpt lat="36.972750" lon="-5.936532">
        <ele>83.022714</ele>
        <time>2020-08-17T06:10:31.079Z</time>
      </trkpt>
      <trkpt lat="36.972653" lon="-5.936457">
        <ele>83.240937</ele>
        <time>2020-08-17T06:10:33.070Z</time>
      </trkpt>
      <trkpt lat="36.972557" lon="-5.936387">
        <ele>83.453583</ele>
        <time>2020-08-17T06:10:35.072Z</time>
      </trkpt>
      <trkpt lat="36.972467" lon="-5.936313">
        <ele>83.659683</ele>
        <time>2020-08-17T06:10:37.075Z</time>
      </trkpt>
      <trkpt lat="36.972375" lon="-5.936248">
        <ele>83.861885</ele>
        <time>2020-08-17T06:10:39.071Z</time>
      </trkpt>
      <trkpt lat="36.972288" lon="-5.936185">
        <ele>84.054261</ele>
        <time>2020-08-17T06:10:41.074Z</time>
      </trkpt>
      <trkpt lat="36.972210" lon="-5.936110">
        <ele>84.242517</ele>
        <time>2020-08-17T06:10:43.074Z</time>
      </trkpt>
      <trkpt lat="36.972135" lon="-5.936046">
        <ele>84.416252</ele>
        <time>2020-08-17T06:10:45.074Z</time>
      </trkpt>
      <trkpt lat="36.972056" lon="-5.935988">
        <ele>84.591548</ele>
        <time>2020-08-17T06:10:47.069Z</time>
      </trkpt>
      <trkpt lat="36.971949" lon="-5.935908">
        <ele>84.681920</ele>
        <time>2020-08-17T06:10:50.071Z</time>
      </trkpt>
      <trkpt lat="36.971850" lon="-5.935834">
        <ele>84.754907</ele>
        <time>2020-08-17T06:10:53.059Z</time>
      </trkpt>
      <trkpt lat="36.971751" lon="-5.935753">
        <ele>84.829771</ele>
        <time>2020-08-17T06:10:56.074Z</time>
      </trkpt>
      <trkpt lat="36.971657" lon="-5.935676">
        <ele>84.900879</ele>
        <time>2020-08-17T06:10:59.062Z</time>
      </trkpt>
      <trkpt lat="36.971558" lon="-5.935595">
        <ele>84.975742</ele>
        <time>2020-08-17T06:11:02.075Z</time>
      </trkpt>
      <trkpt lat="36.971457" lon="-5.935516">
        <ele>85.051128</ele>
        <time>2020-08-17T06:11:05.076Z</time>
      </trkpt>
      <trkpt lat="36.971349" lon="-5.935438">
        <ele>85.130052</ele>
        <time>2020-08-17T06:11:08.063Z</time>
      </trkpt>
      <trkpt lat="36.971272" lon="-5.935374">
        <ele>85.188558</ele>
        <time>2020-08-17T06:11:10.098Z</time>
      </trkpt>
      <trkpt lat="36.971157" lon="-5.935297">
        <ele>85.271110</ele>
        <time>2020-08-17T06:11:13.063Z</time>
      </trkpt>
      <trkpt lat="36.971047" lon="-5.935231">
        <ele>85.348322</ele>
        <time>2020-08-17T06:11:16.066Z</time>
      </trkpt>
      <trkpt lat="36.970957" lon="-5.935188">
        <ele>85.409298</ele>
        <time>2020-08-17T06:11:18.057Z</time>
      </trkpt>
      <trkpt lat="36.970858" lon="-5.935144">
        <ele>85.475795</ele>
        <time>2020-08-17T06:11:20.077Z</time>
      </trkpt>
      <trkpt lat="36.970745" lon="-5.935095">
        <ele>85.551491</ele>
        <time>2020-08-17T06:11:22.073Z</time>
      </trkpt>
      <trkpt lat="36.970630" lon="-5.935047">
        <ele>85.628223</ele>
        <time>2020-08-17T06:11:24.072Z</time>
      </trkpt>
      <trkpt lat="36.970513" lon="-5.934990">
        <ele>85.707692</ele>
        <time>2020-08-17T06:11:26.072Z</time>
      </trkpt>
      <trkpt lat="36.970382" lon="-5.934946">
        <ele>85.850588</ele>
        <time>2020-08-17T06:11:28.084Z</time>
      </trkpt>
      <trkpt lat="36.970250" lon="-5.934891">
        <ele>86.046999</ele>
        <time>2020-08-17T06:11:30.060Z</time>
      </trkpt>
      <trkpt lat="36.970115" lon="-5.934838">
        <ele>86.246746</ele>
        <time>2020-08-17T06:11:32.078Z</time>
      </trkpt>
      <trkpt lat="36.969974" lon="-5.934778">
        <ele>86.456999</ele>
        <time>2020-08-17T06:11:34.103Z</time>
      </trkpt>
      <trkpt lat="36.969838" lon="-5.934723">
        <ele>86.658776</ele>
        <time>2020-08-17T06:11:36.060Z</time>
      </trkpt>
      <trkpt lat="36.969699" lon="-5.934673">
        <ele>86.862958</ele>
        <time>2020-08-17T06:11:38.061Z</time>
      </trkpt>
      <trkpt lat="36.969579" lon="-5.934650">
        <ele>87.034348</ele>
        <time>2020-08-17T06:11:40.076Z</time>
      </trkpt>
      <trkpt lat="36.969476" lon="-5.934698">
        <ele>87.189515</ele>
        <time>2020-08-17T06:11:42.090Z</time>
      </trkpt>
      <trkpt lat="36.969354" lon="-5.934704">
        <ele>87.361886</ele>
        <time>2020-08-17T06:11:44.079Z</time>
      </trkpt>
      <trkpt lat="36.969250" lon="-5.934644">
        <ele>87.523559</ele>
        <time>2020-08-17T06:11:46.080Z</time>
      </trkpt>
      <trkpt lat="36.969158" lon="-5.934554">
        <ele>87.688410</ele>
        <time>2020-08-17T06:11:48.068Z</time>
      </trkpt>
      <trkpt lat="36.969059" lon="-5.934451">
        <ele>87.870159</ele>
        <time>2020-08-17T06:11:50.072Z</time>
      </trkpt>
      <trkpt lat="36.968963" lon="-5.934384">
        <ele>88.025337</ele>
        <time>2020-08-17T06:11:52.074Z</time>
      </trkpt>
      <trkpt lat="36.968868" lon="-5.934344">
        <ele>88.166843</ele>
        <time>2020-08-17T06:11:54.068Z</time>
      </trkpt>
      <trkpt lat="36.968779" lon="-5.934301">
        <ele>88.261299</ele>
        <time>2020-08-17T06:11:56.064Z</time>
      </trkpt>
      <trkpt lat="36.968691" lon="-5.934265">
        <ele>88.042326</ele>
        <time>2020-08-17T06:11:58.060Z</time>
      </trkpt>
      <trkpt lat="36.968560" lon="-5.934201">
        <ele>87.709716</ele>
        <time>2020-08-17T06:12:01.072Z</time>
      </trkpt>
      <trkpt lat="36.968461" lon="-5.934166">
        <ele>87.466399</ele>
        <time>2020-08-17T06:12:03.070Z</time>
      </trkpt>
      <trkpt lat="36.968358" lon="-5.934132">
        <ele>87.214453</ele>
        <time>2020-08-17T06:12:05.060Z</time>
      </trkpt>
      <trkpt lat="36.968240" lon="-5.934139">
        <ele>86.935045</ele>
        <time>2020-08-17T06:12:07.067Z</time>
      </trkpt>
      <trkpt lat="36.968124" lon="-5.934163">
        <ele>86.656958</ele>
        <time>2020-08-17T06:12:09.071Z</time>
      </trkpt>
      <trkpt lat="36.968012" lon="-5.934131">
        <ele>86.385240</ele>
        <time>2020-08-17T06:12:11.072Z</time>
      </trkpt>
      <trkpt lat="36.967906" lon="-5.934038">
        <ele>86.079066</ele>
        <time>2020-08-17T06:12:13.052Z</time>
      </trkpt>
      <trkpt lat="36.967812" lon="-5.933921">
        <ele>85.765513</ele>
        <time>2020-08-17T06:12:15.045Z</time>
      </trkpt>
      <trkpt lat="36.967691" lon="-5.933833">
        <ele>85.434516</ele>
        <time>2020-08-17T06:12:17.075Z</time>
      </trkpt>
      <trkpt lat="36.967559" lon="-5.933764">
        <ele>85.096173</ele>
        <time>2020-08-17T06:12:19.070Z</time>
      </trkpt>
      <trkpt lat="36.967416" lon="-5.933712">
        <ele>84.743963</ele>
        <time>2020-08-17T06:12:21.060Z</time>
      </trkpt>
      <trkpt lat="36.967278" lon="-5.933647">
        <ele>84.395217</ele>
        <time>2020-08-17T06:12:23.088Z</time>
      </trkpt>
      <trkpt lat="36.967128" lon="-5.933577">
        <ele>84.034023</ele>
        <time>2020-08-17T06:12:25.069Z</time>
      </trkpt>
      <trkpt lat="36.966980" lon="-5.933519">
        <ele>84.073438</ele>
        <time>2020-08-17T06:12:27.068Z</time>
      </trkpt>
      <trkpt lat="36.966838" lon="-5.933459">
        <ele>84.111529</ele>
        <time>2020-08-17T06:12:29.058Z</time>
      </trkpt>
      <trkpt lat="36.966685" lon="-5.933383">
        <ele>84.153366</ele>
        <time>2020-08-17T06:12:31.061Z</time>
      </trkpt>
      <trkpt lat="36.966544" lon="-5.933325">
        <ele>84.191087</ele>
        <time>2020-08-17T06:12:33.059Z</time>
      </trkpt>
      <trkpt lat="36.966390" lon="-5.933259">
        <ele>84.232458</ele>
        <time>2020-08-17T06:12:35.088Z</time>
      </trkpt>
      <trkpt lat="36.966245" lon="-5.933185">
        <ele>84.272256</ele>
        <time>2020-08-17T06:12:37.052Z</time>
      </trkpt>
      <trkpt lat="36.966106" lon="-5.933107">
        <ele>84.310972</ele>
        <time>2020-08-17T06:12:39.080Z</time>
      </trkpt>
      <trkpt lat="36.965989" lon="-5.933018">
        <ele>84.345770</ele>
        <time>2020-08-17T06:12:41.081Z</time>
      </trkpt>
      <trkpt lat="36.965873" lon="-5.932938">
        <ele>84.379431</ele>
        <time>2020-08-17T06:12:43.059Z</time>
      </trkpt>
      <trkpt lat="36.965755" lon="-5.932852">
        <ele>84.414136</ele>
        <time>2020-08-17T06:12:45.067Z</time>
      </trkpt>
      <trkpt lat="36.965646" lon="-5.932766">
        <ele>84.446884</ele>
        <time>2020-08-17T06:12:47.076Z</time>
      </trkpt>
      <trkpt lat="36.965537" lon="-5.932677">
        <ele>84.479960</ele>
        <time>2020-08-17T06:12:49.036Z</time>
      </trkpt>
      <trkpt lat="36.965423" lon="-5.932604">
        <ele>84.553417</ele>
        <time>2020-08-17T06:12:51.072Z</time>
      </trkpt>
      <trkpt lat="36.965316" lon="-5.932526">
        <ele>84.640763</ele>
        <time>2020-08-17T06:12:53.078Z</time>
      </trkpt>
      <trkpt lat="36.965216" lon="-5.932458">
        <ele>84.721040</ele>
        <time>2020-08-17T06:12:55.061Z</time>
      </trkpt>
      <trkpt lat="36.965129" lon="-5.932384">
        <ele>84.795239</ele>
        <time>2020-08-17T06:12:57.068Z</time>
      </trkpt>
      <trkpt lat="36.965045" lon="-5.932300">
        <ele>84.871082</ele>
        <time>2020-08-17T06:12:59.058Z</time>
      </trkpt>
      <trkpt lat="36.964976" lon="-5.932221">
        <ele>84.937047</ele>
        <time>2020-08-17T06:13:01.050Z</time>
      </trkpt>
      <trkpt lat="36.964886" lon="-5.932153">
        <ele>85.011203</ele>
        <time>2020-08-17T06:13:03.072Z</time>
      </trkpt>
      <trkpt lat="36.964797" lon="-5.932073">
        <ele>85.088496</ele>
        <time>2020-08-17T06:13:05.066Z</time>
      </trkpt>
      <trkpt lat="36.964709" lon="-5.932004">
        <ele>85.161746</ele>
        <time>2020-08-17T06:13:07.062Z</time>
      </trkpt>
      <trkpt lat="36.964605" lon="-5.931939">
        <ele>85.243744</ele>
        <time>2020-08-17T06:13:09.069Z</time>
      </trkpt>
      <trkpt lat="36.964509" lon="-5.931893">
        <ele>85.316255</ele>
        <time>2020-08-17T06:13:11.071Z</time>
      </trkpt>
      <trkpt lat="36.964399" lon="-5.931790">
        <ele>85.413159</ele>
        <time>2020-08-17T06:13:14.067Z</time>
      </trkpt>
      <trkpt lat="36.964305" lon="-5.931729">
        <ele>85.487849</ele>
        <time>2020-08-17T06:13:16.060Z</time>
      </trkpt>
      <trkpt lat="36.964213" lon="-5.931661">
        <ele>85.563216</ele>
        <time>2020-08-17T06:13:18.097Z</time>
      </trkpt>
      <trkpt lat="36.964122" lon="-5.931564">
        <ele>85.647532</ele>
        <time>2020-08-17T06:13:20.050Z</time>
      </trkpt>
      <trkpt lat="36.964039" lon="-5.931483">
        <ele>85.721774</ele>
        <time>2020-08-17T06:13:22.070Z</time>
      </trkpt>
      <trkpt lat="36.963946" lon="-5.931404">
        <ele>85.757208</ele>
        <time>2020-08-17T06:13:24.057Z</time>
      </trkpt>
      <trkpt lat="36.963851" lon="-5.931330">
        <ele>85.755385</ele>
        <time>2020-08-17T06:13:26.059Z</time>
      </trkpt>
      <trkpt lat="36.963765" lon="-5.931254">
        <ele>85.753669</ele>
        <time>2020-08-17T06:13:28.054Z</time>
      </trkpt>
      <trkpt lat="36.963678" lon="-5.931162">
        <ele>85.751814</ele>
        <time>2020-08-17T06:13:30.058Z</time>
      </trkpt>
      <trkpt lat="36.963600" lon="-5.931087">
        <ele>85.750211</ele>
        <time>2020-08-17T06:13:32.077Z</time>
      </trkpt>
      <trkpt lat="36.963518" lon="-5.930995">
        <ele>85.748417</ele>
        <time>2020-08-17T06:13:34.058Z</time>
      </trkpt>
      <trkpt lat="36.963417" lon="-5.930917">
        <ele>85.746484</ele>
        <time>2020-08-17T06:13:36.064Z</time>
      </trkpt>
      <trkpt lat="36.963328" lon="-5.930853">
        <ele>85.744812</ele>
        <time>2020-08-17T06:13:38.076Z</time>
      </trkpt>
      <trkpt lat="36.963242" lon="-5.930779">
        <ele>85.743111</ele>
        <time>2020-08-17T06:13:40.060Z</time>
      </trkpt>
      <trkpt lat="36.963159" lon="-5.930703">
        <ele>85.741436</ele>
        <time>2020-08-17T06:13:42.055Z</time>
      </trkpt>
      <trkpt lat="36.963071" lon="-5.930637">
        <ele>85.739764</ele>
        <time>2020-08-17T06:13:44.071Z</time>
      </trkpt>
      <trkpt lat="36.962998" lon="-5.930554">
        <ele>85.738158</ele>
        <time>2020-08-17T06:13:46.070Z</time>
      </trkpt>
      <trkpt lat="36.962913" lon="-5.930491">
        <ele>85.736548</ele>
        <time>2020-08-17T06:13:48.067Z</time>
      </trkpt>
      <trkpt lat="36.962809" lon="-5.930452">
        <ele>85.734780</ele>
        <time>2020-08-17T06:13:50.064Z</time>
      </trkpt>
      <trkpt lat="36.962687" lon="-5.930358">
        <ele>85.732446</ele>
        <time>2020-08-17T06:13:53.097Z</time>
      </trkpt>
      <trkpt lat="36.962601" lon="-5.930305">
        <ele>85.730884</ele>
        <time>2020-08-17T06:13:55.078Z</time>
      </trkpt>
      <trkpt lat="36.962507" lon="-5.930248">
        <ele>85.729182</ele>
        <time>2020-08-17T06:13:57.068Z</time>
      </trkpt>
      <trkpt lat="36.962430" lon="-5.930185">
        <ele>85.743806</ele>
        <time>2020-08-17T06:13:59.062Z</time>
      </trkpt>
      <trkpt lat="36.962324" lon="-5.930095">
        <ele>85.769492</ele>
        <time>2020-08-17T06:14:02.069Z</time>
      </trkpt>
      <trkpt lat="36.962233" lon="-5.930016">
        <ele>85.791699</ele>
        <time>2020-08-17T06:14:04.045Z</time>
      </trkpt>
      <trkpt lat="36.962157" lon="-5.929949">
        <ele>85.810340</ele>
        <time>2020-08-17T06:14:06.059Z</time>
      </trkpt>
      <trkpt lat="36.962072" lon="-5.929864">
        <ele>85.832158</ele>
        <time>2020-08-17T06:14:08.061Z</time>
      </trkpt>
      <trkpt lat="36.961991" lon="-5.929802">
        <ele>85.851197</ele>
        <time>2020-08-17T06:14:10.063Z</time>
      </trkpt>
      <trkpt lat="36.961902" lon="-5.929755">
        <ele>85.870567</ele>
        <time>2020-08-17T06:14:12.056Z</time>
      </trkpt>
      <trkpt lat="36.961816" lon="-5.929638">
        <ele>85.896039</ele>
        <time>2020-08-17T06:14:15.075Z</time>
      </trkpt>
      <trkpt lat="36.961719" lon="-5.929583">
        <ele>85.917393</ele>
        <time>2020-08-17T06:14:17.061Z</time>
      </trkpt>
      <trkpt lat="36.961640" lon="-5.929509">
        <ele>85.937180</ele>
        <time>2020-08-17T06:14:19.062Z</time>
      </trkpt>
      <trkpt lat="36.961524" lon="-5.929464">
        <ele>85.961532</ele>
        <time>2020-08-17T06:14:22.066Z</time>
      </trkpt>
      <trkpt lat="36.961443" lon="-5.929412">
        <ele>85.979786</ele>
        <time>2020-08-17T06:14:24.061Z</time>
      </trkpt>
      <trkpt lat="36.961355" lon="-5.929343">
        <ele>86.000610</ele>
        <time>2020-08-17T06:14:26.066Z</time>
      </trkpt>
      <trkpt lat="36.961271" lon="-5.929280">
        <ele>86.020247</ele>
        <time>2020-08-17T06:14:28.052Z</time>
      </trkpt>
      <trkpt lat="36.961195" lon="-5.929211">
        <ele>86.039074</ele>
        <time>2020-08-17T06:14:30.059Z</time>
      </trkpt>
      <trkpt lat="36.961110" lon="-5.929154">
        <ele>86.058411</ele>
        <time>2020-08-17T06:14:32.063Z</time>
      </trkpt>
      <trkpt lat="36.961026" lon="-5.929081">
        <ele>86.078918</ele>
        <time>2020-08-17T06:14:34.056Z</time>
      </trkpt>
      <trkpt lat="36.960931" lon="-5.929025">
        <ele>86.100277</ele>
        <time>2020-08-17T06:14:36.071Z</time>
      </trkpt>
      <trkpt lat="36.960851" lon="-5.928971">
        <ele>86.119032</ele>
        <time>2020-08-17T06:14:38.071Z</time>
      </trkpt>
      <trkpt lat="36.960764" lon="-5.928899">
        <ele>86.140554</ele>
        <time>2020-08-17T06:14:40.057Z</time>
      </trkpt>
      <trkpt lat="36.960670" lon="-5.928841">
        <ele>86.162180</ele>
        <time>2020-08-17T06:14:42.042Z</time>
      </trkpt>
      <trkpt lat="36.960575" lon="-5.928780">
        <ele>86.184212</ele>
        <time>2020-08-17T06:14:44.070Z</time>
      </trkpt>
      <trkpt lat="36.960480" lon="-5.928715">
        <ele>86.206553</ele>
        <time>2020-08-17T06:14:46.067Z</time>
      </trkpt>
      <trkpt lat="36.960385" lon="-5.928659">
        <ele>86.228222</ele>
        <time>2020-08-17T06:14:48.053Z</time>
      </trkpt>
      <trkpt lat="36.960296" lon="-5.928616">
        <ele>86.247907</ele>
        <time>2020-08-17T06:14:50.058Z</time>
      </trkpt>
      <trkpt lat="36.960211" lon="-5.928557">
        <ele>86.267963</ele>
        <time>2020-08-17T06:14:52.037Z</time>
      </trkpt>
      <trkpt lat="36.960122" lon="-5.928487">
        <ele>86.289654</ele>
        <time>2020-08-17T06:14:54.068Z</time>
      </trkpt>
      <trkpt lat="36.960025" lon="-5.928417">
        <ele>86.312758</ele>
        <time>2020-08-17T06:14:56.065Z</time>
      </trkpt>
      <trkpt lat="36.959924" lon="-5.928349">
        <ele>86.336423</ele>
        <time>2020-08-17T06:14:58.050Z</time>
      </trkpt>
      <trkpt lat="36.959837" lon="-5.928270">
        <ele>86.358603</ele>
        <time>2020-08-17T06:15:00.067Z</time>
      </trkpt>
      <trkpt lat="36.959734" lon="-5.928197">
        <ele>86.383028</ele>
        <time>2020-08-17T06:15:02.043Z</time>
      </trkpt>
      <trkpt lat="36.959623" lon="-5.928130">
        <ele>86.408457</ele>
        <time>2020-08-17T06:15:04.056Z</time>
      </trkpt>
      <trkpt lat="36.959515" lon="-5.928061">
        <ele>86.433478</ele>
        <time>2020-08-17T06:15:06.050Z</time>
      </trkpt>
      <trkpt lat="36.959403" lon="-5.927988">
        <ele>86.459535</ele>
        <time>2020-08-17T06:15:08.067Z</time>
      </trkpt>
      <trkpt lat="36.959297" lon="-5.927904">
        <ele>86.283867</ele>
        <time>2020-08-17T06:15:10.069Z</time>
      </trkpt>
      <trkpt lat="36.959180" lon="-5.927817">
        <ele>86.083004</ele>
        <time>2020-08-17T06:15:12.075Z</time>
      </trkpt>
      <trkpt lat="36.959064" lon="-5.927713">
        <ele>85.872400</ele>
        <time>2020-08-17T06:15:14.057Z</time>
      </trkpt>
      <trkpt lat="36.958937" lon="-5.927645">
        <ele>85.668525</ele>
        <time>2020-08-17T06:15:16.060Z</time>
      </trkpt>
      <trkpt lat="36.958826" lon="-5.927564">
        <ele>85.478884</ele>
        <time>2020-08-17T06:15:18.070Z</time>
      </trkpt>
      <trkpt lat="36.958707" lon="-5.927464">
        <ele>85.267329</ele>
        <time>2020-08-17T06:15:20.060Z</time>
      </trkpt>
      <trkpt lat="36.958570" lon="-5.927361">
        <ele>85.031449</ele>
        <time>2020-08-17T06:15:22.062Z</time>
      </trkpt>
      <trkpt lat="36.958445" lon="-5.927266">
        <ele>84.815606</ele>
        <time>2020-08-17T06:15:24.084Z</time>
      </trkpt>
      <trkpt lat="36.958327" lon="-5.927162">
        <ele>84.602594</ele>
        <time>2020-08-17T06:15:26.059Z</time>
      </trkpt>
      <trkpt lat="36.958212" lon="-5.927069">
        <ele>84.400511</ele>
        <time>2020-08-17T06:15:28.059Z</time>
      </trkpt>
      <trkpt lat="36.958094" lon="-5.926986">
        <ele>84.200731</ele>
        <time>2020-08-17T06:15:30.070Z</time>
      </trkpt>
      <trkpt lat="36.957974" lon="-5.926893">
        <ele>83.992411</ele>
        <time>2020-08-17T06:15:32.074Z</time>
      </trkpt>
      <trkpt lat="36.957856" lon="-5.926792">
        <ele>83.779368</ele>
        <time>2020-08-17T06:15:34.048Z</time>
      </trkpt>
      <trkpt lat="36.957727" lon="-5.926717">
        <ele>83.551997</ele>
        <time>2020-08-17T06:15:36.071Z</time>
      </trkpt>
      <trkpt lat="36.957592" lon="-5.926628">
        <ele>83.308089</ele>
        <time>2020-08-17T06:15:38.068Z</time>
      </trkpt>
      <trkpt lat="36.957476" lon="-5.926540">
        <ele>83.091256</ele>
        <time>2020-08-17T06:15:40.067Z</time>
      </trkpt>
      <trkpt lat="36.957354" lon="-5.926457">
        <ele>82.869286</ele>
        <time>2020-08-17T06:15:42.073Z</time>
      </trkpt>
      <trkpt lat="36.957211" lon="-5.926365">
        <ele>82.612266</ele>
        <time>2020-08-17T06:15:44.064Z</time>
      </trkpt>
      <trkpt lat="36.957090" lon="-5.926290">
        <ele>82.396424</ele>
        <time>2020-08-17T06:15:46.045Z</time>
      </trkpt>
      <trkpt lat="36.956950" lon="-5.926216">
        <ele>82.153494</ele>
        <time>2020-08-17T06:15:48.062Z</time>
      </trkpt>
      <trkpt lat="36.956847" lon="-5.926128">
        <ele>81.954139</ele>
        <time>2020-08-17T06:15:50.060Z</time>
      </trkpt>
      <trkpt lat="36.956713" lon="-5.926064">
        <ele>81.724872</ele>
        <time>2020-08-17T06:15:52.068Z</time>
      </trkpt>
      <trkpt lat="36.956601" lon="-5.926008">
        <ele>81.532081</ele>
        <time>2020-08-17T06:15:54.071Z</time>
      </trkpt>
      <trkpt lat="36.956459" lon="-5.925933">
        <ele>81.285708</ele>
        <time>2020-08-17T06:15:56.078Z</time>
      </trkpt>
      <trkpt lat="36.956323" lon="-5.925869">
        <ele>81.053452</ele>
        <time>2020-08-17T06:15:58.071Z</time>
      </trkpt>
      <trkpt lat="36.956200" lon="-5.925825">
        <ele>80.691084</ele>
        <time>2020-08-17T06:16:00.071Z</time>
      </trkpt>
      <trkpt lat="36.956056" lon="-5.925737">
        <ele>79.941842</ele>
        <time>2020-08-17T06:16:02.075Z</time>
      </trkpt>
      <trkpt lat="36.955913" lon="-5.925662">
        <ele>79.216920</ele>
        <time>2020-08-17T06:16:04.069Z</time>
      </trkpt>
      <trkpt lat="36.955761" lon="-5.925603">
        <ele>78.472862</ele>
        <time>2020-08-17T06:16:06.056Z</time>
      </trkpt>
      <trkpt lat="36.955611" lon="-5.925545">
        <ele>77.738841</ele>
        <time>2020-08-17T06:16:08.067Z</time>
      </trkpt>
      <trkpt lat="36.955454" lon="-5.925477">
        <ele>76.962085</ele>
        <time>2020-08-17T06:16:10.059Z</time>
      </trkpt>
      <trkpt lat="36.955322" lon="-5.925427">
        <ele>76.317282</ele>
        <time>2020-08-17T06:16:12.060Z</time>
      </trkpt>
      <trkpt lat="36.955193" lon="-5.925374">
        <ele>75.682485</ele>
        <time>2020-08-17T06:16:14.071Z</time>
      </trkpt>
      <trkpt lat="36.955061" lon="-5.925302">
        <ele>75.009258</ele>
        <time>2020-08-17T06:16:16.079Z</time>
      </trkpt>
      <trkpt lat="36.954931" lon="-5.925238">
        <ele>74.356116</ele>
        <time>2020-08-17T06:16:18.053Z</time>
      </trkpt>
      <trkpt lat="36.954800" lon="-5.925153">
        <ele>73.666206</ele>
        <time>2020-08-17T06:16:20.070Z</time>
      </trkpt>
      <trkpt lat="36.954670" lon="-5.925062">
        <ele>72.969778</ele>
        <time>2020-08-17T06:16:22.057Z</time>
      </trkpt>
      <trkpt lat="36.954530" lon="-5.924970">
        <ele>72.310835</ele>
        <time>2020-08-17T06:16:24.076Z</time>
      </trkpt>
      <trkpt lat="36.954401" lon="-5.924861">
        <ele>71.783964</ele>
        <time>2020-08-17T06:16:26.067Z</time>
      </trkpt>
      <trkpt lat="36.954324" lon="-5.924790">
        <ele>71.460212</ele>
        <time>2020-08-17T06:16:27.062Z</time>
      </trkpt>
      <trkpt lat="36.954247" lon="-5.924719">
        <ele>71.136461</ele>
        <time>2020-08-17T06:16:28.066Z</time>
      </trkpt>
      <trkpt lat="36.954092" lon="-5.924587">
        <ele>70.501832</ele>
        <time>2020-08-17T06:16:30.073Z</time>
      </trkpt>
      <trkpt lat="36.954012" lon="-5.924531">
        <ele>70.191553</ele>
        <time>2020-08-17T06:16:31.058Z</time>
      </trkpt>
      <trkpt lat="36.953929" lon="-5.924460">
        <ele>69.851237</ele>
        <time>2020-08-17T06:16:32.078Z</time>
      </trkpt>
      <trkpt lat="36.953848" lon="-5.924379">
        <ele>69.500270</ele>
        <time>2020-08-17T06:16:33.057Z</time>
      </trkpt>
      <trkpt lat="36.953764" lon="-5.924303">
        <ele>69.149406</ele>
        <time>2020-08-17T06:16:34.061Z</time>
      </trkpt>
      <trkpt lat="36.953682" lon="-5.924227">
        <ele>68.804004</ele>
        <time>2020-08-17T06:16:35.071Z</time>
      </trkpt>
      <trkpt lat="36.953533" lon="-5.924098">
        <ele>68.190712</ele>
        <time>2020-08-17T06:16:37.060Z</time>
      </trkpt>
      <trkpt lat="36.953461" lon="-5.924026">
        <ele>67.878740</ele>
        <time>2020-08-17T06:16:38.068Z</time>
      </trkpt>
      <trkpt lat="36.953321" lon="-5.923894">
        <ele>67.285397</ele>
        <time>2020-08-17T06:16:40.074Z</time>
      </trkpt>
      <trkpt lat="36.953198" lon="-5.923781">
        <ele>66.768899</ele>
        <time>2020-08-17T06:16:42.058Z</time>
      </trkpt>
      <trkpt lat="36.953063" lon="-5.923692">
        <ele>66.370025</ele>
        <time>2020-08-17T06:16:44.082Z</time>
      </trkpt>
      <trkpt lat="36.952944" lon="-5.923564">
        <ele>66.184007</ele>
        <time>2020-08-17T06:16:46.075Z</time>
      </trkpt>
      <trkpt lat="36.952863" lon="-5.923501">
        <ele>66.070952</ele>
        <time>2020-08-17T06:16:47.073Z</time>
      </trkpt>
      <trkpt lat="36.952731" lon="-5.923374">
        <ele>65.873571</ele>
        <time>2020-08-17T06:16:49.035Z</time>
      </trkpt>
      <trkpt lat="36.952597" lon="-5.923254">
        <ele>65.678237</ele>
        <time>2020-08-17T06:16:51.058Z</time>
      </trkpt>
      <trkpt lat="36.952466" lon="-5.923145">
        <ele>65.491750</ele>
        <time>2020-08-17T06:16:53.074Z</time>
      </trkpt>
      <trkpt lat="36.952333" lon="-5.923030">
        <ele>65.300111</ele>
        <time>2020-08-17T06:16:55.080Z</time>
      </trkpt>
      <trkpt lat="36.952267" lon="-5.922946">
        <ele>65.188516</ele>
        <time>2020-08-17T06:16:56.078Z</time>
      </trkpt>
      <trkpt lat="36.952143" lon="-5.922846">
        <ele>65.013641</ele>
        <time>2020-08-17T06:16:58.062Z</time>
      </trkpt>
      <trkpt lat="36.952021" lon="-5.922752">
        <ele>64.843802</ele>
        <time>2020-08-17T06:17:00.059Z</time>
      </trkpt>
      <trkpt lat="36.951897" lon="-5.922658">
        <ele>64.671940</ele>
        <time>2020-08-17T06:17:02.069Z</time>
      </trkpt>
      <trkpt lat="36.951785" lon="-5.922574">
        <ele>64.517151</ele>
        <time>2020-08-17T06:17:04.068Z</time>
      </trkpt>
      <trkpt lat="36.951683" lon="-5.922478">
        <ele>64.365853</ele>
        <time>2020-08-17T06:17:06.057Z</time>
      </trkpt>
      <trkpt lat="36.951565" lon="-5.922391">
        <ele>64.279112</ele>
        <time>2020-08-17T06:17:08.064Z</time>
      </trkpt>
      <trkpt lat="36.951456" lon="-5.922274">
        <ele>64.240551</ele>
        <time>2020-08-17T06:17:10.057Z</time>
      </trkpt>
      <trkpt lat="36.951339" lon="-5.922173">
        <ele>64.202384</ele>
        <time>2020-08-17T06:17:12.058Z</time>
      </trkpt>
      <trkpt lat="36.951236" lon="-5.922076">
        <ele>64.167770</ele>
        <time>2020-08-17T06:17:14.072Z</time>
      </trkpt>
      <trkpt lat="36.951127" lon="-5.921993">
        <ele>64.133509</ele>
        <time>2020-08-17T06:17:16.069Z</time>
      </trkpt>
      <trkpt lat="36.951029" lon="-5.921901">
        <ele>64.100612</ele>
        <time>2020-08-17T06:17:18.075Z</time>
      </trkpt>
      <trkpt lat="36.950917" lon="-5.921830">
        <ele>64.066899</ele>
        <time>2020-08-17T06:17:20.071Z</time>
      </trkpt>
      <trkpt lat="36.950807" lon="-5.921751">
        <ele>64.032844</ele>
        <time>2020-08-17T06:17:22.065Z</time>
      </trkpt>
      <trkpt lat="36.950697" lon="-5.921662">
        <ele>63.997671</ele>
        <time>2020-08-17T06:17:24.081Z</time>
      </trkpt>
      <trkpt lat="36.950597" lon="-5.921563">
        <ele>63.963432</ele>
        <time>2020-08-17T06:17:26.084Z</time>
      </trkpt>
      <trkpt lat="36.950500" lon="-5.921488">
        <ele>63.932815</ele>
        <time>2020-08-17T06:17:28.077Z</time>
      </trkpt>
      <trkpt lat="36.950382" lon="-5.921391">
        <ele>63.894905</ele>
        <time>2020-08-17T06:17:30.077Z</time>
      </trkpt>
      <trkpt lat="36.950279" lon="-5.921343">
        <ele>63.865392</ele>
        <time>2020-08-17T06:17:32.059Z</time>
      </trkpt>
      <trkpt lat="36.950173" lon="-5.921294">
        <ele>63.835049</ele>
        <time>2020-08-17T06:17:34.059Z</time>
      </trkpt>
      <trkpt lat="36.950080" lon="-5.921240">
        <ele>63.947205</ele>
        <time>2020-08-17T06:17:36.035Z</time>
      </trkpt>
      <trkpt lat="36.949975" lon="-5.921194">
        <ele>64.304667</ele>
        <time>2020-08-17T06:17:38.040Z</time>
      </trkpt>
      <trkpt lat="36.949878" lon="-5.921145">
        <ele>64.640783</ele>
        <time>2020-08-17T06:17:40.040Z</time>
      </trkpt>
      <trkpt lat="36.949776" lon="-5.921089">
        <ele>64.998685</ele>
        <time>2020-08-17T06:17:42.071Z</time>
      </trkpt>
      <trkpt lat="36.949653" lon="-5.921027">
        <ele>65.424766</ele>
        <time>2020-08-17T06:17:45.059Z</time>
      </trkpt>
      <trkpt lat="36.949558" lon="-5.920985">
        <ele>65.748509</ele>
        <time>2020-08-17T06:17:47.071Z</time>
      </trkpt>
      <trkpt lat="36.949448" lon="-5.920936">
        <ele>66.123685</ele>
        <time>2020-08-17T06:17:49.063Z</time>
      </trkpt>
      <trkpt lat="36.949341" lon="-5.920899">
        <ele>66.480380</ele>
        <time>2020-08-17T06:17:51.069Z</time>
      </trkpt>
      <trkpt lat="36.949230" lon="-5.920838">
        <ele>66.869923</ele>
        <time>2020-08-17T06:17:53.080Z</time>
      </trkpt>
      <trkpt lat="36.949141" lon="-5.920783">
        <ele>67.188869</ele>
        <time>2020-08-17T06:17:55.067Z</time>
      </trkpt>
      <trkpt lat="36.949037" lon="-5.920727">
        <ele>67.552665</ele>
        <time>2020-08-17T06:17:57.044Z</time>
      </trkpt>
      <trkpt lat="36.948924" lon="-5.920693">
        <ele>67.926102</ele>
        <time>2020-08-17T06:17:59.060Z</time>
      </trkpt>
      <trkpt lat="36.948815" lon="-5.920657">
        <ele>68.288331</ele>
        <time>2020-08-17T06:18:01.070Z</time>
      </trkpt>
      <trkpt lat="36.948718" lon="-5.920618">
        <ele>68.615703</ele>
        <time>2020-08-17T06:18:03.079Z</time>
      </trkpt>
      <trkpt lat="36.948633" lon="-5.920572">
        <ele>68.913271</ele>
        <time>2020-08-17T06:18:05.055Z</time>
      </trkpt>
      <trkpt lat="36.948525" lon="-5.920525">
        <ele>69.280682</ele>
        <time>2020-08-17T06:18:07.061Z</time>
      </trkpt>
      <trkpt lat="36.948416" lon="-5.920490">
        <ele>69.648222</ele>
        <time>2020-08-17T06:18:09.050Z</time>
      </trkpt>
      <trkpt lat="36.948316" lon="-5.920443">
        <ele>70.037272</ele>
        <time>2020-08-17T06:18:11.058Z</time>
      </trkpt>
      <trkpt lat="36.948219" lon="-5.920414">
        <ele>70.400495</ele>
        <time>2020-08-17T06:18:13.047Z</time>
      </trkpt>
      <trkpt lat="36.948120" lon="-5.920362">
        <ele>70.791538</ele>
        <time>2020-08-17T06:18:15.045Z</time>
      </trkpt>
      <trkpt lat="36.948032" lon="-5.920323">
        <ele>71.131547</ele>
        <time>2020-08-17T06:18:17.061Z</time>
      </trkpt>
      <trkpt lat="36.947911" lon="-5.920287">
        <ele>71.584522</ele>
        <time>2020-08-17T06:18:20.057Z</time>
      </trkpt>
      <trkpt lat="36.947821" lon="-5.920214">
        <ele>71.975150</ele>
        <time>2020-08-17T06:18:23.072Z</time>
      </trkpt>
      <trkpt lat="36.947735" lon="-5.920140">
        <ele>72.355278</ele>
        <time>2020-08-17T06:18:27.076Z</time>
      </trkpt>
      <trkpt lat="36.947665" lon="-5.920054">
        <ele>72.712567</ele>
        <time>2020-08-17T06:18:31.064Z</time>
      </trkpt>
      <trkpt lat="36.947601" lon="-5.919939">
        <ele>73.120457</ele>
        <time>2020-08-17T06:18:36.057Z</time>
      </trkpt>
      <trkpt lat="36.947552" lon="-5.919834">
        <ele>73.474367</ele>
        <time>2020-08-17T06:18:40.057Z</time>
      </trkpt>
      <trkpt lat="36.947495" lon="-5.919728">
        <ele>73.846239</ele>
        <time>2020-08-17T06:18:44.062Z</time>
      </trkpt>
      <trkpt lat="36.947450" lon="-5.919616">
        <ele>74.211115</ele>
        <time>2020-08-17T06:18:48.055Z</time>
      </trkpt>
      <trkpt lat="36.947413" lon="-5.919507">
        <ele>74.555811</ele>
        <time>2020-08-17T06:18:52.051Z</time>
      </trkpt>
      <trkpt lat="36.947363" lon="-5.919393">
        <ele>74.934315</ele>
        <time>2020-08-17T06:18:56.059Z</time>
      </trkpt>
      <trkpt lat="36.947300" lon="-5.919282">
        <ele>75.330587</ele>
        <time>2020-08-17T06:19:00.079Z</time>
      </trkpt>
      <trkpt lat="36.947243" lon="-5.919189">
        <ele>75.671720</ele>
        <time>2020-08-17T06:19:04.058Z</time>
      </trkpt>
      <trkpt lat="36.947193" lon="-5.919091">
        <ele>76.010140</ele>
        <time>2020-08-17T06:19:08.057Z</time>
      </trkpt>
      <trkpt lat="36.947131" lon="-5.918999">
        <ele>76.520696</ele>
        <time>2020-08-17T06:19:12.081Z</time>
      </trkpt>
      <trkpt lat="36.947079" lon="-5.918906">
        <ele>77.100785</ele>
        <time>2020-08-17T06:19:16.058Z</time>
      </trkpt>
      <trkpt lat="36.947016" lon="-5.918795">
        <ele>77.796597</ele>
        <time>2020-08-17T06:19:21.089Z</time>
      </trkpt>
      <trkpt lat="36.946952" lon="-5.918710">
        <ele>78.393452</ele>
        <time>2020-08-17T06:19:25.075Z</time>
      </trkpt>
      <trkpt lat="36.946895" lon="-5.918609">
        <ele>79.025379</ele>
        <time>2020-08-17T06:19:29.064Z</time>
      </trkpt>
      <trkpt lat="36.946831" lon="-5.918519">
        <ele>79.641084</ele>
        <time>2020-08-17T06:19:34.070Z</time>
      </trkpt>
      <trkpt lat="36.946751" lon="-5.918435">
        <ele>80.308952</ele>
        <time>2020-08-17T06:19:39.077Z</time>
      </trkpt>
      <trkpt lat="36.946653" lon="-5.918369">
        <ele>81.020678</ele>
        <time>2020-08-17T06:19:44.064Z</time>
      </trkpt>
      <trkpt lat="36.946566" lon="-5.918320">
        <ele>81.630812</ele>
        <time>2020-08-17T06:19:48.062Z</time>
      </trkpt>
      <trkpt lat="36.946474" lon="-5.918272">
        <ele>82.268253</ele>
        <time>2020-08-17T06:19:52.069Z</time>
      </trkpt>
      <trkpt lat="36.946383" lon="-5.918230">
        <ele>82.888529</ele>
        <time>2020-08-17T06:19:56.081Z</time>
      </trkpt>
      <trkpt lat="36.946281" lon="-5.918184">
        <ele>83.581898</ele>
        <time>2020-08-17T06:20:00.080Z</time>
      </trkpt>
      <trkpt lat="36.946182" lon="-5.918141">
        <ele>84.252066</ele>
        <time>2020-08-17T06:20:04.053Z</time>
      </trkpt>
      <trkpt lat="36.946079" lon="-5.918091">
        <ele>84.958589</ele>
        <time>2020-08-17T06:20:08.063Z</time>
      </trkpt>
      <trkpt lat="36.945995" lon="-5.918043">
        <ele>85.549140</ele>
        <time>2020-08-17T06:20:11.079Z</time>
      </trkpt>
      <trkpt lat="36.945909" lon="-5.917994">
        <ele>86.153448</ele>
        <time>2020-08-17T06:20:14.071Z</time>
      </trkpt>
      <trkpt lat="36.945816" lon="-5.917948">
        <ele>86.792970</ele>
        <time>2020-08-17T06:20:17.072Z</time>
      </trkpt>
      <trkpt lat="36.945725" lon="-5.917901">
        <ele>87.422547</ele>
        <time>2020-08-17T06:20:20.067Z</time>
      </trkpt>
      <trkpt lat="36.945634" lon="-5.917848">
        <ele>87.775780</ele>
        <time>2020-08-17T06:20:23.055Z</time>
      </trkpt>
      <trkpt lat="36.945533" lon="-5.917790">
        <ele>87.990527</ele>
        <time>2020-08-17T06:20:26.082Z</time>
      </trkpt>
      <trkpt lat="36.945435" lon="-5.917739">
        <ele>88.195630</ele>
        <time>2020-08-17T06:20:29.071Z</time>
      </trkpt>
      <trkpt lat="36.945340" lon="-5.917677">
        <ele>88.402681</ele>
        <time>2020-08-17T06:20:32.063Z</time>
      </trkpt>
      <trkpt lat="36.945249" lon="-5.917623">
        <ele>88.597304</ele>
        <time>2020-08-17T06:20:35.062Z</time>
      </trkpt>
      <trkpt lat="36.945146" lon="-5.917564">
        <ele>88.816208</ele>
        <time>2020-08-17T06:20:38.071Z</time>
      </trkpt>
      <trkpt lat="36.945036" lon="-5.917511">
        <ele>89.043989</ele>
        <time>2020-08-17T06:20:41.071Z</time>
      </trkpt>
      <trkpt lat="36.944926" lon="-5.917468">
        <ele>89.266686</ele>
        <time>2020-08-17T06:20:44.073Z</time>
      </trkpt>
      <trkpt lat="36.944821" lon="-5.917424">
        <ele>89.480666</ele>
        <time>2020-08-17T06:20:47.065Z</time>
      </trkpt>
      <trkpt lat="36.944724" lon="-5.917376">
        <ele>89.682237</ele>
        <time>2020-08-17T06:20:50.071Z</time>
      </trkpt>
      <trkpt lat="36.944622" lon="-5.917319">
        <ele>89.898108</ele>
        <time>2020-08-17T06:20:53.076Z</time>
      </trkpt>
      <trkpt lat="36.944522" lon="-5.917267">
        <ele>90.107373</ele>
        <time>2020-08-17T06:20:56.095Z</time>
      </trkpt>
      <trkpt lat="36.944422" lon="-5.917221">
        <ele>90.313259</ele>
        <time>2020-08-17T06:20:59.076Z</time>
      </trkpt>
      <trkpt lat="36.944319" lon="-5.917168">
        <ele>90.528472</ele>
        <time>2020-08-17T06:21:02.077Z</time>
      </trkpt>
      <trkpt lat="36.944222" lon="-5.917116">
        <ele>90.732396</ele>
        <time>2020-08-17T06:21:05.063Z</time>
      </trkpt>
      <trkpt lat="36.944128" lon="-5.917064">
        <ele>90.931004</ele>
        <time>2020-08-17T06:21:08.067Z</time>
      </trkpt>
      <trkpt lat="36.944030" lon="-5.917003">
        <ele>91.122335</ele>
        <time>2020-08-17T06:21:11.048Z</time>
      </trkpt>
      <trkpt lat="36.943927" lon="-5.916945">
        <ele>91.065614</ele>
        <time>2020-08-17T06:21:14.048Z</time>
      </trkpt>
      <trkpt lat="36.943821" lon="-5.916888">
        <ele>91.007676</ele>
        <time>2020-08-17T06:21:17.048Z</time>
      </trkpt>
      <trkpt lat="36.943709" lon="-5.916833">
        <ele>90.947256</ele>
        <time>2020-08-17T06:21:20.059Z</time>
      </trkpt>
      <trkpt lat="36.943590" lon="-5.916779">
        <ele>90.883689</ele>
        <time>2020-08-17T06:21:23.067Z</time>
      </trkpt>
      <trkpt lat="36.943475" lon="-5.916713">
        <ele>90.820154</ele>
        <time>2020-08-17T06:21:26.071Z</time>
      </trkpt>
      <trkpt lat="36.943356" lon="-5.916651">
        <ele>90.755421</ele>
        <time>2020-08-17T06:21:29.054Z</time>
      </trkpt>
      <trkpt lat="36.943233" lon="-5.916594">
        <ele>90.689554</ele>
        <time>2020-08-17T06:21:32.081Z</time>
      </trkpt>
      <trkpt lat="36.943109" lon="-5.916547">
        <ele>90.624490</ele>
        <time>2020-08-17T06:21:35.066Z</time>
      </trkpt>
      <trkpt lat="36.942987" lon="-5.916498">
        <ele>90.560146</ele>
        <time>2020-08-17T06:21:38.064Z</time>
      </trkpt>
      <trkpt lat="36.942860" lon="-5.916446">
        <ele>90.493042</ele>
        <time>2020-08-17T06:21:41.066Z</time>
      </trkpt>
      <trkpt lat="36.942733" lon="-5.916394">
        <ele>90.425938</ele>
        <time>2020-08-17T06:21:44.076Z</time>
      </trkpt>
      <trkpt lat="36.942606" lon="-5.916348">
        <ele>90.359543</ele>
        <time>2020-08-17T06:21:47.073Z</time>
      </trkpt>
      <trkpt lat="36.942484" lon="-5.916305">
        <ele>90.295894</ele>
        <time>2020-08-17T06:21:50.070Z</time>
      </trkpt>
      <trkpt lat="36.942397" lon="-5.916274">
        <ele>90.250468</ele>
        <time>2020-08-17T06:21:52.067Z</time>
      </trkpt>
      <trkpt lat="36.942267" lon="-5.916233">
        <ele>90.096282</ele>
        <time>2020-08-17T06:21:55.074Z</time>
      </trkpt>
      <trkpt lat="36.942172" lon="-5.916189">
        <ele>89.935293</ele>
        <time>2020-08-17T06:21:57.069Z</time>
      </trkpt>
      <trkpt lat="36.942081" lon="-5.916150">
        <ele>89.782423</ele>
        <time>2020-08-17T06:21:59.061Z</time>
      </trkpt>
      <trkpt lat="36.941950" lon="-5.916085">
        <ele>89.558460</ele>
        <time>2020-08-17T06:22:02.069Z</time>
      </trkpt>
      <trkpt lat="36.941842" lon="-5.916051">
        <ele>89.381473</ele>
        <time>2020-08-17T06:22:04.079Z</time>
      </trkpt>
      <trkpt lat="36.941745" lon="-5.916022">
        <ele>89.222977</ele>
        <time>2020-08-17T06:22:06.062Z</time>
      </trkpt>
      <trkpt lat="36.941623" lon="-5.915987">
        <ele>89.024059</ele>
        <time>2020-08-17T06:22:09.076Z</time>
      </trkpt>
      <trkpt lat="36.941530" lon="-5.915947">
        <ele>88.867771</ele>
        <time>2020-08-17T06:22:11.073Z</time>
      </trkpt>
      <trkpt lat="36.941443" lon="-5.915891">
        <ele>88.712284</ele>
        <time>2020-08-17T06:22:13.066Z</time>
      </trkpt>
      <trkpt lat="36.941322" lon="-5.915830">
        <ele>88.504963</ele>
        <time>2020-08-17T06:22:16.074Z</time>
      </trkpt>
      <trkpt lat="36.941219" lon="-5.915735">
        <ele>88.301602</ele>
        <time>2020-08-17T06:22:19.076Z</time>
      </trkpt>
      <trkpt lat="36.941125" lon="-5.915637">
        <ele>88.107149</ele>
        <time>2020-08-17T06:22:22.061Z</time>
      </trkpt>
      <trkpt lat="36.941032" lon="-5.915513">
        <ele>87.891157</ele>
        <time>2020-08-17T06:22:25.085Z</time>
      </trkpt>
      <trkpt lat="36.940968" lon="-5.915427">
        <ele>87.741899</ele>
        <time>2020-08-17T06:22:27.073Z</time>
      </trkpt>
      <trkpt lat="36.940889" lon="-5.915308">
        <ele>87.545404</ele>
        <time>2020-08-17T06:22:30.075Z</time>
      </trkpt>
      <trkpt lat="36.940810" lon="-5.915189">
        <ele>87.375738</ele>
        <time>2020-08-17T06:22:33.060Z</time>
      </trkpt>
      <trkpt lat="36.940723" lon="-5.915070">
        <ele>87.516693</ele>
        <time>2020-08-17T06:22:36.074Z</time>
      </trkpt>
      <trkpt lat="36.940623" lon="-5.914975">
        <ele>87.653995</ele>
        <time>2020-08-17T06:22:39.052Z</time>
      </trkpt>
      <trkpt lat="36.940537" lon="-5.914908">
        <ele>87.764778</ele>
        <time>2020-08-17T06:22:42.067Z</time>
      </trkpt>
      <trkpt lat="36.940435" lon="-5.914874">
        <ele>87.880208</ele>
        <time>2020-08-17T06:22:46.059Z</time>
      </trkpt>
      <trkpt lat="36.940345" lon="-5.914825">
        <ele>87.987538</ele>
        <time>2020-08-17T06:23:04.068Z</time>
      </trkpt>
      <trkpt lat="36.940300" lon="-5.914722">
        <ele>88.090132</ele>
        <time>2020-08-17T06:23:08.059Z</time>
      </trkpt>
      <trkpt lat="36.940256" lon="-5.914576">
        <ele>88.226507</ele>
        <time>2020-08-17T06:23:11.064Z</time>
      </trkpt>
      <trkpt lat="36.940204" lon="-5.914437">
        <ele>88.360643</ele>
        <time>2020-08-17T06:23:14.062Z</time>
      </trkpt>
      <trkpt lat="36.940135" lon="-5.914325">
        <ele>88.484237</ele>
        <time>2020-08-17T06:23:17.064Z</time>
      </trkpt>
      <trkpt lat="36.940076" lon="-5.914226">
        <ele>88.592169</ele>
        <time>2020-08-17T06:23:20.053Z</time>
      </trkpt>
      <trkpt lat="36.940011" lon="-5.914130">
        <ele>88.702134</ele>
        <time>2020-08-17T06:23:23.065Z</time>
      </trkpt>
      <trkpt lat="36.939950" lon="-5.914022">
        <ele>88.817717</ele>
        <time>2020-08-17T06:23:26.049Z</time>
      </trkpt>
      <trkpt lat="36.939872" lon="-5.913929">
        <ele>88.935539</ele>
        <time>2020-08-17T06:23:29.072Z</time>
      </trkpt>
      <trkpt lat="36.939794" lon="-5.913846">
        <ele>89.047511</ele>
        <time>2020-08-17T06:23:32.076Z</time>
      </trkpt>
      <trkpt lat="36.939706" lon="-5.913770">
        <ele>89.164440</ele>
        <time>2020-08-17T06:23:35.066Z</time>
      </trkpt>
      <trkpt lat="36.939612" lon="-5.913698">
        <ele>89.284963</ele>
        <time>2020-08-17T06:23:38.078Z</time>
      </trkpt>
      <trkpt lat="36.939518" lon="-5.913615">
        <ele>89.563672</ele>
        <time>2020-08-17T06:23:41.077Z</time>
      </trkpt>
      <trkpt lat="36.939417" lon="-5.913539">
        <ele>89.941597</ele>
        <time>2020-08-17T06:23:44.060Z</time>
      </trkpt>
      <trkpt lat="36.939319" lon="-5.913481">
        <ele>90.289225</ele>
        <time>2020-08-17T06:23:47.060Z</time>
      </trkpt>
      <trkpt lat="36.939221" lon="-5.913427">
        <ele>90.632595</ele>
        <time>2020-08-17T06:23:50.048Z</time>
      </trkpt>
      <trkpt lat="36.939132" lon="-5.913369">
        <ele>90.954373</ele>
        <time>2020-08-17T06:23:53.045Z</time>
      </trkpt>
      <trkpt lat="36.939044" lon="-5.913315">
        <ele>91.268663</ele>
        <time>2020-08-17T06:23:56.063Z</time>
      </trkpt>
      <trkpt lat="36.938950" lon="-5.913249">
        <ele>91.614300</ele>
        <time>2020-08-17T06:24:00.069Z</time>
      </trkpt>
      <trkpt lat="36.938870" lon="-5.913172">
        <ele>91.937952</ele>
        <time>2020-08-17T06:24:04.065Z</time>
      </trkpt>
      <trkpt lat="36.938783" lon="-5.913094">
        <ele>92.281156</ele>
        <time>2020-08-17T06:24:08.068Z</time>
      </trkpt>
      <trkpt lat="36.938703" lon="-5.913003">
        <ele>92.627855</ele>
        <time>2020-08-17T06:24:12.080Z</time>
      </trkpt>
      <trkpt lat="36.938628" lon="-5.912902">
        <ele>92.981187</ele>
        <time>2020-08-17T06:24:16.078Z</time>
      </trkpt>
      <trkpt lat="36.938561" lon="-5.912805">
        <ele>93.309761</ele>
        <time>2020-08-17T06:24:20.079Z</time>
      </trkpt>
      <trkpt lat="36.938479" lon="-5.912707">
        <ele>93.673385</ele>
        <time>2020-08-17T06:24:24.069Z</time>
      </trkpt>
      <trkpt lat="36.938413" lon="-5.912624">
        <ele>93.973452</ele>
        <time>2020-08-17T06:24:27.074Z</time>
      </trkpt>
      <trkpt lat="36.938340" lon="-5.912535">
        <ele>94.300291</ele>
        <time>2020-08-17T06:24:30.073Z</time>
      </trkpt>
      <trkpt lat="36.938262" lon="-5.912429">
        <ele>94.669564</ele>
        <time>2020-08-17T06:24:33.072Z</time>
      </trkpt>
      <trkpt lat="36.938177" lon="-5.912319">
        <ele>95.061699</ele>
        <time>2020-08-17T06:24:36.080Z</time>
      </trkpt>
      <trkpt lat="36.938113" lon="-5.912231">
        <ele>95.028926</ele>
        <time>2020-08-17T06:24:38.070Z</time>
      </trkpt>
      <trkpt lat="36.938044" lon="-5.912141">
        <ele>94.945066</ele>
        <time>2020-08-17T06:24:40.065Z</time>
      </trkpt>
      <trkpt lat="36.937965" lon="-5.912058">
        <ele>94.858275</ele>
        <time>2020-08-17T06:24:42.090Z</time>
      </trkpt>
      <trkpt lat="36.937886" lon="-5.911969">
        <ele>94.768837</ele>
        <time>2020-08-17T06:24:44.059Z</time>
      </trkpt>
      <trkpt lat="36.937812" lon="-5.911880">
        <ele>94.682479</ele>
        <time>2020-08-17T06:24:46.074Z</time>
      </trkpt>
      <trkpt lat="36.937742" lon="-5.911785">
        <ele>94.595592</ele>
        <time>2020-08-17T06:24:48.070Z</time>
      </trkpt>
      <trkpt lat="36.937665" lon="-5.911694">
        <ele>94.506478</ele>
        <time>2020-08-17T06:24:50.063Z</time>
      </trkpt>
      <trkpt lat="36.937587" lon="-5.911606">
        <ele>94.418115</ele>
        <time>2020-08-17T06:24:52.073Z</time>
      </trkpt>
      <trkpt lat="36.937519" lon="-5.911511">
        <ele>94.332359</ele>
        <time>2020-08-17T06:24:54.066Z</time>
      </trkpt>
      <trkpt lat="36.937444" lon="-5.911424">
        <ele>94.246312</ele>
        <time>2020-08-17T06:24:56.070Z</time>
      </trkpt>
      <trkpt lat="36.937373" lon="-5.911340">
        <ele>94.164101</ele>
        <time>2020-08-17T06:24:58.057Z</time>
      </trkpt>
      <trkpt lat="36.937299" lon="-5.911253">
        <ele>94.078669</ele>
        <time>2020-08-17T06:25:00.072Z</time>
      </trkpt>
      <trkpt lat="36.937229" lon="-5.911165">
        <ele>93.995181</ele>
        <time>2020-08-17T06:25:02.055Z</time>
      </trkpt>
      <trkpt lat="36.937146" lon="-5.911082">
        <ele>93.905787</ele>
        <time>2020-08-17T06:25:04.060Z</time>
      </trkpt>
      <trkpt lat="36.937045" lon="-5.910948">
        <ele>93.781932</ele>
        <time>2020-08-17T06:25:07.078Z</time>
      </trkpt>
      <trkpt lat="36.936963" lon="-5.910871">
        <ele>93.695674</ele>
        <time>2020-08-17T06:25:09.071Z</time>
      </trkpt>
      <trkpt lat="36.936884" lon="-5.910788">
        <ele>93.608884</ele>
        <time>2020-08-17T06:25:11.069Z</time>
      </trkpt>
      <trkpt lat="36.936790" lon="-5.910708">
        <ele>93.471247</ele>
        <time>2020-08-17T06:25:13.066Z</time>
      </trkpt>
      <trkpt lat="36.936729" lon="-5.910623">
        <ele>93.350033</ele>
        <time>2020-08-17T06:25:15.073Z</time>
      </trkpt>
      <trkpt lat="36.936660" lon="-5.910547">
        <ele>93.227992</ele>
        <time>2020-08-17T06:25:17.063Z</time>
      </trkpt>
      <trkpt lat="36.936582" lon="-5.910428">
        <ele>93.064693</ele>
        <time>2020-08-17T06:25:20.072Z</time>
      </trkpt>
      <trkpt lat="36.936493" lon="-5.910329">
        <ele>92.906594</ele>
        <time>2020-08-17T06:25:23.071Z</time>
      </trkpt>
      <trkpt lat="36.936395" lon="-5.910276">
        <ele>92.764860</ele>
        <time>2020-08-17T06:25:26.070Z</time>
      </trkpt>
      <trkpt lat="36.936290" lon="-5.910225">
        <ele>92.615332</ele>
        <time>2020-08-17T06:25:30.061Z</time>
      </trkpt>
      <trkpt lat="36.936179" lon="-5.910208">
        <ele>92.466874</ele>
        <time>2020-08-17T06:25:34.062Z</time>
      </trkpt>
      <trkpt lat="36.936063" lon="-5.910194">
        <ele>92.312165</ele>
        <time>2020-08-17T06:25:38.067Z</time>
      </trkpt>
      <trkpt lat="36.935968" lon="-5.910181">
        <ele>92.185296</ele>
        <time>2020-08-17T06:25:41.055Z</time>
      </trkpt>
      <trkpt lat="36.935872" lon="-5.910173">
        <ele>92.057570</ele>
        <time>2020-08-17T06:25:44.068Z</time>
      </trkpt>
      <trkpt lat="36.935774" lon="-5.910169">
        <ele>91.927401</ele>
        <time>2020-08-17T06:25:47.060Z</time>
      </trkpt>
      <trkpt lat="36.935679" lon="-5.910164">
        <ele>91.801173</ele>
        <time>2020-08-17T06:25:50.072Z</time>
      </trkpt>
      <trkpt lat="36.935580" lon="-5.910154">
        <ele>91.669319</ele>
        <time>2020-08-17T06:25:53.054Z</time>
      </trkpt>
      <trkpt lat="36.935478" lon="-5.910144">
        <ele>91.533494</ele>
        <time>2020-08-17T06:25:56.067Z</time>
      </trkpt>
      <trkpt lat="36.935380" lon="-5.910131">
        <ele>91.402666</ele>
        <time>2020-08-17T06:25:59.085Z</time>
      </trkpt>
      <trkpt lat="36.935266" lon="-5.910124">
        <ele>91.251144</ele>
        <time>2020-08-17T06:26:03.063Z</time>
      </trkpt>
      <trkpt lat="36.935162" lon="-5.910101">
        <ele>91.300704</ele>
        <time>2020-08-17T06:26:07.061Z</time>
      </trkpt>
      <trkpt lat="36.935048" lon="-5.910043">
        <ele>91.492956</ele>
        <time>2020-08-17T06:26:11.067Z</time>
      </trkpt>
      <trkpt lat="36.934964" lon="-5.909981">
        <ele>91.645314</ele>
        <time>2020-08-17T06:26:14.059Z</time>
      </trkpt>
      <trkpt lat="36.934881" lon="-5.909901">
        <ele>91.808994</ele>
        <time>2020-08-17T06:26:17.070Z</time>
      </trkpt>
      <trkpt lat="36.934786" lon="-5.909799">
        <ele>92.004562</ele>
        <time>2020-08-17T06:26:20.065Z</time>
      </trkpt>
      <trkpt lat="36.934692" lon="-5.909707">
        <ele>92.191004</ele>
        <time>2020-08-17T06:26:23.061Z</time>
      </trkpt>
      <trkpt lat="36.934601" lon="-5.909608">
        <ele>92.379395</ele>
        <time>2020-08-17T06:26:26.070Z</time>
      </trkpt>
      <trkpt lat="36.934508" lon="-5.909507">
        <ele>92.571782</ele>
        <time>2020-08-17T06:26:29.068Z</time>
      </trkpt>
      <trkpt lat="36.934418" lon="-5.909404">
        <ele>92.762332</ele>
        <time>2020-08-17T06:26:32.065Z</time>
      </trkpt>
      <trkpt lat="36.934333" lon="-5.909312">
        <ele>92.937915</ele>
        <time>2020-08-17T06:26:35.061Z</time>
      </trkpt>
      <trkpt lat="36.934244" lon="-5.909220">
        <ele>93.118270</ele>
        <time>2020-08-17T06:26:38.079Z</time>
      </trkpt>
      <trkpt lat="36.934157" lon="-5.909136">
        <ele>93.289948</ele>
        <time>2020-08-17T06:26:41.078Z</time>
      </trkpt>
      <trkpt lat="36.934080" lon="-5.909051">
        <ele>93.450369</ele>
        <time>2020-08-17T06:26:44.070Z</time>
      </trkpt>
      <trkpt lat="36.934009" lon="-5.908967">
        <ele>93.603026</ele>
        <time>2020-08-17T06:26:47.059Z</time>
      </trkpt>
      <trkpt lat="36.933934" lon="-5.908882">
        <ele>93.761117</ele>
        <time>2020-08-17T06:26:50.059Z</time>
      </trkpt>
      <trkpt lat="36.933856" lon="-5.908795">
        <ele>93.924364</ele>
        <time>2020-08-17T06:26:53.050Z</time>
      </trkpt>
      <trkpt lat="36.933764" lon="-5.908709">
        <ele>94.286180</ele>
        <time>2020-08-17T06:26:57.065Z</time>
      </trkpt>
      <trkpt lat="36.933662" lon="-5.908650">
        <ele>94.795826</ele>
        <time>2020-08-17T06:27:01.065Z</time>
      </trkpt>
      <trkpt lat="36.933559" lon="-5.908599">
        <ele>95.298211</ele>
        <time>2020-08-17T06:27:06.069Z</time>
      </trkpt>
      <trkpt lat="36.933469" lon="-5.908565">
        <ele>95.724586</ele>
        <time>2020-08-17T06:27:10.082Z</time>
      </trkpt>
      <trkpt lat="36.933372" lon="-5.908560">
        <ele>96.164877</ele>
        <time>2020-08-17T06:27:14.070Z</time>
      </trkpt>
      <trkpt lat="36.933271" lon="-5.908545">
        <ele>96.626151</ele>
        <time>2020-08-17T06:27:18.070Z</time>
      </trkpt>
      <trkpt lat="36.933164" lon="-5.908534">
        <ele>97.113057</ele>
        <time>2020-08-17T06:27:23.062Z</time>
      </trkpt>
      <trkpt lat="36.933063" lon="-5.908518">
        <ele>97.574773</ele>
        <time>2020-08-17T06:27:27.058Z</time>
      </trkpt>
      <trkpt lat="36.932963" lon="-5.908511">
        <ele>98.029005</ele>
        <time>2020-08-17T06:27:31.077Z</time>
      </trkpt>
      <trkpt lat="36.932865" lon="-5.908504">
        <ele>98.474182</ele>
        <time>2020-08-17T06:27:35.079Z</time>
      </trkpt>
      <trkpt lat="36.932769" lon="-5.908516">
        <ele>98.911732</ele>
        <time>2020-08-17T06:27:39.064Z</time>
      </trkpt>
      <trkpt lat="36.932678" lon="-5.908518">
        <ele>99.324501</ele>
        <time>2020-08-17T06:27:43.068Z</time>
      </trkpt>
      <trkpt lat="36.932582" lon="-5.908522">
        <ele>99.760125</ele>
        <time>2020-08-17T06:27:47.075Z</time>
      </trkpt>
      <trkpt lat="36.932473" lon="-5.908511">
        <ele>100.256071</ele>
        <time>2020-08-17T06:27:52.046Z</time>
      </trkpt>
      <trkpt lat="36.932374" lon="-5.908510">
        <ele>100.705073</ele>
        <time>2020-08-17T06:27:56.092Z</time>
      </trkpt>
      <trkpt lat="36.932266" lon="-5.908503">
        <ele>101.195535</ele>
        <time>2020-08-17T06:28:00.086Z</time>
      </trkpt>
      <trkpt lat="36.932160" lon="-5.908502">
        <ele>101.676283</ele>
        <time>2020-08-17T06:28:04.092Z</time>
      </trkpt>
      <trkpt lat="36.932052" lon="-5.908493">
        <ele>102.168231</ele>
        <time>2020-08-17T06:28:08.064Z</time>
      </trkpt>
      <trkpt lat="36.931934" lon="-5.908488">
        <ele>102.989343</ele>
        <time>2020-08-17T06:28:12.066Z</time>
      </trkpt>
      <trkpt lat="36.931841" lon="-5.908488">
        <ele>103.636120</ele>
        <time>2020-08-17T06:28:15.071Z</time>
      </trkpt>
      <trkpt lat="36.931746" lon="-5.908483">
        <ele>104.297390</ele>
        <time>2020-08-17T06:28:18.068Z</time>
      </trkpt>
      <trkpt lat="36.931638" lon="-5.908477">
        <ele>105.049226</ele>
        <time>2020-08-17T06:28:21.062Z</time>
      </trkpt>
      <trkpt lat="36.931530" lon="-5.908476">
        <ele>105.800342</ele>
        <time>2020-08-17T06:28:24.080Z</time>
      </trkpt>
      <trkpt lat="36.931423" lon="-5.908479">
        <ele>106.544670</ele>
        <time>2020-08-17T06:28:27.084Z</time>
      </trkpt>
      <trkpt lat="36.931313" lon="-5.908474">
        <ele>107.310179</ele>
        <time>2020-08-17T06:28:30.072Z</time>
      </trkpt>
      <trkpt lat="36.931200" lon="-5.908457">
        <ele>108.101710</ele>
        <time>2020-08-17T06:28:33.066Z</time>
      </trkpt>
      <trkpt lat="36.931099" lon="-5.908462">
        <ele>108.804673</ele>
        <time>2020-08-17T06:28:36.068Z</time>
      </trkpt>
      <trkpt lat="36.930993" lon="-5.908452">
        <ele>109.543953</ele>
        <time>2020-08-17T06:28:39.069Z</time>
      </trkpt>
      <trkpt lat="36.930889" lon="-5.908456">
        <ele>110.267571</ele>
        <time>2020-08-17T06:28:42.060Z</time>
      </trkpt>
      <trkpt lat="36.930791" lon="-5.908455">
        <ele>110.949144</ele>
        <time>2020-08-17T06:28:45.061Z</time>
      </trkpt>
      <trkpt lat="36.930697" lon="-5.908445">
        <ele>111.605234</ele>
        <time>2020-08-17T06:28:48.057Z</time>
      </trkpt>
      <trkpt lat="36.930602" lon="-5.908429">
        <ele>112.271881</ele>
        <time>2020-08-17T06:28:51.058Z</time>
      </trkpt>
      <trkpt lat="36.930510" lon="-5.908418">
        <ele>112.914619</ele>
        <time>2020-08-17T06:28:54.070Z</time>
      </trkpt>
      <trkpt lat="36.930417" lon="-5.908406">
        <ele>113.564827</ele>
        <time>2020-08-17T06:28:57.071Z</time>
      </trkpt>
      <trkpt lat="36.930322" lon="-5.908396">
        <ele>114.227847</ele>
        <time>2020-08-17T06:29:00.074Z</time>
      </trkpt>
      <trkpt lat="36.930231" lon="-5.908381">
        <ele>114.488181</ele>
        <time>2020-08-17T06:29:03.049Z</time>
      </trkpt>
      <trkpt lat="36.930110" lon="-5.908373">
        <ele>113.673308</ele>
        <time>2020-08-17T06:29:07.059Z</time>
      </trkpt>
      <trkpt lat="36.930009" lon="-5.908347">
        <ele>112.979840</ele>
        <time>2020-08-17T06:29:10.077Z</time>
      </trkpt>
      <trkpt lat="36.929903" lon="-5.908311">
        <ele>112.241175</ele>
        <time>2020-08-17T06:29:13.062Z</time>
      </trkpt>
      <trkpt lat="36.929809" lon="-5.908270">
        <ele>111.571692</ele>
        <time>2020-08-17T06:29:16.079Z</time>
      </trkpt>
      <trkpt lat="36.929711" lon="-5.908247">
        <ele>110.901133</ele>
        <time>2020-08-17T06:29:19.062Z</time>
      </trkpt>
      <trkpt lat="36.929609" lon="-5.908237">
        <ele>110.213069</ele>
        <time>2020-08-17T06:29:22.059Z</time>
      </trkpt>
      <trkpt lat="36.929507" lon="-5.908220">
        <ele>109.521046</ele>
        <time>2020-08-17T06:29:25.060Z</time>
      </trkpt>
      <trkpt lat="36.929407" lon="-5.908216">
        <ele>108.848192</ele>
        <time>2020-08-17T06:29:28.061Z</time>
      </trkpt>
      <trkpt lat="36.929308" lon="-5.908206">
        <ele>108.180239</ele>
        <time>2020-08-17T06:29:31.061Z</time>
      </trkpt>
      <trkpt lat="36.929214" lon="-5.908193">
        <ele>107.544228</ele>
        <time>2020-08-17T06:29:34.077Z</time>
      </trkpt>
      <trkpt lat="36.929124" lon="-5.908177">
        <ele>106.932886</ele>
        <time>2020-08-17T06:29:37.067Z</time>
      </trkpt>
      <trkpt lat="36.929006" lon="-5.908149">
        <ele>106.125174</ele>
        <time>2020-08-17T06:29:41.073Z</time>
      </trkpt>
      <trkpt lat="36.928917" lon="-5.908129">
        <ele>105.517058</ele>
        <time>2020-08-17T06:29:44.072Z</time>
      </trkpt>
      <trkpt lat="36.928820" lon="-5.908106">
        <ele>104.853108</ele>
        <time>2020-08-17T06:29:47.072Z</time>
      </trkpt>
      <trkpt lat="36.928728" lon="-5.908085">
        <ele>104.224183</ele>
        <time>2020-08-17T06:29:50.058Z</time>
      </trkpt>
      <trkpt lat="36.928632" lon="-5.908064">
        <ele>103.568776</ele>
        <time>2020-08-17T06:29:53.050Z</time>
      </trkpt>
      <trkpt lat="36.928529" lon="-5.908039">
        <ele>102.863172</ele>
        <time>2020-08-17T06:29:56.062Z</time>
      </trkpt>
      <trkpt lat="36.928432" lon="-5.908017">
        <ele>102.567863</ele>
        <time>2020-08-17T06:29:59.060Z</time>
      </trkpt>
      <trkpt lat="36.928333" lon="-5.908000">
        <ele>102.549934</ele>
        <time>2020-08-17T06:30:02.072Z</time>
      </trkpt>
      <trkpt lat="36.928215" lon="-5.907976">
        <ele>102.528485</ele>
        <time>2020-08-17T06:30:05.058Z</time>
      </trkpt>
      <trkpt lat="36.928126" lon="-5.907950">
        <ele>102.512087</ele>
        <time>2020-08-17T06:30:07.068Z</time>
      </trkpt>
      <trkpt lat="36.928032" lon="-5.907911">
        <ele>102.494319</ele>
        <time>2020-08-17T06:30:09.068Z</time>
      </trkpt>
      <trkpt lat="36.927931" lon="-5.907873">
        <ele>102.475396</ele>
        <time>2020-08-17T06:30:11.062Z</time>
      </trkpt>
      <trkpt lat="36.927823" lon="-5.907816">
        <ele>102.454365</ele>
        <time>2020-08-17T06:30:13.061Z</time>
      </trkpt>
      <trkpt lat="36.927714" lon="-5.907754">
        <ele>102.432881</ele>
        <time>2020-08-17T06:30:15.064Z</time>
      </trkpt>
      <trkpt lat="36.927613" lon="-5.907706">
        <ele>102.413497</ele>
        <time>2020-08-17T06:30:17.070Z</time>
      </trkpt>
      <trkpt lat="36.927496" lon="-5.907643">
        <ele>102.390643</ele>
        <time>2020-08-17T06:30:19.064Z</time>
      </trkpt>
      <trkpt lat="36.927389" lon="-5.907603">
        <ele>102.370606</ele>
        <time>2020-08-17T06:30:21.066Z</time>
      </trkpt>
      <trkpt lat="36.927283" lon="-5.907549">
        <ele>102.350071</ele>
        <time>2020-08-17T06:30:23.062Z</time>
      </trkpt>
      <trkpt lat="36.927170" lon="-5.907490">
        <ele>102.328102</ele>
        <time>2020-08-17T06:30:25.072Z</time>
      </trkpt>
      <trkpt lat="36.927045" lon="-5.907432">
        <ele>102.304182</ele>
        <time>2020-08-17T06:30:27.060Z</time>
      </trkpt>
      <trkpt lat="36.926925" lon="-5.907366">
        <ele>102.280663</ele>
        <time>2020-08-17T06:30:29.062Z</time>
      </trkpt>
      <trkpt lat="36.926802" lon="-5.907302">
        <ele>102.256761</ele>
        <time>2020-08-17T06:30:31.081Z</time>
      </trkpt>
      <trkpt lat="36.926673" lon="-5.907226">
        <ele>102.312789</ele>
        <time>2020-08-17T06:30:33.072Z</time>
      </trkpt>
      <trkpt lat="36.926525" lon="-5.907143">
        <ele>102.382416</ele>
        <time>2020-08-17T06:30:35.046Z</time>
      </trkpt>
      <trkpt lat="36.926374" lon="-5.907064">
        <ele>102.452679</ele>
        <time>2020-08-17T06:30:37.097Z</time>
      </trkpt>
      <trkpt lat="36.926244" lon="-5.906995">
        <ele>102.513302</ele>
        <time>2020-08-17T06:30:39.060Z</time>
      </trkpt>
      <trkpt lat="36.926097" lon="-5.906933">
        <ele>102.579897</ele>
        <time>2020-08-17T06:30:41.064Z</time>
      </trkpt>
      <trkpt lat="36.925958" lon="-5.906856">
        <ele>102.645157</ele>
        <time>2020-08-17T06:30:43.096Z</time>
      </trkpt>
      <trkpt lat="36.925801" lon="-5.906786">
        <ele>102.716708</ele>
        <time>2020-08-17T06:30:45.062Z</time>
      </trkpt>
      <trkpt lat="36.925669" lon="-5.906696">
        <ele>102.781244</ele>
        <time>2020-08-17T06:30:47.060Z</time>
      </trkpt>
      <trkpt lat="36.925560" lon="-5.906618">
        <ele>102.835151</ele>
        <time>2020-08-17T06:30:49.099Z</time>
      </trkpt>
      <trkpt lat="36.925432" lon="-5.906544">
        <ele>102.895684</ele>
        <time>2020-08-17T06:30:51.081Z</time>
      </trkpt>
      <trkpt lat="36.925331" lon="-5.906455">
        <ele>102.948720</ele>
        <time>2020-08-17T06:30:53.060Z</time>
      </trkpt>
      <trkpt lat="36.925229" lon="-5.906366">
        <ele>103.002107</ele>
        <time>2020-08-17T06:30:55.068Z</time>
      </trkpt>
      <trkpt lat="36.925116" lon="-5.906274">
        <ele>102.805187</ele>
        <time>2020-08-17T06:30:57.061Z</time>
      </trkpt>
      <trkpt lat="36.925023" lon="-5.906171">
        <ele>102.442023</ele>
        <time>2020-08-17T06:30:59.067Z</time>
      </trkpt>
      <trkpt lat="36.924935" lon="-5.906072">
        <ele>102.095990</ele>
        <time>2020-08-17T06:31:01.063Z</time>
      </trkpt>
      <trkpt lat="36.924847" lon="-5.905992">
        <ele>101.777935</ele>
        <time>2020-08-17T06:31:03.040Z</time>
      </trkpt>
      <trkpt lat="36.924753" lon="-5.905878">
        <ele>101.395146</ele>
        <time>2020-08-17T06:31:05.068Z</time>
      </trkpt>
      <trkpt lat="36.924658" lon="-5.905765">
        <ele>101.011866</ele>
        <time>2020-08-17T06:31:07.063Z</time>
      </trkpt>
      <trkpt lat="36.924586" lon="-5.905663">
        <ele>100.693825</ele>
        <time>2020-08-17T06:31:09.035Z</time>
      </trkpt>
      <trkpt lat="36.924523" lon="-5.905576">
        <ele>100.419460</ele>
        <time>2020-08-17T06:31:11.079Z</time>
      </trkpt>
      <trkpt lat="36.924435" lon="-5.905487">
        <ele>100.088599</ele>
        <time>2020-08-17T06:31:13.072Z</time>
      </trkpt>
      <trkpt lat="36.924348" lon="-5.905403">
        <ele>99.767277</ele>
        <time>2020-08-17T06:31:15.060Z</time>
      </trkpt>
      <trkpt lat="36.924264" lon="-5.905320">
        <ele>99.454307</ele>
        <time>2020-08-17T06:31:17.074Z</time>
      </trkpt>
      <trkpt lat="36.924175" lon="-5.905235">
        <ele>99.126924</ele>
        <time>2020-08-17T06:31:19.062Z</time>
      </trkpt>
      <trkpt lat="36.924090" lon="-5.905143">
        <ele>98.798292</ele>
        <time>2020-08-17T06:31:21.065Z</time>
      </trkpt>
      <trkpt lat="36.924022" lon="-5.905045">
        <ele>98.494987</ele>
        <time>2020-08-17T06:31:23.060Z</time>
      </trkpt>
      <trkpt lat="36.923956" lon="-5.904941">
        <ele>98.184626</ele>
        <time>2020-08-17T06:31:25.067Z</time>
      </trkpt>
      <trkpt lat="36.923888" lon="-5.904835">
        <ele>97.866964</ele>
        <time>2020-08-17T06:31:27.059Z</time>
      </trkpt>
      <trkpt lat="36.923822" lon="-5.904737">
        <ele>97.995208</ele>
        <time>2020-08-17T06:31:29.064Z</time>
      </trkpt>
      <trkpt lat="36.923738" lon="-5.904624">
        <ele>98.401373</ele>
        <time>2020-08-17T06:31:31.078Z</time>
      </trkpt>
      <trkpt lat="36.923673" lon="-5.904496">
        <ele>98.800529</ele>
        <time>2020-08-17T06:31:33.064Z</time>
      </trkpt>
      <trkpt lat="36.923586" lon="-5.904354">
        <ele>99.271454</ele>
        <time>2020-08-17T06:31:35.060Z</time>
      </trkpt>
      <trkpt lat="36.923513" lon="-5.904223">
        <ele>99.691785</ele>
        <time>2020-08-17T06:31:37.055Z</time>
      </trkpt>
      <trkpt lat="36.923439" lon="-5.904092">
        <ele>100.114009</ele>
        <time>2020-08-17T06:31:39.068Z</time>
      </trkpt>
      <trkpt lat="36.923358" lon="-5.903956">
        <ele>100.560423</ele>
        <time>2020-08-17T06:31:41.054Z</time>
      </trkpt>
      <trkpt lat="36.923270" lon="-5.903820">
        <ele>101.020978</ele>
        <time>2020-08-17T06:31:43.061Z</time>
      </trkpt>
      <trkpt lat="36.923206" lon="-5.903678">
        <ele>101.450069</ele>
        <time>2020-08-17T06:31:45.078Z</time>
      </trkpt>
      <trkpt lat="36.923141" lon="-5.903544">
        <ele>101.862645</ele>
        <time>2020-08-17T06:31:47.064Z</time>
      </trkpt>
      <trkpt lat="36.923060" lon="-5.903413">
        <ele>102.298577</ele>
        <time>2020-08-17T06:31:49.075Z</time>
      </trkpt>
      <trkpt lat="36.922975" lon="-5.903297">
        <ele>102.712780</ele>
        <time>2020-08-17T06:31:51.046Z</time>
      </trkpt>
      <trkpt lat="36.922895" lon="-5.903164">
        <ele>103.150901</ele>
        <time>2020-08-17T06:31:53.071Z</time>
      </trkpt>
      <trkpt lat="36.922805" lon="-5.903060">
        <ele>103.554335</ele>
        <time>2020-08-17T06:31:55.082Z</time>
      </trkpt>
      <trkpt lat="36.922745" lon="-5.902955">
        <ele>103.682139</ele>
        <time>2020-08-17T06:31:57.061Z</time>
      </trkpt>
      <trkpt lat="36.922672" lon="-5.902864">
        <ele>103.667486</ele>
        <time>2020-08-17T06:31:59.076Z</time>
      </trkpt>
      <trkpt lat="36.922609" lon="-5.902773">
        <ele>103.653804</ele>
        <time>2020-08-17T06:32:01.043Z</time>
      </trkpt>
      <trkpt lat="36.922547" lon="-5.902672">
        <ele>103.639329</ele>
        <time>2020-08-17T06:32:03.065Z</time>
      </trkpt>
      <trkpt lat="36.922486" lon="-5.902576">
        <ele>103.625391</ele>
        <time>2020-08-17T06:32:05.063Z</time>
      </trkpt>
      <trkpt lat="36.922422" lon="-5.902489">
        <ele>103.611952</ele>
        <time>2020-08-17T06:32:07.073Z</time>
      </trkpt>
      <trkpt lat="36.922379" lon="-5.902386">
        <ele>103.598745</ele>
        <time>2020-08-17T06:32:09.068Z</time>
      </trkpt>
      <trkpt lat="36.922320" lon="-5.902295">
        <ele>103.585427</ele>
        <time>2020-08-17T06:32:11.064Z</time>
      </trkpt>
      <trkpt lat="36.922232" lon="-5.902178">
        <ele>103.567168</ele>
        <time>2020-08-17T06:32:14.077Z</time>
      </trkpt>
      <trkpt lat="36.922155" lon="-5.902097">
        <ele>103.552863</ele>
        <time>2020-08-17T06:32:16.083Z</time>
      </trkpt>
      <trkpt lat="36.922076" lon="-5.902010">
        <ele>103.537898</ele>
        <time>2020-08-17T06:32:19.065Z</time>
      </trkpt>
      <trkpt lat="36.922004" lon="-5.901902">
        <ele>103.521914</ele>
        <time>2020-08-17T06:32:22.069Z</time>
      </trkpt>
      <trkpt lat="36.921924" lon="-5.901797">
        <ele>103.505427</ele>
        <time>2020-08-17T06:32:25.065Z</time>
      </trkpt>
      <trkpt lat="36.921860" lon="-5.901693">
        <ele>103.490509</ele>
        <time>2020-08-17T06:32:28.070Z</time>
      </trkpt>
      <trkpt lat="36.921796" lon="-5.901594">
        <ele>103.476038</ele>
        <time>2020-08-17T06:32:31.058Z</time>
      </trkpt>
      <trkpt lat="36.921729" lon="-5.901498">
        <ele>103.461553</ele>
        <time>2020-08-17T06:32:34.081Z</time>
      </trkpt>
      <trkpt lat="36.921662" lon="-5.901405">
        <ele>103.447323</ele>
        <time>2020-08-17T06:32:37.065Z</time>
      </trkpt>
      <trkpt lat="36.921590" lon="-5.901307">
        <ele>103.426593</ele>
        <time>2020-08-17T06:32:40.057Z</time>
      </trkpt>
      <trkpt lat="36.921531" lon="-5.901210">
        <ele>103.386773</ele>
        <time>2020-08-17T06:32:43.061Z</time>
      </trkpt>
      <trkpt lat="36.921479" lon="-5.901117">
        <ele>103.349696</ele>
        <time>2020-08-17T06:32:46.066Z</time>
      </trkpt>
      <trkpt lat="36.921424" lon="-5.901023">
        <ele>103.311639</ele>
        <time>2020-08-17T06:32:49.069Z</time>
      </trkpt>
      <trkpt lat="36.921365" lon="-5.900922">
        <ele>103.270772</ele>
        <time>2020-08-17T06:32:52.065Z</time>
      </trkpt>
      <trkpt lat="36.921309" lon="-5.900826">
        <ele>103.231946</ele>
        <time>2020-08-17T06:32:55.067Z</time>
      </trkpt>
      <trkpt lat="36.921251" lon="-5.900728">
        <ele>103.192110</ele>
        <time>2020-08-17T06:32:58.058Z</time>
      </trkpt>
      <trkpt lat="36.921186" lon="-5.900634">
        <ele>103.151506</ele>
        <time>2020-08-17T06:33:01.065Z</time>
      </trkpt>
      <trkpt lat="36.921117" lon="-5.900543">
        <ele>103.110530</ele>
        <time>2020-08-17T06:33:04.075Z</time>
      </trkpt>
      <trkpt lat="36.921057" lon="-5.900453">
        <ele>103.072245</ele>
        <time>2020-08-17T06:33:07.073Z</time>
      </trkpt>
      <trkpt lat="36.920996" lon="-5.900370">
        <ele>103.035411</ele>
        <time>2020-08-17T06:33:10.082Z</time>
      </trkpt>
      <trkpt lat="36.920938" lon="-5.900281">
        <ele>102.997897</ele>
        <time>2020-08-17T06:33:13.070Z</time>
      </trkpt>
      <trkpt lat="36.920871" lon="-5.900165">
        <ele>102.951143</ele>
        <time>2020-08-17T06:33:17.044Z</time>
      </trkpt>
      <trkpt lat="36.920803" lon="-5.900063">
        <ele>102.907753</ele>
        <time>2020-08-17T06:33:21.052Z</time>
      </trkpt>
      <trkpt lat="36.920738" lon="-5.899979">
        <ele>102.869559</ele>
        <time>2020-08-17T06:33:25.082Z</time>
      </trkpt>
      <trkpt lat="36.920645" lon="-5.899904">
        <ele>102.824340</ele>
        <time>2020-08-17T06:33:29.052Z</time>
      </trkpt>
      <trkpt lat="36.920561" lon="-5.899830">
        <ele>102.782353</ele>
        <time>2020-08-17T06:33:33.065Z</time>
      </trkpt>
      <trkpt lat="36.920469" lon="-5.899779">
        <ele>102.741230</ele>
        <time>2020-08-17T06:33:38.071Z</time>
      </trkpt>
      <trkpt lat="36.920382" lon="-5.899738">
        <ele>102.703237</ele>
        <time>2020-08-17T06:33:42.056Z</time>
      </trkpt>
      <trkpt lat="36.920291" lon="-5.899680">
        <ele>102.684672</ele>
        <time>2020-08-17T06:33:46.065Z</time>
      </trkpt>
      <trkpt lat="36.920194" lon="-5.899609">
        <ele>102.666280</ele>
        <time>2020-08-17T06:33:50.052Z</time>
      </trkpt>
      <trkpt lat="36.920093" lon="-5.899535">
        <ele>102.647124</ele>
        <time>2020-08-17T06:33:54.073Z</time>
      </trkpt>
      <trkpt lat="36.919995" lon="-5.899471">
        <ele>102.629032</ele>
        <time>2020-08-17T06:33:58.086Z</time>
      </trkpt>
      <trkpt lat="36.919891" lon="-5.899415">
        <ele>102.610503</ele>
        <time>2020-08-17T06:34:02.065Z</time>
      </trkpt>
      <trkpt lat="36.919791" lon="-5.899356">
        <ele>102.592408</ele>
        <time>2020-08-17T06:34:06.077Z</time>
      </trkpt>
      <trkpt lat="36.919684" lon="-5.899298">
        <ele>102.573324</ele>
        <time>2020-08-17T06:34:10.060Z</time>
      </trkpt>
      <trkpt lat="36.919580" lon="-5.899240">
        <ele>102.554689</ele>
        <time>2020-08-17T06:34:14.062Z</time>
      </trkpt>
      <trkpt lat="36.919477" lon="-5.899186">
        <ele>102.536412</ele>
        <time>2020-08-17T06:34:18.068Z</time>
      </trkpt>
      <trkpt lat="36.919374" lon="-5.899142">
        <ele>102.518600</ele>
        <time>2020-08-17T06:34:22.066Z</time>
      </trkpt>
      <trkpt lat="36.919270" lon="-5.899072">
        <ele>102.499273</ele>
        <time>2020-08-17T06:34:26.059Z</time>
      </trkpt>
      <trkpt lat="36.919184" lon="-5.899012">
        <ele>102.483158</ele>
        <time>2020-08-17T06:34:29.058Z</time>
      </trkpt>
      <trkpt lat="36.919084" lon="-5.898952">
        <ele>102.465007</ele>
        <time>2020-08-17T06:34:32.043Z</time>
      </trkpt>
      <trkpt lat="36.918967" lon="-5.898886">
        <ele>102.444003</ele>
        <time>2020-08-17T06:34:35.086Z</time>
      </trkpt>
      <trkpt lat="36.918846" lon="-5.898806">
        <ele>102.421605</ele>
        <time>2020-08-17T06:34:38.059Z</time>
      </trkpt>
      <trkpt lat="36.918750" lon="-5.898741">
        <ele>102.419663</ele>
        <time>2020-08-17T06:34:40.075Z</time>
      </trkpt>
      <trkpt lat="36.918659" lon="-5.898674">
        <ele>102.535910</ele>
        <time>2020-08-17T06:34:42.065Z</time>
      </trkpt>
      <trkpt lat="36.918529" lon="-5.898587">
        <ele>102.698222</ele>
        <time>2020-08-17T06:34:45.058Z</time>
      </trkpt>
      <trkpt lat="36.918430" lon="-5.898524">
        <ele>102.820504</ele>
        <time>2020-08-17T06:34:47.062Z</time>
      </trkpt>
      <trkpt lat="36.918314" lon="-5.898453">
        <ele>102.962676</ele>
        <time>2020-08-17T06:34:49.059Z</time>
      </trkpt>
      <trkpt lat="36.918201" lon="-5.898381">
        <ele>103.102287</ele>
        <time>2020-08-17T06:34:51.062Z</time>
      </trkpt>
      <trkpt lat="36.918104" lon="-5.898321">
        <ele>103.221417</ele>
        <time>2020-08-17T06:34:53.066Z</time>
      </trkpt>
      <trkpt lat="36.917999" lon="-5.898262">
        <ele>103.348138</ele>
        <time>2020-08-17T06:34:55.068Z</time>
      </trkpt>
      <trkpt lat="36.917883" lon="-5.898205">
        <ele>103.485341</ele>
        <time>2020-08-17T06:34:57.059Z</time>
      </trkpt>
      <trkpt lat="36.917780" lon="-5.898120">
        <ele>103.621188</ele>
        <time>2020-08-17T06:34:59.064Z</time>
      </trkpt>
      <trkpt lat="36.917677" lon="-5.898050">
        <ele>103.750236</ele>
        <time>2020-08-17T06:35:01.089Z</time>
      </trkpt>
      <trkpt lat="36.917569" lon="-5.897965">
        <ele>103.890711</ele>
        <time>2020-08-17T06:35:03.057Z</time>
      </trkpt>
      <trkpt lat="36.917468" lon="-5.897895">
        <ele>104.017829</ele>
        <time>2020-08-17T06:35:05.063Z</time>
      </trkpt>
      <trkpt lat="36.917374" lon="-5.897850">
        <ele>104.128632</ele>
        <time>2020-08-17T06:35:07.059Z</time>
      </trkpt>
      <trkpt lat="36.917280" lon="-5.897791">
        <ele>104.244414</ele>
        <time>2020-08-17T06:35:09.061Z</time>
      </trkpt>
      <trkpt lat="36.917190" lon="-5.897721">
        <ele>104.361087</ele>
        <time>2020-08-17T06:35:11.080Z</time>
      </trkpt>
      <trkpt lat="36.917091" lon="-5.897668">
        <ele>104.055947</ele>
        <time>2020-08-17T06:35:13.058Z</time>
      </trkpt>
      <trkpt lat="36.917003" lon="-5.897614">
        <ele>103.676144</ele>
        <time>2020-08-17T06:35:15.062Z</time>
      </trkpt>
      <trkpt lat="36.916904" lon="-5.897554">
        <ele>103.249884</ele>
        <time>2020-08-17T06:35:17.065Z</time>
      </trkpt>
      <trkpt lat="36.916804" lon="-5.897493">
        <ele>102.818785</ele>
        <time>2020-08-17T06:35:19.065Z</time>
      </trkpt>
      <trkpt lat="36.916708" lon="-5.897435">
        <ele>102.405687</ele>
        <time>2020-08-17T06:35:21.063Z</time>
      </trkpt>
      <trkpt lat="36.916605" lon="-5.897393">
        <ele>101.985915</ele>
        <time>2020-08-17T06:35:23.061Z</time>
      </trkpt>
      <trkpt lat="36.916504" lon="-5.897340">
        <ele>101.561519</ele>
        <time>2020-08-17T06:35:26.078Z</time>
      </trkpt>
      <trkpt lat="36.916422" lon="-5.897289">
        <ele>101.206676</ele>
        <time>2020-08-17T06:35:28.071Z</time>
      </trkpt>
      <trkpt lat="36.916333" lon="-5.897259">
        <ele>100.849520</ele>
        <time>2020-08-17T06:35:30.069Z</time>
      </trkpt>
      <trkpt lat="36.916231" lon="-5.897236">
        <ele>100.447924</ele>
        <time>2020-08-17T06:35:32.059Z</time>
      </trkpt>
      <trkpt lat="36.916110" lon="-5.897239">
        <ele>99.978988</ele>
        <time>2020-08-17T06:35:35.074Z</time>
      </trkpt>
      <trkpt lat="36.916009" lon="-5.897232">
        <ele>99.587039</ele>
        <time>2020-08-17T06:35:37.064Z</time>
      </trkpt>
      <trkpt lat="36.915914" lon="-5.897228">
        <ele>99.218729</ele>
        <time>2020-08-17T06:35:39.057Z</time>
      </trkpt>
      <trkpt lat="36.915809" lon="-5.897208">
        <ele>98.807190</ele>
        <time>2020-08-17T06:35:41.057Z</time>
      </trkpt>
      <trkpt lat="36.915678" lon="-5.897212">
        <ele>98.299448</ele>
        <time>2020-08-17T06:35:44.062Z</time>
      </trkpt>
      <trkpt lat="36.915572" lon="-5.897196">
        <ele>97.885745</ele>
        <time>2020-08-17T06:35:46.057Z</time>
      </trkpt>
      <trkpt lat="36.915458" lon="-5.897183">
        <ele>97.442192</ele>
        <time>2020-08-17T06:35:48.077Z</time>
      </trkpt>
      <trkpt lat="36.915345" lon="-5.897166">
        <ele>98.537390</ele>
        <time>2020-08-17T06:35:50.071Z</time>
      </trkpt>
      <trkpt lat="36.915239" lon="-5.897171">
        <ele>99.646280</ele>
        <time>2020-08-17T06:35:52.059Z</time>
      </trkpt>
      <trkpt lat="36.915135" lon="-5.897156">
        <ele>100.740679</ele>
        <time>2020-08-17T06:35:54.070Z</time>
      </trkpt>
      <trkpt lat="36.915018" lon="-5.897135">
        <ele>101.976302</ele>
        <time>2020-08-17T06:35:56.065Z</time>
      </trkpt>
      <trkpt lat="36.914914" lon="-5.897142">
        <ele>103.065069</ele>
        <time>2020-08-17T06:35:58.059Z</time>
      </trkpt>
      <trkpt lat="36.914809" lon="-5.897128">
        <ele>104.168936</ele>
        <time>2020-08-17T06:36:00.077Z</time>
      </trkpt>
      <trkpt lat="36.914704" lon="-5.897131">
        <ele>105.266870</ele>
        <time>2020-08-17T06:36:02.060Z</time>
      </trkpt>
      <trkpt lat="36.914609" lon="-5.897132">
        <ele>106.260015</ele>
        <time>2020-08-17T06:36:04.065Z</time>
      </trkpt>
      <trkpt lat="36.914516" lon="-5.897128">
        <ele>107.232792</ele>
        <time>2020-08-17T06:36:06.071Z</time>
      </trkpt>
      <trkpt lat="36.914422" lon="-5.897108">
        <ele>108.229565</ele>
        <time>2020-08-17T06:36:08.060Z</time>
      </trkpt>
      <trkpt lat="36.914294" lon="-5.897132">
        <ele>109.582603</ele>
        <time>2020-08-17T06:36:11.061Z</time>
      </trkpt>
      <trkpt lat="36.914160" lon="-5.897128">
        <ele>110.983809</ele>
        <time>2020-08-17T06:36:14.075Z</time>
      </trkpt>
      <trkpt lat="36.914063" lon="-5.897112">
        <ele>112.006607</ele>
        <time>2020-08-17T06:36:16.064Z</time>
      </trkpt>
      <trkpt lat="36.913938" lon="-5.897104">
        <ele>113.315041</ele>
        <time>2020-08-17T06:36:19.075Z</time>
      </trkpt>
      <trkpt lat="36.913820" lon="-5.897071">
        <ele>114.579048</ele>
        <time>2020-08-17T06:36:22.057Z</time>
      </trkpt>
      <trkpt lat="36.913722" lon="-5.897052">
        <ele>115.615755</ele>
        <time>2020-08-17T06:36:25.068Z</time>
      </trkpt>
      <trkpt lat="36.913624" lon="-5.897037">
        <ele>115.859929</ele>
        <time>2020-08-17T06:36:28.053Z</time>
      </trkpt>
      <trkpt lat="36.913530" lon="-5.897023">
        <ele>115.030336</ele>
        <time>2020-08-17T06:36:31.062Z</time>
      </trkpt>
      <trkpt lat="36.913432" lon="-5.897004">
        <ele>114.161252</ele>
        <time>2020-08-17T06:36:34.057Z</time>
      </trkpt>
      <trkpt lat="36.913337" lon="-5.896981">
        <ele>113.313262</ele>
        <time>2020-08-17T06:36:37.077Z</time>
      </trkpt>
      <trkpt lat="36.913244" lon="-5.896974">
        <ele>112.496778</ele>
        <time>2020-08-17T06:36:40.071Z</time>
      </trkpt>
      <trkpt lat="36.913144" lon="-5.896963">
        <ele>111.617041</ele>
        <time>2020-08-17T06:36:43.068Z</time>
      </trkpt>
      <trkpt lat="36.913037" lon="-5.896939">
        <ele>110.664383</ele>
        <time>2020-08-17T06:36:46.065Z</time>
      </trkpt>
      <trkpt lat="36.912927" lon="-5.896908">
        <ele>109.676225</ele>
        <time>2020-08-17T06:36:49.072Z</time>
      </trkpt>
      <trkpt lat="36.912821" lon="-5.896879">
        <ele>108.725325</ele>
        <time>2020-08-17T06:36:52.068Z</time>
      </trkpt>
      <trkpt lat="36.912715" lon="-5.896844">
        <ele>107.764563</ele>
        <time>2020-08-17T06:36:55.071Z</time>
      </trkpt>
      <trkpt lat="36.912611" lon="-5.896815">
        <ele>106.830777</ele>
        <time>2020-08-17T06:36:58.067Z</time>
      </trkpt>
      <trkpt lat="36.912506" lon="-5.896780">
        <ele>105.878486</ele>
        <time>2020-08-17T06:37:01.056Z</time>
      </trkpt>
      <trkpt lat="36.912403" lon="-5.896748">
        <ele>104.948409</ele>
        <time>2020-08-17T06:37:04.062Z</time>
      </trkpt>
      <trkpt lat="36.912295" lon="-5.896721">
        <ele>103.983224</ele>
        <time>2020-08-17T06:37:07.056Z</time>
      </trkpt>
      <trkpt lat="36.912191" lon="-5.896692">
        <ele>103.049439</ele>
        <time>2020-08-17T06:37:10.069Z</time>
      </trkpt>
      <trkpt lat="36.912085" lon="-5.896653">
        <ele>102.081142</ele>
        <time>2020-08-17T06:37:13.080Z</time>
      </trkpt>
      <trkpt lat="36.911984" lon="-5.896622">
        <ele>101.169761</ele>
        <time>2020-08-17T06:37:16.056Z</time>
      </trkpt>
      <trkpt lat="36.911878" lon="-5.896587">
        <ele>100.515282</ele>
        <time>2020-08-17T06:37:20.072Z</time>
      </trkpt>
      <trkpt lat="36.911758" lon="-5.896562">
        <ele>100.767055</ele>
        <time>2020-08-17T06:37:24.063Z</time>
      </trkpt>
      <trkpt lat="36.911663" lon="-5.896528">
        <ele>100.971557</ele>
        <time>2020-08-17T06:37:27.069Z</time>
      </trkpt>
      <trkpt lat="36.911564" lon="-5.896491">
        <ele>101.185399</ele>
        <time>2020-08-17T06:37:30.058Z</time>
      </trkpt>
      <trkpt lat="36.911460" lon="-5.896457">
        <ele>101.407869</ele>
        <time>2020-08-17T06:37:33.060Z</time>
      </trkpt>
      <trkpt lat="36.911354" lon="-5.896431">
        <ele>101.631425</ele>
        <time>2020-08-17T06:37:36.076Z</time>
      </trkpt>
      <trkpt lat="36.911248" lon="-5.896407">
        <ele>101.854367</ele>
        <time>2020-08-17T06:37:39.060Z</time>
      </trkpt>
      <trkpt lat="36.911130" lon="-5.896380">
        <ele>102.102632</ele>
        <time>2020-08-17T06:37:43.054Z</time>
      </trkpt>
      <trkpt lat="36.911032" lon="-5.896347">
        <ele>102.312675</ele>
        <time>2020-08-17T06:37:46.065Z</time>
      </trkpt>
      <trkpt lat="36.910928" lon="-5.896309">
        <ele>102.536910</ele>
        <time>2020-08-17T06:37:49.063Z</time>
      </trkpt>
      <trkpt lat="36.910820" lon="-5.896270">
        <ele>102.769556</ele>
        <time>2020-08-17T06:37:52.057Z</time>
      </trkpt>
      <trkpt lat="36.910702" lon="-5.896226">
        <ele>103.024391</ele>
        <time>2020-08-17T06:37:55.063Z</time>
      </trkpt>
      <trkpt lat="36.910583" lon="-5.896200">
        <ele>103.274402</ele>
        <time>2020-08-17T06:37:58.092Z</time>
      </trkpt>
      <trkpt lat="36.910488" lon="-5.896185">
        <ele>103.472574</ele>
        <time>2020-08-17T06:38:00.081Z</time>
      </trkpt>
      <trkpt lat="36.910374" lon="-5.896153">
        <ele>103.714377</ele>
        <time>2020-08-17T06:38:02.070Z</time>
      </trkpt>
      <trkpt lat="36.910244" lon="-5.896105">
        <ele>103.994904</ele>
        <time>2020-08-17T06:38:04.068Z</time>
      </trkpt>
      <trkpt lat="36.910131" lon="-5.896072">
        <ele>104.446342</ele>
        <time>2020-08-17T06:38:06.061Z</time>
      </trkpt>
      <trkpt lat="36.910016" lon="-5.896050">
        <ele>105.598221</ele>
        <time>2020-08-17T06:38:08.058Z</time>
      </trkpt>
      <trkpt lat="36.909887" lon="-5.896021">
        <ele>106.895944</ele>
        <time>2020-08-17T06:38:10.055Z</time>
      </trkpt>
      <trkpt lat="36.909763" lon="-5.896007">
        <ele>108.128683</ele>
        <time>2020-08-17T06:38:12.085Z</time>
      </trkpt>
      <trkpt lat="36.909645" lon="-5.895994">
        <ele>109.301547</ele>
        <time>2020-08-17T06:38:14.062Z</time>
      </trkpt>
      <trkpt lat="36.909507" lon="-5.895959">
        <ele>110.695723</ele>
        <time>2020-08-17T06:38:16.061Z</time>
      </trkpt>
      <trkpt lat="36.909379" lon="-5.895932">
        <ele>111.980974</ele>
        <time>2020-08-17T06:38:18.068Z</time>
      </trkpt>
      <trkpt lat="36.909223" lon="-5.895883">
        <ele>113.573528</ele>
        <time>2020-08-17T06:38:20.059Z</time>
      </trkpt>
      <trkpt lat="36.909117" lon="-5.895903">
        <ele>114.634930</ele>
        <time>2020-08-17T06:38:22.062Z</time>
      </trkpt>
      <trkpt lat="36.908962" lon="-5.895891">
        <ele>116.172551</ele>
        <time>2020-08-17T06:38:24.067Z</time>
      </trkpt>
      <trkpt lat="36.908827" lon="-5.895851">
        <ele>117.546212</ele>
        <time>2020-08-17T06:38:26.063Z</time>
      </trkpt>
      <trkpt lat="36.908681" lon="-5.895823">
        <ele>119.008682</ele>
        <time>2020-08-17T06:38:28.061Z</time>
      </trkpt>
      <trkpt lat="36.908536" lon="-5.895800">
        <ele>120.455855</ele>
        <time>2020-08-17T06:38:30.057Z</time>
      </trkpt>
      <trkpt lat="36.908381" lon="-5.895781">
        <ele>121.987141</ele>
        <time>2020-08-17T06:38:32.051Z</time>
      </trkpt>
      <trkpt lat="36.908230" lon="-5.895781">
        <ele>121.870375</ele>
        <time>2020-08-17T06:38:34.054Z</time>
      </trkpt>
      <trkpt lat="36.908077" lon="-5.895782">
        <ele>121.752060</ele>
        <time>2020-08-17T06:38:36.072Z</time>
      </trkpt>
      <trkpt lat="36.907931" lon="-5.895795">
        <ele>121.638874</ele>
        <time>2020-08-17T06:38:38.066Z</time>
      </trkpt>
      <trkpt lat="36.907775" lon="-5.895781">
        <ele>121.517931</ele>
        <time>2020-08-17T06:38:40.079Z</time>
      </trkpt>
      <trkpt lat="36.907643" lon="-5.895817">
        <ele>121.413458</ele>
        <time>2020-08-17T06:38:42.060Z</time>
      </trkpt>
      <trkpt lat="36.907489" lon="-5.895819">
        <ele>121.294366</ele>
        <time>2020-08-17T06:38:44.054Z</time>
      </trkpt>
      <trkpt lat="36.907350" lon="-5.895831">
        <ele>121.186623</ele>
        <time>2020-08-17T06:38:46.059Z</time>
      </trkpt>
      <trkpt lat="36.907216" lon="-5.895869">
        <ele>121.080372</ele>
        <time>2020-08-17T06:38:48.065Z</time>
      </trkpt>
      <trkpt lat="36.907080" lon="-5.895871">
        <ele>120.975197</ele>
        <time>2020-08-17T06:38:50.061Z</time>
      </trkpt>
      <trkpt lat="36.906937" lon="-5.895877">
        <ele>120.864555</ele>
        <time>2020-08-17T06:38:52.073Z</time>
      </trkpt>
      <trkpt lat="36.906792" lon="-5.895869">
        <ele>120.752319</ele>
        <time>2020-08-17T06:38:54.075Z</time>
      </trkpt>
      <trkpt lat="36.906663" lon="-5.895896">
        <ele>120.651178</ele>
        <time>2020-08-17T06:38:56.056Z</time>
      </trkpt>
      <trkpt lat="36.906521" lon="-5.895885">
        <ele>120.547761</ele>
        <time>2020-08-17T06:38:58.047Z</time>
      </trkpt>
      <trkpt lat="36.906415" lon="-5.895941">
        <ele>120.469287</ele>
        <time>2020-08-17T06:39:00.077Z</time>
      </trkpt>
      <trkpt lat="36.906276" lon="-5.895935">
        <ele>120.374437</ele>
        <time>2020-08-17T06:39:02.043Z</time>
      </trkpt>
      <trkpt lat="36.906106" lon="-5.895951">
        <ele>120.258175</ele>
        <time>2020-08-17T06:39:04.068Z</time>
      </trkpt>
      <trkpt lat="36.905996" lon="-5.895977">
        <ele>120.181831</ele>
        <time>2020-08-17T06:39:06.058Z</time>
      </trkpt>
      <trkpt lat="36.905831" lon="-5.895996">
        <ele>120.068830</ele>
        <time>2020-08-17T06:39:08.057Z</time>
      </trkpt>
      <trkpt lat="36.905733" lon="-5.895986">
        <ele>120.001775</ele>
        <time>2020-08-17T06:39:09.067Z</time>
      </trkpt>
      <trkpt lat="36.905593" lon="-5.896035">
        <ele>119.902632</ele>
        <time>2020-08-17T06:39:11.065Z</time>
      </trkpt>
      <trkpt lat="36.905400" lon="-5.896051">
        <ele>119.770723</ele>
        <time>2020-08-17T06:39:13.048Z</time>
      </trkpt>
      <trkpt lat="36.905261" lon="-5.896108">
        <ele>119.670964</ele>
        <time>2020-08-17T06:39:15.051Z</time>
      </trkpt>
      <trkpt lat="36.905090" lon="-5.896116">
        <ele>119.554266</ele>
        <time>2020-08-17T06:39:17.059Z</time>
      </trkpt>
      <trkpt lat="36.904939" lon="-5.896144">
        <ele>119.450163</ele>
        <time>2020-08-17T06:39:19.044Z</time>
      </trkpt>
      <trkpt lat="36.904774" lon="-5.896185">
        <ele>119.393547</ele>
        <time>2020-08-17T06:39:21.055Z</time>
      </trkpt>
      <trkpt lat="36.904609" lon="-5.896227">
        <ele>119.469369</ele>
        <time>2020-08-17T06:39:23.060Z</time>
      </trkpt>
      <trkpt lat="36.904469" lon="-5.896296">
        <ele>119.537130</ele>
        <time>2020-08-17T06:39:25.074Z</time>
      </trkpt>
      <trkpt lat="36.904332" lon="-5.896330">
        <ele>119.600023</ele>
        <time>2020-08-17T06:39:27.069Z</time>
      </trkpt>
      <trkpt lat="36.904189" lon="-5.896366">
        <ele>119.665708</ele>
        <time>2020-08-17T06:39:29.070Z</time>
      </trkpt>
      <trkpt lat="36.904040" lon="-5.896394">
        <ele>119.733555</ele>
        <time>2020-08-17T06:39:31.073Z</time>
      </trkpt>
      <trkpt lat="36.903889" lon="-5.896429">
        <ele>119.802708</ele>
        <time>2020-08-17T06:39:33.065Z</time>
      </trkpt>
      <trkpt lat="36.903727" lon="-5.896462">
        <ele>119.876618</ele>
        <time>2020-08-17T06:39:35.060Z</time>
      </trkpt>
      <trkpt lat="36.903550" lon="-5.896486">
        <ele>119.956787</ele>
        <time>2020-08-17T06:39:37.060Z</time>
      </trkpt>
      <trkpt lat="36.903410" lon="-5.896549">
        <ele>120.023786</ele>
        <time>2020-08-17T06:39:39.075Z</time>
      </trkpt>
      <trkpt lat="36.903235" lon="-5.896594">
        <ele>120.104237</ele>
        <time>2020-08-17T06:39:41.073Z</time>
      </trkpt>
      <trkpt lat="36.903098" lon="-5.896665">
        <ele>120.171015</ele>
        <time>2020-08-17T06:39:43.061Z</time>
      </trkpt>
      <trkpt lat="36.902943" lon="-5.896704">
        <ele>120.039202</ele>
        <time>2020-08-17T06:39:45.085Z</time>
      </trkpt>
      <trkpt lat="36.902785" lon="-5.896733">
        <ele>119.875084</ele>
        <time>2020-08-17T06:39:47.079Z</time>
      </trkpt>
      <trkpt lat="36.902634" lon="-5.896761">
        <ele>119.718203</ele>
        <time>2020-08-17T06:39:49.070Z</time>
      </trkpt>
      <trkpt lat="36.902515" lon="-5.896828">
        <ele>119.584081</ele>
        <time>2020-08-17T06:39:51.071Z</time>
      </trkpt>
      <trkpt lat="36.902387" lon="-5.896891">
        <ele>119.442712</ele>
        <time>2020-08-17T06:39:53.079Z</time>
      </trkpt>
      <trkpt lat="36.902276" lon="-5.896953">
        <ele>119.317774</ele>
        <time>2020-08-17T06:39:55.053Z</time>
      </trkpt>
      <trkpt lat="36.902198" lon="-5.897040">
        <ele>119.210359</ele>
        <time>2020-08-17T06:39:57.048Z</time>
      </trkpt>
      <trkpt lat="36.902122" lon="-5.897124">
        <ele>119.106119</ele>
        <time>2020-08-17T06:39:59.075Z</time>
      </trkpt>
      <trkpt lat="36.902054" lon="-5.897210">
        <ele>119.006725</ele>
        <time>2020-08-17T06:40:01.056Z</time>
      </trkpt>
      <trkpt lat="36.901973" lon="-5.897287">
        <ele>118.902159</ele>
        <time>2020-08-17T06:40:03.058Z</time>
      </trkpt>
      <trkpt lat="36.901902" lon="-5.897371">
        <ele>118.801711</ele>
        <time>2020-08-17T06:40:05.053Z</time>
      </trkpt>
      <trkpt lat="36.901816" lon="-5.897446">
        <ele>118.693958</ele>
        <time>2020-08-17T06:40:07.058Z</time>
      </trkpt>
      <trkpt lat="36.901716" lon="-5.897537">
        <ele>118.566856</ele>
        <time>2020-08-17T06:40:10.067Z</time>
      </trkpt>
      <trkpt lat="36.901595" lon="-5.897588">
        <ele>118.435629</ele>
        <time>2020-08-17T06:40:13.077Z</time>
      </trkpt>
      <trkpt lat="36.901514" lon="-5.897640">
        <ele>118.342056</ele>
        <time>2020-08-17T06:40:15.070Z</time>
      </trkpt>
      <trkpt lat="36.901402" lon="-5.897673">
        <ele>118.128883</ele>
        <time>2020-08-17T06:40:17.041Z</time>
      </trkpt>
      <trkpt lat="36.901294" lon="-5.897726">
        <ele>117.904930</ele>
        <time>2020-08-17T06:40:19.075Z</time>
      </trkpt>
      <trkpt lat="36.901165" lon="-5.897784">
        <ele>117.640313</ele>
        <time>2020-08-17T06:40:21.058Z</time>
      </trkpt>
      <trkpt lat="36.901036" lon="-5.897856">
        <ele>117.367624</ele>
        <time>2020-08-17T06:40:23.070Z</time>
      </trkpt>
      <trkpt lat="36.900893" lon="-5.897935">
        <ele>117.065852</ele>
        <time>2020-08-17T06:40:25.082Z</time>
      </trkpt>
      <trkpt lat="36.900733" lon="-5.898006">
        <ele>116.738131</ele>
        <time>2020-08-17T06:40:27.068Z</time>
      </trkpt>
      <trkpt lat="36.900641" lon="-5.898039">
        <ele>116.553380</ele>
        <time>2020-08-17T06:40:28.080Z</time>
      </trkpt>
      <trkpt lat="36.900551" lon="-5.898074">
        <ele>116.371444</ele>
        <time>2020-08-17T06:40:29.064Z</time>
      </trkpt>
      <trkpt lat="36.900380" lon="-5.898139">
        <ele>116.026446</ele>
        <time>2020-08-17T06:40:31.075Z</time>
      </trkpt>
      <trkpt lat="36.900293" lon="-5.898185">
        <ele>115.844114</ele>
        <time>2020-08-17T06:40:32.068Z</time>
      </trkpt>
      <trkpt lat="36.900120" lon="-5.898254">
        <ele>115.493593</ele>
        <time>2020-08-17T06:40:34.082Z</time>
      </trkpt>
      <trkpt lat="36.899965" lon="-5.898317">
        <ele>115.178986</ele>
        <time>2020-08-17T06:40:36.057Z</time>
      </trkpt>
      <trkpt lat="36.899874" lon="-5.898358">
        <ele>114.992273</ele>
        <time>2020-08-17T06:40:37.049Z</time>
      </trkpt>
      <trkpt lat="36.899722" lon="-5.898431">
        <ele>114.724896</ele>
        <time>2020-08-17T06:40:39.070Z</time>
      </trkpt>
      <trkpt lat="36.899566" lon="-5.898496">
        <ele>114.489356</ele>
        <time>2020-08-17T06:40:41.064Z</time>
      </trkpt>
      <trkpt lat="36.899402" lon="-5.898566">
        <ele>114.241126</ele>
        <time>2020-08-17T06:40:43.062Z</time>
      </trkpt>
      <trkpt lat="36.899315" lon="-5.898614">
        <ele>114.104912</ele>
        <time>2020-08-17T06:40:44.061Z</time>
      </trkpt>
      <trkpt lat="36.899177" lon="-5.898683">
        <ele>113.892018</ele>
        <time>2020-08-17T06:40:46.066Z</time>
      </trkpt>
      <trkpt lat="36.899008" lon="-5.898748">
        <ele>113.638742</ele>
        <time>2020-08-17T06:40:48.061Z</time>
      </trkpt>
      <trkpt lat="36.898849" lon="-5.898831">
        <ele>113.391934</ele>
        <time>2020-08-17T06:40:50.073Z</time>
      </trkpt>
      <trkpt lat="36.898684" lon="-5.898892">
        <ele>113.145466</ele>
        <time>2020-08-17T06:40:52.052Z</time>
      </trkpt>
      <trkpt lat="36.898597" lon="-5.898937">
        <ele>113.010603</ele>
        <time>2020-08-17T06:40:53.066Z</time>
      </trkpt>
      <trkpt lat="36.898442" lon="-5.898983">
        <ele>112.782406</ele>
        <time>2020-08-17T06:40:55.067Z</time>
      </trkpt>
      <trkpt lat="36.898352" lon="-5.899004">
        <ele>112.651260</ele>
        <time>2020-08-17T06:40:56.058Z</time>
      </trkpt>
      <trkpt lat="36.898171" lon="-5.899049">
        <ele>112.386912</ele>
        <time>2020-08-17T06:40:58.053Z</time>
      </trkpt>
      <trkpt lat="36.898003" lon="-5.899077">
        <ele>111.859613</ele>
        <time>2020-08-17T06:41:00.052Z</time>
      </trkpt>
      <trkpt lat="36.897893" lon="-5.899081">
        <ele>111.380045</ele>
        <time>2020-08-17T06:41:01.046Z</time>
      </trkpt>
      <trkpt lat="36.897735" lon="-5.899134">
        <ele>110.667158</ele>
        <time>2020-08-17T06:41:03.066Z</time>
      </trkpt>
      <trkpt lat="36.897609" lon="-5.899157">
        <ele>110.112247</ele>
        <time>2020-08-17T06:41:05.068Z</time>
      </trkpt>
      <trkpt lat="36.897465" lon="-5.899197">
        <ele>109.469416</ele>
        <time>2020-08-17T06:41:07.057Z</time>
      </trkpt>
      <trkpt lat="36.897338" lon="-5.899230">
        <ele>108.904144</ele>
        <time>2020-08-17T06:41:09.084Z</time>
      </trkpt>
      <trkpt lat="36.897244" lon="-5.899285">
        <ele>108.451878</ele>
        <time>2020-08-17T06:41:11.079Z</time>
      </trkpt>
      <trkpt lat="36.897116" lon="-5.899276">
        <ele>107.893189</ele>
        <time>2020-08-17T06:41:13.081Z</time>
      </trkpt>
      <trkpt lat="36.897008" lon="-5.899286">
        <ele>107.421251</ele>
        <time>2020-08-17T06:41:15.057Z</time>
      </trkpt>
      <trkpt lat="36.896890" lon="-5.899299">
        <ele>106.905030</ele>
        <time>2020-08-17T06:41:17.075Z</time>
      </trkpt>
      <trkpt lat="36.896799" lon="-5.899326">
        <ele>106.497454</ele>
        <time>2020-08-17T06:41:19.056Z</time>
      </trkpt>
      <trkpt lat="36.896660" lon="-5.899323">
        <ele>105.891620</ele>
        <time>2020-08-17T06:41:21.080Z</time>
      </trkpt>
      <trkpt lat="36.896558" lon="-5.899313">
        <ele>105.445753</ele>
        <time>2020-08-17T06:41:23.059Z</time>
      </trkpt>
      <trkpt lat="36.896437" lon="-5.899280">
        <ele>104.906054</ele>
        <time>2020-08-17T06:41:25.078Z</time>
      </trkpt>
      <trkpt lat="36.896341" lon="-5.899234">
        <ele>104.458035</ele>
        <time>2020-08-17T06:41:27.075Z</time>
      </trkpt>
      <trkpt lat="36.896195" lon="-5.899199">
        <ele>104.586357</ele>
        <time>2020-08-17T06:41:30.069Z</time>
      </trkpt>
      <trkpt lat="36.896102" lon="-5.899166">
        <ele>104.680008</ele>
        <time>2020-08-17T06:41:32.089Z</time>
      </trkpt>
      <trkpt lat="36.895963" lon="-5.899115">
        <ele>104.820342</ele>
        <time>2020-08-17T06:41:35.082Z</time>
      </trkpt>
      <trkpt lat="36.895842" lon="-5.899074">
        <ele>104.941788</ele>
        <time>2020-08-17T06:41:37.075Z</time>
      </trkpt>
      <trkpt lat="36.895728" lon="-5.899056">
        <ele>105.053103</ele>
        <time>2020-08-17T06:41:39.053Z</time>
      </trkpt>
      <trkpt lat="36.895594" lon="-5.899038">
        <ele>105.183662</ele>
        <time>2020-08-17T06:41:41.073Z</time>
      </trkpt>
      <trkpt lat="36.895461" lon="-5.898998">
        <ele>105.316181</ele>
        <time>2020-08-17T06:41:43.073Z</time>
      </trkpt>
      <trkpt lat="36.895322" lon="-5.898947">
        <ele>105.456514</ele>
        <time>2020-08-17T06:41:45.059Z</time>
      </trkpt>
      <trkpt lat="36.895167" lon="-5.898904">
        <ele>105.610322</ele>
        <time>2020-08-17T06:41:47.075Z</time>
      </trkpt>
      <trkpt lat="36.895003" lon="-5.898872">
        <ele>105.771120</ele>
        <time>2020-08-17T06:41:49.071Z</time>
      </trkpt>
      <trkpt lat="36.894846" lon="-5.898838">
        <ele>105.925478</ele>
        <time>2020-08-17T06:41:51.065Z</time>
      </trkpt>
      <trkpt lat="36.894682" lon="-5.898789">
        <ele>106.088826</ele>
        <time>2020-08-17T06:41:53.063Z</time>
      </trkpt>
      <trkpt lat="36.894525" lon="-5.898743">
        <ele>106.215446</ele>
        <time>2020-08-17T06:41:55.071Z</time>
      </trkpt>
      <trkpt lat="36.894378" lon="-5.898724">
        <ele>106.284805</ele>
        <time>2020-08-17T06:41:57.070Z</time>
      </trkpt>
      <trkpt lat="36.894224" lon="-5.898710">
        <ele>106.357273</ele>
        <time>2020-08-17T06:41:59.064Z</time>
      </trkpt>
      <trkpt lat="36.894073" lon="-5.898708">
        <ele>106.428147</ele>
        <time>2020-08-17T06:42:01.061Z</time>
      </trkpt>
      <trkpt lat="36.893917" lon="-5.898713">
        <ele>106.501387</ele>
        <time>2020-08-17T06:42:03.076Z</time>
      </trkpt>
      <trkpt lat="36.893786" lon="-5.898734">
        <ele>106.563372</ele>
        <time>2020-08-17T06:42:05.067Z</time>
      </trkpt>
      <trkpt lat="36.893634" lon="-5.898773">
        <ele>106.636197</ele>
        <time>2020-08-17T06:42:07.061Z</time>
      </trkpt>
      <trkpt lat="36.893481" lon="-5.898800">
        <ele>106.708717</ele>
        <time>2020-08-17T06:42:09.067Z</time>
      </trkpt>
      <trkpt lat="36.893342" lon="-5.898846">
        <ele>106.776200</ele>
        <time>2020-08-17T06:42:11.069Z</time>
      </trkpt>
      <trkpt lat="36.893204" lon="-5.898899">
        <ele>106.843954</ele>
        <time>2020-08-17T06:42:13.075Z</time>
      </trkpt>
      <trkpt lat="36.893083" lon="-5.898954">
        <ele>106.904380</ele>
        <time>2020-08-17T06:42:15.065Z</time>
      </trkpt>
      <trkpt lat="36.892957" lon="-5.899002">
        <ele>106.966199</ele>
        <time>2020-08-17T06:42:17.064Z</time>
      </trkpt>
      <trkpt lat="36.892839" lon="-5.899058">
        <ele>107.025435</ele>
        <time>2020-08-17T06:42:19.063Z</time>
      </trkpt>
      <trkpt lat="36.892716" lon="-5.899112">
        <ele>106.992322</ele>
        <time>2020-08-17T06:42:21.068Z</time>
      </trkpt>
      <trkpt lat="36.892582" lon="-5.899172">
        <ele>106.944222</ele>
        <time>2020-08-17T06:42:23.054Z</time>
      </trkpt>
      <trkpt lat="36.892464" lon="-5.899222">
        <ele>106.902116</ele>
        <time>2020-08-17T06:42:25.069Z</time>
      </trkpt>
      <trkpt lat="36.892336" lon="-5.899253">
        <ele>106.858055</ele>
        <time>2020-08-17T06:42:27.078Z</time>
      </trkpt>
      <trkpt lat="36.892217" lon="-5.899287">
        <ele>106.816803</ele>
        <time>2020-08-17T06:42:29.072Z</time>
      </trkpt>
      <trkpt lat="36.892103" lon="-5.899324">
        <ele>106.777000</ele>
        <time>2020-08-17T06:42:31.063Z</time>
      </trkpt>
      <trkpt lat="36.891991" lon="-5.899360">
        <ele>106.737919</ele>
        <time>2020-08-17T06:42:33.070Z</time>
      </trkpt>
      <trkpt lat="36.891877" lon="-5.899387">
        <ele>106.698708</ele>
        <time>2020-08-17T06:42:35.061Z</time>
      </trkpt>
      <trkpt lat="36.891766" lon="-5.899426">
        <ele>106.659744</ele>
        <time>2020-08-17T06:42:37.038Z</time>
      </trkpt>
      <trkpt lat="36.891641" lon="-5.899428">
        <ele>106.617497</ele>
        <time>2020-08-17T06:42:39.059Z</time>
      </trkpt>
      <trkpt lat="36.891527" lon="-5.899408">
        <ele>106.578593</ele>
        <time>2020-08-17T06:42:41.069Z</time>
      </trkpt>
      <trkpt lat="36.891385" lon="-5.899372">
        <ele>106.529628</ele>
        <time>2020-08-17T06:42:43.062Z</time>
      </trkpt>
      <trkpt lat="36.891262" lon="-5.899342">
        <ele>106.487278</ele>
        <time>2020-08-17T06:42:45.060Z</time>
      </trkpt>
      <trkpt lat="36.891143" lon="-5.899339">
        <ele>106.447054</ele>
        <time>2020-08-17T06:42:47.086Z</time>
      </trkpt>
      <trkpt lat="36.891036" lon="-5.899357">
        <ele>106.451610</ele>
        <time>2020-08-17T06:42:49.079Z</time>
      </trkpt>
      <trkpt lat="36.890918" lon="-5.899355">
        <ele>106.534029</ele>
        <time>2020-08-17T06:42:51.054Z</time>
      </trkpt>
      <trkpt lat="36.890811" lon="-5.899363">
        <ele>106.608891</ele>
        <time>2020-08-17T06:42:53.080Z</time>
      </trkpt>
      <trkpt lat="36.890699" lon="-5.899357">
        <ele>106.687183</ele>
        <time>2020-08-17T06:42:55.061Z</time>
      </trkpt>
      <trkpt lat="36.890591" lon="-5.899348">
        <ele>106.762778</ele>
        <time>2020-08-17T06:42:57.061Z</time>
      </trkpt>
      <trkpt lat="36.890481" lon="-5.899341">
        <ele>106.839701</ele>
        <time>2020-08-17T06:42:59.043Z</time>
      </trkpt>
      <trkpt lat="36.890379" lon="-5.899346">
        <ele>106.910993</ele>
        <time>2020-08-17T06:43:01.063Z</time>
      </trkpt>
      <trkpt lat="36.890262" lon="-5.899327">
        <ele>106.993392</ele>
        <time>2020-08-17T06:43:03.064Z</time>
      </trkpt>
      <trkpt lat="36.890149" lon="-5.899332">
        <ele>107.072361</ele>
        <time>2020-08-17T06:43:05.062Z</time>
      </trkpt>
      <trkpt lat="36.890037" lon="-5.899326">
        <ele>107.150653</ele>
        <time>2020-08-17T06:43:07.037Z</time>
      </trkpt>
      <trkpt lat="36.889926" lon="-5.899307">
        <ele>107.228899</ele>
        <time>2020-08-17T06:43:09.058Z</time>
      </trkpt>
      <trkpt lat="36.889799" lon="-5.899352">
        <ele>107.321088</ele>
        <time>2020-08-17T06:43:11.053Z</time>
      </trkpt>
      <trkpt lat="36.889673" lon="-5.899382">
        <ele>107.410668</ele>
        <time>2020-08-17T06:43:13.056Z</time>
      </trkpt>
      <trkpt lat="36.889572" lon="-5.899453">
        <ele>107.491591</ele>
        <time>2020-08-17T06:43:15.082Z</time>
      </trkpt>
      <trkpt lat="36.889465" lon="-5.899482">
        <ele>107.568055</ele>
        <time>2020-08-17T06:43:17.057Z</time>
      </trkpt>
      <trkpt lat="36.889373" lon="-5.899540">
        <ele>107.640014</ele>
        <time>2020-08-17T06:43:19.038Z</time>
      </trkpt>
      <trkpt lat="36.889236" lon="-5.899558">
        <ele>107.584603</ele>
        <time>2020-08-17T06:43:21.069Z</time>
      </trkpt>
      <trkpt lat="36.889110" lon="-5.899577">
        <ele>107.433677</ele>
        <time>2020-08-17T06:43:23.081Z</time>
      </trkpt>
      <trkpt lat="36.888983" lon="-5.899587">
        <ele>107.282349</ele>
        <time>2020-08-17T06:43:25.036Z</time>
      </trkpt>
      <trkpt lat="36.888849" lon="-5.899614">
        <ele>107.120939</ele>
        <time>2020-08-17T06:43:27.075Z</time>
      </trkpt>
      <trkpt lat="36.888726" lon="-5.899638">
        <ele>106.972897</ele>
        <time>2020-08-17T06:43:29.059Z</time>
      </trkpt>
      <trkpt lat="36.888630" lon="-5.899711">
        <ele>106.839277</ele>
        <time>2020-08-17T06:43:31.067Z</time>
      </trkpt>
      <trkpt lat="36.888525" lon="-5.899770">
        <ele>106.702380</ele>
        <time>2020-08-17T06:43:33.070Z</time>
      </trkpt>
      <trkpt lat="36.888412" lon="-5.899802">
        <ele>106.564596</ele>
        <time>2020-08-17T06:43:35.078Z</time>
      </trkpt>
      <trkpt lat="36.888284" lon="-5.899813">
        <ele>106.412018</ele>
        <time>2020-08-17T06:43:37.055Z</time>
      </trkpt>
      <trkpt lat="36.888179" lon="-5.899843">
        <ele>106.283933</ele>
        <time>2020-08-17T06:43:39.095Z</time>
      </trkpt>
      <trkpt lat="36.888082" lon="-5.899887">
        <ele>106.161223</ele>
        <time>2020-08-17T06:43:41.070Z</time>
      </trkpt>
      <trkpt lat="36.887997" lon="-5.899953">
        <ele>106.042234</ele>
        <time>2020-08-17T06:43:43.049Z</time>
      </trkpt>
      <trkpt lat="36.887874" lon="-5.899972">
        <ele>105.894850</ele>
        <time>2020-08-17T06:43:45.084Z</time>
      </trkpt>
      <trkpt lat="36.887766" lon="-5.900012">
        <ele>105.760899</ele>
        <time>2020-08-17T06:43:47.068Z</time>
      </trkpt>
      <trkpt lat="36.887663" lon="-5.900053">
        <ele>105.632353</ele>
        <time>2020-08-17T06:43:49.066Z</time>
      </trkpt>
      <trkpt lat="36.887550" lon="-5.900093">
        <ele>105.504982</ele>
        <time>2020-08-17T06:43:51.076Z</time>
      </trkpt>
      <trkpt lat="36.887451" lon="-5.900140">
        <ele>105.410980</ele>
        <time>2020-08-17T06:43:53.070Z</time>
      </trkpt>
      <trkpt lat="36.887362" lon="-5.900188">
        <ele>105.324940</ele>
        <time>2020-08-17T06:43:55.062Z</time>
      </trkpt>
      <trkpt lat="36.887241" lon="-5.900221">
        <ele>105.215006</ele>
        <time>2020-08-17T06:43:57.053Z</time>
      </trkpt>
      <trkpt lat="36.887129" lon="-5.900252">
        <ele>105.113180</ele>
        <time>2020-08-17T06:43:59.060Z</time>
      </trkpt>
      <trkpt lat="36.887001" lon="-5.900278">
        <ele>104.998068</ele>
        <time>2020-08-17T06:44:01.071Z</time>
      </trkpt>
      <trkpt lat="36.886892" lon="-5.900313">
        <ele>104.898171</ele>
        <time>2020-08-17T06:44:03.070Z</time>
      </trkpt>
      <trkpt lat="36.886769" lon="-5.900320">
        <ele>104.788875</ele>
        <time>2020-08-17T06:44:05.060Z</time>
      </trkpt>
      <trkpt lat="36.886638" lon="-5.900335">
        <ele>104.672103</ele>
        <time>2020-08-17T06:44:07.059Z</time>
      </trkpt>
      <trkpt lat="36.886521" lon="-5.900358">
        <ele>104.566969</ele>
        <time>2020-08-17T06:44:09.073Z</time>
      </trkpt>
      <trkpt lat="36.886414" lon="-5.900400">
        <ele>104.467417</ele>
        <time>2020-08-17T06:44:11.057Z</time>
      </trkpt>
      <trkpt lat="36.886302" lon="-5.900433">
        <ele>104.365274</ele>
        <time>2020-08-17T06:44:13.046Z</time>
      </trkpt>
      <trkpt lat="36.886189" lon="-5.900468">
        <ele>104.261935</ele>
        <time>2020-08-17T06:44:15.064Z</time>
      </trkpt>
      <trkpt lat="36.886084" lon="-5.900501">
        <ele>104.165829</ele>
        <time>2020-08-17T06:44:17.063Z</time>
      </trkpt>
      <trkpt lat="36.885993" lon="-5.900555">
        <ele>104.076414</ele>
        <time>2020-08-17T06:44:19.058Z</time>
      </trkpt>
      <trkpt lat="36.885897" lon="-5.900575">
        <ele>103.990023</ele>
        <time>2020-08-17T06:44:21.055Z</time>
      </trkpt>
      <trkpt lat="36.885800" lon="-5.900615">
        <ele>103.609500</ele>
        <time>2020-08-17T06:44:23.067Z</time>
      </trkpt>
      <trkpt lat="36.885698" lon="-5.900668">
        <ele>102.882714</ele>
        <time>2020-08-17T06:44:25.065Z</time>
      </trkpt>
      <trkpt lat="36.885615" lon="-5.900728">
        <ele>102.251881</ele>
        <time>2020-08-17T06:44:27.088Z</time>
      </trkpt>
      <trkpt lat="36.885509" lon="-5.900791">
        <ele>101.479634</ele>
        <time>2020-08-17T06:44:29.064Z</time>
      </trkpt>
      <trkpt lat="36.885406" lon="-5.900845">
        <ele>100.744748</ele>
        <time>2020-08-17T06:44:31.067Z</time>
      </trkpt>
      <trkpt lat="36.885314" lon="-5.900936">
        <ele>99.972878</ele>
        <time>2020-08-17T06:44:33.079Z</time>
      </trkpt>
      <trkpt lat="36.885211" lon="-5.901010">
        <ele>99.191238</ele>
        <time>2020-08-17T06:44:35.070Z</time>
      </trkpt>
      <trkpt lat="36.885116" lon="-5.901081">
        <ele>98.462996</ele>
        <time>2020-08-17T06:44:37.067Z</time>
      </trkpt>
      <trkpt lat="36.885016" lon="-5.901168">
        <ele>97.661395</ele>
        <time>2020-08-17T06:44:39.063Z</time>
      </trkpt>
      <trkpt lat="36.884927" lon="-5.901243">
        <ele>96.955197</ele>
        <time>2020-08-17T06:44:41.083Z</time>
      </trkpt>
      <trkpt lat="36.884828" lon="-5.901314">
        <ele>96.204242</ele>
        <time>2020-08-17T06:44:43.077Z</time>
      </trkpt>
      <trkpt lat="36.884731" lon="-5.901396">
        <ele>95.433803</ele>
        <time>2020-08-17T06:44:45.060Z</time>
      </trkpt>
      <trkpt lat="36.884634" lon="-5.901478">
        <ele>94.663364</ele>
        <time>2020-08-17T06:44:47.073Z</time>
      </trkpt>
      <trkpt lat="36.884537" lon="-5.901540">
        <ele>93.946559</ele>
        <time>2020-08-17T06:44:49.067Z</time>
      </trkpt>
      <trkpt lat="36.884439" lon="-5.901603">
        <ele>93.221497</ele>
        <time>2020-08-17T06:44:51.071Z</time>
      </trkpt>
      <trkpt lat="36.884345" lon="-5.901664">
        <ele>92.524649</ele>
        <time>2020-08-17T06:44:53.059Z</time>
      </trkpt>
      <trkpt lat="36.884250" lon="-5.901731">
        <ele>92.056837</ele>
        <time>2020-08-17T06:44:55.071Z</time>
      </trkpt>
      <trkpt lat="36.884160" lon="-5.901807">
        <ele>91.931547</ele>
        <time>2020-08-17T06:44:57.063Z</time>
      </trkpt>
      <trkpt lat="36.884061" lon="-5.901872">
        <ele>91.802548</ele>
        <time>2020-08-17T06:44:59.054Z</time>
      </trkpt>
      <trkpt lat="36.883943" lon="-5.901880">
        <ele>91.666220</ele>
        <time>2020-08-17T06:45:01.073Z</time>
      </trkpt>
      <trkpt lat="36.883846" lon="-5.901900">
        <ele>91.552807</ele>
        <time>2020-08-17T06:45:03.040Z</time>
      </trkpt>
      <trkpt lat="36.883714" lon="-5.901879">
        <ele>91.399301</ele>
        <time>2020-08-17T06:45:05.067Z</time>
      </trkpt>
      <trkpt lat="36.883616" lon="-5.901893">
        <ele>91.285511</ele>
        <time>2020-08-17T06:45:07.064Z</time>
      </trkpt>
      <trkpt lat="36.883491" lon="-5.901865">
        <ele>91.139012</ele>
        <time>2020-08-17T06:45:09.072Z</time>
      </trkpt>
      <trkpt lat="36.883378" lon="-5.901860">
        <ele>91.008571</ele>
        <time>2020-08-17T06:45:11.066Z</time>
      </trkpt>
      <trkpt lat="36.883280" lon="-5.901854">
        <ele>90.895380</ele>
        <time>2020-08-17T06:45:13.064Z</time>
      </trkpt>
      <trkpt lat="36.883173" lon="-5.901843">
        <ele>90.771526</ele>
        <time>2020-08-17T06:45:15.070Z</time>
      </trkpt>
      <trkpt lat="36.883062" lon="-5.901824">
        <ele>90.642280</ele>
        <time>2020-08-17T06:45:17.080Z</time>
      </trkpt>
      <trkpt lat="36.882948" lon="-5.901806">
        <ele>90.509722</ele>
        <time>2020-08-17T06:45:19.074Z</time>
      </trkpt>
      <trkpt lat="36.882844" lon="-5.901791">
        <ele>90.388950</ele>
        <time>2020-08-17T06:45:21.080Z</time>
      </trkpt>
      <trkpt lat="36.882734" lon="-5.901775">
        <ele>90.261195</ele>
        <time>2020-08-17T06:45:23.052Z</time>
      </trkpt>
      <trkpt lat="36.882625" lon="-5.901763">
        <ele>90.134964</ele>
        <time>2020-08-17T06:45:25.070Z</time>
      </trkpt>
      <trkpt lat="36.882517" lon="-5.901762">
        <ele>90.027703</ele>
        <time>2020-08-17T06:45:27.060Z</time>
      </trkpt>
      <trkpt lat="36.882406" lon="-5.901745">
        <ele>89.989468</ele>
        <time>2020-08-17T06:45:29.062Z</time>
      </trkpt>
      <trkpt lat="36.882314" lon="-5.901747">
        <ele>89.958009</ele>
        <time>2020-08-17T06:45:31.075Z</time>
      </trkpt>
      <trkpt lat="36.882213" lon="-5.901729">
        <ele>89.923127</ele>
        <time>2020-08-17T06:45:33.051Z</time>
      </trkpt>
      <trkpt lat="36.882098" lon="-5.901721">
        <ele>89.883748</ele>
        <time>2020-08-17T06:45:36.065Z</time>
      </trkpt>
      <trkpt lat="36.881979" lon="-5.901711">
        <ele>89.842970</ele>
        <time>2020-08-17T06:45:39.062Z</time>
      </trkpt>
      <trkpt lat="36.881855" lon="-5.901698">
        <ele>89.800425</ele>
        <time>2020-08-17T06:45:42.065Z</time>
      </trkpt>
      <trkpt lat="36.881745" lon="-5.901675">
        <ele>89.762293</ele>
        <time>2020-08-17T06:45:45.046Z</time>
      </trkpt>
      <trkpt lat="36.881635" lon="-5.901666">
        <ele>89.724604</ele>
        <time>2020-08-17T06:45:48.071Z</time>
      </trkpt>
      <trkpt lat="36.881528" lon="-5.901659">
        <ele>89.687970</ele>
        <time>2020-08-17T06:45:51.074Z</time>
      </trkpt>
      <trkpt lat="36.881411" lon="-5.901645">
        <ele>89.647785</ele>
        <time>2020-08-17T06:45:54.078Z</time>
      </trkpt>
      <trkpt lat="36.881321" lon="-5.901625">
        <ele>89.616531</ele>
        <time>2020-08-17T06:45:56.058Z</time>
      </trkpt>
      <trkpt lat="36.881223" lon="-5.901627">
        <ele>89.583020</ele>
        <time>2020-08-17T06:45:58.070Z</time>
      </trkpt>
      <trkpt lat="36.881112" lon="-5.901615">
        <ele>89.544928</ele>
        <time>2020-08-17T06:46:00.062Z</time>
      </trkpt>
      <trkpt lat="36.881005" lon="-5.901598">
        <ele>89.508050</ele>
        <time>2020-08-17T06:46:02.054Z</time>
      </trkpt>
      <trkpt lat="36.880903" lon="-5.901577">
        <ele>89.472706</ele>
        <time>2020-08-17T06:46:04.064Z</time>
      </trkpt>
      <trkpt lat="36.880780" lon="-5.901549">
        <ele>89.429961</ele>
        <time>2020-08-17T06:46:06.082Z</time>
      </trkpt>
      <trkpt lat="36.880674" lon="-5.901517">
        <ele>89.479795</ele>
        <time>2020-08-17T06:46:08.045Z</time>
      </trkpt>
      <trkpt lat="36.880568" lon="-5.901493">
        <ele>89.560209</ele>
        <time>2020-08-17T06:46:10.068Z</time>
      </trkpt>
      <trkpt lat="36.880458" lon="-5.901472">
        <ele>89.643273</ele>
        <time>2020-08-17T06:46:12.065Z</time>
      </trkpt>
      <trkpt lat="36.880354" lon="-5.901465">
        <ele>89.721020</ele>
        <time>2020-08-17T06:46:14.074Z</time>
      </trkpt>
      <trkpt lat="36.880240" lon="-5.901443">
        <ele>89.807126</ele>
        <time>2020-08-17T06:46:16.066Z</time>
      </trkpt>
      <trkpt lat="36.880136" lon="-5.901415">
        <ele>89.886539</ele>
        <time>2020-08-17T06:46:18.067Z</time>
      </trkpt>
      <trkpt lat="36.880031" lon="-5.901388">
        <ele>89.966561</ele>
        <time>2020-08-17T06:46:20.060Z</time>
      </trkpt>
      <trkpt lat="36.879924" lon="-5.901356">
        <ele>90.048687</ele>
        <time>2020-08-17T06:46:22.067Z</time>
      </trkpt>
      <trkpt lat="36.879816" lon="-5.901333">
        <ele>90.130468</ele>
        <time>2020-08-17T06:46:24.067Z</time>
      </trkpt>
      <trkpt lat="36.879720" lon="-5.901309">
        <ele>90.203549</ele>
        <time>2020-08-17T06:46:26.064Z</time>
      </trkpt>
      <trkpt lat="36.879626" lon="-5.901314">
        <ele>90.273781</ele>
        <time>2020-08-17T06:46:28.057Z</time>
      </trkpt>
      <trkpt lat="36.879534" lon="-5.901307">
        <ele>90.342585</ele>
        <time>2020-08-17T06:46:30.072Z</time>
      </trkpt>
      <trkpt lat="36.879440" lon="-5.901304">
        <ele>90.412776</ele>
        <time>2020-08-17T06:46:32.063Z</time>
      </trkpt>
      <trkpt lat="36.879342" lon="-5.901298">
        <ele>90.486019</ele>
        <time>2020-08-17T06:46:34.056Z</time>
      </trkpt>
      <trkpt lat="36.879203" lon="-5.901297">
        <ele>90.589781</ele>
        <time>2020-08-17T06:46:37.070Z</time>
      </trkpt>
      <trkpt lat="36.879104" lon="-5.901284">
        <ele>90.664089</ele>
        <time>2020-08-17T06:46:39.070Z</time>
      </trkpt>
      <trkpt lat="36.879013" lon="-5.901280">
        <ele>90.732060</ele>
        <time>2020-08-17T06:46:41.077Z</time>
      </trkpt>
      <trkpt lat="36.878881" lon="-5.901279">
        <ele>91.049330</ele>
        <time>2020-08-17T06:46:44.075Z</time>
      </trkpt>
      <trkpt lat="36.878779" lon="-5.901260">
        <ele>91.374280</ele>
        <time>2020-08-17T06:46:46.068Z</time>
      </trkpt>
      <trkpt lat="36.878683" lon="-5.901260">
        <ele>91.676775</ele>
        <time>2020-08-17T06:46:48.065Z</time>
      </trkpt>
      <trkpt lat="36.878567" lon="-5.901242">
        <ele>92.045096</ele>
        <time>2020-08-17T06:46:51.060Z</time>
      </trkpt>
      <trkpt lat="36.878459" lon="-5.901250">
        <ele>92.386000</ele>
        <time>2020-08-17T06:46:54.055Z</time>
      </trkpt>
      <trkpt lat="36.878334" lon="-5.901240">
        <ele>92.780680</ele>
        <time>2020-08-17T06:46:57.067Z</time>
      </trkpt>
      <trkpt lat="36.878227" lon="-5.901222">
        <ele>93.120875</ele>
        <time>2020-08-17T06:46:59.078Z</time>
      </trkpt>
      <trkpt lat="36.878129" lon="-5.901193">
        <ele>93.438206</ele>
        <time>2020-08-17T06:47:01.070Z</time>
      </trkpt>
      <trkpt lat="36.878026" lon="-5.901164">
        <ele>93.770887</ele>
        <time>2020-08-17T06:47:03.059Z</time>
      </trkpt>
      <trkpt lat="36.877908" lon="-5.901119">
        <ele>94.159620</ele>
        <time>2020-08-17T06:47:05.060Z</time>
      </trkpt>
      <trkpt lat="36.877791" lon="-5.901090">
        <ele>94.535463</ele>
        <time>2020-08-17T06:47:07.068Z</time>
      </trkpt>
      <trkpt lat="36.877678" lon="-5.901070">
        <ele>94.895076</ele>
        <time>2020-08-17T06:47:09.071Z</time>
      </trkpt>
      <trkpt lat="36.877569" lon="-5.901042">
        <ele>95.245711</ele>
        <time>2020-08-17T06:47:11.058Z</time>
      </trkpt>
      <trkpt lat="36.877456" lon="-5.901006">
        <ele>95.613153</ele>
        <time>2020-08-17T06:47:13.061Z</time>
      </trkpt>
      <trkpt lat="36.877353" lon="-5.900975">
        <ele>95.946979</ele>
        <time>2020-08-17T06:47:15.059Z</time>
      </trkpt>
      <trkpt lat="36.877255" lon="-5.900941">
        <ele>96.267447</ele>
        <time>2020-08-17T06:47:17.072Z</time>
      </trkpt>
      <trkpt lat="36.877157" lon="-5.900911">
        <ele>96.335147</ele>
        <time>2020-08-17T06:47:19.075Z</time>
      </trkpt>
      <trkpt lat="36.877047" lon="-5.900891">
        <ele>96.120564</ele>
        <time>2020-08-17T06:47:21.060Z</time>
      </trkpt>
      <trkpt lat="36.876909" lon="-5.900873">
        <ele>95.852716</ele>
        <time>2020-08-17T06:47:24.067Z</time>
      </trkpt>
      <trkpt lat="36.876774" lon="-5.900838">
        <ele>95.586561</ele>
        <time>2020-08-17T06:47:27.052Z</time>
      </trkpt>
      <trkpt lat="36.876667" lon="-5.900835">
        <ele>95.379951</ele>
        <time>2020-08-17T06:47:29.077Z</time>
      </trkpt>
      <trkpt lat="36.876575" lon="-5.900811">
        <ele>95.198525</ele>
        <time>2020-08-17T06:47:31.085Z</time>
      </trkpt>
      <trkpt lat="36.876446" lon="-5.900780">
        <ele>94.944938</ele>
        <time>2020-08-17T06:47:34.068Z</time>
      </trkpt>
      <trkpt lat="36.876315" lon="-5.900735">
        <ele>94.682676</ele>
        <time>2020-08-17T06:47:37.060Z</time>
      </trkpt>
      <trkpt lat="36.876225" lon="-5.900709">
        <ele>94.504357</ele>
        <time>2020-08-17T06:47:39.071Z</time>
      </trkpt>
      <trkpt lat="36.876110" lon="-5.900695">
        <ele>94.281306</ele>
        <time>2020-08-17T06:47:42.055Z</time>
      </trkpt>
      <trkpt lat="36.876000" lon="-5.900660">
        <ele>94.062186</ele>
        <time>2020-08-17T06:47:45.058Z</time>
      </trkpt>
      <trkpt lat="36.875869" lon="-5.900628">
        <ele>93.804515</ele>
        <time>2020-08-17T06:47:48.062Z</time>
      </trkpt>
      <trkpt lat="36.875770" lon="-5.900590">
        <ele>93.604595</ele>
        <time>2020-08-17T06:47:50.061Z</time>
      </trkpt>
      <trkpt lat="36.875633" lon="-5.900559">
        <ele>93.335827</ele>
        <time>2020-08-17T06:47:53.065Z</time>
      </trkpt>
      <trkpt lat="36.875535" lon="-5.900521">
        <ele>93.137751</ele>
        <time>2020-08-17T06:47:55.073Z</time>
      </trkpt>
      <trkpt lat="36.875438" lon="-5.900497">
        <ele>92.982014</ele>
        <time>2020-08-17T06:47:57.051Z</time>
      </trkpt>
      <trkpt lat="36.875312" lon="-5.900468">
        <ele>93.513680</ele>
        <time>2020-08-17T06:48:00.056Z</time>
      </trkpt>
      <trkpt lat="36.875216" lon="-5.900455">
        <ele>93.914394</ele>
        <time>2020-08-17T06:48:02.056Z</time>
      </trkpt>
      <trkpt lat="36.875100" lon="-5.900420">
        <ele>94.409597</ele>
        <time>2020-08-17T06:48:05.064Z</time>
      </trkpt>
      <trkpt lat="36.874982" lon="-5.900404">
        <ele>94.902149</ele>
        <time>2020-08-17T06:48:08.069Z</time>
      </trkpt>
      <trkpt lat="36.874847" lon="-5.900410">
        <ele>95.462729</ele>
        <time>2020-08-17T06:48:11.079Z</time>
      </trkpt>
      <trkpt lat="36.874756" lon="-5.900413">
        <ele>95.840495</ele>
        <time>2020-08-17T06:48:13.067Z</time>
      </trkpt>
      <trkpt lat="36.874634" lon="-5.900446">
        <ele>96.358490</ele>
        <time>2020-08-17T06:48:16.064Z</time>
      </trkpt>
      <trkpt lat="36.874522" lon="-5.900474">
        <ele>96.832474</ele>
        <time>2020-08-17T06:48:19.064Z</time>
      </trkpt>
      <trkpt lat="36.874421" lon="-5.900495">
        <ele>97.257364</ele>
        <time>2020-08-17T06:48:22.059Z</time>
      </trkpt>
      <trkpt lat="36.874315" lon="-5.900547">
        <ele>97.729904</ele>
        <time>2020-08-17T06:48:26.054Z</time>
      </trkpt>
      <trkpt lat="36.874227" lon="-5.900573">
        <ele>98.105150</ele>
        <time>2020-08-17T06:48:29.044Z</time>
      </trkpt>
      <trkpt lat="36.874136" lon="-5.900598">
        <ele>98.491796</ele>
        <time>2020-08-17T06:48:32.044Z</time>
      </trkpt>
      <trkpt lat="36.874035" lon="-5.900642">
        <ele>98.935651</ele>
        <time>2020-08-17T06:48:36.056Z</time>
      </trkpt>
      <trkpt lat="36.873929" lon="-5.900705">
        <ele>99.422720</ele>
        <time>2020-08-17T06:48:41.040Z</time>
      </trkpt>
      <trkpt lat="36.873844" lon="-5.900744">
        <ele>99.798464</ele>
        <time>2020-08-17T06:48:44.050Z</time>
      </trkpt>
      <trkpt lat="36.873753" lon="-5.900788">
        <ele>100.203363</ele>
        <time>2020-08-17T06:48:48.059Z</time>
      </trkpt>
      <trkpt lat="36.873665" lon="-5.900837">
        <ele>100.388769</ele>
        <time>2020-08-17T06:48:52.072Z</time>
      </trkpt>
      <trkpt lat="36.873567" lon="-5.900837">
        <ele>100.313945</ele>
        <time>2020-08-17T06:48:55.050Z</time>
      </trkpt>
      <trkpt lat="36.873434" lon="-5.900833">
        <ele>100.212370</ele>
        <time>2020-08-17T06:48:58.067Z</time>
      </trkpt>
      <trkpt lat="36.873325" lon="-5.900841">
        <ele>100.129004</ele>
        <time>2020-08-17T06:49:01.039Z</time>
      </trkpt>
      <trkpt lat="36.873230" lon="-5.900909">
        <ele>100.045421</ele>
        <time>2020-08-17T06:49:06.044Z</time>
      </trkpt>
      <trkpt lat="36.873137" lon="-5.900969">
        <ele>99.965516</ele>
        <time>2020-08-17T06:49:11.047Z</time>
      </trkpt>
      <trkpt lat="36.873052" lon="-5.901034">
        <ele>99.889437</ele>
        <time>2020-08-17T06:49:17.036Z</time>
      </trkpt>
      <trkpt lat="36.872971" lon="-5.901086">
        <ele>99.819914</ele>
        <time>2020-08-17T06:49:22.039Z</time>
      </trkpt>
      <trkpt lat="36.872876" lon="-5.901170">
        <ele>99.731070</ele>
        <time>2020-08-17T06:49:27.054Z</time>
      </trkpt>
      <trkpt lat="36.872786" lon="-5.901239">
        <ele>99.650460</ele>
        <time>2020-08-17T06:49:32.045Z</time>
      </trkpt>
      <trkpt lat="36.872691" lon="-5.901312">
        <ele>99.565318</ele>
        <time>2020-08-17T06:49:37.047Z</time>
      </trkpt>
      <trkpt lat="36.872606" lon="-5.901366">
        <ele>99.492520</ele>
        <time>2020-08-17T06:49:41.057Z</time>
      </trkpt>
      <trkpt lat="36.872522" lon="-5.901436">
        <ele>99.415440</ele>
        <time>2020-08-17T06:49:45.055Z</time>
      </trkpt>
      <trkpt lat="36.872436" lon="-5.901510">
        <ele>99.335726</ele>
        <time>2020-08-17T06:49:49.061Z</time>
      </trkpt>
      <trkpt lat="36.872347" lon="-5.901582">
        <ele>99.254785</ele>
        <time>2020-08-17T06:49:53.056Z</time>
      </trkpt>
      <trkpt lat="36.872251" lon="-5.901648">
        <ele>99.171134</ele>
        <time>2020-08-17T06:49:57.071Z</time>
      </trkpt>
      <trkpt lat="36.872155" lon="-5.901717">
        <ele>99.086585</ele>
        <time>2020-08-17T06:50:01.044Z</time>
      </trkpt>
      <trkpt lat="36.872054" lon="-5.901764">
        <ele>99.070809</ele>
        <time>2020-08-17T06:50:05.047Z</time>
      </trkpt>
      <trkpt lat="36.871946" lon="-5.901797">
        <ele>99.112786</ele>
        <time>2020-08-17T06:50:08.057Z</time>
      </trkpt>
      <trkpt lat="36.871796" lon="-5.901803">
        <ele>99.169450</ele>
        <time>2020-08-17T06:50:11.048Z</time>
      </trkpt>
      <trkpt lat="36.871676" lon="-5.901765">
        <ele>99.216189</ele>
        <time>2020-08-17T06:50:13.041Z</time>
      </trkpt>
      <trkpt lat="36.871534" lon="-5.901743">
        <ele>99.270213</ele>
        <time>2020-08-17T06:50:15.080Z</time>
      </trkpt>
      <trkpt lat="36.871407" lon="-5.901724">
        <ele>99.318506</ele>
        <time>2020-08-17T06:50:17.036Z</time>
      </trkpt>
      <trkpt lat="36.871263" lon="-5.901737">
        <ele>99.373017</ele>
        <time>2020-08-17T06:50:20.050Z</time>
      </trkpt>
      <trkpt lat="36.871157" lon="-5.901748">
        <ele>99.413177</ele>
        <time>2020-08-17T06:50:22.051Z</time>
      </trkpt>
      <trkpt lat="36.871042" lon="-5.901764">
        <ele>99.456865</ele>
        <time>2020-08-17T06:50:24.059Z</time>
      </trkpt>
      <trkpt lat="36.870926" lon="-5.901784">
        <ele>99.501077</ele>
        <time>2020-08-17T06:50:26.063Z</time>
      </trkpt>
      <trkpt lat="36.870828" lon="-5.901817">
        <ele>99.539398</ele>
        <time>2020-08-17T06:50:28.062Z</time>
      </trkpt>
      <trkpt lat="36.870731" lon="-5.901850">
        <ele>99.577353</ele>
        <time>2020-08-17T06:50:30.070Z</time>
      </trkpt>
      <trkpt lat="36.870639" lon="-5.901862">
        <ele>99.612278</ele>
        <time>2020-08-17T06:50:32.064Z</time>
      </trkpt>
      <trkpt lat="36.870550" lon="-5.901890">
        <ele>99.646929</ele>
        <time>2020-08-17T06:50:34.069Z</time>
      </trkpt>
      <trkpt lat="36.870455" lon="-5.901918">
        <ele>99.683781</ele>
        <time>2020-08-17T06:50:36.073Z</time>
      </trkpt>
      <trkpt lat="36.870361" lon="-5.901929">
        <ele>99.719428</ele>
        <time>2020-08-17T06:50:38.056Z</time>
      </trkpt>
      <trkpt lat="36.870243" lon="-5.901984">
        <ele>99.904284</ele>
        <time>2020-08-17T06:50:41.048Z</time>
      </trkpt>
      <trkpt lat="36.870153" lon="-5.902017">
        <ele>100.064148</ele>
        <time>2020-08-17T06:50:43.056Z</time>
      </trkpt>
      <trkpt lat="36.870026" lon="-5.902052">
        <ele>100.285813</ele>
        <time>2020-08-17T06:50:46.049Z</time>
      </trkpt>
      <trkpt lat="36.869910" lon="-5.902090">
        <ele>100.490207</ele>
        <time>2020-08-17T06:50:49.064Z</time>
      </trkpt>
      <trkpt lat="36.869803" lon="-5.902141">
        <ele>100.685393</ele>
        <time>2020-08-17T06:50:52.040Z</time>
      </trkpt>
      <trkpt lat="36.869691" lon="-5.902185">
        <ele>100.885498</ele>
        <time>2020-08-17T06:50:55.068Z</time>
      </trkpt>
      <trkpt lat="36.869574" lon="-5.902232">
        <ele>101.094965</ele>
        <time>2020-08-17T06:50:58.057Z</time>
      </trkpt>
      <trkpt lat="36.869445" lon="-5.902295">
        <ele>101.331025</ele>
        <time>2020-08-17T06:51:01.039Z</time>
      </trkpt>
      <trkpt lat="36.869349" lon="-5.902339">
        <ele>101.505306</ele>
        <time>2020-08-17T06:51:03.057Z</time>
      </trkpt>
      <trkpt lat="36.869249" lon="-5.902402">
        <ele>101.696177</ele>
        <time>2020-08-17T06:51:05.076Z</time>
      </trkpt>
      <trkpt lat="36.869143" lon="-5.902472">
        <ele>101.900513</ele>
        <time>2020-08-17T06:51:07.060Z</time>
      </trkpt>
      <trkpt lat="36.869038" lon="-5.902536">
        <ele>102.099625</ele>
        <time>2020-08-17T06:51:09.053Z</time>
      </trkpt>
      <trkpt lat="36.868925" lon="-5.902612">
        <ele>102.318339</ele>
        <time>2020-08-17T06:51:11.066Z</time>
      </trkpt>
      <trkpt lat="36.868833" lon="-5.902655">
        <ele>102.485753</ele>
        <time>2020-08-17T06:51:13.067Z</time>
      </trkpt>
      <trkpt lat="36.868743" lon="-5.902713">
        <ele>102.658341</ele>
        <time>2020-08-17T06:51:15.056Z</time>
      </trkpt>
      <trkpt lat="36.868651" lon="-5.902770">
        <ele>102.793881</ele>
        <time>2020-08-17T06:51:17.070Z</time>
      </trkpt>
      <trkpt lat="36.868558" lon="-5.902845">
        <ele>102.795125</ele>
        <time>2020-08-17T06:51:19.057Z</time>
      </trkpt>
      <trkpt lat="36.868482" lon="-5.902908">
        <ele>102.796151</ele>
        <time>2020-08-17T06:51:21.061Z</time>
      </trkpt>
      <trkpt lat="36.868390" lon="-5.902972">
        <ele>102.797336</ele>
        <time>2020-08-17T06:51:23.062Z</time>
      </trkpt>
      <trkpt lat="36.868315" lon="-5.903036">
        <ele>102.798357</ele>
        <time>2020-08-17T06:51:25.076Z</time>
      </trkpt>
      <trkpt lat="36.868225" lon="-5.903102">
        <ele>102.799531</ele>
        <time>2020-08-17T06:51:27.039Z</time>
      </trkpt>
      <trkpt lat="36.868131" lon="-5.903151">
        <ele>102.800676</ele>
        <time>2020-08-17T06:51:29.071Z</time>
      </trkpt>
      <trkpt lat="36.868045" lon="-5.903197">
        <ele>102.801729</ele>
        <time>2020-08-17T06:51:31.072Z</time>
      </trkpt>
      <trkpt lat="36.867960" lon="-5.903262">
        <ele>102.802849</ele>
        <time>2020-08-17T06:51:33.060Z</time>
      </trkpt>
      <trkpt lat="36.867862" lon="-5.903315">
        <ele>102.804051</ele>
        <time>2020-08-17T06:51:35.057Z</time>
      </trkpt>
      <trkpt lat="36.867779" lon="-5.903377">
        <ele>102.805138</ele>
        <time>2020-08-17T06:51:37.069Z</time>
      </trkpt>
      <trkpt lat="36.867695" lon="-5.903441">
        <ele>102.806245</ele>
        <time>2020-08-17T06:51:39.065Z</time>
      </trkpt>
      <trkpt lat="36.867607" lon="-5.903503">
        <ele>102.807381</ele>
        <time>2020-08-17T06:51:41.077Z</time>
      </trkpt>
      <trkpt lat="36.867520" lon="-5.903549">
        <ele>102.808444</ele>
        <time>2020-08-17T06:51:43.063Z</time>
      </trkpt>
      <trkpt lat="36.867435" lon="-5.903604">
        <ele>102.809520</ele>
        <time>2020-08-17T06:51:45.052Z</time>
      </trkpt>
      <trkpt lat="36.867321" lon="-5.903660">
        <ele>102.810898</ele>
        <time>2020-08-17T06:51:48.061Z</time>
      </trkpt>
      <trkpt lat="36.867211" lon="-5.903698">
        <ele>102.812182</ele>
        <time>2020-08-17T06:51:51.062Z</time>
      </trkpt>
      <trkpt lat="36.867106" lon="-5.903725">
        <ele>102.813387</ele>
        <time>2020-08-17T06:51:54.071Z</time>
      </trkpt>
      <trkpt lat="36.867002" lon="-5.903738">
        <ele>102.845429</ele>
        <time>2020-08-17T06:51:58.069Z</time>
      </trkpt>
      <trkpt lat="36.866892" lon="-5.903704">
        <ele>102.901881</ele>
        <time>2020-08-17T06:52:02.051Z</time>
      </trkpt>
      <trkpt lat="36.866799" lon="-5.903664">
        <ele>102.950879</ele>
        <time>2020-08-17T06:52:06.053Z</time>
      </trkpt>
      <trkpt lat="36.866690" lon="-5.903612">
        <ele>103.009003</ele>
        <time>2020-08-17T06:52:12.064Z</time>
      </trkpt>
      <trkpt lat="36.866593" lon="-5.903561">
        <ele>103.061428</ele>
        <time>2020-08-17T06:52:16.081Z</time>
      </trkpt>
      <trkpt lat="36.866490" lon="-5.903515">
        <ele>103.115919</ele>
        <time>2020-08-17T06:52:20.064Z</time>
      </trkpt>
      <trkpt lat="36.866391" lon="-5.903486">
        <ele>103.166577</ele>
        <time>2020-08-17T06:52:23.068Z</time>
      </trkpt>
      <trkpt lat="36.866280" lon="-5.903459">
        <ele>103.222913</ele>
        <time>2020-08-17T06:52:26.063Z</time>
      </trkpt>
      <trkpt lat="36.866174" lon="-5.903440">
        <ele>103.276262</ele>
        <time>2020-08-17T06:52:29.081Z</time>
      </trkpt>
      <trkpt lat="36.866050" lon="-5.903413">
        <ele>103.338968</ele>
        <time>2020-08-17T06:52:32.065Z</time>
      </trkpt>
      <trkpt lat="36.865915" lon="-5.903398">
        <ele>103.406489</ele>
        <time>2020-08-17T06:52:35.066Z</time>
      </trkpt>
      <trkpt lat="36.865819" lon="-5.903386">
        <ele>103.454554</ele>
        <time>2020-08-17T06:52:37.066Z</time>
      </trkpt>
      <trkpt lat="36.865722" lon="-5.903367">
        <ele>103.503469</ele>
        <time>2020-08-17T06:52:39.065Z</time>
      </trkpt>
      <trkpt lat="36.865614" lon="-5.903348">
        <ele>103.557804</ele>
        <time>2020-08-17T06:52:41.065Z</time>
      </trkpt>
      <trkpt lat="36.865517" lon="-5.903341">
        <ele>103.606209</ele>
        <time>2020-08-17T06:52:43.066Z</time>
      </trkpt>
      <trkpt lat="36.865416" lon="-5.903328">
        <ele>103.656792</ele>
        <time>2020-08-17T06:52:45.077Z</time>
      </trkpt>
      <trkpt lat="36.865320" lon="-5.903317">
        <ele>103.704819</ele>
        <time>2020-08-17T06:52:47.066Z</time>
      </trkpt>
      <trkpt lat="36.865213" lon="-5.903334">
        <ele>103.602408</ele>
        <time>2020-08-17T06:52:49.072Z</time>
      </trkpt>
      <trkpt lat="36.865120" lon="-5.903360">
        <ele>103.497456</ele>
        <time>2020-08-17T06:52:51.065Z</time>
      </trkpt>
      <trkpt lat="36.865019" lon="-5.903385">
        <ele>103.384064</ele>
        <time>2020-08-17T06:52:53.065Z</time>
      </trkpt>
      <trkpt lat="36.864911" lon="-5.903413">
        <ele>103.262592</ele>
        <time>2020-08-17T06:52:55.068Z</time>
      </trkpt>
      <trkpt lat="36.864826" lon="-5.903452">
        <ele>103.162873</ele>
        <time>2020-08-17T06:52:57.062Z</time>
      </trkpt>
      <trkpt lat="36.864727" lon="-5.903475">
        <ele>103.051977</ele>
        <time>2020-08-17T06:52:59.069Z</time>
      </trkpt>
      <trkpt lat="36.864630" lon="-5.903505">
        <ele>102.941929</ele>
        <time>2020-08-17T06:53:01.048Z</time>
      </trkpt>
      <trkpt lat="36.864547" lon="-5.903567">
        <ele>102.835441</ele>
        <time>2020-08-17T06:53:03.070Z</time>
      </trkpt>
      <trkpt lat="36.864462" lon="-5.903609">
        <ele>102.734781</ele>
        <time>2020-08-17T06:53:05.066Z</time>
      </trkpt>
      <trkpt lat="36.864363" lon="-5.903624">
        <ele>102.624954</ele>
        <time>2020-08-17T06:53:07.045Z</time>
      </trkpt>
      <trkpt lat="36.864275" lon="-5.903652">
        <ele>102.524948</ele>
        <time>2020-08-17T06:53:09.061Z</time>
      </trkpt>
      <trkpt lat="36.864183" lon="-5.903661">
        <ele>102.423318</ele>
        <time>2020-08-17T06:53:11.051Z</time>
      </trkpt>
      <trkpt lat="36.864088" lon="-5.903676">
        <ele>102.317863</ele>
        <time>2020-08-17T06:53:13.053Z</time>
      </trkpt>
      <trkpt lat="36.863962" lon="-5.903665">
        <ele>102.178761</ele>
        <time>2020-08-17T06:53:16.064Z</time>
      </trkpt>
      <trkpt lat="36.863855" lon="-5.903648">
        <ele>102.059973</ele>
        <time>2020-08-17T06:53:18.052Z</time>
      </trkpt>
      <trkpt lat="36.863723" lon="-5.903656">
        <ele>101.914430</ele>
        <time>2020-08-17T06:53:20.066Z</time>
      </trkpt>
      <trkpt lat="36.863556" lon="-5.903638">
        <ele>101.729830</ele>
        <time>2020-08-17T06:53:22.065Z</time>
      </trkpt>
      <trkpt lat="36.863466" lon="-5.903627">
        <ele>101.760876</ele>
        <time>2020-08-17T06:53:23.064Z</time>
      </trkpt>
      <trkpt lat="36.863374" lon="-5.903612">
        <ele>101.793761</ele>
        <time>2020-08-17T06:53:24.061Z</time>
      </trkpt>
      <trkpt lat="36.863197" lon="-5.903568">
        <ele>101.857727</ele>
        <time>2020-08-17T06:53:26.060Z</time>
      </trkpt>
      <trkpt lat="36.863038" lon="-5.903526">
        <ele>101.915329</ele>
        <time>2020-08-17T06:53:28.049Z</time>
      </trkpt>
      <trkpt lat="36.862873" lon="-5.903509">
        <ele>101.974012</ele>
        <time>2020-08-17T06:53:30.052Z</time>
      </trkpt>
      <trkpt lat="36.862735" lon="-5.903482">
        <ele>102.023521</ele>
        <time>2020-08-17T06:53:32.047Z</time>
      </trkpt>
      <trkpt lat="36.862591" lon="-5.903454">
        <ele>102.075176</ele>
        <time>2020-08-17T06:53:34.064Z</time>
      </trkpt>
      <trkpt lat="36.862464" lon="-5.903417">
        <ele>102.121397</ele>
        <time>2020-08-17T06:53:36.060Z</time>
      </trkpt>
      <trkpt lat="36.862351" lon="-5.903398">
        <ele>102.161811</ele>
        <time>2020-08-17T06:53:38.050Z</time>
      </trkpt>
      <trkpt lat="36.862237" lon="-5.903386">
        <ele>102.202361</ele>
        <time>2020-08-17T06:53:40.063Z</time>
      </trkpt>
      <trkpt lat="36.862136" lon="-5.903371">
        <ele>102.238412</ele>
        <time>2020-08-17T06:53:42.065Z</time>
      </trkpt>
      <trkpt lat="36.862043" lon="-5.903383">
        <ele>102.271551</ele>
        <time>2020-08-17T06:53:44.064Z</time>
      </trkpt>
      <trkpt lat="36.861945" lon="-5.903408">
        <ele>102.307003</ele>
        <time>2020-08-17T06:53:46.048Z</time>
      </trkpt>
      <trkpt lat="36.861828" lon="-5.903438">
        <ele>102.349337</ele>
        <time>2020-08-17T06:53:49.062Z</time>
      </trkpt>
      <trkpt lat="36.861684" lon="-5.903491">
        <ele>102.118649</ele>
        <time>2020-08-17T06:53:52.076Z</time>
      </trkpt>
      <trkpt lat="36.861561" lon="-5.903523">
        <ele>101.811522</ele>
        <time>2020-08-17T06:53:54.060Z</time>
      </trkpt>
      <trkpt lat="36.861411" lon="-5.903560">
        <ele>101.437764</ele>
        <time>2020-08-17T06:53:56.063Z</time>
      </trkpt>
      <trkpt lat="36.861255" lon="-5.903585">
        <ele>101.053289</ele>
        <time>2020-08-17T06:53:58.069Z</time>
      </trkpt>
      <trkpt lat="36.861119" lon="-5.903627">
        <ele>100.710829</ele>
        <time>2020-08-17T06:54:00.059Z</time>
      </trkpt>
      <trkpt lat="36.860973" lon="-5.903676">
        <ele>100.341279</ele>
        <time>2020-08-17T06:54:02.062Z</time>
      </trkpt>
      <trkpt lat="36.860839" lon="-5.903717">
        <ele>100.004033</ele>
        <time>2020-08-17T06:54:04.064Z</time>
      </trkpt>
      <trkpt lat="36.860689" lon="-5.903760">
        <ele>99.627826</ele>
        <time>2020-08-17T06:54:06.060Z</time>
      </trkpt>
      <trkpt lat="36.860555" lon="-5.903819">
        <ele>99.280522</ele>
        <time>2020-08-17T06:54:08.059Z</time>
      </trkpt>
      <trkpt lat="36.860438" lon="-5.903853">
        <ele>98.986878</ele>
        <time>2020-08-17T06:54:10.065Z</time>
      </trkpt>
      <trkpt lat="36.860315" lon="-5.903891">
        <ele>98.677146</ele>
        <time>2020-08-17T06:54:12.067Z</time>
      </trkpt>
      <trkpt lat="36.860186" lon="-5.903920">
        <ele>98.356736</ele>
        <time>2020-08-17T06:54:14.066Z</time>
      </trkpt>
      <trkpt lat="36.860053" lon="-5.903954">
        <ele>98.024877</ele>
        <time>2020-08-17T06:54:16.076Z</time>
      </trkpt>
      <trkpt lat="36.859945" lon="-5.904009">
        <ele>97.931234</ele>
        <time>2020-08-17T06:54:18.058Z</time>
      </trkpt>
      <trkpt lat="36.859818" lon="-5.904036">
        <ele>97.878562</ele>
        <time>2020-08-17T06:54:20.068Z</time>
      </trkpt>
      <trkpt lat="36.859710" lon="-5.904055">
        <ele>97.833970</ele>
        <time>2020-08-17T06:54:22.060Z</time>
      </trkpt>
      <trkpt lat="36.859590" lon="-5.904063">
        <ele>97.784836</ele>
        <time>2020-08-17T06:54:24.071Z</time>
      </trkpt>
      <trkpt lat="36.859477" lon="-5.904068">
        <ele>97.738606</ele>
        <time>2020-08-17T06:54:26.056Z</time>
      </trkpt>
      <trkpt lat="36.859360" lon="-5.904054">
        <ele>97.690550</ele>
        <time>2020-08-17T06:54:28.065Z</time>
      </trkpt>
      <trkpt lat="36.859247" lon="-5.904039">
        <ele>97.644089</ele>
        <time>2020-08-17T06:54:30.058Z</time>
      </trkpt>
      <trkpt lat="36.859146" lon="-5.904017">
        <ele>97.602172</ele>
        <time>2020-08-17T06:54:32.067Z</time>
      </trkpt>
      <trkpt lat="36.859002" lon="-5.904001">
        <ele>97.543063</ele>
        <time>2020-08-17T06:54:35.063Z</time>
      </trkpt>
      <trkpt lat="36.858894" lon="-5.903969">
        <ele>97.497682</ele>
        <time>2020-08-17T06:54:37.059Z</time>
      </trkpt>
      <trkpt lat="36.858778" lon="-5.903931">
        <ele>97.448652</ele>
        <time>2020-08-17T06:54:39.064Z</time>
      </trkpt>
      <trkpt lat="36.858690" lon="-5.903897">
        <ele>97.410992</ele>
        <time>2020-08-17T06:54:41.056Z</time>
      </trkpt>
      <trkpt lat="36.858596" lon="-5.903854">
        <ele>97.370065</ele>
        <time>2020-08-17T06:54:43.055Z</time>
      </trkpt>
      <trkpt lat="36.858496" lon="-5.903822">
        <ele>97.327860</ele>
        <time>2020-08-17T06:54:45.064Z</time>
      </trkpt>
      <trkpt lat="36.858395" lon="-5.903792">
        <ele>97.285415</ele>
        <time>2020-08-17T06:54:47.055Z</time>
      </trkpt>
      <trkpt lat="36.858275" lon="-5.903776">
        <ele>97.236073</ele>
        <time>2020-08-17T06:54:49.068Z</time>
      </trkpt>
      <trkpt lat="36.858161" lon="-5.903745">
        <ele>97.205579</ele>
        <time>2020-08-17T06:54:51.064Z</time>
      </trkpt>
      <trkpt lat="36.858050" lon="-5.903707">
        <ele>97.176157</ele>
        <time>2020-08-17T06:54:53.055Z</time>
      </trkpt>
      <trkpt lat="36.857948" lon="-5.903675">
        <ele>97.149273</ele>
        <time>2020-08-17T06:54:55.074Z</time>
      </trkpt>
      <trkpt lat="36.857846" lon="-5.903638">
        <ele>97.122121</ele>
        <time>2020-08-17T06:54:57.078Z</time>
      </trkpt>
      <trkpt lat="36.857745" lon="-5.903601">
        <ele>97.095215</ele>
        <time>2020-08-17T06:54:59.064Z</time>
      </trkpt>
      <trkpt lat="36.857632" lon="-5.903570">
        <ele>97.065640</ele>
        <time>2020-08-17T06:55:01.062Z</time>
      </trkpt>
      <trkpt lat="36.857537" lon="-5.903542">
        <ele>97.040688</ele>
        <time>2020-08-17T06:55:03.062Z</time>
      </trkpt>
      <trkpt lat="36.857437" lon="-5.903514">
        <ele>97.014490</ele>
        <time>2020-08-17T06:55:05.038Z</time>
      </trkpt>
      <trkpt lat="36.857323" lon="-5.903479">
        <ele>96.984480</ele>
        <time>2020-08-17T06:55:07.073Z</time>
      </trkpt>
      <trkpt lat="36.857224" lon="-5.903449">
        <ele>96.958438</ele>
        <time>2020-08-17T06:55:09.068Z</time>
      </trkpt>
      <trkpt lat="36.857125" lon="-5.903419">
        <ele>96.932396</ele>
        <time>2020-08-17T06:55:11.065Z</time>
      </trkpt>
      <trkpt lat="36.857002" lon="-5.903391">
        <ele>96.900435</ele>
        <time>2020-08-17T06:55:14.071Z</time>
      </trkpt>
      <trkpt lat="36.856913" lon="-5.903354">
        <ele>96.876457</ele>
        <time>2020-08-17T06:55:16.064Z</time>
      </trkpt>
      <trkpt lat="36.856825" lon="-5.903322">
        <ele>96.853028</ele>
        <time>2020-08-17T06:55:18.062Z</time>
      </trkpt>
      <trkpt lat="36.856722" lon="-5.903291">
        <ele>96.825944</ele>
        <time>2020-08-17T06:55:20.063Z</time>
      </trkpt>
      <trkpt lat="36.856629" lon="-5.903305">
        <ele>96.801998</ele>
        <time>2020-08-17T06:55:22.072Z</time>
      </trkpt>
      <trkpt lat="36.856540" lon="-5.903281">
        <ele>96.778722</ele>
        <time>2020-08-17T06:55:24.084Z</time>
      </trkpt>
      <trkpt lat="36.856421" lon="-5.903228">
        <ele>96.825511</ele>
        <time>2020-08-17T06:55:27.066Z</time>
      </trkpt>
      <trkpt lat="36.856323" lon="-5.903186">
        <ele>96.873693</ele>
        <time>2020-08-17T06:55:29.057Z</time>
      </trkpt>
      <trkpt lat="36.856232" lon="-5.903144">
        <ele>96.918808</ele>
        <time>2020-08-17T06:55:31.064Z</time>
      </trkpt>
      <trkpt lat="36.856137" lon="-5.903116">
        <ele>96.964202</ele>
        <time>2020-08-17T06:55:33.062Z</time>
      </trkpt>
      <trkpt lat="36.856049" lon="-5.903067">
        <ele>97.009007</ele>
        <time>2020-08-17T06:55:35.056Z</time>
      </trkpt>
      <trkpt lat="36.855949" lon="-5.903025">
        <ele>97.058070</ele>
        <time>2020-08-17T06:55:37.079Z</time>
      </trkpt>
      <trkpt lat="36.855851" lon="-5.902995">
        <ele>97.104994</ele>
        <time>2020-08-17T06:55:39.080Z</time>
      </trkpt>
      <trkpt lat="36.855760" lon="-5.902942">
        <ele>97.151685</ele>
        <time>2020-08-17T06:55:41.069Z</time>
      </trkpt>
      <trkpt lat="36.855647" lon="-5.902912">
        <ele>97.205411</ele>
        <time>2020-08-17T06:55:43.060Z</time>
      </trkpt>
      <trkpt lat="36.855559" lon="-5.902865">
        <ele>97.249917</ele>
        <time>2020-08-17T06:55:45.064Z</time>
      </trkpt>
      <trkpt lat="36.855467" lon="-5.902826">
        <ele>97.295098</ele>
        <time>2020-08-17T06:55:47.071Z</time>
      </trkpt>
      <trkpt lat="36.855381" lon="-5.902783">
        <ele>97.338176</ele>
        <time>2020-08-17T06:55:49.060Z</time>
      </trkpt>
      <trkpt lat="36.855294" lon="-5.902727">
        <ele>97.383689</ele>
        <time>2020-08-17T06:55:51.081Z</time>
      </trkpt>
      <trkpt lat="36.855209" lon="-5.902676">
        <ele>97.427539</ele>
        <time>2020-08-17T06:55:53.071Z</time>
      </trkpt>
      <trkpt lat="36.855074" lon="-5.902620">
        <ele>97.493692</ele>
        <time>2020-08-17T06:55:56.071Z</time>
      </trkpt>
      <trkpt lat="36.854981" lon="-5.902589">
        <ele>97.538456</ele>
        <time>2020-08-17T06:55:58.068Z</time>
      </trkpt>
      <trkpt lat="36.854889" lon="-5.902545">
        <ele>97.584268</ele>
        <time>2020-08-17T06:56:00.064Z</time>
      </trkpt>
      <trkpt lat="36.854794" lon="-5.902483">
        <ele>97.838812</ele>
        <time>2020-08-17T06:56:03.059Z</time>
      </trkpt>
      <trkpt lat="36.854708" lon="-5.902425">
        <ele>98.286352</ele>
        <time>2020-08-17T06:56:05.044Z</time>
      </trkpt>
      <trkpt lat="36.854594" lon="-5.902351">
        <ele>98.874658</ele>
        <time>2020-08-17T06:56:08.046Z</time>
      </trkpt>
      <trkpt lat="36.854476" lon="-5.902297">
        <ele>99.450150</ele>
        <time>2020-08-17T06:56:11.043Z</time>
      </trkpt>
      <trkpt lat="36.854384" lon="-5.902244">
        <ele>99.914089</ele>
        <time>2020-08-17T06:56:14.033Z</time>
      </trkpt>
      <trkpt lat="36.854280" lon="-5.902188">
        <ele>100.432702</ele>
        <time>2020-08-17T06:56:18.053Z</time>
      </trkpt>
      <trkpt lat="36.854171" lon="-5.902134">
        <ele>100.969678</ele>
        <time>2020-08-17T06:56:22.042Z</time>
      </trkpt>
      <trkpt lat="36.854090" lon="-5.902082">
        <ele>101.386711</ele>
        <time>2020-08-17T06:56:25.050Z</time>
      </trkpt>
      <trkpt lat="36.854006" lon="-5.902038">
        <ele>101.803828</ele>
        <time>2020-08-17T06:56:28.048Z</time>
      </trkpt>
      <trkpt lat="36.853902" lon="-5.901976">
        <ele>102.331528</ele>
        <time>2020-08-17T06:56:32.045Z</time>
      </trkpt>
      <trkpt lat="36.853791" lon="-5.901915">
        <ele>102.886849</ele>
        <time>2020-08-17T06:56:36.044Z</time>
      </trkpt>
      <trkpt lat="36.853694" lon="-5.901870">
        <ele>103.360697</ele>
        <time>2020-08-17T06:56:39.045Z</time>
      </trkpt>
      <trkpt lat="36.853601" lon="-5.901828">
        <ele>103.813563</ele>
        <time>2020-08-17T06:56:42.045Z</time>
      </trkpt>
      <trkpt lat="36.853511" lon="-5.901780">
        <ele>104.261697</ele>
        <time>2020-08-17T06:56:45.045Z</time>
      </trkpt>
      <trkpt lat="36.853420" lon="-5.901731">
        <ele>104.715485</ele>
        <time>2020-08-17T06:56:48.046Z</time>
      </trkpt>
      <trkpt lat="36.853325" lon="-5.901690">
        <ele>105.175766</ele>
        <time>2020-08-17T06:56:51.033Z</time>
      </trkpt>
      <trkpt lat="36.853233" lon="-5.901663">
        <ele>105.608557</ele>
        <time>2020-08-17T06:56:54.052Z</time>
      </trkpt>
      <trkpt lat="36.853124" lon="-5.901612">
        <ele>105.761083</ele>
        <time>2020-08-17T06:56:57.047Z</time>
      </trkpt>
      <trkpt lat="36.853000" lon="-5.901568">
        <ele>105.585863</ele>
        <time>2020-08-17T06:57:00.049Z</time>
      </trkpt>
      <trkpt lat="36.852860" lon="-5.901559">
        <ele>105.395305</ele>
        <time>2020-08-17T06:57:03.040Z</time>
      </trkpt>
      <trkpt lat="36.852769" lon="-5.901578">
        <ele>105.269891</ele>
        <time>2020-08-17T06:57:05.041Z</time>
      </trkpt>
      <trkpt lat="36.852675" lon="-5.901592">
        <ele>105.141209</ele>
        <time>2020-08-17T06:57:07.039Z</time>
      </trkpt>
      <trkpt lat="36.852569" lon="-5.901584">
        <ele>104.996857</ele>
        <time>2020-08-17T06:57:09.053Z</time>
      </trkpt>
      <trkpt lat="36.852460" lon="-5.901597">
        <ele>104.848016</ele>
        <time>2020-08-17T06:57:11.058Z</time>
      </trkpt>
      <trkpt lat="36.852368" lon="-5.901590">
        <ele>104.722726</ele>
        <time>2020-08-17T06:57:13.052Z</time>
      </trkpt>
      <trkpt lat="36.852263" lon="-5.901576">
        <ele>104.579186</ele>
        <time>2020-08-17T06:57:15.069Z</time>
      </trkpt>
      <trkpt lat="36.852165" lon="-5.901580">
        <ele>104.445900</ele>
        <time>2020-08-17T06:57:17.058Z</time>
      </trkpt>
      <trkpt lat="36.852047" lon="-5.901582">
        <ele>104.285484</ele>
        <time>2020-08-17T06:57:20.061Z</time>
      </trkpt>
      <trkpt lat="36.851916" lon="-5.901564">
        <ele>104.106338</ele>
        <time>2020-08-17T06:57:23.071Z</time>
      </trkpt>
      <trkpt lat="36.851793" lon="-5.901548">
        <ele>103.938237</ele>
        <time>2020-08-17T06:57:26.075Z</time>
      </trkpt>
      <trkpt lat="36.851704" lon="-5.901525">
        <ele>103.814696</ele>
        <time>2020-08-17T06:57:28.055Z</time>
      </trkpt>
      <trkpt lat="36.851609" lon="-5.901484">
        <ele>103.678076</ele>
        <time>2020-08-17T06:57:30.054Z</time>
      </trkpt>
      <trkpt lat="36.851517" lon="-5.901435">
        <ele>103.542133</ele>
        <time>2020-08-17T06:57:32.052Z</time>
      </trkpt>
      <trkpt lat="36.851432" lon="-5.901385">
        <ele>103.414430</ele>
        <time>2020-08-17T06:57:34.059Z</time>
      </trkpt>
      <trkpt lat="36.851336" lon="-5.901346">
        <ele>103.276870</ele>
        <time>2020-08-17T06:57:36.051Z</time>
      </trkpt>
      <trkpt lat="36.851242" lon="-5.901297">
        <ele>103.138047</ele>
        <time>2020-08-17T06:57:38.047Z</time>
      </trkpt>
      <trkpt lat="36.851152" lon="-5.901251">
        <ele>103.005512</ele>
        <time>2020-08-17T06:57:40.061Z</time>
      </trkpt>
      <trkpt lat="36.851059" lon="-5.901212">
        <ele>102.871805</ele>
        <time>2020-08-17T06:57:42.056Z</time>
      </trkpt>
      <trkpt lat="36.850923" lon="-5.901159">
        <ele>102.677631</ele>
        <time>2020-08-17T06:57:45.051Z</time>
      </trkpt>
      <trkpt lat="36.850820" lon="-5.901108">
        <ele>102.526622</ele>
        <time>2020-08-17T06:57:47.058Z</time>
      </trkpt>
      <trkpt lat="36.850728" lon="-5.901063">
        <ele>102.391961</ele>
        <time>2020-08-17T06:57:49.051Z</time>
      </trkpt>
      <trkpt lat="36.850640" lon="-5.901012">
        <ele>102.259745</ele>
        <time>2020-08-17T06:57:51.054Z</time>
      </trkpt>
      <trkpt lat="36.850539" lon="-5.900952">
        <ele>102.107317</ele>
        <time>2020-08-17T06:57:53.051Z</time>
      </trkpt>
      <trkpt lat="36.850451" lon="-5.900921">
        <ele>101.982697</ele>
        <time>2020-08-17T06:57:55.068Z</time>
      </trkpt>
      <trkpt lat="36.850362" lon="-5.900881">
        <ele>101.853782</ele>
        <time>2020-08-17T06:57:57.059Z</time>
      </trkpt>
      <trkpt lat="36.850279" lon="-5.900827">
        <ele>101.726239</ele>
        <time>2020-08-17T06:57:59.104Z</time>
      </trkpt>
      <trkpt lat="36.850173" lon="-5.900768">
        <ele>101.568076</ele>
        <time>2020-08-17T06:58:02.053Z</time>
      </trkpt>
      <trkpt lat="36.850064" lon="-5.900703">
        <ele>101.403459</ele>
        <time>2020-08-17T06:58:05.037Z</time>
      </trkpt>
      <trkpt lat="36.849966" lon="-5.900700">
        <ele>101.269843</ele>
        <time>2020-08-17T06:58:08.052Z</time>
      </trkpt>
      <trkpt lat="36.849870" lon="-5.900648">
        <ele>101.127230</ele>
        <time>2020-08-17T06:58:11.053Z</time>
      </trkpt>
      <trkpt lat="36.849778" lon="-5.900592">
        <ele>100.987748</ele>
        <time>2020-08-17T06:58:14.068Z</time>
      </trkpt>
      <trkpt lat="36.849685" lon="-5.900528">
        <ele>100.994660</ele>
        <time>2020-08-17T06:58:17.070Z</time>
      </trkpt>
      <trkpt lat="36.849589" lon="-5.900471">
        <ele>101.052059</ele>
        <time>2020-08-17T06:58:20.069Z</time>
      </trkpt>
      <trkpt lat="36.849487" lon="-5.900423">
        <ele>101.110919</ele>
        <time>2020-08-17T06:58:23.040Z</time>
      </trkpt>
      <trkpt lat="36.849363" lon="-5.900378">
        <ele>101.180651</ele>
        <time>2020-08-17T06:58:26.104Z</time>
      </trkpt>
      <trkpt lat="36.849267" lon="-5.900345">
        <ele>101.234421</ele>
        <time>2020-08-17T06:58:28.044Z</time>
      </trkpt>
      <trkpt lat="36.849169" lon="-5.900327">
        <ele>101.287914</ele>
        <time>2020-08-17T06:58:30.063Z</time>
      </trkpt>
      <trkpt lat="36.849077" lon="-5.900303">
        <ele>101.338669</ele>
        <time>2020-08-17T06:58:32.060Z</time>
      </trkpt>
      <trkpt lat="36.848988" lon="-5.900284">
        <ele>101.387429</ele>
        <time>2020-08-17T06:58:34.061Z</time>
      </trkpt>
      <trkpt lat="36.848895" lon="-5.900282">
        <ele>101.437660</ele>
        <time>2020-08-17T06:58:36.059Z</time>
      </trkpt>
      <trkpt lat="36.848749" lon="-5.900305">
        <ele>101.517130</ele>
        <time>2020-08-17T06:58:39.060Z</time>
      </trkpt>
      <trkpt lat="36.848660" lon="-5.900355">
        <ele>101.569828</ele>
        <time>2020-08-17T06:58:41.063Z</time>
      </trkpt>
      <trkpt lat="36.848542" lon="-5.900436">
        <ele>101.642534</ele>
        <time>2020-08-17T06:58:44.058Z</time>
      </trkpt>
      <trkpt lat="36.848437" lon="-5.900532">
        <ele>101.712795</ele>
        <time>2020-08-17T06:58:47.065Z</time>
      </trkpt>
      <trkpt lat="36.848357" lon="-5.900594">
        <ele>101.763632</ele>
        <time>2020-08-17T06:58:49.064Z</time>
      </trkpt>
      <trkpt lat="36.848247" lon="-5.900675">
        <ele>101.832583</ele>
        <time>2020-08-17T06:58:52.069Z</time>
      </trkpt>
      <trkpt lat="36.848135" lon="-5.900755">
        <ele>101.902252</ele>
        <time>2020-08-17T06:58:55.094Z</time>
      </trkpt>
      <trkpt lat="36.848030" lon="-5.900839">
        <ele>102.262075</ele>
        <time>2020-08-17T06:58:58.058Z</time>
      </trkpt>
      <trkpt lat="36.847935" lon="-5.900924">
        <ele>102.721205</ele>
        <time>2020-08-17T06:59:01.050Z</time>
      </trkpt>
      <trkpt lat="36.847835" lon="-5.901004">
        <ele>103.187787</ele>
        <time>2020-08-17T06:59:04.064Z</time>
      </trkpt>
      <trkpt lat="36.847731" lon="-5.901081">
        <ele>103.662805</ele>
        <time>2020-08-17T06:59:07.062Z</time>
      </trkpt>
      <trkpt lat="36.847623" lon="-5.901159">
        <ele>104.152977</ele>
        <time>2020-08-17T06:59:10.080Z</time>
      </trkpt>
      <trkpt lat="36.847516" lon="-5.901238">
        <ele>104.641343</ele>
        <time>2020-08-17T06:59:13.058Z</time>
      </trkpt>
      <trkpt lat="36.847414" lon="-5.901314">
        <ele>105.107999</ele>
        <time>2020-08-17T06:59:16.044Z</time>
      </trkpt>
      <trkpt lat="36.847314" lon="-5.901389">
        <ele>105.566295</ele>
        <time>2020-08-17T06:59:19.058Z</time>
      </trkpt>
      <trkpt lat="36.847220" lon="-5.901463">
        <ele>106.002860</ele>
        <time>2020-08-17T06:59:22.050Z</time>
      </trkpt>
      <trkpt lat="36.847125" lon="-5.901538">
        <ele>106.444427</ele>
        <time>2020-08-17T06:59:25.071Z</time>
      </trkpt>
      <trkpt lat="36.847044" lon="-5.901611">
        <ele>106.836863</ele>
        <time>2020-08-17T06:59:28.053Z</time>
      </trkpt>
      <trkpt lat="36.846946" lon="-5.901695">
        <ele>107.303845</ele>
        <time>2020-08-17T06:59:32.074Z</time>
      </trkpt>
      <trkpt lat="36.846871" lon="-5.901759">
        <ele>107.660722</ele>
        <time>2020-08-17T06:59:35.068Z</time>
      </trkpt>
      <trkpt lat="36.846777" lon="-5.901840">
        <ele>108.109408</ele>
        <time>2020-08-17T06:59:39.072Z</time>
      </trkpt>
      <trkpt lat="36.846692" lon="-5.901910">
        <ele>108.509430</ele>
        <time>2020-08-17T06:59:43.048Z</time>
      </trkpt>
      <trkpt lat="36.846608" lon="-5.901990">
        <ele>108.924449</ele>
        <time>2020-08-17T06:59:47.067Z</time>
      </trkpt>
      <trkpt lat="36.846520" lon="-5.902082">
        <ele>109.544989</ele>
        <time>2020-08-17T06:59:51.051Z</time>
      </trkpt>
      <trkpt lat="36.846427" lon="-5.902166">
        <ele>110.194916</ele>
        <time>2020-08-17T06:59:55.072Z</time>
      </trkpt>
      <trkpt lat="36.846331" lon="-5.902236">
        <ele>110.824443</ele>
        <time>2020-08-17T06:59:59.069Z</time>
      </trkpt>
      <trkpt lat="36.846238" lon="-5.902295">
        <ele>111.415174</ele>
        <time>2020-08-17T07:00:03.052Z</time>
      </trkpt>
      <trkpt lat="36.846151" lon="-5.902353">
        <ele>111.973667</ele>
        <time>2020-08-17T07:00:07.055Z</time>
      </trkpt>
      <trkpt lat="36.846072" lon="-5.902407">
        <ele>112.483677</ele>
        <time>2020-08-17T07:00:10.054Z</time>
      </trkpt>
      <trkpt lat="36.845994" lon="-5.902466">
        <ele>113.000089</ele>
        <time>2020-08-17T07:00:13.062Z</time>
      </trkpt>
      <trkpt lat="36.845896" lon="-5.902542">
        <ele>113.653348</ele>
        <time>2020-08-17T07:00:17.055Z</time>
      </trkpt>
      <trkpt lat="36.845809" lon="-5.902623">
        <ele>114.267834</ele>
        <time>2020-08-17T07:00:21.057Z</time>
      </trkpt>
      <trkpt lat="36.845716" lon="-5.902692">
        <ele>114.880419</ele>
        <time>2020-08-17T07:00:25.069Z</time>
      </trkpt>
      <trkpt lat="36.845621" lon="-5.902761">
        <ele>115.502771</ele>
        <time>2020-08-17T07:00:29.039Z</time>
      </trkpt>
      <trkpt lat="36.845522" lon="-5.902830">
        <ele>116.144812</ele>
        <time>2020-08-17T07:00:33.097Z</time>
      </trkpt>
      <trkpt lat="36.845419" lon="-5.902892">
        <ele>116.792343</ele>
        <time>2020-08-17T07:00:37.076Z</time>
      </trkpt>
      <trkpt lat="36.845317" lon="-5.902963">
        <ele>117.453639</ele>
        <time>2020-08-17T07:00:41.063Z</time>
      </trkpt>
      <trkpt lat="36.845237" lon="-5.903017">
        <ele>117.968627</ele>
        <time>2020-08-17T07:00:44.043Z</time>
      </trkpt>
      <trkpt lat="36.845150" lon="-5.903078">
        <ele>118.533650</ele>
        <time>2020-08-17T07:00:48.056Z</time>
      </trkpt>
      <trkpt lat="36.845051" lon="-5.903134">
        <ele>119.149144</ele>
        <time>2020-08-17T07:00:52.053Z</time>
      </trkpt>
      <trkpt lat="36.844943" lon="-5.903193">
        <ele>119.963954</ele>
        <time>2020-08-17T07:00:56.047Z</time>
      </trkpt>
      <trkpt lat="36.844837" lon="-5.903248">
        <ele>120.763863</ele>
        <time>2020-08-17T07:01:00.059Z</time>
      </trkpt>
      <trkpt lat="36.844727" lon="-5.903294">
        <ele>121.572285</ele>
        <time>2020-08-17T07:01:04.048Z</time>
      </trkpt>
      <trkpt lat="36.844619" lon="-5.903339">
        <ele>122.365720</ele>
        <time>2020-08-17T07:01:08.063Z</time>
      </trkpt>
      <trkpt lat="36.844515" lon="-5.903386">
        <ele>123.136481</ele>
        <time>2020-08-17T07:01:12.048Z</time>
      </trkpt>
      <trkpt lat="36.844420" lon="-5.903438">
        <ele>123.859307</ele>
        <time>2020-08-17T07:01:16.050Z</time>
      </trkpt>
      <trkpt lat="36.844323" lon="-5.903491">
        <ele>124.597139</ele>
        <time>2020-08-17T07:01:20.051Z</time>
      </trkpt>
      <trkpt lat="36.844233" lon="-5.903554">
        <ele>125.316096</ele>
        <time>2020-08-17T07:01:24.057Z</time>
      </trkpt>
      <trkpt lat="36.844136" lon="-5.903604">
        <ele>126.047386</ele>
        <time>2020-08-17T07:01:28.119Z</time>
      </trkpt>
      <trkpt lat="36.844035" lon="-5.903635">
        <ele>126.772216</ele>
        <time>2020-08-17T07:01:32.058Z</time>
      </trkpt>
      <trkpt lat="36.843930" lon="-5.903668">
        <ele>127.526792</ele>
        <time>2020-08-17T07:01:36.061Z</time>
      </trkpt>
      <trkpt lat="36.843819" lon="-5.903678">
        <ele>128.302402</ele>
        <time>2020-08-17T07:01:40.059Z</time>
      </trkpt>
      <trkpt lat="36.843713" lon="-5.903677">
        <ele>129.041177</ele>
        <time>2020-08-17T07:01:44.053Z</time>
      </trkpt>
      <trkpt lat="36.843612" lon="-5.903672">
        <ele>129.745636</ele>
        <time>2020-08-17T07:01:48.052Z</time>
      </trkpt>
      <trkpt lat="36.843520" lon="-5.903676">
        <ele>130.387207</ele>
        <time>2020-08-17T07:01:52.057Z</time>
      </trkpt>
      <trkpt lat="36.843420" lon="-5.903672">
        <ele>131.084502</ele>
        <time>2020-08-17T07:01:56.060Z</time>
      </trkpt>
      <trkpt lat="36.843320" lon="-5.903668">
        <ele>131.664932</ele>
        <time>2020-08-17T07:02:00.055Z</time>
      </trkpt>
      <trkpt lat="36.843221" lon="-5.903662">
        <ele>131.173549</ele>
        <time>2020-08-17T07:02:04.049Z</time>
      </trkpt>
      <trkpt lat="36.843116" lon="-5.903657">
        <ele>130.652619</ele>
        <time>2020-08-17T07:02:08.055Z</time>
      </trkpt>
      <trkpt lat="36.843006" lon="-5.903639">
        <ele>130.102623</ele>
        <time>2020-08-17T07:02:12.071Z</time>
      </trkpt>
      <trkpt lat="36.842895" lon="-5.903633">
        <ele>129.551811</ele>
        <time>2020-08-17T07:02:16.056Z</time>
      </trkpt>
      <trkpt lat="36.842785" lon="-5.903616">
        <ele>129.002316</ele>
        <time>2020-08-17T07:02:20.054Z</time>
      </trkpt>
      <trkpt lat="36.842682" lon="-5.903602">
        <ele>128.488667</ele>
        <time>2020-08-17T07:02:24.055Z</time>
      </trkpt>
      <trkpt lat="36.842573" lon="-5.903587">
        <ele>127.945017</ele>
        <time>2020-08-17T07:02:28.040Z</time>
      </trkpt>
      <trkpt lat="36.842483" lon="-5.903577">
        <ele>127.497070</ele>
        <time>2020-08-17T07:02:31.047Z</time>
      </trkpt>
      <trkpt lat="36.842393" lon="-5.903569">
        <ele>127.049755</ele>
        <time>2020-08-17T07:02:34.062Z</time>
      </trkpt>
      <trkpt lat="36.842303" lon="-5.903561">
        <ele>126.602440</ele>
        <time>2020-08-17T07:02:37.048Z</time>
      </trkpt>
      <trkpt lat="36.842183" lon="-5.903551">
        <ele>126.006202</ele>
        <time>2020-08-17T07:02:41.049Z</time>
      </trkpt>
      <trkpt lat="36.842088" lon="-5.903554">
        <ele>125.535076</ele>
        <time>2020-08-17T07:02:44.097Z</time>
      </trkpt>
      <trkpt lat="36.841994" lon="-5.903553">
        <ele>125.069042</ele>
        <time>2020-08-17T07:02:47.057Z</time>
      </trkpt>
      <trkpt lat="36.841898" lon="-5.903547">
        <ele>124.592514</ele>
        <time>2020-08-17T07:02:50.061Z</time>
      </trkpt>
      <trkpt lat="36.841803" lon="-5.903537">
        <ele>124.119870</ele>
        <time>2020-08-17T07:02:53.066Z</time>
      </trkpt>
      <trkpt lat="36.841709" lon="-5.903527">
        <ele>123.652166</ele>
        <time>2020-08-17T07:02:56.054Z</time>
      </trkpt>
      <trkpt lat="36.841614" lon="-5.903520">
        <ele>123.180373</ele>
        <time>2020-08-17T07:02:59.064Z</time>
      </trkpt>
      <trkpt lat="36.841519" lon="-5.903516">
        <ele>122.763815</ele>
        <time>2020-08-17T07:03:02.035Z</time>
      </trkpt>
      <trkpt lat="36.841427" lon="-5.903511">
        <ele>122.593057</ele>
        <time>2020-08-17T07:03:05.049Z</time>
      </trkpt>
      <trkpt lat="36.841334" lon="-5.903498">
        <ele>122.419530</ele>
        <time>2020-08-17T07:03:08.058Z</time>
      </trkpt>
      <trkpt lat="36.841232" lon="-5.903498">
        <ele>122.230389</ele>
        <time>2020-08-17T07:03:11.060Z</time>
      </trkpt>
      <trkpt lat="36.841135" lon="-5.903508">
        <ele>122.049910</ele>
        <time>2020-08-17T07:03:14.058Z</time>
      </trkpt>
      <trkpt lat="36.841035" lon="-5.903512">
        <ele>121.864383</ele>
        <time>2020-08-17T07:03:17.071Z</time>
      </trkpt>
      <trkpt lat="36.840935" lon="-5.903508">
        <ele>121.678857</ele>
        <time>2020-08-17T07:03:20.057Z</time>
      </trkpt>
      <trkpt lat="36.840826" lon="-5.903498">
        <ele>121.476192</ele>
        <time>2020-08-17T07:03:23.101Z</time>
      </trkpt>
      <trkpt lat="36.840709" lon="-5.903500">
        <ele>121.259217</ele>
        <time>2020-08-17T07:03:26.052Z</time>
      </trkpt>
      <trkpt lat="36.840583" lon="-5.903530">
        <ele>121.021370</ele>
        <time>2020-08-17T07:03:29.061Z</time>
      </trkpt>
      <trkpt lat="36.840493" lon="-5.903587">
        <ele>120.834268</ele>
        <time>2020-08-17T07:03:33.077Z</time>
      </trkpt>
      <trkpt lat="36.840394" lon="-5.903647">
        <ele>120.630236</ele>
        <time>2020-08-17T07:03:35.058Z</time>
      </trkpt>
      <trkpt lat="36.840271" lon="-5.903741">
        <ele>120.362878</ele>
        <time>2020-08-17T07:03:37.055Z</time>
      </trkpt>
      <trkpt lat="36.840180" lon="-5.903861">
        <ele>120.117546</ele>
        <time>2020-08-17T07:03:40.070Z</time>
      </trkpt>
      <trkpt lat="36.840100" lon="-5.903985">
        <ele>119.881178</ele>
        <time>2020-08-17T07:03:43.050Z</time>
      </trkpt>
      <trkpt lat="36.840062" lon="-5.904097">
        <ele>119.700647</ele>
        <time>2020-08-17T07:03:45.095Z</time>
      </trkpt>
      <trkpt lat="36.839975" lon="-5.904231">
        <ele>119.409603</ele>
        <time>2020-08-17T07:03:48.063Z</time>
      </trkpt>
      <trkpt lat="36.839916" lon="-5.904326">
        <ele>118.856529</ele>
        <time>2020-08-17T07:03:50.066Z</time>
      </trkpt>
      <trkpt lat="36.839875" lon="-5.904429">
        <ele>118.327428</ele>
        <time>2020-08-17T07:03:52.058Z</time>
      </trkpt>
      <trkpt lat="36.839832" lon="-5.904553">
        <ele>117.705864</ele>
        <time>2020-08-17T07:03:54.062Z</time>
      </trkpt>
      <trkpt lat="36.839772" lon="-5.904662">
        <ele>117.097392</ele>
        <time>2020-08-17T07:03:56.114Z</time>
      </trkpt>
      <trkpt lat="36.839693" lon="-5.904785">
        <ele>116.372012</ele>
        <time>2020-08-17T07:03:59.055Z</time>
      </trkpt>
      <trkpt lat="36.839643" lon="-5.904904">
        <ele>115.753836</ele>
        <time>2020-08-17T07:04:01.056Z</time>
      </trkpt>
      <trkpt lat="36.839582" lon="-5.905020">
        <ele>115.115436</ele>
        <time>2020-08-17T07:04:03.060Z</time>
      </trkpt>
      <trkpt lat="36.839514" lon="-5.905112">
        <ele>114.539437</ele>
        <time>2020-08-17T07:04:05.063Z</time>
      </trkpt>
      <trkpt lat="36.839447" lon="-5.905199">
        <ele>113.984114</ele>
        <time>2020-08-17T07:04:07.104Z</time>
      </trkpt>
      <trkpt lat="36.839380" lon="-5.905287">
        <ele>113.425468</ele>
        <time>2020-08-17T07:04:09.056Z</time>
      </trkpt>
      <trkpt lat="36.839309" lon="-5.905373">
        <ele>112.857177</ele>
        <time>2020-08-17T07:04:11.055Z</time>
      </trkpt>
      <trkpt lat="36.839249" lon="-5.905486">
        <ele>112.233456</ele>
        <time>2020-08-17T07:04:13.061Z</time>
      </trkpt>
      <trkpt lat="36.839187" lon="-5.905584">
        <ele>111.658885</ele>
        <time>2020-08-17T07:04:15.061Z</time>
      </trkpt>
      <trkpt lat="36.839119" lon="-5.905690">
        <ele>111.034051</ele>
        <time>2020-08-17T07:04:17.071Z</time>
      </trkpt>
      <trkpt lat="36.839051" lon="-5.905794">
        <ele>110.416366</ele>
        <time>2020-08-17T07:04:19.062Z</time>
      </trkpt>
      <trkpt lat="36.838975" lon="-5.905891">
        <ele>109.792013</ele>
        <time>2020-08-17T07:04:21.076Z</time>
      </trkpt>
      <trkpt lat="36.838898" lon="-5.905976">
        <ele>109.201531</ele>
        <time>2020-08-17T07:04:23.063Z</time>
      </trkpt>
      <trkpt lat="36.838835" lon="-5.906075">
        <ele>108.994165</ele>
        <time>2020-08-17T07:04:25.056Z</time>
      </trkpt>
      <trkpt lat="36.838782" lon="-5.906182">
        <ele>108.844761</ele>
        <time>2020-08-17T07:04:27.051Z</time>
      </trkpt>
      <trkpt lat="36.838704" lon="-5.906315">
        <ele>108.648991</ele>
        <time>2020-08-17T07:04:30.045Z</time>
      </trkpt>
      <trkpt lat="36.838640" lon="-5.906441">
        <ele>108.471804</ele>
        <time>2020-08-17T07:04:33.035Z</time>
      </trkpt>
      <trkpt lat="36.838584" lon="-5.906573">
        <ele>108.294422</ele>
        <time>2020-08-17T07:04:36.045Z</time>
      </trkpt>
      <trkpt lat="36.838511" lon="-5.906680">
        <ele>108.127486</ele>
        <time>2020-08-17T07:04:39.078Z</time>
      </trkpt>
      <trkpt lat="36.838449" lon="-5.906787">
        <ele>107.970643</ele>
        <time>2020-08-17T07:04:42.066Z</time>
      </trkpt>
      <trkpt lat="36.838386" lon="-5.906876">
        <ele>107.829570</ele>
        <time>2020-08-17T07:04:45.058Z</time>
      </trkpt>
      <trkpt lat="36.838331" lon="-5.906971">
        <ele>107.690358</ele>
        <time>2020-08-17T07:04:48.050Z</time>
      </trkpt>
      <trkpt lat="36.838275" lon="-5.907064">
        <ele>107.552175</ele>
        <time>2020-08-17T07:04:51.098Z</time>
      </trkpt>
      <trkpt lat="36.838219" lon="-5.907156">
        <ele>107.414939</ele>
        <time>2020-08-17T07:04:54.076Z</time>
      </trkpt>
      <trkpt lat="36.838165" lon="-5.907246">
        <ele>107.281387</ele>
        <time>2020-08-17T07:04:57.061Z</time>
      </trkpt>
      <trkpt lat="36.838106" lon="-5.907337">
        <ele>107.142336</ele>
        <time>2020-08-17T07:05:00.050Z</time>
      </trkpt>
      <trkpt lat="36.838052" lon="-5.907434">
        <ele>107.002045</ele>
        <time>2020-08-17T07:05:03.055Z</time>
      </trkpt>
      <trkpt lat="36.838000" lon="-5.907531">
        <ele>106.863426</ele>
        <time>2020-08-17T07:05:06.058Z</time>
      </trkpt>
      <trkpt lat="36.837911" lon="-5.907605">
        <ele>106.704831</ele>
        <time>2020-08-17T07:05:09.047Z</time>
      </trkpt>
      <trkpt lat="36.837857" lon="-5.907740">
        <ele>106.525639</ele>
        <time>2020-08-17T07:05:13.039Z</time>
      </trkpt>
      <trkpt lat="36.837809" lon="-5.907859">
        <ele>106.520972</ele>
        <time>2020-08-17T07:05:16.057Z</time>
      </trkpt>
      <trkpt lat="36.837747" lon="-5.907979">
        <ele>106.645015</ele>
        <time>2020-08-17T07:05:19.053Z</time>
      </trkpt>
      <trkpt lat="36.837668" lon="-5.908086">
        <ele>106.771442</ele>
        <time>2020-08-17T07:05:22.046Z</time>
      </trkpt>
      <trkpt lat="36.837605" lon="-5.908204">
        <ele>106.894629</ele>
        <time>2020-08-17T07:05:25.068Z</time>
      </trkpt>
      <trkpt lat="36.837556" lon="-5.908319">
        <ele>107.007773</ele>
        <time>2020-08-17T07:05:28.056Z</time>
      </trkpt>
      <trkpt lat="36.837510" lon="-5.908439">
        <ele>107.123325</ele>
        <time>2020-08-17T07:05:31.048Z</time>
      </trkpt>
      <trkpt lat="36.837446" lon="-5.908542">
        <ele>107.236570</ele>
        <time>2020-08-17T07:05:34.047Z</time>
      </trkpt>
      <trkpt lat="36.837386" lon="-5.908649">
        <ele>107.350034</ele>
        <time>2020-08-17T07:05:37.058Z</time>
      </trkpt>
      <trkpt lat="36.837327" lon="-5.908757">
        <ele>107.463594</ele>
        <time>2020-08-17T07:05:40.102Z</time>
      </trkpt>
      <trkpt lat="36.837283" lon="-5.908868">
        <ele>107.571169</ele>
        <time>2020-08-17T07:05:43.039Z</time>
      </trkpt>
      <trkpt lat="36.837237" lon="-5.908968">
        <ele>107.671338</ele>
        <time>2020-08-17T07:05:46.054Z</time>
      </trkpt>
      <trkpt lat="36.837178" lon="-5.909064">
        <ele>107.776456</ele>
        <time>2020-08-17T07:05:49.048Z</time>
      </trkpt>
      <trkpt lat="36.837111" lon="-5.909160">
        <ele>107.887075</ele>
        <time>2020-08-17T07:05:52.056Z</time>
      </trkpt>
      <trkpt lat="36.837050" lon="-5.909253">
        <ele>107.991500</ele>
        <time>2020-08-17T07:05:55.078Z</time>
      </trkpt>
      <trkpt lat="36.836997" lon="-5.909356">
        <ele>108.097845</ele>
        <time>2020-08-17T07:05:58.037Z</time>
      </trkpt>
      <trkpt lat="36.836943" lon="-5.909457">
        <ele>108.203331</ele>
        <time>2020-08-17T07:06:01.045Z</time>
      </trkpt>
      <trkpt lat="36.836882" lon="-5.909565">
        <ele>108.318130</ele>
        <time>2020-08-17T07:06:04.036Z</time>
      </trkpt>
      <trkpt lat="36.836826" lon="-5.909667">
        <ele>108.406202</ele>
        <time>2020-08-17T07:06:07.030Z</time>
      </trkpt>
      <trkpt lat="36.836770" lon="-5.909770">
        <ele>108.396242</ele>
        <time>2020-08-17T07:06:10.058Z</time>
      </trkpt>
      <trkpt lat="36.836715" lon="-5.909871">
        <ele>108.386471</ele>
        <time>2020-08-17T07:06:13.042Z</time>
      </trkpt>
      <trkpt lat="36.836670" lon="-5.909974">
        <ele>108.377085</ele>
        <time>2020-08-17T07:06:16.048Z</time>
      </trkpt>
      <trkpt lat="36.836622" lon="-5.910075">
        <ele>108.367689</ele>
        <time>2020-08-17T07:06:19.063Z</time>
      </trkpt>
      <trkpt lat="36.836581" lon="-5.910180">
        <ele>108.358344</ele>
        <time>2020-08-17T07:06:22.050Z</time>
      </trkpt>
      <trkpt lat="36.836542" lon="-5.910294">
        <ele>108.348428</ele>
        <time>2020-08-17T07:06:25.068Z</time>
      </trkpt>
      <trkpt lat="36.836496" lon="-5.910398">
        <ele>108.338923</ele>
        <time>2020-08-17T07:06:28.061Z</time>
      </trkpt>
      <trkpt lat="36.836453" lon="-5.910506">
        <ele>108.329275</ele>
        <time>2020-08-17T07:06:31.040Z</time>
      </trkpt>
      <trkpt lat="36.836414" lon="-5.910612">
        <ele>108.319943</ele>
        <time>2020-08-17T07:06:34.056Z</time>
      </trkpt>
      <trkpt lat="36.836373" lon="-5.910731">
        <ele>108.309580</ele>
        <time>2020-08-17T07:06:37.073Z</time>
      </trkpt>
      <trkpt lat="36.836336" lon="-5.910863">
        <ele>108.298393</ele>
        <time>2020-08-17T07:06:40.042Z</time>
      </trkpt>
      <trkpt lat="36.836300" lon="-5.910992">
        <ele>108.287465</ele>
        <time>2020-08-17T07:06:43.062Z</time>
      </trkpt>
      <trkpt lat="36.836260" lon="-5.911119">
        <ele>108.276549</ele>
        <time>2020-08-17T07:06:46.094Z</time>
      </trkpt>
      <trkpt lat="36.836211" lon="-5.911234">
        <ele>108.266128</ele>
        <time>2020-08-17T07:06:49.060Z</time>
      </trkpt>
      <trkpt lat="36.836163" lon="-5.911345">
        <ele>108.256036</ele>
        <time>2020-08-17T07:06:52.050Z</time>
      </trkpt>
      <trkpt lat="36.836110" lon="-5.911475">
        <ele>108.244366</ele>
        <time>2020-08-17T07:06:56.056Z</time>
      </trkpt>
      <trkpt lat="36.836068" lon="-5.911579">
        <ele>108.235049</ele>
        <time>2020-08-17T07:06:59.064Z</time>
      </trkpt>
      <trkpt lat="36.836022" lon="-5.911684">
        <ele>108.298890</ele>
        <time>2020-08-17T07:07:02.063Z</time>
      </trkpt>
      <trkpt lat="36.835973" lon="-5.911799">
        <ele>108.582364</ele>
        <time>2020-08-17T07:07:05.060Z</time>
      </trkpt>
      <trkpt lat="36.835921" lon="-5.911899">
        <ele>108.841842</ele>
        <time>2020-08-17T07:07:08.102Z</time>
      </trkpt>
      <trkpt lat="36.835878" lon="-5.912003">
        <ele>109.096544</ele>
        <time>2020-08-17T07:07:11.053Z</time>
      </trkpt>
      <trkpt lat="36.835824" lon="-5.912115">
        <ele>109.381044</ele>
        <time>2020-08-17T07:07:14.057Z</time>
      </trkpt>
      <trkpt lat="36.835767" lon="-5.912226">
        <ele>109.668003</ele>
        <time>2020-08-17T07:07:17.051Z</time>
      </trkpt>
      <trkpt lat="36.835706" lon="-5.912331">
        <ele>109.950312</ele>
        <time>2020-08-17T07:07:20.058Z</time>
      </trkpt>
      <trkpt lat="36.835656" lon="-5.912427">
        <ele>110.199531</ele>
        <time>2020-08-17T07:07:23.056Z</time>
      </trkpt>
      <trkpt lat="36.835585" lon="-5.912540">
        <ele>110.512119</ele>
        <time>2020-08-17T07:07:27.052Z</time>
      </trkpt>
      <trkpt lat="36.835535" lon="-5.912635">
        <ele>110.759516</ele>
        <time>2020-08-17T07:07:30.100Z</time>
      </trkpt>
      <trkpt lat="36.835474" lon="-5.912753">
        <ele>111.065170</ele>
        <time>2020-08-17T07:07:34.063Z</time>
      </trkpt>
      <trkpt lat="36.835418" lon="-5.912877">
        <ele>111.374968</ele>
        <time>2020-08-17T07:07:38.057Z</time>
      </trkpt>
      <trkpt lat="36.835375" lon="-5.913006">
        <ele>111.679027</ele>
        <time>2020-08-17T07:07:42.062Z</time>
      </trkpt>
      <trkpt lat="36.835321" lon="-5.913123">
        <ele>111.972901</ele>
        <time>2020-08-17T07:07:46.063Z</time>
      </trkpt>
      <trkpt lat="36.835260" lon="-5.913251">
        <ele>112.297047</ele>
        <time>2020-08-17T07:07:50.078Z</time>
      </trkpt>
      <trkpt lat="36.835207" lon="-5.913365">
        <ele>112.583910</ele>
        <time>2020-08-17T07:07:53.049Z</time>
      </trkpt>
      <trkpt lat="36.835141" lon="-5.913508">
        <ele>112.943090</ele>
        <time>2020-08-17T07:07:56.063Z</time>
      </trkpt>
      <trkpt lat="36.835099" lon="-5.913629">
        <ele>113.139147</ele>
        <time>2020-08-17T07:07:58.062Z</time>
      </trkpt>
      <trkpt lat="36.835062" lon="-5.913764">
        <ele>113.197938</ele>
        <time>2020-08-17T07:08:00.058Z</time>
      </trkpt>
      <trkpt lat="36.835013" lon="-5.913907">
        <ele>113.262027</ele>
        <time>2020-08-17T07:08:02.052Z</time>
      </trkpt>
      <trkpt lat="36.834965" lon="-5.914086">
        <ele>113.339806</ele>
        <time>2020-08-17T07:08:04.058Z</time>
      </trkpt>
      <trkpt lat="36.834893" lon="-5.914250">
        <ele>113.416872</ele>
        <time>2020-08-17T07:08:06.068Z</time>
      </trkpt>
      <trkpt lat="36.834856" lon="-5.914447">
        <ele>113.500242</ele>
        <time>2020-08-17T07:08:08.057Z</time>
      </trkpt>
      <trkpt lat="36.834822" lon="-5.914641">
        <ele>113.582065</ele>
        <time>2020-08-17T07:08:10.058Z</time>
      </trkpt>
      <trkpt lat="36.834794" lon="-5.914756">
        <ele>113.631590</ele>
        <time>2020-08-17T07:08:11.060Z</time>
      </trkpt>
      <trkpt lat="36.834750" lon="-5.914861">
        <ele>113.680421</ele>
        <time>2020-08-17T07:08:12.049Z</time>
      </trkpt>
      <trkpt lat="36.834694" lon="-5.915069">
        <ele>113.770837</ele>
        <time>2020-08-17T07:08:14.089Z</time>
      </trkpt>
      <trkpt lat="36.834657" lon="-5.915175">
        <ele>113.818483</ele>
        <time>2020-08-17T07:08:15.057Z</time>
      </trkpt>
      <trkpt lat="36.834579" lon="-5.915387">
        <ele>113.914615</ele>
        <time>2020-08-17T07:08:17.068Z</time>
      </trkpt>
      <trkpt lat="36.834503" lon="-5.915581">
        <ele>114.003606</ele>
        <time>2020-08-17T07:08:19.055Z</time>
      </trkpt>
      <trkpt lat="36.834452" lon="-5.915687">
        <ele>114.053105</ele>
        <time>2020-08-17T07:08:20.050Z</time>
      </trkpt>
      <trkpt lat="36.834386" lon="-5.915790">
        <ele>114.100104</ele>
        <time>2020-08-17T07:08:21.057Z</time>
      </trkpt>
      <trkpt lat="36.834297" lon="-5.915961">
        <ele>114.172761</ele>
        <time>2020-08-17T07:08:23.064Z</time>
      </trkpt>
      <trkpt lat="36.834216" lon="-5.916139">
        <ele>114.245698</ele>
        <time>2020-08-17T07:08:25.040Z</time>
      </trkpt>
      <trkpt lat="36.834133" lon="-5.916302">
        <ele>114.314514</ele>
        <time>2020-08-17T07:08:27.060Z</time>
      </trkpt>
      <trkpt lat="36.834059" lon="-5.916460">
        <ele>114.379723</ele>
        <time>2020-08-17T07:08:29.040Z</time>
      </trkpt>
      <trkpt lat="36.833980" lon="-5.916623">
        <ele>114.447601</ele>
        <time>2020-08-17T07:08:31.045Z</time>
      </trkpt>
      <trkpt lat="36.833920" lon="-5.916766">
        <ele>114.505113</ele>
        <time>2020-08-17T07:08:33.040Z</time>
      </trkpt>
      <trkpt lat="36.833852" lon="-5.916899">
        <ele>114.561330</ele>
        <time>2020-08-17T07:08:35.058Z</time>
      </trkpt>
      <trkpt lat="36.833779" lon="-5.917042">
        <ele>114.621747</ele>
        <time>2020-08-17T07:08:37.068Z</time>
      </trkpt>
      <trkpt lat="36.833716" lon="-5.917170">
        <ele>114.675273</ele>
        <time>2020-08-17T07:08:39.061Z</time>
      </trkpt>
      <trkpt lat="36.833632" lon="-5.917284">
        <ele>114.730469</ele>
        <time>2020-08-17T07:08:41.065Z</time>
      </trkpt>
      <trkpt lat="36.833547" lon="-5.917372">
        <ele>114.779598</ele>
        <time>2020-08-17T07:08:43.058Z</time>
      </trkpt>
      <trkpt lat="36.833493" lon="-5.917475">
        <ele>114.823459</ele>
        <time>2020-08-17T07:08:45.055Z</time>
      </trkpt>
      <trkpt lat="36.833416" lon="-5.917584">
        <ele>114.666916</ele>
        <time>2020-08-17T07:08:47.058Z</time>
      </trkpt>
      <trkpt lat="36.833332" lon="-5.917681">
        <ele>114.375220</ele>
        <time>2020-08-17T07:08:49.060Z</time>
      </trkpt>
      <trkpt lat="36.833260" lon="-5.917776">
        <ele>114.108177</ele>
        <time>2020-08-17T07:08:51.059Z</time>
      </trkpt>
      <trkpt lat="36.833208" lon="-5.917886">
        <ele>113.847418</ele>
        <time>2020-08-17T07:08:53.059Z</time>
      </trkpt>
      <trkpt lat="36.833143" lon="-5.917969">
        <ele>113.610401</ele>
        <time>2020-08-17T07:08:55.063Z</time>
      </trkpt>
      <trkpt lat="36.833071" lon="-5.918064">
        <ele>113.343356</ele>
        <time>2020-08-17T07:08:57.052Z</time>
      </trkpt>
      <trkpt lat="36.832979" lon="-5.918153">
        <ele>113.046634</ele>
        <time>2020-08-17T07:08:59.052Z</time>
      </trkpt>
      <trkpt lat="36.832903" lon="-5.918236">
        <ele>112.789216</ele>
        <time>2020-08-17T07:09:01.056Z</time>
      </trkpt>
      <trkpt lat="36.832822" lon="-5.918376">
        <ele>112.436618</ele>
        <time>2020-08-17T07:09:04.077Z</time>
      </trkpt>
      <trkpt lat="36.832732" lon="-5.918500">
        <ele>112.094952</ele>
        <time>2020-08-17T07:09:07.055Z</time>
      </trkpt>
      <trkpt lat="36.832647" lon="-5.918614">
        <ele>111.776942</ele>
        <time>2020-08-17T07:09:10.061Z</time>
      </trkpt>
      <trkpt lat="36.832561" lon="-5.918726">
        <ele>111.460146</ele>
        <time>2020-08-17T07:09:13.056Z</time>
      </trkpt>
      <trkpt lat="36.832485" lon="-5.918829">
        <ele>111.174205</ele>
        <time>2020-08-17T07:09:16.054Z</time>
      </trkpt>
      <trkpt lat="36.832406" lon="-5.918953">
        <ele>110.850713</ele>
        <time>2020-08-17T07:09:19.057Z</time>
      </trkpt>
      <trkpt lat="36.832326" lon="-5.919080">
        <ele>110.520837</ele>
        <time>2020-08-17T07:09:22.056Z</time>
      </trkpt>
      <trkpt lat="36.832258" lon="-5.919210">
        <ele>110.242999</ele>
        <time>2020-08-17T07:09:25.062Z</time>
      </trkpt>
      <trkpt lat="36.832186" lon="-5.919319">
        <ele>110.165198</ele>
        <time>2020-08-17T07:09:28.056Z</time>
      </trkpt>
      <trkpt lat="36.832117" lon="-5.919418">
        <ele>110.092931</ele>
        <time>2020-08-17T07:09:31.060Z</time>
      </trkpt>
      <trkpt lat="36.832043" lon="-5.919523">
        <ele>110.015913</ele>
        <time>2020-08-17T07:09:34.057Z</time>
      </trkpt>
      <trkpt lat="36.831966" lon="-5.919625">
        <ele>109.938726</ele>
        <time>2020-08-17T07:09:37.052Z</time>
      </trkpt>
      <trkpt lat="36.831885" lon="-5.919730">
        <ele>109.858445</ele>
        <time>2020-08-17T07:09:40.067Z</time>
      </trkpt>
      <trkpt lat="36.831806" lon="-5.919837">
        <ele>109.778306</ele>
        <time>2020-08-17T07:09:43.057Z</time>
      </trkpt>
      <trkpt lat="36.831722" lon="-5.919942">
        <ele>109.696580</ele>
        <time>2020-08-17T07:09:46.063Z</time>
      </trkpt>
      <trkpt lat="36.831647" lon="-5.920035">
        <ele>109.623901</ele>
        <time>2020-08-17T07:09:49.052Z</time>
      </trkpt>
      <trkpt lat="36.831583" lon="-5.920126">
        <ele>109.557212</ele>
        <time>2020-08-17T07:09:52.049Z</time>
      </trkpt>
      <trkpt lat="36.831511" lon="-5.920218">
        <ele>109.486378</ele>
        <time>2020-08-17T07:09:55.061Z</time>
      </trkpt>
      <trkpt lat="36.831448" lon="-5.920305">
        <ele>109.421791</ele>
        <time>2020-08-17T07:09:58.063Z</time>
      </trkpt>
      <trkpt lat="36.831372" lon="-5.920393">
        <ele>109.350521</ele>
        <time>2020-08-17T07:10:02.049Z</time>
      </trkpt>
      <trkpt lat="36.831300" lon="-5.920501">
        <ele>109.273143</ele>
        <time>2020-08-17T07:10:06.070Z</time>
      </trkpt>
      <trkpt lat="36.831231" lon="-5.920606">
        <ele>109.198353</ele>
        <time>2020-08-17T07:10:10.055Z</time>
      </trkpt>
      <trkpt lat="36.831165" lon="-5.920718">
        <ele>109.121787</ele>
        <time>2020-08-17T07:10:14.057Z</time>
      </trkpt>
      <trkpt lat="36.831095" lon="-5.920826">
        <ele>109.045281</ele>
        <time>2020-08-17T07:10:18.051Z</time>
      </trkpt>
      <trkpt lat="36.831022" lon="-5.920921">
        <ele>109.272521</ele>
        <time>2020-08-17T07:10:22.053Z</time>
      </trkpt>
      <trkpt lat="36.830945" lon="-5.921024">
        <ele>109.683789</ele>
        <time>2020-08-17T07:10:26.054Z</time>
      </trkpt>
      <trkpt lat="36.830869" lon="-5.921126">
        <ele>110.090437</ele>
        <time>2020-08-17T07:10:30.051Z</time>
      </trkpt>
      <trkpt lat="36.830795" lon="-5.921223">
        <ele>110.481464</ele>
        <time>2020-08-17T07:10:34.058Z</time>
      </trkpt>
      <trkpt lat="36.830711" lon="-5.921317">
        <ele>110.892589</ele>
        <time>2020-08-17T07:10:38.061Z</time>
      </trkpt>
      <trkpt lat="36.830626" lon="-5.921414">
        <ele>111.312290</ele>
        <time>2020-08-17T07:10:42.051Z</time>
      </trkpt>
      <trkpt lat="36.830551" lon="-5.921500">
        <ele>111.683427</ele>
        <time>2020-08-17T07:10:46.055Z</time>
      </trkpt>
      <trkpt lat="36.830477" lon="-5.921586">
        <ele>112.051886</ele>
        <time>2020-08-17T07:10:50.062Z</time>
      </trkpt>
      <trkpt lat="36.830406" lon="-5.921681">
        <ele>112.431164</ele>
        <time>2020-08-17T07:10:54.052Z</time>
      </trkpt>
      <trkpt lat="36.830340" lon="-5.921780">
        <ele>112.807136</ele>
        <time>2020-08-17T07:10:58.050Z</time>
      </trkpt>
      <trkpt lat="36.830275" lon="-5.921884">
        <ele>113.192177</ele>
        <time>2020-08-17T07:11:02.052Z</time>
      </trkpt>
      <trkpt lat="36.830205" lon="-5.921995">
        <ele>113.604542</ele>
        <time>2020-08-17T07:11:06.065Z</time>
      </trkpt>
      <trkpt lat="36.830126" lon="-5.922099">
        <ele>114.022935</ele>
        <time>2020-08-17T07:11:10.052Z</time>
      </trkpt>
      <trkpt lat="36.830052" lon="-5.922203">
        <ele>114.428995</ele>
        <time>2020-08-17T07:11:14.056Z</time>
      </trkpt>
      <trkpt lat="36.829986" lon="-5.922280">
        <ele>114.758213</ele>
        <time>2020-08-17T07:11:17.055Z</time>
      </trkpt>
      <trkpt lat="36.829915" lon="-5.922372">
        <ele>115.131142</ele>
        <time>2020-08-17T07:11:21.056Z</time>
      </trkpt>
      <trkpt lat="36.829845" lon="-5.922461">
        <ele>115.495254</ele>
        <time>2020-08-17T07:11:25.073Z</time>
      </trkpt>
      <trkpt lat="36.829778" lon="-5.922567">
        <ele>116.354163</ele>
        <time>2020-08-17T07:11:29.061Z</time>
      </trkpt>
      <trkpt lat="36.829718" lon="-5.922659">
        <ele>117.216874</ele>
        <time>2020-08-17T07:11:33.047Z</time>
      </trkpt>
      <trkpt lat="36.829657" lon="-5.922763">
        <ele>118.154185</ele>
        <time>2020-08-17T07:11:37.040Z</time>
      </trkpt>
      <trkpt lat="36.829589" lon="-5.922843">
        <ele>119.002514</ele>
        <time>2020-08-17T07:11:41.056Z</time>
      </trkpt>
      <trkpt lat="36.829516" lon="-5.922931">
        <ele>119.923842</ele>
        <time>2020-08-17T07:11:45.070Z</time>
      </trkpt>
      <trkpt lat="36.829451" lon="-5.923015">
        <ele>120.773205</ele>
        <time>2020-08-17T07:11:49.062Z</time>
      </trkpt>
      <trkpt lat="36.829372" lon="-5.923099">
        <ele>121.715392</ele>
        <time>2020-08-17T07:11:53.060Z</time>
      </trkpt>
      <trkpt lat="36.829287" lon="-5.923181">
        <ele>122.690760</ele>
        <time>2020-08-17T07:11:57.064Z</time>
      </trkpt>
      <trkpt lat="36.829208" lon="-5.923267">
        <ele>123.642436</ele>
        <time>2020-08-17T07:12:01.057Z</time>
      </trkpt>
      <trkpt lat="36.829123" lon="-5.923350">
        <ele>124.622263</ele>
        <time>2020-08-17T07:12:05.053Z</time>
      </trkpt>
      <trkpt lat="36.829037" lon="-5.923418">
        <ele>125.546636</ele>
        <time>2020-08-17T07:12:09.057Z</time>
      </trkpt>
      <trkpt lat="36.828955" lon="-5.923488">
        <ele>126.448645</ele>
        <time>2020-08-17T07:12:13.053Z</time>
      </trkpt>
      <trkpt lat="36.828865" lon="-5.923551">
        <ele>127.385620</ele>
        <time>2020-08-17T07:12:17.057Z</time>
      </trkpt>
      <trkpt lat="36.828787" lon="-5.923612">
        <ele>128.221394</ele>
        <time>2020-08-17T07:12:21.043Z</time>
      </trkpt>
      <trkpt lat="36.828697" lon="-5.923704">
        <ele>129.277558</ele>
        <time>2020-08-17T07:12:26.066Z</time>
      </trkpt>
      <trkpt lat="36.828614" lon="-5.923780">
        <ele>130.212186</ele>
        <time>2020-08-17T07:12:30.059Z</time>
      </trkpt>
      <trkpt lat="36.828532" lon="-5.923848">
        <ele>131.106074</ele>
        <time>2020-08-17T07:12:34.037Z</time>
      </trkpt>
      <trkpt lat="36.828440" lon="-5.923909">
        <ele>131.966982</ele>
        <time>2020-08-17T07:12:38.071Z</time>
      </trkpt>
      <trkpt lat="36.828363" lon="-5.923981">
        <ele>132.303706</ele>
        <time>2020-08-17T07:12:42.050Z</time>
      </trkpt>
      <trkpt lat="36.828282" lon="-5.924073">
        <ele>132.686966</ele>
        <time>2020-08-17T07:12:46.055Z</time>
      </trkpt>
      <trkpt lat="36.828198" lon="-5.924161">
        <ele>133.070764</ele>
        <time>2020-08-17T07:12:50.055Z</time>
      </trkpt>
      <trkpt lat="36.828114" lon="-5.924252">
        <ele>133.460017</ele>
        <time>2020-08-17T07:12:54.064Z</time>
      </trkpt>
      <trkpt lat="36.828025" lon="-5.924331">
        <ele>133.842248</ele>
        <time>2020-08-17T07:12:58.052Z</time>
      </trkpt>
      <trkpt lat="36.827956" lon="-5.924405">
        <ele>134.160619</ele>
        <time>2020-08-17T07:13:01.062Z</time>
      </trkpt>
      <trkpt lat="36.827880" lon="-5.924466">
        <ele>134.476877</ele>
        <time>2020-08-17T07:13:04.060Z</time>
      </trkpt>
      <trkpt lat="36.827784" lon="-5.924555">
        <ele>134.895406</ele>
        <time>2020-08-17T07:13:08.058Z</time>
      </trkpt>
      <trkpt lat="36.827694" lon="-5.924651">
        <ele>135.309723</ele>
        <time>2020-08-17T07:13:12.060Z</time>
      </trkpt>
      <trkpt lat="36.827621" lon="-5.924728">
        <ele>135.644208</ele>
        <time>2020-08-17T07:13:15.044Z</time>
      </trkpt>
      <trkpt lat="36.827544" lon="-5.924804">
        <ele>135.987767</ele>
        <time>2020-08-17T07:13:18.056Z</time>
      </trkpt>
      <trkpt lat="36.827467" lon="-5.924869">
        <ele>136.313117</ele>
        <time>2020-08-17T07:13:21.054Z</time>
      </trkpt>
      <trkpt lat="36.827371" lon="-5.924956">
        <ele>136.728332</ele>
        <time>2020-08-17T07:13:25.057Z</time>
      </trkpt>
      <trkpt lat="36.827282" lon="-5.925046">
        <ele>137.129207</ele>
        <time>2020-08-17T07:13:29.057Z</time>
      </trkpt>
      <trkpt lat="36.827192" lon="-5.925133">
        <ele>137.527609</ele>
        <time>2020-08-17T07:13:33.057Z</time>
      </trkpt>
      <trkpt lat="36.827118" lon="-5.925203">
        <ele>137.852573</ele>
        <time>2020-08-17T07:13:36.057Z</time>
      </trkpt>
      <trkpt lat="36.827048" lon="-5.925281">
        <ele>138.180963</ele>
        <time>2020-08-17T07:13:39.070Z</time>
      </trkpt>
      <trkpt lat="36.826975" lon="-5.925355">
        <ele>139.722405</ele>
        <time>2020-08-17T07:13:42.061Z</time>
      </trkpt>
      <trkpt lat="36.826903" lon="-5.925427">
        <ele>141.352809</ele>
        <time>2020-08-17T07:13:45.067Z</time>
      </trkpt>
      <trkpt lat="36.826830" lon="-5.925510">
        <ele>143.097788</ele>
        <time>2020-08-17T07:13:48.052Z</time>
      </trkpt>
      <trkpt lat="36.826755" lon="-5.925605">
        <ele>144.985958</ele>
        <time>2020-08-17T07:13:51.068Z</time>
      </trkpt>
      <trkpt lat="36.826675" lon="-5.925678">
        <ele>146.737328</ele>
        <time>2020-08-17T07:13:54.036Z</time>
      </trkpt>
      <trkpt lat="36.826600" lon="-5.925744">
        <ele>148.359131</ele>
        <time>2020-08-17T07:13:57.087Z</time>
      </trkpt>
      <trkpt lat="36.826499" lon="-5.925830">
        <ele>150.519949</ele>
        <time>2020-08-17T07:14:00.075Z</time>
      </trkpt>
      <trkpt lat="36.826407" lon="-5.925911">
        <ele>152.509689</ele>
        <time>2020-08-17T07:14:03.104Z</time>
      </trkpt>
      <trkpt lat="36.826304" lon="-5.926012">
        <ele>154.824499</ele>
        <time>2020-08-17T07:14:06.076Z</time>
      </trkpt>
      <trkpt lat="36.826230" lon="-5.926082">
        <ele>156.465420</ele>
        <time>2020-08-17T07:14:08.088Z</time>
      </trkpt>
      <trkpt lat="36.826158" lon="-5.926152">
        <ele>158.078296</ele>
        <time>2020-08-17T07:14:10.087Z</time>
      </trkpt>
      <trkpt lat="36.826090" lon="-5.926236">
        <ele>159.768883</ele>
        <time>2020-08-17T07:14:12.061Z</time>
      </trkpt>
      <trkpt lat="36.825998" lon="-5.926336">
        <ele>161.924744</ele>
        <time>2020-08-17T07:14:15.078Z</time>
      </trkpt>
      <trkpt lat="36.825906" lon="-5.926416">
        <ele>163.906370</ele>
        <time>2020-08-17T07:14:18.067Z</time>
      </trkpt>
      <trkpt lat="36.825820" lon="-5.926506">
        <ele>165.889673</ele>
        <time>2020-08-17T07:14:21.073Z</time>
      </trkpt>
      <trkpt lat="36.825742" lon="-5.926597">
        <ele>167.776389</ele>
        <time>2020-08-17T07:14:24.069Z</time>
      </trkpt>
      <trkpt lat="36.825657" lon="-5.926682">
        <ele>169.701184</ele>
        <time>2020-08-17T07:14:27.087Z</time>
      </trkpt>
      <trkpt lat="36.825568" lon="-5.926762">
        <ele>169.016363</ele>
        <time>2020-08-17T07:14:30.080Z</time>
      </trkpt>
      <trkpt lat="36.825482" lon="-5.926841">
        <ele>167.869299</ele>
        <time>2020-08-17T07:14:33.045Z</time>
      </trkpt>
      <trkpt lat="36.825394" lon="-5.926920">
        <ele>166.704851</ele>
        <time>2020-08-17T07:14:36.072Z</time>
      </trkpt>
      <trkpt lat="36.825308" lon="-5.927013">
        <ele>165.482592</ele>
        <time>2020-08-17T07:14:39.066Z</time>
      </trkpt>
      <trkpt lat="36.825219" lon="-5.927104">
        <ele>164.246747</ele>
        <time>2020-08-17T07:14:42.060Z</time>
      </trkpt>
      <trkpt lat="36.825137" lon="-5.927199">
        <ele>163.045022</ele>
        <time>2020-08-17T07:14:45.063Z</time>
      </trkpt>
      <trkpt lat="36.825051" lon="-5.927296">
        <ele>161.799972</ele>
        <time>2020-08-17T07:14:48.062Z</time>
      </trkpt>
      <trkpt lat="36.824956" lon="-5.927405">
        <ele>160.413917</ele>
        <time>2020-08-17T07:14:51.066Z</time>
      </trkpt>
      <trkpt lat="36.824884" lon="-5.927485">
        <ele>159.378490</ele>
        <time>2020-08-17T07:14:53.077Z</time>
      </trkpt>
      <trkpt lat="36.824811" lon="-5.927564">
        <ele>158.340661</ele>
        <time>2020-08-17T07:14:55.077Z</time>
      </trkpt>
      <trkpt lat="36.824742" lon="-5.927645">
        <ele>157.323223</ele>
        <time>2020-08-17T07:14:57.056Z</time>
      </trkpt>
      <trkpt lat="36.824671" lon="-5.927734">
        <ele>156.242420</ele>
        <time>2020-08-17T07:14:59.058Z</time>
      </trkpt>
      <trkpt lat="36.824582" lon="-5.927814">
        <ele>155.064222</ele>
        <time>2020-08-17T07:15:01.064Z</time>
      </trkpt>
      <trkpt lat="36.824508" lon="-5.927902">
        <ele>153.966374</ele>
        <time>2020-08-17T07:15:03.071Z</time>
      </trkpt>
      <trkpt lat="36.824435" lon="-5.927984">
        <ele>152.911467</ele>
        <time>2020-08-17T07:15:05.085Z</time>
      </trkpt>
      <trkpt lat="36.824361" lon="-5.928095">
        <ele>151.668922</ele>
        <time>2020-08-17T07:15:07.061Z</time>
      </trkpt>
      <trkpt lat="36.824282" lon="-5.928190">
        <ele>150.446226</ele>
        <time>2020-08-17T07:15:09.083Z</time>
      </trkpt>
      <trkpt lat="36.824196" lon="-5.928265">
        <ele>149.055593</ele>
        <time>2020-08-17T07:15:11.073Z</time>
      </trkpt>
      <trkpt lat="36.824123" lon="-5.928337">
        <ele>147.822385</ele>
        <time>2020-08-17T07:15:13.069Z</time>
      </trkpt>
      <trkpt lat="36.824044" lon="-5.928420">
        <ele>146.453736</ele>
        <time>2020-08-17T07:15:15.051Z</time>
      </trkpt>
      <trkpt lat="36.823973" lon="-5.928512">
        <ele>145.097396</ele>
        <time>2020-08-17T07:15:17.066Z</time>
      </trkpt>
      <trkpt lat="36.823899" lon="-5.928604">
        <ele>143.713152</ele>
        <time>2020-08-17T07:15:19.064Z</time>
      </trkpt>
      <trkpt lat="36.823824" lon="-5.928672">
        <ele>142.484428</ele>
        <time>2020-08-17T07:15:21.059Z</time>
      </trkpt>
      <trkpt lat="36.823716" lon="-5.928787">
        <ele>140.602857</ele>
        <time>2020-08-17T07:15:24.078Z</time>
      </trkpt>
      <trkpt lat="36.823642" lon="-5.928881">
        <ele>139.203555</ele>
        <time>2020-08-17T07:15:26.068Z</time>
      </trkpt>
      <trkpt lat="36.823557" lon="-5.928955">
        <ele>137.829866</ele>
        <time>2020-08-17T07:15:28.062Z</time>
      </trkpt>
      <trkpt lat="36.823484" lon="-5.929047">
        <ele>136.454983</ele>
        <time>2020-08-17T07:15:30.071Z</time>
      </trkpt>
      <trkpt lat="36.823401" lon="-5.929124">
        <ele>135.084222</ele>
        <time>2020-08-17T07:15:32.064Z</time>
      </trkpt>
      <trkpt lat="36.823307" lon="-5.929199">
        <ele>133.605362</ele>
        <time>2020-08-17T07:15:34.068Z</time>
      </trkpt>
      <trkpt lat="36.823226" lon="-5.929293">
        <ele>132.139484</ele>
        <time>2020-08-17T07:15:36.065Z</time>
      </trkpt>
      <trkpt lat="36.823152" lon="-5.929385">
        <ele>130.755232</ele>
        <time>2020-08-17T07:15:38.077Z</time>
      </trkpt>
      <trkpt lat="36.823073" lon="-5.929485">
        <ele>129.264034</ele>
        <time>2020-08-17T07:15:40.062Z</time>
      </trkpt>
      <trkpt lat="36.822995" lon="-5.929567">
        <ele>127.912357</ele>
        <time>2020-08-17T07:15:42.053Z</time>
      </trkpt>
      <trkpt lat="36.822900" lon="-5.929665">
        <ele>127.635357</ele>
        <time>2020-08-17T07:15:44.070Z</time>
      </trkpt>
      <trkpt lat="36.822806" lon="-5.929763">
        <ele>129.990829</ele>
        <time>2020-08-17T07:15:46.070Z</time>
      </trkpt>
      <trkpt lat="36.822715" lon="-5.929862">
        <ele>132.312371</ele>
        <time>2020-08-17T07:15:48.074Z</time>
      </trkpt>
      <trkpt lat="36.822622" lon="-5.929958">
        <ele>134.633367</ele>
        <time>2020-08-17T07:15:50.070Z</time>
      </trkpt>
      <trkpt lat="36.822538" lon="-5.930046">
        <ele>136.742464</ele>
        <time>2020-08-17T07:15:52.058Z</time>
      </trkpt>
      <trkpt lat="36.822461" lon="-5.930142">
        <ele>138.835378</ele>
        <time>2020-08-17T07:15:54.069Z</time>
      </trkpt>
      <trkpt lat="36.822377" lon="-5.930228">
        <ele>140.924819</ele>
        <time>2020-08-17T07:15:56.056Z</time>
      </trkpt>
      <trkpt lat="36.822289" lon="-5.930320">
        <ele>143.132469</ele>
        <time>2020-08-17T07:15:58.069Z</time>
      </trkpt>
      <trkpt lat="36.822205" lon="-5.930418">
        <ele>145.343681</ele>
        <time>2020-08-17T07:16:00.074Z</time>
      </trkpt>
      <trkpt lat="36.822115" lon="-5.930515">
        <ele>147.630518</ele>
        <time>2020-08-17T07:16:02.060Z</time>
      </trkpt>
      <trkpt lat="36.822027" lon="-5.930597">
        <ele>149.742637</ele>
        <time>2020-08-17T07:16:04.059Z</time>
      </trkpt>
      <trkpt lat="36.821940" lon="-5.930691">
        <ele>151.955598</ele>
        <time>2020-08-17T07:16:06.073Z</time>
      </trkpt>
      <trkpt lat="36.821847" lon="-5.930795">
        <ele>154.356962</ele>
        <time>2020-08-17T07:16:08.057Z</time>
      </trkpt>
      <trkpt lat="36.821758" lon="-5.930898">
        <ele>156.691059</ele>
        <time>2020-08-17T07:16:10.075Z</time>
      </trkpt>
      <trkpt lat="36.821663" lon="-5.930991">
        <ele>159.013076</ele>
        <time>2020-08-17T07:16:12.058Z</time>
      </trkpt>
      <trkpt lat="36.821573" lon="-5.931096">
        <ele>161.382241</ele>
        <time>2020-08-17T07:16:14.078Z</time>
      </trkpt>
      <trkpt lat="36.821476" lon="-5.931190">
        <ele>163.568375</ele>
        <time>2020-08-17T07:16:16.061Z</time>
      </trkpt>
      <trkpt lat="36.821384" lon="-5.931297">
        <ele>165.802616</ele>
        <time>2020-08-17T07:16:18.076Z</time>
      </trkpt>
      <trkpt lat="36.821279" lon="-5.931391">
        <ele>168.098683</ele>
        <time>2020-08-17T07:16:20.068Z</time>
      </trkpt>
      <trkpt lat="36.821177" lon="-5.931493">
        <ele>170.421005</ele>
        <time>2020-08-17T07:16:22.083Z</time>
      </trkpt>
      <trkpt lat="36.821073" lon="-5.931603">
        <ele>172.843133</ele>
        <time>2020-08-17T07:16:24.075Z</time>
      </trkpt>
      <trkpt lat="36.820968" lon="-5.931726">
        <ele>175.401640</ele>
        <time>2020-08-17T07:16:26.066Z</time>
      </trkpt>
      <trkpt lat="36.820854" lon="-5.931849">
        <ele>178.079076</ele>
        <time>2020-08-17T07:16:28.057Z</time>
      </trkpt>
      <trkpt lat="36.820742" lon="-5.931968">
        <ele>180.692483</ele>
        <time>2020-08-17T07:16:30.060Z</time>
      </trkpt>
      <trkpt lat="36.820632" lon="-5.932087">
        <ele>183.278916</ele>
        <time>2020-08-17T07:16:32.068Z</time>
      </trkpt>
      <trkpt lat="36.820517" lon="-5.932219">
        <ele>186.054824</ele>
        <time>2020-08-17T07:16:34.047Z</time>
      </trkpt>
      <trkpt lat="36.820400" lon="-5.932342">
        <ele>188.772844</ele>
        <time>2020-08-17T07:16:36.080Z</time>
      </trkpt>
      <trkpt lat="36.820287" lon="-5.932458">
        <ele>191.372514</ele>
        <time>2020-08-17T07:16:38.059Z</time>
      </trkpt>
      <trkpt lat="36.820180" lon="-5.932577">
        <ele>193.146907</ele>
        <time>2020-08-17T07:16:40.056Z</time>
      </trkpt>
      <trkpt lat="36.820066" lon="-5.932696">
        <ele>191.817516</ele>
        <time>2020-08-17T07:16:42.063Z</time>
      </trkpt>
      <trkpt lat="36.819965" lon="-5.932813">
        <ele>190.584935</ele>
        <time>2020-08-17T07:16:44.064Z</time>
      </trkpt>
      <trkpt lat="36.819853" lon="-5.932927">
        <ele>189.292143</ele>
        <time>2020-08-17T07:16:46.074Z</time>
      </trkpt>
      <trkpt lat="36.819750" lon="-5.933060">
        <ele>187.966554</ele>
        <time>2020-08-17T07:16:48.062Z</time>
      </trkpt>
      <trkpt lat="36.819650" lon="-5.933180">
        <ele>186.725727</ele>
        <time>2020-08-17T07:16:50.062Z</time>
      </trkpt>
      <trkpt lat="36.819530" lon="-5.933300">
        <ele>185.350236</ele>
        <time>2020-08-17T07:16:52.071Z</time>
      </trkpt>
      <trkpt lat="36.819421" lon="-5.933416">
        <ele>184.068896</ele>
        <time>2020-08-17T07:16:54.056Z</time>
      </trkpt>
      <trkpt lat="36.819314" lon="-5.933544">
        <ele>182.743191</ele>
        <time>2020-08-17T07:16:56.069Z</time>
      </trkpt>
      <trkpt lat="36.819215" lon="-5.933676">
        <ele>181.447467</ele>
        <time>2020-08-17T07:16:58.066Z</time>
      </trkpt>
      <trkpt lat="36.819105" lon="-5.933801">
        <ele>180.116799</ele>
        <time>2020-08-17T07:17:00.061Z</time>
      </trkpt>
      <trkpt lat="36.818992" lon="-5.933936">
        <ele>178.717633</ele>
        <time>2020-08-17T07:17:02.087Z</time>
      </trkpt>
      <trkpt lat="36.818880" lon="-5.934057">
        <ele>177.392589</ele>
        <time>2020-08-17T07:17:04.077Z</time>
      </trkpt>
      <trkpt lat="36.818767" lon="-5.934180">
        <ele>178.840110</ele>
        <time>2020-08-17T07:17:06.054Z</time>
      </trkpt>
      <trkpt lat="36.818656" lon="-5.934316">
        <ele>180.530268</ele>
        <time>2020-08-17T07:17:08.035Z</time>
      </trkpt>
      <trkpt lat="36.818531" lon="-5.934447">
        <ele>182.303956</ele>
        <time>2020-08-17T07:17:10.096Z</time>
      </trkpt>
      <trkpt lat="36.818413" lon="-5.934578">
        <ele>184.020046</ele>
        <time>2020-08-17T07:17:12.071Z</time>
      </trkpt>
      <trkpt lat="36.818293" lon="-5.934695">
        <ele>185.674823</ele>
        <time>2020-08-17T07:17:14.070Z</time>
      </trkpt>
      <trkpt lat="36.818182" lon="-5.934820">
        <ele>187.299394</ele>
        <time>2020-08-17T07:17:16.078Z</time>
      </trkpt>
      <trkpt lat="36.818072" lon="-5.934945">
        <ele>188.915908</ele>
        <time>2020-08-17T07:17:18.065Z</time>
      </trkpt>
      <trkpt lat="36.817961" lon="-5.935067">
        <ele>190.523118</ele>
        <time>2020-08-17T07:17:20.079Z</time>
      </trkpt>
      <trkpt lat="36.817848" lon="-5.935181">
        <ele>192.102068</ele>
        <time>2020-08-17T07:17:22.084Z</time>
      </trkpt>
      <trkpt lat="36.817721" lon="-5.935306">
        <ele>193.859688</ele>
        <time>2020-08-17T07:17:24.063Z</time>
      </trkpt>
      <trkpt lat="36.817617" lon="-5.935438">
        <ele>195.471410</ele>
        <time>2020-08-17T07:17:26.050Z</time>
      </trkpt>
      <trkpt lat="36.817494" lon="-5.935567">
        <ele>196.788746</ele>
        <time>2020-08-17T07:17:28.076Z</time>
      </trkpt>
      <trkpt lat="36.817367" lon="-5.935714">
        <ele>196.396134</ele>
        <time>2020-08-17T07:17:30.070Z</time>
      </trkpt>
      <trkpt lat="36.817232" lon="-5.935829">
        <ele>196.025603</ele>
        <time>2020-08-17T07:17:32.048Z</time>
      </trkpt>
      <trkpt lat="36.817080" lon="-5.935952">
        <ele>195.614926</ele>
        <time>2020-08-17T07:17:34.063Z</time>
      </trkpt>
      <trkpt lat="36.817002" lon="-5.936015">
        <ele>195.404300</ele>
        <time>2020-08-17T07:17:35.060Z</time>
      </trkpt>
      <trkpt lat="36.816851" lon="-5.936130">
        <ele>195.003272</ele>
        <time>2020-08-17T07:17:37.063Z</time>
      </trkpt>
      <trkpt lat="36.816770" lon="-5.936189">
        <ele>194.790651</ele>
        <time>2020-08-17T07:17:38.047Z</time>
      </trkpt>
      <trkpt lat="36.816682" lon="-5.936230">
        <ele>194.577675</ele>
        <time>2020-08-17T07:17:39.074Z</time>
      </trkpt>
      <trkpt lat="36.816600" lon="-5.936292">
        <ele>194.360323</ele>
        <time>2020-08-17T07:17:40.080Z</time>
      </trkpt>
      <trkpt lat="36.816518" lon="-5.936351">
        <ele>194.145739</ele>
        <time>2020-08-17T07:17:41.058Z</time>
      </trkpt>
      <trkpt lat="36.816441" lon="-5.936412">
        <ele>193.938981</ele>
        <time>2020-08-17T07:17:42.065Z</time>
      </trkpt>
      <trkpt lat="36.816353" lon="-5.936470">
        <ele>193.713359</ele>
        <time>2020-08-17T07:17:43.056Z</time>
      </trkpt>
      <trkpt lat="36.816267" lon="-5.936534">
        <ele>193.486361</ele>
        <time>2020-08-17T07:17:44.063Z</time>
      </trkpt>
      <trkpt lat="36.816188" lon="-5.936599">
        <ele>193.271852</ele>
        <time>2020-08-17T07:17:45.077Z</time>
      </trkpt>
      <trkpt lat="36.816108" lon="-5.936688">
        <ele>193.028928</ele>
        <time>2020-08-17T07:17:46.062Z</time>
      </trkpt>
      <trkpt lat="36.816022" lon="-5.936752">
        <ele>192.801930</ele>
        <time>2020-08-17T07:17:47.057Z</time>
      </trkpt>
      <trkpt lat="36.815935" lon="-5.936815">
        <ele>192.577101</ele>
        <time>2020-08-17T07:17:48.057Z</time>
      </trkpt>
      <trkpt lat="36.815848" lon="-5.936867">
        <ele>192.361733</ele>
        <time>2020-08-17T07:17:49.060Z</time>
      </trkpt>
      <trkpt lat="36.815762" lon="-5.936927">
        <ele>192.141768</ele>
        <time>2020-08-17T07:17:50.068Z</time>
      </trkpt>
      <trkpt lat="36.815675" lon="-5.936975">
        <ele>191.929389</ele>
        <time>2020-08-17T07:17:51.070Z</time>
      </trkpt>
      <trkpt lat="36.815593" lon="-5.937035">
        <ele>191.717178</ele>
        <time>2020-08-17T07:17:52.083Z</time>
      </trkpt>
      <trkpt lat="36.815508" lon="-5.937092">
        <ele>191.501748</ele>
        <time>2020-08-17T07:17:53.069Z</time>
      </trkpt>
      <trkpt lat="36.815436" lon="-5.937161">
        <ele>191.299104</ele>
        <time>2020-08-17T07:17:54.075Z</time>
      </trkpt>
      <trkpt lat="36.815339" lon="-5.937202">
        <ele>191.070435</ele>
        <time>2020-08-17T07:17:55.058Z</time>
      </trkpt>
      <trkpt lat="36.815174" lon="-5.937302">
        <ele>190.660907</ele>
        <time>2020-08-17T07:17:57.085Z</time>
      </trkpt>
      <trkpt lat="36.815089" lon="-5.937344">
        <ele>190.456789</ele>
        <time>2020-08-17T07:17:58.086Z</time>
      </trkpt>
      <trkpt lat="36.815002" lon="-5.937380">
        <ele>190.252134</ele>
        <time>2020-08-17T07:17:59.056Z</time>
      </trkpt>
      <trkpt lat="36.814918" lon="-5.937426">
        <ele>190.047326</ele>
        <time>2020-08-17T07:18:00.059Z</time>
      </trkpt>
      <trkpt lat="36.814826" lon="-5.937452">
        <ele>189.836695</ele>
        <time>2020-08-17T07:18:01.059Z</time>
      </trkpt>
      <trkpt lat="36.814663" lon="-5.937508">
        <ele>189.459196</ele>
        <time>2020-08-17T07:18:03.071Z</time>
      </trkpt>
      <trkpt lat="36.814563" lon="-5.937529">
        <ele>189.232759</ele>
        <time>2020-08-17T07:18:04.068Z</time>
      </trkpt>
      <trkpt lat="36.814469" lon="-5.937557">
        <ele>189.016969</ele>
        <time>2020-08-17T07:18:05.072Z</time>
      </trkpt>
      <trkpt lat="36.814375" lon="-5.937578">
        <ele>188.803734</ele>
        <time>2020-08-17T07:18:06.060Z</time>
      </trkpt>
      <trkpt lat="36.814279" lon="-5.937603">
        <ele>188.715060</ele>
        <time>2020-08-17T07:18:07.067Z</time>
      </trkpt>
      <trkpt lat="36.814172" lon="-5.937624">
        <ele>188.645452</ele>
        <time>2020-08-17T07:18:08.074Z</time>
      </trkpt>
      <trkpt lat="36.814068" lon="-5.937632">
        <ele>188.578490</ele>
        <time>2020-08-17T07:18:09.063Z</time>
      </trkpt>
      <trkpt lat="36.813966" lon="-5.937654">
        <ele>188.511969</ele>
        <time>2020-08-17T07:18:10.073Z</time>
      </trkpt>
      <trkpt lat="36.813877" lon="-5.937702">
        <ele>188.449669</ele>
        <time>2020-08-17T07:18:11.065Z</time>
      </trkpt>
      <trkpt lat="36.813779" lon="-5.937716">
        <ele>188.386279</ele>
        <time>2020-08-17T07:18:12.060Z</time>
      </trkpt>
      <trkpt lat="36.813678" lon="-5.937734">
        <ele>188.320714</ele>
        <time>2020-08-17T07:18:13.049Z</time>
      </trkpt>
      <trkpt lat="36.813577" lon="-5.937755">
        <ele>188.254913</ele>
        <time>2020-08-17T07:18:14.070Z</time>
      </trkpt>
      <trkpt lat="36.813475" lon="-5.937768">
        <ele>188.189022</ele>
        <time>2020-08-17T07:18:15.048Z</time>
      </trkpt>
      <trkpt lat="36.813374" lon="-5.937796">
        <ele>188.122535</ele>
        <time>2020-08-17T07:18:16.063Z</time>
      </trkpt>
      <trkpt lat="36.813275" lon="-5.937831">
        <ele>188.056413</ele>
        <time>2020-08-17T07:18:17.061Z</time>
      </trkpt>
      <trkpt lat="36.813168" lon="-5.937856">
        <ele>187.986456</ele>
        <time>2020-08-17T07:18:18.065Z</time>
      </trkpt>
      <trkpt lat="36.813062" lon="-5.937878">
        <ele>187.917401</ele>
        <time>2020-08-17T07:18:19.064Z</time>
      </trkpt>
      <trkpt lat="36.812951" lon="-5.937891">
        <ele>187.845754</ele>
        <time>2020-08-17T07:18:20.080Z</time>
      </trkpt>
      <trkpt lat="36.812846" lon="-5.937909">
        <ele>187.777643</ele>
        <time>2020-08-17T07:18:21.072Z</time>
      </trkpt>
      <trkpt lat="36.812738" lon="-5.937923">
        <ele>187.707864</ele>
        <time>2020-08-17T07:18:22.052Z</time>
      </trkpt>
      <trkpt lat="36.812630" lon="-5.937938">
        <ele>187.638029</ele>
        <time>2020-08-17T07:18:23.061Z</time>
      </trkpt>
      <trkpt lat="36.812518" lon="-5.937954">
        <ele>187.444047</ele>
        <time>2020-08-17T07:18:24.064Z</time>
      </trkpt>
      <trkpt lat="36.812396" lon="-5.937945">
        <ele>187.159028</ele>
        <time>2020-08-17T07:18:25.062Z</time>
      </trkpt>
      <trkpt lat="36.812283" lon="-5.937939">
        <ele>186.895255</ele>
        <time>2020-08-17T07:18:26.058Z</time>
      </trkpt>
      <trkpt lat="36.812167" lon="-5.937924">
        <ele>186.623279</ele>
        <time>2020-08-17T07:18:27.054Z</time>
      </trkpt>
      <trkpt lat="36.812048" lon="-5.937911">
        <ele>186.344692</ele>
        <time>2020-08-17T07:18:28.065Z</time>
      </trkpt>
      <trkpt lat="36.811927" lon="-5.937883">
        <ele>186.057698</ele>
        <time>2020-08-17T07:18:29.051Z</time>
      </trkpt>
      <trkpt lat="36.811814" lon="-5.937857">
        <ele>185.789730</ele>
        <time>2020-08-17T07:18:30.068Z</time>
      </trkpt>
      <trkpt lat="36.811692" lon="-5.937833">
        <ele>185.501699</ele>
        <time>2020-08-17T07:18:31.071Z</time>
      </trkpt>
      <trkpt lat="36.811575" lon="-5.937810">
        <ele>185.225478</ele>
        <time>2020-08-17T07:18:32.056Z</time>
      </trkpt>
      <trkpt lat="36.811473" lon="-5.937829">
        <ele>184.984966</ele>
        <time>2020-08-17T07:18:33.082Z</time>
      </trkpt>
      <trkpt lat="36.811356" lon="-5.937791">
        <ele>184.703029</ele>
        <time>2020-08-17T07:18:34.071Z</time>
      </trkpt>
      <trkpt lat="36.811239" lon="-5.937756">
        <ele>184.422450</ele>
        <time>2020-08-17T07:18:35.064Z</time>
      </trkpt>
      <trkpt lat="36.811131" lon="-5.937744">
        <ele>184.169582</ele>
        <time>2020-08-17T07:18:36.056Z</time>
      </trkpt>
      <trkpt lat="36.811012" lon="-5.937719">
        <ele>183.888156</ele>
        <time>2020-08-17T07:18:37.051Z</time>
      </trkpt>
      <trkpt lat="36.810894" lon="-5.937680">
        <ele>183.603490</ele>
        <time>2020-08-17T07:18:38.073Z</time>
      </trkpt>
      <trkpt lat="36.810776" lon="-5.937634">
        <ele>183.274418</ele>
        <time>2020-08-17T07:18:39.055Z</time>
      </trkpt>
      <trkpt lat="36.810649" lon="-5.937599">
        <ele>182.849691</ele>
        <time>2020-08-17T07:18:40.084Z</time>
      </trkpt>
      <trkpt lat="36.810533" lon="-5.937568">
        <ele>182.462289</ele>
        <time>2020-08-17T07:18:41.051Z</time>
      </trkpt>
      <trkpt lat="36.810416" lon="-5.937536">
        <ele>182.071142</ele>
        <time>2020-08-17T07:18:42.057Z</time>
      </trkpt>
      <trkpt lat="36.810301" lon="-5.937493">
        <ele>181.679112</ele>
        <time>2020-08-17T07:18:43.059Z</time>
      </trkpt>
      <trkpt lat="36.810183" lon="-5.937458">
        <ele>181.283036</ele>
        <time>2020-08-17T07:18:44.055Z</time>
      </trkpt>
      <trkpt lat="36.810065" lon="-5.937418">
        <ele>180.883736</ele>
        <time>2020-08-17T07:18:45.062Z</time>
      </trkpt>
      <trkpt lat="36.809944" lon="-5.937376">
        <ele>180.473604</ele>
        <time>2020-08-17T07:18:46.080Z</time>
      </trkpt>
      <trkpt lat="36.809841" lon="-5.937373">
        <ele>180.137140</ele>
        <time>2020-08-17T07:18:47.064Z</time>
      </trkpt>
      <trkpt lat="36.809720" lon="-5.937327">
        <ele>179.724085</ele>
        <time>2020-08-17T07:18:48.061Z</time>
      </trkpt>
      <trkpt lat="36.809609" lon="-5.937288">
        <ele>179.347516</ele>
        <time>2020-08-17T07:18:49.060Z</time>
      </trkpt>
      <trkpt lat="36.809490" lon="-5.937231">
        <ele>178.931293</ele>
        <time>2020-08-17T07:18:50.061Z</time>
      </trkpt>
      <trkpt lat="36.809372" lon="-5.937213">
        <ele>178.543071</ele>
        <time>2020-08-17T07:18:51.059Z</time>
      </trkpt>
      <trkpt lat="36.809259" lon="-5.937172">
        <ele>178.158785</ele>
        <time>2020-08-17T07:18:52.069Z</time>
      </trkpt>
      <trkpt lat="36.809133" lon="-5.937115">
        <ele>177.721141</ele>
        <time>2020-08-17T07:18:53.061Z</time>
      </trkpt>
      <trkpt lat="36.809006" lon="-5.937079">
        <ele>177.499646</ele>
        <time>2020-08-17T07:18:54.056Z</time>
      </trkpt>
      <trkpt lat="36.808879" lon="-5.937020">
        <ele>177.421798</ele>
        <time>2020-08-17T07:18:55.068Z</time>
      </trkpt>
      <trkpt lat="36.808755" lon="-5.937015">
        <ele>177.350520</ele>
        <time>2020-08-17T07:18:56.068Z</time>
      </trkpt>
      <trkpt lat="36.808648" lon="-5.936991">
        <ele>177.288063</ele>
        <time>2020-08-17T07:18:57.077Z</time>
      </trkpt>
      <trkpt lat="36.808538" lon="-5.936969">
        <ele>177.224061</ele>
        <time>2020-08-17T07:18:58.064Z</time>
      </trkpt>
      <trkpt lat="36.808424" lon="-5.936940">
        <ele>177.157221</ele>
        <time>2020-08-17T07:18:59.064Z</time>
      </trkpt>
      <trkpt lat="36.808304" lon="-5.936926">
        <ele>177.087979</ele>
        <time>2020-08-17T07:19:00.061Z</time>
      </trkpt>
      <trkpt lat="36.808193" lon="-5.936912">
        <ele>177.023883</ele>
        <time>2020-08-17T07:19:01.056Z</time>
      </trkpt>
      <trkpt lat="36.808082" lon="-5.936906">
        <ele>176.960051</ele>
        <time>2020-08-17T07:19:02.051Z</time>
      </trkpt>
      <trkpt lat="36.807963" lon="-5.936885">
        <ele>176.891004</ele>
        <time>2020-08-17T07:19:03.063Z</time>
      </trkpt>
      <trkpt lat="36.807849" lon="-5.936878">
        <ele>176.825430</ele>
        <time>2020-08-17T07:19:04.069Z</time>
      </trkpt>
      <trkpt lat="36.807732" lon="-5.936857">
        <ele>176.757521</ele>
        <time>2020-08-17T07:19:05.079Z</time>
      </trkpt>
      <trkpt lat="36.807619" lon="-5.936832">
        <ele>176.691589</ele>
        <time>2020-08-17T07:19:06.069Z</time>
      </trkpt>
      <trkpt lat="36.807506" lon="-5.936818">
        <ele>176.626350</ele>
        <time>2020-08-17T07:19:07.055Z</time>
      </trkpt>
      <trkpt lat="36.807393" lon="-5.936803">
        <ele>176.561064</ele>
        <time>2020-08-17T07:19:08.068Z</time>
      </trkpt>
      <trkpt lat="36.807274" lon="-5.936782">
        <ele>176.574250</ele>
        <time>2020-08-17T07:19:09.057Z</time>
      </trkpt>
      <trkpt lat="36.807166" lon="-5.936767">
        <ele>176.800559</ele>
        <time>2020-08-17T07:19:10.054Z</time>
      </trkpt>
      <trkpt lat="36.807059" lon="-5.936736">
        <ele>177.029316</ele>
        <time>2020-08-17T07:19:11.094Z</time>
      </trkpt>
      <trkpt lat="36.806952" lon="-5.936739">
        <ele>177.252212</ele>
        <time>2020-08-17T07:19:12.070Z</time>
      </trkpt>
      <trkpt lat="36.806844" lon="-5.936733">
        <ele>177.477357</ele>
        <time>2020-08-17T07:19:13.067Z</time>
      </trkpt>
      <trkpt lat="36.806761" lon="-5.936778">
        <ele>177.665798</ele>
        <time>2020-08-17T07:19:14.066Z</time>
      </trkpt>
      <trkpt lat="36.806661" lon="-5.936783">
        <ele>177.874226</ele>
        <time>2020-08-17T07:19:15.064Z</time>
      </trkpt>
      <trkpt lat="36.806559" lon="-5.936772">
        <ele>178.087443</ele>
        <time>2020-08-17T07:19:16.062Z</time>
      </trkpt>
      <trkpt lat="36.806457" lon="-5.936766">
        <ele>178.300105</ele>
        <time>2020-08-17T07:19:17.057Z</time>
      </trkpt>
      <trkpt lat="36.806358" lon="-5.936757">
        <ele>178.506830</ele>
        <time>2020-08-17T07:19:18.066Z</time>
      </trkpt>
      <trkpt lat="36.806257" lon="-5.936750">
        <ele>178.717497</ele>
        <time>2020-08-17T07:19:19.065Z</time>
      </trkpt>
      <trkpt lat="36.806150" lon="-5.936745">
        <ele>178.940493</ele>
        <time>2020-08-17T07:19:20.071Z</time>
      </trkpt>
      <trkpt lat="36.806062" lon="-5.936776">
        <ele>179.130914</ele>
        <time>2020-08-17T07:19:21.065Z</time>
      </trkpt>
      <trkpt lat="36.805953" lon="-5.936769">
        <ele>179.358218</ele>
        <time>2020-08-17T07:19:22.056Z</time>
      </trkpt>
      <trkpt lat="36.805858" lon="-5.936780">
        <ele>179.556915</ele>
        <time>2020-08-17T07:19:23.064Z</time>
      </trkpt>
      <trkpt lat="36.805743" lon="-5.936774">
        <ele>179.796625</ele>
        <time>2020-08-17T07:19:24.069Z</time>
      </trkpt>
      <trkpt lat="36.805631" lon="-5.936761">
        <ele>180.030883</ele>
        <time>2020-08-17T07:19:25.066Z</time>
      </trkpt>
      <trkpt lat="36.805520" lon="-5.936753">
        <ele>180.240127</ele>
        <time>2020-08-17T07:19:26.055Z</time>
      </trkpt>
      <trkpt lat="36.805407" lon="-5.936741">
        <ele>179.696718</ele>
        <time>2020-08-17T07:19:27.075Z</time>
      </trkpt>
      <trkpt lat="36.805291" lon="-5.936730">
        <ele>179.139288</ele>
        <time>2020-08-17T07:19:28.060Z</time>
      </trkpt>
      <trkpt lat="36.805169" lon="-5.936709">
        <ele>178.549183</ele>
        <time>2020-08-17T07:19:29.065Z</time>
      </trkpt>
      <trkpt lat="36.805051" lon="-5.936698">
        <ele>177.982197</ele>
        <time>2020-08-17T07:19:30.074Z</time>
      </trkpt>
      <trkpt lat="36.804935" lon="-5.936685">
        <ele>177.424134</ele>
        <time>2020-08-17T07:19:31.066Z</time>
      </trkpt>
      <trkpt lat="36.804830" lon="-5.936696">
        <ele>176.919245</ele>
        <time>2020-08-17T07:19:32.058Z</time>
      </trkpt>
      <trkpt lat="36.804718" lon="-5.936685">
        <ele>176.380925</ele>
        <time>2020-08-17T07:19:33.057Z</time>
      </trkpt>
      <trkpt lat="36.804610" lon="-5.936683">
        <ele>175.863371</ele>
        <time>2020-08-17T07:19:34.055Z</time>
      </trkpt>
      <trkpt lat="36.804495" lon="-5.936675">
        <ele>175.311479</ele>
        <time>2020-08-17T07:19:35.063Z</time>
      </trkpt>
      <trkpt lat="36.804377" lon="-5.936665">
        <ele>174.744766</ele>
        <time>2020-08-17T07:19:36.068Z</time>
      </trkpt>
      <trkpt lat="36.804255" lon="-5.936651">
        <ele>174.157724</ele>
        <time>2020-08-17T07:19:37.057Z</time>
      </trkpt>
      <trkpt lat="36.804145" lon="-5.936660">
        <ele>173.629514</ele>
        <time>2020-08-17T07:19:38.056Z</time>
      </trkpt>
      <trkpt lat="36.804022" lon="-5.936649">
        <ele>173.038634</ele>
        <time>2020-08-17T07:19:39.060Z</time>
      </trkpt>
      <trkpt lat="36.803902" lon="-5.936635">
        <ele>172.461134</ele>
        <time>2020-08-17T07:19:40.061Z</time>
      </trkpt>
      <trkpt lat="36.803794" lon="-5.936623">
        <ele>171.941593</ele>
        <time>2020-08-17T07:19:41.069Z</time>
      </trkpt>
      <trkpt lat="36.803676" lon="-5.936623">
        <ele>171.134890</ele>
        <time>2020-08-17T07:19:42.074Z</time>
      </trkpt>
      <trkpt lat="36.803561" lon="-5.936606">
        <ele>170.067130</ele>
        <time>2020-08-17T07:19:43.060Z</time>
      </trkpt>
      <trkpt lat="36.803455" lon="-5.936601">
        <ele>169.089060</ele>
        <time>2020-08-17T07:19:44.066Z</time>
      </trkpt>
      <trkpt lat="36.803356" lon="-5.936606">
        <ele>168.175484</ele>
        <time>2020-08-17T07:19:45.054Z</time>
      </trkpt>
      <trkpt lat="36.803259" lon="-5.936618">
        <ele>167.276717</ele>
        <time>2020-08-17T07:19:46.056Z</time>
      </trkpt>
      <trkpt lat="36.803094" lon="-5.936661">
        <ele>165.722565</ele>
        <time>2020-08-17T07:19:48.065Z</time>
      </trkpt>
      <trkpt lat="36.802988" lon="-5.936785">
        <ele>164.383404</ele>
        <time>2020-08-17T07:19:50.050Z</time>
      </trkpt>
      <trkpt lat="36.802942" lon="-5.936977">
        <ele>162.903799</ele>
        <time>2020-08-17T07:19:52.054Z</time>
      </trkpt>
      <trkpt lat="36.802917" lon="-5.937176">
        <ele>161.416635</ele>
        <time>2020-08-17T07:19:54.066Z</time>
      </trkpt>
      <trkpt lat="36.802877" lon="-5.937349">
        <ele>160.087214</ele>
        <time>2020-08-17T07:19:56.076Z</time>
      </trkpt>
      <trkpt lat="36.802847" lon="-5.937536">
        <ele>158.679179</ele>
        <time>2020-08-17T07:19:58.063Z</time>
      </trkpt>
      <trkpt lat="36.802814" lon="-5.937700">
        <ele>157.430739</ele>
        <time>2020-08-17T07:20:00.082Z</time>
      </trkpt>
      <trkpt lat="36.802802" lon="-5.937852">
        <ele>156.303101</ele>
        <time>2020-08-17T07:20:02.069Z</time>
      </trkpt>
      <trkpt lat="36.802776" lon="-5.938018">
        <ele>155.054315</ele>
        <time>2020-08-17T07:20:04.085Z</time>
      </trkpt>
      <trkpt lat="36.802750" lon="-5.938181">
        <ele>154.691818</ele>
        <time>2020-08-17T07:20:06.077Z</time>
      </trkpt>
      <trkpt lat="36.802728" lon="-5.938321">
        <ele>154.381542</ele>
        <time>2020-08-17T07:20:08.062Z</time>
      </trkpt>
      <trkpt lat="36.802693" lon="-5.938470">
        <ele>154.043845</ele>
        <time>2020-08-17T07:20:10.052Z</time>
      </trkpt>
      <trkpt lat="36.802675" lon="-5.938620">
        <ele>153.713986</ele>
        <time>2020-08-17T07:20:12.083Z</time>
      </trkpt>
      <trkpt lat="36.802652" lon="-5.938767">
        <ele>153.388249</ele>
        <time>2020-08-17T07:20:14.059Z</time>
      </trkpt>
      <trkpt lat="36.802622" lon="-5.938923">
        <ele>153.039336</ele>
        <time>2020-08-17T07:20:16.067Z</time>
      </trkpt>
      <trkpt lat="36.802600" lon="-5.939076">
        <ele>152.701273</ele>
        <time>2020-08-17T07:20:18.079Z</time>
      </trkpt>
      <trkpt lat="36.802570" lon="-5.939208">
        <ele>152.402863</ele>
        <time>2020-08-17T07:20:20.069Z</time>
      </trkpt>
      <trkpt lat="36.802535" lon="-5.939340">
        <ele>152.100463</ele>
        <time>2020-08-17T07:20:22.063Z</time>
      </trkpt>
      <trkpt lat="36.802515" lon="-5.939481">
        <ele>151.789045</ele>
        <time>2020-08-17T07:20:24.072Z</time>
      </trkpt>
      <trkpt lat="36.802505" lon="-5.939626">
        <ele>151.472535</ele>
        <time>2020-08-17T07:20:26.065Z</time>
      </trkpt>
      <trkpt lat="36.802485" lon="-5.939758">
        <ele>151.180370</ele>
        <time>2020-08-17T07:20:28.059Z</time>
      </trkpt>
      <trkpt lat="36.802458" lon="-5.939891">
        <ele>150.881973</ele>
        <time>2020-08-17T07:20:30.072Z</time>
      </trkpt>
      <trkpt lat="36.802429" lon="-5.940015">
        <ele>150.601033</ele>
        <time>2020-08-17T07:20:32.050Z</time>
      </trkpt>
      <trkpt lat="36.802408" lon="-5.940140">
        <ele>150.323267</ele>
        <time>2020-08-17T07:20:34.047Z</time>
      </trkpt>
      <trkpt lat="36.802398" lon="-5.940252">
        <ele>150.167049</ele>
        <time>2020-08-17T07:20:36.048Z</time>
      </trkpt>
      <trkpt lat="36.802376" lon="-5.940382">
        <ele>150.165319</ele>
        <time>2020-08-17T07:20:38.065Z</time>
      </trkpt>
      <trkpt lat="36.802370" lon="-5.940513">
        <ele>150.163611</ele>
        <time>2020-08-17T07:20:40.059Z</time>
      </trkpt>
      <trkpt lat="36.802358" lon="-5.940652">
        <ele>150.161791</ele>
        <time>2020-08-17T07:20:42.064Z</time>
      </trkpt>
      <trkpt lat="36.802335" lon="-5.940792">
        <ele>150.159931</ele>
        <time>2020-08-17T07:20:44.066Z</time>
      </trkpt>
      <trkpt lat="36.802313" lon="-5.940964">
        <ele>150.157664</ele>
        <time>2020-08-17T07:20:47.065Z</time>
      </trkpt>
      <trkpt lat="36.802286" lon="-5.941105">
        <ele>150.155777</ele>
        <time>2020-08-17T07:20:49.063Z</time>
      </trkpt>
      <trkpt lat="36.802243" lon="-5.941246">
        <ele>150.153813</ele>
        <time>2020-08-17T07:20:51.064Z</time>
      </trkpt>
      <trkpt lat="36.802207" lon="-5.941378">
        <ele>150.151998</ele>
        <time>2020-08-17T07:20:53.069Z</time>
      </trkpt>
      <trkpt lat="36.802167" lon="-5.941525">
        <ele>150.149977</ele>
        <time>2020-08-17T07:20:55.069Z</time>
      </trkpt>
      <trkpt lat="36.802139" lon="-5.941651">
        <ele>150.148275</ele>
        <time>2020-08-17T07:20:57.064Z</time>
      </trkpt>
      <trkpt lat="36.802103" lon="-5.941796">
        <ele>150.146299</ele>
        <time>2020-08-17T07:20:59.082Z</time>
      </trkpt>
      <trkpt lat="36.802081" lon="-5.941937">
        <ele>150.144429</ele>
        <time>2020-08-17T07:21:01.052Z</time>
      </trkpt>
      <trkpt lat="36.802068" lon="-5.942082">
        <ele>150.142530</ele>
        <time>2020-08-17T07:21:03.083Z</time>
      </trkpt>
      <trkpt lat="36.802047" lon="-5.942231">
        <ele>150.140560</ele>
        <time>2020-08-17T07:21:05.070Z</time>
      </trkpt>
      <trkpt lat="36.801979" lon="-5.942406">
        <ele>150.186850</ele>
        <time>2020-08-17T07:21:07.070Z</time>
      </trkpt>
      <trkpt lat="36.801959" lon="-5.942569">
        <ele>150.516273</ele>
        <time>2020-08-17T07:21:09.066Z</time>
      </trkpt>
      <trkpt lat="36.801945" lon="-5.942725">
        <ele>150.829862</ele>
        <time>2020-08-17T07:21:11.058Z</time>
      </trkpt>
      <trkpt lat="36.801912" lon="-5.942914">
        <ele>151.216295</ele>
        <time>2020-08-17T07:21:13.085Z</time>
      </trkpt>
      <trkpt lat="36.801886" lon="-5.943084">
        <ele>151.562040</ele>
        <time>2020-08-17T07:21:15.073Z</time>
      </trkpt>
      <trkpt lat="36.801867" lon="-5.943267">
        <ele>151.930676</ele>
        <time>2020-08-17T07:21:17.079Z</time>
      </trkpt>
      <trkpt lat="36.801842" lon="-5.943432">
        <ele>152.266142</ele>
        <time>2020-08-17T07:21:19.060Z</time>
      </trkpt>
      <trkpt lat="36.801799" lon="-5.943605">
        <ele>152.628009</ele>
        <time>2020-08-17T07:21:21.062Z</time>
      </trkpt>
      <trkpt lat="36.801776" lon="-5.943777">
        <ele>152.976369</ele>
        <time>2020-08-17T07:21:23.066Z</time>
      </trkpt>
      <trkpt lat="36.801753" lon="-5.943946">
        <ele>153.318819</ele>
        <time>2020-08-17T07:21:25.070Z</time>
      </trkpt>
      <trkpt lat="36.801702" lon="-5.944122">
        <ele>153.692727</ele>
        <time>2020-08-17T07:21:27.074Z</time>
      </trkpt>
      <trkpt lat="36.801666" lon="-5.944300">
        <ele>154.059482</ele>
        <time>2020-08-17T07:21:29.058Z</time>
      </trkpt>
      <trkpt lat="36.801633" lon="-5.944460">
        <ele>154.389545</ele>
        <time>2020-08-17T07:21:31.061Z</time>
      </trkpt>
      <trkpt lat="36.801605" lon="-5.944615">
        <ele>154.621338</ele>
        <time>2020-08-17T07:21:33.084Z</time>
      </trkpt>
      <trkpt lat="36.801592" lon="-5.944771">
        <ele>154.604343</ele>
        <time>2020-08-17T07:21:35.059Z</time>
      </trkpt>
      <trkpt lat="36.801583" lon="-5.944926">
        <ele>154.587504</ele>
        <time>2020-08-17T07:21:37.068Z</time>
      </trkpt>
      <trkpt lat="36.801552" lon="-5.945078">
        <ele>154.570508</ele>
        <time>2020-08-17T07:21:39.071Z</time>
      </trkpt>
      <trkpt lat="36.801529" lon="-5.945229">
        <ele>154.553853</ele>
        <time>2020-08-17T07:21:41.054Z</time>
      </trkpt>
      <trkpt lat="36.801510" lon="-5.945377">
        <ele>154.537611</ele>
        <time>2020-08-17T07:21:43.035Z</time>
      </trkpt>
      <trkpt lat="36.801496" lon="-5.945524">
        <ele>154.521571</ele>
        <time>2020-08-17T07:21:45.042Z</time>
      </trkpt>
      <trkpt lat="36.801478" lon="-5.945677">
        <ele>154.504814</ele>
        <time>2020-08-17T07:21:47.080Z</time>
      </trkpt>
      <trkpt lat="36.801460" lon="-5.945801">
        <ele>154.491159</ele>
        <time>2020-08-17T07:21:49.038Z</time>
      </trkpt>
      <trkpt lat="36.801426" lon="-5.945937">
        <ele>154.475721</ele>
        <time>2020-08-17T07:21:51.074Z</time>
      </trkpt>
      <trkpt lat="36.801409" lon="-5.946082">
        <ele>154.459842</ele>
        <time>2020-08-17T07:21:53.069Z</time>
      </trkpt>
      <trkpt lat="36.801386" lon="-5.946215">
        <ele>154.445098</ele>
        <time>2020-08-17T07:21:55.048Z</time>
      </trkpt>
      <trkpt lat="36.801355" lon="-5.946365">
        <ele>154.428312</ele>
        <time>2020-08-17T07:21:57.071Z</time>
      </trkpt>
      <trkpt lat="36.801344" lon="-5.946501">
        <ele>154.413500</ele>
        <time>2020-08-17T07:21:59.034Z</time>
      </trkpt>
      <trkpt lat="36.801324" lon="-5.946637">
        <ele>154.398518</ele>
        <time>2020-08-17T07:22:01.068Z</time>
      </trkpt>
      <trkpt lat="36.801285" lon="-5.946775">
        <ele>154.382660</ele>
        <time>2020-08-17T07:22:03.070Z</time>
      </trkpt>
      <trkpt lat="36.801274" lon="-5.946912">
        <ele>155.198866</ele>
        <time>2020-08-17T07:22:05.059Z</time>
      </trkpt>
      <trkpt lat="36.801247" lon="-5.947029">
        <ele>155.936598</ele>
        <time>2020-08-17T07:22:07.038Z</time>
      </trkpt>
      <trkpt lat="36.801228" lon="-5.947150">
        <ele>156.683676</ele>
        <time>2020-08-17T07:22:09.070Z</time>
      </trkpt>
      <trkpt lat="36.801178" lon="-5.947268">
        <ele>157.492548</ele>
        <time>2020-08-17T07:22:11.059Z</time>
      </trkpt>
      <trkpt lat="36.801139" lon="-5.947384">
        <ele>158.254809</ele>
        <time>2020-08-17T07:22:13.069Z</time>
      </trkpt>
      <trkpt lat="36.801088" lon="-5.947514">
        <ele>159.131908</ele>
        <time>2020-08-17T07:22:15.060Z</time>
      </trkpt>
      <trkpt lat="36.801014" lon="-5.947632">
        <ele>160.040020</ele>
        <time>2020-08-17T07:22:17.070Z</time>
      </trkpt>
      <trkpt lat="36.800954" lon="-5.947750">
        <ele>160.886930</ele>
        <time>2020-08-17T07:22:19.063Z</time>
      </trkpt>
      <trkpt lat="36.800911" lon="-5.947859">
        <ele>161.623141</ele>
        <time>2020-08-17T07:22:21.069Z</time>
      </trkpt>
      <trkpt lat="36.800850" lon="-5.947976">
        <ele>162.469049</ele>
        <time>2020-08-17T07:22:23.080Z</time>
      </trkpt>
      <trkpt lat="36.800791" lon="-5.948083">
        <ele>163.256189</ele>
        <time>2020-08-17T07:22:25.081Z</time>
      </trkpt>
      <trkpt lat="36.800740" lon="-5.948211">
        <ele>164.122427</ele>
        <time>2020-08-17T07:22:27.095Z</time>
      </trkpt>
      <trkpt lat="36.800685" lon="-5.948321">
        <ele>164.908163</ele>
        <time>2020-08-17T07:22:29.084Z</time>
      </trkpt>
      <trkpt lat="36.800629" lon="-5.948420">
        <ele>165.642562</ele>
        <time>2020-08-17T07:22:31.073Z</time>
      </trkpt>
      <trkpt lat="36.800579" lon="-5.948532">
        <ele>166.419493</ele>
        <time>2020-08-17T07:22:33.062Z</time>
      </trkpt>
      <trkpt lat="36.800506" lon="-5.948662">
        <ele>167.381524</ele>
        <time>2020-08-17T07:22:36.077Z</time>
      </trkpt>
      <trkpt lat="36.800433" lon="-5.948771">
        <ele>167.628690</ele>
        <time>2020-08-17T07:22:38.070Z</time>
      </trkpt>
      <trkpt lat="36.800386" lon="-5.948884">
        <ele>166.508690</ele>
        <time>2020-08-17T07:22:40.066Z</time>
      </trkpt>
      <trkpt lat="36.800327" lon="-5.948979">
        <ele>165.451225</ele>
        <time>2020-08-17T07:22:42.048Z</time>
      </trkpt>
      <trkpt lat="36.800292" lon="-5.949106">
        <ele>164.269863</ele>
        <time>2020-08-17T07:22:44.066Z</time>
      </trkpt>
      <trkpt lat="36.800226" lon="-5.949219">
        <ele>163.039634</ele>
        <time>2020-08-17T07:22:46.087Z</time>
      </trkpt>
      <trkpt lat="36.800161" lon="-5.949340">
        <ele>161.758039</ele>
        <time>2020-08-17T07:22:48.060Z</time>
      </trkpt>
      <trkpt lat="36.800093" lon="-5.949444">
        <ele>160.577059</ele>
        <time>2020-08-17T07:22:50.070Z</time>
      </trkpt>
      <trkpt lat="36.800019" lon="-5.949580">
        <ele>159.130796</ele>
        <time>2020-08-17T07:22:52.051Z</time>
      </trkpt>
      <trkpt lat="36.799926" lon="-5.949718">
        <ele>157.544311</ele>
        <time>2020-08-17T07:22:54.067Z</time>
      </trkpt>
      <trkpt lat="36.799823" lon="-5.949916">
        <ele>155.467507</ele>
        <time>2020-08-17T07:22:56.056Z</time>
      </trkpt>
      <trkpt lat="36.799766" lon="-5.950022">
        <ele>154.344430</ele>
        <time>2020-08-17T07:22:57.065Z</time>
      </trkpt>
      <trkpt lat="36.799714" lon="-5.950125">
        <ele>153.273432</ele>
        <time>2020-08-17T07:22:58.039Z</time>
      </trkpt>
      <trkpt lat="36.799671" lon="-5.950235">
        <ele>152.196760</ele>
        <time>2020-08-17T07:22:59.050Z</time>
      </trkpt>
      <trkpt lat="36.799610" lon="-5.950342">
        <ele>151.041451</ele>
        <time>2020-08-17T07:23:00.076Z</time>
      </trkpt>
      <trkpt lat="36.799539" lon="-5.950429">
        <ele>149.948824</ele>
        <time>2020-08-17T07:23:01.081Z</time>
      </trkpt>
      <trkpt lat="36.799481" lon="-5.950536">
        <ele>148.812309</ele>
        <time>2020-08-17T07:23:02.071Z</time>
      </trkpt>
      <trkpt lat="36.799412" lon="-5.950651">
        <ele>148.069908</ele>
        <time>2020-08-17T07:23:03.067Z</time>
      </trkpt>
      <trkpt lat="36.799333" lon="-5.950775">
        <ele>147.735199</ele>
        <time>2020-08-17T07:23:04.077Z</time>
      </trkpt>
      <trkpt lat="36.799259" lon="-5.950889">
        <ele>147.425217</ele>
        <time>2020-08-17T07:23:05.062Z</time>
      </trkpt>
      <trkpt lat="36.799184" lon="-5.951009">
        <ele>147.103675</ele>
        <time>2020-08-17T07:23:06.087Z</time>
      </trkpt>
      <trkpt lat="36.799109" lon="-5.951145">
        <ele>146.754870</ele>
        <time>2020-08-17T07:23:07.074Z</time>
      </trkpt>
      <trkpt lat="36.799033" lon="-5.951260">
        <ele>146.439913</ele>
        <time>2020-08-17T07:23:08.062Z</time>
      </trkpt>
      <trkpt lat="36.798971" lon="-5.951370">
        <ele>146.155774</ele>
        <time>2020-08-17T07:23:09.074Z</time>
      </trkpt>
      <trkpt lat="36.798904" lon="-5.951488">
        <ele>145.850223</ele>
        <time>2020-08-17T07:23:10.071Z</time>
      </trkpt>
      <trkpt lat="36.798840" lon="-5.951617">
        <ele>145.529678</ele>
        <time>2020-08-17T07:23:11.082Z</time>
      </trkpt>
      <trkpt lat="36.798771" lon="-5.951745">
        <ele>145.203748</ele>
        <time>2020-08-17T07:23:12.057Z</time>
      </trkpt>
      <trkpt lat="36.798696" lon="-5.951872">
        <ele>144.870424</ele>
        <time>2020-08-17T07:23:13.073Z</time>
      </trkpt>
      <trkpt lat="36.798625" lon="-5.951982">
        <ele>144.571987</ele>
        <time>2020-08-17T07:23:14.056Z</time>
      </trkpt>
      <trkpt lat="36.798560" lon="-5.952098">
        <ele>144.272927</ele>
        <time>2020-08-17T07:23:15.073Z</time>
      </trkpt>
      <trkpt lat="36.798508" lon="-5.952219">
        <ele>143.982858</ele>
        <time>2020-08-17T07:23:16.060Z</time>
      </trkpt>
      <trkpt lat="36.798452" lon="-5.952336">
        <ele>143.694936</ele>
        <time>2020-08-17T07:23:17.075Z</time>
      </trkpt>
      <trkpt lat="36.798400" lon="-5.952446">
        <ele>143.643715</ele>
        <time>2020-08-17T07:23:18.075Z</time>
      </trkpt>
      <trkpt lat="36.798349" lon="-5.952550">
        <ele>144.252456</ele>
        <time>2020-08-17T07:23:19.057Z</time>
      </trkpt>
      <trkpt lat="36.798298" lon="-5.952658">
        <ele>144.878311</ele>
        <time>2020-08-17T07:23:20.069Z</time>
      </trkpt>
      <trkpt lat="36.798229" lon="-5.952856">
        <ele>145.956191</ele>
        <time>2020-08-17T07:23:22.074Z</time>
      </trkpt>
      <trkpt lat="36.798154" lon="-5.953043">
        <ele>147.000164</ele>
        <time>2020-08-17T07:23:24.073Z</time>
      </trkpt>
      <trkpt lat="36.798098" lon="-5.953217">
        <ele>147.936235</ele>
        <time>2020-08-17T07:23:26.075Z</time>
      </trkpt>
      <trkpt lat="36.798059" lon="-5.953378">
        <ele>148.775856</ele>
        <time>2020-08-17T07:23:28.060Z</time>
      </trkpt>
      <trkpt lat="36.798011" lon="-5.953523">
        <ele>149.559053</ele>
        <time>2020-08-17T07:23:30.065Z</time>
      </trkpt>
      <trkpt lat="36.797977" lon="-5.953665">
        <ele>150.298875</ele>
        <time>2020-08-17T07:23:32.076Z</time>
      </trkpt>
      <trkpt lat="36.797950" lon="-5.953811">
        <ele>151.046838</ele>
        <time>2020-08-17T07:23:34.061Z</time>
      </trkpt>
      <trkpt lat="36.797930" lon="-5.953973">
        <ele>151.865038</ele>
        <time>2020-08-17T07:23:36.082Z</time>
      </trkpt>
      <trkpt lat="36.797903" lon="-5.954123">
        <ele>152.632468</ele>
        <time>2020-08-17T07:23:39.072Z</time>
      </trkpt>
      <trkpt lat="36.797871" lon="-5.954244">
        <ele>153.268546</ele>
        <time>2020-08-17T07:23:41.059Z</time>
      </trkpt>
      <trkpt lat="36.797852" lon="-5.954368">
        <ele>153.898740</ele>
        <time>2020-08-17T07:23:43.066Z</time>
      </trkpt>
      <trkpt lat="36.797833" lon="-5.954487">
        <ele>154.504439</ele>
        <time>2020-08-17T07:23:45.066Z</time>
      </trkpt>
      <trkpt lat="36.797828" lon="-5.954626">
        <ele>153.957654</ele>
        <time>2020-08-17T07:23:47.081Z</time>
      </trkpt>
      <trkpt lat="36.797812" lon="-5.954772">
        <ele>152.854873</ele>
        <time>2020-08-17T07:23:50.044Z</time>
      </trkpt>
      <trkpt lat="36.797790" lon="-5.954902">
        <ele>151.860524</ele>
        <time>2020-08-17T07:23:52.060Z</time>
      </trkpt>
      <trkpt lat="36.797771" lon="-5.955035">
        <ele>150.849498</ele>
        <time>2020-08-17T07:23:54.066Z</time>
      </trkpt>
      <trkpt lat="36.797742" lon="-5.955198">
        <ele>149.599935</ele>
        <time>2020-08-17T07:23:56.063Z</time>
      </trkpt>
      <trkpt lat="36.797735" lon="-5.955345">
        <ele>148.497911</ele>
        <time>2020-08-17T07:23:58.060Z</time>
      </trkpt>
      <trkpt lat="36.797703" lon="-5.955492">
        <ele>147.357904</ele>
        <time>2020-08-17T07:24:00.091Z</time>
      </trkpt>
      <trkpt lat="36.797684" lon="-5.955638">
        <ele>146.250971</ele>
        <time>2020-08-17T07:24:02.049Z</time>
      </trkpt>
      <trkpt lat="36.797637" lon="-5.955799">
        <ele>144.968550</ele>
        <time>2020-08-17T07:24:04.060Z</time>
      </trkpt>
      <trkpt lat="36.797598" lon="-5.955935">
        <ele>143.887492</ele>
        <time>2020-08-17T07:24:06.066Z</time>
      </trkpt>
      <trkpt lat="36.797596" lon="-5.956099">
        <ele>142.660046</ele>
        <time>2020-08-17T07:24:08.074Z</time>
      </trkpt>
      <trkpt lat="36.797586" lon="-5.956269">
        <ele>141.384413</ele>
        <time>2020-08-17T07:24:10.071Z</time>
      </trkpt>
      <trkpt lat="36.797543" lon="-5.956414">
        <ele>140.227274</ele>
        <time>2020-08-17T07:24:12.049Z</time>
      </trkpt>
      <trkpt lat="36.797522" lon="-5.956569">
        <ele>139.050836</ele>
        <time>2020-08-17T07:24:14.080Z</time>
      </trkpt>
      <trkpt lat="36.797487" lon="-5.956733">
        <ele>137.940553</ele>
        <time>2020-08-17T07:24:16.070Z</time>
      </trkpt>
      <trkpt lat="36.797475" lon="-5.956902">
        <ele>138.480193</ele>
        <time>2020-08-17T07:24:18.066Z</time>
      </trkpt>
      <trkpt lat="36.797444" lon="-5.957070">
        <ele>139.028547</ele>
        <time>2020-08-17T07:24:20.070Z</time>
      </trkpt>
      <trkpt lat="36.797408" lon="-5.957209">
        <ele>139.493208</ele>
        <time>2020-08-17T07:24:22.070Z</time>
      </trkpt>
      <trkpt lat="36.797375" lon="-5.957363">
        <ele>140.000265</ele>
        <time>2020-08-17T07:24:24.067Z</time>
      </trkpt>
      <trkpt lat="36.797341" lon="-5.957525">
        <ele>140.532936</ele>
        <time>2020-08-17T07:24:26.084Z</time>
      </trkpt>
      <trkpt lat="36.797319" lon="-5.957660">
        <ele>140.971127</ele>
        <time>2020-08-17T07:24:28.064Z</time>
      </trkpt>
      <trkpt lat="36.797303" lon="-5.957780">
        <ele>141.358061</ele>
        <time>2020-08-17T07:24:30.065Z</time>
      </trkpt>
      <trkpt lat="36.797276" lon="-5.957899">
        <ele>141.751461</ele>
        <time>2020-08-17T07:24:32.063Z</time>
      </trkpt>
      <trkpt lat="36.797258" lon="-5.958026">
        <ele>142.161684</ele>
        <time>2020-08-17T07:24:34.063Z</time>
      </trkpt>
      <trkpt lat="36.797228" lon="-5.958145">
        <ele>142.558497</ele>
        <time>2020-08-17T07:24:36.052Z</time>
      </trkpt>
      <trkpt lat="36.797209" lon="-5.958263">
        <ele>142.941329</ele>
        <time>2020-08-17T07:24:38.054Z</time>
      </trkpt>
      <trkpt lat="36.797187" lon="-5.958378">
        <ele>143.317399</ele>
        <time>2020-08-17T07:24:40.064Z</time>
      </trkpt>
      <trkpt lat="36.797175" lon="-5.958491">
        <ele>143.679961</ele>
        <time>2020-08-17T07:24:42.066Z</time>
      </trkpt>
      <trkpt lat="36.797157" lon="-5.958616">
        <ele>144.083922</ele>
        <time>2020-08-17T07:24:44.058Z</time>
      </trkpt>
      <trkpt lat="36.797134" lon="-5.958736">
        <ele>144.476384</ele>
        <time>2020-08-17T07:24:46.065Z</time>
      </trkpt>
      <trkpt lat="36.797102" lon="-5.958851">
        <ele>144.863616</ele>
        <time>2020-08-17T07:24:48.054Z</time>
      </trkpt>
      <trkpt lat="36.797079" lon="-5.958979">
        <ele>145.089572</ele>
        <time>2020-08-17T07:24:50.068Z</time>
      </trkpt>
      <trkpt lat="36.797067" lon="-5.959102">
        <ele>145.174297</ele>
        <time>2020-08-17T07:24:52.063Z</time>
      </trkpt>
      <trkpt lat="36.797047" lon="-5.959235">
        <ele>145.266827</ele>
        <time>2020-08-17T07:24:54.065Z</time>
      </trkpt>
      <trkpt lat="36.797005" lon="-5.959355">
        <ele>145.356375</ele>
        <time>2020-08-17T07:24:56.069Z</time>
      </trkpt>
      <trkpt lat="36.796970" lon="-5.959509">
        <ele>145.465834</ele>
        <time>2020-08-17T07:24:58.055Z</time>
      </trkpt>
      <trkpt lat="36.796943" lon="-5.959629">
        <ele>145.551063</ele>
        <time>2020-08-17T07:25:00.061Z</time>
      </trkpt>
      <trkpt lat="36.796919" lon="-5.959759">
        <ele>145.642284</ele>
        <time>2020-08-17T07:25:02.066Z</time>
      </trkpt>
      <trkpt lat="36.796900" lon="-5.959905">
        <ele>145.743424</ele>
        <time>2020-08-17T07:25:04.064Z</time>
      </trkpt>
      <trkpt lat="36.796866" lon="-5.960023">
        <ele>145.829173</ele>
        <time>2020-08-17T07:25:06.060Z</time>
      </trkpt>
      <trkpt lat="36.796819" lon="-5.960145">
        <ele>145.921744</ele>
        <time>2020-08-17T07:25:08.054Z</time>
      </trkpt>
      <trkpt lat="36.796774" lon="-5.960271">
        <ele>146.016079</ele>
        <time>2020-08-17T07:25:10.065Z</time>
      </trkpt>
      <trkpt lat="36.796738" lon="-5.960402">
        <ele>146.110781</ele>
        <time>2020-08-17T07:25:12.044Z</time>
      </trkpt>
      <trkpt lat="36.796691" lon="-5.960534">
        <ele>146.209559</ele>
        <time>2020-08-17T07:25:14.054Z</time>
      </trkpt>
      <trkpt lat="36.796670" lon="-5.960670">
        <ele>146.304264</ele>
        <time>2020-08-17T07:25:16.060Z</time>
      </trkpt>
      <trkpt lat="36.796649" lon="-5.960844">
        <ele>146.424584</ele>
        <time>2020-08-17T07:25:19.060Z</time>
      </trkpt>
      <trkpt lat="36.796604" lon="-5.960974">
        <ele>146.521424</ele>
        <time>2020-08-17T07:25:21.047Z</time>
      </trkpt>
      <trkpt lat="36.796564" lon="-5.961096">
        <ele>146.456951</ele>
        <time>2020-08-17T07:25:23.064Z</time>
      </trkpt>
      <trkpt lat="36.796543" lon="-5.961229">
        <ele>146.177677</ele>
        <time>2020-08-17T07:25:25.062Z</time>
      </trkpt>
      <trkpt lat="36.796513" lon="-5.961371">
        <ele>145.875128</ele>
        <time>2020-08-17T07:25:27.033Z</time>
      </trkpt>
      <trkpt lat="36.796465" lon="-5.961514">
        <ele>145.555693</ele>
        <time>2020-08-17T07:25:29.063Z</time>
      </trkpt>
      <trkpt lat="36.796433" lon="-5.961651">
        <ele>145.261693</ele>
        <time>2020-08-17T07:25:31.046Z</time>
      </trkpt>
      <trkpt lat="36.796405" lon="-5.961823">
        <ele>144.900101</ele>
        <time>2020-08-17T07:25:33.069Z</time>
      </trkpt>
      <trkpt lat="36.796401" lon="-5.961997">
        <ele>144.541489</ele>
        <time>2020-08-17T07:25:35.069Z</time>
      </trkpt>
      <trkpt lat="36.796374" lon="-5.962142">
        <ele>144.234799</ele>
        <time>2020-08-17T07:25:37.050Z</time>
      </trkpt>
      <trkpt lat="36.796357" lon="-5.962293">
        <ele>143.920658</ele>
        <time>2020-08-17T07:25:39.056Z</time>
      </trkpt>
      <trkpt lat="36.796355" lon="-5.962448">
        <ele>143.601295</ele>
        <time>2020-08-17T07:25:41.068Z</time>
      </trkpt>
      <trkpt lat="36.796338" lon="-5.962605">
        <ele>143.274910</ele>
        <time>2020-08-17T07:25:43.068Z</time>
      </trkpt>
      <trkpt lat="36.796332" lon="-5.962732">
        <ele>143.012817</ele>
        <time>2020-08-17T07:25:45.067Z</time>
      </trkpt>
      <trkpt lat="36.796343" lon="-5.962916">
        <ele>142.632696</ele>
        <time>2020-08-17T07:25:48.055Z</time>
      </trkpt>
      <trkpt lat="36.796358" lon="-5.963041">
        <ele>142.372303</ele>
        <time>2020-08-17T07:25:50.063Z</time>
      </trkpt>
      <trkpt lat="36.796365" lon="-5.963176">
        <ele>142.093602</ele>
        <time>2020-08-17T07:25:52.059Z</time>
      </trkpt>
      <trkpt lat="36.796369" lon="-5.963299">
        <ele>141.989635</ele>
        <time>2020-08-17T07:25:54.062Z</time>
      </trkpt>
      <trkpt lat="36.796371" lon="-5.963414">
        <ele>142.088238</ele>
        <time>2020-08-17T07:25:56.064Z</time>
      </trkpt>
      <trkpt lat="36.796383" lon="-5.963570">
        <ele>142.222580</ele>
        <time>2020-08-17T07:25:59.081Z</time>
      </trkpt>
      <trkpt lat="36.796397" lon="-5.963685">
        <ele>142.322292</ele>
        <time>2020-08-17T07:26:01.058Z</time>
      </trkpt>
      <trkpt lat="36.796418" lon="-5.963845">
        <ele>142.461277</ele>
        <time>2020-08-17T07:26:04.060Z</time>
      </trkpt>
      <trkpt lat="36.796427" lon="-5.964007">
        <ele>142.600480</ele>
        <time>2020-08-17T07:26:07.079Z</time>
      </trkpt>
      <trkpt lat="36.796425" lon="-5.964122">
        <ele>142.699083</ele>
        <time>2020-08-17T07:26:09.077Z</time>
      </trkpt>
      <trkpt lat="36.796440" lon="-5.964287">
        <ele>142.841433</ele>
        <time>2020-08-17T07:26:12.059Z</time>
      </trkpt>
      <trkpt lat="36.796439" lon="-5.964439">
        <ele>142.971734</ele>
        <time>2020-08-17T07:26:15.061Z</time>
      </trkpt>
      <trkpt lat="36.796438" lon="-5.964607">
        <ele>143.115750</ele>
        <time>2020-08-17T07:26:18.069Z</time>
      </trkpt>
      <trkpt lat="36.796432" lon="-5.964719">
        <ele>143.211973</ele>
        <time>2020-08-17T07:26:20.058Z</time>
      </trkpt>
      <trkpt lat="36.796442" lon="-5.964887">
        <ele>143.356383</ele>
        <time>2020-08-17T07:26:23.066Z</time>
      </trkpt>
      <trkpt lat="36.796435" lon="-5.965044">
        <ele>143.491174</ele>
        <time>2020-08-17T07:26:26.060Z</time>
      </trkpt>
      <trkpt lat="36.796426" lon="-5.965183">
        <ele>143.610716</ele>
        <time>2020-08-17T07:26:28.077Z</time>
      </trkpt>
      <trkpt lat="36.796432" lon="-5.965309">
        <ele>143.718916</ele>
        <time>2020-08-17T07:26:30.049Z</time>
      </trkpt>
      <trkpt lat="36.796444" lon="-5.965439">
        <ele>143.831093</ele>
        <time>2020-08-17T07:26:32.091Z</time>
      </trkpt>
      <trkpt lat="36.796441" lon="-5.965575">
        <ele>143.853689</ele>
        <time>2020-08-17T07:26:34.035Z</time>
      </trkpt>
      <trkpt lat="36.796412" lon="-5.965730">
        <ele>143.822684</ele>
        <time>2020-08-17T07:26:37.063Z</time>
      </trkpt>
      <trkpt lat="36.796407" lon="-5.965854">
        <ele>143.798500</ele>
        <time>2020-08-17T07:26:39.079Z</time>
      </trkpt>
      <trkpt lat="36.796401" lon="-5.965998">
        <ele>143.770412</ele>
        <time>2020-08-17T07:26:41.079Z</time>
      </trkpt>
      <trkpt lat="36.796400" lon="-5.966131">
        <ele>143.744504</ele>
        <time>2020-08-17T07:26:43.067Z</time>
      </trkpt>
      <trkpt lat="36.796403" lon="-5.966265">
        <ele>143.718392</ele>
        <time>2020-08-17T07:26:45.069Z</time>
      </trkpt>
      <trkpt lat="36.796401" lon="-5.966391">
        <ele>143.693844</ele>
        <time>2020-08-17T07:26:47.090Z</time>
      </trkpt>
      <trkpt lat="36.796410" lon="-5.966524">
        <ele>143.667845</ele>
        <time>2020-08-17T07:26:49.076Z</time>
      </trkpt>
      <trkpt lat="36.796402" lon="-5.966679">
        <ele>143.637590</ele>
        <time>2020-08-17T07:26:51.051Z</time>
      </trkpt>
      <trkpt lat="36.796421" lon="-5.966798">
        <ele>143.613954</ele>
        <time>2020-08-17T07:26:53.080Z</time>
      </trkpt>
      <trkpt lat="36.796451" lon="-5.966951">
        <ele>143.583271</ele>
        <time>2020-08-17T07:26:56.075Z</time>
      </trkpt>
      <trkpt lat="36.796367" lon="-5.966890">
        <ele>143.559634</ele>
        <time>2020-08-17T07:27:05.059Z</time>
      </trkpt>
      <trkpt lat="36.796307" lon="-5.966800">
        <ele>143.536823</ele>
        <time>2020-08-17T07:27:08.061Z</time>
      </trkpt>
      <trkpt lat="36.796203" lon="-5.966740">
        <ele>143.508956</ele>
        <time>2020-08-17T07:27:11.062Z</time>
      </trkpt>
      <trkpt lat="36.796095" lon="-5.966805">
        <ele>143.479793</ele>
        <time>2020-08-17T07:27:13.058Z</time>
      </trkpt>
      <trkpt lat="36.795987" lon="-5.966889">
        <ele>143.448843</ele>
        <time>2020-08-17T07:27:16.061Z</time>
      </trkpt>
      <trkpt lat="36.795908" lon="-5.966954">
        <ele>143.324997</ele>
        <time>2020-08-17T07:27:18.067Z</time>
      </trkpt>
      <trkpt lat="36.795820" lon="-5.967033">
        <ele>142.955500</ele>
        <time>2020-08-17T07:27:20.055Z</time>
      </trkpt>
      <trkpt lat="36.795736" lon="-5.967114">
        <ele>142.593676</ele>
        <time>2020-08-17T07:27:22.070Z</time>
      </trkpt>
      <trkpt lat="36.795657" lon="-5.967193">
        <ele>142.248628</ele>
        <time>2020-08-17T07:27:24.081Z</time>
      </trkpt>
      <trkpt lat="36.795580" lon="-5.967267">
        <ele>141.917373</ele>
        <time>2020-08-17T07:27:26.047Z</time>
      </trkpt>
      <trkpt lat="36.795495" lon="-5.967374">
        <ele>141.505895</ele>
        <time>2020-08-17T07:27:29.054Z</time>
      </trkpt>
      <trkpt lat="36.795411" lon="-5.967448">
        <ele>141.155425</ele>
        <time>2020-08-17T07:27:32.058Z</time>
      </trkpt>
      <trkpt lat="36.795337" lon="-5.967528">
        <ele>140.821730</ele>
        <time>2020-08-17T07:27:35.071Z</time>
      </trkpt>
      <trkpt lat="36.795252" lon="-5.967612">
        <ele>140.452175</ele>
        <time>2020-08-17T07:27:38.072Z</time>
      </trkpt>
      <trkpt lat="36.795162" lon="-5.967701">
        <ele>140.060782</ele>
        <time>2020-08-17T07:27:41.054Z</time>
      </trkpt>
      <trkpt lat="36.795073" lon="-5.967789">
        <ele>139.673756</ele>
        <time>2020-08-17T07:27:44.057Z</time>
      </trkpt>
      <trkpt lat="36.794985" lon="-5.967883">
        <ele>139.278951</ele>
        <time>2020-08-17T07:27:47.045Z</time>
      </trkpt>
      <trkpt lat="36.794891" lon="-5.967970">
        <ele>138.880052</ele>
        <time>2020-08-17T07:27:50.061Z</time>
      </trkpt>
      <trkpt lat="36.794798" lon="-5.968049">
        <ele>138.496583</ele>
        <time>2020-08-17T07:27:53.067Z</time>
      </trkpt>
      <trkpt lat="36.794706" lon="-5.968118">
        <ele>138.130705</ele>
        <time>2020-08-17T07:27:56.077Z</time>
      </trkpt>
      <trkpt lat="36.794612" lon="-5.968181">
        <ele>137.766991</ele>
        <time>2020-08-17T07:27:59.075Z</time>
      </trkpt>
      <trkpt lat="36.794514" lon="-5.968231">
        <ele>137.406068</ele>
        <time>2020-08-17T07:28:02.058Z</time>
      </trkpt>
      <trkpt lat="36.794420" lon="-5.968297">
        <ele>137.241353</ele>
        <time>2020-08-17T07:28:05.069Z</time>
      </trkpt>
      <trkpt lat="36.794322" lon="-5.968372">
        <ele>137.151828</ele>
        <time>2020-08-17T07:28:08.081Z</time>
      </trkpt>
      <trkpt lat="36.794221" lon="-5.968442">
        <ele>137.061857</ele>
        <time>2020-08-17T07:28:11.054Z</time>
      </trkpt>
      <trkpt lat="36.794126" lon="-5.968528">
        <ele>136.970465</ele>
        <time>2020-08-17T07:28:14.061Z</time>
      </trkpt>
      <trkpt lat="36.794029" lon="-5.968612">
        <ele>136.878525</ele>
        <time>2020-08-17T07:28:17.084Z</time>
      </trkpt>
      <trkpt lat="36.793930" lon="-5.968687">
        <ele>136.788335</ele>
        <time>2020-08-17T07:28:20.069Z</time>
      </trkpt>
      <trkpt lat="36.793833" lon="-5.968761">
        <ele>136.699800</ele>
        <time>2020-08-17T07:28:23.075Z</time>
      </trkpt>
      <trkpt lat="36.793736" lon="-5.968832">
        <ele>136.612226</ele>
        <time>2020-08-17T07:28:26.074Z</time>
      </trkpt>
      <trkpt lat="36.793638" lon="-5.968898">
        <ele>136.525502</ele>
        <time>2020-08-17T07:28:29.090Z</time>
      </trkpt>
      <trkpt lat="36.793543" lon="-5.968980">
        <ele>136.435552</ele>
        <time>2020-08-17T07:28:32.078Z</time>
      </trkpt>
      <trkpt lat="36.793445" lon="-5.969069">
        <ele>136.341170</ele>
        <time>2020-08-17T07:28:35.074Z</time>
      </trkpt>
      <trkpt lat="36.793345" lon="-5.969155">
        <ele>136.246597</ele>
        <time>2020-08-17T07:28:38.063Z</time>
      </trkpt>
      <trkpt lat="36.793253" lon="-5.969258">
        <ele>136.150357</ele>
        <time>2020-08-17T07:28:41.076Z</time>
      </trkpt>
      <trkpt lat="36.793159" lon="-5.969368">
        <ele>136.050019</ele>
        <time>2020-08-17T07:28:44.065Z</time>
      </trkpt>
      <trkpt lat="36.793066" lon="-5.969459">
        <ele>135.957993</ele>
        <time>2020-08-17T07:28:47.074Z</time>
      </trkpt>
      <trkpt lat="36.792971" lon="-5.969575">
        <ele>135.711085</ele>
        <time>2020-08-17T07:28:50.072Z</time>
      </trkpt>
      <trkpt lat="36.792896" lon="-5.969649">
        <ele>135.404544</ele>
        <time>2020-08-17T07:28:52.065Z</time>
      </trkpt>
      <trkpt lat="36.792833" lon="-5.969742">
        <ele>135.091712</ele>
        <time>2020-08-17T07:28:54.067Z</time>
      </trkpt>
      <trkpt lat="36.792770" lon="-5.969836">
        <ele>134.776915</ele>
        <time>2020-08-17T07:28:56.069Z</time>
      </trkpt>
      <trkpt lat="36.792705" lon="-5.969927">
        <ele>134.463755</ele>
        <time>2020-08-17T07:28:58.053Z</time>
      </trkpt>
      <trkpt lat="36.792623" lon="-5.970061">
        <ele>134.030647</ele>
        <time>2020-08-17T07:29:01.082Z</time>
      </trkpt>
      <trkpt lat="36.792540" lon="-5.970158">
        <ele>133.666082</ele>
        <time>2020-08-17T07:29:04.056Z</time>
      </trkpt>
      <trkpt lat="36.792452" lon="-5.970253">
        <ele>133.293029</ele>
        <time>2020-08-17T07:29:07.063Z</time>
      </trkpt>
      <trkpt lat="36.792379" lon="-5.970344">
        <ele>132.962236</ele>
        <time>2020-08-17T07:29:10.057Z</time>
      </trkpt>
      <trkpt lat="36.792289" lon="-5.970443">
        <ele>132.577595</ele>
        <time>2020-08-17T07:29:14.066Z</time>
      </trkpt>
      <trkpt lat="36.792216" lon="-5.970525">
        <ele>132.262706</ele>
        <time>2020-08-17T07:29:17.082Z</time>
      </trkpt>
      <trkpt lat="36.792140" lon="-5.970607">
        <ele>131.940599</ele>
        <time>2020-08-17T07:29:20.050Z</time>
      </trkpt>
      <trkpt lat="36.792063" lon="-5.970681">
        <ele>131.628999</ele>
        <time>2020-08-17T07:29:23.066Z</time>
      </trkpt>
      <trkpt lat="36.791987" lon="-5.970763">
        <ele>131.306892</ele>
        <time>2020-08-17T07:29:26.055Z</time>
      </trkpt>
      <trkpt lat="36.791896" lon="-5.970843">
        <ele>130.949990</ele>
        <time>2020-08-17T07:29:29.053Z</time>
      </trkpt>
      <trkpt lat="36.791808" lon="-5.970915">
        <ele>130.612594</ele>
        <time>2020-08-17T07:29:32.053Z</time>
      </trkpt>
      <trkpt lat="36.791705" lon="-5.970990">
        <ele>130.230220</ele>
        <time>2020-08-17T07:29:35.045Z</time>
      </trkpt>
      <trkpt lat="36.791602" lon="-5.971059">
        <ele>130.030338</ele>
        <time>2020-08-17T07:29:38.043Z</time>
      </trkpt>
      <trkpt lat="36.791505" lon="-5.971133">
        <ele>129.896103</ele>
        <time>2020-08-17T07:29:41.038Z</time>
      </trkpt>
      <trkpt lat="36.791407" lon="-5.971210">
        <ele>129.759369</ele>
        <time>2020-08-17T07:29:44.072Z</time>
      </trkpt>
      <trkpt lat="36.791311" lon="-5.971285">
        <ele>129.625641</ele>
        <time>2020-08-17T07:29:47.043Z</time>
      </trkpt>
      <trkpt lat="36.791215" lon="-5.971374">
        <ele>129.484444</ele>
        <time>2020-08-17T07:29:50.065Z</time>
      </trkpt>
      <trkpt lat="36.791111" lon="-5.971473">
        <ele>129.330012</ele>
        <time>2020-08-17T07:29:53.076Z</time>
      </trkpt>
      <trkpt lat="36.791006" lon="-5.971571">
        <ele>129.175207</ele>
        <time>2020-08-17T07:29:56.066Z</time>
      </trkpt>
      <trkpt lat="36.790934" lon="-5.971644">
        <ele>129.065683</ele>
        <time>2020-08-17T07:29:58.078Z</time>
      </trkpt>
      <trkpt lat="36.790861" lon="-5.971712">
        <ele>128.958132</ele>
        <time>2020-08-17T07:30:00.068Z</time>
      </trkpt>
      <trkpt lat="36.790755" lon="-5.971815">
        <ele>128.799519</ele>
        <time>2020-08-17T07:30:03.069Z</time>
      </trkpt>
      <trkpt lat="36.790657" lon="-5.971906">
        <ele>128.655298</ele>
        <time>2020-08-17T07:30:06.065Z</time>
      </trkpt>
      <trkpt lat="36.790594" lon="-5.971988">
        <ele>128.547833</ele>
        <time>2020-08-17T07:30:08.078Z</time>
      </trkpt>
      <trkpt lat="36.790512" lon="-5.972097">
        <ele>128.406400</ele>
        <time>2020-08-17T07:30:11.068Z</time>
      </trkpt>
      <trkpt lat="36.790434" lon="-5.972197">
        <ele>128.274383</ele>
        <time>2020-08-17T07:30:14.067Z</time>
      </trkpt>
      <trkpt lat="36.790351" lon="-5.972296">
        <ele>128.138836</ele>
        <time>2020-08-17T07:30:17.055Z</time>
      </trkpt>
      <trkpt lat="36.790262" lon="-5.972397">
        <ele>128.025337</ele>
        <time>2020-08-17T07:30:20.065Z</time>
      </trkpt>
      <trkpt lat="36.790171" lon="-5.972498">
        <ele>128.239638</ele>
        <time>2020-08-17T07:30:23.060Z</time>
      </trkpt>
      <trkpt lat="36.790083" lon="-5.972594">
        <ele>128.445317</ele>
        <time>2020-08-17T07:30:26.067Z</time>
      </trkpt>
      <trkpt lat="36.789998" lon="-5.972678">
        <ele>128.636116</ele>
        <time>2020-08-17T07:30:29.054Z</time>
      </trkpt>
      <trkpt lat="36.789916" lon="-5.972766">
        <ele>128.826429</ele>
        <time>2020-08-17T07:30:32.058Z</time>
      </trkpt>
      <trkpt lat="36.789826" lon="-5.972869">
        <ele>129.041312</ele>
        <time>2020-08-17T07:30:35.069Z</time>
      </trkpt>
      <trkpt lat="36.789719" lon="-5.972960">
        <ele>129.269182</ele>
        <time>2020-08-17T07:30:38.058Z</time>
      </trkpt>
      <trkpt lat="36.789605" lon="-5.973040">
        <ele>129.499357</ele>
        <time>2020-08-17T07:30:41.069Z</time>
      </trkpt>
      <trkpt lat="36.789500" lon="-5.973137">
        <ele>129.729254</ele>
        <time>2020-08-17T07:30:44.062Z</time>
      </trkpt>
      <trkpt lat="36.789425" lon="-5.973209">
        <ele>129.895770</ele>
        <time>2020-08-17T07:30:46.072Z</time>
      </trkpt>
      <trkpt lat="36.789346" lon="-5.973273">
        <ele>130.061524</ele>
        <time>2020-08-17T07:30:48.060Z</time>
      </trkpt>
      <trkpt lat="36.789240" lon="-5.973375">
        <ele>130.297073</ele>
        <time>2020-08-17T07:30:52.093Z</time>
      </trkpt>
      <trkpt lat="36.789142" lon="-5.973468">
        <ele>130.513730</ele>
        <time>2020-08-17T07:30:54.064Z</time>
      </trkpt>
      <trkpt lat="36.789055" lon="-5.973540">
        <ele>130.697444</ele>
        <time>2020-08-17T07:30:56.054Z</time>
      </trkpt>
      <trkpt lat="36.788968" lon="-5.973615">
        <ele>130.883527</ele>
        <time>2020-08-17T07:30:58.064Z</time>
      </trkpt>
      <trkpt lat="36.788880" lon="-5.973699">
        <ele>131.078495</ele>
        <time>2020-08-17T07:31:00.069Z</time>
      </trkpt>
      <trkpt lat="36.788800" lon="-5.973810">
        <ele>131.199573</ele>
        <time>2020-08-17T07:31:02.067Z</time>
      </trkpt>
      <trkpt lat="36.788696" lon="-5.973904">
        <ele>131.249579</ele>
        <time>2020-08-17T07:31:04.070Z</time>
      </trkpt>
      <trkpt lat="36.788592" lon="-5.974000">
        <ele>131.299954</ele>
        <time>2020-08-17T07:31:06.049Z</time>
      </trkpt>
      <trkpt lat="36.788485" lon="-5.974109">
        <ele>131.353741</ele>
        <time>2020-08-17T07:31:08.054Z</time>
      </trkpt>
      <trkpt lat="36.788381" lon="-5.974236">
        <ele>131.410400</ele>
        <time>2020-08-17T07:31:10.075Z</time>
      </trkpt>
      <trkpt lat="36.788294" lon="-5.974332">
        <ele>131.455622</ele>
        <time>2020-08-17T07:31:12.065Z</time>
      </trkpt>
      <trkpt lat="36.788209" lon="-5.974407">
        <ele>131.496161</ele>
        <time>2020-08-17T07:31:14.055Z</time>
      </trkpt>
      <trkpt lat="36.788101" lon="-5.974515">
        <ele>131.550055</ele>
        <time>2020-08-17T07:31:17.056Z</time>
      </trkpt>
      <trkpt lat="36.788024" lon="-5.974582">
        <ele>131.586610</ele>
        <time>2020-08-17T07:31:19.055Z</time>
      </trkpt>
      <trkpt lat="36.787938" lon="-5.974634">
        <ele>131.623827</ele>
        <time>2020-08-17T07:31:21.070Z</time>
      </trkpt>
      <trkpt lat="36.787849" lon="-5.974696">
        <ele>131.663523</ele>
        <time>2020-08-17T07:31:23.060Z</time>
      </trkpt>
      <trkpt lat="36.787749" lon="-5.974776">
        <ele>131.709781</ele>
        <time>2020-08-17T07:31:25.064Z</time>
      </trkpt>
      <trkpt lat="36.787667" lon="-5.974853">
        <ele>131.749744</ele>
        <time>2020-08-17T07:31:27.067Z</time>
      </trkpt>
      <trkpt lat="36.787583" lon="-5.974929">
        <ele>131.790148</ele>
        <time>2020-08-17T07:31:29.072Z</time>
      </trkpt>
      <trkpt lat="36.787482" lon="-5.975019">
        <ele>131.838478</ele>
        <time>2020-08-17T07:31:31.068Z</time>
      </trkpt>
      <trkpt lat="36.787392" lon="-5.975112">
        <ele>131.742171</ele>
        <time>2020-08-17T07:31:33.059Z</time>
      </trkpt>
      <trkpt lat="36.787317" lon="-5.975210">
        <ele>131.135948</ele>
        <time>2020-08-17T07:31:35.061Z</time>
      </trkpt>
      <trkpt lat="36.787242" lon="-5.975297">
        <ele>130.564280</ele>
        <time>2020-08-17T07:31:37.069Z</time>
      </trkpt>
      <trkpt lat="36.787144" lon="-5.975387">
        <ele>129.884936</ele>
        <time>2020-08-17T07:31:39.060Z</time>
      </trkpt>
      <trkpt lat="36.787046" lon="-5.975457">
        <ele>129.254456</ele>
        <time>2020-08-17T07:31:41.060Z</time>
      </trkpt>
      <trkpt lat="36.786954" lon="-5.975541">
        <ele>128.617999</ele>
        <time>2020-08-17T07:31:43.079Z</time>
      </trkpt>
      <trkpt lat="36.786859" lon="-5.975624">
        <ele>127.970517</ele>
        <time>2020-08-17T07:31:45.065Z</time>
      </trkpt>
      <trkpt lat="36.786751" lon="-5.975695">
        <ele>127.288926</ele>
        <time>2020-08-17T07:31:47.045Z</time>
      </trkpt>
      <trkpt lat="36.786664" lon="-5.975789">
        <ele>126.646453</ele>
        <time>2020-08-17T07:31:49.058Z</time>
      </trkpt>
      <trkpt lat="36.786548" lon="-5.975862">
        <ele>125.921050</ele>
        <time>2020-08-17T07:31:51.068Z</time>
      </trkpt>
      <trkpt lat="36.786446" lon="-5.975947">
        <ele>125.236244</ele>
        <time>2020-08-17T07:31:53.080Z</time>
      </trkpt>
      <trkpt lat="36.786349" lon="-5.976042">
        <ele>124.547816</ele>
        <time>2020-08-17T07:31:55.066Z</time>
      </trkpt>
      <trkpt lat="36.786236" lon="-5.976115">
        <ele>123.837332</ele>
        <time>2020-08-17T07:31:57.056Z</time>
      </trkpt>
      <trkpt lat="36.786139" lon="-5.976204">
        <ele>123.165133</ele>
        <time>2020-08-17T07:31:59.058Z</time>
      </trkpt>
      <trkpt lat="36.786049" lon="-5.976293">
        <ele>122.524016</ele>
        <time>2020-08-17T07:32:01.056Z</time>
      </trkpt>
      <trkpt lat="36.785945" lon="-5.976381">
        <ele>121.827446</ele>
        <time>2020-08-17T07:32:03.066Z</time>
      </trkpt>
      <trkpt lat="36.785864" lon="-5.976488">
        <ele>121.576227</ele>
        <time>2020-08-17T07:32:05.062Z</time>
      </trkpt>
      <trkpt lat="36.785762" lon="-5.976559">
        <ele>121.327433</ele>
        <time>2020-08-17T07:32:07.067Z</time>
      </trkpt>
      <trkpt lat="36.785666" lon="-5.976639">
        <ele>121.081541</ele>
        <time>2020-08-17T07:32:09.071Z</time>
      </trkpt>
      <trkpt lat="36.785565" lon="-5.976709">
        <ele>120.835438</ele>
        <time>2020-08-17T07:32:11.047Z</time>
      </trkpt>
      <trkpt lat="36.785478" lon="-5.976794">
        <ele>120.600089</ele>
        <time>2020-08-17T07:32:13.078Z</time>
      </trkpt>
      <trkpt lat="36.785382" lon="-5.976852">
        <ele>120.372880</ele>
        <time>2020-08-17T07:32:15.054Z</time>
      </trkpt>
      <trkpt lat="36.785306" lon="-5.976938">
        <ele>120.154364</ele>
        <time>2020-08-17T07:32:17.048Z</time>
      </trkpt>
      <trkpt lat="36.785225" lon="-5.976999">
        <ele>119.952838</ele>
        <time>2020-08-17T07:32:19.060Z</time>
      </trkpt>
      <trkpt lat="36.785128" lon="-5.977099">
        <ele>119.684846</ele>
        <time>2020-08-17T07:32:22.063Z</time>
      </trkpt>
      <trkpt lat="36.785041" lon="-5.977177">
        <ele>119.456663</ele>
        <time>2020-08-17T07:32:24.061Z</time>
      </trkpt>
      <trkpt lat="36.784968" lon="-5.977246">
        <ele>119.261602</ele>
        <time>2020-08-17T07:32:26.061Z</time>
      </trkpt>
      <trkpt lat="36.784871" lon="-5.977369">
        <ele>118.967065</ele>
        <time>2020-08-17T07:32:29.072Z</time>
      </trkpt>
      <trkpt lat="36.784769" lon="-5.977462">
        <ele>118.697987</ele>
        <time>2020-08-17T07:32:32.050Z</time>
      </trkpt>
      <trkpt lat="36.784662" lon="-5.977526">
        <ele>118.445220</ele>
        <time>2020-08-17T07:32:35.065Z</time>
      </trkpt>
      <trkpt lat="36.784553" lon="-5.977611">
        <ele>118.171430</ele>
        <time>2020-08-17T07:32:38.093Z</time>
      </trkpt>
      <trkpt lat="36.784440" lon="-5.977684">
        <ele>117.676773</ele>
        <time>2020-08-17T07:32:41.073Z</time>
      </trkpt>
      <trkpt lat="36.784331" lon="-5.977757">
        <ele>116.813225</ele>
        <time>2020-08-17T07:32:44.068Z</time>
      </trkpt>
      <trkpt lat="36.784222" lon="-5.977805">
        <ele>116.006292</ele>
        <time>2020-08-17T07:32:47.050Z</time>
      </trkpt>
      <trkpt lat="36.784110" lon="-5.977829">
        <ele>115.212926</ele>
        <time>2020-08-17T07:32:50.073Z</time>
      </trkpt>
      <trkpt lat="36.784039" lon="-5.977925">
        <ele>114.482277</ele>
        <time>2020-08-17T07:32:53.057Z</time>
      </trkpt>
      <trkpt lat="36.783987" lon="-5.978029">
        <ele>113.796739</ele>
        <time>2020-08-17T07:32:56.072Z</time>
      </trkpt>
      <trkpt lat="36.783897" lon="-5.978120">
        <ele>112.988211</ele>
        <time>2020-08-17T07:33:00.058Z</time>
      </trkpt>
      <trkpt lat="36.783814" lon="-5.978219">
        <ele>112.186828</ele>
        <time>2020-08-17T07:33:04.061Z</time>
      </trkpt>
      <trkpt lat="36.783739" lon="-5.978286">
        <ele>111.542992</ele>
        <time>2020-08-17T07:33:07.061Z</time>
      </trkpt>
      <trkpt lat="36.783656" lon="-5.978337">
        <ele>110.897155</ele>
        <time>2020-08-17T07:33:10.074Z</time>
      </trkpt>
      <trkpt lat="36.783544" lon="-5.978373">
        <ele>110.089726</ele>
        <time>2020-08-17T07:33:14.054Z</time>
      </trkpt>
      <trkpt lat="36.783437" lon="-5.978428">
        <ele>109.281873</ele>
        <time>2020-08-17T07:33:18.074Z</time>
      </trkpt>
      <trkpt lat="36.783332" lon="-5.978488">
        <ele>108.475685</ele>
        <time>2020-08-17T07:33:22.036Z</time>
      </trkpt>
      <trkpt lat="36.783247" lon="-5.978529">
        <ele>107.839509</ele>
        <time>2020-08-17T07:33:25.071Z</time>
      </trkpt>
      <trkpt lat="36.783149" lon="-5.978574">
        <ele>107.110515</ele>
        <time>2020-08-17T07:33:28.047Z</time>
      </trkpt>
      <trkpt lat="36.783051" lon="-5.978632">
        <ele>106.353351</ele>
        <time>2020-08-17T07:33:31.054Z</time>
      </trkpt>
      <trkpt lat="36.782964" lon="-5.978687">
        <ele>105.672536</ele>
        <time>2020-08-17T07:33:34.044Z</time>
      </trkpt>
      <trkpt lat="36.782882" lon="-5.978751">
        <ele>105.951590</ele>
        <time>2020-08-17T07:33:38.048Z</time>
      </trkpt>
      <trkpt lat="36.782800" lon="-5.978811">
        <ele>106.714575</ele>
        <time>2020-08-17T07:33:42.061Z</time>
      </trkpt>
      <trkpt lat="36.782715" lon="-5.978897">
        <ele>107.592844</ele>
        <time>2020-08-17T07:33:47.065Z</time>
      </trkpt>
      <trkpt lat="36.782647" lon="-5.979002">
        <ele>108.461034</ele>
        <time>2020-08-17T07:33:52.068Z</time>
      </trkpt>
      <trkpt lat="36.782583" lon="-5.979084">
        <ele>109.197193</ele>
        <time>2020-08-17T07:33:56.073Z</time>
      </trkpt>
      <trkpt lat="36.782510" lon="-5.979159">
        <ele>109.956112</ele>
        <time>2020-08-17T07:34:00.084Z</time>
      </trkpt>
      <trkpt lat="36.782446" lon="-5.979262">
        <ele>110.794284</ele>
        <time>2020-08-17T07:34:05.071Z</time>
      </trkpt>
      <trkpt lat="36.782371" lon="-5.979386">
        <ele>111.793351</ele>
        <time>2020-08-17T07:34:09.078Z</time>
      </trkpt>
      <trkpt lat="36.782278" lon="-5.979514">
        <ele>112.904515</ele>
        <time>2020-08-17T07:34:12.091Z</time>
      </trkpt>
      <trkpt lat="36.782207" lon="-5.979607">
        <ele>113.730597</ele>
        <time>2020-08-17T07:34:14.056Z</time>
      </trkpt>
      <trkpt lat="36.782151" lon="-5.979716">
        <ele>114.563215</ele>
        <time>2020-08-17T07:34:16.033Z</time>
      </trkpt>
      <trkpt lat="36.782069" lon="-5.979812">
        <ele>115.465607</ele>
        <time>2020-08-17T07:34:18.068Z</time>
      </trkpt>
      <trkpt lat="36.781965" lon="-5.979897">
        <ele>116.463462</ele>
        <time>2020-08-17T07:34:21.068Z</time>
      </trkpt>
      <trkpt lat="36.781902" lon="-5.979986">
        <ele>117.227159</ele>
        <time>2020-08-17T07:34:24.069Z</time>
      </trkpt>
      <trkpt lat="36.781811" lon="-5.980106">
        <ele>118.289685</ele>
        <time>2020-08-17T07:34:27.079Z</time>
      </trkpt>
      <trkpt lat="36.781734" lon="-5.980229">
        <ele>119.293440</ele>
        <time>2020-08-17T07:34:30.067Z</time>
      </trkpt>
      <trkpt lat="36.781650" lon="-5.980357">
        <ele>119.688935</ele>
        <time>2020-08-17T07:34:33.068Z</time>
      </trkpt>
      <trkpt lat="36.781570" lon="-5.980460">
        <ele>119.318892</ele>
        <time>2020-08-17T07:34:36.071Z</time>
      </trkpt>
      <trkpt lat="36.781489" lon="-5.980551">
        <ele>118.968014</ele>
        <time>2020-08-17T07:34:39.067Z</time>
      </trkpt>
      <trkpt lat="36.781432" lon="-5.980650">
        <ele>118.653556</ele>
        <time>2020-08-17T07:34:43.069Z</time>
      </trkpt>
      <trkpt lat="36.781370" lon="-5.980747">
        <ele>118.333484</ele>
        <time>2020-08-17T07:34:47.075Z</time>
      </trkpt>
      <trkpt lat="36.781283" lon="-5.980826">
        <ele>117.987076</ele>
        <time>2020-08-17T07:34:51.068Z</time>
      </trkpt>
      <trkpt lat="36.781186" lon="-5.980897">
        <ele>117.625003</ele>
        <time>2020-08-17T07:34:55.096Z</time>
      </trkpt>
      <trkpt lat="36.781112" lon="-5.980971">
        <ele>117.319704</ele>
        <time>2020-08-17T07:34:58.067Z</time>
      </trkpt>
      <trkpt lat="36.781029" lon="-5.981063">
        <ele>116.962303</ele>
        <time>2020-08-17T07:35:02.068Z</time>
      </trkpt>
      <trkpt lat="36.780978" lon="-5.981156">
        <ele>116.671611</ele>
        <time>2020-08-17T07:35:05.072Z</time>
      </trkpt>
      <trkpt lat="36.780895" lon="-5.981274">
        <ele>116.266575</ele>
        <time>2020-08-17T07:35:09.070Z</time>
      </trkpt>
      <trkpt lat="36.780816" lon="-5.981405">
        <ele>115.843648</ele>
        <time>2020-08-17T07:35:12.079Z</time>
      </trkpt>
      <trkpt lat="36.780733" lon="-5.981539">
        <ele>115.406756</ele>
        <time>2020-08-17T07:35:14.073Z</time>
      </trkpt>
      <trkpt lat="36.780671" lon="-5.981650">
        <ele>115.057733</ele>
        <time>2020-08-17T07:35:16.058Z</time>
      </trkpt>
      <trkpt lat="36.780622" lon="-5.981760">
        <ele>114.733103</ele>
        <time>2020-08-17T07:35:18.076Z</time>
      </trkpt>
      <trkpt lat="36.780546" lon="-5.981851">
        <ele>114.394020</ele>
        <time>2020-08-17T07:35:20.065Z</time>
      </trkpt>
      <trkpt lat="36.780485" lon="-5.981966">
        <ele>114.126815</ele>
        <time>2020-08-17T07:35:22.063Z</time>
      </trkpt>
      <trkpt lat="36.780437" lon="-5.982093">
        <ele>114.404096</ele>
        <time>2020-08-17T07:35:24.058Z</time>
      </trkpt>
      <trkpt lat="36.780368" lon="-5.982224">
        <ele>114.713677</ele>
        <time>2020-08-17T07:35:26.065Z</time>
      </trkpt>
      <trkpt lat="36.780299" lon="-5.982359">
        <ele>115.029888</ele>
        <time>2020-08-17T07:35:28.065Z</time>
      </trkpt>
      <trkpt lat="36.780236" lon="-5.982499">
        <ele>115.346962</ele>
        <time>2020-08-17T07:35:30.069Z</time>
      </trkpt>
      <trkpt lat="36.780176" lon="-5.982629">
        <ele>115.643218</ele>
        <time>2020-08-17T07:35:32.073Z</time>
      </trkpt>
      <trkpt lat="36.780099" lon="-5.982740">
        <ele>115.933166</ele>
        <time>2020-08-17T07:35:34.084Z</time>
      </trkpt>
      <trkpt lat="36.780044" lon="-5.982865">
        <ele>116.214772</ele>
        <time>2020-08-17T07:35:36.079Z</time>
      </trkpt>
      <trkpt lat="36.780034" lon="-5.983001">
        <ele>116.484437</ele>
        <time>2020-08-17T07:35:39.056Z</time>
      </trkpt>
      <trkpt lat="36.780002" lon="-5.983114">
        <ele>116.721094</ele>
        <time>2020-08-17T07:35:42.071Z</time>
      </trkpt>
      <trkpt lat="36.779962" lon="-5.983235">
        <ele>116.979561</ele>
        <time>2020-08-17T07:35:46.073Z</time>
      </trkpt>
      <trkpt lat="36.779906" lon="-5.983358">
        <ele>117.258924</ele>
        <time>2020-08-17T07:35:50.072Z</time>
      </trkpt>
      <trkpt lat="36.779847" lon="-5.983452">
        <ele>117.494731</ele>
        <time>2020-08-17T07:35:53.061Z</time>
      </trkpt>
      <trkpt lat="36.779785" lon="-5.983538">
        <ele>117.723198</ele>
        <time>2020-08-17T07:35:56.058Z</time>
      </trkpt>
      <trkpt lat="36.779724" lon="-5.983634">
        <ele>117.965160</ele>
        <time>2020-08-17T07:35:59.081Z</time>
      </trkpt>
      <trkpt lat="36.779647" lon="-5.983753">
        <ele>118.267226</ele>
        <time>2020-08-17T07:36:03.077Z</time>
      </trkpt>
      <trkpt lat="36.779579" lon="-5.983879">
        <ele>118.477919</ele>
        <time>2020-08-17T07:36:06.070Z</time>
      </trkpt>
      <trkpt lat="36.779525" lon="-5.984020">
        <ele>118.169753</ele>
        <time>2020-08-17T07:36:09.084Z</time>
      </trkpt>
      <trkpt lat="36.779432" lon="-5.984170">
        <ele>117.795731</ele>
        <time>2020-08-17T07:36:12.080Z</time>
      </trkpt>
      <trkpt lat="36.779351" lon="-5.984296">
        <ele>117.477162</ele>
        <time>2020-08-17T07:36:14.065Z</time>
      </trkpt>
      <trkpt lat="36.779300" lon="-5.984415">
        <ele>117.211043</ele>
        <time>2020-08-17T07:36:16.072Z</time>
      </trkpt>
      <trkpt lat="36.779217" lon="-5.984562">
        <ele>116.856412</ele>
        <time>2020-08-17T07:36:18.057Z</time>
      </trkpt>
      <trkpt lat="36.779096" lon="-5.984707">
        <ele>116.443528</ele>
        <time>2020-08-17T07:36:20.064Z</time>
      </trkpt>
      <trkpt lat="36.778996" lon="-5.984840">
        <ele>116.083838</ele>
        <time>2020-08-17T07:36:22.068Z</time>
      </trkpt>
      <trkpt lat="36.778908" lon="-5.984985">
        <ele>115.725125</ele>
        <time>2020-08-17T07:36:24.073Z</time>
      </trkpt>
      <trkpt lat="36.778773" lon="-5.985106">
        <ele>115.316012</ele>
        <time>2020-08-17T07:36:26.061Z</time>
      </trkpt>
      <trkpt lat="36.778657" lon="-5.985210">
        <ele>114.964442</ele>
        <time>2020-08-17T07:36:28.061Z</time>
      </trkpt>
      <trkpt lat="36.778594" lon="-5.985357">
        <ele>114.635705</ele>
        <time>2020-08-17T07:36:30.074Z</time>
      </trkpt>
      <trkpt lat="36.778502" lon="-5.985466">
        <ele>114.323475</ele>
        <time>2020-08-17T07:36:32.070Z</time>
      </trkpt>
      <trkpt lat="36.778426" lon="-5.985565">
        <ele>114.121781</ele>
        <time>2020-08-17T07:36:34.059Z</time>
      </trkpt>
      <trkpt lat="36.778386" lon="-5.985683">
        <ele>114.286637</ele>
        <time>2020-08-17T07:36:36.071Z</time>
      </trkpt>
      <trkpt lat="36.778308" lon="-5.985766">
        <ele>114.451264</ele>
        <time>2020-08-17T07:36:39.080Z</time>
      </trkpt>
      <trkpt lat="36.778255" lon="-5.985865">
        <ele>114.604470</ele>
        <time>2020-08-17T07:36:43.083Z</time>
      </trkpt>
      <trkpt lat="36.778202" lon="-5.985975">
        <ele>114.769629</ele>
        <time>2020-08-17T07:36:48.070Z</time>
      </trkpt>
      <trkpt lat="36.778155" lon="-5.986089">
        <ele>114.934592</ele>
        <time>2020-08-17T07:36:52.059Z</time>
      </trkpt>
      <trkpt lat="36.778083" lon="-5.986187">
        <ele>115.105689</ele>
        <time>2020-08-17T07:36:56.077Z</time>
      </trkpt>
      <trkpt lat="36.778009" lon="-5.986290">
        <ele>115.283709</ele>
        <time>2020-08-17T07:37:00.081Z</time>
      </trkpt>
      <trkpt lat="36.777943" lon="-5.986375">
        <ele>115.436024</ele>
        <time>2020-08-17T07:37:04.077Z</time>
      </trkpt>
      <trkpt lat="36.777864" lon="-5.986442">
        <ele>115.589433</ele>
        <time>2020-08-17T07:37:08.085Z</time>
      </trkpt>
      <trkpt lat="36.777807" lon="-5.986555">
        <ele>115.761249</ele>
        <time>2020-08-17T07:37:12.095Z</time>
      </trkpt>
      <trkpt lat="36.777751" lon="-5.986646">
        <ele>115.908897</ele>
        <time>2020-08-17T07:37:15.073Z</time>
      </trkpt>
      <trkpt lat="36.777695" lon="-5.986752">
        <ele>116.072272</ele>
        <time>2020-08-17T07:37:18.070Z</time>
      </trkpt>
      <trkpt lat="36.777638" lon="-5.986868">
        <ele>116.247366</ele>
        <time>2020-08-17T07:37:21.071Z</time>
      </trkpt>
      <trkpt lat="36.777579" lon="-5.987003">
        <ele>116.445232</ele>
        <time>2020-08-17T07:37:24.076Z</time>
      </trkpt>
      <trkpt lat="36.777525" lon="-5.987155">
        <ele>116.659171</ele>
        <time>2020-08-17T07:37:27.065Z</time>
      </trkpt>
      <trkpt lat="36.777490" lon="-5.987267">
        <ele>116.813851</ele>
        <time>2020-08-17T07:37:29.073Z</time>
      </trkpt>
      <trkpt lat="36.777426" lon="-5.987362">
        <ele>116.973565</ele>
        <time>2020-08-17T07:37:31.070Z</time>
      </trkpt>
      <trkpt lat="36.777379" lon="-5.987470">
        <ele>115.995319</ele>
        <time>2020-08-17T07:37:33.071Z</time>
      </trkpt>
      <trkpt lat="36.777346" lon="-5.987579">
        <ele>114.992838</ele>
        <time>2020-08-17T07:37:35.074Z</time>
      </trkpt>
      <trkpt lat="36.777272" lon="-5.987679">
        <ele>113.821576</ele>
        <time>2020-08-17T07:37:37.072Z</time>
      </trkpt>
      <trkpt lat="36.777180" lon="-5.987796">
        <ele>112.411046</ele>
        <time>2020-08-17T07:37:39.073Z</time>
      </trkpt>
      <trkpt lat="36.777101" lon="-5.987896">
        <ele>111.202695</ele>
        <time>2020-08-17T07:37:41.070Z</time>
      </trkpt>
      <trkpt lat="36.777046" lon="-5.987991">
        <ele>110.194261</ele>
        <time>2020-08-17T07:37:43.063Z</time>
      </trkpt>
      <trkpt lat="36.776981" lon="-5.988097">
        <ele>109.045776</ele>
        <time>2020-08-17T07:37:45.077Z</time>
      </trkpt>
      <trkpt lat="36.776911" lon="-5.988189">
        <ele>107.954113</ele>
        <time>2020-08-17T07:37:47.074Z</time>
      </trkpt>
      <trkpt lat="36.776791" lon="-5.988287">
        <ele>106.413962</ele>
        <time>2020-08-17T07:37:49.077Z</time>
      </trkpt>
      <trkpt lat="36.776703" lon="-5.988331">
        <ele>105.395792</ele>
        <time>2020-08-17T07:37:51.083Z</time>
      </trkpt>
      <trkpt lat="36.776629" lon="-5.988471">
        <ele>103.952741</ele>
        <time>2020-08-17T07:37:54.072Z</time>
      </trkpt>
      <trkpt lat="36.776569" lon="-5.988559">
        <ele>102.958523</ele>
        <time>2020-08-17T07:37:56.069Z</time>
      </trkpt>
      <trkpt lat="36.776535" lon="-5.988681">
        <ele>101.847227</ele>
        <time>2020-08-17T07:37:58.071Z</time>
      </trkpt>
      <trkpt lat="36.776429" lon="-5.988798">
        <ele>100.327554</ele>
        <time>2020-08-17T07:38:01.070Z</time>
      </trkpt>
      <trkpt lat="36.776325" lon="-5.988922">
        <ele>98.782946</ele>
        <time>2020-08-17T07:38:04.069Z</time>
      </trkpt>
      <trkpt lat="36.776227" lon="-5.988962">
        <ele>97.675525</ele>
        <time>2020-08-17T07:38:06.077Z</time>
      </trkpt>
      <trkpt lat="36.776160" lon="-5.989074">
        <ele>97.805475</ele>
        <time>2020-08-17T07:38:09.061Z</time>
      </trkpt>
      <trkpt lat="36.776108" lon="-5.989173">
        <ele>97.925455</ele>
        <time>2020-08-17T07:38:11.079Z</time>
      </trkpt>
      <trkpt lat="36.776006" lon="-5.989232">
        <ele>98.067690</ele>
        <time>2020-08-17T07:38:14.075Z</time>
      </trkpt>
      <trkpt lat="36.775935" lon="-5.989306">
        <ele>98.184712</ele>
        <time>2020-08-17T07:38:17.073Z</time>
      </trkpt>
      <trkpt lat="36.775869" lon="-5.989397">
        <ele>98.309126</ele>
        <time>2020-08-17T07:38:21.070Z</time>
      </trkpt>
      <trkpt lat="36.775811" lon="-5.989489">
        <ele>98.427779</ele>
        <time>2020-08-17T07:38:25.075Z</time>
      </trkpt>
      <trkpt lat="36.775755" lon="-5.989587">
        <ele>98.549781</ele>
        <time>2020-08-17T07:38:29.079Z</time>
      </trkpt>
      <trkpt lat="36.775680" lon="-5.989701">
        <ele>98.699290</ele>
        <time>2020-08-17T07:38:33.075Z</time>
      </trkpt>
      <trkpt lat="36.775610" lon="-5.989823">
        <ele>98.851380</ele>
        <time>2020-08-17T07:38:37.071Z</time>
      </trkpt>
      <trkpt lat="36.775564" lon="-5.989933">
        <ele>98.977139</ele>
        <time>2020-08-17T07:38:40.064Z</time>
      </trkpt>
      <trkpt lat="36.775501" lon="-5.990060">
        <ele>99.128532</ele>
        <time>2020-08-17T07:38:43.061Z</time>
      </trkpt>
      <trkpt lat="36.775428" lon="-5.990180">
        <ele>99.281244</ele>
        <time>2020-08-17T07:38:46.083Z</time>
      </trkpt>
      <trkpt lat="36.775347" lon="-5.990284">
        <ele>99.428256</ele>
        <time>2020-08-17T07:38:49.069Z</time>
      </trkpt>
      <trkpt lat="36.775254" lon="-5.990378">
        <ele>99.579654</ele>
        <time>2020-08-17T07:38:52.063Z</time>
      </trkpt>
      <trkpt lat="36.775147" lon="-5.990454">
        <ele>99.735413</ele>
        <time>2020-08-17T07:38:55.071Z</time>
      </trkpt>
      <trkpt lat="36.775054" lon="-5.990508">
        <ele>99.865186</ele>
        <time>2020-08-17T07:38:58.069Z</time>
      </trkpt>
      <trkpt lat="36.774962" lon="-5.990573">
        <ele>100.515489</ele>
        <time>2020-08-17T07:39:01.067Z</time>
      </trkpt>
      <trkpt lat="36.774878" lon="-5.990637">
        <ele>101.746051</ele>
        <time>2020-08-17T07:39:04.079Z</time>
      </trkpt>
      <trkpt lat="36.774799" lon="-5.990724">
        <ele>103.063349</ele>
        <time>2020-08-17T07:39:08.080Z</time>
      </trkpt>
      <trkpt lat="36.774719" lon="-5.990807">
        <ele>104.364086</ele>
        <time>2020-08-17T07:39:12.090Z</time>
      </trkpt>
      <trkpt lat="36.774634" lon="-5.990885">
        <ele>105.683237</ele>
        <time>2020-08-17T07:39:16.068Z</time>
      </trkpt>
      <trkpt lat="36.774552" lon="-5.990950">
        <ele>106.897862</ele>
        <time>2020-08-17T07:39:20.071Z</time>
      </trkpt>
      <trkpt lat="36.774473" lon="-5.991008">
        <ele>108.043902</ele>
        <time>2020-08-17T07:39:23.073Z</time>
      </trkpt>
      <trkpt lat="36.774383" lon="-5.991098">
        <ele>109.485861</ele>
        <time>2020-08-17T07:39:27.073Z</time>
      </trkpt>
      <trkpt lat="36.774308" lon="-5.991179">
        <ele>110.725954</ele>
        <time>2020-08-17T07:39:31.075Z</time>
      </trkpt>
      <trkpt lat="36.774203" lon="-5.991242">
        <ele>112.182725</ele>
        <time>2020-08-17T07:39:35.072Z</time>
      </trkpt>
      <trkpt lat="36.774105" lon="-5.991297">
        <ele>113.526329</ele>
        <time>2020-08-17T07:39:39.073Z</time>
      </trkpt>
      <trkpt lat="36.774015" lon="-5.991371">
        <ele>114.873918</ele>
        <time>2020-08-17T07:39:43.076Z</time>
      </trkpt>
      <trkpt lat="36.773908" lon="-5.991428">
        <ele>116.328651</ele>
        <time>2020-08-17T07:39:47.070Z</time>
      </trkpt>
      <trkpt lat="36.773801" lon="-5.991486">
        <ele>117.787345</ele>
        <time>2020-08-17T07:39:51.064Z</time>
      </trkpt>
      <trkpt lat="36.773705" lon="-5.991530">
        <ele>119.066152</ele>
        <time>2020-08-17T07:39:55.072Z</time>
      </trkpt>
      <trkpt lat="36.773605" lon="-5.991577">
        <ele>120.402314</ele>
        <time>2020-08-17T07:39:59.078Z</time>
      </trkpt>
      <trkpt lat="36.773509" lon="-5.991641">
        <ele>121.763217</ele>
        <time>2020-08-17T07:40:03.078Z</time>
      </trkpt>
      <trkpt lat="36.773407" lon="-5.991695">
        <ele>122.528609</ele>
        <time>2020-08-17T07:40:07.082Z</time>
      </trkpt>
      <trkpt lat="36.773323" lon="-5.991752">
        <ele>122.689079</ele>
        <time>2020-08-17T07:40:11.072Z</time>
      </trkpt>
      <trkpt lat="36.773255" lon="-5.991834">
        <ele>122.847764</ele>
        <time>2020-08-17T07:40:15.071Z</time>
      </trkpt>
      <trkpt lat="36.773173" lon="-5.991910">
        <ele>123.019179</ele>
        <time>2020-08-17T07:40:20.071Z</time>
      </trkpt>
      <trkpt lat="36.773096" lon="-5.991972">
        <ele>123.172969</ele>
        <time>2020-08-17T07:40:24.071Z</time>
      </trkpt>
      <trkpt lat="36.773003" lon="-5.992023">
        <ele>123.343461</ele>
        <time>2020-08-17T07:40:28.060Z</time>
      </trkpt>
      <trkpt lat="36.772934" lon="-5.992102">
        <ele>123.500603</ele>
        <time>2020-08-17T07:40:33.074Z</time>
      </trkpt>
      <trkpt lat="36.772862" lon="-5.992172">
        <ele>123.653774</ele>
        <time>2020-08-17T07:40:37.061Z</time>
      </trkpt>
      <trkpt lat="36.772782" lon="-5.992253">
        <ele>123.826660</ele>
        <time>2020-08-17T07:40:42.076Z</time>
      </trkpt>
      <trkpt lat="36.772709" lon="-5.992332">
        <ele>123.988814</ele>
        <time>2020-08-17T07:40:47.081Z</time>
      </trkpt>
      <trkpt lat="36.772623" lon="-5.992417">
        <ele>124.172922</ele>
        <time>2020-08-17T07:40:53.075Z</time>
      </trkpt>
      <trkpt lat="36.772557" lon="-5.992516">
        <ele>124.346092</ele>
        <time>2020-08-17T07:40:58.074Z</time>
      </trkpt>
      <trkpt lat="36.772479" lon="-5.992608">
        <ele>124.526202</ele>
        <time>2020-08-17T07:41:02.077Z</time>
      </trkpt>
      <trkpt lat="36.772395" lon="-5.992685">
        <ele>124.701117</ele>
        <time>2020-08-17T07:41:06.073Z</time>
      </trkpt>
      <trkpt lat="36.772323" lon="-5.992785">
        <ele>124.881894</ele>
        <time>2020-08-17T07:41:10.072Z</time>
      </trkpt>
      <trkpt lat="36.772250" lon="-5.992858">
        <ele>125.038883</ele>
        <time>2020-08-17T07:41:14.071Z</time>
      </trkpt>
      <trkpt lat="36.772159" lon="-5.992918">
        <ele>125.211615</ele>
        <time>2020-08-17T07:41:18.076Z</time>
      </trkpt>
      <trkpt lat="36.772078" lon="-5.992985">
        <ele>125.374704</ele>
        <time>2020-08-17T07:41:22.070Z</time>
      </trkpt>
      <trkpt lat="36.771997" lon="-5.993073">
        <ele>124.852364</ele>
        <time>2020-08-17T07:41:26.077Z</time>
      </trkpt>
      <trkpt lat="36.771921" lon="-5.993180">
        <ele>123.739748</ele>
        <time>2020-08-17T07:41:29.067Z</time>
      </trkpt>
      <trkpt lat="36.771852" lon="-5.993291">
        <ele>122.646612</ele>
        <time>2020-08-17T07:41:31.079Z</time>
      </trkpt>
      <trkpt lat="36.771781" lon="-5.993416">
        <ele>121.454405</ele>
        <time>2020-08-17T07:41:34.090Z</time>
      </trkpt>
      <trkpt lat="36.771694" lon="-5.993524">
        <ele>120.262734</ele>
        <time>2020-08-17T07:41:37.067Z</time>
      </trkpt>
      <trkpt lat="36.771596" lon="-5.993615">
        <ele>119.076444</ele>
        <time>2020-08-17T07:41:39.081Z</time>
      </trkpt>
      <trkpt lat="36.771482" lon="-5.993749">
        <ele>117.555615</ele>
        <time>2020-08-17T07:41:42.058Z</time>
      </trkpt>
      <trkpt lat="36.771417" lon="-5.993892">
        <ele>116.276400</ele>
        <time>2020-08-17T07:41:44.076Z</time>
      </trkpt>
      <trkpt lat="36.771295" lon="-5.993976">
        <ele>114.923168</ele>
        <time>2020-08-17T07:41:46.073Z</time>
      </trkpt>
      <trkpt lat="36.771203" lon="-5.994061">
        <ele>113.811493</ele>
        <time>2020-08-17T07:41:48.072Z</time>
      </trkpt>
      <trkpt lat="36.771108" lon="-5.994144">
        <ele>112.685258</ele>
        <time>2020-08-17T07:41:50.070Z</time>
      </trkpt>
      <trkpt lat="36.771042" lon="-5.994261">
        <ele>111.571901</ele>
        <time>2020-08-17T07:41:52.059Z</time>
      </trkpt>
      <trkpt lat="36.771002" lon="-5.994375">
        <ele>110.603593</ele>
        <time>2020-08-17T07:41:56.062Z</time>
      </trkpt>
      <trkpt lat="36.770945" lon="-5.994483">
        <ele>109.597335</ele>
        <time>2020-08-17T07:41:58.102Z</time>
      </trkpt>
      <trkpt lat="36.770771" lon="-5.994670">
        <ele>107.887021</ele>
        <time>2020-08-17T07:42:00.080Z</time>
      </trkpt>
      <trkpt lat="36.770654" lon="-5.994755">
        <ele>107.684570</ele>
        <time>2020-08-17T07:42:03.071Z</time>
      </trkpt>
      <trkpt lat="36.770578" lon="-5.994830">
        <ele>107.539686</ele>
        <time>2020-08-17T07:42:09.064Z</time>
      </trkpt>
      <trkpt lat="36.770406" lon="-5.994889">
        <ele>107.272919</ele>
        <time>2020-08-17T07:42:11.058Z</time>
      </trkpt>
      <trkpt lat="36.770325" lon="-5.994997">
        <ele>107.095678</ele>
        <time>2020-08-17T07:42:15.074Z</time>
      </trkpt>
      <trkpt lat="36.770298" lon="-5.995127">
        <ele>106.934790</ele>
        <time>2020-08-17T07:42:18.092Z</time>
      </trkpt>
      <trkpt lat="36.770233" lon="-5.995218">
        <ele>106.788727</ele>
        <time>2020-08-17T07:42:21.083Z</time>
      </trkpt>
      <trkpt lat="36.770157" lon="-5.995329">
        <ele>106.613793</ele>
        <time>2020-08-17T07:42:23.067Z</time>
      </trkpt>
      <trkpt lat="36.770086" lon="-5.995402">
        <ele>106.476233</ele>
        <time>2020-08-17T07:42:27.062Z</time>
      </trkpt>
      <trkpt lat="36.770006" lon="-5.995477">
        <ele>106.326609</ele>
        <time>2020-08-17T07:42:32.069Z</time>
      </trkpt>
      <trkpt lat="36.769908" lon="-5.995535">
        <ele>106.164409</ele>
        <time>2020-08-17T07:42:35.071Z</time>
      </trkpt>
      <trkpt lat="36.769823" lon="-5.995618">
        <ele>106.003019</ele>
        <time>2020-08-17T07:42:40.058Z</time>
      </trkpt>
      <trkpt lat="36.769734" lon="-5.995701">
        <ele>105.836877</ele>
        <time>2020-08-17T07:42:45.076Z</time>
      </trkpt>
      <trkpt lat="36.769674" lon="-5.995784">
        <ele>105.702940</ele>
        <time>2020-08-17T07:42:48.068Z</time>
      </trkpt>
      <trkpt lat="36.769608" lon="-5.995872">
        <ele>105.558521</ele>
        <time>2020-08-17T07:42:52.056Z</time>
      </trkpt>
      <trkpt lat="36.769539" lon="-5.995947">
        <ele>105.421694</ele>
        <time>2020-08-17T07:42:56.060Z</time>
      </trkpt>
      <trkpt lat="36.769442" lon="-5.995971">
        <ele>105.268433</ele>
        <time>2020-08-17T07:43:01.071Z</time>
      </trkpt>
      <trkpt lat="36.769349" lon="-5.995977">
        <ele>105.087280</ele>
        <time>2020-08-17T07:43:03.069Z</time>
      </trkpt>
      <trkpt lat="36.769278" lon="-5.996048">
        <ele>104.910315</ele>
        <time>2020-08-17T07:43:06.069Z</time>
      </trkpt>
      <trkpt lat="36.769244" lon="-5.996152">
        <ele>104.735277</ele>
        <time>2020-08-17T07:43:10.077Z</time>
      </trkpt>
      <trkpt lat="36.769157" lon="-5.996229">
        <ele>104.527818</ele>
        <time>2020-08-17T07:43:15.069Z</time>
      </trkpt>
      <trkpt lat="36.769097" lon="-5.996341">
        <ele>104.317859</ele>
        <time>2020-08-17T07:43:21.072Z</time>
      </trkpt>
      <trkpt lat="36.769006" lon="-5.996393">
        <ele>104.123174</ele>
        <time>2020-08-17T07:43:24.074Z</time>
      </trkpt>
      <trkpt lat="36.768913" lon="-5.996395">
        <ele>103.942235</ele>
        <time>2020-08-17T07:43:27.062Z</time>
      </trkpt>
      <trkpt lat="36.768860" lon="-5.996517">
        <ele>103.725967</ele>
        <time>2020-08-17T07:43:33.042Z</time>
      </trkpt>
      <trkpt lat="36.768840" lon="-5.996636">
        <ele>103.536494</ele>
        <time>2020-08-17T07:43:36.062Z</time>
      </trkpt>
      <trkpt lat="36.768784" lon="-5.996755">
        <ele>103.321427</ele>
        <time>2020-08-17T07:43:42.081Z</time>
      </trkpt>
      <trkpt lat="36.768761" lon="-5.996904">
        <ele>103.084971</ele>
        <time>2020-08-17T07:43:45.068Z</time>
      </trkpt>
      <trkpt lat="36.768734" lon="-5.997033">
        <ele>102.877203</ele>
        <time>2020-08-17T07:43:49.062Z</time>
      </trkpt>
      <trkpt lat="36.768640" lon="-5.997023">
        <ele>102.693684</ele>
        <time>2020-08-17T07:43:52.075Z</time>
      </trkpt>
      <trkpt lat="36.768524" lon="-5.996994">
        <ele>102.463550</ele>
        <time>2020-08-17T07:43:55.063Z</time>
      </trkpt>
      <trkpt lat="36.768398" lon="-5.997030">
        <ele>102.212106</ele>
        <time>2020-08-17T07:43:58.070Z</time>
      </trkpt>
      <trkpt lat="36.768292" lon="-5.997079">
        <ele>101.992222</ele>
        <time>2020-08-17T07:44:01.073Z</time>
      </trkpt>
      <trkpt lat="36.768257" lon="-5.997206">
        <ele>101.805940</ele>
        <time>2020-08-17T07:44:07.064Z</time>
      </trkpt>
      <trkpt lat="36.768223" lon="-5.997318">
        <ele>102.055032</ele>
        <time>2020-08-17T07:44:11.072Z</time>
      </trkpt>
      <trkpt lat="36.768162" lon="-5.997404">
        <ele>102.293923</ele>
        <time>2020-08-17T07:44:14.070Z</time>
      </trkpt>
      <trkpt lat="36.768092" lon="-5.997499">
        <ele>102.562365</ele>
        <time>2020-08-17T07:44:17.081Z</time>
      </trkpt>
      <trkpt lat="36.768044" lon="-5.997622">
        <ele>102.846908</ele>
        <time>2020-08-17T07:44:20.075Z</time>
      </trkpt>
      <trkpt lat="36.767980" lon="-5.997708">
        <ele>103.091033</ele>
        <time>2020-08-17T07:44:23.069Z</time>
      </trkpt>
      <trkpt lat="36.767851" lon="-5.997794">
        <ele>103.470706</ele>
        <time>2020-08-17T07:44:26.060Z</time>
      </trkpt>
      <trkpt lat="36.767712" lon="-5.997980">
        <ele>103.999725</ele>
        <time>2020-08-17T07:44:51.057Z</time>
      </trkpt>
      <trkpt lat="36.767489" lon="-5.998063">
        <ele>104.603858</ele>
        <time>2020-08-17T07:44:53.043Z</time>
      </trkpt>
      <trkpt lat="36.767397" lon="-5.998146">
        <ele>104.898553</ele>
        <time>2020-08-17T07:44:56.063Z</time>
      </trkpt>
      <trkpt lat="36.767324" lon="-5.998254">
        <ele>105.192437</ele>
        <time>2020-08-17T07:45:01.079Z</time>
      </trkpt>
      <trkpt lat="36.767157" lon="-5.998705">
        <ele>106.225753</ele>
        <time>2020-08-17T07:45:04.062Z</time>
      </trkpt>
      <trkpt lat="36.767193" lon="-5.998876">
        <ele>106.793214</ele>
        <time>2020-08-17T07:45:20.064Z</time>
      </trkpt>
      <trkpt lat="36.767075" lon="-5.998973">
        <ele>107.718994</ele>
        <time>2020-08-17T07:45:22.050Z</time>
      </trkpt>
      <trkpt lat="36.766978" lon="-5.999019">
        <ele>108.398905</ele>
        <time>2020-08-17T07:45:24.063Z</time>
      </trkpt>
      <trkpt lat="36.766946" lon="-5.999246">
        <ele>109.608748</ele>
        <time>2020-08-17T07:45:29.080Z</time>
      </trkpt>
      <trkpt lat="36.766277" lon="-5.999708">
        <ele>114.618448</ele>
        <time>2020-08-17T07:45:30.070Z</time>
      </trkpt>
      <trkpt lat="36.766200" lon="-5.999842">
        <ele>115.484073</ele>
        <time>2020-08-17T07:45:32.068Z</time>
      </trkpt>
      <trkpt lat="36.766132" lon="-5.999984">
        <ele>116.352469</ele>
        <time>2020-08-17T07:45:34.077Z</time>
      </trkpt>
      <trkpt lat="36.766022" lon="-6.000101">
        <ele>117.299407</ele>
        <time>2020-08-17T07:45:35.068Z</time>
      </trkpt>
      <trkpt lat="36.765999" lon="-6.000215">
        <ele>117.916493</ele>
        <time>2020-08-17T07:45:38.066Z</time>
      </trkpt>
      <trkpt lat="36.765935" lon="-6.000337">
        <ele>117.743913</ele>
        <time>2020-08-17T07:45:40.071Z</time>
      </trkpt>
      <trkpt lat="36.765865" lon="-6.000479">
        <ele>116.727389</ele>
        <time>2020-08-17T07:45:42.065Z</time>
      </trkpt>
      <trkpt lat="36.765755" lon="-6.000608">
        <ele>115.578737</ele>
        <time>2020-08-17T07:45:44.067Z</time>
      </trkpt>
      <trkpt lat="36.765667" lon="-6.000710">
        <ele>114.664808</ele>
        <time>2020-08-17T07:45:46.072Z</time>
      </trkpt>
      <trkpt lat="36.765655" lon="-6.000837">
        <ele>113.885150</ele>
        <time>2020-08-17T07:45:48.068Z</time>
      </trkpt>
      <trkpt lat="36.765590" lon="-6.000967">
        <ele>112.950857</ele>
        <time>2020-08-17T07:45:50.070Z</time>
      </trkpt>
      <trkpt lat="36.765547" lon="-6.001136">
        <ele>111.869778</ele>
        <time>2020-08-17T07:45:52.075Z</time>
      </trkpt>
      <trkpt lat="36.765474" lon="-6.001292">
        <ele>110.768301</ele>
        <time>2020-08-17T07:45:54.069Z</time>
      </trkpt>
      <trkpt lat="36.765414" lon="-6.001477">
        <ele>109.551464</ele>
        <time>2020-08-17T07:45:56.069Z</time>
      </trkpt>
      <trkpt lat="36.765374" lon="-6.001652">
        <ele>108.441944</ele>
        <time>2020-08-17T07:45:58.062Z</time>
      </trkpt>
      <trkpt lat="36.765341" lon="-6.001768">
        <ele>107.691445</ele>
        <time>2020-08-17T07:46:00.081Z</time>
      </trkpt>
      <trkpt lat="36.765256" lon="-6.001923">
        <ele>106.546231</ele>
        <time>2020-08-17T07:46:02.070Z</time>
      </trkpt>
      <trkpt lat="36.765191" lon="-6.002059">
        <ele>105.580708</ele>
        <time>2020-08-17T07:46:04.071Z</time>
      </trkpt>
      <trkpt lat="36.765124" lon="-6.002166">
        <ele>104.752709</ele>
        <time>2020-08-17T07:46:06.073Z</time>
      </trkpt>
      <trkpt lat="36.765076" lon="-6.002286">
        <ele>104.510416</ele>
        <time>2020-08-17T07:46:08.072Z</time>
      </trkpt>
      <trkpt lat="36.765025" lon="-6.002418">
        <ele>104.440553</ele>
        <time>2020-08-17T07:46:10.059Z</time>
      </trkpt>
      <trkpt lat="36.764933" lon="-6.002527">
        <ele>104.365073</ele>
        <time>2020-08-17T07:46:12.065Z</time>
      </trkpt>
      <trkpt lat="36.764882" lon="-6.002644">
        <ele>104.301574</ele>
        <time>2020-08-17T07:46:14.062Z</time>
      </trkpt>
      <trkpt lat="36.764810" lon="-6.002776">
        <ele>104.225446</ele>
        <time>2020-08-17T07:46:16.067Z</time>
      </trkpt>
      <trkpt lat="36.764751" lon="-6.002906">
        <ele>104.154218</ele>
        <time>2020-08-17T07:46:18.075Z</time>
      </trkpt>
      <trkpt lat="36.764691" lon="-6.003039">
        <ele>104.081452</ele>
        <time>2020-08-17T07:46:20.067Z</time>
      </trkpt>
      <trkpt lat="36.764632" lon="-6.003186">
        <ele>104.003071</ele>
        <time>2020-08-17T07:46:22.079Z</time>
      </trkpt>
      <trkpt lat="36.764546" lon="-6.003328">
        <ele>103.918209</ele>
        <time>2020-08-17T07:46:24.073Z</time>
      </trkpt>
      <trkpt lat="36.764471" lon="-6.003460">
        <ele>103.841062</ele>
        <time>2020-08-17T07:46:26.070Z</time>
      </trkpt>
      <trkpt lat="36.764398" lon="-6.003596">
        <ele>103.763020</ele>
        <time>2020-08-17T07:46:28.069Z</time>
      </trkpt>
      <trkpt lat="36.764351" lon="-6.003738">
        <ele>103.689775</ele>
        <time>2020-08-17T07:46:30.081Z</time>
      </trkpt>
      <trkpt lat="36.764274" lon="-6.003860">
        <ele>103.615733</ele>
        <time>2020-08-17T07:46:32.058Z</time>
      </trkpt>
      <trkpt lat="36.764210" lon="-6.004009">
        <ele>103.535136</ele>
        <time>2020-08-17T07:46:34.079Z</time>
      </trkpt>
      <trkpt lat="36.764153" lon="-6.004146">
        <ele>103.399511</ele>
        <time>2020-08-17T07:46:36.071Z</time>
      </trkpt>
      <trkpt lat="36.764083" lon="-6.004287">
        <ele>103.141074</ele>
        <time>2020-08-17T07:46:38.062Z</time>
      </trkpt>
      <trkpt lat="36.764025" lon="-6.004425">
        <ele>102.898281</ele>
        <time>2020-08-17T07:46:40.068Z</time>
      </trkpt>
      <trkpt lat="36.763971" lon="-6.004546">
        <ele>102.682488</ele>
        <time>2020-08-17T07:46:42.077Z</time>
      </trkpt>
      <trkpt lat="36.763900" lon="-6.004664">
        <ele>102.452567</ele>
        <time>2020-08-17T07:46:44.076Z</time>
      </trkpt>
      <trkpt lat="36.763831" lon="-6.004762">
        <ele>102.249297</ele>
        <time>2020-08-17T07:46:46.075Z</time>
      </trkpt>
      <trkpt lat="36.763755" lon="-6.004912">
        <ele>101.972783</ele>
        <time>2020-08-17T07:46:49.078Z</time>
      </trkpt>
      <trkpt lat="36.763675" lon="-6.005029">
        <ele>101.733131</ele>
        <time>2020-08-17T07:46:51.063Z</time>
      </trkpt>
      <trkpt lat="36.763641" lon="-6.005152">
        <ele>101.530412</ele>
        <time>2020-08-17T07:46:53.068Z</time>
      </trkpt>
      <trkpt lat="36.763582" lon="-6.005269">
        <ele>101.315021</ele>
        <time>2020-08-17T07:46:55.066Z</time>
      </trkpt>
      <trkpt lat="36.763528" lon="-6.005369">
        <ele>101.127133</ele>
        <time>2020-08-17T07:46:57.061Z</time>
      </trkpt>
      <trkpt lat="36.763490" lon="-6.005507">
        <ele>100.899784</ele>
        <time>2020-08-17T07:47:00.078Z</time>
      </trkpt>
      <trkpt lat="36.763436" lon="-6.005615">
        <ele>100.701438</ele>
        <time>2020-08-17T07:47:02.069Z</time>
      </trkpt>
      <trkpt lat="36.763360" lon="-6.005760">
        <ele>100.431475</ele>
        <time>2020-08-17T07:47:05.071Z</time>
      </trkpt>
      <trkpt lat="36.763311" lon="-6.005857">
        <ele>100.252814</ele>
        <time>2020-08-17T07:47:07.086Z</time>
      </trkpt>
      <trkpt lat="36.763254" lon="-6.005952">
        <ele>100.067895</ele>
        <time>2020-08-17T07:47:09.067Z</time>
      </trkpt>
      <trkpt lat="36.763170" lon="-6.006090">
        <ele>99.850346</ele>
        <time>2020-08-17T07:47:11.066Z</time>
      </trkpt>
      <trkpt lat="36.763118" lon="-6.006188">
        <ele>99.716987</ele>
        <time>2020-08-17T07:47:13.072Z</time>
      </trkpt>
      <trkpt lat="36.763024" lon="-6.006317">
        <ele>99.519148</ele>
        <time>2020-08-17T07:47:16.070Z</time>
      </trkpt>
      <trkpt lat="36.762977" lon="-6.006422">
        <ele>99.382689</ele>
        <time>2020-08-17T07:47:18.074Z</time>
      </trkpt>
      <trkpt lat="36.762903" lon="-6.006547">
        <ele>99.206355</ele>
        <time>2020-08-17T07:47:21.056Z</time>
      </trkpt>
      <trkpt lat="36.762877" lon="-6.006716">
        <ele>99.011117</ele>
        <time>2020-08-17T07:47:23.065Z</time>
      </trkpt>
      <trkpt lat="36.762833" lon="-6.006815">
        <ele>98.882672</ele>
        <time>2020-08-17T07:47:25.069Z</time>
      </trkpt>
      <trkpt lat="36.762768" lon="-6.006932">
        <ele>98.721139</ele>
        <time>2020-08-17T07:47:28.069Z</time>
      </trkpt>
      <trkpt lat="36.762745" lon="-6.007111">
        <ele>98.515463</ele>
        <time>2020-08-17T07:47:31.089Z</time>
      </trkpt>
      <trkpt lat="36.762687" lon="-6.007235">
        <ele>98.352559</ele>
        <time>2020-08-17T07:47:33.070Z</time>
      </trkpt>
      <trkpt lat="36.762660" lon="-6.007370">
        <ele>98.194697</ele>
        <time>2020-08-17T07:47:36.065Z</time>
      </trkpt>
      <trkpt lat="36.762595" lon="-6.007517">
        <ele>98.004205</ele>
        <time>2020-08-17T07:47:38.072Z</time>
      </trkpt>
      <trkpt lat="36.762530" lon="-6.007647">
        <ele>97.830347</ele>
        <time>2020-08-17T07:47:40.061Z</time>
      </trkpt>
      <trkpt lat="36.762458" lon="-6.007776">
        <ele>97.651976</ele>
        <time>2020-08-17T07:47:42.074Z</time>
      </trkpt>
      <trkpt lat="36.762368" lon="-6.007886">
        <ele>97.473596</ele>
        <time>2020-08-17T07:47:44.075Z</time>
      </trkpt>
      <trkpt lat="36.762294" lon="-6.008030">
        <ele>96.864324</ele>
        <time>2020-08-17T07:47:46.075Z</time>
      </trkpt>
      <trkpt lat="36.762194" lon="-6.008167">
        <ele>96.122516</ele>
        <time>2020-08-17T07:47:48.075Z</time>
      </trkpt>
      <trkpt lat="36.762150" lon="-6.008301">
        <ele>95.542883</ele>
        <time>2020-08-17T07:47:50.071Z</time>
      </trkpt>
      <trkpt lat="36.762088" lon="-6.008458">
        <ele>94.842297</ele>
        <time>2020-08-17T07:47:52.078Z</time>
      </trkpt>
      <trkpt lat="36.762015" lon="-6.008602">
        <ele>94.160241</ele>
        <time>2020-08-17T07:47:54.072Z</time>
      </trkpt>
      <trkpt lat="36.761931" lon="-6.008715">
        <ele>93.543249</ele>
        <time>2020-08-17T07:47:56.070Z</time>
      </trkpt>
      <trkpt lat="36.761850" lon="-6.008865">
        <ele>92.819223</ele>
        <time>2020-08-17T07:47:58.070Z</time>
      </trkpt>
      <trkpt lat="36.761761" lon="-6.009005">
        <ele>92.103889</ele>
        <time>2020-08-17T07:48:00.068Z</time>
      </trkpt>
      <trkpt lat="36.761677" lon="-6.009145">
        <ele>91.403809</ele>
        <time>2020-08-17T07:48:02.066Z</time>
      </trkpt>
      <trkpt lat="36.761587" lon="-6.009306">
        <ele>90.618039</ele>
        <time>2020-08-17T07:48:04.075Z</time>
      </trkpt>
      <trkpt lat="36.761464" lon="-6.009449">
        <ele>89.778264</ele>
        <time>2020-08-17T07:48:06.065Z</time>
      </trkpt>
      <trkpt lat="36.761358" lon="-6.009585">
        <ele>89.018815</ele>
        <time>2020-08-17T07:48:08.063Z</time>
      </trkpt>
      <trkpt lat="36.761260" lon="-6.009709">
        <ele>88.852182</ele>
        <time>2020-08-17T07:48:10.078Z</time>
      </trkpt>
      <trkpt lat="36.761144" lon="-6.009845">
        <ele>91.159113</ele>
        <time>2020-08-17T07:48:12.068Z</time>
      </trkpt>
      <trkpt lat="36.761039" lon="-6.010006">
        <ele>93.570024</ele>
        <time>2020-08-17T07:48:14.088Z</time>
      </trkpt>
      <trkpt lat="36.760957" lon="-6.010152">
        <ele>95.640697</ele>
        <time>2020-08-17T07:48:16.065Z</time>
      </trkpt>
      <trkpt lat="36.760903" lon="-6.010308">
        <ele>97.614226</ele>
        <time>2020-08-17T07:48:18.064Z</time>
      </trkpt>
      <trkpt lat="36.760836" lon="-6.010386">
        <ele>98.942302</ele>
        <time>2020-08-17T07:48:19.071Z</time>
      </trkpt>
      <trkpt lat="36.760757" lon="-6.010445">
        <ele>100.276797</ele>
        <time>2020-08-17T07:48:20.060Z</time>
      </trkpt>
      <trkpt lat="36.760669" lon="-6.010527">
        <ele>101.868674</ele>
        <time>2020-08-17T07:48:21.063Z</time>
      </trkpt>
      <trkpt lat="36.760557" lon="-6.010666">
        <ele>104.158128</ele>
        <time>2020-08-17T07:48:23.083Z</time>
      </trkpt>
      <trkpt lat="36.760508" lon="-6.010788">
        <ele>105.743018</ele>
        <time>2020-08-17T07:48:24.091Z</time>
      </trkpt>
      <trkpt lat="36.760433" lon="-6.010878">
        <ele>107.251127</ele>
        <time>2020-08-17T07:48:25.080Z</time>
      </trkpt>
      <trkpt lat="36.760323" lon="-6.010989">
        <ele>109.301553</ele>
        <time>2020-08-17T07:48:27.065Z</time>
      </trkpt>
      <trkpt lat="36.760224" lon="-6.011105">
        <ele>111.269863</ele>
        <time>2020-08-17T07:48:29.071Z</time>
      </trkpt>
      <trkpt lat="36.760154" lon="-6.011217">
        <ele>112.919533</ele>
        <time>2020-08-17T07:48:31.077Z</time>
      </trkpt>
      <trkpt lat="36.760095" lon="-6.011350">
        <ele>114.501645</ele>
        <time>2020-08-17T07:48:33.078Z</time>
      </trkpt>
      <trkpt lat="36.759998" lon="-6.011467">
        <ele>114.138307</ele>
        <time>2020-08-17T07:48:35.081Z</time>
      </trkpt>
      <trkpt lat="36.759939" lon="-6.011569">
        <ele>113.866818</ele>
        <time>2020-08-17T07:48:37.088Z</time>
      </trkpt>
      <trkpt lat="36.759869" lon="-6.011677">
        <ele>113.567036</ele>
        <time>2020-08-17T07:48:39.059Z</time>
      </trkpt>
      <trkpt lat="36.759799" lon="-6.011765">
        <ele>113.299426</ele>
        <time>2020-08-17T07:48:41.071Z</time>
      </trkpt>
      <trkpt lat="36.759722" lon="-6.011868">
        <ele>112.995416</ele>
        <time>2020-08-17T07:48:43.067Z</time>
      </trkpt>
      <trkpt lat="36.759655" lon="-6.011978">
        <ele>112.697224</ele>
        <time>2020-08-17T07:48:45.089Z</time>
      </trkpt>
      <trkpt lat="36.759591" lon="-6.012080">
        <ele>112.417637</ele>
        <time>2020-08-17T07:48:47.071Z</time>
      </trkpt>
      <trkpt lat="36.759508" lon="-6.012195">
        <ele>112.083615</ele>
        <time>2020-08-17T07:48:49.077Z</time>
      </trkpt>
      <trkpt lat="36.759446" lon="-6.012290">
        <ele>111.819194</ele>
        <time>2020-08-17T07:48:51.078Z</time>
      </trkpt>
      <trkpt lat="36.759391" lon="-6.012413">
        <ele>111.515216</ele>
        <time>2020-08-17T07:48:53.058Z</time>
      </trkpt>
      <trkpt lat="36.759308" lon="-6.012489">
        <ele>111.237941</ele>
        <time>2020-08-17T07:48:55.051Z</time>
      </trkpt>
      <trkpt lat="36.759232" lon="-6.012564">
        <ele>110.976976</ele>
        <time>2020-08-17T07:48:57.080Z</time>
      </trkpt>
      <trkpt lat="36.759166" lon="-6.012643">
        <ele>110.730665</ele>
        <time>2020-08-17T07:48:59.068Z</time>
      </trkpt>
      <trkpt lat="36.759120" lon="-6.012768">
        <ele>110.433819</ele>
        <time>2020-08-17T07:49:02.077Z</time>
      </trkpt>
      <trkpt lat="36.759062" lon="-6.012865">
        <ele>110.172621</ele>
        <time>2020-08-17T07:49:04.069Z</time>
      </trkpt>
      <trkpt lat="36.759018" lon="-6.012980">
        <ele>109.897602</ele>
        <time>2020-08-17T07:49:07.065Z</time>
      </trkpt>
      <trkpt lat="36.758934" lon="-6.013111">
        <ele>109.522200</ele>
        <time>2020-08-17T07:49:10.068Z</time>
      </trkpt>
      <trkpt lat="36.758895" lon="-6.013230">
        <ele>109.220136</ele>
        <time>2020-08-17T07:49:13.063Z</time>
      </trkpt>
      <trkpt lat="36.758843" lon="-6.013345">
        <ele>108.909896</ele>
        <time>2020-08-17T07:49:16.067Z</time>
      </trkpt>
      <trkpt lat="36.758778" lon="-6.013450">
        <ele>108.598150</ele>
        <time>2020-08-17T07:49:19.064Z</time>
      </trkpt>
      <trkpt lat="36.758717" lon="-6.013536">
        <ele>108.328296</ele>
        <time>2020-08-17T07:49:22.068Z</time>
      </trkpt>
      <trkpt lat="36.758641" lon="-6.013637">
        <ele>108.002757</ele>
        <time>2020-08-17T07:49:26.097Z</time>
      </trkpt>
      <trkpt lat="36.758592" lon="-6.013735">
        <ele>107.731358</ele>
        <time>2020-08-17T07:49:30.069Z</time>
      </trkpt>
      <trkpt lat="36.758546" lon="-6.013852">
        <ele>107.425165</ele>
        <time>2020-08-17T07:49:35.073Z</time>
      </trkpt>
      <trkpt lat="36.758492" lon="-6.013972">
        <ele>107.101810</ele>
        <time>2020-08-17T07:49:40.066Z</time>
      </trkpt>
      <trkpt lat="36.758434" lon="-6.014085">
        <ele>106.786519</ele>
        <time>2020-08-17T07:49:45.066Z</time>
      </trkpt>
      <trkpt lat="36.758373" lon="-6.014179">
        <ele>106.502318</ele>
        <time>2020-08-17T07:49:49.072Z</time>
      </trkpt>
      <trkpt lat="36.758309" lon="-6.014283">
        <ele>106.194222</ele>
        <time>2020-08-17T07:49:53.067Z</time>
      </trkpt>
      <trkpt lat="36.758263" lon="-6.014389">
        <ele>105.910999</ele>
        <time>2020-08-17T07:49:57.057Z</time>
      </trkpt>
      <trkpt lat="36.758205" lon="-6.014489">
        <ele>105.620956</ele>
        <time>2020-08-17T07:50:01.068Z</time>
      </trkpt>
      <trkpt lat="36.758172" lon="-6.014618">
        <ele>105.302808</ele>
        <time>2020-08-17T07:50:05.074Z</time>
      </trkpt>
      <trkpt lat="36.758137" lon="-6.014725">
        <ele>105.031277</ele>
        <time>2020-08-17T07:50:09.071Z</time>
      </trkpt>
      <trkpt lat="36.758100" lon="-6.014839">
        <ele>104.742303</ele>
        <time>2020-08-17T07:50:13.069Z</time>
      </trkpt>
      <trkpt lat="36.758048" lon="-6.014950">
        <ele>104.440209</ele>
        <time>2020-08-17T07:50:17.043Z</time>
      </trkpt>
      <trkpt lat="36.758008" lon="-6.015080">
        <ele>103.548184</ele>
        <time>2020-08-17T07:50:21.069Z</time>
      </trkpt>
      <trkpt lat="36.757967" lon="-6.015198">
        <ele>102.673364</ele>
        <time>2020-08-17T07:50:24.069Z</time>
      </trkpt>
      <trkpt lat="36.757913" lon="-6.015321">
        <ele>101.719389</ele>
        <time>2020-08-17T07:50:27.093Z</time>
      </trkpt>
      <trkpt lat="36.757873" lon="-6.015429">
        <ele>100.910118</ele>
        <time>2020-08-17T07:50:30.070Z</time>
      </trkpt>
      <trkpt lat="36.757831" lon="-6.015558">
        <ele>99.963023</ele>
        <time>2020-08-17T07:50:34.065Z</time>
      </trkpt>
      <trkpt lat="36.757806" lon="-6.015676">
        <ele>99.132840</ele>
        <time>2020-08-17T07:50:37.078Z</time>
      </trkpt>
      <trkpt lat="36.757770" lon="-6.015793">
        <ele>98.280377</ele>
        <time>2020-08-17T07:50:40.046Z</time>
      </trkpt>
      <trkpt lat="36.757734" lon="-6.015921">
        <ele>97.357680</ele>
        <time>2020-08-17T07:50:45.056Z</time>
      </trkpt>
      <trkpt lat="36.757716" lon="-6.016051">
        <ele>96.460357</ele>
        <time>2020-08-17T07:50:49.067Z</time>
      </trkpt>
      <trkpt lat="36.757739" lon="-6.016176">
        <ele>95.588017</ele>
        <time>2020-08-17T07:50:55.054Z</time>
      </trkpt>
      <trkpt lat="36.757734" lon="-6.016300">
        <ele>94.743545</ele>
        <time>2020-08-17T07:50:58.061Z</time>
      </trkpt>
      <trkpt lat="36.757709" lon="-6.016409">
        <ele>93.972383</ele>
        <time>2020-08-17T07:51:00.048Z</time>
      </trkpt>
      <trkpt lat="36.757647" lon="-6.016558">
        <ele>92.830400</ele>
        <time>2020-08-17T07:51:03.060Z</time>
      </trkpt>
      <trkpt lat="36.757603" lon="-6.016701">
        <ele>91.788499</ele>
        <time>2020-08-17T07:51:06.080Z</time>
      </trkpt>
      <trkpt lat="36.757534" lon="-6.016845">
        <ele>90.647252</ele>
        <time>2020-08-17T07:51:08.067Z</time>
      </trkpt>
      <trkpt lat="36.757484" lon="-6.016944">
        <ele>89.851259</ele>
        <time>2020-08-17T07:51:10.067Z</time>
      </trkpt>
      <trkpt lat="36.757491" lon="-6.017056">
        <ele>89.146256</ele>
        <time>2020-08-17T07:51:12.076Z</time>
      </trkpt>
      <trkpt lat="36.757422" lon="-6.017181">
        <ele>89.240407</ele>
        <time>2020-08-17T07:51:15.070Z</time>
      </trkpt>
      <trkpt lat="36.757410" lon="-6.017306">
        <ele>89.318493</ele>
        <time>2020-08-17T07:51:18.053Z</time>
      </trkpt>
      <trkpt lat="36.757381" lon="-6.017467">
        <ele>89.420846</ele>
        <time>2020-08-17T07:51:21.070Z</time>
      </trkpt>
      <trkpt lat="36.757334" lon="-6.017654">
        <ele>89.542407</ele>
        <time>2020-08-17T07:51:24.058Z</time>
      </trkpt>
      <trkpt lat="36.757320" lon="-6.017791">
        <ele>89.628069</ele>
        <time>2020-08-17T07:51:26.074Z</time>
      </trkpt>
      <trkpt lat="36.757294" lon="-6.017945">
        <ele>89.725686</ele>
        <time>2020-08-17T07:51:29.069Z</time>
      </trkpt>
      <trkpt lat="36.757275" lon="-6.018128">
        <ele>89.840141</ele>
        <time>2020-08-17T07:51:32.079Z</time>
      </trkpt>
      <trkpt lat="36.757229" lon="-6.018289">
        <ele>89.946161</ele>
        <time>2020-08-17T07:51:35.070Z</time>
      </trkpt>
      <trkpt lat="36.757193" lon="-6.018425">
        <ele>90.035000</ele>
        <time>2020-08-17T07:51:38.077Z</time>
      </trkpt>
      <trkpt lat="36.757163" lon="-6.018534">
        <ele>90.106486</ele>
        <time>2020-08-17T07:51:40.069Z</time>
      </trkpt>
      <trkpt lat="36.757148" lon="-6.018648">
        <ele>90.178142</ele>
        <time>2020-08-17T07:51:42.058Z</time>
      </trkpt>
      <trkpt lat="36.757125" lon="-6.018787">
        <ele>90.266176</ele>
        <time>2020-08-17T07:51:45.071Z</time>
      </trkpt>
      <trkpt lat="36.757105" lon="-6.018906">
        <ele>90.341593</ele>
        <time>2020-08-17T07:51:48.078Z</time>
      </trkpt>
      <trkpt lat="36.757081" lon="-6.019049">
        <ele>90.432214</ele>
        <time>2020-08-17T07:51:52.078Z</time>
      </trkpt>
      <trkpt lat="36.757042" lon="-6.019186">
        <ele>90.522394</ele>
        <time>2020-08-17T07:51:55.072Z</time>
      </trkpt>
      <trkpt lat="36.756990" lon="-6.019301">
        <ele>91.363627</ele>
        <time>2020-08-17T07:51:57.070Z</time>
      </trkpt>
      <trkpt lat="36.756969" lon="-6.019432">
        <ele>92.338743</ele>
        <time>2020-08-17T07:51:59.070Z</time>
      </trkpt>
      <trkpt lat="36.756880" lon="-6.019589">
        <ele>93.742520</ele>
        <time>2020-08-17T07:52:01.076Z</time>
      </trkpt>
      <trkpt lat="36.756824" lon="-6.019741">
        <ele>94.963644</ele>
        <time>2020-08-17T07:52:03.067Z</time>
      </trkpt>
      <trkpt lat="36.756821" lon="-6.019879">
        <ele>95.971273</ele>
        <time>2020-08-17T07:52:05.061Z</time>
      </trkpt>
      <trkpt lat="36.756769" lon="-6.020036">
        <ele>97.211274</ele>
        <time>2020-08-17T07:52:08.073Z</time>
      </trkpt>
      <trkpt lat="36.756736" lon="-6.020146">
        <ele>98.068603</ele>
        <time>2020-08-17T07:52:10.051Z</time>
      </trkpt>
      <trkpt lat="36.756683" lon="-6.020336">
        <ele>99.537062</ele>
        <time>2020-08-17T07:52:13.069Z</time>
      </trkpt>
      <trkpt lat="36.756629" lon="-6.020459">
        <ele>100.560790</ele>
        <time>2020-08-17T07:52:15.070Z</time>
      </trkpt>
      <trkpt lat="36.756597" lon="-6.020568">
        <ele>101.408111</ele>
        <time>2020-08-17T07:52:17.066Z</time>
      </trkpt>
      <trkpt lat="36.756548" lon="-6.020682">
        <ele>102.352380</ele>
        <time>2020-08-17T07:52:19.070Z</time>
      </trkpt>
      <trkpt lat="36.756482" lon="-6.020822">
        <ele>103.538016</ele>
        <time>2020-08-17T07:52:21.078Z</time>
      </trkpt>
      <trkpt lat="36.756394" lon="-6.020971">
        <ele>104.889126</ele>
        <time>2020-08-17T07:52:23.058Z</time>
      </trkpt>
      <trkpt lat="36.756325" lon="-6.021080">
        <ele>105.903086</ele>
        <time>2020-08-17T07:52:25.076Z</time>
      </trkpt>
      <trkpt lat="36.756381" lon="-6.021186">
        <ele>106.829846</ele>
        <time>2020-08-17T07:52:27.067Z</time>
      </trkpt>
      <trkpt lat="36.756320" lon="-6.021309">
        <ele>106.023092</ele>
        <time>2020-08-17T07:52:29.069Z</time>
      </trkpt>
      <trkpt lat="36.756279" lon="-6.021432">
        <ele>105.120226</ele>
        <time>2020-08-17T07:52:31.069Z</time>
      </trkpt>
      <trkpt lat="36.756224" lon="-6.021580">
        <ele>104.014551</ele>
        <time>2020-08-17T07:52:33.070Z</time>
      </trkpt>
      <trkpt lat="36.756190" lon="-6.021724">
        <ele>102.997134</ele>
        <time>2020-08-17T07:52:35.075Z</time>
      </trkpt>
      <trkpt lat="36.756195" lon="-6.021851">
        <ele>102.135387</ele>
        <time>2020-08-17T07:52:38.072Z</time>
      </trkpt>
      <trkpt lat="36.756155" lon="-6.021953">
        <ele>101.365744</ele>
        <time>2020-08-17T07:52:40.076Z</time>
      </trkpt>
      <trkpt lat="36.756085" lon="-6.022087">
        <ele>100.281609</ele>
        <time>2020-08-17T07:52:42.067Z</time>
      </trkpt>
      <trkpt lat="36.756026" lon="-6.022184">
        <ele>99.456234</ele>
        <time>2020-08-17T07:52:44.077Z</time>
      </trkpt>
      <trkpt lat="36.755958" lon="-6.022297">
        <ele>98.498445</ele>
        <time>2020-08-17T07:52:45.067Z</time>
      </trkpt>
      <trkpt lat="36.755899" lon="-6.022399">
        <ele>97.645833</ele>
        <time>2020-08-17T07:52:48.074Z</time>
      </trkpt>
      <trkpt lat="36.755854" lon="-6.022537">
        <ele>96.636076</ele>
        <time>2020-08-17T07:52:51.074Z</time>
      </trkpt>
      <trkpt lat="36.755822" lon="-6.022673">
        <ele>95.675443</ele>
        <time>2020-08-17T07:52:53.072Z</time>
      </trkpt>
      <trkpt lat="36.755766" lon="-6.022787">
        <ele>94.769178</ele>
        <time>2020-08-17T07:52:57.070Z</time>
      </trkpt>
      <trkpt lat="36.755696" lon="-6.022922">
        <ele>93.679355</ele>
        <time>2020-08-17T07:53:00.080Z</time>
      </trkpt>
      <trkpt lat="36.755625" lon="-6.023050">
        <ele>92.624251</ele>
        <time>2020-08-17T07:53:03.074Z</time>
      </trkpt>
      <trkpt lat="36.755615" lon="-6.023199">
        <ele>91.692297</ele>
        <time>2020-08-17T07:53:06.072Z</time>
      </trkpt>
      <trkpt lat="36.755612" lon="-6.023311">
        <ele>91.588206</ele>
        <time>2020-08-17T07:53:09.067Z</time>
      </trkpt>
      <trkpt lat="36.755527" lon="-6.023370">
        <ele>91.475447</ele>
        <time>2020-08-17T07:53:11.059Z</time>
      </trkpt>
      <trkpt lat="36.755475" lon="-6.023465">
        <ele>91.368578</ele>
        <time>2020-08-17T07:53:13.068Z</time>
      </trkpt>
      <trkpt lat="36.755388" lon="-6.023586">
        <ele>91.217562</ele>
        <time>2020-08-17T07:53:16.078Z</time>
      </trkpt>
      <trkpt lat="36.754559" lon="-6.024290">
        <ele>90.055093</ele>
        <time>2020-08-17T07:53:37.075Z</time>
      </trkpt>
      <trkpt lat="36.754445" lon="-6.024415">
        <ele>89.879168</ele>
        <time>2020-08-17T07:53:40.064Z</time>
      </trkpt>
      <trkpt lat="36.754372" lon="-6.024545">
        <ele>89.731709</ele>
        <time>2020-08-17T07:53:43.052Z</time>
      </trkpt>
      <trkpt lat="36.754284" lon="-6.024657">
        <ele>89.399548</ele>
        <time>2020-08-17T07:53:46.044Z</time>
      </trkpt>
      <trkpt lat="36.754187" lon="-6.024711">
        <ele>88.600563</ele>
        <time>2020-08-17T07:53:48.063Z</time>
      </trkpt>
      <trkpt lat="36.754108" lon="-6.024839">
        <ele>87.626729</ele>
        <time>2020-08-17T07:53:51.062Z</time>
      </trkpt>
      <trkpt lat="36.754069" lon="-6.024944">
        <ele>86.929179</ele>
        <time>2020-08-17T07:53:53.054Z</time>
      </trkpt>
      <trkpt lat="36.754011" lon="-6.025032">
        <ele>86.242388</ele>
        <time>2020-08-17T07:53:55.068Z</time>
      </trkpt>
      <trkpt lat="36.753976" lon="-6.025138">
        <ele>85.551381</ele>
        <time>2020-08-17T07:53:57.059Z</time>
      </trkpt>
      <trkpt lat="36.753929" lon="-6.025239">
        <ele>84.847408</ele>
        <time>2020-08-17T07:53:59.056Z</time>
      </trkpt>
      <trkpt lat="36.753841" lon="-6.025354">
        <ele>83.888945</ele>
        <time>2020-08-17T07:54:01.076Z</time>
      </trkpt>
      <trkpt lat="36.753751" lon="-6.025506">
        <ele>82.749789</ele>
        <time>2020-08-17T07:54:04.056Z</time>
      </trkpt>
      <trkpt lat="36.753661" lon="-6.025606">
        <ele>81.843343</ele>
        <time>2020-08-17T07:54:06.057Z</time>
      </trkpt>
      <trkpt lat="36.753584" lon="-6.025702">
        <ele>81.024618</ele>
        <time>2020-08-17T07:54:08.063Z</time>
      </trkpt>
      <trkpt lat="36.753530" lon="-6.025830">
        <ele>80.152722</ele>
        <time>2020-08-17T07:54:10.063Z</time>
      </trkpt>
      <trkpt lat="36.753439" lon="-6.025935">
        <ele>79.220453</ele>
        <time>2020-08-17T07:54:12.055Z</time>
      </trkpt>
      <trkpt lat="36.753341" lon="-6.026052">
        <ele>78.200271</ele>
        <time>2020-08-17T07:54:14.056Z</time>
      </trkpt>
      <trkpt lat="36.753279" lon="-6.026181">
        <ele>77.293598</ele>
        <time>2020-08-17T07:54:16.058Z</time>
      </trkpt>
      <trkpt lat="36.753192" lon="-6.026285">
        <ele>76.387373</ele>
        <time>2020-08-17T07:54:18.060Z</time>
      </trkpt>
      <trkpt lat="36.753130" lon="-6.026389">
        <ele>76.213404</ele>
        <time>2020-08-17T07:54:20.063Z</time>
      </trkpt>
      <trkpt lat="36.753046" lon="-6.026516">
        <ele>76.467737</ele>
        <time>2020-08-17T07:54:22.056Z</time>
      </trkpt>
      <trkpt lat="36.752961" lon="-6.026639">
        <ele>76.718592</ele>
        <time>2020-08-17T07:54:24.057Z</time>
      </trkpt>
      <trkpt lat="36.752888" lon="-6.026768">
        <ele>76.962498</ele>
        <time>2020-08-17T07:54:26.051Z</time>
      </trkpt>
      <trkpt lat="36.752792" lon="-6.026897">
        <ele>77.234402</ele>
        <time>2020-08-17T07:54:28.041Z</time>
      </trkpt>
      <trkpt lat="36.752718" lon="-6.027008">
        <ele>77.457411</ele>
        <time>2020-08-17T07:54:30.055Z</time>
      </trkpt>
      <trkpt lat="36.752639" lon="-6.027142">
        <ele>77.714345</ele>
        <time>2020-08-17T07:54:32.056Z</time>
      </trkpt>
      <trkpt lat="36.752551" lon="-6.027260">
        <ele>77.963309</ele>
        <time>2020-08-17T07:54:34.058Z</time>
      </trkpt>
      <trkpt lat="36.752458" lon="-6.027375">
        <ele>78.215654</ele>
        <time>2020-08-17T07:54:36.056Z</time>
      </trkpt>
      <trkpt lat="36.752381" lon="-6.027516">
        <ele>78.479184</ele>
        <time>2020-08-17T07:54:38.047Z</time>
      </trkpt>
      <trkpt lat="36.752298" lon="-6.027647">
        <ele>78.737112</ele>
        <time>2020-08-17T07:54:40.060Z</time>
      </trkpt>
      <trkpt lat="36.752222" lon="-6.027774">
        <ele>78.981919</ele>
        <time>2020-08-17T07:54:42.065Z</time>
      </trkpt>
      <trkpt lat="36.752130" lon="-6.027894">
        <ele>79.238422</ele>
        <time>2020-08-17T07:54:44.051Z</time>
      </trkpt>
      <trkpt lat="36.752050" lon="-6.027991">
        <ele>79.453412</ele>
        <time>2020-08-17T07:54:46.072Z</time>
      </trkpt>
      <trkpt lat="36.751944" lon="-6.028114">
        <ele>79.503570</ele>
        <time>2020-08-17T07:54:48.058Z</time>
      </trkpt>
      <trkpt lat="36.751863" lon="-6.028247">
        <ele>79.425985</ele>
        <time>2020-08-17T07:54:50.070Z</time>
      </trkpt>
      <trkpt lat="36.751766" lon="-6.028344">
        <ele>79.353940</ele>
        <time>2020-08-17T07:54:52.069Z</time>
      </trkpt>
      <trkpt lat="36.751694" lon="-6.028445">
        <ele>79.291156</ele>
        <time>2020-08-17T07:54:54.057Z</time>
      </trkpt>
      <trkpt lat="36.751618" lon="-6.028564">
        <ele>79.220482</ele>
        <time>2020-08-17T07:54:56.061Z</time>
      </trkpt>
      <trkpt lat="36.751525" lon="-6.028663">
        <ele>79.149633</ele>
        <time>2020-08-17T07:54:58.060Z</time>
      </trkpt>
      <trkpt lat="36.751423" lon="-6.028781">
        <ele>79.069019</ele>
        <time>2020-08-17T07:55:00.061Z</time>
      </trkpt>
      <trkpt lat="36.751323" lon="-6.028881">
        <ele>78.994746</ele>
        <time>2020-08-17T07:55:02.059Z</time>
      </trkpt>
      <trkpt lat="36.751231" lon="-6.028973">
        <ele>78.926415</ele>
        <time>2020-08-17T07:55:04.047Z</time>
      </trkpt>
      <trkpt lat="36.751149" lon="-6.029075">
        <ele>78.859311</ele>
        <time>2020-08-17T07:55:06.051Z</time>
      </trkpt>
      <trkpt lat="36.751071" lon="-6.029220">
        <ele>78.778201</ele>
        <time>2020-08-17T07:55:08.065Z</time>
      </trkpt>
      <trkpt lat="36.750968" lon="-6.029321">
        <ele>78.702277</ele>
        <time>2020-08-17T07:55:10.064Z</time>
      </trkpt>
      <trkpt lat="36.750896" lon="-6.029433">
        <ele>78.635589</ele>
        <time>2020-08-17T07:55:12.057Z</time>
      </trkpt>
      <trkpt lat="36.750812" lon="-6.029548">
        <ele>78.563319</ele>
        <time>2020-08-17T07:55:14.065Z</time>
      </trkpt>
      <trkpt lat="36.750755" lon="-6.029680">
        <ele>78.847349</ele>
        <time>2020-08-17T07:55:16.063Z</time>
      </trkpt>
      <trkpt lat="36.750714" lon="-6.029809">
        <ele>79.908281</ele>
        <time>2020-08-17T07:55:18.052Z</time>
      </trkpt>
      <trkpt lat="36.750656" lon="-6.029927">
        <ele>80.966581</ele>
        <time>2020-08-17T07:55:20.055Z</time>
      </trkpt>
      <trkpt lat="36.750608" lon="-6.030058">
        <ele>82.067801</ele>
        <time>2020-08-17T07:55:22.053Z</time>
      </trkpt>
      <trkpt lat="36.750611" lon="-6.030211">
        <ele>83.237808</ele>
        <time>2020-08-17T07:55:24.064Z</time>
      </trkpt>
      <trkpt lat="36.750519" lon="-6.030328">
        <ele>84.491019</ele>
        <time>2020-08-17T07:55:26.055Z</time>
      </trkpt>
      <trkpt lat="36.750495" lon="-6.030452">
        <ele>85.466242</ele>
        <time>2020-08-17T07:55:28.064Z</time>
      </trkpt>
      <trkpt lat="36.750422" lon="-6.030518">
        <ele>86.326299</ele>
        <time>2020-08-17T07:55:29.059Z</time>
      </trkpt>
      <trkpt lat="36.750401" lon="-6.030642">
        <ele>87.295202</ele>
        <time>2020-08-17T07:55:31.054Z</time>
      </trkpt>
      <trkpt lat="36.750324" lon="-6.030760">
        <ele>88.458605</ele>
        <time>2020-08-17T07:55:33.071Z</time>
      </trkpt>
      <trkpt lat="36.750238" lon="-6.030890">
        <ele>89.747396</ele>
        <time>2020-08-17T07:55:35.061Z</time>
      </trkpt>
      <trkpt lat="36.750162" lon="-6.031011">
        <ele>90.922762</ele>
        <time>2020-08-17T07:55:37.062Z</time>
      </trkpt>
      <trkpt lat="36.750082" lon="-6.031129">
        <ele>92.104450</ele>
        <time>2020-08-17T07:55:39.055Z</time>
      </trkpt>
      <trkpt lat="36.750020" lon="-6.031257">
        <ele>93.247902</ele>
        <time>2020-08-17T07:55:41.057Z</time>
      </trkpt>
      <trkpt lat="36.749986" lon="-6.031375">
        <ele>94.206552</ele>
        <time>2020-08-17T07:55:43.069Z</time>
      </trkpt>
      <trkpt lat="36.749923" lon="-6.031483">
        <ele>95.227829</ele>
        <time>2020-08-17T07:55:45.068Z</time>
      </trkpt>
      <trkpt lat="36.749870" lon="-6.031600">
        <ele>95.277665</ele>
        <time>2020-08-17T07:55:47.069Z</time>
      </trkpt>
      <trkpt lat="36.749809" lon="-6.031723">
        <ele>94.520354</ele>
        <time>2020-08-17T07:55:49.054Z</time>
      </trkpt>
      <trkpt lat="36.749761" lon="-6.031846">
        <ele>93.804095</ele>
        <time>2020-08-17T07:55:51.052Z</time>
      </trkpt>
      <trkpt lat="36.749714" lon="-6.031969">
        <ele>93.090672</ele>
        <time>2020-08-17T07:55:53.065Z</time>
      </trkpt>
      <trkpt lat="36.749678" lon="-6.032091">
        <ele>92.410026</ele>
        <time>2020-08-17T07:55:55.058Z</time>
      </trkpt>
      <trkpt lat="36.749636" lon="-6.032211">
        <ele>91.724464</ele>
        <time>2020-08-17T07:55:57.061Z</time>
      </trkpt>
      <trkpt lat="36.749590" lon="-6.032331">
        <ele>91.028029</ele>
        <time>2020-08-17T07:55:59.057Z</time>
      </trkpt>
      <trkpt lat="36.749532" lon="-6.032456">
        <ele>90.271803</ele>
        <time>2020-08-17T07:56:01.063Z</time>
      </trkpt>
      <trkpt lat="36.749456" lon="-6.032582">
        <ele>89.446134</ele>
        <time>2020-08-17T07:56:03.062Z</time>
      </trkpt>
      <trkpt lat="36.749403" lon="-6.032683">
        <ele>88.814058</ele>
        <time>2020-08-17T07:56:05.045Z</time>
      </trkpt>
      <trkpt lat="36.749378" lon="-6.032791">
        <ele>88.225518</ele>
        <time>2020-08-17T07:56:07.064Z</time>
      </trkpt>
      <trkpt lat="36.749311" lon="-6.032916">
        <ele>87.438175</ele>
        <time>2020-08-17T07:56:09.062Z</time>
      </trkpt>
      <trkpt lat="36.749249" lon="-6.033031">
        <ele>86.712509</ele>
        <time>2020-08-17T07:56:11.057Z</time>
      </trkpt>
      <trkpt lat="36.749191" lon="-6.033187">
        <ele>85.812153</ele>
        <time>2020-08-17T07:56:13.070Z</time>
      </trkpt>
      <trkpt lat="36.749153" lon="-6.033315">
        <ele>85.097508</ele>
        <time>2020-08-17T07:56:15.071Z</time>
      </trkpt>
      <trkpt lat="36.749076" lon="-6.033415">
        <ele>84.371415</ele>
        <time>2020-08-17T07:56:17.075Z</time>
      </trkpt>
      <trkpt lat="36.749025" lon="-6.033568">
        <ele>83.512884</ele>
        <time>2020-08-17T07:56:20.060Z</time>
      </trkpt>
      <trkpt lat="36.748973" lon="-6.033684">
        <ele>82.831995</ele>
        <time>2020-08-17T07:56:22.064Z</time>
      </trkpt>
      <trkpt lat="36.748934" lon="-6.033812">
        <ele>82.130503</ele>
        <time>2020-08-17T07:56:24.062Z</time>
      </trkpt>
      <trkpt lat="36.748900" lon="-6.033950">
        <ele>81.390926</ele>
        <time>2020-08-17T07:56:26.071Z</time>
      </trkpt>
      <trkpt lat="36.748828" lon="-6.034100">
        <ele>80.495218</ele>
        <time>2020-08-17T07:56:29.062Z</time>
      </trkpt>
      <trkpt lat="36.748738" lon="-6.034207">
        <ele>79.700554</ele>
        <time>2020-08-17T07:56:31.054Z</time>
      </trkpt>
      <trkpt lat="36.748734" lon="-6.034359">
        <ele>78.921504</ele>
        <time>2020-08-17T07:56:33.066Z</time>
      </trkpt>
      <trkpt lat="36.748685" lon="-6.034476">
        <ele>78.245232</ele>
        <time>2020-08-17T07:56:35.057Z</time>
      </trkpt>
      <trkpt lat="36.748594" lon="-6.034595">
        <ele>77.402585</ele>
        <time>2020-08-17T07:56:37.065Z</time>
      </trkpt>
      <trkpt lat="36.748567" lon="-6.034705">
        <ele>76.813256</ele>
        <time>2020-08-17T07:56:39.065Z</time>
      </trkpt>
      <trkpt lat="36.748518" lon="-6.034834">
        <ele>76.081950</ele>
        <time>2020-08-17T07:56:41.067Z</time>
      </trkpt>
      <trkpt lat="36.748509" lon="-6.034967">
        <ele>75.398221</ele>
        <time>2020-08-17T07:56:44.059Z</time>
      </trkpt>
      <trkpt lat="36.748437" lon="-6.035088">
        <ele>74.626164</ele>
        <time>2020-08-17T07:56:47.067Z</time>
      </trkpt>
      <trkpt lat="36.748386" lon="-6.035217">
        <ele>73.889290</ele>
        <time>2020-08-17T07:56:49.050Z</time>
      </trkpt>
      <trkpt lat="36.748358" lon="-6.035324">
        <ele>73.312683</ele>
        <time>2020-08-17T07:56:51.050Z</time>
      </trkpt>
      <trkpt lat="36.748305" lon="-6.035466">
        <ele>72.510229</ele>
        <time>2020-08-17T07:56:54.057Z</time>
      </trkpt>
      <trkpt lat="36.748257" lon="-6.035570">
        <ele>72.405850</ele>
        <time>2020-08-17T07:56:56.052Z</time>
      </trkpt>
      <trkpt lat="36.748194" lon="-6.035710">
        <ele>72.377594</ele>
        <time>2020-08-17T07:56:59.050Z</time>
      </trkpt>
      <trkpt lat="36.748146" lon="-6.035819">
        <ele>72.355706</ele>
        <time>2020-08-17T07:57:01.055Z</time>
      </trkpt>
      <trkpt lat="36.748117" lon="-6.035928">
        <ele>72.335495</ele>
        <time>2020-08-17T07:57:03.066Z</time>
      </trkpt>
      <trkpt lat="36.748069" lon="-6.036041">
        <ele>72.312987</ele>
        <time>2020-08-17T07:57:05.053Z</time>
      </trkpt>
      <trkpt lat="36.748041" lon="-6.036150">
        <ele>72.292844</ele>
        <time>2020-08-17T07:57:07.060Z</time>
      </trkpt>
      <trkpt lat="36.747966" lon="-6.036295">
        <ele>72.262472</ele>
        <time>2020-08-17T07:57:09.057Z</time>
      </trkpt>
      <trkpt lat="36.747912" lon="-6.036433">
        <ele>72.235446</ele>
        <time>2020-08-17T07:57:12.073Z</time>
      </trkpt>
      <trkpt lat="36.747838" lon="-6.036531">
        <ele>72.211749</ele>
        <time>2020-08-17T07:57:14.061Z</time>
      </trkpt>
      <trkpt lat="36.747781" lon="-6.036644">
        <ele>72.188251</ele>
        <time>2020-08-17T07:57:16.062Z</time>
      </trkpt>
      <trkpt lat="36.747738" lon="-6.036760">
        <ele>72.165758</ele>
        <time>2020-08-17T07:57:18.056Z</time>
      </trkpt>
      <trkpt lat="36.747648" lon="-6.036869">
        <ele>72.138215</ele>
        <time>2020-08-17T07:57:20.062Z</time>
      </trkpt>
      <trkpt lat="36.747611" lon="-6.037027">
        <ele>72.109247</ele>
        <time>2020-08-17T07:57:23.056Z</time>
      </trkpt>
      <trkpt lat="36.747570" lon="-6.037149">
        <ele>72.085965</ele>
        <time>2020-08-17T07:57:25.073Z</time>
      </trkpt>
      <trkpt lat="36.747547" lon="-6.037311">
        <ele>72.057012</ele>
        <time>2020-08-17T07:57:28.057Z</time>
      </trkpt>
      <trkpt lat="36.747481" lon="-6.037435">
        <ele>72.030815</ele>
        <time>2020-08-17T07:57:30.058Z</time>
      </trkpt>
      <trkpt lat="36.747431" lon="-6.037535">
        <ele>72.040394</ele>
        <time>2020-08-17T07:57:32.076Z</time>
      </trkpt>
      <trkpt lat="36.747378" lon="-6.037654">
        <ele>72.054852</ele>
        <time>2020-08-17T07:57:34.059Z</time>
      </trkpt>
      <trkpt lat="36.747327" lon="-6.037761">
        <ele>72.068073</ele>
        <time>2020-08-17T07:57:36.044Z</time>
      </trkpt>
      <trkpt lat="36.747261" lon="-6.037877">
        <ele>72.083180</ele>
        <time>2020-08-17T07:57:38.054Z</time>
      </trkpt>
      <trkpt lat="36.747213" lon="-6.037989">
        <ele>72.096668</ele>
        <time>2020-08-17T07:57:40.069Z</time>
      </trkpt>
      <trkpt lat="36.747159" lon="-6.038105">
        <ele>72.110914</ele>
        <time>2020-08-17T07:57:42.066Z</time>
      </trkpt>
      <trkpt lat="36.747109" lon="-6.038233">
        <ele>72.126036</ele>
        <time>2020-08-17T07:57:44.068Z</time>
      </trkpt>
      <trkpt lat="36.747062" lon="-6.038359">
        <ele>72.140795</ele>
        <time>2020-08-17T07:57:46.051Z</time>
      </trkpt>
      <trkpt lat="36.746996" lon="-6.038473">
        <ele>72.155730</ele>
        <time>2020-08-17T07:57:48.070Z</time>
      </trkpt>
      <trkpt lat="36.746964" lon="-6.038594">
        <ele>72.169261</ele>
        <time>2020-08-17T07:57:50.062Z</time>
      </trkpt>
      <trkpt lat="36.746919" lon="-6.038724">
        <ele>72.184299</ele>
        <time>2020-08-17T07:57:52.063Z</time>
      </trkpt>
      <trkpt lat="36.746879" lon="-6.038839">
        <ele>72.197612</ele>
        <time>2020-08-17T07:57:54.062Z</time>
      </trkpt>
      <trkpt lat="36.746828" lon="-6.038954">
        <ele>72.211569</ele>
        <time>2020-08-17T07:57:56.068Z</time>
      </trkpt>
      <trkpt lat="36.746795" lon="-6.039085">
        <ele>72.226152</ele>
        <time>2020-08-17T07:57:58.057Z</time>
      </trkpt>
      <trkpt lat="36.746761" lon="-6.039211">
        <ele>72.240270</ele>
        <time>2020-08-17T07:58:00.067Z</time>
      </trkpt>
      <trkpt lat="36.746737" lon="-6.039320">
        <ele>72.252274</ele>
        <time>2020-08-17T07:58:02.059Z</time>
      </trkpt>
      <trkpt lat="36.746684" lon="-6.039427">
        <ele>72.265632</ele>
        <time>2020-08-17T07:58:04.063Z</time>
      </trkpt>
      <trkpt lat="36.746636" lon="-6.039539">
        <ele>72.263979</ele>
        <time>2020-08-17T07:58:06.058Z</time>
      </trkpt>
      <trkpt lat="36.746589" lon="-6.039653">
        <ele>72.260079</ele>
        <time>2020-08-17T07:58:08.060Z</time>
      </trkpt>
      <trkpt lat="36.746540" lon="-6.039803">
        <ele>72.255151</ele>
        <time>2020-08-17T07:58:11.056Z</time>
      </trkpt>
      <trkpt lat="36.746504" lon="-6.039909">
        <ele>72.251648</ele>
        <time>2020-08-17T07:58:13.067Z</time>
      </trkpt>
      <trkpt lat="36.746444" lon="-6.040006">
        <ele>72.247920</ele>
        <time>2020-08-17T07:58:15.059Z</time>
      </trkpt>
      <trkpt lat="36.746405" lon="-6.040117">
        <ele>72.244233</ele>
        <time>2020-08-17T07:58:17.069Z</time>
      </trkpt>
      <trkpt lat="36.746356" lon="-6.040221">
        <ele>72.240562</ele>
        <time>2020-08-17T07:58:19.064Z</time>
      </trkpt>
      <trkpt lat="36.746298" lon="-6.040326">
        <ele>72.236683</ele>
        <time>2020-08-17T07:58:21.060Z</time>
      </trkpt>
      <trkpt lat="36.746240" lon="-6.040437">
        <ele>72.232651</ele>
        <time>2020-08-17T07:58:23.066Z</time>
      </trkpt>
      <trkpt lat="36.746170" lon="-6.040556">
        <ele>72.228160</ele>
        <time>2020-08-17T07:58:25.073Z</time>
      </trkpt>
      <trkpt lat="36.746101" lon="-6.040676">
        <ele>72.223667</ele>
        <time>2020-08-17T07:58:27.071Z</time>
      </trkpt>
      <trkpt lat="36.746031" lon="-6.040804">
        <ele>72.218952</ele>
        <time>2020-08-17T07:58:29.046Z</time>
      </trkpt>
      <trkpt lat="36.745980" lon="-6.040916">
        <ele>72.215033</ele>
        <time>2020-08-17T07:58:31.062Z</time>
      </trkpt>
      <trkpt lat="36.745925" lon="-6.041051">
        <ele>72.210425</ele>
        <time>2020-08-17T07:58:33.057Z</time>
      </trkpt>
      <trkpt lat="36.745879" lon="-6.041169">
        <ele>72.206433</ele>
        <time>2020-08-17T07:58:35.061Z</time>
      </trkpt>
      <trkpt lat="36.745848" lon="-6.041277">
        <ele>72.202943</ele>
        <time>2020-08-17T07:58:37.055Z</time>
      </trkpt>
      <trkpt lat="36.745795" lon="-6.041390">
        <ele>72.197484</ele>
        <time>2020-08-17T07:58:39.060Z</time>
      </trkpt>
      <trkpt lat="36.745747" lon="-6.041493">
        <ele>72.141314</ele>
        <time>2020-08-17T07:58:41.060Z</time>
      </trkpt>
      <trkpt lat="36.745697" lon="-6.041591">
        <ele>72.086546</ele>
        <time>2020-08-17T07:58:43.053Z</time>
      </trkpt>
      <trkpt lat="36.745647" lon="-6.041709">
        <ele>72.023621</ele>
        <time>2020-08-17T07:58:45.061Z</time>
      </trkpt>
      <trkpt lat="36.745597" lon="-6.041816">
        <ele>71.965229</ele>
        <time>2020-08-17T07:58:47.057Z</time>
      </trkpt>
      <trkpt lat="36.745526" lon="-6.041940">
        <ele>71.893384</ele>
        <time>2020-08-17T07:58:49.055Z</time>
      </trkpt>
      <trkpt lat="36.745485" lon="-6.042046">
        <ele>71.837898</ele>
        <time>2020-08-17T07:58:51.082Z</time>
      </trkpt>
      <trkpt lat="36.745419" lon="-6.042157">
        <ele>71.772738</ele>
        <time>2020-08-17T07:58:53.066Z</time>
      </trkpt>
      <trkpt lat="36.745368" lon="-6.042260">
        <ele>71.715661</ele>
        <time>2020-08-17T07:58:55.073Z</time>
      </trkpt>
      <trkpt lat="36.745299" lon="-6.042360">
        <ele>71.653450</ele>
        <time>2020-08-17T07:58:57.061Z</time>
      </trkpt>
      <trkpt lat="36.745231" lon="-6.042458">
        <ele>71.592338</ele>
        <time>2020-08-17T07:58:59.054Z</time>
      </trkpt>
      <trkpt lat="36.745182" lon="-6.042580">
        <ele>71.528006</ele>
        <time>2020-08-17T07:59:01.071Z</time>
      </trkpt>
      <trkpt lat="36.745141" lon="-6.042685">
        <ele>71.472943</ele>
        <time>2020-08-17T07:59:03.079Z</time>
      </trkpt>
      <trkpt lat="36.745098" lon="-6.042789">
        <ele>71.417774</ele>
        <time>2020-08-17T07:59:05.059Z</time>
      </trkpt>
      <trkpt lat="36.745044" lon="-6.042909">
        <ele>71.352894</ele>
        <time>2020-08-17T07:59:07.068Z</time>
      </trkpt>
      <trkpt lat="36.744991" lon="-6.043012">
        <ele>71.295189</ele>
        <time>2020-08-17T07:59:09.070Z</time>
      </trkpt>
      <trkpt lat="36.744956" lon="-6.043121">
        <ele>71.239833</ele>
        <time>2020-08-17T07:59:11.073Z</time>
      </trkpt>
      <trkpt lat="36.744900" lon="-6.043226">
        <ele>71.180373</ele>
        <time>2020-08-17T07:59:13.075Z</time>
      </trkpt>
      <trkpt lat="36.744828" lon="-6.043335">
        <ele>71.177782</ele>
        <time>2020-08-17T07:59:15.051Z</time>
      </trkpt>
      <trkpt lat="36.744764" lon="-6.043453">
        <ele>71.269103</ele>
        <time>2020-08-17T07:59:17.071Z</time>
      </trkpt>
      <trkpt lat="36.744718" lon="-6.043571">
        <ele>71.353203</ele>
        <time>2020-08-17T07:59:19.085Z</time>
      </trkpt>
      <trkpt lat="36.744660" lon="-6.043683">
        <ele>71.438669</ele>
        <time>2020-08-17T07:59:21.060Z</time>
      </trkpt>
      <trkpt lat="36.744609" lon="-6.043792">
        <ele>71.519564</ele>
        <time>2020-08-17T07:59:23.076Z</time>
      </trkpt>
      <trkpt lat="36.744549" lon="-6.043900">
        <ele>71.603790</ele>
        <time>2020-08-17T07:59:25.072Z</time>
      </trkpt>
      <trkpt lat="36.744493" lon="-6.044018">
        <ele>71.691684</ele>
        <time>2020-08-17T07:59:27.079Z</time>
      </trkpt>
      <trkpt lat="36.744454" lon="-6.044134">
        <ele>71.772308</ele>
        <time>2020-08-17T07:59:29.075Z</time>
      </trkpt>
      <trkpt lat="36.744411" lon="-6.044244">
        <ele>71.850748</ele>
        <time>2020-08-17T07:59:31.058Z</time>
      </trkpt>
      <trkpt lat="36.744388" lon="-6.044358">
        <ele>71.926091</ele>
        <time>2020-08-17T07:59:33.058Z</time>
      </trkpt>
      <trkpt lat="36.744327" lon="-6.044480">
        <ele>72.018254</ele>
        <time>2020-08-17T07:59:35.071Z</time>
      </trkpt>
      <trkpt lat="36.744279" lon="-6.044587">
        <ele>72.096846</ele>
        <time>2020-08-17T07:59:37.078Z</time>
      </trkpt>
      <trkpt lat="36.744222" lon="-6.044685">
        <ele>72.174456</ele>
        <time>2020-08-17T07:59:39.076Z</time>
      </trkpt>
      <trkpt lat="36.744189" lon="-6.044798">
        <ele>72.251537</ele>
        <time>2020-08-17T07:59:41.069Z</time>
      </trkpt>
      <trkpt lat="36.744116" lon="-6.044923">
        <ele>72.350669</ele>
        <time>2020-08-17T07:59:43.073Z</time>
      </trkpt>
      <trkpt lat="36.744033" lon="-6.045059">
        <ele>72.460233</ele>
        <time>2020-08-17T07:59:46.073Z</time>
      </trkpt>
      <trkpt lat="36.743969" lon="-6.045142">
        <ele>72.534057</ele>
        <time>2020-08-17T07:59:48.082Z</time>
      </trkpt>
      <trkpt lat="36.743930" lon="-6.045250">
        <ele>72.670053</ele>
        <time>2020-08-17T07:59:50.076Z</time>
      </trkpt>
      <trkpt lat="36.743848" lon="-6.045392">
        <ele>73.003246</ele>
        <time>2020-08-17T07:59:53.075Z</time>
      </trkpt>
      <trkpt lat="36.743765" lon="-6.045492">
        <ele>73.277320</ele>
        <time>2020-08-17T07:59:55.078Z</time>
      </trkpt>
      <trkpt lat="36.743709" lon="-6.045583">
        <ele>73.495739</ele>
        <time>2020-08-17T07:59:57.059Z</time>
      </trkpt>
      <trkpt lat="36.743675" lon="-6.045696">
        <ele>73.725514</ele>
        <time>2020-08-17T07:59:59.069Z</time>
      </trkpt>
      <trkpt lat="36.743604" lon="-6.045843">
        <ele>74.052249</ele>
        <time>2020-08-17T08:00:02.075Z</time>
      </trkpt>
      <trkpt lat="36.743535" lon="-6.045936">
        <ele>74.293520</ele>
        <time>2020-08-17T08:00:04.066Z</time>
      </trkpt>
      <trkpt lat="36.743482" lon="-6.046031">
        <ele>74.513878</ele>
        <time>2020-08-17T08:00:06.065Z</time>
      </trkpt>
      <trkpt lat="36.743444" lon="-6.046147">
        <ele>74.752439</ele>
        <time>2020-08-17T08:00:08.085Z</time>
      </trkpt>
      <trkpt lat="36.743389" lon="-6.046260">
        <ele>75.004123</ele>
        <time>2020-08-17T08:00:10.077Z</time>
      </trkpt>
      <trkpt lat="36.743348" lon="-6.046371">
        <ele>75.236794</ele>
        <time>2020-08-17T08:00:12.077Z</time>
      </trkpt>
      <trkpt lat="36.743290" lon="-6.046467">
        <ele>75.465666</ele>
        <time>2020-08-17T08:00:14.070Z</time>
      </trkpt>
      <trkpt lat="36.743252" lon="-6.046603">
        <ele>75.739849</ele>
        <time>2020-08-17T08:00:17.070Z</time>
      </trkpt>
      <trkpt lat="36.743209" lon="-6.046703">
        <ele>75.955889</ele>
        <time>2020-08-17T08:00:19.076Z</time>
      </trkpt>
      <trkpt lat="36.743164" lon="-6.046858">
        <ele>76.269722</ele>
        <time>2020-08-17T08:00:22.074Z</time>
      </trkpt>
      <trkpt lat="36.743100" lon="-6.046959">
        <ele>76.514841</ele>
        <time>2020-08-17T08:00:24.072Z</time>
      </trkpt>
      <trkpt lat="36.743040" lon="-6.047050">
        <ele>76.739175</ele>
        <time>2020-08-17T08:00:26.069Z</time>
      </trkpt>
      <trkpt lat="36.742971" lon="-6.047159">
        <ele>76.504043</ele>
        <time>2020-08-17T08:00:28.069Z</time>
      </trkpt>
      <trkpt lat="36.742912" lon="-6.047264">
        <ele>75.941734</ele>
        <time>2020-08-17T08:00:30.076Z</time>
      </trkpt>
      <trkpt lat="36.742863" lon="-6.047362">
        <ele>75.435242</ele>
        <time>2020-08-17T08:00:32.069Z</time>
      </trkpt>
      <trkpt lat="36.742834" lon="-6.047508">
        <ele>74.775695</ele>
        <time>2020-08-17T08:00:35.074Z</time>
      </trkpt>
      <trkpt lat="36.742775" lon="-6.047596">
        <ele>74.272594</ele>
        <time>2020-08-17T08:00:37.060Z</time>
      </trkpt>
      <trkpt lat="36.742692" lon="-6.047689">
        <ele>73.662225</ele>
        <time>2020-08-17T08:00:39.071Z</time>
      </trkpt>
      <trkpt lat="36.742619" lon="-6.047801">
        <ele>73.029194</ele>
        <time>2020-08-17T08:00:41.072Z</time>
      </trkpt>
      <trkpt lat="36.742552" lon="-6.047900">
        <ele>72.461004</ele>
        <time>2020-08-17T08:00:43.081Z</time>
      </trkpt>
      <trkpt lat="36.742502" lon="-6.048047">
        <ele>71.760782</ele>
        <time>2020-08-17T08:00:46.068Z</time>
      </trkpt>
      <trkpt lat="36.742454" lon="-6.048149">
        <ele>71.242117</ele>
        <time>2020-08-17T08:00:48.065Z</time>
      </trkpt>
      <trkpt lat="36.742387" lon="-6.048295">
        <ele>70.504397</ele>
        <time>2020-08-17T08:00:51.085Z</time>
      </trkpt>
      <trkpt lat="36.742326" lon="-6.048411">
        <ele>69.896023</ele>
        <time>2020-08-17T08:00:53.054Z</time>
      </trkpt>
      <trkpt lat="36.742241" lon="-6.048518">
        <ele>69.235382</ele>
        <time>2020-08-17T08:00:56.073Z</time>
      </trkpt>
      <trkpt lat="36.742136" lon="-6.048511">
        <ele>68.660019</ele>
        <time>2020-08-17T08:00:58.081Z</time>
      </trkpt>
      <trkpt lat="36.742027" lon="-6.048480">
        <ele>68.048295</ele>
        <time>2020-08-17T08:01:00.080Z</time>
      </trkpt>
      <trkpt lat="36.741933" lon="-6.048448">
        <ele>67.515147</ele>
        <time>2020-08-17T08:01:02.057Z</time>
      </trkpt>
      <trkpt lat="36.741802" lon="-6.048406">
        <ele>66.993725</ele>
        <time>2020-08-17T08:01:05.076Z</time>
      </trkpt>
      <trkpt lat="36.741692" lon="-6.048358">
        <ele>66.948340</ele>
        <time>2020-08-17T08:01:07.079Z</time>
      </trkpt>
      <trkpt lat="36.741576" lon="-6.048299">
        <ele>66.899554</ele>
        <time>2020-08-17T08:01:09.064Z</time>
      </trkpt>
      <trkpt lat="36.741463" lon="-6.048263">
        <ele>66.854132</ele>
        <time>2020-08-17T08:01:11.070Z</time>
      </trkpt>
      <trkpt lat="36.741353" lon="-6.048225">
        <ele>66.809680</ele>
        <time>2020-08-17T08:01:13.060Z</time>
      </trkpt>
      <trkpt lat="36.741249" lon="-6.048193">
        <ele>66.767962</ele>
        <time>2020-08-17T08:01:15.069Z</time>
      </trkpt>
      <trkpt lat="36.741134" lon="-6.048170">
        <ele>66.722602</ele>
        <time>2020-08-17T08:01:17.069Z</time>
      </trkpt>
      <trkpt lat="36.741022" lon="-6.048110">
        <ele>66.675132</ele>
        <time>2020-08-17T08:01:19.057Z</time>
      </trkpt>
      <trkpt lat="36.740925" lon="-6.048069">
        <ele>66.635245</ele>
        <time>2020-08-17T08:01:21.077Z</time>
      </trkpt>
      <trkpt lat="36.740813" lon="-6.048029">
        <ele>66.589874</ele>
        <time>2020-08-17T08:01:23.082Z</time>
      </trkpt>
      <trkpt lat="36.740697" lon="-6.048008">
        <ele>66.544223</ele>
        <time>2020-08-17T08:01:25.068Z</time>
      </trkpt>
      <trkpt lat="36.740586" lon="-6.047945">
        <ele>66.496731</ele>
        <time>2020-08-17T08:01:27.076Z</time>
      </trkpt>
      <trkpt lat="36.740479" lon="-6.047908">
        <ele>66.453487</ele>
        <time>2020-08-17T08:01:29.068Z</time>
      </trkpt>
      <trkpt lat="36.740385" lon="-6.047862">
        <ele>66.414163</ele>
        <time>2020-08-17T08:01:31.067Z</time>
      </trkpt>
      <trkpt lat="36.740280" lon="-6.047783">
        <ele>66.366411</ele>
        <time>2020-08-17T08:01:33.074Z</time>
      </trkpt>
      <trkpt lat="36.740152" lon="-6.047714">
        <ele>66.312107</ele>
        <time>2020-08-17T08:01:35.068Z</time>
      </trkpt>
      <trkpt lat="36.740039" lon="-6.047651">
        <ele>66.340990</ele>
        <time>2020-08-17T08:01:37.068Z</time>
      </trkpt>
      <trkpt lat="36.739934" lon="-6.047614">
        <ele>66.369604</ele>
        <time>2020-08-17T08:01:39.070Z</time>
      </trkpt>
      <trkpt lat="36.739813" lon="-6.047532">
        <ele>66.405715</ele>
        <time>2020-08-17T08:01:41.064Z</time>
      </trkpt>
      <trkpt lat="36.739704" lon="-6.047486">
        <ele>66.435892</ele>
        <time>2020-08-17T08:01:43.071Z</time>
      </trkpt>
      <trkpt lat="36.739572" lon="-6.047417">
        <ele>66.473425</ele>
        <time>2020-08-17T08:01:45.070Z</time>
      </trkpt>
      <trkpt lat="36.739445" lon="-6.047367">
        <ele>66.508350</ele>
        <time>2020-08-17T08:01:47.065Z</time>
      </trkpt>
      <trkpt lat="36.739320" lon="-6.047346">
        <ele>66.541428</ele>
        <time>2020-08-17T08:01:49.070Z</time>
      </trkpt>
      <trkpt lat="36.739176" lon="-6.047290">
        <ele>66.580985</ele>
        <time>2020-08-17T08:01:51.069Z</time>
      </trkpt>
      <trkpt lat="36.739061" lon="-6.047288">
        <ele>66.611148</ele>
        <time>2020-08-17T08:01:53.077Z</time>
      </trkpt>
      <trkpt lat="36.738934" lon="-6.047172">
        <ele>66.652424</ele>
        <time>2020-08-17T08:01:55.073Z</time>
      </trkpt>
      <trkpt lat="36.738831" lon="-6.047100">
        <ele>66.683386</ele>
        <time>2020-08-17T08:01:57.063Z</time>
      </trkpt>
      <trkpt lat="36.738710" lon="-6.047018">
        <ele>66.719497</ele>
        <time>2020-08-17T08:01:59.074Z</time>
      </trkpt>
      <trkpt lat="36.738593" lon="-6.046969">
        <ele>66.751864</ele>
        <time>2020-08-17T08:02:01.073Z</time>
      </trkpt>
      <trkpt lat="36.738462" lon="-6.046949">
        <ele>66.815506</ele>
        <time>2020-08-17T08:02:03.063Z</time>
      </trkpt>
      <trkpt lat="36.738311" lon="-6.046896">
        <ele>67.105751</ele>
        <time>2020-08-17T08:02:05.064Z</time>
      </trkpt>
      <trkpt lat="36.738170" lon="-6.046838">
        <ele>67.380460</ele>
        <time>2020-08-17T08:02:07.068Z</time>
      </trkpt>
      <trkpt lat="36.738063" lon="-6.046831">
        <ele>67.578719</ele>
        <time>2020-08-17T08:02:09.069Z</time>
      </trkpt>
      <trkpt lat="36.738013" lon="-6.047017">
        <ele>67.869630</ele>
        <time>2020-08-17T08:02:10.071Z</time>
      </trkpt>
      <trkpt lat="36.737898" lon="-6.046946">
        <ele>68.107040</ele>
        <time>2020-08-17T08:02:12.059Z</time>
      </trkpt>
      <trkpt lat="36.737760" lon="-6.046883">
        <ele>68.378940</ele>
        <time>2020-08-17T08:02:14.071Z</time>
      </trkpt>
      <trkpt lat="36.737612" lon="-6.046843">
        <ele>68.659142</ele>
        <time>2020-08-17T08:02:16.071Z</time>
      </trkpt>
      <trkpt lat="36.737511" lon="-6.046803">
        <ele>68.855214</ele>
        <time>2020-08-17T08:02:18.075Z</time>
      </trkpt>
      <trkpt lat="36.737378" lon="-6.046773">
        <ele>69.105299</ele>
        <time>2020-08-17T08:02:20.072Z</time>
      </trkpt>
      <trkpt lat="36.737241" lon="-6.046724">
        <ele>69.369004</ele>
        <time>2020-08-17T08:02:22.078Z</time>
      </trkpt>
      <trkpt lat="36.737116" lon="-6.046710">
        <ele>69.601227</ele>
        <time>2020-08-17T08:02:24.060Z</time>
      </trkpt>
      <trkpt lat="36.736978" lon="-6.046670">
        <ele>69.863374</ele>
        <time>2020-08-17T08:02:26.071Z</time>
      </trkpt>
      <trkpt lat="36.736896" lon="-6.046572">
        <ele>70.073468</ele>
        <time>2020-08-17T08:02:27.071Z</time>
      </trkpt>
      <trkpt lat="36.736734" lon="-6.046463">
        <ele>70.180305</ele>
        <time>2020-08-17T08:02:29.063Z</time>
      </trkpt>
      <trkpt lat="36.736636" lon="-6.046444">
        <ele>70.222835</ele>
        <time>2020-08-17T08:02:30.056Z</time>
      </trkpt>
      <trkpt lat="36.736498" lon="-6.046360">
        <ele>70.288678</ele>
        <time>2020-08-17T08:02:32.057Z</time>
      </trkpt>
      <trkpt lat="36.736401" lon="-6.046351">
        <ele>70.330389</ele>
        <time>2020-08-17T08:02:34.059Z</time>
      </trkpt>
      <trkpt lat="36.736287" lon="-6.046269">
        <ele>70.386816</ele>
        <time>2020-08-17T08:02:36.074Z</time>
      </trkpt>
      <trkpt lat="36.736158" lon="-6.046212">
        <ele>70.445500</ele>
        <time>2020-08-17T08:02:38.061Z</time>
      </trkpt>
      <trkpt lat="36.736021" lon="-6.046210">
        <ele>70.504254</ele>
        <time>2020-08-17T08:02:40.080Z</time>
      </trkpt>
      <trkpt lat="36.735911" lon="-6.046175">
        <ele>70.552934</ele>
        <time>2020-08-17T08:02:42.082Z</time>
      </trkpt>
      <trkpt lat="36.735816" lon="-6.046188">
        <ele>70.593917</ele>
        <time>2020-08-17T08:02:43.072Z</time>
      </trkpt>
      <trkpt lat="36.735698" lon="-6.046198">
        <ele>70.644635</ele>
        <time>2020-08-17T08:02:45.081Z</time>
      </trkpt>
      <trkpt lat="36.735558" lon="-6.046160">
        <ele>70.706074</ele>
        <time>2020-08-17T08:02:47.070Z</time>
      </trkpt>
      <trkpt lat="36.735423" lon="-6.046128">
        <ele>70.765001</ele>
        <time>2020-08-17T08:02:49.070Z</time>
      </trkpt>
      <trkpt lat="36.735294" lon="-6.046095">
        <ele>70.821470</ele>
        <time>2020-08-17T08:02:51.071Z</time>
      </trkpt>
      <trkpt lat="36.735148" lon="-6.046077">
        <ele>70.884829</ele>
        <time>2020-08-17T08:02:53.055Z</time>
      </trkpt>
      <trkpt lat="36.735004" lon="-6.046069">
        <ele>70.955023</ele>
        <time>2020-08-17T08:02:55.073Z</time>
      </trkpt>
      <trkpt lat="36.734866" lon="-6.046039">
        <ele>71.023239</ele>
        <time>2020-08-17T08:02:57.078Z</time>
      </trkpt>
      <trkpt lat="36.734735" lon="-6.045994">
        <ele>71.089407</ele>
        <time>2020-08-17T08:02:59.057Z</time>
      </trkpt>
      <trkpt lat="36.734587" lon="-6.045955">
        <ele>71.163070</ele>
        <time>2020-08-17T08:03:01.077Z</time>
      </trkpt>
      <trkpt lat="36.734442" lon="-6.045926">
        <ele>71.234584</ele>
        <time>2020-08-17T08:03:03.070Z</time>
      </trkpt>
      <trkpt lat="36.734306" lon="-6.045894">
        <ele>71.301981</ele>
        <time>2020-08-17T08:03:05.062Z</time>
      </trkpt>
      <trkpt lat="36.734174" lon="-6.045851">
        <ele>71.368417</ele>
        <time>2020-08-17T08:03:07.058Z</time>
      </trkpt>
      <trkpt lat="36.734036" lon="-6.045820">
        <ele>71.436701</ele>
        <time>2020-08-17T08:03:09.075Z</time>
      </trkpt>
      <trkpt lat="36.733902" lon="-6.045847">
        <ele>71.502802</ele>
        <time>2020-08-17T08:03:11.054Z</time>
      </trkpt>
      <trkpt lat="36.733859" lon="-6.046006">
        <ele>71.568294</ele>
        <time>2020-08-17T08:03:13.046Z</time>
      </trkpt>
      <trkpt lat="36.733857" lon="-6.046195">
        <ele>71.642063</ele>
        <time>2020-08-17T08:03:15.056Z</time>
      </trkpt>
      <trkpt lat="36.733836" lon="-6.046324">
        <ele>71.693437</ele>
        <time>2020-08-17T08:03:17.050Z</time>
      </trkpt>
      <trkpt lat="36.733814" lon="-6.046466">
        <ele>71.749883</ele>
        <time>2020-08-17T08:03:19.077Z</time>
      </trkpt>
      <trkpt lat="36.733799" lon="-6.046613">
        <ele>71.668794</ele>
        <time>2020-08-17T08:03:21.064Z</time>
      </trkpt>
      <trkpt lat="36.733770" lon="-6.046763">
        <ele>71.564014</ele>
        <time>2020-08-17T08:03:23.047Z</time>
      </trkpt>
      <trkpt lat="36.733745" lon="-6.046909">
        <ele>71.462634</ele>
        <time>2020-08-17T08:03:25.060Z</time>
      </trkpt>
      <trkpt lat="36.733703" lon="-6.047052">
        <ele>71.359213</ele>
        <time>2020-08-17T08:03:27.067Z</time>
      </trkpt>
      <trkpt lat="36.733698" lon="-6.047185">
        <ele>71.268799</ele>
        <time>2020-08-17T08:03:29.068Z</time>
      </trkpt>
      <trkpt lat="36.733681" lon="-6.047324">
        <ele>71.173318</ele>
        <time>2020-08-17T08:03:31.079Z</time>
      </trkpt>
      <trkpt lat="36.733672" lon="-6.047472">
        <ele>71.072528</ele>
        <time>2020-08-17T08:03:33.070Z</time>
      </trkpt>
      <trkpt lat="36.733666" lon="-6.047609">
        <ele>70.979359</ele>
        <time>2020-08-17T08:03:35.068Z</time>
      </trkpt>
      <trkpt lat="36.733619" lon="-6.047768">
        <ele>70.864279</ele>
        <time>2020-08-17T08:03:37.066Z</time>
      </trkpt>
      <trkpt lat="36.733587" lon="-6.047911">
        <ele>70.763459</ele>
        <time>2020-08-17T08:03:39.049Z</time>
      </trkpt>
      <trkpt lat="36.733561" lon="-6.048039">
        <ele>70.673791</ele>
        <time>2020-08-17T08:03:41.078Z</time>
      </trkpt>
      <trkpt lat="36.733528" lon="-6.048187">
        <ele>70.569473</ele>
        <time>2020-08-17T08:03:43.054Z</time>
      </trkpt>
      <trkpt lat="36.733517" lon="-6.048308">
        <ele>70.486781</ele>
        <time>2020-08-17T08:03:45.089Z</time>
      </trkpt>
      <trkpt lat="36.733523" lon="-6.048437">
        <ele>70.399035</ele>
        <time>2020-08-17T08:03:47.069Z</time>
      </trkpt>
      <trkpt lat="36.733502" lon="-6.048563">
        <ele>70.311643</ele>
        <time>2020-08-17T08:03:49.064Z</time>
      </trkpt>
      <trkpt lat="36.733470" lon="-6.048705">
        <ele>70.209994</ele>
        <time>2020-08-17T08:03:51.081Z</time>
      </trkpt>
      <trkpt lat="36.733426" lon="-6.048865">
        <ele>70.087212</ele>
        <time>2020-08-17T08:03:53.076Z</time>
      </trkpt>
      <trkpt lat="36.733383" lon="-6.049018">
        <ele>69.969527</ele>
        <time>2020-08-17T08:03:55.068Z</time>
      </trkpt>
      <trkpt lat="36.733364" lon="-6.049139">
        <ele>69.880029</ele>
        <time>2020-08-17T08:03:57.081Z</time>
      </trkpt>
      <trkpt lat="36.733345" lon="-6.049265">
        <ele>69.786968</ele>
        <time>2020-08-17T08:03:59.058Z</time>
      </trkpt>
      <trkpt lat="36.733328" lon="-6.049397">
        <ele>69.689927</ele>
        <time>2020-08-17T08:04:01.049Z</time>
      </trkpt>
      <trkpt lat="36.733285" lon="-6.049526">
        <ele>69.588517</ele>
        <time>2020-08-17T08:04:03.059Z</time>
      </trkpt>
      <trkpt lat="36.733282" lon="-6.049665">
        <ele>69.487587</ele>
        <time>2020-08-17T08:04:05.072Z</time>
      </trkpt>
      <trkpt lat="36.733249" lon="-6.049774">
        <ele>69.403013</ele>
        <time>2020-08-17T08:04:07.068Z</time>
      </trkpt>
      <trkpt lat="36.733230" lon="-6.049921">
        <ele>69.294935</ele>
        <time>2020-08-17T08:04:09.067Z</time>
      </trkpt>
      <trkpt lat="36.733223" lon="-6.050053">
        <ele>69.198913</ele>
        <time>2020-08-17T08:04:11.073Z</time>
      </trkpt>
      <trkpt lat="36.733197" lon="-6.050183">
        <ele>69.101659</ele>
        <time>2020-08-17T08:04:13.071Z</time>
      </trkpt>
      <trkpt lat="36.733182" lon="-6.050310">
        <ele>69.008481</ele>
        <time>2020-08-17T08:04:15.069Z</time>
      </trkpt>
      <trkpt lat="36.733168" lon="-6.050466">
        <ele>68.894541</ele>
        <time>2020-08-17T08:04:17.049Z</time>
      </trkpt>
      <trkpt lat="36.733157" lon="-6.050643">
        <ele>68.765680</ele>
        <time>2020-08-17T08:04:20.061Z</time>
      </trkpt>
      <trkpt lat="36.733121" lon="-6.050761">
        <ele>68.674034</ele>
        <time>2020-08-17T08:04:22.071Z</time>
      </trkpt>
      <trkpt lat="36.733087" lon="-6.050896">
        <ele>68.663615</ele>
        <time>2020-08-17T08:04:24.046Z</time>
      </trkpt>
      <trkpt lat="36.733062" lon="-6.051027">
        <ele>68.842044</ele>
        <time>2020-08-17T08:04:26.074Z</time>
      </trkpt>
      <trkpt lat="36.733059" lon="-6.051183">
        <ele>69.048804</ele>
        <time>2020-08-17T08:04:28.069Z</time>
      </trkpt>
      <trkpt lat="36.733036" lon="-6.051310">
        <ele>69.221323</ele>
        <time>2020-08-17T08:04:30.077Z</time>
      </trkpt>
      <trkpt lat="36.733017" lon="-6.051435">
        <ele>69.389901</ele>
        <time>2020-08-17T08:04:32.072Z</time>
      </trkpt>
      <trkpt lat="36.732975" lon="-6.051544">
        <ele>69.550152</ele>
        <time>2020-08-17T08:04:34.073Z</time>
      </trkpt>
      <trkpt lat="36.732944" lon="-6.051666">
        <ele>69.719734</ele>
        <time>2020-08-17T08:04:36.083Z</time>
      </trkpt>
      <trkpt lat="36.732939" lon="-6.051790">
        <ele>69.884242</ele>
        <time>2020-08-17T08:04:38.068Z</time>
      </trkpt>
      <trkpt lat="36.732904" lon="-6.051952">
        <ele>70.106556</ele>
        <time>2020-08-17T08:04:41.071Z</time>
      </trkpt>
      <trkpt lat="36.732864" lon="-6.052072">
        <ele>70.278762</ele>
        <time>2020-08-17T08:04:43.067Z</time>
      </trkpt>
      <trkpt lat="36.732842" lon="-6.052188">
        <ele>70.436708</ele>
        <time>2020-08-17T08:04:45.058Z</time>
      </trkpt>
      <trkpt lat="36.732835" lon="-6.052303">
        <ele>70.589522</ele>
        <time>2020-08-17T08:04:47.081Z</time>
      </trkpt>
      <trkpt lat="36.732788" lon="-6.052415">
        <ele>70.757036</ele>
        <time>2020-08-17T08:04:49.061Z</time>
      </trkpt>
      <trkpt lat="36.732761" lon="-6.052526">
        <ele>70.910737</ele>
        <time>2020-08-17T08:04:51.056Z</time>
      </trkpt>
      <trkpt lat="36.732737" lon="-6.052642">
        <ele>71.069478</ele>
        <time>2020-08-17T08:04:53.074Z</time>
      </trkpt>
      <trkpt lat="36.732722" lon="-6.052767">
        <ele>71.236950</ele>
        <time>2020-08-17T08:04:55.074Z</time>
      </trkpt>
      <trkpt lat="36.732710" lon="-6.052900">
        <ele>71.414290</ele>
        <time>2020-08-17T08:04:57.072Z</time>
      </trkpt>
      <trkpt lat="36.732688" lon="-6.053047">
        <ele>71.948913</ele>
        <time>2020-08-17T08:04:59.073Z</time>
      </trkpt>
      <trkpt lat="36.732650" lon="-6.053165">
        <ele>73.748843</ele>
        <time>2020-08-17T08:05:01.066Z</time>
      </trkpt>
      <trkpt lat="36.732653" lon="-6.053334">
        <ele>76.141414</ele>
        <time>2020-08-17T08:05:04.068Z</time>
      </trkpt>
      <trkpt lat="36.732692" lon="-6.053490">
        <ele>78.454331</ele>
        <time>2020-08-17T08:05:07.075Z</time>
      </trkpt>
      <trkpt lat="36.732698" lon="-6.053615">
        <ele>80.226719</ele>
        <time>2020-08-17T08:05:09.071Z</time>
      </trkpt>
      <trkpt lat="36.732677" lon="-6.053742">
        <ele>82.062106</ele>
        <time>2020-08-17T08:05:11.077Z</time>
      </trkpt>
      <trkpt lat="36.732648" lon="-6.053860">
        <ele>83.809011</ele>
        <time>2020-08-17T08:05:13.064Z</time>
      </trkpt>
      <trkpt lat="36.732607" lon="-6.054017">
        <ele>86.146145</ele>
        <time>2020-08-17T08:05:16.068Z</time>
      </trkpt>
      <trkpt lat="36.732593" lon="-6.054137">
        <ele>87.862499</ele>
        <time>2020-08-17T08:05:18.068Z</time>
      </trkpt>
      <trkpt lat="36.732569" lon="-6.054258">
        <ele>89.626774</ele>
        <time>2020-08-17T08:05:20.064Z</time>
      </trkpt>
      <trkpt lat="36.732532" lon="-6.054384">
        <ele>91.526092</ele>
        <time>2020-08-17T08:05:22.079Z</time>
      </trkpt>
      <trkpt lat="36.732508" lon="-6.054500">
        <ele>93.221758</ele>
        <time>2020-08-17T08:05:24.067Z</time>
      </trkpt>
      <trkpt lat="36.732470" lon="-6.054656">
        <ele>95.529483</ele>
        <time>2020-08-17T08:05:27.069Z</time>
      </trkpt>
      <trkpt lat="36.732462" lon="-6.054817">
        <ele>97.812618</ele>
        <time>2020-08-17T08:05:30.069Z</time>
      </trkpt>
      <trkpt lat="36.732439" lon="-6.054967">
        <ele>99.974194</ele>
        <time>2020-08-17T08:05:33.072Z</time>
      </trkpt>
      <trkpt lat="36.732410" lon="-6.055098">
        <ele>101.897775</ele>
        <time>2020-08-17T08:05:35.076Z</time>
      </trkpt>
      <trkpt lat="36.732381" lon="-6.055260">
        <ele>102.535448</ele>
        <time>2020-08-17T08:05:38.068Z</time>
      </trkpt>
      <trkpt lat="36.732343" lon="-6.055375">
        <ele>100.964341</ele>
        <time>2020-08-17T08:05:40.072Z</time>
      </trkpt>
      <trkpt lat="36.732315" lon="-6.055496">
        <ele>99.373634</ele>
        <time>2020-08-17T08:05:42.064Z</time>
      </trkpt>
      <trkpt lat="36.732289" lon="-6.055622">
        <ele>97.730302</ele>
        <time>2020-08-17T08:05:44.066Z</time>
      </trkpt>
      <trkpt lat="36.732254" lon="-6.055738">
        <ele>96.164785</ele>
        <time>2020-08-17T08:05:46.063Z</time>
      </trkpt>
      <trkpt lat="36.732214" lon="-6.055865">
        <ele>94.441301</ele>
        <time>2020-08-17T08:05:48.074Z</time>
      </trkpt>
      <trkpt lat="36.732178" lon="-6.056010">
        <ele>92.524027</ele>
        <time>2020-08-17T08:05:50.073Z</time>
      </trkpt>
      <trkpt lat="36.732160" lon="-6.056131">
        <ele>90.969643</ele>
        <time>2020-08-17T08:05:52.060Z</time>
      </trkpt>
      <trkpt lat="36.732135" lon="-6.056253">
        <ele>89.379161</ele>
        <time>2020-08-17T08:05:54.069Z</time>
      </trkpt>
      <trkpt lat="36.732146" lon="-6.056406">
        <ele>87.438947</ele>
        <time>2020-08-17T08:05:56.071Z</time>
      </trkpt>
      <trkpt lat="36.732087" lon="-6.056558">
        <ele>85.305807</ele>
        <time>2020-08-17T08:05:58.081Z</time>
      </trkpt>
      <trkpt lat="36.732073" lon="-6.056701">
        <ele>83.486231</ele>
        <time>2020-08-17T08:06:00.082Z</time>
      </trkpt>
      <trkpt lat="36.732007" lon="-6.056820">
        <ele>81.658402</ele>
        <time>2020-08-17T08:06:02.071Z</time>
      </trkpt>
      <trkpt lat="36.732018" lon="-6.056948">
        <ele>80.032439</ele>
        <time>2020-08-17T08:06:04.066Z</time>
      </trkpt>
      <trkpt lat="36.732011" lon="-6.057083">
        <ele>78.323765</ele>
        <time>2020-08-17T08:06:06.085Z</time>
      </trkpt>
      <trkpt lat="36.731970" lon="-6.057217">
        <ele>76.512139</ele>
        <time>2020-08-17T08:06:08.067Z</time>
      </trkpt>
      <trkpt lat="36.731927" lon="-6.057337">
        <ele>74.957812</ele>
        <time>2020-08-17T08:06:10.067Z</time>
      </trkpt>
      <trkpt lat="36.731871" lon="-6.057498">
        <ele>74.362956</ele>
        <time>2020-08-17T08:06:13.077Z</time>
      </trkpt>
      <trkpt lat="36.731831" lon="-6.057627">
        <ele>73.894149</ele>
        <time>2020-08-17T08:06:15.071Z</time>
      </trkpt>
      <trkpt lat="36.731808" lon="-6.057748">
        <ele>73.472663</ele>
        <time>2020-08-17T08:06:17.062Z</time>
      </trkpt>
      <trkpt lat="36.731763" lon="-6.057862">
        <ele>73.041956</ele>
        <time>2020-08-17T08:06:19.069Z</time>
      </trkpt>
      <trkpt lat="36.731705" lon="-6.057950">
        <ele>72.655791</ele>
        <time>2020-08-17T08:06:21.077Z</time>
      </trkpt>
      <trkpt lat="36.731618" lon="-6.058043">
        <ele>72.171306</ele>
        <time>2020-08-17T08:06:23.077Z</time>
      </trkpt>
      <trkpt lat="36.731547" lon="-6.058121">
        <ele>71.771247</ele>
        <time>2020-08-17T08:06:25.068Z</time>
      </trkpt>
      <trkpt lat="36.731454" lon="-6.058198">
        <ele>71.299236</ele>
        <time>2020-08-17T08:06:27.074Z</time>
      </trkpt>
      <trkpt lat="36.731349" lon="-6.058267">
        <ele>70.797368</ele>
        <time>2020-08-17T08:06:29.073Z</time>
      </trkpt>
      <trkpt lat="36.731256" lon="-6.058332">
        <ele>70.346568</ele>
        <time>2020-08-17T08:06:31.072Z</time>
      </trkpt>
      <trkpt lat="36.731143" lon="-6.058373">
        <ele>69.848893</ele>
        <time>2020-08-17T08:06:33.068Z</time>
      </trkpt>
      <trkpt lat="36.731023" lon="-6.058448">
        <ele>69.281304</ele>
        <time>2020-08-17T08:06:36.067Z</time>
      </trkpt>
      <trkpt lat="36.730943" lon="-6.058499">
        <ele>68.901380</ele>
        <time>2020-08-17T08:06:38.063Z</time>
      </trkpt>
      <trkpt lat="36.730861" lon="-6.058552">
        <ele>68.510835</ele>
        <time>2020-08-17T08:06:40.070Z</time>
      </trkpt>
      <trkpt lat="36.730764" lon="-6.058586">
        <ele>68.084740</ele>
        <time>2020-08-17T08:06:42.069Z</time>
      </trkpt>
      <trkpt lat="36.730664" lon="-6.058655">
        <ele>67.601480</ele>
        <time>2020-08-17T08:06:45.064Z</time>
      </trkpt>
      <trkpt lat="36.730562" lon="-6.058703">
        <ele>67.691198</ele>
        <time>2020-08-17T08:06:48.041Z</time>
      </trkpt>
      <trkpt lat="36.730491" lon="-6.058819">
        <ele>68.287667</ele>
        <time>2020-08-17T08:06:51.071Z</time>
      </trkpt>
      <trkpt lat="36.730432" lon="-6.058921">
        <ele>68.801719</ele>
        <time>2020-08-17T08:06:54.057Z</time>
      </trkpt>
      <trkpt lat="36.730360" lon="-6.059019">
        <ele>69.345010</ele>
        <time>2020-08-17T08:06:58.075Z</time>
      </trkpt>
      <trkpt lat="36.730323" lon="-6.059138">
        <ele>69.866625</ele>
        <time>2020-08-17T08:07:02.076Z</time>
      </trkpt>
      <trkpt lat="36.730312" lon="-6.059287">
        <ele>70.478102</ele>
        <time>2020-08-17T08:07:06.079Z</time>
      </trkpt>
      <trkpt lat="36.730332" lon="-6.059429">
        <ele>71.067287</ele>
        <time>2020-08-17T08:07:10.068Z</time>
      </trkpt>
      <trkpt lat="36.730376" lon="-6.059552">
        <ele>71.617731</ele>
        <time>2020-08-17T08:07:14.059Z</time>
      </trkpt>
      <trkpt lat="36.730426" lon="-6.059665">
        <ele>72.145216</ele>
        <time>2020-08-17T08:07:18.079Z</time>
      </trkpt>
      <trkpt lat="36.730501" lon="-6.059781">
        <ele>72.754280</ele>
        <time>2020-08-17T08:07:22.080Z</time>
      </trkpt>
      <trkpt lat="36.730571" lon="-6.059878">
        <ele>73.287688</ele>
        <time>2020-08-17T08:07:26.067Z</time>
      </trkpt>
      <trkpt lat="36.730664" lon="-6.059951">
        <ele>73.847919</ele>
        <time>2020-08-17T08:07:30.075Z</time>
      </trkpt>
      <trkpt lat="36.730735" lon="-6.060041">
        <ele>74.363990</ele>
        <time>2020-08-17T08:07:33.091Z</time>
      </trkpt>
      <trkpt lat="36.730822" lon="-6.060142">
        <ele>74.969912</ele>
        <time>2020-08-17T08:07:36.069Z</time>
      </trkpt>
      <trkpt lat="36.730913" lon="-6.060281">
        <ele>75.703365</ele>
        <time>2020-08-17T08:07:39.060Z</time>
      </trkpt>
      <trkpt lat="36.730965" lon="-6.060397">
        <ele>76.246517</ele>
        <time>2020-08-17T08:07:41.056Z</time>
      </trkpt>
      <trkpt lat="36.731010" lon="-6.060588">
        <ele>76.338450</ele>
        <time>2020-08-17T08:07:43.062Z</time>
      </trkpt>
      <trkpt lat="36.731015" lon="-6.060714">
        <ele>76.108152</ele>
        <time>2020-08-17T08:07:44.058Z</time>
      </trkpt>
      <trkpt lat="36.731070" lon="-6.060814">
        <ele>75.886748</ele>
        <time>2020-08-17T08:07:45.075Z</time>
      </trkpt>
      <trkpt lat="36.731108" lon="-6.060989">
        <ele>75.555764</ele>
        <time>2020-08-17T08:07:47.075Z</time>
      </trkpt>
      <trkpt lat="36.731158" lon="-6.061174">
        <ele>75.199357</ele>
        <time>2020-08-17T08:07:49.067Z</time>
      </trkpt>
      <trkpt lat="36.731180" lon="-6.061351">
        <ele>74.872377</ele>
        <time>2020-08-17T08:07:51.084Z</time>
      </trkpt>
      <trkpt lat="36.731194" lon="-6.061533">
        <ele>74.538606</ele>
        <time>2020-08-17T08:07:53.071Z</time>
      </trkpt>
      <trkpt lat="36.731172" lon="-6.061643">
        <ele>74.331640</ele>
        <time>2020-08-17T08:07:54.071Z</time>
      </trkpt>
      <trkpt lat="36.731174" lon="-6.061768">
        <ele>74.103405</ele>
        <time>2020-08-17T08:07:56.067Z</time>
      </trkpt>
      <trkpt lat="36.731170" lon="-6.061894">
        <ele>73.873209</ele>
        <time>2020-08-17T08:07:58.070Z</time>
      </trkpt>
      <trkpt lat="36.731147" lon="-6.062044">
        <ele>73.594415</ele>
        <time>2020-08-17T08:08:00.084Z</time>
      </trkpt>
      <trkpt lat="36.731111" lon="-6.062166">
        <ele>73.357085</ele>
        <time>2020-08-17T08:08:02.080Z</time>
      </trkpt>
      <trkpt lat="36.731096" lon="-6.062307">
        <ele>73.097429</ele>
        <time>2020-08-17T08:08:04.077Z</time>
      </trkpt>
      <trkpt lat="36.731059" lon="-6.062461">
        <ele>72.803938</ele>
        <time>2020-08-17T08:08:06.075Z</time>
      </trkpt>
      <trkpt lat="36.731043" lon="-6.062613">
        <ele>72.524075</ele>
        <time>2020-08-17T08:08:09.079Z</time>
      </trkpt>
      <trkpt lat="36.731017" lon="-6.062783">
        <ele>72.807893</ele>
        <time>2020-08-17T08:08:12.060Z</time>
      </trkpt>
      <trkpt lat="36.730999" lon="-6.062903">
        <ele>73.106668</ele>
        <time>2020-08-17T08:08:14.063Z</time>
      </trkpt>
      <trkpt lat="36.730991" lon="-6.063026">
        <ele>73.408676</ele>
        <time>2020-08-17T08:08:16.049Z</time>
      </trkpt>
      <trkpt lat="36.730968" lon="-6.063142">
        <ele>73.701121</ele>
        <time>2020-08-17T08:08:18.054Z</time>
      </trkpt>
      <trkpt lat="36.730940" lon="-6.063300">
        <ele>74.097135</ele>
        <time>2020-08-17T08:08:21.057Z</time>
      </trkpt>
      <trkpt lat="36.730929" lon="-6.063423">
        <ele>74.400021</ele>
        <time>2020-08-17T08:08:23.059Z</time>
      </trkpt>
      <trkpt lat="36.730899" lon="-6.063544">
        <ele>74.709991</ele>
        <time>2020-08-17T08:08:25.069Z</time>
      </trkpt>
      <trkpt lat="36.730863" lon="-6.063718">
        <ele>75.149782</ele>
        <time>2020-08-17T08:08:28.069Z</time>
      </trkpt>
      <trkpt lat="36.730840" lon="-6.063841">
        <ele>75.458886</ele>
        <time>2020-08-17T08:08:30.089Z</time>
      </trkpt>
      <trkpt lat="36.730841" lon="-6.063964">
        <ele>75.759920</ele>
        <time>2020-08-17T08:08:32.056Z</time>
      </trkpt>
      <trkpt lat="36.730812" lon="-6.064095">
        <ele>76.092522</ele>
        <time>2020-08-17T08:08:35.073Z</time>
      </trkpt>
      <trkpt lat="36.730792" lon="-6.064209">
        <ele>76.378121</ele>
        <time>2020-08-17T08:08:37.081Z</time>
      </trkpt>
      <trkpt lat="36.730752" lon="-6.064324">
        <ele>76.684923</ele>
        <time>2020-08-17T08:08:39.065Z</time>
      </trkpt>
      <trkpt lat="36.730713" lon="-6.064502">
        <ele>77.136529</ele>
        <time>2020-08-17T08:08:42.068Z</time>
      </trkpt>
      <trkpt lat="36.730701" lon="-6.064619">
        <ele>77.425200</ele>
        <time>2020-08-17T08:08:44.072Z</time>
      </trkpt>
      <trkpt lat="36.730697" lon="-6.064734">
        <ele>77.706905</ele>
        <time>2020-08-17T08:08:46.070Z</time>
      </trkpt>
      <trkpt lat="36.730659" lon="-6.064842">
        <ele>78.031884</ele>
        <time>2020-08-17T08:08:48.080Z</time>
      </trkpt>
      <trkpt lat="36.730647" lon="-6.065007">
        <ele>78.816098</ele>
        <time>2020-08-17T08:08:51.060Z</time>
      </trkpt>
      <trkpt lat="36.730605" lon="-6.065182">
        <ele>79.680780</ele>
        <time>2020-08-17T08:08:54.072Z</time>
      </trkpt>
      <trkpt lat="36.730572" lon="-6.065299">
        <ele>80.267878</ele>
        <time>2020-08-17T08:08:56.077Z</time>
      </trkpt>
      <trkpt lat="36.730517" lon="-6.065431">
        <ele>80.972076</ele>
        <time>2020-08-17T08:08:58.063Z</time>
      </trkpt>
      <trkpt lat="36.730483" lon="-6.065566">
        <ele>81.641889</ele>
        <time>2020-08-17T08:09:00.080Z</time>
      </trkpt>
      <trkpt lat="36.730479" lon="-6.065691">
        <ele>82.234032</ele>
        <time>2020-08-17T08:09:03.068Z</time>
      </trkpt>
      <trkpt lat="36.730466" lon="-6.065807">
        <ele>82.788446</ele>
        <time>2020-08-17T08:09:05.079Z</time>
      </trkpt>
      <trkpt lat="36.730445" lon="-6.065917">
        <ele>83.323685</ele>
        <time>2020-08-17T08:09:07.059Z</time>
      </trkpt>
      <trkpt lat="36.730442" lon="-6.066041">
        <ele>83.910891</ele>
        <time>2020-08-17T08:09:09.073Z</time>
      </trkpt>
      <trkpt lat="36.730401" lon="-6.066204">
        <ele>84.719538</ele>
        <time>2020-08-17T08:09:12.077Z</time>
      </trkpt>
      <trkpt lat="36.730360" lon="-6.066348">
        <ele>85.442879</ele>
        <time>2020-08-17T08:09:15.075Z</time>
      </trkpt>
      <trkpt lat="36.730350" lon="-6.066509">
        <ele>86.207238</ele>
        <time>2020-08-17T08:09:18.079Z</time>
      </trkpt>
      <trkpt lat="36.730338" lon="-6.066662">
        <ele>86.934906</ele>
        <time>2020-08-17T08:09:21.069Z</time>
      </trkpt>
      <trkpt lat="36.730320" lon="-6.066820">
        <ele>87.690298</ele>
        <time>2020-08-17T08:09:24.071Z</time>
      </trkpt>
      <trkpt lat="36.730302" lon="-6.066986">
        <ele>88.483199</ele>
        <time>2020-08-17T08:09:27.074Z</time>
      </trkpt>
      <trkpt lat="36.730265" lon="-6.067136">
        <ele>87.562347</ele>
        <time>2020-08-17T08:09:30.070Z</time>
      </trkpt>
      <trkpt lat="36.730296" lon="-6.067260">
        <ele>86.595383</ele>
        <time>2020-08-17T08:09:33.072Z</time>
      </trkpt>
      <trkpt lat="36.730249" lon="-6.067374">
        <ele>85.641027</ele>
        <time>2020-08-17T08:09:35.074Z</time>
      </trkpt>
      <trkpt lat="36.730209" lon="-6.067509">
        <ele>84.569562</ele>
        <time>2020-08-17T08:09:37.071Z</time>
      </trkpt>
      <trkpt lat="36.730185" lon="-6.067622">
        <ele>83.699315</ele>
        <time>2020-08-17T08:09:39.066Z</time>
      </trkpt>
      <trkpt lat="36.730151" lon="-6.067728">
        <ele>82.849366</ele>
        <time>2020-08-17T08:09:41.067Z</time>
      </trkpt>
      <trkpt lat="36.730104" lon="-6.067854">
        <ele>81.814763</ele>
        <time>2020-08-17T08:09:43.064Z</time>
      </trkpt>
      <trkpt lat="36.730073" lon="-6.067973">
        <ele>80.883265</ele>
        <time>2020-08-17T08:09:45.068Z</time>
      </trkpt>
      <trkpt lat="36.730036" lon="-6.068088">
        <ele>79.960757</ele>
        <time>2020-08-17T08:09:47.078Z</time>
      </trkpt>
      <trkpt lat="36.729987" lon="-6.068215">
        <ele>78.911476</ele>
        <time>2020-08-17T08:09:49.081Z</time>
      </trkpt>
      <trkpt lat="36.729908" lon="-6.068377">
        <ele>77.499793</ele>
        <time>2020-08-17T08:09:52.064Z</time>
      </trkpt>
      <trkpt lat="36.729861" lon="-6.068517">
        <ele>76.369842</ele>
        <time>2020-08-17T08:09:55.073Z</time>
      </trkpt>
      <trkpt lat="36.729797" lon="-6.068687">
        <ele>74.971634</ele>
        <time>2020-08-17T08:09:58.078Z</time>
      </trkpt>
      <trkpt lat="36.729718" lon="-6.068818">
        <ele>73.751189</ele>
        <time>2020-08-17T08:10:00.076Z</time>
      </trkpt>
      <trkpt lat="36.729663" lon="-6.068975">
        <ele>72.475648</ele>
        <time>2020-08-17T08:10:03.071Z</time>
      </trkpt>
      <trkpt lat="36.729636" lon="-6.069117">
        <ele>72.043797</ele>
        <time>2020-08-17T08:10:05.070Z</time>
      </trkpt>
      <trkpt lat="36.729627" lon="-6.069274">
        <ele>72.458248</ele>
        <time>2020-08-17T08:10:07.068Z</time>
      </trkpt>
      <trkpt lat="36.729584" lon="-6.069413">
        <ele>72.850565</ele>
        <time>2020-08-17T08:10:10.068Z</time>
      </trkpt>
      <trkpt lat="36.729594" lon="-6.069548">
        <ele>73.207547</ele>
        <time>2020-08-17T08:10:12.068Z</time>
      </trkpt>
      <trkpt lat="36.729522" lon="-6.069689">
        <ele>73.647765</ele>
        <time>2020-08-17T08:10:15.077Z</time>
      </trkpt>
      <trkpt lat="36.729474" lon="-6.069816">
        <ele>74.017486</ele>
        <time>2020-08-17T08:10:17.072Z</time>
      </trkpt>
      <trkpt lat="36.729442" lon="-6.069946">
        <ele>74.375569</ele>
        <time>2020-08-17T08:10:20.069Z</time>
      </trkpt>
      <trkpt lat="36.729333" lon="-6.070042">
        <ele>74.813899</ele>
        <time>2020-08-17T08:10:22.074Z</time>
      </trkpt>
      <trkpt lat="36.729293" lon="-6.070164">
        <ele>75.160978</ele>
        <time>2020-08-17T08:10:24.073Z</time>
      </trkpt>
      <trkpt lat="36.729292" lon="-6.070289">
        <ele>75.490132</ele>
        <time>2020-08-17T08:10:26.067Z</time>
      </trkpt>
      <trkpt lat="36.729252" lon="-6.070451">
        <ele>75.936478</ele>
        <time>2020-08-17T08:10:28.069Z</time>
      </trkpt>
      <trkpt lat="36.729227" lon="-6.070576">
        <ele>76.275709</ele>
        <time>2020-08-17T08:10:30.066Z</time>
      </trkpt>
      <trkpt lat="36.729148" lon="-6.070703">
        <ele>76.699016</ele>
        <time>2020-08-17T08:10:32.062Z</time>
      </trkpt>
      <trkpt lat="36.729116" lon="-6.070825">
        <ele>77.037020</ele>
        <time>2020-08-17T08:10:34.075Z</time>
      </trkpt>
      <trkpt lat="36.729014" lon="-6.070891">
        <ele>77.414507</ele>
        <time>2020-08-17T08:10:36.070Z</time>
      </trkpt>
      <trkpt lat="36.729002" lon="-6.071059">
        <ele>77.713618</ele>
        <time>2020-08-17T08:10:38.050Z</time>
      </trkpt>
      <trkpt lat="36.728877" lon="-6.071160">
        <ele>77.278001</ele>
        <time>2020-08-17T08:10:40.045Z</time>
      </trkpt>
      <trkpt lat="36.728904" lon="-6.071275">
        <ele>76.997063</ele>
        <time>2020-08-17T08:10:42.065Z</time>
      </trkpt>
      <trkpt lat="36.728858" lon="-6.071373">
        <ele>76.730807</ele>
        <time>2020-08-17T08:10:44.064Z</time>
      </trkpt>
      <trkpt lat="36.728791" lon="-6.071492">
        <ele>76.389862</ele>
        <time>2020-08-17T08:10:46.050Z</time>
      </trkpt>
      <trkpt lat="36.728710" lon="-6.071543">
        <ele>76.124466</ele>
        <time>2020-08-17T08:10:47.071Z</time>
      </trkpt>
      <trkpt lat="36.728640" lon="-6.071776">
        <ele>75.541099</ele>
        <time>2020-08-17T08:10:49.067Z</time>
      </trkpt>
      <trkpt lat="36.728544" lon="-6.071890">
        <ele>75.153430</ele>
        <time>2020-08-17T08:10:51.067Z</time>
      </trkpt>
      <trkpt lat="36.728477" lon="-6.071985">
        <ele>74.856757</ele>
        <time>2020-08-17T08:10:53.063Z</time>
      </trkpt>
      <trkpt lat="36.728422" lon="-6.072081">
        <ele>74.580102</ele>
        <time>2020-08-17T08:10:55.069Z</time>
      </trkpt>
      <trkpt lat="36.728382" lon="-6.072188">
        <ele>74.303302</ele>
        <time>2020-08-17T08:10:57.065Z</time>
      </trkpt>
      <trkpt lat="36.728342" lon="-6.072344">
        <ele>73.919309</ele>
        <time>2020-08-17T08:11:00.032Z</time>
      </trkpt>
      <trkpt lat="36.728265" lon="-6.072427">
        <ele>73.621658</ele>
        <time>2020-08-17T08:11:02.057Z</time>
      </trkpt>
      <trkpt lat="36.728209" lon="-6.072531">
        <ele>73.327920</ele>
        <time>2020-08-17T08:11:04.048Z</time>
      </trkpt>
      <trkpt lat="36.728140" lon="-6.072636">
        <ele>73.009588</ele>
        <time>2020-08-17T08:11:06.070Z</time>
      </trkpt>
      <trkpt lat="36.728015" lon="-6.072707">
        <ele>72.607839</ele>
        <time>2020-08-17T08:11:08.086Z</time>
      </trkpt>
      <trkpt lat="36.727967" lon="-6.072814">
        <ele>72.447109</ele>
        <time>2020-08-17T08:11:10.064Z</time>
      </trkpt>
      <trkpt lat="36.727861" lon="-6.072911">
        <ele>72.305943</ele>
        <time>2020-08-17T08:11:12.039Z</time>
      </trkpt>
      <trkpt lat="36.727776" lon="-6.073071">
        <ele>72.140725</ele>
        <time>2020-08-17T08:11:16.066Z</time>
      </trkpt>
      <trkpt lat="36.727681" lon="-6.073129">
        <ele>72.027146</ele>
        <time>2020-08-17T08:11:18.065Z</time>
      </trkpt>
      <trkpt lat="36.727603" lon="-6.073223">
        <ele>71.910690</ele>
        <time>2020-08-17T08:11:20.050Z</time>
      </trkpt>
      <trkpt lat="36.727552" lon="-6.073383">
        <ele>71.762485</ele>
        <time>2020-08-17T08:11:23.064Z</time>
      </trkpt>
      <trkpt lat="36.727453" lon="-6.073485">
        <ele>71.624607</ele>
        <time>2020-08-17T08:11:25.043Z</time>
      </trkpt>
      <trkpt lat="36.727392" lon="-6.073579">
        <ele>71.520506</ele>
        <time>2020-08-17T08:11:27.074Z</time>
      </trkpt>
      <trkpt lat="36.727295" lon="-6.073658">
        <ele>71.396110</ele>
        <time>2020-08-17T08:11:29.058Z</time>
      </trkpt>
      <trkpt lat="36.727222" lon="-6.073748">
        <ele>71.285900</ele>
        <time>2020-08-17T08:11:31.052Z</time>
      </trkpt>
      <trkpt lat="36.727144" lon="-6.073887">
        <ele>71.139853</ele>
        <time>2020-08-17T08:11:33.067Z</time>
      </trkpt>
      <trkpt lat="36.727034" lon="-6.073998">
        <ele>70.987926</ele>
        <time>2020-08-17T08:11:35.062Z</time>
      </trkpt>
      <trkpt lat="36.726960" lon="-6.074098">
        <ele>70.870779</ele>
        <time>2020-08-17T08:11:37.071Z</time>
      </trkpt>
      <trkpt lat="36.726926" lon="-6.074208">
        <ele>70.769304</ele>
        <time>2020-08-17T08:11:39.059Z</time>
      </trkpt>
      <trkpt lat="36.726834" lon="-6.074326">
        <ele>70.627613</ele>
        <time>2020-08-17T08:11:41.060Z</time>
      </trkpt>
      <trkpt lat="36.726748" lon="-6.074410">
        <ele>70.546669</ele>
        <time>2020-08-17T08:11:43.070Z</time>
      </trkpt>
      <trkpt lat="36.726653" lon="-6.074526">
        <ele>70.469786</ele>
        <time>2020-08-17T08:11:45.067Z</time>
      </trkpt>
      <trkpt lat="36.726617" lon="-6.074664">
        <ele>70.402509</ele>
        <time>2020-08-17T08:11:47.071Z</time>
      </trkpt>
      <trkpt lat="36.726563" lon="-6.074776">
        <ele>70.341919</ele>
        <time>2020-08-17T08:11:49.059Z</time>
      </trkpt>
      <trkpt lat="36.726483" lon="-6.074890">
        <ele>70.271677</ele>
        <time>2020-08-17T08:11:51.054Z</time>
      </trkpt>
      <trkpt lat="36.726441" lon="-6.074996">
        <ele>70.216861</ele>
        <time>2020-08-17T08:11:53.066Z</time>
      </trkpt>
      <trkpt lat="36.726347" lon="-6.075104">
        <ele>70.142952</ele>
        <time>2020-08-17T08:11:56.074Z</time>
      </trkpt>
      <trkpt lat="36.726228" lon="-6.075156">
        <ele>70.070024</ele>
        <time>2020-08-17T08:11:58.067Z</time>
      </trkpt>
      <trkpt lat="36.726182" lon="-6.075289">
        <ele>70.002873</ele>
        <time>2020-08-17T08:12:00.081Z</time>
      </trkpt>
      <trkpt lat="36.726078" lon="-6.075391">
        <ele>69.926360</ele>
        <time>2020-08-17T08:12:02.081Z</time>
      </trkpt>
      <trkpt lat="36.726112" lon="-6.075561">
        <ele>69.845135</ele>
        <time>2020-08-17T08:12:03.058Z</time>
      </trkpt>
      <trkpt lat="36.726023" lon="-6.075642">
        <ele>69.781418</ele>
        <time>2020-08-17T08:12:05.071Z</time>
      </trkpt>
      <trkpt lat="36.725945" lon="-6.075712">
        <ele>69.725845</ele>
        <time>2020-08-17T08:12:07.065Z</time>
      </trkpt>
      <trkpt lat="36.725890" lon="-6.075810">
        <ele>69.670384</ele>
        <time>2020-08-17T08:12:09.068Z</time>
      </trkpt>
      <trkpt lat="36.725821" lon="-6.075945">
        <ele>69.596159</ele>
        <time>2020-08-17T08:12:12.069Z</time>
      </trkpt>
      <trkpt lat="36.725712" lon="-6.076003">
        <ele>69.549972</ele>
        <time>2020-08-17T08:12:14.058Z</time>
      </trkpt>
      <trkpt lat="36.725584" lon="-6.076097">
        <ele>69.554818</ele>
        <time>2020-08-17T08:12:16.065Z</time>
      </trkpt>
      <trkpt lat="36.725496" lon="-6.076191">
        <ele>69.558597</ele>
        <time>2020-08-17T08:12:18.058Z</time>
      </trkpt>
      <trkpt lat="36.725460" lon="-6.076337">
        <ele>69.562591</ele>
        <time>2020-08-17T08:12:20.052Z</time>
      </trkpt>
      <trkpt lat="36.725477" lon="-6.076453">
        <ele>69.565675</ele>
        <time>2020-08-17T08:12:21.049Z</time>
      </trkpt>
      <trkpt lat="36.725413" lon="-6.076590">
        <ele>69.569821</ele>
        <time>2020-08-17T08:12:23.050Z</time>
      </trkpt>
      <trkpt lat="36.725353" lon="-6.076720">
        <ele>69.573744</ele>
        <time>2020-08-17T08:12:25.081Z</time>
      </trkpt>
      <trkpt lat="36.725315" lon="-6.076847">
        <ele>69.577288</ele>
        <time>2020-08-17T08:12:27.053Z</time>
      </trkpt>
      <trkpt lat="36.725247" lon="-6.076996">
        <ele>69.581772</ele>
        <time>2020-08-17T08:12:29.055Z</time>
      </trkpt>
      <trkpt lat="36.725182" lon="-6.077122">
        <ele>69.585690</ele>
        <time>2020-08-17T08:12:32.059Z</time>
      </trkpt>
      <trkpt lat="36.725136" lon="-6.077229">
        <ele>69.588865</ele>
        <time>2020-08-17T08:12:34.070Z</time>
      </trkpt>
      <trkpt lat="36.725047" lon="-6.077269">
        <ele>69.591951</ele>
        <time>2020-08-17T08:12:36.064Z</time>
      </trkpt>
      <trkpt lat="36.724905" lon="-6.077350">
        <ele>69.597044</ele>
        <time>2020-08-17T08:12:38.057Z</time>
      </trkpt>
      <trkpt lat="36.724843" lon="-6.077457">
        <ele>69.600497</ele>
        <time>2020-08-17T08:12:40.068Z</time>
      </trkpt>
      <trkpt lat="36.724758" lon="-6.077581">
        <ele>69.604763</ele>
        <time>2020-08-17T08:12:42.070Z</time>
      </trkpt>
      <trkpt lat="36.724651" lon="-6.077654">
        <ele>69.891045</ele>
        <time>2020-08-17T08:12:44.079Z</time>
      </trkpt>
      <trkpt lat="36.724549" lon="-6.077796">
        <ele>70.991350</ele>
        <time>2020-08-17T08:12:47.074Z</time>
      </trkpt>
      <trkpt lat="36.724623" lon="-6.077912">
        <ele>71.846852</ele>
        <time>2020-08-17T08:12:49.068Z</time>
      </trkpt>
      <trkpt lat="36.724682" lon="-6.078153">
        <ele>73.300950</ele>
        <time>2020-08-17T08:12:51.055Z</time>
      </trkpt>
      <trkpt lat="36.724583" lon="-6.078181">
        <ele>74.031773</ele>
        <time>2020-08-17T08:12:52.049Z</time>
      </trkpt>
      <trkpt lat="36.724532" lon="-6.078315">
        <ele>74.887758</ele>
        <time>2020-08-17T08:12:55.081Z</time>
      </trkpt>
      <trkpt lat="36.724428" lon="-6.078391">
        <ele>75.755476</ele>
        <time>2020-08-17T08:12:57.068Z</time>
      </trkpt>
      <trkpt lat="36.724303" lon="-6.078442">
        <ele>76.702297</ele>
        <time>2020-08-17T08:12:58.058Z</time>
      </trkpt>
      <trkpt lat="36.724061" lon="-6.078605">
        <ele>78.682230</ele>
        <time>2020-08-17T08:13:03.102Z</time>
      </trkpt>
      <trkpt lat="36.723857" lon="-6.079384">
        <ele>83.019378</ele>
        <time>2020-08-17T08:13:16.060Z</time>
      </trkpt>
      <trkpt lat="36.723712" lon="-6.079495">
        <ele>83.682557</ele>
        <time>2020-08-17T08:13:19.038Z</time>
      </trkpt>
      <trkpt lat="36.723610" lon="-6.079518">
        <ele>84.086628</ele>
        <time>2020-08-17T08:13:20.056Z</time>
      </trkpt>
      <trkpt lat="36.723560" lon="-6.079658">
        <ele>84.565534</ele>
        <time>2020-08-17T08:13:25.079Z</time>
      </trkpt>
      <trkpt lat="36.723414" lon="-6.079743">
        <ele>85.193608</ele>
        <time>2020-08-17T08:13:27.065Z</time>
      </trkpt>
      <trkpt lat="36.723326" lon="-6.079860">
        <ele>85.694940</ele>
        <time>2020-08-17T08:13:29.059Z</time>
      </trkpt>
      <trkpt lat="36.723222" lon="-6.079982">
        <ele>86.251435</ele>
        <time>2020-08-17T08:13:31.076Z</time>
      </trkpt>
      <trkpt lat="36.723125" lon="-6.080075">
        <ele>86.728331</ele>
        <time>2020-08-17T08:13:33.065Z</time>
      </trkpt>
      <trkpt lat="36.722866" lon="-6.080437">
        <ele>88.244528</ele>
        <time>2020-08-17T08:13:40.063Z</time>
      </trkpt>
      <trkpt lat="36.722797" lon="-6.080588">
        <ele>88.787638</ele>
        <time>2020-08-17T08:13:43.062Z</time>
      </trkpt>
      <trkpt lat="36.722728" lon="-6.080669">
        <ele>89.156975</ele>
        <time>2020-08-17T08:13:45.058Z</time>
      </trkpt>
      <trkpt lat="36.722750" lon="-6.080792">
        <ele>89.550760</ele>
        <time>2020-08-17T08:13:46.075Z</time>
      </trkpt>
      <trkpt lat="36.722669" lon="-6.080910">
        <ele>88.412305</ele>
        <time>2020-08-17T08:13:49.055Z</time>
      </trkpt>
      <trkpt lat="36.722564" lon="-6.080990">
        <ele>87.227538</ele>
        <time>2020-08-17T08:13:52.057Z</time>
      </trkpt>
      <trkpt lat="36.722506" lon="-6.081107">
        <ele>86.165694</ele>
        <time>2020-08-17T08:13:54.068Z</time>
      </trkpt>
      <trkpt lat="36.722479" lon="-6.081233">
        <ele>85.158988</ele>
        <time>2020-08-17T08:13:56.071Z</time>
      </trkpt>
      <trkpt lat="36.722441" lon="-6.081355">
        <ele>84.148710</ele>
        <time>2020-08-17T08:13:59.044Z</time>
      </trkpt>
      <trkpt lat="36.722433" lon="-6.081490">
        <ele>83.103846</ele>
        <time>2020-08-17T08:14:04.070Z</time>
      </trkpt>
      <trkpt lat="36.722310" lon="-6.081518">
        <ele>81.899827</ele>
        <time>2020-08-17T08:14:06.070Z</time>
      </trkpt>
      <trkpt lat="36.722240" lon="-6.081599">
        <ele>80.980435</ele>
        <time>2020-08-17T08:14:09.072Z</time>
      </trkpt>
      <trkpt lat="36.722148" lon="-6.081640">
        <ele>80.039669</ele>
        <time>2020-08-17T08:14:12.078Z</time>
      </trkpt>
      <trkpt lat="36.722046" lon="-6.081631">
        <ele>79.054978</ele>
        <time>2020-08-17T08:14:14.066Z</time>
      </trkpt>
      <trkpt lat="36.721917" lon="-6.081610">
        <ele>77.802206</ele>
        <time>2020-08-17T08:14:17.080Z</time>
      </trkpt>
      <trkpt lat="36.721775" lon="-6.081727">
        <ele>76.163477</ele>
        <time>2020-08-17T08:14:20.067Z</time>
      </trkpt>
      <trkpt lat="36.721763" lon="-6.081848">
        <ele>75.222388</ele>
        <time>2020-08-17T08:14:23.070Z</time>
      </trkpt>
      <trkpt lat="36.721676" lon="-6.081944">
        <ele>74.103919</ele>
        <time>2020-08-17T08:14:26.068Z</time>
      </trkpt>
      <trkpt lat="36.721649" lon="-6.082073">
        <ele>73.074814</ele>
        <time>2020-08-17T08:14:30.072Z</time>
      </trkpt>
      <trkpt lat="36.721574" lon="-6.082159">
        <ele>72.257731</ele>
        <time>2020-08-17T08:14:36.068Z</time>
      </trkpt>
      <trkpt lat="36.721496" lon="-6.082234">
        <ele>72.319462</ele>
        <time>2020-08-17T08:14:39.068Z</time>
      </trkpt>
      <trkpt lat="36.721406" lon="-6.082327">
        <ele>72.392717</ele>
        <time>2020-08-17T08:14:44.071Z</time>
      </trkpt>
      <trkpt lat="36.721324" lon="-6.082425">
        <ele>72.463897</ele>
        <time>2020-08-17T08:14:48.067Z</time>
      </trkpt>
      <trkpt lat="36.721250" lon="-6.082489">
        <ele>72.520340</ele>
        <time>2020-08-17T08:14:51.070Z</time>
      </trkpt>
      <trkpt lat="36.721156" lon="-6.082566">
        <ele>72.590829</ele>
        <time>2020-08-17T08:14:55.076Z</time>
      </trkpt>
      <trkpt lat="36.721067" lon="-6.082666">
        <ele>72.665910</ele>
        <time>2020-08-17T08:14:59.078Z</time>
      </trkpt>
      <trkpt lat="36.721036" lon="-6.082811">
        <ele>72.741312</ele>
        <time>2020-08-17T08:15:02.067Z</time>
      </trkpt>
      <trkpt lat="36.721008" lon="-6.082930">
        <ele>72.803627</ele>
        <time>2020-08-17T08:15:04.071Z</time>
      </trkpt>
      <trkpt lat="36.720853" lon="-6.083092">
        <ele>72.930378</ele>
        <time>2020-08-17T08:15:06.060Z</time>
      </trkpt>
      <trkpt lat="36.720794" lon="-6.083245">
        <ele>73.015687</ele>
        <time>2020-08-17T08:15:08.067Z</time>
      </trkpt>
      <trkpt lat="36.720703" lon="-6.083419">
        <ele>73.120077</ele>
        <time>2020-08-17T08:15:11.080Z</time>
      </trkpt>
      <trkpt lat="36.720625" lon="-6.083575">
        <ele>73.212459</ele>
        <time>2020-08-17T08:15:13.065Z</time>
      </trkpt>
      <trkpt lat="36.720567" lon="-6.083668">
        <ele>73.271666</ele>
        <time>2020-08-17T08:15:14.078Z</time>
      </trkpt>
      <trkpt lat="36.720502" lon="-6.083849">
        <ele>73.371320</ele>
        <time>2020-08-17T08:15:16.069Z</time>
      </trkpt>
      <trkpt lat="36.720454" lon="-6.083980">
        <ele>73.159992</ele>
        <time>2020-08-17T08:15:18.071Z</time>
      </trkpt>
      <trkpt lat="36.720459" lon="-6.084110">
        <ele>72.954569</ele>
        <time>2020-08-17T08:15:19.066Z</time>
      </trkpt>
      <trkpt lat="36.720439" lon="-6.084309">
        <ele>72.638016</ele>
        <time>2020-08-17T08:15:21.069Z</time>
      </trkpt>
      <trkpt lat="36.720420" lon="-6.084438">
        <ele>72.430999</ele>
        <time>2020-08-17T08:15:23.075Z</time>
      </trkpt>
      <trkpt lat="36.720368" lon="-6.084604">
        <ele>72.149694</ele>
        <time>2020-08-17T08:15:25.077Z</time>
      </trkpt>
      <trkpt lat="36.720343" lon="-6.084719">
        <ele>71.961625</ele>
        <time>2020-08-17T08:15:27.065Z</time>
      </trkpt>
      <trkpt lat="36.720289" lon="-6.084846">
        <ele>71.734717</ele>
        <time>2020-08-17T08:15:29.061Z</time>
      </trkpt>
      <trkpt lat="36.720193" lon="-6.085024">
        <ele>71.396093</ele>
        <time>2020-08-17T08:15:31.061Z</time>
      </trkpt>
      <trkpt lat="36.720091" lon="-6.085168">
        <ele>71.092780</ele>
        <time>2020-08-17T08:15:34.084Z</time>
      </trkpt>
      <trkpt lat="36.719878" lon="-6.085194">
        <ele>70.671358</ele>
        <time>2020-08-17T08:15:35.071Z</time>
      </trkpt>
      <trkpt lat="36.719711" lon="-6.085287">
        <ele>70.311243</ele>
        <time>2020-08-17T08:15:37.072Z</time>
      </trkpt>
      <trkpt lat="36.719714" lon="-6.085416">
        <ele>70.107547</ele>
        <time>2020-08-17T08:15:39.076Z</time>
      </trkpt>
      <trkpt lat="36.719670" lon="-6.085541">
        <ele>69.892065</ele>
        <time>2020-08-17T08:15:41.067Z</time>
      </trkpt>
      <trkpt lat="36.719565" lon="-6.085630">
        <ele>69.831367</ele>
        <time>2020-08-17T08:15:43.061Z</time>
      </trkpt>
      <trkpt lat="36.719427" lon="-6.085701">
        <ele>69.828133</ele>
        <time>2020-08-17T08:15:45.081Z</time>
      </trkpt>
      <trkpt lat="36.719367" lon="-6.085819">
        <ele>69.825707</ele>
        <time>2020-08-17T08:15:47.057Z</time>
      </trkpt>
      <trkpt lat="36.719200" lon="-6.085910">
        <ele>69.821760</ele>
        <time>2020-08-17T08:15:49.037Z</time>
      </trkpt>
      <trkpt lat="36.719183" lon="-6.086025">
        <ele>69.819730</ele>
        <time>2020-08-17T08:15:51.074Z</time>
      </trkpt>
      <trkpt lat="36.719088" lon="-6.086106">
        <ele>69.817237</ele>
        <time>2020-08-17T08:15:53.039Z</time>
      </trkpt>
      <trkpt lat="36.718987" lon="-6.086221">
        <ele>69.814275</ele>
        <time>2020-08-17T08:15:55.044Z</time>
      </trkpt>
      <trkpt lat="36.718830" lon="-6.086259">
        <ele>69.810811</ele>
        <time>2020-08-17T08:15:56.071Z</time>
      </trkpt>
      <trkpt lat="36.718730" lon="-6.086287">
        <ele>69.808591</ele>
        <time>2020-08-17T08:15:57.080Z</time>
      </trkpt>
      <trkpt lat="36.718640" lon="-6.086367">
        <ele>69.806198</ele>
        <time>2020-08-17T08:15:59.059Z</time>
      </trkpt>
      <trkpt lat="36.718528" lon="-6.086460">
        <ele>69.803284</ele>
        <time>2020-08-17T08:16:01.063Z</time>
      </trkpt>
      <trkpt lat="36.718435" lon="-6.086539">
        <ele>69.800847</ele>
        <time>2020-08-17T08:16:03.071Z</time>
      </trkpt>
      <trkpt lat="36.718476" lon="-6.086655">
        <ele>69.798646</ele>
        <time>2020-08-17T08:16:05.063Z</time>
      </trkpt>
      <trkpt lat="36.718436" lon="-6.086811">
        <ele>69.795802</ele>
        <time>2020-08-17T08:16:08.061Z</time>
      </trkpt>
      <trkpt lat="36.718367" lon="-6.086900">
        <ele>69.861165</ele>
        <time>2020-08-17T08:16:10.065Z</time>
      </trkpt>
      <trkpt lat="36.718348" lon="-6.087016">
        <ele>70.020310</ele>
        <time>2020-08-17T08:16:12.065Z</time>
      </trkpt>
      <trkpt lat="36.718314" lon="-6.087166">
        <ele>70.229841</ele>
        <time>2020-08-17T08:16:15.065Z</time>
      </trkpt>
      <trkpt lat="36.718210" lon="-6.087237">
        <ele>70.428642</ele>
        <time>2020-08-17T08:16:17.077Z</time>
      </trkpt>
      <trkpt lat="36.718132" lon="-6.087303">
        <ele>70.586687</ele>
        <time>2020-08-17T08:16:19.071Z</time>
      </trkpt>
      <trkpt lat="36.718039" lon="-6.087424">
        <ele>70.812018</ele>
        <time>2020-08-17T08:16:21.069Z</time>
      </trkpt>
      <trkpt lat="36.717972" lon="-6.087540">
        <ele>71.004203</ele>
        <time>2020-08-17T08:16:23.070Z</time>
      </trkpt>
      <trkpt lat="36.717883" lon="-6.087618">
        <ele>71.186593</ele>
        <time>2020-08-17T08:16:25.071Z</time>
      </trkpt>
      <trkpt lat="36.717824" lon="-6.087801">
        <ele>71.451728</ele>
        <time>2020-08-17T08:16:28.071Z</time>
      </trkpt>
      <trkpt lat="36.717755" lon="-6.087878">
        <ele>71.606970</ele>
        <time>2020-08-17T08:16:30.065Z</time>
      </trkpt>
      <trkpt lat="36.717641" lon="-6.087895">
        <ele>71.799496</ele>
        <time>2020-08-17T08:16:32.070Z</time>
      </trkpt>
      <trkpt lat="36.717575" lon="-6.088035">
        <ele>72.017814</ele>
        <time>2020-08-17T08:16:35.061Z</time>
      </trkpt>
      <trkpt lat="36.717517" lon="-6.088195">
        <ele>72.253852</ele>
        <time>2020-08-17T08:16:38.068Z</time>
      </trkpt>
      <trkpt lat="36.717453" lon="-6.088279">
        <ele>72.409629</ele>
        <time>2020-08-17T08:16:41.068Z</time>
      </trkpt>
      <trkpt lat="36.717308" lon="-6.088343">
        <ele>72.667548</ele>
        <time>2020-08-17T08:16:43.065Z</time>
      </trkpt>
      <trkpt lat="36.717321" lon="-6.088472">
        <ele>72.783622</ele>
        <time>2020-08-17T08:16:44.063Z</time>
      </trkpt>
      <trkpt lat="36.717228" lon="-6.088564">
        <ele>72.613908</ele>
        <time>2020-08-17T08:16:47.073Z</time>
      </trkpt>
      <trkpt lat="36.717226" lon="-6.088699">
        <ele>72.459147</ele>
        <time>2020-08-17T08:16:50.065Z</time>
      </trkpt>
      <trkpt lat="36.717089" lon="-6.088765">
        <ele>72.249154</ele>
        <time>2020-08-17T08:16:53.077Z</time>
      </trkpt>
      <trkpt lat="36.716995" lon="-6.088767">
        <ele>72.114726</ele>
        <time>2020-08-17T08:16:58.062Z</time>
      </trkpt>
      <trkpt lat="36.716865" lon="-6.088822">
        <ele>71.918443</ele>
        <time>2020-08-17T08:17:07.063Z</time>
      </trkpt>
      <trkpt lat="36.716726" lon="-6.088990">
        <ele>71.641709</ele>
        <time>2020-08-17T08:17:14.053Z</time>
      </trkpt>
      <trkpt lat="36.716661" lon="-6.089103">
        <ele>71.482292</ele>
        <time>2020-08-17T08:17:17.051Z</time>
      </trkpt>
      <trkpt lat="36.716596" lon="-6.089217">
        <ele>71.321943</ele>
        <time>2020-08-17T08:17:22.064Z</time>
      </trkpt>
      <trkpt lat="36.716515" lon="-6.089331">
        <ele>71.147335</ele>
        <time>2020-08-17T08:17:26.053Z</time>
      </trkpt>
      <trkpt lat="36.716436" lon="-6.089401">
        <ele>71.008780</ele>
        <time>2020-08-17T08:17:29.053Z</time>
      </trkpt>
      <trkpt lat="36.716228" lon="-6.090023">
        <ele>70.232508</ele>
        <time>2020-08-17T08:17:52.058Z</time>
      </trkpt>
      <trkpt lat="36.715969" lon="-6.090035">
        <ele>69.299858</ele>
        <time>2020-08-17T08:17:53.058Z</time>
      </trkpt>
      <trkpt lat="36.715895" lon="-6.090107">
        <ele>68.962153</ele>
        <time>2020-08-17T08:17:55.062Z</time>
      </trkpt>
      <trkpt lat="36.715810" lon="-6.090213">
        <ele>68.529660</ele>
        <time>2020-08-17T08:17:58.060Z</time>
      </trkpt>
      <trkpt lat="36.715743" lon="-6.090325">
        <ele>68.126541</ele>
        <time>2020-08-17T08:18:01.059Z</time>
      </trkpt>
      <trkpt lat="36.715672" lon="-6.090447">
        <ele>67.691657</ele>
        <time>2020-08-17T08:18:04.056Z</time>
      </trkpt>
      <trkpt lat="36.715614" lon="-6.090547">
        <ele>67.335610</ele>
        <time>2020-08-17T08:18:06.058Z</time>
      </trkpt>
      <trkpt lat="36.715557" lon="-6.090640">
        <ele>66.997914</ele>
        <time>2020-08-17T08:18:08.060Z</time>
      </trkpt>
      <trkpt lat="36.715477" lon="-6.090705">
        <ele>66.654359</ele>
        <time>2020-08-17T08:18:11.058Z</time>
      </trkpt>
      <trkpt lat="36.714526" lon="-6.090566">
        <ele>63.833690</ele>
        <time>2020-08-17T08:18:56.138Z</time>
      </trkpt>
      <trkpt lat="36.714488" lon="-6.090684">
        <ele>63.877955</ele>
        <time>2020-08-17T08:18:58.038Z</time>
      </trkpt>
      <trkpt lat="36.714559" lon="-6.090768">
        <ele>63.920446</ele>
        <time>2020-08-17T08:19:04.041Z</time>
      </trkpt>
      <trkpt lat="36.713584" lon="-6.089765">
        <ele>64.469209</ele>
        <time>2020-08-17T08:19:30.064Z</time>
      </trkpt>
      <trkpt lat="36.711592" lon="-6.088720">
        <ele>64.431706</ele>
        <time>2020-08-17T08:20:29.047Z</time>
      </trkpt>
      <trkpt lat="36.711507" lon="-6.088668">
        <ele>64.509336</ele>
        <time>2020-08-17T08:20:31.051Z</time>
      </trkpt>
      <trkpt lat="36.711421" lon="-6.088807">
        <ele>64.624755</ele>
        <time>2020-08-17T08:20:33.043Z</time>
      </trkpt>
      <trkpt lat="36.711174" lon="-6.088835">
        <ele>64.828128</ele>
        <time>2020-08-17T08:20:35.049Z</time>
      </trkpt>
      <trkpt lat="36.711043" lon="-6.088836">
        <ele>64.935548</ele>
        <time>2020-08-17T08:20:36.051Z</time>
      </trkpt>
      <trkpt lat="36.710921" lon="-6.088932">
        <ele>65.053828</ele>
        <time>2020-08-17T08:20:38.064Z</time>
      </trkpt>
      <trkpt lat="36.710832" lon="-6.088901">
        <ele>65.129599</ele>
        <time>2020-08-17T08:20:42.051Z</time>
      </trkpt>
      <trkpt lat="36.710733" lon="-6.088919">
        <ele>65.211636</ele>
        <time>2020-08-17T08:20:44.059Z</time>
      </trkpt>
      <trkpt lat="36.710552" lon="-6.088951">
        <ele>65.361538</ele>
        <time>2020-08-17T08:20:50.059Z</time>
      </trkpt>
      <trkpt lat="36.710457" lon="-6.088960">
        <ele>65.439661</ele>
        <time>2020-08-17T08:20:54.061Z</time>
      </trkpt>
      <trkpt lat="36.710519" lon="-6.089226">
        <ele>65.621759</ele>
        <time>2020-08-17T08:21:07.067Z</time>
      </trkpt>
      <trkpt lat="36.710839" lon="-6.089319">
        <ele>66.202541</ele>
        <time>2020-08-17T08:21:08.068Z</time>
      </trkpt>
      <trkpt lat="36.710728" lon="-6.089360">
        <ele>66.518007</ele>
        <time>2020-08-17T08:21:16.038Z</time>
      </trkpt>
      <trkpt lat="36.710643" lon="-6.089402">
        <ele>66.767149</ele>
        <time>2020-08-17T08:21:26.051Z</time>
      </trkpt>
      <trkpt lat="36.710372" lon="-6.089482">
        <ele>67.526043</ele>
        <time>2020-08-17T08:28:25.048Z</time>
      </trkpt>
      <trkpt lat="36.710272" lon="-6.089468">
        <ele>67.800262</ele>
        <time>2020-08-17T08:28:31.064Z</time>
      </trkpt>
      <trkpt lat="36.709861" lon="-6.089638">
        <ele>68.980237</ele>
        <time>2020-08-17T08:31:02.098Z</time>
      </trkpt>
      <trkpt lat="36.709761" lon="-6.089670">
        <ele>69.261569</ele>
        <time>2020-08-17T08:31:04.051Z</time>
      </trkpt>
      <trkpt lat="36.709694" lon="-6.089808">
        <ele>69.614024</ele>
        <time>2020-08-17T08:31:06.036Z</time>
      </trkpt>
      <trkpt lat="36.709616" lon="-6.089980">
        <ele>70.045732</ele>
        <time>2020-08-17T08:31:08.037Z</time>
      </trkpt>
      <trkpt lat="36.709579" lon="-6.090098">
        <ele>70.322535</ele>
        <time>2020-08-17T08:31:11.053Z</time>
      </trkpt>
      <trkpt lat="36.709583" lon="-6.090222">
        <ele>70.593649</ele>
        <time>2020-08-17T08:31:13.042Z</time>
      </trkpt>
      <trkpt lat="36.709528" lon="-6.090365">
        <ele>70.587215</ele>
        <time>2020-08-17T08:31:15.068Z</time>
      </trkpt>
      <trkpt lat="36.709467" lon="-6.090484">
        <ele>70.508962</ele>
        <time>2020-08-17T08:31:17.063Z</time>
      </trkpt>
      <trkpt lat="36.709465" lon="-6.090635">
        <ele>70.425294</ele>
        <time>2020-08-17T08:31:20.047Z</time>
      </trkpt>
      <trkpt lat="36.709442" lon="-6.090770">
        <ele>70.348832</ele>
        <time>2020-08-17T08:31:23.052Z</time>
      </trkpt>
      <trkpt lat="36.709408" lon="-6.090926">
        <ele>70.259269</ele>
        <time>2020-08-17T08:31:26.055Z</time>
      </trkpt>
      <trkpt lat="36.709381" lon="-6.091077">
        <ele>70.173557</ele>
        <time>2020-08-17T08:31:32.041Z</time>
      </trkpt>
      <trkpt lat="36.709282" lon="-6.091340">
        <ele>70.012588</ele>
        <time>2020-08-17T08:31:34.044Z</time>
      </trkpt>
      <trkpt lat="36.709261" lon="-6.091499">
        <ele>69.923312</ele>
        <time>2020-08-17T08:31:37.045Z</time>
      </trkpt>
      <trkpt lat="36.709243" lon="-6.091615">
        <ele>69.857853</ele>
        <time>2020-08-17T08:31:39.052Z</time>
      </trkpt>
      <trkpt lat="36.709226" lon="-6.091742">
        <ele>69.786519</ele>
        <time>2020-08-17T08:31:41.047Z</time>
      </trkpt>
      <trkpt lat="36.709195" lon="-6.091915">
        <ele>69.688309</ele>
        <time>2020-08-17T08:31:44.064Z</time>
      </trkpt>
      <trkpt lat="36.709171" lon="-6.092052">
        <ele>69.610618</ele>
        <time>2020-08-17T08:31:46.038Z</time>
      </trkpt>
      <trkpt lat="36.709146" lon="-6.092183">
        <ele>69.536014</ele>
        <time>2020-08-17T08:31:48.061Z</time>
      </trkpt>
      <trkpt lat="36.709111" lon="-6.092305">
        <ele>69.464227</ele>
        <time>2020-08-17T08:31:50.043Z</time>
      </trkpt>
      <trkpt lat="36.709076" lon="-6.092426">
        <ele>69.378947</ele>
        <time>2020-08-17T08:31:53.066Z</time>
      </trkpt>
      <trkpt lat="36.709052" lon="-6.092577">
        <ele>69.240928</ele>
        <time>2020-08-17T08:31:56.061Z</time>
      </trkpt>
      <trkpt lat="36.709114" lon="-6.092443">
        <ele>69.102212</ele>
        <time>2020-08-17T08:32:00.059Z</time>
      </trkpt>
      <trkpt lat="36.709239" lon="-6.092410">
        <ele>68.959317</ele>
        <time>2020-08-17T08:32:04.057Z</time>
      </trkpt>
      <trkpt lat="36.709336" lon="-6.092492">
        <ele>68.828269</ele>
        <time>2020-08-17T08:32:06.065Z</time>
      </trkpt>
      <trkpt lat="36.708865" lon="-6.093476">
        <ele>67.800738</ele>
        <time>2020-08-17T08:32:10.094Z</time>
      </trkpt>
      <trkpt lat="36.708837" lon="-6.093629">
        <ele>67.660032</ele>
        <time>2020-08-17T08:32:13.052Z</time>
      </trkpt>
      <trkpt lat="36.708798" lon="-6.093768">
        <ele>67.527994</ele>
        <time>2020-08-17T08:32:16.065Z</time>
      </trkpt>
      <trkpt lat="36.708769" lon="-6.093904">
        <ele>67.408543</ele>
        <time>2020-08-17T08:32:19.050Z</time>
      </trkpt>
      <trkpt lat="36.708727" lon="-6.094005">
        <ele>67.613172</ele>
        <time>2020-08-17T08:32:20.044Z</time>
      </trkpt>
      <trkpt lat="36.708694" lon="-6.094132">
        <ele>67.853276</ele>
        <time>2020-08-17T08:32:23.063Z</time>
      </trkpt>
      <trkpt lat="36.708655" lon="-6.094249">
        <ele>68.081162</ele>
        <time>2020-08-17T08:32:25.057Z</time>
      </trkpt>
      <trkpt lat="36.708612" lon="-6.094411">
        <ele>68.388070</ele>
        <time>2020-08-17T08:32:28.048Z</time>
      </trkpt>
      <trkpt lat="36.708589" lon="-6.094524">
        <ele>68.597745</ele>
        <time>2020-08-17T08:32:30.056Z</time>
      </trkpt>
      <trkpt lat="36.708562" lon="-6.094643">
        <ele>68.820171</ele>
        <time>2020-08-17T08:32:32.059Z</time>
      </trkpt>
      <trkpt lat="36.708540" lon="-6.094768">
        <ele>69.050334</ele>
        <time>2020-08-17T08:32:34.051Z</time>
      </trkpt>
      <trkpt lat="36.708498" lon="-6.094901">
        <ele>69.307420</ele>
        <time>2020-08-17T08:32:37.051Z</time>
      </trkpt>
      <trkpt lat="36.708456" lon="-6.095071">
        <ele>69.627351</ele>
        <time>2020-08-17T08:32:40.073Z</time>
      </trkpt>
      <trkpt lat="36.708408" lon="-6.095202">
        <ele>69.886394</ele>
        <time>2020-08-17T08:32:42.048Z</time>
      </trkpt>
      <trkpt lat="36.708384" lon="-6.095330">
        <ele>70.122812</ele>
        <time>2020-08-17T08:32:44.056Z</time>
      </trkpt>
      <trkpt lat="36.708352" lon="-6.095446">
        <ele>70.343442</ele>
        <time>2020-08-17T08:32:46.046Z</time>
      </trkpt>
      <trkpt lat="36.708316" lon="-6.095573">
        <ele>70.585707</ele>
        <time>2020-08-17T08:32:48.043Z</time>
      </trkpt>
      <trkpt lat="36.708285" lon="-6.095684">
        <ele>70.797106</ele>
        <time>2020-08-17T08:32:50.049Z</time>
      </trkpt>
      <trkpt lat="36.708259" lon="-6.095811">
        <ele>71.032843</ele>
        <time>2020-08-17T08:32:52.053Z</time>
      </trkpt>
      <trkpt lat="36.708235" lon="-6.095937">
        <ele>71.265761</ele>
        <time>2020-08-17T08:32:54.053Z</time>
      </trkpt>
      <trkpt lat="36.708200" lon="-6.096050">
        <ele>71.475000</ele>
        <time>2020-08-17T08:32:56.054Z</time>
      </trkpt>
      <trkpt lat="36.708161" lon="-6.096180">
        <ele>71.676277</ele>
        <time>2020-08-17T08:32:58.051Z</time>
      </trkpt>
      <trkpt lat="36.708121" lon="-6.096301">
        <ele>71.866069</ele>
        <time>2020-08-17T08:33:00.039Z</time>
      </trkpt>
      <trkpt lat="36.708090" lon="-6.096411">
        <ele>72.035146</ele>
        <time>2020-08-17T08:33:02.059Z</time>
      </trkpt>
      <trkpt lat="36.708070" lon="-6.096578">
        <ele>72.279998</ele>
        <time>2020-08-17T08:33:05.039Z</time>
      </trkpt>
      <trkpt lat="36.708036" lon="-6.096691">
        <ele>72.455018</ele>
        <time>2020-08-17T08:33:07.068Z</time>
      </trkpt>
      <trkpt lat="36.708005" lon="-6.096801">
        <ele>72.624096</ele>
        <time>2020-08-17T08:33:09.057Z</time>
      </trkpt>
      <trkpt lat="36.707978" lon="-6.096956">
        <ele>72.854104</ele>
        <time>2020-08-17T08:33:12.059Z</time>
      </trkpt>
      <trkpt lat="36.707947" lon="-6.097070">
        <ele>73.028664</ele>
        <time>2020-08-17T08:33:14.060Z</time>
      </trkpt>
      <trkpt lat="36.707909" lon="-6.097174">
        <ele>73.194398</ele>
        <time>2020-08-17T08:33:16.060Z</time>
      </trkpt>
      <trkpt lat="36.707875" lon="-6.097289">
        <ele>73.372137</ele>
        <time>2020-08-17T08:33:18.064Z</time>
      </trkpt>
      <trkpt lat="36.707871" lon="-6.097429">
        <ele>73.575278</ele>
        <time>2020-08-17T08:33:21.057Z</time>
      </trkpt>
      <trkpt lat="36.707851" lon="-6.097541">
        <ele>73.741668</ele>
        <time>2020-08-17T08:33:23.049Z</time>
      </trkpt>
      <trkpt lat="36.707812" lon="-6.097695">
        <ele>73.975859</ele>
        <time>2020-08-17T08:33:26.046Z</time>
      </trkpt>
      <trkpt lat="36.707789" lon="-6.097835">
        <ele>74.183090</ele>
        <time>2020-08-17T08:33:29.061Z</time>
      </trkpt>
      <trkpt lat="36.707732" lon="-6.097940">
        <ele>74.366972</ele>
        <time>2020-08-17T08:33:31.049Z</time>
      </trkpt>
      <trkpt lat="36.707707" lon="-6.098085">
        <ele>74.582043</ele>
        <time>2020-08-17T08:33:34.056Z</time>
      </trkpt>
      <trkpt lat="36.707647" lon="-6.098184">
        <ele>74.737806</ele>
        <time>2020-08-17T08:33:36.049Z</time>
      </trkpt>
      <trkpt lat="36.707604" lon="-6.098291">
        <ele>74.850997</ele>
        <time>2020-08-17T08:33:38.066Z</time>
      </trkpt>
      <trkpt lat="36.707595" lon="-6.098413">
        <ele>74.966860</ele>
        <time>2020-08-17T08:33:40.053Z</time>
      </trkpt>
      <trkpt lat="36.707554" lon="-6.098572">
        <ele>75.124813</ele>
        <time>2020-08-17T08:33:43.073Z</time>
      </trkpt>
      <trkpt lat="36.707508" lon="-6.098732">
        <ele>75.285560</ele>
        <time>2020-08-17T08:33:46.057Z</time>
      </trkpt>
      <trkpt lat="36.707474" lon="-6.098882">
        <ele>75.432976</ele>
        <time>2020-08-17T08:33:49.056Z</time>
      </trkpt>
      <trkpt lat="36.707476" lon="-6.099032">
        <ele>75.574850</ele>
        <time>2020-08-17T08:33:52.060Z</time>
      </trkpt>
      <trkpt lat="36.707437" lon="-6.099181">
        <ele>75.723080</ele>
        <time>2020-08-17T08:33:55.068Z</time>
      </trkpt>
      <trkpt lat="36.707407" lon="-6.099337">
        <ele>75.874794</ele>
        <time>2020-08-17T08:33:58.058Z</time>
      </trkpt>
      <trkpt lat="36.707368" lon="-6.099439">
        <ele>75.981664</ele>
        <time>2020-08-17T08:34:00.074Z</time>
      </trkpt>
      <trkpt lat="36.707360" lon="-6.099554">
        <ele>76.090829</ele>
        <time>2020-08-17T08:34:02.078Z</time>
      </trkpt>
      <trkpt lat="36.707324" lon="-6.099726">
        <ele>76.258941</ele>
        <time>2020-08-17T08:34:05.068Z</time>
      </trkpt>
      <trkpt lat="36.707286" lon="-6.099832">
        <ele>76.368751</ele>
        <time>2020-08-17T08:34:07.058Z</time>
      </trkpt>
      <trkpt lat="36.707257" lon="-6.099977">
        <ele>76.510081</ele>
        <time>2020-08-17T08:34:10.082Z</time>
      </trkpt>
      <trkpt lat="36.707225" lon="-6.100128">
        <ele>76.657787</ele>
        <time>2020-08-17T08:34:13.047Z</time>
      </trkpt>
      <trkpt lat="36.707195" lon="-6.100291">
        <ele>76.812392</ele>
        <time>2020-08-17T08:34:16.054Z</time>
      </trkpt>
      <trkpt lat="36.707170" lon="-6.100449">
        <ele>76.663660</ele>
        <time>2020-08-17T08:34:19.054Z</time>
      </trkpt>
      <trkpt lat="36.707158" lon="-6.100570">
        <ele>76.551062</ele>
        <time>2020-08-17T08:34:21.049Z</time>
      </trkpt>
      <trkpt lat="36.707139" lon="-6.100683">
        <ele>76.444434</ele>
        <time>2020-08-17T08:34:23.042Z</time>
      </trkpt>
      <trkpt lat="36.707127" lon="-6.100832">
        <ele>76.306136</ele>
        <time>2020-08-17T08:34:26.078Z</time>
      </trkpt>
      <trkpt lat="36.707101" lon="-6.100976">
        <ele>76.169818</ele>
        <time>2020-08-17T08:34:29.057Z</time>
      </trkpt>
      <trkpt lat="36.707087" lon="-6.101128">
        <ele>76.028519</ele>
        <time>2020-08-17T08:34:32.064Z</time>
      </trkpt>
      <trkpt lat="36.707077" lon="-6.101269">
        <ele>75.897793</ele>
        <time>2020-08-17T08:34:35.064Z</time>
      </trkpt>
      <trkpt lat="36.707033" lon="-6.101395">
        <ele>75.770870</ele>
        <time>2020-08-17T08:34:37.050Z</time>
      </trkpt>
      <trkpt lat="36.706995" lon="-6.101514">
        <ele>75.652573</ele>
        <time>2020-08-17T08:34:39.064Z</time>
      </trkpt>
      <trkpt lat="36.706951" lon="-6.101667">
        <ele>75.502458</ele>
        <time>2020-08-17T08:34:42.043Z</time>
      </trkpt>
      <trkpt lat="36.706926" lon="-6.101775">
        <ele>75.398643</ele>
        <time>2020-08-17T08:34:44.072Z</time>
      </trkpt>
      <trkpt lat="36.706898" lon="-6.101886">
        <ele>75.291177</ele>
        <time>2020-08-17T08:34:46.079Z</time>
      </trkpt>
      <trkpt lat="36.706895" lon="-6.102048">
        <ele>75.141526</ele>
        <time>2020-08-17T08:34:49.073Z</time>
      </trkpt>
      <trkpt lat="36.706858" lon="-6.102196">
        <ele>74.998352</ele>
        <time>2020-08-17T08:34:52.056Z</time>
      </trkpt>
      <trkpt lat="36.706838" lon="-6.102308">
        <ele>74.892383</ele>
        <time>2020-08-17T08:34:54.078Z</time>
      </trkpt>
      <trkpt lat="36.706857" lon="-6.102444">
        <ele>74.764890</ele>
        <time>2020-08-17T08:34:57.066Z</time>
      </trkpt>
      <trkpt lat="36.706860" lon="-6.102608">
        <ele>74.830250</ele>
        <time>2020-08-17T08:35:00.057Z</time>
      </trkpt>
      <trkpt lat="36.706841" lon="-6.102752">
        <ele>74.922393</ele>
        <time>2020-08-17T08:35:03.085Z</time>
      </trkpt>
      <trkpt lat="36.706814" lon="-6.102903">
        <ele>75.020075</ele>
        <time>2020-08-17T08:35:06.079Z</time>
      </trkpt>
      <trkpt lat="36.706790" lon="-6.103030">
        <ele>75.102458</ele>
        <time>2020-08-17T08:35:08.060Z</time>
      </trkpt>
      <trkpt lat="36.706778" lon="-6.103175">
        <ele>75.194496</ele>
        <time>2020-08-17T08:35:11.081Z</time>
      </trkpt>
      <trkpt lat="36.706775" lon="-6.103289">
        <ele>75.266512</ele>
        <time>2020-08-17T08:35:13.069Z</time>
      </trkpt>
      <trkpt lat="36.706743" lon="-6.103397">
        <ele>75.339210</ele>
        <time>2020-08-17T08:35:15.068Z</time>
      </trkpt>
      <trkpt lat="36.706751" lon="-6.103528">
        <ele>75.422161</ele>
        <time>2020-08-17T08:35:18.069Z</time>
      </trkpt>
      <trkpt lat="36.706741" lon="-6.103690">
        <ele>75.524748</ele>
        <time>2020-08-17T08:35:21.049Z</time>
      </trkpt>
      <trkpt lat="36.706702" lon="-6.103865">
        <ele>75.639431</ele>
        <time>2020-08-17T08:35:24.069Z</time>
      </trkpt>
      <trkpt lat="36.706685" lon="-6.104016">
        <ele>75.735705</ele>
        <time>2020-08-17T08:35:27.058Z</time>
      </trkpt>
      <trkpt lat="36.706697" lon="-6.104167">
        <ele>75.831512</ele>
        <time>2020-08-17T08:35:30.062Z</time>
      </trkpt>
      <trkpt lat="36.706628" lon="-6.104277">
        <ele>75.919697</ele>
        <time>2020-08-17T08:35:33.083Z</time>
      </trkpt>
      <trkpt lat="36.706578" lon="-6.104413">
        <ele>76.014164</ele>
        <time>2020-08-17T08:35:36.060Z</time>
      </trkpt>
      <trkpt lat="36.706541" lon="-6.104533">
        <ele>76.095341</ele>
        <time>2020-08-17T08:35:39.053Z</time>
      </trkpt>
      <trkpt lat="36.706482" lon="-6.104656">
        <ele>76.193993</ele>
        <time>2020-08-17T08:35:42.048Z</time>
      </trkpt>
      <trkpt lat="36.706421" lon="-6.104800">
        <ele>76.327738</ele>
        <time>2020-08-17T08:35:45.050Z</time>
      </trkpt>
      <trkpt lat="36.706342" lon="-6.104896">
        <ele>76.440711</ele>
        <time>2020-08-17T08:35:47.065Z</time>
      </trkpt>
      <trkpt lat="36.706268" lon="-6.105000">
        <ele>76.554900</ele>
        <time>2020-08-17T08:35:49.040Z</time>
      </trkpt>
      <trkpt lat="36.706206" lon="-6.105127">
        <ele>76.677006</ele>
        <time>2020-08-17T08:35:52.059Z</time>
      </trkpt>
      <trkpt lat="36.706150" lon="-6.105220">
        <ele>76.772520</ele>
        <time>2020-08-17T08:35:54.062Z</time>
      </trkpt>
      <trkpt lat="36.706099" lon="-6.105314">
        <ele>76.865727</ele>
        <time>2020-08-17T08:35:56.068Z</time>
      </trkpt>
      <trkpt lat="36.706022" lon="-6.105434">
        <ele>76.991947</ele>
        <time>2020-08-17T08:35:59.074Z</time>
      </trkpt>
      <trkpt lat="36.705982" lon="-6.105576">
        <ele>77.115546</ele>
        <time>2020-08-17T08:36:02.064Z</time>
      </trkpt>
      <trkpt lat="36.705940" lon="-6.105675">
        <ele>77.207526</ele>
        <time>2020-08-17T08:36:04.065Z</time>
      </trkpt>
      <trkpt lat="36.705899" lon="-6.105778">
        <ele>77.301961</ele>
        <time>2020-08-17T08:36:06.036Z</time>
      </trkpt>
      <trkpt lat="36.705874" lon="-6.105895">
        <ele>77.401395</ele>
        <time>2020-08-17T08:36:09.043Z</time>
      </trkpt>
      <trkpt lat="36.705820" lon="-6.106015">
        <ele>77.514401</ele>
        <time>2020-08-17T08:36:12.069Z</time>
      </trkpt>
      <trkpt lat="36.705771" lon="-6.106113">
        <ele>77.609247</ele>
        <time>2020-08-17T08:36:14.070Z</time>
      </trkpt>
      <trkpt lat="36.705746" lon="-6.106258">
        <ele>77.731043</ele>
        <time>2020-08-17T08:36:17.037Z</time>
      </trkpt>
      <trkpt lat="36.705692" lon="-6.106388">
        <ele>77.851278</ele>
        <time>2020-08-17T08:36:20.061Z</time>
      </trkpt>
      <trkpt lat="36.705631" lon="-6.106518">
        <ele>77.974975</ele>
        <time>2020-08-17T08:36:23.057Z</time>
      </trkpt>
      <trkpt lat="36.705669" lon="-6.106660">
        <ele>78.021393</ele>
        <time>2020-08-17T08:36:26.052Z</time>
      </trkpt>
      <trkpt lat="36.705630" lon="-6.106819">
        <ele>78.050040</ele>
        <time>2020-08-17T08:36:29.038Z</time>
      </trkpt>
      <trkpt lat="36.705626" lon="-6.106966">
        <ele>78.075382</ele>
        <time>2020-08-17T08:36:32.058Z</time>
      </trkpt>
      <trkpt lat="36.705608" lon="-6.107099">
        <ele>78.098620</ele>
        <time>2020-08-17T08:36:35.082Z</time>
      </trkpt>
      <trkpt lat="36.705572" lon="-6.107202">
        <ele>78.117979</ele>
        <time>2020-08-17T08:36:38.060Z</time>
      </trkpt>
      <trkpt lat="36.705453" lon="-6.107465">
        <ele>78.170010</ele>
        <time>2020-08-17T08:36:44.076Z</time>
      </trkpt>
      <trkpt lat="36.705386" lon="-6.107550">
        <ele>78.190548</ele>
        <time>2020-08-17T08:36:46.057Z</time>
      </trkpt>
      <trkpt lat="36.705152" lon="-6.107627">
        <ele>78.242555</ele>
        <time>2020-08-17T08:36:47.059Z</time>
      </trkpt>
      <trkpt lat="36.705107" lon="-6.107729">
        <ele>78.262614</ele>
        <time>2020-08-17T08:36:49.072Z</time>
      </trkpt>
      <trkpt lat="36.704980" lon="-6.107775">
        <ele>78.291034</ele>
        <time>2020-08-17T08:36:50.072Z</time>
      </trkpt>
      <trkpt lat="36.704992" lon="-6.107910">
        <ele>78.314436</ele>
        <time>2020-08-17T08:36:52.037Z</time>
      </trkpt>
      <trkpt lat="36.704955" lon="-6.108030">
        <ele>78.336587</ele>
        <time>2020-08-17T08:36:53.044Z</time>
      </trkpt>
      <trkpt lat="36.705006" lon="-6.108167">
        <ele>78.362611</ele>
        <time>2020-08-17T08:36:56.040Z</time>
      </trkpt>
      <trkpt lat="36.705045" lon="-6.108279">
        <ele>78.383650</ele>
        <time>2020-08-17T08:36:58.070Z</time>
      </trkpt>
      <trkpt lat="36.705078" lon="-6.108439">
        <ele>78.366013</ele>
        <time>2020-08-17T08:37:01.070Z</time>
      </trkpt>
      <trkpt lat="36.705181" lon="-6.108535">
        <ele>78.341662</ele>
        <time>2020-08-17T08:37:04.063Z</time>
      </trkpt>
      <trkpt lat="36.705133" lon="-6.108685">
        <ele>78.317140</ele>
        <time>2020-08-17T08:37:07.079Z</time>
      </trkpt>
      <trkpt lat="36.705104" lon="-6.108794">
        <ele>78.299703</ele>
        <time>2020-08-17T08:37:09.073Z</time>
      </trkpt>
      <trkpt lat="36.705031" lon="-6.108912">
        <ele>78.277073</ele>
        <time>2020-08-17T08:37:11.037Z</time>
      </trkpt>
      <trkpt lat="36.705000" lon="-6.109039">
        <ele>78.256916</ele>
        <time>2020-08-17T08:37:13.054Z</time>
      </trkpt>
      <trkpt lat="36.704941" lon="-6.109214">
        <ele>78.228092</ele>
        <time>2020-08-17T08:37:16.049Z</time>
      </trkpt>
      <trkpt lat="36.704952" lon="-6.109376">
        <ele>78.203407</ele>
        <time>2020-08-17T08:37:19.045Z</time>
      </trkpt>
      <trkpt lat="36.704926" lon="-6.109513">
        <ele>78.182031</ele>
        <time>2020-08-17T08:37:22.054Z</time>
      </trkpt>
      <trkpt lat="36.704913" lon="-6.109656">
        <ele>78.160180</ele>
        <time>2020-08-17T08:37:24.056Z</time>
      </trkpt>
      <trkpt lat="36.704929" lon="-6.109773">
        <ele>78.142159</ele>
        <time>2020-08-17T08:37:25.073Z</time>
      </trkpt>
      <trkpt lat="36.704909" lon="-6.109973">
        <ele>78.111557</ele>
        <time>2020-08-17T08:37:27.058Z</time>
      </trkpt>
      <trkpt lat="36.704890" lon="-6.110123">
        <ele>78.088499</ele>
        <time>2020-08-17T08:37:29.044Z</time>
      </trkpt>
      <trkpt lat="36.704822" lon="-6.110252">
        <ele>78.065058</ele>
        <time>2020-08-17T08:37:31.051Z</time>
      </trkpt>
      <trkpt lat="36.704845" lon="-6.110397">
        <ele>78.088592</ele>
        <time>2020-08-17T08:37:35.053Z</time>
      </trkpt>
      <trkpt lat="36.704921" lon="-6.110524">
        <ele>78.318238</ele>
        <time>2020-08-17T08:37:37.057Z</time>
      </trkpt>
      <trkpt lat="36.704948" lon="-6.110643">
        <ele>78.497450</ele>
        <time>2020-08-17T08:37:39.047Z</time>
      </trkpt>
      <trkpt lat="36.704877" lon="-6.110555">
        <ele>78.678361</ele>
        <time>2020-08-17T08:37:40.054Z</time>
      </trkpt>
      <trkpt lat="36.704911" lon="-6.110686">
        <ele>78.877889</ele>
        <time>2020-08-17T08:37:42.033Z</time>
      </trkpt>
      <trkpt lat="36.704908" lon="-6.110853">
        <ele>79.119945</ele>
        <time>2020-08-17T08:37:45.049Z</time>
      </trkpt>
      <trkpt lat="36.705006" lon="-6.110914">
        <ele>79.317905</ele>
        <time>2020-08-17T08:37:46.060Z</time>
      </trkpt>
      <trkpt lat="36.705183" lon="-6.110980">
        <ele>79.651812</ele>
        <time>2020-08-17T08:37:47.046Z</time>
      </trkpt>
      <trkpt lat="36.705151" lon="-6.111137">
        <ele>79.886552</ele>
        <time>2020-08-17T08:37:49.044Z</time>
      </trkpt>
      <trkpt lat="36.705169" lon="-6.111247">
        <ele>80.049236</ele>
        <time>2020-08-17T08:37:52.038Z</time>
      </trkpt>
      <trkpt lat="36.705132" lon="-6.111364">
        <ele>80.231490</ele>
        <time>2020-08-17T08:37:54.036Z</time>
      </trkpt>
      <trkpt lat="36.705084" lon="-6.111503">
        <ele>80.450800</ele>
        <time>2020-08-17T08:37:56.045Z</time>
      </trkpt>
      <trkpt lat="36.705119" lon="-6.111641">
        <ele>80.660539</ele>
        <time>2020-08-17T08:37:59.061Z</time>
      </trkpt>
      <trkpt lat="36.705156" lon="-6.111745">
        <ele>80.825414</ele>
        <time>2020-08-17T08:38:01.054Z</time>
      </trkpt>
      <trkpt lat="36.705227" lon="-6.111841">
        <ele>81.014675</ele>
        <time>2020-08-17T08:38:04.049Z</time>
      </trkpt>
      <trkpt lat="36.705296" lon="-6.111967">
        <ele>81.235785</ele>
        <time>2020-08-17T08:38:07.042Z</time>
      </trkpt>
      <trkpt lat="36.705346" lon="-6.112062">
        <ele>81.343499</ele>
        <time>2020-08-17T08:38:09.040Z</time>
      </trkpt>
      <trkpt lat="36.705222" lon="-6.112342">
        <ele>81.549533</ele>
        <time>2020-08-17T08:38:11.042Z</time>
      </trkpt>
      <trkpt lat="36.705190" lon="-6.112464">
        <ele>81.632212</ele>
        <time>2020-08-17T08:38:13.043Z</time>
      </trkpt>
      <trkpt lat="36.705081" lon="-6.112568">
        <ele>81.742465</ele>
        <time>2020-08-17T08:38:15.049Z</time>
      </trkpt>
      <trkpt lat="36.704998" lon="-6.112729">
        <ele>81.865755</ele>
        <time>2020-08-17T08:38:17.039Z</time>
      </trkpt>
      <trkpt lat="36.704872" lon="-6.112892">
        <ele>82.011597</ele>
        <time>2020-08-17T08:38:19.043Z</time>
      </trkpt>
      <trkpt lat="36.704748" lon="-6.112989">
        <ele>82.129189</ele>
        <time>2020-08-17T08:38:20.049Z</time>
      </trkpt>
      <trkpt lat="36.704565" lon="-6.113233">
        <ele>82.344399</ele>
        <time>2020-08-17T08:38:25.081Z</time>
      </trkpt>
      <trkpt lat="36.704636" lon="-6.113393">
        <ele>82.462189</ele>
        <time>2020-08-17T08:38:33.055Z</time>
      </trkpt>
      <trkpt lat="36.704540" lon="-6.113468">
        <ele>82.553195</ele>
        <time>2020-08-17T08:38:34.043Z</time>
      </trkpt>
      <trkpt lat="36.704429" lon="-6.113567">
        <ele>82.662826</ele>
        <time>2020-08-17T08:38:37.064Z</time>
      </trkpt>
      <trkpt lat="36.704413" lon="-6.113681">
        <ele>82.737371</ele>
        <time>2020-08-17T08:38:43.073Z</time>
      </trkpt>
      <trkpt lat="36.704508" lon="-6.113601">
        <ele>82.619758</ele>
        <time>2020-08-17T08:38:48.063Z</time>
      </trkpt>
      <trkpt lat="36.704520" lon="-6.113713">
        <ele>82.516116</ele>
        <time>2020-08-17T08:39:00.072Z</time>
      </trkpt>
      <trkpt lat="36.704408" lon="-6.113831">
        <ele>82.348390</ele>
        <time>2020-08-17T08:39:03.050Z</time>
      </trkpt>
      <trkpt lat="36.704296" lon="-6.113907">
        <ele>82.202522</ele>
        <time>2020-08-17T08:39:05.052Z</time>
      </trkpt>
      <trkpt lat="36.704141" lon="-6.113974">
        <ele>82.014849</ele>
        <time>2020-08-17T08:39:06.042Z</time>
      </trkpt>
      <trkpt lat="36.704109" lon="-6.114098">
        <ele>81.895367</ele>
        <time>2020-08-17T08:39:09.036Z</time>
      </trkpt>
      <trkpt lat="36.704046" lon="-6.114181">
        <ele>81.790531</ele>
        <time>2020-08-17T08:39:12.049Z</time>
      </trkpt>
      <trkpt lat="36.704022" lon="-6.114309">
        <ele>81.669959</ele>
        <time>2020-08-17T08:39:15.043Z</time>
      </trkpt>
      <trkpt lat="36.704034" lon="-6.114431">
        <ele>81.557219</ele>
        <time>2020-08-17T08:39:19.047Z</time>
      </trkpt>
      <trkpt lat="36.703981" lon="-6.114546">
        <ele>81.435553</ele>
        <time>2020-08-17T08:39:23.039Z</time>
      </trkpt>
      <trkpt lat="36.703998" lon="-6.114659">
        <ele>81.330098</ele>
        <time>2020-08-17T08:39:26.059Z</time>
      </trkpt>
      <trkpt lat="36.703956" lon="-6.114794">
        <ele>81.197277</ele>
        <time>2020-08-17T08:39:29.043Z</time>
      </trkpt>
      <trkpt lat="36.703896" lon="-6.114911">
        <ele>81.069887</ele>
        <time>2020-08-17T08:39:31.059Z</time>
      </trkpt>
      <trkpt lat="36.703823" lon="-6.115000">
        <ele>80.953102</ele>
        <time>2020-08-17T08:39:33.049Z</time>
      </trkpt>
      <trkpt lat="36.703591" lon="-6.115065">
        <ele>80.682115</ele>
        <time>2020-08-17T08:39:34.051Z</time>
      </trkpt>
      <trkpt lat="36.703570" lon="-6.115180">
        <ele>80.601180</ele>
        <time>2020-08-17T08:39:35.039Z</time>
      </trkpt>
      <trkpt lat="36.703541" lon="-6.115347">
        <ele>80.483926</ele>
        <time>2020-08-17T08:39:36.046Z</time>
      </trkpt>
      <trkpt lat="36.703445" lon="-6.115466">
        <ele>80.368084</ele>
        <time>2020-08-17T08:39:38.040Z</time>
      </trkpt>
      <trkpt lat="36.703394" lon="-6.115602">
        <ele>80.265056</ele>
        <time>2020-08-17T08:39:40.046Z</time>
      </trkpt>
      <trkpt lat="36.703337" lon="-6.115706">
        <ele>80.178609</ele>
        <time>2020-08-17T08:39:42.039Z</time>
      </trkpt>
      <trkpt lat="36.703262" lon="-6.115772">
        <ele>80.100048</ele>
        <time>2020-08-17T08:39:43.037Z</time>
      </trkpt>
      <trkpt lat="36.703169" lon="-6.115855">
        <ele>80.002171</ele>
        <time>2020-08-17T08:39:45.036Z</time>
      </trkpt>
      <trkpt lat="36.703004" lon="-6.116088">
        <ele>79.788846</ele>
        <time>2020-08-17T08:39:50.056Z</time>
      </trkpt>
      <trkpt lat="36.702869" lon="-6.116123">
        <ele>79.670830</ele>
        <time>2020-08-17T08:39:51.043Z</time>
      </trkpt>
      <trkpt lat="36.702576" lon="-6.116400">
        <ele>79.356155</ele>
        <time>2020-08-17T08:39:56.039Z</time>
      </trkpt>
      <trkpt lat="36.702448" lon="-6.116575">
        <ele>79.193602</ele>
        <time>2020-08-17T08:39:59.052Z</time>
      </trkpt>
      <trkpt lat="36.702407" lon="-6.116731">
        <ele>78.951415</ele>
        <time>2020-08-17T08:40:04.061Z</time>
      </trkpt>
      <trkpt lat="36.702388" lon="-6.116857">
        <ele>78.687614</ele>
        <time>2020-08-17T08:40:07.053Z</time>
      </trkpt>
      <trkpt lat="36.702309" lon="-6.116980">
        <ele>78.363337</ele>
        <time>2020-08-17T08:40:09.041Z</time>
      </trkpt>
      <trkpt lat="36.702188" lon="-6.117081">
        <ele>77.989684</ele>
        <time>2020-08-17T08:40:11.042Z</time>
      </trkpt>
      <trkpt lat="36.702066" lon="-6.117154">
        <ele>77.642422</ele>
        <time>2020-08-17T08:40:13.054Z</time>
      </trkpt>
      <trkpt lat="36.702039" lon="-6.117264">
        <ele>77.405718</ele>
        <time>2020-08-17T08:40:15.049Z</time>
      </trkpt>
      <trkpt lat="36.701946" lon="-6.117337">
        <ele>77.123715</ele>
        <time>2020-08-17T08:40:18.055Z</time>
      </trkpt>
      <trkpt lat="36.700132" lon="-6.119343">
        <ele>71.580287</ele>
        <time>2020-08-17T08:41:09.041Z</time>
      </trkpt>
      <trkpt lat="36.700126" lon="-6.119489">
        <ele>71.335718</ele>
        <time>2020-08-17T08:41:11.034Z</time>
      </trkpt>
      <trkpt lat="36.700192" lon="-6.119572">
        <ele>71.140156</ele>
        <time>2020-08-17T08:41:13.057Z</time>
      </trkpt>
      <trkpt lat="36.700124" lon="-6.119698">
        <ele>70.886062</ele>
        <time>2020-08-17T08:41:15.050Z</time>
      </trkpt>
      <trkpt lat="36.700108" lon="-6.119849">
        <ele>71.445723</ele>
        <time>2020-08-17T08:41:18.047Z</time>
      </trkpt>
      <trkpt lat="36.700005" lon="-6.120005">
        <ele>72.998825</ele>
        <time>2020-08-17T08:41:21.064Z</time>
      </trkpt>
      <trkpt lat="36.699858" lon="-6.120177">
        <ele>74.930863</ele>
        <time>2020-08-17T08:41:24.040Z</time>
      </trkpt>
      <trkpt lat="36.699495" lon="-6.120592">
        <ele>79.650951</ele>
        <time>2020-08-17T08:41:32.050Z</time>
      </trkpt>
      <trkpt lat="36.699444" lon="-6.120740">
        <ele>80.888987</ele>
        <time>2020-08-17T08:41:34.052Z</time>
      </trkpt>
      <trkpt lat="36.699379" lon="-6.120891">
        <ele>82.206155</ele>
        <time>2020-08-17T08:41:36.062Z</time>
      </trkpt>
      <trkpt lat="36.699267" lon="-6.120925">
        <ele>83.311058</ele>
        <time>2020-08-17T08:41:37.055Z</time>
      </trkpt>
      <trkpt lat="36.699034" lon="-6.120871">
        <ele>85.582680</ele>
        <time>2020-08-17T08:41:38.053Z</time>
      </trkpt>
      <trkpt lat="36.699017" lon="-6.121038">
        <ele>86.876447</ele>
        <time>2020-08-17T08:41:40.046Z</time>
      </trkpt>
      <trkpt lat="36.698561" lon="-6.121441">
        <ele>88.675963</ele>
        <time>2020-08-17T08:41:49.066Z</time>
      </trkpt>
      <trkpt lat="36.698568" lon="-6.121601">
        <ele>88.868300</ele>
        <time>2020-08-17T08:41:51.044Z</time>
      </trkpt>
      <trkpt lat="36.698476" lon="-6.121621">
        <ele>89.008106</ele>
        <time>2020-08-17T08:41:52.078Z</time>
      </trkpt>
      <trkpt lat="36.698391" lon="-6.121688">
        <ele>89.158639</ele>
        <time>2020-08-17T08:41:53.041Z</time>
      </trkpt>
      <trkpt lat="36.698315" lon="-6.121779">
        <ele>89.316361</ele>
        <time>2020-08-17T08:41:55.068Z</time>
      </trkpt>
      <trkpt lat="36.696393" lon="-6.123533">
        <ele>89.967786</ele>
        <time>2020-08-17T08:43:13.047Z</time>
      </trkpt>
      <trkpt lat="36.696310" lon="-6.123581">
        <ele>89.920962</ele>
        <time>2020-08-17T08:43:18.049Z</time>
      </trkpt>
      <trkpt lat="36.695974" lon="-6.123612">
        <ele>89.560632</ele>
        <time>2020-08-17T08:43:24.044Z</time>
      </trkpt>
      <trkpt lat="36.695691" lon="-6.123679">
        <ele>88.739273</ele>
        <time>2020-08-17T08:43:25.048Z</time>
      </trkpt>
      <trkpt lat="36.695639" lon="-6.123780">
        <ele>88.464850</ele>
        <time>2020-08-17T08:43:28.044Z</time>
      </trkpt>
      <trkpt lat="36.695386" lon="-6.123851">
        <ele>87.725406</ele>
        <time>2020-08-17T08:43:30.071Z</time>
      </trkpt>
      <trkpt lat="36.694856" lon="-6.125103">
        <ele>84.672628</ele>
        <time>2020-08-17T08:44:12.071Z</time>
      </trkpt>
      <trkpt lat="36.694740" lon="-6.125133">
        <ele>84.695461</ele>
        <time>2020-08-17T08:44:14.043Z</time>
      </trkpt>
      <trkpt lat="36.694486" lon="-6.125246">
        <ele>84.747439</ele>
        <time>2020-08-17T08:44:17.044Z</time>
      </trkpt>
      <trkpt lat="36.694603" lon="-6.125369">
        <ele>84.776932</ele>
        <time>2020-08-17T08:44:18.050Z</time>
      </trkpt>
      <trkpt lat="36.694392" lon="-6.125291">
        <ele>84.819349</ele>
        <time>2020-08-17T08:44:24.050Z</time>
      </trkpt>
      <trkpt lat="36.694264" lon="-6.125337">
        <ele>84.845024</ele>
        <time>2020-08-17T08:44:27.066Z</time>
      </trkpt>
      <trkpt lat="36.693634" lon="-6.125380">
        <ele>84.966632</ele>
        <time>2020-08-17T08:45:05.043Z</time>
      </trkpt>
      <trkpt lat="36.693596" lon="-6.125261">
        <ele>84.986428</ele>
        <time>2020-08-17T08:45:08.048Z</time>
      </trkpt>
      <trkpt lat="36.693514" lon="-6.125150">
        <ele>85.024935</ele>
        <time>2020-08-17T08:45:11.038Z</time>
      </trkpt>
      <trkpt lat="36.693416" lon="-6.125019">
        <ele>85.251441</ele>
        <time>2020-08-17T08:45:14.043Z</time>
      </trkpt>
      <trkpt lat="36.693366" lon="-6.124906">
        <ele>85.414611</ele>
        <time>2020-08-17T08:45:16.067Z</time>
      </trkpt>
      <trkpt lat="36.693307" lon="-6.124800">
        <ele>85.577746</ele>
        <time>2020-08-17T08:45:19.069Z</time>
      </trkpt>
      <trkpt lat="36.693238" lon="-6.124714">
        <ele>85.731555</ele>
        <time>2020-08-17T08:45:21.068Z</time>
      </trkpt>
      <trkpt lat="36.693153" lon="-6.124647">
        <ele>85.890099</ele>
        <time>2020-08-17T08:45:23.055Z</time>
      </trkpt>
      <trkpt lat="36.693107" lon="-6.124531">
        <ele>86.053708</ele>
        <time>2020-08-17T08:45:25.078Z</time>
      </trkpt>
      <trkpt lat="36.693029" lon="-6.124424">
        <ele>86.236532</ele>
        <time>2020-08-17T08:45:27.068Z</time>
      </trkpt>
      <trkpt lat="36.692984" lon="-6.124284">
        <ele>86.427221</ele>
        <time>2020-08-17T08:45:29.072Z</time>
      </trkpt>
      <trkpt lat="36.692971" lon="-6.124125">
        <ele>86.629283</ele>
        <time>2020-08-17T08:45:31.074Z</time>
      </trkpt>
      <trkpt lat="36.692927" lon="-6.124008">
        <ele>86.792663</ele>
        <time>2020-08-17T08:45:33.075Z</time>
      </trkpt>
      <trkpt lat="36.692828" lon="-6.123937">
        <ele>86.972725</ele>
        <time>2020-08-17T08:45:36.060Z</time>
      </trkpt>
      <trkpt lat="36.692736" lon="-6.123937">
        <ele>87.117781</ele>
        <time>2020-08-17T08:45:39.058Z</time>
      </trkpt>
      <trkpt lat="36.692695" lon="-6.124061">
        <ele>87.287357</ele>
        <time>2020-08-17T08:46:00.034Z</time>
      </trkpt>
      <trkpt lat="36.692620" lon="-6.124172">
        <ele>87.470871</ele>
        <time>2020-08-17T08:46:02.038Z</time>
      </trkpt>
      <trkpt lat="36.692542" lon="-6.124256">
        <ele>87.633361</ele>
        <time>2020-08-17T08:46:04.047Z</time>
      </trkpt>
      <trkpt lat="36.692467" lon="-6.124352">
        <ele>87.802814</ele>
        <time>2020-08-17T08:46:06.052Z</time>
      </trkpt>
      <trkpt lat="36.692393" lon="-6.124453">
        <ele>87.831524</ele>
        <time>2020-08-17T08:46:08.040Z</time>
      </trkpt>
      <trkpt lat="36.692295" lon="-6.124556">
        <ele>87.813143</ele>
        <time>2020-08-17T08:46:10.055Z</time>
      </trkpt>
      <trkpt lat="36.692204" lon="-6.124640">
        <ele>87.796905</ele>
        <time>2020-08-17T08:46:12.046Z</time>
      </trkpt>
      <trkpt lat="36.692106" lon="-6.124721">
        <ele>87.780044</ele>
        <time>2020-08-17T08:46:14.037Z</time>
      </trkpt>
      <trkpt lat="36.692031" lon="-6.124840">
        <ele>87.762637</ele>
        <time>2020-08-17T08:46:16.053Z</time>
      </trkpt>
      <trkpt lat="36.691962" lon="-6.124954">
        <ele>87.746211</ele>
        <time>2020-08-17T08:46:18.045Z</time>
      </trkpt>
      <trkpt lat="36.691892" lon="-6.125035">
        <ele>87.732516</ele>
        <time>2020-08-17T08:46:20.043Z</time>
      </trkpt>
      <trkpt lat="36.691795" lon="-6.125114">
        <ele>87.715901</ele>
        <time>2020-08-17T08:46:22.055Z</time>
      </trkpt>
      <trkpt lat="36.691704" lon="-6.125147">
        <ele>87.702309</ele>
        <time>2020-08-17T08:46:23.062Z</time>
      </trkpt>
      <trkpt lat="36.691576" lon="-6.125207">
        <ele>87.682697</ele>
        <time>2020-08-17T08:46:25.052Z</time>
      </trkpt>
      <trkpt lat="36.691486" lon="-6.125233">
        <ele>87.669448</ele>
        <time>2020-08-17T08:46:26.041Z</time>
      </trkpt>
      <trkpt lat="36.691451" lon="-6.125347">
        <ele>87.655409</ele>
        <time>2020-08-17T08:46:28.053Z</time>
      </trkpt>
      <trkpt lat="36.691389" lon="-6.125472">
        <ele>87.638506</ele>
        <time>2020-08-17T08:46:30.035Z</time>
      </trkpt>
      <trkpt lat="36.691325" lon="-6.125554">
        <ele>87.625346</ele>
        <time>2020-08-17T08:46:31.052Z</time>
      </trkpt>
      <trkpt lat="36.691219" lon="-6.125676">
        <ele>87.604659</ele>
        <time>2020-08-17T08:46:33.038Z</time>
      </trkpt>
      <trkpt lat="36.691088" lon="-6.125761">
        <ele>87.589719</ele>
        <time>2020-08-17T08:46:36.046Z</time>
      </trkpt>
      <trkpt lat="36.690965" lon="-6.125829">
        <ele>87.627434</ele>
        <time>2020-08-17T08:46:38.047Z</time>
      </trkpt>
      <trkpt lat="36.690938" lon="-6.125962">
        <ele>87.658274</ele>
        <time>2020-08-17T08:46:40.042Z</time>
      </trkpt>
      <trkpt lat="36.690823" lon="-6.125962">
        <ele>87.690511</ele>
        <time>2020-08-17T08:46:41.057Z</time>
      </trkpt>
      <trkpt lat="36.690718" lon="-6.126118">
        <ele>87.736293</ele>
        <time>2020-08-17T08:46:43.053Z</time>
      </trkpt>
      <trkpt lat="36.690653" lon="-6.126202">
        <ele>87.762533</ele>
        <time>2020-08-17T08:46:44.061Z</time>
      </trkpt>
      <trkpt lat="36.690553" lon="-6.126300">
        <ele>87.798185</ele>
        <time>2020-08-17T08:46:47.046Z</time>
      </trkpt>
      <trkpt lat="36.690451" lon="-6.126366">
        <ele>87.830398</ele>
        <time>2020-08-17T08:46:49.067Z</time>
      </trkpt>
      <trkpt lat="36.690363" lon="-6.126448">
        <ele>87.861192</ele>
        <time>2020-08-17T08:46:51.059Z</time>
      </trkpt>
      <trkpt lat="36.690242" lon="-6.126537">
        <ele>87.900571</ele>
        <time>2020-08-17T08:46:53.058Z</time>
      </trkpt>
      <trkpt lat="36.690118" lon="-6.126597">
        <ele>87.937856</ele>
        <time>2020-08-17T08:46:55.052Z</time>
      </trkpt>
      <trkpt lat="36.690009" lon="-6.126682">
        <ele>87.973894</ele>
        <time>2020-08-17T08:46:57.049Z</time>
      </trkpt>
      <trkpt lat="36.689896" lon="-6.126747">
        <ele>88.008777</ele>
        <time>2020-08-17T08:46:59.069Z</time>
      </trkpt>
      <trkpt lat="36.689789" lon="-6.126804">
        <ele>88.041394</ele>
        <time>2020-08-17T08:47:01.045Z</time>
      </trkpt>
      <trkpt lat="36.689666" lon="-6.126865">
        <ele>88.078500</ele>
        <time>2020-08-17T08:47:03.053Z</time>
      </trkpt>
      <trkpt lat="36.689568" lon="-6.126967">
        <ele>88.104763</ele>
        <time>2020-08-17T08:47:05.042Z</time>
      </trkpt>
      <trkpt lat="36.689456" lon="-6.127061">
        <ele>88.127897</ele>
        <time>2020-08-17T08:47:07.051Z</time>
      </trkpt>
      <trkpt lat="36.689330" lon="-6.127131">
        <ele>88.151534</ele>
        <time>2020-08-17T08:47:09.055Z</time>
      </trkpt>
      <trkpt lat="36.689202" lon="-6.127211">
        <ele>88.176068</ele>
        <time>2020-08-17T08:47:11.054Z</time>
      </trkpt>
      <trkpt lat="36.689058" lon="-6.127253">
        <ele>88.201410</ele>
        <time>2020-08-17T08:47:13.052Z</time>
      </trkpt>
      <trkpt lat="36.688947" lon="-6.127277">
        <ele>88.220714</ele>
        <time>2020-08-17T08:47:14.035Z</time>
      </trkpt>
      <trkpt lat="36.688858" lon="-6.127363">
        <ele>88.240008</ele>
        <time>2020-08-17T08:47:16.038Z</time>
      </trkpt>
      <trkpt lat="36.688801" lon="-6.127484">
        <ele>88.259291</ele>
        <time>2020-08-17T08:47:18.068Z</time>
      </trkpt>
      <trkpt lat="36.688801" lon="-6.127654">
        <ele>88.282651</ele>
        <time>2020-08-17T08:47:20.044Z</time>
      </trkpt>
      <trkpt lat="36.688764" lon="-6.127808">
        <ele>88.304742</ele>
        <time>2020-08-17T08:47:22.041Z</time>
      </trkpt>
      <trkpt lat="36.688684" lon="-6.127941">
        <ele>88.327587</ele>
        <time>2020-08-17T08:47:24.047Z</time>
      </trkpt>
      <trkpt lat="36.688565" lon="-6.128018">
        <ele>88.350561</ele>
        <time>2020-08-17T08:47:26.044Z</time>
      </trkpt>
      <trkpt lat="36.688415" lon="-6.128000">
        <ele>88.376383</ele>
        <time>2020-08-17T08:47:29.044Z</time>
      </trkpt>
      <trkpt lat="36.688311" lon="-6.128000">
        <ele>88.394204</ele>
        <time>2020-08-17T08:47:30.044Z</time>
      </trkpt>
      <trkpt lat="36.688154" lon="-6.128047">
        <ele>88.364477</ele>
        <time>2020-08-17T08:47:32.041Z</time>
      </trkpt>
      <trkpt lat="36.688003" lon="-6.128076">
        <ele>88.327698</ele>
        <time>2020-08-17T08:47:34.052Z</time>
      </trkpt>
      <trkpt lat="36.687911" lon="-6.128127">
        <ele>88.303462</ele>
        <time>2020-08-17T08:47:36.049Z</time>
      </trkpt>
      <trkpt lat="36.687792" lon="-6.128191">
        <ele>88.272265</ele>
        <time>2020-08-17T08:47:38.045Z</time>
      </trkpt>
      <trkpt lat="36.687640" lon="-6.128186">
        <ele>88.235661</ele>
        <time>2020-08-17T08:47:40.041Z</time>
      </trkpt>
      <trkpt lat="36.687506" lon="-6.128153">
        <ele>88.202781</ele>
        <time>2020-08-17T08:47:42.045Z</time>
      </trkpt>
      <trkpt lat="36.687350" lon="-6.128153">
        <ele>88.165227</ele>
        <time>2020-08-17T08:47:44.038Z</time>
      </trkpt>
      <trkpt lat="36.687191" lon="-6.128131">
        <ele>88.126717</ele>
        <time>2020-08-17T08:47:46.047Z</time>
      </trkpt>
      <trkpt lat="36.687099" lon="-6.128150">
        <ele>88.104268</ele>
        <time>2020-08-17T08:47:47.053Z</time>
      </trkpt>
      <trkpt lat="36.686951" lon="-6.128181">
        <ele>88.068142</ele>
        <time>2020-08-17T08:47:49.033Z</time>
      </trkpt>
      <trkpt lat="36.686808" lon="-6.128223">
        <ele>88.032776</ele>
        <time>2020-08-17T08:47:51.044Z</time>
      </trkpt>
      <trkpt lat="36.686693" lon="-6.128283">
        <ele>88.002767</ele>
        <time>2020-08-17T08:47:53.048Z</time>
      </trkpt>
      <trkpt lat="36.686537" lon="-6.128289">
        <ele>87.965195</ele>
        <time>2020-08-17T08:47:55.058Z</time>
      </trkpt>
      <trkpt lat="36.686434" lon="-6.128277">
        <ele>87.950676</ele>
        <time>2020-08-17T08:47:56.036Z</time>
      </trkpt>
      <trkpt lat="36.686301" lon="-6.128300">
        <ele>87.931924</ele>
        <time>2020-08-17T08:47:58.050Z</time>
      </trkpt>
      <trkpt lat="36.686206" lon="-6.128399">
        <ele>87.914634</ele>
        <time>2020-08-17T08:48:00.034Z</time>
      </trkpt>
      <trkpt lat="36.686037" lon="-6.128420">
        <ele>87.890915</ele>
        <time>2020-08-17T08:48:02.038Z</time>
      </trkpt>
      <trkpt lat="36.685901" lon="-6.128309">
        <ele>87.868216</ele>
        <time>2020-08-17T08:48:03.042Z</time>
      </trkpt>
      <trkpt lat="36.685801" lon="-6.128334">
        <ele>87.853973</ele>
        <time>2020-08-17T08:48:04.040Z</time>
      </trkpt>
      <trkpt lat="36.685700" lon="-6.128372">
        <ele>87.839239</ele>
        <time>2020-08-17T08:48:05.052Z</time>
      </trkpt>
      <trkpt lat="36.685599" lon="-6.128355">
        <ele>87.825006</ele>
        <time>2020-08-17T08:48:06.040Z</time>
      </trkpt>
      <trkpt lat="36.685511" lon="-6.128383">
        <ele>87.812323</ele>
        <time>2020-08-17T08:48:07.048Z</time>
      </trkpt>
      <trkpt lat="36.685369" lon="-6.128444">
        <ele>87.791348</ele>
        <time>2020-08-17T08:48:09.043Z</time>
      </trkpt>
      <trkpt lat="36.685220" lon="-6.128466">
        <ele>87.770394</ele>
        <time>2020-08-17T08:48:11.058Z</time>
      </trkpt>
      <trkpt lat="36.685065" lon="-6.128489">
        <ele>87.748595</ele>
        <time>2020-08-17T08:48:13.037Z</time>
      </trkpt>
      <trkpt lat="36.684929" lon="-6.128467">
        <ele>87.729443</ele>
        <time>2020-08-17T08:48:15.060Z</time>
      </trkpt>
      <trkpt lat="36.684850" lon="-6.128541">
        <ele>87.715644</ele>
        <time>2020-08-17T08:48:18.050Z</time>
      </trkpt>
      <trkpt lat="36.684705" lon="-6.128552">
        <ele>87.593899</ele>
        <time>2020-08-17T08:48:20.057Z</time>
      </trkpt>
      <trkpt lat="36.684541" lon="-6.128856">
        <ele>87.327549</ele>
        <time>2020-08-17T08:48:22.064Z</time>
      </trkpt>
      <trkpt lat="36.684460" lon="-6.128956">
        <ele>87.224222</ele>
        <time>2020-08-17T08:48:23.052Z</time>
      </trkpt>
      <trkpt lat="36.684353" lon="-6.128918">
        <ele>87.123368</ele>
        <time>2020-08-17T08:48:24.037Z</time>
      </trkpt>
      <trkpt lat="36.684356" lon="-6.129040">
        <ele>87.034636</ele>
        <time>2020-08-17T08:48:27.059Z</time>
      </trkpt>
      <trkpt lat="36.684302" lon="-6.129177">
        <ele>86.923661</ele>
        <time>2020-08-17T08:48:29.037Z</time>
      </trkpt>
      <trkpt lat="36.684263" lon="-6.129283">
        <ele>86.838879</ele>
        <time>2020-08-17T08:48:31.056Z</time>
      </trkpt>
      <trkpt lat="36.684199" lon="-6.129459">
        <ele>86.698393</ele>
        <time>2020-08-17T08:48:33.056Z</time>
      </trkpt>
      <trkpt lat="36.684154" lon="-6.129586">
        <ele>86.597457</ele>
        <time>2020-08-17T08:48:35.045Z</time>
      </trkpt>
      <trkpt lat="36.684054" lon="-6.129652">
        <ele>86.494891</ele>
        <time>2020-08-17T08:48:36.049Z</time>
      </trkpt>
      <trkpt lat="36.683990" lon="-6.129751">
        <ele>86.402448</ele>
        <time>2020-08-17T08:48:37.048Z</time>
      </trkpt>
      <trkpt lat="36.683877" lon="-6.129853">
        <ele>86.275990</ele>
        <time>2020-08-17T08:48:39.042Z</time>
      </trkpt>
      <trkpt lat="36.683834" lon="-6.129968">
        <ele>86.183747</ele>
        <time>2020-08-17T08:48:41.065Z</time>
      </trkpt>
      <trkpt lat="36.683107" lon="-6.130306">
        <ele>87.182664</ele>
        <time>2020-08-17T08:49:05.122Z</time>
      </trkpt>
      <trkpt lat="36.683016" lon="-6.130329">
        <ele>87.336130</ele>
        <time>2020-08-17T08:49:08.066Z</time>
      </trkpt>
      <trkpt lat="36.682913" lon="-6.130399">
        <ele>87.530013</ele>
        <time>2020-08-17T08:49:12.077Z</time>
      </trkpt>
      <trkpt lat="36.682810" lon="-6.130459">
        <ele>87.717914</ele>
        <time>2020-08-17T08:49:15.060Z</time>
      </trkpt>
      <trkpt lat="36.682718" lon="-6.130499">
        <ele>87.878952</ele>
        <time>2020-08-17T08:49:17.050Z</time>
      </trkpt>
      <trkpt lat="36.682617" lon="-6.130565">
        <ele>88.067421</ele>
        <time>2020-08-17T08:49:21.037Z</time>
      </trkpt>
      <trkpt lat="36.682521" lon="-6.130645">
        <ele>88.258263</ele>
        <time>2020-08-17T08:49:25.045Z</time>
      </trkpt>
      <trkpt lat="36.682446" lon="-6.130711">
        <ele>88.409986</ele>
        <time>2020-08-17T08:49:28.058Z</time>
      </trkpt>
      <trkpt lat="36.682347" lon="-6.130747">
        <ele>88.580431</ele>
        <time>2020-08-17T08:49:32.050Z</time>
      </trkpt>
      <trkpt lat="36.682260" lon="-6.130789">
        <ele>88.734627</ele>
        <time>2020-08-17T08:49:39.068Z</time>
      </trkpt>
      <trkpt lat="36.682173" lon="-6.130858">
        <ele>88.905044</ele>
        <time>2020-08-17T08:49:45.053Z</time>
      </trkpt>
      <trkpt lat="36.682079" lon="-6.130916">
        <ele>89.120054</ele>
        <time>2020-08-17T08:49:48.065Z</time>
      </trkpt>
      <trkpt lat="36.681972" lon="-6.130974">
        <ele>89.674538</ele>
        <time>2020-08-17T08:49:51.057Z</time>
      </trkpt>
      <trkpt lat="36.681825" lon="-6.131019">
        <ele>90.393897</ele>
        <time>2020-08-17T08:49:54.050Z</time>
      </trkpt>
      <trkpt lat="36.681741" lon="-6.131091">
        <ele>90.878325</ele>
        <time>2020-08-17T08:49:56.064Z</time>
      </trkpt>
      <trkpt lat="36.681663" lon="-6.131149">
        <ele>91.309926</ele>
        <time>2020-08-17T08:49:58.052Z</time>
      </trkpt>
      <trkpt lat="36.681594" lon="-6.131225">
        <ele>91.747459</ele>
        <time>2020-08-17T08:50:00.067Z</time>
      </trkpt>
      <trkpt lat="36.681507" lon="-6.131263">
        <ele>92.185557</ele>
        <time>2020-08-17T08:50:31.058Z</time>
      </trkpt>
      <trkpt lat="36.681513" lon="-6.131404">
        <ele>92.723711</ele>
        <time>2020-08-17T08:50:35.049Z</time>
      </trkpt>
      <trkpt lat="36.681572" lon="-6.131538">
        <ele>93.306339</ele>
        <time>2020-08-17T08:50:38.066Z</time>
      </trkpt>
      <trkpt lat="36.681635" lon="-6.131670">
        <ele>93.891786</ele>
        <time>2020-08-17T08:50:41.070Z</time>
      </trkpt>
      <trkpt lat="36.681675" lon="-6.131828">
        <ele>94.523269</ele>
        <time>2020-08-17T08:50:44.071Z</time>
      </trkpt>
      <trkpt lat="36.681709" lon="-6.131973">
        <ele>95.099049</ele>
        <time>2020-08-17T08:50:47.070Z</time>
      </trkpt>
      <trkpt lat="36.681742" lon="-6.132118">
        <ele>95.673513</ele>
        <time>2020-08-17T08:50:50.061Z</time>
      </trkpt>
      <trkpt lat="36.681787" lon="-6.132257">
        <ele>96.244825</ele>
        <time>2020-08-17T08:50:53.054Z</time>
      </trkpt>
      <trkpt lat="36.681830" lon="-6.132383">
        <ele>96.766724</ele>
        <time>2020-08-17T08:50:56.068Z</time>
      </trkpt>
      <trkpt lat="36.681891" lon="-6.132493">
        <ele>97.276438</ele>
        <time>2020-08-17T08:50:59.060Z</time>
      </trkpt>
      <trkpt lat="36.681945" lon="-6.132612">
        <ele>97.604178</ele>
        <time>2020-08-17T08:51:02.060Z</time>
      </trkpt>
      <trkpt lat="36.682009" lon="-6.132730">
        <ele>97.604178</ele>
        <time>2020-08-17T08:51:05.069Z</time>
      </trkpt>
      <trkpt lat="36.682055" lon="-6.132865">
        <ele>97.604178</ele>
        <time>2020-08-17T08:51:08.040Z</time>
      </trkpt>
      <trkpt lat="36.682088" lon="-6.132978">
        <ele>97.604178</ele>
        <time>2020-08-17T08:51:11.040Z</time>
      </trkpt>
      <trkpt lat="36.682119" lon="-6.133087">
        <ele>97.604178</ele>
        <time>2020-08-17T08:51:14.054Z</time>
      </trkpt>
      <trkpt lat="36.682179" lon="-6.133213">
        <ele>97.604178</ele>
        <time>2020-08-17T08:51:18.048Z</time>
      </trkpt>
      <trkpt lat="36.682461" lon="-6.133849">
        <ele>97.604178</ele>
        <time>2020-08-17T08:51:48.054Z</time>
      </trkpt>
      <trkpt lat="36.682543" lon="-6.133925">
        <ele>97.604178</ele>
        <time>2020-08-17T08:51:59.046Z</time>
      </trkpt>
      <trkpt lat="36.682408" lon="-6.134071">
        <ele>97.604178</ele>
        <time>2020-08-17T08:52:07.054Z</time>
      </trkpt>
      <trkpt lat="36.682506" lon="-6.133922">
        <ele>97.604178</ele>
        <time>2020-08-17T08:53:13.528Z</time>
      </trkpt>
      <trkpt lat="36.682048" lon="-6.132854">
        <ele>90.844745</ele>
        <time>2020-08-18T05:49:31.282Z</time>
      </trkpt>
      <trkpt lat="36.682148" lon="-6.133041">
        <ele>90.844745</ele>
        <time>2020-08-18T05:49:32.284Z</time>
      </trkpt>
      <trkpt lat="36.682071" lon="-6.133141">
        <ele>90.844745</ele>
        <time>2020-08-18T05:49:33.745Z</time>
      </trkpt>
      <trkpt lat="36.681983" lon="-6.133199">
        <ele>90.844745</ele>
        <time>2020-08-18T05:49:36.738Z</time>
      </trkpt>
      <trkpt lat="36.681923" lon="-6.133283">
        <ele>90.844745</ele>
        <time>2020-08-18T05:49:45.761Z</time>
      </trkpt>
      <trkpt lat="36.681851" lon="-6.133356">
        <ele>90.844745</ele>
        <time>2020-08-18T05:50:02.764Z</time>
      </trkpt>
      <trkpt lat="36.681641" lon="-6.133549">
        <ele>90.844745</ele>
        <time>2020-08-18T05:50:06.758Z</time>
      </trkpt>
      <trkpt lat="36.681564" lon="-6.133623">
        <ele>90.859133</ele>
        <time>2020-08-18T05:50:09.764Z</time>
      </trkpt>
      <trkpt lat="36.681486" lon="-6.133720">
        <ele>90.907539</ele>
        <time>2020-08-18T05:50:15.750Z</time>
      </trkpt>
      <trkpt lat="36.681374" lon="-6.133968">
        <ele>91.007838</ele>
        <time>2020-08-18T05:50:16.734Z</time>
      </trkpt>
      <trkpt lat="36.681287" lon="-6.134056">
        <ele>91.057064</ele>
        <time>2020-08-18T05:50:26.759Z</time>
      </trkpt>
      <trkpt lat="36.681185" lon="-6.134041">
        <ele>91.102195</ele>
        <time>2020-08-18T05:50:32.737Z</time>
      </trkpt>
      <trkpt lat="36.680880" lon="-6.133770">
        <ele>91.266762</ele>
        <time>2020-08-18T06:13:27.738Z</time>
      </trkpt>
      <trkpt lat="36.680591" lon="-6.133256">
        <ele>91.487977</ele>
        <time>2020-08-18T06:13:32.761Z</time>
      </trkpt>
      <trkpt lat="36.680491" lon="-6.133301">
        <ele>91.534693</ele>
        <time>2020-08-18T06:13:43.745Z</time>
      </trkpt>
      <trkpt lat="36.680402" lon="-6.133420">
        <ele>91.592034</ele>
        <time>2020-08-18T06:13:49.727Z</time>
      </trkpt>
      <trkpt lat="36.680338" lon="-6.133513">
        <ele>91.634970</ele>
        <time>2020-08-18T06:13:54.750Z</time>
      </trkpt>
      <trkpt lat="36.680282" lon="-6.133605">
        <ele>91.592639</ele>
        <time>2020-08-18T06:13:58.740Z</time>
      </trkpt>
      <trkpt lat="36.679603" lon="-6.133356">
        <ele>91.269194</ele>
        <time>2020-08-18T06:14:19.814Z</time>
      </trkpt>
      <trkpt lat="36.679505" lon="-6.133371">
        <ele>91.224072</ele>
        <time>2020-08-18T06:14:22.751Z</time>
      </trkpt>
      <trkpt lat="36.679392" lon="-6.133342">
        <ele>91.171349</ele>
        <time>2020-08-18T06:14:26.738Z</time>
      </trkpt>
      <trkpt lat="36.679101" lon="-6.133853">
        <ele>90.941649</ele>
        <time>2020-08-18T06:14:42.754Z</time>
      </trkpt>
      <trkpt lat="36.679037" lon="-6.134065">
        <ele>90.858626</ele>
        <time>2020-08-18T06:14:50.734Z</time>
      </trkpt>
      <trkpt lat="36.678770" lon="-6.134124">
        <ele>91.646726</ele>
        <time>2020-08-18T06:14:59.735Z</time>
      </trkpt>
      <trkpt lat="36.678718" lon="-6.134242">
        <ele>92.171350</ele>
        <time>2020-08-18T06:15:03.734Z</time>
      </trkpt>
      <trkpt lat="36.678690" lon="-6.134361">
        <ele>92.654576</ele>
        <time>2020-08-18T06:15:06.743Z</time>
      </trkpt>
      <trkpt lat="36.678584" lon="-6.134689">
        <ele>94.032485</ele>
        <time>2020-08-18T06:15:20.728Z</time>
      </trkpt>
      <trkpt lat="36.678640" lon="-6.134779">
        <ele>94.476337</ele>
        <time>2020-08-18T06:15:24.744Z</time>
      </trkpt>
      <trkpt lat="36.678543" lon="-6.134703">
        <ele>95.032927</ele>
        <time>2020-08-18T06:15:31.768Z</time>
      </trkpt>
      <trkpt lat="36.678410" lon="-6.134435">
        <ele>96.260946</ele>
        <time>2020-08-18T06:15:33.739Z</time>
      </trkpt>
      <trkpt lat="36.678350" lon="-6.134341">
        <ele>96.729061</ele>
        <time>2020-08-18T06:15:36.736Z</time>
      </trkpt>
      <trkpt lat="36.678289" lon="-6.134226">
        <ele>97.266300</ele>
        <time>2020-08-18T06:15:39.774Z</time>
      </trkpt>
      <trkpt lat="36.678202" lon="-6.133882">
        <ele>98.671768</ele>
        <time>2020-08-18T06:15:40.750Z</time>
      </trkpt>
      <trkpt lat="36.678137" lon="-6.133772">
        <ele>99.204161</ele>
        <time>2020-08-18T06:15:42.746Z</time>
      </trkpt>
      <trkpt lat="36.677984" lon="-6.133856">
        <ele>99.591490</ele>
        <time>2020-08-18T06:15:43.742Z</time>
      </trkpt>
      <trkpt lat="36.677902" lon="-6.133768">
        <ele>99.636408</ele>
        <time>2020-08-18T06:15:45.747Z</time>
      </trkpt>
      <trkpt lat="36.677914" lon="-6.133614">
        <ele>99.687928</ele>
        <time>2020-08-18T06:15:47.741Z</time>
      </trkpt>
      <trkpt lat="36.677875" lon="-6.133465">
        <ele>99.740117</ele>
        <time>2020-08-18T06:15:49.749Z</time>
      </trkpt>
      <trkpt lat="36.677799" lon="-6.133347">
        <ele>99.790510</ele>
        <time>2020-08-18T06:15:51.747Z</time>
      </trkpt>
      <trkpt lat="36.677663" lon="-6.133405">
        <ele>99.850186</ele>
        <time>2020-08-18T06:15:52.756Z</time>
      </trkpt>
      <trkpt lat="36.677627" lon="-6.133257">
        <ele>99.901684</ele>
        <time>2020-08-18T06:15:54.753Z</time>
      </trkpt>
      <trkpt lat="36.677557" lon="-6.133140">
        <ele>99.950288</ele>
        <time>2020-08-18T06:15:56.736Z</time>
      </trkpt>
      <trkpt lat="36.677488" lon="-6.133017">
        <ele>100.000270</ele>
        <time>2020-08-18T06:15:58.772Z</time>
      </trkpt>
      <trkpt lat="36.677408" lon="-6.132934">
        <ele>100.043479</ele>
        <time>2020-08-18T06:16:00.739Z</time>
      </trkpt>
      <trkpt lat="36.677301" lon="-6.132910">
        <ele>100.088616</ele>
        <time>2020-08-18T06:16:02.740Z</time>
      </trkpt>
      <trkpt lat="36.677189" lon="-6.132873">
        <ele>100.136721</ele>
        <time>2020-08-18T06:16:07.746Z</time>
      </trkpt>
      <trkpt lat="36.677100" lon="-6.132944">
        <ele>100.180588</ele>
        <time>2020-08-18T06:16:11.775Z</time>
      </trkpt>
      <trkpt lat="36.676981" lon="-6.133225">
        <ele>100.286398</ele>
        <time>2020-08-18T06:16:22.752Z</time>
      </trkpt>
      <trkpt lat="36.676980" lon="-6.133370">
        <ele>99.945550</ele>
        <time>2020-08-18T06:16:25.744Z</time>
      </trkpt>
      <trkpt lat="36.676933" lon="-6.133490">
        <ele>99.511109</ele>
        <time>2020-08-18T06:16:28.730Z</time>
      </trkpt>
      <trkpt lat="36.676874" lon="-6.133626">
        <ele>99.008102</ele>
        <time>2020-08-18T06:16:31.744Z</time>
      </trkpt>
      <trkpt lat="36.676797" lon="-6.133700">
        <ele>98.613765</ele>
        <time>2020-08-18T06:16:33.736Z</time>
      </trkpt>
      <trkpt lat="36.676555" lon="-6.133654">
        <ele>97.620819</ele>
        <time>2020-08-18T06:16:35.740Z</time>
      </trkpt>
      <trkpt lat="36.676428" lon="-6.133629">
        <ele>97.099299</ele>
        <time>2020-08-18T06:16:38.750Z</time>
      </trkpt>
      <trkpt lat="36.676325" lon="-6.133661">
        <ele>96.668734</ele>
        <time>2020-08-18T06:16:40.754Z</time>
      </trkpt>
      <trkpt lat="36.676196" lon="-6.133645">
        <ele>96.142900</ele>
        <time>2020-08-18T06:16:42.759Z</time>
      </trkpt>
      <trkpt lat="36.676044" lon="-6.133574">
        <ele>95.484510</ele>
        <time>2020-08-18T06:16:44.750Z</time>
      </trkpt>
      <trkpt lat="36.675956" lon="-6.133526">
        <ele>95.094901</ele>
        <time>2020-08-18T06:16:45.767Z</time>
      </trkpt>
      <trkpt lat="36.675843" lon="-6.133518">
        <ele>94.635810</ele>
        <time>2020-08-18T06:16:46.745Z</time>
      </trkpt>
      <trkpt lat="36.675747" lon="-6.133493">
        <ele>94.238011</ele>
        <time>2020-08-18T06:16:47.749Z</time>
      </trkpt>
      <trkpt lat="36.675626" lon="-6.133449">
        <ele>93.726761</ele>
        <time>2020-08-18T06:16:49.746Z</time>
      </trkpt>
      <trkpt lat="36.675522" lon="-6.133465">
        <ele>93.301715</ele>
        <time>2020-08-18T06:16:51.762Z</time>
      </trkpt>
      <trkpt lat="36.675400" lon="-6.133476">
        <ele>92.729703</ele>
        <time>2020-08-18T06:16:53.762Z</time>
      </trkpt>
      <trkpt lat="36.675285" lon="-6.133420">
        <ele>92.036376</ele>
        <time>2020-08-18T06:16:55.785Z</time>
      </trkpt>
      <trkpt lat="36.675150" lon="-6.133348">
        <ele>91.211792</ele>
        <time>2020-08-18T06:16:57.735Z</time>
      </trkpt>
      <trkpt lat="36.675077" lon="-6.133275">
        <ele>90.686271</ele>
        <time>2020-08-18T06:16:58.761Z</time>
      </trkpt>
      <trkpt lat="36.674988" lon="-6.133193">
        <ele>90.064807</ele>
        <time>2020-08-18T06:16:59.760Z</time>
      </trkpt>
      <trkpt lat="36.674884" lon="-6.133145">
        <ele>89.442030</ele>
        <time>2020-08-18T06:17:00.750Z</time>
      </trkpt>
      <trkpt lat="36.674783" lon="-6.133087">
        <ele>88.817562</ele>
        <time>2020-08-18T06:17:01.746Z</time>
      </trkpt>
      <trkpt lat="36.674693" lon="-6.133014">
        <ele>88.214599</ele>
        <time>2020-08-18T06:17:02.763Z</time>
      </trkpt>
      <trkpt lat="36.674595" lon="-6.132969">
        <ele>87.628112</ele>
        <time>2020-08-18T06:17:03.759Z</time>
      </trkpt>
      <trkpt lat="36.674506" lon="-6.132929">
        <ele>87.096822</ele>
        <time>2020-08-18T06:17:04.747Z</time>
      </trkpt>
      <trkpt lat="36.674414" lon="-6.132917">
        <ele>86.577346</ele>
        <time>2020-08-18T06:17:05.754Z</time>
      </trkpt>
      <trkpt lat="36.674313" lon="-6.132922">
        <ele>86.009701</ele>
        <time>2020-08-18T06:17:06.750Z</time>
      </trkpt>
      <trkpt lat="36.674211" lon="-6.132911">
        <ele>85.434747</ele>
        <time>2020-08-18T06:17:07.737Z</time>
      </trkpt>
      <trkpt lat="36.674118" lon="-6.132898">
        <ele>84.909203</ele>
        <time>2020-08-18T06:17:08.766Z</time>
      </trkpt>
      <trkpt lat="36.673989" lon="-6.132858">
        <ele>84.162694</ele>
        <time>2020-08-18T06:17:10.765Z</time>
      </trkpt>
      <trkpt lat="36.673868" lon="-6.132844">
        <ele>83.480259</ele>
        <time>2020-08-18T06:17:25.759Z</time>
      </trkpt>
      <trkpt lat="36.673777" lon="-6.132822">
        <ele>82.959700</ele>
        <time>2020-08-18T06:17:27.740Z</time>
      </trkpt>
      <trkpt lat="36.673672" lon="-6.132838">
        <ele>82.423163</ele>
        <time>2020-08-18T06:17:29.741Z</time>
      </trkpt>
      <trkpt lat="36.673558" lon="-6.132828">
        <ele>81.850196</ele>
        <time>2020-08-18T06:17:31.748Z</time>
      </trkpt>
      <trkpt lat="36.673416" lon="-6.132796">
        <ele>81.126725</ele>
        <time>2020-08-18T06:17:33.747Z</time>
      </trkpt>
      <trkpt lat="36.673238" lon="-6.132773">
        <ele>80.229519</ele>
        <time>2020-08-18T06:17:35.753Z</time>
      </trkpt>
      <trkpt lat="36.673066" lon="-6.132755">
        <ele>79.364142</ele>
        <time>2020-08-18T06:17:37.740Z</time>
      </trkpt>
      <trkpt lat="36.672886" lon="-6.132738">
        <ele>78.459103</ele>
        <time>2020-08-18T06:17:39.749Z</time>
      </trkpt>
      <trkpt lat="36.672790" lon="-6.132728">
        <ele>77.976117</ele>
        <time>2020-08-18T06:17:40.746Z</time>
      </trkpt>
      <trkpt lat="36.672699" lon="-6.132753">
        <ele>77.508932</ele>
        <time>2020-08-18T06:17:41.742Z</time>
      </trkpt>
      <trkpt lat="36.672608" lon="-6.132762">
        <ele>77.051258</ele>
        <time>2020-08-18T06:17:42.767Z</time>
      </trkpt>
      <trkpt lat="36.672518" lon="-6.132754">
        <ele>76.598886</ele>
        <time>2020-08-18T06:17:43.739Z</time>
      </trkpt>
      <trkpt lat="36.672342" lon="-6.132748">
        <ele>75.716157</ele>
        <time>2020-08-18T06:17:45.745Z</time>
      </trkpt>
      <trkpt lat="36.672170" lon="-6.132745">
        <ele>74.853728</ele>
        <time>2020-08-18T06:17:47.747Z</time>
      </trkpt>
      <trkpt lat="36.672004" lon="-6.132714">
        <ele>74.012181</ele>
        <time>2020-08-18T06:17:49.741Z</time>
      </trkpt>
      <trkpt lat="36.671841" lon="-6.132715">
        <ele>73.305813</ele>
        <time>2020-08-18T06:17:51.752Z</time>
      </trkpt>
      <trkpt lat="36.671685" lon="-6.132701">
        <ele>72.647781</ele>
        <time>2020-08-18T06:17:53.752Z</time>
      </trkpt>
      <trkpt lat="36.671546" lon="-6.132704">
        <ele>72.062883</ele>
        <time>2020-08-18T06:17:55.740Z</time>
      </trkpt>
      <trkpt lat="36.671401" lon="-6.132696">
        <ele>71.452233</ele>
        <time>2020-08-18T06:17:57.753Z</time>
      </trkpt>
      <trkpt lat="36.671260" lon="-6.132696">
        <ele>70.859008</ele>
        <time>2020-08-18T06:17:59.752Z</time>
      </trkpt>
      <trkpt lat="36.671115" lon="-6.132681">
        <ele>70.246858</ele>
        <time>2020-08-18T06:18:01.769Z</time>
      </trkpt>
      <trkpt lat="36.670985" lon="-6.132706">
        <ele>69.693445</ele>
        <time>2020-08-18T06:18:03.739Z</time>
      </trkpt>
      <trkpt lat="36.670854" lon="-6.132701">
        <ele>69.142035</ele>
        <time>2020-08-18T06:18:05.742Z</time>
      </trkpt>
      <trkpt lat="36.670741" lon="-6.132725">
        <ele>68.659764</ele>
        <time>2020-08-18T06:18:07.756Z</time>
      </trkpt>
      <trkpt lat="36.670609" lon="-6.132714">
        <ele>68.103166</ele>
        <time>2020-08-18T06:18:09.748Z</time>
      </trkpt>
      <trkpt lat="36.670488" lon="-6.132708">
        <ele>67.593684</ele>
        <time>2020-08-18T06:18:11.743Z</time>
      </trkpt>
      <trkpt lat="36.670378" lon="-6.132736">
        <ele>67.121337</ele>
        <time>2020-08-18T06:18:13.762Z</time>
      </trkpt>
      <trkpt lat="36.670262" lon="-6.132726">
        <ele>66.632129</ele>
        <time>2020-08-18T06:18:15.756Z</time>
      </trkpt>
      <trkpt lat="36.670132" lon="-6.132705">
        <ele>66.200409</ele>
        <time>2020-08-18T06:18:17.746Z</time>
      </trkpt>
      <trkpt lat="36.670004" lon="-6.132686">
        <ele>65.933056</ele>
        <time>2020-08-18T06:18:19.744Z</time>
      </trkpt>
      <trkpt lat="36.669854" lon="-6.132657">
        <ele>65.618231</ele>
        <time>2020-08-18T06:18:21.758Z</time>
      </trkpt>
      <trkpt lat="36.669735" lon="-6.132658">
        <ele>65.371413</ele>
        <time>2020-08-18T06:18:23.758Z</time>
      </trkpt>
      <trkpt lat="36.669595" lon="-6.132640">
        <ele>65.079507</ele>
        <time>2020-08-18T06:18:25.746Z</time>
      </trkpt>
      <trkpt lat="36.669465" lon="-6.132626">
        <ele>64.808877</ele>
        <time>2020-08-18T06:18:27.746Z</time>
      </trkpt>
      <trkpt lat="36.669343" lon="-6.132603">
        <ele>64.552967</ele>
        <time>2020-08-18T06:18:29.747Z</time>
      </trkpt>
      <trkpt lat="36.669208" lon="-6.132586">
        <ele>64.271546</ele>
        <time>2020-08-18T06:18:31.737Z</time>
      </trkpt>
      <trkpt lat="36.669105" lon="-6.132618">
        <ele>64.051386</ele>
        <time>2020-08-18T06:18:33.729Z</time>
      </trkpt>
      <trkpt lat="36.669043" lon="-6.132737">
        <ele>63.815322</ele>
        <time>2020-08-18T06:18:37.746Z</time>
      </trkpt>
      <trkpt lat="36.668978" lon="-6.132847">
        <ele>63.588030</ele>
        <time>2020-08-18T06:18:40.732Z</time>
      </trkpt>
      <trkpt lat="36.668917" lon="-6.132947">
        <ele>63.379028</ele>
        <time>2020-08-18T06:18:42.723Z</time>
      </trkpt>
      <trkpt lat="36.668839" lon="-6.133010">
        <ele>63.186269</ele>
        <time>2020-08-18T06:18:44.750Z</time>
      </trkpt>
      <trkpt lat="36.668719" lon="-6.133007">
        <ele>62.937334</ele>
        <time>2020-08-18T06:18:46.727Z</time>
      </trkpt>
      <trkpt lat="36.668617" lon="-6.132904">
        <ele>62.665092</ele>
        <time>2020-08-18T06:18:48.758Z</time>
      </trkpt>
      <trkpt lat="36.668529" lon="-6.132802">
        <ele>62.385455</ele>
        <time>2020-08-18T06:18:50.732Z</time>
      </trkpt>
      <trkpt lat="36.668415" lon="-6.132714">
        <ele>62.057743</ele>
        <time>2020-08-18T06:18:52.739Z</time>
      </trkpt>
      <trkpt lat="36.668282" lon="-6.132642">
        <ele>61.703354</ele>
        <time>2020-08-18T06:18:54.733Z</time>
      </trkpt>
      <trkpt lat="36.668163" lon="-6.132612">
        <ele>61.406619</ele>
        <time>2020-08-18T06:18:56.732Z</time>
      </trkpt>
      <trkpt lat="36.668043" lon="-6.132590">
        <ele>61.110173</ele>
        <time>2020-08-18T06:18:58.733Z</time>
      </trkpt>
      <trkpt lat="36.667935" lon="-6.132583">
        <ele>60.845853</ele>
        <time>2020-08-18T06:19:00.729Z</time>
      </trkpt>
      <trkpt lat="36.667806" lon="-6.132552">
        <ele>60.524760</ele>
        <time>2020-08-18T06:19:02.751Z</time>
      </trkpt>
      <trkpt lat="36.667693" lon="-6.132522">
        <ele>60.242384</ele>
        <time>2020-08-18T06:19:04.747Z</time>
      </trkpt>
      <trkpt lat="36.667572" lon="-6.132512">
        <ele>59.945999</ele>
        <time>2020-08-18T06:19:06.761Z</time>
      </trkpt>
      <trkpt lat="36.667462" lon="-6.132500">
        <ele>59.676120</ele>
        <time>2020-08-18T06:19:08.756Z</time>
      </trkpt>
      <trkpt lat="36.667333" lon="-6.132459">
        <ele>59.350747</ele>
        <time>2020-08-18T06:19:10.743Z</time>
      </trkpt>
      <trkpt lat="36.667211" lon="-6.132436">
        <ele>59.049176</ele>
        <time>2020-08-18T06:19:12.751Z</time>
      </trkpt>
      <trkpt lat="36.667107" lon="-6.132432">
        <ele>58.794869</ele>
        <time>2020-08-18T06:19:14.735Z</time>
      </trkpt>
      <trkpt lat="36.667003" lon="-6.132401">
        <ele>58.533518</ele>
        <time>2020-08-18T06:19:16.762Z</time>
      </trkpt>
      <trkpt lat="36.666891" lon="-6.132392">
        <ele>58.259210</ele>
        <time>2020-08-18T06:19:18.761Z</time>
      </trkpt>
      <trkpt lat="36.666785" lon="-6.132380">
        <ele>58.144213</ele>
        <time>2020-08-18T06:19:20.767Z</time>
      </trkpt>
      <trkpt lat="36.666672" lon="-6.132360">
        <ele>58.076933</ele>
        <time>2020-08-18T06:19:22.745Z</time>
      </trkpt>
      <trkpt lat="36.666537" lon="-6.132326">
        <ele>57.995745</ele>
        <time>2020-08-18T06:19:24.739Z</time>
      </trkpt>
      <trkpt lat="36.666421" lon="-6.132339">
        <ele>57.927088</ele>
        <time>2020-08-18T06:19:26.774Z</time>
      </trkpt>
      <trkpt lat="36.666288" lon="-6.132325">
        <ele>57.848408</ele>
        <time>2020-08-18T06:19:28.744Z</time>
      </trkpt>
      <trkpt lat="36.666189" lon="-6.132385">
        <ele>57.783518</ele>
        <time>2020-08-18T06:19:30.740Z</time>
      </trkpt>
      <trkpt lat="36.666117" lon="-6.132455">
        <ele>57.729695</ele>
        <time>2020-08-18T06:19:32.744Z</time>
      </trkpt>
      <trkpt lat="36.666021" lon="-6.132483">
        <ele>57.671576</ele>
        <time>2020-08-18T06:19:34.745Z</time>
      </trkpt>
      <trkpt lat="36.665902" lon="-6.132481">
        <ele>57.601421</ele>
        <time>2020-08-18T06:19:36.752Z</time>
      </trkpt>
      <trkpt lat="36.665770" lon="-6.132400">
        <ele>57.514694</ele>
        <time>2020-08-18T06:19:38.743Z</time>
      </trkpt>
      <trkpt lat="36.665646" lon="-6.132353">
        <ele>57.438294</ele>
        <time>2020-08-18T06:19:40.756Z</time>
      </trkpt>
      <trkpt lat="36.665572" lon="-6.132276">
        <ele>57.381474</ele>
        <time>2020-08-18T06:19:41.747Z</time>
      </trkpt>
      <trkpt lat="36.665508" lon="-6.132166">
        <ele>57.317219</ele>
        <time>2020-08-18T06:19:44.752Z</time>
      </trkpt>
      <trkpt lat="36.665395" lon="-6.132145">
        <ele>57.249871</ele>
        <time>2020-08-18T06:19:46.758Z</time>
      </trkpt>
      <trkpt lat="36.665265" lon="-6.132069">
        <ele>57.165230</ele>
        <time>2020-08-18T06:19:48.774Z</time>
      </trkpt>
      <trkpt lat="36.665141" lon="-6.132045">
        <ele>57.104846</ele>
        <time>2020-08-18T06:19:50.756Z</time>
      </trkpt>
      <trkpt lat="36.665045" lon="-6.132139">
        <ele>57.058078</ele>
        <time>2020-08-18T06:19:52.747Z</time>
      </trkpt>
      <trkpt lat="36.664951" lon="-6.132129">
        <ele>57.021934</ele>
        <time>2020-08-18T06:19:54.749Z</time>
      </trkpt>
      <trkpt lat="36.664808" lon="-6.132056">
        <ele>56.962733</ele>
        <time>2020-08-18T06:19:56.757Z</time>
      </trkpt>
      <trkpt lat="36.664688" lon="-6.132024">
        <ele>56.915719</ele>
        <time>2020-08-18T06:19:58.768Z</time>
      </trkpt>
      <trkpt lat="36.664549" lon="-6.131996">
        <ele>56.861775</ele>
        <time>2020-08-18T06:20:00.755Z</time>
      </trkpt>
      <trkpt lat="36.664413" lon="-6.131991">
        <ele>56.809648</ele>
        <time>2020-08-18T06:20:02.745Z</time>
      </trkpt>
      <trkpt lat="36.664294" lon="-6.131939">
        <ele>56.761337</ele>
        <time>2020-08-18T06:20:05.755Z</time>
      </trkpt>
      <trkpt lat="36.664157" lon="-6.131904">
        <ele>56.707759</ele>
        <time>2020-08-18T06:20:07.756Z</time>
      </trkpt>
      <trkpt lat="36.664018" lon="-6.131874">
        <ele>56.653714</ele>
        <time>2020-08-18T06:20:09.760Z</time>
      </trkpt>
      <trkpt lat="36.663892" lon="-6.131878">
        <ele>56.605425</ele>
        <time>2020-08-18T06:20:11.742Z</time>
      </trkpt>
      <trkpt lat="36.663786" lon="-6.131879">
        <ele>56.564814</ele>
        <time>2020-08-18T06:20:13.740Z</time>
      </trkpt>
      <trkpt lat="36.663656" lon="-6.131857">
        <ele>56.514552</ele>
        <time>2020-08-18T06:20:15.770Z</time>
      </trkpt>
      <trkpt lat="36.663562" lon="-6.131818">
        <ele>56.476596</ele>
        <time>2020-08-18T06:20:16.759Z</time>
      </trkpt>
      <trkpt lat="36.663395" lon="-6.131794">
        <ele>56.432224</ele>
        <time>2020-08-18T06:20:18.766Z</time>
      </trkpt>
      <trkpt lat="36.663242" lon="-6.131777">
        <ele>56.414326</ele>
        <time>2020-08-18T06:20:20.781Z</time>
      </trkpt>
      <trkpt lat="36.663091" lon="-6.131768">
        <ele>56.396711</ele>
        <time>2020-08-18T06:20:22.747Z</time>
      </trkpt>
      <trkpt lat="36.662961" lon="-6.131755">
        <ele>56.381515</ele>
        <time>2020-08-18T06:20:24.753Z</time>
      </trkpt>
      <trkpt lat="36.662820" lon="-6.131727">
        <ele>56.364878</ele>
        <time>2020-08-18T06:20:26.756Z</time>
      </trkpt>
      <trkpt lat="36.662679" lon="-6.131664">
        <ele>56.347426</ele>
        <time>2020-08-18T06:20:28.749Z</time>
      </trkpt>
      <trkpt lat="36.662558" lon="-6.131639">
        <ele>56.333135</ele>
        <time>2020-08-18T06:20:30.748Z</time>
      </trkpt>
      <trkpt lat="36.662426" lon="-6.131593">
        <ele>56.317164</ele>
        <time>2020-08-18T06:20:32.763Z</time>
      </trkpt>
      <trkpt lat="36.662269" lon="-6.131561">
        <ele>56.298628</ele>
        <time>2020-08-18T06:20:34.762Z</time>
      </trkpt>
      <trkpt lat="36.662133" lon="-6.131507">
        <ele>56.281997</ele>
        <time>2020-08-18T06:20:36.741Z</time>
      </trkpt>
      <trkpt lat="36.661977" lon="-6.131438">
        <ele>56.262710</ele>
        <time>2020-08-18T06:20:38.745Z</time>
      </trkpt>
      <trkpt lat="36.661865" lon="-6.131405">
        <ele>56.249300</ele>
        <time>2020-08-18T06:20:40.757Z</time>
      </trkpt>
      <trkpt lat="36.661781" lon="-6.131479">
        <ele>56.237315</ele>
        <time>2020-08-18T06:20:42.757Z</time>
      </trkpt>
      <trkpt lat="36.661621" lon="-6.131490">
        <ele>56.231447</ele>
        <time>2020-08-18T06:20:44.780Z</time>
      </trkpt>
      <trkpt lat="36.661482" lon="-6.131522">
        <ele>56.231506</ele>
        <time>2020-08-18T06:20:46.749Z</time>
      </trkpt>
      <trkpt lat="36.661340" lon="-6.131467">
        <ele>56.231567</ele>
        <time>2020-08-18T06:20:48.769Z</time>
      </trkpt>
      <trkpt lat="36.661210" lon="-6.131464">
        <ele>56.231621</ele>
        <time>2020-08-18T06:20:50.748Z</time>
      </trkpt>
      <trkpt lat="36.661073" lon="-6.131438">
        <ele>56.231678</ele>
        <time>2020-08-18T06:20:52.750Z</time>
      </trkpt>
      <trkpt lat="36.660943" lon="-6.131422">
        <ele>56.231732</ele>
        <time>2020-08-18T06:20:54.758Z</time>
      </trkpt>
      <trkpt lat="36.660817" lon="-6.131394">
        <ele>56.231785</ele>
        <time>2020-08-18T06:20:56.736Z</time>
      </trkpt>
      <trkpt lat="36.660697" lon="-6.131356">
        <ele>56.231837</ele>
        <time>2020-08-18T06:20:58.757Z</time>
      </trkpt>
      <trkpt lat="36.660564" lon="-6.131313">
        <ele>56.231894</ele>
        <time>2020-08-18T06:21:00.768Z</time>
      </trkpt>
      <trkpt lat="36.660417" lon="-6.131321">
        <ele>56.231954</ele>
        <time>2020-08-18T06:21:03.752Z</time>
      </trkpt>
      <trkpt lat="36.660326" lon="-6.131316">
        <ele>56.231992</ele>
        <time>2020-08-18T06:21:05.722Z</time>
      </trkpt>
      <trkpt lat="36.660191" lon="-6.131282">
        <ele>56.232049</ele>
        <time>2020-08-18T06:21:08.738Z</time>
      </trkpt>
      <trkpt lat="36.660100" lon="-6.131264">
        <ele>56.232087</ele>
        <time>2020-08-18T06:21:10.768Z</time>
      </trkpt>
      <trkpt lat="36.659996" lon="-6.131276">
        <ele>56.232131</ele>
        <time>2020-08-18T06:21:12.754Z</time>
      </trkpt>
      <trkpt lat="36.659896" lon="-6.131270">
        <ele>56.471048</ele>
        <time>2020-08-18T06:21:14.740Z</time>
      </trkpt>
      <trkpt lat="36.659765" lon="-6.131257">
        <ele>56.977553</ele>
        <time>2020-08-18T06:21:17.749Z</time>
      </trkpt>
      <trkpt lat="36.659667" lon="-6.131262">
        <ele>57.355587</ele>
        <time>2020-08-18T06:21:19.749Z</time>
      </trkpt>
      <trkpt lat="36.659529" lon="-6.131271">
        <ele>57.888202</ele>
        <time>2020-08-18T06:21:22.755Z</time>
      </trkpt>
      <trkpt lat="36.659393" lon="-6.131223">
        <ele>58.432986</ele>
        <time>2020-08-18T06:21:24.748Z</time>
      </trkpt>
      <trkpt lat="36.659356" lon="-6.131329">
        <ele>58.790408</ele>
        <time>2020-08-18T06:21:26.754Z</time>
      </trkpt>
      <trkpt lat="36.659259" lon="-6.131335">
        <ele>59.164731</ele>
        <time>2020-08-18T06:21:29.760Z</time>
      </trkpt>
      <trkpt lat="36.659169" lon="-6.131343">
        <ele>59.512495</ele>
        <time>2020-08-18T06:21:31.753Z</time>
      </trkpt>
      <trkpt lat="36.659073" lon="-6.131323">
        <ele>59.887636</ele>
        <time>2020-08-18T06:21:33.725Z</time>
      </trkpt>
      <trkpt lat="36.658961" lon="-6.131367">
        <ele>60.340242</ele>
        <time>2020-08-18T06:21:36.760Z</time>
      </trkpt>
      <trkpt lat="36.658850" lon="-6.131377">
        <ele>60.769181</ele>
        <time>2020-08-18T06:21:38.766Z</time>
      </trkpt>
      <trkpt lat="36.658733" lon="-6.131347">
        <ele>61.229570</ele>
        <time>2020-08-18T06:21:40.757Z</time>
      </trkpt>
      <trkpt lat="36.658632" lon="-6.131252">
        <ele>61.717236</ele>
        <time>2020-08-18T06:21:42.748Z</time>
      </trkpt>
      <trkpt lat="36.658514" lon="-6.131175">
        <ele>62.230584</ele>
        <time>2020-08-18T06:21:45.761Z</time>
      </trkpt>
      <trkpt lat="36.658421" lon="-6.131090">
        <ele>62.675055</ele>
        <time>2020-08-18T06:21:48.754Z</time>
      </trkpt>
      <trkpt lat="36.658306" lon="-6.131141">
        <ele>63.145509</ele>
        <time>2020-08-18T06:21:51.751Z</time>
      </trkpt>
      <trkpt lat="36.658209" lon="-6.131105">
        <ele>63.322010</ele>
        <time>2020-08-18T06:21:52.769Z</time>
      </trkpt>
      <trkpt lat="36.658128" lon="-6.131049">
        <ele>63.473490</ele>
        <time>2020-08-18T06:21:53.733Z</time>
      </trkpt>
      <trkpt lat="36.658019" lon="-6.131037">
        <ele>63.652447</ele>
        <time>2020-08-18T06:21:55.746Z</time>
      </trkpt>
      <trkpt lat="36.657933" lon="-6.130954">
        <ele>63.830322</ele>
        <time>2020-08-18T06:21:57.752Z</time>
      </trkpt>
      <trkpt lat="36.657824" lon="-6.130921">
        <ele>64.013768</ele>
        <time>2020-08-18T06:21:59.736Z</time>
      </trkpt>
      <trkpt lat="36.657703" lon="-6.130890">
        <ele>64.215792</ele>
        <time>2020-08-18T06:22:01.736Z</time>
      </trkpt>
      <trkpt lat="36.657609" lon="-6.130863">
        <ele>64.373552</ele>
        <time>2020-08-18T06:22:03.746Z</time>
      </trkpt>
      <trkpt lat="36.657489" lon="-6.130874">
        <ele>64.570335</ele>
        <time>2020-08-18T06:22:05.758Z</time>
      </trkpt>
      <trkpt lat="36.657401" lon="-6.130844">
        <ele>64.719538</ele>
        <time>2020-08-18T06:22:07.747Z</time>
      </trkpt>
      <trkpt lat="36.657286" lon="-6.130813">
        <ele>64.911961</ele>
        <time>2020-08-18T06:22:09.761Z</time>
      </trkpt>
      <trkpt lat="36.657150" lon="-6.130796">
        <ele>65.135497</ele>
        <time>2020-08-18T06:22:12.748Z</time>
      </trkpt>
      <trkpt lat="36.657037" lon="-6.130769">
        <ele>65.323666</ele>
        <time>2020-08-18T06:22:14.763Z</time>
      </trkpt>
      <trkpt lat="36.656923" lon="-6.130861">
        <ele>65.545767</ele>
        <time>2020-08-18T06:22:17.746Z</time>
      </trkpt>
      <trkpt lat="36.656784" lon="-6.130785">
        <ele>65.794000</ele>
        <time>2020-08-18T06:22:20.752Z</time>
      </trkpt>
      <trkpt lat="36.656657" lon="-6.130752">
        <ele>66.006166</ele>
        <time>2020-08-18T06:22:22.743Z</time>
      </trkpt>
      <trkpt lat="36.656532" lon="-6.130669">
        <ele>66.171615</ele>
        <time>2020-08-18T06:22:24.752Z</time>
      </trkpt>
      <trkpt lat="36.656421" lon="-6.130680">
        <ele>66.262173</ele>
        <time>2020-08-18T06:22:26.757Z</time>
      </trkpt>
      <trkpt lat="36.656330" lon="-6.130663">
        <ele>66.337007</ele>
        <time>2020-08-18T06:22:28.756Z</time>
      </trkpt>
      <trkpt lat="36.656250" lon="-6.130595">
        <ele>66.415755</ele>
        <time>2020-08-18T06:22:29.741Z</time>
      </trkpt>
      <trkpt lat="36.656129" lon="-6.130588">
        <ele>66.514266</ele>
        <time>2020-08-18T06:22:31.737Z</time>
      </trkpt>
      <trkpt lat="36.656008" lon="-6.130466">
        <ele>66.640833</ele>
        <time>2020-08-18T06:22:33.739Z</time>
      </trkpt>
      <trkpt lat="36.655908" lon="-6.130421">
        <ele>66.727297</ele>
        <time>2020-08-18T06:22:35.748Z</time>
      </trkpt>
      <trkpt lat="36.655752" lon="-6.130330">
        <ele>66.867372</ele>
        <time>2020-08-18T06:22:37.737Z</time>
      </trkpt>
      <trkpt lat="36.655638" lon="-6.130273">
        <ele>66.967265</ele>
        <time>2020-08-18T06:22:39.725Z</time>
      </trkpt>
      <trkpt lat="36.655570" lon="-6.130511">
        <ele>67.132099</ele>
        <time>2020-08-18T06:22:42.731Z</time>
      </trkpt>
      <trkpt lat="36.655449" lon="-6.130440">
        <ele>67.240862</ele>
        <time>2020-08-18T06:22:44.743Z</time>
      </trkpt>
      <trkpt lat="36.655272" lon="-6.130284">
        <ele>67.417158</ele>
        <time>2020-08-18T06:22:46.735Z</time>
      </trkpt>
      <trkpt lat="36.655134" lon="-6.130264">
        <ele>67.530145</ele>
        <time>2020-08-18T06:22:48.754Z</time>
      </trkpt>
      <trkpt lat="36.655096" lon="-6.130368">
        <ele>67.691862</ele>
        <time>2020-08-18T06:22:51.754Z</time>
      </trkpt>
      <trkpt lat="36.654995" lon="-6.130332">
        <ele>67.985466</ele>
        <time>2020-08-18T06:22:53.743Z</time>
      </trkpt>
      <trkpt lat="36.654874" lon="-6.130227">
        <ele>68.397535</ele>
        <time>2020-08-18T06:22:55.746Z</time>
      </trkpt>
      <trkpt lat="36.654817" lon="-6.130133">
        <ele>68.661741</ele>
        <time>2020-08-18T06:22:56.755Z</time>
      </trkpt>
      <trkpt lat="36.654710" lon="-6.130085">
        <ele>68.979577</ele>
        <time>2020-08-18T06:22:58.738Z</time>
      </trkpt>
      <trkpt lat="36.654590" lon="-6.130050">
        <ele>69.324030</ele>
        <time>2020-08-18T06:23:00.751Z</time>
      </trkpt>
      <trkpt lat="36.654460" lon="-6.129983">
        <ele>69.717207</ele>
        <time>2020-08-18T06:23:02.753Z</time>
      </trkpt>
      <trkpt lat="36.654334" lon="-6.129985">
        <ele>70.069399</ele>
        <time>2020-08-18T06:23:04.749Z</time>
      </trkpt>
      <trkpt lat="36.654218" lon="-6.130063">
        <ele>70.437778</ele>
        <time>2020-08-18T06:23:07.749Z</time>
      </trkpt>
      <trkpt lat="36.653985" lon="-6.129777">
        <ele>71.351746</ele>
        <time>2020-08-18T06:23:09.740Z</time>
      </trkpt>
      <trkpt lat="36.653865" lon="-6.129827">
        <ele>71.705382</ele>
        <time>2020-08-18T06:23:12.773Z</time>
      </trkpt>
      <trkpt lat="36.653774" lon="-6.129947">
        <ele>72.075637</ele>
        <time>2020-08-18T06:23:14.736Z</time>
      </trkpt>
      <trkpt lat="36.653677" lon="-6.129957">
        <ele>72.347673</ele>
        <time>2020-08-18T06:23:16.744Z</time>
      </trkpt>
      <trkpt lat="36.653555" lon="-6.129928">
        <ele>72.579972</ele>
        <time>2020-08-18T06:23:18.762Z</time>
      </trkpt>
      <trkpt lat="36.653445" lon="-6.129915">
        <ele>72.529691</ele>
        <time>2020-08-18T06:23:20.762Z</time>
      </trkpt>
      <trkpt lat="36.653308" lon="-6.129871">
        <ele>72.465312</ele>
        <time>2020-08-18T06:23:22.744Z</time>
      </trkpt>
      <trkpt lat="36.653222" lon="-6.129792">
        <ele>72.416697</ele>
        <time>2020-08-18T06:23:23.754Z</time>
      </trkpt>
      <trkpt lat="36.653106" lon="-6.129827">
        <ele>72.362386</ele>
        <time>2020-08-18T06:23:24.760Z</time>
      </trkpt>
      <trkpt lat="36.652991" lon="-6.129812">
        <ele>72.309768</ele>
        <time>2020-08-18T06:23:26.755Z</time>
      </trkpt>
      <trkpt lat="36.652837" lon="-6.129760">
        <ele>72.237163</ele>
        <time>2020-08-18T06:23:28.752Z</time>
      </trkpt>
      <trkpt lat="36.652724" lon="-6.129774">
        <ele>72.185488</ele>
        <time>2020-08-18T06:23:30.751Z</time>
      </trkpt>
      <trkpt lat="36.652620" lon="-6.129714">
        <ele>72.133338</ele>
        <time>2020-08-18T06:23:31.749Z</time>
      </trkpt>
      <trkpt lat="36.652500" lon="-6.129568">
        <ele>72.057029</ele>
        <time>2020-08-18T06:23:33.753Z</time>
      </trkpt>
      <trkpt lat="36.652417" lon="-6.129524">
        <ele>72.015986</ele>
        <time>2020-08-18T06:23:34.756Z</time>
      </trkpt>
      <trkpt lat="36.652275" lon="-6.129496">
        <ele>71.950563</ele>
        <time>2020-08-18T06:23:37.755Z</time>
      </trkpt>
      <trkpt lat="36.652185" lon="-6.129501">
        <ele>71.909567</ele>
        <time>2020-08-18T06:23:38.758Z</time>
      </trkpt>
      <trkpt lat="36.652090" lon="-6.129515">
        <ele>71.866036</ele>
        <time>2020-08-18T06:23:40.742Z</time>
      </trkpt>
      <trkpt lat="36.651990" lon="-6.129521">
        <ele>71.820477</ele>
        <time>2020-08-18T06:23:41.745Z</time>
      </trkpt>
      <trkpt lat="36.651857" lon="-6.129411">
        <ele>72.228643</ele>
        <time>2020-08-18T06:23:43.757Z</time>
      </trkpt>
      <trkpt lat="36.651726" lon="-6.129329">
        <ele>73.241191</ele>
        <time>2020-08-18T06:23:45.740Z</time>
      </trkpt>
      <trkpt lat="36.651649" lon="-6.129257">
        <ele>73.906077</ele>
        <time>2020-08-18T06:23:46.744Z</time>
      </trkpt>
      <trkpt lat="36.651525" lon="-6.129108">
        <ele>75.095774</ele>
        <time>2020-08-18T06:23:47.751Z</time>
      </trkpt>
      <trkpt lat="36.651460" lon="-6.129006">
        <ele>75.817631</ele>
        <time>2020-08-18T06:23:48.775Z</time>
      </trkpt>
      <trkpt lat="36.651304" lon="-6.128964">
        <ele>76.920020</ele>
        <time>2020-08-18T06:23:50.751Z</time>
      </trkpt>
      <trkpt lat="36.651227" lon="-6.128852">
        <ele>77.737392</ele>
        <time>2020-08-18T06:23:52.740Z</time>
      </trkpt>
      <trkpt lat="36.651061" lon="-6.128816">
        <ele>78.901230</ele>
        <time>2020-08-18T06:23:54.757Z</time>
      </trkpt>
      <trkpt lat="36.650979" lon="-6.128739">
        <ele>79.610374</ele>
        <time>2020-08-18T06:23:55.753Z</time>
      </trkpt>
      <trkpt lat="36.650868" lon="-6.128695">
        <ele>80.414923</ele>
        <time>2020-08-18T06:23:57.753Z</time>
      </trkpt>
      <trkpt lat="36.650726" lon="-6.128682">
        <ele>81.398402</ele>
        <time>2020-08-18T06:23:59.765Z</time>
      </trkpt>
      <trkpt lat="36.650658" lon="-6.128607">
        <ele>82.025584</ele>
        <time>2020-08-18T06:24:00.751Z</time>
      </trkpt>
      <trkpt lat="36.650603" lon="-6.128484">
        <ele>82.805929</ele>
        <time>2020-08-18T06:24:02.753Z</time>
      </trkpt>
      <trkpt lat="36.650504" lon="-6.128408">
        <ele>83.609044</ele>
        <time>2020-08-18T06:24:03.760Z</time>
      </trkpt>
      <trkpt lat="36.650391" lon="-6.128389">
        <ele>84.019300</ele>
        <time>2020-08-18T06:24:04.740Z</time>
      </trkpt>
      <trkpt lat="36.650308" lon="-6.128188">
        <ele>82.851716</ele>
        <time>2020-08-18T06:24:06.738Z</time>
      </trkpt>
      <trkpt lat="36.650189" lon="-6.128218">
        <ele>82.070119</ele>
        <time>2020-08-18T06:24:07.738Z</time>
      </trkpt>
      <trkpt lat="36.650048" lon="-6.128119">
        <ele>81.028295</ele>
        <time>2020-08-18T06:24:09.742Z</time>
      </trkpt>
      <trkpt lat="36.649937" lon="-6.128183">
        <ele>80.240960</ele>
        <time>2020-08-18T06:24:10.742Z</time>
      </trkpt>
      <trkpt lat="36.649805" lon="-6.128214">
        <ele>79.376234</ele>
        <time>2020-08-18T06:24:11.760Z</time>
      </trkpt>
      <trkpt lat="36.649757" lon="-6.128039">
        <ele>78.421007</ele>
        <time>2020-08-18T06:24:13.740Z</time>
      </trkpt>
      <trkpt lat="36.649686" lon="-6.127956">
        <ele>77.794354</ele>
        <time>2020-08-18T06:24:14.738Z</time>
      </trkpt>
      <trkpt lat="36.649564" lon="-6.127969">
        <ele>77.006093</ele>
        <time>2020-08-18T06:24:17.757Z</time>
      </trkpt>
      <trkpt lat="36.649505" lon="-6.128056">
        <ele>76.417720</ele>
        <time>2020-08-18T06:24:18.758Z</time>
      </trkpt>
      <trkpt lat="36.649359" lon="-6.128067">
        <ele>75.476103</ele>
        <time>2020-08-18T06:24:20.751Z</time>
      </trkpt>
      <trkpt lat="36.649202" lon="-6.128012">
        <ele>74.426225</ele>
        <time>2020-08-18T06:24:22.758Z</time>
      </trkpt>
      <trkpt lat="36.649099" lon="-6.127913">
        <ele>73.588885</ele>
        <time>2020-08-18T06:24:24.740Z</time>
      </trkpt>
      <trkpt lat="36.648975" lon="-6.127798">
        <ele>72.612614</ele>
        <time>2020-08-18T06:24:26.749Z</time>
      </trkpt>
      <trkpt lat="36.648898" lon="-6.127702">
        <ele>72.374665</ele>
        <time>2020-08-18T06:24:27.733Z</time>
      </trkpt>
      <trkpt lat="36.648806" lon="-6.127592">
        <ele>72.096130</ele>
        <time>2020-08-18T06:24:28.741Z</time>
      </trkpt>
      <trkpt lat="36.648704" lon="-6.127552">
        <ele>71.862507</ele>
        <time>2020-08-18T06:24:29.743Z</time>
      </trkpt>
      <trkpt lat="36.648588" lon="-6.127426">
        <ele>71.526332</ele>
        <time>2020-08-18T06:24:31.740Z</time>
      </trkpt>
      <trkpt lat="36.648462" lon="-6.127312">
        <ele>71.186160</ele>
        <time>2020-08-18T06:24:33.740Z</time>
      </trkpt>
      <trkpt lat="36.648404" lon="-6.127219">
        <ele>70.979681</ele>
        <time>2020-08-18T06:24:35.727Z</time>
      </trkpt>
      <trkpt lat="36.648323" lon="-6.127159">
        <ele>70.773815</ele>
        <time>2020-08-18T06:24:36.758Z</time>
      </trkpt>
      <trkpt lat="36.648203" lon="-6.127160">
        <ele>70.511630</ele>
        <time>2020-08-18T06:24:37.737Z</time>
      </trkpt>
      <trkpt lat="36.648090" lon="-6.127037">
        <ele>70.183850</ele>
        <time>2020-08-18T06:24:38.735Z</time>
      </trkpt>
      <trkpt lat="36.648214" lon="-6.126946">
        <ele>69.869458</ele>
        <time>2020-08-18T06:24:39.741Z</time>
      </trkpt>
      <trkpt lat="36.648125" lon="-6.126859">
        <ele>69.622338</ele>
        <time>2020-08-18T06:24:41.747Z</time>
      </trkpt>
      <trkpt lat="36.648046" lon="-6.126793">
        <ele>69.414550</ele>
        <time>2020-08-18T06:24:43.743Z</time>
      </trkpt>
      <trkpt lat="36.647969" lon="-6.126733">
        <ele>69.216146</ele>
        <time>2020-08-18T06:24:44.757Z</time>
      </trkpt>
      <trkpt lat="36.647864" lon="-6.126641">
        <ele>68.935726</ele>
        <time>2020-08-18T06:24:46.758Z</time>
      </trkpt>
      <trkpt lat="36.647797" lon="-6.126536">
        <ele>68.700556</ele>
        <time>2020-08-18T06:24:48.748Z</time>
      </trkpt>
      <trkpt lat="36.647720" lon="-6.126464">
        <ele>68.656665</ele>
        <time>2020-08-18T06:24:50.747Z</time>
      </trkpt>
      <trkpt lat="36.647550" lon="-6.126366">
        <ele>68.584135</ele>
        <time>2020-08-18T06:24:53.745Z</time>
      </trkpt>
      <trkpt lat="36.647447" lon="-6.126297">
        <ele>68.538853</ele>
        <time>2020-08-18T06:24:55.758Z</time>
      </trkpt>
      <trkpt lat="36.647336" lon="-6.126259">
        <ele>68.494278</ele>
        <time>2020-08-18T06:24:57.745Z</time>
      </trkpt>
      <trkpt lat="36.647191" lon="-6.126230">
        <ele>68.437410</ele>
        <time>2020-08-18T06:24:59.745Z</time>
      </trkpt>
      <trkpt lat="36.647078" lon="-6.126170">
        <ele>68.389847</ele>
        <time>2020-08-18T06:25:01.735Z</time>
      </trkpt>
      <trkpt lat="36.646953" lon="-6.126149">
        <ele>68.341004</ele>
        <time>2020-08-18T06:25:03.756Z</time>
      </trkpt>
      <trkpt lat="36.646841" lon="-6.126176">
        <ele>68.296830</ele>
        <time>2020-08-18T06:25:05.748Z</time>
      </trkpt>
      <trkpt lat="36.646738" lon="-6.126187">
        <ele>68.256798</ele>
        <time>2020-08-18T06:25:07.753Z</time>
      </trkpt>
      <trkpt lat="36.646625" lon="-6.126324">
        <ele>68.195753</ele>
        <time>2020-08-18T06:25:09.734Z</time>
      </trkpt>
      <trkpt lat="36.646532" lon="-6.126374">
        <ele>68.156532</ele>
        <time>2020-08-18T06:25:11.744Z</time>
      </trkpt>
      <trkpt lat="36.646437" lon="-6.126459">
        <ele>68.111246</ele>
        <time>2020-08-18T06:25:13.761Z</time>
      </trkpt>
      <trkpt lat="36.646358" lon="-6.126569">
        <ele>68.065378</ele>
        <time>2020-08-18T06:25:15.771Z</time>
      </trkpt>
      <trkpt lat="36.646265" lon="-6.126681">
        <ele>68.015300</ele>
        <time>2020-08-18T06:25:17.754Z</time>
      </trkpt>
      <trkpt lat="36.646180" lon="-6.126824">
        <ele>67.647491</ele>
        <time>2020-08-18T06:25:19.764Z</time>
      </trkpt>
      <trkpt lat="36.646122" lon="-6.126946">
        <ele>67.221022</ele>
        <time>2020-08-18T06:25:21.758Z</time>
      </trkpt>
      <trkpt lat="36.646021" lon="-6.127057">
        <ele>66.716293</ele>
        <time>2020-08-18T06:25:23.765Z</time>
      </trkpt>
      <trkpt lat="36.645964" lon="-6.127192">
        <ele>66.257515</ele>
        <time>2020-08-18T06:25:25.761Z</time>
      </trkpt>
      <trkpt lat="36.645926" lon="-6.127334">
        <ele>65.807343</ele>
        <time>2020-08-18T06:25:27.768Z</time>
      </trkpt>
      <trkpt lat="36.645901" lon="-6.127451">
        <ele>65.443217</ele>
        <time>2020-08-18T06:25:29.750Z</time>
      </trkpt>
      <trkpt lat="36.645845" lon="-6.127567">
        <ele>65.036083</ele>
        <time>2020-08-18T06:25:31.746Z</time>
      </trkpt>
      <trkpt lat="36.645814" lon="-6.127698">
        <ele>64.625340</ele>
        <time>2020-08-18T06:25:33.761Z</time>
      </trkpt>
      <trkpt lat="36.645757" lon="-6.127824">
        <ele>64.190330</ele>
        <time>2020-08-18T06:25:35.746Z</time>
      </trkpt>
      <trkpt lat="36.645737" lon="-6.127954">
        <ele>63.792250</ele>
        <time>2020-08-18T06:25:37.754Z</time>
      </trkpt>
      <trkpt lat="36.645658" lon="-6.128089">
        <ele>63.289742</ele>
        <time>2020-08-18T06:25:39.749Z</time>
      </trkpt>
      <trkpt lat="36.645633" lon="-6.128205">
        <ele>62.928520</ele>
        <time>2020-08-18T06:25:41.753Z</time>
      </trkpt>
      <trkpt lat="36.645593" lon="-6.128336">
        <ele>62.506989</ele>
        <time>2020-08-18T06:25:43.736Z</time>
      </trkpt>
      <trkpt lat="36.645561" lon="-6.128463">
        <ele>62.106661</ele>
        <time>2020-08-18T06:25:45.752Z</time>
      </trkpt>
      <trkpt lat="36.645534" lon="-6.128585">
        <ele>61.726060</ele>
        <time>2020-08-18T06:25:47.758Z</time>
      </trkpt>
      <trkpt lat="36.645475" lon="-6.128730">
        <ele>61.240728</ele>
        <time>2020-08-18T06:25:50.757Z</time>
      </trkpt>
      <trkpt lat="36.645402" lon="-6.128840">
        <ele>60.901839</ele>
        <time>2020-08-18T06:25:52.749Z</time>
      </trkpt>
      <trkpt lat="36.645359" lon="-6.128953">
        <ele>60.604938</ele>
        <time>2020-08-18T06:25:54.748Z</time>
      </trkpt>
      <trkpt lat="36.645293" lon="-6.129047">
        <ele>60.308404</ele>
        <time>2020-08-18T06:25:56.751Z</time>
      </trkpt>
      <trkpt lat="36.645230" lon="-6.129151">
        <ele>59.999044</ele>
        <time>2020-08-18T06:25:58.742Z</time>
      </trkpt>
      <trkpt lat="36.645172" lon="-6.129238">
        <ele>59.730515</ele>
        <time>2020-08-18T06:26:00.762Z</time>
      </trkpt>
      <trkpt lat="36.645084" lon="-6.129312">
        <ele>59.416418</ele>
        <time>2020-08-18T06:26:02.736Z</time>
      </trkpt>
      <trkpt lat="36.645007" lon="-6.129384">
        <ele>59.131599</ele>
        <time>2020-08-18T06:26:04.748Z</time>
      </trkpt>
      <trkpt lat="36.644916" lon="-6.129439">
        <ele>58.832359</ele>
        <time>2020-08-18T06:26:06.759Z</time>
      </trkpt>
      <trkpt lat="36.644834" lon="-6.129495">
        <ele>58.555701</ele>
        <time>2020-08-18T06:26:08.742Z</time>
      </trkpt>
      <trkpt lat="36.644718" lon="-6.129527">
        <ele>58.204173</ele>
        <time>2020-08-18T06:26:10.735Z</time>
      </trkpt>
      <trkpt lat="36.644628" lon="-6.129576">
        <ele>57.913582</ele>
        <time>2020-08-18T06:26:12.745Z</time>
      </trkpt>
      <trkpt lat="36.644524" lon="-6.129622">
        <ele>57.587063</ele>
        <time>2020-08-18T06:26:14.742Z</time>
      </trkpt>
      <trkpt lat="36.644428" lon="-6.129690">
        <ele>57.260349</ele>
        <time>2020-08-18T06:26:16.756Z</time>
      </trkpt>
      <trkpt lat="36.644331" lon="-6.129714">
        <ele>56.967744</ele>
        <time>2020-08-18T06:26:18.752Z</time>
      </trkpt>
      <trkpt lat="36.644248" lon="-6.129764">
        <ele>56.694981</ele>
        <time>2020-08-18T06:26:20.720Z</time>
      </trkpt>
      <trkpt lat="36.644154" lon="-6.129794">
        <ele>56.407879</ele>
        <time>2020-08-18T06:26:22.751Z</time>
      </trkpt>
      <trkpt lat="36.644058" lon="-6.129822">
        <ele>56.116160</ele>
        <time>2020-08-18T06:26:24.752Z</time>
      </trkpt>
      <trkpt lat="36.643985" lon="-6.129892">
        <ele>55.930729</ele>
        <time>2020-08-18T06:26:26.750Z</time>
      </trkpt>
      <trkpt lat="36.643873" lon="-6.129940">
        <ele>55.924040</ele>
        <time>2020-08-18T06:26:28.757Z</time>
      </trkpt>
      <trkpt lat="36.643777" lon="-6.129995">
        <ele>55.918073</ele>
        <time>2020-08-18T06:26:30.734Z</time>
      </trkpt>
      <trkpt lat="36.643674" lon="-6.130053">
        <ele>55.911690</ele>
        <time>2020-08-18T06:26:32.733Z</time>
      </trkpt>
      <trkpt lat="36.643565" lon="-6.130103">
        <ele>55.905130</ele>
        <time>2020-08-18T06:26:34.757Z</time>
      </trkpt>
      <trkpt lat="36.643474" lon="-6.130160">
        <ele>55.899378</ele>
        <time>2020-08-18T06:26:36.746Z</time>
      </trkpt>
      <trkpt lat="36.643351" lon="-6.130236">
        <ele>55.891624</ele>
        <time>2020-08-18T06:26:38.756Z</time>
      </trkpt>
      <trkpt lat="36.643232" lon="-6.130308">
        <ele>55.884153</ele>
        <time>2020-08-18T06:26:40.757Z</time>
      </trkpt>
      <trkpt lat="36.643140" lon="-6.130363">
        <ele>55.878391</ele>
        <time>2020-08-18T06:26:42.754Z</time>
      </trkpt>
      <trkpt lat="36.643014" lon="-6.130414">
        <ele>55.870909</ele>
        <time>2020-08-18T06:26:44.751Z</time>
      </trkpt>
      <trkpt lat="36.642922" lon="-6.130596">
        <ele>55.861161</ele>
        <time>2020-08-18T06:26:47.750Z</time>
      </trkpt>
      <trkpt lat="36.642839" lon="-6.130718">
        <ele>55.853913</ele>
        <time>2020-08-18T06:26:49.748Z</time>
      </trkpt>
      <trkpt lat="36.642702" lon="-6.130828">
        <ele>55.844709</ele>
        <time>2020-08-18T06:26:52.746Z</time>
      </trkpt>
      <trkpt lat="36.642710" lon="-6.131018">
        <ele>55.836087</ele>
        <time>2020-08-18T06:26:53.753Z</time>
      </trkpt>
      <trkpt lat="36.642635" lon="-6.130890">
        <ele>55.844593</ele>
        <time>2020-08-18T06:26:54.748Z</time>
      </trkpt>
      <trkpt lat="36.642546" lon="-6.130853">
        <ele>55.882208</ele>
        <time>2020-08-18T06:26:55.751Z</time>
      </trkpt>
      <trkpt lat="36.642557" lon="-6.131051">
        <ele>55.946055</ele>
        <time>2020-08-18T06:26:56.741Z</time>
      </trkpt>
      <trkpt lat="36.642412" lon="-6.131073">
        <ele>56.004617</ele>
        <time>2020-08-18T06:26:59.750Z</time>
      </trkpt>
      <trkpt lat="36.642303" lon="-6.131142">
        <ele>56.053631</ele>
        <time>2020-08-18T06:27:01.757Z</time>
      </trkpt>
      <trkpt lat="36.642200" lon="-6.131207">
        <ele>56.099918</ele>
        <time>2020-08-18T06:27:03.756Z</time>
      </trkpt>
      <trkpt lat="36.642081" lon="-6.131212">
        <ele>56.147654</ele>
        <time>2020-08-18T06:27:05.747Z</time>
      </trkpt>
      <trkpt lat="36.641960" lon="-6.131312">
        <ele>56.205862</ele>
        <time>2020-08-18T06:27:07.751Z</time>
      </trkpt>
      <trkpt lat="36.641870" lon="-6.131302">
        <ele>56.242088</ele>
        <time>2020-08-18T06:27:09.755Z</time>
      </trkpt>
      <trkpt lat="36.641739" lon="-6.131346">
        <ele>56.296483</ele>
        <time>2020-08-18T06:27:11.745Z</time>
      </trkpt>
      <trkpt lat="36.641635" lon="-6.131408">
        <ele>56.342703</ele>
        <time>2020-08-18T06:27:13.745Z</time>
      </trkpt>
      <trkpt lat="36.641543" lon="-6.131366">
        <ele>56.381984</ele>
        <time>2020-08-18T06:27:14.742Z</time>
      </trkpt>
      <trkpt lat="36.641414" lon="-6.131369">
        <ele>56.433712</ele>
        <time>2020-08-18T06:27:16.734Z</time>
      </trkpt>
      <trkpt lat="36.641285" lon="-6.131406">
        <ele>56.486782</ele>
        <time>2020-08-18T06:27:18.758Z</time>
      </trkpt>
      <trkpt lat="36.641145" lon="-6.131430">
        <ele>56.543439</ele>
        <time>2020-08-18T06:27:20.752Z</time>
      </trkpt>
      <trkpt lat="36.640997" lon="-6.131439">
        <ele>56.453969</ele>
        <time>2020-08-18T06:27:22.727Z</time>
      </trkpt>
      <trkpt lat="36.640849" lon="-6.131368">
        <ele>56.331563</ele>
        <time>2020-08-18T06:27:24.745Z</time>
      </trkpt>
      <trkpt lat="36.640737" lon="-6.131367">
        <ele>56.245112</ele>
        <time>2020-08-18T06:27:26.757Z</time>
      </trkpt>
      <trkpt lat="36.640618" lon="-6.131402">
        <ele>56.150738</ele>
        <time>2020-08-18T06:27:28.758Z</time>
      </trkpt>
      <trkpt lat="36.640492" lon="-6.131417">
        <ele>56.053041</ele>
        <time>2020-08-18T06:27:30.742Z</time>
      </trkpt>
      <trkpt lat="36.640377" lon="-6.131446">
        <ele>55.962478</ele>
        <time>2020-08-18T06:27:32.749Z</time>
      </trkpt>
      <trkpt lat="36.640292" lon="-6.131512">
        <ele>55.885178</ele>
        <time>2020-08-18T06:27:33.753Z</time>
      </trkpt>
      <trkpt lat="36.640194" lon="-6.131444">
        <ele>55.798602</ele>
        <time>2020-08-18T06:27:35.744Z</time>
      </trkpt>
      <trkpt lat="36.640044" lon="-6.131501">
        <ele>55.677560</ele>
        <time>2020-08-18T06:27:37.757Z</time>
      </trkpt>
      <trkpt lat="36.639991" lon="-6.131596">
        <ele>55.605899</ele>
        <time>2020-08-18T06:27:39.738Z</time>
      </trkpt>
      <trkpt lat="36.639878" lon="-6.131616">
        <ele>55.517804</ele>
        <time>2020-08-18T06:27:41.741Z</time>
      </trkpt>
      <trkpt lat="36.639717" lon="-6.131669">
        <ele>55.389272</ele>
        <time>2020-08-18T06:27:43.751Z</time>
      </trkpt>
      <trkpt lat="36.639604" lon="-6.131780">
        <ele>55.278216</ele>
        <time>2020-08-18T06:27:45.749Z</time>
      </trkpt>
      <trkpt lat="36.639504" lon="-6.131873">
        <ele>55.181907</ele>
        <time>2020-08-18T06:27:47.741Z</time>
      </trkpt>
      <trkpt lat="36.639365" lon="-6.131889">
        <ele>55.100964</ele>
        <time>2020-08-18T06:27:49.760Z</time>
      </trkpt>
      <trkpt lat="36.639241" lon="-6.131870">
        <ele>55.033413</ele>
        <time>2020-08-18T06:27:51.750Z</time>
      </trkpt>
      <trkpt lat="36.639111" lon="-6.131877">
        <ele>54.963057</ele>
        <time>2020-08-18T06:27:53.731Z</time>
      </trkpt>
      <trkpt lat="36.638982" lon="-6.131924">
        <ele>54.890388</ele>
        <time>2020-08-18T06:27:55.758Z</time>
      </trkpt>
      <trkpt lat="36.638850" lon="-6.131963">
        <ele>54.817038</ele>
        <time>2020-08-18T06:27:57.755Z</time>
      </trkpt>
      <trkpt lat="36.638749" lon="-6.132028">
        <ele>54.755577</ele>
        <time>2020-08-18T06:27:59.757Z</time>
      </trkpt>
      <trkpt lat="36.638623" lon="-6.132080">
        <ele>54.683811</ele>
        <time>2020-08-18T06:28:01.756Z</time>
      </trkpt>
      <trkpt lat="36.638501" lon="-6.132122">
        <ele>54.615376</ele>
        <time>2020-08-18T06:28:03.751Z</time>
      </trkpt>
      <trkpt lat="36.638390" lon="-6.132215">
        <ele>54.543056</ele>
        <time>2020-08-18T06:28:05.753Z</time>
      </trkpt>
      <trkpt lat="36.638273" lon="-6.132291">
        <ele>54.471718</ele>
        <time>2020-08-18T06:28:07.750Z</time>
      </trkpt>
      <trkpt lat="36.638224" lon="-6.132393">
        <ele>54.420139</ele>
        <time>2020-08-18T06:28:08.760Z</time>
      </trkpt>
      <trkpt lat="36.638112" lon="-6.132519">
        <ele>54.338557</ele>
        <time>2020-08-18T06:28:10.752Z</time>
      </trkpt>
      <trkpt lat="36.638022" lon="-6.132583">
        <ele>54.282530</ele>
        <time>2020-08-18T06:28:12.752Z</time>
      </trkpt>
      <trkpt lat="36.637948" lon="-6.132680">
        <ele>54.224460</ele>
        <time>2020-08-18T06:28:14.751Z</time>
      </trkpt>
      <trkpt lat="36.637854" lon="-6.132762">
        <ele>54.219546</ele>
        <time>2020-08-18T06:28:16.748Z</time>
      </trkpt>
      <trkpt lat="36.637752" lon="-6.132819">
        <ele>54.279338</ele>
        <time>2020-08-18T06:28:18.757Z</time>
      </trkpt>
      <trkpt lat="36.637659" lon="-6.132914">
        <ele>54.343657</ele>
        <time>2020-08-18T06:28:20.748Z</time>
      </trkpt>
      <trkpt lat="36.637547" lon="-6.132987">
        <ele>54.411262</ele>
        <time>2020-08-18T06:28:22.749Z</time>
      </trkpt>
      <trkpt lat="36.637461" lon="-6.133051">
        <ele>54.464839</ele>
        <time>2020-08-18T06:28:24.748Z</time>
      </trkpt>
      <trkpt lat="36.637405" lon="-6.133208">
        <ele>54.538581</ele>
        <time>2020-08-18T06:28:26.737Z</time>
      </trkpt>
      <trkpt lat="36.637320" lon="-6.133324">
        <ele>54.606003</ele>
        <time>2020-08-18T06:28:29.738Z</time>
      </trkpt>
      <trkpt lat="36.637230" lon="-6.133380">
        <ele>54.659809</ele>
        <time>2020-08-18T06:28:32.739Z</time>
      </trkpt>
      <trkpt lat="36.637071" lon="-6.133210">
        <ele>54.771865</ele>
        <time>2020-08-18T06:28:36.758Z</time>
      </trkpt>
      <trkpt lat="36.636993" lon="-6.133148">
        <ele>54.821350</ele>
        <time>2020-08-18T06:28:45.762Z</time>
      </trkpt>
      <trkpt lat="36.637108" lon="-6.133274">
        <ele>54.903253</ele>
        <time>2020-08-18T06:28:58.772Z</time>
      </trkpt>
      <trkpt lat="36.636964" lon="-6.133226">
        <ele>54.982983</ele>
        <time>2020-08-18T06:29:14.741Z</time>
      </trkpt>
      <trkpt lat="36.636889" lon="-6.133130">
        <ele>55.040490</ele>
        <time>2020-08-18T06:29:16.738Z</time>
      </trkpt>
      <trkpt lat="36.636804" lon="-6.133055">
        <ele>55.096197</ele>
        <time>2020-08-18T06:29:17.727Z</time>
      </trkpt>
      <trkpt lat="36.636730" lon="-6.132933">
        <ele>55.167536</ele>
        <time>2020-08-18T06:29:19.743Z</time>
      </trkpt>
      <trkpt lat="36.636648" lon="-6.132875">
        <ele>55.251226</ele>
        <time>2020-08-18T06:29:20.769Z</time>
      </trkpt>
      <trkpt lat="36.636603" lon="-6.132775">
        <ele>55.332886</ele>
        <time>2020-08-18T06:29:21.746Z</time>
      </trkpt>
      <trkpt lat="36.636493" lon="-6.132667">
        <ele>55.457184</ele>
        <time>2020-08-18T06:29:23.745Z</time>
      </trkpt>
      <trkpt lat="36.636429" lon="-6.132573">
        <ele>55.544987</ele>
        <time>2020-08-18T06:29:24.758Z</time>
      </trkpt>
      <trkpt lat="36.636327" lon="-6.132521">
        <ele>55.642806</ele>
        <time>2020-08-18T06:29:26.742Z</time>
      </trkpt>
      <trkpt lat="36.636222" lon="-6.132423">
        <ele>55.759245</ele>
        <time>2020-08-18T06:29:28.760Z</time>
      </trkpt>
      <trkpt lat="36.636112" lon="-6.132349">
        <ele>55.870199</ele>
        <time>2020-08-18T06:29:30.764Z</time>
      </trkpt>
      <trkpt lat="36.636050" lon="-6.132242">
        <ele>55.964202</ele>
        <time>2020-08-18T06:29:32.745Z</time>
      </trkpt>
      <trkpt lat="36.635960" lon="-6.132095">
        <ele>56.095898</ele>
        <time>2020-08-18T06:29:34.750Z</time>
      </trkpt>
      <trkpt lat="36.635881" lon="-6.132007">
        <ele>56.189948</ele>
        <time>2020-08-18T06:29:36.753Z</time>
      </trkpt>
      <trkpt lat="36.635824" lon="-6.131901">
        <ele>56.280831</ele>
        <time>2020-08-18T06:29:38.748Z</time>
      </trkpt>
      <trkpt lat="36.635690" lon="-6.131848">
        <ele>56.405617</ele>
        <time>2020-08-18T06:29:40.741Z</time>
      </trkpt>
      <trkpt lat="36.635566" lon="-6.131826">
        <ele>56.516790</ele>
        <time>2020-08-18T06:29:42.753Z</time>
      </trkpt>
      <trkpt lat="36.635487" lon="-6.131723">
        <ele>56.618273</ele>
        <time>2020-08-18T06:29:44.749Z</time>
      </trkpt>
      <trkpt lat="36.635384" lon="-6.131701">
        <ele>56.711030</ele>
        <time>2020-08-18T06:29:45.735Z</time>
      </trkpt>
      <trkpt lat="36.635310" lon="-6.131574">
        <ele>56.863305</ele>
        <time>2020-08-18T06:29:47.763Z</time>
      </trkpt>
      <trkpt lat="36.635262" lon="-6.131450">
        <ele>57.015644</ele>
        <time>2020-08-18T06:29:49.747Z</time>
      </trkpt>
      <trkpt lat="36.635155" lon="-6.131349">
        <ele>57.200738</ele>
        <time>2020-08-18T06:29:51.739Z</time>
      </trkpt>
      <trkpt lat="36.635058" lon="-6.131387">
        <ele>57.340947</ele>
        <time>2020-08-18T06:29:52.762Z</time>
      </trkpt>
      <trkpt lat="36.634933" lon="-6.131327">
        <ele>57.525658</ele>
        <time>2020-08-18T06:29:54.760Z</time>
      </trkpt>
      <trkpt lat="36.634790" lon="-6.131251">
        <ele>57.740028</ele>
        <time>2020-08-18T06:29:56.754Z</time>
      </trkpt>
      <trkpt lat="36.634781" lon="-6.131074">
        <ele>57.936277</ele>
        <time>2020-08-18T06:29:58.738Z</time>
      </trkpt>
      <trkpt lat="36.634641" lon="-6.131124">
        <ele>58.137098</ele>
        <time>2020-08-18T06:29:59.737Z</time>
      </trkpt>
      <trkpt lat="36.634630" lon="-6.130962">
        <ele>58.316997</ele>
        <time>2020-08-18T06:30:01.757Z</time>
      </trkpt>
      <trkpt lat="36.634538" lon="-6.130845">
        <ele>58.498256</ele>
        <time>2020-08-18T06:30:03.753Z</time>
      </trkpt>
      <trkpt lat="36.634474" lon="-6.130756">
        <ele>58.630494</ele>
        <time>2020-08-18T06:30:05.751Z</time>
      </trkpt>
      <trkpt lat="36.634373" lon="-6.130673">
        <ele>58.797322</ele>
        <time>2020-08-18T06:30:07.746Z</time>
      </trkpt>
      <trkpt lat="36.634290" lon="-6.130588">
        <ele>58.945462</ele>
        <time>2020-08-18T06:30:09.755Z</time>
      </trkpt>
      <trkpt lat="36.634158" lon="-6.130556">
        <ele>59.130893</ele>
        <time>2020-08-18T06:30:11.754Z</time>
      </trkpt>
      <trkpt lat="36.634066" lon="-6.130488">
        <ele>59.196659</ele>
        <time>2020-08-18T06:30:13.740Z</time>
      </trkpt>
      <trkpt lat="36.633973" lon="-6.130428">
        <ele>59.097788</ele>
        <time>2020-08-18T06:30:15.754Z</time>
      </trkpt>
      <trkpt lat="36.633892" lon="-6.130348">
        <ele>59.000209</ele>
        <time>2020-08-18T06:30:17.759Z</time>
      </trkpt>
      <trkpt lat="36.633790" lon="-6.130366">
        <ele>58.902950</ele>
        <time>2020-08-18T06:30:18.753Z</time>
      </trkpt>
      <trkpt lat="36.633694" lon="-6.130285">
        <ele>58.793494</ele>
        <time>2020-08-18T06:30:20.751Z</time>
      </trkpt>
      <trkpt lat="36.633610" lon="-6.130220">
        <ele>58.700143</ele>
        <time>2020-08-18T06:30:22.752Z</time>
      </trkpt>
      <trkpt lat="36.633517" lon="-6.130136">
        <ele>58.591704</ele>
        <time>2020-08-18T06:30:25.750Z</time>
      </trkpt>
      <trkpt lat="36.633415" lon="-6.130041">
        <ele>58.471480</ele>
        <time>2020-08-18T06:30:27.748Z</time>
      </trkpt>
      <trkpt lat="36.633369" lon="-6.129940">
        <ele>58.383495</ele>
        <time>2020-08-18T06:30:29.749Z</time>
      </trkpt>
      <trkpt lat="36.633260" lon="-6.129858">
        <ele>58.263289</ele>
        <time>2020-08-18T06:30:31.758Z</time>
      </trkpt>
      <trkpt lat="36.633166" lon="-6.129802">
        <ele>58.164923</ele>
        <time>2020-08-18T06:30:33.751Z</time>
      </trkpt>
      <trkpt lat="36.633079" lon="-6.129688">
        <ele>58.045734</ele>
        <time>2020-08-18T06:30:35.740Z</time>
      </trkpt>
      <trkpt lat="36.632992" lon="-6.129604">
        <ele>57.941827</ele>
        <time>2020-08-18T06:30:37.745Z</time>
      </trkpt>
      <trkpt lat="36.632844" lon="-6.129589">
        <ele>57.801638</ele>
        <time>2020-08-18T06:30:39.733Z</time>
      </trkpt>
      <trkpt lat="36.632803" lon="-6.129447">
        <ele>57.687303</ele>
        <time>2020-08-18T06:30:41.760Z</time>
      </trkpt>
      <trkpt lat="36.632717" lon="-6.129336">
        <ele>57.570408</ele>
        <time>2020-08-18T06:30:44.746Z</time>
      </trkpt>
      <trkpt lat="36.632640" lon="-6.129270">
        <ele>57.828577</ele>
        <time>2020-08-18T06:30:46.740Z</time>
      </trkpt>
      <trkpt lat="36.632538" lon="-6.129216">
        <ele>58.454851</ele>
        <time>2020-08-18T06:30:48.750Z</time>
      </trkpt>
      <trkpt lat="36.632457" lon="-6.129142">
        <ele>59.022425</ele>
        <time>2020-08-18T06:30:50.751Z</time>
      </trkpt>
      <trkpt lat="36.632379" lon="-6.129060">
        <ele>59.599117</ele>
        <time>2020-08-18T06:30:52.750Z</time>
      </trkpt>
      <trkpt lat="36.632261" lon="-6.128998">
        <ele>60.322799</ele>
        <time>2020-08-18T06:30:54.750Z</time>
      </trkpt>
      <trkpt lat="36.632157" lon="-6.128949">
        <ele>60.951119</ele>
        <time>2020-08-18T06:30:56.757Z</time>
      </trkpt>
      <trkpt lat="36.632085" lon="-6.128819">
        <ele>61.667433</ele>
        <time>2020-08-18T06:30:58.754Z</time>
      </trkpt>
      <trkpt lat="36.631974" lon="-6.128734">
        <ele>62.403678</ele>
        <time>2020-08-18T06:31:00.755Z</time>
      </trkpt>
      <trkpt lat="36.631895" lon="-6.128660">
        <ele>62.962179</ele>
        <time>2020-08-18T06:31:02.754Z</time>
      </trkpt>
      <trkpt lat="36.631814" lon="-6.128570">
        <ele>63.575454</ele>
        <time>2020-08-18T06:31:04.753Z</time>
      </trkpt>
      <trkpt lat="36.631687" lon="-6.128508">
        <ele>64.346254</ele>
        <time>2020-08-18T06:31:07.749Z</time>
      </trkpt>
      <trkpt lat="36.631607" lon="-6.128437">
        <ele>64.901281</ele>
        <time>2020-08-18T06:31:09.751Z</time>
      </trkpt>
      <trkpt lat="36.631491" lon="-6.128346">
        <ele>65.675892</ele>
        <time>2020-08-18T06:31:12.755Z</time>
      </trkpt>
      <trkpt lat="36.631394" lon="-6.128272">
        <ele>66.318616</ele>
        <time>2020-08-18T06:31:14.754Z</time>
      </trkpt>
      <trkpt lat="36.631296" lon="-6.128198">
        <ele>66.966167</ele>
        <time>2020-08-18T06:31:16.752Z</time>
      </trkpt>
      <trkpt lat="36.631196" lon="-6.128150">
        <ele>67.571752</ele>
        <time>2020-08-18T06:31:19.752Z</time>
      </trkpt>
      <trkpt lat="36.631186" lon="-6.128001">
        <ele>67.657702</ele>
        <time>2020-08-18T06:31:21.753Z</time>
      </trkpt>
      <trkpt lat="36.631105" lon="-6.127945">
        <ele>67.621424</ele>
        <time>2020-08-18T06:31:23.756Z</time>
      </trkpt>
      <trkpt lat="36.631009" lon="-6.127875">
        <ele>67.577863</ele>
        <time>2020-08-18T06:31:25.745Z</time>
      </trkpt>
      <trkpt lat="36.630924" lon="-6.127820">
        <ele>67.540354</ele>
        <time>2020-08-18T06:31:27.747Z</time>
      </trkpt>
      <trkpt lat="36.630835" lon="-6.127741">
        <ele>67.497559</ele>
        <time>2020-08-18T06:31:29.759Z</time>
      </trkpt>
      <trkpt lat="36.630727" lon="-6.127672">
        <ele>67.450027</ele>
        <time>2020-08-18T06:31:31.749Z</time>
      </trkpt>
      <trkpt lat="36.630620" lon="-6.127587">
        <ele>67.400330</ele>
        <time>2020-08-18T06:31:33.738Z</time>
      </trkpt>
      <trkpt lat="36.630525" lon="-6.127503">
        <ele>67.354710</ele>
        <time>2020-08-18T06:31:35.748Z</time>
      </trkpt>
      <trkpt lat="36.630432" lon="-6.127347">
        <ele>67.293632</ele>
        <time>2020-08-18T06:31:38.747Z</time>
      </trkpt>
      <trkpt lat="36.630400" lon="-6.127221">
        <ele>67.252096</ele>
        <time>2020-08-18T06:31:39.759Z</time>
      </trkpt>
      <trkpt lat="36.630315" lon="-6.127125">
        <ele>67.207168</ele>
        <time>2020-08-18T06:31:41.735Z</time>
      </trkpt>
      <trkpt lat="36.630248" lon="-6.126998">
        <ele>67.159401</ele>
        <time>2020-08-18T06:31:43.751Z</time>
      </trkpt>
      <trkpt lat="36.630127" lon="-6.126927">
        <ele>67.107022</ele>
        <time>2020-08-18T06:31:46.753Z</time>
      </trkpt>
      <trkpt lat="36.630044" lon="-6.126864">
        <ele>67.068960</ele>
        <time>2020-08-18T06:31:48.752Z</time>
      </trkpt>
      <trkpt lat="36.629950" lon="-6.126816">
        <ele>67.029175</ele>
        <time>2020-08-18T06:31:50.754Z</time>
      </trkpt>
      <trkpt lat="36.629860" lon="-6.126759">
        <ele>66.979238</ele>
        <time>2020-08-18T06:31:52.753Z</time>
      </trkpt>
      <trkpt lat="36.629777" lon="-6.126684">
        <ele>66.732892</ele>
        <time>2020-08-18T06:31:54.749Z</time>
      </trkpt>
      <trkpt lat="36.629684" lon="-6.126581">
        <ele>66.433930</ele>
        <time>2020-08-18T06:31:56.750Z</time>
      </trkpt>
      <trkpt lat="36.629588" lon="-6.126489">
        <ele>66.142938</ele>
        <time>2020-08-18T06:31:58.759Z</time>
      </trkpt>
      <trkpt lat="36.629507" lon="-6.126432">
        <ele>65.919425</ele>
        <time>2020-08-18T06:32:00.742Z</time>
      </trkpt>
      <trkpt lat="36.629423" lon="-6.126344">
        <ele>65.655741</ele>
        <time>2020-08-18T06:32:02.751Z</time>
      </trkpt>
      <trkpt lat="36.629344" lon="-6.126273">
        <ele>65.421702</ele>
        <time>2020-08-18T06:32:04.762Z</time>
      </trkpt>
      <trkpt lat="36.629218" lon="-6.126182">
        <ele>65.071779</ele>
        <time>2020-08-18T06:32:07.755Z</time>
      </trkpt>
      <trkpt lat="36.629117" lon="-6.126097">
        <ele>64.778937</ele>
        <time>2020-08-18T06:32:09.764Z</time>
      </trkpt>
      <trkpt lat="36.629033" lon="-6.126018">
        <ele>64.526072</ele>
        <time>2020-08-18T06:32:11.755Z</time>
      </trkpt>
      <trkpt lat="36.628942" lon="-6.125921">
        <ele>64.238335</ele>
        <time>2020-08-18T06:32:13.758Z</time>
      </trkpt>
      <trkpt lat="36.628850" lon="-6.125848">
        <ele>63.976268</ele>
        <time>2020-08-18T06:32:15.758Z</time>
      </trkpt>
      <trkpt lat="36.628776" lon="-6.125761">
        <ele>63.731815</ele>
        <time>2020-08-18T06:32:17.743Z</time>
      </trkpt>
      <trkpt lat="36.628700" lon="-6.125678">
        <ele>63.488997</ele>
        <time>2020-08-18T06:32:19.759Z</time>
      </trkpt>
      <trkpt lat="36.628604" lon="-6.125613">
        <ele>63.226479</ele>
        <time>2020-08-18T06:32:21.752Z</time>
      </trkpt>
      <trkpt lat="36.628521" lon="-6.125564">
        <ele>63.005799</ele>
        <time>2020-08-18T06:32:23.740Z</time>
      </trkpt>
      <trkpt lat="36.628454" lon="-6.125464">
        <ele>62.754606</ele>
        <time>2020-08-18T06:32:25.754Z</time>
      </trkpt>
      <trkpt lat="36.628373" lon="-6.125379">
        <ele>62.424525</ele>
        <time>2020-08-18T06:32:27.742Z</time>
      </trkpt>
      <trkpt lat="36.628301" lon="-6.125294">
        <ele>62.080055</ele>
        <time>2020-08-18T06:32:29.761Z</time>
      </trkpt>
      <trkpt lat="36.628203" lon="-6.125206">
        <ele>61.660522</ele>
        <time>2020-08-18T06:32:31.756Z</time>
      </trkpt>
      <trkpt lat="36.628090" lon="-6.125140">
        <ele>61.227089</ele>
        <time>2020-08-18T06:32:33.753Z</time>
      </trkpt>
      <trkpt lat="36.627986" lon="-6.125064">
        <ele>60.808354</ele>
        <time>2020-08-18T06:32:35.736Z</time>
      </trkpt>
      <trkpt lat="36.627899" lon="-6.124970">
        <ele>60.408424</ele>
        <time>2020-08-18T06:32:37.742Z</time>
      </trkpt>
      <trkpt lat="36.627785" lon="-6.124907">
        <ele>59.975300</ele>
        <time>2020-08-18T06:32:39.758Z</time>
      </trkpt>
      <trkpt lat="36.627662" lon="-6.124860">
        <ele>59.528475</ele>
        <time>2020-08-18T06:32:41.739Z</time>
      </trkpt>
      <trkpt lat="36.627581" lon="-6.124788">
        <ele>59.182911</ele>
        <time>2020-08-18T06:32:43.738Z</time>
      </trkpt>
      <trkpt lat="36.627488" lon="-6.124728">
        <ele>58.819187</ele>
        <time>2020-08-18T06:32:45.751Z</time>
      </trkpt>
      <trkpt lat="36.627399" lon="-6.124646">
        <ele>58.434761</ele>
        <time>2020-08-18T06:32:47.738Z</time>
      </trkpt>
      <trkpt lat="36.627312" lon="-6.124569">
        <ele>58.064138</ele>
        <time>2020-08-18T06:32:49.750Z</time>
      </trkpt>
      <trkpt lat="36.627224" lon="-6.124489">
        <ele>57.685810</ele>
        <time>2020-08-18T06:32:51.745Z</time>
      </trkpt>
      <trkpt lat="36.627127" lon="-6.124405">
        <ele>57.275552</ele>
        <time>2020-08-18T06:32:53.751Z</time>
      </trkpt>
      <trkpt lat="36.627035" lon="-6.124328">
        <ele>56.890639</ele>
        <time>2020-08-18T06:32:55.740Z</time>
      </trkpt>
      <trkpt lat="36.626939" lon="-6.124244">
        <ele>56.483228</ele>
        <time>2020-08-18T06:32:57.757Z</time>
      </trkpt>
      <trkpt lat="36.626856" lon="-6.124153">
        <ele>56.362432</ele>
        <time>2020-08-18T06:32:59.716Z</time>
      </trkpt>
      <trkpt lat="36.626758" lon="-6.124064">
        <ele>56.283525</ele>
        <time>2020-08-18T06:33:01.729Z</time>
      </trkpt>
      <trkpt lat="36.626665" lon="-6.123977">
        <ele>56.207854</ele>
        <time>2020-08-18T06:33:03.757Z</time>
      </trkpt>
      <trkpt lat="36.626561" lon="-6.123902">
        <ele>56.129666</ele>
        <time>2020-08-18T06:33:05.754Z</time>
      </trkpt>
      <trkpt lat="36.626463" lon="-6.123824">
        <ele>56.054000</ele>
        <time>2020-08-18T06:33:07.735Z</time>
      </trkpt>
      <trkpt lat="36.626379" lon="-6.123738">
        <ele>55.983258</ele>
        <time>2020-08-18T06:33:09.735Z</time>
      </trkpt>
      <trkpt lat="36.626287" lon="-6.123666">
        <ele>55.912566</ele>
        <time>2020-08-18T06:33:11.744Z</time>
      </trkpt>
      <trkpt lat="36.626192" lon="-6.123588">
        <ele>55.838537</ele>
        <time>2020-08-18T06:33:13.744Z</time>
      </trkpt>
      <trkpt lat="36.626111" lon="-6.123499">
        <ele>55.768266</ele>
        <time>2020-08-18T06:33:15.750Z</time>
      </trkpt>
      <trkpt lat="36.626022" lon="-6.123430">
        <ele>55.700060</ele>
        <time>2020-08-18T06:33:17.728Z</time>
      </trkpt>
      <trkpt lat="36.625940" lon="-6.123351">
        <ele>55.632615</ele>
        <time>2020-08-18T06:33:19.732Z</time>
      </trkpt>
      <trkpt lat="36.625844" lon="-6.123275">
        <ele>55.558607</ele>
        <time>2020-08-18T06:33:21.757Z</time>
      </trkpt>
      <trkpt lat="36.625755" lon="-6.123203">
        <ele>55.489560</ele>
        <time>2020-08-18T06:33:23.737Z</time>
      </trkpt>
      <trkpt lat="36.625663" lon="-6.123136">
        <ele>55.420222</ele>
        <time>2020-08-18T06:33:25.754Z</time>
      </trkpt>
      <trkpt lat="36.625567" lon="-6.123051">
        <ele>55.343591</ele>
        <time>2020-08-18T06:33:27.744Z</time>
      </trkpt>
      <trkpt lat="36.625477" lon="-6.122970">
        <ele>55.271350</ele>
        <time>2020-08-18T06:33:29.754Z</time>
      </trkpt>
      <trkpt lat="36.625382" lon="-6.122889">
        <ele>55.392682</ele>
        <time>2020-08-18T06:33:31.757Z</time>
      </trkpt>
      <trkpt lat="36.625289" lon="-6.122813">
        <ele>55.572564</ele>
        <time>2020-08-18T06:33:33.739Z</time>
      </trkpt>
      <trkpt lat="36.625200" lon="-6.122729">
        <ele>55.753145</ele>
        <time>2020-08-18T06:33:35.752Z</time>
      </trkpt>
      <trkpt lat="36.625114" lon="-6.122637">
        <ele>55.936472</ele>
        <time>2020-08-18T06:33:37.759Z</time>
      </trkpt>
      <trkpt lat="36.625025" lon="-6.122562">
        <ele>56.110250</ele>
        <time>2020-08-18T06:33:39.740Z</time>
      </trkpt>
      <trkpt lat="36.624952" lon="-6.122468">
        <ele>56.280039</ele>
        <time>2020-08-18T06:33:41.735Z</time>
      </trkpt>
      <trkpt lat="36.624858" lon="-6.122379">
        <ele>56.470986</ele>
        <time>2020-08-18T06:33:43.752Z</time>
      </trkpt>
      <trkpt lat="36.624760" lon="-6.122305">
        <ele>56.656325</ele>
        <time>2020-08-18T06:33:45.742Z</time>
      </trkpt>
      <trkpt lat="36.624681" lon="-6.122220">
        <ele>56.825144</ele>
        <time>2020-08-18T06:33:47.737Z</time>
      </trkpt>
      <trkpt lat="36.624588" lon="-6.122151">
        <ele>57.000208</ele>
        <time>2020-08-18T06:33:49.743Z</time>
      </trkpt>
      <trkpt lat="36.624496" lon="-6.122094">
        <ele>57.166388</ele>
        <time>2020-08-18T06:33:51.734Z</time>
      </trkpt>
      <trkpt lat="36.624412" lon="-6.122010">
        <ele>57.340592</ele>
        <time>2020-08-18T06:33:53.751Z</time>
      </trkpt>
      <trkpt lat="36.624333" lon="-6.121933">
        <ele>57.502815</ele>
        <time>2020-08-18T06:33:55.742Z</time>
      </trkpt>
      <trkpt lat="36.624260" lon="-6.121862">
        <ele>57.652596</ele>
        <time>2020-08-18T06:33:57.757Z</time>
      </trkpt>
      <trkpt lat="36.624184" lon="-6.121791">
        <ele>57.806230</ele>
        <time>2020-08-18T06:33:59.751Z</time>
      </trkpt>
      <trkpt lat="36.624089" lon="-6.121723">
        <ele>57.983431</ele>
        <time>2020-08-18T06:34:01.755Z</time>
      </trkpt>
      <trkpt lat="36.624006" lon="-6.121648">
        <ele>58.149260</ele>
        <time>2020-08-18T06:34:03.756Z</time>
      </trkpt>
      <trkpt lat="36.623928" lon="-6.121565">
        <ele>58.066916</ele>
        <time>2020-08-18T06:34:05.739Z</time>
      </trkpt>
      <trkpt lat="36.623833" lon="-6.121494">
        <ele>57.955964</ele>
        <time>2020-08-18T06:34:07.746Z</time>
      </trkpt>
      <trkpt lat="36.623757" lon="-6.121423">
        <ele>57.860826</ele>
        <time>2020-08-18T06:34:09.750Z</time>
      </trkpt>
      <trkpt lat="36.623676" lon="-6.121332">
        <ele>57.751592</ele>
        <time>2020-08-18T06:34:11.770Z</time>
      </trkpt>
      <trkpt lat="36.623591" lon="-6.121257">
        <ele>57.647274</ele>
        <time>2020-08-18T06:34:13.744Z</time>
      </trkpt>
      <trkpt lat="36.623483" lon="-6.121175">
        <ele>57.520605</ele>
        <time>2020-08-18T06:34:15.743Z</time>
      </trkpt>
      <trkpt lat="36.623387" lon="-6.121104">
        <ele>57.408793</ele>
        <time>2020-08-18T06:34:17.747Z</time>
      </trkpt>
      <trkpt lat="36.623301" lon="-6.121025">
        <ele>57.301780</ele>
        <time>2020-08-18T06:34:19.753Z</time>
      </trkpt>
      <trkpt lat="36.623189" lon="-6.120929">
        <ele>57.165626</ele>
        <time>2020-08-18T06:34:22.761Z</time>
      </trkpt>
      <trkpt lat="36.623102" lon="-6.120860">
        <ele>57.062335</ele>
        <time>2020-08-18T06:34:24.765Z</time>
      </trkpt>
      <trkpt lat="36.622977" lon="-6.120770">
        <ele>56.917740</ele>
        <time>2020-08-18T06:34:27.751Z</time>
      </trkpt>
      <trkpt lat="36.622899" lon="-6.120709">
        <ele>56.825505</ele>
        <time>2020-08-18T06:34:29.750Z</time>
      </trkpt>
      <trkpt lat="36.622814" lon="-6.120635">
        <ele>56.721650</ele>
        <time>2020-08-18T06:34:31.753Z</time>
      </trkpt>
      <trkpt lat="36.622736" lon="-6.120557">
        <ele>56.621479</ele>
        <time>2020-08-18T06:34:33.763Z</time>
      </trkpt>
      <trkpt lat="36.622654" lon="-6.120483">
        <ele>56.520072</ele>
        <time>2020-08-18T06:34:35.742Z</time>
      </trkpt>
      <trkpt lat="36.622578" lon="-6.120407">
        <ele>56.422470</ele>
        <time>2020-08-18T06:34:37.761Z</time>
      </trkpt>
      <trkpt lat="36.622508" lon="-6.120333">
        <ele>56.411731</ele>
        <time>2020-08-18T06:34:39.748Z</time>
      </trkpt>
      <trkpt lat="36.622428" lon="-6.120264">
        <ele>56.579180</ele>
        <time>2020-08-18T06:34:41.752Z</time>
      </trkpt>
      <trkpt lat="36.622347" lon="-6.120202">
        <ele>56.742784</ele>
        <time>2020-08-18T06:34:43.744Z</time>
      </trkpt>
      <trkpt lat="36.622227" lon="-6.120184">
        <ele>56.950796</ele>
        <time>2020-08-18T06:34:46.735Z</time>
      </trkpt>
      <trkpt lat="36.622123" lon="-6.120219">
        <ele>57.136194</ele>
        <time>2020-08-18T06:34:49.739Z</time>
      </trkpt>
      <trkpt lat="36.622034" lon="-6.120282">
        <ele>57.312356</ele>
        <time>2020-08-18T06:34:52.736Z</time>
      </trkpt>
      <trkpt lat="36.621939" lon="-6.120339">
        <ele>57.493821</ele>
        <time>2020-08-18T06:34:55.746Z</time>
      </trkpt>
      <trkpt lat="36.621852" lon="-6.120377">
        <ele>57.652482</ele>
        <time>2020-08-18T06:34:58.747Z</time>
      </trkpt>
      <trkpt lat="36.621766" lon="-6.120418">
        <ele>57.810952</ele>
        <time>2020-08-18T06:35:01.748Z</time>
      </trkpt>
      <trkpt lat="36.621683" lon="-6.120495">
        <ele>57.989042</ele>
        <time>2020-08-18T06:35:05.748Z</time>
      </trkpt>
      <trkpt lat="36.621605" lon="-6.120552">
        <ele>58.144666</ele>
        <time>2020-08-18T06:35:08.736Z</time>
      </trkpt>
      <trkpt lat="36.621529" lon="-6.120618">
        <ele>58.304097</ele>
        <time>2020-08-18T06:35:11.743Z</time>
      </trkpt>
      <trkpt lat="36.621451" lon="-6.120675">
        <ele>58.459721</ele>
        <time>2020-08-18T06:35:14.750Z</time>
      </trkpt>
      <trkpt lat="36.621356" lon="-6.120720">
        <ele>58.634633</ele>
        <time>2020-08-18T06:35:18.745Z</time>
      </trkpt>
      <trkpt lat="36.621253" lon="-6.120770">
        <ele>58.824875</ele>
        <time>2020-08-18T06:35:22.723Z</time>
      </trkpt>
      <trkpt lat="36.621162" lon="-6.120826">
        <ele>58.999547</ele>
        <time>2020-08-18T06:35:25.736Z</time>
      </trkpt>
      <trkpt lat="36.621066" lon="-6.120896">
        <ele>59.190976</ele>
        <time>2020-08-18T06:35:29.766Z</time>
      </trkpt>
      <trkpt lat="36.620953" lon="-6.120930">
        <ele>59.391040</ele>
        <time>2020-08-18T06:35:33.748Z</time>
      </trkpt>
      <trkpt lat="36.620841" lon="-6.120983">
        <ele>59.709424</ele>
        <time>2020-08-18T06:35:37.762Z</time>
      </trkpt>
      <trkpt lat="36.620750" lon="-6.121011">
        <ele>59.998779</ele>
        <time>2020-08-18T06:35:40.753Z</time>
      </trkpt>
      <trkpt lat="36.620649" lon="-6.121071">
        <ele>60.344192</ele>
        <time>2020-08-18T06:35:44.737Z</time>
      </trkpt>
      <trkpt lat="36.620548" lon="-6.121103">
        <ele>60.665901</ele>
        <time>2020-08-18T06:35:48.779Z</time>
      </trkpt>
      <trkpt lat="36.620446" lon="-6.121124">
        <ele>60.985044</ele>
        <time>2020-08-18T06:35:52.760Z</time>
      </trkpt>
      <trkpt lat="36.620346" lon="-6.121133">
        <ele>61.294548</ele>
        <time>2020-08-18T06:35:56.740Z</time>
      </trkpt>
      <trkpt lat="36.620248" lon="-6.121144">
        <ele>61.598298</ele>
        <time>2020-08-18T06:36:00.749Z</time>
      </trkpt>
      <trkpt lat="36.620142" lon="-6.121132">
        <ele>61.926868</ele>
        <time>2020-08-18T06:36:04.723Z</time>
      </trkpt>
      <trkpt lat="36.620038" lon="-6.121121">
        <ele>62.249070</ele>
        <time>2020-08-18T06:36:08.757Z</time>
      </trkpt>
      <trkpt lat="36.619929" lon="-6.121131">
        <ele>62.586463</ele>
        <time>2020-08-18T06:36:12.740Z</time>
      </trkpt>
      <trkpt lat="36.619828" lon="-6.121149">
        <ele>62.901423</ele>
        <time>2020-08-18T06:36:16.743Z</time>
      </trkpt>
      <trkpt lat="36.619721" lon="-6.121150">
        <ele>63.231740</ele>
        <time>2020-08-18T06:36:20.758Z</time>
      </trkpt>
      <trkpt lat="36.619628" lon="-6.121168">
        <ele>63.522274</ele>
        <time>2020-08-18T06:36:23.757Z</time>
      </trkpt>
      <trkpt lat="36.619515" lon="-6.121182">
        <ele>63.872825</ele>
        <time>2020-08-18T06:36:27.741Z</time>
      </trkpt>
      <trkpt lat="36.619410" lon="-6.121196">
        <ele>64.198810</ele>
        <time>2020-08-18T06:36:31.741Z</time>
      </trkpt>
      <trkpt lat="36.619306" lon="-6.121225">
        <ele>64.527799</ele>
        <time>2020-08-18T06:36:35.762Z</time>
      </trkpt>
      <trkpt lat="36.619215" lon="-6.121255">
        <ele>64.818383</ele>
        <time>2020-08-18T06:36:39.741Z</time>
      </trkpt>
      <trkpt lat="36.619100" lon="-6.121258">
        <ele>65.039615</ele>
        <time>2020-08-18T06:36:43.756Z</time>
      </trkpt>
      <trkpt lat="36.618998" lon="-6.121258">
        <ele>65.099360</ele>
        <time>2020-08-18T06:36:46.737Z</time>
      </trkpt>
      <trkpt lat="36.618888" lon="-6.121241">
        <ele>65.164284</ele>
        <time>2020-08-18T06:36:49.755Z</time>
      </trkpt>
      <trkpt lat="36.618787" lon="-6.121243">
        <ele>65.223451</ele>
        <time>2020-08-18T06:36:52.752Z</time>
      </trkpt>
      <trkpt lat="36.618673" lon="-6.121252">
        <ele>65.290359</ele>
        <time>2020-08-18T06:36:55.742Z</time>
      </trkpt>
      <trkpt lat="36.618560" lon="-6.121261">
        <ele>65.356682</ele>
        <time>2020-08-18T06:36:58.754Z</time>
      </trkpt>
      <trkpt lat="36.618453" lon="-6.121294">
        <ele>65.421247</ele>
        <time>2020-08-18T06:37:01.756Z</time>
      </trkpt>
      <trkpt lat="36.618344" lon="-6.121316">
        <ele>65.485925</ele>
        <time>2020-08-18T06:37:04.745Z</time>
      </trkpt>
      <trkpt lat="36.618231" lon="-6.121351">
        <ele>65.554127</ele>
        <time>2020-08-18T06:37:07.748Z</time>
      </trkpt>
      <trkpt lat="36.618117" lon="-6.121398">
        <ele>65.624462</ele>
        <time>2020-08-18T06:37:10.760Z</time>
      </trkpt>
      <trkpt lat="36.618004" lon="-6.121460">
        <ele>65.696784</ele>
        <time>2020-08-18T06:37:13.756Z</time>
      </trkpt>
      <trkpt lat="36.617889" lon="-6.121543">
        <ele>65.774629</ele>
        <time>2020-08-18T06:37:16.759Z</time>
      </trkpt>
      <trkpt lat="36.617787" lon="-6.121653">
        <ele>65.853647</ele>
        <time>2020-08-18T06:37:19.744Z</time>
      </trkpt>
      <trkpt lat="36.617675" lon="-6.121684">
        <ele>65.920849</ele>
        <time>2020-08-18T06:37:21.748Z</time>
      </trkpt>
      <trkpt lat="36.617586" lon="-6.121747">
        <ele>65.980806</ele>
        <time>2020-08-18T06:37:23.750Z</time>
      </trkpt>
      <trkpt lat="36.617481" lon="-6.121811">
        <ele>66.049274</ele>
        <time>2020-08-18T06:37:25.749Z</time>
      </trkpt>
      <trkpt lat="36.617412" lon="-6.121895">
        <ele>65.996103</ele>
        <time>2020-08-18T06:37:27.750Z</time>
      </trkpt>
      <trkpt lat="36.617308" lon="-6.121970">
        <ele>65.890969</ele>
        <time>2020-08-18T06:37:29.748Z</time>
      </trkpt>
      <trkpt lat="36.617203" lon="-6.122047">
        <ele>65.784372</ele>
        <time>2020-08-18T06:37:31.752Z</time>
      </trkpt>
      <trkpt lat="36.617088" lon="-6.122162">
        <ele>65.655356</ele>
        <time>2020-08-18T06:37:33.752Z</time>
      </trkpt>
      <trkpt lat="36.616994" lon="-6.122246">
        <ele>65.554147</ele>
        <time>2020-08-18T06:37:35.740Z</time>
      </trkpt>
      <trkpt lat="36.616908" lon="-6.122298">
        <ele>65.470512</ele>
        <time>2020-08-18T06:37:40.739Z</time>
      </trkpt>
      <trkpt lat="36.616652" lon="-6.122444">
        <ele>65.224184</ele>
        <time>2020-08-18T06:38:13.750Z</time>
      </trkpt>
      <trkpt lat="36.616545" lon="-6.122531">
        <ele>65.112397</ele>
        <time>2020-08-18T06:38:15.750Z</time>
      </trkpt>
      <trkpt lat="36.616427" lon="-6.122673">
        <ele>64.968863</ele>
        <time>2020-08-18T06:38:17.741Z</time>
      </trkpt>
      <trkpt lat="36.616343" lon="-6.122826">
        <ele>64.838689</ele>
        <time>2020-08-18T06:38:19.749Z</time>
      </trkpt>
      <trkpt lat="36.616244" lon="-6.122960">
        <ele>64.710794</ele>
        <time>2020-08-18T06:38:21.751Z</time>
      </trkpt>
      <trkpt lat="36.616139" lon="-6.123109">
        <ele>64.571554</ele>
        <time>2020-08-18T06:38:23.750Z</time>
      </trkpt>
      <trkpt lat="36.616024" lon="-6.123250">
        <ele>64.499246</ele>
        <time>2020-08-18T06:38:25.739Z</time>
      </trkpt>
      <trkpt lat="36.615956" lon="-6.123332">
        <ele>64.515153</ele>
        <time>2020-08-18T06:38:26.740Z</time>
      </trkpt>
      <trkpt lat="36.615888" lon="-6.123412">
        <ele>64.530874</ele>
        <time>2020-08-18T06:38:27.738Z</time>
      </trkpt>
      <trkpt lat="36.615787" lon="-6.123549">
        <ele>64.555970</ele>
        <time>2020-08-18T06:38:29.768Z</time>
      </trkpt>
      <trkpt lat="36.615734" lon="-6.123648">
        <ele>64.572025</ele>
        <time>2020-08-18T06:38:30.757Z</time>
      </trkpt>
      <trkpt lat="36.615649" lon="-6.123801">
        <ele>64.597130</ele>
        <time>2020-08-18T06:38:32.750Z</time>
      </trkpt>
      <trkpt lat="36.615619" lon="-6.123913">
        <ele>64.613060</ele>
        <time>2020-08-18T06:38:33.739Z</time>
      </trkpt>
      <trkpt lat="36.615573" lon="-6.124013">
        <ele>64.628610</ele>
        <time>2020-08-18T06:38:34.741Z</time>
      </trkpt>
      <trkpt lat="36.615483" lon="-6.124140">
        <ele>64.651467</ele>
        <time>2020-08-18T06:38:36.741Z</time>
      </trkpt>
      <trkpt lat="36.615421" lon="-6.124243">
        <ele>64.668837</ele>
        <time>2020-08-18T06:38:37.748Z</time>
      </trkpt>
      <trkpt lat="36.615405" lon="-6.124378">
        <ele>64.687248</ele>
        <time>2020-08-18T06:38:38.767Z</time>
      </trkpt>
      <trkpt lat="36.615353" lon="-6.124479">
        <ele>64.703437</ele>
        <time>2020-08-18T06:38:39.747Z</time>
      </trkpt>
      <trkpt lat="36.615298" lon="-6.124569">
        <ele>64.718698</ele>
        <time>2020-08-18T06:38:40.755Z</time>
      </trkpt>
      <trkpt lat="36.615239" lon="-6.124781">
        <ele>64.748971</ele>
        <time>2020-08-18T06:38:42.740Z</time>
      </trkpt>
      <trkpt lat="36.615155" lon="-6.124901">
        <ele>64.770453</ele>
        <time>2020-08-18T06:38:44.739Z</time>
      </trkpt>
      <trkpt lat="36.615068" lon="-6.125006">
        <ele>64.788391</ele>
        <time>2020-08-18T06:38:46.740Z</time>
      </trkpt>
      <trkpt lat="36.614943" lon="-6.125153">
        <ele>64.608215</ele>
        <time>2020-08-18T06:38:48.756Z</time>
      </trkpt>
      <trkpt lat="36.614864" lon="-6.125221">
        <ele>64.507566</ele>
        <time>2020-08-18T06:38:49.742Z</time>
      </trkpt>
      <trkpt lat="36.614767" lon="-6.125259">
        <ele>64.400983</ele>
        <time>2020-08-18T06:38:50.748Z</time>
      </trkpt>
      <trkpt lat="36.614697" lon="-6.125329">
        <ele>64.306897</ele>
        <time>2020-08-18T06:38:51.758Z</time>
      </trkpt>
      <trkpt lat="36.614605" lon="-6.125351">
        <ele>64.208703</ele>
        <time>2020-08-18T06:38:52.744Z</time>
      </trkpt>
      <trkpt lat="36.614509" lon="-6.125357">
        <ele>64.107949</ele>
        <time>2020-08-18T06:38:53.748Z</time>
      </trkpt>
      <trkpt lat="36.614384" lon="-6.125425">
        <ele>63.964979</ele>
        <time>2020-08-18T06:38:55.738Z</time>
      </trkpt>
      <trkpt lat="36.614252" lon="-6.125525">
        <ele>63.803045</ele>
        <time>2020-08-18T06:38:57.744Z</time>
      </trkpt>
      <trkpt lat="36.614103" lon="-6.125462">
        <ele>63.638115</ele>
        <time>2020-08-18T06:38:59.749Z</time>
      </trkpt>
      <trkpt lat="36.613981" lon="-6.125541">
        <ele>63.493993</ele>
        <time>2020-08-18T06:39:01.753Z</time>
      </trkpt>
      <trkpt lat="36.613910" lon="-6.125664">
        <ele>63.366525</ele>
        <time>2020-08-18T06:39:03.751Z</time>
      </trkpt>
      <trkpt lat="36.613816" lon="-6.125692">
        <ele>63.265218</ele>
        <time>2020-08-18T06:39:04.740Z</time>
      </trkpt>
      <trkpt lat="36.613695" lon="-6.125692">
        <ele>63.138386</ele>
        <time>2020-08-18T06:39:06.737Z</time>
      </trkpt>
      <trkpt lat="36.613629" lon="-6.125878">
        <ele>62.967284</ele>
        <time>2020-08-18T06:39:08.752Z</time>
      </trkpt>
      <trkpt lat="36.613485" lon="-6.125916">
        <ele>62.593096</ele>
        <time>2020-08-18T06:39:10.748Z</time>
      </trkpt>
      <trkpt lat="36.613393" lon="-6.126036">
        <ele>62.120330</ele>
        <time>2020-08-18T06:39:12.740Z</time>
      </trkpt>
      <trkpt lat="36.613240" lon="-6.126158">
        <ele>61.475574</ele>
        <time>2020-08-18T06:39:15.721Z</time>
      </trkpt>
      <trkpt lat="36.613126" lon="-6.126240">
        <ele>61.008350</ele>
        <time>2020-08-18T06:39:17.750Z</time>
      </trkpt>
      <trkpt lat="36.613021" lon="-6.126373">
        <ele>60.476874</ele>
        <time>2020-08-18T06:39:19.757Z</time>
      </trkpt>
      <trkpt lat="36.612923" lon="-6.126457">
        <ele>60.054664</ele>
        <time>2020-08-18T06:39:21.765Z</time>
      </trkpt>
      <trkpt lat="36.612856" lon="-6.126631">
        <ele>59.504851</ele>
        <time>2020-08-18T06:39:23.752Z</time>
      </trkpt>
      <trkpt lat="36.612712" lon="-6.126707">
        <ele>58.949774</ele>
        <time>2020-08-18T06:39:26.741Z</time>
      </trkpt>
      <trkpt lat="36.612616" lon="-6.126831">
        <ele>58.458953</ele>
        <time>2020-08-18T06:39:28.756Z</time>
      </trkpt>
      <trkpt lat="36.612528" lon="-6.126900">
        <ele>58.089898</ele>
        <time>2020-08-18T06:39:31.746Z</time>
      </trkpt>
      <trkpt lat="36.612243" lon="-6.126839">
        <ele>57.063516</ele>
        <time>2020-08-18T06:39:32.763Z</time>
      </trkpt>
      <trkpt lat="36.612161" lon="-6.126997">
        <ele>56.527477</ele>
        <time>2020-08-18T06:39:35.758Z</time>
      </trkpt>
      <trkpt lat="36.612051" lon="-6.127127">
        <ele>56.094469</ele>
        <time>2020-08-18T06:39:37.757Z</time>
      </trkpt>
      <trkpt lat="36.611927" lon="-6.127194">
        <ele>55.709583</ele>
        <time>2020-08-18T06:39:40.749Z</time>
      </trkpt>
      <trkpt lat="36.611877" lon="-6.127289">
        <ele>55.449918</ele>
        <time>2020-08-18T06:39:42.758Z</time>
      </trkpt>
      <trkpt lat="36.611778" lon="-6.127395">
        <ele>55.078191</ele>
        <time>2020-08-18T06:39:44.744Z</time>
      </trkpt>
      <trkpt lat="36.611689" lon="-6.127503">
        <ele>54.724393</ele>
        <time>2020-08-18T06:39:46.750Z</time>
      </trkpt>
      <trkpt lat="36.611627" lon="-6.127614">
        <ele>54.415289</ele>
        <time>2020-08-18T06:39:48.769Z</time>
      </trkpt>
      <trkpt lat="36.611544" lon="-6.127689">
        <ele>54.123309</ele>
        <time>2020-08-18T06:39:50.752Z</time>
      </trkpt>
      <trkpt lat="36.611498" lon="-6.127813">
        <ele>53.811067</ele>
        <time>2020-08-18T06:39:52.753Z</time>
      </trkpt>
      <trkpt lat="36.611406" lon="-6.127899">
        <ele>53.483536</ele>
        <time>2020-08-18T06:39:54.751Z</time>
      </trkpt>
      <trkpt lat="36.611339" lon="-6.128028">
        <ele>53.132328</ele>
        <time>2020-08-18T06:39:56.754Z</time>
      </trkpt>
      <trkpt lat="36.611241" lon="-6.128122">
        <ele>52.780127</ele>
        <time>2020-08-18T06:39:58.745Z</time>
      </trkpt>
      <trkpt lat="36.611141" lon="-6.128225">
        <ele>52.410641</ele>
        <time>2020-08-18T06:40:00.757Z</time>
      </trkpt>
      <trkpt lat="36.611048" lon="-6.128300">
        <ele>52.095167</ele>
        <time>2020-08-18T06:40:02.748Z</time>
      </trkpt>
      <trkpt lat="36.610969" lon="-6.128403">
        <ele>51.769531</ele>
        <time>2020-08-18T06:40:04.750Z</time>
      </trkpt>
      <trkpt lat="36.610900" lon="-6.128500">
        <ele>51.473275</ele>
        <time>2020-08-18T06:40:06.755Z</time>
      </trkpt>
      <trkpt lat="36.610847" lon="-6.128601">
        <ele>51.255146</ele>
        <time>2020-08-18T06:40:08.752Z</time>
      </trkpt>
      <trkpt lat="36.610771" lon="-6.128696">
        <ele>51.036192</ele>
        <time>2020-08-18T06:40:10.743Z</time>
      </trkpt>
      <trkpt lat="36.610684" lon="-6.128790">
        <ele>50.801985</ele>
        <time>2020-08-18T06:40:12.759Z</time>
      </trkpt>
      <trkpt lat="36.610574" lon="-6.128867">
        <ele>50.545380</ele>
        <time>2020-08-18T06:40:14.747Z</time>
      </trkpt>
      <trkpt lat="36.610461" lon="-6.128948">
        <ele>50.280244</ele>
        <time>2020-08-18T06:40:16.744Z</time>
      </trkpt>
      <trkpt lat="36.610371" lon="-6.129026">
        <ele>50.057274</ele>
        <time>2020-08-18T06:40:18.758Z</time>
      </trkpt>
      <trkpt lat="36.610280" lon="-6.129118">
        <ele>49.818933</ele>
        <time>2020-08-18T06:40:20.748Z</time>
      </trkpt>
      <trkpt lat="36.610216" lon="-6.129201">
        <ele>49.631050</ele>
        <time>2020-08-18T06:40:22.766Z</time>
      </trkpt>
      <trkpt lat="36.610139" lon="-6.129312">
        <ele>49.391555</ele>
        <time>2020-08-18T06:40:24.779Z</time>
      </trkpt>
      <trkpt lat="36.610069" lon="-6.129395">
        <ele>49.195021</ele>
        <time>2020-08-18T06:40:26.747Z</time>
      </trkpt>
      <trkpt lat="36.609969" lon="-6.129462">
        <ele>48.964103</ele>
        <time>2020-08-18T06:40:28.751Z</time>
      </trkpt>
      <trkpt lat="36.609891" lon="-6.129558">
        <ele>48.741113</ele>
        <time>2020-08-18T06:40:30.753Z</time>
      </trkpt>
      <trkpt lat="36.609806" lon="-6.129622">
        <ele>48.539127</ele>
        <time>2020-08-18T06:40:32.756Z</time>
      </trkpt>
      <trkpt lat="36.609713" lon="-6.129711">
        <ele>48.300628</ele>
        <time>2020-08-18T06:40:34.750Z</time>
      </trkpt>
      <trkpt lat="36.609610" lon="-6.129775">
        <ele>48.066545</ele>
        <time>2020-08-18T06:40:36.758Z</time>
      </trkpt>
      <trkpt lat="36.609488" lon="-6.129829">
        <ele>47.803237</ele>
        <time>2020-08-18T06:40:38.752Z</time>
      </trkpt>
      <trkpt lat="36.609369" lon="-6.129842">
        <ele>47.722788</ele>
        <time>2020-08-18T06:40:40.760Z</time>
      </trkpt>
      <trkpt lat="36.609261" lon="-6.129916">
        <ele>47.697056</ele>
        <time>2020-08-18T06:40:42.739Z</time>
      </trkpt>
      <trkpt lat="36.609159" lon="-6.129973">
        <ele>47.673717</ele>
        <time>2020-08-18T06:40:44.736Z</time>
      </trkpt>
      <trkpt lat="36.609030" lon="-6.130028">
        <ele>47.645252</ele>
        <time>2020-08-18T06:40:46.751Z</time>
      </trkpt>
      <trkpt lat="36.608919" lon="-6.130119">
        <ele>47.617511</ele>
        <time>2020-08-18T06:40:48.758Z</time>
      </trkpt>
      <trkpt lat="36.608794" lon="-6.130126">
        <ele>47.591388</ele>
        <time>2020-08-18T06:40:50.750Z</time>
      </trkpt>
      <trkpt lat="36.608689" lon="-6.130211">
        <ele>47.565246</ele>
        <time>2020-08-18T06:40:52.752Z</time>
      </trkpt>
      <trkpt lat="36.608554" lon="-6.130264">
        <ele>47.535695</ele>
        <time>2020-08-18T06:40:54.752Z</time>
      </trkpt>
      <trkpt lat="36.608448" lon="-6.130294">
        <ele>47.513002</ele>
        <time>2020-08-18T06:40:56.743Z</time>
      </trkpt>
      <trkpt lat="36.608332" lon="-6.130373">
        <ele>47.485402</ele>
        <time>2020-08-18T06:40:58.757Z</time>
      </trkpt>
      <trkpt lat="36.608208" lon="-6.130368">
        <ele>47.459501</ele>
        <time>2020-08-18T06:41:00.742Z</time>
      </trkpt>
      <trkpt lat="36.608056" lon="-6.130349">
        <ele>47.427609</ele>
        <time>2020-08-18T06:41:02.734Z</time>
      </trkpt>
      <trkpt lat="36.607926" lon="-6.130319">
        <ele>47.400007</ele>
        <time>2020-08-18T06:41:04.756Z</time>
      </trkpt>
      <trkpt lat="36.607792" lon="-6.130255">
        <ele>47.370046</ele>
        <time>2020-08-18T06:41:06.747Z</time>
      </trkpt>
      <trkpt lat="36.607663" lon="-6.130209">
        <ele>47.297174</ele>
        <time>2020-08-18T06:41:08.758Z</time>
      </trkpt>
      <trkpt lat="36.607551" lon="-6.130173">
        <ele>47.227590</ele>
        <time>2020-08-18T06:41:10.765Z</time>
      </trkpt>
      <trkpt lat="36.607434" lon="-6.130086">
        <ele>47.145619</ele>
        <time>2020-08-18T06:41:12.757Z</time>
      </trkpt>
      <trkpt lat="36.607319" lon="-6.130013">
        <ele>47.067974</ele>
        <time>2020-08-18T06:41:14.755Z</time>
      </trkpt>
      <trkpt lat="36.607232" lon="-6.129923">
        <ele>46.999943</ele>
        <time>2020-08-18T06:41:16.766Z</time>
      </trkpt>
      <trkpt lat="36.607150" lon="-6.129798">
        <ele>46.921986</ele>
        <time>2020-08-18T06:41:18.761Z</time>
      </trkpt>
      <trkpt lat="36.607093" lon="-6.129684">
        <ele>46.857128</ele>
        <time>2020-08-18T06:41:20.738Z</time>
      </trkpt>
      <trkpt lat="36.606998" lon="-6.129584">
        <ele>46.782307</ele>
        <time>2020-08-18T06:41:22.762Z</time>
      </trkpt>
      <trkpt lat="36.606907" lon="-6.129482">
        <ele>46.708665</ele>
        <time>2020-08-18T06:41:24.748Z</time>
      </trkpt>
      <trkpt lat="36.606815" lon="-6.129368">
        <ele>46.630601</ele>
        <time>2020-08-18T06:41:26.753Z</time>
      </trkpt>
      <trkpt lat="36.606744" lon="-6.129211">
        <ele>46.543580</ele>
        <time>2020-08-18T06:41:28.756Z</time>
      </trkpt>
      <trkpt lat="36.606670" lon="-6.129071">
        <ele>46.462632</ele>
        <time>2020-08-18T06:41:31.749Z</time>
      </trkpt>
      <trkpt lat="36.606614" lon="-6.128943">
        <ele>46.392234</ele>
        <time>2020-08-18T06:41:33.742Z</time>
      </trkpt>
      <trkpt lat="36.606508" lon="-6.128883">
        <ele>46.322192</ele>
        <time>2020-08-18T06:41:35.750Z</time>
      </trkpt>
      <trkpt lat="36.606430" lon="-6.128780">
        <ele>46.330755</ele>
        <time>2020-08-18T06:41:37.743Z</time>
      </trkpt>
      <trkpt lat="36.606415" lon="-6.128647">
        <ele>46.432054</ele>
        <time>2020-08-18T06:41:39.762Z</time>
      </trkpt>
      <trkpt lat="36.606319" lon="-6.128535">
        <ele>46.555632</ele>
        <time>2020-08-18T06:41:41.744Z</time>
      </trkpt>
      <trkpt lat="36.606237" lon="-6.128466">
        <ele>46.648606</ele>
        <time>2020-08-18T06:41:42.753Z</time>
      </trkpt>
      <trkpt lat="36.606096" lon="-6.128370">
        <ele>46.799580</ele>
        <time>2020-08-18T06:41:44.753Z</time>
      </trkpt>
      <trkpt lat="36.606008" lon="-6.128268">
        <ele>46.912517</ele>
        <time>2020-08-18T06:41:46.749Z</time>
      </trkpt>
      <trkpt lat="36.605913" lon="-6.128191">
        <ele>47.019006</ele>
        <time>2020-08-18T06:41:48.756Z</time>
      </trkpt>
      <trkpt lat="36.605828" lon="-6.128116">
        <ele>47.116873</ele>
        <time>2020-08-18T06:41:50.741Z</time>
      </trkpt>
      <trkpt lat="36.605729" lon="-6.128030">
        <ele>47.230273</ele>
        <time>2020-08-18T06:41:52.742Z</time>
      </trkpt>
      <trkpt lat="36.605677" lon="-6.127899">
        <ele>47.340498</ele>
        <time>2020-08-18T06:41:54.744Z</time>
      </trkpt>
      <trkpt lat="36.605545" lon="-6.127861">
        <ele>47.467788</ele>
        <time>2020-08-18T06:41:56.742Z</time>
      </trkpt>
      <trkpt lat="36.605481" lon="-6.127776">
        <ele>47.555686</ele>
        <time>2020-08-18T06:41:57.752Z</time>
      </trkpt>
      <trkpt lat="36.605388" lon="-6.127701">
        <ele>47.659778</ele>
        <time>2020-08-18T06:41:59.758Z</time>
      </trkpt>
      <trkpt lat="36.605275" lon="-6.127657">
        <ele>47.771014</ele>
        <time>2020-08-18T06:42:01.753Z</time>
      </trkpt>
      <trkpt lat="36.605170" lon="-6.127611">
        <ele>47.875591</ele>
        <time>2020-08-18T06:42:03.749Z</time>
      </trkpt>
      <trkpt lat="36.605103" lon="-6.127471">
        <ele>47.970177</ele>
        <time>2020-08-18T06:42:05.752Z</time>
      </trkpt>
      <trkpt lat="36.604999" lon="-6.127413">
        <ele>47.954580</ele>
        <time>2020-08-18T06:42:07.740Z</time>
      </trkpt>
      <trkpt lat="36.604920" lon="-6.127329">
        <ele>47.940363</ele>
        <time>2020-08-18T06:42:09.743Z</time>
      </trkpt>
      <trkpt lat="36.604817" lon="-6.127215">
        <ele>47.921503</ele>
        <time>2020-08-18T06:42:11.755Z</time>
      </trkpt>
      <trkpt lat="36.604708" lon="-6.127178">
        <ele>47.906040</ele>
        <time>2020-08-18T06:42:13.742Z</time>
      </trkpt>
      <trkpt lat="36.604645" lon="-6.127019">
        <ele>47.886556</ele>
        <time>2020-08-18T06:42:15.740Z</time>
      </trkpt>
      <trkpt lat="36.604666" lon="-6.126901">
        <ele>47.873275</ele>
        <time>2020-08-18T06:42:16.750Z</time>
      </trkpt>
      <trkpt lat="36.604588" lon="-6.126817">
        <ele>47.859162</ele>
        <time>2020-08-18T06:42:18.757Z</time>
      </trkpt>
      <trkpt lat="36.604506" lon="-6.126704">
        <ele>47.842424</ele>
        <time>2020-08-18T06:42:20.742Z</time>
      </trkpt>
      <trkpt lat="36.604411" lon="-6.126598">
        <ele>47.824967</ele>
        <time>2020-08-18T06:42:23.757Z</time>
      </trkpt>
      <trkpt lat="36.604339" lon="-6.126502">
        <ele>47.810531</ele>
        <time>2020-08-18T06:42:25.757Z</time>
      </trkpt>
      <trkpt lat="36.604287" lon="-6.126380">
        <ele>47.795353</ele>
        <time>2020-08-18T06:42:27.763Z</time>
      </trkpt>
      <trkpt lat="36.604211" lon="-6.126283">
        <ele>47.780459</ele>
        <time>2020-08-18T06:42:29.759Z</time>
      </trkpt>
      <trkpt lat="36.604076" lon="-6.126191">
        <ele>47.759396</ele>
        <time>2020-08-18T06:42:32.755Z</time>
      </trkpt>
      <trkpt lat="36.603938" lon="-6.126183">
        <ele>47.740486</ele>
        <time>2020-08-18T06:42:35.757Z</time>
      </trkpt>
      <trkpt lat="36.603840" lon="-6.126153">
        <ele>47.720563</ele>
        <time>2020-08-18T06:42:37.748Z</time>
      </trkpt>
      <trkpt lat="36.603715" lon="-6.126016">
        <ele>47.545206</ele>
        <time>2020-08-18T06:42:39.756Z</time>
      </trkpt>
      <trkpt lat="36.603623" lon="-6.125974">
        <ele>47.442007</ele>
        <time>2020-08-18T06:42:41.752Z</time>
      </trkpt>
      <trkpt lat="36.603552" lon="-6.125853">
        <ele>47.315285</ele>
        <time>2020-08-18T06:42:43.755Z</time>
      </trkpt>
      <trkpt lat="36.603455" lon="-6.125782">
        <ele>47.196791</ele>
        <time>2020-08-18T06:42:45.739Z</time>
      </trkpt>
      <trkpt lat="36.603333" lon="-6.125756">
        <ele>47.066431</ele>
        <time>2020-08-18T06:42:48.755Z</time>
      </trkpt>
      <trkpt lat="36.603224" lon="-6.125729">
        <ele>46.949382</ele>
        <time>2020-08-18T06:42:50.757Z</time>
      </trkpt>
      <trkpt lat="36.603100" lon="-6.125689">
        <ele>46.814474</ele>
        <time>2020-08-18T06:42:52.746Z</time>
      </trkpt>
      <trkpt lat="36.603010" lon="-6.125599">
        <ele>46.692919</ele>
        <time>2020-08-18T06:42:56.740Z</time>
      </trkpt>
      <trkpt lat="36.602919" lon="-6.125619">
        <ele>46.595595</ele>
        <time>2020-08-18T06:42:57.756Z</time>
      </trkpt>
      <trkpt lat="36.602818" lon="-6.125674">
        <ele>46.479499</ele>
        <time>2020-08-18T06:42:59.768Z</time>
      </trkpt>
      <trkpt lat="36.602726" lon="-6.125689">
        <ele>46.381776</ele>
        <time>2020-08-18T06:43:01.756Z</time>
      </trkpt>
      <trkpt lat="36.602604" lon="-6.125718">
        <ele>46.250964</ele>
        <time>2020-08-18T06:43:03.759Z</time>
      </trkpt>
      <trkpt lat="36.602505" lon="-6.125689">
        <ele>46.143851</ele>
        <time>2020-08-18T06:43:05.749Z</time>
      </trkpt>
      <trkpt lat="36.602402" lon="-6.125648">
        <ele>46.029964</ele>
        <time>2020-08-18T06:43:07.742Z</time>
      </trkpt>
      <trkpt lat="36.602289" lon="-6.125594">
        <ele>45.902493</ele>
        <time>2020-08-18T06:43:09.751Z</time>
      </trkpt>
      <trkpt lat="36.602203" lon="-6.125536">
        <ele>45.829852</ele>
        <time>2020-08-18T06:43:11.747Z</time>
      </trkpt>
      <trkpt lat="36.602121" lon="-6.125482">
        <ele>45.820113</ele>
        <time>2020-08-18T06:43:13.747Z</time>
      </trkpt>
      <trkpt lat="36.602030" lon="-6.125458">
        <ele>45.810347</ele>
        <time>2020-08-18T06:43:15.741Z</time>
      </trkpt>
      <trkpt lat="36.601947" lon="-6.125397">
        <ele>45.800228</ele>
        <time>2020-08-18T06:43:17.747Z</time>
      </trkpt>
      <trkpt lat="36.601873" lon="-6.125308">
        <ele>45.789428</ele>
        <time>2020-08-18T06:43:19.756Z</time>
      </trkpt>
      <trkpt lat="36.601781" lon="-6.125236">
        <ele>45.778020</ele>
        <time>2020-08-18T06:43:21.773Z</time>
      </trkpt>
      <trkpt lat="36.601657" lon="-6.125178">
        <ele>45.764113</ele>
        <time>2020-08-18T06:43:24.754Z</time>
      </trkpt>
      <trkpt lat="36.601570" lon="-6.125147">
        <ele>45.754612</ele>
        <time>2020-08-18T06:43:26.758Z</time>
      </trkpt>
      <trkpt lat="36.601475" lon="-6.125134">
        <ele>45.744577</ele>
        <time>2020-08-18T06:43:28.759Z</time>
      </trkpt>
      <trkpt lat="36.601366" lon="-6.125126">
        <ele>45.733112</ele>
        <time>2020-08-18T06:43:30.750Z</time>
      </trkpt>
      <trkpt lat="36.601265" lon="-6.125156">
        <ele>45.722210</ele>
        <time>2020-08-18T06:43:32.740Z</time>
      </trkpt>
      <trkpt lat="36.601152" lon="-6.125153">
        <ele>45.710343</ele>
        <time>2020-08-18T06:43:35.754Z</time>
      </trkpt>
      <trkpt lat="36.601009" lon="-6.125119">
        <ele>45.695058</ele>
        <time>2020-08-18T06:43:37.757Z</time>
      </trkpt>
      <trkpt lat="36.600885" lon="-6.125171">
        <ele>45.681320</ele>
        <time>2020-08-18T06:43:39.753Z</time>
      </trkpt>
      <trkpt lat="36.600792" lon="-6.125125">
        <ele>45.670814</ele>
        <time>2020-08-18T06:43:41.754Z</time>
      </trkpt>
      <trkpt lat="36.600667" lon="-6.125126">
        <ele>45.657689</ele>
        <time>2020-08-18T06:43:44.751Z</time>
      </trkpt>
      <trkpt lat="36.600570" lon="-6.125177">
        <ele>45.646634</ele>
        <time>2020-08-18T06:43:46.752Z</time>
      </trkpt>
      <trkpt lat="36.600424" lon="-6.125189">
        <ele>45.727176</ele>
        <time>2020-08-18T06:43:49.759Z</time>
      </trkpt>
      <trkpt lat="36.600281" lon="-6.125189">
        <ele>45.822156</ele>
        <time>2020-08-18T06:43:52.754Z</time>
      </trkpt>
      <trkpt lat="36.600147" lon="-6.125120">
        <ele>45.918463</ele>
        <time>2020-08-18T06:43:54.751Z</time>
      </trkpt>
      <trkpt lat="36.600048" lon="-6.125119">
        <ele>45.984221</ele>
        <time>2020-08-18T06:43:57.742Z</time>
      </trkpt>
      <trkpt lat="36.599945" lon="-6.125097">
        <ele>46.053631</ele>
        <time>2020-08-18T06:43:59.753Z</time>
      </trkpt>
      <trkpt lat="36.599836" lon="-6.125026">
        <ele>46.135330</ele>
        <time>2020-08-18T06:44:01.757Z</time>
      </trkpt>
      <trkpt lat="36.599739" lon="-6.125034">
        <ele>46.199898</ele>
        <time>2020-08-18T06:44:03.748Z</time>
      </trkpt>
      <trkpt lat="36.599592" lon="-6.124976">
        <ele>46.302316</ele>
        <time>2020-08-18T06:44:06.752Z</time>
      </trkpt>
      <trkpt lat="36.599450" lon="-6.124915">
        <ele>46.402083</ele>
        <time>2020-08-18T06:44:09.759Z</time>
      </trkpt>
      <trkpt lat="36.599307" lon="-6.124961">
        <ele>46.500179</ele>
        <time>2020-08-18T06:44:12.747Z</time>
      </trkpt>
      <trkpt lat="36.599202" lon="-6.124879">
        <ele>46.582493</ele>
        <time>2020-08-18T06:44:14.758Z</time>
      </trkpt>
      <trkpt lat="36.599092" lon="-6.124926">
        <ele>46.659733</ele>
        <time>2020-08-18T06:44:16.767Z</time>
      </trkpt>
      <trkpt lat="36.599001" lon="-6.124919">
        <ele>46.720290</ele>
        <time>2020-08-18T06:44:18.740Z</time>
      </trkpt>
      <trkpt lat="36.598899" lon="-6.125022">
        <ele>46.807505</ele>
        <time>2020-08-18T06:44:21.746Z</time>
      </trkpt>
      <trkpt lat="36.598778" lon="-6.125042">
        <ele>46.847838</ele>
        <time>2020-08-18T06:44:24.752Z</time>
      </trkpt>
      <trkpt lat="36.598678" lon="-6.125105">
        <ele>46.861092</ele>
        <time>2020-08-18T06:44:26.726Z</time>
      </trkpt>
      <trkpt lat="36.598581" lon="-6.125147">
        <ele>46.873238</ele>
        <time>2020-08-18T06:44:28.758Z</time>
      </trkpt>
      <trkpt lat="36.598473" lon="-6.125193">
        <ele>46.886738</ele>
        <time>2020-08-18T06:44:30.729Z</time>
      </trkpt>
      <trkpt lat="36.598342" lon="-6.125153">
        <ele>46.902691</ele>
        <time>2020-08-18T06:44:32.756Z</time>
      </trkpt>
      <trkpt lat="36.598231" lon="-6.125256">
        <ele>46.919062</ele>
        <time>2020-08-18T06:44:35.723Z</time>
      </trkpt>
      <trkpt lat="36.598237" lon="-6.125408">
        <ele>46.933513</ele>
        <time>2020-08-18T06:44:36.748Z</time>
      </trkpt>
      <trkpt lat="36.598119" lon="-6.125530">
        <ele>46.951650</ele>
        <time>2020-08-18T06:44:38.765Z</time>
      </trkpt>
      <trkpt lat="36.598005" lon="-6.125575">
        <ele>46.965794</ele>
        <time>2020-08-18T06:44:41.739Z</time>
      </trkpt>
      <trkpt lat="36.597910" lon="-6.125667">
        <ele>46.980027</ele>
        <time>2020-08-18T06:44:43.754Z</time>
      </trkpt>
      <trkpt lat="36.597802" lon="-6.125742">
        <ele>46.994652</ele>
        <time>2020-08-18T06:44:45.752Z</time>
      </trkpt>
      <trkpt lat="36.597727" lon="-6.125841">
        <ele>47.007577</ele>
        <time>2020-08-18T06:44:47.749Z</time>
      </trkpt>
      <trkpt lat="36.597559" lon="-6.125937">
        <ele>47.029438</ele>
        <time>2020-08-18T06:44:50.742Z</time>
      </trkpt>
      <trkpt lat="36.597465" lon="-6.126008">
        <ele>47.042440</ele>
        <time>2020-08-18T06:44:52.743Z</time>
      </trkpt>
      <trkpt lat="36.597360" lon="-6.126090">
        <ele>47.123509</ele>
        <time>2020-08-18T06:44:53.756Z</time>
      </trkpt>
      <trkpt lat="36.597269" lon="-6.126205">
        <ele>47.329067</ele>
        <time>2020-08-18T06:44:55.755Z</time>
      </trkpt>
      <trkpt lat="36.597160" lon="-6.126241">
        <ele>47.507877</ele>
        <time>2020-08-18T06:44:57.769Z</time>
      </trkpt>
      <trkpt lat="36.597039" lon="-6.126299">
        <ele>47.713459</ele>
        <time>2020-08-18T06:44:59.748Z</time>
      </trkpt>
      <trkpt lat="36.596892" lon="-6.126355">
        <ele>47.957209</ele>
        <time>2020-08-18T06:45:01.746Z</time>
      </trkpt>
      <trkpt lat="36.596750" lon="-6.126388">
        <ele>48.186258</ele>
        <time>2020-08-18T06:45:03.727Z</time>
      </trkpt>
      <trkpt lat="36.596601" lon="-6.126427">
        <ele>48.427682</ele>
        <time>2020-08-18T06:45:05.752Z</time>
      </trkpt>
      <trkpt lat="36.596473" lon="-6.126407">
        <ele>48.632237</ele>
        <time>2020-08-18T06:45:07.742Z</time>
      </trkpt>
      <trkpt lat="36.596333" lon="-6.126442">
        <ele>48.858657</ele>
        <time>2020-08-18T06:45:09.759Z</time>
      </trkpt>
      <trkpt lat="36.596207" lon="-6.126510">
        <ele>49.076398</ele>
        <time>2020-08-18T06:45:11.747Z</time>
      </trkpt>
      <trkpt lat="36.596074" lon="-6.126554">
        <ele>49.294603</ele>
        <time>2020-08-18T06:45:13.749Z</time>
      </trkpt>
      <trkpt lat="36.595953" lon="-6.126591">
        <ele>49.492165</ele>
        <time>2020-08-18T06:45:15.759Z</time>
      </trkpt>
      <trkpt lat="36.595831" lon="-6.126652">
        <ele>49.700621</ele>
        <time>2020-08-18T06:45:17.750Z</time>
      </trkpt>
      <trkpt lat="36.595687" lon="-6.126703">
        <ele>49.876197</ele>
        <time>2020-08-18T06:45:19.741Z</time>
      </trkpt>
      <trkpt lat="36.595548" lon="-6.126770">
        <ele>49.685715</ele>
        <time>2020-08-18T06:45:21.740Z</time>
      </trkpt>
      <trkpt lat="36.595404" lon="-6.126837">
        <ele>49.489261</ele>
        <time>2020-08-18T06:45:23.753Z</time>
      </trkpt>
      <trkpt lat="36.595311" lon="-6.126846">
        <ele>49.370048</ele>
        <time>2020-08-18T06:45:24.747Z</time>
      </trkpt>
      <trkpt lat="36.595182" lon="-6.126958">
        <ele>49.169084</ele>
        <time>2020-08-18T06:45:26.757Z</time>
      </trkpt>
      <trkpt lat="36.595067" lon="-6.127025">
        <ele>49.006830</ele>
        <time>2020-08-18T06:45:28.753Z</time>
      </trkpt>
      <trkpt lat="36.594948" lon="-6.127136">
        <ele>48.816827</ele>
        <time>2020-08-18T06:45:30.764Z</time>
      </trkpt>
      <trkpt lat="36.594841" lon="-6.127244">
        <ele>48.640815</ele>
        <time>2020-08-18T06:45:32.772Z</time>
      </trkpt>
      <trkpt lat="36.594703" lon="-6.127279">
        <ele>48.460831</ele>
        <time>2020-08-18T06:45:34.761Z</time>
      </trkpt>
      <trkpt lat="36.594574" lon="-6.127356">
        <ele>48.278014</ele>
        <time>2020-08-18T06:45:36.760Z</time>
      </trkpt>
      <trkpt lat="36.594448" lon="-6.127403">
        <ele>48.109918</ele>
        <time>2020-08-18T06:45:38.757Z</time>
      </trkpt>
      <trkpt lat="36.594305" lon="-6.127420">
        <ele>47.926333</ele>
        <time>2020-08-18T06:45:40.742Z</time>
      </trkpt>
      <trkpt lat="36.594147" lon="-6.127391">
        <ele>47.722226</ele>
        <time>2020-08-18T06:45:42.747Z</time>
      </trkpt>
      <trkpt lat="36.594008" lon="-6.127388">
        <ele>47.520824</ele>
        <time>2020-08-18T06:45:44.750Z</time>
      </trkpt>
      <trkpt lat="36.593865" lon="-6.127347">
        <ele>47.259779</ele>
        <time>2020-08-18T06:45:46.755Z</time>
      </trkpt>
      <trkpt lat="36.593742" lon="-6.127336">
        <ele>47.040402</ele>
        <time>2020-08-18T06:45:48.770Z</time>
      </trkpt>
      <trkpt lat="36.593601" lon="-6.127312">
        <ele>46.787236</ele>
        <time>2020-08-18T06:45:50.746Z</time>
      </trkpt>
      <trkpt lat="36.593455" lon="-6.127268">
        <ele>46.520012</ele>
        <time>2020-08-18T06:45:52.753Z</time>
      </trkpt>
      <trkpt lat="36.593329" lon="-6.127213">
        <ele>46.282495</ele>
        <time>2020-08-18T06:45:54.743Z</time>
      </trkpt>
      <trkpt lat="36.593208" lon="-6.127182">
        <ele>46.062733</ele>
        <time>2020-08-18T06:45:56.745Z</time>
      </trkpt>
      <trkpt lat="36.593095" lon="-6.127126">
        <ele>45.846381</ele>
        <time>2020-08-18T06:45:58.747Z</time>
      </trkpt>
      <trkpt lat="36.592993" lon="-6.127076">
        <ele>45.651379</ele>
        <time>2020-08-18T06:46:00.758Z</time>
      </trkpt>
      <trkpt lat="36.592882" lon="-6.126993">
        <ele>45.421060</ele>
        <time>2020-08-18T06:46:02.770Z</time>
      </trkpt>
      <trkpt lat="36.592763" lon="-6.126932">
        <ele>45.192134</ele>
        <time>2020-08-18T06:46:04.749Z</time>
      </trkpt>
      <trkpt lat="36.592663" lon="-6.126886">
        <ele>45.002492</ele>
        <time>2020-08-18T06:46:06.740Z</time>
      </trkpt>
      <trkpt lat="36.592549" lon="-6.126821">
        <ele>44.779449</ele>
        <time>2020-08-18T06:46:08.740Z</time>
      </trkpt>
      <trkpt lat="36.592442" lon="-6.126765">
        <ele>44.572977</ele>
        <time>2020-08-18T06:46:10.745Z</time>
      </trkpt>
      <trkpt lat="36.592330" lon="-6.126705">
        <ele>44.342143</ele>
        <time>2020-08-18T06:46:12.758Z</time>
      </trkpt>
      <trkpt lat="36.592220" lon="-6.126647">
        <ele>44.069539</ele>
        <time>2020-08-18T06:46:14.760Z</time>
      </trkpt>
      <trkpt lat="36.592123" lon="-6.126562">
        <ele>43.798871</ele>
        <time>2020-08-18T06:46:16.760Z</time>
      </trkpt>
      <trkpt lat="36.592045" lon="-6.126488">
        <ele>43.575104</ele>
        <time>2020-08-18T06:46:18.738Z</time>
      </trkpt>
      <trkpt lat="36.591943" lon="-6.126419">
        <ele>43.310207</ele>
        <time>2020-08-18T06:46:20.738Z</time>
      </trkpt>
      <trkpt lat="36.591839" lon="-6.126329">
        <ele>43.021197</ele>
        <time>2020-08-18T06:46:22.763Z</time>
      </trkpt>
      <trkpt lat="36.591724" lon="-6.126252">
        <ele>42.723231</ele>
        <time>2020-08-18T06:46:24.754Z</time>
      </trkpt>
      <trkpt lat="36.591642" lon="-6.126180">
        <ele>42.494266</ele>
        <time>2020-08-18T06:46:26.744Z</time>
      </trkpt>
      <trkpt lat="36.591543" lon="-6.126124">
        <ele>42.246125</ele>
        <time>2020-08-18T06:46:28.756Z</time>
      </trkpt>
      <trkpt lat="36.591444" lon="-6.126084">
        <ele>42.008602</ele>
        <time>2020-08-18T06:46:30.764Z</time>
      </trkpt>
      <trkpt lat="36.591354" lon="-6.126021">
        <ele>41.772993</ele>
        <time>2020-08-18T06:46:32.756Z</time>
      </trkpt>
      <trkpt lat="36.591253" lon="-6.125944">
        <ele>41.502743</ele>
        <time>2020-08-18T06:46:34.738Z</time>
      </trkpt>
      <trkpt lat="36.591165" lon="-6.125852">
        <ele>41.240541</ele>
        <time>2020-08-18T06:46:36.749Z</time>
      </trkpt>
      <trkpt lat="36.591066" lon="-6.125816">
        <ele>41.005176</ele>
        <time>2020-08-18T06:46:38.754Z</time>
      </trkpt>
      <trkpt lat="36.590954" lon="-6.125740">
        <ele>40.714102</ele>
        <time>2020-08-18T06:46:40.735Z</time>
      </trkpt>
      <trkpt lat="36.590839" lon="-6.125706">
        <ele>40.444363</ele>
        <time>2020-08-18T06:46:42.761Z</time>
      </trkpt>
      <trkpt lat="36.590745" lon="-6.125645">
        <ele>40.351268</ele>
        <time>2020-08-18T06:46:44.748Z</time>
      </trkpt>
      <trkpt lat="36.590640" lon="-6.125592">
        <ele>40.484688</ele>
        <time>2020-08-18T06:46:46.755Z</time>
      </trkpt>
      <trkpt lat="36.590540" lon="-6.125519">
        <ele>40.621188</ele>
        <time>2020-08-18T06:46:48.769Z</time>
      </trkpt>
      <trkpt lat="36.590440" lon="-6.125464">
        <ele>40.749923</ele>
        <time>2020-08-18T06:46:50.746Z</time>
      </trkpt>
      <trkpt lat="36.590339" lon="-6.125410">
        <ele>40.879359</ele>
        <time>2020-08-18T06:46:52.728Z</time>
      </trkpt>
      <trkpt lat="36.590222" lon="-6.125379">
        <ele>41.020225</ele>
        <time>2020-08-18T06:46:54.762Z</time>
      </trkpt>
      <trkpt lat="36.590129" lon="-6.125280">
        <ele>41.164298</ele>
        <time>2020-08-18T06:46:56.757Z</time>
      </trkpt>
      <trkpt lat="36.590009" lon="-6.125185">
        <ele>41.331745</ele>
        <time>2020-08-18T06:46:59.757Z</time>
      </trkpt>
      <trkpt lat="36.589909" lon="-6.125117">
        <ele>41.465917</ele>
        <time>2020-08-18T06:47:01.741Z</time>
      </trkpt>
      <trkpt lat="36.589804" lon="-6.125069">
        <ele>41.597635</ele>
        <time>2020-08-18T06:47:03.747Z</time>
      </trkpt>
      <trkpt lat="36.589687" lon="-6.125022">
        <ele>41.742407</ele>
        <time>2020-08-18T06:47:05.758Z</time>
      </trkpt>
      <trkpt lat="36.589574" lon="-6.124961">
        <ele>41.887441</ele>
        <time>2020-08-18T06:47:07.745Z</time>
      </trkpt>
      <trkpt lat="36.589456" lon="-6.124937">
        <ele>42.028241</ele>
        <time>2020-08-18T06:47:09.762Z</time>
      </trkpt>
      <trkpt lat="36.589360" lon="-6.124867">
        <ele>42.159244</ele>
        <time>2020-08-18T06:47:11.755Z</time>
      </trkpt>
      <trkpt lat="36.589263" lon="-6.124827">
        <ele>42.279572</ele>
        <time>2020-08-18T06:47:13.737Z</time>
      </trkpt>
      <trkpt lat="36.589190" lon="-6.124738">
        <ele>42.399873</ele>
        <time>2020-08-18T06:47:15.779Z</time>
      </trkpt>
      <trkpt lat="36.589117" lon="-6.124644">
        <ele>42.486182</ele>
        <time>2020-08-18T06:47:17.745Z</time>
      </trkpt>
      <trkpt lat="36.589003" lon="-6.124617">
        <ele>42.574131</ele>
        <time>2020-08-18T06:47:19.755Z</time>
      </trkpt>
      <trkpt lat="36.588893" lon="-6.124585">
        <ele>42.659743</ele>
        <time>2020-08-18T06:47:21.777Z</time>
      </trkpt>
      <trkpt lat="36.588760" lon="-6.124529">
        <ele>42.766148</ele>
        <time>2020-08-18T06:47:23.740Z</time>
      </trkpt>
      <trkpt lat="36.588654" lon="-6.124466">
        <ele>42.855164</ele>
        <time>2020-08-18T06:47:25.740Z</time>
      </trkpt>
      <trkpt lat="36.588550" lon="-6.124407">
        <ele>42.941777</ele>
        <time>2020-08-18T06:47:27.730Z</time>
      </trkpt>
      <trkpt lat="36.588471" lon="-6.124336">
        <ele>43.015613</ele>
        <time>2020-08-18T06:47:29.730Z</time>
      </trkpt>
      <trkpt lat="36.588376" lon="-6.124263">
        <ele>43.100215</ele>
        <time>2020-08-18T06:47:31.743Z</time>
      </trkpt>
      <trkpt lat="36.588265" lon="-6.124176">
        <ele>43.199614</ele>
        <time>2020-08-18T06:47:33.759Z</time>
      </trkpt>
      <trkpt lat="36.588146" lon="-6.124123">
        <ele>43.295398</ele>
        <time>2020-08-18T06:47:35.756Z</time>
      </trkpt>
      <trkpt lat="36.588051" lon="-6.124036">
        <ele>43.384768</ele>
        <time>2020-08-18T06:47:37.743Z</time>
      </trkpt>
      <trkpt lat="36.587970" lon="-6.123962">
        <ele>43.460903</ele>
        <time>2020-08-18T06:47:39.751Z</time>
      </trkpt>
      <trkpt lat="36.587876" lon="-6.123925">
        <ele>43.535619</ele>
        <time>2020-08-18T06:47:41.759Z</time>
      </trkpt>
      <trkpt lat="36.587752" lon="-6.123841">
        <ele>43.642601</ele>
        <time>2020-08-18T06:47:44.753Z</time>
      </trkpt>
      <trkpt lat="36.587646" lon="-6.123782">
        <ele>43.730596</ele>
        <time>2020-08-18T06:47:46.742Z</time>
      </trkpt>
      <trkpt lat="36.587554" lon="-6.123721">
        <ele>43.771482</ele>
        <time>2020-08-18T06:47:48.753Z</time>
      </trkpt>
      <trkpt lat="36.587424" lon="-6.123644">
        <ele>43.730243</ele>
        <time>2020-08-18T06:47:51.739Z</time>
      </trkpt>
      <trkpt lat="36.587321" lon="-6.123576">
        <ele>43.696847</ele>
        <time>2020-08-18T06:47:53.755Z</time>
      </trkpt>
      <trkpt lat="36.587233" lon="-6.123535">
        <ele>43.669931</ele>
        <time>2020-08-18T06:47:55.758Z</time>
      </trkpt>
      <trkpt lat="36.587115" lon="-6.123430">
        <ele>43.628386</ele>
        <time>2020-08-18T06:47:58.744Z</time>
      </trkpt>
      <trkpt lat="36.587023" lon="-6.123396">
        <ele>43.600894</ele>
        <time>2020-08-18T06:48:00.759Z</time>
      </trkpt>
      <trkpt lat="36.586875" lon="-6.123399">
        <ele>43.558491</ele>
        <time>2020-08-18T06:48:03.751Z</time>
      </trkpt>
      <trkpt lat="36.586782" lon="-6.123342">
        <ele>43.528797</ele>
        <time>2020-08-18T06:48:05.751Z</time>
      </trkpt>
      <trkpt lat="36.586679" lon="-6.123271">
        <ele>43.495072</ele>
        <time>2020-08-18T06:48:07.759Z</time>
      </trkpt>
      <trkpt lat="36.586573" lon="-6.123229">
        <ele>43.463206</ele>
        <time>2020-08-18T06:48:09.757Z</time>
      </trkpt>
      <trkpt lat="36.586478" lon="-6.123157">
        <ele>43.431348</ele>
        <time>2020-08-18T06:48:11.778Z</time>
      </trkpt>
      <trkpt lat="36.586364" lon="-6.123121">
        <ele>43.397657</ele>
        <time>2020-08-18T06:48:13.749Z</time>
      </trkpt>
      <trkpt lat="36.586257" lon="-6.123000">
        <ele>43.356253</ele>
        <time>2020-08-18T06:48:16.749Z</time>
      </trkpt>
      <trkpt lat="36.586105" lon="-6.122978">
        <ele>43.312416</ele>
        <time>2020-08-18T06:48:18.761Z</time>
      </trkpt>
      <trkpt lat="36.586021" lon="-6.122869">
        <ele>43.277664</ele>
        <time>2020-08-18T06:48:20.755Z</time>
      </trkpt>
      <trkpt lat="36.585915" lon="-6.122789">
        <ele>43.243489</ele>
        <time>2020-08-18T06:48:22.758Z</time>
      </trkpt>
      <trkpt lat="36.585818" lon="-6.122734">
        <ele>43.214616</ele>
        <time>2020-08-18T06:48:24.750Z</time>
      </trkpt>
      <trkpt lat="36.585727" lon="-6.122653">
        <ele>43.184314</ele>
        <time>2020-08-18T06:48:26.755Z</time>
      </trkpt>
      <trkpt lat="36.585627" lon="-6.122603">
        <ele>43.155121</ele>
        <time>2020-08-18T06:48:28.776Z</time>
      </trkpt>
      <trkpt lat="36.585518" lon="-6.122497">
        <ele>43.117656</ele>
        <time>2020-08-18T06:48:30.758Z</time>
      </trkpt>
      <trkpt lat="36.585437" lon="-6.122425">
        <ele>43.090696</ele>
        <time>2020-08-18T06:48:32.752Z</time>
      </trkpt>
      <trkpt lat="36.585369" lon="-6.122300">
        <ele>43.057852</ele>
        <time>2020-08-18T06:48:34.751Z</time>
      </trkpt>
      <trkpt lat="36.585272" lon="-6.122237">
        <ele>43.028216</ele>
        <time>2020-08-18T06:48:36.742Z</time>
      </trkpt>
      <trkpt lat="36.585177" lon="-6.122169">
        <ele>42.998531</ele>
        <time>2020-08-18T06:48:38.754Z</time>
      </trkpt>
      <trkpt lat="36.585084" lon="-6.122047">
        <ele>42.961938</ele>
        <time>2020-08-18T06:48:40.765Z</time>
      </trkpt>
      <trkpt lat="36.585010" lon="-6.121948">
        <ele>42.932516</ele>
        <time>2020-08-18T06:48:42.748Z</time>
      </trkpt>
      <trkpt lat="36.584898" lon="-6.121898">
        <ele>42.900283</ele>
        <time>2020-08-18T06:48:44.751Z</time>
      </trkpt>
      <trkpt lat="36.584803" lon="-6.121798">
        <ele>42.866585</ele>
        <time>2020-08-18T06:48:47.752Z</time>
      </trkpt>
      <trkpt lat="36.584720" lon="-6.121730">
        <ele>42.839671</ele>
        <time>2020-08-18T06:48:49.756Z</time>
      </trkpt>
      <trkpt lat="36.584626" lon="-6.121630">
        <ele>42.806179</ele>
        <time>2020-08-18T06:48:51.753Z</time>
      </trkpt>
      <trkpt lat="36.584536" lon="-6.121554">
        <ele>42.778960</ele>
        <time>2020-08-18T06:48:53.752Z</time>
      </trkpt>
      <trkpt lat="36.584460" lon="-6.121456">
        <ele>42.774028</ele>
        <time>2020-08-18T06:48:56.757Z</time>
      </trkpt>
      <trkpt lat="36.584363" lon="-6.121386">
        <ele>42.768974</ele>
        <time>2020-08-18T06:48:58.762Z</time>
      </trkpt>
      <trkpt lat="36.584268" lon="-6.121308">
        <ele>42.763844</ele>
        <time>2020-08-18T06:49:00.753Z</time>
      </trkpt>
      <trkpt lat="36.584175" lon="-6.121222">
        <ele>42.758622</ele>
        <time>2020-08-18T06:49:02.756Z</time>
      </trkpt>
      <trkpt lat="36.584091" lon="-6.121169">
        <ele>42.754377</ele>
        <time>2020-08-18T06:49:04.771Z</time>
      </trkpt>
      <trkpt lat="36.584002" lon="-6.121085">
        <ele>42.749343</ele>
        <time>2020-08-18T06:49:06.719Z</time>
      </trkpt>
      <trkpt lat="36.583917" lon="-6.121032">
        <ele>42.745057</ele>
        <time>2020-08-18T06:49:08.757Z</time>
      </trkpt>
      <trkpt lat="36.583838" lon="-6.120952">
        <ele>42.740467</ele>
        <time>2020-08-18T06:49:11.744Z</time>
      </trkpt>
      <trkpt lat="36.583767" lon="-6.120873">
        <ele>42.736175</ele>
        <time>2020-08-18T06:49:13.762Z</time>
      </trkpt>
      <trkpt lat="36.583683" lon="-6.120802">
        <ele>42.731598</ele>
        <time>2020-08-18T06:49:15.753Z</time>
      </trkpt>
      <trkpt lat="36.583604" lon="-6.120731">
        <ele>42.727206</ele>
        <time>2020-08-18T06:49:17.758Z</time>
      </trkpt>
      <trkpt lat="36.583552" lon="-6.120631">
        <ele>42.722893</ele>
        <time>2020-08-18T06:49:19.752Z</time>
      </trkpt>
      <trkpt lat="36.583439" lon="-6.120570">
        <ele>42.717341</ele>
        <time>2020-08-18T06:49:22.746Z</time>
      </trkpt>
      <trkpt lat="36.583351" lon="-6.120520">
        <ele>42.712981</ele>
        <time>2020-08-18T06:49:24.750Z</time>
      </trkpt>
      <trkpt lat="36.583248" lon="-6.120424">
        <ele>42.707181</ele>
        <time>2020-08-18T06:49:27.756Z</time>
      </trkpt>
      <trkpt lat="36.583153" lon="-6.120358">
        <ele>42.702277</ele>
        <time>2020-08-18T06:49:29.754Z</time>
      </trkpt>
      <trkpt lat="36.583056" lon="-6.120274">
        <ele>42.735525</ele>
        <time>2020-08-18T06:49:31.755Z</time>
      </trkpt>
      <trkpt lat="36.582963" lon="-6.120201">
        <ele>42.870015</ele>
        <time>2020-08-18T06:49:33.750Z</time>
      </trkpt>
      <trkpt lat="36.582863" lon="-6.120120">
        <ele>43.015955</ele>
        <time>2020-08-18T06:49:35.751Z</time>
      </trkpt>
      <trkpt lat="36.582754" lon="-6.120032">
        <ele>43.174875</ele>
        <time>2020-08-18T06:49:37.749Z</time>
      </trkpt>
      <trkpt lat="36.582602" lon="-6.119946">
        <ele>43.379123</ele>
        <time>2020-08-18T06:49:39.767Z</time>
      </trkpt>
      <trkpt lat="36.582452" lon="-6.119933">
        <ele>43.563075</ele>
        <time>2020-08-18T06:49:43.763Z</time>
      </trkpt>
      <trkpt lat="36.582337" lon="-6.119894">
        <ele>43.708888</ele>
        <time>2020-08-18T06:49:45.748Z</time>
      </trkpt>
      <trkpt lat="36.582237" lon="-6.119792">
        <ele>43.867026</ele>
        <time>2020-08-18T06:49:47.751Z</time>
      </trkpt>
      <trkpt lat="36.582150" lon="-6.119733">
        <ele>43.988219</ele>
        <time>2020-08-18T06:49:49.755Z</time>
      </trkpt>
      <trkpt lat="36.582018" lon="-6.119641">
        <ele>44.173278</ele>
        <time>2020-08-18T06:49:52.753Z</time>
      </trkpt>
      <trkpt lat="36.581922" lon="-6.119546">
        <ele>44.323289</ele>
        <time>2020-08-18T06:49:54.760Z</time>
      </trkpt>
      <trkpt lat="36.581811" lon="-6.119511">
        <ele>44.463370</ele>
        <time>2020-08-18T06:49:56.751Z</time>
      </trkpt>
      <trkpt lat="36.581661" lon="-6.119389">
        <ele>44.682550</ele>
        <time>2020-08-18T06:49:58.751Z</time>
      </trkpt>
      <trkpt lat="36.581613" lon="-6.119261">
        <ele>44.821332</ele>
        <time>2020-08-18T06:50:00.756Z</time>
      </trkpt>
      <trkpt lat="36.581527" lon="-6.119169">
        <ele>44.914103</ele>
        <time>2020-08-18T06:50:02.755Z</time>
      </trkpt>
      <trkpt lat="36.581455" lon="-6.119098">
        <ele>44.942232</ele>
        <time>2020-08-18T06:50:04.757Z</time>
      </trkpt>
      <trkpt lat="36.581319" lon="-6.119058">
        <ele>44.985034</ele>
        <time>2020-08-18T06:50:07.746Z</time>
      </trkpt>
      <trkpt lat="36.581219" lon="-6.119015">
        <ele>45.017437</ele>
        <time>2020-08-18T06:50:09.760Z</time>
      </trkpt>
      <trkpt lat="36.581102" lon="-6.118989">
        <ele>45.053839</ele>
        <time>2020-08-18T06:50:12.757Z</time>
      </trkpt>
      <trkpt lat="36.580970" lon="-6.118899">
        <ele>45.099932</ele>
        <time>2020-08-18T06:50:15.758Z</time>
      </trkpt>
      <trkpt lat="36.580852" lon="-6.118880">
        <ele>45.136375</ele>
        <time>2020-08-18T06:50:17.755Z</time>
      </trkpt>
      <trkpt lat="36.580762" lon="-6.118830">
        <ele>45.166559</ele>
        <time>2020-08-18T06:50:19.758Z</time>
      </trkpt>
      <trkpt lat="36.580648" lon="-6.118800">
        <ele>45.202247</ele>
        <time>2020-08-18T06:50:21.756Z</time>
      </trkpt>
      <trkpt lat="36.580549" lon="-6.118713">
        <ele>45.239360</ele>
        <time>2020-08-18T06:50:23.749Z</time>
      </trkpt>
      <trkpt lat="36.580452" lon="-6.118639">
        <ele>45.274202</ele>
        <time>2020-08-18T06:50:25.750Z</time>
      </trkpt>
      <trkpt lat="36.580340" lon="-6.118644">
        <ele>45.308528</ele>
        <time>2020-08-18T06:50:27.756Z</time>
      </trkpt>
      <trkpt lat="36.580244" lon="-6.118632">
        <ele>45.338079</ele>
        <time>2020-08-18T06:50:28.760Z</time>
      </trkpt>
      <trkpt lat="36.580138" lon="-6.118547">
        <ele>45.376695</ele>
        <time>2020-08-18T06:50:30.749Z</time>
      </trkpt>
      <trkpt lat="36.580105" lon="-6.118417">
        <ele>45.410229</ele>
        <time>2020-08-18T06:50:31.763Z</time>
      </trkpt>
      <trkpt lat="36.580030" lon="-6.118280">
        <ele>45.449925</ele>
        <time>2020-08-18T06:50:33.754Z</time>
      </trkpt>
      <trkpt lat="36.579973" lon="-6.118173">
        <ele>45.456000</ele>
        <time>2020-08-18T06:50:35.766Z</time>
      </trkpt>
      <trkpt lat="36.579933" lon="-6.118060">
        <ele>45.461843</ele>
        <time>2020-08-18T06:50:37.769Z</time>
      </trkpt>
      <trkpt lat="36.579815" lon="-6.118052">
        <ele>45.468806</ele>
        <time>2020-08-18T06:50:39.760Z</time>
      </trkpt>
      <trkpt lat="36.579847" lon="-6.117894">
        <ele>45.476516</ele>
        <time>2020-08-18T06:50:41.749Z</time>
      </trkpt>
      <trkpt lat="36.579745" lon="-6.117818">
        <ele>45.483519</ele>
        <time>2020-08-18T06:50:43.763Z</time>
      </trkpt>
      <trkpt lat="36.579639" lon="-6.117793">
        <ele>45.489876</ele>
        <time>2020-08-18T06:50:45.740Z</time>
      </trkpt>
      <trkpt lat="36.579523" lon="-6.117737">
        <ele>45.497206</ele>
        <time>2020-08-18T06:50:47.751Z</time>
      </trkpt>
      <trkpt lat="36.579397" lon="-6.117782">
        <ele>45.504929</ele>
        <time>2020-08-18T06:50:49.736Z</time>
      </trkpt>
      <trkpt lat="36.579340" lon="-6.117614">
        <ele>45.513558</ele>
        <time>2020-08-18T06:50:51.766Z</time>
      </trkpt>
      <trkpt lat="36.579344" lon="-6.117485">
        <ele>45.519666</ele>
        <time>2020-08-18T06:50:52.732Z</time>
      </trkpt>
      <trkpt lat="36.579235" lon="-6.117411">
        <ele>45.526981</ele>
        <time>2020-08-18T06:50:54.756Z</time>
      </trkpt>
      <trkpt lat="36.579167" lon="-6.117272">
        <ele>45.534682</ele>
        <time>2020-08-18T06:50:56.753Z</time>
      </trkpt>
      <trkpt lat="36.579084" lon="-6.117194">
        <ele>45.540809</ele>
        <time>2020-08-18T06:50:58.756Z</time>
      </trkpt>
      <trkpt lat="36.578982" lon="-6.117121">
        <ele>45.547741</ele>
        <time>2020-08-18T06:51:00.764Z</time>
      </trkpt>
      <trkpt lat="36.578895" lon="-6.116986">
        <ele>45.556160</ele>
        <time>2020-08-18T06:51:02.760Z</time>
      </trkpt>
      <trkpt lat="36.578828" lon="-6.116892">
        <ele>45.566832</ele>
        <time>2020-08-18T06:51:04.756Z</time>
      </trkpt>
      <trkpt lat="36.578740" lon="-6.116842">
        <ele>45.577059</ele>
        <time>2020-08-18T06:51:06.766Z</time>
      </trkpt>
      <trkpt lat="36.578596" lon="-6.116845">
        <ele>45.592288</ele>
        <time>2020-08-18T06:51:08.755Z</time>
      </trkpt>
      <trkpt lat="36.578504" lon="-6.116824">
        <ele>45.602178</ele>
        <time>2020-08-18T06:51:09.754Z</time>
      </trkpt>
      <trkpt lat="36.578405" lon="-6.116709">
        <ele>45.616493</ele>
        <time>2020-08-18T06:51:11.758Z</time>
      </trkpt>
      <trkpt lat="36.578279" lon="-6.116645">
        <ele>45.630882</ele>
        <time>2020-08-18T06:51:12.757Z</time>
      </trkpt>
      <trkpt lat="36.578205" lon="-6.116566">
        <ele>45.641188</ele>
        <time>2020-08-18T06:51:14.758Z</time>
      </trkpt>
      <trkpt lat="36.578097" lon="-6.116556">
        <ele>45.652639</ele>
        <time>2020-08-18T06:51:16.751Z</time>
      </trkpt>
      <trkpt lat="36.577992" lon="-6.116463">
        <ele>45.666263</ele>
        <time>2020-08-18T06:51:18.756Z</time>
      </trkpt>
      <trkpt lat="36.577893" lon="-6.116415">
        <ele>45.677497</ele>
        <time>2020-08-18T06:51:20.750Z</time>
      </trkpt>
      <trkpt lat="36.577805" lon="-6.116333">
        <ele>45.689118</ele>
        <time>2020-08-18T06:51:25.747Z</time>
      </trkpt>
      <trkpt lat="36.577724" lon="-6.116231">
        <ele>45.701299</ele>
        <time>2020-08-18T06:51:27.753Z</time>
      </trkpt>
      <trkpt lat="36.577646" lon="-6.116159">
        <ele>45.711565</ele>
        <time>2020-08-18T06:51:29.760Z</time>
      </trkpt>
      <trkpt lat="36.577540" lon="-6.116135">
        <ele>45.722957</ele>
        <time>2020-08-18T06:51:31.753Z</time>
      </trkpt>
      <trkpt lat="36.577450" lon="-6.116013">
        <ele>45.737024</ele>
        <time>2020-08-18T06:51:33.759Z</time>
      </trkpt>
      <trkpt lat="36.577339" lon="-6.115879">
        <ele>45.751506</ele>
        <time>2020-08-18T06:51:35.758Z</time>
      </trkpt>
      <trkpt lat="36.576518" lon="-6.115079">
        <ele>45.834492</ele>
        <time>2020-08-18T06:51:53.788Z</time>
      </trkpt>
      <trkpt lat="36.576461" lon="-6.114941">
        <ele>45.844413</ele>
        <time>2020-08-18T06:51:56.747Z</time>
      </trkpt>
      <trkpt lat="36.576366" lon="-6.114887">
        <ele>45.852726</ele>
        <time>2020-08-18T06:51:58.737Z</time>
      </trkpt>
      <trkpt lat="36.576236" lon="-6.114846">
        <ele>45.863401</ele>
        <time>2020-08-18T06:52:01.763Z</time>
      </trkpt>
      <trkpt lat="36.576128" lon="-6.114734">
        <ele>45.874589</ele>
        <time>2020-08-18T06:52:04.754Z</time>
      </trkpt>
      <trkpt lat="36.576008" lon="-6.114627">
        <ele>45.886338</ele>
        <time>2020-08-18T06:52:07.757Z</time>
      </trkpt>
      <trkpt lat="36.575863" lon="-6.114617">
        <ele>45.871793</ele>
        <time>2020-08-18T06:52:09.757Z</time>
      </trkpt>
      <trkpt lat="36.575784" lon="-6.114456">
        <ele>45.848450</ele>
        <time>2020-08-18T06:52:11.757Z</time>
      </trkpt>
      <trkpt lat="36.575766" lon="-6.114293">
        <ele>45.828094</ele>
        <time>2020-08-18T06:52:13.765Z</time>
      </trkpt>
      <trkpt lat="36.575634" lon="-6.114209">
        <ele>45.805256</ele>
        <time>2020-08-18T06:52:15.775Z</time>
      </trkpt>
      <trkpt lat="36.575514" lon="-6.114064">
        <ele>45.779495</ele>
        <time>2020-08-18T06:52:17.761Z</time>
      </trkpt>
      <trkpt lat="36.575471" lon="-6.113936">
        <ele>45.762329</ele>
        <time>2020-08-18T06:52:19.762Z</time>
      </trkpt>
      <trkpt lat="36.575378" lon="-6.113833">
        <ele>45.743155</ele>
        <time>2020-08-18T06:52:21.768Z</time>
      </trkpt>
      <trkpt lat="36.575266" lon="-6.113728">
        <ele>45.721556</ele>
        <time>2020-08-18T06:52:23.757Z</time>
      </trkpt>
      <trkpt lat="36.575261" lon="-6.113611">
        <ele>45.707060</ele>
        <time>2020-08-18T06:52:25.746Z</time>
      </trkpt>
      <trkpt lat="36.575191" lon="-6.113514">
        <ele>45.690926</ele>
        <time>2020-08-18T06:52:27.747Z</time>
      </trkpt>
      <trkpt lat="36.575112" lon="-6.113453">
        <ele>45.676605</ele>
        <time>2020-08-18T06:52:29.742Z</time>
      </trkpt>
      <trkpt lat="36.574973" lon="-6.113405">
        <ele>45.654382</ele>
        <time>2020-08-18T06:52:31.752Z</time>
      </trkpt>
      <trkpt lat="36.574862" lon="-6.113314">
        <ele>45.633908</ele>
        <time>2020-08-18T06:52:33.750Z</time>
      </trkpt>
      <trkpt lat="36.574763" lon="-6.113219">
        <ele>45.614653</ele>
        <time>2020-08-18T06:52:35.741Z</time>
      </trkpt>
      <trkpt lat="36.574686" lon="-6.113075">
        <ele>45.839481</ele>
        <time>2020-08-18T06:52:38.742Z</time>
      </trkpt>
      <trkpt lat="36.574610" lon="-6.112963">
        <ele>46.060766</ele>
        <time>2020-08-18T06:52:40.744Z</time>
      </trkpt>
      <trkpt lat="36.574536" lon="-6.112848">
        <ele>46.283160</ele>
        <time>2020-08-18T06:52:42.759Z</time>
      </trkpt>
      <trkpt lat="36.574464" lon="-6.112737">
        <ele>46.498494</ele>
        <time>2020-08-18T06:52:44.757Z</time>
      </trkpt>
      <trkpt lat="36.574403" lon="-6.112643">
        <ele>46.680882</ele>
        <time>2020-08-18T06:52:46.764Z</time>
      </trkpt>
      <trkpt lat="36.574333" lon="-6.112552">
        <ele>46.871052</ele>
        <time>2020-08-18T06:52:48.759Z</time>
      </trkpt>
      <trkpt lat="36.574276" lon="-6.112462">
        <ele>47.044032</ele>
        <time>2020-08-18T06:52:50.738Z</time>
      </trkpt>
      <trkpt lat="36.574209" lon="-6.112359">
        <ele>47.244071</ele>
        <time>2020-08-18T06:52:52.762Z</time>
      </trkpt>
      <trkpt lat="36.574107" lon="-6.112281">
        <ele>47.469010</ele>
        <time>2020-08-18T06:52:54.762Z</time>
      </trkpt>
      <trkpt lat="36.574017" lon="-6.112212">
        <ele>47.667626</ele>
        <time>2020-08-18T06:52:56.761Z</time>
      </trkpt>
      <trkpt lat="36.573938" lon="-6.112145">
        <ele>47.847248</ele>
        <time>2020-08-18T06:52:58.746Z</time>
      </trkpt>
      <trkpt lat="36.573874" lon="-6.112044">
        <ele>48.041409</ele>
        <time>2020-08-18T06:53:00.756Z</time>
      </trkpt>
      <trkpt lat="36.573796" lon="-6.111971">
        <ele>48.224774</ele>
        <time>2020-08-18T06:53:02.757Z</time>
      </trkpt>
      <trkpt lat="36.573722" lon="-6.111855">
        <ele>48.448349</ele>
        <time>2020-08-18T06:53:04.753Z</time>
      </trkpt>
      <trkpt lat="36.573652" lon="-6.111762">
        <ele>48.640711</ele>
        <time>2020-08-18T06:53:06.725Z</time>
      </trkpt>
      <trkpt lat="36.573575" lon="-6.111660">
        <ele>48.851979</ele>
        <time>2020-08-18T06:53:08.739Z</time>
      </trkpt>
      <trkpt lat="36.573495" lon="-6.111594">
        <ele>49.002445</ele>
        <time>2020-08-18T06:53:10.756Z</time>
      </trkpt>
      <trkpt lat="36.573415" lon="-6.111524">
        <ele>49.050256</ele>
        <time>2020-08-18T06:53:12.756Z</time>
      </trkpt>
      <trkpt lat="36.573334" lon="-6.111441">
        <ele>49.101551</ele>
        <time>2020-08-18T06:53:14.736Z</time>
      </trkpt>
      <trkpt lat="36.573238" lon="-6.111341">
        <ele>49.162753</ele>
        <time>2020-08-18T06:53:16.743Z</time>
      </trkpt>
      <trkpt lat="36.573130" lon="-6.111278">
        <ele>49.221072</ele>
        <time>2020-08-18T06:53:18.760Z</time>
      </trkpt>
      <trkpt lat="36.573022" lon="-6.111201">
        <ele>49.281926</ele>
        <time>2020-08-18T06:53:20.758Z</time>
      </trkpt>
      <trkpt lat="36.572929" lon="-6.111193">
        <ele>49.327510</ele>
        <time>2020-08-18T06:53:22.751Z</time>
      </trkpt>
      <trkpt lat="36.572818" lon="-6.111161">
        <ele>49.383223</ele>
        <time>2020-08-18T06:53:24.752Z</time>
      </trkpt>
      <trkpt lat="36.572716" lon="-6.111096">
        <ele>49.439252</ele>
        <time>2020-08-18T06:53:26.748Z</time>
      </trkpt>
      <trkpt lat="36.572590" lon="-6.111046">
        <ele>49.503917</ele>
        <time>2020-08-18T06:53:28.762Z</time>
      </trkpt>
      <trkpt lat="36.572492" lon="-6.110971">
        <ele>49.560165</ele>
        <time>2020-08-18T06:53:30.753Z</time>
      </trkpt>
      <trkpt lat="36.572355" lon="-6.110915">
        <ele>49.630674</ele>
        <time>2020-08-18T06:53:32.743Z</time>
      </trkpt>
      <trkpt lat="36.572234" lon="-6.110832">
        <ele>49.698225</ele>
        <time>2020-08-18T06:53:35.747Z</time>
      </trkpt>
      <trkpt lat="36.572120" lon="-6.110781">
        <ele>49.757458</ele>
        <time>2020-08-18T06:53:37.750Z</time>
      </trkpt>
      <trkpt lat="36.572006" lon="-6.110718">
        <ele>49.818446</ele>
        <time>2020-08-18T06:53:39.742Z</time>
      </trkpt>
      <trkpt lat="36.571911" lon="-6.110650">
        <ele>49.871184</ele>
        <time>2020-08-18T06:53:41.757Z</time>
      </trkpt>
      <trkpt lat="36.571799" lon="-6.110584">
        <ele>49.843901</ele>
        <time>2020-08-18T06:53:43.747Z</time>
      </trkpt>
      <trkpt lat="36.571679" lon="-6.110491">
        <ele>49.812778</ele>
        <time>2020-08-18T06:53:45.762Z</time>
      </trkpt>
      <trkpt lat="36.571582" lon="-6.110420">
        <ele>49.788002</ele>
        <time>2020-08-18T06:53:47.755Z</time>
      </trkpt>
      <trkpt lat="36.571488" lon="-6.110389">
        <ele>49.766590</ele>
        <time>2020-08-18T06:53:49.762Z</time>
      </trkpt>
      <trkpt lat="36.571375" lon="-6.110343">
        <ele>49.740413</ele>
        <time>2020-08-18T06:53:51.750Z</time>
      </trkpt>
      <trkpt lat="36.571255" lon="-6.110287">
        <ele>49.712195</ele>
        <time>2020-08-18T06:53:53.756Z</time>
      </trkpt>
      <trkpt lat="36.571136" lon="-6.110255">
        <ele>49.685388</ele>
        <time>2020-08-18T06:53:55.736Z</time>
      </trkpt>
      <trkpt lat="36.571041" lon="-6.110198">
        <ele>49.662168</ele>
        <time>2020-08-18T06:53:57.754Z</time>
      </trkpt>
      <trkpt lat="36.570945" lon="-6.110140">
        <ele>49.638673</ele>
        <time>2020-08-18T06:53:59.752Z</time>
      </trkpt>
      <trkpt lat="36.570836" lon="-6.110073">
        <ele>49.611907</ele>
        <time>2020-08-18T06:54:01.737Z</time>
      </trkpt>
      <trkpt lat="36.570743" lon="-6.110005">
        <ele>49.588159</ele>
        <time>2020-08-18T06:54:03.745Z</time>
      </trkpt>
      <trkpt lat="36.570659" lon="-6.109956">
        <ele>49.567734</ele>
        <time>2020-08-18T06:54:05.743Z</time>
      </trkpt>
      <trkpt lat="36.570554" lon="-6.109913">
        <ele>49.543396</ele>
        <time>2020-08-18T06:54:07.738Z</time>
      </trkpt>
      <trkpt lat="36.570444" lon="-6.109861">
        <ele>49.517488</ele>
        <time>2020-08-18T06:54:09.745Z</time>
      </trkpt>
      <trkpt lat="36.570337" lon="-6.109824">
        <ele>49.493035</ele>
        <time>2020-08-18T06:54:11.760Z</time>
      </trkpt>
      <trkpt lat="36.570236" lon="-6.109789">
        <ele>49.438964</ele>
        <time>2020-08-18T06:54:13.755Z</time>
      </trkpt>
      <trkpt lat="36.570138" lon="-6.109800">
        <ele>49.294108</ele>
        <time>2020-08-18T06:54:15.777Z</time>
      </trkpt>
      <trkpt lat="36.570040" lon="-6.109798">
        <ele>49.149817</ele>
        <time>2020-08-18T06:54:17.758Z</time>
      </trkpt>
      <trkpt lat="36.569932" lon="-6.109787">
        <ele>48.990294</ele>
        <time>2020-08-18T06:54:19.759Z</time>
      </trkpt>
      <trkpt lat="36.569833" lon="-6.109800">
        <ele>48.843742</ele>
        <time>2020-08-18T06:54:21.752Z</time>
      </trkpt>
      <trkpt lat="36.569727" lon="-6.109840">
        <ele>48.680685</ele>
        <time>2020-08-18T06:54:23.740Z</time>
      </trkpt>
      <trkpt lat="36.569626" lon="-6.109880">
        <ele>48.524657</ele>
        <time>2020-08-18T06:54:25.756Z</time>
      </trkpt>
      <trkpt lat="36.569526" lon="-6.109914">
        <ele>48.372052</ele>
        <time>2020-08-18T06:54:27.758Z</time>
      </trkpt>
      <trkpt lat="36.569409" lon="-6.109937">
        <ele>48.197676</ele>
        <time>2020-08-18T06:54:30.750Z</time>
      </trkpt>
      <trkpt lat="36.569360" lon="-6.109838">
        <ele>48.060182</ele>
        <time>2020-08-18T06:54:49.732Z</time>
      </trkpt>
      <trkpt lat="36.569301" lon="-6.109730">
        <ele>47.905749</ele>
        <time>2020-08-18T06:54:54.750Z</time>
      </trkpt>
      <trkpt lat="36.569251" lon="-6.109624">
        <ele>47.760404</ele>
        <time>2020-08-18T06:54:58.756Z</time>
      </trkpt>
      <trkpt lat="36.569170" lon="-6.109555">
        <ele>47.615922</ele>
        <time>2020-08-18T06:55:01.745Z</time>
      </trkpt>
      <trkpt lat="36.569068" lon="-6.109308">
        <ele>47.287541</ele>
        <time>2020-08-18T06:55:03.778Z</time>
      </trkpt>
      <trkpt lat="36.569013" lon="-6.109175">
        <ele>47.110668</ele>
        <time>2020-08-18T06:55:16.751Z</time>
      </trkpt>
      <trkpt lat="36.568934" lon="-6.109089">
        <ele>46.956185</ele>
        <time>2020-08-18T06:55:17.752Z</time>
      </trkpt>
      <trkpt lat="36.568883" lon="-6.108951">
        <ele>46.855059</ele>
        <time>2020-08-18T06:55:19.739Z</time>
      </trkpt>
      <trkpt lat="36.568820" lon="-6.108847">
        <ele>46.938312</ele>
        <time>2020-08-18T06:55:24.755Z</time>
      </trkpt>
      <trkpt lat="36.568765" lon="-6.108747">
        <ele>47.015773</ele>
        <time>2020-08-18T06:55:26.762Z</time>
      </trkpt>
      <trkpt lat="36.568700" lon="-6.108639">
        <ele>47.102026</ele>
        <time>2020-08-18T06:55:27.762Z</time>
      </trkpt>
      <trkpt lat="36.568583" lon="-6.108375">
        <ele>47.294734</ele>
        <time>2020-08-18T06:55:28.754Z</time>
      </trkpt>
      <trkpt lat="36.568508" lon="-6.108243">
        <ele>47.398073</ele>
        <time>2020-08-18T06:55:37.759Z</time>
      </trkpt>
      <trkpt lat="36.568491" lon="-6.108035">
        <ele>47.531695</ele>
        <time>2020-08-18T06:55:39.744Z</time>
      </trkpt>
      <trkpt lat="36.568416" lon="-6.107916">
        <ele>47.628370</ele>
        <time>2020-08-18T06:55:43.779Z</time>
      </trkpt>
      <trkpt lat="36.568359" lon="-6.107802">
        <ele>47.714194</ele>
        <time>2020-08-18T06:55:45.775Z</time>
      </trkpt>
      <trkpt lat="36.568296" lon="-6.107649">
        <ele>47.824080</ele>
        <time>2020-08-18T06:55:47.767Z</time>
      </trkpt>
      <trkpt lat="36.568222" lon="-6.107518">
        <ele>47.926439</ele>
        <time>2020-08-18T06:55:49.762Z</time>
      </trkpt>
      <trkpt lat="36.568147" lon="-6.107345">
        <ele>48.052085</ele>
        <time>2020-08-18T06:55:51.757Z</time>
      </trkpt>
      <trkpt lat="36.568028" lon="-6.107142">
        <ele>48.212707</ele>
        <time>2020-08-18T06:55:52.750Z</time>
      </trkpt>
      <trkpt lat="36.567886" lon="-6.107077">
        <ele>48.409360</ele>
        <time>2020-08-18T06:55:54.744Z</time>
      </trkpt>
      <trkpt lat="36.567815" lon="-6.106990">
        <ele>48.570002</ele>
        <time>2020-08-18T06:55:56.753Z</time>
      </trkpt>
      <trkpt lat="36.567706" lon="-6.106937">
        <ele>48.758703</ele>
        <time>2020-08-18T06:56:01.744Z</time>
      </trkpt>
      <trkpt lat="36.567583" lon="-6.106745">
        <ele>49.076792</ele>
        <time>2020-08-18T06:56:03.767Z</time>
      </trkpt>
      <trkpt lat="36.567543" lon="-6.106630">
        <ele>49.239104</ele>
        <time>2020-08-18T06:56:05.726Z</time>
      </trkpt>
      <trkpt lat="36.567499" lon="-6.106530">
        <ele>49.386784</ele>
        <time>2020-08-18T06:56:07.750Z</time>
      </trkpt>
      <trkpt lat="36.567450" lon="-6.106390">
        <ele>49.584577</ele>
        <time>2020-08-18T06:56:10.770Z</time>
      </trkpt>
      <trkpt lat="36.567390" lon="-6.106287">
        <ele>49.749374</ele>
        <time>2020-08-18T06:56:12.760Z</time>
      </trkpt>
      <trkpt lat="36.567352" lon="-6.106159">
        <ele>49.926118</ele>
        <time>2020-08-18T06:56:14.769Z</time>
      </trkpt>
      <trkpt lat="36.567287" lon="-6.106026">
        <ele>50.127761</ele>
        <time>2020-08-18T06:56:17.770Z</time>
      </trkpt>
      <trkpt lat="36.567217" lon="-6.105887">
        <ele>50.340253</ele>
        <time>2020-08-18T06:56:20.754Z</time>
      </trkpt>
      <trkpt lat="36.567148" lon="-6.105773">
        <ele>50.525136</ele>
        <time>2020-08-18T06:56:23.779Z</time>
      </trkpt>
      <trkpt lat="36.567093" lon="-6.105679">
        <ele>50.675763</ele>
        <time>2020-08-18T06:56:25.771Z</time>
      </trkpt>
      <trkpt lat="36.567050" lon="-6.105569">
        <ele>50.834212</ele>
        <time>2020-08-18T06:56:27.758Z</time>
      </trkpt>
      <trkpt lat="36.566955" lon="-6.105474">
        <ele>51.030702</ele>
        <time>2020-08-18T06:56:30.756Z</time>
      </trkpt>
      <trkpt lat="36.566888" lon="-6.105345">
        <ele>51.213604</ele>
        <time>2020-08-18T06:56:34.763Z</time>
      </trkpt>
      <trkpt lat="36.566768" lon="-6.105202">
        <ele>51.420305</ele>
        <time>2020-08-18T06:56:38.762Z</time>
      </trkpt>
      <trkpt lat="36.566675" lon="-6.105160">
        <ele>51.543411</ele>
        <time>2020-08-18T06:56:41.734Z</time>
      </trkpt>
      <trkpt lat="36.566580" lon="-6.105162">
        <ele>51.661646</ele>
        <time>2020-08-18T06:56:46.746Z</time>
      </trkpt>
      <trkpt lat="36.566440" lon="-6.105141">
        <ele>51.837121</ele>
        <time>2020-08-18T06:56:49.731Z</time>
      </trkpt>
      <trkpt lat="36.566354" lon="-6.105175">
        <ele>51.949405</ele>
        <time>2020-08-18T06:56:53.744Z</time>
      </trkpt>
      <trkpt lat="36.566251" lon="-6.105208">
        <ele>52.081753</ele>
        <time>2020-08-18T06:56:57.730Z</time>
      </trkpt>
      <trkpt lat="36.566150" lon="-6.105207">
        <ele>52.207441</ele>
        <time>2020-08-18T06:57:00.757Z</time>
      </trkpt>
      <trkpt lat="36.566046" lon="-6.105212">
        <ele>52.336954</ele>
        <time>2020-08-18T06:57:04.756Z</time>
      </trkpt>
      <trkpt lat="36.565939" lon="-6.105185">
        <ele>52.472812</ele>
        <time>2020-08-18T06:57:07.735Z</time>
      </trkpt>
      <trkpt lat="36.565843" lon="-6.105157">
        <ele>52.595508</ele>
        <time>2020-08-18T06:57:10.741Z</time>
      </trkpt>
      <trkpt lat="36.565751" lon="-6.105170">
        <ele>52.710727</ele>
        <time>2020-08-18T06:57:13.743Z</time>
      </trkpt>
      <trkpt lat="36.565663" lon="-6.105193">
        <ele>52.822621</ele>
        <time>2020-08-18T06:57:16.742Z</time>
      </trkpt>
      <trkpt lat="36.565553" lon="-6.105212">
        <ele>52.960815</ele>
        <time>2020-08-18T06:57:20.749Z</time>
      </trkpt>
      <trkpt lat="36.565459" lon="-6.105238">
        <ele>53.080640</ele>
        <time>2020-08-18T06:57:23.741Z</time>
      </trkpt>
      <trkpt lat="36.565374" lon="-6.105301">
        <ele>53.203737</ele>
        <time>2020-08-18T06:57:26.769Z</time>
      </trkpt>
      <trkpt lat="36.565280" lon="-6.105387">
        <ele>53.348895</ele>
        <time>2020-08-18T06:57:30.770Z</time>
      </trkpt>
      <trkpt lat="36.565174" lon="-6.105452">
        <ele>53.373699</ele>
        <time>2020-08-18T06:57:34.741Z</time>
      </trkpt>
      <trkpt lat="36.565095" lon="-6.105556">
        <ele>53.339058</ele>
        <time>2020-08-18T06:57:38.737Z</time>
      </trkpt>
      <trkpt lat="36.564981" lon="-6.105562">
        <ele>53.304679</ele>
        <time>2020-08-18T06:57:42.746Z</time>
      </trkpt>
      <trkpt lat="36.564883" lon="-6.105561">
        <ele>53.275151</ele>
        <time>2020-08-18T06:57:45.744Z</time>
      </trkpt>
      <trkpt lat="36.564766" lon="-6.105591">
        <ele>53.239159</ele>
        <time>2020-08-18T06:57:49.760Z</time>
      </trkpt>
      <trkpt lat="36.564665" lon="-6.105636">
        <ele>53.206838</ele>
        <time>2020-08-18T06:57:52.764Z</time>
      </trkpt>
      <trkpt lat="36.564571" lon="-6.105640">
        <ele>53.178499</ele>
        <time>2020-08-18T06:57:55.768Z</time>
      </trkpt>
      <trkpt lat="36.564463" lon="-6.105656">
        <ele>53.145729</ele>
        <time>2020-08-18T06:57:58.743Z</time>
      </trkpt>
      <trkpt lat="36.564340" lon="-6.105684">
        <ele>53.108055</ele>
        <time>2020-08-18T06:58:04.748Z</time>
      </trkpt>
      <trkpt lat="36.564231" lon="-6.105729">
        <ele>53.073455</ele>
        <time>2020-08-18T06:58:07.752Z</time>
      </trkpt>
      <trkpt lat="36.564143" lon="-6.105767">
        <ele>53.045391</ele>
        <time>2020-08-18T06:58:10.772Z</time>
      </trkpt>
      <trkpt lat="36.564029" lon="-6.105803">
        <ele>53.009955</ele>
        <time>2020-08-18T06:58:14.783Z</time>
      </trkpt>
      <trkpt lat="36.563930" lon="-6.105927">
        <ele>52.967644</ele>
        <time>2020-08-18T06:58:17.787Z</time>
      </trkpt>
      <trkpt lat="36.563825" lon="-6.105981">
        <ele>52.933414</ele>
        <time>2020-08-18T06:58:21.742Z</time>
      </trkpt>
      <trkpt lat="36.563759" lon="-6.106058">
        <ele>52.906162</ele>
        <time>2020-08-18T06:58:29.737Z</time>
      </trkpt>
      <trkpt lat="36.563160" lon="-6.106230">
        <ele>53.543192</ele>
        <time>2020-08-18T06:58:41.756Z</time>
      </trkpt>
      <trkpt lat="36.563020" lon="-6.106220">
        <ele>53.758953</ele>
        <time>2020-08-18T06:58:44.746Z</time>
      </trkpt>
      <trkpt lat="36.562984" lon="-6.106339">
        <ele>53.916101</ele>
        <time>2020-08-18T06:58:47.764Z</time>
      </trkpt>
      <trkpt lat="36.562899" lon="-6.106389">
        <ele>54.060747</ele>
        <time>2020-08-18T06:58:50.760Z</time>
      </trkpt>
      <trkpt lat="36.562807" lon="-6.106433">
        <ele>54.212384</ele>
        <time>2020-08-18T06:58:52.744Z</time>
      </trkpt>
      <trkpt lat="36.562712" lon="-6.106477">
        <ele>54.368340</ele>
        <time>2020-08-18T06:58:55.759Z</time>
      </trkpt>
      <trkpt lat="36.562662" lon="-6.106598">
        <ele>54.536504</ele>
        <time>2020-08-18T06:58:57.730Z</time>
      </trkpt>
      <trkpt lat="36.562568" lon="-6.106613">
        <ele>54.682317</ele>
        <time>2020-08-18T06:59:00.748Z</time>
      </trkpt>
      <trkpt lat="36.562455" lon="-6.106637">
        <ele>54.858693</ele>
        <time>2020-08-18T06:59:04.735Z</time>
      </trkpt>
      <trkpt lat="36.562283" lon="-6.106612">
        <ele>55.125133</ele>
        <time>2020-08-18T06:59:06.730Z</time>
      </trkpt>
      <trkpt lat="36.562204" lon="-6.106679">
        <ele>55.272206</ele>
        <time>2020-08-18T06:59:08.765Z</time>
      </trkpt>
      <trkpt lat="36.562133" lon="-6.106765">
        <ele>55.424619</ele>
        <time>2020-08-18T06:59:12.777Z</time>
      </trkpt>
      <trkpt lat="36.562020" lon="-6.106798">
        <ele>55.603202</ele>
        <time>2020-08-18T06:59:16.761Z</time>
      </trkpt>
      <trkpt lat="36.561924" lon="-6.106819">
        <ele>55.470139</ele>
        <time>2020-08-18T06:59:17.744Z</time>
      </trkpt>
      <trkpt lat="36.561834" lon="-6.106866">
        <ele>55.293746</ele>
        <time>2020-08-18T06:59:20.744Z</time>
      </trkpt>
      <trkpt lat="36.561807" lon="-6.106976">
        <ele>55.126769</ele>
        <time>2020-08-18T06:59:22.739Z</time>
      </trkpt>
      <trkpt lat="36.561717" lon="-6.107045">
        <ele>54.935739</ele>
        <time>2020-08-18T06:59:26.755Z</time>
      </trkpt>
      <trkpt lat="36.561616" lon="-6.107093">
        <ele>54.740348</ele>
        <time>2020-08-18T06:59:29.769Z</time>
      </trkpt>
      <trkpt lat="36.561533" lon="-6.107164">
        <ele>54.558340</ele>
        <time>2020-08-18T06:59:31.738Z</time>
      </trkpt>
      <trkpt lat="36.561435" lon="-6.107225">
        <ele>54.360315</ele>
        <time>2020-08-18T06:59:34.738Z</time>
      </trkpt>
      <trkpt lat="36.561359" lon="-6.107295">
        <ele>54.189452</ele>
        <time>2020-08-18T06:59:37.745Z</time>
      </trkpt>
      <trkpt lat="36.561275" lon="-6.107362">
        <ele>54.009149</ele>
        <time>2020-08-18T06:59:40.740Z</time>
      </trkpt>
      <trkpt lat="36.561215" lon="-6.107447">
        <ele>53.844875</ele>
        <time>2020-08-18T06:59:43.760Z</time>
      </trkpt>
      <trkpt lat="36.561144" lon="-6.107544">
        <ele>53.654360</ele>
        <time>2020-08-18T06:59:46.760Z</time>
      </trkpt>
      <trkpt lat="36.561065" lon="-6.107615">
        <ele>53.478262</ele>
        <time>2020-08-18T06:59:49.752Z</time>
      </trkpt>
      <trkpt lat="36.560967" lon="-6.107667">
        <ele>53.285725</ele>
        <time>2020-08-18T06:59:52.751Z</time>
      </trkpt>
      <trkpt lat="36.560879" lon="-6.107756">
        <ele>53.080811</ele>
        <time>2020-08-18T06:59:55.743Z</time>
      </trkpt>
      <trkpt lat="36.560774" lon="-6.107824">
        <ele>52.866898</ele>
        <time>2020-08-18T06:59:58.742Z</time>
      </trkpt>
      <trkpt lat="36.560670" lon="-6.107863">
        <ele>52.670591</ele>
        <time>2020-08-18T07:00:01.734Z</time>
      </trkpt>
      <trkpt lat="36.560591" lon="-6.107923">
        <ele>52.503338</ele>
        <time>2020-08-18T07:00:05.757Z</time>
      </trkpt>
      <trkpt lat="36.560473" lon="-6.107962">
        <ele>52.416470</ele>
        <time>2020-08-18T07:00:09.732Z</time>
      </trkpt>
      <trkpt lat="36.560370" lon="-6.108035">
        <ele>52.522325</ele>
        <time>2020-08-18T07:00:10.756Z</time>
      </trkpt>
      <trkpt lat="36.560289" lon="-6.108089">
        <ele>52.604388</ele>
        <time>2020-08-18T07:00:12.759Z</time>
      </trkpt>
      <trkpt lat="36.560212" lon="-6.108155">
        <ele>52.687882</ele>
        <time>2020-08-18T07:00:15.753Z</time>
      </trkpt>
      <trkpt lat="36.560093" lon="-6.108269">
        <ele>52.821988</ele>
        <time>2020-08-18T07:00:20.779Z</time>
      </trkpt>
      <trkpt lat="36.559988" lon="-6.108311">
        <ele>52.920488</ele>
        <time>2020-08-18T07:00:22.756Z</time>
      </trkpt>
      <trkpt lat="36.559902" lon="-6.108366">
        <ele>53.006839</ele>
        <time>2020-08-18T07:00:25.738Z</time>
      </trkpt>
      <trkpt lat="36.559784" lon="-6.108420">
        <ele>53.119123</ele>
        <time>2020-08-18T07:00:28.771Z</time>
      </trkpt>
      <trkpt lat="36.559719" lon="-6.108532">
        <ele>53.218249</ele>
        <time>2020-08-18T07:00:31.758Z</time>
      </trkpt>
      <trkpt lat="36.559664" lon="-6.108621">
        <ele>53.298807</ele>
        <time>2020-08-18T07:00:34.737Z</time>
      </trkpt>
      <trkpt lat="36.559600" lon="-6.108706">
        <ele>53.382388</ele>
        <time>2020-08-18T07:00:37.736Z</time>
      </trkpt>
      <trkpt lat="36.559531" lon="-6.108783">
        <ele>53.465147</ele>
        <time>2020-08-18T07:00:40.768Z</time>
      </trkpt>
      <trkpt lat="36.559446" lon="-6.108840">
        <ele>53.551376</ele>
        <time>2020-08-18T07:00:43.727Z</time>
      </trkpt>
      <trkpt lat="36.559360" lon="-6.108922">
        <ele>53.648124</ele>
        <time>2020-08-18T07:00:47.746Z</time>
      </trkpt>
      <trkpt lat="36.559305" lon="-6.109040">
        <ele>53.745997</ele>
        <time>2020-08-18T07:00:50.738Z</time>
      </trkpt>
      <trkpt lat="36.559237" lon="-6.109149">
        <ele>53.845008</ele>
        <time>2020-08-18T07:00:54.749Z</time>
      </trkpt>
      <trkpt lat="36.559133" lon="-6.109167">
        <ele>53.938787</ele>
        <time>2020-08-18T07:00:58.739Z</time>
      </trkpt>
      <trkpt lat="36.559039" lon="-6.109185">
        <ele>53.957189</ele>
        <time>2020-08-18T07:01:02.775Z</time>
      </trkpt>
      <trkpt lat="36.558908" lon="-6.109246">
        <ele>53.897733</ele>
        <time>2020-08-18T07:01:12.764Z</time>
      </trkpt>
      <trkpt lat="36.558855" lon="-6.109757">
        <ele>53.721798</ele>
        <time>2020-08-18T07:01:16.747Z</time>
      </trkpt>
      <trkpt lat="36.558860" lon="-6.109874">
        <ele>53.681791</ele>
        <time>2020-08-18T07:01:18.761Z</time>
      </trkpt>
      <trkpt lat="36.558842" lon="-6.110044">
        <ele>53.623241</ele>
        <time>2020-08-18T07:01:21.746Z</time>
      </trkpt>
      <trkpt lat="36.558824" lon="-6.110158">
        <ele>53.583569</ele>
        <time>2020-08-18T07:01:24.744Z</time>
      </trkpt>
      <trkpt lat="36.558796" lon="-6.110283">
        <ele>53.539258</ele>
        <time>2020-08-18T07:01:27.747Z</time>
      </trkpt>
      <trkpt lat="36.558750" lon="-6.110403">
        <ele>53.493856</ele>
        <time>2020-08-18T07:01:30.762Z</time>
      </trkpt>
      <trkpt lat="36.558717" lon="-6.110526">
        <ele>53.449576</ele>
        <time>2020-08-18T07:01:33.748Z</time>
      </trkpt>
      <trkpt lat="36.558686" lon="-6.110662">
        <ele>53.401303</ele>
        <time>2020-08-18T07:01:36.744Z</time>
      </trkpt>
      <trkpt lat="36.558669" lon="-6.110818">
        <ele>53.347548</ele>
        <time>2020-08-18T07:01:39.752Z</time>
      </trkpt>
      <trkpt lat="36.558656" lon="-6.110963">
        <ele>53.297728</ele>
        <time>2020-08-18T07:01:42.742Z</time>
      </trkpt>
      <trkpt lat="36.558628" lon="-6.111111">
        <ele>53.245809</ele>
        <time>2020-08-18T07:01:45.736Z</time>
      </trkpt>
      <trkpt lat="36.558581" lon="-6.111245">
        <ele>53.262801</ele>
        <time>2020-08-18T07:01:48.751Z</time>
      </trkpt>
      <trkpt lat="36.558535" lon="-6.111374">
        <ele>53.392190</ele>
        <time>2020-08-18T07:01:51.737Z</time>
      </trkpt>
      <trkpt lat="36.558480" lon="-6.111500">
        <ele>53.523652</ele>
        <time>2020-08-18T07:01:54.758Z</time>
      </trkpt>
      <trkpt lat="36.558428" lon="-6.111606">
        <ele>53.637515</ele>
        <time>2020-08-18T07:01:57.765Z</time>
      </trkpt>
      <trkpt lat="36.558382" lon="-6.111725">
        <ele>53.758582</ele>
        <time>2020-08-18T07:02:00.751Z</time>
      </trkpt>
      <trkpt lat="36.558346" lon="-6.111834">
        <ele>53.866623</ele>
        <time>2020-08-18T07:02:03.741Z</time>
      </trkpt>
      <trkpt lat="36.558299" lon="-6.111950">
        <ele>53.985728</ele>
        <time>2020-08-18T07:02:07.740Z</time>
      </trkpt>
      <trkpt lat="36.558230" lon="-6.112027">
        <ele>54.091483</ele>
        <time>2020-08-18T07:02:10.748Z</time>
      </trkpt>
      <trkpt lat="36.558118" lon="-6.112072">
        <ele>54.225799</ele>
        <time>2020-08-18T07:02:14.740Z</time>
      </trkpt>
      <trkpt lat="36.558015" lon="-6.112033">
        <ele>54.348668</ele>
        <time>2020-08-18T07:02:18.757Z</time>
      </trkpt>
      <trkpt lat="36.557949" lon="-6.111947">
        <ele>54.457707</ele>
        <time>2020-08-18T07:02:23.768Z</time>
      </trkpt>
      <trkpt lat="36.557885" lon="-6.111861">
        <ele>54.565182</ele>
        <time>2020-08-18T07:02:28.745Z</time>
      </trkpt>
      <trkpt lat="36.557789" lon="-6.111779">
        <ele>54.698054</ele>
        <time>2020-08-18T07:02:32.768Z</time>
      </trkpt>
      <trkpt lat="36.557696" lon="-6.111685">
        <ele>54.834771</ele>
        <time>2020-08-18T07:02:36.771Z</time>
      </trkpt>
      <trkpt lat="36.557618" lon="-6.111601">
        <ele>54.952477</ele>
        <time>2020-08-18T07:02:40.769Z</time>
      </trkpt>
      <trkpt lat="36.557531" lon="-6.111517">
        <ele>55.078130</ele>
        <time>2020-08-18T07:02:45.760Z</time>
      </trkpt>
      <trkpt lat="36.557456" lon="-6.111431">
        <ele>55.194503</ele>
        <time>2020-08-18T07:02:49.762Z</time>
      </trkpt>
      <trkpt lat="36.557382" lon="-6.111366">
        <ele>55.420988</ele>
        <time>2020-08-18T07:02:53.763Z</time>
      </trkpt>
      <trkpt lat="36.557297" lon="-6.111310">
        <ele>55.965854</ele>
        <time>2020-08-18T07:02:57.753Z</time>
      </trkpt>
      <trkpt lat="36.557235" lon="-6.111202">
        <ele>56.569991</ele>
        <time>2020-08-18T07:03:01.763Z</time>
      </trkpt>
      <trkpt lat="36.557188" lon="-6.111095">
        <ele>57.125008</ele>
        <time>2020-08-18T07:03:12.753Z</time>
      </trkpt>
      <trkpt lat="36.557121" lon="-6.111007">
        <ele>57.676819</ele>
        <time>2020-08-18T07:03:15.741Z</time>
      </trkpt>
      <trkpt lat="36.557040" lon="-6.110892">
        <ele>58.372902</ele>
        <time>2020-08-18T07:03:18.762Z</time>
      </trkpt>
      <trkpt lat="36.556947" lon="-6.110765">
        <ele>59.155019</ele>
        <time>2020-08-18T07:03:19.759Z</time>
      </trkpt>
      <trkpt lat="36.556894" lon="-6.110668">
        <ele>59.688922</ele>
        <time>2020-08-18T07:03:21.746Z</time>
      </trkpt>
      <trkpt lat="36.556795" lon="-6.110557">
        <ele>60.443783</ele>
        <time>2020-08-18T07:03:23.739Z</time>
      </trkpt>
      <trkpt lat="36.556694" lon="-6.110452">
        <ele>61.189311</ele>
        <time>2020-08-18T07:03:25.745Z</time>
      </trkpt>
      <trkpt lat="36.556615" lon="-6.110350">
        <ele>61.834162</ele>
        <time>2020-08-18T07:03:28.737Z</time>
      </trkpt>
      <trkpt lat="36.556515" lon="-6.110257">
        <ele>62.541373</ele>
        <time>2020-08-18T07:03:34.784Z</time>
      </trkpt>
      <trkpt lat="36.556477" lon="-6.110146">
        <ele>63.090512</ele>
        <time>2020-08-18T07:03:36.741Z</time>
      </trkpt>
      <trkpt lat="36.556476" lon="-6.109946">
        <ele>64.000751</ele>
        <time>2020-08-18T07:03:38.746Z</time>
      </trkpt>
      <trkpt lat="36.556455" lon="-6.109828">
        <ele>64.550805</ele>
        <time>2020-08-18T07:03:40.746Z</time>
      </trkpt>
      <trkpt lat="36.556431" lon="-6.109717">
        <ele>65.073959</ele>
        <time>2020-08-18T07:03:42.734Z</time>
      </trkpt>
      <trkpt lat="36.556402" lon="-6.109600">
        <ele>65.404284</ele>
        <time>2020-08-18T07:03:45.762Z</time>
      </trkpt>
      <trkpt lat="36.556386" lon="-6.109476">
        <ele>65.229477</ele>
        <time>2020-08-18T07:03:48.773Z</time>
      </trkpt>
      <trkpt lat="36.556368" lon="-6.109323">
        <ele>65.014245</ele>
        <time>2020-08-18T07:03:51.753Z</time>
      </trkpt>
      <trkpt lat="36.556361" lon="-6.109198">
        <ele>64.839836</ele>
        <time>2020-08-18T07:03:54.774Z</time>
      </trkpt>
      <trkpt lat="36.556316" lon="-6.109062">
        <ele>64.635108</ele>
        <time>2020-08-18T07:04:00.754Z</time>
      </trkpt>
      <trkpt lat="36.556315" lon="-6.108939">
        <ele>64.463896</ele>
        <time>2020-08-18T07:04:03.738Z</time>
      </trkpt>
      <trkpt lat="36.556316" lon="-6.108800">
        <ele>64.270415</ele>
        <time>2020-08-18T07:04:07.743Z</time>
      </trkpt>
      <trkpt lat="36.556260" lon="-6.108694">
        <ele>64.093825</ele>
        <time>2020-08-18T07:04:10.729Z</time>
      </trkpt>
      <trkpt lat="36.556192" lon="-6.108610">
        <ele>63.927831</ele>
        <time>2020-08-18T07:04:13.743Z</time>
      </trkpt>
      <trkpt lat="36.556120" lon="-6.108536">
        <ele>63.766047</ele>
        <time>2020-08-18T07:04:16.746Z</time>
      </trkpt>
      <trkpt lat="36.556018" lon="-6.108490">
        <ele>63.578064</ele>
        <time>2020-08-18T07:04:22.777Z</time>
      </trkpt>
      <trkpt lat="36.555920" lon="-6.108500">
        <ele>63.407682</ele>
        <time>2020-08-18T07:04:28.761Z</time>
      </trkpt>
      <trkpt lat="36.555841" lon="-6.108565">
        <ele>63.243596</ele>
        <time>2020-08-18T07:04:33.769Z</time>
      </trkpt>
      <trkpt lat="36.555743" lon="-6.108592">
        <ele>63.069674</ele>
        <time>2020-08-18T07:04:36.779Z</time>
      </trkpt>
      <trkpt lat="36.555637" lon="-6.108583">
        <ele>62.885573</ele>
        <time>2020-08-18T07:04:39.764Z</time>
      </trkpt>
      <trkpt lat="36.555531" lon="-6.108614">
        <ele>62.696898</ele>
        <time>2020-08-18T07:04:43.769Z</time>
      </trkpt>
      <trkpt lat="36.555439" lon="-6.108665">
        <ele>62.522391</ele>
        <time>2020-08-18T07:04:47.771Z</time>
      </trkpt>
      <trkpt lat="36.554971" lon="-6.108563">
        <ele>61.775889</ele>
        <time>2020-08-18T07:05:02.790Z</time>
      </trkpt>
      <trkpt lat="36.554882" lon="-6.108626">
        <ele>61.619709</ele>
        <time>2020-08-18T07:05:09.745Z</time>
      </trkpt>
      <trkpt lat="36.554773" lon="-6.108632">
        <ele>61.453272</ele>
        <time>2020-08-18T07:05:14.777Z</time>
      </trkpt>
      <trkpt lat="36.554664" lon="-6.108627">
        <ele>61.286884</ele>
        <time>2020-08-18T07:05:19.771Z</time>
      </trkpt>
      <trkpt lat="36.554574" lon="-6.108612">
        <ele>61.148368</ele>
        <time>2020-08-18T07:05:22.773Z</time>
      </trkpt>
      <trkpt lat="36.554483" lon="-6.108598">
        <ele>61.008495</ele>
        <time>2020-08-18T07:05:25.775Z</time>
      </trkpt>
      <trkpt lat="36.554390" lon="-6.108571">
        <ele>60.862821</ele>
        <time>2020-08-18T07:05:29.732Z</time>
      </trkpt>
      <trkpt lat="36.554279" lon="-6.108547">
        <ele>60.690960</ele>
        <time>2020-08-18T07:05:31.743Z</time>
      </trkpt>
      <trkpt lat="36.554180" lon="-6.108554">
        <ele>60.539696</ele>
        <time>2020-08-18T07:05:37.733Z</time>
      </trkpt>
      <trkpt lat="36.553866" lon="-6.108424">
        <ele>60.034907</ele>
        <time>2020-08-18T07:05:44.744Z</time>
      </trkpt>
      <trkpt lat="36.553825" lon="-6.108314">
        <ele>59.886310</ele>
        <time>2020-08-18T07:05:49.743Z</time>
      </trkpt>
      <trkpt lat="36.553725" lon="-6.108272">
        <ele>59.725316</ele>
        <time>2020-08-18T07:06:00.740Z</time>
      </trkpt>
      <trkpt lat="36.553624" lon="-6.108262">
        <ele>59.665524</ele>
        <time>2020-08-18T07:06:06.739Z</time>
      </trkpt>
      <trkpt lat="36.553361" lon="-6.108326">
        <ele>60.731641</ele>
        <time>2020-08-18T07:06:12.737Z</time>
      </trkpt>
      <trkpt lat="36.553272" lon="-6.108301">
        <ele>61.094619</ele>
        <time>2020-08-18T07:06:16.757Z</time>
      </trkpt>
      <trkpt lat="36.553168" lon="-6.108282">
        <ele>61.512803</ele>
        <time>2020-08-18T07:06:21.754Z</time>
      </trkpt>
      <trkpt lat="36.553054" lon="-6.108276">
        <ele>61.966743</ele>
        <time>2020-08-18T07:06:25.750Z</time>
      </trkpt>
      <trkpt lat="36.552949" lon="-6.108227">
        <ele>62.412861</ele>
        <time>2020-08-18T07:06:29.745Z</time>
      </trkpt>
      <trkpt lat="36.552856" lon="-6.108167">
        <ele>62.829587</ele>
        <time>2020-08-18T07:06:33.774Z</time>
      </trkpt>
      <trkpt lat="36.552752" lon="-6.108168">
        <ele>63.243351</ele>
        <time>2020-08-18T07:06:37.754Z</time>
      </trkpt>
      <trkpt lat="36.552647" lon="-6.108148">
        <ele>63.665943</ele>
        <time>2020-08-18T07:06:41.760Z</time>
      </trkpt>
      <trkpt lat="36.552535" lon="-6.108112">
        <ele>64.126136</ele>
        <time>2020-08-18T07:06:45.768Z</time>
      </trkpt>
      <trkpt lat="36.552435" lon="-6.108117">
        <ele>64.524294</ele>
        <time>2020-08-18T07:06:53.756Z</time>
      </trkpt>
      <trkpt lat="36.552240" lon="-6.108144">
        <ele>65.304863</ele>
        <time>2020-08-18T07:06:56.749Z</time>
      </trkpt>
      <trkpt lat="36.552076" lon="-6.108075">
        <ele>65.993575</ele>
        <time>2020-08-18T07:06:57.762Z</time>
      </trkpt>
      <trkpt lat="36.551941" lon="-6.108035">
        <ele>66.545660</ele>
        <time>2020-08-18T07:07:00.742Z</time>
      </trkpt>
      <trkpt lat="36.551849" lon="-6.108004">
        <ele>66.834396</ele>
        <time>2020-08-18T07:07:04.740Z</time>
      </trkpt>
      <trkpt lat="36.551640" lon="-6.107909">
        <ele>67.254455</ele>
        <time>2020-08-18T07:07:08.738Z</time>
      </trkpt>
      <trkpt lat="36.551524" lon="-6.107840">
        <ele>67.497173</ele>
        <time>2020-08-18T07:07:12.757Z</time>
      </trkpt>
      <trkpt lat="36.551418" lon="-6.107784">
        <ele>67.714570</ele>
        <time>2020-08-18T07:07:15.742Z</time>
      </trkpt>
      <trkpt lat="36.551314" lon="-6.107772">
        <ele>67.911756</ele>
        <time>2020-08-18T07:07:19.739Z</time>
      </trkpt>
      <trkpt lat="36.551220" lon="-6.107785">
        <ele>68.090313</ele>
        <time>2020-08-18T07:07:22.744Z</time>
      </trkpt>
      <trkpt lat="36.551133" lon="-6.107822">
        <ele>68.263884</ele>
        <time>2020-08-18T07:07:25.755Z</time>
      </trkpt>
      <trkpt lat="36.551026" lon="-6.107850">
        <ele>68.470308</ele>
        <time>2020-08-18T07:07:29.726Z</time>
      </trkpt>
      <trkpt lat="36.550902" lon="-6.107792">
        <ele>68.720392</ele>
        <time>2020-08-18T07:07:32.735Z</time>
      </trkpt>
      <trkpt lat="36.550800" lon="-6.107761">
        <ele>68.918618</ele>
        <time>2020-08-18T07:07:35.751Z</time>
      </trkpt>
      <trkpt lat="36.550703" lon="-6.107764">
        <ele>69.101803</ele>
        <time>2020-08-18T07:07:38.728Z</time>
      </trkpt>
      <trkpt lat="36.550597" lon="-6.107764">
        <ele>69.301924</ele>
        <time>2020-08-18T07:07:41.757Z</time>
      </trkpt>
      <trkpt lat="36.550505" lon="-6.107776">
        <ele>69.476565</ele>
        <time>2020-08-18T07:07:45.759Z</time>
      </trkpt>
      <trkpt lat="36.550409" lon="-6.107771">
        <ele>69.657964</ele>
        <time>2020-08-18T07:07:49.742Z</time>
      </trkpt>
      <trkpt lat="36.550293" lon="-6.107763">
        <ele>69.877300</ele>
        <time>2020-08-18T07:07:53.750Z</time>
      </trkpt>
      <trkpt lat="36.550193" lon="-6.107767">
        <ele>70.066191</ele>
        <time>2020-08-18T07:07:56.756Z</time>
      </trkpt>
      <trkpt lat="36.550091" lon="-6.107746">
        <ele>70.131920</ele>
        <time>2020-08-18T07:07:59.774Z</time>
      </trkpt>
      <trkpt lat="36.549985" lon="-6.107716">
        <ele>70.101934</ele>
        <time>2020-08-18T07:08:02.759Z</time>
      </trkpt>
      <trkpt lat="36.549871" lon="-6.107689">
        <ele>70.069924</ele>
        <time>2020-08-18T07:08:05.762Z</time>
      </trkpt>
      <trkpt lat="36.549757" lon="-6.107664">
        <ele>70.037993</ele>
        <time>2020-08-18T07:08:08.764Z</time>
      </trkpt>
      <trkpt lat="36.549641" lon="-6.107651">
        <ele>70.005865</ele>
        <time>2020-08-18T07:08:11.744Z</time>
      </trkpt>
      <trkpt lat="36.549539" lon="-6.107613">
        <ele>69.976495</ele>
        <time>2020-08-18T07:08:14.741Z</time>
      </trkpt>
      <trkpt lat="36.549421" lon="-6.107579">
        <ele>69.943084</ele>
        <time>2020-08-18T07:08:17.762Z</time>
      </trkpt>
      <trkpt lat="36.549294" lon="-6.107555">
        <ele>69.907650</ele>
        <time>2020-08-18T07:08:20.752Z</time>
      </trkpt>
      <trkpt lat="36.549185" lon="-6.107542">
        <ele>69.877445</ele>
        <time>2020-08-18T07:08:23.758Z</time>
      </trkpt>
      <trkpt lat="36.549086" lon="-6.107542">
        <ele>69.850136</ele>
        <time>2020-08-18T07:08:26.764Z</time>
      </trkpt>
      <trkpt lat="36.548975" lon="-6.107537">
        <ele>69.819497</ele>
        <time>2020-08-18T07:08:29.762Z</time>
      </trkpt>
      <trkpt lat="36.548848" lon="-6.107526">
        <ele>69.784380</ele>
        <time>2020-08-18T07:08:32.758Z</time>
      </trkpt>
      <trkpt lat="36.548728" lon="-6.107567">
        <ele>69.750054</ele>
        <time>2020-08-18T07:08:35.741Z</time>
      </trkpt>
      <trkpt lat="36.548626" lon="-6.107589">
        <ele>69.721498</ele>
        <time>2020-08-18T07:08:38.739Z</time>
      </trkpt>
      <trkpt lat="36.548518" lon="-6.107564">
        <ele>69.691195</ele>
        <time>2020-08-18T07:08:42.745Z</time>
      </trkpt>
      <trkpt lat="36.548424" lon="-6.107578">
        <ele>69.665081</ele>
        <time>2020-08-18T07:08:47.766Z</time>
      </trkpt>
      <trkpt lat="36.548254" lon="-6.107260">
        <ele>69.846823</ele>
        <time>2020-08-18T07:08:53.728Z</time>
      </trkpt>
      <trkpt lat="36.548160" lon="-6.107305">
        <ele>69.922060</ele>
        <time>2020-08-18T07:08:56.753Z</time>
      </trkpt>
      <trkpt lat="36.547998" lon="-6.107312">
        <ele>70.043156</ele>
        <time>2020-08-18T07:09:01.741Z</time>
      </trkpt>
      <trkpt lat="36.547943" lon="-6.107418">
        <ele>70.118887</ele>
        <time>2020-08-18T07:09:05.738Z</time>
      </trkpt>
      <trkpt lat="36.547877" lon="-6.107503">
        <ele>70.189834</ele>
        <time>2020-08-18T07:09:09.738Z</time>
      </trkpt>
      <trkpt lat="36.547767" lon="-6.107508">
        <ele>70.272064</ele>
        <time>2020-08-18T07:09:13.760Z</time>
      </trkpt>
      <trkpt lat="36.547665" lon="-6.107473">
        <ele>70.351106</ele>
        <time>2020-08-18T07:09:16.748Z</time>
      </trkpt>
      <trkpt lat="36.547557" lon="-6.107458">
        <ele>70.432289</ele>
        <time>2020-08-18T07:09:19.754Z</time>
      </trkpt>
      <trkpt lat="36.547445" lon="-6.107455">
        <ele>70.515978</ele>
        <time>2020-08-18T07:09:22.750Z</time>
      </trkpt>
      <trkpt lat="36.547192" lon="-6.107142">
        <ele>70.782456</ele>
        <time>2020-08-18T07:09:23.749Z</time>
      </trkpt>
      <trkpt lat="36.547083" lon="-6.107135">
        <ele>70.863993</ele>
        <time>2020-08-18T07:09:26.744Z</time>
      </trkpt>
      <trkpt lat="36.546990" lon="-6.106880">
        <ele>70.949656</ele>
        <time>2020-08-18T07:09:28.758Z</time>
      </trkpt>
      <trkpt lat="36.546932" lon="-6.107033">
        <ele>70.819468</ele>
        <time>2020-08-18T07:09:30.764Z</time>
      </trkpt>
      <trkpt lat="36.546914" lon="-6.107152">
        <ele>70.726284</ele>
        <time>2020-08-18T07:09:33.742Z</time>
      </trkpt>
      <trkpt lat="36.546815" lon="-6.107188">
        <ele>70.627490</ele>
        <time>2020-08-18T07:09:37.741Z</time>
      </trkpt>
      <trkpt lat="36.546731" lon="-6.107244">
        <ele>70.536215</ele>
        <time>2020-08-18T07:09:41.749Z</time>
      </trkpt>
      <trkpt lat="36.546630" lon="-6.107197">
        <ele>70.432929</ele>
        <time>2020-08-18T07:09:46.740Z</time>
      </trkpt>
      <trkpt lat="36.546526" lon="-6.107155">
        <ele>70.328197</ele>
        <time>2020-08-18T07:09:50.742Z</time>
      </trkpt>
      <trkpt lat="36.546426" lon="-6.107125">
        <ele>70.229666</ele>
        <time>2020-08-18T07:09:54.750Z</time>
      </trkpt>
      <trkpt lat="36.546337" lon="-6.107084">
        <ele>70.138763</ele>
        <time>2020-08-18T07:09:57.756Z</time>
      </trkpt>
      <trkpt lat="36.546238" lon="-6.107028">
        <ele>70.034601</ele>
        <time>2020-08-18T07:10:01.740Z</time>
      </trkpt>
      <trkpt lat="36.546140" lon="-6.107015">
        <ele>69.940197</ele>
        <time>2020-08-18T07:10:04.758Z</time>
      </trkpt>
      <trkpt lat="36.546065" lon="-6.107100">
        <ele>69.843038</ele>
        <time>2020-08-18T07:10:07.757Z</time>
      </trkpt>
      <trkpt lat="36.545978" lon="-6.107148">
        <ele>69.751883</ele>
        <time>2020-08-18T07:10:10.742Z</time>
      </trkpt>
      <trkpt lat="36.545844" lon="-6.107127">
        <ele>69.622513</ele>
        <time>2020-08-18T07:10:13.749Z</time>
      </trkpt>
      <trkpt lat="36.545724" lon="-6.107126">
        <ele>69.507565</ele>
        <time>2020-08-18T07:10:16.749Z</time>
      </trkpt>
      <trkpt lat="36.545611" lon="-6.107136">
        <ele>69.399051</ele>
        <time>2020-08-18T07:10:19.740Z</time>
      </trkpt>
      <trkpt lat="36.545515" lon="-6.107095">
        <ele>69.301832</ele>
        <time>2020-08-18T07:10:22.737Z</time>
      </trkpt>
      <trkpt lat="36.545432" lon="-6.107037">
        <ele>69.202185</ele>
        <time>2020-08-18T07:10:27.743Z</time>
      </trkpt>
      <trkpt lat="36.545324" lon="-6.106991">
        <ele>69.078004</ele>
        <time>2020-08-18T07:10:31.748Z</time>
      </trkpt>
      <trkpt lat="36.545250" lon="-6.106923">
        <ele>68.977939</ele>
        <time>2020-08-18T07:10:34.747Z</time>
      </trkpt>
      <trkpt lat="36.545178" lon="-6.106853">
        <ele>68.878549</ele>
        <time>2020-08-18T07:10:37.744Z</time>
      </trkpt>
      <trkpt lat="36.545081" lon="-6.106808">
        <ele>68.765933</ele>
        <time>2020-08-18T07:10:40.750Z</time>
      </trkpt>
      <trkpt lat="36.544972" lon="-6.106826">
        <ele>68.646313</ele>
        <time>2020-08-18T07:10:44.743Z</time>
      </trkpt>
      <trkpt lat="36.544865" lon="-6.106829">
        <ele>68.529879</ele>
        <time>2020-08-18T07:10:47.740Z</time>
      </trkpt>
      <trkpt lat="36.544765" lon="-6.106820">
        <ele>68.420806</ele>
        <time>2020-08-18T07:10:49.744Z</time>
      </trkpt>
      <trkpt lat="36.544635" lon="-6.106814">
        <ele>68.279283</ele>
        <time>2020-08-18T07:10:52.750Z</time>
      </trkpt>
      <trkpt lat="36.544543" lon="-6.106891">
        <ele>68.158674</ele>
        <time>2020-08-18T07:10:56.738Z</time>
      </trkpt>
      <trkpt lat="36.544447" lon="-6.106978">
        <ele>68.029488</ele>
        <time>2020-08-18T07:10:59.744Z</time>
      </trkpt>
      <trkpt lat="36.544321" lon="-6.107006">
        <ele>67.890246</ele>
        <time>2020-08-18T07:11:02.736Z</time>
      </trkpt>
      <trkpt lat="36.544220" lon="-6.107003">
        <ele>67.780338</ele>
        <time>2020-08-18T07:11:04.756Z</time>
      </trkpt>
      <trkpt lat="36.544107" lon="-6.106971">
        <ele>67.654264</ele>
        <time>2020-08-18T07:11:07.742Z</time>
      </trkpt>
      <trkpt lat="36.544021" lon="-6.106923">
        <ele>67.551730</ele>
        <time>2020-08-18T07:11:10.757Z</time>
      </trkpt>
      <trkpt lat="36.543903" lon="-6.106880">
        <ele>67.417971</ele>
        <time>2020-08-18T07:11:14.754Z</time>
      </trkpt>
      <trkpt lat="36.543807" lon="-6.106835">
        <ele>67.283228</ele>
        <time>2020-08-18T07:11:17.743Z</time>
      </trkpt>
      <trkpt lat="36.543718" lon="-6.106796">
        <ele>66.942135</ele>
        <time>2020-08-18T07:11:20.762Z</time>
      </trkpt>
      <trkpt lat="36.543646" lon="-6.106698">
        <ele>66.556444</ele>
        <time>2020-08-18T07:11:25.731Z</time>
      </trkpt>
      <trkpt lat="36.543707" lon="-6.106785">
        <ele>66.221074</ele>
        <time>2020-08-18T07:11:31.745Z</time>
      </trkpt>
      <trkpt lat="36.543268" lon="-6.106887">
        <ele>64.606665</ele>
        <time>2020-08-18T07:13:59.741Z</time>
      </trkpt>
      <trkpt lat="36.543150" lon="-6.106919">
        <ele>64.170085</ele>
        <time>2020-08-18T07:14:02.759Z</time>
      </trkpt>
      <trkpt lat="36.543049" lon="-6.106903">
        <ele>63.802022</ele>
        <time>2020-08-18T07:14:05.744Z</time>
      </trkpt>
      <trkpt lat="36.542957" lon="-6.106909">
        <ele>63.468983</ele>
        <time>2020-08-18T07:14:08.751Z</time>
      </trkpt>
      <trkpt lat="36.542836" lon="-6.106927">
        <ele>63.028452</ele>
        <time>2020-08-18T07:14:11.765Z</time>
      </trkpt>
      <trkpt lat="36.542724" lon="-6.106944">
        <ele>62.620570</ele>
        <time>2020-08-18T07:14:15.749Z</time>
      </trkpt>
      <trkpt lat="36.542575" lon="-6.106937">
        <ele>62.081548</ele>
        <time>2020-08-18T07:14:20.756Z</time>
      </trkpt>
      <trkpt lat="36.542476" lon="-6.106914">
        <ele>61.717479</ele>
        <time>2020-08-18T07:14:22.745Z</time>
      </trkpt>
      <trkpt lat="36.542379" lon="-6.106900">
        <ele>61.364472</ele>
        <time>2020-08-18T07:14:24.745Z</time>
      </trkpt>
      <trkpt lat="36.542265" lon="-6.106908">
        <ele>60.951705</ele>
        <time>2020-08-18T07:14:27.749Z</time>
      </trkpt>
      <trkpt lat="36.542131" lon="-6.106876">
        <ele>61.466609</ele>
        <time>2020-08-18T07:14:30.746Z</time>
      </trkpt>
      <trkpt lat="36.542006" lon="-6.106877">
        <ele>62.295361</ele>
        <time>2020-08-18T07:14:33.755Z</time>
      </trkpt>
      <trkpt lat="36.541896" lon="-6.106868">
        <ele>63.026222</ele>
        <time>2020-08-18T07:14:36.755Z</time>
      </trkpt>
      <trkpt lat="36.541794" lon="-6.106855">
        <ele>63.706005</ele>
        <time>2020-08-18T07:14:39.768Z</time>
      </trkpt>
      <trkpt lat="36.541694" lon="-6.106861">
        <ele>64.369763</ele>
        <time>2020-08-18T07:14:42.766Z</time>
      </trkpt>
      <trkpt lat="36.541598" lon="-6.106863">
        <ele>65.006320</ele>
        <time>2020-08-18T07:14:45.746Z</time>
      </trkpt>
      <trkpt lat="36.541504" lon="-6.106850">
        <ele>65.633364</ele>
        <time>2020-08-18T07:14:48.746Z</time>
      </trkpt>
      <trkpt lat="36.541402" lon="-6.106840">
        <ele>66.311706</ele>
        <time>2020-08-18T07:14:51.760Z</time>
      </trkpt>
      <trkpt lat="36.541312" lon="-6.106849">
        <ele>66.910318</ele>
        <time>2020-08-18T07:14:54.750Z</time>
      </trkpt>
      <trkpt lat="36.541198" lon="-6.106854">
        <ele>67.666593</ele>
        <time>2020-08-18T07:15:00.780Z</time>
      </trkpt>
      <trkpt lat="36.541058" lon="-6.106842">
        <ele>68.596975</ele>
        <time>2020-08-18T07:15:02.770Z</time>
      </trkpt>
      <trkpt lat="36.540956" lon="-6.106836">
        <ele>69.273977</ele>
        <time>2020-08-18T07:15:05.747Z</time>
      </trkpt>
      <trkpt lat="36.540851" lon="-6.106852">
        <ele>69.975312</ele>
        <time>2020-08-18T07:15:10.757Z</time>
      </trkpt>
      <trkpt lat="36.540700" lon="-6.106836">
        <ele>70.980045</ele>
        <time>2020-08-18T07:15:13.778Z</time>
      </trkpt>
      <trkpt lat="36.540610" lon="-6.106783">
        <ele>71.640150</ele>
        <time>2020-08-18T07:15:15.746Z</time>
      </trkpt>
      <trkpt lat="36.540490" lon="-6.106770">
        <ele>72.438743</ele>
        <time>2020-08-18T07:15:19.747Z</time>
      </trkpt>
      <trkpt lat="36.540378" lon="-6.106790">
        <ele>72.551246</ele>
        <time>2020-08-18T07:15:22.740Z</time>
      </trkpt>
      <trkpt lat="36.540280" lon="-6.106784">
        <ele>72.279808</ele>
        <time>2020-08-18T07:15:25.762Z</time>
      </trkpt>
      <trkpt lat="36.540187" lon="-6.106792">
        <ele>72.021916</ele>
        <time>2020-08-18T07:15:28.741Z</time>
      </trkpt>
      <trkpt lat="36.540099" lon="-6.106816">
        <ele>71.772694</ele>
        <time>2020-08-18T07:15:31.750Z</time>
      </trkpt>
      <trkpt lat="36.540003" lon="-6.106833">
        <ele>71.504443</ele>
        <time>2020-08-18T07:15:34.752Z</time>
      </trkpt>
      <trkpt lat="36.539897" lon="-6.106851">
        <ele>71.208485</ele>
        <time>2020-08-18T07:15:37.754Z</time>
      </trkpt>
      <trkpt lat="36.539802" lon="-6.106880">
        <ele>70.937885</ele>
        <time>2020-08-18T07:15:40.770Z</time>
      </trkpt>
      <trkpt lat="36.539699" lon="-6.106896">
        <ele>70.650732</ele>
        <time>2020-08-18T07:15:43.753Z</time>
      </trkpt>
      <trkpt lat="36.539600" lon="-6.106926">
        <ele>70.368855</ele>
        <time>2020-08-18T07:15:46.748Z</time>
      </trkpt>
      <trkpt lat="36.539507" lon="-6.106956">
        <ele>70.103077</ele>
        <time>2020-08-18T07:15:49.742Z</time>
      </trkpt>
      <trkpt lat="36.539399" lon="-6.106997">
        <ele>69.790713</ele>
        <time>2020-08-18T07:15:53.742Z</time>
      </trkpt>
      <trkpt lat="36.539302" lon="-6.107052">
        <ele>69.495836</ele>
        <time>2020-08-18T07:15:57.759Z</time>
      </trkpt>
      <trkpt lat="36.539220" lon="-6.107104">
        <ele>69.241242</ele>
        <time>2020-08-18T07:16:00.751Z</time>
      </trkpt>
      <trkpt lat="36.539116" lon="-6.107156">
        <ele>68.931185</ele>
        <time>2020-08-18T07:16:03.756Z</time>
      </trkpt>
      <trkpt lat="36.538999" lon="-6.107208">
        <ele>68.587496</ele>
        <time>2020-08-18T07:16:06.747Z</time>
      </trkpt>
      <trkpt lat="36.538904" lon="-6.107233">
        <ele>68.318875</ele>
        <time>2020-08-18T07:16:09.739Z</time>
      </trkpt>
      <trkpt lat="36.538801" lon="-6.107257">
        <ele>68.028982</ele>
        <time>2020-08-18T07:16:12.747Z</time>
      </trkpt>
      <trkpt lat="36.538688" lon="-6.107251">
        <ele>67.751042</ele>
        <time>2020-08-18T07:16:15.744Z</time>
      </trkpt>
      <trkpt lat="36.538596" lon="-6.107233">
        <ele>67.684713</ele>
        <time>2020-08-18T07:16:18.757Z</time>
      </trkpt>
      <trkpt lat="36.538487" lon="-6.107298">
        <ele>67.598629</ele>
        <time>2020-08-18T07:16:22.733Z</time>
      </trkpt>
      <trkpt lat="36.538399" lon="-6.107359">
        <ele>67.526888</ele>
        <time>2020-08-18T07:16:26.745Z</time>
      </trkpt>
      <trkpt lat="36.538278" lon="-6.107375">
        <ele>67.440224</ele>
        <time>2020-08-18T07:16:30.758Z</time>
      </trkpt>
      <trkpt lat="36.538161" lon="-6.107381">
        <ele>67.356822</ele>
        <time>2020-08-18T07:16:33.746Z</time>
      </trkpt>
      <trkpt lat="36.538039" lon="-6.107384">
        <ele>67.269914</ele>
        <time>2020-08-18T07:16:37.748Z</time>
      </trkpt>
      <trkpt lat="36.537932" lon="-6.107403">
        <ele>67.192934</ele>
        <time>2020-08-18T07:16:40.744Z</time>
      </trkpt>
      <trkpt lat="36.537836" lon="-6.107436">
        <ele>67.122000</ele>
        <time>2020-08-18T07:16:43.740Z</time>
      </trkpt>
      <trkpt lat="36.537749" lon="-6.107511">
        <ele>67.046624</ele>
        <time>2020-08-18T07:16:47.745Z</time>
      </trkpt>
      <trkpt lat="36.537669" lon="-6.107571">
        <ele>66.980100</ele>
        <time>2020-08-18T07:16:50.767Z</time>
      </trkpt>
      <trkpt lat="36.537579" lon="-6.107552">
        <ele>66.915084</ele>
        <time>2020-08-18T07:16:53.758Z</time>
      </trkpt>
      <trkpt lat="36.537474" lon="-6.107523">
        <ele>66.838481</ele>
        <time>2020-08-18T07:16:56.740Z</time>
      </trkpt>
      <trkpt lat="36.537367" lon="-6.107482">
        <ele>66.758743</ele>
        <time>2020-08-18T07:16:59.739Z</time>
      </trkpt>
      <trkpt lat="36.537262" lon="-6.107468">
        <ele>66.683531</ele>
        <time>2020-08-18T07:17:02.754Z</time>
      </trkpt>
      <trkpt lat="36.537147" lon="-6.107482">
        <ele>66.601234</ele>
        <time>2020-08-18T07:17:06.748Z</time>
      </trkpt>
      <trkpt lat="36.537048" lon="-6.107456">
        <ele>66.529171</ele>
        <time>2020-08-18T07:17:09.756Z</time>
      </trkpt>
      <trkpt lat="36.536929" lon="-6.107414">
        <ele>66.512657</ele>
        <time>2020-08-18T07:17:12.745Z</time>
      </trkpt>
      <trkpt lat="36.536807" lon="-6.107386">
        <ele>66.578402</ele>
        <time>2020-08-18T07:17:15.748Z</time>
      </trkpt>
      <trkpt lat="36.536695" lon="-6.107404">
        <ele>66.638249</ele>
        <time>2020-08-18T07:17:18.758Z</time>
      </trkpt>
      <trkpt lat="36.536608" lon="-6.107443">
        <ele>66.687255</ele>
        <time>2020-08-18T07:17:21.757Z</time>
      </trkpt>
      <trkpt lat="36.536513" lon="-6.107527">
        <ele>66.749013</ele>
        <time>2020-08-18T07:17:25.760Z</time>
      </trkpt>
      <trkpt lat="36.536410" lon="-6.107555">
        <ele>66.804885</ele>
        <time>2020-08-18T07:17:28.745Z</time>
      </trkpt>
      <trkpt lat="36.536302" lon="-6.107608">
        <ele>66.866408</ele>
        <time>2020-08-18T07:17:31.740Z</time>
      </trkpt>
      <trkpt lat="36.536206" lon="-6.107690">
        <ele>66.928113</ele>
        <time>2020-08-18T07:17:34.767Z</time>
      </trkpt>
      <trkpt lat="36.536102" lon="-6.107757">
        <ele>66.990175</ele>
        <time>2020-08-18T07:17:37.756Z</time>
      </trkpt>
      <trkpt lat="36.535996" lon="-6.107801">
        <ele>67.049392</ele>
        <time>2020-08-18T07:17:40.762Z</time>
      </trkpt>
      <trkpt lat="36.535917" lon="-6.107883">
        <ele>67.103907</ele>
        <time>2020-08-18T07:17:43.769Z</time>
      </trkpt>
      <trkpt lat="36.535866" lon="-6.107977">
        <ele>67.152204</ele>
        <time>2020-08-18T07:17:46.767Z</time>
      </trkpt>
      <trkpt lat="36.535813" lon="-6.108105">
        <ele>67.213519</ele>
        <time>2020-08-18T07:17:50.731Z</time>
      </trkpt>
      <trkpt lat="36.535732" lon="-6.108184">
        <ele>67.268056</ele>
        <time>2020-08-18T07:17:53.749Z</time>
      </trkpt>
      <trkpt lat="36.535625" lon="-6.108253">
        <ele>67.331921</ele>
        <time>2020-08-18T07:17:56.728Z</time>
      </trkpt>
      <trkpt lat="36.535539" lon="-6.108305">
        <ele>67.382591</ele>
        <time>2020-08-18T07:17:59.753Z</time>
      </trkpt>
      <trkpt lat="36.535453" lon="-6.108365">
        <ele>67.434840</ele>
        <time>2020-08-18T07:18:02.765Z</time>
      </trkpt>
      <trkpt lat="36.535356" lon="-6.108403">
        <ele>67.405138</ele>
        <time>2020-08-18T07:18:05.780Z</time>
      </trkpt>
      <trkpt lat="36.535240" lon="-6.108420">
        <ele>67.370167</ele>
        <time>2020-08-18T07:18:08.758Z</time>
      </trkpt>
      <trkpt lat="36.535129" lon="-6.108437">
        <ele>67.336682</ele>
        <time>2020-08-18T07:18:11.755Z</time>
      </trkpt>
      <trkpt lat="36.535030" lon="-6.108462">
        <ele>67.306436</ele>
        <time>2020-08-18T07:18:14.753Z</time>
      </trkpt>
      <trkpt lat="36.534927" lon="-6.108501">
        <ele>67.274202</ele>
        <time>2020-08-18T07:18:17.768Z</time>
      </trkpt>
      <trkpt lat="36.534834" lon="-6.108516">
        <ele>67.246124</ele>
        <time>2020-08-18T07:18:20.767Z</time>
      </trkpt>
      <trkpt lat="36.534732" lon="-6.108522">
        <ele>67.215550</ele>
        <time>2020-08-18T07:18:23.762Z</time>
      </trkpt>
      <trkpt lat="36.534627" lon="-6.108540">
        <ele>67.183816</ele>
        <time>2020-08-18T07:18:26.746Z</time>
      </trkpt>
      <trkpt lat="36.534517" lon="-6.108577">
        <ele>67.149699</ele>
        <time>2020-08-18T07:18:29.756Z</time>
      </trkpt>
      <trkpt lat="36.534390" lon="-6.108592">
        <ele>67.111503</ele>
        <time>2020-08-18T07:18:32.756Z</time>
      </trkpt>
      <trkpt lat="36.534269" lon="-6.108596">
        <ele>67.075262</ele>
        <time>2020-08-18T07:18:35.752Z</time>
      </trkpt>
      <trkpt lat="36.534159" lon="-6.108622">
        <ele>67.041739</ele>
        <time>2020-08-18T07:18:38.745Z</time>
      </trkpt>
      <trkpt lat="36.534067" lon="-6.108695">
        <ele>67.009071</ele>
        <time>2020-08-18T07:18:41.741Z</time>
      </trkpt>
      <trkpt lat="36.533975" lon="-6.108780">
        <ele>66.974765</ele>
        <time>2020-08-18T07:18:44.750Z</time>
      </trkpt>
      <trkpt lat="36.533891" lon="-6.108842">
        <ele>66.945524</ele>
        <time>2020-08-18T07:18:47.756Z</time>
      </trkpt>
      <trkpt lat="36.533801" lon="-6.108890">
        <ele>66.916207</ele>
        <time>2020-08-18T07:18:50.765Z</time>
      </trkpt>
      <trkpt lat="36.533706" lon="-6.108936">
        <ele>66.980876</ele>
        <time>2020-08-18T07:18:53.741Z</time>
      </trkpt>
      <trkpt lat="36.533602" lon="-6.108950">
        <ele>67.218113</ele>
        <time>2020-08-18T07:18:56.744Z</time>
      </trkpt>
      <trkpt lat="36.533506" lon="-6.108955">
        <ele>67.436021</ele>
        <time>2020-08-18T07:18:59.753Z</time>
      </trkpt>
      <trkpt lat="36.533414" lon="-6.108967">
        <ele>67.645810</ele>
        <time>2020-08-18T07:19:02.750Z</time>
      </trkpt>
      <trkpt lat="36.533302" lon="-6.108947">
        <ele>67.902416</ele>
        <time>2020-08-18T07:19:05.742Z</time>
      </trkpt>
      <trkpt lat="36.533180" lon="-6.108895">
        <ele>68.194876</ele>
        <time>2020-08-18T07:19:08.757Z</time>
      </trkpt>
      <trkpt lat="36.533064" lon="-6.108852">
        <ele>68.469373</ele>
        <time>2020-08-18T07:19:11.747Z</time>
      </trkpt>
      <trkpt lat="36.532952" lon="-6.108796">
        <ele>68.743110</ele>
        <time>2020-08-18T07:19:14.746Z</time>
      </trkpt>
      <trkpt lat="36.532835" lon="-6.108732">
        <ele>69.032953</ele>
        <time>2020-08-18T07:19:18.775Z</time>
      </trkpt>
      <trkpt lat="36.532731" lon="-6.108681">
        <ele>69.286463</ele>
        <time>2020-08-18T07:19:21.746Z</time>
      </trkpt>
      <trkpt lat="36.532612" lon="-6.108691">
        <ele>69.556957</ele>
        <time>2020-08-18T07:19:26.750Z</time>
      </trkpt>
      <trkpt lat="36.532524" lon="-6.108719">
        <ele>69.762951</ele>
        <time>2020-08-18T07:19:29.759Z</time>
      </trkpt>
      <trkpt lat="36.532437" lon="-6.108763">
        <ele>69.975928</ele>
        <time>2020-08-18T07:19:32.781Z</time>
      </trkpt>
      <trkpt lat="36.532326" lon="-6.108829">
        <ele>70.254920</ele>
        <time>2020-08-18T07:19:35.782Z</time>
      </trkpt>
      <trkpt lat="36.532240" lon="-6.108864">
        <ele>70.460122</ele>
        <time>2020-08-18T07:19:37.770Z</time>
      </trkpt>
      <trkpt lat="36.532128" lon="-6.108866">
        <ele>70.714152</ele>
        <time>2020-08-18T07:19:40.756Z</time>
      </trkpt>
      <trkpt lat="36.532039" lon="-6.108815">
        <ele>70.936364</ele>
        <time>2020-08-18T07:19:42.727Z</time>
      </trkpt>
      <trkpt lat="36.531944" lon="-6.108799">
        <ele>71.105145</ele>
        <time>2020-08-18T07:19:45.744Z</time>
      </trkpt>
      <trkpt lat="36.531839" lon="-6.108748">
        <ele>71.290871</ele>
        <time>2020-08-18T07:19:49.756Z</time>
      </trkpt>
      <trkpt lat="36.531742" lon="-6.108781">
        <ele>71.456569</ele>
        <time>2020-08-18T07:19:54.748Z</time>
      </trkpt>
      <trkpt lat="36.531641" lon="-6.108749">
        <ele>71.628303</ele>
        <time>2020-08-18T07:19:57.747Z</time>
      </trkpt>
      <trkpt lat="36.531524" lon="-6.108774">
        <ele>71.823913</ele>
        <time>2020-08-18T07:20:01.727Z</time>
      </trkpt>
      <trkpt lat="36.531419" lon="-6.108825">
        <ele>72.009639</ele>
        <time>2020-08-18T07:20:05.746Z</time>
      </trkpt>
      <trkpt lat="36.531299" lon="-6.108836">
        <ele>72.207908</ele>
        <time>2020-08-18T07:20:09.737Z</time>
      </trkpt>
      <trkpt lat="36.531195" lon="-6.108850">
        <ele>72.380275</ele>
        <time>2020-08-18T07:20:12.747Z</time>
      </trkpt>
      <trkpt lat="36.531102" lon="-6.108822">
        <ele>72.537939</ele>
        <time>2020-08-18T07:20:16.739Z</time>
      </trkpt>
      <trkpt lat="36.531026" lon="-6.108738">
        <ele>72.705427</ele>
        <time>2020-08-18T07:20:19.731Z</time>
      </trkpt>
      <trkpt lat="36.530955" lon="-6.108626">
        <ele>72.894313</ele>
        <time>2020-08-18T07:20:23.743Z</time>
      </trkpt>
      <trkpt lat="36.530872" lon="-6.108576">
        <ele>73.046259</ele>
        <time>2020-08-18T07:20:27.744Z</time>
      </trkpt>
      <trkpt lat="36.530774" lon="-6.108613">
        <ele>73.215008</ele>
        <time>2020-08-18T07:20:31.736Z</time>
      </trkpt>
      <trkpt lat="36.530679" lon="-6.108671">
        <ele>73.389368</ele>
        <time>2020-08-18T07:20:36.746Z</time>
      </trkpt>
      <trkpt lat="36.530562" lon="-6.108715">
        <ele>73.590768</ele>
        <time>2020-08-18T07:20:40.761Z</time>
      </trkpt>
      <trkpt lat="36.530451" lon="-6.108687">
        <ele>73.777390</ele>
        <time>2020-08-18T07:20:43.747Z</time>
      </trkpt>
      <trkpt lat="36.530344" lon="-6.108699">
        <ele>73.975718</ele>
        <time>2020-08-18T07:20:46.757Z</time>
      </trkpt>
      <trkpt lat="36.530253" lon="-6.108732">
        <ele>74.357567</ele>
        <time>2020-08-18T07:20:49.742Z</time>
      </trkpt>
      <trkpt lat="36.530151" lon="-6.108818">
        <ele>74.853908</ele>
        <time>2020-08-18T07:20:53.737Z</time>
      </trkpt>
      <trkpt lat="36.530041" lon="-6.108857">
        <ele>75.314686</ele>
        <time>2020-08-18T07:20:56.754Z</time>
      </trkpt>
      <trkpt lat="36.529914" lon="-6.108890">
        <ele>75.837350</ele>
        <time>2020-08-18T07:20:59.736Z</time>
      </trkpt>
      <trkpt lat="36.529800" lon="-6.108932">
        <ele>76.316311</ele>
        <time>2020-08-18T07:21:02.751Z</time>
      </trkpt>
      <trkpt lat="36.529695" lon="-6.108979">
        <ele>76.765843</ele>
        <time>2020-08-18T07:21:05.739Z</time>
      </trkpt>
      <trkpt lat="36.529597" lon="-6.109027">
        <ele>77.190121</ele>
        <time>2020-08-18T07:21:08.753Z</time>
      </trkpt>
      <trkpt lat="36.529502" lon="-6.109062">
        <ele>77.589256</ele>
        <time>2020-08-18T07:21:11.754Z</time>
      </trkpt>
      <trkpt lat="36.529394" lon="-6.109114">
        <ele>78.055772</ele>
        <time>2020-08-18T07:21:15.745Z</time>
      </trkpt>
      <trkpt lat="36.529290" lon="-6.109159">
        <ele>78.499347</ele>
        <time>2020-08-18T07:21:19.760Z</time>
      </trkpt>
      <trkpt lat="36.529182" lon="-6.109199">
        <ele>78.953294</ele>
        <time>2020-08-18T07:21:22.754Z</time>
      </trkpt>
      <trkpt lat="36.529090" lon="-6.109295">
        <ele>79.436972</ele>
        <time>2020-08-18T07:21:25.747Z</time>
      </trkpt>
      <trkpt lat="36.529005" lon="-6.109375">
        <ele>79.866305</ele>
        <time>2020-08-18T07:21:28.756Z</time>
      </trkpt>
      <trkpt lat="36.528909" lon="-6.109453">
        <ele>80.328179</ele>
        <time>2020-08-18T07:21:31.743Z</time>
      </trkpt>
      <trkpt lat="36.528814" lon="-6.109512">
        <ele>80.755906</ele>
        <time>2020-08-18T07:21:34.742Z</time>
      </trkpt>
      <trkpt lat="36.528716" lon="-6.109556">
        <ele>81.175616</ele>
        <time>2020-08-18T07:21:37.740Z</time>
      </trkpt>
      <trkpt lat="36.528613" lon="-6.109615">
        <ele>81.210439</ele>
        <time>2020-08-18T07:21:41.744Z</time>
      </trkpt>
      <trkpt lat="36.528521" lon="-6.109652">
        <ele>81.232041</ele>
        <time>2020-08-18T07:21:44.736Z</time>
      </trkpt>
      <trkpt lat="36.528433" lon="-6.109716">
        <ele>81.254815</ele>
        <time>2020-08-18T07:21:47.762Z</time>
      </trkpt>
      <trkpt lat="36.528347" lon="-6.109769">
        <ele>81.276257</ele>
        <time>2020-08-18T07:21:50.750Z</time>
      </trkpt>
      <trkpt lat="36.528251" lon="-6.109814">
        <ele>81.299178</ele>
        <time>2020-08-18T07:21:53.744Z</time>
      </trkpt>
      <trkpt lat="36.528142" lon="-6.109869">
        <ele>81.325458</ele>
        <time>2020-08-18T07:21:56.756Z</time>
      </trkpt>
      <trkpt lat="36.528052" lon="-6.109907">
        <ele>81.346692</ele>
        <time>2020-08-18T07:21:58.765Z</time>
      </trkpt>
      <trkpt lat="36.527937" lon="-6.110068">
        <ele>81.385368</ele>
        <time>2020-08-18T07:22:00.740Z</time>
      </trkpt>
      <trkpt lat="36.527796" lon="-6.110058">
        <ele>81.416923</ele>
        <time>2020-08-18T07:22:03.756Z</time>
      </trkpt>
      <trkpt lat="36.527681" lon="-6.110076">
        <ele>81.442820</ele>
        <time>2020-08-18T07:22:06.753Z</time>
      </trkpt>
      <trkpt lat="36.527572" lon="-6.110111">
        <ele>81.467972</ele>
        <time>2020-08-18T07:22:09.746Z</time>
      </trkpt>
      <trkpt lat="36.527472" lon="-6.110165">
        <ele>81.492328</ele>
        <time>2020-08-18T07:22:13.767Z</time>
      </trkpt>
      <trkpt lat="36.527382" lon="-6.110245">
        <ele>81.517040</ele>
        <time>2020-08-18T07:22:17.758Z</time>
      </trkpt>
      <trkpt lat="36.527275" lon="-6.110284">
        <ele>81.541951</ele>
        <time>2020-08-18T07:22:20.756Z</time>
      </trkpt>
      <trkpt lat="36.527164" lon="-6.110290">
        <ele>81.566776</ele>
        <time>2020-08-18T07:22:23.769Z</time>
      </trkpt>
      <trkpt lat="36.527073" lon="-6.110332">
        <ele>81.591514</ele>
        <time>2020-08-18T07:22:26.762Z</time>
      </trkpt>
      <trkpt lat="36.526984" lon="-6.110375">
        <ele>81.683232</ele>
        <time>2020-08-18T07:22:29.755Z</time>
      </trkpt>
      <trkpt lat="36.526887" lon="-6.110419">
        <ele>81.782415</ele>
        <time>2020-08-18T07:22:32.756Z</time>
      </trkpt>
      <trkpt lat="36.526806" lon="-6.110499">
        <ele>81.881759</ele>
        <time>2020-08-18T07:22:35.755Z</time>
      </trkpt>
      <trkpt lat="36.526734" lon="-6.110571">
        <ele>81.970493</ele>
        <time>2020-08-18T07:22:38.740Z</time>
      </trkpt>
      <trkpt lat="36.526660" lon="-6.110649">
        <ele>82.063657</ele>
        <time>2020-08-18T07:22:41.737Z</time>
      </trkpt>
      <trkpt lat="36.526586" lon="-6.110755">
        <ele>82.172054</ele>
        <time>2020-08-18T07:22:44.741Z</time>
      </trkpt>
      <trkpt lat="36.526502" lon="-6.110850">
        <ele>82.281097</ele>
        <time>2020-08-18T07:22:47.738Z</time>
      </trkpt>
      <trkpt lat="36.526397" lon="-6.110906">
        <ele>82.390842</ele>
        <time>2020-08-18T07:22:51.733Z</time>
      </trkpt>
      <trkpt lat="36.526301" lon="-6.110922">
        <ele>82.483890</ele>
        <time>2020-08-18T07:22:54.745Z</time>
      </trkpt>
      <trkpt lat="36.526198" lon="-6.110953">
        <ele>82.585692</ele>
        <time>2020-08-18T07:22:57.740Z</time>
      </trkpt>
      <trkpt lat="36.526113" lon="-6.111004">
        <ele>82.676346</ele>
        <time>2020-08-18T07:22:59.759Z</time>
      </trkpt>
      <trkpt lat="36.526016" lon="-6.111062">
        <ele>82.779730</ele>
        <time>2020-08-18T07:23:01.756Z</time>
      </trkpt>
      <trkpt lat="36.525927" lon="-6.111112">
        <ele>82.873539</ele>
        <time>2020-08-18T07:23:03.753Z</time>
      </trkpt>
      <trkpt lat="36.525838" lon="-6.111223">
        <ele>82.994589</ele>
        <time>2020-08-18T07:23:06.735Z</time>
      </trkpt>
      <trkpt lat="36.525738" lon="-6.111318">
        <ele>83.115451</ele>
        <time>2020-08-18T07:23:09.751Z</time>
      </trkpt>
      <trkpt lat="36.525646" lon="-6.111322">
        <ele>83.203887</ele>
        <time>2020-08-18T07:23:11.743Z</time>
      </trkpt>
      <trkpt lat="36.525551" lon="-6.111304">
        <ele>83.296203</ele>
        <time>2020-08-18T07:23:13.741Z</time>
      </trkpt>
      <trkpt lat="36.525472" lon="-6.111397">
        <ele>83.760063</ele>
        <time>2020-08-18T07:23:17.743Z</time>
      </trkpt>
      <trkpt lat="36.525414" lon="-6.111502">
        <ele>84.273205</ele>
        <time>2020-08-18T07:23:22.764Z</time>
      </trkpt>
      <trkpt lat="36.525356" lon="-6.111604">
        <ele>84.776437</ele>
        <time>2020-08-18T07:23:26.740Z</time>
      </trkpt>
      <trkpt lat="36.525287" lon="-6.111689">
        <ele>85.263026</ele>
        <time>2020-08-18T07:23:29.759Z</time>
      </trkpt>
      <trkpt lat="36.525208" lon="-6.111754">
        <ele>85.737666</ele>
        <time>2020-08-18T07:23:32.753Z</time>
      </trkpt>
      <trkpt lat="36.525135" lon="-6.111840">
        <ele>86.241461</ele>
        <time>2020-08-18T07:23:36.779Z</time>
      </trkpt>
      <trkpt lat="36.525060" lon="-6.111911">
        <ele>86.713740</ele>
        <time>2020-08-18T07:23:39.740Z</time>
      </trkpt>
      <trkpt lat="36.524975" lon="-6.111961">
        <ele>87.184929</ele>
        <time>2020-08-18T07:23:44.732Z</time>
      </trkpt>
      <trkpt lat="36.524840" lon="-6.112037">
        <ele>87.927521</ele>
        <time>2020-08-18T07:23:47.737Z</time>
      </trkpt>
      <trkpt lat="36.524742" lon="-6.112061">
        <ele>88.428087</ele>
        <time>2020-08-18T07:23:49.739Z</time>
      </trkpt>
      <trkpt lat="36.524641" lon="-6.112075">
        <ele>88.937398</ele>
        <time>2020-08-18T07:23:53.760Z</time>
      </trkpt>
      <trkpt lat="36.524563" lon="-6.112130">
        <ele>89.386705</ele>
        <time>2020-08-18T07:23:58.750Z</time>
      </trkpt>
      <trkpt lat="36.524477" lon="-6.112172">
        <ele>89.849714</ele>
        <time>2020-08-18T07:24:07.744Z</time>
      </trkpt>
      <trkpt lat="36.523436" lon="-6.112639">
        <ele>93.041255</ele>
        <time>2020-08-18T07:24:35.754Z</time>
      </trkpt>
      <trkpt lat="36.523366" lon="-6.112733">
        <ele>93.161047</ele>
        <time>2020-08-18T07:24:39.740Z</time>
      </trkpt>
      <trkpt lat="36.523269" lon="-6.112776">
        <ele>93.280822</ele>
        <time>2020-08-18T07:24:44.767Z</time>
      </trkpt>
      <trkpt lat="36.523190" lon="-6.112834">
        <ele>93.387515</ele>
        <time>2020-08-18T07:24:47.752Z</time>
      </trkpt>
      <trkpt lat="36.523102" lon="-6.112877">
        <ele>93.497485</ele>
        <time>2020-08-18T07:24:50.785Z</time>
      </trkpt>
      <trkpt lat="36.523007" lon="-6.112888">
        <ele>93.608465</ele>
        <time>2020-08-18T07:24:53.779Z</time>
      </trkpt>
      <trkpt lat="36.522901" lon="-6.112883">
        <ele>93.731851</ele>
        <time>2020-08-18T07:24:58.751Z</time>
      </trkpt>
      <trkpt lat="36.522812" lon="-6.112861">
        <ele>93.837398</ele>
        <time>2020-08-18T07:25:02.771Z</time>
      </trkpt>
      <trkpt lat="36.522690" lon="-6.112838">
        <ele>93.980926</ele>
        <time>2020-08-18T07:25:05.751Z</time>
      </trkpt>
      <trkpt lat="36.522555" lon="-6.112827">
        <ele>94.138292</ele>
        <time>2020-08-18T07:25:08.759Z</time>
      </trkpt>
      <trkpt lat="36.522437" lon="-6.112785">
        <ele>94.281053</ele>
        <time>2020-08-18T07:25:10.742Z</time>
      </trkpt>
      <trkpt lat="36.522342" lon="-6.112821">
        <ele>94.396566</ele>
        <time>2020-08-18T07:25:16.759Z</time>
      </trkpt>
      <trkpt lat="36.522258" lon="-6.112864">
        <ele>95.036560</ele>
        <time>2020-08-18T07:25:18.736Z</time>
      </trkpt>
      <trkpt lat="36.522166" lon="-6.112870">
        <ele>95.856113</ele>
        <time>2020-08-18T07:25:20.751Z</time>
      </trkpt>
      <trkpt lat="36.522073" lon="-6.112855">
        <ele>96.690359</ele>
        <time>2020-08-18T07:25:22.735Z</time>
      </trkpt>
      <trkpt lat="36.521941" lon="-6.112825">
        <ele>97.884053</ele>
        <time>2020-08-18T07:25:25.759Z</time>
      </trkpt>
      <trkpt lat="36.521834" lon="-6.112875">
        <ele>98.900826</ele>
        <time>2020-08-18T07:25:28.757Z</time>
      </trkpt>
      <trkpt lat="36.521726" lon="-6.112862">
        <ele>99.866075</ele>
        <time>2020-08-18T07:25:31.727Z</time>
      </trkpt>
      <trkpt lat="36.521613" lon="-6.112823">
        <ele>100.909270</ele>
        <time>2020-08-18T07:25:34.747Z</time>
      </trkpt>
      <trkpt lat="36.521473" lon="-6.112780">
        <ele>102.192084</ele>
        <time>2020-08-18T07:25:37.753Z</time>
      </trkpt>
      <trkpt lat="36.521354" lon="-6.112746">
        <ele>103.278252</ele>
        <time>2020-08-18T07:25:39.746Z</time>
      </trkpt>
      <trkpt lat="36.521252" lon="-6.112752">
        <ele>104.186655</ele>
        <time>2020-08-18T07:25:42.744Z</time>
      </trkpt>
      <trkpt lat="36.521137" lon="-6.112735">
        <ele>105.216885</ele>
        <time>2020-08-18T07:25:44.741Z</time>
      </trkpt>
      <trkpt lat="36.521007" lon="-6.112744">
        <ele>106.375150</ele>
        <time>2020-08-18T07:25:46.747Z</time>
      </trkpt>
      <trkpt lat="36.520892" lon="-6.112724">
        <ele>107.408130</ele>
        <time>2020-08-18T07:25:48.755Z</time>
      </trkpt>
      <trkpt lat="36.520797" lon="-6.112691">
        <ele>108.285560</ele>
        <time>2020-08-18T07:25:50.745Z</time>
      </trkpt>
      <trkpt lat="36.520671" lon="-6.112708">
        <ele>109.413022</ele>
        <time>2020-08-18T07:25:53.750Z</time>
      </trkpt>
      <trkpt lat="36.520584" lon="-6.112745">
        <ele>110.230927</ele>
        <time>2020-08-18T07:25:55.733Z</time>
      </trkpt>
      <trkpt lat="36.520471" lon="-6.112768">
        <ele>110.220103</ele>
        <time>2020-08-18T07:25:57.744Z</time>
      </trkpt>
      <trkpt lat="36.520379" lon="-6.112774">
        <ele>110.019510</ele>
        <time>2020-08-18T07:25:59.748Z</time>
      </trkpt>
      <trkpt lat="36.520286" lon="-6.112800">
        <ele>109.811966</ele>
        <time>2020-08-18T07:26:01.748Z</time>
      </trkpt>
      <trkpt lat="36.520144" lon="-6.112798">
        <ele>109.502760</ele>
        <time>2020-08-18T07:26:03.759Z</time>
      </trkpt>
      <trkpt lat="36.520046" lon="-6.112782">
        <ele>109.287548</ele>
        <time>2020-08-18T07:26:05.740Z</time>
      </trkpt>
      <trkpt lat="36.519898" lon="-6.112743">
        <ele>108.958150</ele>
        <time>2020-08-18T07:26:08.755Z</time>
      </trkpt>
      <trkpt lat="36.519775" lon="-6.112782">
        <ele>108.681775</ele>
        <time>2020-08-18T07:26:11.738Z</time>
      </trkpt>
      <trkpt lat="36.519672" lon="-6.112817">
        <ele>108.449294</ele>
        <time>2020-08-18T07:26:13.749Z</time>
      </trkpt>
      <trkpt lat="36.519546" lon="-6.112781">
        <ele>108.167806</ele>
        <time>2020-08-18T07:26:15.764Z</time>
      </trkpt>
      <trkpt lat="36.519485" lon="-6.112886">
        <ele>107.941091</ele>
        <time>2020-08-18T07:26:20.778Z</time>
      </trkpt>
      <trkpt lat="36.519146" lon="-6.112966">
        <ele>107.189805</ele>
        <time>2020-08-18T07:26:24.737Z</time>
      </trkpt>
      <trkpt lat="36.519006" lon="-6.112882">
        <ele>106.851385</ele>
        <time>2020-08-18T07:26:26.739Z</time>
      </trkpt>
      <trkpt lat="36.518891" lon="-6.112849">
        <ele>106.594415</ele>
        <time>2020-08-18T07:26:28.778Z</time>
      </trkpt>
      <trkpt lat="36.518770" lon="-6.112846">
        <ele>106.257175</ele>
        <time>2020-08-18T07:26:31.770Z</time>
      </trkpt>
      <trkpt lat="36.518664" lon="-6.112839">
        <ele>105.928847</ele>
        <time>2020-08-18T07:26:33.770Z</time>
      </trkpt>
      <trkpt lat="36.518437" lon="-6.112868">
        <ele>105.223028</ele>
        <time>2020-08-18T07:26:34.907Z</time>
      </trkpt>
      <trkpt lat="36.518330" lon="-6.112870">
        <ele>104.892032</ele>
        <time>2020-08-18T07:26:36.917Z</time>
      </trkpt>
      <trkpt lat="36.518232" lon="-6.112889">
        <ele>104.585253</ele>
        <time>2020-08-18T07:26:39.889Z</time>
      </trkpt>
      <trkpt lat="36.518119" lon="-6.112912">
        <ele>104.231090</ele>
        <time>2020-08-18T07:26:42.934Z</time>
      </trkpt>
      <trkpt lat="36.517995" lon="-6.112945">
        <ele>103.838875</ele>
        <time>2020-08-18T07:26:45.927Z</time>
      </trkpt>
      <trkpt lat="36.517896" lon="-6.112947">
        <ele>103.532620</ele>
        <time>2020-08-18T07:26:47.905Z</time>
      </trkpt>
      <trkpt lat="36.517764" lon="-6.112980">
        <ele>103.116174</ele>
        <time>2020-08-18T07:26:50.917Z</time>
      </trkpt>
      <trkpt lat="36.517660" lon="-6.113088">
        <ele>102.697184</ele>
        <time>2020-08-18T07:26:52.928Z</time>
      </trkpt>
      <trkpt lat="36.517565" lon="-6.113140">
        <ele>102.376166</ele>
        <time>2020-08-18T07:26:56.918Z</time>
      </trkpt>
      <trkpt lat="36.517462" lon="-6.113194">
        <ele>102.030455</ele>
        <time>2020-08-18T07:26:59.913Z</time>
      </trkpt>
      <trkpt lat="36.517345" lon="-6.113221">
        <ele>101.662394</ele>
        <time>2020-08-18T07:27:01.907Z</time>
      </trkpt>
      <trkpt lat="36.517210" lon="-6.113246">
        <ele>101.240229</ele>
        <time>2020-08-18T07:27:04.903Z</time>
      </trkpt>
      <trkpt lat="36.517116" lon="-6.113230">
        <ele>100.946773</ele>
        <time>2020-08-18T07:27:06.907Z</time>
      </trkpt>
      <trkpt lat="36.517023" lon="-6.113224">
        <ele>100.870718</ele>
        <time>2020-08-18T07:27:10.901Z</time>
      </trkpt>
      <trkpt lat="36.516862" lon="-6.113172">
        <ele>100.740076</ele>
        <time>2020-08-18T07:27:13.904Z</time>
      </trkpt>
      <trkpt lat="36.516750" lon="-6.113190">
        <ele>100.651379</ele>
        <time>2020-08-18T07:27:15.909Z</time>
      </trkpt>
      <trkpt lat="36.516605" lon="-6.113180">
        <ele>100.537320</ele>
        <time>2020-08-18T07:27:18.913Z</time>
      </trkpt>
      <trkpt lat="36.516499" lon="-6.113185">
        <ele>100.454006</ele>
        <time>2020-08-18T07:27:22.899Z</time>
      </trkpt>
      <trkpt lat="36.516406" lon="-6.113186">
        <ele>100.380960</ele>
        <time>2020-08-18T07:27:24.925Z</time>
      </trkpt>
      <trkpt lat="36.516281" lon="-6.113175">
        <ele>100.282539</ele>
        <time>2020-08-18T07:27:26.919Z</time>
      </trkpt>
      <trkpt lat="36.516138" lon="-6.113170">
        <ele>100.170180</ele>
        <time>2020-08-18T07:27:28.899Z</time>
      </trkpt>
      <trkpt lat="36.516034" lon="-6.113187">
        <ele>100.087796</ele>
        <time>2020-08-18T07:27:30.911Z</time>
      </trkpt>
      <trkpt lat="36.515949" lon="-6.113226">
        <ele>100.016642</ele>
        <time>2020-08-18T07:27:34.924Z</time>
      </trkpt>
      <trkpt lat="36.515822" lon="-6.113288">
        <ele>99.909491</ele>
        <time>2020-08-18T07:27:37.926Z</time>
      </trkpt>
      <trkpt lat="36.515641" lon="-6.113246">
        <ele>99.764881</ele>
        <time>2020-08-18T07:27:38.894Z</time>
      </trkpt>
      <trkpt lat="36.515568" lon="-6.113323">
        <ele>99.689716</ele>
        <time>2020-08-18T07:27:40.906Z</time>
      </trkpt>
      <trkpt lat="36.515475" lon="-6.113352">
        <ele>99.614414</ele>
        <time>2020-08-18T07:27:42.913Z</time>
      </trkpt>
      <trkpt lat="36.515380" lon="-6.113444">
        <ele>99.505612</ele>
        <time>2020-08-18T07:27:47.921Z</time>
      </trkpt>
      <trkpt lat="36.515202" lon="-6.113387">
        <ele>99.162073</ele>
        <time>2020-08-18T07:27:49.882Z</time>
      </trkpt>
      <trkpt lat="36.515112" lon="-6.113367">
        <ele>98.991193</ele>
        <time>2020-08-18T07:27:51.891Z</time>
      </trkpt>
      <trkpt lat="36.515008" lon="-6.113353">
        <ele>98.795674</ele>
        <time>2020-08-18T07:27:53.898Z</time>
      </trkpt>
      <trkpt lat="36.514916" lon="-6.113331">
        <ele>98.620571</ele>
        <time>2020-08-18T07:27:58.923Z</time>
      </trkpt>
      <trkpt lat="36.514735" lon="-6.113410">
        <ele>98.262055</ele>
        <time>2020-08-18T07:28:00.908Z</time>
      </trkpt>
      <trkpt lat="36.514648" lon="-6.113451">
        <ele>98.088172</ele>
        <time>2020-08-18T07:28:02.892Z</time>
      </trkpt>
      <trkpt lat="36.514543" lon="-6.113502">
        <ele>97.877494</ele>
        <time>2020-08-18T07:28:07.572Z</time>
      </trkpt>
      <trkpt lat="36.514502" lon="-6.113614">
        <ele>97.692618</ele>
        <time>2020-08-18T07:28:11.597Z</time>
      </trkpt>
      <trkpt lat="36.514306" lon="-6.113619">
        <ele>97.326200</ele>
        <time>2020-08-18T07:28:15.591Z</time>
      </trkpt>
      <trkpt lat="36.514219" lon="-6.113651">
        <ele>97.156633</ele>
        <time>2020-08-18T07:28:17.572Z</time>
      </trkpt>
      <trkpt lat="36.514100" lon="-6.113689">
        <ele>96.927003</ele>
        <time>2020-08-18T07:28:23.588Z</time>
      </trkpt>
      <trkpt lat="36.513975" lon="-6.113729">
        <ele>96.685764</ele>
        <time>2020-08-18T07:28:25.575Z</time>
      </trkpt>
      <trkpt lat="36.513861" lon="-6.113704">
        <ele>96.469404</ele>
        <time>2020-08-18T07:28:27.605Z</time>
      </trkpt>
      <trkpt lat="36.513758" lon="-6.113689">
        <ele>96.275574</ele>
        <time>2020-08-18T07:28:29.570Z</time>
      </trkpt>
      <trkpt lat="36.513617" lon="-6.113625">
        <ele>95.971859</ele>
        <time>2020-08-18T07:28:31.599Z</time>
      </trkpt>
      <trkpt lat="36.513476" lon="-6.113672">
        <ele>95.662530</ele>
        <time>2020-08-18T07:28:35.579Z</time>
      </trkpt>
      <trkpt lat="36.513382" lon="-6.113677">
        <ele>95.463153</ele>
        <time>2020-08-18T07:28:37.577Z</time>
      </trkpt>
      <trkpt lat="36.513298" lon="-6.113727">
        <ele>95.265828</ele>
        <time>2020-08-18T07:28:41.584Z</time>
      </trkpt>
      <trkpt lat="36.513103" lon="-6.113719">
        <ele>94.852380</ele>
        <time>2020-08-18T07:28:43.575Z</time>
      </trkpt>
      <trkpt lat="36.513031" lon="-6.113797">
        <ele>94.650075</ele>
        <time>2020-08-18T07:28:45.584Z</time>
      </trkpt>
      <trkpt lat="36.512929" lon="-6.113843">
        <ele>94.420167</ele>
        <time>2020-08-18T07:28:47.564Z</time>
      </trkpt>
      <trkpt lat="36.512821" lon="-6.113827">
        <ele>94.189688</ele>
        <time>2020-08-18T07:28:49.580Z</time>
      </trkpt>
      <trkpt lat="36.512731" lon="-6.113844">
        <ele>93.996784</ele>
        <time>2020-08-18T07:28:51.575Z</time>
      </trkpt>
      <trkpt lat="36.512647" lon="-6.113901">
        <ele>93.794028</ele>
        <time>2020-08-18T07:28:53.595Z</time>
      </trkpt>
      <trkpt lat="36.512527" lon="-6.113904">
        <ele>93.539685</ele>
        <time>2020-08-18T07:28:55.566Z</time>
      </trkpt>
      <trkpt lat="36.512429" lon="-6.113970">
        <ele>93.303543</ele>
        <time>2020-08-18T07:28:57.575Z</time>
      </trkpt>
      <trkpt lat="36.512303" lon="-6.113933">
        <ele>93.029201</ele>
        <time>2020-08-18T07:28:59.565Z</time>
      </trkpt>
      <trkpt lat="36.512215" lon="-6.114009">
        <ele>92.802199</ele>
        <time>2020-08-18T07:29:01.586Z</time>
      </trkpt>
      <trkpt lat="36.512117" lon="-6.113963">
        <ele>92.580240</ele>
        <time>2020-08-18T07:29:03.585Z</time>
      </trkpt>
      <trkpt lat="36.511990" lon="-6.113964">
        <ele>92.334139</ele>
        <time>2020-08-18T07:29:06.576Z</time>
      </trkpt>
      <trkpt lat="36.511864" lon="-6.113991">
        <ele>92.199529</ele>
        <time>2020-08-18T07:29:09.583Z</time>
      </trkpt>
      <trkpt lat="36.511738" lon="-6.114016">
        <ele>92.065197</ele>
        <time>2020-08-18T07:29:11.576Z</time>
      </trkpt>
      <trkpt lat="36.511610" lon="-6.114039">
        <ele>91.929037</ele>
        <time>2020-08-18T07:29:14.581Z</time>
      </trkpt>
      <trkpt lat="36.511518" lon="-6.114072">
        <ele>91.828232</ele>
        <time>2020-08-18T07:29:17.568Z</time>
      </trkpt>
      <trkpt lat="36.511415" lon="-6.114064">
        <ele>91.719579</ele>
        <time>2020-08-18T07:29:20.582Z</time>
      </trkpt>
      <trkpt lat="36.511316" lon="-6.114098">
        <ele>91.611451</ele>
        <time>2020-08-18T07:29:23.575Z</time>
      </trkpt>
      <trkpt lat="36.511214" lon="-6.114137">
        <ele>91.499106</ele>
        <time>2020-08-18T07:29:26.575Z</time>
      </trkpt>
      <trkpt lat="36.511121" lon="-6.114151">
        <ele>91.400479</ele>
        <time>2020-08-18T07:29:29.574Z</time>
      </trkpt>
      <trkpt lat="36.511011" lon="-6.114190">
        <ele>91.280058</ele>
        <time>2020-08-18T07:29:33.595Z</time>
      </trkpt>
      <trkpt lat="36.510926" lon="-6.114258">
        <ele>91.173664</ele>
        <time>2020-08-18T07:29:36.582Z</time>
      </trkpt>
      <trkpt lat="36.510840" lon="-6.114297">
        <ele>91.077294</ele>
        <time>2020-08-18T07:29:38.576Z</time>
      </trkpt>
      <trkpt lat="36.510623" lon="-6.114331">
        <ele>90.847026</ele>
        <time>2020-08-18T07:29:40.546Z</time>
      </trkpt>
      <trkpt lat="36.510507" lon="-6.114361">
        <ele>90.722287</ele>
        <time>2020-08-18T07:29:43.539Z</time>
      </trkpt>
      <trkpt lat="36.510400" lon="-6.114399">
        <ele>90.605135</ele>
        <time>2020-08-18T07:29:46.556Z</time>
      </trkpt>
      <trkpt lat="36.510298" lon="-6.114454">
        <ele>90.488095</ele>
        <time>2020-08-18T07:29:49.556Z</time>
      </trkpt>
      <trkpt lat="36.510193" lon="-6.114495">
        <ele>90.738838</ele>
        <time>2020-08-18T07:29:52.545Z</time>
      </trkpt>
      <trkpt lat="36.510086" lon="-6.114533">
        <ele>91.093735</ele>
        <time>2020-08-18T07:29:55.564Z</time>
      </trkpt>
      <trkpt lat="36.509969" lon="-6.114548">
        <ele>91.468870</ele>
        <time>2020-08-18T07:29:58.547Z</time>
      </trkpt>
      <trkpt lat="36.509860" lon="-6.114548">
        <ele>91.816515</ele>
        <time>2020-08-18T07:30:01.558Z</time>
      </trkpt>
      <trkpt lat="36.509758" lon="-6.114540">
        <ele>92.142480</ele>
        <time>2020-08-18T07:30:04.548Z</time>
      </trkpt>
      <trkpt lat="36.509666" lon="-6.114541">
        <ele>92.435915</ele>
        <time>2020-08-18T07:30:07.555Z</time>
      </trkpt>
      <trkpt lat="36.509564" lon="-6.114521">
        <ele>92.765249</ele>
        <time>2020-08-18T07:30:10.538Z</time>
      </trkpt>
      <trkpt lat="36.509474" lon="-6.114496">
        <ele>93.059363</ele>
        <time>2020-08-18T07:30:13.543Z</time>
      </trkpt>
      <trkpt lat="36.509371" lon="-6.114475">
        <ele>93.392253</ele>
        <time>2020-08-18T07:30:16.538Z</time>
      </trkpt>
      <trkpt lat="36.509273" lon="-6.114431">
        <ele>93.724543</ele>
        <time>2020-08-18T07:30:23.898Z</time>
      </trkpt>
      <trkpt lat="36.509176" lon="-6.114386">
        <ele>94.054723</ele>
        <time>2020-08-18T07:30:26.897Z</time>
      </trkpt>
      <trkpt lat="36.509090" lon="-6.114347">
        <ele>94.346664</ele>
        <time>2020-08-18T07:30:29.892Z</time>
      </trkpt>
      <trkpt lat="36.508986" lon="-6.114338">
        <ele>94.679163</ele>
        <time>2020-08-18T07:30:32.890Z</time>
      </trkpt>
      <trkpt lat="36.508879" lon="-6.114331">
        <ele>95.020900</ele>
        <time>2020-08-18T07:30:35.907Z</time>
      </trkpt>
      <trkpt lat="36.508762" lon="-6.114303">
        <ele>95.400900</ele>
        <time>2020-08-18T07:30:38.881Z</time>
      </trkpt>
      <trkpt lat="36.508654" lon="-6.114305">
        <ele>95.745394</ele>
        <time>2020-08-18T07:30:41.889Z</time>
      </trkpt>
      <trkpt lat="36.508551" lon="-6.114294">
        <ele>96.075110</ele>
        <time>2020-08-18T07:30:44.899Z</time>
      </trkpt>
      <trkpt lat="36.508451" lon="-6.114289">
        <ele>96.034633</ele>
        <time>2020-08-18T07:30:47.918Z</time>
      </trkpt>
      <trkpt lat="36.508345" lon="-6.114300">
        <ele>95.746534</ele>
        <time>2020-08-18T07:30:50.913Z</time>
      </trkpt>
      <trkpt lat="36.508245" lon="-6.114331">
        <ele>95.467401</ele>
        <time>2020-08-18T07:30:53.911Z</time>
      </trkpt>
      <trkpt lat="36.508153" lon="-6.114353">
        <ele>95.213658</ele>
        <time>2020-08-18T07:30:56.899Z</time>
      </trkpt>
      <trkpt lat="36.508041" lon="-6.114377">
        <ele>94.905838</ele>
        <time>2020-08-18T07:30:59.926Z</time>
      </trkpt>
      <trkpt lat="36.507942" lon="-6.114403">
        <ele>94.631786</ele>
        <time>2020-08-18T07:31:01.901Z</time>
      </trkpt>
      <trkpt lat="36.507815" lon="-6.114443">
        <ele>94.276954</ele>
        <time>2020-08-18T07:31:04.896Z</time>
      </trkpt>
      <trkpt lat="36.507723" lon="-6.114448">
        <ele>94.027534</ele>
        <time>2020-08-18T07:31:06.892Z</time>
      </trkpt>
      <trkpt lat="36.507607" lon="-6.114468">
        <ele>93.710344</ele>
        <time>2020-08-18T07:31:09.900Z</time>
      </trkpt>
      <trkpt lat="36.507486" lon="-6.114509">
        <ele>93.370677</ele>
        <time>2020-08-18T07:31:12.883Z</time>
      </trkpt>
      <trkpt lat="36.507370" lon="-6.114547">
        <ele>93.045781</ele>
        <time>2020-08-18T07:31:15.900Z</time>
      </trkpt>
      <trkpt lat="36.507243" lon="-6.114534">
        <ele>92.700638</ele>
        <time>2020-08-18T07:31:18.886Z</time>
      </trkpt>
      <trkpt lat="36.507108" lon="-6.114546">
        <ele>92.334057</ele>
        <time>2020-08-18T07:31:21.884Z</time>
      </trkpt>
      <trkpt lat="36.507011" lon="-6.114572">
        <ele>92.065303</ele>
        <time>2020-08-18T07:31:25.886Z</time>
      </trkpt>
      <trkpt lat="36.506921" lon="-6.114605">
        <ele>91.811171</ele>
        <time>2020-08-18T07:31:28.920Z</time>
      </trkpt>
      <trkpt lat="36.506815" lon="-6.114699">
        <ele>91.458600</ele>
        <time>2020-08-18T07:31:31.908Z</time>
      </trkpt>
      <trkpt lat="36.506732" lon="-6.114792">
        <ele>91.149377</ele>
        <time>2020-08-18T07:31:33.882Z</time>
      </trkpt>
      <trkpt lat="36.506644" lon="-6.114837">
        <ele>90.881675</ele>
        <time>2020-08-18T07:31:35.919Z</time>
      </trkpt>
      <trkpt lat="36.506553" lon="-6.114849">
        <ele>90.624197</ele>
        <time>2020-08-18T07:31:37.881Z</time>
      </trkpt>
      <trkpt lat="36.506449" lon="-6.114869">
        <ele>90.328101</ele>
        <time>2020-08-18T07:31:40.907Z</time>
      </trkpt>
      <trkpt lat="36.506358" lon="-6.114858">
        <ele>90.070851</ele>
        <time>2020-08-18T07:31:43.868Z</time>
      </trkpt>
      <trkpt lat="36.506237" lon="-6.114811">
        <ele>89.714190</ele>
        <time>2020-08-18T07:31:46.881Z</time>
      </trkpt>
      <trkpt lat="36.506125" lon="-6.114807">
        <ele>89.398929</ele>
        <time>2020-08-18T07:31:50.886Z</time>
      </trkpt>
      <trkpt lat="36.506013" lon="-6.114824">
        <ele>89.081462</ele>
        <time>2020-08-18T07:31:54.904Z</time>
      </trkpt>
      <trkpt lat="36.505914" lon="-6.114837">
        <ele>88.801362</ele>
        <time>2020-08-18T07:31:57.895Z</time>
      </trkpt>
      <trkpt lat="36.505821" lon="-6.114859">
        <ele>88.535002</ele>
        <time>2020-08-18T07:32:00.896Z</time>
      </trkpt>
      <trkpt lat="36.505716" lon="-6.114884">
        <ele>88.234206</ele>
        <time>2020-08-18T07:32:04.898Z</time>
      </trkpt>
      <trkpt lat="36.505625" lon="-6.114969">
        <ele>87.914028</ele>
        <time>2020-08-18T07:32:09.904Z</time>
      </trkpt>
      <trkpt lat="36.505572" lon="-6.115078">
        <ele>87.625916</ele>
        <time>2020-08-18T07:32:13.901Z</time>
      </trkpt>
      <trkpt lat="36.505503" lon="-6.115175">
        <ele>87.332969</ele>
        <time>2020-08-18T07:32:17.891Z</time>
      </trkpt>
      <trkpt lat="36.505421" lon="-6.115251">
        <ele>87.045261</ele>
        <time>2020-08-18T07:32:21.891Z</time>
      </trkpt>
      <trkpt lat="36.505340" lon="-6.115329">
        <ele>86.757058</ele>
        <time>2020-08-18T07:32:25.921Z</time>
      </trkpt>
      <trkpt lat="36.505305" lon="-6.115435">
        <ele>86.497886</ele>
        <time>2020-08-18T07:32:28.900Z</time>
      </trkpt>
      <trkpt lat="36.505322" lon="-6.115545">
        <ele>86.274380</ele>
        <time>2020-08-18T07:32:30.889Z</time>
      </trkpt>
      <trkpt lat="36.505343" lon="-6.115691">
        <ele>86.377179</ele>
        <time>2020-08-18T07:32:33.893Z</time>
      </trkpt>
      <trkpt lat="36.505320" lon="-6.115809">
        <ele>86.461334</ele>
        <time>2020-08-18T07:32:35.887Z</time>
      </trkpt>
      <trkpt lat="36.505353" lon="-6.115925">
        <ele>86.546619</ele>
        <time>2020-08-18T07:32:38.898Z</time>
      </trkpt>
      <trkpt lat="36.505363" lon="-6.116046">
        <ele>86.630925</ele>
        <time>2020-08-18T07:32:42.901Z</time>
      </trkpt>
      <trkpt lat="36.505334" lon="-6.116286">
        <ele>86.799136</ele>
        <time>2020-08-18T07:32:44.902Z</time>
      </trkpt>
      <trkpt lat="36.505306" lon="-6.116462">
        <ele>86.923486</ele>
        <time>2020-08-18T07:32:50.898Z</time>
      </trkpt>
      <trkpt lat="36.505291" lon="-6.116609">
        <ele>87.026188</ele>
        <time>2020-08-18T07:32:52.890Z</time>
      </trkpt>
      <trkpt lat="36.505303" lon="-6.116769">
        <ele>87.137565</ele>
        <time>2020-08-18T07:32:54.902Z</time>
      </trkpt>
      <trkpt lat="36.505312" lon="-6.116926">
        <ele>87.246656</ele>
        <time>2020-08-18T07:32:56.910Z</time>
      </trkpt>
      <trkpt lat="36.505307" lon="-6.117051">
        <ele>87.333400</ele>
        <time>2020-08-18T07:32:58.911Z</time>
      </trkpt>
      <trkpt lat="36.505299" lon="-6.117180">
        <ele>87.423074</ele>
        <time>2020-08-18T07:33:00.892Z</time>
      </trkpt>
      <trkpt lat="36.505271" lon="-6.117312">
        <ele>87.517694</ele>
        <time>2020-08-18T07:33:02.919Z</time>
      </trkpt>
      <trkpt lat="36.505252" lon="-6.117452">
        <ele>87.616100</ele>
        <time>2020-08-18T07:33:04.890Z</time>
      </trkpt>
      <trkpt lat="36.505207" lon="-6.117560">
        <ele>87.700414</ele>
        <time>2020-08-18T07:33:07.926Z</time>
      </trkpt>
      <trkpt lat="36.505168" lon="-6.117714">
        <ele>87.812322</ele>
        <time>2020-08-18T07:33:10.889Z</time>
      </trkpt>
      <trkpt lat="36.505122" lon="-6.117819">
        <ele>87.695416</ele>
        <time>2020-08-18T07:33:12.885Z</time>
      </trkpt>
      <trkpt lat="36.505025" lon="-6.117884">
        <ele>87.543640</ele>
        <time>2020-08-18T07:33:16.907Z</time>
      </trkpt>
      <trkpt lat="36.504930" lon="-6.117906">
        <ele>87.410523</ele>
        <time>2020-08-18T07:33:19.891Z</time>
      </trkpt>
      <trkpt lat="36.504804" lon="-6.117919">
        <ele>87.236352</ele>
        <time>2020-08-18T07:33:22.917Z</time>
      </trkpt>
      <trkpt lat="36.504733" lon="-6.117992">
        <ele>87.109465</ele>
        <time>2020-08-18T07:33:25.892Z</time>
      </trkpt>
      <trkpt lat="36.504694" lon="-6.118321">
        <ele>86.741221</ele>
        <time>2020-08-18T07:33:30.886Z</time>
      </trkpt>
      <trkpt lat="36.504687" lon="-6.118462">
        <ele>86.584794</ele>
        <time>2020-08-18T07:33:33.878Z</time>
      </trkpt>
      <trkpt lat="36.504681" lon="-6.118580">
        <ele>86.453871</ele>
        <time>2020-08-18T07:33:35.902Z</time>
      </trkpt>
      <trkpt lat="36.504628" lon="-6.118690">
        <ele>86.311861</ele>
        <time>2020-08-18T07:33:37.884Z</time>
      </trkpt>
      <trkpt lat="36.504580" lon="-6.118803">
        <ele>86.170338</ele>
        <time>2020-08-18T07:33:39.886Z</time>
      </trkpt>
      <trkpt lat="36.504547" lon="-6.118918">
        <ele>86.035126</ele>
        <time>2020-08-18T07:33:41.893Z</time>
      </trkpt>
      <trkpt lat="36.504546" lon="-6.119043">
        <ele>85.896706</ele>
        <time>2020-08-18T07:33:43.885Z</time>
      </trkpt>
      <trkpt lat="36.504531" lon="-6.119159">
        <ele>85.766607</ele>
        <time>2020-08-18T07:33:45.894Z</time>
      </trkpt>
      <trkpt lat="36.504505" lon="-6.119274">
        <ele>85.634325</ele>
        <time>2020-08-18T07:33:47.905Z</time>
      </trkpt>
      <trkpt lat="36.504493" lon="-6.119388">
        <ele>85.507014</ele>
        <time>2020-08-18T07:33:49.901Z</time>
      </trkpt>
      <trkpt lat="36.504474" lon="-6.119500">
        <ele>85.380264</ele>
        <time>2020-08-18T07:33:51.886Z</time>
      </trkpt>
      <trkpt lat="36.504470" lon="-6.119623">
        <ele>85.283523</ele>
        <time>2020-08-18T07:33:53.900Z</time>
      </trkpt>
      <trkpt lat="36.504442" lon="-6.119730">
        <ele>85.209975</ele>
        <time>2020-08-18T07:33:55.900Z</time>
      </trkpt>
      <trkpt lat="36.504382" lon="-6.119876">
        <ele>85.102801</ele>
        <time>2020-08-18T07:33:58.897Z</time>
      </trkpt>
      <trkpt lat="36.504317" lon="-6.119962">
        <ele>85.025645</ele>
        <time>2020-08-18T07:34:00.885Z</time>
      </trkpt>
      <trkpt lat="36.504233" lon="-6.120086">
        <ele>84.919655</ele>
        <time>2020-08-18T07:34:03.900Z</time>
      </trkpt>
      <trkpt lat="36.504141" lon="-6.120208">
        <ele>84.810317</ele>
        <time>2020-08-18T07:34:06.909Z</time>
      </trkpt>
      <trkpt lat="36.504105" lon="-6.120317">
        <ele>84.733295</ele>
        <time>2020-08-18T07:34:08.903Z</time>
      </trkpt>
      <trkpt lat="36.504019" lon="-6.120407">
        <ele>84.641914</ele>
        <time>2020-08-18T07:34:10.902Z</time>
      </trkpt>
      <trkpt lat="36.503964" lon="-6.120501">
        <ele>84.565922</ele>
        <time>2020-08-18T07:34:12.888Z</time>
      </trkpt>
      <trkpt lat="36.503917" lon="-6.120613">
        <ele>84.483343</ele>
        <time>2020-08-18T07:34:14.902Z</time>
      </trkpt>
      <trkpt lat="36.503847" lon="-6.120733">
        <ele>84.386433</ele>
        <time>2020-08-18T07:34:16.893Z</time>
      </trkpt>
      <trkpt lat="36.503766" lon="-6.120857">
        <ele>84.281998</ele>
        <time>2020-08-18T07:34:18.903Z</time>
      </trkpt>
      <trkpt lat="36.503692" lon="-6.120999">
        <ele>84.171387</ele>
        <time>2020-08-18T07:34:20.902Z</time>
      </trkpt>
      <trkpt lat="36.503647" lon="-6.121124">
        <ele>84.081866</ele>
        <time>2020-08-18T07:34:22.900Z</time>
      </trkpt>
      <trkpt lat="36.503599" lon="-6.121250">
        <ele>83.990731</ele>
        <time>2020-08-18T07:34:24.900Z</time>
      </trkpt>
      <trkpt lat="36.503559" lon="-6.121391">
        <ele>83.893001</ele>
        <time>2020-08-18T07:34:26.898Z</time>
      </trkpt>
      <trkpt lat="36.503492" lon="-6.121539">
        <ele>83.628707</ele>
        <time>2020-08-18T07:34:28.898Z</time>
      </trkpt>
      <trkpt lat="36.503424" lon="-6.121681">
        <ele>83.348214</ele>
        <time>2020-08-18T07:34:30.895Z</time>
      </trkpt>
      <trkpt lat="36.503330" lon="-6.121813">
        <ele>83.048950</ele>
        <time>2020-08-18T07:34:32.903Z</time>
      </trkpt>
      <trkpt lat="36.503249" lon="-6.121930">
        <ele>82.786913</ele>
        <time>2020-08-18T07:34:34.896Z</time>
      </trkpt>
      <trkpt lat="36.503162" lon="-6.122051">
        <ele>82.511418</ele>
        <time>2020-08-18T07:34:36.895Z</time>
      </trkpt>
      <trkpt lat="36.503099" lon="-6.122157">
        <ele>82.287707</ele>
        <time>2020-08-18T07:34:38.908Z</time>
      </trkpt>
      <trkpt lat="36.503024" lon="-6.122271">
        <ele>82.037715</ele>
        <time>2020-08-18T07:34:40.895Z</time>
      </trkpt>
      <trkpt lat="36.502951" lon="-6.122385">
        <ele>81.790375</ele>
        <time>2020-08-18T07:34:42.894Z</time>
      </trkpt>
      <trkpt lat="36.502903" lon="-6.122535">
        <ele>81.516396</ele>
        <time>2020-08-18T07:34:44.888Z</time>
      </trkpt>
      <trkpt lat="36.502859" lon="-6.122681">
        <ele>81.251794</ele>
        <time>2020-08-18T07:34:46.889Z</time>
      </trkpt>
      <trkpt lat="36.502830" lon="-6.122838">
        <ele>80.978421</ele>
        <time>2020-08-18T07:34:48.907Z</time>
      </trkpt>
      <trkpt lat="36.502788" lon="-6.123002">
        <ele>80.686329</ele>
        <time>2020-08-18T07:34:50.901Z</time>
      </trkpt>
      <trkpt lat="36.502719" lon="-6.123116">
        <ele>80.444161</ele>
        <time>2020-08-18T07:34:52.890Z</time>
      </trkpt>
      <trkpt lat="36.502680" lon="-6.123226">
        <ele>80.240139</ele>
        <time>2020-08-18T07:34:53.889Z</time>
      </trkpt>
      <trkpt lat="36.502613" lon="-6.123348">
        <ele>79.796131</ele>
        <time>2020-08-18T07:34:55.906Z</time>
      </trkpt>
      <trkpt lat="36.502516" lon="-6.123461">
        <ele>78.922309</ele>
        <time>2020-08-18T07:34:57.886Z</time>
      </trkpt>
      <trkpt lat="36.502503" lon="-6.123621">
        <ele>78.072299</ele>
        <time>2020-08-18T07:34:59.902Z</time>
      </trkpt>
      <trkpt lat="36.502554" lon="-6.123741">
        <ele>77.354826</ele>
        <time>2020-08-18T07:35:01.900Z</time>
      </trkpt>
      <trkpt lat="36.502494" lon="-6.123895">
        <ele>76.450264</ele>
        <time>2020-08-18T07:35:04.892Z</time>
      </trkpt>
      <trkpt lat="36.502585" lon="-6.123922">
        <ele>75.835106</ele>
        <time>2020-08-18T07:35:05.892Z</time>
      </trkpt>
      <trkpt lat="36.502528" lon="-6.124042">
        <ele>75.098366</ele>
        <time>2020-08-18T07:35:07.908Z</time>
      </trkpt>
      <trkpt lat="36.502409" lon="-6.124148">
        <ele>74.135972</ele>
        <time>2020-08-18T07:35:08.897Z</time>
      </trkpt>
      <trkpt lat="36.502327" lon="-6.124274">
        <ele>73.279074</ele>
        <time>2020-08-18T07:35:10.892Z</time>
      </trkpt>
      <trkpt lat="36.502259" lon="-6.124365">
        <ele>72.622349</ele>
        <time>2020-08-18T07:35:12.887Z</time>
      </trkpt>
      <trkpt lat="36.502233" lon="-6.124492">
        <ele>71.929642</ele>
        <time>2020-08-18T07:35:14.903Z</time>
      </trkpt>
      <trkpt lat="36.502149" lon="-6.124597">
        <ele>71.146633</ele>
        <time>2020-08-18T07:35:16.908Z</time>
      </trkpt>
      <trkpt lat="36.502068" lon="-6.124715">
        <ele>70.326453</ele>
        <time>2020-08-18T07:35:18.884Z</time>
      </trkpt>
      <trkpt lat="36.501972" lon="-6.124872">
        <ele>69.283797</ele>
        <time>2020-08-18T07:35:20.889Z</time>
      </trkpt>
      <trkpt lat="36.501973" lon="-6.125004">
        <ele>68.586058</ele>
        <time>2020-08-18T07:35:22.899Z</time>
      </trkpt>
      <trkpt lat="36.501906" lon="-6.125159">
        <ele>68.861740</ele>
        <time>2020-08-18T07:35:24.894Z</time>
      </trkpt>
      <trkpt lat="36.501876" lon="-6.125300">
        <ele>69.645757</ele>
        <time>2020-08-18T07:35:26.896Z</time>
      </trkpt>
      <trkpt lat="36.501803" lon="-6.125444">
        <ele>70.560872</ele>
        <time>2020-08-18T07:35:28.891Z</time>
      </trkpt>
      <trkpt lat="36.501699" lon="-6.125570">
        <ele>71.531630</ele>
        <time>2020-08-18T07:35:30.898Z</time>
      </trkpt>
      <trkpt lat="36.501566" lon="-6.125662">
        <ele>72.549249</ele>
        <time>2020-08-18T07:35:32.896Z</time>
      </trkpt>
      <trkpt lat="36.501467" lon="-6.125810">
        <ele>73.584218</ele>
        <time>2020-08-18T07:35:34.902Z</time>
      </trkpt>
      <trkpt lat="36.501411" lon="-6.125949">
        <ele>74.419977</ele>
        <time>2020-08-18T07:35:36.876Z</time>
      </trkpt>
      <trkpt lat="36.501410" lon="-6.126104">
        <ele>75.253179</ele>
        <time>2020-08-18T07:35:38.889Z</time>
      </trkpt>
      <trkpt lat="36.501399" lon="-6.126264">
        <ele>76.116370</ele>
        <time>2020-08-18T07:35:40.889Z</time>
      </trkpt>
      <trkpt lat="36.501336" lon="-6.126415">
        <ele>77.030862</ele>
        <time>2020-08-18T07:35:42.887Z</time>
      </trkpt>
      <trkpt lat="36.501288" lon="-6.126530">
        <ele>77.727391</ele>
        <time>2020-08-18T07:35:44.900Z</time>
      </trkpt>
      <trkpt lat="36.501213" lon="-6.126637">
        <ele>78.490503</ele>
        <time>2020-08-18T07:35:46.903Z</time>
      </trkpt>
      <trkpt lat="36.501170" lon="-6.126747">
        <ele>79.147999</ele>
        <time>2020-08-18T07:35:48.901Z</time>
      </trkpt>
      <trkpt lat="36.501095" lon="-6.126855">
        <ele>79.915171</ele>
        <time>2020-08-18T07:35:50.894Z</time>
      </trkpt>
      <trkpt lat="36.500997" lon="-6.126936">
        <ele>79.646512</ele>
        <time>2020-08-18T07:35:52.894Z</time>
      </trkpt>
      <trkpt lat="36.500912" lon="-6.127065">
        <ele>78.293417</ele>
        <time>2020-08-18T07:35:55.886Z</time>
      </trkpt>
      <trkpt lat="36.500876" lon="-6.127198">
        <ele>77.154987</ele>
        <time>2020-08-18T07:35:57.886Z</time>
      </trkpt>
      <trkpt lat="36.500769" lon="-6.127284">
        <ele>75.869427</ele>
        <time>2020-08-18T07:35:59.892Z</time>
      </trkpt>
      <trkpt lat="36.500688" lon="-6.127375">
        <ele>74.768014</ele>
        <time>2020-08-18T07:36:01.885Z</time>
      </trkpt>
      <trkpt lat="36.500577" lon="-6.127434">
        <ele>73.549885</ele>
        <time>2020-08-18T07:36:03.886Z</time>
      </trkpt>
      <trkpt lat="36.500458" lon="-6.127541">
        <ele>72.068139</ele>
        <time>2020-08-18T07:36:05.892Z</time>
      </trkpt>
      <trkpt lat="36.500374" lon="-6.127667">
        <ele>70.740235</ele>
        <time>2020-08-18T07:36:07.889Z</time>
      </trkpt>
      <trkpt lat="36.500266" lon="-6.127756">
        <ele>69.432904</ele>
        <time>2020-08-18T07:36:09.889Z</time>
      </trkpt>
      <trkpt lat="36.500156" lon="-6.127850">
        <ele>68.086156</ele>
        <time>2020-08-18T07:36:11.891Z</time>
      </trkpt>
      <trkpt lat="36.500062" lon="-6.127968">
        <ele>66.738508</ele>
        <time>2020-08-18T07:36:13.905Z</time>
      </trkpt>
      <trkpt lat="36.500006" lon="-6.128115">
        <ele>65.418887</ele>
        <time>2020-08-18T07:36:15.919Z</time>
      </trkpt>
      <trkpt lat="36.499936" lon="-6.128253">
        <ele>64.095161</ele>
        <time>2020-08-18T07:36:17.899Z</time>
      </trkpt>
      <trkpt lat="36.499871" lon="-6.128422">
        <ele>62.575357</ele>
        <time>2020-08-18T07:36:19.914Z</time>
      </trkpt>
      <trkpt lat="36.499813" lon="-6.128554">
        <ele>61.961016</ele>
        <time>2020-08-18T07:36:21.899Z</time>
      </trkpt>
      <trkpt lat="36.499702" lon="-6.128673">
        <ele>61.638298</ele>
        <time>2020-08-18T07:36:23.894Z</time>
      </trkpt>
      <trkpt lat="36.499623" lon="-6.128798">
        <ele>61.356793</ele>
        <time>2020-08-18T07:36:25.884Z</time>
      </trkpt>
      <trkpt lat="36.499561" lon="-6.128916">
        <ele>61.107219</ele>
        <time>2020-08-18T07:36:27.886Z</time>
      </trkpt>
      <trkpt lat="36.499510" lon="-6.129098">
        <ele>60.765990</ele>
        <time>2020-08-18T07:36:29.893Z</time>
      </trkpt>
      <trkpt lat="36.499482" lon="-6.129219">
        <ele>60.543072</ele>
        <time>2020-08-18T07:36:30.886Z</time>
      </trkpt>
      <trkpt lat="36.499451" lon="-6.129355">
        <ele>60.292805</ele>
        <time>2020-08-18T07:36:32.883Z</time>
      </trkpt>
      <trkpt lat="36.499368" lon="-6.129499">
        <ele>59.979104</ele>
        <time>2020-08-18T07:36:34.888Z</time>
      </trkpt>
      <trkpt lat="36.499278" lon="-6.129656">
        <ele>59.637715</ele>
        <time>2020-08-18T07:36:36.887Z</time>
      </trkpt>
      <trkpt lat="36.499185" lon="-6.129796">
        <ele>59.316180</ele>
        <time>2020-08-18T07:36:38.887Z</time>
      </trkpt>
      <trkpt lat="36.499108" lon="-6.129937">
        <ele>59.014399</ele>
        <time>2020-08-18T07:36:40.885Z</time>
      </trkpt>
      <trkpt lat="36.499018" lon="-6.130091">
        <ele>58.677319</ele>
        <time>2020-08-18T07:36:42.891Z</time>
      </trkpt>
      <trkpt lat="36.498947" lon="-6.130238">
        <ele>58.373705</ele>
        <time>2020-08-18T07:36:44.889Z</time>
      </trkpt>
      <trkpt lat="36.498884" lon="-6.130407">
        <ele>58.144097</ele>
        <time>2020-08-18T07:36:46.885Z</time>
      </trkpt>
      <trkpt lat="36.498805" lon="-6.130563">
        <ele>58.079307</ele>
        <time>2020-08-18T07:36:48.904Z</time>
      </trkpt>
      <trkpt lat="36.498732" lon="-6.130715">
        <ele>58.017086</ele>
        <time>2020-08-18T07:36:50.901Z</time>
      </trkpt>
      <trkpt lat="36.498630" lon="-6.130842">
        <ele>57.954000</ele>
        <time>2020-08-18T07:36:52.901Z</time>
      </trkpt>
      <trkpt lat="36.498495" lon="-6.130873">
        <ele>57.893988</ele>
        <time>2020-08-18T07:36:55.896Z</time>
      </trkpt>
      <trkpt lat="36.498393" lon="-6.130943">
        <ele>57.843064</ele>
        <time>2020-08-18T07:36:57.891Z</time>
      </trkpt>
      <trkpt lat="36.498322" lon="-6.131039">
        <ele>57.797223</ele>
        <time>2020-08-18T07:36:59.902Z</time>
      </trkpt>
      <trkpt lat="36.498216" lon="-6.131059">
        <ele>57.750356</ele>
        <time>2020-08-18T07:37:00.896Z</time>
      </trkpt>
      <trkpt lat="36.498248" lon="-6.131175">
        <ele>57.707259</ele>
        <time>2020-08-18T07:37:02.889Z</time>
      </trkpt>
      <trkpt lat="36.498174" lon="-6.131271">
        <ele>57.660520</ele>
        <time>2020-08-18T07:37:04.896Z</time>
      </trkpt>
      <trkpt lat="36.498094" lon="-6.131332">
        <ele>57.619502</ele>
        <time>2020-08-18T07:37:05.891Z</time>
      </trkpt>
      <trkpt lat="36.498028" lon="-6.131425">
        <ele>57.575907</ele>
        <time>2020-08-18T07:37:08.902Z</time>
      </trkpt>
      <trkpt lat="36.497925" lon="-6.131520">
        <ele>57.519855</ele>
        <time>2020-08-18T07:37:10.883Z</time>
      </trkpt>
      <trkpt lat="36.497824" lon="-6.131606">
        <ele>57.466351</ele>
        <time>2020-08-18T07:37:12.902Z</time>
      </trkpt>
      <trkpt lat="36.497791" lon="-6.131745">
        <ele>57.415419</ele>
        <time>2020-08-18T07:37:14.884Z</time>
      </trkpt>
      <trkpt lat="36.497715" lon="-6.131855">
        <ele>57.353796</ele>
        <time>2020-08-18T07:37:16.882Z</time>
      </trkpt>
      <trkpt lat="36.497610" lon="-6.131968">
        <ele>57.257568</ele>
        <time>2020-08-18T07:37:18.901Z</time>
      </trkpt>
      <trkpt lat="36.497542" lon="-6.132047">
        <ele>57.193081</ele>
        <time>2020-08-18T07:37:20.892Z</time>
      </trkpt>
      <trkpt lat="36.497467" lon="-6.132122">
        <ele>57.126387</ele>
        <time>2020-08-18T07:37:22.892Z</time>
      </trkpt>
      <trkpt lat="36.497402" lon="-6.132201">
        <ele>57.063403</ele>
        <time>2020-08-18T07:37:24.887Z</time>
      </trkpt>
      <trkpt lat="36.497330" lon="-6.132303">
        <ele>56.987774</ele>
        <time>2020-08-18T07:37:26.894Z</time>
      </trkpt>
      <trkpt lat="36.497255" lon="-6.132412">
        <ele>56.907835</ele>
        <time>2020-08-18T07:37:29.886Z</time>
      </trkpt>
      <trkpt lat="36.497185" lon="-6.132532">
        <ele>56.825228</ele>
        <time>2020-08-18T07:37:32.891Z</time>
      </trkpt>
      <trkpt lat="36.497100" lon="-6.132656">
        <ele>56.734433</ele>
        <time>2020-08-18T07:37:34.890Z</time>
      </trkpt>
      <trkpt lat="36.497005" lon="-6.132760">
        <ele>56.646724</ele>
        <time>2020-08-18T07:37:37.888Z</time>
      </trkpt>
      <trkpt lat="36.496946" lon="-6.132848">
        <ele>56.582880</ele>
        <time>2020-08-18T07:37:39.888Z</time>
      </trkpt>
      <trkpt lat="36.496807" lon="-6.132847">
        <ele>56.486540</ele>
        <time>2020-08-18T07:37:42.903Z</time>
      </trkpt>
      <trkpt lat="36.496696" lon="-6.132901">
        <ele>56.403934</ele>
        <time>2020-08-18T07:37:44.896Z</time>
      </trkpt>
      <trkpt lat="36.496657" lon="-6.133011">
        <ele>56.336950</ele>
        <time>2020-08-18T07:37:47.885Z</time>
      </trkpt>
      <trkpt lat="36.496650" lon="-6.133147">
        <ele>56.261020</ele>
        <time>2020-08-18T07:37:49.902Z</time>
      </trkpt>
      <trkpt lat="36.496595" lon="-6.133236">
        <ele>56.198474</ele>
        <time>2020-08-18T07:37:52.902Z</time>
      </trkpt>
      <trkpt lat="36.496538" lon="-6.133366">
        <ele>56.160073</ele>
        <time>2020-08-18T07:37:55.901Z</time>
      </trkpt>
      <trkpt lat="36.496512" lon="-6.133476">
        <ele>56.236602</ele>
        <time>2020-08-18T07:37:57.875Z</time>
      </trkpt>
      <trkpt lat="36.496458" lon="-6.133619">
        <ele>56.342056</ele>
        <time>2020-08-18T07:38:00.904Z</time>
      </trkpt>
      <trkpt lat="36.496399" lon="-6.133756">
        <ele>56.445795</ele>
        <time>2020-08-18T07:38:03.904Z</time>
      </trkpt>
      <trkpt lat="36.496342" lon="-6.133893">
        <ele>56.548759</ele>
        <time>2020-08-18T07:38:06.902Z</time>
      </trkpt>
      <trkpt lat="36.496302" lon="-6.134025">
        <ele>56.642917</ele>
        <time>2020-08-18T07:38:09.900Z</time>
      </trkpt>
      <trkpt lat="36.496232" lon="-6.134142">
        <ele>56.740266</ele>
        <time>2020-08-18T07:38:12.901Z</time>
      </trkpt>
      <trkpt lat="36.496150" lon="-6.134199">
        <ele>56.818259</ele>
        <time>2020-08-18T07:38:16.890Z</time>
      </trkpt>
      <trkpt lat="36.496200" lon="-6.134566">
        <ele>57.066714</ele>
        <time>2020-08-18T07:39:15.924Z</time>
      </trkpt>
      <trkpt lat="36.496212" lon="-6.134717">
        <ele>57.167994</ele>
        <time>2020-08-18T07:39:18.874Z</time>
      </trkpt>
      <trkpt lat="36.496208" lon="-6.134838">
        <ele>57.248826</ele>
        <time>2020-08-18T07:39:20.901Z</time>
      </trkpt>
      <trkpt lat="36.496205" lon="-6.134952">
        <ele>57.324958</ele>
        <time>2020-08-18T07:39:22.889Z</time>
      </trkpt>
      <trkpt lat="36.496222" lon="-6.135110">
        <ele>57.431359</ele>
        <time>2020-08-18T07:39:25.892Z</time>
      </trkpt>
      <trkpt lat="36.496218" lon="-6.135234">
        <ele>57.514192</ele>
        <time>2020-08-18T07:39:27.891Z</time>
      </trkpt>
      <trkpt lat="36.496221" lon="-6.135399">
        <ele>57.624353</ele>
        <time>2020-08-18T07:39:30.872Z</time>
      </trkpt>
      <trkpt lat="36.496214" lon="-6.135520">
        <ele>57.723595</ele>
        <time>2020-08-18T07:39:32.900Z</time>
      </trkpt>
      <trkpt lat="36.496231" lon="-6.135676">
        <ele>57.853969</ele>
        <time>2020-08-18T07:39:35.890Z</time>
      </trkpt>
      <trkpt lat="36.496242" lon="-6.135835">
        <ele>57.986132</ele>
        <time>2020-08-18T07:39:38.894Z</time>
      </trkpt>
      <trkpt lat="36.496247" lon="-6.135948">
        <ele>58.079856</ele>
        <time>2020-08-18T07:39:40.885Z</time>
      </trkpt>
      <trkpt lat="36.496247" lon="-6.136102">
        <ele>58.207392</ele>
        <time>2020-08-18T07:39:43.905Z</time>
      </trkpt>
      <trkpt lat="36.496267" lon="-6.136254">
        <ele>58.334947</ele>
        <time>2020-08-18T07:39:46.893Z</time>
      </trkpt>
      <trkpt lat="36.496266" lon="-6.136402">
        <ele>58.457518</ele>
        <time>2020-08-18T07:39:49.902Z</time>
      </trkpt>
      <trkpt lat="36.496280" lon="-6.136548">
        <ele>58.579286</ele>
        <time>2020-08-18T07:39:52.889Z</time>
      </trkpt>
      <trkpt lat="36.496294" lon="-6.136707">
        <ele>58.711750</ele>
        <time>2020-08-18T07:39:55.903Z</time>
      </trkpt>
      <trkpt lat="36.496293" lon="-6.136819">
        <ele>58.804510</ele>
        <time>2020-08-18T07:39:57.891Z</time>
      </trkpt>
      <trkpt lat="36.496292" lon="-6.136932">
        <ele>58.898097</ele>
        <time>2020-08-18T07:39:59.895Z</time>
      </trkpt>
      <trkpt lat="36.496281" lon="-6.137094">
        <ele>59.032736</ele>
        <time>2020-08-18T07:40:02.905Z</time>
      </trkpt>
      <trkpt lat="36.496287" lon="-6.137255">
        <ele>59.166212</ele>
        <time>2020-08-18T07:40:05.901Z</time>
      </trkpt>
      <trkpt lat="36.496296" lon="-6.137417">
        <ele>59.300693</ele>
        <time>2020-08-18T07:40:08.894Z</time>
      </trkpt>
      <trkpt lat="36.496342" lon="-6.137532">
        <ele>59.407070</ele>
        <time>2020-08-18T07:40:10.894Z</time>
      </trkpt>
      <trkpt lat="36.496339" lon="-6.137647">
        <ele>59.475681</ele>
        <time>2020-08-18T07:40:12.874Z</time>
      </trkpt>
      <trkpt lat="36.496356" lon="-6.137800">
        <ele>59.432920</ele>
        <time>2020-08-18T07:40:15.914Z</time>
      </trkpt>
      <trkpt lat="36.496349" lon="-6.137929">
        <ele>59.397125</ele>
        <time>2020-08-18T07:40:17.901Z</time>
      </trkpt>
      <trkpt lat="36.496353" lon="-6.138097">
        <ele>59.350593</ele>
        <time>2020-08-18T07:40:20.901Z</time>
      </trkpt>
      <trkpt lat="36.496350" lon="-6.138277">
        <ele>59.300749</ele>
        <time>2020-08-18T07:40:23.900Z</time>
      </trkpt>
      <trkpt lat="36.496390" lon="-6.138430">
        <ele>59.256207</ele>
        <time>2020-08-18T07:40:26.910Z</time>
      </trkpt>
      <trkpt lat="36.496382" lon="-6.138609">
        <ele>59.206574</ele>
        <time>2020-08-18T07:40:29.904Z</time>
      </trkpt>
      <trkpt lat="36.496391" lon="-6.138763">
        <ele>59.163826</ele>
        <time>2020-08-18T07:40:32.878Z</time>
      </trkpt>
      <trkpt lat="36.496388" lon="-6.138888">
        <ele>59.129204</ele>
        <time>2020-08-18T07:40:34.900Z</time>
      </trkpt>
      <trkpt lat="36.496395" lon="-6.139006">
        <ele>59.096447</ele>
        <time>2020-08-18T07:40:36.887Z</time>
      </trkpt>
      <trkpt lat="36.496379" lon="-6.139203">
        <ele>59.041630</ele>
        <time>2020-08-18T07:40:39.900Z</time>
      </trkpt>
      <trkpt lat="36.496403" lon="-6.139332">
        <ele>59.004972</ele>
        <time>2020-08-18T07:40:41.887Z</time>
      </trkpt>
      <trkpt lat="36.496365" lon="-6.139511">
        <ele>58.953716</ele>
        <time>2020-08-18T07:40:43.896Z</time>
      </trkpt>
      <trkpt lat="36.496372" lon="-6.139630">
        <ele>58.920683</ele>
        <time>2020-08-18T07:40:45.909Z</time>
      </trkpt>
      <trkpt lat="36.496402" lon="-6.139770">
        <ele>58.880570</ele>
        <time>2020-08-18T07:40:48.890Z</time>
      </trkpt>
      <trkpt lat="36.496383" lon="-6.140005">
        <ele>59.053318</ele>
        <time>2020-08-18T07:40:51.901Z</time>
      </trkpt>
      <trkpt lat="36.496383" lon="-6.140151">
        <ele>59.214477</ele>
        <time>2020-08-18T07:40:53.892Z</time>
      </trkpt>
      <trkpt lat="36.496480" lon="-6.140223">
        <ele>59.369577</ele>
        <time>2020-08-18T07:40:55.897Z</time>
      </trkpt>
      <trkpt lat="36.496472" lon="-6.140375">
        <ele>59.537717</ele>
        <time>2020-08-18T07:40:57.890Z</time>
      </trkpt>
      <trkpt lat="36.496477" lon="-6.140491">
        <ele>59.665945</ele>
        <time>2020-08-18T07:40:59.894Z</time>
      </trkpt>
      <trkpt lat="36.496554" lon="-6.140623">
        <ele>59.845968</ele>
        <time>2020-08-18T07:41:01.915Z</time>
      </trkpt>
      <trkpt lat="36.496516" lon="-6.140887">
        <ele>60.142013</ele>
        <time>2020-08-18T07:41:04.901Z</time>
      </trkpt>
      <trkpt lat="36.496499" lon="-6.141061">
        <ele>60.335491</ele>
        <time>2020-08-18T07:41:06.901Z</time>
      </trkpt>
      <trkpt lat="36.496453" lon="-6.141265">
        <ele>60.569362</ele>
        <time>2020-08-18T07:41:08.882Z</time>
      </trkpt>
      <trkpt lat="36.496480" lon="-6.141402">
        <ele>60.725065</ele>
        <time>2020-08-18T07:41:10.901Z</time>
      </trkpt>
      <trkpt lat="36.496522" lon="-6.141525">
        <ele>60.872575</ele>
        <time>2020-08-18T07:41:12.902Z</time>
      </trkpt>
      <trkpt lat="36.496492" lon="-6.141643">
        <ele>61.009185</ele>
        <time>2020-08-18T07:41:13.905Z</time>
      </trkpt>
      <trkpt lat="36.496515" lon="-6.141773">
        <ele>61.156117</ele>
        <time>2020-08-18T07:41:15.901Z</time>
      </trkpt>
      <trkpt lat="36.496481" lon="-6.141928">
        <ele>61.329835</ele>
        <time>2020-08-18T07:41:17.874Z</time>
      </trkpt>
      <trkpt lat="36.496480" lon="-6.142055">
        <ele>60.847372</ele>
        <time>2020-08-18T07:41:19.903Z</time>
      </trkpt>
      <trkpt lat="36.496487" lon="-6.142170">
        <ele>60.409268</ele>
        <time>2020-08-18T07:41:21.898Z</time>
      </trkpt>
      <trkpt lat="36.496486" lon="-6.142308">
        <ele>59.885021</ele>
        <time>2020-08-18T07:41:24.881Z</time>
      </trkpt>
      <trkpt lat="36.496444" lon="-6.142462">
        <ele>59.267267</ele>
        <time>2020-08-18T07:41:27.897Z</time>
      </trkpt>
      <trkpt lat="36.496362" lon="-6.142557">
        <ele>58.737759</ele>
        <time>2020-08-18T07:41:30.863Z</time>
      </trkpt>
      <trkpt lat="36.496286" lon="-6.142648">
        <ele>58.239288</ele>
        <time>2020-08-18T07:41:33.904Z</time>
      </trkpt>
      <trkpt lat="36.496203" lon="-6.142698">
        <ele>57.803507</ele>
        <time>2020-08-18T07:41:38.875Z</time>
      </trkpt>
      <trkpt lat="36.496095" lon="-6.142731">
        <ele>57.277991</ele>
        <time>2020-08-18T07:41:43.892Z</time>
      </trkpt>
      <trkpt lat="36.496000" lon="-6.142748">
        <ele>56.824455</ele>
        <time>2020-08-18T07:41:46.901Z</time>
      </trkpt>
      <trkpt lat="36.495887" lon="-6.142763">
        <ele>56.287451</ele>
        <time>2020-08-18T07:41:49.905Z</time>
      </trkpt>
      <trkpt lat="36.495749" lon="-6.142777">
        <ele>55.633179</ele>
        <time>2020-08-18T07:41:52.901Z</time>
      </trkpt>
      <trkpt lat="36.495653" lon="-6.142770">
        <ele>55.178760</ele>
        <time>2020-08-18T07:41:54.917Z</time>
      </trkpt>
      <trkpt lat="36.495556" lon="-6.142749">
        <ele>54.713504</ele>
        <time>2020-08-18T07:41:56.892Z</time>
      </trkpt>
      <trkpt lat="36.495446" lon="-6.142738">
        <ele>54.192031</ele>
        <time>2020-08-18T07:41:58.901Z</time>
      </trkpt>
      <trkpt lat="36.495349" lon="-6.142734">
        <ele>53.733414</ele>
        <time>2020-08-18T07:42:00.900Z</time>
      </trkpt>
      <trkpt lat="36.495228" lon="-6.142768">
        <ele>53.147232</ele>
        <time>2020-08-18T07:42:03.905Z</time>
      </trkpt>
      <trkpt lat="36.495119" lon="-6.142773">
        <ele>52.939780</ele>
        <time>2020-08-18T07:42:06.900Z</time>
      </trkpt>
      <trkpt lat="36.495025" lon="-6.142766">
        <ele>53.174918</ele>
        <time>2020-08-18T07:42:09.900Z</time>
      </trkpt>
      <trkpt lat="36.494893" lon="-6.142778">
        <ele>53.505402</ele>
        <time>2020-08-18T07:42:12.900Z</time>
      </trkpt>
      <trkpt lat="36.494791" lon="-6.142765">
        <ele>53.761430</ele>
        <time>2020-08-18T07:42:15.874Z</time>
      </trkpt>
      <trkpt lat="36.494761" lon="-6.142875">
        <ele>53.994601</ele>
        <time>2020-08-18T07:42:22.880Z</time>
      </trkpt>
      <trkpt lat="36.494881" lon="-6.142861">
        <ele>54.295556</ele>
        <time>2020-08-18T07:42:26.868Z</time>
      </trkpt>
      <trkpt lat="36.494976" lon="-6.142841">
        <ele>54.536145</ele>
        <time>2020-08-18T07:42:29.878Z</time>
      </trkpt>
      <trkpt lat="36.495087" lon="-6.142847">
        <ele>54.813574</ele>
        <time>2020-08-18T07:42:32.913Z</time>
      </trkpt>
      <trkpt lat="36.495210" lon="-6.142849">
        <ele>55.120732</ele>
        <time>2020-08-18T07:42:36.896Z</time>
      </trkpt>
      <trkpt lat="36.495325" lon="-6.142829">
        <ele>55.410680</ele>
        <time>2020-08-18T07:42:39.884Z</time>
      </trkpt>
      <trkpt lat="36.495412" lon="-6.142796">
        <ele>55.637795</ele>
        <time>2020-08-18T07:42:41.885Z</time>
      </trkpt>
      <trkpt lat="36.495511" lon="-6.142801">
        <ele>55.885202</ele>
        <time>2020-08-18T07:42:44.894Z</time>
      </trkpt>
      <trkpt lat="36.495586" lon="-6.142900">
        <ele>56.158267</ele>
        <time>2020-08-18T07:42:47.886Z</time>
      </trkpt>
      <trkpt lat="36.495620" lon="-6.143041">
        <ele>56.453762</ele>
        <time>2020-08-18T07:42:49.874Z</time>
      </trkpt>
      <trkpt lat="36.495663" lon="-6.143144">
        <ele>56.686736</ele>
        <time>2020-08-18T07:42:51.887Z</time>
      </trkpt>
      <trkpt lat="36.495758" lon="-6.143117">
        <ele>56.930064</ele>
        <time>2020-08-18T07:42:53.887Z</time>
      </trkpt>
      <trkpt lat="36.495857" lon="-6.143105">
        <ele>57.178438</ele>
        <time>2020-08-18T07:42:59.883Z</time>
      </trkpt>
      <trkpt lat="36.495952" lon="-6.143138">
        <ele>57.606351</ele>
        <time>2020-08-18T07:43:04.888Z</time>
      </trkpt>
      <trkpt lat="36.496060" lon="-6.143157">
        <ele>58.372370</ele>
        <time>2020-08-18T07:43:08.898Z</time>
      </trkpt>
      <trkpt lat="36.496158" lon="-6.143204">
        <ele>59.109992</ele>
        <time>2020-08-18T07:43:12.892Z</time>
      </trkpt>
      <trkpt lat="36.496244" lon="-6.143284">
        <ele>59.864159</ele>
        <time>2020-08-18T07:43:16.891Z</time>
      </trkpt>
      <trkpt lat="36.496303" lon="-6.143398">
        <ele>60.629609</ele>
        <time>2020-08-18T07:43:20.903Z</time>
      </trkpt>
      <trkpt lat="36.496328" lon="-6.143535">
        <ele>61.422741</ele>
        <time>2020-08-18T07:43:24.897Z</time>
      </trkpt>
      <trkpt lat="36.496323" lon="-6.143648">
        <ele>62.061666</ele>
        <time>2020-08-18T07:43:28.885Z</time>
      </trkpt>
      <trkpt lat="36.496295" lon="-6.143777">
        <ele>62.816036</ele>
        <time>2020-08-18T07:43:32.884Z</time>
      </trkpt>
      <trkpt lat="36.496275" lon="-6.143913">
        <ele>63.596587</ele>
        <time>2020-08-18T07:43:36.919Z</time>
      </trkpt>
      <trkpt lat="36.496261" lon="-6.144031">
        <ele>64.269991</ele>
        <time>2020-08-18T07:43:39.893Z</time>
      </trkpt>
      <trkpt lat="36.496244" lon="-6.144152">
        <ele>64.963471</ele>
        <time>2020-08-18T07:43:42.898Z</time>
      </trkpt>
      <trkpt lat="36.496229" lon="-6.144303">
        <ele>65.822450</ele>
        <time>2020-08-18T07:43:45.913Z</time>
      </trkpt>
      <trkpt lat="36.496213" lon="-6.144449">
        <ele>66.654341</ele>
        <time>2020-08-18T07:43:47.898Z</time>
      </trkpt>
      <trkpt lat="36.496251" lon="-6.144581">
        <ele>67.445911</ele>
        <time>2020-08-18T07:43:49.894Z</time>
      </trkpt>
      <trkpt lat="36.496268" lon="-6.144702">
        <ele>68.139391</ele>
        <time>2020-08-18T07:43:51.894Z</time>
      </trkpt>
      <trkpt lat="36.496309" lon="-6.144829">
        <ele>68.912045</ele>
        <time>2020-08-18T07:43:53.900Z</time>
      </trkpt>
      <trkpt lat="36.496389" lon="-6.144938">
        <ele>69.745317</ele>
        <time>2020-08-18T07:43:57.890Z</time>
      </trkpt>
      <trkpt lat="36.496512" lon="-6.144942">
        <ele>69.459328</ele>
        <time>2020-08-18T07:44:00.903Z</time>
      </trkpt>
      <trkpt lat="36.496650" lon="-6.144891">
        <ele>68.690357</ele>
        <time>2020-08-18T07:44:03.911Z</time>
      </trkpt>
      <trkpt lat="36.496841" lon="-6.144863">
        <ele>67.663069</ele>
        <time>2020-08-18T07:44:05.916Z</time>
      </trkpt>
      <trkpt lat="36.496979" lon="-6.144883">
        <ele>66.920954</ele>
        <time>2020-08-18T07:44:07.902Z</time>
      </trkpt>
      <trkpt lat="36.497107" lon="-6.144916">
        <ele>66.222712</ele>
        <time>2020-08-18T07:44:09.905Z</time>
      </trkpt>
      <trkpt lat="36.497215" lon="-6.144979">
        <ele>65.585550</ele>
        <time>2020-08-18T07:44:11.900Z</time>
      </trkpt>
      <trkpt lat="36.497371" lon="-6.145037">
        <ele>64.715852</ele>
        <time>2020-08-18T07:44:13.894Z</time>
      </trkpt>
      <trkpt lat="36.497437" lon="-6.145155">
        <ele>64.098588</ele>
        <time>2020-08-18T07:44:15.895Z</time>
      </trkpt>
      <trkpt lat="36.497511" lon="-6.145238">
        <ele>63.566367</ele>
        <time>2020-08-18T07:44:17.900Z</time>
      </trkpt>
      <trkpt lat="36.497585" lon="-6.145343">
        <ele>62.966768</ele>
        <time>2020-08-18T07:44:20.885Z</time>
      </trkpt>
      <trkpt lat="36.497669" lon="-6.145440">
        <ele>62.354557</ele>
        <time>2020-08-18T07:44:25.899Z</time>
      </trkpt>
      <trkpt lat="36.497777" lon="-6.145497">
        <ele>61.727901</ele>
        <time>2020-08-18T07:44:30.862Z</time>
      </trkpt>
      <trkpt lat="36.497814" lon="-6.145615">
        <ele>61.184036</ele>
        <time>2020-08-18T07:44:34.897Z</time>
      </trkpt>
      <trkpt lat="36.497870" lon="-6.145709">
        <ele>60.681650</ele>
        <time>2020-08-18T07:44:38.901Z</time>
      </trkpt>
      <trkpt lat="36.497958" lon="-6.145803">
        <ele>60.493813</ele>
        <time>2020-08-18T07:44:44.904Z</time>
      </trkpt>
      <trkpt lat="36.498041" lon="-6.145876">
        <ele>60.768687</ele>
        <time>2020-08-18T07:44:48.888Z</time>
      </trkpt>
      <trkpt lat="36.498118" lon="-6.145963">
        <ele>61.049970</ele>
        <time>2020-08-18T07:44:53.906Z</time>
      </trkpt>
      <trkpt lat="36.498176" lon="-6.146061">
        <ele>61.314509</ele>
        <time>2020-08-18T07:44:58.902Z</time>
      </trkpt>
      <trkpt lat="36.498196" lon="-6.146178">
        <ele>61.574527</ele>
        <time>2020-08-18T07:45:02.895Z</time>
      </trkpt>
      <trkpt lat="36.498454" lon="-6.146514">
        <ele>62.584577</ele>
        <time>2020-08-18T07:47:17.910Z</time>
      </trkpt>
      <trkpt lat="36.498569" lon="-6.146686">
        <ele>63.070886</ele>
        <time>2020-08-18T07:47:19.899Z</time>
      </trkpt>
      <trkpt lat="36.498703" lon="-6.146840">
        <ele>63.564205</ele>
        <time>2020-08-18T07:47:21.898Z</time>
      </trkpt>
      <trkpt lat="36.498807" lon="-6.146966">
        <ele>63.956770</ele>
        <time>2020-08-18T07:47:23.907Z</time>
      </trkpt>
      <trkpt lat="36.498893" lon="-6.147061">
        <ele>64.267779</ele>
        <time>2020-08-18T07:47:25.883Z</time>
      </trkpt>
      <trkpt lat="36.498971" lon="-6.147159">
        <ele>64.567560</ele>
        <time>2020-08-18T07:47:27.898Z</time>
      </trkpt>
      <trkpt lat="36.499074" lon="-6.147216">
        <ele>64.872402</ele>
        <time>2020-08-18T07:47:29.882Z</time>
      </trkpt>
      <trkpt lat="36.499165" lon="-6.147201">
        <ele>65.120627</ele>
        <time>2020-08-18T07:47:31.894Z</time>
      </trkpt>
      <trkpt lat="36.499252" lon="-6.147160">
        <ele>65.114669</ele>
        <time>2020-08-18T07:47:33.882Z</time>
      </trkpt>
      <trkpt lat="36.499353" lon="-6.147089">
        <ele>64.922630</ele>
        <time>2020-08-18T07:47:36.881Z</time>
      </trkpt>
      <trkpt lat="36.499432" lon="-6.146976">
        <ele>64.723352</ele>
        <time>2020-08-18T07:47:39.893Z</time>
      </trkpt>
      <trkpt lat="36.499490" lon="-6.146882">
        <ele>64.565669</ele>
        <time>2020-08-18T07:47:41.886Z</time>
      </trkpt>
      <trkpt lat="36.499546" lon="-6.146789">
        <ele>64.411047</ele>
        <time>2020-08-18T07:47:43.898Z</time>
      </trkpt>
      <trkpt lat="36.499525" lon="-6.146669">
        <ele>64.247625</ele>
        <time>2020-08-18T07:47:46.888Z</time>
      </trkpt>
      <trkpt lat="36.499434" lon="-6.146621">
        <ele>64.084006</ele>
        <time>2020-08-18T07:47:49.875Z</time>
      </trkpt>
      <trkpt lat="36.499336" lon="-6.146557">
        <ele>63.900786</ele>
        <time>2020-08-18T07:47:53.883Z</time>
      </trkpt>
      <trkpt lat="36.499234" lon="-6.146525">
        <ele>63.726653</ele>
        <time>2020-08-18T07:47:56.882Z</time>
      </trkpt>
      <trkpt lat="36.499112" lon="-6.146519">
        <ele>63.524542</ele>
        <time>2020-08-18T07:48:00.889Z</time>
      </trkpt>
      <trkpt lat="36.499007" lon="-6.146507">
        <ele>63.349998</ele>
        <time>2020-08-18T07:48:03.893Z</time>
      </trkpt>
      <trkpt lat="36.498905" lon="-6.146498">
        <ele>63.180728</ele>
        <time>2020-08-18T07:48:06.887Z</time>
      </trkpt>
      <trkpt lat="36.498799" lon="-6.146482">
        <ele>63.003973</ele>
        <time>2020-08-18T07:48:09.900Z</time>
      </trkpt>
      <trkpt lat="36.498701" lon="-6.146446">
        <ele>62.834823</ele>
        <time>2020-08-18T07:48:12.892Z</time>
      </trkpt>
      <trkpt lat="36.498603" lon="-6.146424">
        <ele>62.669978</ele>
        <time>2020-08-18T07:48:15.884Z</time>
      </trkpt>
      <trkpt lat="36.498531" lon="-6.146338">
        <ele>62.504746</ele>
        <time>2020-08-18T07:48:18.882Z</time>
      </trkpt>
      <trkpt lat="36.498466" lon="-6.146208">
        <ele>62.301023</ele>
        <time>2020-08-18T07:48:21.868Z</time>
      </trkpt>
      <trkpt lat="36.498399" lon="-6.146130">
        <ele>61.989878</ele>
        <time>2020-08-18T07:48:23.891Z</time>
      </trkpt>
      <trkpt lat="36.498294" lon="-6.146070">
        <ele>61.444198</ele>
        <time>2020-08-18T07:48:26.896Z</time>
      </trkpt>
      <trkpt lat="36.498189" lon="-6.146077">
        <ele>60.947621</ele>
        <time>2020-08-18T07:48:29.870Z</time>
      </trkpt>
      <trkpt lat="36.498081" lon="-6.146134">
        <ele>60.393582</ele>
        <time>2020-08-18T07:48:32.878Z</time>
      </trkpt>
      <trkpt lat="36.497978" lon="-6.146199">
        <ele>59.848149</ele>
        <time>2020-08-18T07:48:35.901Z</time>
      </trkpt>
      <trkpt lat="36.497869" lon="-6.146268">
        <ele>59.270576</ele>
        <time>2020-08-18T07:48:38.899Z</time>
      </trkpt>
      <trkpt lat="36.497760" lon="-6.146364">
        <ele>58.639864</ele>
        <time>2020-08-18T07:48:41.911Z</time>
      </trkpt>
      <trkpt lat="36.497652" lon="-6.146441">
        <ele>58.052000</ele>
        <time>2020-08-18T07:48:44.886Z</time>
      </trkpt>
      <trkpt lat="36.497545" lon="-6.146486">
        <ele>57.518591</ele>
        <time>2020-08-18T07:48:47.899Z</time>
      </trkpt>
      <trkpt lat="36.497453" lon="-6.146532">
        <ele>57.050336</ele>
        <time>2020-08-18T07:48:50.893Z</time>
      </trkpt>
      <trkpt lat="36.497345" lon="-6.146587">
        <ele>56.499217</ele>
        <time>2020-08-18T07:48:53.895Z</time>
      </trkpt>
      <trkpt lat="36.497253" lon="-6.146652">
        <ele>55.999558</ele>
        <time>2020-08-18T07:48:56.896Z</time>
      </trkpt>
      <trkpt lat="36.497157" lon="-6.146740">
        <ele>55.436398</ele>
        <time>2020-08-18T07:48:59.884Z</time>
      </trkpt>
      <trkpt lat="36.497059" lon="-6.146848">
        <ele>54.818095</ele>
        <time>2020-08-18T07:49:02.890Z</time>
      </trkpt>
      <trkpt lat="36.496962" lon="-6.146925">
        <ele>54.274684</ele>
        <time>2020-08-18T07:49:05.895Z</time>
      </trkpt>
      <trkpt lat="36.496870" lon="-6.146990">
        <ele>53.775024</ele>
        <time>2020-08-18T07:49:07.906Z</time>
      </trkpt>
      <trkpt lat="36.496792" lon="-6.147072">
        <ele>53.596497</ele>
        <time>2020-08-18T07:49:10.897Z</time>
      </trkpt>
      <trkpt lat="36.496683" lon="-6.147141">
        <ele>53.410383</ele>
        <time>2020-08-18T07:49:13.899Z</time>
      </trkpt>
      <trkpt lat="36.496589" lon="-6.147230">
        <ele>53.230616</ele>
        <time>2020-08-18T07:49:16.880Z</time>
      </trkpt>
      <trkpt lat="36.496491" lon="-6.147330">
        <ele>53.037728</ele>
        <time>2020-08-18T07:49:19.899Z</time>
      </trkpt>
      <trkpt lat="36.496394" lon="-6.147441">
        <ele>52.837159</ele>
        <time>2020-08-18T07:49:22.882Z</time>
      </trkpt>
      <trkpt lat="36.496298" lon="-6.147541">
        <ele>52.646614</ele>
        <time>2020-08-18T07:49:25.895Z</time>
      </trkpt>
      <trkpt lat="36.496204" lon="-6.147634">
        <ele>52.463842</ele>
        <time>2020-08-18T07:49:28.891Z</time>
      </trkpt>
      <trkpt lat="36.496119" lon="-6.147724">
        <ele>52.293980</ele>
        <time>2020-08-18T07:49:31.879Z</time>
      </trkpt>
      <trkpt lat="36.496021" lon="-6.147818">
        <ele>52.105661</ele>
        <time>2020-08-18T07:49:34.872Z</time>
      </trkpt>
      <trkpt lat="36.495921" lon="-6.147920">
        <ele>51.908867</ele>
        <time>2020-08-18T07:49:37.891Z</time>
      </trkpt>
      <trkpt lat="36.495830" lon="-6.148025">
        <ele>51.719985</ele>
        <time>2020-08-18T07:49:40.892Z</time>
      </trkpt>
      <trkpt lat="36.495751" lon="-6.148125">
        <ele>51.548468</ele>
        <time>2020-08-18T07:49:43.891Z</time>
      </trkpt>
      <trkpt lat="36.495673" lon="-6.148226">
        <ele>51.377133</ele>
        <time>2020-08-18T07:49:46.900Z</time>
      </trkpt>
      <trkpt lat="36.495594" lon="-6.148326">
        <ele>51.205616</ele>
        <time>2020-08-18T07:49:49.901Z</time>
      </trkpt>
      <trkpt lat="36.495503" lon="-6.148434">
        <ele>51.014219</ele>
        <time>2020-08-18T07:49:52.908Z</time>
      </trkpt>
      <trkpt lat="36.495428" lon="-6.148522">
        <ele>50.917751</ele>
        <time>2020-08-18T07:49:54.884Z</time>
      </trkpt>
      <trkpt lat="36.495364" lon="-6.148639">
        <ele>50.816041</ele>
        <time>2020-08-18T07:49:57.887Z</time>
      </trkpt>
      <trkpt lat="36.495301" lon="-6.148737">
        <ele>50.725856</ele>
        <time>2020-08-18T07:49:59.900Z</time>
      </trkpt>
      <trkpt lat="36.495208" lon="-6.148842">
        <ele>50.613571</ele>
        <time>2020-08-18T07:50:02.905Z</time>
      </trkpt>
      <trkpt lat="36.495138" lon="-6.148930">
        <ele>50.524595</ele>
        <time>2020-08-18T07:50:04.887Z</time>
      </trkpt>
      <trkpt lat="36.495065" lon="-6.149045">
        <ele>50.419281</ele>
        <time>2020-08-18T07:50:07.889Z</time>
      </trkpt>
      <trkpt lat="36.494987" lon="-6.149124">
        <ele>50.329355</ele>
        <time>2020-08-18T07:50:09.881Z</time>
      </trkpt>
      <trkpt lat="36.494918" lon="-6.149240">
        <ele>50.225643</ele>
        <time>2020-08-18T07:50:12.886Z</time>
      </trkpt>
      <trkpt lat="36.494825" lon="-6.149330">
        <ele>50.120300</ele>
        <time>2020-08-18T07:50:15.885Z</time>
      </trkpt>
      <trkpt lat="36.494792" lon="-6.149444">
        <ele>50.033216</ele>
        <time>2020-08-18T07:50:18.890Z</time>
      </trkpt>
      <trkpt lat="36.494731" lon="-6.149542">
        <ele>49.944136</ele>
        <time>2020-08-18T07:50:21.885Z</time>
      </trkpt>
      <trkpt lat="36.494666" lon="-6.149649">
        <ele>49.847746</ele>
        <time>2020-08-18T07:50:24.892Z</time>
      </trkpt>
      <trkpt lat="36.494609" lon="-6.149760">
        <ele>49.753081</ele>
        <time>2020-08-18T07:50:27.888Z</time>
      </trkpt>
      <trkpt lat="36.494564" lon="-6.149869">
        <ele>49.665014</ele>
        <time>2020-08-18T07:50:30.894Z</time>
      </trkpt>
      <trkpt lat="36.494505" lon="-6.149984">
        <ele>49.566963</ele>
        <time>2020-08-18T07:50:33.898Z</time>
      </trkpt>
      <trkpt lat="36.494442" lon="-6.150098">
        <ele>49.467537</ele>
        <time>2020-08-18T07:50:36.893Z</time>
      </trkpt>
      <trkpt lat="36.494392" lon="-6.150224">
        <ele>49.565452</ele>
        <time>2020-08-18T07:50:39.902Z</time>
      </trkpt>
      <trkpt lat="36.494336" lon="-6.150347">
        <ele>50.155317</ele>
        <time>2020-08-18T07:50:42.889Z</time>
      </trkpt>
      <trkpt lat="36.494265" lon="-6.150479">
        <ele>50.818063</ele>
        <time>2020-08-18T07:50:45.895Z</time>
      </trkpt>
      <trkpt lat="36.494196" lon="-6.150610">
        <ele>51.471598</ele>
        <time>2020-08-18T07:50:48.902Z</time>
      </trkpt>
      <trkpt lat="36.494141" lon="-6.150745">
        <ele>52.103154</ele>
        <time>2020-08-18T07:50:51.900Z</time>
      </trkpt>
      <trkpt lat="36.494080" lon="-6.150883">
        <ele>52.760328</ele>
        <time>2020-08-18T07:50:54.893Z</time>
      </trkpt>
      <trkpt lat="36.494019" lon="-6.151015">
        <ele>53.395677</ele>
        <time>2020-08-18T07:50:57.874Z</time>
      </trkpt>
      <trkpt lat="36.493959" lon="-6.151151">
        <ele>54.043037</ele>
        <time>2020-08-18T07:51:00.892Z</time>
      </trkpt>
      <trkpt lat="36.493890" lon="-6.151262">
        <ele>54.628554</ele>
        <time>2020-08-18T07:51:03.886Z</time>
      </trkpt>
      <trkpt lat="36.493830" lon="-6.151374">
        <ele>55.190187</ele>
        <time>2020-08-18T07:51:06.893Z</time>
      </trkpt>
      <trkpt lat="36.493774" lon="-6.151488">
        <ele>55.747683</ele>
        <time>2020-08-18T07:51:09.888Z</time>
      </trkpt>
      <trkpt lat="36.493700" lon="-6.151606">
        <ele>56.372190</ele>
        <time>2020-08-18T07:51:12.907Z</time>
      </trkpt>
      <trkpt lat="36.493647" lon="-6.151730">
        <ele>56.958224</ele>
        <time>2020-08-18T07:51:15.902Z</time>
      </trkpt>
      <trkpt lat="36.493594" lon="-6.151861">
        <ele>57.570204</ele>
        <time>2020-08-18T07:51:18.887Z</time>
      </trkpt>
      <trkpt lat="36.493547" lon="-6.152000">
        <ele>58.199463</ele>
        <time>2020-08-18T07:51:21.895Z</time>
      </trkpt>
      <trkpt lat="36.493517" lon="-6.152124">
        <ele>58.735804</ele>
        <time>2020-08-18T07:51:24.881Z</time>
      </trkpt>
      <trkpt lat="36.493472" lon="-6.152250">
        <ele>59.012909</ele>
        <time>2020-08-18T07:51:27.895Z</time>
      </trkpt>
      <trkpt lat="36.493425" lon="-6.152366">
        <ele>59.273987</ele>
        <time>2020-08-18T07:51:30.890Z</time>
      </trkpt>
      <trkpt lat="36.493362" lon="-6.152493">
        <ele>59.573920</ele>
        <time>2020-08-18T07:51:33.873Z</time>
      </trkpt>
      <trkpt lat="36.493299" lon="-6.152626">
        <ele>59.884181</ele>
        <time>2020-08-18T07:51:36.882Z</time>
      </trkpt>
      <trkpt lat="36.493231" lon="-6.152752">
        <ele>60.189192</ele>
        <time>2020-08-18T07:51:39.898Z</time>
      </trkpt>
      <trkpt lat="36.493171" lon="-6.152871">
        <ele>60.471512</ele>
        <time>2020-08-18T07:51:42.896Z</time>
      </trkpt>
      <trkpt lat="36.493132" lon="-6.152989">
        <ele>60.727935</ele>
        <time>2020-08-18T07:51:45.889Z</time>
      </trkpt>
      <trkpt lat="36.493064" lon="-6.153127">
        <ele>61.053249</ele>
        <time>2020-08-18T07:51:48.883Z</time>
      </trkpt>
      <trkpt lat="36.493006" lon="-6.153267">
        <ele>61.369793</ele>
        <time>2020-08-18T07:51:51.901Z</time>
      </trkpt>
      <trkpt lat="36.492944" lon="-6.153393">
        <ele>61.666706</ele>
        <time>2020-08-18T07:51:54.888Z</time>
      </trkpt>
      <trkpt lat="36.492878" lon="-6.153501">
        <ele>61.939365</ele>
        <time>2020-08-18T07:51:57.880Z</time>
      </trkpt>
      <trkpt lat="36.492834" lon="-6.153617">
        <ele>62.197157</ele>
        <time>2020-08-18T07:52:00.876Z</time>
      </trkpt>
      <trkpt lat="36.492798" lon="-6.153737">
        <ele>62.454586</ele>
        <time>2020-08-18T07:52:03.879Z</time>
      </trkpt>
      <trkpt lat="36.492754" lon="-6.153857">
        <ele>62.719671</ele>
        <time>2020-08-18T07:52:06.893Z</time>
      </trkpt>
      <trkpt lat="36.492723" lon="-6.153993">
        <ele>63.003787</ele>
        <time>2020-08-18T07:52:09.890Z</time>
      </trkpt>
      <trkpt lat="36.492666" lon="-6.154132">
        <ele>63.250444</ele>
        <time>2020-08-18T07:52:12.900Z</time>
      </trkpt>
      <trkpt lat="36.492596" lon="-6.154247">
        <ele>63.321410</ele>
        <time>2020-08-18T07:52:15.883Z</time>
      </trkpt>
      <trkpt lat="36.492528" lon="-6.154366">
        <ele>63.393239</ele>
        <time>2020-08-18T07:52:18.901Z</time>
      </trkpt>
      <trkpt lat="36.492455" lon="-6.154505">
        <ele>63.474924</ele>
        <time>2020-08-18T07:52:20.885Z</time>
      </trkpt>
      <trkpt lat="36.492452" lon="-6.154645">
        <ele>63.543826</ele>
        <time>2020-08-18T07:52:24.881Z</time>
      </trkpt>
      <trkpt lat="36.492368" lon="-6.154708">
        <ele>63.603853</ele>
        <time>2020-08-18T07:52:26.884Z</time>
      </trkpt>
      <trkpt lat="36.492245" lon="-6.154847">
        <ele>63.705551</ele>
        <time>2020-08-18T07:52:29.887Z</time>
      </trkpt>
      <trkpt lat="36.492209" lon="-6.154966">
        <ele>63.768106</ele>
        <time>2020-08-18T07:52:32.902Z</time>
      </trkpt>
      <trkpt lat="36.492153" lon="-6.155103">
        <ele>63.843720</ele>
        <time>2020-08-18T07:52:35.894Z</time>
      </trkpt>
      <trkpt lat="36.492081" lon="-6.155225">
        <ele>63.918179</ele>
        <time>2020-08-18T07:52:38.890Z</time>
      </trkpt>
      <trkpt lat="36.492013" lon="-6.155335">
        <ele>63.986447</ele>
        <time>2020-08-18T07:52:41.886Z</time>
      </trkpt>
      <trkpt lat="36.491938" lon="-6.155459">
        <ele>64.062791</ele>
        <time>2020-08-18T07:52:44.891Z</time>
      </trkpt>
      <trkpt lat="36.491865" lon="-6.155585">
        <ele>64.139202</ele>
        <time>2020-08-18T07:52:47.906Z</time>
      </trkpt>
      <trkpt lat="36.491810" lon="-6.155715">
        <ele>64.211476</ele>
        <time>2020-08-18T07:52:50.894Z</time>
      </trkpt>
      <trkpt lat="36.491751" lon="-6.155837">
        <ele>64.281522</ele>
        <time>2020-08-18T07:52:52.894Z</time>
      </trkpt>
      <trkpt lat="36.491703" lon="-6.155957">
        <ele>64.356973</ele>
        <time>2020-08-18T07:52:55.883Z</time>
      </trkpt>
      <trkpt lat="36.491652" lon="-6.156096">
        <ele>64.471840</ele>
        <time>2020-08-18T07:52:58.883Z</time>
      </trkpt>
      <trkpt lat="36.491651" lon="-6.156239">
        <ele>64.579350</ele>
        <time>2020-08-18T07:53:02.889Z</time>
      </trkpt>
      <trkpt lat="36.491591" lon="-6.156374">
        <ele>64.695318</ele>
        <time>2020-08-18T07:53:05.910Z</time>
      </trkpt>
      <trkpt lat="36.491526" lon="-6.156499">
        <ele>64.807236</ele>
        <time>2020-08-18T07:53:08.888Z</time>
      </trkpt>
      <trkpt lat="36.491457" lon="-6.156620">
        <ele>64.918762</ele>
        <time>2020-08-18T07:53:11.902Z</time>
      </trkpt>
      <trkpt lat="36.491380" lon="-6.156706">
        <ele>65.015534</ele>
        <time>2020-08-18T07:53:13.889Z</time>
      </trkpt>
      <trkpt lat="36.491338" lon="-6.156835">
        <ele>65.120167</ele>
        <time>2020-08-18T07:53:16.887Z</time>
      </trkpt>
      <trkpt lat="36.491280" lon="-6.156977">
        <ele>65.239909</ele>
        <time>2020-08-18T07:53:19.882Z</time>
      </trkpt>
      <trkpt lat="36.491216" lon="-6.157114">
        <ele>65.359030</ele>
        <time>2020-08-18T07:53:22.890Z</time>
      </trkpt>
      <trkpt lat="36.491185" lon="-6.157226">
        <ele>65.448081</ele>
        <time>2020-08-18T07:53:25.882Z</time>
      </trkpt>
      <trkpt lat="36.491117" lon="-6.157334">
        <ele>65.551212</ele>
        <time>2020-08-18T07:53:28.881Z</time>
      </trkpt>
      <trkpt lat="36.491057" lon="-6.157459">
        <ele>65.660662</ele>
        <time>2020-08-18T07:53:31.907Z</time>
      </trkpt>
      <trkpt lat="36.490988" lon="-6.157577">
        <ele>65.770357</ele>
        <time>2020-08-18T07:53:34.893Z</time>
      </trkpt>
      <trkpt lat="36.490916" lon="-6.157687">
        <ele>65.876997</ele>
        <time>2020-08-18T07:53:37.892Z</time>
      </trkpt>
      <trkpt lat="36.490852" lon="-6.157808">
        <ele>65.985886</ele>
        <time>2020-08-18T07:53:40.898Z</time>
      </trkpt>
      <trkpt lat="36.490781" lon="-6.157930">
        <ele>66.082651</ele>
        <time>2020-08-18T07:53:43.890Z</time>
      </trkpt>
      <trkpt lat="36.490716" lon="-6.158047">
        <ele>66.169499</ele>
        <time>2020-08-18T07:53:46.871Z</time>
      </trkpt>
      <trkpt lat="36.490666" lon="-6.158166">
        <ele>66.251495</ele>
        <time>2020-08-18T07:53:49.901Z</time>
      </trkpt>
      <trkpt lat="36.490616" lon="-6.158297">
        <ele>66.340050</ele>
        <time>2020-08-18T07:53:52.903Z</time>
      </trkpt>
      <trkpt lat="36.490556" lon="-6.158426">
        <ele>66.431060</ele>
        <time>2020-08-18T07:53:55.880Z</time>
      </trkpt>
      <trkpt lat="36.490514" lon="-6.158540">
        <ele>66.507638</ele>
        <time>2020-08-18T07:53:58.888Z</time>
      </trkpt>
      <trkpt lat="36.490476" lon="-6.158647">
        <ele>66.579071</ele>
        <time>2020-08-18T07:54:01.887Z</time>
      </trkpt>
      <trkpt lat="36.490436" lon="-6.158772">
        <ele>66.661229</ele>
        <time>2020-08-18T07:54:05.882Z</time>
      </trkpt>
      <trkpt lat="36.490397" lon="-6.158887">
        <ele>66.737449</ele>
        <time>2020-08-18T07:54:08.888Z</time>
      </trkpt>
      <trkpt lat="36.490347" lon="-6.158997">
        <ele>66.814615</ele>
        <time>2020-08-18T07:54:11.884Z</time>
      </trkpt>
      <trkpt lat="36.490286" lon="-6.159109">
        <ele>66.897228</ele>
        <time>2020-08-18T07:54:14.900Z</time>
      </trkpt>
      <trkpt lat="36.490233" lon="-6.159220">
        <ele>66.976066</ele>
        <time>2020-08-18T07:54:17.899Z</time>
      </trkpt>
      <trkpt lat="36.490180" lon="-6.159339">
        <ele>67.059142</ele>
        <time>2020-08-18T07:54:20.893Z</time>
      </trkpt>
      <trkpt lat="36.490138" lon="-6.159470">
        <ele>67.145267</ele>
        <time>2020-08-18T07:54:23.887Z</time>
      </trkpt>
      <trkpt lat="36.490089" lon="-6.159615">
        <ele>67.241318</ele>
        <time>2020-08-18T07:54:26.892Z</time>
      </trkpt>
      <trkpt lat="36.490014" lon="-6.159745">
        <ele>67.339031</ele>
        <time>2020-08-18T07:54:29.896Z</time>
      </trkpt>
      <trkpt lat="36.489954" lon="-6.159877">
        <ele>67.295471</ele>
        <time>2020-08-18T07:54:32.887Z</time>
      </trkpt>
      <trkpt lat="36.489913" lon="-6.159997">
        <ele>67.174319</ele>
        <time>2020-08-18T07:54:35.895Z</time>
      </trkpt>
      <trkpt lat="36.489883" lon="-6.160120">
        <ele>67.054886</ele>
        <time>2020-08-18T07:54:38.905Z</time>
      </trkpt>
      <trkpt lat="36.489842" lon="-6.160245">
        <ele>66.929444</ele>
        <time>2020-08-18T07:54:41.891Z</time>
      </trkpt>
      <trkpt lat="36.489808" lon="-6.160371">
        <ele>66.805948</ele>
        <time>2020-08-18T07:54:44.913Z</time>
      </trkpt>
      <trkpt lat="36.489771" lon="-6.160475">
        <ele>66.700274</ele>
        <time>2020-08-18T07:54:51.887Z</time>
      </trkpt>
      <trkpt lat="36.489602" lon="-6.160735">
        <ele>66.389605</ele>
        <time>2020-08-18T08:10:01.892Z</time>
      </trkpt>
      <trkpt lat="36.489543" lon="-6.160849">
        <ele>66.263628</ele>
        <time>2020-08-18T08:10:05.885Z</time>
      </trkpt>
      <trkpt lat="36.489480" lon="-6.160933">
        <ele>66.156887</ele>
        <time>2020-08-18T08:10:08.890Z</time>
      </trkpt>
      <trkpt lat="36.489412" lon="-6.161045">
        <ele>66.026476</ele>
        <time>2020-08-18T08:10:12.887Z</time>
      </trkpt>
      <trkpt lat="36.489349" lon="-6.161149">
        <ele>65.905480</ele>
        <time>2020-08-18T08:10:15.883Z</time>
      </trkpt>
      <trkpt lat="36.489272" lon="-6.161240">
        <ele>65.782722</ele>
        <time>2020-08-18T08:10:19.898Z</time>
      </trkpt>
      <trkpt lat="36.489199" lon="-6.161337">
        <ele>65.659264</ele>
        <time>2020-08-18T08:10:24.893Z</time>
      </trkpt>
      <trkpt lat="36.489157" lon="-6.161460">
        <ele>65.535093</ele>
        <time>2020-08-18T08:10:29.895Z</time>
      </trkpt>
      <trkpt lat="36.489083" lon="-6.161551">
        <ele>65.414825</ele>
        <time>2020-08-18T08:10:33.873Z</time>
      </trkpt>
      <trkpt lat="36.489059" lon="-6.161669">
        <ele>65.301726</ele>
        <time>2020-08-18T08:10:37.883Z</time>
      </trkpt>
      <trkpt lat="36.489018" lon="-6.161791">
        <ele>65.532814</ele>
        <time>2020-08-18T08:10:41.893Z</time>
      </trkpt>
      <trkpt lat="36.488970" lon="-6.161898">
        <ele>65.754818</ele>
        <time>2020-08-18T08:10:44.909Z</time>
      </trkpt>
      <trkpt lat="36.488896" lon="-6.161995">
        <ele>65.997097</ele>
        <time>2020-08-18T08:10:47.879Z</time>
      </trkpt>
      <trkpt lat="36.488837" lon="-6.162093">
        <ele>66.218923</ele>
        <time>2020-08-18T08:10:50.902Z</time>
      </trkpt>
      <trkpt lat="36.488782" lon="-6.162209">
        <ele>66.462924</ele>
        <time>2020-08-18T08:10:53.887Z</time>
      </trkpt>
      <trkpt lat="36.488738" lon="-6.162324">
        <ele>66.693678</ele>
        <time>2020-08-18T08:10:56.898Z</time>
      </trkpt>
      <trkpt lat="36.488690" lon="-6.162436">
        <ele>66.923636</ele>
        <time>2020-08-18T08:10:59.891Z</time>
      </trkpt>
      <trkpt lat="36.488637" lon="-6.162554">
        <ele>67.168535</ele>
        <time>2020-08-18T08:11:03.886Z</time>
      </trkpt>
      <trkpt lat="36.488583" lon="-6.162675">
        <ele>67.419280</ele>
        <time>2020-08-18T08:11:07.883Z</time>
      </trkpt>
      <trkpt lat="36.488533" lon="-6.162799">
        <ele>67.670623</ele>
        <time>2020-08-18T08:11:11.885Z</time>
      </trkpt>
      <trkpt lat="36.488468" lon="-6.162918">
        <ele>67.931287</ele>
        <time>2020-08-18T08:11:15.901Z</time>
      </trkpt>
      <trkpt lat="36.488430" lon="-6.163022">
        <ele>68.138266</ele>
        <time>2020-08-18T08:11:18.910Z</time>
      </trkpt>
      <trkpt lat="36.488384" lon="-6.163163">
        <ele>68.413970</ele>
        <time>2020-08-18T08:11:21.922Z</time>
      </trkpt>
      <trkpt lat="36.488320" lon="-6.163308">
        <ele>68.713676</ele>
        <time>2020-08-18T08:11:24.895Z</time>
      </trkpt>
      <trkpt lat="36.488257" lon="-6.163441">
        <ele>68.993368</ele>
        <time>2020-08-18T08:11:27.904Z</time>
      </trkpt>
      <trkpt lat="36.488191" lon="-6.163571">
        <ele>69.271941</ele>
        <time>2020-08-18T08:11:30.900Z</time>
      </trkpt>
      <trkpt lat="36.488125" lon="-6.163707">
        <ele>69.137361</ele>
        <time>2020-08-18T08:11:33.898Z</time>
      </trkpt>
      <trkpt lat="36.488060" lon="-6.163827">
        <ele>68.865769</ele>
        <time>2020-08-18T08:11:36.896Z</time>
      </trkpt>
      <trkpt lat="36.487986" lon="-6.163939">
        <ele>68.593663</ele>
        <time>2020-08-18T08:11:39.899Z</time>
      </trkpt>
      <trkpt lat="36.487913" lon="-6.164050">
        <ele>68.324489</ele>
        <time>2020-08-18T08:11:42.884Z</time>
      </trkpt>
      <trkpt lat="36.487865" lon="-6.164174">
        <ele>68.066167</ele>
        <time>2020-08-18T08:11:45.893Z</time>
      </trkpt>
      <trkpt lat="36.487828" lon="-6.164304">
        <ele>67.807317</ele>
        <time>2020-08-18T08:11:48.884Z</time>
      </trkpt>
      <trkpt lat="36.487787" lon="-6.164432">
        <ele>67.548694</ele>
        <time>2020-08-18T08:11:51.890Z</time>
      </trkpt>
      <trkpt lat="36.487743" lon="-6.164562">
        <ele>67.283941</ele>
        <time>2020-08-18T08:11:54.891Z</time>
      </trkpt>
      <trkpt lat="36.487700" lon="-6.164664">
        <ele>67.067762</ele>
        <time>2020-08-18T08:11:57.886Z</time>
      </trkpt>
      <trkpt lat="36.487656" lon="-6.164762">
        <ele>66.857076</ele>
        <time>2020-08-18T08:12:00.896Z</time>
      </trkpt>
      <trkpt lat="36.487609" lon="-6.164867">
        <ele>66.631502</ele>
        <time>2020-08-18T08:12:03.899Z</time>
      </trkpt>
      <trkpt lat="36.487548" lon="-6.164967">
        <ele>66.395889</ele>
        <time>2020-08-18T08:12:06.903Z</time>
      </trkpt>
      <trkpt lat="36.487491" lon="-6.165061">
        <ele>66.174892</ele>
        <time>2020-08-18T08:12:09.895Z</time>
      </trkpt>
      <trkpt lat="36.487446" lon="-6.165174">
        <ele>65.938196</ele>
        <time>2020-08-18T08:12:13.905Z</time>
      </trkpt>
      <trkpt lat="36.487387" lon="-6.165265">
        <ele>65.718767</ele>
        <time>2020-08-18T08:12:17.898Z</time>
      </trkpt>
      <trkpt lat="36.487337" lon="-6.165371">
        <ele>65.488087</ele>
        <time>2020-08-18T08:12:21.899Z</time>
      </trkpt>
      <trkpt lat="36.487278" lon="-6.165476">
        <ele>65.247636</ele>
        <time>2020-08-18T08:12:25.899Z</time>
      </trkpt>
      <trkpt lat="36.487230" lon="-6.165589">
        <ele>64.792896</ele>
        <time>2020-08-18T08:12:29.886Z</time>
      </trkpt>
      <trkpt lat="36.487181" lon="-6.165689">
        <ele>64.248178</ele>
        <time>2020-08-18T08:12:32.902Z</time>
      </trkpt>
      <trkpt lat="36.487132" lon="-6.165800">
        <ele>63.659166</ele>
        <time>2020-08-18T08:12:35.891Z</time>
      </trkpt>
      <trkpt lat="36.487083" lon="-6.165928">
        <ele>62.999742</ele>
        <time>2020-08-18T08:12:38.869Z</time>
      </trkpt>
      <trkpt lat="36.487042" lon="-6.166055">
        <ele>62.363170</ele>
        <time>2020-08-18T08:12:41.912Z</time>
      </trkpt>
      <trkpt lat="36.487001" lon="-6.166176">
        <ele>61.752407</ele>
        <time>2020-08-18T08:12:44.885Z</time>
      </trkpt>
      <trkpt lat="36.486959" lon="-6.166303">
        <ele>61.113656</ele>
        <time>2020-08-18T08:12:47.897Z</time>
      </trkpt>
      <trkpt lat="36.486926" lon="-6.166419">
        <ele>60.541311</ele>
        <time>2020-08-18T08:12:49.893Z</time>
      </trkpt>
      <trkpt lat="36.486894" lon="-6.166536">
        <ele>59.966468</ele>
        <time>2020-08-18T08:12:51.906Z</time>
      </trkpt>
      <trkpt lat="36.486855" lon="-6.166681">
        <ele>59.255272</ele>
        <time>2020-08-18T08:12:54.881Z</time>
      </trkpt>
      <trkpt lat="36.486727" lon="-6.166774">
        <ele>58.397652</ele>
        <time>2020-08-18T08:12:57.904Z</time>
      </trkpt>
      <trkpt lat="36.486651" lon="-6.166896">
        <ele>57.679770</ele>
        <time>2020-08-18T08:13:00.901Z</time>
      </trkpt>
      <trkpt lat="36.486573" lon="-6.167001">
        <ele>57.014811</ele>
        <time>2020-08-18T08:13:03.891Z</time>
      </trkpt>
      <trkpt lat="36.486529" lon="-6.167123">
        <ele>56.392856</ele>
        <time>2020-08-18T08:13:06.877Z</time>
      </trkpt>
      <trkpt lat="36.486481" lon="-6.167246">
        <ele>55.756896</ele>
        <time>2020-08-18T08:13:09.899Z</time>
      </trkpt>
      <trkpt lat="36.486431" lon="-6.167381">
        <ele>55.065527</ele>
        <time>2020-08-18T08:13:12.900Z</time>
      </trkpt>
      <trkpt lat="36.486372" lon="-6.167503">
        <ele>54.808768</ele>
        <time>2020-08-18T08:13:15.882Z</time>
      </trkpt>
      <trkpt lat="36.486322" lon="-6.167627">
        <ele>54.924177</ele>
        <time>2020-08-18T08:13:18.890Z</time>
      </trkpt>
      <trkpt lat="36.486282" lon="-6.167743">
        <ele>55.029185</ele>
        <time>2020-08-18T08:13:21.890Z</time>
      </trkpt>
      <trkpt lat="36.486223" lon="-6.167847">
        <ele>55.135078</ele>
        <time>2020-08-18T08:13:24.894Z</time>
      </trkpt>
      <trkpt lat="36.486167" lon="-6.167967">
        <ele>55.250511</ele>
        <time>2020-08-18T08:13:27.887Z</time>
      </trkpt>
      <trkpt lat="36.486104" lon="-6.168062">
        <ele>55.352963</ele>
        <time>2020-08-18T08:13:30.889Z</time>
      </trkpt>
      <trkpt lat="36.486028" lon="-6.168194">
        <ele>55.488035</ele>
        <time>2020-08-18T08:13:33.893Z</time>
      </trkpt>
      <trkpt lat="36.485959" lon="-6.168312">
        <ele>55.609424</ele>
        <time>2020-08-18T08:13:36.895Z</time>
      </trkpt>
      <trkpt lat="36.485881" lon="-6.168426">
        <ele>55.733962</ele>
        <time>2020-08-18T08:13:39.898Z</time>
      </trkpt>
      <trkpt lat="36.485846" lon="-6.168547">
        <ele>55.840945</ele>
        <time>2020-08-18T08:13:42.900Z</time>
      </trkpt>
      <trkpt lat="36.485808" lon="-6.168671">
        <ele>55.951347</ele>
        <time>2020-08-18T08:13:45.899Z</time>
      </trkpt>
      <trkpt lat="36.485764" lon="-6.168804">
        <ele>56.070999</ele>
        <time>2020-08-18T08:13:48.894Z</time>
      </trkpt>
      <trkpt lat="36.485712" lon="-6.168926">
        <ele>56.185878</ele>
        <time>2020-08-18T08:13:51.902Z</time>
      </trkpt>
      <trkpt lat="36.485649" lon="-6.169046">
        <ele>56.305112</ele>
        <time>2020-08-18T08:13:54.873Z</time>
      </trkpt>
      <trkpt lat="36.485580" lon="-6.169157">
        <ele>56.421842</ele>
        <time>2020-08-18T08:13:57.888Z</time>
      </trkpt>
      <trkpt lat="36.485518" lon="-6.169245">
        <ele>56.519187</ele>
        <time>2020-08-18T08:13:59.885Z</time>
      </trkpt>
      <trkpt lat="36.485463" lon="-6.169375">
        <ele>56.628625</ele>
        <time>2020-08-18T08:14:02.892Z</time>
      </trkpt>
      <trkpt lat="36.485424" lon="-6.169518">
        <ele>56.705577</ele>
        <time>2020-08-18T08:14:05.890Z</time>
      </trkpt>
      <trkpt lat="36.485381" lon="-6.169635">
        <ele>56.771136</ele>
        <time>2020-08-18T08:14:08.892Z</time>
      </trkpt>
      <trkpt lat="36.485327" lon="-6.169755">
        <ele>56.841216</ele>
        <time>2020-08-18T08:14:11.898Z</time>
      </trkpt>
      <trkpt lat="36.485264" lon="-6.169875">
        <ele>56.914252</ele>
        <time>2020-08-18T08:14:14.883Z</time>
      </trkpt>
      <trkpt lat="36.485205" lon="-6.169996">
        <ele>56.986369</ele>
        <time>2020-08-18T08:14:17.892Z</time>
      </trkpt>
      <trkpt lat="36.485157" lon="-6.170117">
        <ele>57.055129</ele>
        <time>2020-08-18T08:14:20.905Z</time>
      </trkpt>
      <trkpt lat="36.485101" lon="-6.170233">
        <ele>57.124081</ele>
        <time>2020-08-18T08:14:23.884Z</time>
      </trkpt>
      <trkpt lat="36.485039" lon="-6.170360">
        <ele>57.199799</ele>
        <time>2020-08-18T08:14:26.907Z</time>
      </trkpt>
      <trkpt lat="36.485004" lon="-6.170463">
        <ele>57.256784</ele>
        <time>2020-08-18T08:14:29.896Z</time>
      </trkpt>
      <trkpt lat="36.484960" lon="-6.170577">
        <ele>57.321227</ele>
        <time>2020-08-18T08:14:32.886Z</time>
      </trkpt>
      <trkpt lat="36.484920" lon="-6.170697">
        <ele>57.387428</ele>
        <time>2020-08-18T08:14:35.893Z</time>
      </trkpt>
      <trkpt lat="36.484872" lon="-6.170820">
        <ele>57.457104</ele>
        <time>2020-08-18T08:14:38.884Z</time>
      </trkpt>
      <trkpt lat="36.484823" lon="-6.170927">
        <ele>57.519857</ele>
        <time>2020-08-18T08:14:41.905Z</time>
      </trkpt>
      <trkpt lat="36.484763" lon="-6.171054">
        <ele>57.594925</ele>
        <time>2020-08-18T08:14:44.882Z</time>
      </trkpt>
      <trkpt lat="36.484706" lon="-6.171174">
        <ele>57.665953</ele>
        <time>2020-08-18T08:14:47.891Z</time>
      </trkpt>
      <trkpt lat="36.484668" lon="-6.171286">
        <ele>57.727904</ele>
        <time>2020-08-18T08:14:50.891Z</time>
      </trkpt>
      <trkpt lat="36.484622" lon="-6.171390">
        <ele>57.622477</ele>
        <time>2020-08-18T08:14:53.889Z</time>
      </trkpt>
      <trkpt lat="36.484576" lon="-6.171499">
        <ele>57.424487</ele>
        <time>2020-08-18T08:14:56.874Z</time>
      </trkpt>
      <trkpt lat="36.484536" lon="-6.171612">
        <ele>57.225911</ele>
        <time>2020-08-18T08:14:59.891Z</time>
      </trkpt>
      <trkpt lat="36.484483" lon="-6.171739">
        <ele>56.995777</ele>
        <time>2020-08-18T08:15:02.894Z</time>
      </trkpt>
      <trkpt lat="36.484436" lon="-6.171846">
        <ele>56.799678</ele>
        <time>2020-08-18T08:15:05.885Z</time>
      </trkpt>
      <trkpt lat="36.484382" lon="-6.171972">
        <ele>56.570036</ele>
        <time>2020-08-18T08:15:09.903Z</time>
      </trkpt>
      <trkpt lat="36.484337" lon="-6.172075">
        <ele>56.381500</ele>
        <time>2020-08-18T08:15:12.910Z</time>
      </trkpt>
      <trkpt lat="36.484287" lon="-6.172189">
        <ele>56.172643</ele>
        <time>2020-08-18T08:15:15.903Z</time>
      </trkpt>
      <trkpt lat="36.484215" lon="-6.172300">
        <ele>55.943263</ele>
        <time>2020-08-18T08:15:18.893Z</time>
      </trkpt>
      <trkpt lat="36.484159" lon="-6.172424">
        <ele>55.714522</ele>
        <time>2020-08-18T08:15:21.886Z</time>
      </trkpt>
      <trkpt lat="36.484109" lon="-6.172548">
        <ele>55.491413</ele>
        <time>2020-08-18T08:15:24.905Z</time>
      </trkpt>
      <trkpt lat="36.484059" lon="-6.172668">
        <ele>55.274035</ele>
        <time>2020-08-18T08:15:27.891Z</time>
      </trkpt>
      <trkpt lat="36.483998" lon="-6.172778">
        <ele>55.059117</ele>
        <time>2020-08-18T08:15:30.901Z</time>
      </trkpt>
      <trkpt lat="36.483928" lon="-6.172899">
        <ele>54.819367</ele>
        <time>2020-08-18T08:15:33.920Z</time>
      </trkpt>
      <trkpt lat="36.483875" lon="-6.173014">
        <ele>54.606176</ele>
        <time>2020-08-18T08:15:36.901Z</time>
      </trkpt>
      <trkpt lat="36.483834" lon="-6.173131">
        <ele>54.400904</ele>
        <time>2020-08-18T08:15:39.904Z</time>
      </trkpt>
      <trkpt lat="36.483792" lon="-6.173235">
        <ele>54.213721</ele>
        <time>2020-08-18T08:15:42.883Z</time>
      </trkpt>
      <trkpt lat="36.483745" lon="-6.173354">
        <ele>54.126923</ele>
        <time>2020-08-18T08:15:45.889Z</time>
      </trkpt>
      <trkpt lat="36.483712" lon="-6.173458">
        <ele>54.098644</ele>
        <time>2020-08-18T08:15:48.888Z</time>
      </trkpt>
      <trkpt lat="36.483667" lon="-6.173596">
        <ele>54.060978</ele>
        <time>2020-08-18T08:15:52.890Z</time>
      </trkpt>
      <trkpt lat="36.483615" lon="-6.173698">
        <ele>54.030430</ele>
        <time>2020-08-18T08:15:57.916Z</time>
      </trkpt>
      <trkpt lat="36.483528" lon="-6.173842">
        <ele>53.984871</ele>
        <time>2020-08-18T08:16:00.890Z</time>
      </trkpt>
      <trkpt lat="36.483464" lon="-6.173955">
        <ele>53.949911</ele>
        <time>2020-08-18T08:16:04.896Z</time>
      </trkpt>
      <trkpt lat="36.483420" lon="-6.174053">
        <ele>53.921521</ele>
        <time>2020-08-18T08:16:12.915Z</time>
      </trkpt>
      <trkpt lat="36.483374" lon="-6.174161">
        <ele>53.890608</ele>
        <time>2020-08-18T08:16:18.916Z</time>
      </trkpt>
      <trkpt lat="36.483333" lon="-6.174267">
        <ele>53.860856</ele>
        <time>2020-08-18T08:16:21.886Z</time>
      </trkpt>
      <trkpt lat="36.482882" lon="-6.175078">
        <ele>53.611444</ele>
        <time>2020-08-18T08:16:35.926Z</time>
      </trkpt>
      <trkpt lat="36.482825" lon="-6.175203">
        <ele>53.583714</ele>
        <time>2020-08-18T08:16:38.887Z</time>
      </trkpt>
      <trkpt lat="36.482775" lon="-6.175328">
        <ele>53.580090</ele>
        <time>2020-08-18T08:16:42.898Z</time>
      </trkpt>
      <trkpt lat="36.482722" lon="-6.175468">
        <ele>53.576073</ele>
        <time>2020-08-18T08:16:45.875Z</time>
      </trkpt>
      <trkpt lat="36.482679" lon="-6.175574">
        <ele>53.572991</ele>
        <time>2020-08-18T08:16:47.894Z</time>
      </trkpt>
      <trkpt lat="36.482641" lon="-6.175702">
        <ele>53.569449</ele>
        <time>2020-08-18T08:16:49.920Z</time>
      </trkpt>
      <trkpt lat="36.482618" lon="-6.175842">
        <ele>53.565739</ele>
        <time>2020-08-18T08:16:51.904Z</time>
      </trkpt>
      <trkpt lat="36.482550" lon="-6.176002">
        <ele>53.561041</ele>
        <time>2020-08-18T08:16:53.905Z</time>
      </trkpt>
      <trkpt lat="36.482488" lon="-6.176121">
        <ele>53.557360</ele>
        <time>2020-08-18T08:16:55.882Z</time>
      </trkpt>
      <trkpt lat="36.482385" lon="-6.176235">
        <ele>53.552909</ele>
        <time>2020-08-18T08:16:58.903Z</time>
      </trkpt>
      <trkpt lat="36.482332" lon="-6.176345">
        <ele>53.549580</ele>
        <time>2020-08-18T08:17:03.890Z</time>
      </trkpt>
      <trkpt lat="36.482268" lon="-6.176484">
        <ele>53.545422</ele>
        <time>2020-08-18T08:17:08.895Z</time>
      </trkpt>
      <trkpt lat="36.482192" lon="-6.176587">
        <ele>53.541793</ele>
        <time>2020-08-18T08:17:11.888Z</time>
      </trkpt>
      <trkpt lat="36.482132" lon="-6.176699">
        <ele>53.538299</ele>
        <time>2020-08-18T08:17:14.898Z</time>
      </trkpt>
      <trkpt lat="36.482064" lon="-6.176813">
        <ele>53.534614</ele>
        <time>2020-08-18T08:17:17.906Z</time>
      </trkpt>
      <trkpt lat="36.482004" lon="-6.176910">
        <ele>53.531437</ele>
        <time>2020-08-18T08:17:20.906Z</time>
      </trkpt>
      <trkpt lat="36.481936" lon="-6.177010">
        <ele>53.528037</ele>
        <time>2020-08-18T08:17:23.902Z</time>
      </trkpt>
      <trkpt lat="36.481907" lon="-6.177136">
        <ele>53.594526</ele>
        <time>2020-08-18T08:17:26.895Z</time>
      </trkpt>
      <trkpt lat="36.481838" lon="-6.177239">
        <ele>53.713059</ele>
        <time>2020-08-18T08:17:29.884Z</time>
      </trkpt>
      <trkpt lat="36.481788" lon="-6.177338">
        <ele>53.816425</ele>
        <time>2020-08-18T08:17:32.891Z</time>
      </trkpt>
      <trkpt lat="36.481733" lon="-6.177438">
        <ele>53.923547</ele>
        <time>2020-08-18T08:17:35.885Z</time>
      </trkpt>
      <trkpt lat="36.481684" lon="-6.177542">
        <ele>54.030122</ele>
        <time>2020-08-18T08:17:38.889Z</time>
      </trkpt>
      <trkpt lat="36.481634" lon="-6.177654">
        <ele>54.143386</ele>
        <time>2020-08-18T08:17:41.874Z</time>
      </trkpt>
      <trkpt lat="36.481582" lon="-6.177773">
        <ele>54.263134</ele>
        <time>2020-08-18T08:17:44.903Z</time>
      </trkpt>
      <trkpt lat="36.481518" lon="-6.177907">
        <ele>54.400936</ele>
        <time>2020-08-18T08:17:47.892Z</time>
      </trkpt>
      <trkpt lat="36.481463" lon="-6.178042">
        <ele>54.534744</ele>
        <time>2020-08-18T08:17:50.896Z</time>
      </trkpt>
      <trkpt lat="36.481407" lon="-6.178166">
        <ele>54.660489</ele>
        <time>2020-08-18T08:17:53.896Z</time>
      </trkpt>
      <trkpt lat="36.481357" lon="-6.178289">
        <ele>54.782348</ele>
        <time>2020-08-18T08:17:56.872Z</time>
      </trkpt>
      <trkpt lat="36.481300" lon="-6.178407">
        <ele>54.904058</ele>
        <time>2020-08-18T08:17:59.904Z</time>
      </trkpt>
      <trkpt lat="36.481245" lon="-6.178521">
        <ele>55.021604</ele>
        <time>2020-08-18T08:18:02.899Z</time>
      </trkpt>
      <trkpt lat="36.481178" lon="-6.178640">
        <ele>55.150049</ele>
        <time>2020-08-18T08:18:05.913Z</time>
      </trkpt>
      <trkpt lat="36.481125" lon="-6.178746">
        <ele>55.260412</ele>
        <time>2020-08-18T08:18:08.893Z</time>
      </trkpt>
      <trkpt lat="36.481084" lon="-6.178846">
        <ele>55.359659</ele>
        <time>2020-08-18T08:18:11.908Z</time>
      </trkpt>
      <trkpt lat="36.481050" lon="-6.178952">
        <ele>55.460562</ele>
        <time>2020-08-18T08:18:14.889Z</time>
      </trkpt>
      <trkpt lat="36.481009" lon="-6.179091">
        <ele>55.488822</ele>
        <time>2020-08-18T08:18:18.899Z</time>
      </trkpt>
      <trkpt lat="36.480965" lon="-6.179223">
        <ele>55.466117</ele>
        <time>2020-08-18T08:18:22.891Z</time>
      </trkpt>
      <trkpt lat="36.480921" lon="-6.179352">
        <ele>55.443852</ele>
        <time>2020-08-18T08:18:26.885Z</time>
      </trkpt>
      <trkpt lat="36.480861" lon="-6.179482">
        <ele>55.420034</ele>
        <time>2020-08-18T08:18:30.889Z</time>
      </trkpt>
      <trkpt lat="36.480822" lon="-6.179590">
        <ele>55.401222</ele>
        <time>2020-08-18T08:18:33.904Z</time>
      </trkpt>
      <trkpt lat="36.480765" lon="-6.179718">
        <ele>55.377973</ele>
        <time>2020-08-18T08:18:36.904Z</time>
      </trkpt>
      <trkpt lat="36.480715" lon="-6.179815">
        <ele>55.359664</ele>
        <time>2020-08-18T08:18:38.891Z</time>
      </trkpt>
      <trkpt lat="36.480655" lon="-6.179958">
        <ele>55.334035</ele>
        <time>2020-08-18T08:18:41.880Z</time>
      </trkpt>
      <trkpt lat="36.480605" lon="-6.180052">
        <ele>55.316126</ele>
        <time>2020-08-18T08:18:43.886Z</time>
      </trkpt>
      <trkpt lat="36.480537" lon="-6.180177">
        <ele>55.292145</ele>
        <time>2020-08-18T08:18:46.903Z</time>
      </trkpt>
      <trkpt lat="36.480496" lon="-6.180300">
        <ele>55.270988</ele>
        <time>2020-08-18T08:18:49.900Z</time>
      </trkpt>
      <trkpt lat="36.480443" lon="-6.180414">
        <ele>55.250064</ele>
        <time>2020-08-18T08:18:52.898Z</time>
      </trkpt>
      <trkpt lat="36.480367" lon="-6.180539">
        <ele>55.225162</ele>
        <time>2020-08-18T08:18:55.897Z</time>
      </trkpt>
      <trkpt lat="36.480315" lon="-6.180632">
        <ele>55.207163</ele>
        <time>2020-08-18T08:18:57.886Z</time>
      </trkpt>
      <trkpt lat="36.480253" lon="-6.180735">
        <ele>55.186719</ele>
        <time>2020-08-18T08:18:59.913Z</time>
      </trkpt>
      <trkpt lat="36.480181" lon="-6.180881">
        <ele>55.159504</ele>
        <time>2020-08-18T08:19:02.901Z</time>
      </trkpt>
      <trkpt lat="36.480119" lon="-6.181012">
        <ele>55.144635</ele>
        <time>2020-08-18T08:19:05.895Z</time>
      </trkpt>
      <trkpt lat="36.480076" lon="-6.181115">
        <ele>55.138724</ele>
        <time>2020-08-18T08:19:07.891Z</time>
      </trkpt>
      <trkpt lat="36.480027" lon="-6.181262">
        <ele>55.130618</ele>
        <time>2020-08-18T08:19:10.904Z</time>
      </trkpt>
      <trkpt lat="36.479974" lon="-6.181355">
        <ele>55.124812</ele>
        <time>2020-08-18T08:19:12.889Z</time>
      </trkpt>
      <trkpt lat="36.479914" lon="-6.181501">
        <ele>55.116460</ele>
        <time>2020-08-18T08:19:15.899Z</time>
      </trkpt>
      <trkpt lat="36.479860" lon="-6.181622">
        <ele>55.109411</ele>
        <time>2020-08-18T08:19:21.902Z</time>
      </trkpt>
      <trkpt lat="36.479759" lon="-6.181852">
        <ele>55.096063</ele>
        <time>2020-08-18T08:19:23.903Z</time>
      </trkpt>
      <trkpt lat="36.479697" lon="-6.181987">
        <ele>55.088144</ele>
        <time>2020-08-18T08:19:26.887Z</time>
      </trkpt>
      <trkpt lat="36.479660" lon="-6.182120">
        <ele>55.080975</ele>
        <time>2020-08-18T08:19:30.909Z</time>
      </trkpt>
      <trkpt lat="36.479554" lon="-6.182345">
        <ele>55.067692</ele>
        <time>2020-08-18T08:19:34.902Z</time>
      </trkpt>
      <trkpt lat="36.479490" lon="-6.182481">
        <ele>55.059666</ele>
        <time>2020-08-18T08:19:37.897Z</time>
      </trkpt>
      <trkpt lat="36.479456" lon="-6.182597">
        <ele>55.053377</ele>
        <time>2020-08-18T08:19:40.897Z</time>
      </trkpt>
      <trkpt lat="36.479399" lon="-6.182735">
        <ele>55.045474</ele>
        <time>2020-08-18T08:19:43.912Z</time>
      </trkpt>
      <trkpt lat="36.479320" lon="-6.182898">
        <ele>55.035780</ele>
        <time>2020-08-18T08:19:46.892Z</time>
      </trkpt>
      <trkpt lat="36.479262" lon="-6.183033">
        <ele>55.173057</ele>
        <time>2020-08-18T08:19:49.899Z</time>
      </trkpt>
      <trkpt lat="36.479223" lon="-6.183153">
        <ele>55.301341</ele>
        <time>2020-08-18T08:19:52.906Z</time>
      </trkpt>
      <trkpt lat="36.479188" lon="-6.183264">
        <ele>55.419514</ele>
        <time>2020-08-18T08:19:54.885Z</time>
      </trkpt>
      <trkpt lat="36.479152" lon="-6.183369">
        <ele>55.532650</ele>
        <time>2020-08-18T08:19:56.899Z</time>
      </trkpt>
      <trkpt lat="36.479120" lon="-6.183482">
        <ele>55.651391</ele>
        <time>2020-08-18T08:20:00.904Z</time>
      </trkpt>
      <trkpt lat="36.479010" lon="-6.183633">
        <ele>55.853341</ele>
        <time>2020-08-18T08:20:03.888Z</time>
      </trkpt>
      <trkpt lat="36.478940" lon="-6.183752">
        <ele>55.999479</ele>
        <time>2020-08-18T08:20:07.887Z</time>
      </trkpt>
      <trkpt lat="36.478906" lon="-6.183859">
        <ele>56.113511</ele>
        <time>2020-08-18T08:20:12.892Z</time>
      </trkpt>
      <trkpt lat="36.478840" lon="-6.183983">
        <ele>56.260900</ele>
        <time>2020-08-18T08:20:14.887Z</time>
      </trkpt>
      <trkpt lat="36.478781" lon="-6.184122">
        <ele>56.416686</ele>
        <time>2020-08-18T08:20:18.900Z</time>
      </trkpt>
      <trkpt lat="36.478741" lon="-6.184233">
        <ele>56.537246</ele>
        <time>2020-08-18T08:20:22.885Z</time>
      </trkpt>
      <trkpt lat="36.478708" lon="-6.184378">
        <ele>56.686608</ele>
        <time>2020-08-18T08:20:24.910Z</time>
      </trkpt>
      <trkpt lat="36.478665" lon="-6.184545">
        <ele>56.860408</ele>
        <time>2020-08-18T08:20:25.903Z</time>
      </trkpt>
      <trkpt lat="36.478612" lon="-6.184705">
        <ele>57.031921</ele>
        <time>2020-08-18T08:20:27.887Z</time>
      </trkpt>
      <trkpt lat="36.478549" lon="-6.184815">
        <ele>57.165776</ele>
        <time>2020-08-18T08:20:29.890Z</time>
      </trkpt>
      <trkpt lat="36.478469" lon="-6.184975">
        <ele>57.150759</ele>
        <time>2020-08-18T08:20:31.895Z</time>
      </trkpt>
      <trkpt lat="36.478417" lon="-6.185164">
        <ele>56.950696</ele>
        <time>2020-08-18T08:20:33.891Z</time>
      </trkpt>
      <trkpt lat="36.478335" lon="-6.185292">
        <ele>56.786788</ele>
        <time>2020-08-18T08:20:35.885Z</time>
      </trkpt>
      <trkpt lat="36.478264" lon="-6.185431">
        <ele>56.621861</ele>
        <time>2020-08-18T08:20:37.921Z</time>
      </trkpt>
      <trkpt lat="36.478190" lon="-6.185556">
        <ele>56.466399</ele>
        <time>2020-08-18T08:20:39.907Z</time>
      </trkpt>
      <trkpt lat="36.478149" lon="-6.185684">
        <ele>56.328405</ele>
        <time>2020-08-18T08:20:41.890Z</time>
      </trkpt>
      <trkpt lat="36.478067" lon="-6.185768">
        <ele>56.196083</ele>
        <time>2020-08-18T08:20:43.899Z</time>
      </trkpt>
      <trkpt lat="36.477991" lon="-6.185913">
        <ele>56.022732</ele>
        <time>2020-08-18T08:20:46.885Z</time>
      </trkpt>
      <trkpt lat="36.477950" lon="-6.186027">
        <ele>55.897656</ele>
        <time>2020-08-18T08:20:48.902Z</time>
      </trkpt>
      <trkpt lat="36.477887" lon="-6.186179">
        <ele>55.726389</ele>
        <time>2020-08-18T08:20:51.902Z</time>
      </trkpt>
      <trkpt lat="36.477836" lon="-6.186299">
        <ele>55.590449</ele>
        <time>2020-08-18T08:20:54.903Z</time>
      </trkpt>
      <trkpt lat="36.477757" lon="-6.186397">
        <ele>55.451468</ele>
        <time>2020-08-18T08:20:57.905Z</time>
      </trkpt>
      <trkpt lat="36.477714" lon="-6.186497">
        <ele>55.337892</ele>
        <time>2020-08-18T08:21:01.884Z</time>
      </trkpt>
      <trkpt lat="36.477677" lon="-6.186611">
        <ele>55.214767</ele>
        <time>2020-08-18T08:21:05.887Z</time>
      </trkpt>
      <trkpt lat="36.477612" lon="-6.186734">
        <ele>55.067355</ele>
        <time>2020-08-18T08:21:09.901Z</time>
      </trkpt>
      <trkpt lat="36.477567" lon="-6.186868">
        <ele>54.908726</ele>
        <time>2020-08-18T08:21:13.897Z</time>
      </trkpt>
      <trkpt lat="36.477513" lon="-6.187001">
        <ele>54.737621</ele>
        <time>2020-08-18T08:21:17.891Z</time>
      </trkpt>
      <trkpt lat="36.477466" lon="-6.187097">
        <ele>54.608546</ele>
        <time>2020-08-18T08:21:20.901Z</time>
      </trkpt>
      <trkpt lat="36.477408" lon="-6.187198">
        <ele>54.466014</ele>
        <time>2020-08-18T08:21:23.904Z</time>
      </trkpt>
      <trkpt lat="36.477350" lon="-6.187298">
        <ele>54.324415</ele>
        <time>2020-08-18T08:21:26.902Z</time>
      </trkpt>
      <trkpt lat="36.477296" lon="-6.187396">
        <ele>54.187982</ele>
        <time>2020-08-18T08:21:29.901Z</time>
      </trkpt>
      <trkpt lat="36.477254" lon="-6.187505">
        <ele>54.049175</ele>
        <time>2020-08-18T08:21:32.904Z</time>
      </trkpt>
      <trkpt lat="36.477211" lon="-6.187613">
        <ele>53.910774</ele>
        <time>2020-08-18T08:21:35.904Z</time>
      </trkpt>
      <trkpt lat="36.477177" lon="-6.187718">
        <ele>53.780781</ele>
        <time>2020-08-18T08:21:38.900Z</time>
      </trkpt>
      <trkpt lat="36.477161" lon="-6.187831">
        <ele>53.649014</ele>
        <time>2020-08-18T08:21:41.877Z</time>
      </trkpt>
      <trkpt lat="36.477133" lon="-6.187948">
        <ele>53.508825</ele>
        <time>2020-08-18T08:21:44.894Z</time>
      </trkpt>
      <trkpt lat="36.477090" lon="-6.188069">
        <ele>53.356901</ele>
        <time>2020-08-18T08:21:47.894Z</time>
      </trkpt>
      <trkpt lat="36.477061" lon="-6.188198">
        <ele>53.203075</ele>
        <time>2020-08-18T08:21:50.877Z</time>
      </trkpt>
      <trkpt lat="36.477037" lon="-6.188348">
        <ele>53.027435</ele>
        <time>2020-08-18T08:21:53.904Z</time>
      </trkpt>
      <trkpt lat="36.477015" lon="-6.188464">
        <ele>52.890564</ele>
        <time>2020-08-18T08:21:55.895Z</time>
      </trkpt>
      <trkpt lat="36.476977" lon="-6.188601">
        <ele>52.724134</ele>
        <time>2020-08-18T08:21:57.904Z</time>
      </trkpt>
      <trkpt lat="36.476927" lon="-6.188742">
        <ele>52.547160</ele>
        <time>2020-08-18T08:21:59.900Z</time>
      </trkpt>
      <trkpt lat="36.476913" lon="-6.188859">
        <ele>52.397773</ele>
        <time>2020-08-18T08:22:01.912Z</time>
      </trkpt>
      <trkpt lat="36.476900" lon="-6.188992">
        <ele>52.178175</ele>
        <time>2020-08-18T08:22:03.901Z</time>
      </trkpt>
      <trkpt lat="36.476888" lon="-6.189124">
        <ele>51.960443</ele>
        <time>2020-08-18T08:22:05.898Z</time>
      </trkpt>
      <trkpt lat="36.476855" lon="-6.189244">
        <ele>51.752573</ele>
        <time>2020-08-18T08:22:07.902Z</time>
      </trkpt>
      <trkpt lat="36.476805" lon="-6.189358">
        <ele>51.539733</ele>
        <time>2020-08-18T08:22:10.905Z</time>
      </trkpt>
      <trkpt lat="36.476760" lon="-6.189462">
        <ele>51.346159</ele>
        <time>2020-08-18T08:22:13.902Z</time>
      </trkpt>
      <trkpt lat="36.476690" lon="-6.189578">
        <ele>51.108444</ele>
        <time>2020-08-18T08:22:17.880Z</time>
      </trkpt>
      <trkpt lat="36.476540" lon="-6.189704">
        <ele>50.739476</ele>
        <time>2020-08-18T08:22:22.881Z</time>
      </trkpt>
      <trkpt lat="36.476441" lon="-6.189693">
        <ele>50.536874</ele>
        <time>2020-08-18T08:22:31.897Z</time>
      </trkpt>
      <trkpt lat="36.476438" lon="-6.189809">
        <ele>50.346645</ele>
        <time>2020-08-18T08:22:46.870Z</time>
      </trkpt>
      <trkpt lat="36.476412" lon="-6.189928">
        <ele>50.144526</ele>
        <time>2020-08-18T08:22:50.884Z</time>
      </trkpt>
      <trkpt lat="36.476388" lon="-6.190049">
        <ele>49.940255</ele>
        <time>2020-08-18T08:22:55.885Z</time>
      </trkpt>
      <trkpt lat="36.476378" lon="-6.190162">
        <ele>49.753924</ele>
        <time>2020-08-18T08:22:59.891Z</time>
      </trkpt>
      <trkpt lat="36.476342" lon="-6.190297">
        <ele>49.520801</ele>
        <time>2020-08-18T08:23:03.903Z</time>
      </trkpt>
      <trkpt lat="36.476312" lon="-6.190404">
        <ele>49.335066</ele>
        <time>2020-08-18T08:23:06.886Z</time>
      </trkpt>
      <trkpt lat="36.476287" lon="-6.190514">
        <ele>49.147706</ele>
        <time>2020-08-18T08:23:09.890Z</time>
      </trkpt>
      <trkpt lat="36.476262" lon="-6.190631">
        <ele>48.949281</ele>
        <time>2020-08-18T08:23:12.885Z</time>
      </trkpt>
      <trkpt lat="36.476246" lon="-6.190762">
        <ele>48.837566</ele>
        <time>2020-08-18T08:23:15.907Z</time>
      </trkpt>
      <trkpt lat="36.476226" lon="-6.190882">
        <ele>49.111519</ele>
        <time>2020-08-18T08:23:18.885Z</time>
      </trkpt>
      <trkpt lat="36.476180" lon="-6.191000">
        <ele>49.404663</ele>
        <time>2020-08-18T08:23:22.884Z</time>
      </trkpt>
      <trkpt lat="36.476083" lon="-6.191081">
        <ele>49.729477</ele>
        <time>2020-08-18T08:23:27.900Z</time>
      </trkpt>
      <trkpt lat="36.476042" lon="-6.191204">
        <ele>50.027123</ele>
        <time>2020-08-18T08:23:31.900Z</time>
      </trkpt>
      <trkpt lat="36.476050" lon="-6.191322">
        <ele>50.291840</ele>
        <time>2020-08-18T08:23:34.878Z</time>
      </trkpt>
      <trkpt lat="36.476053" lon="-6.191472">
        <ele>50.627258</ele>
        <time>2020-08-18T08:23:38.894Z</time>
      </trkpt>
      <trkpt lat="36.476055" lon="-6.191593">
        <ele>50.897802</ele>
        <time>2020-08-18T08:23:41.883Z</time>
      </trkpt>
      <trkpt lat="36.476067" lon="-6.191730">
        <ele>51.205868</ele>
        <time>2020-08-18T08:23:45.886Z</time>
      </trkpt>
      <trkpt lat="36.476078" lon="-6.191857">
        <ele>51.491410</ele>
        <time>2020-08-18T08:23:49.900Z</time>
      </trkpt>
      <trkpt lat="36.476060" lon="-6.191987">
        <ele>51.786292</ele>
        <time>2020-08-18T08:23:53.906Z</time>
      </trkpt>
      <trkpt lat="36.476040" lon="-6.192121">
        <ele>52.090956</ele>
        <time>2020-08-18T08:23:57.889Z</time>
      </trkpt>
      <trkpt lat="36.476027" lon="-6.192240">
        <ele>52.359416</ele>
        <time>2020-08-18T08:24:01.898Z</time>
      </trkpt>
      <trkpt lat="36.476010" lon="-6.192356">
        <ele>52.622998</ele>
        <time>2020-08-18T08:24:05.903Z</time>
      </trkpt>
      <trkpt lat="36.475994" lon="-6.192467">
        <ele>52.875086</ele>
        <time>2020-08-18T08:24:09.910Z</time>
      </trkpt>
      <trkpt lat="36.475946" lon="-6.192576">
        <ele>53.152895</ele>
        <time>2020-08-18T08:24:13.902Z</time>
      </trkpt>
      <trkpt lat="36.475917" lon="-6.192703">
        <ele>53.448020</ele>
        <time>2020-08-18T08:24:17.872Z</time>
      </trkpt>
      <trkpt lat="36.475911" lon="-6.192852">
        <ele>53.779742</ele>
        <time>2020-08-18T08:24:21.903Z</time>
      </trkpt>
      <trkpt lat="36.475920" lon="-6.192992">
        <ele>53.970755</ele>
        <time>2020-08-18T08:24:24.899Z</time>
      </trkpt>
      <trkpt lat="36.475898" lon="-6.193122">
        <ele>54.151434</ele>
        <time>2020-08-18T08:24:27.898Z</time>
      </trkpt>
      <trkpt lat="36.475881" lon="-6.193252">
        <ele>54.330562</ele>
        <time>2020-08-18T08:24:30.896Z</time>
      </trkpt>
      <trkpt lat="36.475872" lon="-6.193367">
        <ele>54.487706</ele>
        <time>2020-08-18T08:24:33.892Z</time>
      </trkpt>
      <trkpt lat="36.475869" lon="-6.193514">
        <ele>54.687697</ele>
        <time>2020-08-18T08:24:37.898Z</time>
      </trkpt>
      <trkpt lat="36.475885" lon="-6.193635">
        <ele>54.854472</ele>
        <time>2020-08-18T08:24:40.896Z</time>
      </trkpt>
      <trkpt lat="36.475848" lon="-6.193775">
        <ele>55.054899</ele>
        <time>2020-08-18T08:24:43.875Z</time>
      </trkpt>
      <trkpt lat="36.475815" lon="-6.193925">
        <ele>55.266403</ele>
        <time>2020-08-18T08:24:46.880Z</time>
      </trkpt>
      <trkpt lat="36.475785" lon="-6.194081">
        <ele>55.484553</ele>
        <time>2020-08-18T08:24:49.894Z</time>
      </trkpt>
      <trkpt lat="36.475769" lon="-6.194234">
        <ele>55.694392</ele>
        <time>2020-08-18T08:24:52.889Z</time>
      </trkpt>
      <trkpt lat="36.475738" lon="-6.194379">
        <ele>55.898449</ele>
        <time>2020-08-18T08:24:55.902Z</time>
      </trkpt>
      <trkpt lat="36.475781" lon="-6.194500">
        <ele>56.078369</ele>
        <time>2020-08-18T08:24:58.870Z</time>
      </trkpt>
      <trkpt lat="36.475792" lon="-6.194638">
        <ele>56.266975</ele>
        <time>2020-08-18T08:25:02.894Z</time>
      </trkpt>
      <trkpt lat="36.475786" lon="-6.194752">
        <ele>56.422352</ele>
        <time>2020-08-18T08:25:05.877Z</time>
      </trkpt>
      <trkpt lat="36.475772" lon="-6.194875">
        <ele>56.591305</ele>
        <time>2020-08-18T08:25:11.880Z</time>
      </trkpt>
      <trkpt lat="36.475798" lon="-6.195013">
        <ele>56.784074</ele>
        <time>2020-08-18T08:25:15.884Z</time>
      </trkpt>
      <trkpt lat="36.475908" lon="-6.195086">
        <ele>57.080946</ele>
        <time>2020-08-18T08:25:19.871Z</time>
      </trkpt>
      <trkpt lat="36.475951" lon="-6.195185">
        <ele>57.308826</ele>
        <time>2020-08-18T08:25:22.863Z</time>
      </trkpt>
      <trkpt lat="36.475961" lon="-6.195309">
        <ele>57.561216</ele>
        <time>2020-08-18T08:25:25.885Z</time>
      </trkpt>
      <trkpt lat="36.475963" lon="-6.195460">
        <ele>57.867071</ele>
        <time>2020-08-18T08:25:28.897Z</time>
      </trkpt>
      <trkpt lat="36.475965" lon="-6.195603">
        <ele>58.156725</ele>
        <time>2020-08-18T08:25:31.903Z</time>
      </trkpt>
      <trkpt lat="36.475972" lon="-6.195752">
        <ele>58.459002</ele>
        <time>2020-08-18T08:25:34.898Z</time>
      </trkpt>
      <trkpt lat="36.475976" lon="-6.195892">
        <ele>58.742716</ele>
        <time>2020-08-18T08:25:37.895Z</time>
      </trkpt>
      <trkpt lat="36.475961" lon="-6.196051">
        <ele>59.066939</ele>
        <time>2020-08-18T08:25:40.882Z</time>
      </trkpt>
      <trkpt lat="36.475945" lon="-6.196196">
        <ele>59.363352</ele>
        <time>2020-08-18T08:25:43.891Z</time>
      </trkpt>
      <trkpt lat="36.475933" lon="-6.196338">
        <ele>59.652522</ele>
        <time>2020-08-18T08:25:46.909Z</time>
      </trkpt>
      <trkpt lat="36.475927" lon="-6.196480">
        <ele>59.940504</ele>
        <time>2020-08-18T08:25:49.900Z</time>
      </trkpt>
      <trkpt lat="36.475918" lon="-6.196635">
        <ele>60.255235</ele>
        <time>2020-08-18T08:25:52.902Z</time>
      </trkpt>
      <trkpt lat="36.475903" lon="-6.196775">
        <ele>60.541276</ele>
        <time>2020-08-18T08:25:55.908Z</time>
      </trkpt>
      <trkpt lat="36.475886" lon="-6.196920">
        <ele>60.838043</ele>
        <time>2020-08-18T08:25:58.887Z</time>
      </trkpt>
      <trkpt lat="36.475881" lon="-6.197069">
        <ele>61.140068</ele>
        <time>2020-08-18T08:26:01.895Z</time>
      </trkpt>
      <trkpt lat="36.475851" lon="-6.197205">
        <ele>61.325386</ele>
        <time>2020-08-18T08:26:04.893Z</time>
      </trkpt>
      <trkpt lat="36.475856" lon="-6.197346">
        <ele>61.235999</ele>
        <time>2020-08-18T08:26:07.897Z</time>
      </trkpt>
      <trkpt lat="36.475874" lon="-6.197476">
        <ele>61.152454</ele>
        <time>2020-08-18T08:26:10.900Z</time>
      </trkpt>
      <trkpt lat="36.475872" lon="-6.197616">
        <ele>61.063773</ele>
        <time>2020-08-18T08:26:13.894Z</time>
      </trkpt>
      <trkpt lat="36.475874" lon="-6.197753">
        <ele>60.976991</ele>
        <time>2020-08-18T08:26:16.889Z</time>
      </trkpt>
      <trkpt lat="36.475948" lon="-6.197827">
        <ele>60.902201</ele>
        <time>2020-08-18T08:26:19.885Z</time>
      </trkpt>
      <trkpt lat="36.476107" lon="-6.198164">
        <ele>60.654739</ele>
        <time>2020-08-18T08:27:13.867Z</time>
      </trkpt>
      <trkpt lat="36.476166" lon="-6.198419">
        <ele>60.486686</ele>
        <time>2020-08-18T08:27:19.893Z</time>
      </trkpt>
      <trkpt lat="36.476166" lon="-6.198594">
        <ele>60.375853</ele>
        <time>2020-08-18T08:27:25.881Z</time>
      </trkpt>
      <trkpt lat="36.476148" lon="-6.198710">
        <ele>60.301031</ele>
        <time>2020-08-18T08:27:27.870Z</time>
      </trkpt>
      <trkpt lat="36.476226" lon="-6.198823">
        <ele>60.206712</ele>
        <time>2020-08-18T08:27:30.900Z</time>
      </trkpt>
      <trkpt lat="36.476256" lon="-6.198991">
        <ele>60.097720</ele>
        <time>2020-08-18T08:27:33.894Z</time>
      </trkpt>
      <trkpt lat="36.476156" lon="-6.199139">
        <ele>59.975288</ele>
        <time>2020-08-18T08:27:35.874Z</time>
      </trkpt>
      <trkpt lat="36.476090" lon="-6.199272">
        <ele>60.207530</ele>
        <time>2020-08-18T08:27:37.878Z</time>
      </trkpt>
      <trkpt lat="36.476043" lon="-6.199425">
        <ele>60.713926</ele>
        <time>2020-08-18T08:27:40.881Z</time>
      </trkpt>
      <trkpt lat="36.475953" lon="-6.199532">
        <ele>61.192677</ele>
        <time>2020-08-18T08:27:42.900Z</time>
      </trkpt>
      <trkpt lat="36.475845" lon="-6.199662">
        <ele>61.770607</ele>
        <time>2020-08-18T08:27:44.885Z</time>
      </trkpt>
      <trkpt lat="36.475745" lon="-6.199770">
        <ele>62.279870</ele>
        <time>2020-08-18T08:27:46.887Z</time>
      </trkpt>
      <trkpt lat="36.475677" lon="-6.199875">
        <ele>62.696713</ele>
        <time>2020-08-18T08:27:48.899Z</time>
      </trkpt>
      <trkpt lat="36.475612" lon="-6.200096">
        <ele>63.424288</ele>
        <time>2020-08-18T08:27:54.901Z</time>
      </trkpt>
      <trkpt lat="36.475543" lon="-6.200270">
        <ele>64.024135</ele>
        <time>2020-08-18T08:27:55.888Z</time>
      </trkpt>
      <trkpt lat="36.475469" lon="-6.200389">
        <ele>64.489252</ele>
        <time>2020-08-18T08:27:57.902Z</time>
      </trkpt>
      <trkpt lat="36.475436" lon="-6.200523">
        <ele>64.922557</ele>
        <time>2020-08-18T08:28:00.895Z</time>
      </trkpt>
      <trkpt lat="36.475447" lon="-6.200641">
        <ele>65.289841</ele>
        <time>2020-08-18T08:28:02.865Z</time>
      </trkpt>
      <trkpt lat="36.475448" lon="-6.200757">
        <ele>65.648519</ele>
        <time>2020-08-18T08:28:04.894Z</time>
      </trkpt>
      <trkpt lat="36.475413" lon="-6.200880">
        <ele>66.051928</ele>
        <time>2020-08-18T08:28:07.881Z</time>
      </trkpt>
      <trkpt lat="36.475304" lon="-6.200965">
        <ele>66.546624</ele>
        <time>2020-08-18T08:28:09.870Z</time>
      </trkpt>
      <trkpt lat="36.475189" lon="-6.200980">
        <ele>66.795337</ele>
        <time>2020-08-18T08:28:11.863Z</time>
      </trkpt>
      <trkpt lat="36.475074" lon="-6.201003">
        <ele>66.628387</ele>
        <time>2020-08-18T08:28:13.882Z</time>
      </trkpt>
      <trkpt lat="36.475010" lon="-6.201111">
        <ele>66.473760</ele>
        <time>2020-08-18T08:28:15.874Z</time>
      </trkpt>
      <trkpt lat="36.474933" lon="-6.201227">
        <ele>66.300394</ele>
        <time>2020-08-18T08:28:17.867Z</time>
      </trkpt>
      <trkpt lat="36.474850" lon="-6.201352">
        <ele>66.113554</ele>
        <time>2020-08-18T08:28:19.868Z</time>
      </trkpt>
      <trkpt lat="36.474748" lon="-6.201494">
        <ele>65.894100</ele>
        <time>2020-08-18T08:28:21.868Z</time>
      </trkpt>
      <trkpt lat="36.474642" lon="-6.201616">
        <ele>65.687084</ele>
        <time>2020-08-18T08:28:23.882Z</time>
      </trkpt>
      <trkpt lat="36.474579" lon="-6.201696">
        <ele>65.558026</ele>
        <time>2020-08-18T08:28:24.875Z</time>
      </trkpt>
      <trkpt lat="36.474465" lon="-6.201845">
        <ele>65.320979</ele>
        <time>2020-08-18T08:28:26.880Z</time>
      </trkpt>
      <trkpt lat="36.474352" lon="-6.202004">
        <ele>65.076404</ele>
        <time>2020-08-18T08:28:28.898Z</time>
      </trkpt>
      <trkpt lat="36.474219" lon="-6.202141">
        <ele>64.828868</ele>
        <time>2020-08-18T08:28:30.903Z</time>
      </trkpt>
      <trkpt lat="36.474080" lon="-6.202282">
        <ele>64.571761</ele>
        <time>2020-08-18T08:28:32.897Z</time>
      </trkpt>
      <trkpt lat="36.474025" lon="-6.202371">
        <ele>64.442389</ele>
        <time>2020-08-18T08:28:33.902Z</time>
      </trkpt>
      <trkpt lat="36.473920" lon="-6.202494">
        <ele>64.270578</ele>
        <time>2020-08-18T08:28:35.895Z</time>
      </trkpt>
      <trkpt lat="36.473875" lon="-6.202593">
        <ele>64.270919</ele>
        <time>2020-08-18T08:28:36.901Z</time>
      </trkpt>
      <trkpt lat="36.473786" lon="-6.202777">
        <ele>64.271563</ele>
        <time>2020-08-18T08:28:38.891Z</time>
      </trkpt>
      <trkpt lat="36.473654" lon="-6.202927">
        <ele>64.272229</ele>
        <time>2020-08-18T08:28:40.898Z</time>
      </trkpt>
      <trkpt lat="36.473557" lon="-6.203094">
        <ele>64.272847</ele>
        <time>2020-08-18T08:28:42.900Z</time>
      </trkpt>
      <trkpt lat="36.473484" lon="-6.203241">
        <ele>64.273365</ele>
        <time>2020-08-18T08:28:44.889Z</time>
      </trkpt>
      <trkpt lat="36.473399" lon="-6.203394">
        <ele>64.273923</ele>
        <time>2020-08-18T08:28:46.898Z</time>
      </trkpt>
      <trkpt lat="36.473286" lon="-6.203539">
        <ele>64.274528</ele>
        <time>2020-08-18T08:28:48.879Z</time>
      </trkpt>
      <trkpt lat="36.473144" lon="-6.203621">
        <ele>64.275112</ele>
        <time>2020-08-18T08:28:50.923Z</time>
      </trkpt>
      <trkpt lat="36.473049" lon="-6.203742">
        <ele>64.275619</ele>
        <time>2020-08-18T08:28:52.890Z</time>
      </trkpt>
      <trkpt lat="36.472907" lon="-6.203858">
        <ele>64.276253</ele>
        <time>2020-08-18T08:28:54.895Z</time>
      </trkpt>
      <trkpt lat="36.472831" lon="-6.203921">
        <ele>64.276594</ele>
        <time>2020-08-18T08:28:55.901Z</time>
      </trkpt>
      <trkpt lat="36.472733" lon="-6.204036">
        <ele>64.277096</ele>
        <time>2020-08-18T08:28:57.903Z</time>
      </trkpt>
      <trkpt lat="36.472648" lon="-6.204190">
        <ele>64.204072</ele>
        <time>2020-08-18T08:28:59.891Z</time>
      </trkpt>
      <trkpt lat="36.472534" lon="-6.204289">
        <ele>64.121961</ele>
        <time>2020-08-18T08:29:01.896Z</time>
      </trkpt>
      <trkpt lat="36.472437" lon="-6.204405">
        <ele>64.042491</ele>
        <time>2020-08-18T08:29:03.896Z</time>
      </trkpt>
      <trkpt lat="36.472333" lon="-6.204490">
        <ele>63.968999</ele>
        <time>2020-08-18T08:29:05.902Z</time>
      </trkpt>
      <trkpt lat="36.472257" lon="-6.204553">
        <ele>63.915062</ele>
        <time>2020-08-18T08:29:06.898Z</time>
      </trkpt>
      <trkpt lat="36.472146" lon="-6.204647">
        <ele>63.835758</ele>
        <time>2020-08-18T08:29:08.909Z</time>
      </trkpt>
      <trkpt lat="36.472047" lon="-6.204817">
        <ele>63.736084</ele>
        <time>2020-08-18T08:29:10.885Z</time>
      </trkpt>
      <trkpt lat="36.471894" lon="-6.204887">
        <ele>63.639812</ele>
        <time>2020-08-18T08:29:12.900Z</time>
      </trkpt>
      <trkpt lat="36.471749" lon="-6.204981">
        <ele>63.543249</ele>
        <time>2020-08-18T08:29:14.902Z</time>
      </trkpt>
      <trkpt lat="36.471661" lon="-6.205067">
        <ele>63.477155</ele>
        <time>2020-08-18T08:29:16.899Z</time>
      </trkpt>
      <trkpt lat="36.471565" lon="-6.205165">
        <ele>63.403810</ele>
        <time>2020-08-18T08:29:18.901Z</time>
      </trkpt>
      <trkpt lat="36.471472" lon="-6.205197">
        <ele>63.346827</ele>
        <time>2020-08-18T08:29:19.884Z</time>
      </trkpt>
      <trkpt lat="36.471372" lon="-6.205294">
        <ele>63.271933</ele>
        <time>2020-08-18T08:29:21.903Z</time>
      </trkpt>
      <trkpt lat="36.471274" lon="-6.205381">
        <ele>63.174440</ele>
        <time>2020-08-18T08:29:23.889Z</time>
      </trkpt>
      <trkpt lat="36.471125" lon="-6.205446">
        <ele>62.908116</ele>
        <time>2020-08-18T08:29:25.894Z</time>
      </trkpt>
      <trkpt lat="36.470986" lon="-6.205520">
        <ele>62.653093</ele>
        <time>2020-08-18T08:29:27.897Z</time>
      </trkpt>
      <trkpt lat="36.470873" lon="-6.205628">
        <ele>62.412714</ele>
        <time>2020-08-18T08:29:29.898Z</time>
      </trkpt>
      <trkpt lat="36.470744" lon="-6.205740">
        <ele>62.147355</ele>
        <time>2020-08-18T08:29:31.902Z</time>
      </trkpt>
      <trkpt lat="36.470591" lon="-6.205818">
        <ele>61.868456</ele>
        <time>2020-08-18T08:29:33.898Z</time>
      </trkpt>
      <trkpt lat="36.470486" lon="-6.205819">
        <ele>61.691354</ele>
        <time>2020-08-18T08:29:34.899Z</time>
      </trkpt>
      <trkpt lat="36.470402" lon="-6.205975">
        <ele>61.436713</ele>
        <time>2020-08-18T08:29:36.904Z</time>
      </trkpt>
      <trkpt lat="36.470306" lon="-6.206094">
        <ele>61.208091</ele>
        <time>2020-08-18T08:29:38.899Z</time>
      </trkpt>
      <trkpt lat="36.470182" lon="-6.206123">
        <ele>60.995282</ele>
        <time>2020-08-18T08:29:40.898Z</time>
      </trkpt>
      <trkpt lat="36.470090" lon="-6.206156">
        <ele>60.833785</ele>
        <time>2020-08-18T08:29:41.878Z</time>
      </trkpt>
      <trkpt lat="36.469905" lon="-6.206234">
        <ele>60.504310</ele>
        <time>2020-08-18T08:29:43.898Z</time>
      </trkpt>
      <trkpt lat="36.469772" lon="-6.206330">
        <ele>60.244936</ele>
        <time>2020-08-18T08:29:45.922Z</time>
      </trkpt>
      <trkpt lat="36.469647" lon="-6.206414">
        <ele>60.060909</ele>
        <time>2020-08-18T08:29:47.898Z</time>
      </trkpt>
      <trkpt lat="36.469535" lon="-6.206567">
        <ele>59.868919</ele>
        <time>2020-08-18T08:29:49.894Z</time>
      </trkpt>
      <trkpt lat="36.469411" lon="-6.206615">
        <ele>59.719059</ele>
        <time>2020-08-18T08:29:51.894Z</time>
      </trkpt>
      <trkpt lat="36.469322" lon="-6.206653">
        <ele>59.610475</ele>
        <time>2020-08-18T08:29:52.902Z</time>
      </trkpt>
      <trkpt lat="36.469234" lon="-6.206702">
        <ele>59.499213</ele>
        <time>2020-08-18T08:29:53.893Z</time>
      </trkpt>
      <trkpt lat="36.469151" lon="-6.206794">
        <ele>59.370911</ele>
        <time>2020-08-18T08:29:55.892Z</time>
      </trkpt>
      <trkpt lat="36.469056" lon="-6.206818">
        <ele>59.259049</ele>
        <time>2020-08-18T08:29:56.885Z</time>
      </trkpt>
      <trkpt lat="36.468945" lon="-6.206901">
        <ele>59.109589</ele>
        <time>2020-08-18T08:29:58.896Z</time>
      </trkpt>
      <trkpt lat="36.468847" lon="-6.206932">
        <ele>58.992903</ele>
        <time>2020-08-18T08:30:00.895Z</time>
      </trkpt>
      <trkpt lat="36.468753" lon="-6.207014">
        <ele>58.860404</ele>
        <time>2020-08-18T08:30:02.897Z</time>
      </trkpt>
      <trkpt lat="36.468670" lon="-6.207094">
        <ele>58.739226</ele>
        <time>2020-08-18T08:30:04.896Z</time>
      </trkpt>
      <trkpt lat="36.468480" lon="-6.207155">
        <ele>58.512790</ele>
        <time>2020-08-18T08:30:06.898Z</time>
      </trkpt>
      <trkpt lat="36.468372" lon="-6.207156">
        <ele>58.388163</ele>
        <time>2020-08-18T08:30:08.890Z</time>
      </trkpt>
      <trkpt lat="36.468318" lon="-6.207263">
        <ele>58.270937</ele>
        <time>2020-08-18T08:30:10.894Z</time>
      </trkpt>
      <trkpt lat="36.468224" lon="-6.207280">
        <ele>58.161327</ele>
        <time>2020-08-18T08:30:12.896Z</time>
      </trkpt>
      <trkpt lat="36.468131" lon="-6.207293">
        <ele>57.751393</ele>
        <time>2020-08-18T08:30:14.894Z</time>
      </trkpt>
      <trkpt lat="36.468027" lon="-6.207310">
        <ele>56.934872</ele>
        <time>2020-08-18T08:30:17.892Z</time>
      </trkpt>
      <trkpt lat="36.467949" lon="-6.207222">
        <ele>56.115045</ele>
        <time>2020-08-18T08:30:21.878Z</time>
      </trkpt>
      <trkpt lat="36.467858" lon="-6.207227">
        <ele>55.405992</ele>
        <time>2020-08-18T08:30:25.901Z</time>
      </trkpt>
      <trkpt lat="36.467760" lon="-6.207227">
        <ele>54.643142</ele>
        <time>2020-08-18T08:30:30.890Z</time>
      </trkpt>
      <trkpt lat="36.467669" lon="-6.207218">
        <ele>53.932543</ele>
        <time>2020-08-18T08:30:33.888Z</time>
      </trkpt>
      <trkpt lat="36.467577" lon="-6.207264">
        <ele>53.160672</ele>
        <time>2020-08-18T08:30:36.870Z</time>
      </trkpt>
      <trkpt lat="36.467501" lon="-6.207376">
        <ele>52.243308</ele>
        <time>2020-08-18T08:30:39.872Z</time>
      </trkpt>
      <trkpt lat="36.467440" lon="-6.207498">
        <ele>51.344009</ele>
        <time>2020-08-18T08:30:42.867Z</time>
      </trkpt>
      <trkpt lat="36.467365" lon="-6.207575">
        <ele>50.586921</ele>
        <time>2020-08-18T08:30:45.868Z</time>
      </trkpt>
      <trkpt lat="36.467431" lon="-6.207677">
        <ele>49.767375</ele>
        <time>2020-08-18T08:31:07.874Z</time>
      </trkpt>
      <trkpt lat="36.467417" lon="-6.207793">
        <ele>49.033082</ele>
        <time>2020-08-18T08:31:12.875Z</time>
      </trkpt>
      <trkpt lat="36.467345" lon="-6.207867">
        <ele>48.305958</ele>
        <time>2020-08-18T08:31:15.899Z</time>
      </trkpt>
      <trkpt lat="36.467257" lon="-6.207958">
        <ele>47.415031</ele>
        <time>2020-08-18T08:31:18.894Z</time>
      </trkpt>
      <trkpt lat="36.467192" lon="-6.208065">
        <ele>46.575585</ele>
        <time>2020-08-18T08:31:21.885Z</time>
      </trkpt>
      <trkpt lat="36.467106" lon="-6.208145">
        <ele>45.739550</ele>
        <time>2020-08-18T08:31:24.885Z</time>
      </trkpt>
      <trkpt lat="36.467010" lon="-6.208230">
        <ele>44.822182</ele>
        <time>2020-08-18T08:31:27.909Z</time>
      </trkpt>
      <trkpt lat="36.466931" lon="-6.208310">
        <ele>44.106424</ele>
        <time>2020-08-18T08:31:30.906Z</time>
      </trkpt>
      <trkpt lat="36.466841" lon="-6.208384">
        <ele>44.123276</ele>
        <time>2020-08-18T08:31:33.913Z</time>
      </trkpt>
      <trkpt lat="36.466723" lon="-6.208440">
        <ele>44.143002</ele>
        <time>2020-08-18T08:31:36.901Z</time>
      </trkpt>
      <trkpt lat="36.466604" lon="-6.208492">
        <ele>44.162702</ele>
        <time>2020-08-18T08:31:39.899Z</time>
      </trkpt>
      <trkpt lat="36.466504" lon="-6.208553">
        <ele>44.180098</ele>
        <time>2020-08-18T08:31:42.902Z</time>
      </trkpt>
      <trkpt lat="36.466386" lon="-6.208622">
        <ele>44.200464</ele>
        <time>2020-08-18T08:31:45.897Z</time>
      </trkpt>
      <trkpt lat="36.466298" lon="-6.208656">
        <ele>44.214856</ele>
        <time>2020-08-18T08:31:47.896Z</time>
      </trkpt>
      <trkpt lat="36.466194" lon="-6.208688">
        <ele>44.231589</ele>
        <time>2020-08-18T08:31:50.914Z</time>
      </trkpt>
      <trkpt lat="36.466109" lon="-6.208758">
        <ele>44.247512</ele>
        <time>2020-08-18T08:31:53.909Z</time>
      </trkpt>
      <trkpt lat="36.465994" lon="-6.208821">
        <ele>44.267139</ele>
        <time>2020-08-18T08:31:56.901Z</time>
      </trkpt>
      <trkpt lat="36.465881" lon="-6.208855">
        <ele>44.285297</ele>
        <time>2020-08-18T08:31:59.887Z</time>
      </trkpt>
      <trkpt lat="36.465785" lon="-6.208926">
        <ele>44.302742</ele>
        <time>2020-08-18T08:32:03.908Z</time>
      </trkpt>
      <trkpt lat="36.465724" lon="-6.209022">
        <ele>44.318110</ele>
        <time>2020-08-18T08:32:07.882Z</time>
      </trkpt>
      <trkpt lat="36.465662" lon="-6.209109">
        <ele>44.332710</ele>
        <time>2020-08-18T08:32:11.895Z</time>
      </trkpt>
      <trkpt lat="36.465579" lon="-6.209186">
        <ele>44.348884</ele>
        <time>2020-08-18T08:32:15.897Z</time>
      </trkpt>
      <trkpt lat="36.465494" lon="-6.209271">
        <ele>44.365920</ele>
        <time>2020-08-18T08:32:18.898Z</time>
      </trkpt>
      <trkpt lat="36.465401" lon="-6.209359">
        <ele>44.384172</ele>
        <time>2020-08-18T08:32:20.891Z</time>
      </trkpt>
      <trkpt lat="36.465301" lon="-6.209413">
        <ele>44.254031</ele>
        <time>2020-08-18T08:32:22.880Z</time>
      </trkpt>
      <trkpt lat="36.465237" lon="-6.209519">
        <ele>44.111363</ele>
        <time>2020-08-18T08:32:24.902Z</time>
      </trkpt>
      <trkpt lat="36.465075" lon="-6.209578">
        <ele>43.885436</ele>
        <time>2020-08-18T08:32:29.899Z</time>
      </trkpt>
      <trkpt lat="36.465063" lon="-6.209721">
        <ele>43.730682</ele>
        <time>2020-08-18T08:32:31.915Z</time>
      </trkpt>
      <trkpt lat="36.464939" lon="-6.209811">
        <ele>43.538519</ele>
        <time>2020-08-18T08:32:34.908Z</time>
      </trkpt>
      <trkpt lat="36.464818" lon="-6.209846">
        <ele>43.372250</ele>
        <time>2020-08-18T08:32:37.901Z</time>
      </trkpt>
      <trkpt lat="36.464696" lon="-6.209886">
        <ele>43.203387</ele>
        <time>2020-08-18T08:32:40.898Z</time>
      </trkpt>
      <trkpt lat="36.464577" lon="-6.209967">
        <ele>43.021817</ele>
        <time>2020-08-18T08:32:42.902Z</time>
      </trkpt>
      <trkpt lat="36.464448" lon="-6.209979">
        <ele>42.848684</ele>
        <time>2020-08-18T08:32:43.899Z</time>
      </trkpt>
      <trkpt lat="36.464365" lon="-6.210066">
        <ele>42.703394</ele>
        <time>2020-08-18T08:32:47.897Z</time>
      </trkpt>
      <trkpt lat="36.464265" lon="-6.210082">
        <ele>42.568452</ele>
        <time>2020-08-18T08:32:49.902Z</time>
      </trkpt>
      <trkpt lat="36.464119" lon="-6.210146">
        <ele>42.361261</ele>
        <time>2020-08-18T08:32:52.901Z</time>
      </trkpt>
      <trkpt lat="36.464003" lon="-6.210227">
        <ele>42.183203</ele>
        <time>2020-08-18T08:32:55.902Z</time>
      </trkpt>
      <trkpt lat="36.463885" lon="-6.210285">
        <ele>42.013382</ele>
        <time>2020-08-18T08:32:57.886Z</time>
      </trkpt>
      <trkpt lat="36.463800" lon="-6.210399">
        <ele>42.118896</ele>
        <time>2020-08-18T08:33:00.902Z</time>
      </trkpt>
      <trkpt lat="36.463634" lon="-6.210437">
        <ele>42.358195</ele>
        <time>2020-08-18T08:33:02.894Z</time>
      </trkpt>
      <trkpt lat="36.463638" lon="-6.210563">
        <ele>42.501971</ele>
        <time>2020-08-18T08:33:04.900Z</time>
      </trkpt>
      <trkpt lat="36.463525" lon="-6.210549">
        <ele>42.662969</ele>
        <time>2020-08-18T08:33:06.903Z</time>
      </trkpt>
      <trkpt lat="36.463441" lon="-6.210649">
        <ele>42.827841</ele>
        <time>2020-08-18T08:33:09.882Z</time>
      </trkpt>
      <trkpt lat="36.463283" lon="-6.210674">
        <ele>43.053649</ele>
        <time>2020-08-18T08:33:11.900Z</time>
      </trkpt>
      <trkpt lat="36.463198" lon="-6.210713">
        <ele>43.182099</ele>
        <time>2020-08-18T08:33:13.900Z</time>
      </trkpt>
      <trkpt lat="36.463030" lon="-6.210801">
        <ele>43.440551</ele>
        <time>2020-08-18T08:33:16.905Z</time>
      </trkpt>
      <trkpt lat="36.462986" lon="-6.210901">
        <ele>43.570519</ele>
        <time>2020-08-18T08:33:19.892Z</time>
      </trkpt>
      <trkpt lat="36.462874" lon="-6.210940">
        <ele>43.735415</ele>
        <time>2020-08-18T08:33:21.885Z</time>
      </trkpt>
      <trkpt lat="36.462778" lon="-6.210900">
        <ele>43.878956</ele>
        <time>2020-08-18T08:33:22.897Z</time>
      </trkpt>
      <trkpt lat="36.462677" lon="-6.210910">
        <ele>44.022600</ele>
        <time>2020-08-18T08:33:23.886Z</time>
      </trkpt>
      <trkpt lat="36.462651" lon="-6.211020">
        <ele>44.153327</ele>
        <time>2020-08-18T08:33:24.891Z</time>
      </trkpt>
      <trkpt lat="36.462535" lon="-6.211034">
        <ele>44.318558</ele>
        <time>2020-08-18T08:33:26.902Z</time>
      </trkpt>
      <trkpt lat="36.462422" lon="-6.211073">
        <ele>44.484819</ele>
        <time>2020-08-18T08:33:29.887Z</time>
      </trkpt>
      <trkpt lat="36.462315" lon="-6.211129">
        <ele>44.667142</ele>
        <time>2020-08-18T08:33:31.895Z</time>
      </trkpt>
      <trkpt lat="36.462246" lon="-6.211203">
        <ele>44.815285</ele>
        <time>2020-08-18T08:33:33.891Z</time>
      </trkpt>
      <trkpt lat="36.462145" lon="-6.211259">
        <ele>44.995074</ele>
        <time>2020-08-18T08:33:35.901Z</time>
      </trkpt>
      <trkpt lat="36.462043" lon="-6.211312">
        <ele>45.174802</ele>
        <time>2020-08-18T08:33:37.909Z</time>
      </trkpt>
      <trkpt lat="36.461908" lon="-6.211369">
        <ele>45.406591</ele>
        <time>2020-08-18T08:33:39.879Z</time>
      </trkpt>
      <trkpt lat="36.461828" lon="-6.211453">
        <ele>45.576825</ele>
        <time>2020-08-18T08:33:41.888Z</time>
      </trkpt>
      <trkpt lat="36.461731" lon="-6.211519">
        <ele>45.756594</ele>
        <time>2020-08-18T08:33:43.902Z</time>
      </trkpt>
      <trkpt lat="36.461609" lon="-6.211653">
        <ele>46.021244</ele>
        <time>2020-08-18T08:33:45.899Z</time>
      </trkpt>
      <trkpt lat="36.461479" lon="-6.211707">
        <ele>46.244078</ele>
        <time>2020-08-18T08:33:47.873Z</time>
      </trkpt>
      <trkpt lat="36.461376" lon="-6.211772">
        <ele>46.431867</ele>
        <time>2020-08-18T08:33:50.886Z</time>
      </trkpt>
      <trkpt lat="36.461307" lon="-6.211884">
        <ele>46.616340</ele>
        <time>2020-08-18T08:33:52.901Z</time>
      </trkpt>
      <trkpt lat="36.461224" lon="-6.211936">
        <ele>46.767442</ele>
        <time>2020-08-18T08:33:54.881Z</time>
      </trkpt>
      <trkpt lat="36.461119" lon="-6.212030">
        <ele>46.977793</ele>
        <time>2020-08-18T08:33:57.873Z</time>
      </trkpt>
      <trkpt lat="36.461028" lon="-6.212113">
        <ele>47.161276</ele>
        <time>2020-08-18T08:33:59.892Z</time>
      </trkpt>
      <trkpt lat="36.460933" lon="-6.212198">
        <ele>47.351558</ele>
        <time>2020-08-18T08:34:01.901Z</time>
      </trkpt>
      <trkpt lat="36.460835" lon="-6.212280">
        <ele>47.559378</ele>
        <time>2020-08-18T08:34:03.890Z</time>
      </trkpt>
      <trkpt lat="36.460745" lon="-6.212374">
        <ele>47.783652</ele>
        <time>2020-08-18T08:34:05.883Z</time>
      </trkpt>
      <trkpt lat="36.460688" lon="-6.212479">
        <ele>47.978055</ele>
        <time>2020-08-18T08:34:07.885Z</time>
      </trkpt>
      <trkpt lat="36.460553" lon="-6.212521">
        <ele>48.243587</ele>
        <time>2020-08-18T08:34:09.904Z</time>
      </trkpt>
      <trkpt lat="36.460576" lon="-6.212677">
        <ele>48.486974</ele>
        <time>2020-08-18T08:34:10.893Z</time>
      </trkpt>
      <trkpt lat="36.460484" lon="-6.212724">
        <ele>48.676757</ele>
        <time>2020-08-18T08:34:12.886Z</time>
      </trkpt>
      <trkpt lat="36.460365" lon="-6.212793">
        <ele>48.927294</ele>
        <time>2020-08-18T08:34:15.897Z</time>
      </trkpt>
      <trkpt lat="36.460303" lon="-6.212886">
        <ele>49.112668</ele>
        <time>2020-08-18T08:34:17.902Z</time>
      </trkpt>
      <trkpt lat="36.460239" lon="-6.212970">
        <ele>49.290234</ele>
        <time>2020-08-18T08:34:19.883Z</time>
      </trkpt>
      <trkpt lat="36.460173" lon="-6.213052">
        <ele>49.468263</ele>
        <time>2020-08-18T08:34:21.881Z</time>
      </trkpt>
      <trkpt lat="36.460118" lon="-6.213144">
        <ele>49.644178</ele>
        <time>2020-08-18T08:34:23.880Z</time>
      </trkpt>
      <trkpt lat="36.460034" lon="-6.213223">
        <ele>49.845143</ele>
        <time>2020-08-18T08:34:25.899Z</time>
      </trkpt>
      <trkpt lat="36.459939" lon="-6.213362">
        <ele>50.125071</ele>
        <time>2020-08-18T08:34:28.884Z</time>
      </trkpt>
      <trkpt lat="36.459881" lon="-6.213465">
        <ele>50.318027</ele>
        <time>2020-08-18T08:34:30.895Z</time>
      </trkpt>
      <trkpt lat="36.459805" lon="-6.213540">
        <ele>50.503166</ele>
        <time>2020-08-18T08:34:32.884Z</time>
      </trkpt>
      <trkpt lat="36.459726" lon="-6.213615">
        <ele>50.692821</ele>
        <time>2020-08-18T08:34:34.894Z</time>
      </trkpt>
      <trkpt lat="36.459639" lon="-6.213751">
        <ele>50.851730</ele>
        <time>2020-08-18T08:34:37.902Z</time>
      </trkpt>
      <trkpt lat="36.459570" lon="-6.213826">
        <ele>50.774655</ele>
        <time>2020-08-18T08:34:39.889Z</time>
      </trkpt>
      <trkpt lat="36.459490" lon="-6.213912">
        <ele>50.685718</ele>
        <time>2020-08-18T08:34:41.884Z</time>
      </trkpt>
      <trkpt lat="36.459412" lon="-6.213970">
        <ele>50.609286</ele>
        <time>2020-08-18T08:34:43.905Z</time>
      </trkpt>
      <trkpt lat="36.459340" lon="-6.214053">
        <ele>50.526715</ele>
        <time>2020-08-18T08:34:45.899Z</time>
      </trkpt>
      <trkpt lat="36.459276" lon="-6.214142">
        <ele>50.445964</ele>
        <time>2020-08-18T08:34:47.898Z</time>
      </trkpt>
      <trkpt lat="36.459165" lon="-6.214217">
        <ele>50.339723</ele>
        <time>2020-08-18T08:34:50.905Z</time>
      </trkpt>
      <trkpt lat="36.459077" lon="-6.214300">
        <ele>50.246833</ele>
        <time>2020-08-18T08:34:52.896Z</time>
      </trkpt>
      <trkpt lat="36.459006" lon="-6.214388">
        <ele>50.162524</ele>
        <time>2020-08-18T08:34:54.882Z</time>
      </trkpt>
      <trkpt lat="36.458947" lon="-6.214483">
        <ele>50.081340</ele>
        <time>2020-08-18T08:34:56.904Z</time>
      </trkpt>
      <trkpt lat="36.458886" lon="-6.214583">
        <ele>49.996449</ele>
        <time>2020-08-18T08:34:59.893Z</time>
      </trkpt>
      <trkpt lat="36.458810" lon="-6.214684">
        <ele>49.902897</ele>
        <time>2020-08-18T08:35:01.880Z</time>
      </trkpt>
      <trkpt lat="36.458749" lon="-6.214784">
        <ele>49.818006</ele>
        <time>2020-08-18T08:35:08.913Z</time>
      </trkpt>
      <trkpt lat="36.458773" lon="-6.214911">
        <ele>49.729766</ele>
        <time>2020-08-18T08:35:11.886Z</time>
      </trkpt>
      <trkpt lat="36.458739" lon="-6.215211">
        <ele>49.524846</ele>
        <time>2020-08-18T08:35:12.889Z</time>
      </trkpt>
      <trkpt lat="36.458506" lon="-6.215514">
        <ele>49.527754</ele>
        <time>2020-08-18T08:35:15.874Z</time>
      </trkpt>
      <trkpt lat="36.458356" lon="-6.215618">
        <ele>49.699675</ele>
        <time>2020-08-18T08:35:18.885Z</time>
      </trkpt>
      <trkpt lat="36.458250" lon="-6.215714">
        <ele>49.830949</ele>
        <time>2020-08-18T08:35:20.894Z</time>
      </trkpt>
      <trkpt lat="36.458155" lon="-6.215882">
        <ele>49.996293</ele>
        <time>2020-08-18T08:35:25.893Z</time>
      </trkpt>
      <trkpt lat="36.458046" lon="-6.216016">
        <ele>50.149735</ele>
        <time>2020-08-18T08:35:26.886Z</time>
      </trkpt>
      <trkpt lat="36.458049" lon="-6.216172">
        <ele>50.275369</ele>
        <time>2020-08-18T08:35:29.894Z</time>
      </trkpt>
      <trkpt lat="36.458064" lon="-6.216298">
        <ele>50.377919</ele>
        <time>2020-08-18T08:35:31.905Z</time>
      </trkpt>
      <trkpt lat="36.458030" lon="-6.216411">
        <ele>50.475055</ele>
        <time>2020-08-18T08:35:36.904Z</time>
      </trkpt>
      <trkpt lat="36.458088" lon="-6.216624">
        <ele>50.656106</ele>
        <time>2020-08-18T08:35:38.916Z</time>
      </trkpt>
      <trkpt lat="36.457983" lon="-6.216642">
        <ele>50.762208</ele>
        <time>2020-08-18T08:35:43.901Z</time>
      </trkpt>
      <trkpt lat="36.457855" lon="-6.216917">
        <ele>51.018017</ele>
        <time>2020-08-18T08:35:54.897Z</time>
      </trkpt>
      <trkpt lat="36.457829" lon="-6.217075">
        <ele>51.147861</ele>
        <time>2020-08-18T08:35:56.891Z</time>
      </trkpt>
      <trkpt lat="36.457814" lon="-6.217316">
        <ele>51.088834</ele>
        <time>2020-08-18T08:35:58.883Z</time>
      </trkpt>
      <trkpt lat="36.457720" lon="-6.217463">
        <ele>51.014322</ele>
        <time>2020-08-18T08:36:03.891Z</time>
      </trkpt>
      <trkpt lat="36.457691" lon="-6.217620">
        <ele>50.950407</ele>
        <time>2020-08-18T08:36:07.896Z</time>
      </trkpt>
      <trkpt lat="36.457596" lon="-6.217762">
        <ele>50.877123</ele>
        <time>2020-08-18T08:36:11.893Z</time>
      </trkpt>
      <trkpt lat="36.457668" lon="-6.217884">
        <ele>50.817084</ele>
        <time>2020-08-18T08:36:14.894Z</time>
      </trkpt>
      <trkpt lat="36.457730" lon="-6.217974">
        <ele>50.770067</ele>
        <time>2020-08-18T08:36:15.871Z</time>
      </trkpt>
      <trkpt lat="36.457629" lon="-6.218111">
        <ele>50.696329</ele>
        <time>2020-08-18T08:36:18.899Z</time>
      </trkpt>
      <trkpt lat="36.457618" lon="-6.218245">
        <ele>50.642886</ele>
        <time>2020-08-18T08:36:21.898Z</time>
      </trkpt>
      <trkpt lat="36.457568" lon="-6.218442">
        <ele>50.560923</ele>
        <time>2020-08-18T08:36:24.911Z</time>
      </trkpt>
      <trkpt lat="36.457495" lon="-6.218548">
        <ele>50.505555</ele>
        <time>2020-08-18T08:36:27.898Z</time>
      </trkpt>
      <trkpt lat="36.457427" lon="-6.218649">
        <ele>50.453294</ele>
        <time>2020-08-18T08:36:30.896Z</time>
      </trkpt>
      <trkpt lat="36.457445" lon="-6.218791">
        <ele>50.396257</ele>
        <time>2020-08-18T08:36:34.901Z</time>
      </trkpt>
      <trkpt lat="36.457437" lon="-6.218971">
        <ele>50.324729</ele>
        <time>2020-08-18T08:36:36.899Z</time>
      </trkpt>
      <trkpt lat="36.457474" lon="-6.219128">
        <ele>50.199714</ele>
        <time>2020-08-18T08:36:40.896Z</time>
      </trkpt>
      <trkpt lat="36.457482" lon="-6.219307">
        <ele>49.960640</ele>
        <time>2020-08-18T08:36:44.901Z</time>
      </trkpt>
      <trkpt lat="36.457583" lon="-6.219374">
        <ele>49.770834</ele>
        <time>2020-08-18T08:36:46.883Z</time>
      </trkpt>
      <trkpt lat="36.457505" lon="-6.219541">
        <ele>49.513304</ele>
        <time>2020-08-18T08:36:48.875Z</time>
      </trkpt>
      <trkpt lat="36.457478" lon="-6.219655">
        <ele>49.354825</ele>
        <time>2020-08-18T08:36:49.883Z</time>
      </trkpt>
      <trkpt lat="36.457415" lon="-6.219758">
        <ele>49.182263</ele>
        <time>2020-08-18T08:36:51.903Z</time>
      </trkpt>
      <trkpt lat="36.457423" lon="-6.219919">
        <ele>48.967152</ele>
        <time>2020-08-18T08:36:54.896Z</time>
      </trkpt>
      <trkpt lat="36.457400" lon="-6.220072">
        <ele>48.759586</ele>
        <time>2020-08-18T08:36:57.902Z</time>
      </trkpt>
      <trkpt lat="36.457376" lon="-6.220186">
        <ele>48.602439</ele>
        <time>2020-08-18T08:36:59.889Z</time>
      </trkpt>
      <trkpt lat="36.457384" lon="-6.220300">
        <ele>48.449837</ele>
        <time>2020-08-18T08:37:01.899Z</time>
      </trkpt>
      <trkpt lat="36.457329" lon="-6.220403">
        <ele>48.284965</ele>
        <time>2020-08-18T08:37:03.909Z</time>
      </trkpt>
      <trkpt lat="36.457327" lon="-6.220562">
        <ele>48.072905</ele>
        <time>2020-08-18T08:37:06.902Z</time>
      </trkpt>
      <trkpt lat="36.457355" lon="-6.220711">
        <ele>47.868854</ele>
        <time>2020-08-18T08:37:09.904Z</time>
      </trkpt>
      <trkpt lat="36.457384" lon="-6.220864">
        <ele>47.659231</ele>
        <time>2020-08-18T08:37:12.895Z</time>
      </trkpt>
      <trkpt lat="36.457402" lon="-6.221019">
        <ele>47.450388</ele>
        <time>2020-08-18T08:37:15.874Z</time>
      </trkpt>
      <trkpt lat="36.457408" lon="-6.221161">
        <ele>47.319393</ele>
        <time>2020-08-18T08:37:18.883Z</time>
      </trkpt>
      <trkpt lat="36.457419" lon="-6.221296">
        <ele>47.389206</ele>
        <time>2020-08-18T08:37:21.873Z</time>
      </trkpt>
      <trkpt lat="36.457398" lon="-6.221438">
        <ele>47.463490</ele>
        <time>2020-08-18T08:37:24.867Z</time>
      </trkpt>
      <trkpt lat="36.457390" lon="-6.221593">
        <ele>47.543402</ele>
        <time>2020-08-18T08:37:27.904Z</time>
      </trkpt>
      <trkpt lat="36.457387" lon="-6.221707">
        <ele>47.602086</ele>
        <time>2020-08-18T08:37:29.903Z</time>
      </trkpt>
      <trkpt lat="36.457396" lon="-6.221867">
        <ele>47.684607</ele>
        <time>2020-08-18T08:37:32.903Z</time>
      </trkpt>
      <trkpt lat="36.457417" lon="-6.222018">
        <ele>47.763450</ele>
        <time>2020-08-18T08:37:35.871Z</time>
      </trkpt>
      <trkpt lat="36.457430" lon="-6.222173">
        <ele>47.843629</ele>
        <time>2020-08-18T08:37:38.898Z</time>
      </trkpt>
      <trkpt lat="36.457438" lon="-6.222330">
        <ele>47.924568</ele>
        <time>2020-08-18T08:37:41.879Z</time>
      </trkpt>
      <trkpt lat="36.457429" lon="-6.222493">
        <ele>48.008629</ele>
        <time>2020-08-18T08:37:44.867Z</time>
      </trkpt>
      <trkpt lat="36.457441" lon="-6.222627">
        <ele>48.077998</ele>
        <time>2020-08-18T08:37:47.890Z</time>
      </trkpt>
      <trkpt lat="36.457460" lon="-6.222764">
        <ele>48.149524</ele>
        <time>2020-08-18T08:37:50.873Z</time>
      </trkpt>
      <trkpt lat="36.457480" lon="-6.222900">
        <ele>48.220656</ele>
        <time>2020-08-18T08:37:53.888Z</time>
      </trkpt>
      <trkpt lat="36.457500" lon="-6.223035">
        <ele>48.291282</ele>
        <time>2020-08-18T08:37:56.888Z</time>
      </trkpt>
      <trkpt lat="36.457538" lon="-6.223178">
        <ele>48.368767</ele>
        <time>2020-08-18T08:37:59.879Z</time>
      </trkpt>
      <trkpt lat="36.457554" lon="-6.223336">
        <ele>48.450700</ele>
        <time>2020-08-18T08:38:02.897Z</time>
      </trkpt>
      <trkpt lat="36.457571" lon="-6.223488">
        <ele>48.633171</ele>
        <time>2020-08-18T08:38:05.884Z</time>
      </trkpt>
      <trkpt lat="36.457584" lon="-6.223626">
        <ele>48.802004</ele>
        <time>2020-08-18T08:38:08.895Z</time>
      </trkpt>
      <trkpt lat="36.457606" lon="-6.223750">
        <ele>48.956302</ele>
        <time>2020-08-18T08:38:11.887Z</time>
      </trkpt>
      <trkpt lat="36.457623" lon="-6.223889">
        <ele>49.127145</ele>
        <time>2020-08-18T08:38:14.890Z</time>
      </trkpt>
      <trkpt lat="36.457640" lon="-6.224026">
        <ele>49.295586</ele>
        <time>2020-08-18T08:38:17.885Z</time>
      </trkpt>
      <trkpt lat="36.457660" lon="-6.224160">
        <ele>49.461192</ele>
        <time>2020-08-18T08:38:20.901Z</time>
      </trkpt>
      <trkpt lat="36.457673" lon="-6.224300">
        <ele>49.632439</ele>
        <time>2020-08-18T08:38:23.894Z</time>
      </trkpt>
      <trkpt lat="36.457700" lon="-6.224437">
        <ele>49.803835</ele>
        <time>2020-08-18T08:38:26.873Z</time>
      </trkpt>
      <trkpt lat="36.457723" lon="-6.224573">
        <ele>49.972705</ele>
        <time>2020-08-18T08:38:29.894Z</time>
      </trkpt>
      <trkpt lat="36.457741" lon="-6.224722">
        <ele>50.155788</ele>
        <time>2020-08-18T08:38:32.901Z</time>
      </trkpt>
      <trkpt lat="36.457742" lon="-6.224879">
        <ele>50.346568</ele>
        <time>2020-08-18T08:38:35.903Z</time>
      </trkpt>
      <trkpt lat="36.457761" lon="-6.225023">
        <ele>50.523884</ele>
        <time>2020-08-18T08:38:38.902Z</time>
      </trkpt>
      <trkpt lat="36.457787" lon="-6.225158">
        <ele>50.692562</ele>
        <time>2020-08-18T08:38:41.885Z</time>
      </trkpt>
      <trkpt lat="36.457805" lon="-6.225293">
        <ele>50.858842</ele>
        <time>2020-08-18T08:38:44.894Z</time>
      </trkpt>
      <trkpt lat="36.457821" lon="-6.225436">
        <ele>51.034277</ele>
        <time>2020-08-18T08:38:47.889Z</time>
      </trkpt>
      <trkpt lat="36.457827" lon="-6.225601">
        <ele>51.335513</ele>
        <time>2020-08-18T08:38:50.896Z</time>
      </trkpt>
      <trkpt lat="36.457862" lon="-6.225729">
        <ele>51.757973</ele>
        <time>2020-08-18T08:38:53.902Z</time>
      </trkpt>
      <trkpt lat="36.457892" lon="-6.225858">
        <ele>52.177587</ele>
        <time>2020-08-18T08:38:57.903Z</time>
      </trkpt>
      <trkpt lat="36.457897" lon="-6.226030">
        <ele>52.715407</ele>
        <time>2020-08-18T08:38:59.892Z</time>
      </trkpt>
      <trkpt lat="36.457921" lon="-6.226173">
        <ele>53.171881</ele>
        <time>2020-08-18T08:39:02.899Z</time>
      </trkpt>
      <trkpt lat="36.457929" lon="-6.226316">
        <ele>53.619809</ele>
        <time>2020-08-18T08:39:05.915Z</time>
      </trkpt>
      <trkpt lat="36.457925" lon="-6.226430">
        <ele>53.976377</ele>
        <time>2020-08-18T08:39:07.895Z</time>
      </trkpt>
      <trkpt lat="36.457938" lon="-6.226565">
        <ele>54.401241</ele>
        <time>2020-08-18T08:39:10.903Z</time>
      </trkpt>
      <trkpt lat="36.457961" lon="-6.226696">
        <ele>54.820231</ele>
        <time>2020-08-18T08:39:13.904Z</time>
      </trkpt>
      <trkpt lat="36.457980" lon="-6.226815">
        <ele>55.199341</ele>
        <time>2020-08-18T08:39:16.901Z</time>
      </trkpt>
      <trkpt lat="36.458002" lon="-6.226929">
        <ele>55.565680</ele>
        <time>2020-08-18T08:39:19.880Z</time>
      </trkpt>
      <trkpt lat="36.458020" lon="-6.227043">
        <ele>55.928709</ele>
        <time>2020-08-18T08:39:22.901Z</time>
      </trkpt>
      <trkpt lat="36.458008" lon="-6.227236">
        <ele>56.533597</ele>
        <time>2020-08-18T08:39:25.882Z</time>
      </trkpt>
      <trkpt lat="36.458065" lon="-6.227354">
        <ele>56.963716</ele>
        <time>2020-08-18T08:39:29.905Z</time>
      </trkpt>
      <trkpt lat="36.458075" lon="-6.227465">
        <ele>57.312739</ele>
        <time>2020-08-18T08:39:31.902Z</time>
      </trkpt>
      <trkpt lat="36.458121" lon="-6.227596">
        <ele>57.759402</ele>
        <time>2020-08-18T08:39:35.907Z</time>
      </trkpt>
      <trkpt lat="36.458134" lon="-6.227753">
        <ele>58.136387</ele>
        <time>2020-08-18T08:39:38.909Z</time>
      </trkpt>
      <trkpt lat="36.458133" lon="-6.227908">
        <ele>58.019091</ele>
        <time>2020-08-18T08:39:41.883Z</time>
      </trkpt>
      <trkpt lat="36.458135" lon="-6.228061">
        <ele>57.903296</ele>
        <time>2020-08-18T08:39:44.903Z</time>
      </trkpt>
      <trkpt lat="36.458142" lon="-6.228216">
        <ele>57.785819</ele>
        <time>2020-08-18T08:39:47.899Z</time>
      </trkpt>
      <trkpt lat="36.458155" lon="-6.228369">
        <ele>57.669396</ele>
        <time>2020-08-18T08:39:50.896Z</time>
      </trkpt>
      <trkpt lat="36.458166" lon="-6.228510">
        <ele>57.562197</ele>
        <time>2020-08-18T08:39:53.886Z</time>
      </trkpt>
      <trkpt lat="36.458186" lon="-6.228637">
        <ele>57.464268</ele>
        <time>2020-08-18T08:39:56.901Z</time>
      </trkpt>
      <trkpt lat="36.458207" lon="-6.228766">
        <ele>57.364670</ele>
        <time>2020-08-18T08:39:59.883Z</time>
      </trkpt>
      <trkpt lat="36.458223" lon="-6.228902">
        <ele>57.260661</ele>
        <time>2020-08-18T08:40:02.898Z</time>
      </trkpt>
      <trkpt lat="36.458245" lon="-6.229041">
        <ele>57.153458</ele>
        <time>2020-08-18T08:40:05.905Z</time>
      </trkpt>
      <trkpt lat="36.458261" lon="-6.229164">
        <ele>57.059172</ele>
        <time>2020-08-18T08:40:08.899Z</time>
      </trkpt>
      <trkpt lat="36.458291" lon="-6.229306">
        <ele>56.948072</ele>
        <time>2020-08-18T08:40:11.896Z</time>
      </trkpt>
      <trkpt lat="36.458309" lon="-6.229423">
        <ele>56.857930</ele>
        <time>2020-08-18T08:40:14.887Z</time>
      </trkpt>
      <trkpt lat="36.458323" lon="-6.229544">
        <ele>56.765423</ele>
        <time>2020-08-18T08:40:18.886Z</time>
      </trkpt>
      <trkpt lat="36.458324" lon="-6.229662">
        <ele>56.676125</ele>
        <time>2020-08-18T08:40:21.903Z</time>
      </trkpt>
      <trkpt lat="36.458322" lon="-6.229776">
        <ele>56.589838</ele>
        <time>2020-08-18T08:40:24.889Z</time>
      </trkpt>
      <trkpt lat="36.458321" lon="-6.229889">
        <ele>56.504323</ele>
        <time>2020-08-18T08:40:27.903Z</time>
      </trkpt>
      <trkpt lat="36.458333" lon="-6.230002">
        <ele>56.428666</ele>
        <time>2020-08-18T08:40:30.905Z</time>
      </trkpt>
      <trkpt lat="36.458350" lon="-6.230114">
        <ele>56.361184</ele>
        <time>2020-08-18T08:40:33.902Z</time>
      </trkpt>
      <trkpt lat="36.458380" lon="-6.230258">
        <ele>56.273111</ele>
        <time>2020-08-18T08:40:37.893Z</time>
      </trkpt>
      <trkpt lat="36.458400" lon="-6.230376">
        <ele>56.201712</ele>
        <time>2020-08-18T08:40:40.874Z</time>
      </trkpt>
      <trkpt lat="36.458416" lon="-6.230496">
        <ele>56.129693</ele>
        <time>2020-08-18T08:40:43.889Z</time>
      </trkpt>
      <trkpt lat="36.458470" lon="-6.230591">
        <ele>56.060817</ele>
        <time>2020-08-18T08:40:46.901Z</time>
      </trkpt>
      <trkpt lat="36.458519" lon="-6.230745">
        <ele>55.962762</ele>
        <time>2020-08-18T08:40:49.909Z</time>
      </trkpt>
      <trkpt lat="36.458519" lon="-6.230862">
        <ele>55.893490</ele>
        <time>2020-08-18T08:40:51.903Z</time>
      </trkpt>
      <trkpt lat="36.458551" lon="-6.231023">
        <ele>55.795298</ele>
        <time>2020-08-18T08:40:53.900Z</time>
      </trkpt>
      <trkpt lat="36.458527" lon="-6.231137">
        <ele>55.725528</ele>
        <time>2020-08-18T08:40:55.910Z</time>
      </trkpt>
      <trkpt lat="36.458566" lon="-6.231294">
        <ele>55.628240</ele>
        <time>2020-08-18T08:40:58.906Z</time>
      </trkpt>
      <trkpt lat="36.458542" lon="-6.231426">
        <ele>55.548114</ele>
        <time>2020-08-18T08:41:00.896Z</time>
      </trkpt>
      <trkpt lat="36.458603" lon="-6.231568">
        <ele>55.452799</ele>
        <time>2020-08-18T08:41:03.903Z</time>
      </trkpt>
      <trkpt lat="36.458618" lon="-6.231680">
        <ele>55.385574</ele>
        <time>2020-08-18T08:41:05.902Z</time>
      </trkpt>
      <trkpt lat="36.458606" lon="-6.231806">
        <ele>55.310452</ele>
        <time>2020-08-18T08:41:07.899Z</time>
      </trkpt>
      <trkpt lat="36.458617" lon="-6.231955">
        <ele>55.221862</ele>
        <time>2020-08-18T08:41:10.879Z</time>
      </trkpt>
      <trkpt lat="36.458615" lon="-6.232094">
        <ele>55.137824</ele>
        <time>2020-08-18T08:41:13.884Z</time>
      </trkpt>
      <trkpt lat="36.458635" lon="-6.232204">
        <ele>55.034479</ele>
        <time>2020-08-18T08:41:15.892Z</time>
      </trkpt>
      <trkpt lat="36.458666" lon="-6.232354">
        <ele>54.892556</ele>
        <time>2020-08-18T08:41:18.900Z</time>
      </trkpt>
      <trkpt lat="36.458693" lon="-6.232509">
        <ele>54.747224</ele>
        <time>2020-08-18T08:41:21.901Z</time>
      </trkpt>
      <trkpt lat="36.458713" lon="-6.232663">
        <ele>54.604274</ele>
        <time>2020-08-18T08:41:24.899Z</time>
      </trkpt>
      <trkpt lat="36.458739" lon="-6.232814">
        <ele>54.462766</ele>
        <time>2020-08-18T08:41:27.910Z</time>
      </trkpt>
      <trkpt lat="36.458758" lon="-6.232955">
        <ele>54.331755</ele>
        <time>2020-08-18T08:41:30.884Z</time>
      </trkpt>
      <trkpt lat="36.458798" lon="-6.233218">
        <ele>54.086477</ele>
        <time>2020-08-18T08:41:35.881Z</time>
      </trkpt>
      <trkpt lat="36.458795" lon="-6.233333">
        <ele>53.981038</ele>
        <time>2020-08-18T08:41:38.896Z</time>
      </trkpt>
      <trkpt lat="36.458872" lon="-6.233455">
        <ele>53.838927</ele>
        <time>2020-08-18T08:41:41.888Z</time>
      </trkpt>
      <trkpt lat="36.458828" lon="-6.233596">
        <ele>53.700333</ele>
        <time>2020-08-18T08:41:43.902Z</time>
      </trkpt>
      <trkpt lat="36.458875" lon="-6.233728">
        <ele>53.568048</ele>
        <time>2020-08-18T08:41:46.894Z</time>
      </trkpt>
      <trkpt lat="36.458849" lon="-6.233873">
        <ele>53.431911</ele>
        <time>2020-08-18T08:41:49.901Z</time>
      </trkpt>
      <trkpt lat="36.458854" lon="-6.233995">
        <ele>53.319968</ele>
        <time>2020-08-18T08:41:52.897Z</time>
      </trkpt>
      <trkpt lat="36.458890" lon="-6.234132">
        <ele>53.187893</ele>
        <time>2020-08-18T08:41:55.892Z</time>
      </trkpt>
      <trkpt lat="36.458926" lon="-6.234289">
        <ele>53.044418</ele>
        <time>2020-08-18T08:41:57.885Z</time>
      </trkpt>
      <trkpt lat="36.458935" lon="-6.234465">
        <ele>52.900785</ele>
        <time>2020-08-18T08:42:01.902Z</time>
      </trkpt>
      <trkpt lat="36.458969" lon="-6.234579">
        <ele>52.801760</ele>
        <time>2020-08-18T08:42:04.900Z</time>
      </trkpt>
      <trkpt lat="36.458965" lon="-6.234706">
        <ele>52.698246</ele>
        <time>2020-08-18T08:42:07.901Z</time>
      </trkpt>
      <trkpt lat="36.459010" lon="-6.234836">
        <ele>52.582978</ele>
        <time>2020-08-18T08:42:10.916Z</time>
      </trkpt>
      <trkpt lat="36.459056" lon="-6.234932">
        <ele>52.491967</ele>
        <time>2020-08-18T08:42:12.912Z</time>
      </trkpt>
      <trkpt lat="36.459059" lon="-6.235115">
        <ele>52.342892</ele>
        <time>2020-08-18T08:42:15.897Z</time>
      </trkpt>
      <trkpt lat="36.459088" lon="-6.235226">
        <ele>52.247839</ele>
        <time>2020-08-18T08:42:16.902Z</time>
      </trkpt>
      <trkpt lat="36.459108" lon="-6.235361">
        <ele>52.136039</ele>
        <time>2020-08-18T08:42:20.907Z</time>
      </trkpt>
      <trkpt lat="36.459147" lon="-6.235506">
        <ele>52.011515</ele>
        <time>2020-08-18T08:42:24.901Z</time>
      </trkpt>
      <trkpt lat="36.459143" lon="-6.235637">
        <ele>51.904746</ele>
        <time>2020-08-18T08:42:27.903Z</time>
      </trkpt>
      <trkpt lat="36.459155" lon="-6.235757">
        <ele>51.806260</ele>
        <time>2020-08-18T08:42:30.899Z</time>
      </trkpt>
      <trkpt lat="36.459167" lon="-6.235893">
        <ele>51.694831</ele>
        <time>2020-08-18T08:42:33.886Z</time>
      </trkpt>
      <trkpt lat="36.459176" lon="-6.236043">
        <ele>51.572324</ele>
        <time>2020-08-18T08:42:36.895Z</time>
      </trkpt>
      <trkpt lat="36.459218" lon="-6.236209">
        <ele>51.430594</ele>
        <time>2020-08-18T08:42:39.907Z</time>
      </trkpt>
      <trkpt lat="36.459223" lon="-6.236351">
        <ele>51.314832</ele>
        <time>2020-08-18T08:42:42.903Z</time>
      </trkpt>
      <trkpt lat="36.459249" lon="-6.236483">
        <ele>51.228635</ele>
        <time>2020-08-18T08:42:45.902Z</time>
      </trkpt>
      <trkpt lat="36.459270" lon="-6.236594">
        <ele>51.169276</ele>
        <time>2020-08-18T08:42:48.910Z</time>
      </trkpt>
      <trkpt lat="36.459290" lon="-6.236750">
        <ele>51.087044</ele>
        <time>2020-08-18T08:42:51.907Z</time>
      </trkpt>
      <trkpt lat="36.459306" lon="-6.236888">
        <ele>51.014464</ele>
        <time>2020-08-18T08:42:54.895Z</time>
      </trkpt>
      <trkpt lat="36.459309" lon="-6.237047">
        <ele>50.931673</ele>
        <time>2020-08-18T08:42:57.904Z</time>
      </trkpt>
      <trkpt lat="36.459345" lon="-6.237184">
        <ele>50.856647</ele>
        <time>2020-08-18T08:43:00.891Z</time>
      </trkpt>
      <trkpt lat="36.459370" lon="-6.237366">
        <ele>50.760533</ele>
        <time>2020-08-18T08:43:03.884Z</time>
      </trkpt>
      <trkpt lat="36.459376" lon="-6.237479">
        <ele>50.701582</ele>
        <time>2020-08-18T08:43:05.904Z</time>
      </trkpt>
      <trkpt lat="36.459335" lon="-6.237581">
        <ele>50.642224</ele>
        <time>2020-08-18T08:43:07.902Z</time>
      </trkpt>
      <trkpt lat="36.459413" lon="-6.237734">
        <ele>50.547926</ele>
        <time>2020-08-18T08:43:12.886Z</time>
      </trkpt>
      <trkpt lat="36.459421" lon="-6.237890">
        <ele>50.466554</ele>
        <time>2020-08-18T08:43:15.903Z</time>
      </trkpt>
      <trkpt lat="36.459408" lon="-6.238020">
        <ele>50.398361</ele>
        <time>2020-08-18T08:43:18.888Z</time>
      </trkpt>
      <trkpt lat="36.459434" lon="-6.238129">
        <ele>50.339177</ele>
        <time>2020-08-18T08:43:20.904Z</time>
      </trkpt>
      <trkpt lat="36.459470" lon="-6.238233">
        <ele>50.280238</ele>
        <time>2020-08-18T08:43:22.898Z</time>
      </trkpt>
      <trkpt lat="36.459490" lon="-6.238393">
        <ele>50.195949</ele>
        <time>2020-08-18T08:43:25.882Z</time>
      </trkpt>
      <trkpt lat="36.459498" lon="-6.238531">
        <ele>50.123926</ele>
        <time>2020-08-18T08:43:28.898Z</time>
      </trkpt>
      <trkpt lat="36.459494" lon="-6.238659">
        <ele>50.053929</ele>
        <time>2020-08-18T08:43:31.881Z</time>
      </trkpt>
      <trkpt lat="36.459500" lon="-6.238790">
        <ele>49.981151</ele>
        <time>2020-08-18T08:43:34.898Z</time>
      </trkpt>
      <trkpt lat="36.459529" lon="-6.238939">
        <ele>49.896122</ele>
        <time>2020-08-18T08:43:36.899Z</time>
      </trkpt>
      <trkpt lat="36.459580" lon="-6.239092">
        <ele>49.804260</ele>
        <time>2020-08-18T08:43:39.891Z</time>
      </trkpt>
      <trkpt lat="36.459552" lon="-6.239217">
        <ele>49.732289</ele>
        <time>2020-08-18T08:43:41.901Z</time>
      </trkpt>
      <trkpt lat="36.459641" lon="-6.239367">
        <ele>49.628901</ele>
        <time>2020-08-18T08:43:45.900Z</time>
      </trkpt>
      <trkpt lat="36.459563" lon="-6.239449">
        <ele>49.558459</ele>
        <time>2020-08-18T08:43:46.899Z</time>
      </trkpt>
      <trkpt lat="36.459604" lon="-6.239592">
        <ele>49.474254</ele>
        <time>2020-08-18T08:43:49.895Z</time>
      </trkpt>
      <trkpt lat="36.459627" lon="-6.239741">
        <ele>49.390102</ele>
        <time>2020-08-18T08:43:52.901Z</time>
      </trkpt>
      <trkpt lat="36.459647" lon="-6.239857">
        <ele>49.324301</ele>
        <time>2020-08-18T08:43:54.901Z</time>
      </trkpt>
      <trkpt lat="36.459694" lon="-6.239964">
        <ele>49.256678</ele>
        <time>2020-08-18T08:43:57.898Z</time>
      </trkpt>
      <trkpt lat="36.459705" lon="-6.240114">
        <ele>49.173135</ele>
        <time>2020-08-18T08:44:00.885Z</time>
      </trkpt>
      <trkpt lat="36.459727" lon="-6.240251">
        <ele>49.095648</ele>
        <time>2020-08-18T08:44:03.908Z</time>
      </trkpt>
      <trkpt lat="36.459750" lon="-6.240406">
        <ele>49.008225</ele>
        <time>2020-08-18T08:44:06.886Z</time>
      </trkpt>
      <trkpt lat="36.459772" lon="-6.240566">
        <ele>48.918193</ele>
        <time>2020-08-18T08:44:09.886Z</time>
      </trkpt>
      <trkpt lat="36.459783" lon="-6.240716">
        <ele>48.803582</ele>
        <time>2020-08-18T08:44:12.906Z</time>
      </trkpt>
      <trkpt lat="36.459793" lon="-6.240875">
        <ele>48.631362</ele>
        <time>2020-08-18T08:44:15.901Z</time>
      </trkpt>
      <trkpt lat="36.459814" lon="-6.241029">
        <ele>48.462692</ele>
        <time>2020-08-18T08:44:18.896Z</time>
      </trkpt>
      <trkpt lat="36.459839" lon="-6.241172">
        <ele>48.304667</ele>
        <time>2020-08-18T08:44:21.902Z</time>
      </trkpt>
      <trkpt lat="36.459859" lon="-6.241318">
        <ele>48.144738</ele>
        <time>2020-08-18T08:44:24.884Z</time>
      </trkpt>
      <trkpt lat="36.459879" lon="-6.241459">
        <ele>47.990130</ele>
        <time>2020-08-18T08:44:27.897Z</time>
      </trkpt>
      <trkpt lat="36.459894" lon="-6.241607">
        <ele>47.829048</ele>
        <time>2020-08-18T08:44:30.902Z</time>
      </trkpt>
      <trkpt lat="36.459908" lon="-6.241756">
        <ele>47.667057</ele>
        <time>2020-08-18T08:44:33.895Z</time>
      </trkpt>
      <trkpt lat="36.459915" lon="-6.241906">
        <ele>47.504807</ele>
        <time>2020-08-18T08:44:36.890Z</time>
      </trkpt>
      <trkpt lat="36.459949" lon="-6.242044">
        <ele>47.348952</ele>
        <time>2020-08-18T08:44:39.898Z</time>
      </trkpt>
      <trkpt lat="36.459962" lon="-6.242191">
        <ele>47.189258</ele>
        <time>2020-08-18T08:44:42.902Z</time>
      </trkpt>
      <trkpt lat="36.459984" lon="-6.242328">
        <ele>47.038399</ele>
        <time>2020-08-18T08:44:45.911Z</time>
      </trkpt>
      <trkpt lat="36.460012" lon="-6.242464">
        <ele>46.886804</ele>
        <time>2020-08-18T08:44:48.913Z</time>
      </trkpt>
      <trkpt lat="36.460036" lon="-6.242618">
        <ele>46.717414</ele>
        <time>2020-08-18T08:44:51.901Z</time>
      </trkpt>
      <trkpt lat="36.460061" lon="-6.242765">
        <ele>46.555167</ele>
        <time>2020-08-18T08:44:54.895Z</time>
      </trkpt>
      <trkpt lat="36.460083" lon="-6.242912">
        <ele>46.447726</ele>
        <time>2020-08-18T08:44:57.896Z</time>
      </trkpt>
      <trkpt lat="36.460117" lon="-6.243036">
        <ele>46.436174</ele>
        <time>2020-08-18T08:45:00.891Z</time>
      </trkpt>
      <trkpt lat="36.460130" lon="-6.243173">
        <ele>46.424009</ele>
        <time>2020-08-18T08:45:03.910Z</time>
      </trkpt>
      <trkpt lat="36.460162" lon="-6.243298">
        <ele>46.412442</ele>
        <time>2020-08-18T08:45:06.892Z</time>
      </trkpt>
      <trkpt lat="36.460164" lon="-6.243438">
        <ele>46.400095</ele>
        <time>2020-08-18T08:45:09.907Z</time>
      </trkpt>
      <trkpt lat="36.460180" lon="-6.243582">
        <ele>46.387276</ele>
        <time>2020-08-18T08:45:12.896Z</time>
      </trkpt>
      <trkpt lat="36.460203" lon="-6.243726">
        <ele>46.374330</ele>
        <time>2020-08-18T08:45:15.901Z</time>
      </trkpt>
      <trkpt lat="36.460220" lon="-6.243875">
        <ele>46.361060</ele>
        <time>2020-08-18T08:45:18.898Z</time>
      </trkpt>
      <trkpt lat="36.460238" lon="-6.244024">
        <ele>46.347774</ele>
        <time>2020-08-18T08:45:21.905Z</time>
      </trkpt>
      <trkpt lat="36.460245" lon="-6.244183">
        <ele>46.333732</ele>
        <time>2020-08-18T08:45:24.902Z</time>
      </trkpt>
      <trkpt lat="36.460238" lon="-6.244322">
        <ele>46.321451</ele>
        <time>2020-08-18T08:45:27.898Z</time>
      </trkpt>
      <trkpt lat="36.460260" lon="-6.244471">
        <ele>46.308093</ele>
        <time>2020-08-18T08:45:30.896Z</time>
      </trkpt>
      <trkpt lat="36.460280" lon="-6.244610">
        <ele>46.295641</ele>
        <time>2020-08-18T08:45:33.903Z</time>
      </trkpt>
      <trkpt lat="36.460318" lon="-6.244741">
        <ele>46.283361</ele>
        <time>2020-08-18T08:45:36.902Z</time>
      </trkpt>
      <trkpt lat="36.460359" lon="-6.244889">
        <ele>46.269558</ele>
        <time>2020-08-18T08:45:39.901Z</time>
      </trkpt>
      <trkpt lat="36.460385" lon="-6.245028">
        <ele>46.256974</ele>
        <time>2020-08-18T08:45:42.908Z</time>
      </trkpt>
      <trkpt lat="36.460402" lon="-6.245167">
        <ele>46.123659</ele>
        <time>2020-08-18T08:45:45.901Z</time>
      </trkpt>
      <trkpt lat="36.460428" lon="-6.245317">
        <ele>45.957945</ele>
        <time>2020-08-18T08:45:48.913Z</time>
      </trkpt>
      <trkpt lat="36.460445" lon="-6.245453">
        <ele>45.809306</ele>
        <time>2020-08-18T08:45:51.898Z</time>
      </trkpt>
      <trkpt lat="36.460461" lon="-6.245586">
        <ele>45.664073</ele>
        <time>2020-08-18T08:45:54.905Z</time>
      </trkpt>
      <trkpt lat="36.460470" lon="-6.245744">
        <ele>45.493012</ele>
        <time>2020-08-18T08:45:57.901Z</time>
      </trkpt>
      <trkpt lat="36.460480" lon="-6.245898">
        <ele>45.326156</ele>
        <time>2020-08-18T08:46:00.897Z</time>
      </trkpt>
      <trkpt lat="36.460506" lon="-6.246034">
        <ele>45.175189</ele>
        <time>2020-08-18T08:46:03.901Z</time>
      </trkpt>
      <trkpt lat="36.460538" lon="-6.246169">
        <ele>45.023193</ele>
        <time>2020-08-18T08:46:06.901Z</time>
      </trkpt>
      <trkpt lat="36.460559" lon="-6.246293">
        <ele>44.886341</ele>
        <time>2020-08-18T08:46:09.901Z</time>
      </trkpt>
      <trkpt lat="36.460580" lon="-6.246427">
        <ele>44.738904</ele>
        <time>2020-08-18T08:46:12.899Z</time>
      </trkpt>
      <trkpt lat="36.460607" lon="-6.246550">
        <ele>44.601210</ele>
        <time>2020-08-18T08:46:15.902Z</time>
      </trkpt>
      <trkpt lat="36.460637" lon="-6.246665">
        <ele>44.470645</ele>
        <time>2020-08-18T08:46:18.913Z</time>
      </trkpt>
      <trkpt lat="36.460669" lon="-6.246780">
        <ele>44.339226</ele>
        <time>2020-08-18T08:46:21.901Z</time>
      </trkpt>
      <trkpt lat="36.460704" lon="-6.246893">
        <ele>44.208454</ele>
        <time>2020-08-18T08:46:24.902Z</time>
      </trkpt>
      <trkpt lat="36.460749" lon="-6.247010">
        <ele>44.068393</ele>
        <time>2020-08-18T08:46:27.902Z</time>
      </trkpt>
      <trkpt lat="36.460790" lon="-6.247132">
        <ele>43.925598</ele>
        <time>2020-08-18T08:46:30.896Z</time>
      </trkpt>
      <trkpt lat="36.460833" lon="-6.247249">
        <ele>43.887683</ele>
        <time>2020-08-18T08:46:33.898Z</time>
      </trkpt>
      <trkpt lat="36.460873" lon="-6.247377">
        <ele>44.019653</ele>
        <time>2020-08-18T08:46:36.905Z</time>
      </trkpt>
      <trkpt lat="36.460918" lon="-6.247501">
        <ele>44.150389</ele>
        <time>2020-08-18T08:46:39.913Z</time>
      </trkpt>
      <trkpt lat="36.460962" lon="-6.247624">
        <ele>44.279759</ele>
        <time>2020-08-18T08:46:42.898Z</time>
      </trkpt>
      <trkpt lat="36.461006" lon="-6.247742">
        <ele>44.404754</ele>
        <time>2020-08-18T08:46:45.907Z</time>
      </trkpt>
      <trkpt lat="36.461050" lon="-6.247854">
        <ele>44.524543</ele>
        <time>2020-08-18T08:46:48.895Z</time>
      </trkpt>
      <trkpt lat="36.461094" lon="-6.247962">
        <ele>44.640889</ele>
        <time>2020-08-18T08:46:51.899Z</time>
      </trkpt>
      <trkpt lat="36.461135" lon="-6.248080">
        <ele>44.764419</ele>
        <time>2020-08-18T08:46:54.892Z</time>
      </trkpt>
      <trkpt lat="36.461173" lon="-6.248212">
        <ele>44.899155</ele>
        <time>2020-08-18T08:46:57.901Z</time>
      </trkpt>
      <trkpt lat="36.461220" lon="-6.248329">
        <ele>45.024839</ele>
        <time>2020-08-18T08:47:00.890Z</time>
      </trkpt>
      <trkpt lat="36.461268" lon="-6.248442">
        <ele>45.147649</ele>
        <time>2020-08-18T08:47:03.894Z</time>
      </trkpt>
      <trkpt lat="36.461318" lon="-6.248556">
        <ele>45.272437</ele>
        <time>2020-08-18T08:47:06.905Z</time>
      </trkpt>
      <trkpt lat="36.461362" lon="-6.248676">
        <ele>45.399178</ele>
        <time>2020-08-18T08:47:09.902Z</time>
      </trkpt>
      <trkpt lat="36.461414" lon="-6.248792">
        <ele>45.526802</ele>
        <time>2020-08-18T08:47:12.901Z</time>
      </trkpt>
      <trkpt lat="36.461471" lon="-6.248900">
        <ele>45.650944</ele>
        <time>2020-08-18T08:47:15.901Z</time>
      </trkpt>
      <trkpt lat="36.461531" lon="-6.249004">
        <ele>45.773944</ele>
        <time>2020-08-18T08:47:18.904Z</time>
      </trkpt>
      <trkpt lat="36.461588" lon="-6.249108">
        <ele>45.894890</ele>
        <time>2020-08-18T08:47:21.898Z</time>
      </trkpt>
      <trkpt lat="36.461640" lon="-6.249244">
        <ele>45.962984</ele>
        <time>2020-08-18T08:47:24.899Z</time>
      </trkpt>
      <trkpt lat="36.461697" lon="-6.249348">
        <ele>45.899597</ele>
        <time>2020-08-18T08:47:27.897Z</time>
      </trkpt>
      <trkpt lat="36.461761" lon="-6.249438">
        <ele>45.839090</ele>
        <time>2020-08-18T08:47:30.908Z</time>
      </trkpt>
      <trkpt lat="36.461829" lon="-6.249532">
        <ele>45.775412</ele>
        <time>2020-08-18T08:47:33.897Z</time>
      </trkpt>
      <trkpt lat="36.461892" lon="-6.249647">
        <ele>45.705330</ele>
        <time>2020-08-18T08:47:36.894Z</time>
      </trkpt>
      <trkpt lat="36.461967" lon="-6.249730">
        <ele>45.642453</ele>
        <time>2020-08-18T08:47:39.900Z</time>
      </trkpt>
      <trkpt lat="36.462042" lon="-6.249823">
        <ele>45.576120</ele>
        <time>2020-08-18T08:47:42.890Z</time>
      </trkpt>
      <trkpt lat="36.462099" lon="-6.249928">
        <ele>45.512317</ele>
        <time>2020-08-18T08:47:45.889Z</time>
      </trkpt>
      <trkpt lat="36.462164" lon="-6.250028">
        <ele>45.447558</ele>
        <time>2020-08-18T08:47:48.895Z</time>
      </trkpt>
      <trkpt lat="36.462229" lon="-6.250125">
        <ele>45.383968</ele>
        <time>2020-08-18T08:47:51.904Z</time>
      </trkpt>
      <trkpt lat="36.462292" lon="-6.250226">
        <ele>45.319592</ele>
        <time>2020-08-18T08:47:54.898Z</time>
      </trkpt>
      <trkpt lat="36.462367" lon="-6.250316">
        <ele>45.254318</ele>
        <time>2020-08-18T08:47:57.898Z</time>
      </trkpt>
      <trkpt lat="36.462447" lon="-6.250405">
        <ele>45.187093</ele>
        <time>2020-08-18T08:48:00.871Z</time>
      </trkpt>
      <trkpt lat="36.462520" lon="-6.250497">
        <ele>45.122000</ele>
        <time>2020-08-18T08:48:03.899Z</time>
      </trkpt>
      <trkpt lat="36.462595" lon="-6.250574">
        <ele>45.061091</ele>
        <time>2020-08-18T08:48:06.891Z</time>
      </trkpt>
      <trkpt lat="36.462667" lon="-6.250665">
        <ele>44.996797</ele>
        <time>2020-08-18T08:48:09.896Z</time>
      </trkpt>
      <trkpt lat="36.462752" lon="-6.250756">
        <ele>44.926554</ele>
        <time>2020-08-18T08:48:12.894Z</time>
      </trkpt>
      <trkpt lat="36.462837" lon="-6.250835">
        <ele>44.858447</ele>
        <time>2020-08-18T08:48:15.887Z</time>
      </trkpt>
      <trkpt lat="36.462911" lon="-6.250911">
        <ele>44.763524</ele>
        <time>2020-08-18T08:48:18.911Z</time>
      </trkpt>
      <trkpt lat="36.462990" lon="-6.251014">
        <ele>44.650316</ele>
        <time>2020-08-18T08:48:22.899Z</time>
      </trkpt>
      <trkpt lat="36.463040" lon="-6.251109">
        <ele>44.560012</ele>
        <time>2020-08-18T08:48:25.901Z</time>
      </trkpt>
      <trkpt lat="36.463094" lon="-6.251208">
        <ele>44.464866</ele>
        <time>2020-08-18T08:48:28.904Z</time>
      </trkpt>
      <trkpt lat="36.463162" lon="-6.251318">
        <ele>44.354514</ele>
        <time>2020-08-18T08:48:31.901Z</time>
      </trkpt>
      <trkpt lat="36.463234" lon="-6.251429">
        <ele>44.241089</ele>
        <time>2020-08-18T08:48:34.902Z</time>
      </trkpt>
      <trkpt lat="36.463333" lon="-6.251539">
        <ele>44.109783</ele>
        <time>2020-08-18T08:48:37.910Z</time>
      </trkpt>
      <trkpt lat="36.463434" lon="-6.251632">
        <ele>43.985487</ele>
        <time>2020-08-18T08:48:40.895Z</time>
      </trkpt>
      <trkpt lat="36.463507" lon="-6.251722">
        <ele>43.883818</ele>
        <time>2020-08-18T08:48:44.897Z</time>
      </trkpt>
      <trkpt lat="36.463619" lon="-6.251839">
        <ele>43.739148</ele>
        <time>2020-08-18T08:48:46.920Z</time>
      </trkpt>
      <trkpt lat="36.463706" lon="-6.251871">
        <ele>43.649420</ele>
        <time>2020-08-18T08:48:50.896Z</time>
      </trkpt>
      <trkpt lat="36.463787" lon="-6.251938">
        <ele>43.553205</ele>
        <time>2020-08-18T08:48:53.899Z</time>
      </trkpt>
      <trkpt lat="36.463882" lon="-6.252007">
        <ele>43.444397</ele>
        <time>2020-08-18T08:48:57.915Z</time>
      </trkpt>
      <trkpt lat="36.463973" lon="-6.252080">
        <ele>43.337294</ele>
        <time>2020-08-18T08:48:59.885Z</time>
      </trkpt>
      <trkpt lat="36.464063" lon="-6.252128">
        <ele>43.240443</ele>
        <time>2020-08-18T08:49:02.895Z</time>
      </trkpt>
      <trkpt lat="36.464143" lon="-6.252202">
        <ele>43.141832</ele>
        <time>2020-08-18T08:49:06.886Z</time>
      </trkpt>
      <trkpt lat="36.464256" lon="-6.252281">
        <ele>43.118721</ele>
        <time>2020-08-18T08:49:09.898Z</time>
      </trkpt>
      <trkpt lat="36.464341" lon="-6.252325">
        <ele>43.163452</ele>
        <time>2020-08-18T08:49:10.919Z</time>
      </trkpt>
      <trkpt lat="36.464436" lon="-6.252399">
        <ele>43.217915</ele>
        <time>2020-08-18T08:49:15.896Z</time>
      </trkpt>
      <trkpt lat="36.464519" lon="-6.252468">
        <ele>43.266421</ele>
        <time>2020-08-18T08:49:20.917Z</time>
      </trkpt>
      <trkpt lat="36.464673" lon="-6.252585">
        <ele>43.354100</ele>
        <time>2020-08-18T08:49:23.887Z</time>
      </trkpt>
      <trkpt lat="36.464775" lon="-6.252655">
        <ele>43.410701</ele>
        <time>2020-08-18T08:49:26.892Z</time>
      </trkpt>
      <trkpt lat="36.464849" lon="-6.252724">
        <ele>43.455638</ele>
        <time>2020-08-18T08:49:30.913Z</time>
      </trkpt>
      <trkpt lat="36.464928" lon="-6.252793">
        <ele>43.502541</ele>
        <time>2020-08-18T08:49:34.898Z</time>
      </trkpt>
      <trkpt lat="36.465003" lon="-6.252875">
        <ele>43.551061</ele>
        <time>2020-08-18T08:49:37.902Z</time>
      </trkpt>
      <trkpt lat="36.465127" lon="-6.252958">
        <ele>43.619478</ele>
        <time>2020-08-18T08:49:40.896Z</time>
      </trkpt>
      <trkpt lat="36.465219" lon="-6.253011">
        <ele>43.668739</ele>
        <time>2020-08-18T08:49:44.901Z</time>
      </trkpt>
      <trkpt lat="36.465315" lon="-6.253070">
        <ele>43.720765</ele>
        <time>2020-08-18T08:49:49.912Z</time>
      </trkpt>
      <trkpt lat="36.465433" lon="-6.253148">
        <ele>43.785690</ele>
        <time>2020-08-18T08:49:53.869Z</time>
      </trkpt>
      <trkpt lat="36.465548" lon="-6.253192">
        <ele>43.844146</ele>
        <time>2020-08-18T08:49:57.872Z</time>
      </trkpt>
      <trkpt lat="36.465647" lon="-6.253253">
        <ele>43.897825</ele>
        <time>2020-08-18T08:50:02.899Z</time>
      </trkpt>
      <trkpt lat="36.465776" lon="-6.253290">
        <ele>43.982073</ele>
        <time>2020-08-18T08:50:04.892Z</time>
      </trkpt>
      <trkpt lat="36.465882" lon="-6.253332">
        <ele>44.292401</ele>
        <time>2020-08-18T08:50:07.892Z</time>
      </trkpt>
      <trkpt lat="36.465973" lon="-6.253389">
        <ele>44.576625</ele>
        <time>2020-08-18T08:50:10.894Z</time>
      </trkpt>
      <trkpt lat="36.466095" lon="-6.253456">
        <ele>44.948647</ele>
        <time>2020-08-18T08:50:14.921Z</time>
      </trkpt>
      <trkpt lat="36.466193" lon="-6.253493">
        <ele>45.234334</ele>
        <time>2020-08-18T08:50:16.901Z</time>
      </trkpt>
      <trkpt lat="36.466292" lon="-6.253561">
        <ele>45.549817</ele>
        <time>2020-08-18T08:50:19.905Z</time>
      </trkpt>
      <trkpt lat="36.466391" lon="-6.253629">
        <ele>45.865300</ele>
        <time>2020-08-18T08:50:23.896Z</time>
      </trkpt>
      <trkpt lat="36.466493" lon="-6.253686">
        <ele>46.177233</ele>
        <time>2020-08-18T08:50:26.894Z</time>
      </trkpt>
      <trkpt lat="36.466582" lon="-6.253726">
        <ele>46.441210</ele>
        <time>2020-08-18T08:50:29.902Z</time>
      </trkpt>
      <trkpt lat="36.466680" lon="-6.253764">
        <ele>46.727556</ele>
        <time>2020-08-18T08:50:32.897Z</time>
      </trkpt>
      <trkpt lat="36.466810" lon="-6.253768">
        <ele>47.090292</ele>
        <time>2020-08-18T08:50:36.908Z</time>
      </trkpt>
      <trkpt lat="36.466909" lon="-6.253752">
        <ele>47.368768</ele>
        <time>2020-08-18T08:50:39.894Z</time>
      </trkpt>
      <trkpt lat="36.467025" lon="-6.253720">
        <ele>47.700208</ele>
        <time>2020-08-18T08:50:43.897Z</time>
      </trkpt>
      <trkpt lat="36.467118" lon="-6.253729">
        <ele>47.960409</ele>
        <time>2020-08-18T08:50:46.912Z</time>
      </trkpt>
      <trkpt lat="36.467387" lon="-6.253887">
        <ele>48.790261</ele>
        <time>2020-08-18T08:50:56.944Z</time>
      </trkpt>
      <trkpt lat="36.467422" lon="-6.254002">
        <ele>48.963548</ele>
        <time>2020-08-18T08:51:06.887Z</time>
      </trkpt>
      <trkpt lat="36.467475" lon="-6.253906">
        <ele>48.930331</ele>
        <time>2020-08-18T08:51:10.915Z</time>
      </trkpt>
      <trkpt lat="36.467517" lon="-6.253805">
        <ele>48.897895</ele>
        <time>2020-08-18T08:51:13.899Z</time>
      </trkpt>
      <trkpt lat="36.467580" lon="-6.253719">
        <ele>48.864710</ele>
        <time>2020-08-18T08:51:16.918Z</time>
      </trkpt>
      <trkpt lat="36.467674" lon="-6.253666">
        <ele>48.828100</ele>
        <time>2020-08-18T08:51:20.898Z</time>
      </trkpt>
      <trkpt lat="36.467571" lon="-6.253746">
        <ele>48.785022</ele>
        <time>2020-08-18T08:52:29.909Z</time>
      </trkpt>
      <trkpt lat="36.467561" lon="-6.253857">
        <ele>48.753160</ele>
        <time>2020-08-18T08:52:36.865Z</time>
      </trkpt>
      <trkpt lat="36.467544" lon="-6.253967">
        <ele>48.721207</ele>
        <time>2020-08-18T08:52:41.896Z</time>
      </trkpt>
      <trkpt lat="36.467508" lon="-6.254079">
        <ele>48.686800</ele>
        <time>2020-08-18T08:52:48.898Z</time>
      </trkpt>
      <trkpt lat="36.467451" lon="-6.254193">
        <ele>48.648508</ele>
        <time>2020-08-18T08:52:53.889Z</time>
      </trkpt>
      <trkpt lat="36.467405" lon="-6.254300">
        <ele>48.613897</ele>
        <time>2020-08-18T08:52:57.907Z</time>
      </trkpt>
      <trkpt lat="36.467420" lon="-6.254433">
        <ele>48.575586</ele>
        <time>2020-08-18T08:53:02.911Z</time>
      </trkpt>
      <trkpt lat="36.467466" lon="-6.254534">
        <ele>48.542475</ele>
        <time>2020-08-18T08:53:07.897Z</time>
      </trkpt>
      <trkpt lat="36.467553" lon="-6.254602">
        <ele>48.506024</ele>
        <time>2020-08-18T08:53:12.915Z</time>
      </trkpt>
      <trkpt lat="36.467667" lon="-6.254648">
        <ele>48.463511</ele>
        <time>2020-08-18T08:53:17.913Z</time>
      </trkpt>
      <trkpt lat="36.467759" lon="-6.254678">
        <ele>48.429774</ele>
        <time>2020-08-18T08:53:19.897Z</time>
      </trkpt>
      <trkpt lat="36.467874" lon="-6.254712">
        <ele>48.387844</ele>
        <time>2020-08-18T08:53:22.900Z</time>
      </trkpt>
      <trkpt lat="36.467953" lon="-6.254767">
        <ele>48.355728</ele>
        <time>2020-08-18T08:53:25.884Z</time>
      </trkpt>
      <trkpt lat="36.468043" lon="-6.254802">
        <ele>48.302081</ele>
        <time>2020-08-18T08:53:30.898Z</time>
      </trkpt>
      <trkpt lat="36.468131" lon="-6.254844">
        <ele>48.223104</ele>
        <time>2020-08-18T08:53:33.894Z</time>
      </trkpt>
      <trkpt lat="36.468215" lon="-6.254888">
        <ele>48.146734</ele>
        <time>2020-08-18T08:53:36.888Z</time>
      </trkpt>
      <trkpt lat="36.468299" lon="-6.254932">
        <ele>48.070363</ele>
        <time>2020-08-18T08:53:39.885Z</time>
      </trkpt>
      <trkpt lat="36.468384" lon="-6.254980">
        <ele>47.992144</ele>
        <time>2020-08-18T08:53:42.872Z</time>
      </trkpt>
      <trkpt lat="36.468479" lon="-6.255030">
        <ele>47.905710</ele>
        <time>2020-08-18T08:53:45.887Z</time>
      </trkpt>
      <trkpt lat="36.468572" lon="-6.255079">
        <ele>47.821082</ele>
        <time>2020-08-18T08:53:48.881Z</time>
      </trkpt>
      <trkpt lat="36.468658" lon="-6.255130">
        <ele>47.741250</ele>
        <time>2020-08-18T08:53:51.872Z</time>
      </trkpt>
      <trkpt lat="36.468762" lon="-6.255193">
        <ele>47.644322</ele>
        <time>2020-08-18T08:53:55.879Z</time>
      </trkpt>
      <trkpt lat="36.468862" lon="-6.255248">
        <ele>47.552705</ele>
        <time>2020-08-18T08:53:59.853Z</time>
      </trkpt>
      <trkpt lat="36.468949" lon="-6.255283">
        <ele>47.476090</ele>
        <time>2020-08-18T08:54:03.902Z</time>
      </trkpt>
      <trkpt lat="36.469037" lon="-6.255334">
        <ele>47.394743</ele>
        <time>2020-08-18T08:54:07.895Z</time>
      </trkpt>
      <trkpt lat="36.469139" lon="-6.255384">
        <ele>47.302880</ele>
        <time>2020-08-18T08:54:11.888Z</time>
      </trkpt>
      <trkpt lat="36.469239" lon="-6.255441">
        <ele>47.210709</ele>
        <time>2020-08-18T08:54:15.899Z</time>
      </trkpt>
      <trkpt lat="36.469335" lon="-6.255505">
        <ele>47.119443</ele>
        <time>2020-08-18T08:54:19.891Z</time>
      </trkpt>
      <trkpt lat="36.469431" lon="-6.255539">
        <ele>47.035809</ele>
        <time>2020-08-18T08:54:22.881Z</time>
      </trkpt>
      <trkpt lat="36.469515" lon="-6.255580">
        <ele>46.960200</ele>
        <time>2020-08-18T08:54:25.882Z</time>
      </trkpt>
      <trkpt lat="36.469608" lon="-6.255636">
        <ele>46.873623</ele>
        <time>2020-08-18T08:54:28.872Z</time>
      </trkpt>
      <trkpt lat="36.469697" lon="-6.255686">
        <ele>46.692605</ele>
        <time>2020-08-18T08:54:31.896Z</time>
      </trkpt>
      <trkpt lat="36.469788" lon="-6.255707">
        <ele>46.414117</ele>
        <time>2020-08-18T08:54:34.858Z</time>
      </trkpt>
      <trkpt lat="36.469886" lon="-6.255772">
        <ele>46.079917</ele>
        <time>2020-08-18T08:54:38.858Z</time>
      </trkpt>
      <trkpt lat="36.469979" lon="-6.255841">
        <ele>45.754062</ele>
        <time>2020-08-18T08:54:42.861Z</time>
      </trkpt>
      <trkpt lat="36.470077" lon="-6.255906">
        <ele>45.419863</ele>
        <time>2020-08-18T08:54:46.895Z</time>
      </trkpt>
      <trkpt lat="36.470187" lon="-6.255960">
        <ele>45.064021</ele>
        <time>2020-08-18T08:54:50.872Z</time>
      </trkpt>
      <trkpt lat="36.470292" lon="-6.256031">
        <ele>44.704394</ele>
        <time>2020-08-18T08:54:54.893Z</time>
      </trkpt>
      <trkpt lat="36.470376" lon="-6.256086">
        <ele>44.418747</ele>
        <time>2020-08-18T08:54:57.888Z</time>
      </trkpt>
      <trkpt lat="36.470469" lon="-6.256148">
        <ele>44.101238</ele>
        <time>2020-08-18T08:55:00.858Z</time>
      </trkpt>
      <trkpt lat="36.470574" lon="-6.256219">
        <ele>43.741610</ele>
        <time>2020-08-18T08:55:04.884Z</time>
      </trkpt>
      <trkpt lat="36.470661" lon="-6.256259">
        <ele>43.462513</ele>
        <time>2020-08-18T08:55:07.888Z</time>
      </trkpt>
      <trkpt lat="36.470756" lon="-6.256303">
        <ele>43.157480</ele>
        <time>2020-08-18T08:55:10.891Z</time>
      </trkpt>
      <trkpt lat="36.470842" lon="-6.256354">
        <ele>42.870792</ele>
        <time>2020-08-18T08:55:13.901Z</time>
      </trkpt>
      <trkpt lat="36.470949" lon="-6.256410">
        <ele>42.521483</ele>
        <time>2020-08-18T08:55:17.881Z</time>
      </trkpt>
      <trkpt lat="36.471030" lon="-6.256459">
        <ele>42.250450</ele>
        <time>2020-08-18T08:55:20.881Z</time>
      </trkpt>
      <trkpt lat="36.471132" lon="-6.256523">
        <ele>41.906682</ele>
        <time>2020-08-18T08:55:24.887Z</time>
      </trkpt>
      <trkpt lat="36.471230" lon="-6.256575">
        <ele>41.586084</ele>
        <time>2020-08-18T08:55:28.892Z</time>
      </trkpt>
      <trkpt lat="36.471330" lon="-6.256625">
        <ele>41.477389</ele>
        <time>2020-08-18T08:55:32.901Z</time>
      </trkpt>
      <trkpt lat="36.471430" lon="-6.256682">
        <ele>41.603048</ele>
        <time>2020-08-18T08:55:36.885Z</time>
      </trkpt>
      <trkpt lat="36.471531" lon="-6.256745">
        <ele>41.732122</ele>
        <time>2020-08-18T08:55:40.871Z</time>
      </trkpt>
      <trkpt lat="36.471632" lon="-6.256809">
        <ele>41.861610</ele>
        <time>2020-08-18T08:55:44.879Z</time>
      </trkpt>
      <trkpt lat="36.471719" lon="-6.256854">
        <ele>41.969245</ele>
        <time>2020-08-18T08:55:48.871Z</time>
      </trkpt>
      <trkpt lat="36.471809" lon="-6.256914">
        <ele>42.085894</ele>
        <time>2020-08-18T08:55:53.874Z</time>
      </trkpt>
      <trkpt lat="36.471892" lon="-6.256968">
        <ele>42.192897</ele>
        <time>2020-08-18T08:55:57.900Z</time>
      </trkpt>
      <trkpt lat="36.471991" lon="-6.257019">
        <ele>42.315305</ele>
        <time>2020-08-18T08:56:01.878Z</time>
      </trkpt>
      <trkpt lat="36.472086" lon="-6.257076">
        <ele>42.435796</ele>
        <time>2020-08-18T08:56:05.895Z</time>
      </trkpt>
      <trkpt lat="36.472193" lon="-6.257130">
        <ele>42.567704</ele>
        <time>2020-08-18T08:56:09.903Z</time>
      </trkpt>
      <trkpt lat="36.472297" lon="-6.257170">
        <ele>42.692057</ele>
        <time>2020-08-18T08:56:13.881Z</time>
      </trkpt>
      <trkpt lat="36.472394" lon="-6.257218">
        <ele>42.811311</ele>
        <time>2020-08-18T08:56:17.876Z</time>
      </trkpt>
      <trkpt lat="36.472504" lon="-6.257280">
        <ele>42.949269</ele>
        <time>2020-08-18T08:56:21.894Z</time>
      </trkpt>
      <trkpt lat="36.472613" lon="-6.257342">
        <ele>43.086187</ele>
        <time>2020-08-18T08:56:25.893Z</time>
      </trkpt>
      <trkpt lat="36.472698" lon="-6.257399">
        <ele>43.196500</ele>
        <time>2020-08-18T08:56:28.881Z</time>
      </trkpt>
      <trkpt lat="36.472781" lon="-6.257455">
        <ele>43.304367</ele>
        <time>2020-08-18T08:56:31.860Z</time>
      </trkpt>
      <trkpt lat="36.472877" lon="-6.257518">
        <ele>43.428362</ele>
        <time>2020-08-18T08:56:35.921Z</time>
      </trkpt>
      <trkpt lat="36.472982" lon="-6.257570">
        <ele>43.472102</ele>
        <time>2020-08-18T08:56:38.893Z</time>
      </trkpt>
      <trkpt lat="36.473073" lon="-6.257618">
        <ele>43.471356</ele>
        <time>2020-08-18T08:56:41.898Z</time>
      </trkpt>
      <trkpt lat="36.473182" lon="-6.257679">
        <ele>43.470454</ele>
        <time>2020-08-18T08:56:44.889Z</time>
      </trkpt>
      <trkpt lat="36.473274" lon="-6.257736">
        <ele>43.469679</ele>
        <time>2020-08-18T08:56:47.883Z</time>
      </trkpt>
      <trkpt lat="36.473367" lon="-6.257780">
        <ele>43.468928</ele>
        <time>2020-08-18T08:56:50.878Z</time>
      </trkpt>
      <trkpt lat="36.473452" lon="-6.257839">
        <ele>43.468194</ele>
        <time>2020-08-18T08:56:53.884Z</time>
      </trkpt>
      <trkpt lat="36.473543" lon="-6.257886">
        <ele>43.467451</ele>
        <time>2020-08-18T08:56:56.874Z</time>
      </trkpt>
      <trkpt lat="36.473629" lon="-6.257934">
        <ele>43.466740</ele>
        <time>2020-08-18T08:56:59.861Z</time>
      </trkpt>
      <trkpt lat="36.473718" lon="-6.257974">
        <ele>43.466026</ele>
        <time>2020-08-18T08:57:02.861Z</time>
      </trkpt>
      <trkpt lat="36.473824" lon="-6.258040">
        <ele>43.465132</ele>
        <time>2020-08-18T08:57:06.880Z</time>
      </trkpt>
      <trkpt lat="36.473915" lon="-6.258088">
        <ele>43.464386</ele>
        <time>2020-08-18T08:57:09.879Z</time>
      </trkpt>
      <trkpt lat="36.474013" lon="-6.258131">
        <ele>43.463602</ele>
        <time>2020-08-18T08:57:12.877Z</time>
      </trkpt>
      <trkpt lat="36.474115" lon="-6.258169">
        <ele>43.462799</ele>
        <time>2020-08-18T08:57:15.867Z</time>
      </trkpt>
      <trkpt lat="36.474206" lon="-6.258211">
        <ele>43.462067</ele>
        <time>2020-08-18T08:57:18.870Z</time>
      </trkpt>
      <trkpt lat="36.474302" lon="-6.258254">
        <ele>43.461297</ele>
        <time>2020-08-18T08:57:21.883Z</time>
      </trkpt>
      <trkpt lat="36.474395" lon="-6.258303">
        <ele>43.460536</ele>
        <time>2020-08-18T08:57:24.901Z</time>
      </trkpt>
      <trkpt lat="36.474480" lon="-6.258349">
        <ele>43.459836</ele>
        <time>2020-08-18T08:57:27.880Z</time>
      </trkpt>
      <trkpt lat="36.474564" lon="-6.258390">
        <ele>43.459156</ele>
        <time>2020-08-18T08:57:30.908Z</time>
      </trkpt>
      <trkpt lat="36.474663" lon="-6.258448">
        <ele>43.420584</ele>
        <time>2020-08-18T08:57:34.874Z</time>
      </trkpt>
      <trkpt lat="36.474744" lon="-6.258509">
        <ele>43.384588</ele>
        <time>2020-08-18T08:57:37.869Z</time>
      </trkpt>
      <trkpt lat="36.474837" lon="-6.258559">
        <ele>43.346074</ele>
        <time>2020-08-18T08:57:40.865Z</time>
      </trkpt>
      <trkpt lat="36.474934" lon="-6.258601">
        <ele>43.307031</ele>
        <time>2020-08-18T08:57:43.875Z</time>
      </trkpt>
      <trkpt lat="36.475022" lon="-6.258652">
        <ele>43.270127</ele>
        <time>2020-08-18T08:57:46.866Z</time>
      </trkpt>
      <trkpt lat="36.475114" lon="-6.258717">
        <ele>43.229905</ele>
        <time>2020-08-18T08:57:49.897Z</time>
      </trkpt>
      <trkpt lat="36.475205" lon="-6.258775">
        <ele>43.191036</ele>
        <time>2020-08-18T08:57:52.882Z</time>
      </trkpt>
      <trkpt lat="36.475290" lon="-6.258827">
        <ele>43.155027</ele>
        <time>2020-08-18T08:57:55.883Z</time>
      </trkpt>
      <trkpt lat="36.475379" lon="-6.258881">
        <ele>43.117384</ele>
        <time>2020-08-18T08:57:58.879Z</time>
      </trkpt>
      <trkpt lat="36.475479" lon="-6.258935">
        <ele>43.075943</ele>
        <time>2020-08-18T08:58:01.896Z</time>
      </trkpt>
      <trkpt lat="36.475580" lon="-6.258979">
        <ele>43.035263</ele>
        <time>2020-08-18T08:58:04.895Z</time>
      </trkpt>
      <trkpt lat="36.475680" lon="-6.259028">
        <ele>42.994407</ele>
        <time>2020-08-18T08:58:07.891Z</time>
      </trkpt>
      <trkpt lat="36.475766" lon="-6.259079">
        <ele>42.958189</ele>
        <time>2020-08-18T08:58:10.896Z</time>
      </trkpt>
      <trkpt lat="36.475862" lon="-6.259132">
        <ele>42.918263</ele>
        <time>2020-08-18T08:58:13.889Z</time>
      </trkpt>
      <trkpt lat="36.475949" lon="-6.259177">
        <ele>42.882446</ele>
        <time>2020-08-18T08:58:16.902Z</time>
      </trkpt>
      <trkpt lat="36.476053" lon="-6.259251">
        <ele>42.836900</ele>
        <time>2020-08-18T08:58:20.859Z</time>
      </trkpt>
      <trkpt lat="36.476134" lon="-6.259308">
        <ele>42.801522</ele>
        <time>2020-08-18T08:58:23.876Z</time>
      </trkpt>
      <trkpt lat="36.476224" lon="-6.259356">
        <ele>42.778200</ele>
        <time>2020-08-18T08:58:26.886Z</time>
      </trkpt>
      <trkpt lat="36.476318" lon="-6.259403">
        <ele>42.787968</ele>
        <time>2020-08-18T08:58:29.885Z</time>
      </trkpt>
      <trkpt lat="36.476403" lon="-6.259459">
        <ele>42.797242</ele>
        <time>2020-08-18T08:58:32.883Z</time>
      </trkpt>
      <trkpt lat="36.476486" lon="-6.259509">
        <ele>42.806134</ele>
        <time>2020-08-18T08:58:35.865Z</time>
      </trkpt>
      <trkpt lat="36.476591" lon="-6.259575">
        <ele>42.817478</ele>
        <time>2020-08-18T08:58:39.883Z</time>
      </trkpt>
      <trkpt lat="36.476677" lon="-6.259624">
        <ele>42.826598</ele>
        <time>2020-08-18T08:58:42.889Z</time>
      </trkpt>
      <trkpt lat="36.476770" lon="-6.259679">
        <ele>42.836527</ele>
        <time>2020-08-18T08:58:45.883Z</time>
      </trkpt>
      <trkpt lat="36.476859" lon="-6.259736">
        <ele>42.846180</ele>
        <time>2020-08-18T08:58:48.888Z</time>
      </trkpt>
      <trkpt lat="36.476950" lon="-6.259788">
        <ele>42.855835</ele>
        <time>2020-08-18T08:58:51.908Z</time>
      </trkpt>
      <trkpt lat="36.477034" lon="-6.259844">
        <ele>42.865025</ele>
        <time>2020-08-18T08:58:54.904Z</time>
      </trkpt>
      <trkpt lat="36.477121" lon="-6.259897">
        <ele>42.874365</ele>
        <time>2020-08-18T08:58:57.879Z</time>
      </trkpt>
      <trkpt lat="36.477210" lon="-6.259942">
        <ele>42.883628</ele>
        <time>2020-08-18T08:59:00.889Z</time>
      </trkpt>
      <trkpt lat="36.477298" lon="-6.259982">
        <ele>42.892662</ele>
        <time>2020-08-18T08:59:03.870Z</time>
      </trkpt>
      <trkpt lat="36.477382" lon="-6.260031">
        <ele>42.901608</ele>
        <time>2020-08-18T08:59:06.875Z</time>
      </trkpt>
      <trkpt lat="36.477471" lon="-6.260064">
        <ele>42.910562</ele>
        <time>2020-08-18T08:59:09.888Z</time>
      </trkpt>
      <trkpt lat="36.477554" lon="-6.260116">
        <ele>42.919523</ele>
        <time>2020-08-18T08:59:12.892Z</time>
      </trkpt>
      <trkpt lat="36.477659" lon="-6.260178">
        <ele>42.930730</ele>
        <time>2020-08-18T08:59:16.881Z</time>
      </trkpt>
      <trkpt lat="36.477740" lon="-6.260247">
        <ele>42.940196</ele>
        <time>2020-08-18T08:59:19.903Z</time>
      </trkpt>
      <trkpt lat="36.477833" lon="-6.260307">
        <ele>42.921376</ele>
        <time>2020-08-18T08:59:23.902Z</time>
      </trkpt>
      <trkpt lat="36.477933" lon="-6.260351">
        <ele>42.733249</ele>
        <time>2020-08-18T08:59:28.855Z</time>
      </trkpt>
      <trkpt lat="36.478033" lon="-6.260390">
        <ele>42.547379</ele>
        <time>2020-08-18T08:59:32.900Z</time>
      </trkpt>
      <trkpt lat="36.478132" lon="-6.260442">
        <ele>42.356781</ele>
        <time>2020-08-18T08:59:37.875Z</time>
      </trkpt>
      <trkpt lat="36.478217" lon="-6.260506">
        <ele>42.180555</ele>
        <time>2020-08-18T08:59:42.881Z</time>
      </trkpt>
      <trkpt lat="36.478329" lon="-6.260540">
        <ele>41.976086</ele>
        <time>2020-08-18T08:59:46.872Z</time>
      </trkpt>
      <trkpt lat="36.478407" lon="-6.260604">
        <ele>41.810355</ele>
        <time>2020-08-18T08:59:49.884Z</time>
      </trkpt>
      <trkpt lat="36.478514" lon="-6.260670">
        <ele>41.598528</ele>
        <time>2020-08-18T08:59:53.892Z</time>
      </trkpt>
      <trkpt lat="36.478600" lon="-6.260720">
        <ele>41.430160</ele>
        <time>2020-08-18T08:59:56.879Z</time>
      </trkpt>
      <trkpt lat="36.478684" lon="-6.260768">
        <ele>41.266209</ele>
        <time>2020-08-18T08:59:59.863Z</time>
      </trkpt>
      <trkpt lat="36.478782" lon="-6.260826">
        <ele>41.073726</ele>
        <time>2020-08-18T09:00:03.901Z</time>
      </trkpt>
      <trkpt lat="36.478868" lon="-6.260868">
        <ele>40.909863</ele>
        <time>2020-08-18T09:00:06.889Z</time>
      </trkpt>
      <trkpt lat="36.478974" lon="-6.260922">
        <ele>40.706707</ele>
        <time>2020-08-18T09:00:10.880Z</time>
      </trkpt>
      <trkpt lat="36.479064" lon="-6.260962">
        <ele>40.537202</ele>
        <time>2020-08-18T09:00:13.880Z</time>
      </trkpt>
      <trkpt lat="36.479151" lon="-6.260998">
        <ele>40.374588</ele>
        <time>2020-08-18T09:00:16.884Z</time>
      </trkpt>
      <trkpt lat="36.479249" lon="-6.261057">
        <ele>40.181487</ele>
        <time>2020-08-18T09:00:20.883Z</time>
      </trkpt>
      <trkpt lat="36.479354" lon="-6.261100">
        <ele>39.985429</ele>
        <time>2020-08-18T09:00:24.879Z</time>
      </trkpt>
      <trkpt lat="36.479456" lon="-6.261154">
        <ele>39.788820</ele>
        <time>2020-08-18T09:00:28.870Z</time>
      </trkpt>
      <trkpt lat="36.479557" lon="-6.261223">
        <ele>39.753001</ele>
        <time>2020-08-18T09:00:32.884Z</time>
      </trkpt>
      <trkpt lat="36.479653" lon="-6.261291">
        <ele>39.746439</ele>
        <time>2020-08-18T09:00:36.900Z</time>
      </trkpt>
      <trkpt lat="36.479751" lon="-6.261357">
        <ele>39.739820</ele>
        <time>2020-08-18T09:00:40.854Z</time>
      </trkpt>
      <trkpt lat="36.479859" lon="-6.261420">
        <ele>39.732734</ele>
        <time>2020-08-18T09:00:44.887Z</time>
      </trkpt>
      <trkpt lat="36.479942" lon="-6.261467">
        <ele>39.727317</ele>
        <time>2020-08-18T09:00:47.885Z</time>
      </trkpt>
      <trkpt lat="36.480026" lon="-6.261507">
        <ele>39.721975</ele>
        <time>2020-08-18T09:00:50.883Z</time>
      </trkpt>
      <trkpt lat="36.480118" lon="-6.261556">
        <ele>39.716030</ele>
        <time>2020-08-18T09:00:54.884Z</time>
      </trkpt>
      <trkpt lat="36.480216" lon="-6.261628">
        <ele>39.709269</ele>
        <time>2020-08-18T09:00:58.889Z</time>
      </trkpt>
      <trkpt lat="36.480302" lon="-6.261682">
        <ele>39.703547</ele>
        <time>2020-08-18T09:01:01.881Z</time>
      </trkpt>
      <trkpt lat="36.480392" lon="-6.261733">
        <ele>39.697672</ele>
        <time>2020-08-18T09:01:04.882Z</time>
      </trkpt>
      <trkpt lat="36.480488" lon="-6.261773">
        <ele>39.691659</ele>
        <time>2020-08-18T09:01:07.889Z</time>
      </trkpt>
      <trkpt lat="36.480564" lon="-6.261833">
        <ele>39.686312</ele>
        <time>2020-08-18T09:01:10.869Z</time>
      </trkpt>
      <trkpt lat="36.480652" lon="-6.261893">
        <ele>39.680351</ele>
        <time>2020-08-18T09:01:13.872Z</time>
      </trkpt>
      <trkpt lat="36.480737" lon="-6.261944">
        <ele>39.674745</ele>
        <time>2020-08-18T09:01:16.889Z</time>
      </trkpt>
      <trkpt lat="36.480823" lon="-6.261990">
        <ele>39.669185</ele>
        <time>2020-08-18T09:01:19.903Z</time>
      </trkpt>
      <trkpt lat="36.480909" lon="-6.262038">
        <ele>39.663586</ele>
        <time>2020-08-18T09:01:22.853Z</time>
      </trkpt>
      <trkpt lat="36.481004" lon="-6.262097">
        <ele>39.657278</ele>
        <time>2020-08-18T09:01:25.900Z</time>
      </trkpt>
      <trkpt lat="36.481097" lon="-6.262151">
        <ele>39.672036</ele>
        <time>2020-08-18T09:01:28.899Z</time>
      </trkpt>
      <trkpt lat="36.481188" lon="-6.262203">
        <ele>39.816437</ele>
        <time>2020-08-18T09:01:31.885Z</time>
      </trkpt>
      <trkpt lat="36.481274" lon="-6.262255">
        <ele>39.954320</ele>
        <time>2020-08-18T09:01:34.900Z</time>
      </trkpt>
      <trkpt lat="36.481360" lon="-6.262309">
        <ele>40.093233</ele>
        <time>2020-08-18T09:01:37.887Z</time>
      </trkpt>
      <trkpt lat="36.481455" lon="-6.262362">
        <ele>40.243366</ele>
        <time>2020-08-18T09:01:40.868Z</time>
      </trkpt>
      <trkpt lat="36.481543" lon="-6.262414">
        <ele>40.383848</ele>
        <time>2020-08-18T09:01:43.896Z</time>
      </trkpt>
      <trkpt lat="36.481629" lon="-6.262462">
        <ele>40.519767</ele>
        <time>2020-08-18T09:01:46.885Z</time>
      </trkpt>
      <trkpt lat="36.481720" lon="-6.262516">
        <ele>40.665152</ele>
        <time>2020-08-18T09:01:49.885Z</time>
      </trkpt>
      <trkpt lat="36.481805" lon="-6.262573">
        <ele>40.804396</ele>
        <time>2020-08-18T09:01:52.890Z</time>
      </trkpt>
      <trkpt lat="36.481892" lon="-6.262628">
        <ele>40.945118</ele>
        <time>2020-08-18T09:01:55.870Z</time>
      </trkpt>
      <trkpt lat="36.481981" lon="-6.262678">
        <ele>41.085934</ele>
        <time>2020-08-18T09:01:58.875Z</time>
      </trkpt>
      <trkpt lat="36.482072" lon="-6.262738">
        <ele>41.234447</ele>
        <time>2020-08-18T09:02:01.879Z</time>
      </trkpt>
      <trkpt lat="36.482169" lon="-6.262796">
        <ele>41.389637</ele>
        <time>2020-08-18T09:02:04.878Z</time>
      </trkpt>
      <trkpt lat="36.482262" lon="-6.262850">
        <ele>41.537630</ele>
        <time>2020-08-18T09:02:07.881Z</time>
      </trkpt>
      <trkpt lat="36.482357" lon="-6.262904">
        <ele>41.688240</ele>
        <time>2020-08-18T09:02:10.875Z</time>
      </trkpt>
      <trkpt lat="36.482455" lon="-6.262964">
        <ele>41.845742</ele>
        <time>2020-08-18T09:02:13.888Z</time>
      </trkpt>
      <trkpt lat="36.482545" lon="-6.263014">
        <ele>41.987872</ele>
        <time>2020-08-18T09:02:16.878Z</time>
      </trkpt>
      <trkpt lat="36.482641" lon="-6.263050">
        <ele>42.132452</ele>
        <time>2020-08-18T09:02:19.873Z</time>
      </trkpt>
      <trkpt lat="36.482732" lon="-6.263101">
        <ele>42.300355</ele>
        <time>2020-08-18T09:02:23.893Z</time>
      </trkpt>
      <trkpt lat="36.482837" lon="-6.263153">
        <ele>42.589909</ele>
        <time>2020-08-18T09:02:27.870Z</time>
      </trkpt>
      <trkpt lat="36.482941" lon="-6.263211">
        <ele>42.881921</ele>
        <time>2020-08-18T09:02:31.882Z</time>
      </trkpt>
      <trkpt lat="36.483025" lon="-6.263256">
        <ele>43.116246</ele>
        <time>2020-08-18T09:02:34.871Z</time>
      </trkpt>
      <trkpt lat="36.483114" lon="-6.263307">
        <ele>43.367304</ele>
        <time>2020-08-18T09:02:37.882Z</time>
      </trkpt>
      <trkpt lat="36.483200" lon="-6.263355">
        <ele>43.608807</ele>
        <time>2020-08-18T09:02:40.862Z</time>
      </trkpt>
      <trkpt lat="36.483284" lon="-6.263404">
        <ele>43.846512</ele>
        <time>2020-08-18T09:02:43.883Z</time>
      </trkpt>
      <trkpt lat="36.483394" lon="-6.263452">
        <ele>44.145177</ele>
        <time>2020-08-18T09:02:47.868Z</time>
      </trkpt>
      <trkpt lat="36.483498" lon="-6.263490">
        <ele>44.422887</ele>
        <time>2020-08-18T09:02:51.883Z</time>
      </trkpt>
      <trkpt lat="36.483602" lon="-6.263553">
        <ele>44.719262</ele>
        <time>2020-08-18T09:02:55.896Z</time>
      </trkpt>
      <trkpt lat="36.483679" lon="-6.263613">
        <ele>44.952057</ele>
        <time>2020-08-18T09:02:58.874Z</time>
      </trkpt>
      <trkpt lat="36.483765" lon="-6.263673">
        <ele>45.204689</ele>
        <time>2020-08-18T09:03:01.903Z</time>
      </trkpt>
      <trkpt lat="36.483872" lon="-6.263734">
        <ele>45.506252</ele>
        <time>2020-08-18T09:03:05.884Z</time>
      </trkpt>
      <trkpt lat="36.483982" lon="-6.263792">
        <ele>45.812354</ele>
        <time>2020-08-18T09:03:09.880Z</time>
      </trkpt>
      <trkpt lat="36.484091" lon="-6.263841">
        <ele>46.109296</ele>
        <time>2020-08-18T09:03:13.856Z</time>
      </trkpt>
      <trkpt lat="36.484177" lon="-6.263904">
        <ele>46.365008</ele>
        <time>2020-08-18T09:03:17.894Z</time>
      </trkpt>
      <trkpt lat="36.484275" lon="-6.263970">
        <ele>46.650532</ele>
        <time>2020-08-18T09:03:23.873Z</time>
      </trkpt>
      <trkpt lat="36.484374" lon="-6.263990">
        <ele>46.858766</ele>
        <time>2020-08-18T09:03:27.889Z</time>
      </trkpt>
      <trkpt lat="36.484467" lon="-6.264037">
        <ele>46.883140</ele>
        <time>2020-08-18T09:03:31.894Z</time>
      </trkpt>
      <trkpt lat="36.484555" lon="-6.264096">
        <ele>46.907413</ele>
        <time>2020-08-18T09:03:35.885Z</time>
      </trkpt>
      <trkpt lat="36.484647" lon="-6.264151">
        <ele>46.932197</ele>
        <time>2020-08-18T09:03:39.876Z</time>
      </trkpt>
      <trkpt lat="36.484742" lon="-6.264204">
        <ele>46.957478</ele>
        <time>2020-08-18T09:03:43.884Z</time>
      </trkpt>
      <trkpt lat="36.484839" lon="-6.264264">
        <ele>46.983781</ele>
        <time>2020-08-18T09:03:47.866Z</time>
      </trkpt>
      <trkpt lat="36.484949" lon="-6.264315">
        <ele>47.012285</ele>
        <time>2020-08-18T09:03:51.880Z</time>
      </trkpt>
      <trkpt lat="36.485043" lon="-6.264372">
        <ele>47.037676</ele>
        <time>2020-08-18T09:03:55.870Z</time>
      </trkpt>
      <trkpt lat="36.485124" lon="-6.264426">
        <ele>47.059990</ele>
        <time>2020-08-18T09:03:58.874Z</time>
      </trkpt>
      <trkpt lat="36.485222" lon="-6.264503">
        <ele>47.088135</ele>
        <time>2020-08-18T09:04:02.894Z</time>
      </trkpt>
      <trkpt lat="36.485333" lon="-6.264565">
        <ele>47.117679</ele>
        <time>2020-08-18T09:04:06.883Z</time>
      </trkpt>
      <trkpt lat="36.485421" lon="-6.264610">
        <ele>47.140781</ele>
        <time>2020-08-18T09:04:09.906Z</time>
      </trkpt>
      <trkpt lat="36.485508" lon="-6.264652">
        <ele>47.163440</ele>
        <time>2020-08-18T09:04:12.890Z</time>
      </trkpt>
      <trkpt lat="36.485587" lon="-6.264705">
        <ele>47.185234</ele>
        <time>2020-08-18T09:04:15.889Z</time>
      </trkpt>
      <trkpt lat="36.485696" lon="-6.264761">
        <ele>47.213868</ele>
        <time>2020-08-18T09:04:19.902Z</time>
      </trkpt>
      <trkpt lat="36.485785" lon="-6.264808">
        <ele>47.237345</ele>
        <time>2020-08-18T09:04:22.892Z</time>
      </trkpt>
      <trkpt lat="36.485878" lon="-6.264858">
        <ele>47.261945</ele>
        <time>2020-08-18T09:04:25.888Z</time>
      </trkpt>
      <trkpt lat="36.485970" lon="-6.264908">
        <ele>47.286322</ele>
        <time>2020-08-18T09:04:28.884Z</time>
      </trkpt>
      <trkpt lat="36.486058" lon="-6.264978">
        <ele>47.243444</ele>
        <time>2020-08-18T09:04:31.897Z</time>
      </trkpt>
      <trkpt lat="36.486143" lon="-6.265036">
        <ele>47.191587</ele>
        <time>2020-08-18T09:04:34.890Z</time>
      </trkpt>
      <trkpt lat="36.486229" lon="-6.265089">
        <ele>47.140251</ele>
        <time>2020-08-18T09:04:37.878Z</time>
      </trkpt>
      <trkpt lat="36.486315" lon="-6.265126">
        <ele>47.091578</ele>
        <time>2020-08-18T09:04:40.889Z</time>
      </trkpt>
      <trkpt lat="36.486417" lon="-6.265191">
        <ele>47.030277</ele>
        <time>2020-08-18T09:04:44.893Z</time>
      </trkpt>
      <trkpt lat="36.486505" lon="-6.265231">
        <ele>46.980164</ele>
        <time>2020-08-18T09:04:47.894Z</time>
      </trkpt>
      <trkpt lat="36.486599" lon="-6.265266">
        <ele>46.927681</ele>
        <time>2020-08-18T09:04:50.877Z</time>
      </trkpt>
      <trkpt lat="36.486683" lon="-6.265311">
        <ele>46.878762</ele>
        <time>2020-08-18T09:04:53.875Z</time>
      </trkpt>
      <trkpt lat="36.486769" lon="-6.265375">
        <ele>46.825158</ele>
        <time>2020-08-18T09:04:56.884Z</time>
      </trkpt>
      <trkpt lat="36.486871" lon="-6.265407">
        <ele>46.768892</ele>
        <time>2020-08-18T09:04:59.878Z</time>
      </trkpt>
      <trkpt lat="36.486958" lon="-6.265458">
        <ele>46.717449</ele>
        <time>2020-08-18T09:05:02.877Z</time>
      </trkpt>
      <trkpt lat="36.487044" lon="-6.265516">
        <ele>46.665123</ele>
        <time>2020-08-18T09:05:05.893Z</time>
      </trkpt>
      <trkpt lat="36.487124" lon="-6.265573">
        <ele>46.615810</ele>
        <time>2020-08-18T09:05:08.882Z</time>
      </trkpt>
      <trkpt lat="36.487211" lon="-6.265617">
        <ele>46.565576</ele>
        <time>2020-08-18T09:05:11.874Z</time>
      </trkpt>
      <trkpt lat="36.487297" lon="-6.265664">
        <ele>46.515333</ele>
        <time>2020-08-18T09:05:14.890Z</time>
      </trkpt>
      <trkpt lat="36.487368" lon="-6.265742">
        <ele>46.464665</ele>
        <time>2020-08-18T09:05:17.879Z</time>
      </trkpt>
      <trkpt lat="36.487446" lon="-6.265800">
        <ele>46.416058</ele>
        <time>2020-08-18T09:05:20.856Z</time>
      </trkpt>
      <trkpt lat="36.487551" lon="-6.265865">
        <ele>46.353325</ele>
        <time>2020-08-18T09:05:24.878Z</time>
      </trkpt>
      <trkpt lat="36.487646" lon="-6.265902">
        <ele>46.330914</ele>
        <time>2020-08-18T09:05:27.891Z</time>
      </trkpt>
      <trkpt lat="36.487733" lon="-6.265945">
        <ele>46.335484</ele>
        <time>2020-08-18T09:05:30.883Z</time>
      </trkpt>
      <trkpt lat="36.487838" lon="-6.266012">
        <ele>46.341245</ele>
        <time>2020-08-18T09:05:34.882Z</time>
      </trkpt>
      <trkpt lat="36.487921" lon="-6.266057">
        <ele>46.345665</ele>
        <time>2020-08-18T09:05:37.882Z</time>
      </trkpt>
      <trkpt lat="36.488006" lon="-6.266109">
        <ele>46.350289</ele>
        <time>2020-08-18T09:05:40.860Z</time>
      </trkpt>
      <trkpt lat="36.488102" lon="-6.266168">
        <ele>46.355516</ele>
        <time>2020-08-18T09:05:43.852Z</time>
      </trkpt>
      <trkpt lat="36.488203" lon="-6.266208">
        <ele>46.360691</ele>
        <time>2020-08-18T09:05:46.888Z</time>
      </trkpt>
      <trkpt lat="36.488292" lon="-6.266259">
        <ele>46.365474</ele>
        <time>2020-08-18T09:05:49.879Z</time>
      </trkpt>
      <trkpt lat="36.488378" lon="-6.266301">
        <ele>46.369985</ele>
        <time>2020-08-18T09:05:52.891Z</time>
      </trkpt>
      <trkpt lat="36.488475" lon="-6.266340">
        <ele>46.374961</ele>
        <time>2020-08-18T09:05:55.879Z</time>
      </trkpt>
      <trkpt lat="36.488563" lon="-6.266379">
        <ele>46.379522</ele>
        <time>2020-08-18T09:05:58.889Z</time>
      </trkpt>
      <trkpt lat="36.488650" lon="-6.266419">
        <ele>46.384050</ele>
        <time>2020-08-18T09:06:01.867Z</time>
      </trkpt>
      <trkpt lat="36.488741" lon="-6.266466">
        <ele>46.388860</ele>
        <time>2020-08-18T09:06:04.904Z</time>
      </trkpt>
      <trkpt lat="36.488833" lon="-6.266519">
        <ele>46.393809</ele>
        <time>2020-08-18T09:06:07.892Z</time>
      </trkpt>
      <trkpt lat="36.488924" lon="-6.266569">
        <ele>46.398666</ele>
        <time>2020-08-18T09:06:10.886Z</time>
      </trkpt>
      <trkpt lat="36.489019" lon="-6.266620">
        <ele>46.403717</ele>
        <time>2020-08-18T09:06:13.893Z</time>
      </trkpt>
      <trkpt lat="36.489113" lon="-6.266663">
        <ele>46.408606</ele>
        <time>2020-08-18T09:06:16.873Z</time>
      </trkpt>
      <trkpt lat="36.489206" lon="-6.266697">
        <ele>46.413338</ele>
        <time>2020-08-18T09:06:19.894Z</time>
      </trkpt>
      <trkpt lat="36.489298" lon="-6.266738">
        <ele>46.404448</ele>
        <time>2020-08-18T09:06:22.890Z</time>
      </trkpt>
      <trkpt lat="36.489389" lon="-6.266786">
        <ele>46.375806</ele>
        <time>2020-08-18T09:06:25.887Z</time>
      </trkpt>
      <trkpt lat="36.489484" lon="-6.266822">
        <ele>46.347028</ele>
        <time>2020-08-18T09:06:28.881Z</time>
      </trkpt>
      <trkpt lat="36.489585" lon="-6.266852">
        <ele>46.316938</ele>
        <time>2020-08-18T09:06:31.861Z</time>
      </trkpt>
      <trkpt lat="36.489688" lon="-6.266889">
        <ele>46.285872</ele>
        <time>2020-08-18T09:06:34.852Z</time>
      </trkpt>
      <trkpt lat="36.489784" lon="-6.266919">
        <ele>46.257189</ele>
        <time>2020-08-18T09:06:37.875Z</time>
      </trkpt>
      <trkpt lat="36.489876" lon="-6.266949">
        <ele>46.229629</ele>
        <time>2020-08-18T09:06:40.886Z</time>
      </trkpt>
      <trkpt lat="36.489970" lon="-6.266978">
        <ele>46.201566</ele>
        <time>2020-08-18T09:06:43.860Z</time>
      </trkpt>
      <trkpt lat="36.490069" lon="-6.267006">
        <ele>46.172146</ele>
        <time>2020-08-18T09:06:46.854Z</time>
      </trkpt>
      <trkpt lat="36.490166" lon="-6.267036">
        <ele>46.143182</ele>
        <time>2020-08-18T09:06:49.884Z</time>
      </trkpt>
      <trkpt lat="36.490261" lon="-6.267056">
        <ele>46.115262</ele>
        <time>2020-08-18T09:06:52.857Z</time>
      </trkpt>
      <trkpt lat="36.490373" lon="-6.267074">
        <ele>46.082538</ele>
        <time>2020-08-18T09:06:56.880Z</time>
      </trkpt>
      <trkpt lat="36.490479" lon="-6.267102">
        <ele>46.051137</ele>
        <time>2020-08-18T09:07:00.862Z</time>
      </trkpt>
      <trkpt lat="36.490584" lon="-6.267139">
        <ele>46.019514</ele>
        <time>2020-08-18T09:07:04.863Z</time>
      </trkpt>
      <trkpt lat="36.490689" lon="-6.267170">
        <ele>45.988242</ele>
        <time>2020-08-18T09:07:08.856Z</time>
      </trkpt>
      <trkpt lat="36.490786" lon="-6.267193">
        <ele>45.959628</ele>
        <time>2020-08-18T09:07:11.862Z</time>
      </trkpt>
      <trkpt lat="36.490877" lon="-6.267208">
        <ele>45.933028</ele>
        <time>2020-08-18T09:07:14.857Z</time>
      </trkpt>
      <trkpt lat="36.490971" lon="-6.267220">
        <ele>45.905647</ele>
        <time>2020-08-18T09:07:17.869Z</time>
      </trkpt>
      <trkpt lat="36.491072" lon="-6.267245">
        <ele>45.865671</ele>
        <time>2020-08-18T09:07:20.860Z</time>
      </trkpt>
      <trkpt lat="36.491165" lon="-6.267253">
        <ele>45.824351</ele>
        <time>2020-08-18T09:07:23.876Z</time>
      </trkpt>
      <trkpt lat="36.491260" lon="-6.267273">
        <ele>45.781645</ele>
        <time>2020-08-18T09:07:26.872Z</time>
      </trkpt>
      <trkpt lat="36.491357" lon="-6.267275">
        <ele>45.738645</ele>
        <time>2020-08-18T09:07:29.879Z</time>
      </trkpt>
      <trkpt lat="36.491454" lon="-6.267287">
        <ele>45.695439</ele>
        <time>2020-08-18T09:07:32.879Z</time>
      </trkpt>
      <trkpt lat="36.491543" lon="-6.267310">
        <ele>45.655148</ele>
        <time>2020-08-18T09:07:35.873Z</time>
      </trkpt>
      <trkpt lat="36.491636" lon="-6.267307">
        <ele>45.613913</ele>
        <time>2020-08-18T09:07:38.881Z</time>
      </trkpt>
      <trkpt lat="36.491727" lon="-6.267277">
        <ele>45.572186</ele>
        <time>2020-08-18T09:07:41.865Z</time>
      </trkpt>
      <trkpt lat="36.491819" lon="-6.267278">
        <ele>45.531407</ele>
        <time>2020-08-18T09:07:44.883Z</time>
      </trkpt>
      <trkpt lat="36.491918" lon="-6.267305">
        <ele>45.486484</ele>
        <time>2020-08-18T09:07:47.864Z</time>
      </trkpt>
      <trkpt lat="36.492015" lon="-6.267316">
        <ele>45.443312</ele>
        <time>2020-08-18T09:07:50.899Z</time>
      </trkpt>
      <trkpt lat="36.492118" lon="-6.267324">
        <ele>45.397569</ele>
        <time>2020-08-18T09:07:53.876Z</time>
      </trkpt>
      <trkpt lat="36.492222" lon="-6.267333">
        <ele>45.351361</ele>
        <time>2020-08-18T09:07:56.864Z</time>
      </trkpt>
      <trkpt lat="36.492326" lon="-6.267351">
        <ele>45.304820</ele>
        <time>2020-08-18T09:07:59.869Z</time>
      </trkpt>
      <trkpt lat="36.492430" lon="-6.267369">
        <ele>45.258280</ele>
        <time>2020-08-18T09:08:02.885Z</time>
      </trkpt>
      <trkpt lat="36.492530" lon="-6.267395">
        <ele>45.212998</ele>
        <time>2020-08-18T09:08:05.863Z</time>
      </trkpt>
      <trkpt lat="36.492634" lon="-6.267409">
        <ele>45.166632</ele>
        <time>2020-08-18T09:08:08.891Z</time>
      </trkpt>
      <trkpt lat="36.492724" lon="-6.267430">
        <ele>45.126045</ele>
        <time>2020-08-18T09:08:11.881Z</time>
      </trkpt>
      <trkpt lat="36.492832" lon="-6.267449">
        <ele>45.254437</ele>
        <time>2020-08-18T09:08:15.861Z</time>
      </trkpt>
      <trkpt lat="36.492929" lon="-6.267449">
        <ele>45.591037</ele>
        <time>2020-08-18T09:08:18.861Z</time>
      </trkpt>
      <trkpt lat="36.493028" lon="-6.267473">
        <ele>45.941042</ele>
        <time>2020-08-18T09:08:21.881Z</time>
      </trkpt>
      <trkpt lat="36.493126" lon="-6.267492">
        <ele>46.285219</ele>
        <time>2020-08-18T09:08:24.882Z</time>
      </trkpt>
      <trkpt lat="36.493241" lon="-6.267510">
        <ele>46.687428</ele>
        <time>2020-08-18T09:08:28.889Z</time>
      </trkpt>
      <trkpt lat="36.493334" lon="-6.267536">
        <ele>47.018199</ele>
        <time>2020-08-18T09:08:31.879Z</time>
      </trkpt>
      <trkpt lat="36.493433" lon="-6.267567">
        <ele>47.372458</ele>
        <time>2020-08-18T09:08:34.892Z</time>
      </trkpt>
      <trkpt lat="36.493539" lon="-6.267598">
        <ele>47.750319</ele>
        <time>2020-08-18T09:08:37.886Z</time>
      </trkpt>
      <trkpt lat="36.493652" lon="-6.267637">
        <ele>48.157255</ele>
        <time>2020-08-18T09:08:40.887Z</time>
      </trkpt>
      <trkpt lat="36.493759" lon="-6.267672">
        <ele>48.541180</ele>
        <time>2020-08-18T09:08:43.893Z</time>
      </trkpt>
      <trkpt lat="36.493864" lon="-6.267692">
        <ele>48.909789</ele>
        <time>2020-08-18T09:08:46.888Z</time>
      </trkpt>
      <trkpt lat="36.493965" lon="-6.267703">
        <ele>49.261611</ele>
        <time>2020-08-18T09:08:49.850Z</time>
      </trkpt>
      <trkpt lat="36.494064" lon="-6.267741">
        <ele>49.621135</ele>
        <time>2020-08-18T09:08:52.865Z</time>
      </trkpt>
      <trkpt lat="36.494168" lon="-6.267796">
        <ele>50.013289</ele>
        <time>2020-08-18T09:08:55.863Z</time>
      </trkpt>
      <trkpt lat="36.494286" lon="-6.267793">
        <ele>50.422847</ele>
        <time>2020-08-18T09:08:59.883Z</time>
      </trkpt>
      <trkpt lat="36.494373" lon="-6.267753">
        <ele>50.744709</ele>
        <time>2020-08-18T09:09:03.883Z</time>
      </trkpt>
      <trkpt lat="36.494419" lon="-6.267628">
        <ele>51.128217</ele>
        <time>2020-08-18T09:09:08.873Z</time>
      </trkpt>
      <trkpt lat="36.494425" lon="-6.267505">
        <ele>51.361523</ele>
        <time>2020-08-18T09:09:13.871Z</time>
      </trkpt>
      <trkpt lat="36.494526" lon="-6.267480">
        <ele>51.421590</ele>
        <time>2020-08-18T09:09:31.888Z</time>
      </trkpt>
      <trkpt lat="36.494616" lon="-6.267557">
        <ele>51.485303</ele>
        <time>2020-08-18T09:09:36.888Z</time>
      </trkpt>
      <trkpt lat="36.494638" lon="-6.267679">
        <ele>51.543931</ele>
        <time>2020-08-18T09:09:40.862Z</time>
      </trkpt>
      <trkpt lat="36.494678" lon="-6.267797">
        <ele>51.603980</ele>
        <time>2020-08-18T09:09:44.884Z</time>
      </trkpt>
      <trkpt lat="36.494745" lon="-6.267911">
        <ele>51.670197</ele>
        <time>2020-08-18T09:09:48.866Z</time>
      </trkpt>
      <trkpt lat="36.494818" lon="-6.267992">
        <ele>51.727254</ele>
        <time>2020-08-18T09:09:51.860Z</time>
      </trkpt>
      <trkpt lat="36.494914" lon="-6.268066">
        <ele>51.793129</ele>
        <time>2020-08-18T09:09:55.882Z</time>
      </trkpt>
      <trkpt lat="36.495000" lon="-6.268111">
        <ele>51.847548</ele>
        <time>2020-08-18T09:09:58.863Z</time>
      </trkpt>
      <trkpt lat="36.495144" lon="-6.268167">
        <ele>51.935549</ele>
        <time>2020-08-18T09:10:03.881Z</time>
      </trkpt>
      <trkpt lat="36.495212" lon="-6.268036">
        <ele>52.008668</ele>
        <time>2020-08-18T09:10:07.859Z</time>
      </trkpt>
      <trkpt lat="36.495227" lon="-6.267894">
        <ele>52.075824</ele>
        <time>2020-08-18T09:10:10.867Z</time>
      </trkpt>
      <trkpt lat="36.495221" lon="-6.267751">
        <ele>52.142969</ele>
        <time>2020-08-18T09:10:13.861Z</time>
      </trkpt>
      <trkpt lat="36.495204" lon="-6.267603">
        <ele>52.213071</ele>
        <time>2020-08-18T09:10:16.872Z</time>
      </trkpt>
      <trkpt lat="36.495166" lon="-6.267462">
        <ele>52.282803</ele>
        <time>2020-08-18T09:10:19.868Z</time>
      </trkpt>
      <trkpt lat="36.495175" lon="-6.267338">
        <ele>52.341183</ele>
        <time>2020-08-18T09:10:21.869Z</time>
      </trkpt>
      <trkpt lat="36.495158" lon="-6.267165">
        <ele>52.249538</ele>
        <time>2020-08-18T09:10:24.891Z</time>
      </trkpt>
      <trkpt lat="36.495145" lon="-6.267050">
        <ele>52.031051</ele>
        <time>2020-08-18T09:10:26.875Z</time>
      </trkpt>
      <trkpt lat="36.495125" lon="-6.266925">
        <ele>51.791267</ele>
        <time>2020-08-18T09:10:28.885Z</time>
      </trkpt>
      <trkpt lat="36.495075" lon="-6.266827">
        <ele>51.572894</ele>
        <time>2020-08-18T09:10:31.875Z</time>
      </trkpt>
      <trkpt lat="36.495121" lon="-6.266702">
        <ele>51.314254</ele>
        <time>2020-08-18T09:10:34.876Z</time>
      </trkpt>
      <trkpt lat="36.495172" lon="-6.266581">
        <ele>51.057216</ele>
        <time>2020-08-18T09:10:37.877Z</time>
      </trkpt>
      <trkpt lat="36.495187" lon="-6.266442">
        <ele>50.793359</ele>
        <time>2020-08-18T09:10:40.890Z</time>
      </trkpt>
      <trkpt lat="36.495211" lon="-6.266288">
        <ele>50.498234</ele>
        <time>2020-08-18T09:10:43.872Z</time>
      </trkpt>
      <trkpt lat="36.495225" lon="-6.266143">
        <ele>50.223474</ele>
        <time>2020-08-18T09:10:46.876Z</time>
      </trkpt>
      <trkpt lat="36.495636" lon="-6.266222">
        <ele>49.250201</ele>
        <time>2020-08-18T09:11:20.874Z</time>
      </trkpt>
      <trkpt lat="36.495824" lon="-6.266300">
        <ele>48.786400</ele>
        <time>2020-08-18T09:11:22.884Z</time>
      </trkpt>
      <trkpt lat="36.495934" lon="-6.266319">
        <ele>48.526498</ele>
        <time>2020-08-18T09:11:23.870Z</time>
      </trkpt>
      <trkpt lat="36.496055" lon="-6.266371">
        <ele>48.226900</ele>
        <time>2020-08-18T09:11:25.868Z</time>
      </trkpt>
      <trkpt lat="36.496150" lon="-6.266451">
        <ele>48.122007</ele>
        <time>2020-08-18T09:11:27.869Z</time>
      </trkpt>
      <trkpt lat="36.496256" lon="-6.266519">
        <ele>48.049914</ele>
        <time>2020-08-18T09:11:29.863Z</time>
      </trkpt>
      <trkpt lat="36.496382" lon="-6.266573">
        <ele>47.969355</ele>
        <time>2020-08-18T09:11:31.882Z</time>
      </trkpt>
      <trkpt lat="36.496489" lon="-6.266592">
        <ele>47.904020</ele>
        <time>2020-08-18T09:11:33.887Z</time>
      </trkpt>
      <trkpt lat="36.496600" lon="-6.266689">
        <ele>47.822021</ele>
        <time>2020-08-18T09:11:35.894Z</time>
      </trkpt>
      <trkpt lat="36.496721" lon="-6.266762">
        <ele>47.740731</ele>
        <time>2020-08-18T09:11:37.872Z</time>
      </trkpt>
      <trkpt lat="36.496820" lon="-6.266807">
        <ele>47.677017</ele>
        <time>2020-08-18T09:11:39.872Z</time>
      </trkpt>
      <trkpt lat="36.496917" lon="-6.266840">
        <ele>47.616229</ele>
        <time>2020-08-18T09:11:41.872Z</time>
      </trkpt>
      <trkpt lat="36.497024" lon="-6.266873">
        <ele>47.549592</ele>
        <time>2020-08-18T09:11:43.873Z</time>
      </trkpt>
      <trkpt lat="36.497135" lon="-6.266929">
        <ele>47.477186</ele>
        <time>2020-08-18T09:11:46.869Z</time>
      </trkpt>
      <trkpt lat="36.497222" lon="-6.266967">
        <ele>47.421449</ele>
        <time>2020-08-18T09:11:51.866Z</time>
      </trkpt>
      <trkpt lat="36.497319" lon="-6.267031">
        <ele>47.355077</ele>
        <time>2020-08-18T09:12:19.888Z</time>
      </trkpt>
      <trkpt lat="36.497415" lon="-6.267004">
        <ele>47.295582</ele>
        <time>2020-08-18T09:12:22.890Z</time>
      </trkpt>
      <trkpt lat="36.497540" lon="-6.267019">
        <ele>47.219671</ele>
        <time>2020-08-18T09:12:25.867Z</time>
      </trkpt>
      <trkpt lat="36.497853" lon="-6.267124">
        <ele>47.044446</ele>
        <time>2020-08-18T09:12:27.899Z</time>
      </trkpt>
      <trkpt lat="36.497989" lon="-6.267199">
        <ele>46.981934</ele>
        <time>2020-08-18T09:12:29.864Z</time>
      </trkpt>
      <trkpt lat="36.498101" lon="-6.267241">
        <ele>46.932779</ele>
        <time>2020-08-18T09:12:31.891Z</time>
      </trkpt>
      <trkpt lat="36.498188" lon="-6.267301">
        <ele>46.890979</ele>
        <time>2020-08-18T09:12:33.881Z</time>
      </trkpt>
      <trkpt lat="36.498303" lon="-6.267315">
        <ele>46.842424</ele>
        <time>2020-08-18T09:12:35.899Z</time>
      </trkpt>
      <trkpt lat="36.498408" lon="-6.267348">
        <ele>46.796916</ele>
        <time>2020-08-18T09:12:37.882Z</time>
      </trkpt>
      <trkpt lat="36.498515" lon="-6.267406">
        <ele>46.747871</ele>
        <time>2020-08-18T09:12:39.864Z</time>
      </trkpt>
      <trkpt lat="36.498637" lon="-6.267475">
        <ele>46.691556</ele>
        <time>2020-08-18T09:12:42.888Z</time>
      </trkpt>
      <trkpt lat="36.498734" lon="-6.267507">
        <ele>46.649387</ele>
        <time>2020-08-18T09:12:44.884Z</time>
      </trkpt>
      <trkpt lat="36.498838" lon="-6.267515">
        <ele>46.605602</ele>
        <time>2020-08-18T09:12:46.895Z</time>
      </trkpt>
      <trkpt lat="36.498917" lon="-6.267574">
        <ele>46.566883</ele>
        <time>2020-08-18T09:12:48.902Z</time>
      </trkpt>
      <trkpt lat="36.499019" lon="-6.267629">
        <ele>46.520169</ele>
        <time>2020-08-18T09:12:50.896Z</time>
      </trkpt>
      <trkpt lat="36.499158" lon="-6.267668">
        <ele>46.460293</ele>
        <time>2020-08-18T09:12:53.904Z</time>
      </trkpt>
      <trkpt lat="36.499263" lon="-6.267712">
        <ele>46.413735</ele>
        <time>2020-08-18T09:12:55.874Z</time>
      </trkpt>
      <trkpt lat="36.499392" lon="-6.267752">
        <ele>46.357870</ele>
        <time>2020-08-18T09:12:58.856Z</time>
      </trkpt>
      <trkpt lat="36.499482" lon="-6.267812">
        <ele>46.379426</ele>
        <time>2020-08-18T09:13:00.870Z</time>
      </trkpt>
      <trkpt lat="36.499565" lon="-6.267856">
        <ele>46.458075</ele>
        <time>2020-08-18T09:13:02.882Z</time>
      </trkpt>
      <trkpt lat="36.499676" lon="-6.267927">
        <ele>46.566879</ele>
        <time>2020-08-18T09:13:05.868Z</time>
      </trkpt>
      <trkpt lat="36.499774" lon="-6.267965">
        <ele>46.656362</ele>
        <time>2020-08-18T09:13:07.873Z</time>
      </trkpt>
      <trkpt lat="36.499883" lon="-6.268016">
        <ele>46.757879</ele>
        <time>2020-08-18T09:13:10.857Z</time>
      </trkpt>
      <trkpt lat="36.499968" lon="-6.268086">
        <ele>46.846742</ele>
        <time>2020-08-18T09:13:12.885Z</time>
      </trkpt>
      <trkpt lat="36.500071" lon="-6.268132">
        <ele>46.942141</ele>
        <time>2020-08-18T09:13:14.877Z</time>
      </trkpt>
      <trkpt lat="36.500191" lon="-6.268177">
        <ele>47.051398</ele>
        <time>2020-08-18T09:13:16.883Z</time>
      </trkpt>
      <trkpt lat="36.500294" lon="-6.268207">
        <ele>47.143614</ele>
        <time>2020-08-18T09:13:18.865Z</time>
      </trkpt>
      <trkpt lat="36.500378" lon="-6.268263">
        <ele>47.226691</ele>
        <time>2020-08-18T09:13:20.889Z</time>
      </trkpt>
      <trkpt lat="36.500456" lon="-6.268324">
        <ele>47.307006</ele>
        <time>2020-08-18T09:13:22.871Z</time>
      </trkpt>
      <trkpt lat="36.500536" lon="-6.268387">
        <ele>47.389543</ele>
        <time>2020-08-18T09:13:24.882Z</time>
      </trkpt>
      <trkpt lat="36.500656" lon="-6.268426">
        <ele>47.497662</ele>
        <time>2020-08-18T09:13:27.874Z</time>
      </trkpt>
      <trkpt lat="36.500748" lon="-6.268488">
        <ele>47.588873</ele>
        <time>2020-08-18T09:13:30.895Z</time>
      </trkpt>
      <trkpt lat="36.500832" lon="-6.268532">
        <ele>47.668325</ele>
        <time>2020-08-18T09:13:33.879Z</time>
      </trkpt>
      <trkpt lat="36.500936" lon="-6.268625">
        <ele>47.779977</ele>
        <time>2020-08-18T09:13:36.878Z</time>
      </trkpt>
      <trkpt lat="36.501049" lon="-6.268698">
        <ele>47.890972</ele>
        <time>2020-08-18T09:13:39.871Z</time>
      </trkpt>
      <trkpt lat="36.501167" lon="-6.268761">
        <ele>48.327165</ele>
        <time>2020-08-18T09:13:42.866Z</time>
      </trkpt>
      <trkpt lat="36.501297" lon="-6.268828">
        <ele>48.851399</ele>
        <time>2020-08-18T09:13:45.883Z</time>
      </trkpt>
      <trkpt lat="36.501405" lon="-6.268887">
        <ele>49.290840</ele>
        <time>2020-08-18T09:13:47.868Z</time>
      </trkpt>
      <trkpt lat="36.501495" lon="-6.268932">
        <ele>49.652204</ele>
        <time>2020-08-18T09:13:49.904Z</time>
      </trkpt>
      <trkpt lat="36.501556" lon="-6.269017">
        <ele>49.993439</ele>
        <time>2020-08-18T09:13:51.883Z</time>
      </trkpt>
      <trkpt lat="36.501588" lon="-6.269176">
        <ele>50.484296</ele>
        <time>2020-08-18T09:13:54.871Z</time>
      </trkpt>
      <trkpt lat="36.501579" lon="-6.269346">
        <ele>50.994500</ele>
        <time>2020-08-18T09:13:57.865Z</time>
      </trkpt>
      <trkpt lat="36.501564" lon="-6.269465">
        <ele>51.355226</ele>
        <time>2020-08-18T09:13:59.858Z</time>
      </trkpt>
      <trkpt lat="36.501535" lon="-6.269613">
        <ele>51.811422</ele>
        <time>2020-08-18T09:14:02.878Z</time>
      </trkpt>
      <trkpt lat="36.501501" lon="-6.269792">
        <ele>52.362238</ele>
        <time>2020-08-18T09:14:05.879Z</time>
      </trkpt>
      <trkpt lat="36.501467" lon="-6.269896">
        <ele>52.698461</ele>
        <time>2020-08-18T09:14:07.869Z</time>
      </trkpt>
      <trkpt lat="36.501466" lon="-6.270012">
        <ele>53.045868</ele>
        <time>2020-08-18T09:14:09.882Z</time>
      </trkpt>
      <trkpt lat="36.501451" lon="-6.270124">
        <ele>53.385900</ele>
        <time>2020-08-18T09:14:11.875Z</time>
      </trkpt>
      <trkpt lat="36.501392" lon="-6.270229">
        <ele>53.769554</ele>
        <time>2020-08-18T09:14:13.871Z</time>
      </trkpt>
      <trkpt lat="36.501355" lon="-6.270342">
        <ele>54.134955</ele>
        <time>2020-08-18T09:14:15.868Z</time>
      </trkpt>
      <trkpt lat="36.501307" lon="-6.270458">
        <ele>54.525668</ele>
        <time>2020-08-18T09:14:17.873Z</time>
      </trkpt>
      <trkpt lat="36.501249" lon="-6.270574">
        <ele>54.476120</ele>
        <time>2020-08-18T09:14:20.878Z</time>
      </trkpt>
      <trkpt lat="36.501210" lon="-6.270686">
        <ele>54.333700</ele>
        <time>2020-08-18T09:14:22.889Z</time>
      </trkpt>
      <trkpt lat="36.501157" lon="-6.270796">
        <ele>54.184058</ele>
        <time>2020-08-18T09:14:25.854Z</time>
      </trkpt>
      <trkpt lat="36.501102" lon="-6.270907">
        <ele>54.031911</ele>
        <time>2020-08-18T09:14:26.882Z</time>
      </trkpt>
      <trkpt lat="36.501034" lon="-6.271065">
        <ele>53.822790</ele>
        <time>2020-08-18T09:14:29.884Z</time>
      </trkpt>
      <trkpt lat="36.500941" lon="-6.271087">
        <ele>53.685376</ele>
        <time>2020-08-18T09:14:32.878Z</time>
      </trkpt>
      <trkpt lat="36.500911" lon="-6.271223">
        <ele>53.520820</ele>
        <time>2020-08-18T09:14:35.900Z</time>
      </trkpt>
      <trkpt lat="36.500791" lon="-6.271220">
        <ele>53.346597</ele>
        <time>2020-08-18T09:14:38.870Z</time>
      </trkpt>
      <trkpt lat="36.500679" lon="-6.271168">
        <ele>53.173069</ele>
        <time>2020-08-18T09:14:41.875Z</time>
      </trkpt>
      <trkpt lat="36.500567" lon="-6.271168">
        <ele>53.010494</ele>
        <time>2020-08-18T09:14:44.864Z</time>
      </trkpt>
      <trkpt lat="36.500481" lon="-6.271295">
        <ele>52.816732</ele>
        <time>2020-08-18T09:14:47.872Z</time>
      </trkpt>
      <trkpt lat="36.500451" lon="-6.271429">
        <ele>52.654424</ele>
        <time>2020-08-18T09:14:49.871Z</time>
      </trkpt>
      <trkpt lat="36.500433" lon="-6.271542">
        <ele>52.520007</ele>
        <time>2020-08-18T09:14:51.886Z</time>
      </trkpt>
      <trkpt lat="36.500385" lon="-6.271679">
        <ele>52.345626</ele>
        <time>2020-08-18T09:14:54.872Z</time>
      </trkpt>
      <trkpt lat="36.500338" lon="-6.271790">
        <ele>52.199237</ele>
        <time>2020-08-18T09:14:56.896Z</time>
      </trkpt>
      <trkpt lat="36.500288" lon="-6.271926">
        <ele>52.024736</ele>
        <time>2020-08-18T09:14:59.888Z</time>
      </trkpt>
      <trkpt lat="36.500263" lon="-6.272093">
        <ele>52.152185</ele>
        <time>2020-08-18T09:15:02.897Z</time>
      </trkpt>
      <trkpt lat="36.500205" lon="-6.272210">
        <ele>52.303912</ele>
        <time>2020-08-18T09:15:04.900Z</time>
      </trkpt>
      <trkpt lat="36.500150" lon="-6.272355">
        <ele>52.480886</ele>
        <time>2020-08-18T09:15:07.880Z</time>
      </trkpt>
      <trkpt lat="36.500075" lon="-6.272502">
        <ele>52.673067</ele>
        <time>2020-08-18T09:15:10.862Z</time>
      </trkpt>
      <trkpt lat="36.500094" lon="-6.272615">
        <ele>52.800496</ele>
        <time>2020-08-18T09:15:12.879Z</time>
      </trkpt>
      <trkpt lat="36.500060" lon="-6.272736">
        <ele>52.941980</ele>
        <time>2020-08-18T09:15:15.891Z</time>
      </trkpt>
      <trkpt lat="36.500013" lon="-6.272843">
        <ele>53.076569</ele>
        <time>2020-08-18T09:15:19.893Z</time>
      </trkpt>
      <trkpt lat="36.499969" lon="-6.272943">
        <ele>53.202403</ele>
        <time>2020-08-18T09:15:25.871Z</time>
      </trkpt>
      <trkpt lat="36.499987" lon="-6.273058">
        <ele>53.331724</ele>
        <time>2020-08-18T09:15:31.894Z</time>
      </trkpt>
      <trkpt lat="36.500059" lon="-6.273139">
        <ele>53.465021</ele>
        <time>2020-08-18T09:15:38.891Z</time>
      </trkpt>
      <trkpt lat="36.500136" lon="-6.273209">
        <ele>53.595975</ele>
        <time>2020-08-18T09:15:46.904Z</time>
      </trkpt>
      <trkpt lat="36.500225" lon="-6.273255">
        <ele>53.728312</ele>
        <time>2020-08-18T09:15:52.857Z</time>
      </trkpt>
      <trkpt lat="36.500318" lon="-6.273343">
        <ele>53.888757</ele>
        <time>2020-08-18T09:15:56.865Z</time>
      </trkpt>
      <trkpt lat="36.500412" lon="-6.273409">
        <ele>54.036971</ele>
        <time>2020-08-18T09:16:00.859Z</time>
      </trkpt>
      <trkpt lat="36.500497" lon="-6.273481">
        <ele>54.178175</ele>
        <time>2020-08-18T09:16:03.871Z</time>
      </trkpt>
      <trkpt lat="36.500582" lon="-6.273556">
        <ele>54.321269</ele>
        <time>2020-08-18T09:16:06.868Z</time>
      </trkpt>
      <trkpt lat="36.500668" lon="-6.273624">
        <ele>54.461193</ele>
        <time>2020-08-18T09:16:09.872Z</time>
      </trkpt>
      <trkpt lat="36.500772" lon="-6.273700">
        <ele>54.428778</ele>
        <time>2020-08-18T09:16:13.865Z</time>
      </trkpt>
      <trkpt lat="36.500847" lon="-6.273768">
        <ele>54.401546</ele>
        <time>2020-08-18T09:16:16.883Z</time>
      </trkpt>
      <trkpt lat="36.500955" lon="-6.273817">
        <ele>54.367813</ele>
        <time>2020-08-18T09:16:20.865Z</time>
      </trkpt>
      <trkpt lat="36.501045" lon="-6.273897">
        <ele>54.335355</ele>
        <time>2020-08-18T09:16:35.885Z</time>
      </trkpt>
      <trkpt lat="36.501170" lon="-6.273955">
        <ele>54.296208</ele>
        <time>2020-08-18T09:16:38.881Z</time>
      </trkpt>
      <trkpt lat="36.501256" lon="-6.274001">
        <ele>54.268739</ele>
        <time>2020-08-18T09:16:40.883Z</time>
      </trkpt>
      <trkpt lat="36.501343" lon="-6.274046">
        <ele>54.241091</ele>
        <time>2020-08-18T09:16:42.886Z</time>
      </trkpt>
      <trkpt lat="36.501450" lon="-6.274081">
        <ele>54.208627</ele>
        <time>2020-08-18T09:16:45.887Z</time>
      </trkpt>
      <trkpt lat="36.501559" lon="-6.274135">
        <ele>54.174200</ele>
        <time>2020-08-18T09:16:48.873Z</time>
      </trkpt>
      <trkpt lat="36.501661" lon="-6.274207">
        <ele>54.139787</ele>
        <time>2020-08-18T09:16:51.863Z</time>
      </trkpt>
      <trkpt lat="36.501752" lon="-6.274264">
        <ele>54.109890</ele>
        <time>2020-08-18T09:16:53.898Z</time>
      </trkpt>
      <trkpt lat="36.501840" lon="-6.274331">
        <ele>54.079616</ele>
        <time>2020-08-18T09:16:55.873Z</time>
      </trkpt>
      <trkpt lat="36.501936" lon="-6.274397">
        <ele>54.047431</ele>
        <time>2020-08-18T09:16:57.894Z</time>
      </trkpt>
      <trkpt lat="36.502028" lon="-6.274447">
        <ele>54.017971</ele>
        <time>2020-08-18T09:16:59.864Z</time>
      </trkpt>
      <trkpt lat="36.502127" lon="-6.274503">
        <ele>53.986059</ele>
        <time>2020-08-18T09:17:01.900Z</time>
      </trkpt>
      <trkpt lat="36.502287" lon="-6.274563">
        <ele>53.937023</ele>
        <time>2020-08-18T09:17:03.879Z</time>
      </trkpt>
      <trkpt lat="36.502395" lon="-6.274614">
        <ele>53.885801</ele>
        <time>2020-08-18T09:17:05.887Z</time>
      </trkpt>
      <trkpt lat="36.502481" lon="-6.274697">
        <ele>53.836960</ele>
        <time>2020-08-18T09:17:07.900Z</time>
      </trkpt>
      <trkpt lat="36.502575" lon="-6.274744">
        <ele>53.791500</ele>
        <time>2020-08-18T09:17:09.874Z</time>
      </trkpt>
      <trkpt lat="36.502688" lon="-6.274824">
        <ele>53.733159</ele>
        <time>2020-08-18T09:17:11.869Z</time>
      </trkpt>
      <trkpt lat="36.502791" lon="-6.274899">
        <ele>53.679606</ele>
        <time>2020-08-18T09:17:13.904Z</time>
      </trkpt>
      <trkpt lat="36.502891" lon="-6.274954">
        <ele>53.630544</ele>
        <time>2020-08-18T09:17:15.872Z</time>
      </trkpt>
      <trkpt lat="36.503003" lon="-6.275000">
        <ele>53.577619</ele>
        <time>2020-08-18T09:17:17.883Z</time>
      </trkpt>
      <trkpt lat="36.503107" lon="-6.275059">
        <ele>53.526328</ele>
        <time>2020-08-18T09:17:19.898Z</time>
      </trkpt>
      <trkpt lat="36.503223" lon="-6.275123">
        <ele>53.469387</ele>
        <time>2020-08-18T09:17:21.888Z</time>
      </trkpt>
      <trkpt lat="36.503312" lon="-6.275223">
        <ele>53.415574</ele>
        <time>2020-08-18T09:17:23.911Z</time>
      </trkpt>
      <trkpt lat="36.503408" lon="-6.275260">
        <ele>53.370476</ele>
        <time>2020-08-18T09:17:25.870Z</time>
      </trkpt>
      <trkpt lat="36.503511" lon="-6.275322">
        <ele>53.319132</ele>
        <time>2020-08-18T09:17:27.874Z</time>
      </trkpt>
      <trkpt lat="36.503616" lon="-6.275396">
        <ele>53.264981</ele>
        <time>2020-08-18T09:17:29.885Z</time>
      </trkpt>
      <trkpt lat="36.503726" lon="-6.275432">
        <ele>53.213942</ele>
        <time>2020-08-18T09:17:31.889Z</time>
      </trkpt>
      <trkpt lat="36.503792" lon="-6.275508">
        <ele>53.173587</ele>
        <time>2020-08-18T09:17:33.902Z</time>
      </trkpt>
      <trkpt lat="36.503896" lon="-6.275562">
        <ele>53.112734</ele>
        <time>2020-08-18T09:17:35.884Z</time>
      </trkpt>
      <trkpt lat="36.504010" lon="-6.275632">
        <ele>52.953721</ele>
        <time>2020-08-18T09:17:38.883Z</time>
      </trkpt>
      <trkpt lat="36.504126" lon="-6.275708">
        <ele>52.789738</ele>
        <time>2020-08-18T09:17:41.869Z</time>
      </trkpt>
      <trkpt lat="36.504224" lon="-6.275713">
        <ele>52.667057</ele>
        <time>2020-08-18T09:17:44.866Z</time>
      </trkpt>
      <trkpt lat="36.504324" lon="-6.275745">
        <ele>52.537907</ele>
        <time>2020-08-18T09:18:05.857Z</time>
      </trkpt>
      <trkpt lat="36.504427" lon="-6.275771">
        <ele>52.406450</ele>
        <time>2020-08-18T09:18:08.863Z</time>
      </trkpt>
      <trkpt lat="36.504547" lon="-6.275831">
        <ele>52.244686</ele>
        <time>2020-08-18T09:18:11.872Z</time>
      </trkpt>
      <trkpt lat="36.504639" lon="-6.275864">
        <ele>52.124926</ele>
        <time>2020-08-18T09:18:13.868Z</time>
      </trkpt>
      <trkpt lat="36.504750" lon="-6.275940">
        <ele>51.966450</ele>
        <time>2020-08-18T09:18:15.884Z</time>
      </trkpt>
      <trkpt lat="36.504871" lon="-6.276004">
        <ele>51.801994</ele>
        <time>2020-08-18T09:18:17.859Z</time>
      </trkpt>
      <trkpt lat="36.504977" lon="-6.276055">
        <ele>51.659840</ele>
        <time>2020-08-18T09:18:19.891Z</time>
      </trkpt>
      <trkpt lat="36.505065" lon="-6.276113">
        <ele>51.535278</ele>
        <time>2020-08-18T09:18:21.863Z</time>
      </trkpt>
      <trkpt lat="36.505163" lon="-6.276167">
        <ele>51.401215</ele>
        <time>2020-08-18T09:18:25.876Z</time>
      </trkpt>
      <trkpt lat="36.505270" lon="-6.276233">
        <ele>51.251834</ele>
        <time>2020-08-18T09:18:27.892Z</time>
      </trkpt>
      <trkpt lat="36.505396" lon="-6.276302">
        <ele>51.079642</ele>
        <time>2020-08-18T09:18:28.897Z</time>
      </trkpt>
      <trkpt lat="36.505527" lon="-6.276372">
        <ele>50.901313</ele>
        <time>2020-08-18T09:18:29.860Z</time>
      </trkpt>
      <trkpt lat="36.505643" lon="-6.276438">
        <ele>51.116922</ele>
        <time>2020-08-18T09:18:31.860Z</time>
      </trkpt>
      <trkpt lat="36.505760" lon="-6.276499">
        <ele>51.391881</ele>
        <time>2020-08-18T09:18:33.889Z</time>
      </trkpt>
      <trkpt lat="36.505856" lon="-6.276531">
        <ele>51.607295</ele>
        <time>2020-08-18T09:18:35.867Z</time>
      </trkpt>
      <trkpt lat="36.505957" lon="-6.276575">
        <ele>51.839240</ele>
        <time>2020-08-18T09:18:37.870Z</time>
      </trkpt>
      <trkpt lat="36.506060" lon="-6.276648">
        <ele>52.096171</ele>
        <time>2020-08-18T09:18:39.868Z</time>
      </trkpt>
      <trkpt lat="36.506164" lon="-6.276754">
        <ele>52.387573</ele>
        <time>2020-08-18T09:18:41.874Z</time>
      </trkpt>
      <trkpt lat="36.506253" lon="-6.276863">
        <ele>52.658262</ele>
        <time>2020-08-18T09:18:43.862Z</time>
      </trkpt>
      <trkpt lat="36.506371" lon="-6.276909">
        <ele>52.926282</ele>
        <time>2020-08-18T09:18:45.869Z</time>
      </trkpt>
      <trkpt lat="36.506468" lon="-6.276989">
        <ele>53.178525</ele>
        <time>2020-08-18T09:18:47.868Z</time>
      </trkpt>
      <trkpt lat="36.506540" lon="-6.277070">
        <ele>53.388923</ele>
        <time>2020-08-18T09:18:49.883Z</time>
      </trkpt>
      <trkpt lat="36.506622" lon="-6.277164">
        <ele>53.630598</ele>
        <time>2020-08-18T09:18:51.858Z</time>
      </trkpt>
      <trkpt lat="36.506750" lon="-6.277188">
        <ele>53.911164</ele>
        <time>2020-08-18T09:18:53.907Z</time>
      </trkpt>
      <trkpt lat="36.506870" lon="-6.277281">
        <ele>54.217594</ele>
        <time>2020-08-18T09:18:55.868Z</time>
      </trkpt>
      <trkpt lat="36.507007" lon="-6.277352">
        <ele>54.539267</ele>
        <time>2020-08-18T09:18:57.865Z</time>
      </trkpt>
      <trkpt lat="36.507123" lon="-6.277435">
        <ele>54.825366</ele>
        <time>2020-08-18T09:18:59.896Z</time>
      </trkpt>
      <trkpt lat="36.507230" lon="-6.277525">
        <ele>55.084021</ele>
        <time>2020-08-18T09:19:01.887Z</time>
      </trkpt>
      <trkpt lat="36.507331" lon="-6.277597">
        <ele>55.317134</ele>
        <time>2020-08-18T09:19:03.862Z</time>
      </trkpt>
      <trkpt lat="36.507454" lon="-6.277647">
        <ele>55.576269</ele>
        <time>2020-08-18T09:19:05.882Z</time>
      </trkpt>
      <trkpt lat="36.507539" lon="-6.277718">
        <ele>55.781297</ele>
        <time>2020-08-18T09:19:07.876Z</time>
      </trkpt>
      <trkpt lat="36.507642" lon="-6.277749">
        <ele>55.993515</ele>
        <time>2020-08-18T09:19:10.888Z</time>
      </trkpt>
      <trkpt lat="36.507687" lon="-6.277852">
        <ele>56.182217</ele>
        <time>2020-08-18T09:19:21.874Z</time>
      </trkpt>
      <trkpt lat="36.507796" lon="-6.277912">
        <ele>56.420912</ele>
        <time>2020-08-18T09:19:32.874Z</time>
      </trkpt>
      <trkpt lat="36.507915" lon="-6.277955">
        <ele>56.669069</ele>
        <time>2020-08-18T09:19:35.871Z</time>
      </trkpt>
      <trkpt lat="36.508018" lon="-6.278026">
        <ele>56.904882</ele>
        <time>2020-08-18T09:19:37.897Z</time>
      </trkpt>
      <trkpt lat="36.508118" lon="-6.278090">
        <ele>57.130085</ele>
        <time>2020-08-18T09:19:39.870Z</time>
      </trkpt>
      <trkpt lat="36.508229" lon="-6.278168">
        <ele>57.385380</ele>
        <time>2020-08-18T09:19:41.885Z</time>
      </trkpt>
      <trkpt lat="36.508344" lon="-6.278231">
        <ele>57.637017</ele>
        <time>2020-08-18T09:19:43.861Z</time>
      </trkpt>
      <trkpt lat="36.508466" lon="-6.278290">
        <ele>57.899143</ele>
        <time>2020-08-18T09:19:45.879Z</time>
      </trkpt>
      <trkpt lat="36.508572" lon="-6.278375">
        <ele>58.151690</ele>
        <time>2020-08-18T09:19:47.864Z</time>
      </trkpt>
      <trkpt lat="36.508699" lon="-6.278424">
        <ele>58.385423</ele>
        <time>2020-08-18T09:19:49.879Z</time>
      </trkpt>
      <trkpt lat="36.508815" lon="-6.278464">
        <ele>58.422695</ele>
        <time>2020-08-18T09:19:51.881Z</time>
      </trkpt>
      <trkpt lat="36.508921" lon="-6.278506">
        <ele>58.457142</ele>
        <time>2020-08-18T09:19:53.884Z</time>
      </trkpt>
      <trkpt lat="36.509032" lon="-6.278530">
        <ele>58.492027</ele>
        <time>2020-08-18T09:19:55.884Z</time>
      </trkpt>
      <trkpt lat="36.509142" lon="-6.278567">
        <ele>58.527310</ele>
        <time>2020-08-18T09:19:59.873Z</time>
      </trkpt>
      <trkpt lat="36.509241" lon="-6.278625">
        <ele>58.561194</ele>
        <time>2020-08-18T09:20:01.871Z</time>
      </trkpt>
      <trkpt lat="36.509401" lon="-6.278740">
        <ele>58.618409</ele>
        <time>2020-08-18T09:20:03.885Z</time>
      </trkpt>
      <trkpt lat="36.509504" lon="-6.278806">
        <ele>58.654284</ele>
        <time>2020-08-18T09:20:05.874Z</time>
      </trkpt>
      <trkpt lat="36.509589" lon="-6.278890">
        <ele>58.687896</ele>
        <time>2020-08-18T09:20:07.882Z</time>
      </trkpt>
      <trkpt lat="36.509702" lon="-6.278944">
        <ele>58.725378</ele>
        <time>2020-08-18T09:20:09.891Z</time>
      </trkpt>
      <trkpt lat="36.509808" lon="-6.278951">
        <ele>58.758246</ele>
        <time>2020-08-18T09:20:11.874Z</time>
      </trkpt>
      <trkpt lat="36.509935" lon="-6.279006">
        <ele>58.799885</ele>
        <time>2020-08-18T09:20:13.874Z</time>
      </trkpt>
      <trkpt lat="36.510052" lon="-6.279064">
        <ele>58.838883</ele>
        <time>2020-08-18T09:20:15.881Z</time>
      </trkpt>
      <trkpt lat="36.510179" lon="-6.279160">
        <ele>58.884896</ele>
        <time>2020-08-18T09:20:17.868Z</time>
      </trkpt>
      <trkpt lat="36.510296" lon="-6.279255">
        <ele>58.928157</ele>
        <time>2020-08-18T09:20:19.891Z</time>
      </trkpt>
      <trkpt lat="36.510412" lon="-6.279332">
        <ele>58.956466</ele>
        <time>2020-08-18T09:20:21.883Z</time>
      </trkpt>
      <trkpt lat="36.510565" lon="-6.279345">
        <ele>58.985811</ele>
        <time>2020-08-18T09:20:23.887Z</time>
      </trkpt>
      <trkpt lat="36.510723" lon="-6.279367">
        <ele>59.016232</ele>
        <time>2020-08-18T09:20:25.881Z</time>
      </trkpt>
      <trkpt lat="36.510869" lon="-6.279438">
        <ele>59.046228</ele>
        <time>2020-08-18T09:20:27.868Z</time>
      </trkpt>
      <trkpt lat="36.510998" lon="-6.279539">
        <ele>59.075392</ele>
        <time>2020-08-18T09:20:29.871Z</time>
      </trkpt>
      <trkpt lat="36.511118" lon="-6.279612">
        <ele>59.100952</ele>
        <time>2020-08-18T09:20:31.878Z</time>
      </trkpt>
      <trkpt lat="36.511247" lon="-6.279703">
        <ele>59.129327</ele>
        <time>2020-08-18T09:20:33.863Z</time>
      </trkpt>
      <trkpt lat="36.511368" lon="-6.279753">
        <ele>59.153724</ele>
        <time>2020-08-18T09:20:35.872Z</time>
      </trkpt>
      <trkpt lat="36.511501" lon="-6.279783">
        <ele>59.179588</ele>
        <time>2020-08-18T09:20:37.884Z</time>
      </trkpt>
      <trkpt lat="36.511600" lon="-6.279861">
        <ele>59.202011</ele>
        <time>2020-08-18T09:20:39.885Z</time>
      </trkpt>
      <trkpt lat="36.511663" lon="-6.279963">
        <ele>59.221795</ele>
        <time>2020-08-18T09:20:42.883Z</time>
      </trkpt>
      <trkpt lat="36.511756" lon="-6.280008">
        <ele>59.240889</ele>
        <time>2020-08-18T09:20:48.885Z</time>
      </trkpt>
      <trkpt lat="36.511824" lon="-6.280093">
        <ele>59.259333</ele>
        <time>2020-08-18T09:21:13.879Z</time>
      </trkpt>
      <trkpt lat="36.511946" lon="-6.280151">
        <ele>59.247330</ele>
        <time>2020-08-18T09:21:16.870Z</time>
      </trkpt>
      <trkpt lat="36.512035" lon="-6.280178">
        <ele>59.091931</ele>
        <time>2020-08-18T09:21:18.873Z</time>
      </trkpt>
      <trkpt lat="36.512123" lon="-6.280203">
        <ele>58.938811</ele>
        <time>2020-08-18T09:21:20.888Z</time>
      </trkpt>
      <trkpt lat="36.512230" lon="-6.280285">
        <ele>58.725633</ele>
        <time>2020-08-18T09:21:23.866Z</time>
      </trkpt>
      <trkpt lat="36.512322" lon="-6.280370">
        <ele>58.531245</ele>
        <time>2020-08-18T09:21:25.883Z</time>
      </trkpt>
      <trkpt lat="36.512414" lon="-6.280449">
        <ele>58.341621</ele>
        <time>2020-08-18T09:21:27.866Z</time>
      </trkpt>
      <trkpt lat="36.512517" lon="-6.280555">
        <ele>58.114873</ele>
        <time>2020-08-18T09:21:29.868Z</time>
      </trkpt>
      <trkpt lat="36.512625" lon="-6.280628">
        <ele>57.906378</ele>
        <time>2020-08-18T09:21:31.865Z</time>
      </trkpt>
      <trkpt lat="36.512731" lon="-6.280678">
        <ele>57.714076</ele>
        <time>2020-08-18T09:21:33.875Z</time>
      </trkpt>
      <trkpt lat="36.512850" lon="-6.280712">
        <ele>57.506956</ele>
        <time>2020-08-18T09:21:35.856Z</time>
      </trkpt>
      <trkpt lat="36.512951" lon="-6.280777">
        <ele>57.314062</ele>
        <time>2020-08-18T09:21:37.867Z</time>
      </trkpt>
      <trkpt lat="36.513064" lon="-6.280827">
        <ele>57.110614</ele>
        <time>2020-08-18T09:21:39.869Z</time>
      </trkpt>
      <trkpt lat="36.513173" lon="-6.280884">
        <ele>56.910044</ele>
        <time>2020-08-18T09:21:41.875Z</time>
      </trkpt>
      <trkpt lat="36.513266" lon="-6.280955">
        <ele>56.724953</ele>
        <time>2020-08-18T09:21:43.878Z</time>
      </trkpt>
      <trkpt lat="36.513366" lon="-6.281002">
        <ele>56.543618</ele>
        <time>2020-08-18T09:21:45.858Z</time>
      </trkpt>
      <trkpt lat="36.513459" lon="-6.281073">
        <ele>56.358527</ele>
        <time>2020-08-18T09:21:47.863Z</time>
      </trkpt>
      <trkpt lat="36.513556" lon="-6.281130">
        <ele>56.214367</ele>
        <time>2020-08-18T09:21:49.861Z</time>
      </trkpt>
      <trkpt lat="36.513662" lon="-6.281165">
        <ele>56.161339</ele>
        <time>2020-08-18T09:21:51.861Z</time>
      </trkpt>
      <trkpt lat="36.513784" lon="-6.281194">
        <ele>56.101281</ele>
        <time>2020-08-18T09:21:53.868Z</time>
      </trkpt>
      <trkpt lat="36.513889" lon="-6.281223">
        <ele>56.049275</ele>
        <time>2020-08-18T09:21:55.859Z</time>
      </trkpt>
      <trkpt lat="36.514015" lon="-6.281278">
        <ele>55.984709</ele>
        <time>2020-08-18T09:21:57.867Z</time>
      </trkpt>
      <trkpt lat="36.514115" lon="-6.281345">
        <ele>55.929792</ele>
        <time>2020-08-18T09:21:59.880Z</time>
      </trkpt>
      <trkpt lat="36.514231" lon="-6.281439">
        <ele>55.862855</ele>
        <time>2020-08-18T09:22:01.885Z</time>
      </trkpt>
      <trkpt lat="36.514354" lon="-6.281491">
        <ele>55.800041</ele>
        <time>2020-08-18T09:22:03.879Z</time>
      </trkpt>
      <trkpt lat="36.514472" lon="-6.281528">
        <ele>55.741201</ele>
        <time>2020-08-18T09:22:05.879Z</time>
      </trkpt>
      <trkpt lat="36.514575" lon="-6.281582">
        <ele>55.687157</ele>
        <time>2020-08-18T09:22:07.872Z</time>
      </trkpt>
      <trkpt lat="36.514661" lon="-6.281663">
        <ele>55.635002</ele>
        <time>2020-08-18T09:22:09.864Z</time>
      </trkpt>
      <trkpt lat="36.514768" lon="-6.281766">
        <ele>55.569588</ele>
        <time>2020-08-18T09:22:11.865Z</time>
      </trkpt>
      <trkpt lat="36.514887" lon="-6.281813">
        <ele>55.509219</ele>
        <time>2020-08-18T09:22:13.860Z</time>
      </trkpt>
      <trkpt lat="36.514983" lon="-6.281901">
        <ele>55.451563</ele>
        <time>2020-08-18T09:22:15.870Z</time>
      </trkpt>
      <trkpt lat="36.515095" lon="-6.281970">
        <ele>55.391132</ele>
        <time>2020-08-18T09:22:17.879Z</time>
      </trkpt>
      <trkpt lat="36.515212" lon="-6.282074">
        <ele>55.277674</ele>
        <time>2020-08-18T09:22:20.870Z</time>
      </trkpt>
      <trkpt lat="36.515331" lon="-6.282147">
        <ele>55.139623</ele>
        <time>2020-08-18T09:22:23.876Z</time>
      </trkpt>
      <trkpt lat="36.515424" lon="-6.282196">
        <ele>55.034537</ele>
        <time>2020-08-18T09:22:27.882Z</time>
      </trkpt>
      <trkpt lat="36.515859" lon="-6.282366">
        <ele>54.560116</ele>
        <time>2020-08-18T09:23:00.858Z</time>
      </trkpt>
      <trkpt lat="36.515962" lon="-6.282427">
        <ele>54.441423</ele>
        <time>2020-08-18T09:23:02.880Z</time>
      </trkpt>
      <trkpt lat="36.516056" lon="-6.282494">
        <ele>54.328704</ele>
        <time>2020-08-18T09:23:04.873Z</time>
      </trkpt>
      <trkpt lat="36.516136" lon="-6.282614">
        <ele>54.198323</ele>
        <time>2020-08-18T09:23:06.888Z</time>
      </trkpt>
      <trkpt lat="36.516264" lon="-6.282700">
        <ele>54.046962</ele>
        <time>2020-08-18T09:23:09.871Z</time>
      </trkpt>
      <trkpt lat="36.516376" lon="-6.282720">
        <ele>53.929231</ele>
        <time>2020-08-18T09:23:11.881Z</time>
      </trkpt>
      <trkpt lat="36.516473" lon="-6.282795">
        <ele>53.810402</ele>
        <time>2020-08-18T09:23:13.894Z</time>
      </trkpt>
      <trkpt lat="36.516584" lon="-6.282857">
        <ele>53.683802</ele>
        <time>2020-08-18T09:23:15.867Z</time>
      </trkpt>
      <trkpt lat="36.516702" lon="-6.282875">
        <ele>53.560103</ele>
        <time>2020-08-18T09:23:17.879Z</time>
      </trkpt>
      <trkpt lat="36.516783" lon="-6.282932">
        <ele>53.576048</ele>
        <time>2020-08-18T09:23:19.868Z</time>
      </trkpt>
      <trkpt lat="36.516897" lon="-6.283011">
        <ele>54.053596</ele>
        <time>2020-08-18T09:23:22.902Z</time>
      </trkpt>
      <trkpt lat="36.516986" lon="-6.283070">
        <ele>54.422653</ele>
        <time>2020-08-18T09:23:24.875Z</time>
      </trkpt>
      <trkpt lat="36.517075" lon="-6.283161">
        <ele>54.844230</ele>
        <time>2020-08-18T09:23:26.867Z</time>
      </trkpt>
      <trkpt lat="36.517196" lon="-6.283168">
        <ele>55.287533</ele>
        <time>2020-08-18T09:23:28.860Z</time>
      </trkpt>
      <trkpt lat="36.517313" lon="-6.283196">
        <ele>55.723567</ele>
        <time>2020-08-18T09:23:31.876Z</time>
      </trkpt>
      <trkpt lat="36.517416" lon="-6.283176">
        <ele>56.105079</ele>
        <time>2020-08-18T09:23:33.871Z</time>
      </trkpt>
      <trkpt lat="36.517517" lon="-6.283239">
        <ele>56.518554</ele>
        <time>2020-08-18T09:23:37.899Z</time>
      </trkpt>
      <trkpt lat="36.517619" lon="-6.283272">
        <ele>56.904257</ele>
        <time>2020-08-18T09:23:43.906Z</time>
      </trkpt>
      <trkpt lat="36.517714" lon="-6.283338">
        <ele>57.302451</ele>
        <time>2020-08-18T09:23:47.860Z</time>
      </trkpt>
      <trkpt lat="36.517815" lon="-6.283386">
        <ele>57.698125</ele>
        <time>2020-08-18T09:23:50.871Z</time>
      </trkpt>
      <trkpt lat="36.517911" lon="-6.283441">
        <ele>58.084910</ele>
        <time>2020-08-18T09:23:53.882Z</time>
      </trkpt>
      <trkpt lat="36.518017" lon="-6.283499">
        <ele>58.508690</ele>
        <time>2020-08-18T09:23:56.862Z</time>
      </trkpt>
      <trkpt lat="36.518126" lon="-6.283561">
        <ele>58.947302</ele>
        <time>2020-08-18T09:23:59.888Z</time>
      </trkpt>
      <trkpt lat="36.518217" lon="-6.283610">
        <ele>59.310182</ele>
        <time>2020-08-18T09:24:02.866Z</time>
      </trkpt>
      <trkpt lat="36.518297" lon="-6.283685">
        <ele>59.676757</ele>
        <time>2020-08-18T09:24:07.852Z</time>
      </trkpt>
      <trkpt lat="36.518280" lon="-6.283799">
        <ele>60.017776</ele>
        <time>2020-08-18T09:24:19.870Z</time>
      </trkpt>
      <trkpt lat="36.518689" lon="-6.284045">
        <ele>60.658272</ele>
        <time>2020-08-18T09:24:46.874Z</time>
      </trkpt>
      <trkpt lat="36.518808" lon="-6.284109">
        <ele>60.831455</ele>
        <time>2020-08-18T09:24:48.867Z</time>
      </trkpt>
      <trkpt lat="36.518904" lon="-6.284137">
        <ele>60.963176</ele>
        <time>2020-08-18T09:24:50.874Z</time>
      </trkpt>
      <trkpt lat="36.519009" lon="-6.284148">
        <ele>61.103939</ele>
        <time>2020-08-18T09:24:52.873Z</time>
      </trkpt>
      <trkpt lat="36.519111" lon="-6.284190">
        <ele>61.247466</ele>
        <time>2020-08-18T09:24:54.874Z</time>
      </trkpt>
      <trkpt lat="36.519234" lon="-6.284227">
        <ele>61.416513</ele>
        <time>2020-08-18T09:24:56.877Z</time>
      </trkpt>
      <trkpt lat="36.519337" lon="-6.284263">
        <ele>61.559433</ele>
        <time>2020-08-18T09:24:58.873Z</time>
      </trkpt>
      <trkpt lat="36.519454" lon="-6.284312">
        <ele>61.724347</ele>
        <time>2020-08-18T09:25:00.864Z</time>
      </trkpt>
      <trkpt lat="36.519583" lon="-6.284341">
        <ele>61.899465</ele>
        <time>2020-08-18T09:25:02.873Z</time>
      </trkpt>
      <trkpt lat="36.519683" lon="-6.284404">
        <ele>62.049199</ele>
        <time>2020-08-18T09:25:04.867Z</time>
      </trkpt>
      <trkpt lat="36.519756" lon="-6.284508">
        <ele>62.197443</ele>
        <time>2020-08-18T09:25:06.878Z</time>
      </trkpt>
      <trkpt lat="36.519865" lon="-6.284612">
        <ele>62.380934</ele>
        <time>2020-08-18T09:25:08.887Z</time>
      </trkpt>
      <trkpt lat="36.519967" lon="-6.284678">
        <ele>62.502858</ele>
        <time>2020-08-18T09:25:10.873Z</time>
      </trkpt>
      <trkpt lat="36.520060" lon="-6.284706">
        <ele>62.564335</ele>
        <time>2020-08-18T09:25:12.893Z</time>
      </trkpt>
      <trkpt lat="36.520180" lon="-6.284780">
        <ele>62.650386</ele>
        <time>2020-08-18T09:25:14.872Z</time>
      </trkpt>
      <trkpt lat="36.520272" lon="-6.284860">
        <ele>62.722500</ele>
        <time>2020-08-18T09:25:16.882Z</time>
      </trkpt>
      <trkpt lat="36.520360" lon="-6.284919">
        <ele>62.786726</ele>
        <time>2020-08-18T09:25:18.885Z</time>
      </trkpt>
      <trkpt lat="36.520442" lon="-6.285021">
        <ele>62.861223</ele>
        <time>2020-08-18T09:25:21.868Z</time>
      </trkpt>
      <trkpt lat="36.520530" lon="-6.285052">
        <ele>62.919986</ele>
        <time>2020-08-18T09:25:22.883Z</time>
      </trkpt>
      <trkpt lat="36.520637" lon="-6.285119">
        <ele>62.996949</ele>
        <time>2020-08-18T09:25:24.881Z</time>
      </trkpt>
      <trkpt lat="36.520699" lon="-6.285201">
        <ele>63.055083</ele>
        <time>2020-08-18T09:25:26.873Z</time>
      </trkpt>
      <trkpt lat="36.520822" lon="-6.285187">
        <ele>63.134442</ele>
        <time>2020-08-18T09:25:28.879Z</time>
      </trkpt>
      <trkpt lat="36.520882" lon="-6.285311">
        <ele>63.209179</ele>
        <time>2020-08-18T09:25:30.875Z</time>
      </trkpt>
      <trkpt lat="36.521001" lon="-6.285317">
        <ele>63.285701</ele>
        <time>2020-08-18T09:25:32.890Z</time>
      </trkpt>
      <trkpt lat="36.521105" lon="-6.285362">
        <ele>63.356447</ele>
        <time>2020-08-18T09:25:34.886Z</time>
      </trkpt>
      <trkpt lat="36.521205" lon="-6.285434">
        <ele>63.430678</ele>
        <time>2020-08-18T09:25:36.892Z</time>
      </trkpt>
      <trkpt lat="36.521299" lon="-6.285482">
        <ele>63.495962</ele>
        <time>2020-08-18T09:25:38.879Z</time>
      </trkpt>
      <trkpt lat="36.521398" lon="-6.285508">
        <ele>63.560972</ele>
        <time>2020-08-18T09:25:41.873Z</time>
      </trkpt>
      <trkpt lat="36.521489" lon="-6.285572">
        <ele>63.628133</ele>
        <time>2020-08-18T09:25:46.879Z</time>
      </trkpt>
      <trkpt lat="36.521589" lon="-6.285630">
        <ele>63.696040</ele>
        <time>2020-08-18T09:26:17.859Z</time>
      </trkpt>
      <trkpt lat="36.521675" lon="-6.285693">
        <ele>63.757423</ele>
        <time>2020-08-18T09:26:20.873Z</time>
      </trkpt>
      <trkpt lat="36.521788" lon="-6.285755">
        <ele>63.833384</ele>
        <time>2020-08-18T09:26:23.866Z</time>
      </trkpt>
      <trkpt lat="36.521902" lon="-6.285839">
        <ele>63.914875</ele>
        <time>2020-08-18T09:26:25.868Z</time>
      </trkpt>
      <trkpt lat="36.521983" lon="-6.285782">
        <ele>63.972112</ele>
        <time>2020-08-18T09:26:26.870Z</time>
      </trkpt>
      <trkpt lat="36.522090" lon="-6.285824">
        <ele>64.041123</ele>
        <time>2020-08-18T09:26:28.882Z</time>
      </trkpt>
      <trkpt lat="36.522170" lon="-6.285885">
        <ele>64.098833</ele>
        <time>2020-08-18T09:26:30.889Z</time>
      </trkpt>
      <trkpt lat="36.522264" lon="-6.285915">
        <ele>64.158523</ele>
        <time>2020-08-18T09:26:32.873Z</time>
      </trkpt>
      <trkpt lat="36.522346" lon="-6.285977">
        <ele>64.217540</ele>
        <time>2020-08-18T09:26:34.874Z</time>
      </trkpt>
      <trkpt lat="36.522450" lon="-6.286051">
        <ele>64.291229</ele>
        <time>2020-08-18T09:26:37.863Z</time>
      </trkpt>
      <trkpt lat="36.522554" lon="-6.286132">
        <ele>64.366694</ele>
        <time>2020-08-18T09:26:40.886Z</time>
      </trkpt>
      <trkpt lat="36.522638" lon="-6.286189">
        <ele>64.425544</ele>
        <time>2020-08-18T09:26:42.877Z</time>
      </trkpt>
      <trkpt lat="36.522719" lon="-6.286249">
        <ele>64.483526</ele>
        <time>2020-08-18T09:26:44.870Z</time>
      </trkpt>
      <trkpt lat="36.522828" lon="-6.286299">
        <ele>64.554980</ele>
        <time>2020-08-18T09:26:47.864Z</time>
      </trkpt>
      <trkpt lat="36.522901" lon="-6.286375">
        <ele>64.613524</ele>
        <time>2020-08-18T09:26:49.886Z</time>
      </trkpt>
      <trkpt lat="36.523021" lon="-6.286394">
        <ele>64.687929</ele>
        <time>2020-08-18T09:26:51.881Z</time>
      </trkpt>
      <trkpt lat="36.523146" lon="-6.286477">
        <ele>64.768800</ele>
        <time>2020-08-18T09:26:54.879Z</time>
      </trkpt>
      <trkpt lat="36.523216" lon="-6.286566">
        <ele>64.820596</ele>
        <time>2020-08-18T09:26:56.893Z</time>
      </trkpt>
      <trkpt lat="36.523300" lon="-6.286618">
        <ele>64.869153</ele>
        <time>2020-08-18T09:26:58.887Z</time>
      </trkpt>
      <trkpt lat="36.523401" lon="-6.286682">
        <ele>64.927814</ele>
        <time>2020-08-18T09:27:00.876Z</time>
      </trkpt>
      <trkpt lat="36.523488" lon="-6.286723">
        <ele>64.975963</ele>
        <time>2020-08-18T09:27:02.875Z</time>
      </trkpt>
      <trkpt lat="36.523607" lon="-6.286768">
        <ele>65.040334</ele>
        <time>2020-08-18T09:27:05.883Z</time>
      </trkpt>
      <trkpt lat="36.523697" lon="-6.286760">
        <ele>65.087033</ele>
        <time>2020-08-18T09:27:06.869Z</time>
      </trkpt>
      <trkpt lat="36.523741" lon="-6.286888">
        <ele>65.144937</ele>
        <time>2020-08-18T09:27:08.910Z</time>
      </trkpt>
      <trkpt lat="36.523899" lon="-6.286935">
        <ele>65.229015</ele>
        <time>2020-08-18T09:27:11.882Z</time>
      </trkpt>
      <trkpt lat="36.524023" lon="-6.286869">
        <ele>65.298817</ele>
        <time>2020-08-18T09:27:13.869Z</time>
      </trkpt>
      <trkpt lat="36.524117" lon="-6.286883">
        <ele>65.347815</ele>
        <time>2020-08-18T09:27:14.883Z</time>
      </trkpt>
      <trkpt lat="36.524193" lon="-6.286951">
        <ele>65.396262</ele>
        <time>2020-08-18T09:27:16.884Z</time>
      </trkpt>
      <trkpt lat="36.524289" lon="-6.287041">
        <ele>65.458470</ele>
        <time>2020-08-18T09:27:19.893Z</time>
      </trkpt>
      <trkpt lat="36.524350" lon="-6.287124">
        <ele>65.505251</ele>
        <time>2020-08-18T09:27:25.880Z</time>
      </trkpt>
      <trkpt lat="36.524440" lon="-6.287156">
        <ele>65.553696</ele>
        <time>2020-08-18T09:27:31.869Z</time>
      </trkpt>
      <trkpt lat="36.524532" lon="-6.287210">
        <ele>65.606342</ele>
        <time>2020-08-18T09:27:35.865Z</time>
      </trkpt>
      <trkpt lat="36.524614" lon="-6.287304">
        <ele>65.664045</ele>
        <time>2020-08-18T09:27:39.869Z</time>
      </trkpt>
      <trkpt lat="36.524719" lon="-6.287374">
        <ele>65.849532</ele>
        <time>2020-08-18T09:27:43.872Z</time>
      </trkpt>
      <trkpt lat="36.524830" lon="-6.287408">
        <ele>66.032254</ele>
        <time>2020-08-18T09:27:46.860Z</time>
      </trkpt>
      <trkpt lat="36.524952" lon="-6.287466">
        <ele>66.241009</ele>
        <time>2020-08-18T09:27:49.872Z</time>
      </trkpt>
      <trkpt lat="36.525039" lon="-6.287499">
        <ele>66.386389</ele>
        <time>2020-08-18T09:27:51.874Z</time>
      </trkpt>
      <trkpt lat="36.525124" lon="-6.287552">
        <ele>66.538358</ele>
        <time>2020-08-18T09:27:53.873Z</time>
      </trkpt>
      <trkpt lat="36.525202" lon="-6.287611">
        <ele>66.684261</ele>
        <time>2020-08-18T09:27:55.865Z</time>
      </trkpt>
      <trkpt lat="36.525254" lon="-6.287713">
        <ele>66.839421</ele>
        <time>2020-08-18T09:27:57.884Z</time>
      </trkpt>
      <trkpt lat="36.525354" lon="-6.287753">
        <ele>67.007318</ele>
        <time>2020-08-18T09:27:59.880Z</time>
      </trkpt>
      <trkpt lat="36.525443" lon="-6.287781">
        <ele>67.154055</ele>
        <time>2020-08-18T09:28:01.875Z</time>
      </trkpt>
      <trkpt lat="36.525539" lon="-6.287846">
        <ele>67.328748</ele>
        <time>2020-08-18T09:28:03.871Z</time>
      </trkpt>
      <trkpt lat="36.525666" lon="-6.287931">
        <ele>67.559247</ele>
        <time>2020-08-18T09:28:06.889Z</time>
      </trkpt>
      <trkpt lat="36.525763" lon="-6.287989">
        <ele>67.731264</ele>
        <time>2020-08-18T09:28:08.871Z</time>
      </trkpt>
      <trkpt lat="36.525858" lon="-6.288045">
        <ele>67.899290</ele>
        <time>2020-08-18T09:28:10.869Z</time>
      </trkpt>
      <trkpt lat="36.525972" lon="-6.288114">
        <ele>68.101922</ele>
        <time>2020-08-18T09:28:12.876Z</time>
      </trkpt>
      <trkpt lat="36.526034" lon="-6.288195">
        <ele>68.245610</ele>
        <time>2020-08-18T09:28:14.880Z</time>
      </trkpt>
      <trkpt lat="36.526111" lon="-6.288281">
        <ele>68.410992</ele>
        <time>2020-08-18T09:28:16.871Z</time>
      </trkpt>
      <trkpt lat="36.526191" lon="-6.288386">
        <ele>68.457151</ele>
        <time>2020-08-18T09:28:18.880Z</time>
      </trkpt>
      <trkpt lat="36.526271" lon="-6.288492">
        <ele>68.173273</ele>
        <time>2020-08-18T09:28:20.868Z</time>
      </trkpt>
      <trkpt lat="36.526350" lon="-6.288568">
        <ele>67.930701</ele>
        <time>2020-08-18T09:28:22.876Z</time>
      </trkpt>
      <trkpt lat="36.526474" lon="-6.288635">
        <ele>67.602302</ele>
        <time>2020-08-18T09:28:25.883Z</time>
      </trkpt>
      <trkpt lat="36.526546" lon="-6.288712">
        <ele>67.371680</ele>
        <time>2020-08-18T09:28:27.870Z</time>
      </trkpt>
      <trkpt lat="36.526629" lon="-6.288777">
        <ele>67.133447</ele>
        <time>2020-08-18T09:28:30.869Z</time>
      </trkpt>
      <trkpt lat="36.526714" lon="-6.288822">
        <ele>66.909050</ele>
        <time>2020-08-18T09:28:32.867Z</time>
      </trkpt>
      <trkpt lat="36.526835" lon="-6.288836">
        <ele>66.613840</ele>
        <time>2020-08-18T09:28:35.876Z</time>
      </trkpt>
      <trkpt lat="36.526934" lon="-6.288783">
        <ele>66.352032</ele>
        <time>2020-08-18T09:28:38.868Z</time>
      </trkpt>
      <trkpt lat="36.527023" lon="-6.288719">
        <ele>66.102325</ele>
        <time>2020-08-18T09:28:41.859Z</time>
      </trkpt>
      <trkpt lat="36.527122" lon="-6.288663">
        <ele>65.838148</ele>
        <time>2020-08-18T09:28:44.870Z</time>
      </trkpt>
      <trkpt lat="36.527218" lon="-6.288617">
        <ele>65.588248</ele>
        <time>2020-08-18T09:28:47.866Z</time>
      </trkpt>
      <trkpt lat="36.527330" lon="-6.288618">
        <ele>65.316162</ele>
        <time>2020-08-18T09:28:51.865Z</time>
      </trkpt>
      <trkpt lat="36.527379" lon="-6.288738">
        <ele>65.053402</ele>
        <time>2020-08-18T09:28:56.873Z</time>
      </trkpt>
      <trkpt lat="36.527329" lon="-6.288855">
        <ele>64.794717</ele>
        <time>2020-08-18T09:29:00.883Z</time>
      </trkpt>
      <trkpt lat="36.527272" lon="-6.288946">
        <ele>64.569484</ele>
        <time>2020-08-18T09:29:02.872Z</time>
      </trkpt>
      <trkpt lat="36.527789" lon="-6.290857">
        <ele>65.760851</ele>
        <time>2020-08-18T09:31:00.869Z</time>
      </trkpt>
      <trkpt lat="36.527795" lon="-6.290999">
        <ele>65.885480</ele>
        <time>2020-08-18T09:31:02.864Z</time>
      </trkpt>
      <trkpt lat="36.527783" lon="-6.291144">
        <ele>66.013239</ele>
        <time>2020-08-18T09:31:05.884Z</time>
      </trkpt>
      <trkpt lat="36.528066" lon="-6.291295">
        <ele>65.835403</ele>
        <time>2020-08-18T09:31:08.884Z</time>
      </trkpt>
      <trkpt lat="36.528152" lon="-6.291406">
        <ele>65.648074</ele>
        <time>2020-08-18T09:31:13.904Z</time>
      </trkpt>
      <trkpt lat="36.528210" lon="-6.291497">
        <ele>65.506963</ele>
        <time>2020-08-18T09:31:17.909Z</time>
      </trkpt>
      <trkpt lat="36.528225" lon="-6.291609">
        <ele>65.369016</ele>
        <time>2020-08-18T09:31:20.894Z</time>
      </trkpt>
      <trkpt lat="36.528184" lon="-6.291767">
        <ele>65.167300</ele>
        <time>2020-08-18T09:31:30.892Z</time>
      </trkpt>
      <trkpt lat="36.528113" lon="-6.291861">
        <ele>65.010567</ele>
        <time>2020-08-18T09:31:32.893Z</time>
      </trkpt>
      <trkpt lat="36.529789" lon="-6.291889">
        <ele>63.414437</ele>
        <time>2020-08-18T09:32:53.862Z</time>
      </trkpt>
      <trkpt lat="36.529890" lon="-6.291851">
        <ele>63.414437</ele>
        <time>2020-08-18T09:32:54.854Z</time>
      </trkpt>
      <trkpt lat="36.529988" lon="-6.291862">
        <ele>63.414437</ele>
        <time>2020-08-18T09:32:57.879Z</time>
      </trkpt>
      <trkpt lat="36.530054" lon="-6.291941">
        <ele>63.414437</ele>
        <time>2020-08-18T09:33:06.862Z</time>
      </trkpt>
      <trkpt lat="36.530059" lon="-6.292078">
        <ele>63.414437</ele>
        <time>2020-08-18T09:33:10.867Z</time>
      </trkpt>
      <trkpt lat="36.530047" lon="-6.292197">
        <ele>63.414437</ele>
        <time>2020-08-18T09:33:15.865Z</time>
      </trkpt>
      <trkpt lat="36.530034" lon="-6.292192">
        <ele>63.414437</ele>
        <time>2020-08-18T09:34:11.756Z</time>
      </trkpt>
    </trkseg>
  </trk>
</gpx>
